<?xml version="1.0" encoding="UTF-8" standalone="no" ?>
<gpx xmlns="http://www.topografix.com/GPX/1/1" xmlns:xsi="http://www.w3.org/2001/XMLSchema-instance" xsi:schemaLocation="http://www.topografix.com/GPX/1/1 http://www.topografix.com/GPX/1/1/gpx.xsd" version="1.1" creator="VisuGPX - https://www.visugpx.com">
  <metadata>
    <name>Retrouver la forêt total fusion</name>
  </metadata>
  <trk>
    <name><![CDATA[14800662-Retrouver la forêt ]]></name>
    <extensions>
      <line xmlns="http://www.topografix.com/GPX/gpx_style/0/2">
        <color>0000FF</color>
        <width>4</width>
      </line>
    </extensions>
    <trkseg>
      <trkpt lat="48.12605" lon="-4.28466">
        <ele>10</ele>
        <time>2022-05-20T20:23:15Z</time>
      </trkpt>
      <trkpt lat="48.12588" lon="-4.28439">
        <ele>16</ele>
        <time>2022-05-20T20:23:19Z</time>
      </trkpt>
      <trkpt lat="48.12585" lon="-4.28425">
        <ele>18</ele>
        <time>2022-05-20T20:23:21Z</time>
      </trkpt>
      <trkpt lat="48.12597" lon="-4.28404">
        <ele>18</ele>
        <time>2022-05-20T20:23:24Z</time>
      </trkpt>
      <trkpt lat="48.12577" lon="-4.28323">
        <ele>29</ele>
        <time>2022-05-20T20:23:35Z</time>
      </trkpt>
      <trkpt lat="48.12566" lon="-4.28264">
        <ele>33</ele>
        <time>2022-05-20T20:23:42Z</time>
      </trkpt>
      <trkpt lat="48.12561" lon="-4.28251">
        <ele>34</ele>
        <time>2022-05-20T20:23:44Z</time>
      </trkpt>
      <trkpt lat="48.12558" lon="-4.28225">
        <ele>36</ele>
        <time>2022-05-20T20:23:47Z</time>
      </trkpt>
      <trkpt lat="48.12564" lon="-4.28213">
        <ele>36</ele>
        <time>2022-05-20T20:23:49Z</time>
      </trkpt>
      <trkpt lat="48.126" lon="-4.28186">
        <ele>35</ele>
        <time>2022-05-20T20:23:56Z</time>
      </trkpt>
      <trkpt lat="48.12609" lon="-4.28176">
        <ele>35</ele>
        <time>2022-05-20T20:23:58Z</time>
      </trkpt>
      <trkpt lat="48.12611" lon="-4.28145">
        <ele>37</ele>
        <time>2022-05-20T20:24:02Z</time>
      </trkpt>
      <trkpt lat="48.12607" lon="-4.2813">
        <ele>38</ele>
        <time>2022-05-20T20:24:03Z</time>
      </trkpt>
      <trkpt lat="48.12606" lon="-4.28037">
        <ele>40</ele>
        <time>2022-05-20T20:24:14Z</time>
      </trkpt>
      <trkpt lat="48.12602" lon="-4.27918">
        <ele>41</ele>
        <time>2022-05-20T20:24:29Z</time>
      </trkpt>
      <trkpt lat="48.12598" lon="-4.27872">
        <ele>43</ele>
        <time>2022-05-20T20:24:34Z</time>
      </trkpt>
      <trkpt lat="48.12593" lon="-4.27646">
        <ele>48</ele>
        <time>2022-05-20T20:25:01Z</time>
      </trkpt>
      <trkpt lat="48.12588" lon="-4.27633">
        <ele>48</ele>
        <time>2022-05-20T20:25:03Z</time>
      </trkpt>
      <trkpt lat="48.12572" lon="-4.27613">
        <ele>49</ele>
        <time>2022-05-20T20:25:06Z</time>
      </trkpt>
      <trkpt lat="48.1257" lon="-4.27598">
        <ele>49</ele>
        <time>2022-05-20T20:25:08Z</time>
      </trkpt>
      <trkpt lat="48.12577" lon="-4.27584">
        <ele>48</ele>
        <time>2022-05-20T20:25:10Z</time>
      </trkpt>
      <trkpt lat="48.12638" lon="-4.275">
        <ele>45</ele>
        <time>2022-05-20T20:25:25Z</time>
      </trkpt>
      <trkpt lat="48.12646" lon="-4.27485">
        <ele>45</ele>
        <time>2022-05-20T20:25:27Z</time>
      </trkpt>
      <trkpt lat="48.1267" lon="-4.27453">
        <ele>43</ele>
        <time>2022-05-20T20:25:33Z</time>
      </trkpt>
      <trkpt lat="48.12839" lon="-4.27204">
        <ele>40</ele>
        <time>2022-05-20T20:26:15Z</time>
      </trkpt>
      <trkpt lat="48.12865" lon="-4.2717">
        <ele>40</ele>
        <time>2022-05-20T20:26:21Z</time>
      </trkpt>
      <trkpt lat="48.12871" lon="-4.27158">
        <ele>40</ele>
        <time>2022-05-20T20:26:23Z</time>
      </trkpt>
      <trkpt lat="48.1287" lon="-4.27141">
        <ele>40</ele>
        <time>2022-05-20T20:26:25Z</time>
      </trkpt>
      <trkpt lat="48.12862" lon="-4.2713">
        <ele>39</ele>
        <time>2022-05-20T20:26:27Z</time>
      </trkpt>
      <trkpt lat="48.12838" lon="-4.27113">
        <ele>38</ele>
        <time>2022-05-20T20:26:32Z</time>
      </trkpt>
      <trkpt lat="48.12809" lon="-4.27099">
        <ele>38</ele>
        <time>2022-05-20T20:26:37Z</time>
      </trkpt>
      <trkpt lat="48.1278" lon="-4.27073">
        <ele>38</ele>
        <time>2022-05-20T20:26:43Z</time>
      </trkpt>
      <trkpt lat="48.12786" lon="-4.27049">
        <ele>38</ele>
        <time>2022-05-20T20:26:46Z</time>
      </trkpt>
      <trkpt lat="48.12796" lon="-4.27043">
        <ele>37</ele>
        <time>2022-05-20T20:26:48Z</time>
      </trkpt>
      <trkpt lat="48.12805" lon="-4.27029">
        <ele>37</ele>
        <time>2022-05-20T20:26:51Z</time>
      </trkpt>
      <trkpt lat="48.12824" lon="-4.26979">
        <ele>35</ele>
        <time>2022-05-20T20:26:57Z</time>
      </trkpt>
      <trkpt lat="48.12822" lon="-4.26877">
        <ele>31</ele>
        <time>2022-05-20T20:27:10Z</time>
      </trkpt>
      <trkpt lat="48.12829" lon="-4.26798">
        <ele>26</ele>
        <time>2022-05-20T20:27:19Z</time>
      </trkpt>
      <trkpt lat="48.12855" lon="-4.26692">
        <ele>14</ele>
        <time>2022-05-20T20:27:32Z</time>
      </trkpt>
      <trkpt lat="48.12852" lon="-4.26677">
        <ele>13</ele>
        <time>2022-05-20T20:27:34Z</time>
      </trkpt>
      <trkpt lat="48.12842" lon="-4.26663">
        <ele>12</ele>
        <time>2022-05-20T20:27:37Z</time>
      </trkpt>
      <trkpt lat="48.12832" lon="-4.26655">
        <ele>12</ele>
        <time>2022-05-20T20:27:39Z</time>
      </trkpt>
      <trkpt lat="48.12832" lon="-4.26641">
        <ele>11</ele>
        <time>2022-05-20T20:27:40Z</time>
      </trkpt>
      <trkpt lat="48.12845" lon="-4.26643">
        <ele>10</ele>
        <time>2022-05-20T20:27:43Z</time>
      </trkpt>
      <trkpt lat="48.12865" lon="-4.26653">
        <ele>10</ele>
        <time>2022-05-20T20:27:46Z</time>
      </trkpt>
      <trkpt lat="48.12876" lon="-4.26653">
        <ele>9</ele>
        <time>2022-05-20T20:27:48Z</time>
      </trkpt>
      <trkpt lat="48.12865" lon="-4.26651">
        <ele>10</ele>
        <time>2022-05-20T20:27:50Z</time>
      </trkpt>
      <trkpt lat="48.12837" lon="-4.2664">
        <ele>11</ele>
        <time>2022-05-20T20:27:56Z</time>
      </trkpt>
      <trkpt lat="48.12828" lon="-4.26642">
        <ele>11</ele>
        <time>2022-05-20T20:27:57Z</time>
      </trkpt>
      <trkpt lat="48.12808" lon="-4.26635">
        <ele>12</ele>
        <time>2022-05-20T20:28:01Z</time>
      </trkpt>
      <trkpt lat="48.12799" lon="-4.2663">
        <ele>12</ele>
        <time>2022-05-20T20:28:03Z</time>
      </trkpt>
      <trkpt lat="48.1277" lon="-4.26601">
        <ele>12</ele>
        <time>2022-05-20T20:28:09Z</time>
      </trkpt>
      <trkpt lat="48.12738" lon="-4.2658">
        <ele>12</ele>
        <time>2022-05-20T20:28:15Z</time>
      </trkpt>
      <trkpt lat="48.12728" lon="-4.26575">
        <ele>13</ele>
        <time>2022-05-20T20:28:17Z</time>
      </trkpt>
      <trkpt lat="48.1266" lon="-4.26554">
        <ele>15</ele>
        <time>2022-05-20T20:28:29Z</time>
      </trkpt>
      <trkpt lat="48.12651" lon="-4.26553">
        <ele>16</ele>
        <time>2022-05-20T20:28:31Z</time>
      </trkpt>
      <trkpt lat="48.12631" lon="-4.26545">
        <ele>17</ele>
        <time>2022-05-20T20:28:34Z</time>
      </trkpt>
      <trkpt lat="48.12603" lon="-4.26529">
        <ele>18</ele>
        <time>2022-05-20T20:28:40Z</time>
      </trkpt>
      <trkpt lat="48.12594" lon="-4.26521">
        <ele>19</ele>
        <time>2022-05-20T20:28:42Z</time>
      </trkpt>
      <trkpt lat="48.12564" lon="-4.26488">
        <ele>22</ele>
        <time>2022-05-20T20:28:48Z</time>
      </trkpt>
      <trkpt lat="48.12533" lon="-4.26447">
        <ele>26</ele>
        <time>2022-05-20T20:28:56Z</time>
      </trkpt>
      <trkpt lat="48.12547" lon="-4.26453">
        <ele>24</ele>
        <time>2022-05-20T20:28:58Z</time>
      </trkpt>
      <trkpt lat="48.12512" lon="-4.2636">
        <ele>29</ele>
        <time>2022-05-20T20:29:11Z</time>
      </trkpt>
      <trkpt lat="48.12484" lon="-4.2632">
        <ele>33</ele>
        <time>2022-05-20T20:29:18Z</time>
      </trkpt>
      <trkpt lat="48.12456" lon="-4.26287">
        <ele>34</ele>
        <time>2022-05-20T20:29:24Z</time>
      </trkpt>
      <trkpt lat="48.12418" lon="-4.26263">
        <ele>37</ele>
        <time>2022-05-20T20:29:31Z</time>
      </trkpt>
      <trkpt lat="48.12398" lon="-4.26254">
        <ele>38</ele>
        <time>2022-05-20T20:29:35Z</time>
      </trkpt>
      <trkpt lat="48.12363" lon="-4.26226">
        <ele>41</ele>
        <time>2022-05-20T20:29:42Z</time>
      </trkpt>
      <trkpt lat="48.12338" lon="-4.26198">
        <ele>43</ele>
        <time>2022-05-20T20:29:48Z</time>
      </trkpt>
      <trkpt lat="48.12279" lon="-4.26115">
        <ele>46</ele>
        <time>2022-05-20T20:30:02Z</time>
      </trkpt>
      <trkpt lat="48.1226" lon="-4.26092">
        <ele>46</ele>
        <time>2022-05-20T20:30:07Z</time>
      </trkpt>
      <trkpt lat="48.12231" lon="-4.26066">
        <ele>45</ele>
        <time>2022-05-20T20:30:13Z</time>
      </trkpt>
      <trkpt lat="48.12217" lon="-4.26056">
        <ele>44</ele>
        <time>2022-05-20T20:30:15Z</time>
      </trkpt>
      <trkpt lat="48.12186" lon="-4.26041">
        <ele>42</ele>
        <time>2022-05-20T20:30:21Z</time>
      </trkpt>
      <trkpt lat="48.12168" lon="-4.26035">
        <ele>41</ele>
        <time>2022-05-20T20:30:24Z</time>
      </trkpt>
      <trkpt lat="48.12136" lon="-4.26029">
        <ele>41</ele>
        <time>2022-05-20T20:30:30Z</time>
      </trkpt>
      <trkpt lat="48.1211" lon="-4.2602">
        <ele>40</ele>
        <time>2022-05-20T20:30:35Z</time>
      </trkpt>
      <trkpt lat="48.12022" lon="-4.25973">
        <ele>42</ele>
        <time>2022-05-20T20:30:52Z</time>
      </trkpt>
      <trkpt lat="48.11962" lon="-4.25949">
        <ele>44</ele>
        <time>2022-05-20T20:31:03Z</time>
      </trkpt>
      <trkpt lat="48.11916" lon="-4.25913">
        <ele>45</ele>
        <time>2022-05-20T20:31:12Z</time>
      </trkpt>
      <trkpt lat="48.11877" lon="-4.25886">
        <ele>43</ele>
        <time>2022-05-20T20:31:19Z</time>
      </trkpt>
      <trkpt lat="48.11831" lon="-4.25873">
        <ele>43</ele>
        <time>2022-05-20T20:31:28Z</time>
      </trkpt>
      <trkpt lat="48.11803" lon="-4.25858">
        <ele>43</ele>
        <time>2022-05-20T20:31:33Z</time>
      </trkpt>
      <trkpt lat="48.11773" lon="-4.25825">
        <ele>42</ele>
        <time>2022-05-20T20:31:40Z</time>
      </trkpt>
      <trkpt lat="48.11767" lon="-4.25814">
        <ele>42</ele>
        <time>2022-05-20T20:31:41Z</time>
      </trkpt>
      <trkpt lat="48.1177" lon="-4.258">
        <ele>42</ele>
        <time>2022-05-20T20:31:43Z</time>
      </trkpt>
      <trkpt lat="48.11763" lon="-4.25809">
        <ele>42</ele>
        <time>2022-05-20T20:31:45Z</time>
      </trkpt>
      <trkpt lat="48.11753" lon="-4.25804">
        <ele>43</ele>
        <time>2022-05-20T20:31:47Z</time>
      </trkpt>
      <trkpt lat="48.11745" lon="-4.25795">
        <ele>43</ele>
        <time>2022-05-20T20:31:48Z</time>
      </trkpt>
      <trkpt lat="48.11728" lon="-4.25784">
        <ele>44</ele>
        <time>2022-05-20T20:31:52Z</time>
      </trkpt>
      <trkpt lat="48.11666" lon="-4.25766">
        <ele>48</ele>
        <time>2022-05-20T20:32:03Z</time>
      </trkpt>
      <trkpt lat="48.11646" lon="-4.25753">
        <ele>48</ele>
        <time>2022-05-20T20:32:07Z</time>
      </trkpt>
      <trkpt lat="48.11623" lon="-4.25728">
        <ele>49</ele>
        <time>2022-05-20T20:32:12Z</time>
      </trkpt>
      <trkpt lat="48.11596" lon="-4.25707">
        <ele>50</ele>
        <time>2022-05-20T20:32:17Z</time>
      </trkpt>
      <trkpt lat="48.11575" lon="-4.25697">
        <ele>51</ele>
        <time>2022-05-20T20:32:21Z</time>
      </trkpt>
      <trkpt lat="48.11461" lon="-4.25662">
        <ele>55</ele>
        <time>2022-05-20T20:32:42Z</time>
      </trkpt>
      <trkpt lat="48.11419" lon="-4.25662">
        <ele>57</ele>
        <time>2022-05-20T20:32:49Z</time>
      </trkpt>
      <trkpt lat="48.11356" lon="-4.25674">
        <ele>60</ele>
        <time>2022-05-20T20:33:01Z</time>
      </trkpt>
      <trkpt lat="48.1127" lon="-4.25681">
        <ele>63</ele>
        <time>2022-05-20T20:33:16Z</time>
      </trkpt>
      <trkpt lat="48.11248" lon="-4.25686">
        <ele>63</ele>
        <time>2022-05-20T20:33:20Z</time>
      </trkpt>
      <trkpt lat="48.11183" lon="-4.25712">
        <ele>64</ele>
        <time>2022-05-20T20:33:32Z</time>
      </trkpt>
      <trkpt lat="48.11173" lon="-4.25718">
        <ele>64</ele>
        <time>2022-05-20T20:33:34Z</time>
      </trkpt>
      <trkpt lat="48.11154" lon="-4.25732">
        <ele>65</ele>
        <time>2022-05-20T20:33:38Z</time>
      </trkpt>
      <trkpt lat="48.11144" lon="-4.25743">
        <ele>64</ele>
        <time>2022-05-20T20:33:40Z</time>
      </trkpt>
      <trkpt lat="48.11138" lon="-4.25757">
        <ele>64</ele>
        <time>2022-05-20T20:33:42Z</time>
      </trkpt>
      <trkpt lat="48.11127" lon="-4.2576">
        <ele>64</ele>
        <time>2022-05-20T20:33:44Z</time>
      </trkpt>
      <trkpt lat="48.11094" lon="-4.25718">
        <ele>64</ele>
        <time>2022-05-20T20:33:52Z</time>
      </trkpt>
      <trkpt lat="48.10905" lon="-4.25344">
        <ele>66</ele>
        <time>2022-05-20T20:34:47Z</time>
      </trkpt>
      <trkpt lat="48.10894" lon="-4.25316">
        <ele>67</ele>
        <time>2022-05-20T20:34:51Z</time>
      </trkpt>
      <trkpt lat="48.10894" lon="-4.25302">
        <ele>67</ele>
        <time>2022-05-20T20:34:53Z</time>
      </trkpt>
      <trkpt lat="48.10903" lon="-4.25272">
        <ele>67</ele>
        <time>2022-05-20T20:34:57Z</time>
      </trkpt>
      <trkpt lat="48.11021" lon="-4.24949">
        <ele>57</ele>
        <time>2022-05-20T20:35:40Z</time>
      </trkpt>
      <trkpt lat="48.11115" lon="-4.24734">
        <ele>45</ele>
        <time>2022-05-20T20:36:11Z</time>
      </trkpt>
      <trkpt lat="48.11141" lon="-4.24665">
        <ele>42</ele>
        <time>2022-05-20T20:36:20Z</time>
      </trkpt>
      <trkpt lat="48.11169" lon="-4.24601">
        <ele>40</ele>
        <time>2022-05-20T20:36:29Z</time>
      </trkpt>
      <trkpt lat="48.11186" lon="-4.24551">
        <ele>37</ele>
        <time>2022-05-20T20:36:36Z</time>
      </trkpt>
      <trkpt lat="48.11208" lon="-4.24422">
        <ele>29</ele>
        <time>2022-05-20T20:36:52Z</time>
      </trkpt>
      <trkpt lat="48.11226" lon="-4.24333">
        <ele>28</ele>
        <time>2022-05-20T20:37:03Z</time>
      </trkpt>
      <trkpt lat="48.11265" lon="-4.24209">
        <ele>30</ele>
        <time>2022-05-20T20:37:19Z</time>
      </trkpt>
      <trkpt lat="48.11273" lon="-4.24169">
        <ele>32</ele>
        <time>2022-05-20T20:37:24Z</time>
      </trkpt>
      <trkpt lat="48.1134" lon="-4.2401">
        <ele>43</ele>
        <time>2022-05-20T20:37:47Z</time>
      </trkpt>
      <trkpt lat="48.11343" lon="-4.23996">
        <ele>44</ele>
        <time>2022-05-20T20:37:48Z</time>
      </trkpt>
      <trkpt lat="48.11341" lon="-4.23969">
        <ele>45</ele>
        <time>2022-05-20T20:37:52Z</time>
      </trkpt>
      <trkpt lat="48.11349" lon="-4.23959">
        <ele>46</ele>
        <time>2022-05-20T20:37:53Z</time>
      </trkpt>
      <trkpt lat="48.11367" lon="-4.2395">
        <ele>48</ele>
        <time>2022-05-20T20:37:57Z</time>
      </trkpt>
      <trkpt lat="48.11374" lon="-4.23938">
        <ele>49</ele>
        <time>2022-05-20T20:37:59Z</time>
      </trkpt>
      <trkpt lat="48.11377" lon="-4.23924">
        <ele>50</ele>
        <time>2022-05-20T20:38:00Z</time>
      </trkpt>
      <trkpt lat="48.11387" lon="-4.239">
        <ele>52</ele>
        <time>2022-05-20T20:38:04Z</time>
      </trkpt>
      <trkpt lat="48.11421" lon="-4.23826">
        <ele>58</ele>
        <time>2022-05-20T20:38:14Z</time>
      </trkpt>
      <trkpt lat="48.11427" lon="-4.238">
        <ele>60</ele>
        <time>2022-05-20T20:38:18Z</time>
      </trkpt>
      <trkpt lat="48.11419" lon="-4.23772">
        <ele>60</ele>
        <time>2022-05-20T20:38:21Z</time>
      </trkpt>
      <trkpt lat="48.11398" lon="-4.23737">
        <ele>61</ele>
        <time>2022-05-20T20:38:27Z</time>
      </trkpt>
      <trkpt lat="48.11387" lon="-4.23708">
        <ele>61</ele>
        <time>2022-05-20T20:38:31Z</time>
      </trkpt>
      <trkpt lat="48.1135" lon="-4.23577">
        <ele>66</ele>
        <time>2022-05-20T20:38:48Z</time>
      </trkpt>
      <trkpt lat="48.11344" lon="-4.23548">
        <ele>68</ele>
        <time>2022-05-20T20:38:51Z</time>
      </trkpt>
      <trkpt lat="48.11339" lon="-4.23536">
        <ele>68</ele>
        <time>2022-05-20T20:38:53Z</time>
      </trkpt>
      <trkpt lat="48.1133" lon="-4.23524">
        <ele>69</ele>
        <time>2022-05-20T20:38:55Z</time>
      </trkpt>
      <trkpt lat="48.1132" lon="-4.23517">
        <ele>69</ele>
        <time>2022-05-20T20:38:57Z</time>
      </trkpt>
      <trkpt lat="48.11298" lon="-4.23519">
        <ele>70</ele>
        <time>2022-05-20T20:39:01Z</time>
      </trkpt>
      <trkpt lat="48.11234" lon="-4.23552">
        <ele>65</ele>
        <time>2022-05-20T20:39:13Z</time>
      </trkpt>
      <trkpt lat="48.11203" lon="-4.23565">
        <ele>62</ele>
        <time>2022-05-20T20:39:19Z</time>
      </trkpt>
      <trkpt lat="48.11185" lon="-4.2357">
        <ele>60</ele>
        <time>2022-05-20T20:39:22Z</time>
      </trkpt>
      <trkpt lat="48.11163" lon="-4.23567">
        <ele>59</ele>
        <time>2022-05-20T20:39:26Z</time>
      </trkpt>
      <trkpt lat="48.1107" lon="-4.23532">
        <ele>52</ele>
        <time>2022-05-20T20:39:43Z</time>
      </trkpt>
      <trkpt lat="48.11061" lon="-4.23525">
        <ele>51</ele>
        <time>2022-05-20T20:39:45Z</time>
      </trkpt>
      <trkpt lat="48.11034" lon="-4.23492">
        <ele>47</ele>
        <time>2022-05-20T20:39:51Z</time>
      </trkpt>
      <trkpt lat="48.11019" lon="-4.2346">
        <ele>44</ele>
        <time>2022-05-20T20:39:56Z</time>
      </trkpt>
      <trkpt lat="48.10986" lon="-4.23368">
        <ele>40</ele>
        <time>2022-05-20T20:40:08Z</time>
      </trkpt>
      <trkpt lat="48.10973" lon="-4.23343">
        <ele>40</ele>
        <time>2022-05-20T20:40:12Z</time>
      </trkpt>
      <trkpt lat="48.10936" lon="-4.23313">
        <ele>38</ele>
        <time>2022-05-20T20:40:19Z</time>
      </trkpt>
      <trkpt lat="48.10901" lon="-4.23273">
        <ele>38</ele>
        <time>2022-05-20T20:40:27Z</time>
      </trkpt>
      <trkpt lat="48.10893" lon="-4.23268">
        <ele>38</ele>
        <time>2022-05-20T20:40:29Z</time>
      </trkpt>
      <trkpt lat="48.10829" lon="-4.2315">
        <ele>45</ele>
        <time>2022-05-20T20:40:47Z</time>
      </trkpt>
      <trkpt lat="48.10816" lon="-4.2311">
        <ele>48</ele>
        <time>2022-05-20T20:40:52Z</time>
      </trkpt>
      <trkpt lat="48.10814" lon="-4.23096">
        <ele>48</ele>
        <time>2022-05-20T20:40:54Z</time>
      </trkpt>
      <trkpt lat="48.10816" lon="-4.23065">
        <ele>50</ele>
        <time>2022-05-20T20:40:58Z</time>
      </trkpt>
      <trkpt lat="48.10812" lon="-4.23021">
        <ele>54</ele>
        <time>2022-05-20T20:41:03Z</time>
      </trkpt>
      <trkpt lat="48.10813" lon="-4.22962">
        <ele>57</ele>
        <time>2022-05-20T20:41:10Z</time>
      </trkpt>
      <trkpt lat="48.10809" lon="-4.22876">
        <ele>62</ele>
        <time>2022-05-20T20:41:20Z</time>
      </trkpt>
      <trkpt lat="48.10804" lon="-4.22833">
        <ele>65</ele>
        <time>2022-05-20T20:41:25Z</time>
      </trkpt>
      <trkpt lat="48.10796" lon="-4.22805">
        <ele>67</ele>
        <time>2022-05-20T20:41:29Z</time>
      </trkpt>
      <trkpt lat="48.10772" lon="-4.22691">
        <ele>72</ele>
        <time>2022-05-20T20:41:43Z</time>
      </trkpt>
      <trkpt lat="48.10728" lon="-4.22539">
        <ele>74</ele>
        <time>2022-05-20T20:42:03Z</time>
      </trkpt>
      <trkpt lat="48.10708" lon="-4.22501">
        <ele>74</ele>
        <time>2022-05-20T20:42:09Z</time>
      </trkpt>
      <trkpt lat="48.10642" lon="-4.22394">
        <ele>73</ele>
        <time>2022-05-20T20:42:26Z</time>
      </trkpt>
      <trkpt lat="48.105" lon="-4.2215">
        <ele>79</ele>
        <time>2022-05-20T20:43:04Z</time>
      </trkpt>
      <trkpt lat="48.10422" lon="-4.22026">
        <ele>86</ele>
        <time>2022-05-20T20:43:25Z</time>
      </trkpt>
      <trkpt lat="48.10402" lon="-4.2199">
        <ele>88</ele>
        <time>2022-05-20T20:43:30Z</time>
      </trkpt>
      <trkpt lat="48.10298" lon="-4.2183">
        <ele>99</ele>
        <time>2022-05-20T20:43:57Z</time>
      </trkpt>
      <trkpt lat="48.10282" lon="-4.21792">
        <ele>100</ele>
        <time>2022-05-20T20:44:02Z</time>
      </trkpt>
      <trkpt lat="48.10248" lon="-4.21686">
        <ele>106</ele>
        <time>2022-05-20T20:44:16Z</time>
      </trkpt>
      <trkpt lat="48.10217" lon="-4.21626">
        <ele>110</ele>
        <time>2022-05-20T20:44:25Z</time>
      </trkpt>
      <trkpt lat="48.10186" lon="-4.21589">
        <ele>113</ele>
        <time>2022-05-20T20:44:32Z</time>
      </trkpt>
      <trkpt lat="48.10153" lon="-4.21559">
        <ele>115</ele>
        <time>2022-05-20T20:44:39Z</time>
      </trkpt>
      <trkpt lat="48.10138" lon="-4.21541">
        <ele>117</ele>
        <time>2022-05-20T20:44:42Z</time>
      </trkpt>
      <trkpt lat="48.10061" lon="-4.21473">
        <ele>123</ele>
        <time>2022-05-20T20:44:58Z</time>
      </trkpt>
      <trkpt lat="48.10046" lon="-4.21455">
        <ele>124</ele>
        <time>2022-05-20T20:45:02Z</time>
      </trkpt>
      <trkpt lat="48.10028" lon="-4.21421">
        <ele>125</ele>
        <time>2022-05-20T20:45:07Z</time>
      </trkpt>
      <trkpt lat="48.1002" lon="-4.21411">
        <ele>126</ele>
        <time>2022-05-20T20:45:09Z</time>
      </trkpt>
      <trkpt lat="48.10012" lon="-4.21406">
        <ele>127</ele>
        <time>2022-05-20T20:45:10Z</time>
      </trkpt>
      <trkpt lat="48.09991" lon="-4.21403">
        <ele>129</ele>
        <time>2022-05-20T20:45:14Z</time>
      </trkpt>
      <trkpt lat="48.09982" lon="-4.21397">
        <ele>130</ele>
        <time>2022-05-20T20:45:16Z</time>
      </trkpt>
      <trkpt lat="48.0995" lon="-4.21362">
        <ele>135</ele>
        <time>2022-05-20T20:45:23Z</time>
      </trkpt>
      <trkpt lat="48.09925" lon="-4.21318">
        <ele>139</ele>
        <time>2022-05-20T20:45:30Z</time>
      </trkpt>
      <trkpt lat="48.09915" lon="-4.21317">
        <ele>140</ele>
        <time>2022-05-20T20:45:31Z</time>
      </trkpt>
      <trkpt lat="48.09914" lon="-4.21295">
        <ele>140</ele>
        <time>2022-05-20T20:45:34Z</time>
      </trkpt>
      <trkpt lat="48.09874" lon="-4.2119">
        <ele>146</ele>
        <time>2022-05-20T20:45:48Z</time>
      </trkpt>
      <trkpt lat="48.09871" lon="-4.21177">
        <ele>146</ele>
        <time>2022-05-20T20:45:50Z</time>
      </trkpt>
      <trkpt lat="48.09855" lon="-4.2114">
        <ele>148</ele>
        <time>2022-05-20T20:45:55Z</time>
      </trkpt>
      <trkpt lat="48.09852" lon="-4.21127">
        <ele>148</ele>
        <time>2022-05-20T20:45:57Z</time>
      </trkpt>
      <trkpt lat="48.0983" lon="-4.21096">
        <ele>150</ele>
        <time>2022-05-20T20:46:02Z</time>
      </trkpt>
      <trkpt lat="48.09821" lon="-4.21088">
        <ele>151</ele>
        <time>2022-05-20T20:46:04Z</time>
      </trkpt>
      <trkpt lat="48.09812" lon="-4.21081">
        <ele>151</ele>
        <time>2022-05-20T20:46:06Z</time>
      </trkpt>
      <trkpt lat="48.09793" lon="-4.21081">
        <ele>152</ele>
        <time>2022-05-20T20:46:09Z</time>
      </trkpt>
      <trkpt lat="48.09797" lon="-4.21037">
        <ele>153</ele>
        <time>2022-05-20T20:46:15Z</time>
      </trkpt>
      <trkpt lat="48.09796" lon="-4.21023">
        <ele>153</ele>
        <time>2022-05-20T20:46:16Z</time>
      </trkpt>
      <trkpt lat="48.09806" lon="-4.20974">
        <ele>153</ele>
        <time>2022-05-20T20:46:22Z</time>
      </trkpt>
      <trkpt lat="48.09823" lon="-4.20848">
        <ele>156</ele>
        <time>2022-05-20T20:46:38Z</time>
      </trkpt>
      <trkpt lat="48.09828" lon="-4.20836">
        <ele>156</ele>
        <time>2022-05-20T20:46:39Z</time>
      </trkpt>
      <trkpt lat="48.09837" lon="-4.20841">
        <ele>155</ele>
        <time>2022-05-20T20:46:41Z</time>
      </trkpt>
      <trkpt lat="48.09839" lon="-4.20817">
        <ele>156</ele>
        <time>2022-05-20T20:46:44Z</time>
      </trkpt>
      <trkpt lat="48.0983" lon="-4.20822">
        <ele>157</ele>
        <time>2022-05-20T20:46:46Z</time>
      </trkpt>
      <trkpt lat="48.09838" lon="-4.20817">
        <ele>156</ele>
        <time>2022-05-20T20:46:47Z</time>
      </trkpt>
      <trkpt lat="48.09846" lon="-4.20792">
        <ele>156</ele>
        <time>2022-05-20T20:46:50Z</time>
      </trkpt>
      <trkpt lat="48.09845" lon="-4.20776">
        <ele>157</ele>
        <time>2022-05-20T20:46:52Z</time>
      </trkpt>
      <trkpt lat="48.09852" lon="-4.20766">
        <ele>157</ele>
        <time>2022-05-20T20:46:54Z</time>
      </trkpt>
      <trkpt lat="48.09859" lon="-4.20709">
        <ele>158</ele>
        <time>2022-05-20T20:47:01Z</time>
      </trkpt>
      <trkpt lat="48.09869" lon="-4.20681">
        <ele>157</ele>
        <time>2022-05-20T20:47:05Z</time>
      </trkpt>
      <trkpt lat="48.09877" lon="-4.20676">
        <ele>156</ele>
        <time>2022-05-20T20:47:06Z</time>
      </trkpt>
      <trkpt lat="48.09879" lon="-4.20691">
        <ele>156</ele>
        <time>2022-05-20T20:47:08Z</time>
      </trkpt>
      <trkpt lat="48.09888" lon="-4.20685">
        <ele>155</ele>
        <time>2022-05-20T20:47:10Z</time>
      </trkpt>
      <trkpt lat="48.09889" lon="-4.20671">
        <ele>155</ele>
        <time>2022-05-20T20:47:11Z</time>
      </trkpt>
      <trkpt lat="48.09393" lon="-4.21277">
        <ele>161</ele>
        <time>2022-05-20T20:49:05Z</time>
      </trkpt>
      <trkpt lat="48.09385" lon="-4.21288">
        <ele>161</ele>
        <time>2022-05-20T20:49:07Z</time>
      </trkpt>
      <trkpt lat="48.0938" lon="-4.21301">
        <ele>162</ele>
        <time>2022-05-20T20:49:09Z</time>
      </trkpt>
      <trkpt lat="48.0933" lon="-4.21316">
        <ele>163</ele>
        <time>2022-05-20T20:49:18Z</time>
      </trkpt>
      <trkpt lat="48.09313" lon="-4.21326">
        <ele>163</ele>
        <time>2022-05-20T20:49:21Z</time>
      </trkpt>
      <trkpt lat="48.09306" lon="-4.21338">
        <ele>163</ele>
        <time>2022-05-20T20:49:23Z</time>
      </trkpt>
      <trkpt lat="48.09301" lon="-4.21358">
        <ele>163</ele>
        <time>2022-05-20T20:49:26Z</time>
      </trkpt>
      <trkpt lat="48.09309" lon="-4.21388">
        <ele>164</ele>
        <time>2022-05-20T20:49:30Z</time>
      </trkpt>
      <trkpt lat="48.09309" lon="-4.21423">
        <ele>164</ele>
        <time>2022-05-20T20:49:34Z</time>
      </trkpt>
      <trkpt lat="48.09319" lon="-4.21476">
        <ele>163</ele>
        <time>2022-05-20T20:49:40Z</time>
      </trkpt>
      <trkpt lat="48.09309" lon="-4.21575">
        <ele>161</ele>
        <time>2022-05-20T20:49:52Z</time>
      </trkpt>
      <trkpt lat="48.09292" lon="-4.21652">
        <ele>160</ele>
        <time>2022-05-20T20:50:02Z</time>
      </trkpt>
      <trkpt lat="48.09293" lon="-4.2167">
        <ele>160</ele>
        <time>2022-05-20T20:50:04Z</time>
      </trkpt>
      <trkpt lat="48.09303" lon="-4.21714">
        <ele>160</ele>
        <time>2022-05-20T20:50:10Z</time>
      </trkpt>
      <trkpt lat="48.09303" lon="-4.21728">
        <ele>160</ele>
        <time>2022-05-20T20:50:11Z</time>
      </trkpt>
      <trkpt lat="48.09315" lon="-4.21773">
        <ele>161</ele>
        <time>2022-05-20T20:50:17Z</time>
      </trkpt>
      <trkpt lat="48.09316" lon="-4.21792">
        <ele>161</ele>
        <time>2022-05-20T20:50:19Z</time>
      </trkpt>
      <trkpt lat="48.09324" lon="-4.21825">
        <ele>161</ele>
        <time>2022-05-20T20:50:23Z</time>
      </trkpt>
      <trkpt lat="48.09331" lon="-4.21893">
        <ele>159</ele>
        <time>2022-05-20T20:50:32Z</time>
      </trkpt>
      <trkpt lat="48.09348" lon="-4.21958">
        <ele>157</ele>
        <time>2022-05-20T20:50:40Z</time>
      </trkpt>
      <trkpt lat="48.09345" lon="-4.21974">
        <ele>157</ele>
        <time>2022-05-20T20:50:42Z</time>
      </trkpt>
      <trkpt lat="48.09281" lon="-4.221">
        <ele>155</ele>
        <time>2022-05-20T20:51:01Z</time>
      </trkpt>
      <trkpt lat="48.09228" lon="-4.2218">
        <ele>153</ele>
        <time>2022-05-20T20:51:14Z</time>
      </trkpt>
      <trkpt lat="48.0919" lon="-4.22232">
        <ele>154</ele>
        <time>2022-05-20T20:51:23Z</time>
      </trkpt>
      <trkpt lat="48.09167" lon="-4.2227">
        <ele>155</ele>
        <time>2022-05-20T20:51:29Z</time>
      </trkpt>
      <trkpt lat="48.09086" lon="-4.22358">
        <ele>152</ele>
        <time>2022-05-20T20:51:47Z</time>
      </trkpt>
      <trkpt lat="48.09035" lon="-4.22425">
        <ele>151</ele>
        <time>2022-05-20T20:51:59Z</time>
      </trkpt>
      <trkpt lat="48.09027" lon="-4.2244">
        <ele>151</ele>
        <time>2022-05-20T20:52:02Z</time>
      </trkpt>
      <trkpt lat="48.09004" lon="-4.22497">
        <ele>151</ele>
        <time>2022-05-20T20:52:09Z</time>
      </trkpt>
      <trkpt lat="48.08985" lon="-4.22558">
        <ele>149</ele>
        <time>2022-05-20T20:52:17Z</time>
      </trkpt>
      <trkpt lat="48.08967" lon="-4.22597">
        <ele>147</ele>
        <time>2022-05-20T20:52:23Z</time>
      </trkpt>
      <trkpt lat="48.0896" lon="-4.22624">
        <ele>145</ele>
        <time>2022-05-20T20:52:27Z</time>
      </trkpt>
      <trkpt lat="48.08946" lon="-4.22655">
        <ele>143</ele>
        <time>2022-05-20T20:52:31Z</time>
      </trkpt>
      <trkpt lat="48.08922" lon="-4.22722">
        <ele>139</ele>
        <time>2022-05-20T20:52:40Z</time>
      </trkpt>
      <trkpt lat="48.0891" lon="-4.22747">
        <ele>138</ele>
        <time>2022-05-20T20:52:44Z</time>
      </trkpt>
      <trkpt lat="48.08898" lon="-4.22788">
        <ele>137</ele>
        <time>2022-05-20T20:52:49Z</time>
      </trkpt>
      <trkpt lat="48.0889" lon="-4.22801">
        <ele>136</ele>
        <time>2022-05-20T20:52:51Z</time>
      </trkpt>
      <trkpt lat="48.08868" lon="-4.22863">
        <ele>136</ele>
        <time>2022-05-20T20:52:59Z</time>
      </trkpt>
      <trkpt lat="48.08809" lon="-4.22983">
        <ele>138</ele>
        <time>2022-05-20T20:53:17Z</time>
      </trkpt>
      <trkpt lat="48.0879" lon="-4.23031">
        <ele>137</ele>
        <time>2022-05-20T20:53:24Z</time>
      </trkpt>
      <trkpt lat="48.08765" lon="-4.23082">
        <ele>136</ele>
        <time>2022-05-20T20:53:31Z</time>
      </trkpt>
      <trkpt lat="48.0875" lon="-4.2312">
        <ele>135</ele>
        <time>2022-05-20T20:53:37Z</time>
      </trkpt>
      <trkpt lat="48.08719" lon="-4.23176">
        <ele>133</ele>
        <time>2022-05-20T20:53:45Z</time>
      </trkpt>
      <trkpt lat="48.08703" lon="-4.2321">
        <ele>132</ele>
        <time>2022-05-20T20:53:50Z</time>
      </trkpt>
      <trkpt lat="48.08667" lon="-4.23301">
        <ele>131</ele>
        <time>2022-05-20T20:54:03Z</time>
      </trkpt>
      <trkpt lat="48.08602" lon="-4.23441">
        <ele>131</ele>
        <time>2022-05-20T20:54:23Z</time>
      </trkpt>
      <trkpt lat="48.08582" lon="-4.23476">
        <ele>131</ele>
        <time>2022-05-20T20:54:28Z</time>
      </trkpt>
      <trkpt lat="48.08566" lon="-4.23524">
        <ele>131</ele>
        <time>2022-05-20T20:54:35Z</time>
      </trkpt>
      <trkpt lat="48.08521" lon="-4.23616">
        <ele>131</ele>
        <time>2022-05-20T20:54:48Z</time>
      </trkpt>
      <trkpt lat="48.08511" lon="-4.23643">
        <ele>131</ele>
        <time>2022-05-20T20:54:52Z</time>
      </trkpt>
      <trkpt lat="48.08504" lon="-4.23654">
        <ele>132</ele>
        <time>2022-05-20T20:54:54Z</time>
      </trkpt>
      <trkpt lat="48.08501" lon="-4.23668">
        <ele>132</ele>
        <time>2022-05-20T20:54:56Z</time>
      </trkpt>
      <trkpt lat="48.08494" lon="-4.23681">
        <ele>131</ele>
        <time>2022-05-20T20:54:58Z</time>
      </trkpt>
      <trkpt lat="48.08502" lon="-4.23687">
        <ele>131</ele>
        <time>2022-05-20T20:54:59Z</time>
      </trkpt>
      <trkpt lat="48.08512" lon="-4.23684">
        <ele>131</ele>
        <time>2022-05-20T20:55:01Z</time>
      </trkpt>
      <trkpt lat="48.08513" lon="-4.2367">
        <ele>131</ele>
        <time>2022-05-20T20:55:03Z</time>
      </trkpt>
      <trkpt lat="48.08507" lon="-4.23651">
        <ele>132</ele>
        <time>2022-05-20T20:55:05Z</time>
      </trkpt>
      <trkpt lat="48.08498" lon="-4.23655">
        <ele>132</ele>
        <time>2022-05-20T20:55:07Z</time>
      </trkpt>
      <trkpt lat="48.08493" lon="-4.23681">
        <ele>131</ele>
        <time>2022-05-20T20:55:10Z</time>
      </trkpt>
      <trkpt lat="48.08502" lon="-4.23681">
        <ele>131</ele>
        <time>2022-05-20T20:55:12Z</time>
      </trkpt>
      <trkpt lat="48.08509" lon="-4.23656">
        <ele>132</ele>
        <time>2022-05-20T20:55:15Z</time>
      </trkpt>
      <trkpt lat="48.08499" lon="-4.23587">
        <ele>131</ele>
        <time>2022-05-20T20:55:23Z</time>
      </trkpt>
      <trkpt lat="48.08499" lon="-4.23573">
        <ele>130</ele>
        <time>2022-05-20T20:55:25Z</time>
      </trkpt>
      <trkpt lat="48.08493" lon="-4.23561">
        <ele>129</ele>
        <time>2022-05-20T20:55:27Z</time>
      </trkpt>
      <trkpt lat="48.08474" lon="-4.2355">
        <ele>126</ele>
        <time>2022-05-20T20:55:30Z</time>
      </trkpt>
      <trkpt lat="48.08467" lon="-4.2354">
        <ele>125</ele>
        <time>2022-05-20T20:55:32Z</time>
      </trkpt>
      <trkpt lat="48.08453" lon="-4.23502">
        <ele>121</ele>
        <time>2022-05-20T20:55:37Z</time>
      </trkpt>
      <trkpt lat="48.08445" lon="-4.23492">
        <ele>119</ele>
        <time>2022-05-20T20:55:39Z</time>
      </trkpt>
      <trkpt lat="48.08426" lon="-4.23482">
        <ele>117</ele>
        <time>2022-05-20T20:55:43Z</time>
      </trkpt>
      <trkpt lat="48.08519" lon="-4.23652">
        <ele>131</ele>
        <time>2022-05-20T20:56:09Z</time>
      </trkpt>
      <trkpt lat="48.08529" lon="-4.2362">
        <ele>131</ele>
        <time>2022-05-20T20:56:13Z</time>
      </trkpt>
      <trkpt lat="48.08552" lon="-4.23567">
        <ele>131</ele>
        <time>2022-05-20T20:56:20Z</time>
      </trkpt>
      <trkpt lat="48.08557" lon="-4.23548">
        <ele>130</ele>
        <time>2022-05-20T20:56:23Z</time>
      </trkpt>
      <trkpt lat="48.08588" lon="-4.23499">
        <ele>132</ele>
        <time>2022-05-20T20:56:31Z</time>
      </trkpt>
      <trkpt lat="48.08606" lon="-4.23457">
        <ele>131</ele>
        <time>2022-05-20T20:56:37Z</time>
      </trkpt>
      <trkpt lat="48.08609" lon="-4.23444">
        <ele>131</ele>
        <time>2022-05-20T20:56:38Z</time>
      </trkpt>
      <trkpt lat="48.08637" lon="-4.23387">
        <ele>131</ele>
        <time>2022-05-20T20:56:47Z</time>
      </trkpt>
      <trkpt lat="48.08658" lon="-4.23337">
        <ele>132</ele>
        <time>2022-05-20T20:56:54Z</time>
      </trkpt>
      <trkpt lat="48.08672" lon="-4.23311">
        <ele>132</ele>
        <time>2022-05-20T20:56:58Z</time>
      </trkpt>
      <trkpt lat="48.08697" lon="-4.23251">
        <ele>131</ele>
        <time>2022-05-20T20:57:06Z</time>
      </trkpt>
      <trkpt lat="48.08704" lon="-4.2324">
        <ele>131</ele>
        <time>2022-05-20T20:57:08Z</time>
      </trkpt>
      <trkpt lat="48.08728" lon="-4.23182">
        <ele>133</ele>
        <time>2022-05-20T20:57:16Z</time>
      </trkpt>
      <trkpt lat="48.08747" lon="-4.23144">
        <ele>135</ele>
        <time>2022-05-20T20:57:22Z</time>
      </trkpt>
      <trkpt lat="48.08783" lon="-4.23054">
        <ele>136</ele>
        <time>2022-05-20T20:57:34Z</time>
      </trkpt>
      <trkpt lat="48.08804" lon="-4.23011">
        <ele>138</ele>
        <time>2022-05-20T20:57:41Z</time>
      </trkpt>
      <trkpt lat="48.08822" lon="-4.22965">
        <ele>138</ele>
        <time>2022-05-20T20:57:47Z</time>
      </trkpt>
      <trkpt lat="48.08905" lon="-4.22787">
        <ele>137</ele>
        <time>2022-05-20T20:58:13Z</time>
      </trkpt>
      <trkpt lat="48.08918" lon="-4.22764">
        <ele>138</ele>
        <time>2022-05-20T20:58:16Z</time>
      </trkpt>
      <trkpt lat="48.08918" lon="-4.22749">
        <ele>138</ele>
        <time>2022-05-20T20:58:18Z</time>
      </trkpt>
      <trkpt lat="48.0893" lon="-4.22726">
        <ele>140</ele>
        <time>2022-05-20T20:58:22Z</time>
      </trkpt>
      <trkpt lat="48.08949" lon="-4.22676">
        <ele>143</ele>
        <time>2022-05-20T20:58:28Z</time>
      </trkpt>
      <trkpt lat="48.08973" lon="-4.22608">
        <ele>147</ele>
        <time>2022-05-20T20:58:38Z</time>
      </trkpt>
      <trkpt lat="48.08976" lon="-4.22594">
        <ele>147</ele>
        <time>2022-05-20T20:58:39Z</time>
      </trkpt>
      <trkpt lat="48.08982" lon="-4.22582">
        <ele>148</ele>
        <time>2022-05-20T20:58:41Z</time>
      </trkpt>
      <trkpt lat="48.09" lon="-4.22523">
        <ele>150</ele>
        <time>2022-05-20T20:58:49Z</time>
      </trkpt>
      <trkpt lat="48.0904" lon="-4.22432">
        <ele>151</ele>
        <time>2022-05-20T20:59:02Z</time>
      </trkpt>
      <trkpt lat="48.09057" lon="-4.22402">
        <ele>151</ele>
        <time>2022-05-20T20:59:06Z</time>
      </trkpt>
      <trkpt lat="48.09068" lon="-4.22391">
        <ele>151</ele>
        <time>2022-05-20T20:59:09Z</time>
      </trkpt>
      <trkpt lat="48.09083" lon="-4.22369">
        <ele>152</ele>
        <time>2022-05-20T20:59:13Z</time>
      </trkpt>
      <trkpt lat="48.09102" lon="-4.22351">
        <ele>153</ele>
        <time>2022-05-20T20:59:17Z</time>
      </trkpt>
      <trkpt lat="48.09126" lon="-4.2232">
        <ele>154</ele>
        <time>2022-05-20T20:59:22Z</time>
      </trkpt>
      <trkpt lat="48.09143" lon="-4.22303">
        <ele>154</ele>
        <time>2022-05-20T20:59:26Z</time>
      </trkpt>
      <trkpt lat="48.09241" lon="-4.22166">
        <ele>154</ele>
        <time>2022-05-20T20:59:50Z</time>
      </trkpt>
      <trkpt lat="48.09282" lon="-4.22097">
        <ele>155</ele>
        <time>2022-05-20T21:00:01Z</time>
      </trkpt>
      <trkpt lat="48.09346" lon="-4.21973">
        <ele>157</ele>
        <time>2022-05-20T21:00:19Z</time>
      </trkpt>
      <trkpt lat="48.09409" lon="-4.21879">
        <ele>157</ele>
        <time>2022-05-20T21:00:35Z</time>
      </trkpt>
      <trkpt lat="48.09455" lon="-4.21826">
        <ele>155</ele>
        <time>2022-05-20T21:00:45Z</time>
      </trkpt>
      <trkpt lat="48.09496" lon="-4.21773">
        <ele>154</ele>
        <time>2022-05-20T21:00:55Z</time>
      </trkpt>
      <trkpt lat="48.09527" lon="-4.21715">
        <ele>154</ele>
        <time>2022-05-20T21:01:04Z</time>
      </trkpt>
      <trkpt lat="48.09563" lon="-4.21638">
        <ele>153</ele>
        <time>2022-05-20T21:01:15Z</time>
      </trkpt>
      <trkpt lat="48.09572" lon="-4.21613">
        <ele>153</ele>
        <time>2022-05-20T21:01:18Z</time>
      </trkpt>
      <trkpt lat="48.09575" lon="-4.21597">
        <ele>153</ele>
        <time>2022-05-20T21:01:20Z</time>
      </trkpt>
      <trkpt lat="48.0958" lon="-4.21536">
        <ele>155</ele>
        <time>2022-05-20T21:01:28Z</time>
      </trkpt>
      <trkpt lat="48.09594" lon="-4.21445">
        <ele>159</ele>
        <time>2022-05-20T21:01:39Z</time>
      </trkpt>
      <trkpt lat="48.09607" lon="-4.21375">
        <ele>161</ele>
        <time>2022-05-20T21:01:47Z</time>
      </trkpt>
      <trkpt lat="48.09628" lon="-4.213">
        <ele>162</ele>
        <time>2022-05-20T21:01:57Z</time>
      </trkpt>
      <trkpt lat="48.09636" lon="-4.21252">
        <ele>162</ele>
        <time>2022-05-20T21:02:03Z</time>
      </trkpt>
      <trkpt lat="48.09635" lon="-4.21238">
        <ele>163</ele>
        <time>2022-05-20T21:02:05Z</time>
      </trkpt>
      <trkpt lat="48.09699" lon="-4.21214">
        <ele>160</ele>
        <time>2022-05-20T21:02:16Z</time>
      </trkpt>
      <trkpt lat="48.0974" lon="-4.21205">
        <ele>157</ele>
        <time>2022-05-20T21:02:24Z</time>
      </trkpt>
      <trkpt lat="48.09761" lon="-4.21198">
        <ele>156</ele>
        <time>2022-05-20T21:02:28Z</time>
      </trkpt>
      <trkpt lat="48.09781" lon="-4.21181">
        <ele>154</ele>
        <time>2022-05-20T21:02:32Z</time>
      </trkpt>
      <trkpt lat="48.09791" lon="-4.21183">
        <ele>154</ele>
        <time>2022-05-20T21:02:33Z</time>
      </trkpt>
      <trkpt lat="48.09803" lon="-4.21089">
        <ele>152</ele>
        <time>2022-05-20T21:02:45Z</time>
      </trkpt>
      <trkpt lat="48.09791" lon="-4.21068">
        <ele>153</ele>
        <time>2022-05-20T21:02:48Z</time>
      </trkpt>
      <trkpt lat="48.09792" lon="-4.21051">
        <ele>153</ele>
        <time>2022-05-20T21:02:50Z</time>
      </trkpt>
      <trkpt lat="48.09809" lon="-4.20952">
        <ele>154</ele>
        <time>2022-05-20T21:03:02Z</time>
      </trkpt>
      <trkpt lat="48.09823" lon="-4.20843">
        <ele>156</ele>
        <time>2022-05-20T21:03:16Z</time>
      </trkpt>
      <trkpt lat="48.09829" lon="-4.20831">
        <ele>156</ele>
        <time>2022-05-20T21:03:17Z</time>
      </trkpt>
      <trkpt lat="48.09852" lon="-4.20828">
        <ele>155</ele>
        <time>2022-05-20T21:03:21Z</time>
      </trkpt>
      <trkpt lat="48.09864" lon="-4.20831">
        <ele>154</ele>
        <time>2022-05-20T21:03:24Z</time>
      </trkpt>
      <trkpt lat="48.09888" lon="-4.20798">
        <ele>153</ele>
        <time>2022-05-20T21:03:29Z</time>
      </trkpt>
      <trkpt lat="48.09912" lon="-4.20754">
        <ele>152</ele>
        <time>2022-05-20T21:03:36Z</time>
      </trkpt>
      <trkpt lat="48.0995" lon="-4.20668">
        <ele>147</ele>
        <time>2022-05-20T21:03:48Z</time>
      </trkpt>
      <trkpt lat="48.09969" lon="-4.20608">
        <ele>144</ele>
        <time>2022-05-20T21:03:56Z</time>
      </trkpt>
      <trkpt lat="48.09973" lon="-4.20585">
        <ele>143</ele>
        <time>2022-05-20T21:03:59Z</time>
      </trkpt>
      <trkpt lat="48.09979" lon="-4.20536">
        <ele>141</ele>
        <time>2022-05-20T21:04:05Z</time>
      </trkpt>
      <trkpt lat="48.09974" lon="-4.20206">
        <ele>134</ele>
        <time>2022-05-20T21:04:44Z</time>
      </trkpt>
      <trkpt lat="48.0998" lon="-4.20067">
        <ele>129</ele>
        <time>2022-05-20T21:05:01Z</time>
      </trkpt>
      <trkpt lat="48.09985" lon="-4.20029">
        <ele>128</ele>
        <time>2022-05-20T21:05:05Z</time>
      </trkpt>
      <trkpt lat="48.09981" lon="-4.19981">
        <ele>129</ele>
        <time>2022-05-20T21:05:11Z</time>
      </trkpt>
      <trkpt lat="48.09982" lon="-4.19907">
        <ele>133</ele>
        <time>2022-05-20T21:05:20Z</time>
      </trkpt>
      <trkpt lat="48.09994" lon="-4.19831">
        <ele>139</ele>
        <time>2022-05-20T21:05:29Z</time>
      </trkpt>
      <trkpt lat="48.1001" lon="-4.19773">
        <ele>142</ele>
        <time>2022-05-20T21:05:37Z</time>
      </trkpt>
      <trkpt lat="48.10037" lon="-4.19692">
        <ele>147</ele>
        <time>2022-05-20T21:05:47Z</time>
      </trkpt>
      <trkpt lat="48.10063" lon="-4.19623">
        <ele>150</ele>
        <time>2022-05-20T21:05:57Z</time>
      </trkpt>
      <trkpt lat="48.10105" lon="-4.1949">
        <ele>153</ele>
        <time>2022-05-20T21:06:14Z</time>
      </trkpt>
      <trkpt lat="48.10135" lon="-4.19409">
        <ele>150</ele>
        <time>2022-05-20T21:06:25Z</time>
      </trkpt>
      <trkpt lat="48.10167" lon="-4.19301">
        <ele>146</ele>
        <time>2022-05-20T21:06:39Z</time>
      </trkpt>
      <trkpt lat="48.10205" lon="-4.19158">
        <ele>142</ele>
        <time>2022-05-20T21:06:58Z</time>
      </trkpt>
      <trkpt lat="48.10235" lon="-4.19095">
        <ele>137</ele>
        <time>2022-05-20T21:07:07Z</time>
      </trkpt>
      <trkpt lat="48.10276" lon="-4.19031">
        <ele>138</ele>
        <time>2022-05-20T21:07:17Z</time>
      </trkpt>
      <trkpt lat="48.10284" lon="-4.19015">
        <ele>139</ele>
        <time>2022-05-20T21:07:20Z</time>
      </trkpt>
      <trkpt lat="48.10401" lon="-4.18844">
        <ele>136</ele>
        <time>2022-05-20T21:07:49Z</time>
      </trkpt>
      <trkpt lat="48.10424" lon="-4.18801">
        <ele>135</ele>
        <time>2022-05-20T21:07:55Z</time>
      </trkpt>
      <trkpt lat="48.10452" lon="-4.18725">
        <ele>137</ele>
        <time>2022-05-20T21:08:06Z</time>
      </trkpt>
      <trkpt lat="48.10474" lon="-4.18634">
        <ele>137</ele>
        <time>2022-05-20T21:08:17Z</time>
      </trkpt>
      <trkpt lat="48.10506" lon="-4.18521">
        <ele>135</ele>
        <time>2022-05-20T21:08:32Z</time>
      </trkpt>
      <trkpt lat="48.10549" lon="-4.18416">
        <ele>133</ele>
        <time>2022-05-20T21:08:46Z</time>
      </trkpt>
      <trkpt lat="48.10611" lon="-4.18276">
        <ele>125</ele>
        <time>2022-05-20T21:09:06Z</time>
      </trkpt>
      <trkpt lat="48.10632" lon="-4.18222">
        <ele>125</ele>
        <time>2022-05-20T21:09:14Z</time>
      </trkpt>
      <trkpt lat="48.10712" lon="-4.18042">
        <ele>122</ele>
        <time>2022-05-20T21:09:39Z</time>
      </trkpt>
      <trkpt lat="48.10773" lon="-4.1794">
        <ele>119</ele>
        <time>2022-05-20T21:09:56Z</time>
      </trkpt>
      <trkpt lat="48.10838" lon="-4.17851">
        <ele>122</ele>
        <time>2022-05-20T21:10:11Z</time>
      </trkpt>
      <trkpt lat="48.10879" lon="-4.17784">
        <ele>125</ele>
        <time>2022-05-20T21:10:22Z</time>
      </trkpt>
      <trkpt lat="48.10911" lon="-4.17713">
        <ele>129</ele>
        <time>2022-05-20T21:10:32Z</time>
      </trkpt>
      <trkpt lat="48.10931" lon="-4.17677">
        <ele>131</ele>
        <time>2022-05-20T21:10:38Z</time>
      </trkpt>
      <trkpt lat="48.1096" lon="-4.17638">
        <ele>133</ele>
        <time>2022-05-20T21:10:45Z</time>
      </trkpt>
      <trkpt lat="48.11008" lon="-4.17585">
        <ele>136</ele>
        <time>2022-05-20T21:10:56Z</time>
      </trkpt>
      <trkpt lat="48.1108" lon="-4.17498">
        <ele>138</ele>
        <time>2022-05-20T21:11:12Z</time>
      </trkpt>
      <trkpt lat="48.11096" lon="-4.17473">
        <ele>138</ele>
        <time>2022-05-20T21:11:16Z</time>
      </trkpt>
      <trkpt lat="48.11105" lon="-4.17463">
        <ele>138</ele>
        <time>2022-05-20T21:11:18Z</time>
      </trkpt>
      <trkpt lat="48.11181" lon="-4.17343">
        <ele>137</ele>
        <time>2022-05-20T21:11:38Z</time>
      </trkpt>
      <trkpt lat="48.11271" lon="-4.17208">
        <ele>137</ele>
        <time>2022-05-20T21:12:00Z</time>
      </trkpt>
      <trkpt lat="48.11398" lon="-4.16948">
        <ele>134</ele>
        <time>2022-05-20T21:12:39Z</time>
      </trkpt>
      <trkpt lat="48.11429" lon="-4.16899">
        <ele>132</ele>
        <time>2022-05-20T21:12:47Z</time>
      </trkpt>
      <trkpt lat="48.11458" lon="-4.16866">
        <ele>129</ele>
        <time>2022-05-20T21:12:53Z</time>
      </trkpt>
      <trkpt lat="48.1151" lon="-4.16794">
        <ele>126</ele>
        <time>2022-05-20T21:13:06Z</time>
      </trkpt>
      <trkpt lat="48.11555" lon="-4.16738">
        <ele>126</ele>
        <time>2022-05-20T21:13:16Z</time>
      </trkpt>
      <trkpt lat="48.11572" lon="-4.16711">
        <ele>125</ele>
        <time>2022-05-20T21:13:21Z</time>
      </trkpt>
      <trkpt lat="48.11586" lon="-4.16683">
        <ele>124</ele>
        <time>2022-05-20T21:13:25Z</time>
      </trkpt>
      <trkpt lat="48.11621" lon="-4.16595">
        <ele>122</ele>
        <time>2022-05-20T21:13:37Z</time>
      </trkpt>
      <trkpt lat="48.11649" lon="-4.16533">
        <ele>122</ele>
        <time>2022-05-20T21:13:46Z</time>
      </trkpt>
      <trkpt lat="48.11676" lon="-4.16485">
        <ele>121</ele>
        <time>2022-05-20T21:13:53Z</time>
      </trkpt>
      <trkpt lat="48.11702" lon="-4.1643">
        <ele>118</ele>
        <time>2022-05-20T21:14:01Z</time>
      </trkpt>
      <trkpt lat="48.11731" lon="-4.16376">
        <ele>116</ele>
        <time>2022-05-20T21:14:09Z</time>
      </trkpt>
      <trkpt lat="48.11753" lon="-4.16343">
        <ele>116</ele>
        <time>2022-05-20T21:14:15Z</time>
      </trkpt>
      <trkpt lat="48.11766" lon="-4.1633">
        <ele>115</ele>
        <time>2022-05-20T21:14:18Z</time>
      </trkpt>
      <trkpt lat="48.11794" lon="-4.16311">
        <ele>114</ele>
        <time>2022-05-20T21:14:23Z</time>
      </trkpt>
      <trkpt lat="48.11825" lon="-4.16301">
        <ele>112</ele>
        <time>2022-05-20T21:14:29Z</time>
      </trkpt>
      <trkpt lat="48.11888" lon="-4.16295">
        <ele>109</ele>
        <time>2022-05-20T21:14:40Z</time>
      </trkpt>
      <trkpt lat="48.11969" lon="-4.163">
        <ele>106</ele>
        <time>2022-05-20T21:14:55Z</time>
      </trkpt>
      <trkpt lat="48.12047" lon="-4.16299">
        <ele>103</ele>
        <time>2022-05-20T21:15:08Z</time>
      </trkpt>
      <trkpt lat="48.12147" lon="-4.16283">
        <ele>100</ele>
        <time>2022-05-20T21:15:26Z</time>
      </trkpt>
      <trkpt lat="48.12202" lon="-4.1627">
        <ele>99</ele>
        <time>2022-05-20T21:15:36Z</time>
      </trkpt>
      <trkpt lat="48.12242" lon="-4.16257">
        <ele>98</ele>
        <time>2022-05-20T21:15:44Z</time>
      </trkpt>
      <trkpt lat="48.1228" lon="-4.16239">
        <ele>98</ele>
        <time>2022-05-20T21:15:51Z</time>
      </trkpt>
      <trkpt lat="48.12339" lon="-4.16198">
        <ele>97</ele>
        <time>2022-05-20T21:16:02Z</time>
      </trkpt>
      <trkpt lat="48.12427" lon="-4.1613">
        <ele>94</ele>
        <time>2022-05-20T21:16:20Z</time>
      </trkpt>
      <trkpt lat="48.12547" lon="-4.16045">
        <ele>92</ele>
        <time>2022-05-20T21:16:43Z</time>
      </trkpt>
      <trkpt lat="48.12703" lon="-4.15927">
        <ele>90</ele>
        <time>2022-05-20T21:17:15Z</time>
      </trkpt>
      <trkpt lat="48.12734" lon="-4.15908">
        <ele>90</ele>
        <time>2022-05-20T21:17:20Z</time>
      </trkpt>
      <trkpt lat="48.12835" lon="-4.15832">
        <ele>91</ele>
        <time>2022-05-20T21:17:41Z</time>
      </trkpt>
      <trkpt lat="48.12876" lon="-4.15805">
        <ele>90</ele>
        <time>2022-05-20T21:17:49Z</time>
      </trkpt>
      <trkpt lat="48.12969" lon="-4.15729">
        <ele>90</ele>
        <time>2022-05-20T21:18:07Z</time>
      </trkpt>
      <trkpt lat="48.13057" lon="-4.15671">
        <ele>90</ele>
        <time>2022-05-20T21:18:25Z</time>
      </trkpt>
      <trkpt lat="48.13096" lon="-4.15655">
        <ele>89</ele>
        <time>2022-05-20T21:18:32Z</time>
      </trkpt>
      <trkpt lat="48.13147" lon="-4.1564">
        <ele>88</ele>
        <time>2022-05-20T21:18:41Z</time>
      </trkpt>
      <trkpt lat="48.13216" lon="-4.15632">
        <ele>89</ele>
        <time>2022-05-20T21:18:53Z</time>
      </trkpt>
      <trkpt lat="48.13246" lon="-4.15626">
        <ele>89</ele>
        <time>2022-05-20T21:18:59Z</time>
      </trkpt>
      <trkpt lat="48.13271" lon="-4.15625">
        <ele>90</ele>
        <time>2022-05-20T21:19:03Z</time>
      </trkpt>
      <trkpt lat="48.1332" lon="-4.15615">
        <ele>90</ele>
        <time>2022-05-20T21:19:12Z</time>
      </trkpt>
      <trkpt lat="48.13372" lon="-4.15609">
        <ele>91</ele>
        <time>2022-05-20T21:19:21Z</time>
      </trkpt>
      <trkpt lat="48.13401" lon="-4.15598">
        <ele>91</ele>
        <time>2022-05-20T21:19:27Z</time>
      </trkpt>
      <trkpt lat="48.13427" lon="-4.15585">
        <ele>92</ele>
        <time>2022-05-20T21:19:31Z</time>
      </trkpt>
      <trkpt lat="48.13457" lon="-4.15565">
        <ele>92</ele>
        <time>2022-05-20T21:19:37Z</time>
      </trkpt>
      <trkpt lat="48.13476" lon="-4.15549">
        <ele>93</ele>
        <time>2022-05-20T21:19:41Z</time>
      </trkpt>
      <trkpt lat="48.1352" lon="-4.15506">
        <ele>95</ele>
        <time>2022-05-20T21:19:50Z</time>
      </trkpt>
      <trkpt lat="48.13571" lon="-4.15451">
        <ele>98</ele>
        <time>2022-05-20T21:20:02Z</time>
      </trkpt>
      <trkpt lat="48.13605" lon="-4.15419">
        <ele>99</ele>
        <time>2022-05-20T21:20:09Z</time>
      </trkpt>
      <trkpt lat="48.13674" lon="-4.15379">
        <ele>102</ele>
        <time>2022-05-20T21:20:22Z</time>
      </trkpt>
      <trkpt lat="48.13776" lon="-4.15311">
        <ele>107</ele>
        <time>2022-05-20T21:20:42Z</time>
      </trkpt>
      <trkpt lat="48.13852" lon="-4.15266">
        <ele>108</ele>
        <time>2022-05-20T21:20:56Z</time>
      </trkpt>
      <trkpt lat="48.13902" lon="-4.15231">
        <ele>108</ele>
        <time>2022-05-20T21:21:06Z</time>
      </trkpt>
      <trkpt lat="48.13961" lon="-4.15195">
        <ele>109</ele>
        <time>2022-05-20T21:21:18Z</time>
      </trkpt>
      <trkpt lat="48.13978" lon="-4.15182">
        <ele>109</ele>
        <time>2022-05-20T21:21:21Z</time>
      </trkpt>
      <trkpt lat="48.13989" lon="-4.15177">
        <ele>109</ele>
        <time>2022-05-20T21:21:23Z</time>
      </trkpt>
      <trkpt lat="48.14038" lon="-4.15139">
        <ele>109</ele>
        <time>2022-05-20T21:21:33Z</time>
      </trkpt>
      <trkpt lat="48.14112" lon="-4.15091">
        <ele>109</ele>
        <time>2022-05-20T21:21:47Z</time>
      </trkpt>
      <trkpt lat="48.14135" lon="-4.15079">
        <ele>109</ele>
        <time>2022-05-20T21:21:51Z</time>
      </trkpt>
      <trkpt lat="48.14177" lon="-4.15051">
        <ele>109</ele>
        <time>2022-05-20T21:22:00Z</time>
      </trkpt>
      <trkpt lat="48.14209" lon="-4.15033">
        <ele>108</ele>
        <time>2022-05-20T21:22:06Z</time>
      </trkpt>
      <trkpt lat="48.14406" lon="-4.14897">
        <ele>102</ele>
        <time>2022-05-20T21:22:44Z</time>
      </trkpt>
      <trkpt lat="48.14504" lon="-4.14835">
        <ele>98</ele>
        <time>2022-05-20T21:23:03Z</time>
      </trkpt>
      <trkpt lat="48.14527" lon="-4.14817">
        <ele>97</ele>
        <time>2022-05-20T21:23:08Z</time>
      </trkpt>
      <trkpt lat="48.14654" lon="-4.14735">
        <ele>94</ele>
        <time>2022-05-20T21:23:32Z</time>
      </trkpt>
      <trkpt lat="48.14753" lon="-4.14673">
        <ele>92</ele>
        <time>2022-05-20T21:23:52Z</time>
      </trkpt>
      <trkpt lat="48.14847" lon="-4.14609">
        <ele>92</ele>
        <time>2022-05-20T21:24:10Z</time>
      </trkpt>
      <trkpt lat="48.14998" lon="-4.14513">
        <ele>91</ele>
        <time>2022-05-20T21:24:39Z</time>
      </trkpt>
      <trkpt lat="48.15018" lon="-4.14498">
        <ele>91</ele>
        <time>2022-05-20T21:24:43Z</time>
      </trkpt>
      <trkpt lat="48.15052" lon="-4.14449">
        <ele>91</ele>
        <time>2022-05-20T21:24:51Z</time>
      </trkpt>
      <trkpt lat="48.15103" lon="-4.14382">
        <ele>92</ele>
        <time>2022-05-20T21:25:04Z</time>
      </trkpt>
      <trkpt lat="48.15147" lon="-4.14327">
        <ele>93</ele>
        <time>2022-05-20T21:25:14Z</time>
      </trkpt>
      <trkpt lat="48.15158" lon="-4.14317">
        <ele>93</ele>
        <time>2022-05-20T21:25:16Z</time>
      </trkpt>
      <trkpt lat="48.15252" lon="-4.14196">
        <ele>96</ele>
        <time>2022-05-20T21:25:38Z</time>
      </trkpt>
      <trkpt lat="48.1529" lon="-4.14167">
        <ele>97</ele>
        <time>2022-05-20T21:25:46Z</time>
      </trkpt>
      <trkpt lat="48.15311" lon="-4.1416">
        <ele>96</ele>
        <time>2022-05-20T21:25:49Z</time>
      </trkpt>
      <trkpt lat="48.15377" lon="-4.14145">
        <ele>97</ele>
        <time>2022-05-20T21:26:01Z</time>
      </trkpt>
      <trkpt lat="48.154" lon="-4.14135">
        <ele>98</ele>
        <time>2022-05-20T21:26:06Z</time>
      </trkpt>
      <trkpt lat="48.15444" lon="-4.14109">
        <ele>99</ele>
        <time>2022-05-20T21:26:14Z</time>
      </trkpt>
      <trkpt lat="48.15514" lon="-4.14063">
        <ele>100</ele>
        <time>2022-05-20T21:26:28Z</time>
      </trkpt>
      <trkpt lat="48.1557" lon="-4.14015">
        <ele>101</ele>
        <time>2022-05-20T21:26:39Z</time>
      </trkpt>
      <trkpt lat="48.15605" lon="-4.13975">
        <ele>103</ele>
        <time>2022-05-20T21:26:47Z</time>
      </trkpt>
      <trkpt lat="48.15632" lon="-4.13932">
        <ele>103</ele>
        <time>2022-05-20T21:26:54Z</time>
      </trkpt>
      <trkpt lat="48.15641" lon="-4.13923">
        <ele>103</ele>
        <time>2022-05-20T21:26:56Z</time>
      </trkpt>
      <trkpt lat="48.15698" lon="-4.13926">
        <ele>103</ele>
        <time>2022-05-20T21:27:06Z</time>
      </trkpt>
      <trkpt lat="48.15791" lon="-4.13921">
        <ele>102</ele>
        <time>2022-05-20T21:27:23Z</time>
      </trkpt>
      <trkpt lat="48.15801" lon="-4.13923">
        <ele>102</ele>
        <time>2022-05-20T21:27:24Z</time>
      </trkpt>
      <trkpt lat="48.15841" lon="-4.13923">
        <ele>102</ele>
        <time>2022-05-20T21:27:31Z</time>
      </trkpt>
      <trkpt lat="48.15883" lon="-4.13918">
        <ele>101</ele>
        <time>2022-05-20T21:27:39Z</time>
      </trkpt>
      <trkpt lat="48.1585" lon="-4.13921">
        <ele>102</ele>
        <time>2022-05-20T21:27:45Z</time>
      </trkpt>
      <trkpt lat="48.15814" lon="-4.1392">
        <ele>102</ele>
        <time>2022-05-20T21:27:51Z</time>
      </trkpt>
      <trkpt lat="48.15793" lon="-4.13924">
        <ele>102</ele>
        <time>2022-05-20T21:27:55Z</time>
      </trkpt>
      <trkpt lat="48.15783" lon="-4.13921">
        <ele>103</ele>
        <time>2022-05-20T21:27:57Z</time>
      </trkpt>
      <trkpt lat="48.15765" lon="-4.13907">
        <ele>103</ele>
        <time>2022-05-20T21:28:00Z</time>
      </trkpt>
      <trkpt lat="48.15763" lon="-4.13862">
        <ele>104</ele>
        <time>2022-05-20T21:28:06Z</time>
      </trkpt>
      <trkpt lat="48.15756" lon="-4.13832">
        <ele>105</ele>
        <time>2022-05-20T21:28:10Z</time>
      </trkpt>
      <trkpt lat="48.15741" lon="-4.13793">
        <ele>105</ele>
        <time>2022-05-20T21:28:15Z</time>
      </trkpt>
      <trkpt lat="48.15722" lon="-4.13757">
        <ele>105</ele>
        <time>2022-05-20T21:28:20Z</time>
      </trkpt>
      <trkpt lat="48.15718" lon="-4.13743">
        <ele>105</ele>
        <time>2022-05-20T21:28:22Z</time>
      </trkpt>
      <trkpt lat="48.15704" lon="-4.13555">
        <ele>102</ele>
        <time>2022-05-20T21:28:45Z</time>
      </trkpt>
      <trkpt lat="48.157" lon="-4.13448">
        <ele>102</ele>
        <time>2022-05-20T21:28:57Z</time>
      </trkpt>
      <trkpt lat="48.15702" lon="-4.13416">
        <ele>101</ele>
        <time>2022-05-20T21:29:01Z</time>
      </trkpt>
      <trkpt lat="48.15701" lon="-4.13382">
        <ele>100</ele>
        <time>2022-05-20T21:29:05Z</time>
      </trkpt>
      <trkpt lat="48.15719" lon="-4.13241">
        <ele>97</ele>
        <time>2022-05-20T21:29:22Z</time>
      </trkpt>
      <trkpt lat="48.15733" lon="-4.13163">
        <ele>98</ele>
        <time>2022-05-20T21:29:32Z</time>
      </trkpt>
      <trkpt lat="48.15745" lon="-4.13113">
        <ele>97</ele>
        <time>2022-05-20T21:29:38Z</time>
      </trkpt>
      <trkpt lat="48.15782" lon="-4.13011">
        <ele>98</ele>
        <time>2022-05-20T21:29:52Z</time>
      </trkpt>
      <trkpt lat="48.15809" lon="-4.12946">
        <ele>100</ele>
        <time>2022-05-20T21:30:01Z</time>
      </trkpt>
      <trkpt lat="48.15846" lon="-4.12844">
        <ele>105</ele>
        <time>2022-05-20T21:30:15Z</time>
      </trkpt>
      <trkpt lat="48.1593" lon="-4.12629">
        <ele>120</ele>
        <time>2022-05-20T21:30:44Z</time>
      </trkpt>
      <trkpt lat="48.15945" lon="-4.12606">
        <ele>120</ele>
        <time>2022-05-20T21:30:48Z</time>
      </trkpt>
      <trkpt lat="48.1599" lon="-4.12572">
        <ele>121</ele>
        <time>2022-05-20T21:30:57Z</time>
      </trkpt>
      <trkpt lat="48.16022" lon="-4.12542">
        <ele>123</ele>
        <time>2022-05-20T21:31:04Z</time>
      </trkpt>
      <trkpt lat="48.16047" lon="-4.12514">
        <ele>124</ele>
        <time>2022-05-20T21:31:09Z</time>
      </trkpt>
      <trkpt lat="48.1607" lon="-4.1248">
        <ele>126</ele>
        <time>2022-05-20T21:31:15Z</time>
      </trkpt>
      <trkpt lat="48.16154" lon="-4.12334">
        <ele>135</ele>
        <time>2022-05-20T21:31:38Z</time>
      </trkpt>
      <trkpt lat="48.16171" lon="-4.12297">
        <ele>137</ele>
        <time>2022-05-20T21:31:43Z</time>
      </trkpt>
      <trkpt lat="48.16228" lon="-4.12194">
        <ele>144</ele>
        <time>2022-05-20T21:31:59Z</time>
      </trkpt>
      <trkpt lat="48.16232" lon="-4.12182">
        <ele>145</ele>
        <time>2022-05-20T21:32:01Z</time>
      </trkpt>
      <trkpt lat="48.16251" lon="-4.12149">
        <ele>147</ele>
        <time>2022-05-20T21:32:06Z</time>
      </trkpt>
      <trkpt lat="48.16256" lon="-4.12136">
        <ele>148</ele>
        <time>2022-05-20T21:32:08Z</time>
      </trkpt>
      <trkpt lat="48.16303" lon="-4.12062">
        <ele>153</ele>
        <time>2022-05-20T21:32:20Z</time>
      </trkpt>
      <trkpt lat="48.16356" lon="-4.11999">
        <ele>158</ele>
        <time>2022-05-20T21:32:32Z</time>
      </trkpt>
      <trkpt lat="48.16386" lon="-4.11982">
        <ele>159</ele>
        <time>2022-05-20T21:32:38Z</time>
      </trkpt>
      <trkpt lat="48.16415" lon="-4.11978">
        <ele>160</ele>
        <time>2022-05-20T21:32:43Z</time>
      </trkpt>
      <trkpt lat="48.16434" lon="-4.11981">
        <ele>161</ele>
        <time>2022-05-20T21:32:46Z</time>
      </trkpt>
      <trkpt lat="48.16455" lon="-4.11979">
        <ele>161</ele>
        <time>2022-05-20T21:32:50Z</time>
      </trkpt>
      <trkpt lat="48.16523" lon="-4.11989">
        <ele>162</ele>
        <time>2022-05-20T21:33:02Z</time>
      </trkpt>
      <trkpt lat="48.16533" lon="-4.11987">
        <ele>163</ele>
        <time>2022-05-20T21:33:04Z</time>
      </trkpt>
      <trkpt lat="48.16563" lon="-4.11989">
        <ele>163</ele>
        <time>2022-05-20T21:33:09Z</time>
      </trkpt>
      <trkpt lat="48.16622" lon="-4.11996">
        <ele>165</ele>
        <time>2022-05-20T21:33:20Z</time>
      </trkpt>
      <trkpt lat="48.16671" lon="-4.12018">
        <ele>166</ele>
        <time>2022-05-20T21:33:29Z</time>
      </trkpt>
      <trkpt lat="48.16688" lon="-4.12036">
        <ele>167</ele>
        <time>2022-05-20T21:33:33Z</time>
      </trkpt>
      <trkpt lat="48.16697" lon="-4.12042">
        <ele>168</ele>
        <time>2022-05-20T21:33:34Z</time>
      </trkpt>
      <trkpt lat="48.16706" lon="-4.12035">
        <ele>168</ele>
        <time>2022-05-20T21:33:36Z</time>
      </trkpt>
      <trkpt lat="48.16715" lon="-4.12009">
        <ele>169</ele>
        <time>2022-05-20T21:33:40Z</time>
      </trkpt>
      <trkpt lat="48.16722" lon="-4.11952">
        <ele>172</ele>
        <time>2022-05-20T21:33:47Z</time>
      </trkpt>
      <trkpt lat="48.16721" lon="-4.11847">
        <ele>177</ele>
        <time>2022-05-20T21:33:59Z</time>
      </trkpt>
      <trkpt lat="48.16726" lon="-4.11789">
        <ele>180</ele>
        <time>2022-05-20T21:34:06Z</time>
      </trkpt>
      <trkpt lat="48.16754" lon="-4.11625">
        <ele>187</ele>
        <time>2022-05-20T21:34:26Z</time>
      </trkpt>
      <trkpt lat="48.1676" lon="-4.11515">
        <ele>191</ele>
        <time>2022-05-20T21:34:39Z</time>
      </trkpt>
      <trkpt lat="48.16762" lon="-4.1142">
        <ele>191</ele>
        <time>2022-05-20T21:34:50Z</time>
      </trkpt>
      <trkpt lat="48.16774" lon="-4.1124">
        <ele>196</ele>
        <time>2022-05-20T21:35:12Z</time>
      </trkpt>
      <trkpt lat="48.16777" lon="-4.11115">
        <ele>197</ele>
        <time>2022-05-20T21:35:27Z</time>
      </trkpt>
      <trkpt lat="48.16786" lon="-4.10956">
        <ele>195</ele>
        <time>2022-05-20T21:35:46Z</time>
      </trkpt>
      <trkpt lat="48.16786" lon="-4.1087">
        <ele>196</ele>
        <time>2022-05-20T21:35:56Z</time>
      </trkpt>
      <trkpt lat="48.16789" lon="-4.10841">
        <ele>196</ele>
        <time>2022-05-20T21:35:59Z</time>
      </trkpt>
      <trkpt lat="48.16789" lon="-4.1078">
        <ele>197</ele>
        <time>2022-05-20T21:36:07Z</time>
      </trkpt>
      <trkpt lat="48.16791" lon="-4.10765">
        <ele>197</ele>
        <time>2022-05-20T21:36:08Z</time>
      </trkpt>
      <trkpt lat="48.1678" lon="-4.10671">
        <ele>197</ele>
        <time>2022-05-20T21:36:20Z</time>
      </trkpt>
      <trkpt lat="48.16775" lon="-4.10655">
        <ele>197</ele>
        <time>2022-05-20T21:36:22Z</time>
      </trkpt>
      <trkpt lat="48.16729" lon="-4.104">
        <ele>199</ele>
        <time>2022-05-20T21:36:53Z</time>
      </trkpt>
      <trkpt lat="48.16757" lon="-4.10543">
        <ele>197</ele>
        <time>2022-05-20T21:37:11Z</time>
      </trkpt>
      <trkpt lat="48.16773" lon="-4.10644">
        <ele>197</ele>
        <time>2022-05-20T21:37:23Z</time>
      </trkpt>
      <trkpt lat="48.16777" lon="-4.10661">
        <ele>197</ele>
        <time>2022-05-20T21:37:25Z</time>
      </trkpt>
      <trkpt lat="48.16786" lon="-4.10671">
        <ele>197</ele>
        <time>2022-05-20T21:37:27Z</time>
      </trkpt>
      <trkpt lat="48.16796" lon="-4.10663">
        <ele>196</ele>
        <time>2022-05-20T21:37:29Z</time>
      </trkpt>
      <trkpt lat="48.16817" lon="-4.10591">
        <ele>195</ele>
        <time>2022-05-20T21:37:39Z</time>
      </trkpt>
      <trkpt lat="48.16817" lon="-4.10577">
        <ele>195</ele>
        <time>2022-05-20T21:37:40Z</time>
      </trkpt>
      <trkpt lat="48.16832" lon="-4.1054">
        <ele>195</ele>
        <time>2022-05-20T21:37:45Z</time>
      </trkpt>
      <trkpt lat="48.16847" lon="-4.10516">
        <ele>194</ele>
        <time>2022-05-20T21:37:49Z</time>
      </trkpt>
      <trkpt lat="48.16851" lon="-4.10502">
        <ele>194</ele>
        <time>2022-05-20T21:37:51Z</time>
      </trkpt>
      <trkpt lat="48.16868" lon="-4.10465">
        <ele>192</ele>
        <time>2022-05-20T21:37:56Z</time>
      </trkpt>
      <trkpt lat="48.16887" lon="-4.10414">
        <ele>190</ele>
        <time>2022-05-20T21:38:03Z</time>
      </trkpt>
      <trkpt lat="48.1689" lon="-4.10398">
        <ele>189</ele>
        <time>2022-05-20T21:38:05Z</time>
      </trkpt>
      <trkpt lat="48.16912" lon="-4.10343">
        <ele>186</ele>
        <time>2022-05-20T21:38:13Z</time>
      </trkpt>
      <trkpt lat="48.16923" lon="-4.10304">
        <ele>184</ele>
        <time>2022-05-20T21:38:18Z</time>
      </trkpt>
      <trkpt lat="48.16949" lon="-4.10254">
        <ele>179</ele>
        <time>2022-05-20T21:38:26Z</time>
      </trkpt>
      <trkpt lat="48.16962" lon="-4.10214">
        <ele>177</ele>
        <time>2022-05-20T21:38:31Z</time>
      </trkpt>
      <trkpt lat="48.16985" lon="-4.10167">
        <ele>173</ele>
        <time>2022-05-20T21:38:38Z</time>
      </trkpt>
      <trkpt lat="48.16998" lon="-4.10129">
        <ele>172</ele>
        <time>2022-05-20T21:38:43Z</time>
      </trkpt>
      <trkpt lat="48.17036" lon="-4.10064">
        <ele>166</ele>
        <time>2022-05-20T21:38:53Z</time>
      </trkpt>
      <trkpt lat="48.17048" lon="-4.10029">
        <ele>164</ele>
        <time>2022-05-20T21:38:58Z</time>
      </trkpt>
      <trkpt lat="48.17048" lon="-4.10015">
        <ele>164</ele>
        <time>2022-05-20T21:38:59Z</time>
      </trkpt>
      <trkpt lat="48.17059" lon="-4.0999">
        <ele>163</ele>
        <time>2022-05-20T21:39:03Z</time>
      </trkpt>
      <trkpt lat="48.17062" lon="-4.09977">
        <ele>163</ele>
        <time>2022-05-20T21:39:05Z</time>
      </trkpt>
      <trkpt lat="48.17101" lon="-4.09909">
        <ele>159</ele>
        <time>2022-05-20T21:39:15Z</time>
      </trkpt>
      <trkpt lat="48.17117" lon="-4.09872">
        <ele>156</ele>
        <time>2022-05-20T21:39:20Z</time>
      </trkpt>
      <trkpt lat="48.17132" lon="-4.09851">
        <ele>153</ele>
        <time>2022-05-20T21:39:24Z</time>
      </trkpt>
      <trkpt lat="48.17149" lon="-4.09814">
        <ele>150</ele>
        <time>2022-05-20T21:39:29Z</time>
      </trkpt>
      <trkpt lat="48.17171" lon="-4.09776">
        <ele>145</ele>
        <time>2022-05-20T21:39:35Z</time>
      </trkpt>
      <trkpt lat="48.17186" lon="-4.09736">
        <ele>142</ele>
        <time>2022-05-20T21:39:41Z</time>
      </trkpt>
      <trkpt lat="48.17193" lon="-4.09676">
        <ele>139</ele>
        <time>2022-05-20T21:39:48Z</time>
      </trkpt>
      <trkpt lat="48.172" lon="-4.09665">
        <ele>138</ele>
        <time>2022-05-20T21:39:50Z</time>
      </trkpt>
      <trkpt lat="48.17203" lon="-4.0965">
        <ele>137</ele>
        <time>2022-05-20T21:39:52Z</time>
      </trkpt>
      <trkpt lat="48.17212" lon="-4.0964">
        <ele>136</ele>
        <time>2022-05-20T21:39:54Z</time>
      </trkpt>
      <trkpt lat="48.1723" lon="-4.09591">
        <ele>134</ele>
        <time>2022-05-20T21:40:00Z</time>
      </trkpt>
      <trkpt lat="48.17255" lon="-4.09543">
        <ele>132</ele>
        <time>2022-05-20T21:40:08Z</time>
      </trkpt>
      <trkpt lat="48.17259" lon="-4.0953">
        <ele>132</ele>
        <time>2022-05-20T21:40:09Z</time>
      </trkpt>
      <trkpt lat="48.1726" lon="-4.09501">
        <ele>133</ele>
        <time>2022-05-20T21:40:13Z</time>
      </trkpt>
      <trkpt lat="48.17266" lon="-4.09489">
        <ele>133</ele>
        <time>2022-05-20T21:40:15Z</time>
      </trkpt>
      <trkpt lat="48.17333" lon="-4.09517">
        <ele>126</ele>
        <time>2022-05-20T21:40:27Z</time>
      </trkpt>
      <trkpt lat="48.17466" lon="-4.09605">
        <ele>120</ele>
        <time>2022-05-20T21:40:53Z</time>
      </trkpt>
      <trkpt lat="48.17512" lon="-4.0963">
        <ele>116</ele>
        <time>2022-05-20T21:41:01Z</time>
      </trkpt>
      <trkpt lat="48.17546" lon="-4.09642">
        <ele>112</ele>
        <time>2022-05-20T21:41:08Z</time>
      </trkpt>
      <trkpt lat="48.17575" lon="-4.09647">
        <ele>108</ele>
        <time>2022-05-20T21:41:13Z</time>
      </trkpt>
      <trkpt lat="48.17596" lon="-4.09644">
        <ele>106</ele>
        <time>2022-05-20T21:41:17Z</time>
      </trkpt>
      <trkpt lat="48.17679" lon="-4.09611">
        <ele>100</ele>
        <time>2022-05-20T21:41:32Z</time>
      </trkpt>
      <trkpt lat="48.17706" lon="-4.09605">
        <ele>97</ele>
        <time>2022-05-20T21:41:37Z</time>
      </trkpt>
      <trkpt lat="48.17722" lon="-4.09614">
        <ele>95</ele>
        <time>2022-05-20T21:41:40Z</time>
      </trkpt>
      <trkpt lat="48.17732" lon="-4.09634">
        <ele>94</ele>
        <time>2022-05-20T21:41:43Z</time>
      </trkpt>
      <trkpt lat="48.1777" lon="-4.09737">
        <ele>87</ele>
        <time>2022-05-20T21:41:57Z</time>
      </trkpt>
      <trkpt lat="48.17778" lon="-4.09745">
        <ele>86</ele>
        <time>2022-05-20T21:41:58Z</time>
      </trkpt>
      <trkpt lat="48.17789" lon="-4.09745">
        <ele>84</ele>
        <time>2022-05-20T21:42:00Z</time>
      </trkpt>
      <trkpt lat="48.1785" lon="-4.09681">
        <ele>76</ele>
        <time>2022-05-20T21:42:14Z</time>
      </trkpt>
      <trkpt lat="48.17879" lon="-4.09657">
        <ele>74</ele>
        <time>2022-05-20T21:42:20Z</time>
      </trkpt>
      <trkpt lat="48.17895" lon="-4.09658">
        <ele>73</ele>
        <time>2022-05-20T21:42:22Z</time>
      </trkpt>
      <trkpt lat="48.1791" lon="-4.09667">
        <ele>72</ele>
        <time>2022-05-20T21:42:25Z</time>
      </trkpt>
      <trkpt lat="48.17953" lon="-4.09684">
        <ele>69</ele>
        <time>2022-05-20T21:42:33Z</time>
      </trkpt>
      <trkpt lat="48.18052" lon="-4.09714">
        <ele>61</ele>
        <time>2022-05-20T21:42:51Z</time>
      </trkpt>
      <trkpt lat="48.18118" lon="-4.09738">
        <ele>58</ele>
        <time>2022-05-20T21:43:03Z</time>
      </trkpt>
      <trkpt lat="48.18163" lon="-4.09749">
        <ele>55</ele>
        <time>2022-05-20T21:43:11Z</time>
      </trkpt>
      <trkpt lat="48.18219" lon="-4.09755">
        <ele>54</ele>
        <time>2022-05-20T21:43:21Z</time>
      </trkpt>
      <trkpt lat="48.18246" lon="-4.09748">
        <ele>53</ele>
        <time>2022-05-20T21:43:26Z</time>
      </trkpt>
      <trkpt lat="48.18271" lon="-4.09733">
        <ele>52</ele>
        <time>2022-05-20T21:43:31Z</time>
      </trkpt>
      <trkpt lat="48.18336" lon="-4.09665">
        <ele>46</ele>
        <time>2022-05-20T21:43:45Z</time>
      </trkpt>
      <trkpt lat="48.18347" lon="-4.0965">
        <ele>47</ele>
        <time>2022-05-20T21:43:48Z</time>
      </trkpt>
      <trkpt lat="48.18355" lon="-4.09633">
        <ele>47</ele>
        <time>2022-05-20T21:43:50Z</time>
      </trkpt>
      <trkpt lat="48.18366" lon="-4.09594">
        <ele>48</ele>
        <time>2022-05-20T21:43:55Z</time>
      </trkpt>
      <trkpt lat="48.18397" lon="-4.09509">
        <ele>48</ele>
        <time>2022-05-20T21:44:07Z</time>
      </trkpt>
      <trkpt lat="48.1842" lon="-4.09476">
        <ele>47</ele>
        <time>2022-05-20T21:44:12Z</time>
      </trkpt>
      <trkpt lat="48.18459" lon="-4.09437">
        <ele>46</ele>
        <time>2022-05-20T21:44:21Z</time>
      </trkpt>
      <trkpt lat="48.1849" lon="-4.09412">
        <ele>44</ele>
        <time>2022-05-20T21:44:27Z</time>
      </trkpt>
      <trkpt lat="48.18504" lon="-4.09409">
        <ele>42</ele>
        <time>2022-05-20T21:44:30Z</time>
      </trkpt>
      <trkpt lat="48.18536" lon="-4.0941">
        <ele>40</ele>
        <time>2022-05-20T21:44:35Z</time>
      </trkpt>
      <trkpt lat="48.18573" lon="-4.09415">
        <ele>36</ele>
        <time>2022-05-20T21:44:42Z</time>
      </trkpt>
      <trkpt lat="48.18592" lon="-4.09421">
        <ele>35</ele>
        <time>2022-05-20T21:44:45Z</time>
      </trkpt>
      <trkpt lat="48.18666" lon="-4.09431">
        <ele>36</ele>
        <time>2022-05-20T21:44:59Z</time>
      </trkpt>
      <trkpt lat="48.18695" lon="-4.09439">
        <ele>36</ele>
        <time>2022-05-20T21:45:04Z</time>
      </trkpt>
      <trkpt lat="48.18709" lon="-4.09439">
        <ele>35</ele>
        <time>2022-05-20T21:45:06Z</time>
      </trkpt>
      <trkpt lat="48.18734" lon="-4.09445">
        <ele>35</ele>
        <time>2022-05-20T21:45:11Z</time>
      </trkpt>
      <trkpt lat="48.18768" lon="-4.09441">
        <ele>33</ele>
        <time>2022-05-20T21:45:17Z</time>
      </trkpt>
      <trkpt lat="48.18786" lon="-4.09444">
        <ele>32</ele>
        <time>2022-05-20T21:45:20Z</time>
      </trkpt>
      <trkpt lat="48.18797" lon="-4.09443">
        <ele>31</ele>
        <time>2022-05-20T21:45:22Z</time>
      </trkpt>
      <trkpt lat="48.18808" lon="-4.09438">
        <ele>30</ele>
        <time>2022-05-20T21:45:24Z</time>
      </trkpt>
      <trkpt lat="48.18837" lon="-4.09431">
        <ele>27</ele>
        <time>2022-05-20T21:45:29Z</time>
      </trkpt>
      <trkpt lat="48.18852" lon="-4.09422">
        <ele>25</ele>
        <time>2022-05-20T21:45:32Z</time>
      </trkpt>
      <trkpt lat="48.18889" lon="-4.09392">
        <ele>21</ele>
        <time>2022-05-20T21:45:40Z</time>
      </trkpt>
      <trkpt lat="48.18912" lon="-4.0939">
        <ele>17</ele>
        <time>2022-05-20T21:45:44Z</time>
      </trkpt>
      <trkpt lat="48.18946" lon="-4.09397">
        <ele>15</ele>
        <time>2022-05-20T21:45:50Z</time>
      </trkpt>
      <trkpt lat="48.18975" lon="-4.09409">
        <ele>13</ele>
        <time>2022-05-20T21:45:55Z</time>
      </trkpt>
      <trkpt lat="48.18983" lon="-4.09417">
        <ele>13</ele>
        <time>2022-05-20T21:45:57Z</time>
      </trkpt>
      <trkpt lat="48.19021" lon="-4.09477">
        <ele>18</ele>
        <time>2022-05-20T21:46:07Z</time>
      </trkpt>
      <trkpt lat="48.1907" lon="-4.09563">
        <ele>19</ele>
        <time>2022-05-20T21:46:20Z</time>
      </trkpt>
      <trkpt lat="48.19104" lon="-4.09614">
        <ele>19</ele>
        <time>2022-05-20T21:46:29Z</time>
      </trkpt>
      <trkpt lat="48.19133" lon="-4.09649">
        <ele>18</ele>
        <time>2022-05-20T21:46:35Z</time>
      </trkpt>
      <trkpt lat="48.19164" lon="-4.09679">
        <ele>15</ele>
        <time>2022-05-20T21:46:42Z</time>
      </trkpt>
      <trkpt lat="48.19173" lon="-4.09691">
        <ele>16</ele>
        <time>2022-05-20T21:46:44Z</time>
      </trkpt>
      <trkpt lat="48.19244" lon="-4.09755">
        <ele>15</ele>
        <time>2022-05-20T21:46:59Z</time>
      </trkpt>
      <trkpt lat="48.19273" lon="-4.09777">
        <ele>16</ele>
        <time>2022-05-20T21:47:05Z</time>
      </trkpt>
      <trkpt lat="48.19326" lon="-4.09805">
        <ele>17</ele>
        <time>2022-05-20T21:47:15Z</time>
      </trkpt>
      <trkpt lat="48.19263" lon="-4.09767">
        <ele>15</ele>
        <time>2022-05-20T21:47:27Z</time>
      </trkpt>
      <trkpt lat="48.19212" lon="-4.09719">
        <ele>16</ele>
        <time>2022-05-20T21:47:37Z</time>
      </trkpt>
      <trkpt lat="48.19151" lon="-4.09667">
        <ele>16</ele>
        <time>2022-05-20T21:47:50Z</time>
      </trkpt>
      <trkpt lat="48.19175" lon="-4.09658">
        <ele>12</ele>
        <time>2022-05-20T21:47:54Z</time>
      </trkpt>
      <trkpt lat="48.19201" lon="-4.09631">
        <ele>10</ele>
        <time>2022-05-20T21:48:00Z</time>
      </trkpt>
      <trkpt lat="48.1924" lon="-4.09574">
        <ele>8</ele>
        <time>2022-05-20T21:48:10Z</time>
      </trkpt>
      <trkpt lat="48.1925" lon="-4.09572">
        <ele>8</ele>
        <time>2022-05-20T21:48:11Z</time>
      </trkpt>
      <trkpt lat="48.19265" lon="-4.09592">
        <ele>8</ele>
        <time>2022-05-20T21:48:15Z</time>
      </trkpt>
      <trkpt lat="48.19284" lon="-4.09612">
        <ele>8</ele>
        <time>2022-05-20T21:48:19Z</time>
      </trkpt>
      <trkpt lat="48.19318" lon="-4.09639">
        <ele>8</ele>
        <time>2022-05-20T21:48:26Z</time>
      </trkpt>
      <trkpt lat="48.1941" lon="-4.09693">
        <ele>9</ele>
        <time>2022-05-20T21:48:43Z</time>
      </trkpt>
      <trkpt lat="48.19445" lon="-4.09705">
        <ele>11</ele>
        <time>2022-05-20T21:48:50Z</time>
      </trkpt>
      <trkpt lat="48.19456" lon="-4.09706">
        <ele>12</ele>
        <time>2022-05-20T21:48:52Z</time>
      </trkpt>
      <trkpt lat="48.19489" lon="-4.09696">
        <ele>13</ele>
        <time>2022-05-20T21:48:58Z</time>
      </trkpt>
      <trkpt lat="48.19517" lon="-4.09674">
        <ele>18</ele>
        <time>2022-05-20T21:49:03Z</time>
      </trkpt>
      <trkpt lat="48.19543" lon="-4.09641">
        <ele>25</ele>
        <time>2022-05-20T21:49:09Z</time>
      </trkpt>
      <trkpt lat="48.19567" lon="-4.09591">
        <ele>28</ele>
        <time>2022-05-20T21:49:17Z</time>
      </trkpt>
      <trkpt lat="48.19583" lon="-4.09551">
        <ele>25</ele>
        <time>2022-05-20T21:49:22Z</time>
      </trkpt>
      <trkpt lat="48.1959" lon="-4.0954">
        <ele>24</ele>
        <time>2022-05-20T21:49:24Z</time>
      </trkpt>
      <trkpt lat="48.196" lon="-4.09514">
        <ele>20</ele>
        <time>2022-05-20T21:49:28Z</time>
      </trkpt>
      <trkpt lat="48.19593" lon="-4.09523">
        <ele>20</ele>
        <time>2022-05-20T21:49:29Z</time>
      </trkpt>
      <trkpt lat="48.19582" lon="-4.09498">
        <ele>13</ele>
        <time>2022-05-20T21:49:33Z</time>
      </trkpt>
      <trkpt lat="48.19598" lon="-4.0953">
        <ele>23</ele>
        <time>2022-05-20T21:49:38Z</time>
      </trkpt>
      <trkpt lat="48.19613" lon="-4.09496">
        <ele>20</ele>
        <time>2022-05-20T21:49:42Z</time>
      </trkpt>
      <trkpt lat="48.19618" lon="-4.09506">
        <ele>23</ele>
        <time>2022-05-20T21:49:44Z</time>
      </trkpt>
      <trkpt lat="48.19608" lon="-4.09507">
        <ele>20</ele>
        <time>2022-05-20T21:49:46Z</time>
      </trkpt>
      <trkpt lat="48.1961" lon="-4.0949">
        <ele>18</ele>
        <time>2022-05-20T21:49:48Z</time>
      </trkpt>
      <trkpt lat="48.19669" lon="-4.09367">
        <ele>12</ele>
        <time>2022-05-20T21:50:06Z</time>
      </trkpt>
      <trkpt lat="48.1966" lon="-4.09373">
        <ele>12</ele>
        <time>2022-05-20T21:50:08Z</time>
      </trkpt>
      <trkpt lat="48.19671" lon="-4.09355">
        <ele>12</ele>
        <time>2022-05-20T21:50:10Z</time>
      </trkpt>
      <trkpt lat="48.19665" lon="-4.09341">
        <ele>10</ele>
        <time>2022-05-20T21:50:12Z</time>
      </trkpt>
      <trkpt lat="48.19648" lon="-4.09326">
        <ele>10</ele>
        <time>2022-05-20T21:50:16Z</time>
      </trkpt>
      <trkpt lat="48.19639" lon="-4.09322">
        <ele>10</ele>
        <time>2022-05-20T21:50:18Z</time>
      </trkpt>
      <trkpt lat="48.19628" lon="-4.09313">
        <ele>10</ele>
        <time>2022-05-20T21:50:20Z</time>
      </trkpt>
      <trkpt lat="48.19619" lon="-4.09309">
        <ele>10</ele>
        <time>2022-05-20T21:50:21Z</time>
      </trkpt>
      <trkpt lat="48.19601" lon="-4.0931">
        <ele>10</ele>
        <time>2022-05-20T21:50:25Z</time>
      </trkpt>
      <trkpt lat="48.19605" lon="-4.09296">
        <ele>10</ele>
        <time>2022-05-20T21:50:26Z</time>
      </trkpt>
      <trkpt lat="48.19619" lon="-4.09273">
        <ele>10</ele>
        <time>2022-05-20T21:50:30Z</time>
      </trkpt>
      <trkpt lat="48.19642" lon="-4.09216">
        <ele>10</ele>
        <time>2022-05-20T21:50:38Z</time>
      </trkpt>
      <trkpt lat="48.19656" lon="-4.09188">
        <ele>9</ele>
        <time>2022-05-20T21:50:42Z</time>
      </trkpt>
      <trkpt lat="48.19703" lon="-4.0907">
        <ele>8</ele>
        <time>2022-05-20T21:50:59Z</time>
      </trkpt>
      <trkpt lat="48.19719" lon="-4.0902">
        <ele>7</ele>
        <time>2022-05-20T21:51:05Z</time>
      </trkpt>
      <trkpt lat="48.19729" lon="-4.0902">
        <ele>7</ele>
        <time>2022-05-20T21:51:07Z</time>
      </trkpt>
      <trkpt lat="48.19742" lon="-4.08977">
        <ele>7</ele>
        <time>2022-05-20T21:51:12Z</time>
      </trkpt>
      <trkpt lat="48.19761" lon="-4.08933">
        <ele>7</ele>
        <time>2022-05-20T21:51:19Z</time>
      </trkpt>
      <trkpt lat="48.19776" lon="-4.08888">
        <ele>7</ele>
        <time>2022-05-20T21:51:25Z</time>
      </trkpt>
      <trkpt lat="48.19835" lon="-4.08739">
        <ele>8</ele>
        <time>2022-05-20T21:51:45Z</time>
      </trkpt>
      <trkpt lat="48.19845" lon="-4.08707">
        <ele>9</ele>
        <time>2022-05-20T21:51:49Z</time>
      </trkpt>
      <trkpt lat="48.19859" lon="-4.08676">
        <ele>9</ele>
        <time>2022-05-20T21:51:54Z</time>
      </trkpt>
      <trkpt lat="48.19876" lon="-4.0865">
        <ele>9</ele>
        <time>2022-05-20T21:51:58Z</time>
      </trkpt>
      <trkpt lat="48.19897" lon="-4.08628">
        <ele>9</ele>
        <time>2022-05-20T21:52:03Z</time>
      </trkpt>
      <trkpt lat="48.19986" lon="-4.08558">
        <ele>11</ele>
        <time>2022-05-20T21:52:21Z</time>
      </trkpt>
      <trkpt lat="48.20142" lon="-4.08445">
        <ele>9</ele>
        <time>2022-05-20T21:52:51Z</time>
      </trkpt>
      <trkpt lat="48.20361" lon="-4.08276">
        <ele>6</ele>
        <time>2022-05-20T21:53:35Z</time>
      </trkpt>
      <trkpt lat="48.20407" lon="-4.08225">
        <ele>7</ele>
        <time>2022-05-20T21:53:45Z</time>
      </trkpt>
      <trkpt lat="48.20545" lon="-4.08027">
        <ele>7</ele>
        <time>2022-05-20T21:54:19Z</time>
      </trkpt>
      <trkpt lat="48.20672" lon="-4.07854">
        <ele>8</ele>
        <time>2022-05-20T21:54:50Z</time>
      </trkpt>
      <trkpt lat="48.20727" lon="-4.07792">
        <ele>9</ele>
        <time>2022-05-20T21:55:02Z</time>
      </trkpt>
      <trkpt lat="48.20811" lon="-4.07716">
        <ele>9</ele>
        <time>2022-05-20T21:55:20Z</time>
      </trkpt>
      <trkpt lat="48.2085" lon="-4.07688">
        <ele>8</ele>
        <time>2022-05-20T21:55:27Z</time>
      </trkpt>
      <trkpt lat="48.20934" lon="-4.07637">
        <ele>5</ele>
        <time>2022-05-20T21:55:43Z</time>
      </trkpt>
      <trkpt lat="48.20969" lon="-4.07611">
        <ele>6</ele>
        <time>2022-05-20T21:55:50Z</time>
      </trkpt>
      <trkpt lat="48.2103" lon="-4.07573">
        <ele>7</ele>
        <time>2022-05-20T21:56:02Z</time>
      </trkpt>
      <trkpt lat="48.2116" lon="-4.07485">
        <ele>9</ele>
        <time>2022-05-20T21:56:28Z</time>
      </trkpt>
      <trkpt lat="48.21305" lon="-4.07394">
        <ele>12</ele>
        <time>2022-05-20T21:56:55Z</time>
      </trkpt>
      <trkpt lat="48.21314" lon="-4.07386">
        <ele>14</ele>
        <time>2022-05-20T21:56:57Z</time>
      </trkpt>
      <trkpt lat="48.21318" lon="-4.07374">
        <ele>16</ele>
        <time>2022-05-20T21:56:59Z</time>
      </trkpt>
      <trkpt lat="48.21337" lon="-4.07366">
        <ele>16</ele>
        <time>2022-05-20T21:57:02Z</time>
      </trkpt>
      <trkpt lat="48.21358" lon="-4.07362">
        <ele>16</ele>
        <time>2022-05-20T21:57:06Z</time>
      </trkpt>
      <trkpt lat="48.21452" lon="-4.07354">
        <ele>12</ele>
        <time>2022-05-20T21:57:23Z</time>
      </trkpt>
      <trkpt lat="48.21475" lon="-4.07353">
        <ele>10</ele>
        <time>2022-05-20T21:57:27Z</time>
      </trkpt>
      <trkpt lat="48.21497" lon="-4.07355">
        <ele>9</ele>
        <time>2022-05-20T21:57:31Z</time>
      </trkpt>
      <trkpt lat="48.21506" lon="-4.07352">
        <ele>10</ele>
        <time>2022-05-20T21:57:33Z</time>
      </trkpt>
      <trkpt lat="48.21507" lon="-4.07338">
        <ele>11</ele>
        <time>2022-05-20T21:57:34Z</time>
      </trkpt>
      <trkpt lat="48.21504" lon="-4.07323">
        <ele>12</ele>
        <time>2022-05-20T21:57:36Z</time>
      </trkpt>
      <trkpt lat="48.21498" lon="-4.0731">
        <ele>12</ele>
        <time>2022-05-20T21:57:38Z</time>
      </trkpt>
      <trkpt lat="48.21503" lon="-4.0725">
        <ele>16</ele>
        <time>2022-05-20T21:57:45Z</time>
      </trkpt>
      <trkpt lat="48.21511" lon="-4.07209">
        <ele>21</ele>
        <time>2022-05-20T21:57:50Z</time>
      </trkpt>
      <trkpt lat="48.21531" lon="-4.07158">
        <ele>27</ele>
        <time>2022-05-20T21:57:57Z</time>
      </trkpt>
      <trkpt lat="48.21538" lon="-4.0713">
        <ele>28</ele>
        <time>2022-05-20T21:58:01Z</time>
      </trkpt>
      <trkpt lat="48.21549" lon="-4.07105">
        <ele>28</ele>
        <time>2022-05-20T21:58:04Z</time>
      </trkpt>
      <trkpt lat="48.21553" lon="-4.0709">
        <ele>28</ele>
        <time>2022-05-20T21:58:06Z</time>
      </trkpt>
      <trkpt lat="48.21556" lon="-4.07047">
        <ele>28</ele>
        <time>2022-05-20T21:58:11Z</time>
      </trkpt>
      <trkpt lat="48.21557" lon="-4.0697">
        <ele>28</ele>
        <time>2022-05-20T21:58:21Z</time>
      </trkpt>
      <trkpt lat="48.21566" lon="-4.06926">
        <ele>26</ele>
        <time>2022-05-20T21:58:26Z</time>
      </trkpt>
      <trkpt lat="48.21574" lon="-4.06854">
        <ele>25</ele>
        <time>2022-05-20T21:58:35Z</time>
      </trkpt>
      <trkpt lat="48.21588" lon="-4.06799">
        <ele>27</ele>
        <time>2022-05-20T21:58:42Z</time>
      </trkpt>
      <trkpt lat="48.21581" lon="-4.0679">
        <ele>28</ele>
        <time>2022-05-20T21:58:43Z</time>
      </trkpt>
      <trkpt lat="48.2152" lon="-4.06751">
        <ele>35</ele>
        <time>2022-05-20T21:58:55Z</time>
      </trkpt>
      <trkpt lat="48.21516" lon="-4.06734">
        <ele>35</ele>
        <time>2022-05-20T21:58:57Z</time>
      </trkpt>
      <trkpt lat="48.21508" lon="-4.06723">
        <ele>34</ele>
        <time>2022-05-20T21:58:59Z</time>
      </trkpt>
      <trkpt lat="48.21503" lon="-4.0671">
        <ele>34</ele>
        <time>2022-05-20T21:59:01Z</time>
      </trkpt>
      <trkpt lat="48.21475" lon="-4.06671">
        <ele>35</ele>
        <time>2022-05-20T21:59:08Z</time>
      </trkpt>
      <trkpt lat="48.21462" lon="-4.06646">
        <ele>37</ele>
        <time>2022-05-20T21:59:11Z</time>
      </trkpt>
      <trkpt lat="48.21447" lon="-4.06627">
        <ele>38</ele>
        <time>2022-05-20T21:59:15Z</time>
      </trkpt>
      <trkpt lat="48.21413" lon="-4.06575">
        <ele>40</ele>
        <time>2022-05-20T21:59:24Z</time>
      </trkpt>
      <trkpt lat="48.21404" lon="-4.06568">
        <ele>41</ele>
        <time>2022-05-20T21:59:25Z</time>
      </trkpt>
      <trkpt lat="48.21363" lon="-4.06523">
        <ele>46</ele>
        <time>2022-05-20T21:59:34Z</time>
      </trkpt>
      <trkpt lat="48.21345" lon="-4.06513">
        <ele>48</ele>
        <time>2022-05-20T21:59:38Z</time>
      </trkpt>
      <trkpt lat="48.21318" lon="-4.06491">
        <ele>50</ele>
        <time>2022-05-20T21:59:43Z</time>
      </trkpt>
      <trkpt lat="48.21256" lon="-4.06422">
        <ele>52</ele>
        <time>2022-05-20T21:59:57Z</time>
      </trkpt>
      <trkpt lat="48.21249" lon="-4.06411">
        <ele>52</ele>
        <time>2022-05-20T21:59:59Z</time>
      </trkpt>
      <trkpt lat="48.21244" lon="-4.06397">
        <ele>53</ele>
        <time>2022-05-20T22:00:01Z</time>
      </trkpt>
      <trkpt lat="48.21259" lon="-4.06371">
        <ele>52</ele>
        <time>2022-05-20T22:00:05Z</time>
      </trkpt>
      <trkpt lat="48.21289" lon="-4.06335">
        <ele>51</ele>
        <time>2022-05-20T22:00:12Z</time>
      </trkpt>
      <trkpt lat="48.21309" lon="-4.06315">
        <ele>52</ele>
        <time>2022-05-20T22:00:16Z</time>
      </trkpt>
      <trkpt lat="48.21343" lon="-4.0629">
        <ele>54</ele>
        <time>2022-05-20T22:00:23Z</time>
      </trkpt>
      <trkpt lat="48.21361" lon="-4.0628">
        <ele>55</ele>
        <time>2022-05-20T22:00:26Z</time>
      </trkpt>
      <trkpt lat="48.21398" lon="-4.06266">
        <ele>57</ele>
        <time>2022-05-20T22:00:33Z</time>
      </trkpt>
      <trkpt lat="48.21407" lon="-4.06259">
        <ele>58</ele>
        <time>2022-05-20T22:00:35Z</time>
      </trkpt>
      <trkpt lat="48.21438" lon="-4.06222">
        <ele>63</ele>
        <time>2022-05-20T22:00:42Z</time>
      </trkpt>
      <trkpt lat="48.21457" lon="-4.06189">
        <ele>66</ele>
        <time>2022-05-20T22:00:47Z</time>
      </trkpt>
      <trkpt lat="48.21469" lon="-4.06149">
        <ele>69</ele>
        <time>2022-05-20T22:00:52Z</time>
      </trkpt>
      <trkpt lat="48.21467" lon="-4.06135">
        <ele>70</ele>
        <time>2022-05-20T22:00:54Z</time>
      </trkpt>
      <trkpt lat="48.21445" lon="-4.06109">
        <ele>72</ele>
        <time>2022-05-20T22:00:59Z</time>
      </trkpt>
      <trkpt lat="48.21425" lon="-4.06075">
        <ele>76</ele>
        <time>2022-05-20T22:01:04Z</time>
      </trkpt>
      <trkpt lat="48.21396" lon="-4.0602">
        <ele>80</ele>
        <time>2022-05-20T22:01:12Z</time>
      </trkpt>
      <trkpt lat="48.21393" lon="-4.06006">
        <ele>81</ele>
        <time>2022-05-20T22:01:14Z</time>
      </trkpt>
      <trkpt lat="48.21409" lon="-4.05989">
        <ele>81</ele>
        <time>2022-05-20T22:01:18Z</time>
      </trkpt>
      <trkpt lat="48.21418" lon="-4.05983">
        <ele>81</ele>
        <time>2022-05-20T22:01:19Z</time>
      </trkpt>
      <trkpt lat="48.21435" lon="-4.05964">
        <ele>82</ele>
        <time>2022-05-20T22:01:23Z</time>
      </trkpt>
      <trkpt lat="48.21441" lon="-4.05953">
        <ele>82</ele>
        <time>2022-05-20T22:01:25Z</time>
      </trkpt>
      <trkpt lat="48.21521" lon="-4.05868">
        <ele>85</ele>
        <time>2022-05-20T22:01:42Z</time>
      </trkpt>
      <trkpt lat="48.21608" lon="-4.05766">
        <ele>88</ele>
        <time>2022-05-20T22:02:02Z</time>
      </trkpt>
      <trkpt lat="48.21636" lon="-4.05728">
        <ele>91</ele>
        <time>2022-05-20T22:02:09Z</time>
      </trkpt>
      <trkpt lat="48.21687" lon="-4.05687">
        <ele>93</ele>
        <time>2022-05-20T22:02:19Z</time>
      </trkpt>
      <trkpt lat="48.21733" lon="-4.05657">
        <ele>94</ele>
        <time>2022-05-20T22:02:28Z</time>
      </trkpt>
      <trkpt lat="48.21943" lon="-4.05497">
        <ele>102</ele>
        <time>2022-05-20T22:03:10Z</time>
      </trkpt>
      <trkpt lat="48.22024" lon="-4.05442">
        <ele>105</ele>
        <time>2022-05-20T22:03:26Z</time>
      </trkpt>
      <trkpt lat="48.22045" lon="-4.05432">
        <ele>106</ele>
        <time>2022-05-20T22:03:30Z</time>
      </trkpt>
      <trkpt lat="48.22054" lon="-4.05424">
        <ele>107</ele>
        <time>2022-05-20T22:03:31Z</time>
      </trkpt>
      <trkpt lat="48.22165" lon="-4.05372">
        <ele>110</ele>
        <time>2022-05-20T22:03:52Z</time>
      </trkpt>
      <trkpt lat="48.22238" lon="-4.05349">
        <ele>110</ele>
        <time>2022-05-20T22:04:05Z</time>
      </trkpt>
      <trkpt lat="48.22371" lon="-4.05318">
        <ele>108</ele>
        <time>2022-05-20T22:04:29Z</time>
      </trkpt>
      <trkpt lat="48.22467" lon="-4.0529">
        <ele>106</ele>
        <time>2022-05-20T22:04:47Z</time>
      </trkpt>
      <trkpt lat="48.2251" lon="-4.05268">
        <ele>105</ele>
        <time>2022-05-20T22:04:55Z</time>
      </trkpt>
      <trkpt lat="48.22602" lon="-4.05212">
        <ele>105</ele>
        <time>2022-05-20T22:05:12Z</time>
      </trkpt>
      <trkpt lat="48.22643" lon="-4.05183">
        <ele>105</ele>
        <time>2022-05-20T22:05:21Z</time>
      </trkpt>
      <trkpt lat="48.22685" lon="-4.05141">
        <ele>103</ele>
        <time>2022-05-20T22:05:30Z</time>
      </trkpt>
      <trkpt lat="48.22831" lon="-4.04977">
        <ele>95</ele>
        <time>2022-05-20T22:06:02Z</time>
      </trkpt>
      <trkpt lat="48.22869" lon="-4.04929">
        <ele>95</ele>
        <time>2022-05-20T22:06:11Z</time>
      </trkpt>
      <trkpt lat="48.2291" lon="-4.04844">
        <ele>94</ele>
        <time>2022-05-20T22:06:23Z</time>
      </trkpt>
      <trkpt lat="48.23" lon="-4.04633">
        <ele>102</ele>
        <time>2022-05-20T22:06:53Z</time>
      </trkpt>
      <trkpt lat="48.23009" lon="-4.04607">
        <ele>103</ele>
        <time>2022-05-20T22:06:56Z</time>
      </trkpt>
      <trkpt lat="48.23049" lon="-4.04518">
        <ele>106</ele>
        <time>2022-05-20T22:07:09Z</time>
      </trkpt>
      <trkpt lat="48.23058" lon="-4.04491">
        <ele>107</ele>
        <time>2022-05-20T22:07:13Z</time>
      </trkpt>
      <trkpt lat="48.23129" lon="-4.04316">
        <ele>117</ele>
        <time>2022-05-20T22:07:37Z</time>
      </trkpt>
      <trkpt lat="48.232" lon="-4.04121">
        <ele>122</ele>
        <time>2022-05-20T22:08:03Z</time>
      </trkpt>
      <trkpt lat="48.23222" lon="-4.04046">
        <ele>123</ele>
        <time>2022-05-20T22:08:13Z</time>
      </trkpt>
      <trkpt lat="48.2324" lon="-4.03958">
        <ele>126</ele>
        <time>2022-05-20T22:08:24Z</time>
      </trkpt>
      <trkpt lat="48.23252" lon="-4.03917">
        <ele>128</ele>
        <time>2022-05-20T22:08:29Z</time>
      </trkpt>
      <trkpt lat="48.23314" lon="-4.03751">
        <ele>130</ele>
        <time>2022-05-20T22:08:52Z</time>
      </trkpt>
      <trkpt lat="48.2334" lon="-4.03673">
        <ele>131</ele>
        <time>2022-05-20T22:09:02Z</time>
      </trkpt>
      <trkpt lat="48.23355" lon="-4.03637">
        <ele>131</ele>
        <time>2022-05-20T22:09:07Z</time>
      </trkpt>
      <trkpt lat="48.23451" lon="-4.03445">
        <ele>133</ele>
        <time>2022-05-20T22:09:36Z</time>
      </trkpt>
      <trkpt lat="48.23481" lon="-4.03394">
        <ele>135</ele>
        <time>2022-05-20T22:09:44Z</time>
      </trkpt>
      <trkpt lat="48.23528" lon="-4.03324">
        <ele>135</ele>
        <time>2022-05-20T22:09:55Z</time>
      </trkpt>
      <trkpt lat="48.2357" lon="-4.03243">
        <ele>135</ele>
        <time>2022-05-20T22:10:08Z</time>
      </trkpt>
      <trkpt lat="48.23594" lon="-4.03186">
        <ele>135</ele>
        <time>2022-05-20T22:10:16Z</time>
      </trkpt>
      <trkpt lat="48.23606" lon="-4.03163">
        <ele>135</ele>
        <time>2022-05-20T22:10:19Z</time>
      </trkpt>
      <trkpt lat="48.23618" lon="-4.03128">
        <ele>136</ele>
        <time>2022-05-20T22:10:24Z</time>
      </trkpt>
      <trkpt lat="48.23674" lon="-4.02997">
        <ele>138</ele>
        <time>2022-05-20T22:10:42Z</time>
      </trkpt>
      <trkpt lat="48.23748" lon="-4.02788">
        <ele>140</ele>
        <time>2022-05-20T22:11:10Z</time>
      </trkpt>
      <trkpt lat="48.23799" lon="-4.02655">
        <ele>141</ele>
        <time>2022-05-20T22:11:28Z</time>
      </trkpt>
      <trkpt lat="48.23819" lon="-4.02594">
        <ele>142</ele>
        <time>2022-05-20T22:11:37Z</time>
      </trkpt>
      <trkpt lat="48.23861" lon="-4.0244">
        <ele>139</ele>
        <time>2022-05-20T22:11:56Z</time>
      </trkpt>
      <trkpt lat="48.23871" lon="-4.02397">
        <ele>138</ele>
        <time>2022-05-20T22:12:02Z</time>
      </trkpt>
      <trkpt lat="48.23895" lon="-4.02265">
        <ele>134</ele>
        <time>2022-05-20T22:12:18Z</time>
      </trkpt>
      <trkpt lat="48.23917" lon="-4.02181">
        <ele>134</ele>
        <time>2022-05-20T22:12:29Z</time>
      </trkpt>
      <trkpt lat="48.23966" lon="-4.02054">
        <ele>136</ele>
        <time>2022-05-20T22:12:46Z</time>
      </trkpt>
      <trkpt lat="48.23978" lon="-4.02028">
        <ele>136</ele>
        <time>2022-05-20T22:12:50Z</time>
      </trkpt>
      <trkpt lat="48.24001" lon="-4.01991">
        <ele>137</ele>
        <time>2022-05-20T22:12:56Z</time>
      </trkpt>
      <trkpt lat="48.24034" lon="-4.01919">
        <ele>139</ele>
        <time>2022-05-20T22:13:06Z</time>
      </trkpt>
      <trkpt lat="48.24059" lon="-4.01842">
        <ele>140</ele>
        <time>2022-05-20T22:13:16Z</time>
      </trkpt>
      <trkpt lat="48.2415" lon="-4.01589">
        <ele>144</ele>
        <time>2022-05-20T22:13:50Z</time>
      </trkpt>
      <trkpt lat="48.24165" lon="-4.01528">
        <ele>145</ele>
        <time>2022-05-20T22:13:58Z</time>
      </trkpt>
      <trkpt lat="48.24175" lon="-4.01463">
        <ele>146</ele>
        <time>2022-05-20T22:14:06Z</time>
      </trkpt>
      <trkpt lat="48.24189" lon="-4.014">
        <ele>147</ele>
        <time>2022-05-20T22:14:14Z</time>
      </trkpt>
      <trkpt lat="48.24212" lon="-4.01317">
        <ele>147</ele>
        <time>2022-05-20T22:14:24Z</time>
      </trkpt>
      <trkpt lat="48.2424" lon="-4.01231">
        <ele>147</ele>
        <time>2022-05-20T22:14:36Z</time>
      </trkpt>
      <trkpt lat="48.24271" lon="-4.01106">
        <ele>146</ele>
        <time>2022-05-20T22:14:52Z</time>
      </trkpt>
      <trkpt lat="48.24286" lon="-4.01003">
        <ele>143</ele>
        <time>2022-05-20T22:15:04Z</time>
      </trkpt>
      <trkpt lat="48.24291" lon="-4.00983">
        <ele>142</ele>
        <time>2022-05-20T22:15:07Z</time>
      </trkpt>
      <trkpt lat="48.24326" lon="-4.00739">
        <ele>140</ele>
        <time>2022-05-20T22:15:36Z</time>
      </trkpt>
      <trkpt lat="48.24354" lon="-4.00628">
        <ele>140</ele>
        <time>2022-05-20T22:15:50Z</time>
      </trkpt>
      <trkpt lat="48.24359" lon="-4.00617">
        <ele>141</ele>
        <time>2022-05-20T22:15:52Z</time>
      </trkpt>
      <trkpt lat="48.24368" lon="-4.00608">
        <ele>141</ele>
        <time>2022-05-20T22:15:54Z</time>
      </trkpt>
      <trkpt lat="48.24387" lon="-4.00598">
        <ele>140</ele>
        <time>2022-05-20T22:15:57Z</time>
      </trkpt>
      <trkpt lat="48.24541" lon="-4.00553">
        <ele>141</ele>
        <time>2022-05-20T22:16:25Z</time>
      </trkpt>
      <trkpt lat="48.24592" lon="-4.00532">
        <ele>141</ele>
        <time>2022-05-20T22:16:35Z</time>
      </trkpt>
      <trkpt lat="48.24642" lon="-4.00492">
        <ele>139</ele>
        <time>2022-05-20T22:16:45Z</time>
      </trkpt>
      <trkpt lat="48.2466" lon="-4.00471">
        <ele>138</ele>
        <time>2022-05-20T22:16:49Z</time>
      </trkpt>
      <trkpt lat="48.24718" lon="-4.00374">
        <ele>132</ele>
        <time>2022-05-20T22:17:04Z</time>
      </trkpt>
      <trkpt lat="48.24761" lon="-4.00289">
        <ele>127</ele>
        <time>2022-05-20T22:17:17Z</time>
      </trkpt>
      <trkpt lat="48.2484" lon="-4.00122">
        <ele>119</ele>
        <time>2022-05-20T22:17:41Z</time>
      </trkpt>
      <trkpt lat="48.2486" lon="-4.00089">
        <ele>117</ele>
        <time>2022-05-20T22:17:46Z</time>
      </trkpt>
      <trkpt lat="48.24884" lon="-4.0006">
        <ele>115</ele>
        <time>2022-05-20T22:17:52Z</time>
      </trkpt>
      <trkpt lat="48.24914" lon="-4.00042">
        <ele>115</ele>
        <time>2022-05-20T22:17:58Z</time>
      </trkpt>
      <trkpt lat="48.2495" lon="-4.00031">
        <ele>114</ele>
        <time>2022-05-20T22:18:04Z</time>
      </trkpt>
      <trkpt lat="48.25002" lon="-4.00036">
        <ele>113</ele>
        <time>2022-05-20T22:18:13Z</time>
      </trkpt>
      <trkpt lat="48.25013" lon="-4.00035">
        <ele>113</ele>
        <time>2022-05-20T22:18:15Z</time>
      </trkpt>
      <trkpt lat="48.25035" lon="-4.00039">
        <ele>112</ele>
        <time>2022-05-20T22:18:19Z</time>
      </trkpt>
      <trkpt lat="48.25098" lon="-4.00044">
        <ele>112</ele>
        <time>2022-05-20T22:18:31Z</time>
      </trkpt>
      <trkpt lat="48.2514" lon="-4.00036">
        <ele>111</ele>
        <time>2022-05-20T22:18:38Z</time>
      </trkpt>
      <trkpt lat="48.2516" lon="-4.00027">
        <ele>111</ele>
        <time>2022-05-20T22:18:42Z</time>
      </trkpt>
      <trkpt lat="48.2518" lon="-4.00013">
        <ele>112</ele>
        <time>2022-05-20T22:18:46Z</time>
      </trkpt>
      <trkpt lat="48.25214" lon="-3.99978">
        <ele>112</ele>
        <time>2022-05-20T22:18:53Z</time>
      </trkpt>
      <trkpt lat="48.25252" lon="-3.99922">
        <ele>111</ele>
        <time>2022-05-20T22:19:03Z</time>
      </trkpt>
      <trkpt lat="48.2528" lon="-3.99873">
        <ele>113</ele>
        <time>2022-05-20T22:19:10Z</time>
      </trkpt>
      <trkpt lat="48.25319" lon="-3.99819">
        <ele>116</ele>
        <time>2022-05-20T22:19:20Z</time>
      </trkpt>
      <trkpt lat="48.25335" lon="-3.998">
        <ele>116</ele>
        <time>2022-05-20T22:19:23Z</time>
      </trkpt>
      <trkpt lat="48.25352" lon="-3.99786">
        <ele>117</ele>
        <time>2022-05-20T22:19:27Z</time>
      </trkpt>
      <trkpt lat="48.25377" lon="-3.9976">
        <ele>119</ele>
        <time>2022-05-20T22:19:32Z</time>
      </trkpt>
      <trkpt lat="48.25439" lon="-3.99708">
        <ele>123</ele>
        <time>2022-05-20T22:19:45Z</time>
      </trkpt>
      <trkpt lat="48.25458" lon="-3.99696">
        <ele>125</ele>
        <time>2022-05-20T22:19:48Z</time>
      </trkpt>
      <trkpt lat="48.25474" lon="-3.99682">
        <ele>126</ele>
        <time>2022-05-20T22:19:52Z</time>
      </trkpt>
      <trkpt lat="48.25511" lon="-3.9966">
        <ele>129</ele>
        <time>2022-05-20T22:19:59Z</time>
      </trkpt>
      <trkpt lat="48.25519" lon="-3.99651">
        <ele>129</ele>
        <time>2022-05-20T22:20:01Z</time>
      </trkpt>
      <trkpt lat="48.25538" lon="-3.99639">
        <ele>129</ele>
        <time>2022-05-20T22:20:04Z</time>
      </trkpt>
      <trkpt lat="48.25564" lon="-3.99618">
        <ele>130</ele>
        <time>2022-05-20T22:20:10Z</time>
      </trkpt>
      <trkpt lat="48.25601" lon="-3.99596">
        <ele>131</ele>
        <time>2022-05-20T22:20:17Z</time>
      </trkpt>
      <trkpt lat="48.25646" lon="-3.99564">
        <ele>134</ele>
        <time>2022-05-20T22:20:25Z</time>
      </trkpt>
      <trkpt lat="48.25671" lon="-3.99543">
        <ele>135</ele>
        <time>2022-05-20T22:20:31Z</time>
      </trkpt>
      <trkpt lat="48.25865" lon="-3.99407">
        <ele>133</ele>
        <time>2022-05-20T22:21:09Z</time>
      </trkpt>
      <trkpt lat="48.25925" lon="-3.99354">
        <ele>133</ele>
        <time>2022-05-20T22:21:21Z</time>
      </trkpt>
      <trkpt lat="48.25954" lon="-3.99332">
        <ele>133</ele>
        <time>2022-05-20T22:21:27Z</time>
      </trkpt>
      <trkpt lat="48.25965" lon="-3.99321">
        <ele>133</ele>
        <time>2022-05-20T22:21:29Z</time>
      </trkpt>
      <trkpt lat="48.25971" lon="-3.9931">
        <ele>132</ele>
        <time>2022-05-20T22:21:31Z</time>
      </trkpt>
      <trkpt lat="48.26023" lon="-3.99263">
        <ele>132</ele>
        <time>2022-05-20T22:21:42Z</time>
      </trkpt>
      <trkpt lat="48.26032" lon="-3.99252">
        <ele>132</ele>
        <time>2022-05-20T22:21:44Z</time>
      </trkpt>
      <trkpt lat="48.26066" lon="-3.99228">
        <ele>131</ele>
        <time>2022-05-20T22:21:50Z</time>
      </trkpt>
      <trkpt lat="48.26076" lon="-3.99216">
        <ele>130</ele>
        <time>2022-05-20T22:21:53Z</time>
      </trkpt>
      <trkpt lat="48.26108" lon="-3.99192">
        <ele>130</ele>
        <time>2022-05-20T22:21:59Z</time>
      </trkpt>
      <trkpt lat="48.26134" lon="-3.99168">
        <ele>129</ele>
        <time>2022-05-20T22:22:04Z</time>
      </trkpt>
      <trkpt lat="48.26271" lon="-3.99093">
        <ele>130</ele>
        <time>2022-05-20T22:22:30Z</time>
      </trkpt>
      <trkpt lat="48.26322" lon="-3.99068">
        <ele>131</ele>
        <time>2022-05-20T22:22:40Z</time>
      </trkpt>
      <trkpt lat="48.26425" lon="-3.99031">
        <ele>130</ele>
        <time>2022-05-20T22:22:59Z</time>
      </trkpt>
      <trkpt lat="48.26458" lon="-3.99016">
        <ele>131</ele>
        <time>2022-05-20T22:23:05Z</time>
      </trkpt>
      <trkpt lat="48.26489" lon="-3.98996">
        <ele>132</ele>
        <time>2022-05-20T22:23:11Z</time>
      </trkpt>
      <trkpt lat="48.26534" lon="-3.98962">
        <ele>129</ele>
        <time>2022-05-20T22:23:20Z</time>
      </trkpt>
      <trkpt lat="48.26602" lon="-3.98901">
        <ele>124</ele>
        <time>2022-05-20T22:23:34Z</time>
      </trkpt>
      <trkpt lat="48.26645" lon="-3.9887">
        <ele>122</ele>
        <time>2022-05-20T22:23:42Z</time>
      </trkpt>
      <trkpt lat="48.26726" lon="-3.98828">
        <ele>122</ele>
        <time>2022-05-20T22:23:58Z</time>
      </trkpt>
      <trkpt lat="48.26789" lon="-3.98803">
        <ele>123</ele>
        <time>2022-05-20T22:24:09Z</time>
      </trkpt>
      <trkpt lat="48.26954" lon="-3.98721">
        <ele>122</ele>
        <time>2022-05-20T22:24:40Z</time>
      </trkpt>
      <trkpt lat="48.27" lon="-3.98692">
        <ele>121</ele>
        <time>2022-05-20T22:24:49Z</time>
      </trkpt>
      <trkpt lat="48.27028" lon="-3.98669">
        <ele>121</ele>
        <time>2022-05-20T22:24:55Z</time>
      </trkpt>
      <trkpt lat="48.27078" lon="-3.98618">
        <ele>123</ele>
        <time>2022-05-20T22:25:06Z</time>
      </trkpt>
      <trkpt lat="48.2714" lon="-3.98539">
        <ele>122</ele>
        <time>2022-05-20T22:25:20Z</time>
      </trkpt>
      <trkpt lat="48.27219" lon="-3.98452">
        <ele>118</ele>
        <time>2022-05-20T22:25:37Z</time>
      </trkpt>
      <trkpt lat="48.2724" lon="-3.98425">
        <ele>117</ele>
        <time>2022-05-20T22:25:42Z</time>
      </trkpt>
      <trkpt lat="48.27273" lon="-3.98372">
        <ele>111</ele>
        <time>2022-05-20T22:25:51Z</time>
      </trkpt>
      <trkpt lat="48.27341" lon="-3.98284">
        <ele>97</ele>
        <time>2022-05-20T22:26:07Z</time>
      </trkpt>
      <trkpt lat="48.27404" lon="-3.98226">
        <ele>85</ele>
        <time>2022-05-20T22:26:20Z</time>
      </trkpt>
      <trkpt lat="48.2744" lon="-3.982">
        <ele>81</ele>
        <time>2022-05-20T22:26:27Z</time>
      </trkpt>
      <trkpt lat="48.27472" lon="-3.98184">
        <ele>77</ele>
        <time>2022-05-20T22:26:33Z</time>
      </trkpt>
      <trkpt lat="48.27529" lon="-3.9815">
        <ele>69</ele>
        <time>2022-05-20T22:26:44Z</time>
      </trkpt>
      <trkpt lat="48.27564" lon="-3.98135">
        <ele>62</ele>
        <time>2022-05-20T22:26:51Z</time>
      </trkpt>
      <trkpt lat="48.27578" lon="-3.98124">
        <ele>60</ele>
        <time>2022-05-20T22:26:53Z</time>
      </trkpt>
      <trkpt lat="48.27599" lon="-3.98095">
        <ele>57</ele>
        <time>2022-05-20T22:26:58Z</time>
      </trkpt>
      <trkpt lat="48.27643" lon="-3.98004">
        <ele>52</ele>
        <time>2022-05-20T22:27:12Z</time>
      </trkpt>
      <trkpt lat="48.27659" lon="-3.97982">
        <ele>52</ele>
        <time>2022-05-20T22:27:16Z</time>
      </trkpt>
      <trkpt lat="48.27677" lon="-3.97968">
        <ele>53</ele>
        <time>2022-05-20T22:27:19Z</time>
      </trkpt>
      <trkpt lat="48.27697" lon="-3.97944">
        <ele>54</ele>
        <time>2022-05-20T22:27:24Z</time>
      </trkpt>
      <trkpt lat="48.27758" lon="-3.97791">
        <ele>56</ele>
        <time>2022-05-20T22:27:45Z</time>
      </trkpt>
      <trkpt lat="48.27764" lon="-3.97762">
        <ele>58</ele>
        <time>2022-05-20T22:27:49Z</time>
      </trkpt>
      <trkpt lat="48.2778" lon="-3.97736">
        <ele>60</ele>
        <time>2022-05-20T22:27:53Z</time>
      </trkpt>
      <trkpt lat="48.27799" lon="-3.97694">
        <ele>62</ele>
        <time>2022-05-20T22:27:59Z</time>
      </trkpt>
      <trkpt lat="48.27813" lon="-3.97671">
        <ele>64</ele>
        <time>2022-05-20T22:28:02Z</time>
      </trkpt>
      <trkpt lat="48.27818" lon="-3.97656">
        <ele>66</ele>
        <time>2022-05-20T22:28:04Z</time>
      </trkpt>
      <trkpt lat="48.27821" lon="-3.97627">
        <ele>67</ele>
        <time>2022-05-20T22:28:08Z</time>
      </trkpt>
      <trkpt lat="48.27809" lon="-3.97556">
        <ele>67</ele>
        <time>2022-05-20T22:28:17Z</time>
      </trkpt>
      <trkpt lat="48.27802" lon="-3.97545">
        <ele>67</ele>
        <time>2022-05-20T22:28:18Z</time>
      </trkpt>
      <trkpt lat="48.27776" lon="-3.97517">
        <ele>63</ele>
        <time>2022-05-20T22:28:24Z</time>
      </trkpt>
      <trkpt lat="48.27742" lon="-3.97465">
        <ele>63</ele>
        <time>2022-05-20T22:28:33Z</time>
      </trkpt>
      <trkpt lat="48.27717" lon="-3.97435">
        <ele>64</ele>
        <time>2022-05-20T22:28:38Z</time>
      </trkpt>
      <trkpt lat="48.27701" lon="-3.9742">
        <ele>64</ele>
        <time>2022-05-20T22:28:42Z</time>
      </trkpt>
      <trkpt lat="48.27685" lon="-3.974">
        <ele>65</ele>
        <time>2022-05-20T22:28:45Z</time>
      </trkpt>
      <trkpt lat="48.2766" lon="-3.97378">
        <ele>66</ele>
        <time>2022-05-20T22:28:51Z</time>
      </trkpt>
      <trkpt lat="48.27621" lon="-3.97333">
        <ele>69</ele>
        <time>2022-05-20T22:28:59Z</time>
      </trkpt>
      <trkpt lat="48.27616" lon="-3.97321">
        <ele>70</ele>
        <time>2022-05-20T22:29:01Z</time>
      </trkpt>
      <trkpt lat="48.27613" lon="-3.97294">
        <ele>71</ele>
        <time>2022-05-20T22:29:04Z</time>
      </trkpt>
      <trkpt lat="48.27626" lon="-3.97255">
        <ele>76</ele>
        <time>2022-05-20T22:29:09Z</time>
      </trkpt>
      <trkpt lat="48.27688" lon="-3.97138">
        <ele>78</ele>
        <time>2022-05-20T22:29:27Z</time>
      </trkpt>
      <trkpt lat="48.27692" lon="-3.97123">
        <ele>78</ele>
        <time>2022-05-20T22:29:29Z</time>
      </trkpt>
      <trkpt lat="48.27715" lon="-3.9707">
        <ele>80</ele>
        <time>2022-05-20T22:29:37Z</time>
      </trkpt>
      <trkpt lat="48.27743" lon="-3.96983">
        <ele>81</ele>
        <time>2022-05-20T22:29:48Z</time>
      </trkpt>
      <trkpt lat="48.2775" lon="-3.96971">
        <ele>82</ele>
        <time>2022-05-20T22:29:50Z</time>
      </trkpt>
      <trkpt lat="48.27759" lon="-3.96942">
        <ele>80</ele>
        <time>2022-05-20T22:29:54Z</time>
      </trkpt>
      <trkpt lat="48.27774" lon="-3.96917">
        <ele>81</ele>
        <time>2022-05-20T22:29:58Z</time>
      </trkpt>
      <trkpt lat="48.27788" lon="-3.96875">
        <ele>81</ele>
        <time>2022-05-20T22:30:03Z</time>
      </trkpt>
      <trkpt lat="48.27804" lon="-3.96837">
        <ele>81</ele>
        <time>2022-05-20T22:30:09Z</time>
      </trkpt>
      <trkpt lat="48.27827" lon="-3.968">
        <ele>81</ele>
        <time>2022-05-20T22:30:15Z</time>
      </trkpt>
      <trkpt lat="48.27814" lon="-3.96801">
        <ele>78</ele>
        <time>2022-05-20T22:30:17Z</time>
      </trkpt>
      <trkpt lat="48.27806" lon="-3.96814">
        <ele>79</ele>
        <time>2022-05-20T22:30:19Z</time>
      </trkpt>
      <trkpt lat="48.27784" lon="-3.9687">
        <ele>79</ele>
        <time>2022-05-20T22:30:27Z</time>
      </trkpt>
      <trkpt lat="48.27787" lon="-3.96855">
        <ele>79</ele>
        <time>2022-05-20T22:30:28Z</time>
      </trkpt>
      <trkpt lat="48.27816" lon="-3.96806">
        <ele>80</ele>
        <time>2022-05-20T22:30:36Z</time>
      </trkpt>
      <trkpt lat="48.27833" lon="-3.96788">
        <ele>80</ele>
        <time>2022-05-20T22:30:40Z</time>
      </trkpt>
      <trkpt lat="48.27854" lon="-3.96779">
        <ele>78</ele>
        <time>2022-05-20T22:30:44Z</time>
      </trkpt>
      <trkpt lat="48.27886" lon="-3.96774">
        <ele>78</ele>
        <time>2022-05-20T22:30:50Z</time>
      </trkpt>
      <trkpt lat="48.27906" lon="-3.96785">
        <ele>79</ele>
        <time>2022-05-20T22:30:53Z</time>
      </trkpt>
      <trkpt lat="48.27923" lon="-3.96801">
        <ele>81</ele>
        <time>2022-05-20T22:30:57Z</time>
      </trkpt>
      <trkpt lat="48.27929" lon="-3.96811">
        <ele>81</ele>
        <time>2022-05-20T22:30:59Z</time>
      </trkpt>
      <trkpt lat="48.27939" lon="-3.96838">
        <ele>83</ele>
        <time>2022-05-20T22:31:02Z</time>
      </trkpt>
      <trkpt lat="48.27966" lon="-3.96883">
        <ele>84</ele>
        <time>2022-05-20T22:31:09Z</time>
      </trkpt>
      <trkpt lat="48.27977" lon="-3.96895">
        <ele>84</ele>
        <time>2022-05-20T22:31:12Z</time>
      </trkpt>
      <trkpt lat="48.28005" lon="-3.96918">
        <ele>84</ele>
        <time>2022-05-20T22:31:17Z</time>
      </trkpt>
      <trkpt lat="48.28017" lon="-3.96925">
        <ele>84</ele>
        <time>2022-05-20T22:31:20Z</time>
      </trkpt>
      <trkpt lat="48.28048" lon="-3.96933">
        <ele>82</ele>
        <time>2022-05-20T22:31:25Z</time>
      </trkpt>
      <trkpt lat="48.28057" lon="-3.9692">
        <ele>78</ele>
        <time>2022-05-20T22:31:28Z</time>
      </trkpt>
      <trkpt lat="48.28067" lon="-3.96934">
        <ele>80</ele>
        <time>2022-05-20T22:31:30Z</time>
      </trkpt>
      <trkpt lat="48.28088" lon="-3.96948">
        <ele>81</ele>
        <time>2022-05-20T22:31:34Z</time>
      </trkpt>
      <trkpt lat="48.28164" lon="-3.96963">
        <ele>80</ele>
        <time>2022-05-20T22:31:48Z</time>
      </trkpt>
      <trkpt lat="48.28184" lon="-3.96973">
        <ele>81</ele>
        <time>2022-05-20T22:31:51Z</time>
      </trkpt>
      <trkpt lat="48.28238" lon="-3.96978">
        <ele>77</ele>
        <time>2022-05-20T22:32:01Z</time>
      </trkpt>
      <trkpt lat="48.28249" lon="-3.96974">
        <ele>75</ele>
        <time>2022-05-20T22:32:03Z</time>
      </trkpt>
      <trkpt lat="48.28273" lon="-3.96975">
        <ele>75</ele>
        <time>2022-05-20T22:32:07Z</time>
      </trkpt>
      <trkpt lat="48.28294" lon="-3.96973">
        <ele>75</ele>
        <time>2022-05-20T22:32:11Z</time>
      </trkpt>
      <trkpt lat="48.28333" lon="-3.96975">
        <ele>74</ele>
        <time>2022-05-20T22:32:18Z</time>
      </trkpt>
      <trkpt lat="48.28379" lon="-3.96971">
        <ele>76</ele>
        <time>2022-05-20T22:32:26Z</time>
      </trkpt>
      <trkpt lat="48.28392" lon="-3.96965">
        <ele>76</ele>
        <time>2022-05-20T22:32:29Z</time>
      </trkpt>
      <trkpt lat="48.28414" lon="-3.9695">
        <ele>74</ele>
        <time>2022-05-20T22:32:33Z</time>
      </trkpt>
      <trkpt lat="48.2845" lon="-3.96937">
        <ele>71</ele>
        <time>2022-05-20T22:32:40Z</time>
      </trkpt>
      <trkpt lat="48.28472" lon="-3.9694">
        <ele>71</ele>
        <time>2022-05-20T22:32:43Z</time>
      </trkpt>
      <trkpt lat="48.28523" lon="-3.96962">
        <ele>72</ele>
        <time>2022-05-20T22:32:53Z</time>
      </trkpt>
      <trkpt lat="48.28547" lon="-3.96968">
        <ele>71</ele>
        <time>2022-05-20T22:32:57Z</time>
      </trkpt>
      <trkpt lat="48.28586" lon="-3.96982">
        <ele>71</ele>
        <time>2022-05-20T22:33:04Z</time>
      </trkpt>
      <trkpt lat="48.28616" lon="-3.96981">
        <ele>69</ele>
        <time>2022-05-20T22:33:10Z</time>
      </trkpt>
      <trkpt lat="48.28631" lon="-3.96974">
        <ele>68</ele>
        <time>2022-05-20T22:33:13Z</time>
      </trkpt>
      <trkpt lat="48.28646" lon="-3.96963">
        <ele>67</ele>
        <time>2022-05-20T22:33:15Z</time>
      </trkpt>
      <trkpt lat="48.28669" lon="-3.96933">
        <ele>66</ele>
        <time>2022-05-20T22:33:21Z</time>
      </trkpt>
      <trkpt lat="48.28712" lon="-3.96872">
        <ele>65</ele>
        <time>2022-05-20T22:33:31Z</time>
      </trkpt>
      <trkpt lat="48.28753" lon="-3.9682">
        <ele>66</ele>
        <time>2022-05-20T22:33:41Z</time>
      </trkpt>
      <trkpt lat="48.28788" lon="-3.96767">
        <ele>71</ele>
        <time>2022-05-20T22:33:50Z</time>
      </trkpt>
      <trkpt lat="48.28811" lon="-3.96739">
        <ele>74</ele>
        <time>2022-05-20T22:33:55Z</time>
      </trkpt>
      <trkpt lat="48.2883" lon="-3.96708">
        <ele>77</ele>
        <time>2022-05-20T22:34:00Z</time>
      </trkpt>
      <trkpt lat="48.28889" lon="-3.96634">
        <ele>84</ele>
        <time>2022-05-20T22:34:14Z</time>
      </trkpt>
      <trkpt lat="48.28928" lon="-3.96563">
        <ele>87</ele>
        <time>2022-05-20T22:34:25Z</time>
      </trkpt>
      <trkpt lat="48.28946" lon="-3.96512">
        <ele>90</ele>
        <time>2022-05-20T22:34:31Z</time>
      </trkpt>
      <trkpt lat="48.28966" lon="-3.96469">
        <ele>92</ele>
        <time>2022-05-20T22:34:38Z</time>
      </trkpt>
      <trkpt lat="48.28981" lon="-3.9645">
        <ele>94</ele>
        <time>2022-05-20T22:34:41Z</time>
      </trkpt>
      <trkpt lat="48.28997" lon="-3.96433">
        <ele>96</ele>
        <time>2022-05-20T22:34:45Z</time>
      </trkpt>
      <trkpt lat="48.29014" lon="-3.96423">
        <ele>99</ele>
        <time>2022-05-20T22:34:48Z</time>
      </trkpt>
      <trkpt lat="48.29024" lon="-3.96424">
        <ele>100</ele>
        <time>2022-05-20T22:34:50Z</time>
      </trkpt>
      <trkpt lat="48.29084" lon="-3.96378">
        <ele>108</ele>
        <time>2022-05-20T22:35:02Z</time>
      </trkpt>
      <trkpt lat="48.29091" lon="-3.96367">
        <ele>108</ele>
        <time>2022-05-20T22:35:03Z</time>
      </trkpt>
      <trkpt lat="48.29138" lon="-3.96312">
        <ele>113</ele>
        <time>2022-05-20T22:35:14Z</time>
      </trkpt>
      <trkpt lat="48.29186" lon="-3.96262">
        <ele>116</ele>
        <time>2022-05-20T22:35:24Z</time>
      </trkpt>
      <trkpt lat="48.29233" lon="-3.96206">
        <ele>117</ele>
        <time>2022-05-20T22:35:35Z</time>
      </trkpt>
      <trkpt lat="48.29315" lon="-3.96131">
        <ele>115</ele>
        <time>2022-05-20T22:35:52Z</time>
      </trkpt>
      <trkpt lat="48.29332" lon="-3.96111">
        <ele>115</ele>
        <time>2022-05-20T22:35:56Z</time>
      </trkpt>
      <trkpt lat="48.2937" lon="-3.96041">
        <ele>114</ele>
        <time>2022-05-20T22:36:07Z</time>
      </trkpt>
      <trkpt lat="48.29379" lon="-3.96012">
        <ele>113</ele>
        <time>2022-05-20T22:36:11Z</time>
      </trkpt>
      <trkpt lat="48.2939" lon="-3.95906">
        <ele>108</ele>
        <time>2022-05-20T22:36:23Z</time>
      </trkpt>
      <trkpt lat="48.29394" lon="-3.95884">
        <ele>106</ele>
        <time>2022-05-20T22:36:26Z</time>
      </trkpt>
      <trkpt lat="48.29401" lon="-3.95863">
        <ele>106</ele>
        <time>2022-05-20T22:36:29Z</time>
      </trkpt>
      <trkpt lat="48.29421" lon="-3.95823">
        <ele>104</ele>
        <time>2022-05-20T22:36:35Z</time>
      </trkpt>
      <trkpt lat="48.29449" lon="-3.95789">
        <ele>100</ele>
        <time>2022-05-20T22:36:41Z</time>
      </trkpt>
      <trkpt lat="48.29458" lon="-3.95783">
        <ele>100</ele>
        <time>2022-05-20T22:36:43Z</time>
      </trkpt>
      <trkpt lat="48.29496" lon="-3.95767">
        <ele>98</ele>
        <time>2022-05-20T22:36:50Z</time>
      </trkpt>
      <trkpt lat="48.29515" lon="-3.95763">
        <ele>96</ele>
        <time>2022-05-20T22:36:53Z</time>
      </trkpt>
      <trkpt lat="48.29535" lon="-3.95762">
        <ele>95</ele>
        <time>2022-05-20T22:36:57Z</time>
      </trkpt>
      <trkpt lat="48.29595" lon="-3.95777">
        <ele>92</ele>
        <time>2022-05-20T22:37:08Z</time>
      </trkpt>
      <trkpt lat="48.29625" lon="-3.9579">
        <ele>91</ele>
        <time>2022-05-20T22:37:13Z</time>
      </trkpt>
      <trkpt lat="48.29662" lon="-3.95811">
        <ele>89</ele>
        <time>2022-05-20T22:37:20Z</time>
      </trkpt>
      <trkpt lat="48.2968" lon="-3.95812">
        <ele>89</ele>
        <time>2022-05-20T22:37:23Z</time>
      </trkpt>
      <trkpt lat="48.29732" lon="-3.95788">
        <ele>86</ele>
        <time>2022-05-20T22:37:33Z</time>
      </trkpt>
      <trkpt lat="48.29762" lon="-3.95781">
        <ele>87</ele>
        <time>2022-05-20T22:37:39Z</time>
      </trkpt>
      <trkpt lat="48.2978" lon="-3.95781">
        <ele>88</ele>
        <time>2022-05-20T22:37:42Z</time>
      </trkpt>
      <trkpt lat="48.29813" lon="-3.95789">
        <ele>90</ele>
        <time>2022-05-20T22:37:48Z</time>
      </trkpt>
      <trkpt lat="48.29858" lon="-3.95811">
        <ele>91</ele>
        <time>2022-05-20T22:37:56Z</time>
      </trkpt>
      <trkpt lat="48.29868" lon="-3.95818">
        <ele>91</ele>
        <time>2022-05-20T22:37:58Z</time>
      </trkpt>
      <trkpt lat="48.29899" lon="-3.9583">
        <ele>92</ele>
        <time>2022-05-20T22:38:04Z</time>
      </trkpt>
      <trkpt lat="48.29919" lon="-3.95841">
        <ele>94</ele>
        <time>2022-05-20T22:38:08Z</time>
      </trkpt>
      <trkpt lat="48.29938" lon="-3.95847">
        <ele>95</ele>
        <time>2022-05-20T22:38:11Z</time>
      </trkpt>
      <trkpt lat="48.29967" lon="-3.95853">
        <ele>98</ele>
        <time>2022-05-20T22:38:16Z</time>
      </trkpt>
      <trkpt lat="48.29986" lon="-3.9585">
        <ele>99</ele>
        <time>2022-05-20T22:38:20Z</time>
      </trkpt>
      <trkpt lat="48.30006" lon="-3.95851">
        <ele>100</ele>
        <time>2022-05-20T22:38:23Z</time>
      </trkpt>
      <trkpt lat="48.30043" lon="-3.95864">
        <ele>99</ele>
        <time>2022-05-20T22:38:30Z</time>
      </trkpt>
      <trkpt lat="48.30052" lon="-3.95863">
        <ele>100</ele>
        <time>2022-05-20T22:38:32Z</time>
      </trkpt>
      <trkpt lat="48.30029" lon="-3.95849">
        <ele>100</ele>
        <time>2022-05-20T22:38:36Z</time>
      </trkpt>
      <trkpt lat="48.30006" lon="-3.95844">
        <ele>100</ele>
        <time>2022-05-20T22:38:40Z</time>
      </trkpt>
      <trkpt lat="48.29958" lon="-3.95843">
        <ele>97</ele>
        <time>2022-05-20T22:38:49Z</time>
      </trkpt>
      <trkpt lat="48.29924" lon="-3.95838">
        <ele>94</ele>
        <time>2022-05-20T22:38:55Z</time>
      </trkpt>
      <trkpt lat="48.29897" lon="-3.95829">
        <ele>92</ele>
        <time>2022-05-20T22:39:00Z</time>
      </trkpt>
      <trkpt lat="48.29888" lon="-3.95822">
        <ele>92</ele>
        <time>2022-05-20T22:39:01Z</time>
      </trkpt>
      <trkpt lat="48.29898" lon="-3.95821">
        <ele>93</ele>
        <time>2022-05-20T22:39:03Z</time>
      </trkpt>
      <trkpt lat="48.29907" lon="-3.95826">
        <ele>93</ele>
        <time>2022-05-20T22:39:05Z</time>
      </trkpt>
      <trkpt lat="48.29917" lon="-3.95826">
        <ele>94</ele>
        <time>2022-05-20T22:39:07Z</time>
      </trkpt>
      <trkpt lat="48.29926" lon="-3.95822">
        <ele>95</ele>
        <time>2022-05-20T22:39:08Z</time>
      </trkpt>
      <trkpt lat="48.29947" lon="-3.95796">
        <ele>99</ele>
        <time>2022-05-20T22:39:13Z</time>
      </trkpt>
      <trkpt lat="48.2997" lon="-3.9578">
        <ele>104</ele>
        <time>2022-05-20T22:39:18Z</time>
      </trkpt>
      <trkpt lat="48.30024" lon="-3.95719">
        <ele>117</ele>
        <time>2022-05-20T22:39:30Z</time>
      </trkpt>
      <trkpt lat="48.30022" lon="-3.95678">
        <ele>120</ele>
        <time>2022-05-20T22:39:35Z</time>
      </trkpt>
      <trkpt lat="48.30027" lon="-3.95666">
        <ele>122</ele>
        <time>2022-05-20T22:39:36Z</time>
      </trkpt>
      <trkpt lat="48.30053" lon="-3.95642">
        <ele>125</ele>
        <time>2022-05-20T22:39:42Z</time>
      </trkpt>
      <trkpt lat="48.30061" lon="-3.95649">
        <ele>126</ele>
        <time>2022-05-20T22:39:43Z</time>
      </trkpt>
      <trkpt lat="48.30071" lon="-3.95649">
        <ele>127</ele>
        <time>2022-05-20T22:39:45Z</time>
      </trkpt>
      <trkpt lat="48.30079" lon="-3.95657">
        <ele>128</ele>
        <time>2022-05-20T22:39:47Z</time>
      </trkpt>
      <trkpt lat="48.30097" lon="-3.95638">
        <ele>129</ele>
        <time>2022-05-20T22:39:51Z</time>
      </trkpt>
      <trkpt lat="48.30106" lon="-3.95633">
        <ele>129</ele>
        <time>2022-05-20T22:39:52Z</time>
      </trkpt>
      <trkpt lat="48.30121" lon="-3.95615">
        <ele>130</ele>
        <time>2022-05-20T22:39:56Z</time>
      </trkpt>
      <trkpt lat="48.30145" lon="-3.95569">
        <ele>131</ele>
        <time>2022-05-20T22:40:03Z</time>
      </trkpt>
      <trkpt lat="48.30153" lon="-3.95564">
        <ele>131</ele>
        <time>2022-05-20T22:40:04Z</time>
      </trkpt>
      <trkpt lat="48.30157" lon="-3.95577">
        <ele>131</ele>
        <time>2022-05-20T22:40:06Z</time>
      </trkpt>
      <trkpt lat="48.30172" lon="-3.95593">
        <ele>132</ele>
        <time>2022-05-20T22:40:09Z</time>
      </trkpt>
      <trkpt lat="48.30202" lon="-3.95601">
        <ele>133</ele>
        <time>2022-05-20T22:40:15Z</time>
      </trkpt>
      <trkpt lat="48.30212" lon="-3.95598">
        <ele>133</ele>
        <time>2022-05-20T22:40:17Z</time>
      </trkpt>
      <trkpt lat="48.3023" lon="-3.95604">
        <ele>134</ele>
        <time>2022-05-20T22:40:20Z</time>
      </trkpt>
      <trkpt lat="48.30261" lon="-3.95592">
        <ele>134</ele>
        <time>2022-05-20T22:40:26Z</time>
      </trkpt>
      <trkpt lat="48.3027" lon="-3.95592">
        <ele>134</ele>
        <time>2022-05-20T22:40:27Z</time>
      </trkpt>
      <trkpt lat="48.30279" lon="-3.95587">
        <ele>134</ele>
        <time>2022-05-20T22:40:29Z</time>
      </trkpt>
      <trkpt lat="48.30297" lon="-3.9557">
        <ele>134</ele>
        <time>2022-05-20T22:40:33Z</time>
      </trkpt>
      <trkpt lat="48.30308" lon="-3.9557">
        <ele>134</ele>
        <time>2022-05-20T22:40:35Z</time>
      </trkpt>
      <trkpt lat="48.30313" lon="-3.95559">
        <ele>134</ele>
        <time>2022-05-20T22:40:36Z</time>
      </trkpt>
      <trkpt lat="48.30321" lon="-3.9555">
        <ele>134</ele>
        <time>2022-05-20T22:40:38Z</time>
      </trkpt>
      <trkpt lat="48.30331" lon="-3.95547">
        <ele>134</ele>
        <time>2022-05-20T22:40:40Z</time>
      </trkpt>
      <trkpt lat="48.30336" lon="-3.95559">
        <ele>134</ele>
        <time>2022-05-20T22:40:41Z</time>
      </trkpt>
      <trkpt lat="48.30326" lon="-3.95554">
        <ele>134</ele>
        <time>2022-05-20T22:40:43Z</time>
      </trkpt>
      <trkpt lat="48.30233" lon="-3.95605">
        <ele>134</ele>
        <time>2022-05-20T22:41:01Z</time>
      </trkpt>
      <trkpt lat="48.30214" lon="-3.95595">
        <ele>133</ele>
        <time>2022-05-20T22:41:04Z</time>
      </trkpt>
      <trkpt lat="48.30205" lon="-3.9557">
        <ele>132</ele>
        <time>2022-05-20T22:41:08Z</time>
      </trkpt>
      <trkpt lat="48.3021" lon="-3.95555">
        <ele>132</ele>
        <time>2022-05-20T22:41:10Z</time>
      </trkpt>
      <trkpt lat="48.3022" lon="-3.95541">
        <ele>131</ele>
        <time>2022-05-20T22:41:12Z</time>
      </trkpt>
      <trkpt lat="48.30245" lon="-3.95492">
        <ele>130</ele>
        <time>2022-05-20T22:41:20Z</time>
      </trkpt>
      <trkpt lat="48.30267" lon="-3.9544">
        <ele>129</ele>
        <time>2022-05-20T22:41:27Z</time>
      </trkpt>
      <trkpt lat="48.30274" lon="-3.95417">
        <ele>129</ele>
        <time>2022-05-20T22:41:30Z</time>
      </trkpt>
      <trkpt lat="48.30279" lon="-3.95395">
        <ele>129</ele>
        <time>2022-05-20T22:41:33Z</time>
      </trkpt>
      <trkpt lat="48.30279" lon="-3.95349">
        <ele>129</ele>
        <time>2022-05-20T22:41:38Z</time>
      </trkpt>
      <trkpt lat="48.30284" lon="-3.95319">
        <ele>129</ele>
        <time>2022-05-20T22:41:42Z</time>
      </trkpt>
      <trkpt lat="48.30284" lon="-3.95285">
        <ele>128</ele>
        <time>2022-05-20T22:41:46Z</time>
      </trkpt>
      <trkpt lat="48.30298" lon="-3.95187">
        <ele>128</ele>
        <time>2022-05-20T22:41:58Z</time>
      </trkpt>
      <trkpt lat="48.3031" lon="-3.9514">
        <ele>126</ele>
        <time>2022-05-20T22:42:04Z</time>
      </trkpt>
      <trkpt lat="48.30353" lon="-3.9502">
        <ele>121</ele>
        <time>2022-05-20T22:42:20Z</time>
      </trkpt>
      <trkpt lat="48.3036" lon="-3.94977">
        <ele>118</ele>
        <time>2022-05-20T22:42:25Z</time>
      </trkpt>
      <trkpt lat="48.30368" lon="-3.94902">
        <ele>112</ele>
        <time>2022-05-20T22:42:34Z</time>
      </trkpt>
      <trkpt lat="48.30403" lon="-3.94757">
        <ele>102</ele>
        <time>2022-05-20T22:42:52Z</time>
      </trkpt>
      <trkpt lat="48.3043" lon="-3.94688">
        <ele>100</ele>
        <time>2022-05-20T22:43:02Z</time>
      </trkpt>
      <trkpt lat="48.30501" lon="-3.9456">
        <ele>96</ele>
        <time>2022-05-20T22:43:21Z</time>
      </trkpt>
      <trkpt lat="48.30509" lon="-3.94532">
        <ele>95</ele>
        <time>2022-05-20T22:43:25Z</time>
      </trkpt>
      <trkpt lat="48.30511" lon="-3.94502">
        <ele>94</ele>
        <time>2022-05-20T22:43:29Z</time>
      </trkpt>
      <trkpt lat="48.30498" lon="-3.94469">
        <ele>95</ele>
        <time>2022-05-20T22:43:33Z</time>
      </trkpt>
      <trkpt lat="48.30488" lon="-3.94457">
        <ele>96</ele>
        <time>2022-05-20T22:43:35Z</time>
      </trkpt>
      <trkpt lat="48.30469" lon="-3.94442">
        <ele>97</ele>
        <time>2022-05-20T22:43:39Z</time>
      </trkpt>
      <trkpt lat="48.30432" lon="-3.94419">
        <ele>99</ele>
        <time>2022-05-20T22:43:46Z</time>
      </trkpt>
      <trkpt lat="48.30415" lon="-3.94404">
        <ele>99</ele>
        <time>2022-05-20T22:43:50Z</time>
      </trkpt>
      <trkpt lat="48.30408" lon="-3.94392">
        <ele>99</ele>
        <time>2022-05-20T22:43:52Z</time>
      </trkpt>
      <trkpt lat="48.30389" lon="-3.94375">
        <ele>100</ele>
        <time>2022-05-20T22:43:56Z</time>
      </trkpt>
      <trkpt lat="48.30348" lon="-3.94353">
        <ele>100</ele>
        <time>2022-05-20T22:44:03Z</time>
      </trkpt>
      <trkpt lat="48.30339" lon="-3.94351">
        <ele>100</ele>
        <time>2022-05-20T22:44:05Z</time>
      </trkpt>
      <trkpt lat="48.3033" lon="-3.94344">
        <ele>100</ele>
        <time>2022-05-20T22:44:07Z</time>
      </trkpt>
      <trkpt lat="48.30328" lon="-3.9433">
        <ele>101</ele>
        <time>2022-05-20T22:44:08Z</time>
      </trkpt>
      <trkpt lat="48.30356" lon="-3.94221">
        <ele>102</ele>
        <time>2022-05-20T22:44:22Z</time>
      </trkpt>
      <trkpt lat="48.30364" lon="-3.9418">
        <ele>101</ele>
        <time>2022-05-20T22:44:27Z</time>
      </trkpt>
      <trkpt lat="48.30364" lon="-3.94155">
        <ele>100</ele>
        <time>2022-05-20T22:44:30Z</time>
      </trkpt>
      <trkpt lat="48.30357" lon="-3.94129">
        <ele>101</ele>
        <time>2022-05-20T22:44:34Z</time>
      </trkpt>
      <trkpt lat="48.3033" lon="-3.94082">
        <ele>101</ele>
        <time>2022-05-20T22:44:41Z</time>
      </trkpt>
      <trkpt lat="48.30318" lon="-3.94006">
        <ele>100</ele>
        <time>2022-05-20T22:44:50Z</time>
      </trkpt>
      <trkpt lat="48.30299" lon="-3.93831">
        <ele>100</ele>
        <time>2022-05-20T22:45:11Z</time>
      </trkpt>
      <trkpt lat="48.30296" lon="-3.93634">
        <ele>96</ele>
        <time>2022-05-20T22:45:35Z</time>
      </trkpt>
      <trkpt lat="48.30306" lon="-3.93516">
        <ele>93</ele>
        <time>2022-05-20T22:45:49Z</time>
      </trkpt>
      <trkpt lat="48.30315" lon="-3.93442">
        <ele>91</ele>
        <time>2022-05-20T22:45:58Z</time>
      </trkpt>
      <trkpt lat="48.30327" lon="-3.93395">
        <ele>89</ele>
        <time>2022-05-20T22:46:04Z</time>
      </trkpt>
      <trkpt lat="48.30363" lon="-3.93295">
        <ele>89</ele>
        <time>2022-05-20T22:46:17Z</time>
      </trkpt>
      <trkpt lat="48.30374" lon="-3.93245">
        <ele>88</ele>
        <time>2022-05-20T22:46:23Z</time>
      </trkpt>
      <trkpt lat="48.30375" lon="-3.932">
        <ele>88</ele>
        <time>2022-05-20T22:46:29Z</time>
      </trkpt>
      <trkpt lat="48.30368" lon="-3.93153">
        <ele>87</ele>
        <time>2022-05-20T22:46:34Z</time>
      </trkpt>
      <trkpt lat="48.30361" lon="-3.93127">
        <ele>87</ele>
        <time>2022-05-20T22:46:38Z</time>
      </trkpt>
      <trkpt lat="48.30339" lon="-3.93077">
        <ele>87</ele>
        <time>2022-05-20T22:46:45Z</time>
      </trkpt>
      <trkpt lat="48.30292" lon="-3.92999">
        <ele>89</ele>
        <time>2022-05-20T22:46:57Z</time>
      </trkpt>
      <trkpt lat="48.30257" lon="-3.92924">
        <ele>92</ele>
        <time>2022-05-20T22:47:08Z</time>
      </trkpt>
      <trkpt lat="48.30248" lon="-3.92891">
        <ele>94</ele>
        <time>2022-05-20T22:47:12Z</time>
      </trkpt>
      <trkpt lat="48.30245" lon="-3.92818">
        <ele>96</ele>
        <time>2022-05-20T22:47:21Z</time>
      </trkpt>
      <trkpt lat="48.30231" lon="-3.92705">
        <ele>99</ele>
        <time>2022-05-20T22:47:34Z</time>
      </trkpt>
      <trkpt lat="48.3021" lon="-3.92638">
        <ele>103</ele>
        <time>2022-05-20T22:47:43Z</time>
      </trkpt>
      <trkpt lat="48.30197" lon="-3.92615">
        <ele>104</ele>
        <time>2022-05-20T22:47:47Z</time>
      </trkpt>
      <trkpt lat="48.30194" lon="-3.92601">
        <ele>105</ele>
        <time>2022-05-20T22:47:49Z</time>
      </trkpt>
      <trkpt lat="48.30187" lon="-3.92588">
        <ele>105</ele>
        <time>2022-05-20T22:47:50Z</time>
      </trkpt>
      <trkpt lat="48.30183" lon="-3.9256">
        <ele>106</ele>
        <time>2022-05-20T22:47:54Z</time>
      </trkpt>
      <trkpt lat="48.30195" lon="-3.92517">
        <ele>108</ele>
        <time>2022-05-20T22:47:59Z</time>
      </trkpt>
      <trkpt lat="48.30237" lon="-3.924">
        <ele>108</ele>
        <time>2022-05-20T22:48:15Z</time>
      </trkpt>
      <trkpt lat="48.30272" lon="-3.92254">
        <ele>105</ele>
        <time>2022-05-20T22:48:33Z</time>
      </trkpt>
      <trkpt lat="48.30281" lon="-3.92226">
        <ele>105</ele>
        <time>2022-05-20T22:48:37Z</time>
      </trkpt>
      <trkpt lat="48.30283" lon="-3.92209">
        <ele>105</ele>
        <time>2022-05-20T22:48:39Z</time>
      </trkpt>
      <trkpt lat="48.30298" lon="-3.92149">
        <ele>104</ele>
        <time>2022-05-20T22:48:47Z</time>
      </trkpt>
      <trkpt lat="48.30342" lon="-3.91986">
        <ele>107</ele>
        <time>2022-05-20T22:49:08Z</time>
      </trkpt>
      <trkpt lat="48.30365" lon="-3.9194">
        <ele>110</ele>
        <time>2022-05-20T22:49:14Z</time>
      </trkpt>
      <trkpt lat="48.30388" lon="-3.91913">
        <ele>111</ele>
        <time>2022-05-20T22:49:20Z</time>
      </trkpt>
      <trkpt lat="48.30431" lon="-3.91851">
        <ele>114</ele>
        <time>2022-05-20T22:49:30Z</time>
      </trkpt>
      <trkpt lat="48.30487" lon="-3.91745">
        <ele>115</ele>
        <time>2022-05-20T22:49:46Z</time>
      </trkpt>
      <trkpt lat="48.30496" lon="-3.91704">
        <ele>118</ele>
        <time>2022-05-20T22:49:51Z</time>
      </trkpt>
      <trkpt lat="48.30499" lon="-3.91671">
        <ele>121</ele>
        <time>2022-05-20T22:49:55Z</time>
      </trkpt>
      <trkpt lat="48.30492" lon="-3.91624">
        <ele>119</ele>
        <time>2022-05-20T22:50:01Z</time>
      </trkpt>
      <trkpt lat="48.30495" lon="-3.91567">
        <ele>116</ele>
        <time>2022-05-20T22:50:08Z</time>
      </trkpt>
      <trkpt lat="48.30503" lon="-3.91533">
        <ele>115</ele>
        <time>2022-05-20T22:50:12Z</time>
      </trkpt>
      <trkpt lat="48.3052" lon="-3.91493">
        <ele>116</ele>
        <time>2022-05-20T22:50:18Z</time>
      </trkpt>
      <trkpt lat="48.30524" lon="-3.91478">
        <ele>116</ele>
        <time>2022-05-20T22:50:20Z</time>
      </trkpt>
      <trkpt lat="48.30548" lon="-3.91437">
        <ele>117</ele>
        <time>2022-05-20T22:50:26Z</time>
      </trkpt>
      <trkpt lat="48.3056" lon="-3.91411">
        <ele>117</ele>
        <time>2022-05-20T22:50:30Z</time>
      </trkpt>
      <trkpt lat="48.30626" lon="-3.9129">
        <ele>124</ele>
        <time>2022-05-20T22:50:48Z</time>
      </trkpt>
      <trkpt lat="48.30653" lon="-3.91222">
        <ele>127</ele>
        <time>2022-05-20T22:50:58Z</time>
      </trkpt>
      <trkpt lat="48.30666" lon="-3.91181">
        <ele>128</ele>
        <time>2022-05-20T22:51:03Z</time>
      </trkpt>
      <trkpt lat="48.30734" lon="-3.9103">
        <ele>131</ele>
        <time>2022-05-20T22:51:25Z</time>
      </trkpt>
      <trkpt lat="48.30739" lon="-3.91014">
        <ele>130</ele>
        <time>2022-05-20T22:51:27Z</time>
      </trkpt>
      <trkpt lat="48.3078" lon="-3.90921">
        <ele>131</ele>
        <time>2022-05-20T22:51:40Z</time>
      </trkpt>
      <trkpt lat="48.30798" lon="-3.90869">
        <ele>132</ele>
        <time>2022-05-20T22:51:47Z</time>
      </trkpt>
      <trkpt lat="48.30816" lon="-3.90834">
        <ele>133</ele>
        <time>2022-05-20T22:51:52Z</time>
      </trkpt>
      <trkpt lat="48.30838" lon="-3.90778">
        <ele>135</ele>
        <time>2022-05-20T22:52:00Z</time>
      </trkpt>
      <trkpt lat="48.3085" lon="-3.90753">
        <ele>136</ele>
        <time>2022-05-20T22:52:03Z</time>
      </trkpt>
      <trkpt lat="48.30857" lon="-3.90744">
        <ele>136</ele>
        <time>2022-05-20T22:52:05Z</time>
      </trkpt>
      <trkpt lat="48.30871" lon="-3.90705">
        <ele>136</ele>
        <time>2022-05-20T22:52:10Z</time>
      </trkpt>
      <trkpt lat="48.30878" lon="-3.90692">
        <ele>137</ele>
        <time>2022-05-20T22:52:12Z</time>
      </trkpt>
      <trkpt lat="48.3089" lon="-3.90647">
        <ele>138</ele>
        <time>2022-05-20T22:52:18Z</time>
      </trkpt>
      <trkpt lat="48.30911" lon="-3.90599">
        <ele>140</ele>
        <time>2022-05-20T22:52:25Z</time>
      </trkpt>
      <trkpt lat="48.30961" lon="-3.90529">
        <ele>147</ele>
        <time>2022-05-20T22:52:37Z</time>
      </trkpt>
      <trkpt lat="48.30979" lon="-3.90497">
        <ele>151</ele>
        <time>2022-05-20T22:52:42Z</time>
      </trkpt>
      <trkpt lat="48.30983" lon="-3.90484">
        <ele>152</ele>
        <time>2022-05-20T22:52:44Z</time>
      </trkpt>
      <trkpt lat="48.30994" lon="-3.90411">
        <ele>156</ele>
        <time>2022-05-20T22:52:53Z</time>
      </trkpt>
      <trkpt lat="48.31017" lon="-3.90333">
        <ele>159</ele>
        <time>2022-05-20T22:53:03Z</time>
      </trkpt>
      <trkpt lat="48.31018" lon="-3.90317">
        <ele>159</ele>
        <time>2022-05-20T22:53:05Z</time>
      </trkpt>
      <trkpt lat="48.31005" lon="-3.90278">
        <ele>156</ele>
        <time>2022-05-20T22:53:10Z</time>
      </trkpt>
      <trkpt lat="48.30987" lon="-3.90246">
        <ele>153</ele>
        <time>2022-05-20T22:53:15Z</time>
      </trkpt>
      <trkpt lat="48.30933" lon="-3.90132">
        <ele>142</ele>
        <time>2022-05-20T22:53:31Z</time>
      </trkpt>
      <trkpt lat="48.30922" lon="-3.90104">
        <ele>141</ele>
        <time>2022-05-20T22:53:35Z</time>
      </trkpt>
      <trkpt lat="48.30902" lon="-3.90029">
        <ele>135</ele>
        <time>2022-05-20T22:53:45Z</time>
      </trkpt>
      <trkpt lat="48.30899" lon="-3.89996">
        <ele>133</ele>
        <time>2022-05-20T22:53:49Z</time>
      </trkpt>
      <trkpt lat="48.309" lon="-3.89943">
        <ele>130</ele>
        <time>2022-05-20T22:53:55Z</time>
      </trkpt>
      <trkpt lat="48.30907" lon="-3.89891">
        <ele>128</ele>
        <time>2022-05-20T22:54:01Z</time>
      </trkpt>
      <trkpt lat="48.30935" lon="-3.89755">
        <ele>121</ele>
        <time>2022-05-20T22:54:18Z</time>
      </trkpt>
      <trkpt lat="48.30955" lon="-3.89686">
        <ele>118</ele>
        <time>2022-05-20T22:54:27Z</time>
      </trkpt>
      <trkpt lat="48.30972" lon="-3.89643">
        <ele>118</ele>
        <time>2022-05-20T22:54:33Z</time>
      </trkpt>
      <trkpt lat="48.31056" lon="-3.8948">
        <ele>122</ele>
        <time>2022-05-20T22:54:57Z</time>
      </trkpt>
      <trkpt lat="48.31064" lon="-3.8947">
        <ele>123</ele>
        <time>2022-05-20T22:54:59Z</time>
      </trkpt>
      <trkpt lat="48.31069" lon="-3.89455">
        <ele>123</ele>
        <time>2022-05-20T22:55:01Z</time>
      </trkpt>
      <trkpt lat="48.31094" lon="-3.89409">
        <ele>123</ele>
        <time>2022-05-20T22:55:08Z</time>
      </trkpt>
      <trkpt lat="48.31125" lon="-3.89327">
        <ele>123</ele>
        <time>2022-05-20T22:55:19Z</time>
      </trkpt>
      <trkpt lat="48.31196" lon="-3.89169">
        <ele>123</ele>
        <time>2022-05-20T22:55:42Z</time>
      </trkpt>
      <trkpt lat="48.31204" lon="-3.89142">
        <ele>123</ele>
        <time>2022-05-20T22:55:45Z</time>
      </trkpt>
      <trkpt lat="48.31242" lon="-3.89073">
        <ele>122</ele>
        <time>2022-05-20T22:55:56Z</time>
      </trkpt>
      <trkpt lat="48.31294" lon="-3.88966">
        <ele>128</ele>
        <time>2022-05-20T22:56:12Z</time>
      </trkpt>
      <trkpt lat="48.31313" lon="-3.88934">
        <ele>130</ele>
        <time>2022-05-20T22:56:17Z</time>
      </trkpt>
      <trkpt lat="48.3133" lon="-3.88897">
        <ele>133</ele>
        <time>2022-05-20T22:56:22Z</time>
      </trkpt>
      <trkpt lat="48.31349" lon="-3.88846">
        <ele>136</ele>
        <time>2022-05-20T22:56:29Z</time>
      </trkpt>
      <trkpt lat="48.31357" lon="-3.88788">
        <ele>139</ele>
        <time>2022-05-20T22:56:36Z</time>
      </trkpt>
      <trkpt lat="48.31366" lon="-3.88655">
        <ele>144</ele>
        <time>2022-05-20T22:56:52Z</time>
      </trkpt>
      <trkpt lat="48.31387" lon="-3.88543">
        <ele>149</ele>
        <time>2022-05-20T22:57:05Z</time>
      </trkpt>
      <trkpt lat="48.31404" lon="-3.8849">
        <ele>154</ele>
        <time>2022-05-20T22:57:12Z</time>
      </trkpt>
      <trkpt lat="48.31418" lon="-3.88435">
        <ele>160</ele>
        <time>2022-05-20T22:57:19Z</time>
      </trkpt>
      <trkpt lat="48.31429" lon="-3.88286">
        <ele>164</ele>
        <time>2022-05-20T22:57:37Z</time>
      </trkpt>
      <trkpt lat="48.31427" lon="-3.88222">
        <ele>165</ele>
        <time>2022-05-20T22:57:45Z</time>
      </trkpt>
      <trkpt lat="48.31419" lon="-3.88142">
        <ele>167</ele>
        <time>2022-05-20T22:57:54Z</time>
      </trkpt>
      <trkpt lat="48.31412" lon="-3.88035">
        <ele>167</ele>
        <time>2022-05-20T22:58:07Z</time>
      </trkpt>
      <trkpt lat="48.31416" lon="-3.87888">
        <ele>167</ele>
        <time>2022-05-20T22:58:24Z</time>
      </trkpt>
      <trkpt lat="48.3141" lon="-3.87841">
        <ele>166</ele>
        <time>2022-05-20T22:58:30Z</time>
      </trkpt>
      <trkpt lat="48.3141" lon="-3.87765">
        <ele>167</ele>
        <time>2022-05-20T22:58:39Z</time>
      </trkpt>
      <trkpt lat="48.31404" lon="-3.87666">
        <ele>164</ele>
        <time>2022-05-20T22:58:51Z</time>
      </trkpt>
      <trkpt lat="48.31405" lon="-3.87549">
        <ele>162</ele>
        <time>2022-05-20T22:59:05Z</time>
      </trkpt>
      <trkpt lat="48.31423" lon="-3.87257">
        <ele>155</ele>
        <time>2022-05-20T22:59:39Z</time>
      </trkpt>
      <trkpt lat="48.31425" lon="-3.87166">
        <ele>159</ele>
        <time>2022-05-20T22:59:50Z</time>
      </trkpt>
      <trkpt lat="48.31437" lon="-3.87064">
        <ele>165</ele>
        <time>2022-05-20T23:00:02Z</time>
      </trkpt>
      <trkpt lat="48.31443" lon="-3.87036">
        <ele>168</ele>
        <time>2022-05-20T23:00:06Z</time>
      </trkpt>
      <trkpt lat="48.31444" lon="-3.86993">
        <ele>171</ele>
        <time>2022-05-20T23:00:11Z</time>
      </trkpt>
      <trkpt lat="48.3145" lon="-3.86951">
        <ele>173</ele>
        <time>2022-05-20T23:00:16Z</time>
      </trkpt>
      <trkpt lat="48.3145" lon="-3.86936">
        <ele>174</ele>
        <time>2022-05-20T23:00:18Z</time>
      </trkpt>
      <trkpt lat="48.31461" lon="-3.86865">
        <ele>179</ele>
        <time>2022-05-20T23:00:26Z</time>
      </trkpt>
      <trkpt lat="48.31467" lon="-3.86777">
        <ele>181</ele>
        <time>2022-05-20T23:00:37Z</time>
      </trkpt>
      <trkpt lat="48.31472" lon="-3.86748">
        <ele>182</ele>
        <time>2022-05-20T23:00:40Z</time>
      </trkpt>
      <trkpt lat="48.31474" lon="-3.86716">
        <ele>182</ele>
        <time>2022-05-20T23:00:44Z</time>
      </trkpt>
      <trkpt lat="48.3147" lon="-3.86672">
        <ele>182</ele>
        <time>2022-05-20T23:00:50Z</time>
      </trkpt>
      <trkpt lat="48.3147" lon="-3.8657">
        <ele>182</ele>
        <time>2022-05-20T23:01:02Z</time>
      </trkpt>
      <trkpt lat="48.31472" lon="-3.86546">
        <ele>182</ele>
        <time>2022-05-20T23:01:04Z</time>
      </trkpt>
      <trkpt lat="48.31529" lon="-3.86491">
        <ele>187</ele>
        <time>2022-05-20T23:01:17Z</time>
      </trkpt>
      <trkpt lat="48.31582" lon="-3.86449">
        <ele>194</ele>
        <time>2022-05-20T23:01:27Z</time>
      </trkpt>
      <trkpt lat="48.3159" lon="-3.8644">
        <ele>195</ele>
        <time>2022-05-20T23:01:29Z</time>
      </trkpt>
      <trkpt lat="48.31659" lon="-3.86382">
        <ele>202</ele>
        <time>2022-05-20T23:01:43Z</time>
      </trkpt>
      <trkpt lat="48.31703" lon="-3.86329">
        <ele>206</ele>
        <time>2022-05-20T23:01:53Z</time>
      </trkpt>
      <trkpt lat="48.31753" lon="-3.86256">
        <ele>206</ele>
        <time>2022-05-20T23:02:05Z</time>
      </trkpt>
      <trkpt lat="48.3182" lon="-3.86172">
        <ele>213</ele>
        <time>2022-05-20T23:02:21Z</time>
      </trkpt>
      <trkpt lat="48.31825" lon="-3.8616">
        <ele>213</ele>
        <time>2022-05-20T23:02:23Z</time>
      </trkpt>
      <trkpt lat="48.31833" lon="-3.86153">
        <ele>214</ele>
        <time>2022-05-20T23:02:24Z</time>
      </trkpt>
      <trkpt lat="48.31872" lon="-3.86088">
        <ele>218</ele>
        <time>2022-05-20T23:02:35Z</time>
      </trkpt>
      <trkpt lat="48.31895" lon="-3.86038">
        <ele>221</ele>
        <time>2022-05-20T23:02:42Z</time>
      </trkpt>
      <trkpt lat="48.31914" lon="-3.86007">
        <ele>223</ele>
        <time>2022-05-20T23:02:47Z</time>
      </trkpt>
      <trkpt lat="48.31954" lon="-3.85925">
        <ele>227</ele>
        <time>2022-05-20T23:02:59Z</time>
      </trkpt>
      <trkpt lat="48.31962" lon="-3.85916">
        <ele>228</ele>
        <time>2022-05-20T23:03:01Z</time>
      </trkpt>
      <trkpt lat="48.31974" lon="-3.85893">
        <ele>229</ele>
        <time>2022-05-20T23:03:04Z</time>
      </trkpt>
      <trkpt lat="48.31983" lon="-3.8582">
        <ele>230</ele>
        <time>2022-05-20T23:03:13Z</time>
      </trkpt>
      <trkpt lat="48.31991" lon="-3.85793">
        <ele>232</ele>
        <time>2022-05-20T23:03:16Z</time>
      </trkpt>
      <trkpt lat="48.31999" lon="-3.85751">
        <ele>234</ele>
        <time>2022-05-20T23:03:22Z</time>
      </trkpt>
      <trkpt lat="48.32012" lon="-3.85713">
        <ele>236</ele>
        <time>2022-05-20T23:03:27Z</time>
      </trkpt>
      <trkpt lat="48.32015" lon="-3.85683">
        <ele>236</ele>
        <time>2022-05-20T23:03:30Z</time>
      </trkpt>
      <trkpt lat="48.32024" lon="-3.85659">
        <ele>237</ele>
        <time>2022-05-20T23:03:33Z</time>
      </trkpt>
      <trkpt lat="48.32059" lon="-3.85607">
        <ele>240</ele>
        <time>2022-05-20T23:03:42Z</time>
      </trkpt>
      <trkpt lat="48.32099" lon="-3.85557">
        <ele>243</ele>
        <time>2022-05-20T23:03:51Z</time>
      </trkpt>
      <trkpt lat="48.32143" lon="-3.85484">
        <ele>246</ele>
        <time>2022-05-20T23:04:03Z</time>
      </trkpt>
      <trkpt lat="48.32166" lon="-3.85454">
        <ele>247</ele>
        <time>2022-05-20T23:04:09Z</time>
      </trkpt>
      <trkpt lat="48.32223" lon="-3.85398">
        <ele>253</ele>
        <time>2022-05-20T23:04:21Z</time>
      </trkpt>
      <trkpt lat="48.32311" lon="-3.85305">
        <ele>260</ele>
        <time>2022-05-20T23:04:40Z</time>
      </trkpt>
      <trkpt lat="48.32344" lon="-3.85266">
        <ele>262</ele>
        <time>2022-05-20T23:04:47Z</time>
      </trkpt>
      <trkpt lat="48.32374" lon="-3.8525">
        <ele>262</ele>
        <time>2022-05-20T23:04:53Z</time>
      </trkpt>
      <trkpt lat="48.32365" lon="-3.85248">
        <ele>262</ele>
        <time>2022-05-20T23:04:55Z</time>
      </trkpt>
      <trkpt lat="48.32365" lon="-3.85233">
        <ele>262</ele>
        <time>2022-05-20T23:04:56Z</time>
      </trkpt>
      <trkpt lat="48.32374" lon="-3.85223">
        <ele>262</ele>
        <time>2022-05-20T23:04:58Z</time>
      </trkpt>
      <trkpt lat="48.32394" lon="-3.85189">
        <ele>263</ele>
        <time>2022-05-20T23:05:04Z</time>
      </trkpt>
      <trkpt lat="48.32425" lon="-3.85128">
        <ele>265</ele>
        <time>2022-05-20T23:05:13Z</time>
      </trkpt>
      <trkpt lat="48.32459" lon="-3.85051">
        <ele>266</ele>
        <time>2022-05-20T23:05:24Z</time>
      </trkpt>
      <trkpt lat="48.32524" lon="-3.84877">
        <ele>268</ele>
        <time>2022-05-20T23:05:47Z</time>
      </trkpt>
      <trkpt lat="48.32536" lon="-3.84836">
        <ele>268</ele>
        <time>2022-05-20T23:05:53Z</time>
      </trkpt>
      <trkpt lat="48.32549" lon="-3.84774">
        <ele>268</ele>
        <time>2022-05-20T23:06:00Z</time>
      </trkpt>
      <trkpt lat="48.32559" lon="-3.84739">
        <ele>268</ele>
        <time>2022-05-20T23:06:05Z</time>
      </trkpt>
      <trkpt lat="48.3258" lon="-3.84631">
        <ele>270</ele>
        <time>2022-05-20T23:06:18Z</time>
      </trkpt>
      <trkpt lat="48.326" lon="-3.84546">
        <ele>269</ele>
        <time>2022-05-20T23:06:29Z</time>
      </trkpt>
      <trkpt lat="48.3265" lon="-3.84393">
        <ele>268</ele>
        <time>2022-05-20T23:06:49Z</time>
      </trkpt>
      <trkpt lat="48.32674" lon="-3.84313">
        <ele>269</ele>
        <time>2022-05-20T23:06:59Z</time>
      </trkpt>
      <trkpt lat="48.32682" lon="-3.84278">
        <ele>272</ele>
        <time>2022-05-20T23:07:04Z</time>
      </trkpt>
      <trkpt lat="48.32688" lon="-3.84242">
        <ele>274</ele>
        <time>2022-05-20T23:07:08Z</time>
      </trkpt>
      <trkpt lat="48.32693" lon="-3.84184">
        <ele>275</ele>
        <time>2022-05-20T23:07:15Z</time>
      </trkpt>
      <trkpt lat="48.32691" lon="-3.8412">
        <ele>275</ele>
        <time>2022-05-20T23:07:23Z</time>
      </trkpt>
      <trkpt lat="48.32686" lon="-3.84059">
        <ele>275</ele>
        <time>2022-05-20T23:07:30Z</time>
      </trkpt>
      <trkpt lat="48.32674" lon="-3.83993">
        <ele>274</ele>
        <time>2022-05-20T23:07:38Z</time>
      </trkpt>
      <trkpt lat="48.32664" lon="-3.83967">
        <ele>272</ele>
        <time>2022-05-20T23:07:42Z</time>
      </trkpt>
      <trkpt lat="48.32626" lon="-3.83843">
        <ele>267</ele>
        <time>2022-05-20T23:07:58Z</time>
      </trkpt>
      <trkpt lat="48.326" lon="-3.8377">
        <ele>268</ele>
        <time>2022-05-20T23:08:07Z</time>
      </trkpt>
      <trkpt lat="48.3258" lon="-3.83697">
        <ele>269</ele>
        <time>2022-05-20T23:08:17Z</time>
      </trkpt>
      <trkpt lat="48.32571" lon="-3.83635">
        <ele>271</ele>
        <time>2022-05-20T23:08:24Z</time>
      </trkpt>
      <trkpt lat="48.32566" lon="-3.83578">
        <ele>272</ele>
        <time>2022-05-20T23:08:31Z</time>
      </trkpt>
      <trkpt lat="48.32566" lon="-3.83549">
        <ele>271</ele>
        <time>2022-05-20T23:08:35Z</time>
      </trkpt>
      <trkpt lat="48.32577" lon="-3.83413">
        <ele>264</ele>
        <time>2022-05-20T23:08:51Z</time>
      </trkpt>
      <trkpt lat="48.32607" lon="-3.83178">
        <ele>253</ele>
        <time>2022-05-20T23:09:19Z</time>
      </trkpt>
      <trkpt lat="48.3263" lon="-3.82957">
        <ele>238</ele>
        <time>2022-05-20T23:09:46Z</time>
      </trkpt>
      <trkpt lat="48.32721" lon="-3.82226">
        <ele>205</ele>
        <time>2022-05-20T23:11:14Z</time>
      </trkpt>
      <trkpt lat="48.32726" lon="-3.82167">
        <ele>201</ele>
        <time>2022-05-20T23:11:21Z</time>
      </trkpt>
      <trkpt lat="48.32738" lon="-3.82101">
        <ele>197</ele>
        <time>2022-05-20T23:11:29Z</time>
      </trkpt>
      <trkpt lat="48.32747" lon="-3.82021">
        <ele>192</ele>
        <time>2022-05-20T23:11:38Z</time>
      </trkpt>
      <trkpt lat="48.32778" lon="-3.8192">
        <ele>189</ele>
        <time>2022-05-20T23:11:51Z</time>
      </trkpt>
      <trkpt lat="48.3283" lon="-3.81787">
        <ele>179</ele>
        <time>2022-05-20T23:12:10Z</time>
      </trkpt>
      <trkpt lat="48.32856" lon="-3.81729">
        <ele>177</ele>
        <time>2022-05-20T23:12:18Z</time>
      </trkpt>
      <trkpt lat="48.32887" lon="-3.81643">
        <ele>174</ele>
        <time>2022-05-20T23:12:30Z</time>
      </trkpt>
      <trkpt lat="48.32935" lon="-3.81458">
        <ele>164</ele>
        <time>2022-05-20T23:12:53Z</time>
      </trkpt>
      <trkpt lat="48.32958" lon="-3.81357">
        <ele>161</ele>
        <time>2022-05-20T23:13:06Z</time>
      </trkpt>
      <trkpt lat="48.32971" lon="-3.81276">
        <ele>158</ele>
        <time>2022-05-20T23:13:15Z</time>
      </trkpt>
      <trkpt lat="48.32975" lon="-3.81182">
        <ele>156</ele>
        <time>2022-05-20T23:13:27Z</time>
      </trkpt>
      <trkpt lat="48.32967" lon="-3.81113">
        <ele>153</ele>
        <time>2022-05-20T23:13:35Z</time>
      </trkpt>
      <trkpt lat="48.32947" lon="-3.81046">
        <ele>150</ele>
        <time>2022-05-20T23:13:44Z</time>
      </trkpt>
      <trkpt lat="48.32936" lon="-3.81022">
        <ele>148</ele>
        <time>2022-05-20T23:13:47Z</time>
      </trkpt>
      <trkpt lat="48.32897" lon="-3.80907">
        <ele>144</ele>
        <time>2022-05-20T23:14:02Z</time>
      </trkpt>
      <trkpt lat="48.32864" lon="-3.80823">
        <ele>142</ele>
        <time>2022-05-20T23:14:14Z</time>
      </trkpt>
      <trkpt lat="48.32844" lon="-3.80754">
        <ele>139</ele>
        <time>2022-05-20T23:14:23Z</time>
      </trkpt>
      <trkpt lat="48.32823" lon="-3.80635">
        <ele>133</ele>
        <time>2022-05-20T23:14:37Z</time>
      </trkpt>
      <trkpt lat="48.32816" lon="-3.80515">
        <ele>128</ele>
        <time>2022-05-20T23:14:52Z</time>
      </trkpt>
      <trkpt lat="48.32817" lon="-3.80489">
        <ele>127</ele>
        <time>2022-05-20T23:14:55Z</time>
      </trkpt>
      <trkpt lat="48.32826" lon="-3.80415">
        <ele>123</ele>
        <time>2022-05-20T23:15:04Z</time>
      </trkpt>
      <trkpt lat="48.32837" lon="-3.80367">
        <ele>120</ele>
        <time>2022-05-20T23:15:10Z</time>
      </trkpt>
      <trkpt lat="48.3285" lon="-3.80331">
        <ele>120</ele>
        <time>2022-05-20T23:15:14Z</time>
      </trkpt>
      <trkpt lat="48.32866" lon="-3.80253">
        <ele>117</ele>
        <time>2022-05-20T23:15:24Z</time>
      </trkpt>
      <trkpt lat="48.32871" lon="-3.80214">
        <ele>116</ele>
        <time>2022-05-20T23:15:29Z</time>
      </trkpt>
      <trkpt lat="48.32899" lon="-3.79815">
        <ele>101</ele>
        <time>2022-05-20T23:16:16Z</time>
      </trkpt>
      <trkpt lat="48.32915" lon="-3.7961">
        <ele>97</ele>
        <time>2022-05-20T23:16:41Z</time>
      </trkpt>
      <trkpt lat="48.32925" lon="-3.79514">
        <ele>97</ele>
        <time>2022-05-20T23:16:52Z</time>
      </trkpt>
      <trkpt lat="48.32946" lon="-3.79443">
        <ele>101</ele>
        <time>2022-05-20T23:17:01Z</time>
      </trkpt>
      <trkpt lat="48.32965" lon="-3.79399">
        <ele>104</ele>
        <time>2022-05-20T23:17:08Z</time>
      </trkpt>
      <trkpt lat="48.32973" lon="-3.79389">
        <ele>105</ele>
        <time>2022-05-20T23:17:09Z</time>
      </trkpt>
      <trkpt lat="48.32986" lon="-3.79363">
        <ele>106</ele>
        <time>2022-05-20T23:17:13Z</time>
      </trkpt>
      <trkpt lat="48.3302" lon="-3.7931">
        <ele>108</ele>
        <time>2022-05-20T23:17:22Z</time>
      </trkpt>
      <trkpt lat="48.33102" lon="-3.79193">
        <ele>116</ele>
        <time>2022-05-20T23:17:42Z</time>
      </trkpt>
      <trkpt lat="48.3318" lon="-3.79087">
        <ele>117</ele>
        <time>2022-05-20T23:18:01Z</time>
      </trkpt>
      <trkpt lat="48.33216" lon="-3.7903">
        <ele>117</ele>
        <time>2022-05-20T23:18:10Z</time>
      </trkpt>
      <trkpt lat="48.33237" lon="-3.78986">
        <ele>115</ele>
        <time>2022-05-20T23:18:16Z</time>
      </trkpt>
      <trkpt lat="48.33263" lon="-3.78921">
        <ele>117</ele>
        <time>2022-05-20T23:18:25Z</time>
      </trkpt>
      <trkpt lat="48.33285" lon="-3.78852">
        <ele>120</ele>
        <time>2022-05-20T23:18:35Z</time>
      </trkpt>
      <trkpt lat="48.33293" lon="-3.78777">
        <ele>120</ele>
        <time>2022-05-20T23:18:43Z</time>
      </trkpt>
      <trkpt lat="48.333" lon="-3.78762">
        <ele>120</ele>
        <time>2022-05-20T23:18:46Z</time>
      </trkpt>
      <trkpt lat="48.33309" lon="-3.78717">
        <ele>120</ele>
        <time>2022-05-20T23:18:51Z</time>
      </trkpt>
      <trkpt lat="48.33316" lon="-3.78707">
        <ele>119</ele>
        <time>2022-05-20T23:18:53Z</time>
      </trkpt>
      <trkpt lat="48.3332" lon="-3.78694">
        <ele>119</ele>
        <time>2022-05-20T23:18:55Z</time>
      </trkpt>
      <trkpt lat="48.33324" lon="-3.78667">
        <ele>119</ele>
        <time>2022-05-20T23:18:58Z</time>
      </trkpt>
      <trkpt lat="48.33338" lon="-3.78644">
        <ele>119</ele>
        <time>2022-05-20T23:19:02Z</time>
      </trkpt>
      <trkpt lat="48.33363" lon="-3.78582">
        <ele>122</ele>
        <time>2022-05-20T23:19:10Z</time>
      </trkpt>
      <trkpt lat="48.33393" lon="-3.78454">
        <ele>125</ele>
        <time>2022-05-20T23:19:26Z</time>
      </trkpt>
      <trkpt lat="48.33402" lon="-3.78426">
        <ele>124</ele>
        <time>2022-05-20T23:19:30Z</time>
      </trkpt>
      <trkpt lat="48.33413" lon="-3.78402">
        <ele>124</ele>
        <time>2022-05-20T23:19:33Z</time>
      </trkpt>
      <trkpt lat="48.33423" lon="-3.78361">
        <ele>127</ele>
        <time>2022-05-20T23:19:39Z</time>
      </trkpt>
      <trkpt lat="48.33442" lon="-3.78308">
        <ele>128</ele>
        <time>2022-05-20T23:19:46Z</time>
      </trkpt>
      <trkpt lat="48.33462" lon="-3.78223">
        <ele>130</ele>
        <time>2022-05-20T23:19:56Z</time>
      </trkpt>
      <trkpt lat="48.33486" lon="-3.78162">
        <ele>131</ele>
        <time>2022-05-20T23:20:05Z</time>
      </trkpt>
      <trkpt lat="48.33502" lon="-3.78075">
        <ele>136</ele>
        <time>2022-05-20T23:20:15Z</time>
      </trkpt>
      <trkpt lat="48.335" lon="-3.78016">
        <ele>140</ele>
        <time>2022-05-20T23:20:22Z</time>
      </trkpt>
      <trkpt lat="48.33495" lon="-3.77973">
        <ele>142</ele>
        <time>2022-05-20T23:20:28Z</time>
      </trkpt>
      <trkpt lat="48.33472" lon="-3.77861">
        <ele>147</ele>
        <time>2022-05-20T23:20:41Z</time>
      </trkpt>
      <trkpt lat="48.33459" lon="-3.77698">
        <ele>150</ele>
        <time>2022-05-20T23:21:01Z</time>
      </trkpt>
      <trkpt lat="48.33462" lon="-3.77641">
        <ele>151</ele>
        <time>2022-05-20T23:21:08Z</time>
      </trkpt>
      <trkpt lat="48.33475" lon="-3.77569">
        <ele>152</ele>
        <time>2022-05-20T23:21:16Z</time>
      </trkpt>
      <trkpt lat="48.33473" lon="-3.77525">
        <ele>154</ele>
        <time>2022-05-20T23:21:22Z</time>
      </trkpt>
      <trkpt lat="48.33481" lon="-3.77496">
        <ele>155</ele>
        <time>2022-05-20T23:21:25Z</time>
      </trkpt>
      <trkpt lat="48.33499" lon="-3.77379">
        <ele>161</ele>
        <time>2022-05-20T23:21:40Z</time>
      </trkpt>
      <trkpt lat="48.33534" lon="-3.77308">
        <ele>161</ele>
        <time>2022-05-20T23:21:50Z</time>
      </trkpt>
      <trkpt lat="48.33568" lon="-3.77257">
        <ele>165</ele>
        <time>2022-05-20T23:21:59Z</time>
      </trkpt>
      <trkpt lat="48.33634" lon="-3.77188">
        <ele>169</ele>
        <time>2022-05-20T23:22:13Z</time>
      </trkpt>
      <trkpt lat="48.33663" lon="-3.7715">
        <ele>172</ele>
        <time>2022-05-20T23:22:20Z</time>
      </trkpt>
      <trkpt lat="48.33707" lon="-3.77068">
        <ele>175</ele>
        <time>2022-05-20T23:22:32Z</time>
      </trkpt>
      <trkpt lat="48.33715" lon="-3.77059">
        <ele>175</ele>
        <time>2022-05-20T23:22:34Z</time>
      </trkpt>
      <trkpt lat="48.33729" lon="-3.77024">
        <ele>179</ele>
        <time>2022-05-20T23:22:39Z</time>
      </trkpt>
      <trkpt lat="48.33778" lon="-3.76947">
        <ele>184</ele>
        <time>2022-05-20T23:22:51Z</time>
      </trkpt>
      <trkpt lat="48.3381" lon="-3.76887">
        <ele>185</ele>
        <time>2022-05-20T23:23:00Z</time>
      </trkpt>
      <trkpt lat="48.33838" lon="-3.76827">
        <ele>189</ele>
        <time>2022-05-20T23:23:09Z</time>
      </trkpt>
      <trkpt lat="48.33851" lon="-3.76807">
        <ele>190</ele>
        <time>2022-05-20T23:23:12Z</time>
      </trkpt>
      <trkpt lat="48.33893" lon="-3.76726">
        <ele>196</ele>
        <time>2022-05-20T23:23:25Z</time>
      </trkpt>
      <trkpt lat="48.33907" lon="-3.76704">
        <ele>197</ele>
        <time>2022-05-20T23:23:28Z</time>
      </trkpt>
      <trkpt lat="48.33937" lon="-3.76667">
        <ele>200</ele>
        <time>2022-05-20T23:23:35Z</time>
      </trkpt>
      <trkpt lat="48.33962" lon="-3.76644">
        <ele>202</ele>
        <time>2022-05-20T23:23:40Z</time>
      </trkpt>
      <trkpt lat="48.3399" lon="-3.76605">
        <ele>204</ele>
        <time>2022-05-20T23:23:47Z</time>
      </trkpt>
      <trkpt lat="48.3401" lon="-3.76571">
        <ele>207</ele>
        <time>2022-05-20T23:23:52Z</time>
      </trkpt>
      <trkpt lat="48.34031" lon="-3.7652">
        <ele>212</ele>
        <time>2022-05-20T23:24:00Z</time>
      </trkpt>
      <trkpt lat="48.34034" lon="-3.76507">
        <ele>212</ele>
        <time>2022-05-20T23:24:01Z</time>
      </trkpt>
      <trkpt lat="48.34036" lon="-3.76476">
        <ele>214</ele>
        <time>2022-05-20T23:24:05Z</time>
      </trkpt>
      <trkpt lat="48.34051" lon="-3.76424">
        <ele>218</ele>
        <time>2022-05-20T23:24:12Z</time>
      </trkpt>
      <trkpt lat="48.34062" lon="-3.76369">
        <ele>220</ele>
        <time>2022-05-20T23:24:18Z</time>
      </trkpt>
      <trkpt lat="48.34084" lon="-3.76283">
        <ele>223</ele>
        <time>2022-05-20T23:24:29Z</time>
      </trkpt>
      <trkpt lat="48.34097" lon="-3.76226">
        <ele>223</ele>
        <time>2022-05-20T23:24:36Z</time>
      </trkpt>
      <trkpt lat="48.34097" lon="-3.7621">
        <ele>223</ele>
        <time>2022-05-20T23:24:38Z</time>
      </trkpt>
      <trkpt lat="48.34108" lon="-3.76189">
        <ele>223</ele>
        <time>2022-05-20T23:24:41Z</time>
      </trkpt>
      <trkpt lat="48.34124" lon="-3.76118">
        <ele>224</ele>
        <time>2022-05-20T23:24:50Z</time>
      </trkpt>
      <trkpt lat="48.34129" lon="-3.76106">
        <ele>224</ele>
        <time>2022-05-20T23:24:52Z</time>
      </trkpt>
      <trkpt lat="48.34142" lon="-3.76048">
        <ele>225</ele>
        <time>2022-05-20T23:24:59Z</time>
      </trkpt>
      <trkpt lat="48.34161" lon="-3.75981">
        <ele>227</ele>
        <time>2022-05-20T23:25:08Z</time>
      </trkpt>
      <trkpt lat="48.34172" lon="-3.75957">
        <ele>227</ele>
        <time>2022-05-20T23:25:11Z</time>
      </trkpt>
      <trkpt lat="48.34176" lon="-3.75942">
        <ele>227</ele>
        <time>2022-05-20T23:25:13Z</time>
      </trkpt>
      <trkpt lat="48.34208" lon="-3.75871">
        <ele>227</ele>
        <time>2022-05-20T23:25:23Z</time>
      </trkpt>
      <trkpt lat="48.34228" lon="-3.75834">
        <ele>227</ele>
        <time>2022-05-20T23:25:29Z</time>
      </trkpt>
      <trkpt lat="48.34253" lon="-3.75796">
        <ele>226</ele>
        <time>2022-05-20T23:25:35Z</time>
      </trkpt>
      <trkpt lat="48.34311" lon="-3.75725">
        <ele>225</ele>
        <time>2022-05-20T23:25:49Z</time>
      </trkpt>
      <trkpt lat="48.34404" lon="-3.75621">
        <ele>225</ele>
        <time>2022-05-20T23:26:09Z</time>
      </trkpt>
      <trkpt lat="48.34439" lon="-3.75574">
        <ele>227</ele>
        <time>2022-05-20T23:26:18Z</time>
      </trkpt>
      <trkpt lat="48.34446" lon="-3.75561">
        <ele>227</ele>
        <time>2022-05-20T23:26:20Z</time>
      </trkpt>
      <trkpt lat="48.34471" lon="-3.75533">
        <ele>230</ele>
        <time>2022-05-20T23:26:25Z</time>
      </trkpt>
      <trkpt lat="48.34512" lon="-3.7547">
        <ele>232</ele>
        <time>2022-05-20T23:26:36Z</time>
      </trkpt>
      <trkpt lat="48.34533" lon="-3.75442">
        <ele>233</ele>
        <time>2022-05-20T23:26:41Z</time>
      </trkpt>
      <trkpt lat="48.34567" lon="-3.75384">
        <ele>236</ele>
        <time>2022-05-20T23:26:50Z</time>
      </trkpt>
      <trkpt lat="48.34575" lon="-3.75375">
        <ele>237</ele>
        <time>2022-05-20T23:26:51Z</time>
      </trkpt>
      <trkpt lat="48.34587" lon="-3.75351">
        <ele>238</ele>
        <time>2022-05-20T23:26:55Z</time>
      </trkpt>
      <trkpt lat="48.34639" lon="-3.75273">
        <ele>235</ele>
        <time>2022-05-20T23:27:08Z</time>
      </trkpt>
      <trkpt lat="48.34691" lon="-3.75202">
        <ele>236</ele>
        <time>2022-05-20T23:27:21Z</time>
      </trkpt>
      <trkpt lat="48.34731" lon="-3.75159">
        <ele>237</ele>
        <time>2022-05-20T23:27:29Z</time>
      </trkpt>
      <trkpt lat="48.34753" lon="-3.75141">
        <ele>238</ele>
        <time>2022-05-20T23:27:34Z</time>
      </trkpt>
      <trkpt lat="48.34791" lon="-3.75096">
        <ele>238</ele>
        <time>2022-05-20T23:27:42Z</time>
      </trkpt>
      <trkpt lat="48.34827" lon="-3.75063">
        <ele>237</ele>
        <time>2022-05-20T23:27:50Z</time>
      </trkpt>
      <trkpt lat="48.34851" lon="-3.75046">
        <ele>237</ele>
        <time>2022-05-20T23:27:55Z</time>
      </trkpt>
      <trkpt lat="48.34901" lon="-3.74996">
        <ele>236</ele>
        <time>2022-05-20T23:28:05Z</time>
      </trkpt>
      <trkpt lat="48.3496" lon="-3.74946">
        <ele>234</ele>
        <time>2022-05-20T23:28:17Z</time>
      </trkpt>
      <trkpt lat="48.35019" lon="-3.74906">
        <ele>231</ele>
        <time>2022-05-20T23:28:29Z</time>
      </trkpt>
      <trkpt lat="48.35059" lon="-3.74885">
        <ele>230</ele>
        <time>2022-05-20T23:28:36Z</time>
      </trkpt>
      <trkpt lat="48.3513" lon="-3.74854">
        <ele>230</ele>
        <time>2022-05-20T23:28:50Z</time>
      </trkpt>
      <trkpt lat="48.35148" lon="-3.74844">
        <ele>230</ele>
        <time>2022-05-20T23:28:53Z</time>
      </trkpt>
      <trkpt lat="48.35185" lon="-3.7483">
        <ele>230</ele>
        <time>2022-05-20T23:29:00Z</time>
      </trkpt>
      <trkpt lat="48.35196" lon="-3.74822">
        <ele>230</ele>
        <time>2022-05-20T23:29:02Z</time>
      </trkpt>
      <trkpt lat="48.35304" lon="-3.74775">
        <ele>232</ele>
        <time>2022-05-20T23:29:22Z</time>
      </trkpt>
      <trkpt lat="48.35323" lon="-3.74764">
        <ele>232</ele>
        <time>2022-05-20T23:29:26Z</time>
      </trkpt>
      <trkpt lat="48.35335" lon="-3.74767">
        <ele>232</ele>
        <time>2022-05-20T23:29:28Z</time>
      </trkpt>
      <trkpt lat="48.35461" lon="-3.74678">
        <ele>230</ele>
        <time>2022-05-20T23:29:52Z</time>
      </trkpt>
      <trkpt lat="48.35499" lon="-3.74647">
        <ele>230</ele>
        <time>2022-05-20T23:30:00Z</time>
      </trkpt>
      <trkpt lat="48.35563" lon="-3.74614">
        <ele>228</ele>
        <time>2022-05-20T23:30:12Z</time>
      </trkpt>
      <trkpt lat="48.35666" lon="-3.74582">
        <ele>220</ele>
        <time>2022-05-20T23:30:31Z</time>
      </trkpt>
      <trkpt lat="48.3579" lon="-3.7455">
        <ele>212</ele>
        <time>2022-05-20T23:30:53Z</time>
      </trkpt>
      <trkpt lat="48.35866" lon="-3.74533">
        <ele>207</ele>
        <time>2022-05-20T23:31:07Z</time>
      </trkpt>
      <trkpt lat="48.35882" lon="-3.74533">
        <ele>206</ele>
        <time>2022-05-20T23:31:10Z</time>
      </trkpt>
      <trkpt lat="48.35899" lon="-3.74541">
        <ele>206</ele>
        <time>2022-05-20T23:31:13Z</time>
      </trkpt>
      <trkpt lat="48.35916" lon="-3.74553">
        <ele>205</ele>
        <time>2022-05-20T23:31:16Z</time>
      </trkpt>
      <trkpt lat="48.35931" lon="-3.74569">
        <ele>204</ele>
        <time>2022-05-20T23:31:20Z</time>
      </trkpt>
      <trkpt lat="48.3597" lon="-3.746">
        <ele>201</ele>
        <time>2022-05-20T23:31:27Z</time>
      </trkpt>
      <trkpt lat="48.35983" lon="-3.74604">
        <ele>200</ele>
        <time>2022-05-20T23:31:30Z</time>
      </trkpt>
      <trkpt lat="48.35992" lon="-3.74619">
        <ele>199</ele>
        <time>2022-05-20T23:31:32Z</time>
      </trkpt>
      <trkpt lat="48.36006" lon="-3.74628">
        <ele>198</ele>
        <time>2022-05-20T23:31:35Z</time>
      </trkpt>
      <trkpt lat="48.36022" lon="-3.74634">
        <ele>197</ele>
        <time>2022-05-20T23:31:38Z</time>
      </trkpt>
      <trkpt lat="48.36076" lon="-3.74644">
        <ele>194</ele>
        <time>2022-05-20T23:31:47Z</time>
      </trkpt>
      <trkpt lat="48.36094" lon="-3.74651">
        <ele>193</ele>
        <time>2022-05-20T23:31:51Z</time>
      </trkpt>
      <trkpt lat="48.36135" lon="-3.74688">
        <ele>188</ele>
        <time>2022-05-20T23:31:59Z</time>
      </trkpt>
      <trkpt lat="48.36177" lon="-3.74712">
        <ele>184</ele>
        <time>2022-05-20T23:32:07Z</time>
      </trkpt>
      <trkpt lat="48.36204" lon="-3.74722">
        <ele>182</ele>
        <time>2022-05-20T23:32:12Z</time>
      </trkpt>
      <trkpt lat="48.36258" lon="-3.74735">
        <ele>179</ele>
        <time>2022-05-20T23:32:22Z</time>
      </trkpt>
      <trkpt lat="48.36295" lon="-3.74734">
        <ele>177</ele>
        <time>2022-05-20T23:32:29Z</time>
      </trkpt>
      <trkpt lat="48.36324" lon="-3.74726">
        <ele>175</ele>
        <time>2022-05-20T23:32:34Z</time>
      </trkpt>
      <trkpt lat="48.36339" lon="-3.74711">
        <ele>175</ele>
        <time>2022-05-20T23:32:37Z</time>
      </trkpt>
      <trkpt lat="48.36338" lon="-3.74695">
        <ele>175</ele>
        <time>2022-05-20T23:32:39Z</time>
      </trkpt>
      <trkpt lat="48.36322" lon="-3.74654">
        <ele>175</ele>
        <time>2022-05-20T23:32:45Z</time>
      </trkpt>
      <trkpt lat="48.36326" lon="-3.74666">
        <ele>175</ele>
        <time>2022-05-20T23:32:46Z</time>
      </trkpt>
      <trkpt lat="48.36325" lon="-3.74681">
        <ele>175</ele>
        <time>2022-05-20T23:32:48Z</time>
      </trkpt>
      <trkpt lat="48.3633" lon="-3.74693">
        <ele>175</ele>
        <time>2022-05-20T23:32:50Z</time>
      </trkpt>
      <trkpt lat="48.36338" lon="-3.74703">
        <ele>175</ele>
        <time>2022-05-20T23:32:51Z</time>
      </trkpt>
      <trkpt lat="48.36347" lon="-3.747">
        <ele>175</ele>
        <time>2022-05-20T23:32:53Z</time>
      </trkpt>
      <trkpt lat="48.36355" lon="-3.74694">
        <ele>175</ele>
        <time>2022-05-20T23:32:55Z</time>
      </trkpt>
      <trkpt lat="48.36381" lon="-3.74669">
        <ele>175</ele>
        <time>2022-05-20T23:33:00Z</time>
      </trkpt>
      <trkpt lat="48.36399" lon="-3.7466">
        <ele>175</ele>
        <time>2022-05-20T23:33:04Z</time>
      </trkpt>
      <trkpt lat="48.36423" lon="-3.74639">
        <ele>175</ele>
        <time>2022-05-20T23:33:08Z</time>
      </trkpt>
      <trkpt lat="48.36431" lon="-3.74647">
        <ele>174</ele>
        <time>2022-05-20T23:33:10Z</time>
      </trkpt>
      <trkpt lat="48.36364" lon="-3.74822">
        <ele>170</ele>
        <time>2022-05-20T23:33:34Z</time>
      </trkpt>
      <trkpt lat="48.36355" lon="-3.74828">
        <ele>170</ele>
        <time>2022-05-20T23:33:36Z</time>
      </trkpt>
      <trkpt lat="48.36346" lon="-3.74829">
        <ele>171</ele>
        <time>2022-05-20T23:33:37Z</time>
      </trkpt>
      <trkpt lat="48.36337" lon="-3.74826">
        <ele>171</ele>
        <time>2022-05-20T23:33:39Z</time>
      </trkpt>
      <trkpt lat="48.36347" lon="-3.74822">
        <ele>171</ele>
        <time>2022-05-20T23:33:41Z</time>
      </trkpt>
      <trkpt lat="48.36355" lon="-3.74812">
        <ele>171</ele>
        <time>2022-05-20T23:33:43Z</time>
      </trkpt>
      <trkpt lat="48.36359" lon="-3.74797">
        <ele>172</ele>
        <time>2022-05-20T23:33:45Z</time>
      </trkpt>
      <trkpt lat="48.36356" lon="-3.74767">
        <ele>173</ele>
        <time>2022-05-20T23:33:48Z</time>
      </trkpt>
      <trkpt lat="48.3634" lon="-3.74709">
        <ele>175</ele>
        <time>2022-05-20T23:33:56Z</time>
      </trkpt>
      <trkpt lat="48.36416" lon="-3.74644">
        <ele>175</ele>
        <time>2022-05-20T23:34:11Z</time>
      </trkpt>
      <trkpt lat="48.36426" lon="-3.74639">
        <ele>175</ele>
        <time>2022-05-20T23:34:13Z</time>
      </trkpt>
      <trkpt lat="48.36416" lon="-3.74662">
        <ele>175</ele>
        <time>2022-05-20T23:34:16Z</time>
      </trkpt>
      <trkpt lat="48.36407" lon="-3.74669">
        <ele>175</ele>
        <time>2022-05-20T23:34:18Z</time>
      </trkpt>
      <trkpt lat="48.36397" lon="-3.74672">
        <ele>175</ele>
        <time>2022-05-20T23:34:20Z</time>
      </trkpt>
      <trkpt lat="48.3637" lon="-3.74607">
        <ele>174</ele>
        <time>2022-05-20T23:34:29Z</time>
      </trkpt>
      <trkpt lat="48.3636" lon="-3.74563">
        <ele>172</ele>
        <time>2022-05-20T23:34:35Z</time>
      </trkpt>
      <trkpt lat="48.36355" lon="-3.74551">
        <ele>171</ele>
        <time>2022-05-20T23:34:36Z</time>
      </trkpt>
      <trkpt lat="48.36338" lon="-3.74528">
        <ele>169</ele>
        <time>2022-05-20T23:34:40Z</time>
      </trkpt>
      <trkpt lat="48.36326" lon="-3.74476">
        <ele>168</ele>
        <time>2022-05-20T23:34:47Z</time>
      </trkpt>
      <trkpt lat="48.36317" lon="-3.74465">
        <ele>169</ele>
        <time>2022-05-20T23:34:49Z</time>
      </trkpt>
      <trkpt lat="48.36297" lon="-3.74458">
        <ele>172</ele>
        <time>2022-05-20T23:34:52Z</time>
      </trkpt>
      <trkpt lat="48.36289" lon="-3.74465">
        <ele>173</ele>
        <time>2022-05-20T23:34:54Z</time>
      </trkpt>
      <trkpt lat="48.36281" lon="-3.74456">
        <ele>174</ele>
        <time>2022-05-20T23:34:56Z</time>
      </trkpt>
      <trkpt lat="48.36301" lon="-3.74384">
        <ele>172</ele>
        <time>2022-05-20T23:35:05Z</time>
      </trkpt>
      <trkpt lat="48.36303" lon="-3.74367">
        <ele>172</ele>
        <time>2022-05-20T23:35:07Z</time>
      </trkpt>
      <trkpt lat="48.36305" lon="-3.74316">
        <ele>171</ele>
        <time>2022-05-20T23:35:13Z</time>
      </trkpt>
      <trkpt lat="48.36303" lon="-3.74282">
        <ele>172</ele>
        <time>2022-05-20T23:35:17Z</time>
      </trkpt>
      <trkpt lat="48.36304" lon="-3.74246">
        <ele>172</ele>
        <time>2022-05-20T23:35:21Z</time>
      </trkpt>
      <trkpt lat="48.36309" lon="-3.7423">
        <ele>171</ele>
        <time>2022-05-20T23:35:24Z</time>
      </trkpt>
      <trkpt lat="48.36319" lon="-3.74216">
        <ele>170</ele>
        <time>2022-05-20T23:35:26Z</time>
      </trkpt>
      <trkpt lat="48.36328" lon="-3.74211">
        <ele>169</ele>
        <time>2022-05-20T23:35:28Z</time>
      </trkpt>
      <trkpt lat="48.36339" lon="-3.74211">
        <ele>168</ele>
        <time>2022-05-20T23:35:30Z</time>
      </trkpt>
      <trkpt lat="48.36351" lon="-3.74216">
        <ele>167</ele>
        <time>2022-05-20T23:35:32Z</time>
      </trkpt>
      <trkpt lat="48.36374" lon="-3.74231">
        <ele>164</ele>
        <time>2022-05-20T23:35:36Z</time>
      </trkpt>
      <trkpt lat="48.36387" lon="-3.74235">
        <ele>162</ele>
        <time>2022-05-20T23:35:39Z</time>
      </trkpt>
      <trkpt lat="48.36401" lon="-3.74236">
        <ele>160</ele>
        <time>2022-05-20T23:35:41Z</time>
      </trkpt>
      <trkpt lat="48.36415" lon="-3.74231">
        <ele>160</ele>
        <time>2022-05-20T23:35:44Z</time>
      </trkpt>
      <trkpt lat="48.36428" lon="-3.74224">
        <ele>159</ele>
        <time>2022-05-20T23:35:46Z</time>
      </trkpt>
      <trkpt lat="48.36454" lon="-3.74204">
        <ele>157</ele>
        <time>2022-05-20T23:35:51Z</time>
      </trkpt>
      <trkpt lat="48.36467" lon="-3.74188">
        <ele>156</ele>
        <time>2022-05-20T23:35:54Z</time>
      </trkpt>
      <trkpt lat="48.36476" lon="-3.74167">
        <ele>156</ele>
        <time>2022-05-20T23:35:57Z</time>
      </trkpt>
      <trkpt lat="48.36481" lon="-3.74145">
        <ele>157</ele>
        <time>2022-05-20T23:36:00Z</time>
      </trkpt>
      <trkpt lat="48.36491" lon="-3.73986">
        <ele>163</ele>
        <time>2022-05-20T23:36:19Z</time>
      </trkpt>
      <trkpt lat="48.36511" lon="-3.73895">
        <ele>163</ele>
        <time>2022-05-20T23:36:30Z</time>
      </trkpt>
      <trkpt lat="48.36523" lon="-3.73824">
        <ele>163</ele>
        <time>2022-05-20T23:36:39Z</time>
      </trkpt>
      <trkpt lat="48.36535" lon="-3.73776">
        <ele>161</ele>
        <time>2022-05-20T23:36:45Z</time>
      </trkpt>
      <trkpt lat="48.36542" lon="-3.73725">
        <ele>160</ele>
        <time>2022-05-20T23:36:51Z</time>
      </trkpt>
      <trkpt lat="48.36555" lon="-3.73674">
        <ele>156</ele>
        <time>2022-05-20T23:36:58Z</time>
      </trkpt>
      <trkpt lat="48.3656" lon="-3.73662">
        <ele>155</ele>
        <time>2022-05-20T23:36:59Z</time>
      </trkpt>
      <trkpt lat="48.36573" lon="-3.73644">
        <ele>151</ele>
        <time>2022-05-20T23:37:02Z</time>
      </trkpt>
      <trkpt lat="48.36614" lon="-3.73624">
        <ele>152</ele>
        <time>2022-05-20T23:37:10Z</time>
      </trkpt>
      <trkpt lat="48.36624" lon="-3.73608">
        <ele>152</ele>
        <time>2022-05-20T23:37:13Z</time>
      </trkpt>
      <trkpt lat="48.36627" lon="-3.73549">
        <ele>151</ele>
        <time>2022-05-20T23:37:20Z</time>
      </trkpt>
      <trkpt lat="48.36653" lon="-3.73434">
        <ele>151</ele>
        <time>2022-05-20T23:37:34Z</time>
      </trkpt>
      <trkpt lat="48.36663" lon="-3.73371">
        <ele>152</ele>
        <time>2022-05-20T23:37:42Z</time>
      </trkpt>
      <trkpt lat="48.36658" lon="-3.73341">
        <ele>152</ele>
        <time>2022-05-20T23:37:45Z</time>
      </trkpt>
      <trkpt lat="48.36652" lon="-3.73328">
        <ele>153</ele>
        <time>2022-05-20T23:37:47Z</time>
      </trkpt>
      <trkpt lat="48.36613" lon="-3.73292">
        <ele>152</ele>
        <time>2022-05-20T23:37:55Z</time>
      </trkpt>
      <trkpt lat="48.36592" lon="-3.7328">
        <ele>151</ele>
        <time>2022-05-20T23:37:59Z</time>
      </trkpt>
      <trkpt lat="48.36573" lon="-3.73264">
        <ele>150</ele>
        <time>2022-05-20T23:38:03Z</time>
      </trkpt>
      <trkpt lat="48.36534" lon="-3.73195">
        <ele>150</ele>
        <time>2022-05-20T23:38:14Z</time>
      </trkpt>
      <trkpt lat="48.36515" lon="-3.73148">
        <ele>150</ele>
        <time>2022-05-20T23:38:21Z</time>
      </trkpt>
      <trkpt lat="48.3648" lon="-3.73084">
        <ele>152</ele>
        <time>2022-05-20T23:38:30Z</time>
      </trkpt>
      <trkpt lat="48.36464" lon="-3.73049">
        <ele>152</ele>
        <time>2022-05-20T23:38:35Z</time>
      </trkpt>
      <trkpt lat="48.36451" lon="-3.7303">
        <ele>150</ele>
        <time>2022-05-20T23:38:39Z</time>
      </trkpt>
      <trkpt lat="48.36431" lon="-3.72986">
        <ele>148</ele>
        <time>2022-05-20T23:38:45Z</time>
      </trkpt>
      <trkpt lat="48.36422" lon="-3.72973">
        <ele>147</ele>
        <time>2022-05-20T23:38:47Z</time>
      </trkpt>
      <trkpt lat="48.36401" lon="-3.72948">
        <ele>146</ele>
        <time>2022-05-20T23:38:52Z</time>
      </trkpt>
      <trkpt lat="48.36371" lon="-3.72921">
        <ele>145</ele>
        <time>2022-05-20T23:38:58Z</time>
      </trkpt>
      <trkpt lat="48.36344" lon="-3.72915">
        <ele>143</ele>
        <time>2022-05-20T23:39:03Z</time>
      </trkpt>
      <trkpt lat="48.36292" lon="-3.72922">
        <ele>141</ele>
        <time>2022-05-20T23:39:12Z</time>
      </trkpt>
      <trkpt lat="48.36257" lon="-3.72917">
        <ele>142</ele>
        <time>2022-05-20T23:39:18Z</time>
      </trkpt>
      <trkpt lat="48.36217" lon="-3.72903">
        <ele>139</ele>
        <time>2022-05-20T23:39:26Z</time>
      </trkpt>
      <trkpt lat="48.36195" lon="-3.72887">
        <ele>138</ele>
        <time>2022-05-20T23:39:30Z</time>
      </trkpt>
      <trkpt lat="48.36186" lon="-3.72878">
        <ele>137</ele>
        <time>2022-05-20T23:39:32Z</time>
      </trkpt>
      <trkpt lat="48.36168" lon="-3.72851">
        <ele>137</ele>
        <time>2022-05-20T23:39:37Z</time>
      </trkpt>
      <trkpt lat="48.3614" lon="-3.7277">
        <ele>136</ele>
        <time>2022-05-20T23:39:47Z</time>
      </trkpt>
      <trkpt lat="48.36134" lon="-3.72728">
        <ele>134</ele>
        <time>2022-05-20T23:39:52Z</time>
      </trkpt>
      <trkpt lat="48.36146" lon="-3.72664">
        <ele>136</ele>
        <time>2022-05-20T23:40:00Z</time>
      </trkpt>
      <trkpt lat="48.36177" lon="-3.7256">
        <ele>127</ele>
        <time>2022-05-20T23:40:14Z</time>
      </trkpt>
      <trkpt lat="48.36186" lon="-3.72541">
        <ele>126</ele>
        <time>2022-05-20T23:40:17Z</time>
      </trkpt>
      <trkpt lat="48.36206" lon="-3.72509">
        <ele>125</ele>
        <time>2022-05-20T23:40:22Z</time>
      </trkpt>
      <trkpt lat="48.36285" lon="-3.72398">
        <ele>118</ele>
        <time>2022-05-20T23:40:41Z</time>
      </trkpt>
      <trkpt lat="48.36308" lon="-3.72358">
        <ele>117</ele>
        <time>2022-05-20T23:40:47Z</time>
      </trkpt>
      <trkpt lat="48.36367" lon="-3.72228">
        <ele>111</ele>
        <time>2022-05-20T23:41:06Z</time>
      </trkpt>
      <trkpt lat="48.36384" lon="-3.72182">
        <ele>109</ele>
        <time>2022-05-20T23:41:12Z</time>
      </trkpt>
      <trkpt lat="48.36398" lon="-3.72135">
        <ele>108</ele>
        <time>2022-05-20T23:41:18Z</time>
      </trkpt>
      <trkpt lat="48.36408" lon="-3.72085">
        <ele>105</ele>
        <time>2022-05-20T23:41:24Z</time>
      </trkpt>
      <trkpt lat="48.36416" lon="-3.71965">
        <ele>107</ele>
        <time>2022-05-20T23:41:39Z</time>
      </trkpt>
      <trkpt lat="48.36414" lon="-3.71951">
        <ele>106</ele>
        <time>2022-05-20T23:41:40Z</time>
      </trkpt>
      <trkpt lat="48.36418" lon="-3.71931">
        <ele>106</ele>
        <time>2022-05-20T23:41:43Z</time>
      </trkpt>
      <trkpt lat="48.36435" lon="-3.71711">
        <ele>102</ele>
        <time>2022-05-20T23:42:09Z</time>
      </trkpt>
      <trkpt lat="48.36443" lon="-3.71661">
        <ele>101</ele>
        <time>2022-05-20T23:42:15Z</time>
      </trkpt>
      <trkpt lat="48.36454" lon="-3.7163">
        <ele>101</ele>
        <time>2022-05-20T23:42:19Z</time>
      </trkpt>
      <trkpt lat="48.36468" lon="-3.71602">
        <ele>101</ele>
        <time>2022-05-20T23:42:23Z</time>
      </trkpt>
      <trkpt lat="48.36486" lon="-3.71577">
        <ele>101</ele>
        <time>2022-05-20T23:42:28Z</time>
      </trkpt>
      <trkpt lat="48.36501" lon="-3.71549">
        <ele>100</ele>
        <time>2022-05-20T23:42:32Z</time>
      </trkpt>
      <trkpt lat="48.36507" lon="-3.71533">
        <ele>100</ele>
        <time>2022-05-20T23:42:34Z</time>
      </trkpt>
      <trkpt lat="48.36519" lon="-3.71484">
        <ele>98</ele>
        <time>2022-05-20T23:42:40Z</time>
      </trkpt>
      <trkpt lat="48.36518" lon="-3.71354">
        <ele>98</ele>
        <time>2022-05-20T23:42:56Z</time>
      </trkpt>
      <trkpt lat="48.36513" lon="-3.71307">
        <ele>104</ele>
        <time>2022-05-20T23:43:01Z</time>
      </trkpt>
      <trkpt lat="48.36508" lon="-3.71293">
        <ele>106</ele>
        <time>2022-05-20T23:43:03Z</time>
      </trkpt>
      <trkpt lat="48.365" lon="-3.71283">
        <ele>108</ele>
        <time>2022-05-20T23:43:05Z</time>
      </trkpt>
      <trkpt lat="48.36478" lon="-3.71268">
        <ele>108</ele>
        <time>2022-05-20T23:43:09Z</time>
      </trkpt>
      <trkpt lat="48.36451" lon="-3.71242">
        <ele>107</ele>
        <time>2022-05-20T23:43:15Z</time>
      </trkpt>
      <trkpt lat="48.36444" lon="-3.71232">
        <ele>106</ele>
        <time>2022-05-20T23:43:17Z</time>
      </trkpt>
      <trkpt lat="48.36425" lon="-3.71197">
        <ele>105</ele>
        <time>2022-05-20T23:43:22Z</time>
      </trkpt>
      <trkpt lat="48.36416" lon="-3.71149">
        <ele>104</ele>
        <time>2022-05-20T23:43:28Z</time>
      </trkpt>
      <trkpt lat="48.36446" lon="-3.70857">
        <ele>102</ele>
        <time>2022-05-20T23:44:03Z</time>
      </trkpt>
      <trkpt lat="48.36454" lon="-3.70747">
        <ele>99</ele>
        <time>2022-05-20T23:44:16Z</time>
      </trkpt>
      <trkpt lat="48.36453" lon="-3.70709">
        <ele>99</ele>
        <time>2022-05-20T23:44:20Z</time>
      </trkpt>
      <trkpt lat="48.36449" lon="-3.7069">
        <ele>98</ele>
        <time>2022-05-20T23:44:23Z</time>
      </trkpt>
      <trkpt lat="48.36436" lon="-3.70654">
        <ele>96</ele>
        <time>2022-05-20T23:44:28Z</time>
      </trkpt>
      <trkpt lat="48.36411" lon="-3.70607">
        <ele>96</ele>
        <time>2022-05-20T23:44:35Z</time>
      </trkpt>
      <trkpt lat="48.36401" lon="-3.70594">
        <ele>96</ele>
        <time>2022-05-20T23:44:37Z</time>
      </trkpt>
      <trkpt lat="48.36355" lon="-3.70559">
        <ele>96</ele>
        <time>2022-05-20T23:44:46Z</time>
      </trkpt>
      <trkpt lat="48.36287" lon="-3.70513">
        <ele>98</ele>
        <time>2022-05-20T23:45:00Z</time>
      </trkpt>
      <trkpt lat="48.36279" lon="-3.70501">
        <ele>98</ele>
        <time>2022-05-20T23:45:02Z</time>
      </trkpt>
      <trkpt lat="48.36261" lon="-3.70488">
        <ele>97</ele>
        <time>2022-05-20T23:45:05Z</time>
      </trkpt>
      <trkpt lat="48.36243" lon="-3.7047">
        <ele>97</ele>
        <time>2022-05-20T23:45:09Z</time>
      </trkpt>
      <trkpt lat="48.36184" lon="-3.70388">
        <ele>99</ele>
        <time>2022-05-20T23:45:23Z</time>
      </trkpt>
      <trkpt lat="48.36143" lon="-3.70319">
        <ele>100</ele>
        <time>2022-05-20T23:45:34Z</time>
      </trkpt>
      <trkpt lat="48.36127" lon="-3.7028">
        <ele>101</ele>
        <time>2022-05-20T23:45:40Z</time>
      </trkpt>
      <trkpt lat="48.36115" lon="-3.70239">
        <ele>101</ele>
        <time>2022-05-20T23:45:45Z</time>
      </trkpt>
      <trkpt lat="48.361" lon="-3.70201">
        <ele>101</ele>
        <time>2022-05-20T23:45:50Z</time>
      </trkpt>
      <trkpt lat="48.36064" lon="-3.7008">
        <ele>96</ele>
        <time>2022-05-20T23:46:06Z</time>
      </trkpt>
      <trkpt lat="48.35988" lon="-3.69709">
        <ele>103</ele>
        <time>2022-05-20T23:46:52Z</time>
      </trkpt>
      <trkpt lat="48.35959" lon="-3.69608">
        <ele>100</ele>
        <time>2022-05-20T23:47:05Z</time>
      </trkpt>
      <trkpt lat="48.35943" lon="-3.69577">
        <ele>99</ele>
        <time>2022-05-20T23:47:09Z</time>
      </trkpt>
      <trkpt lat="48.3584" lon="-3.69454">
        <ele>100</ele>
        <time>2022-05-20T23:47:33Z</time>
      </trkpt>
      <trkpt lat="48.3581" lon="-3.69407">
        <ele>101</ele>
        <time>2022-05-20T23:47:40Z</time>
      </trkpt>
      <trkpt lat="48.3579" lon="-3.6937">
        <ele>102</ele>
        <time>2022-05-20T23:47:46Z</time>
      </trkpt>
      <trkpt lat="48.35754" lon="-3.69265">
        <ele>99</ele>
        <time>2022-05-20T23:48:00Z</time>
      </trkpt>
      <trkpt lat="48.3572" lon="-3.69109">
        <ele>104</ele>
        <time>2022-05-20T23:48:19Z</time>
      </trkpt>
      <trkpt lat="48.35717" lon="-3.69037">
        <ele>105</ele>
        <time>2022-05-20T23:48:28Z</time>
      </trkpt>
      <trkpt lat="48.35721" lon="-3.68983">
        <ele>105</ele>
        <time>2022-05-20T23:48:34Z</time>
      </trkpt>
      <trkpt lat="48.3574" lon="-3.68895">
        <ele>101</ele>
        <time>2022-05-20T23:48:45Z</time>
      </trkpt>
      <trkpt lat="48.35741" lon="-3.6888">
        <ele>101</ele>
        <time>2022-05-20T23:48:47Z</time>
      </trkpt>
      <trkpt lat="48.35765" lon="-3.6878">
        <ele>100</ele>
        <time>2022-05-20T23:49:00Z</time>
      </trkpt>
      <trkpt lat="48.35773" lon="-3.68719">
        <ele>100</ele>
        <time>2022-05-20T23:49:07Z</time>
      </trkpt>
      <trkpt lat="48.35774" lon="-3.68673">
        <ele>99</ele>
        <time>2022-05-20T23:49:12Z</time>
      </trkpt>
      <trkpt lat="48.3576" lon="-3.68465">
        <ele>99</ele>
        <time>2022-05-20T23:49:37Z</time>
      </trkpt>
      <trkpt lat="48.3575" lon="-3.68423">
        <ele>97</ele>
        <time>2022-05-20T23:49:42Z</time>
      </trkpt>
      <trkpt lat="48.3574" lon="-3.68399">
        <ele>96</ele>
        <time>2022-05-20T23:49:46Z</time>
      </trkpt>
      <trkpt lat="48.35733" lon="-3.6839">
        <ele>95</ele>
        <time>2022-05-20T23:49:47Z</time>
      </trkpt>
      <trkpt lat="48.35716" lon="-3.68375">
        <ele>94</ele>
        <time>2022-05-20T23:49:51Z</time>
      </trkpt>
      <trkpt lat="48.35672" lon="-3.68353">
        <ele>93</ele>
        <time>2022-05-20T23:49:59Z</time>
      </trkpt>
      <trkpt lat="48.35642" lon="-3.68346">
        <ele>91</ele>
        <time>2022-05-20T23:50:05Z</time>
      </trkpt>
      <trkpt lat="48.35631" lon="-3.68346">
        <ele>91</ele>
        <time>2022-05-20T23:50:07Z</time>
      </trkpt>
      <trkpt lat="48.35599" lon="-3.68356">
        <ele>92</ele>
        <time>2022-05-20T23:50:12Z</time>
      </trkpt>
      <trkpt lat="48.35579" lon="-3.68368">
        <ele>92</ele>
        <time>2022-05-20T23:50:16Z</time>
      </trkpt>
      <trkpt lat="48.35514" lon="-3.68419">
        <ele>94</ele>
        <time>2022-05-20T23:50:29Z</time>
      </trkpt>
      <trkpt lat="48.35478" lon="-3.68438">
        <ele>95</ele>
        <time>2022-05-20T23:50:36Z</time>
      </trkpt>
      <trkpt lat="48.35432" lon="-3.68455">
        <ele>95</ele>
        <time>2022-05-20T23:50:44Z</time>
      </trkpt>
      <trkpt lat="48.35414" lon="-3.68465">
        <ele>95</ele>
        <time>2022-05-20T23:50:48Z</time>
      </trkpt>
      <trkpt lat="48.35308" lon="-3.68503">
        <ele>90</ele>
        <time>2022-05-20T23:51:07Z</time>
      </trkpt>
      <trkpt lat="48.35297" lon="-3.68502">
        <ele>90</ele>
        <time>2022-05-20T23:51:09Z</time>
      </trkpt>
      <trkpt lat="48.35287" lon="-3.68498">
        <ele>90</ele>
        <time>2022-05-20T23:51:11Z</time>
      </trkpt>
      <trkpt lat="48.35268" lon="-3.68481">
        <ele>89</ele>
        <time>2022-05-20T23:51:15Z</time>
      </trkpt>
      <trkpt lat="48.35262" lon="-3.68412">
        <ele>86</ele>
        <time>2022-05-20T23:51:23Z</time>
      </trkpt>
      <trkpt lat="48.35253" lon="-3.68404">
        <ele>86</ele>
        <time>2022-05-20T23:51:25Z</time>
      </trkpt>
      <trkpt lat="48.35243" lon="-3.68404">
        <ele>86</ele>
        <time>2022-05-20T23:51:27Z</time>
      </trkpt>
      <trkpt lat="48.35224" lon="-3.68398">
        <ele>86</ele>
        <time>2022-05-20T23:51:30Z</time>
      </trkpt>
      <trkpt lat="48.35194" lon="-3.6838">
        <ele>86</ele>
        <time>2022-05-20T23:51:36Z</time>
      </trkpt>
      <trkpt lat="48.35181" lon="-3.68377">
        <ele>86</ele>
        <time>2022-05-20T23:51:38Z</time>
      </trkpt>
      <trkpt lat="48.35153" lon="-3.68378">
        <ele>87</ele>
        <time>2022-05-20T23:51:43Z</time>
      </trkpt>
      <trkpt lat="48.35098" lon="-3.68393">
        <ele>89</ele>
        <time>2022-05-20T23:51:53Z</time>
      </trkpt>
      <trkpt lat="48.3509" lon="-3.68398">
        <ele>90</ele>
        <time>2022-05-20T23:51:55Z</time>
      </trkpt>
      <trkpt lat="48.35047" lon="-3.68407">
        <ele>91</ele>
        <time>2022-05-20T23:52:03Z</time>
      </trkpt>
      <trkpt lat="48.35037" lon="-3.68407">
        <ele>91</ele>
        <time>2022-05-20T23:52:04Z</time>
      </trkpt>
      <trkpt lat="48.34984" lon="-3.68424">
        <ele>92</ele>
        <time>2022-05-20T23:52:14Z</time>
      </trkpt>
      <trkpt lat="48.34951" lon="-3.6843">
        <ele>93</ele>
        <time>2022-05-20T23:52:20Z</time>
      </trkpt>
      <trkpt lat="48.34929" lon="-3.6843">
        <ele>92</ele>
        <time>2022-05-20T23:52:24Z</time>
      </trkpt>
      <trkpt lat="48.34906" lon="-3.68434">
        <ele>94</ele>
        <time>2022-05-20T23:52:28Z</time>
      </trkpt>
      <trkpt lat="48.34893" lon="-3.68431">
        <ele>94</ele>
        <time>2022-05-20T23:52:30Z</time>
      </trkpt>
      <trkpt lat="48.3482" lon="-3.6843">
        <ele>99</ele>
        <time>2022-05-20T23:52:43Z</time>
      </trkpt>
      <trkpt lat="48.34763" lon="-3.68418">
        <ele>97</ele>
        <time>2022-05-20T23:52:54Z</time>
      </trkpt>
      <trkpt lat="48.34744" lon="-3.6841">
        <ele>97</ele>
        <time>2022-05-20T23:52:57Z</time>
      </trkpt>
      <trkpt lat="48.34734" lon="-3.6841">
        <ele>99</ele>
        <time>2022-05-20T23:52:59Z</time>
      </trkpt>
      <trkpt lat="48.34667" lon="-3.6838">
        <ele>101</ele>
        <time>2022-05-20T23:53:11Z</time>
      </trkpt>
      <trkpt lat="48.34656" lon="-3.68379">
        <ele>102</ele>
        <time>2022-05-20T23:53:13Z</time>
      </trkpt>
      <trkpt lat="48.34585" lon="-3.68342">
        <ele>104</ele>
        <time>2022-05-20T23:53:27Z</time>
      </trkpt>
      <trkpt lat="48.34573" lon="-3.68333">
        <ele>104</ele>
        <time>2022-05-20T23:53:29Z</time>
      </trkpt>
      <trkpt lat="48.34546" lon="-3.68305">
        <ele>102</ele>
        <time>2022-05-20T23:53:35Z</time>
      </trkpt>
      <trkpt lat="48.34527" lon="-3.68285">
        <ele>100</ele>
        <time>2022-05-20T23:53:39Z</time>
      </trkpt>
      <trkpt lat="48.34513" lon="-3.68265">
        <ele>97</ele>
        <time>2022-05-20T23:53:42Z</time>
      </trkpt>
      <trkpt lat="48.34489" lon="-3.68241">
        <ele>95</ele>
        <time>2022-05-20T23:53:48Z</time>
      </trkpt>
      <trkpt lat="48.34431" lon="-3.68192">
        <ele>93</ele>
        <time>2022-05-20T23:53:59Z</time>
      </trkpt>
      <trkpt lat="48.34332" lon="-3.68143">
        <ele>97</ele>
        <time>2022-05-20T23:54:18Z</time>
      </trkpt>
      <trkpt lat="48.34313" lon="-3.68146">
        <ele>98</ele>
        <time>2022-05-20T23:54:21Z</time>
      </trkpt>
      <trkpt lat="48.34305" lon="-3.68137">
        <ele>97</ele>
        <time>2022-05-20T23:54:23Z</time>
      </trkpt>
      <trkpt lat="48.34264" lon="-3.68118">
        <ele>96</ele>
        <time>2022-05-20T23:54:31Z</time>
      </trkpt>
      <trkpt lat="48.34235" lon="-3.681">
        <ele>95</ele>
        <time>2022-05-20T23:54:36Z</time>
      </trkpt>
      <trkpt lat="48.34229" lon="-3.68089">
        <ele>93</ele>
        <time>2022-05-20T23:54:38Z</time>
      </trkpt>
      <trkpt lat="48.34202" lon="-3.68066">
        <ele>93</ele>
        <time>2022-05-20T23:54:44Z</time>
      </trkpt>
      <trkpt lat="48.34178" lon="-3.68032">
        <ele>90</ele>
        <time>2022-05-20T23:54:49Z</time>
      </trkpt>
      <trkpt lat="48.34155" lon="-3.6798">
        <ele>85</ele>
        <time>2022-05-20T23:54:57Z</time>
      </trkpt>
      <trkpt lat="48.34136" lon="-3.67907">
        <ele>85</ele>
        <time>2022-05-20T23:55:06Z</time>
      </trkpt>
      <trkpt lat="48.34132" lon="-3.67844">
        <ele>91</ele>
        <time>2022-05-20T23:55:14Z</time>
      </trkpt>
      <trkpt lat="48.34122" lon="-3.6777">
        <ele>98</ele>
        <time>2022-05-20T23:55:22Z</time>
      </trkpt>
      <trkpt lat="48.34113" lon="-3.67723">
        <ele>102</ele>
        <time>2022-05-20T23:55:28Z</time>
      </trkpt>
      <trkpt lat="48.34116" lon="-3.67695">
        <ele>103</ele>
        <time>2022-05-20T23:55:32Z</time>
      </trkpt>
      <trkpt lat="48.34114" lon="-3.67664">
        <ele>104</ele>
        <time>2022-05-20T23:55:35Z</time>
      </trkpt>
      <trkpt lat="48.34118" lon="-3.67635">
        <ele>103</ele>
        <time>2022-05-20T23:55:39Z</time>
      </trkpt>
      <trkpt lat="48.34127" lon="-3.67587">
        <ele>102</ele>
        <time>2022-05-20T23:55:45Z</time>
      </trkpt>
      <trkpt lat="48.34146" lon="-3.67534">
        <ele>99</ele>
        <time>2022-05-20T23:55:52Z</time>
      </trkpt>
      <trkpt lat="48.34182" lon="-3.67462">
        <ele>99</ele>
        <time>2022-05-20T23:56:02Z</time>
      </trkpt>
      <trkpt lat="48.34193" lon="-3.67434">
        <ele>100</ele>
        <time>2022-05-20T23:56:06Z</time>
      </trkpt>
      <trkpt lat="48.34207" lon="-3.67411">
        <ele>100</ele>
        <time>2022-05-20T23:56:10Z</time>
      </trkpt>
      <trkpt lat="48.34223" lon="-3.67371">
        <ele>101</ele>
        <time>2022-05-20T23:56:16Z</time>
      </trkpt>
      <trkpt lat="48.34253" lon="-3.67311">
        <ele>103</ele>
        <time>2022-05-20T23:56:24Z</time>
      </trkpt>
      <trkpt lat="48.34266" lon="-3.67267">
        <ele>105</ele>
        <time>2022-05-20T23:56:30Z</time>
      </trkpt>
      <trkpt lat="48.34275" lon="-3.67218">
        <ele>105</ele>
        <time>2022-05-20T23:56:36Z</time>
      </trkpt>
      <trkpt lat="48.34277" lon="-3.67172">
        <ele>105</ele>
        <time>2022-05-20T23:56:42Z</time>
      </trkpt>
      <trkpt lat="48.34275" lon="-3.67081">
        <ele>105</ele>
        <time>2022-05-20T23:56:52Z</time>
      </trkpt>
      <trkpt lat="48.34276" lon="-3.67047">
        <ele>105</ele>
        <time>2022-05-20T23:56:56Z</time>
      </trkpt>
      <trkpt lat="48.34281" lon="-3.67">
        <ele>105</ele>
        <time>2022-05-20T23:57:02Z</time>
      </trkpt>
      <trkpt lat="48.34309" lon="-3.66887">
        <ele>103</ele>
        <time>2022-05-20T23:57:16Z</time>
      </trkpt>
      <trkpt lat="48.34321" lon="-3.66808">
        <ele>102</ele>
        <time>2022-05-20T23:57:26Z</time>
      </trkpt>
      <trkpt lat="48.3432" lon="-3.66765">
        <ele>102</ele>
        <time>2022-05-20T23:57:31Z</time>
      </trkpt>
      <trkpt lat="48.34309" lon="-3.66688">
        <ele>103</ele>
        <time>2022-05-20T23:57:40Z</time>
      </trkpt>
      <trkpt lat="48.34304" lon="-3.66674">
        <ele>103</ele>
        <time>2022-05-20T23:57:42Z</time>
      </trkpt>
      <trkpt lat="48.34292" lon="-3.66613">
        <ele>105</ele>
        <time>2022-05-20T23:57:50Z</time>
      </trkpt>
      <trkpt lat="48.34285" lon="-3.66535">
        <ele>107</ele>
        <time>2022-05-20T23:57:59Z</time>
      </trkpt>
      <trkpt lat="48.34289" lon="-3.66424">
        <ele>107</ele>
        <time>2022-05-20T23:58:12Z</time>
      </trkpt>
      <trkpt lat="48.34301" lon="-3.66244">
        <ele>109</ele>
        <time>2022-05-20T23:58:33Z</time>
      </trkpt>
      <trkpt lat="48.34307" lon="-3.66055">
        <ele>113</ele>
        <time>2022-05-20T23:58:56Z</time>
      </trkpt>
      <trkpt lat="48.34303" lon="-3.6601">
        <ele>116</ele>
        <time>2022-05-20T23:59:01Z</time>
      </trkpt>
      <trkpt lat="48.34266" lon="-3.65876">
        <ele>123</ele>
        <time>2022-05-20T23:59:18Z</time>
      </trkpt>
      <trkpt lat="48.3421" lon="-3.65716">
        <ele>130</ele>
        <time>2022-05-20T23:59:40Z</time>
      </trkpt>
      <trkpt lat="48.34198" lon="-3.65691">
        <ele>131</ele>
        <time>2022-05-20T23:59:43Z</time>
      </trkpt>
      <trkpt lat="48.34157" lon="-3.65629">
        <ele>131</ele>
        <time>2022-05-20T23:59:54Z</time>
      </trkpt>
      <trkpt lat="48.34091" lon="-3.65569">
        <ele>130</ele>
        <time>2022-05-21T00:00:07Z</time>
      </trkpt>
      <trkpt lat="48.34063" lon="-3.65548">
        <ele>130</ele>
        <time>2022-05-21T00:00:13Z</time>
      </trkpt>
      <trkpt lat="48.34038" lon="-3.6552">
        <ele>131</ele>
        <time>2022-05-21T00:00:19Z</time>
      </trkpt>
      <trkpt lat="48.34014" lon="-3.65489">
        <ele>131</ele>
        <time>2022-05-21T00:00:24Z</time>
      </trkpt>
      <trkpt lat="48.33999" lon="-3.65464">
        <ele>131</ele>
        <time>2022-05-21T00:00:28Z</time>
      </trkpt>
      <trkpt lat="48.33992" lon="-3.65445">
        <ele>129</ele>
        <time>2022-05-21T00:00:31Z</time>
      </trkpt>
      <trkpt lat="48.33984" lon="-3.65432">
        <ele>128</ele>
        <time>2022-05-21T00:00:33Z</time>
      </trkpt>
      <trkpt lat="48.33975" lon="-3.65403">
        <ele>127</ele>
        <time>2022-05-21T00:00:37Z</time>
      </trkpt>
      <trkpt lat="48.33961" lon="-3.65337">
        <ele>126</ele>
        <time>2022-05-21T00:00:45Z</time>
      </trkpt>
      <trkpt lat="48.3396" lon="-3.65306">
        <ele>126</ele>
        <time>2022-05-21T00:00:49Z</time>
      </trkpt>
      <trkpt lat="48.33966" lon="-3.65239">
        <ele>128</ele>
        <time>2022-05-21T00:00:56Z</time>
      </trkpt>
      <trkpt lat="48.33998" lon="-3.65025">
        <ele>132</ele>
        <time>2022-05-21T00:01:22Z</time>
      </trkpt>
      <trkpt lat="48.34" lon="-3.64959">
        <ele>134</ele>
        <time>2022-05-21T00:01:30Z</time>
      </trkpt>
      <trkpt lat="48.3399" lon="-3.64875">
        <ele>136</ele>
        <time>2022-05-21T00:01:40Z</time>
      </trkpt>
      <trkpt lat="48.33964" lon="-3.64799">
        <ele>138</ele>
        <time>2022-05-21T00:01:50Z</time>
      </trkpt>
      <trkpt lat="48.33937" lon="-3.64747">
        <ele>140</ele>
        <time>2022-05-21T00:01:58Z</time>
      </trkpt>
      <trkpt lat="48.33823" lon="-3.64605">
        <ele>147</ele>
        <time>2022-05-21T00:02:25Z</time>
      </trkpt>
      <trkpt lat="48.3377" lon="-3.6453">
        <ele>146</ele>
        <time>2022-05-21T00:02:38Z</time>
      </trkpt>
      <trkpt lat="48.3375" lon="-3.64507">
        <ele>145</ele>
        <time>2022-05-21T00:02:42Z</time>
      </trkpt>
      <trkpt lat="48.33724" lon="-3.64465">
        <ele>145</ele>
        <time>2022-05-21T00:02:49Z</time>
      </trkpt>
      <trkpt lat="48.33704" lon="-3.64416">
        <ele>145</ele>
        <time>2022-05-21T00:02:56Z</time>
      </trkpt>
      <trkpt lat="48.33694" lon="-3.64381">
        <ele>145</ele>
        <time>2022-05-21T00:03:00Z</time>
      </trkpt>
      <trkpt lat="48.33687" lon="-3.64345">
        <ele>145</ele>
        <time>2022-05-21T00:03:05Z</time>
      </trkpt>
      <trkpt lat="48.3368" lon="-3.64271">
        <ele>146</ele>
        <time>2022-05-21T00:03:13Z</time>
      </trkpt>
      <trkpt lat="48.3368" lon="-3.64224">
        <ele>147</ele>
        <time>2022-05-21T00:03:19Z</time>
      </trkpt>
      <trkpt lat="48.33701" lon="-3.63972">
        <ele>153</ele>
        <time>2022-05-21T00:03:49Z</time>
      </trkpt>
      <trkpt lat="48.33698" lon="-3.63924">
        <ele>154</ele>
        <time>2022-05-21T00:03:55Z</time>
      </trkpt>
      <trkpt lat="48.33692" lon="-3.63878">
        <ele>155</ele>
        <time>2022-05-21T00:04:00Z</time>
      </trkpt>
      <trkpt lat="48.33686" lon="-3.63848">
        <ele>155</ele>
        <time>2022-05-21T00:04:04Z</time>
      </trkpt>
      <trkpt lat="48.33677" lon="-3.63819">
        <ele>155</ele>
        <time>2022-05-21T00:04:08Z</time>
      </trkpt>
      <trkpt lat="48.33637" lon="-3.6373">
        <ele>156</ele>
        <time>2022-05-21T00:04:20Z</time>
      </trkpt>
      <trkpt lat="48.33615" lon="-3.63674">
        <ele>158</ele>
        <time>2022-05-21T00:04:28Z</time>
      </trkpt>
      <trkpt lat="48.33607" lon="-3.63665">
        <ele>157</ele>
        <time>2022-05-21T00:04:30Z</time>
      </trkpt>
      <trkpt lat="48.33596" lon="-3.63662">
        <ele>157</ele>
        <time>2022-05-21T00:04:32Z</time>
      </trkpt>
      <trkpt lat="48.33587" lon="-3.63652">
        <ele>156</ele>
        <time>2022-05-21T00:04:34Z</time>
      </trkpt>
      <trkpt lat="48.33573" lon="-3.63621">
        <ele>156</ele>
        <time>2022-05-21T00:04:38Z</time>
      </trkpt>
      <trkpt lat="48.3352" lon="-3.63486">
        <ele>157</ele>
        <time>2022-05-21T00:04:57Z</time>
      </trkpt>
      <trkpt lat="48.33514" lon="-3.63456">
        <ele>157</ele>
        <time>2022-05-21T00:05:01Z</time>
      </trkpt>
      <trkpt lat="48.335" lon="-3.63415">
        <ele>156</ele>
        <time>2022-05-21T00:05:06Z</time>
      </trkpt>
      <trkpt lat="48.33494" lon="-3.63384">
        <ele>156</ele>
        <time>2022-05-21T00:05:10Z</time>
      </trkpt>
      <trkpt lat="48.33485" lon="-3.63356">
        <ele>155</ele>
        <time>2022-05-21T00:05:14Z</time>
      </trkpt>
      <trkpt lat="48.33395" lon="-3.63134">
        <ele>155</ele>
        <time>2022-05-21T00:05:44Z</time>
      </trkpt>
      <trkpt lat="48.33374" lon="-3.6309">
        <ele>156</ele>
        <time>2022-05-21T00:05:51Z</time>
      </trkpt>
      <trkpt lat="48.33348" lon="-3.63048">
        <ele>157</ele>
        <time>2022-05-21T00:05:57Z</time>
      </trkpt>
      <trkpt lat="48.33308" lon="-3.62995">
        <ele>160</ele>
        <time>2022-05-21T00:06:07Z</time>
      </trkpt>
      <trkpt lat="48.33238" lon="-3.62911">
        <ele>161</ele>
        <time>2022-05-21T00:06:23Z</time>
      </trkpt>
      <trkpt lat="48.33216" lon="-3.6288">
        <ele>162</ele>
        <time>2022-05-21T00:06:28Z</time>
      </trkpt>
      <trkpt lat="48.33204" lon="-3.62856">
        <ele>162</ele>
        <time>2022-05-21T00:06:32Z</time>
      </trkpt>
      <trkpt lat="48.3319" lon="-3.62836">
        <ele>163</ele>
        <time>2022-05-21T00:06:35Z</time>
      </trkpt>
      <trkpt lat="48.33144" lon="-3.6274">
        <ele>160</ele>
        <time>2022-05-21T00:06:49Z</time>
      </trkpt>
      <trkpt lat="48.33113" lon="-3.62647">
        <ele>159</ele>
        <time>2022-05-21T00:07:02Z</time>
      </trkpt>
      <trkpt lat="48.33098" lon="-3.6257">
        <ele>159</ele>
        <time>2022-05-21T00:07:11Z</time>
      </trkpt>
      <trkpt lat="48.33055" lon="-3.62217">
        <ele>154</ele>
        <time>2022-05-21T00:07:53Z</time>
      </trkpt>
      <trkpt lat="48.33043" lon="-3.62147">
        <ele>157</ele>
        <time>2022-05-21T00:08:02Z</time>
      </trkpt>
      <trkpt lat="48.33033" lon="-3.62061">
        <ele>158</ele>
        <time>2022-05-21T00:08:12Z</time>
      </trkpt>
      <trkpt lat="48.33033" lon="-3.62044">
        <ele>157</ele>
        <time>2022-05-21T00:08:14Z</time>
      </trkpt>
      <trkpt lat="48.33017" lon="-3.61928">
        <ele>154</ele>
        <time>2022-05-21T00:08:28Z</time>
      </trkpt>
      <trkpt lat="48.33005" lon="-3.61817">
        <ele>156</ele>
        <time>2022-05-21T00:08:42Z</time>
      </trkpt>
      <trkpt lat="48.32996" lon="-3.6176">
        <ele>156</ele>
        <time>2022-05-21T00:08:49Z</time>
      </trkpt>
      <trkpt lat="48.32957" lon="-3.61449">
        <ele>153</ele>
        <time>2022-05-21T00:09:26Z</time>
      </trkpt>
      <trkpt lat="48.32951" lon="-3.61416">
        <ele>153</ele>
        <time>2022-05-21T00:09:30Z</time>
      </trkpt>
      <trkpt lat="48.32937" lon="-3.6129">
        <ele>154</ele>
        <time>2022-05-21T00:09:45Z</time>
      </trkpt>
      <trkpt lat="48.32931" lon="-3.61257">
        <ele>153</ele>
        <time>2022-05-21T00:09:49Z</time>
      </trkpt>
      <trkpt lat="48.32909" lon="-3.61071">
        <ele>153</ele>
        <time>2022-05-21T00:10:12Z</time>
      </trkpt>
      <trkpt lat="48.32897" lon="-3.6099">
        <ele>152</ele>
        <time>2022-05-21T00:10:21Z</time>
      </trkpt>
      <trkpt lat="48.32886" lon="-3.60883">
        <ele>152</ele>
        <time>2022-05-21T00:10:34Z</time>
      </trkpt>
      <trkpt lat="48.32857" lon="-3.6068">
        <ele>152</ele>
        <time>2022-05-21T00:10:59Z</time>
      </trkpt>
      <trkpt lat="48.32854" lon="-3.60642">
        <ele>152</ele>
        <time>2022-05-21T00:11:03Z</time>
      </trkpt>
      <trkpt lat="48.32845" lon="-3.60593">
        <ele>153</ele>
        <time>2022-05-21T00:11:09Z</time>
      </trkpt>
      <trkpt lat="48.32832" lon="-3.60549">
        <ele>154</ele>
        <time>2022-05-21T00:11:15Z</time>
      </trkpt>
      <trkpt lat="48.32822" lon="-3.60521">
        <ele>155</ele>
        <time>2022-05-21T00:11:19Z</time>
      </trkpt>
      <trkpt lat="48.32802" lon="-3.60485">
        <ele>157</ele>
        <time>2022-05-21T00:11:24Z</time>
      </trkpt>
      <trkpt lat="48.32776" lon="-3.60453">
        <ele>157</ele>
        <time>2022-05-21T00:11:30Z</time>
      </trkpt>
      <trkpt lat="48.32757" lon="-3.60436">
        <ele>156</ele>
        <time>2022-05-21T00:11:34Z</time>
      </trkpt>
      <trkpt lat="48.32747" lon="-3.6043">
        <ele>155</ele>
        <time>2022-05-21T00:11:36Z</time>
      </trkpt>
      <trkpt lat="48.32658" lon="-3.60393">
        <ele>157</ele>
        <time>2022-05-21T00:11:53Z</time>
      </trkpt>
      <trkpt lat="48.3264" lon="-3.60383">
        <ele>157</ele>
        <time>2022-05-21T00:11:56Z</time>
      </trkpt>
      <trkpt lat="48.32631" lon="-3.60377">
        <ele>157</ele>
        <time>2022-05-21T00:11:58Z</time>
      </trkpt>
      <trkpt lat="48.32599" lon="-3.60344">
        <ele>154</ele>
        <time>2022-05-21T00:12:05Z</time>
      </trkpt>
      <trkpt lat="48.3256" lon="-3.60277">
        <ele>154</ele>
        <time>2022-05-21T00:12:15Z</time>
      </trkpt>
      <trkpt lat="48.3253" lon="-3.60183">
        <ele>154</ele>
        <time>2022-05-21T00:12:28Z</time>
      </trkpt>
      <trkpt lat="48.32513" lon="-3.60109">
        <ele>151</ele>
        <time>2022-05-21T00:12:37Z</time>
      </trkpt>
      <trkpt lat="48.32487" lon="-3.60054">
        <ele>148</ele>
        <time>2022-05-21T00:12:45Z</time>
      </trkpt>
      <trkpt lat="48.32465" lon="-3.60014">
        <ele>146</ele>
        <time>2022-05-21T00:12:51Z</time>
      </trkpt>
      <trkpt lat="48.32446" lon="-3.59994">
        <ele>144</ele>
        <time>2022-05-21T00:12:55Z</time>
      </trkpt>
      <trkpt lat="48.32427" lon="-3.59968">
        <ele>143</ele>
        <time>2022-05-21T00:13:00Z</time>
      </trkpt>
      <trkpt lat="48.32406" lon="-3.59932">
        <ele>141</ele>
        <time>2022-05-21T00:13:05Z</time>
      </trkpt>
      <trkpt lat="48.32372" lon="-3.5989">
        <ele>140</ele>
        <time>2022-05-21T00:13:13Z</time>
      </trkpt>
      <trkpt lat="48.32366" lon="-3.59879">
        <ele>139</ele>
        <time>2022-05-21T00:13:15Z</time>
      </trkpt>
      <trkpt lat="48.32358" lon="-3.59871">
        <ele>139</ele>
        <time>2022-05-21T00:13:17Z</time>
      </trkpt>
      <trkpt lat="48.32334" lon="-3.59837">
        <ele>136</ele>
        <time>2022-05-21T00:13:22Z</time>
      </trkpt>
      <trkpt lat="48.32308" lon="-3.59808">
        <ele>135</ele>
        <time>2022-05-21T00:13:28Z</time>
      </trkpt>
      <trkpt lat="48.32289" lon="-3.59781">
        <ele>133</ele>
        <time>2022-05-21T00:13:33Z</time>
      </trkpt>
      <trkpt lat="48.32235" lon="-3.59726">
        <ele>127</ele>
        <time>2022-05-21T00:13:44Z</time>
      </trkpt>
      <trkpt lat="48.32215" lon="-3.59709">
        <ele>126</ele>
        <time>2022-05-21T00:13:48Z</time>
      </trkpt>
      <trkpt lat="48.3218" lon="-3.5969">
        <ele>125</ele>
        <time>2022-05-21T00:13:55Z</time>
      </trkpt>
      <trkpt lat="48.32162" lon="-3.59683">
        <ele>125</ele>
        <time>2022-05-21T00:13:58Z</time>
      </trkpt>
      <trkpt lat="48.3214" lon="-3.59682">
        <ele>125</ele>
        <time>2022-05-21T00:14:02Z</time>
      </trkpt>
      <trkpt lat="48.32104" lon="-3.59689">
        <ele>126</ele>
        <time>2022-05-21T00:14:09Z</time>
      </trkpt>
      <trkpt lat="48.3208" lon="-3.59697">
        <ele>126</ele>
        <time>2022-05-21T00:14:13Z</time>
      </trkpt>
      <trkpt lat="48.3207" lon="-3.59703">
        <ele>127</ele>
        <time>2022-05-21T00:14:15Z</time>
      </trkpt>
      <trkpt lat="48.32032" lon="-3.59734">
        <ele>128</ele>
        <time>2022-05-21T00:14:23Z</time>
      </trkpt>
      <trkpt lat="48.31948" lon="-3.59821">
        <ele>132</ele>
        <time>2022-05-21T00:14:41Z</time>
      </trkpt>
      <trkpt lat="48.31831" lon="-3.59931">
        <ele>136</ele>
        <time>2022-05-21T00:15:05Z</time>
      </trkpt>
      <trkpt lat="48.31792" lon="-3.5996">
        <ele>134</ele>
        <time>2022-05-21T00:15:13Z</time>
      </trkpt>
      <trkpt lat="48.31771" lon="-3.59971">
        <ele>134</ele>
        <time>2022-05-21T00:15:17Z</time>
      </trkpt>
      <trkpt lat="48.3174" lon="-3.59982">
        <ele>133</ele>
        <time>2022-05-21T00:15:23Z</time>
      </trkpt>
      <trkpt lat="48.31694" lon="-3.59988">
        <ele>131</ele>
        <time>2022-05-21T00:15:31Z</time>
      </trkpt>
      <trkpt lat="48.31638" lon="-3.59981">
        <ele>130</ele>
        <time>2022-05-21T00:15:41Z</time>
      </trkpt>
      <trkpt lat="48.31616" lon="-3.59973">
        <ele>130</ele>
        <time>2022-05-21T00:15:45Z</time>
      </trkpt>
      <trkpt lat="48.31584" lon="-3.59957">
        <ele>130</ele>
        <time>2022-05-21T00:15:51Z</time>
      </trkpt>
      <trkpt lat="48.31544" lon="-3.59925">
        <ele>132</ele>
        <time>2022-05-21T00:15:59Z</time>
      </trkpt>
      <trkpt lat="48.31517" lon="-3.59897">
        <ele>133</ele>
        <time>2022-05-21T00:16:05Z</time>
      </trkpt>
      <trkpt lat="48.31493" lon="-3.59865">
        <ele>133</ele>
        <time>2022-05-21T00:16:11Z</time>
      </trkpt>
      <trkpt lat="48.31471" lon="-3.59825">
        <ele>133</ele>
        <time>2022-05-21T00:16:17Z</time>
      </trkpt>
      <trkpt lat="48.31457" lon="-3.59793">
        <ele>133</ele>
        <time>2022-05-21T00:16:21Z</time>
      </trkpt>
      <trkpt lat="48.31444" lon="-3.59757">
        <ele>133</ele>
        <time>2022-05-21T00:16:26Z</time>
      </trkpt>
      <trkpt lat="48.31427" lon="-3.59696">
        <ele>132</ele>
        <time>2022-05-21T00:16:34Z</time>
      </trkpt>
      <trkpt lat="48.31371" lon="-3.59467">
        <ele>129</ele>
        <time>2022-05-21T00:17:03Z</time>
      </trkpt>
      <trkpt lat="48.31341" lon="-3.59354">
        <ele>131</ele>
        <time>2022-05-21T00:17:17Z</time>
      </trkpt>
      <trkpt lat="48.31274" lon="-3.59074">
        <ele>132</ele>
        <time>2022-05-21T00:17:53Z</time>
      </trkpt>
      <trkpt lat="48.31245" lon="-3.5896">
        <ele>132</ele>
        <time>2022-05-21T00:18:07Z</time>
      </trkpt>
      <trkpt lat="48.31228" lon="-3.58907">
        <ele>134</ele>
        <time>2022-05-21T00:18:14Z</time>
      </trkpt>
      <trkpt lat="48.3119" lon="-3.58752">
        <ele>138</ele>
        <time>2022-05-21T00:18:33Z</time>
      </trkpt>
      <trkpt lat="48.31185" lon="-3.58719">
        <ele>138</ele>
        <time>2022-05-21T00:18:37Z</time>
      </trkpt>
      <trkpt lat="48.31162" lon="-3.58622">
        <ele>137</ele>
        <time>2022-05-21T00:18:50Z</time>
      </trkpt>
      <trkpt lat="48.31156" lon="-3.58609">
        <ele>137</ele>
        <time>2022-05-21T00:18:52Z</time>
      </trkpt>
      <trkpt lat="48.31094" lon="-3.58349">
        <ele>133</ele>
        <time>2022-05-21T00:19:24Z</time>
      </trkpt>
      <trkpt lat="48.31088" lon="-3.58334">
        <ele>133</ele>
        <time>2022-05-21T00:19:26Z</time>
      </trkpt>
      <trkpt lat="48.31076" lon="-3.58274">
        <ele>133</ele>
        <time>2022-05-21T00:19:34Z</time>
      </trkpt>
      <trkpt lat="48.31067" lon="-3.58244">
        <ele>132</ele>
        <time>2022-05-21T00:19:38Z</time>
      </trkpt>
      <trkpt lat="48.31051" lon="-3.58171">
        <ele>133</ele>
        <time>2022-05-21T00:19:47Z</time>
      </trkpt>
      <trkpt lat="48.31034" lon="-3.58117">
        <ele>133</ele>
        <time>2022-05-21T00:19:54Z</time>
      </trkpt>
      <trkpt lat="48.31017" lon="-3.58038">
        <ele>133</ele>
        <time>2022-05-21T00:20:04Z</time>
      </trkpt>
      <trkpt lat="48.30976" lon="-3.57878">
        <ele>135</ele>
        <time>2022-05-21T00:20:24Z</time>
      </trkpt>
      <trkpt lat="48.30933" lon="-3.57757">
        <ele>135</ele>
        <time>2022-05-21T00:20:40Z</time>
      </trkpt>
      <trkpt lat="48.30897" lon="-3.57671">
        <ele>135</ele>
        <time>2022-05-21T00:20:52Z</time>
      </trkpt>
      <trkpt lat="48.30885" lon="-3.57648">
        <ele>134</ele>
        <time>2022-05-21T00:20:56Z</time>
      </trkpt>
      <trkpt lat="48.30838" lon="-3.57525">
        <ele>131</ele>
        <time>2022-05-21T00:21:12Z</time>
      </trkpt>
      <trkpt lat="48.30732" lon="-3.57308">
        <ele>125</ele>
        <time>2022-05-21T00:21:44Z</time>
      </trkpt>
      <trkpt lat="48.30696" lon="-3.57263">
        <ele>124</ele>
        <time>2022-05-21T00:21:53Z</time>
      </trkpt>
      <trkpt lat="48.30676" lon="-3.57245">
        <ele>123</ele>
        <time>2022-05-21T00:21:57Z</time>
      </trkpt>
      <trkpt lat="48.30644" lon="-3.57225">
        <ele>123</ele>
        <time>2022-05-21T00:22:03Z</time>
      </trkpt>
      <trkpt lat="48.306" lon="-3.57208">
        <ele>122</ele>
        <time>2022-05-21T00:22:11Z</time>
      </trkpt>
      <trkpt lat="48.30588" lon="-3.57209">
        <ele>122</ele>
        <time>2022-05-21T00:22:13Z</time>
      </trkpt>
      <trkpt lat="48.30577" lon="-3.57206">
        <ele>122</ele>
        <time>2022-05-21T00:22:15Z</time>
      </trkpt>
      <trkpt lat="48.3054" lon="-3.57205">
        <ele>122</ele>
        <time>2022-05-21T00:22:22Z</time>
      </trkpt>
      <trkpt lat="48.30529" lon="-3.57207">
        <ele>122</ele>
        <time>2022-05-21T00:22:24Z</time>
      </trkpt>
      <trkpt lat="48.30492" lon="-3.57207">
        <ele>122</ele>
        <time>2022-05-21T00:22:30Z</time>
      </trkpt>
      <trkpt lat="48.30469" lon="-3.57205">
        <ele>122</ele>
        <time>2022-05-21T00:22:34Z</time>
      </trkpt>
      <trkpt lat="48.30458" lon="-3.57201">
        <ele>122</ele>
        <time>2022-05-21T00:22:36Z</time>
      </trkpt>
      <trkpt lat="48.30427" lon="-3.57184">
        <ele>121</ele>
        <time>2022-05-21T00:22:42Z</time>
      </trkpt>
      <trkpt lat="48.30393" lon="-3.57156">
        <ele>122</ele>
        <time>2022-05-21T00:22:49Z</time>
      </trkpt>
      <trkpt lat="48.30382" lon="-3.57145">
        <ele>122</ele>
        <time>2022-05-21T00:22:51Z</time>
      </trkpt>
      <trkpt lat="48.30363" lon="-3.57117">
        <ele>122</ele>
        <time>2022-05-21T00:22:56Z</time>
      </trkpt>
      <trkpt lat="48.30341" lon="-3.57075">
        <ele>121</ele>
        <time>2022-05-21T00:23:03Z</time>
      </trkpt>
      <trkpt lat="48.30322" lon="-3.57013">
        <ele>120</ele>
        <time>2022-05-21T00:23:11Z</time>
      </trkpt>
      <trkpt lat="48.30316" lon="-3.57">
        <ele>119</ele>
        <time>2022-05-21T00:23:12Z</time>
      </trkpt>
      <trkpt lat="48.30232" lon="-3.56677">
        <ele>107</ele>
        <time>2022-05-21T00:23:54Z</time>
      </trkpt>
      <trkpt lat="48.30214" lon="-3.56627">
        <ele>107</ele>
        <time>2022-05-21T00:24:00Z</time>
      </trkpt>
      <trkpt lat="48.30176" lon="-3.56546">
        <ele>105</ele>
        <time>2022-05-21T00:24:12Z</time>
      </trkpt>
      <trkpt lat="48.30061" lon="-3.56366">
        <ele>102</ele>
        <time>2022-05-21T00:24:42Z</time>
      </trkpt>
      <trkpt lat="48.30024" lon="-3.56314">
        <ele>101</ele>
        <time>2022-05-21T00:24:51Z</time>
      </trkpt>
      <trkpt lat="48.29943" lon="-3.56186">
        <ele>97</ele>
        <time>2022-05-21T00:25:11Z</time>
      </trkpt>
      <trkpt lat="48.29703" lon="-3.55826">
        <ele>85</ele>
        <time>2022-05-21T00:26:12Z</time>
      </trkpt>
      <trkpt lat="48.29657" lon="-3.55747">
        <ele>85</ele>
        <time>2022-05-21T00:26:24Z</time>
      </trkpt>
      <trkpt lat="48.29648" lon="-3.55737">
        <ele>85</ele>
        <time>2022-05-21T00:26:26Z</time>
      </trkpt>
      <trkpt lat="48.29614" lon="-3.55682">
        <ele>89</ele>
        <time>2022-05-21T00:26:35Z</time>
      </trkpt>
      <trkpt lat="48.29573" lon="-3.55623">
        <ele>92</ele>
        <time>2022-05-21T00:26:45Z</time>
      </trkpt>
      <trkpt lat="48.29553" lon="-3.55608">
        <ele>93</ele>
        <time>2022-05-21T00:26:49Z</time>
      </trkpt>
      <trkpt lat="48.29508" lon="-3.55546">
        <ele>95</ele>
        <time>2022-05-21T00:27:00Z</time>
      </trkpt>
      <trkpt lat="48.29499" lon="-3.55538">
        <ele>95</ele>
        <time>2022-05-21T00:27:02Z</time>
      </trkpt>
      <trkpt lat="48.29482" lon="-3.5554">
        <ele>95</ele>
        <time>2022-05-21T00:27:05Z</time>
      </trkpt>
      <trkpt lat="48.29474" lon="-3.55529">
        <ele>94</ele>
        <time>2022-05-21T00:27:07Z</time>
      </trkpt>
      <trkpt lat="48.29457" lon="-3.55471">
        <ele>93</ele>
        <time>2022-05-21T00:27:14Z</time>
      </trkpt>
      <trkpt lat="48.29446" lon="-3.55467">
        <ele>93</ele>
        <time>2022-05-21T00:27:16Z</time>
      </trkpt>
      <trkpt lat="48.29418" lon="-3.55479">
        <ele>91</ele>
        <time>2022-05-21T00:27:22Z</time>
      </trkpt>
      <trkpt lat="48.29348" lon="-3.55516">
        <ele>92</ele>
        <time>2022-05-21T00:27:35Z</time>
      </trkpt>
      <trkpt lat="48.29321" lon="-3.55535">
        <ele>93</ele>
        <time>2022-05-21T00:27:40Z</time>
      </trkpt>
      <trkpt lat="48.29312" lon="-3.55544">
        <ele>93</ele>
        <time>2022-05-21T00:27:42Z</time>
      </trkpt>
      <trkpt lat="48.29304" lon="-3.55553">
        <ele>93</ele>
        <time>2022-05-21T00:27:44Z</time>
      </trkpt>
      <trkpt lat="48.29291" lon="-3.55577">
        <ele>94</ele>
        <time>2022-05-21T00:27:47Z</time>
      </trkpt>
      <trkpt lat="48.29284" lon="-3.55584">
        <ele>94</ele>
        <time>2022-05-21T00:27:49Z</time>
      </trkpt>
      <trkpt lat="48.29274" lon="-3.55588">
        <ele>93</ele>
        <time>2022-05-21T00:27:51Z</time>
      </trkpt>
      <trkpt lat="48.29242" lon="-3.55587">
        <ele>93</ele>
        <time>2022-05-21T00:27:56Z</time>
      </trkpt>
      <trkpt lat="48.2922" lon="-3.55591">
        <ele>94</ele>
        <time>2022-05-21T00:28:00Z</time>
      </trkpt>
      <trkpt lat="48.29098" lon="-3.55645">
        <ele>100</ele>
        <time>2022-05-21T00:28:23Z</time>
      </trkpt>
      <trkpt lat="48.29016" lon="-3.55672">
        <ele>100</ele>
        <time>2022-05-21T00:28:38Z</time>
      </trkpt>
      <trkpt lat="48.28935" lon="-3.55719">
        <ele>99</ele>
        <time>2022-05-21T00:28:53Z</time>
      </trkpt>
      <trkpt lat="48.28876" lon="-3.55765">
        <ele>100</ele>
        <time>2022-05-21T00:29:05Z</time>
      </trkpt>
      <trkpt lat="48.28841" lon="-3.558">
        <ele>102</ele>
        <time>2022-05-21T00:29:13Z</time>
      </trkpt>
      <trkpt lat="48.28827" lon="-3.55822">
        <ele>103</ele>
        <time>2022-05-21T00:29:16Z</time>
      </trkpt>
      <trkpt lat="48.28806" lon="-3.55879">
        <ele>106</ele>
        <time>2022-05-21T00:29:24Z</time>
      </trkpt>
      <trkpt lat="48.28795" lon="-3.55902">
        <ele>108</ele>
        <time>2022-05-21T00:29:27Z</time>
      </trkpt>
      <trkpt lat="48.28792" lon="-3.55917">
        <ele>109</ele>
        <time>2022-05-21T00:29:29Z</time>
      </trkpt>
      <trkpt lat="48.28714" lon="-3.56091">
        <ele>115</ele>
        <time>2022-05-21T00:29:54Z</time>
      </trkpt>
      <trkpt lat="48.28702" lon="-3.56113">
        <ele>115</ele>
        <time>2022-05-21T00:29:57Z</time>
      </trkpt>
      <trkpt lat="48.28664" lon="-3.56167">
        <ele>113</ele>
        <time>2022-05-21T00:30:07Z</time>
      </trkpt>
      <trkpt lat="48.28646" lon="-3.56185">
        <ele>114</ele>
        <time>2022-05-21T00:30:11Z</time>
      </trkpt>
      <trkpt lat="48.28616" lon="-3.56207">
        <ele>115</ele>
        <time>2022-05-21T00:30:17Z</time>
      </trkpt>
      <trkpt lat="48.28604" lon="-3.56211">
        <ele>116</ele>
        <time>2022-05-21T00:30:19Z</time>
      </trkpt>
      <trkpt lat="48.28581" lon="-3.56212">
        <ele>116</ele>
        <time>2022-05-21T00:30:23Z</time>
      </trkpt>
      <trkpt lat="48.28557" lon="-3.56208">
        <ele>117</ele>
        <time>2022-05-21T00:30:27Z</time>
      </trkpt>
      <trkpt lat="48.28532" lon="-3.56207">
        <ele>117</ele>
        <time>2022-05-21T00:30:32Z</time>
      </trkpt>
      <trkpt lat="48.28485" lon="-3.56196">
        <ele>118</ele>
        <time>2022-05-21T00:30:40Z</time>
      </trkpt>
      <trkpt lat="48.28472" lon="-3.56196">
        <ele>118</ele>
        <time>2022-05-21T00:30:42Z</time>
      </trkpt>
      <trkpt lat="48.28448" lon="-3.56203">
        <ele>118</ele>
        <time>2022-05-21T00:30:47Z</time>
      </trkpt>
      <trkpt lat="48.28436" lon="-3.56204">
        <ele>118</ele>
        <time>2022-05-21T00:30:49Z</time>
      </trkpt>
      <trkpt lat="48.28417" lon="-3.56215">
        <ele>118</ele>
        <time>2022-05-21T00:30:52Z</time>
      </trkpt>
      <trkpt lat="48.28409" lon="-3.56209">
        <ele>118</ele>
        <time>2022-05-21T00:30:54Z</time>
      </trkpt>
      <trkpt lat="48.2841" lon="-3.56193">
        <ele>118</ele>
        <time>2022-05-21T00:30:56Z</time>
      </trkpt>
      <trkpt lat="48.28401" lon="-3.56166">
        <ele>119</ele>
        <time>2022-05-21T00:31:00Z</time>
      </trkpt>
      <trkpt lat="48.284" lon="-3.56149">
        <ele>119</ele>
        <time>2022-05-21T00:31:02Z</time>
      </trkpt>
      <trkpt lat="48.28378" lon="-3.56073">
        <ele>121</ele>
        <time>2022-05-21T00:31:11Z</time>
      </trkpt>
      <trkpt lat="48.28366" lon="-3.56065">
        <ele>121</ele>
        <time>2022-05-21T00:31:14Z</time>
      </trkpt>
      <trkpt lat="48.28336" lon="-3.5607">
        <ele>122</ele>
        <time>2022-05-21T00:31:19Z</time>
      </trkpt>
      <trkpt lat="48.28323" lon="-3.56042">
        <ele>122</ele>
        <time>2022-05-21T00:31:23Z</time>
      </trkpt>
      <trkpt lat="48.28317" lon="-3.56013">
        <ele>122</ele>
        <time>2022-05-21T00:31:27Z</time>
      </trkpt>
      <trkpt lat="48.28308" lon="-3.56003">
        <ele>122</ele>
        <time>2022-05-21T00:31:29Z</time>
      </trkpt>
      <trkpt lat="48.28313" lon="-3.56033">
        <ele>122</ele>
        <time>2022-05-21T00:31:32Z</time>
      </trkpt>
      <trkpt lat="48.2832" lon="-3.56046">
        <ele>122</ele>
        <time>2022-05-21T00:31:34Z</time>
      </trkpt>
      <trkpt lat="48.28331" lon="-3.56053">
        <ele>122</ele>
        <time>2022-05-21T00:31:36Z</time>
      </trkpt>
      <trkpt lat="48.2834" lon="-3.56054">
        <ele>122</ele>
        <time>2022-05-21T00:31:38Z</time>
      </trkpt>
      <trkpt lat="48.28349" lon="-3.56051">
        <ele>122</ele>
        <time>2022-05-21T00:31:40Z</time>
      </trkpt>
      <trkpt lat="48.28361" lon="-3.56055">
        <ele>121</ele>
        <time>2022-05-21T00:31:42Z</time>
      </trkpt>
      <trkpt lat="48.2837" lon="-3.56069">
        <ele>121</ele>
        <time>2022-05-21T00:31:44Z</time>
      </trkpt>
      <trkpt lat="48.28381" lon="-3.56093">
        <ele>120</ele>
        <time>2022-05-21T00:31:48Z</time>
      </trkpt>
      <trkpt lat="48.28392" lon="-3.56132">
        <ele>119</ele>
        <time>2022-05-21T00:31:53Z</time>
      </trkpt>
      <trkpt lat="48.28398" lon="-3.56144">
        <ele>119</ele>
        <time>2022-05-21T00:31:54Z</time>
      </trkpt>
      <trkpt lat="48.28409" lon="-3.56154">
        <ele>118</ele>
        <time>2022-05-21T00:31:57Z</time>
      </trkpt>
      <trkpt lat="48.28416" lon="-3.56165">
        <ele>118</ele>
        <time>2022-05-21T00:31:59Z</time>
      </trkpt>
      <trkpt lat="48.28413" lon="-3.56179">
        <ele>118</ele>
        <time>2022-05-21T00:32:00Z</time>
      </trkpt>
      <trkpt lat="48.284" lon="-3.56179">
        <ele>119</ele>
        <time>2022-05-21T00:32:03Z</time>
      </trkpt>
      <trkpt lat="48.28387" lon="-3.56175">
        <ele>119</ele>
        <time>2022-05-21T00:32:05Z</time>
      </trkpt>
      <trkpt lat="48.28337" lon="-3.56185">
        <ele>121</ele>
        <time>2022-05-21T00:32:14Z</time>
      </trkpt>
      <trkpt lat="48.28289" lon="-3.56189">
        <ele>121</ele>
        <time>2022-05-21T00:32:22Z</time>
      </trkpt>
      <trkpt lat="48.28218" lon="-3.56186">
        <ele>122</ele>
        <time>2022-05-21T00:32:35Z</time>
      </trkpt>
      <trkpt lat="48.2802" lon="-3.5615">
        <ele>130</ele>
        <time>2022-05-21T00:33:11Z</time>
      </trkpt>
      <trkpt lat="48.27942" lon="-3.56139">
        <ele>132</ele>
        <time>2022-05-21T00:33:25Z</time>
      </trkpt>
      <trkpt lat="48.27886" lon="-3.562">
        <ele>133</ele>
        <time>2022-05-21T00:33:37Z</time>
      </trkpt>
      <trkpt lat="48.27839" lon="-3.56263">
        <ele>133</ele>
        <time>2022-05-21T00:33:48Z</time>
      </trkpt>
      <trkpt lat="48.27811" lon="-3.56284">
        <ele>133</ele>
        <time>2022-05-21T00:33:54Z</time>
      </trkpt>
      <trkpt lat="48.27794" lon="-3.56303">
        <ele>132</ele>
        <time>2022-05-21T00:33:57Z</time>
      </trkpt>
      <trkpt lat="48.27776" lon="-3.56328">
        <ele>132</ele>
        <time>2022-05-21T00:34:02Z</time>
      </trkpt>
      <trkpt lat="48.27743" lon="-3.56367">
        <ele>131</ele>
        <time>2022-05-21T00:34:09Z</time>
      </trkpt>
      <trkpt lat="48.27713" lon="-3.56411">
        <ele>131</ele>
        <time>2022-05-21T00:34:17Z</time>
      </trkpt>
      <trkpt lat="48.27708" lon="-3.56439">
        <ele>132</ele>
        <time>2022-05-21T00:34:20Z</time>
      </trkpt>
      <trkpt lat="48.2771" lon="-3.56468">
        <ele>132</ele>
        <time>2022-05-21T00:34:24Z</time>
      </trkpt>
      <trkpt lat="48.27709" lon="-3.56516">
        <ele>133</ele>
        <time>2022-05-21T00:34:29Z</time>
      </trkpt>
      <trkpt lat="48.27713" lon="-3.56565">
        <ele>134</ele>
        <time>2022-05-21T00:34:35Z</time>
      </trkpt>
      <trkpt lat="48.27711" lon="-3.56581">
        <ele>134</ele>
        <time>2022-05-21T00:34:37Z</time>
      </trkpt>
      <trkpt lat="48.27717" lon="-3.56674">
        <ele>137</ele>
        <time>2022-05-21T00:34:48Z</time>
      </trkpt>
      <trkpt lat="48.27724" lon="-3.56662">
        <ele>137</ele>
        <time>2022-05-21T00:34:50Z</time>
      </trkpt>
      <trkpt lat="48.27711" lon="-3.56533">
        <ele>133</ele>
        <time>2022-05-21T00:35:05Z</time>
      </trkpt>
      <trkpt lat="48.27706" lon="-3.56448">
        <ele>132</ele>
        <time>2022-05-21T00:35:16Z</time>
      </trkpt>
      <trkpt lat="48.27706" lon="-3.56403">
        <ele>131</ele>
        <time>2022-05-21T00:35:21Z</time>
      </trkpt>
      <trkpt lat="48.27697" lon="-3.56342">
        <ele>130</ele>
        <time>2022-05-21T00:35:28Z</time>
      </trkpt>
      <trkpt lat="48.27698" lon="-3.56287">
        <ele>131</ele>
        <time>2022-05-21T00:35:35Z</time>
      </trkpt>
      <trkpt lat="48.27707" lon="-3.56184">
        <ele>133</ele>
        <time>2022-05-21T00:35:47Z</time>
      </trkpt>
      <trkpt lat="48.27714" lon="-3.56194">
        <ele>133</ele>
        <time>2022-05-21T00:35:49Z</time>
      </trkpt>
      <trkpt lat="48.27704" lon="-3.56192">
        <ele>133</ele>
        <time>2022-05-21T00:35:51Z</time>
      </trkpt>
      <trkpt lat="48.27701" lon="-3.56179">
        <ele>133</ele>
        <time>2022-05-21T00:35:52Z</time>
      </trkpt>
      <trkpt lat="48.27704" lon="-3.56117">
        <ele>133</ele>
        <time>2022-05-21T00:36:00Z</time>
      </trkpt>
      <trkpt lat="48.27709" lon="-3.56089">
        <ele>133</ele>
        <time>2022-05-21T00:36:03Z</time>
      </trkpt>
      <trkpt lat="48.2771" lon="-3.5603">
        <ele>135</ele>
        <time>2022-05-21T00:36:10Z</time>
      </trkpt>
      <trkpt lat="48.2772" lon="-3.5596">
        <ele>136</ele>
        <time>2022-05-21T00:36:18Z</time>
      </trkpt>
      <trkpt lat="48.27716" lon="-3.55945">
        <ele>136</ele>
        <time>2022-05-21T00:36:20Z</time>
      </trkpt>
      <trkpt lat="48.27723" lon="-3.55917">
        <ele>136</ele>
        <time>2022-05-21T00:36:24Z</time>
      </trkpt>
      <trkpt lat="48.27735" lon="-3.55809">
        <ele>138</ele>
        <time>2022-05-21T00:36:37Z</time>
      </trkpt>
      <trkpt lat="48.2774" lon="-3.55793">
        <ele>138</ele>
        <time>2022-05-21T00:36:39Z</time>
      </trkpt>
      <trkpt lat="48.27749" lon="-3.55733">
        <ele>139</ele>
        <time>2022-05-21T00:36:46Z</time>
      </trkpt>
      <trkpt lat="48.27763" lon="-3.55689">
        <ele>139</ele>
        <time>2022-05-21T00:36:52Z</time>
      </trkpt>
      <trkpt lat="48.2777" lon="-3.55675">
        <ele>139</ele>
        <time>2022-05-21T00:36:54Z</time>
      </trkpt>
      <trkpt lat="48.27777" lon="-3.55599">
        <ele>141</ele>
        <time>2022-05-21T00:37:03Z</time>
      </trkpt>
      <trkpt lat="48.27783" lon="-3.5557">
        <ele>142</ele>
        <time>2022-05-21T00:37:07Z</time>
      </trkpt>
      <trkpt lat="48.27788" lon="-3.55526">
        <ele>143</ele>
        <time>2022-05-21T00:37:12Z</time>
      </trkpt>
      <trkpt lat="48.27803" lon="-3.55453">
        <ele>145</ele>
        <time>2022-05-21T00:37:21Z</time>
      </trkpt>
      <trkpt lat="48.27809" lon="-3.55439">
        <ele>146</ele>
        <time>2022-05-21T00:37:23Z</time>
      </trkpt>
      <trkpt lat="48.2782" lon="-3.55397">
        <ele>147</ele>
        <time>2022-05-21T00:37:28Z</time>
      </trkpt>
      <trkpt lat="48.27826" lon="-3.55367">
        <ele>147</ele>
        <time>2022-05-21T00:37:32Z</time>
      </trkpt>
      <trkpt lat="48.27829" lon="-3.55322">
        <ele>148</ele>
        <time>2022-05-21T00:37:38Z</time>
      </trkpt>
      <trkpt lat="48.27832" lon="-3.55309">
        <ele>148</ele>
        <time>2022-05-21T00:37:39Z</time>
      </trkpt>
      <trkpt lat="48.27841" lon="-3.55305">
        <ele>149</ele>
        <time>2022-05-21T00:37:41Z</time>
      </trkpt>
      <trkpt lat="48.27862" lon="-3.55313">
        <ele>149</ele>
        <time>2022-05-21T00:37:45Z</time>
      </trkpt>
      <trkpt lat="48.27925" lon="-3.55318">
        <ele>151</ele>
        <time>2022-05-21T00:37:56Z</time>
      </trkpt>
      <trkpt lat="48.27973" lon="-3.55318">
        <ele>152</ele>
        <time>2022-05-21T00:38:04Z</time>
      </trkpt>
      <trkpt lat="48.28032" lon="-3.55326">
        <ele>153</ele>
        <time>2022-05-21T00:38:15Z</time>
      </trkpt>
      <trkpt lat="48.28059" lon="-3.55318">
        <ele>154</ele>
        <time>2022-05-21T00:38:20Z</time>
      </trkpt>
      <trkpt lat="48.28067" lon="-3.55312">
        <ele>155</ele>
        <time>2022-05-21T00:38:21Z</time>
      </trkpt>
      <trkpt lat="48.28092" lon="-3.55281">
        <ele>157</ele>
        <time>2022-05-21T00:38:27Z</time>
      </trkpt>
      <trkpt lat="48.28195" lon="-3.55099">
        <ele>156</ele>
        <time>2022-05-21T00:38:56Z</time>
      </trkpt>
      <trkpt lat="48.28231" lon="-3.55029">
        <ele>153</ele>
        <time>2022-05-21T00:39:06Z</time>
      </trkpt>
      <trkpt lat="48.28271" lon="-3.54933">
        <ele>146</ele>
        <time>2022-05-21T00:39:19Z</time>
      </trkpt>
      <trkpt lat="48.28286" lon="-3.54885">
        <ele>143</ele>
        <time>2022-05-21T00:39:26Z</time>
      </trkpt>
      <trkpt lat="48.28298" lon="-3.54818">
        <ele>140</ele>
        <time>2022-05-21T00:39:34Z</time>
      </trkpt>
      <trkpt lat="48.28339" lon="-3.54658">
        <ele>133</ele>
        <time>2022-05-21T00:39:54Z</time>
      </trkpt>
      <trkpt lat="48.28468" lon="-3.5433">
        <ele>124</ele>
        <time>2022-05-21T00:40:39Z</time>
      </trkpt>
      <trkpt lat="48.28481" lon="-3.54286">
        <ele>124</ele>
        <time>2022-05-21T00:40:45Z</time>
      </trkpt>
      <trkpt lat="48.28484" lon="-3.54244">
        <ele>124</ele>
        <time>2022-05-21T00:40:50Z</time>
      </trkpt>
      <trkpt lat="48.28488" lon="-3.54232">
        <ele>124</ele>
        <time>2022-05-21T00:40:52Z</time>
      </trkpt>
      <trkpt lat="48.28495" lon="-3.54221">
        <ele>124</ele>
        <time>2022-05-21T00:40:53Z</time>
      </trkpt>
      <trkpt lat="48.28513" lon="-3.54205">
        <ele>123</ele>
        <time>2022-05-21T00:40:57Z</time>
      </trkpt>
      <trkpt lat="48.28522" lon="-3.54193">
        <ele>123</ele>
        <time>2022-05-21T00:40:59Z</time>
      </trkpt>
      <trkpt lat="48.28544" lon="-3.54146">
        <ele>121</ele>
        <time>2022-05-21T00:41:06Z</time>
      </trkpt>
      <trkpt lat="48.28576" lon="-3.54091">
        <ele>120</ele>
        <time>2022-05-21T00:41:15Z</time>
      </trkpt>
      <trkpt lat="48.28585" lon="-3.54082">
        <ele>120</ele>
        <time>2022-05-21T00:41:17Z</time>
      </trkpt>
      <trkpt lat="48.28592" lon="-3.54092">
        <ele>120</ele>
        <time>2022-05-21T00:41:18Z</time>
      </trkpt>
      <trkpt lat="48.28596" lon="-3.54105">
        <ele>120</ele>
        <time>2022-05-21T00:41:20Z</time>
      </trkpt>
      <trkpt lat="48.28593" lon="-3.54091">
        <ele>120</ele>
        <time>2022-05-21T00:41:22Z</time>
      </trkpt>
      <trkpt lat="48.28587" lon="-3.5408">
        <ele>120</ele>
        <time>2022-05-21T00:41:23Z</time>
      </trkpt>
      <trkpt lat="48.28626" lon="-3.54012">
        <ele>120</ele>
        <time>2022-05-21T00:41:34Z</time>
      </trkpt>
      <trkpt lat="48.28637" lon="-3.53985">
        <ele>120</ele>
        <time>2022-05-21T00:41:38Z</time>
      </trkpt>
      <trkpt lat="48.28685" lon="-3.53848">
        <ele>123</ele>
        <time>2022-05-21T00:41:56Z</time>
      </trkpt>
      <trkpt lat="48.28695" lon="-3.53807">
        <ele>124</ele>
        <time>2022-05-21T00:42:01Z</time>
      </trkpt>
      <trkpt lat="48.28722" lon="-3.53721">
        <ele>125</ele>
        <time>2022-05-21T00:42:13Z</time>
      </trkpt>
      <trkpt lat="48.28729" lon="-3.53708">
        <ele>125</ele>
        <time>2022-05-21T00:42:15Z</time>
      </trkpt>
      <trkpt lat="48.28766" lon="-3.53609">
        <ele>126</ele>
        <time>2022-05-21T00:42:28Z</time>
      </trkpt>
      <trkpt lat="48.28779" lon="-3.53584">
        <ele>126</ele>
        <time>2022-05-21T00:42:32Z</time>
      </trkpt>
      <trkpt lat="48.28793" lon="-3.53549">
        <ele>126</ele>
        <time>2022-05-21T00:42:37Z</time>
      </trkpt>
      <trkpt lat="48.28807" lon="-3.53525">
        <ele>127</ele>
        <time>2022-05-21T00:42:40Z</time>
      </trkpt>
      <trkpt lat="48.28827" lon="-3.53471">
        <ele>127</ele>
        <time>2022-05-21T00:42:48Z</time>
      </trkpt>
      <trkpt lat="48.28878" lon="-3.53286">
        <ele>128</ele>
        <time>2022-05-21T00:43:11Z</time>
      </trkpt>
      <trkpt lat="48.28885" lon="-3.53278">
        <ele>128</ele>
        <time>2022-05-21T00:43:13Z</time>
      </trkpt>
      <trkpt lat="48.28895" lon="-3.53274">
        <ele>128</ele>
        <time>2022-05-21T00:43:15Z</time>
      </trkpt>
      <trkpt lat="48.28904" lon="-3.53267">
        <ele>128</ele>
        <time>2022-05-21T00:43:17Z</time>
      </trkpt>
      <trkpt lat="48.28931" lon="-3.5319">
        <ele>129</ele>
        <time>2022-05-21T00:43:27Z</time>
      </trkpt>
      <trkpt lat="48.28942" lon="-3.53165">
        <ele>130</ele>
        <time>2022-05-21T00:43:31Z</time>
      </trkpt>
      <trkpt lat="48.28948" lon="-3.53139">
        <ele>130</ele>
        <time>2022-05-21T00:43:34Z</time>
      </trkpt>
      <trkpt lat="48.28986" lon="-3.53026">
        <ele>133</ele>
        <time>2022-05-21T00:43:49Z</time>
      </trkpt>
      <trkpt lat="48.29004" lon="-3.52959">
        <ele>135</ele>
        <time>2022-05-21T00:43:57Z</time>
      </trkpt>
      <trkpt lat="48.29016" lon="-3.52903">
        <ele>135</ele>
        <time>2022-05-21T00:44:04Z</time>
      </trkpt>
      <trkpt lat="48.2902" lon="-3.52856">
        <ele>136</ele>
        <time>2022-05-21T00:44:10Z</time>
      </trkpt>
      <trkpt lat="48.29018" lon="-3.52809">
        <ele>136</ele>
        <time>2022-05-21T00:44:15Z</time>
      </trkpt>
      <trkpt lat="48.29011" lon="-3.52797">
        <ele>136</ele>
        <time>2022-05-21T00:44:17Z</time>
      </trkpt>
      <trkpt lat="48.29017" lon="-3.52768">
        <ele>137</ele>
        <time>2022-05-21T00:44:21Z</time>
      </trkpt>
      <trkpt lat="48.2901" lon="-3.5274">
        <ele>137</ele>
        <time>2022-05-21T00:44:24Z</time>
      </trkpt>
      <trkpt lat="48.29005" lon="-3.52697">
        <ele>138</ele>
        <time>2022-05-21T00:44:30Z</time>
      </trkpt>
      <trkpt lat="48.2899" lon="-3.52626">
        <ele>138</ele>
        <time>2022-05-21T00:44:38Z</time>
      </trkpt>
      <trkpt lat="48.2898" lon="-3.52532">
        <ele>140</ele>
        <time>2022-05-21T00:44:50Z</time>
      </trkpt>
      <trkpt lat="48.2898" lon="-3.52498">
        <ele>141</ele>
        <time>2022-05-21T00:44:54Z</time>
      </trkpt>
      <trkpt lat="48.28986" lon="-3.52436">
        <ele>142</ele>
        <time>2022-05-21T00:45:01Z</time>
      </trkpt>
      <trkpt lat="48.28996" lon="-3.52393">
        <ele>144</ele>
        <time>2022-05-21T00:45:07Z</time>
      </trkpt>
      <trkpt lat="48.2901" lon="-3.52352">
        <ele>145</ele>
        <time>2022-05-21T00:45:12Z</time>
      </trkpt>
      <trkpt lat="48.29092" lon="-3.52172">
        <ele>150</ele>
        <time>2022-05-21T00:45:38Z</time>
      </trkpt>
      <trkpt lat="48.29112" lon="-3.52119">
        <ele>150</ele>
        <time>2022-05-21T00:45:45Z</time>
      </trkpt>
      <trkpt lat="48.29123" lon="-3.52062">
        <ele>150</ele>
        <time>2022-05-21T00:45:52Z</time>
      </trkpt>
      <trkpt lat="48.29124" lon="-3.51985">
        <ele>149</ele>
        <time>2022-05-21T00:46:01Z</time>
      </trkpt>
      <trkpt lat="48.29109" lon="-3.51908">
        <ele>149</ele>
        <time>2022-05-21T00:46:11Z</time>
      </trkpt>
      <trkpt lat="48.29085" lon="-3.51852">
        <ele>150</ele>
        <time>2022-05-21T00:46:19Z</time>
      </trkpt>
      <trkpt lat="48.29064" lon="-3.51819">
        <ele>151</ele>
        <time>2022-05-21T00:46:24Z</time>
      </trkpt>
      <trkpt lat="48.29061" lon="-3.51802">
        <ele>152</ele>
        <time>2022-05-21T00:46:26Z</time>
      </trkpt>
      <trkpt lat="48.29064" lon="-3.51789">
        <ele>152</ele>
        <time>2022-05-21T00:46:28Z</time>
      </trkpt>
      <trkpt lat="48.29055" lon="-3.51778">
        <ele>153</ele>
        <time>2022-05-21T00:46:30Z</time>
      </trkpt>
      <trkpt lat="48.2901" lon="-3.51743">
        <ele>154</ele>
        <time>2022-05-21T00:46:39Z</time>
      </trkpt>
      <trkpt lat="48.29002" lon="-3.51734">
        <ele>155</ele>
        <time>2022-05-21T00:46:41Z</time>
      </trkpt>
      <trkpt lat="48.28992" lon="-3.51712">
        <ele>155</ele>
        <time>2022-05-21T00:46:44Z</time>
      </trkpt>
      <trkpt lat="48.28961" lon="-3.51664">
        <ele>157</ele>
        <time>2022-05-21T00:46:52Z</time>
      </trkpt>
      <trkpt lat="48.28944" lon="-3.5163">
        <ele>157</ele>
        <time>2022-05-21T00:46:57Z</time>
      </trkpt>
      <trkpt lat="48.28917" lon="-3.51559">
        <ele>159</ele>
        <time>2022-05-21T00:47:06Z</time>
      </trkpt>
      <trkpt lat="48.28885" lon="-3.51454">
        <ele>160</ele>
        <time>2022-05-21T00:47:20Z</time>
      </trkpt>
      <trkpt lat="48.28878" lon="-3.51426">
        <ele>160</ele>
        <time>2022-05-21T00:47:24Z</time>
      </trkpt>
      <trkpt lat="48.28868" lon="-3.51366">
        <ele>161</ele>
        <time>2022-05-21T00:47:31Z</time>
      </trkpt>
      <trkpt lat="48.28858" lon="-3.5126">
        <ele>164</ele>
        <time>2022-05-21T00:47:44Z</time>
      </trkpt>
      <trkpt lat="48.28858" lon="-3.51184">
        <ele>165</ele>
        <time>2022-05-21T00:47:53Z</time>
      </trkpt>
      <trkpt lat="48.28892" lon="-3.50715">
        <ele>167</ele>
        <time>2022-05-21T00:48:48Z</time>
      </trkpt>
      <trkpt lat="48.28905" lon="-3.50499">
        <ele>171</ele>
        <time>2022-05-21T00:49:14Z</time>
      </trkpt>
      <trkpt lat="48.28923" lon="-3.50303">
        <ele>171</ele>
        <time>2022-05-21T00:49:38Z</time>
      </trkpt>
      <trkpt lat="48.28926" lon="-3.50234">
        <ele>172</ele>
        <time>2022-05-21T00:49:46Z</time>
      </trkpt>
      <trkpt lat="48.28923" lon="-3.50148">
        <ele>172</ele>
        <time>2022-05-21T00:49:56Z</time>
      </trkpt>
      <trkpt lat="48.28906" lon="-3.50078">
        <ele>173</ele>
        <time>2022-05-21T00:50:05Z</time>
      </trkpt>
      <trkpt lat="48.2889" lon="-3.50033">
        <ele>173</ele>
        <time>2022-05-21T00:50:11Z</time>
      </trkpt>
      <trkpt lat="48.2887" lon="-3.5">
        <ele>173</ele>
        <time>2022-05-21T00:50:16Z</time>
      </trkpt>
      <trkpt lat="48.2884" lon="-3.4994">
        <ele>173</ele>
        <time>2022-05-21T00:50:25Z</time>
      </trkpt>
      <trkpt lat="48.28801" lon="-3.49872">
        <ele>172</ele>
        <time>2022-05-21T00:50:36Z</time>
      </trkpt>
      <trkpt lat="48.28778" lon="-3.49827">
        <ele>171</ele>
        <time>2022-05-21T00:50:42Z</time>
      </trkpt>
      <trkpt lat="48.28763" lon="-3.49787">
        <ele>171</ele>
        <time>2022-05-21T00:50:48Z</time>
      </trkpt>
      <trkpt lat="48.2875" lon="-3.49739">
        <ele>171</ele>
        <time>2022-05-21T00:50:54Z</time>
      </trkpt>
      <trkpt lat="48.28741" lon="-3.49682">
        <ele>172</ele>
        <time>2022-05-21T00:51:01Z</time>
      </trkpt>
      <trkpt lat="48.28737" lon="-3.49636">
        <ele>173</ele>
        <time>2022-05-21T00:51:06Z</time>
      </trkpt>
      <trkpt lat="48.28737" lon="-3.49591">
        <ele>174</ele>
        <time>2022-05-21T00:51:12Z</time>
      </trkpt>
      <trkpt lat="48.2874" lon="-3.49548">
        <ele>173</ele>
        <time>2022-05-21T00:51:17Z</time>
      </trkpt>
      <trkpt lat="48.28748" lon="-3.49503">
        <ele>173</ele>
        <time>2022-05-21T00:51:22Z</time>
      </trkpt>
      <trkpt lat="48.28763" lon="-3.49445">
        <ele>174</ele>
        <time>2022-05-21T00:51:30Z</time>
      </trkpt>
      <trkpt lat="48.28777" lon="-3.49404">
        <ele>174</ele>
        <time>2022-05-21T00:51:35Z</time>
      </trkpt>
      <trkpt lat="48.28815" lon="-3.4932">
        <ele>175</ele>
        <time>2022-05-21T00:51:47Z</time>
      </trkpt>
      <trkpt lat="48.28829" lon="-3.4928">
        <ele>175</ele>
        <time>2022-05-21T00:51:52Z</time>
      </trkpt>
      <trkpt lat="48.28887" lon="-3.49147">
        <ele>179</ele>
        <time>2022-05-21T00:52:11Z</time>
      </trkpt>
      <trkpt lat="48.28899" lon="-3.49124">
        <ele>179</ele>
        <time>2022-05-21T00:52:15Z</time>
      </trkpt>
      <trkpt lat="48.28962" lon="-3.48976">
        <ele>181</ele>
        <time>2022-05-21T00:52:36Z</time>
      </trkpt>
      <trkpt lat="48.28992" lon="-3.48913">
        <ele>181</ele>
        <time>2022-05-21T00:52:45Z</time>
      </trkpt>
      <trkpt lat="48.29048" lon="-3.48768">
        <ele>181</ele>
        <time>2022-05-21T00:53:05Z</time>
      </trkpt>
      <trkpt lat="48.29074" lon="-3.48668">
        <ele>181</ele>
        <time>2022-05-21T00:53:17Z</time>
      </trkpt>
      <trkpt lat="48.29082" lon="-3.48624">
        <ele>180</ele>
        <time>2022-05-21T00:53:23Z</time>
      </trkpt>
      <trkpt lat="48.29113" lon="-3.48363">
        <ele>178</ele>
        <time>2022-05-21T00:53:54Z</time>
      </trkpt>
      <trkpt lat="48.29121" lon="-3.48314">
        <ele>178</ele>
        <time>2022-05-21T00:54:00Z</time>
      </trkpt>
      <trkpt lat="48.29127" lon="-3.48221">
        <ele>178</ele>
        <time>2022-05-21T00:54:11Z</time>
      </trkpt>
      <trkpt lat="48.2912" lon="-3.48115">
        <ele>179</ele>
        <time>2022-05-21T00:54:24Z</time>
      </trkpt>
      <trkpt lat="48.29097" lon="-3.4798">
        <ele>180</ele>
        <time>2022-05-21T00:54:40Z</time>
      </trkpt>
      <trkpt lat="48.29081" lon="-3.47866">
        <ele>180</ele>
        <time>2022-05-21T00:54:54Z</time>
      </trkpt>
      <trkpt lat="48.29068" lon="-3.47803">
        <ele>182</ele>
        <time>2022-05-21T00:55:02Z</time>
      </trkpt>
      <trkpt lat="48.29061" lon="-3.47694">
        <ele>184</ele>
        <time>2022-05-21T00:55:15Z</time>
      </trkpt>
      <trkpt lat="48.29057" lon="-3.47432">
        <ele>187</ele>
        <time>2022-05-21T00:55:46Z</time>
      </trkpt>
      <trkpt lat="48.29058" lon="-3.47282">
        <ele>189</ele>
        <time>2022-05-21T00:56:04Z</time>
      </trkpt>
      <trkpt lat="48.29054" lon="-3.47062">
        <ele>190</ele>
        <time>2022-05-21T00:56:30Z</time>
      </trkpt>
      <trkpt lat="48.29077" lon="-3.46727">
        <ele>191</ele>
        <time>2022-05-21T00:57:09Z</time>
      </trkpt>
      <trkpt lat="48.29075" lon="-3.46674">
        <ele>190</ele>
        <time>2022-05-21T00:57:16Z</time>
      </trkpt>
      <trkpt lat="48.29057" lon="-3.46531">
        <ele>189</ele>
        <time>2022-05-21T00:57:33Z</time>
      </trkpt>
      <trkpt lat="48.29034" lon="-3.46404">
        <ele>188</ele>
        <time>2022-05-21T00:57:49Z</time>
      </trkpt>
      <trkpt lat="48.29025" lon="-3.46333">
        <ele>187</ele>
        <time>2022-05-21T00:57:57Z</time>
      </trkpt>
      <trkpt lat="48.29016" lon="-3.46227">
        <ele>185</ele>
        <time>2022-05-21T00:58:10Z</time>
      </trkpt>
      <trkpt lat="48.29017" lon="-3.46156">
        <ele>185</ele>
        <time>2022-05-21T00:58:18Z</time>
      </trkpt>
      <trkpt lat="48.29021" lon="-3.46103">
        <ele>185</ele>
        <time>2022-05-21T00:58:24Z</time>
      </trkpt>
      <trkpt lat="48.29032" lon="-3.46018">
        <ele>183</ele>
        <time>2022-05-21T00:58:35Z</time>
      </trkpt>
      <trkpt lat="48.2904" lon="-3.45981">
        <ele>183</ele>
        <time>2022-05-21T00:58:39Z</time>
      </trkpt>
      <trkpt lat="48.2907" lon="-3.45738">
        <ele>183</ele>
        <time>2022-05-21T00:59:09Z</time>
      </trkpt>
      <trkpt lat="48.29104" lon="-3.45521">
        <ele>184</ele>
        <time>2022-05-21T00:59:35Z</time>
      </trkpt>
      <trkpt lat="48.29124" lon="-3.45427">
        <ele>185</ele>
        <time>2022-05-21T00:59:47Z</time>
      </trkpt>
      <trkpt lat="48.29175" lon="-3.45238">
        <ele>188</ele>
        <time>2022-05-21T01:00:11Z</time>
      </trkpt>
      <trkpt lat="48.29253" lon="-3.4501">
        <ele>188</ele>
        <time>2022-05-21T01:00:41Z</time>
      </trkpt>
      <trkpt lat="48.29307" lon="-3.44838">
        <ele>188</ele>
        <time>2022-05-21T01:01:04Z</time>
      </trkpt>
      <trkpt lat="48.29328" lon="-3.44763">
        <ele>188</ele>
        <time>2022-05-21T01:01:13Z</time>
      </trkpt>
      <trkpt lat="48.29348" lon="-3.44665">
        <ele>190</ele>
        <time>2022-05-21T01:01:25Z</time>
      </trkpt>
      <trkpt lat="48.2936" lon="-3.44557">
        <ele>189</ele>
        <time>2022-05-21T01:01:38Z</time>
      </trkpt>
      <trkpt lat="48.29371" lon="-3.44373">
        <ele>190</ele>
        <time>2022-05-21T01:02:00Z</time>
      </trkpt>
      <trkpt lat="48.2937" lon="-3.44326">
        <ele>191</ele>
        <time>2022-05-21T01:02:06Z</time>
      </trkpt>
      <trkpt lat="48.29375" lon="-3.44297">
        <ele>190</ele>
        <time>2022-05-21T01:02:09Z</time>
      </trkpt>
      <trkpt lat="48.29374" lon="-3.44282">
        <ele>190</ele>
        <time>2022-05-21T01:02:11Z</time>
      </trkpt>
      <trkpt lat="48.29378" lon="-3.44247">
        <ele>190</ele>
        <time>2022-05-21T01:02:15Z</time>
      </trkpt>
      <trkpt lat="48.2938" lon="-3.44145">
        <ele>190</ele>
        <time>2022-05-21T01:02:27Z</time>
      </trkpt>
      <trkpt lat="48.29387" lon="-3.44027">
        <ele>190</ele>
        <time>2022-05-21T01:02:42Z</time>
      </trkpt>
      <trkpt lat="48.29387" lon="-3.43892">
        <ele>190</ele>
        <time>2022-05-21T01:02:57Z</time>
      </trkpt>
      <trkpt lat="48.29383" lon="-3.43918">
        <ele>190</ele>
        <time>2022-05-21T01:03:01Z</time>
      </trkpt>
      <trkpt lat="48.29384" lon="-3.43966">
        <ele>190</ele>
        <time>2022-05-21T01:03:06Z</time>
      </trkpt>
      <trkpt lat="48.29387" lon="-3.43934">
        <ele>190</ele>
        <time>2022-05-21T01:03:10Z</time>
      </trkpt>
      <trkpt lat="48.29386" lon="-3.43892">
        <ele>190</ele>
        <time>2022-05-21T01:03:15Z</time>
      </trkpt>
      <trkpt lat="48.29384" lon="-3.43973">
        <ele>190</ele>
        <time>2022-05-21T01:03:25Z</time>
      </trkpt>
      <trkpt lat="48.29389" lon="-3.4396">
        <ele>190</ele>
        <time>2022-05-21T01:03:27Z</time>
      </trkpt>
      <trkpt lat="48.29382" lon="-3.43841">
        <ele>191</ele>
        <time>2022-05-21T01:03:41Z</time>
      </trkpt>
      <trkpt lat="48.29384" lon="-3.43792">
        <ele>192</ele>
        <time>2022-05-21T01:03:46Z</time>
      </trkpt>
      <trkpt lat="48.29371" lon="-3.4358">
        <ele>191</ele>
        <time>2022-05-21T01:04:12Z</time>
      </trkpt>
      <trkpt lat="48.2935" lon="-3.43458">
        <ele>193</ele>
        <time>2022-05-21T01:04:27Z</time>
      </trkpt>
      <trkpt lat="48.29349" lon="-3.43472">
        <ele>192</ele>
        <time>2022-05-21T01:04:28Z</time>
      </trkpt>
      <trkpt lat="48.29354" lon="-3.43503">
        <ele>191</ele>
        <time>2022-05-21T01:04:32Z</time>
      </trkpt>
      <trkpt lat="48.29357" lon="-3.43521">
        <ele>191</ele>
        <time>2022-05-21T01:04:34Z</time>
      </trkpt>
      <trkpt lat="48.29342" lon="-3.43399">
        <ele>194</ele>
        <time>2022-05-21T01:04:49Z</time>
      </trkpt>
      <trkpt lat="48.29336" lon="-3.43374">
        <ele>194</ele>
        <time>2022-05-21T01:04:52Z</time>
      </trkpt>
      <trkpt lat="48.29328" lon="-3.43317">
        <ele>194</ele>
        <time>2022-05-21T01:04:59Z</time>
      </trkpt>
      <trkpt lat="48.29316" lon="-3.43259">
        <ele>194</ele>
        <time>2022-05-21T01:05:06Z</time>
      </trkpt>
      <trkpt lat="48.29296" lon="-3.43193">
        <ele>194</ele>
        <time>2022-05-21T01:05:15Z</time>
      </trkpt>
      <trkpt lat="48.29258" lon="-3.43096">
        <ele>196</ele>
        <time>2022-05-21T01:05:28Z</time>
      </trkpt>
      <trkpt lat="48.29169" lon="-3.42897">
        <ele>198</ele>
        <time>2022-05-21T01:05:56Z</time>
      </trkpt>
      <trkpt lat="48.29154" lon="-3.42859">
        <ele>199</ele>
        <time>2022-05-21T01:06:02Z</time>
      </trkpt>
      <trkpt lat="48.29105" lon="-3.42753">
        <ele>201</ele>
        <time>2022-05-21T01:06:17Z</time>
      </trkpt>
      <trkpt lat="48.29089" lon="-3.42713">
        <ele>201</ele>
        <time>2022-05-21T01:06:22Z</time>
      </trkpt>
      <trkpt lat="48.29081" lon="-3.427">
        <ele>201</ele>
        <time>2022-05-21T01:06:25Z</time>
      </trkpt>
      <trkpt lat="48.29066" lon="-3.42658">
        <ele>201</ele>
        <time>2022-05-21T01:06:30Z</time>
      </trkpt>
      <trkpt lat="48.29058" lon="-3.42646">
        <ele>201</ele>
        <time>2022-05-21T01:06:32Z</time>
      </trkpt>
      <trkpt lat="48.29047" lon="-3.42616">
        <ele>202</ele>
        <time>2022-05-21T01:06:36Z</time>
      </trkpt>
      <trkpt lat="48.29016" lon="-3.42555">
        <ele>202</ele>
        <time>2022-05-21T01:06:45Z</time>
      </trkpt>
      <trkpt lat="48.29008" lon="-3.42541">
        <ele>202</ele>
        <time>2022-05-21T01:06:48Z</time>
      </trkpt>
      <trkpt lat="48.28982" lon="-3.4251">
        <ele>203</ele>
        <time>2022-05-21T01:06:53Z</time>
      </trkpt>
      <trkpt lat="48.28963" lon="-3.42496">
        <ele>203</ele>
        <time>2022-05-21T01:06:57Z</time>
      </trkpt>
      <trkpt lat="48.28935" lon="-3.4248">
        <ele>202</ele>
        <time>2022-05-21T01:07:03Z</time>
      </trkpt>
      <trkpt lat="48.28903" lon="-3.42472">
        <ele>203</ele>
        <time>2022-05-21T01:07:08Z</time>
      </trkpt>
      <trkpt lat="48.2887" lon="-3.42472">
        <ele>204</ele>
        <time>2022-05-21T01:07:14Z</time>
      </trkpt>
      <trkpt lat="48.28841" lon="-3.42476">
        <ele>205</ele>
        <time>2022-05-21T01:07:19Z</time>
      </trkpt>
      <trkpt lat="48.28802" lon="-3.42475">
        <ele>206</ele>
        <time>2022-05-21T01:07:26Z</time>
      </trkpt>
      <trkpt lat="48.28764" lon="-3.42461">
        <ele>207</ele>
        <time>2022-05-21T01:07:33Z</time>
      </trkpt>
      <trkpt lat="48.28717" lon="-3.42428">
        <ele>209</ele>
        <time>2022-05-21T01:07:43Z</time>
      </trkpt>
      <trkpt lat="48.28707" lon="-3.42427">
        <ele>209</ele>
        <time>2022-05-21T01:07:44Z</time>
      </trkpt>
      <trkpt lat="48.28699" lon="-3.42418">
        <ele>209</ele>
        <time>2022-05-21T01:07:46Z</time>
      </trkpt>
      <trkpt lat="48.2869" lon="-3.42392">
        <ele>209</ele>
        <time>2022-05-21T01:07:50Z</time>
      </trkpt>
      <trkpt lat="48.28668" lon="-3.42356">
        <ele>208</ele>
        <time>2022-05-21T01:07:55Z</time>
      </trkpt>
      <trkpt lat="48.28657" lon="-3.42328">
        <ele>208</ele>
        <time>2022-05-21T01:07:59Z</time>
      </trkpt>
      <trkpt lat="48.28563" lon="-3.42034">
        <ele>210</ele>
        <time>2022-05-21T01:08:38Z</time>
      </trkpt>
      <trkpt lat="48.28544" lon="-3.41988">
        <ele>209</ele>
        <time>2022-05-21T01:08:44Z</time>
      </trkpt>
      <trkpt lat="48.28515" lon="-3.41904">
        <ele>211</ele>
        <time>2022-05-21T01:08:55Z</time>
      </trkpt>
      <trkpt lat="48.2849" lon="-3.41846">
        <ele>210</ele>
        <time>2022-05-21T01:09:04Z</time>
      </trkpt>
      <trkpt lat="48.28461" lon="-3.41792">
        <ele>208</ele>
        <time>2022-05-21T01:09:12Z</time>
      </trkpt>
      <trkpt lat="48.28444" lon="-3.41766">
        <ele>208</ele>
        <time>2022-05-21T01:09:16Z</time>
      </trkpt>
      <trkpt lat="48.28301" lon="-3.41574">
        <ele>210</ele>
        <time>2022-05-21T01:09:50Z</time>
      </trkpt>
      <trkpt lat="48.28249" lon="-3.41497">
        <ele>210</ele>
        <time>2022-05-21T01:10:03Z</time>
      </trkpt>
      <trkpt lat="48.28191" lon="-3.41426">
        <ele>209</ele>
        <time>2022-05-21T01:10:17Z</time>
      </trkpt>
      <trkpt lat="48.28151" lon="-3.41371">
        <ele>208</ele>
        <time>2022-05-21T01:10:26Z</time>
      </trkpt>
      <trkpt lat="48.28106" lon="-3.41294">
        <ele>209</ele>
        <time>2022-05-21T01:10:38Z</time>
      </trkpt>
      <trkpt lat="48.28095" lon="-3.4126">
        <ele>209</ele>
        <time>2022-05-21T01:10:43Z</time>
      </trkpt>
      <trkpt lat="48.28085" lon="-3.41228">
        <ele>209</ele>
        <time>2022-05-21T01:10:47Z</time>
      </trkpt>
      <trkpt lat="48.2807" lon="-3.41163">
        <ele>210</ele>
        <time>2022-05-21T01:10:55Z</time>
      </trkpt>
      <trkpt lat="48.28067" lon="-3.41131">
        <ele>211</ele>
        <time>2022-05-21T01:10:59Z</time>
      </trkpt>
      <trkpt lat="48.28054" lon="-3.4105">
        <ele>213</ele>
        <time>2022-05-21T01:11:09Z</time>
      </trkpt>
      <trkpt lat="48.27998" lon="-3.40727">
        <ele>212</ele>
        <time>2022-05-21T01:11:48Z</time>
      </trkpt>
      <trkpt lat="48.27991" lon="-3.40662">
        <ele>211</ele>
        <time>2022-05-21T01:11:56Z</time>
      </trkpt>
      <trkpt lat="48.27991" lon="-3.40627">
        <ele>211</ele>
        <time>2022-05-21T01:12:00Z</time>
      </trkpt>
      <trkpt lat="48.27993" lon="-3.4059">
        <ele>211</ele>
        <time>2022-05-21T01:12:05Z</time>
      </trkpt>
      <trkpt lat="48.28002" lon="-3.40525">
        <ele>212</ele>
        <time>2022-05-21T01:12:13Z</time>
      </trkpt>
      <trkpt lat="48.28023" lon="-3.40415">
        <ele>210</ele>
        <time>2022-05-21T01:12:26Z</time>
      </trkpt>
      <trkpt lat="48.28036" lon="-3.40321">
        <ele>210</ele>
        <time>2022-05-21T01:12:37Z</time>
      </trkpt>
      <trkpt lat="48.28115" lon="-3.39862">
        <ele>219</ele>
        <time>2022-05-21T01:13:34Z</time>
      </trkpt>
      <trkpt lat="48.28117" lon="-3.39833">
        <ele>220</ele>
        <time>2022-05-21T01:13:37Z</time>
      </trkpt>
      <trkpt lat="48.28116" lon="-3.39773">
        <ele>222</ele>
        <time>2022-05-21T01:13:44Z</time>
      </trkpt>
      <trkpt lat="48.28106" lon="-3.39696">
        <ele>224</ele>
        <time>2022-05-21T01:13:53Z</time>
      </trkpt>
      <trkpt lat="48.28086" lon="-3.39623">
        <ele>225</ele>
        <time>2022-05-21T01:14:03Z</time>
      </trkpt>
      <trkpt lat="48.28063" lon="-3.39563">
        <ele>223</ele>
        <time>2022-05-21T01:14:11Z</time>
      </trkpt>
      <trkpt lat="48.28043" lon="-3.39523">
        <ele>222</ele>
        <time>2022-05-21T01:14:17Z</time>
      </trkpt>
      <trkpt lat="48.27973" lon="-3.3942">
        <ele>221</ele>
        <time>2022-05-21T01:14:34Z</time>
      </trkpt>
      <trkpt lat="48.27924" lon="-3.39357">
        <ele>222</ele>
        <time>2022-05-21T01:14:46Z</time>
      </trkpt>
      <trkpt lat="48.27875" lon="-3.39287">
        <ele>221</ele>
        <time>2022-05-21T01:14:58Z</time>
      </trkpt>
      <trkpt lat="48.27842" lon="-3.39221">
        <ele>222</ele>
        <time>2022-05-21T01:15:08Z</time>
      </trkpt>
      <trkpt lat="48.2782" lon="-3.39164">
        <ele>221</ele>
        <time>2022-05-21T01:15:15Z</time>
      </trkpt>
      <trkpt lat="48.27805" lon="-3.39107">
        <ele>222</ele>
        <time>2022-05-21T01:15:23Z</time>
      </trkpt>
      <trkpt lat="48.27796" lon="-3.39059">
        <ele>221</ele>
        <time>2022-05-21T01:15:29Z</time>
      </trkpt>
      <trkpt lat="48.27782" lon="-3.38925">
        <ele>220</ele>
        <time>2022-05-21T01:15:45Z</time>
      </trkpt>
      <trkpt lat="48.27783" lon="-3.38894">
        <ele>220</ele>
        <time>2022-05-21T01:15:48Z</time>
      </trkpt>
      <trkpt lat="48.2778" lon="-3.38879">
        <ele>220</ele>
        <time>2022-05-21T01:15:50Z</time>
      </trkpt>
      <trkpt lat="48.27773" lon="-3.38758">
        <ele>219</ele>
        <time>2022-05-21T01:16:05Z</time>
      </trkpt>
      <trkpt lat="48.27758" lon="-3.38673">
        <ele>220</ele>
        <time>2022-05-21T01:16:15Z</time>
      </trkpt>
      <trkpt lat="48.27747" lon="-3.38626">
        <ele>220</ele>
        <time>2022-05-21T01:16:21Z</time>
      </trkpt>
      <trkpt lat="48.27708" lon="-3.38491">
        <ele>220</ele>
        <time>2022-05-21T01:16:38Z</time>
      </trkpt>
      <trkpt lat="48.27687" lon="-3.38404">
        <ele>220</ele>
        <time>2022-05-21T01:16:49Z</time>
      </trkpt>
      <trkpt lat="48.27642" lon="-3.38239">
        <ele>219</ele>
        <time>2022-05-21T01:17:10Z</time>
      </trkpt>
      <trkpt lat="48.27513" lon="-3.37732">
        <ele>223</ele>
        <time>2022-05-21T01:18:15Z</time>
      </trkpt>
      <trkpt lat="48.27483" lon="-3.37634">
        <ele>224</ele>
        <time>2022-05-21T01:18:27Z</time>
      </trkpt>
      <trkpt lat="48.2746" lon="-3.3758">
        <ele>224</ele>
        <time>2022-05-21T01:18:35Z</time>
      </trkpt>
      <trkpt lat="48.2743" lon="-3.37522">
        <ele>224</ele>
        <time>2022-05-21T01:18:44Z</time>
      </trkpt>
      <trkpt lat="48.27386" lon="-3.37455">
        <ele>225</ele>
        <time>2022-05-21T01:18:55Z</time>
      </trkpt>
      <trkpt lat="48.27253" lon="-3.37269">
        <ele>229</ele>
        <time>2022-05-21T01:19:27Z</time>
      </trkpt>
      <trkpt lat="48.27213" lon="-3.37217">
        <ele>229</ele>
        <time>2022-05-21T01:19:37Z</time>
      </trkpt>
      <trkpt lat="48.27206" lon="-3.37202">
        <ele>228</ele>
        <time>2022-05-21T01:19:39Z</time>
      </trkpt>
      <trkpt lat="48.27176" lon="-3.37154">
        <ele>229</ele>
        <time>2022-05-21T01:19:47Z</time>
      </trkpt>
      <trkpt lat="48.27145" lon="-3.37079">
        <ele>230</ele>
        <time>2022-05-21T01:19:57Z</time>
      </trkpt>
      <trkpt lat="48.27098" lon="-3.36939">
        <ele>232</ele>
        <time>2022-05-21T01:20:16Z</time>
      </trkpt>
      <trkpt lat="48.27081" lon="-3.36902">
        <ele>233</ele>
        <time>2022-05-21T01:20:21Z</time>
      </trkpt>
      <trkpt lat="48.26982" lon="-3.36603">
        <ele>237</ele>
        <time>2022-05-21T01:21:00Z</time>
      </trkpt>
      <trkpt lat="48.26951" lon="-3.36542">
        <ele>237</ele>
        <time>2022-05-21T01:21:10Z</time>
      </trkpt>
      <trkpt lat="48.26927" lon="-3.36508">
        <ele>238</ele>
        <time>2022-05-21T01:21:15Z</time>
      </trkpt>
      <trkpt lat="48.26899" lon="-3.36478">
        <ele>238</ele>
        <time>2022-05-21T01:21:22Z</time>
      </trkpt>
      <trkpt lat="48.26879" lon="-3.36463">
        <ele>237</ele>
        <time>2022-05-21T01:21:26Z</time>
      </trkpt>
      <trkpt lat="48.26829" lon="-3.36434">
        <ele>236</ele>
        <time>2022-05-21T01:21:35Z</time>
      </trkpt>
      <trkpt lat="48.2682" lon="-3.36426">
        <ele>236</ele>
        <time>2022-05-21T01:21:37Z</time>
      </trkpt>
      <trkpt lat="48.26809" lon="-3.36422">
        <ele>235</ele>
        <time>2022-05-21T01:21:39Z</time>
      </trkpt>
      <trkpt lat="48.26779" lon="-3.36403">
        <ele>235</ele>
        <time>2022-05-21T01:21:45Z</time>
      </trkpt>
      <trkpt lat="48.26767" lon="-3.36398">
        <ele>234</ele>
        <time>2022-05-21T01:21:47Z</time>
      </trkpt>
      <trkpt lat="48.26704" lon="-3.36356">
        <ele>235</ele>
        <time>2022-05-21T01:21:59Z</time>
      </trkpt>
      <trkpt lat="48.26675" lon="-3.36341">
        <ele>235</ele>
        <time>2022-05-21T01:22:05Z</time>
      </trkpt>
      <trkpt lat="48.26667" lon="-3.36334">
        <ele>235</ele>
        <time>2022-05-21T01:22:06Z</time>
      </trkpt>
      <trkpt lat="48.26636" lon="-3.3632">
        <ele>234</ele>
        <time>2022-05-21T01:22:12Z</time>
      </trkpt>
      <trkpt lat="48.26598" lon="-3.36293">
        <ele>234</ele>
        <time>2022-05-21T01:22:20Z</time>
      </trkpt>
      <trkpt lat="48.2658" lon="-3.36278">
        <ele>234</ele>
        <time>2022-05-21T01:22:23Z</time>
      </trkpt>
      <trkpt lat="48.26542" lon="-3.36236">
        <ele>232</ele>
        <time>2022-05-21T01:22:32Z</time>
      </trkpt>
      <trkpt lat="48.26498" lon="-3.36179">
        <ele>231</ele>
        <time>2022-05-21T01:22:42Z</time>
      </trkpt>
      <trkpt lat="48.26439" lon="-3.36077">
        <ele>230</ele>
        <time>2022-05-21T01:22:58Z</time>
      </trkpt>
      <trkpt lat="48.26431" lon="-3.36068">
        <ele>230</ele>
        <time>2022-05-21T01:23:00Z</time>
      </trkpt>
      <trkpt lat="48.26426" lon="-3.36056">
        <ele>230</ele>
        <time>2022-05-21T01:23:01Z</time>
      </trkpt>
      <trkpt lat="48.26369" lon="-3.35961">
        <ele>228</ele>
        <time>2022-05-21T01:23:17Z</time>
      </trkpt>
      <trkpt lat="48.26286" lon="-3.35814">
        <ele>228</ele>
        <time>2022-05-21T01:23:39Z</time>
      </trkpt>
      <trkpt lat="48.26193" lon="-3.35663">
        <ele>227</ele>
        <time>2022-05-21T01:24:04Z</time>
      </trkpt>
      <trkpt lat="48.26188" lon="-3.3565">
        <ele>227</ele>
        <time>2022-05-21T01:24:06Z</time>
      </trkpt>
      <trkpt lat="48.26178" lon="-3.35636">
        <ele>228</ele>
        <time>2022-05-21T01:24:08Z</time>
      </trkpt>
      <trkpt lat="48.26166" lon="-3.35612">
        <ele>228</ele>
        <time>2022-05-21T01:24:12Z</time>
      </trkpt>
      <trkpt lat="48.26143" lon="-3.35576">
        <ele>229</ele>
        <time>2022-05-21T01:24:17Z</time>
      </trkpt>
      <trkpt lat="48.26107" lon="-3.35512">
        <ele>228</ele>
        <time>2022-05-21T01:24:27Z</time>
      </trkpt>
      <trkpt lat="48.2609" lon="-3.35487">
        <ele>228</ele>
        <time>2022-05-21T01:24:32Z</time>
      </trkpt>
      <trkpt lat="48.2606" lon="-3.35426">
        <ele>227</ele>
        <time>2022-05-21T01:24:41Z</time>
      </trkpt>
      <trkpt lat="48.26026" lon="-3.35371">
        <ele>228</ele>
        <time>2022-05-21T01:24:49Z</time>
      </trkpt>
      <trkpt lat="48.26002" lon="-3.35338">
        <ele>229</ele>
        <time>2022-05-21T01:24:55Z</time>
      </trkpt>
      <trkpt lat="48.25984" lon="-3.35305">
        <ele>229</ele>
        <time>2022-05-21T01:25:00Z</time>
      </trkpt>
      <trkpt lat="48.25955" lon="-3.35238">
        <ele>230</ele>
        <time>2022-05-21T01:25:10Z</time>
      </trkpt>
      <trkpt lat="48.25939" lon="-3.35216">
        <ele>231</ele>
        <time>2022-05-21T01:25:14Z</time>
      </trkpt>
      <trkpt lat="48.25932" lon="-3.35199">
        <ele>231</ele>
        <time>2022-05-21T01:25:16Z</time>
      </trkpt>
      <trkpt lat="48.25875" lon="-3.35108">
        <ele>229</ele>
        <time>2022-05-21T01:25:31Z</time>
      </trkpt>
      <trkpt lat="48.25842" lon="-3.35045">
        <ele>228</ele>
        <time>2022-05-21T01:25:40Z</time>
      </trkpt>
      <trkpt lat="48.25741" lon="-3.34876">
        <ele>228</ele>
        <time>2022-05-21T01:26:07Z</time>
      </trkpt>
      <trkpt lat="48.25733" lon="-3.34866">
        <ele>228</ele>
        <time>2022-05-21T01:26:09Z</time>
      </trkpt>
      <trkpt lat="48.25693" lon="-3.34796">
        <ele>225</ele>
        <time>2022-05-21T01:26:20Z</time>
      </trkpt>
      <trkpt lat="48.25673" lon="-3.34756">
        <ele>223</ele>
        <time>2022-05-21T01:26:26Z</time>
      </trkpt>
      <trkpt lat="48.25508" lon="-3.34476">
        <ele>218</ele>
        <time>2022-05-21T01:27:10Z</time>
      </trkpt>
      <trkpt lat="48.25463" lon="-3.34392">
        <ele>216</ele>
        <time>2022-05-21T01:27:23Z</time>
      </trkpt>
      <trkpt lat="48.25332" lon="-3.34167">
        <ele>213</ele>
        <time>2022-05-21T01:27:58Z</time>
      </trkpt>
      <trkpt lat="48.25221" lon="-3.33993">
        <ele>212</ele>
        <time>2022-05-21T01:28:27Z</time>
      </trkpt>
      <trkpt lat="48.25085" lon="-3.33799">
        <ele>209</ele>
        <time>2022-05-21T01:29:00Z</time>
      </trkpt>
      <trkpt lat="48.25013" lon="-3.33691">
        <ele>206</ele>
        <time>2022-05-21T01:29:18Z</time>
      </trkpt>
      <trkpt lat="48.25004" lon="-3.33681">
        <ele>206</ele>
        <time>2022-05-21T01:29:20Z</time>
      </trkpt>
      <trkpt lat="48.24982" lon="-3.33644">
        <ele>206</ele>
        <time>2022-05-21T01:29:26Z</time>
      </trkpt>
      <trkpt lat="48.24941" lon="-3.33591">
        <ele>206</ele>
        <time>2022-05-21T01:29:36Z</time>
      </trkpt>
      <trkpt lat="48.24914" lon="-3.3355">
        <ele>207</ele>
        <time>2022-05-21T01:29:43Z</time>
      </trkpt>
      <trkpt lat="48.24907" lon="-3.33537">
        <ele>206</ele>
        <time>2022-05-21T01:29:45Z</time>
      </trkpt>
      <trkpt lat="48.249" lon="-3.33508">
        <ele>206</ele>
        <time>2022-05-21T01:29:48Z</time>
      </trkpt>
      <trkpt lat="48.24891" lon="-3.33416">
        <ele>204</ele>
        <time>2022-05-21T01:29:59Z</time>
      </trkpt>
      <trkpt lat="48.24887" lon="-3.334">
        <ele>204</ele>
        <time>2022-05-21T01:30:01Z</time>
      </trkpt>
      <trkpt lat="48.24877" lon="-3.33395">
        <ele>204</ele>
        <time>2022-05-21T01:30:03Z</time>
      </trkpt>
      <trkpt lat="48.24867" lon="-3.33399">
        <ele>204</ele>
        <time>2022-05-21T01:30:05Z</time>
      </trkpt>
      <trkpt lat="48.24844" lon="-3.33403">
        <ele>204</ele>
        <time>2022-05-21T01:30:09Z</time>
      </trkpt>
      <trkpt lat="48.24814" lon="-3.33398">
        <ele>204</ele>
        <time>2022-05-21T01:30:15Z</time>
      </trkpt>
      <trkpt lat="48.24805" lon="-3.33407">
        <ele>204</ele>
        <time>2022-05-21T01:30:17Z</time>
      </trkpt>
      <trkpt lat="48.24761" lon="-3.3338">
        <ele>205</ele>
        <time>2022-05-21T01:30:25Z</time>
      </trkpt>
      <trkpt lat="48.24707" lon="-3.33363">
        <ele>205</ele>
        <time>2022-05-21T01:30:35Z</time>
      </trkpt>
      <trkpt lat="48.24622" lon="-3.33344">
        <ele>207</ele>
        <time>2022-05-21T01:30:50Z</time>
      </trkpt>
      <trkpt lat="48.2459" lon="-3.3333">
        <ele>209</ele>
        <time>2022-05-21T01:30:56Z</time>
      </trkpt>
      <trkpt lat="48.24545" lon="-3.33299">
        <ele>209</ele>
        <time>2022-05-21T01:31:05Z</time>
      </trkpt>
      <trkpt lat="48.24512" lon="-3.33261">
        <ele>209</ele>
        <time>2022-05-21T01:31:12Z</time>
      </trkpt>
      <trkpt lat="48.24493" lon="-3.33222">
        <ele>210</ele>
        <time>2022-05-21T01:31:18Z</time>
      </trkpt>
      <trkpt lat="48.24475" lon="-3.33171">
        <ele>211</ele>
        <time>2022-05-21T01:31:25Z</time>
      </trkpt>
      <trkpt lat="48.24392" lon="-3.32813">
        <ele>213</ele>
        <time>2022-05-21T01:32:10Z</time>
      </trkpt>
      <trkpt lat="48.24382" lon="-3.32789">
        <ele>212</ele>
        <time>2022-05-21T01:32:13Z</time>
      </trkpt>
      <trkpt lat="48.24375" lon="-3.32779">
        <ele>213</ele>
        <time>2022-05-21T01:32:15Z</time>
      </trkpt>
      <trkpt lat="48.24355" lon="-3.32731">
        <ele>213</ele>
        <time>2022-05-21T01:32:22Z</time>
      </trkpt>
      <trkpt lat="48.24347" lon="-3.32725">
        <ele>213</ele>
        <time>2022-05-21T01:32:23Z</time>
      </trkpt>
      <trkpt lat="48.24338" lon="-3.32712">
        <ele>212</ele>
        <time>2022-05-21T01:32:25Z</time>
      </trkpt>
      <trkpt lat="48.24325" lon="-3.32689">
        <ele>212</ele>
        <time>2022-05-21T01:32:29Z</time>
      </trkpt>
      <trkpt lat="48.24302" lon="-3.32657">
        <ele>212</ele>
        <time>2022-05-21T01:32:34Z</time>
      </trkpt>
      <trkpt lat="48.24281" lon="-3.32622">
        <ele>213</ele>
        <time>2022-05-21T01:32:40Z</time>
      </trkpt>
      <trkpt lat="48.24273" lon="-3.32614">
        <ele>213</ele>
        <time>2022-05-21T01:32:42Z</time>
      </trkpt>
      <trkpt lat="48.24237" lon="-3.32553">
        <ele>214</ele>
        <time>2022-05-21T01:32:51Z</time>
      </trkpt>
      <trkpt lat="48.24228" lon="-3.32542">
        <ele>214</ele>
        <time>2022-05-21T01:32:54Z</time>
      </trkpt>
      <trkpt lat="48.24214" lon="-3.32511">
        <ele>214</ele>
        <time>2022-05-21T01:32:58Z</time>
      </trkpt>
      <trkpt lat="48.24206" lon="-3.3248">
        <ele>214</ele>
        <time>2022-05-21T01:33:02Z</time>
      </trkpt>
      <trkpt lat="48.2419" lon="-3.324">
        <ele>213</ele>
        <time>2022-05-21T01:33:12Z</time>
      </trkpt>
      <trkpt lat="48.24185" lon="-3.32354">
        <ele>212</ele>
        <time>2022-05-21T01:33:17Z</time>
      </trkpt>
      <trkpt lat="48.24186" lon="-3.32298">
        <ele>212</ele>
        <time>2022-05-21T01:33:24Z</time>
      </trkpt>
      <trkpt lat="48.24198" lon="-3.32227">
        <ele>213</ele>
        <time>2022-05-21T01:33:33Z</time>
      </trkpt>
      <trkpt lat="48.24209" lon="-3.32182">
        <ele>214</ele>
        <time>2022-05-21T01:33:38Z</time>
      </trkpt>
      <trkpt lat="48.24224" lon="-3.3214">
        <ele>214</ele>
        <time>2022-05-21T01:33:44Z</time>
      </trkpt>
      <trkpt lat="48.24231" lon="-3.32112">
        <ele>214</ele>
        <time>2022-05-21T01:33:47Z</time>
      </trkpt>
      <trkpt lat="48.24245" lon="-3.32092">
        <ele>213</ele>
        <time>2022-05-21T01:33:51Z</time>
      </trkpt>
      <trkpt lat="48.2426" lon="-3.32051">
        <ele>213</ele>
        <time>2022-05-21T01:33:56Z</time>
      </trkpt>
      <trkpt lat="48.24261" lon="-3.32031">
        <ele>213</ele>
        <time>2022-05-21T01:33:59Z</time>
      </trkpt>
      <trkpt lat="48.24269" lon="-3.3204">
        <ele>213</ele>
        <time>2022-05-21T01:34:01Z</time>
      </trkpt>
      <trkpt lat="48.24277" lon="-3.32">
        <ele>213</ele>
        <time>2022-05-21T01:34:06Z</time>
      </trkpt>
      <trkpt lat="48.24275" lon="-3.31972">
        <ele>213</ele>
        <time>2022-05-21T01:34:09Z</time>
      </trkpt>
      <trkpt lat="48.24277" lon="-3.31957">
        <ele>213</ele>
        <time>2022-05-21T01:34:11Z</time>
      </trkpt>
      <trkpt lat="48.24315" lon="-3.31862">
        <ele>213</ele>
        <time>2022-05-21T01:34:24Z</time>
      </trkpt>
      <trkpt lat="48.24355" lon="-3.31735">
        <ele>213</ele>
        <time>2022-05-21T01:34:41Z</time>
      </trkpt>
      <trkpt lat="48.24364" lon="-3.31703">
        <ele>214</ele>
        <time>2022-05-21T01:34:45Z</time>
      </trkpt>
      <trkpt lat="48.24373" lon="-3.31619">
        <ele>215</ele>
        <time>2022-05-21T01:34:55Z</time>
      </trkpt>
      <trkpt lat="48.24371" lon="-3.31551">
        <ele>215</ele>
        <time>2022-05-21T01:35:03Z</time>
      </trkpt>
      <trkpt lat="48.24365" lon="-3.31505">
        <ele>214</ele>
        <time>2022-05-21T01:35:08Z</time>
      </trkpt>
      <trkpt lat="48.24336" lon="-3.31413">
        <ele>215</ele>
        <time>2022-05-21T01:35:20Z</time>
      </trkpt>
      <trkpt lat="48.24331" lon="-3.31382">
        <ele>215</ele>
        <time>2022-05-21T01:35:24Z</time>
      </trkpt>
      <trkpt lat="48.2432" lon="-3.31338">
        <ele>215</ele>
        <time>2022-05-21T01:35:30Z</time>
      </trkpt>
      <trkpt lat="48.24317" lon="-3.31307">
        <ele>215</ele>
        <time>2022-05-21T01:35:33Z</time>
      </trkpt>
      <trkpt lat="48.24297" lon="-3.31222">
        <ele>218</ele>
        <time>2022-05-21T01:35:44Z</time>
      </trkpt>
      <trkpt lat="48.24288" lon="-3.31145">
        <ele>220</ele>
        <time>2022-05-21T01:35:53Z</time>
      </trkpt>
      <trkpt lat="48.24284" lon="-3.31036">
        <ele>219</ele>
        <time>2022-05-21T01:36:06Z</time>
      </trkpt>
      <trkpt lat="48.24295" lon="-3.30941">
        <ele>221</ele>
        <time>2022-05-21T01:36:18Z</time>
      </trkpt>
      <trkpt lat="48.24293" lon="-3.30913">
        <ele>221</ele>
        <time>2022-05-21T01:36:21Z</time>
      </trkpt>
      <trkpt lat="48.24307" lon="-3.30892">
        <ele>221</ele>
        <time>2022-05-21T01:36:25Z</time>
      </trkpt>
      <trkpt lat="48.24314" lon="-3.30865">
        <ele>220</ele>
        <time>2022-05-21T01:36:28Z</time>
      </trkpt>
      <trkpt lat="48.24314" lon="-3.30769">
        <ele>220</ele>
        <time>2022-05-21T01:36:39Z</time>
      </trkpt>
      <trkpt lat="48.24317" lon="-3.30722">
        <ele>219</ele>
        <time>2022-05-21T01:36:45Z</time>
      </trkpt>
      <trkpt lat="48.24317" lon="-3.30655">
        <ele>219</ele>
        <time>2022-05-21T01:36:53Z</time>
      </trkpt>
      <trkpt lat="48.24315" lon="-3.30638">
        <ele>219</ele>
        <time>2022-05-21T01:36:55Z</time>
      </trkpt>
      <trkpt lat="48.24321" lon="-3.30463">
        <ele>220</ele>
        <time>2022-05-21T01:37:16Z</time>
      </trkpt>
      <trkpt lat="48.24319" lon="-3.30436">
        <ele>219</ele>
        <time>2022-05-21T01:37:19Z</time>
      </trkpt>
      <trkpt lat="48.24312" lon="-3.30426">
        <ele>220</ele>
        <time>2022-05-21T01:37:21Z</time>
      </trkpt>
      <trkpt lat="48.24317" lon="-3.30437">
        <ele>219</ele>
        <time>2022-05-21T01:37:22Z</time>
      </trkpt>
      <trkpt lat="48.24318" lon="-3.30451">
        <ele>220</ele>
        <time>2022-05-21T01:37:24Z</time>
      </trkpt>
      <trkpt lat="48.24324" lon="-3.30464">
        <ele>220</ele>
        <time>2022-05-21T01:37:26Z</time>
      </trkpt>
      <trkpt lat="48.24343" lon="-3.30467">
        <ele>219</ele>
        <time>2022-05-21T01:37:29Z</time>
      </trkpt>
      <trkpt lat="48.24359" lon="-3.30474">
        <ele>218</ele>
        <time>2022-05-21T01:37:32Z</time>
      </trkpt>
      <trkpt lat="48.2435" lon="-3.30472">
        <ele>219</ele>
        <time>2022-05-21T01:37:34Z</time>
      </trkpt>
      <trkpt lat="48.2438" lon="-3.30473">
        <ele>217</ele>
        <time>2022-05-21T01:37:39Z</time>
      </trkpt>
      <trkpt lat="48.24395" lon="-3.30463">
        <ele>216</ele>
        <time>2022-05-21T01:37:42Z</time>
      </trkpt>
      <trkpt lat="48.24388" lon="-3.30473">
        <ele>217</ele>
        <time>2022-05-21T01:37:44Z</time>
      </trkpt>
      <trkpt lat="48.24395" lon="-3.30463">
        <ele>216</ele>
        <time>2022-05-21T01:37:46Z</time>
      </trkpt>
      <trkpt lat="48.24402" lon="-3.30433">
        <ele>216</ele>
        <time>2022-05-21T01:37:49Z</time>
      </trkpt>
      <trkpt lat="48.24389" lon="-3.3047">
        <ele>217</ele>
        <time>2022-05-21T01:37:54Z</time>
      </trkpt>
      <trkpt lat="48.2438" lon="-3.30474">
        <ele>217</ele>
        <time>2022-05-21T01:37:56Z</time>
      </trkpt>
      <trkpt lat="48.24354" lon="-3.30469">
        <ele>218</ele>
        <time>2022-05-21T01:38:01Z</time>
      </trkpt>
      <trkpt lat="48.24334" lon="-3.30469">
        <ele>219</ele>
        <time>2022-05-21T01:38:04Z</time>
      </trkpt>
      <trkpt lat="48.24323" lon="-3.30474">
        <ele>220</ele>
        <time>2022-05-21T01:38:06Z</time>
      </trkpt>
      <trkpt lat="48.24319" lon="-3.30489">
        <ele>221</ele>
        <time>2022-05-21T01:38:08Z</time>
      </trkpt>
      <trkpt lat="48.24318" lon="-3.30635">
        <ele>219</ele>
        <time>2022-05-21T01:38:25Z</time>
      </trkpt>
      <trkpt lat="48.24311" lon="-3.30823">
        <ele>220</ele>
        <time>2022-05-21T01:38:48Z</time>
      </trkpt>
      <trkpt lat="48.24313" lon="-3.30853">
        <ele>220</ele>
        <time>2022-05-21T01:38:51Z</time>
      </trkpt>
      <trkpt lat="48.24311" lon="-3.30867">
        <ele>220</ele>
        <time>2022-05-21T01:38:53Z</time>
      </trkpt>
      <trkpt lat="48.24316" lon="-3.30881">
        <ele>220</ele>
        <time>2022-05-21T01:38:55Z</time>
      </trkpt>
      <trkpt lat="48.24324" lon="-3.30874">
        <ele>220</ele>
        <time>2022-05-21T01:38:56Z</time>
      </trkpt>
      <trkpt lat="48.24313" lon="-3.30876">
        <ele>220</ele>
        <time>2022-05-21T01:38:58Z</time>
      </trkpt>
      <trkpt lat="48.24305" lon="-3.30884">
        <ele>221</ele>
        <time>2022-05-21T01:39:00Z</time>
      </trkpt>
      <trkpt lat="48.24317" lon="-3.30883">
        <ele>220</ele>
        <time>2022-05-21T01:39:02Z</time>
      </trkpt>
      <trkpt lat="48.24314" lon="-3.30869">
        <ele>220</ele>
        <time>2022-05-21T01:39:04Z</time>
      </trkpt>
      <trkpt lat="48.24313" lon="-3.30805">
        <ele>220</ele>
        <time>2022-05-21T01:39:12Z</time>
      </trkpt>
      <trkpt lat="48.24317" lon="-3.3071">
        <ele>219</ele>
        <time>2022-05-21T01:39:23Z</time>
      </trkpt>
      <trkpt lat="48.24313" lon="-3.30681">
        <ele>219</ele>
        <time>2022-05-21T01:39:26Z</time>
      </trkpt>
      <trkpt lat="48.24318" lon="-3.30596">
        <ele>218</ele>
        <time>2022-05-21T01:39:37Z</time>
      </trkpt>
      <trkpt lat="48.24318" lon="-3.30551">
        <ele>219</ele>
        <time>2022-05-21T01:39:42Z</time>
      </trkpt>
      <trkpt lat="48.24323" lon="-3.30488">
        <ele>220</ele>
        <time>2022-05-21T01:39:49Z</time>
      </trkpt>
      <trkpt lat="48.24326" lon="-3.30475">
        <ele>220</ele>
        <time>2022-05-21T01:39:51Z</time>
      </trkpt>
      <trkpt lat="48.24334" lon="-3.30471">
        <ele>219</ele>
        <time>2022-05-21T01:39:53Z</time>
      </trkpt>
      <trkpt lat="48.24368" lon="-3.30475">
        <ele>218</ele>
        <time>2022-05-21T01:39:59Z</time>
      </trkpt>
      <trkpt lat="48.24388" lon="-3.30471">
        <ele>217</ele>
        <time>2022-05-21T01:40:02Z</time>
      </trkpt>
      <trkpt lat="48.24403" lon="-3.30423">
        <ele>216</ele>
        <time>2022-05-21T01:40:08Z</time>
      </trkpt>
      <trkpt lat="48.24496" lon="-3.30001">
        <ele>211</ele>
        <time>2022-05-21T01:41:01Z</time>
      </trkpt>
      <trkpt lat="48.245" lon="-3.29968">
        <ele>211</ele>
        <time>2022-05-21T01:41:05Z</time>
      </trkpt>
      <trkpt lat="48.24513" lon="-3.29916">
        <ele>211</ele>
        <time>2022-05-21T01:41:12Z</time>
      </trkpt>
      <trkpt lat="48.24543" lon="-3.29765">
        <ele>207</ele>
        <time>2022-05-21T01:41:30Z</time>
      </trkpt>
      <trkpt lat="48.24553" lon="-3.29689">
        <ele>205</ele>
        <time>2022-05-21T01:41:40Z</time>
      </trkpt>
      <trkpt lat="48.24564" lon="-3.29522">
        <ele>200</ele>
        <time>2022-05-21T01:41:59Z</time>
      </trkpt>
      <trkpt lat="48.24565" lon="-3.29458">
        <ele>199</ele>
        <time>2022-05-21T01:42:07Z</time>
      </trkpt>
      <trkpt lat="48.24571" lon="-3.29411">
        <ele>198</ele>
        <time>2022-05-21T01:42:13Z</time>
      </trkpt>
      <trkpt lat="48.24576" lon="-3.29328">
        <ele>198</ele>
        <time>2022-05-21T01:42:23Z</time>
      </trkpt>
      <trkpt lat="48.24575" lon="-3.29313">
        <ele>198</ele>
        <time>2022-05-21T01:42:24Z</time>
      </trkpt>
      <trkpt lat="48.24582" lon="-3.29253">
        <ele>197</ele>
        <time>2022-05-21T01:42:32Z</time>
      </trkpt>
      <trkpt lat="48.24582" lon="-3.29203">
        <ele>197</ele>
        <time>2022-05-21T01:42:37Z</time>
      </trkpt>
      <trkpt lat="48.24596" lon="-3.29019">
        <ele>196</ele>
        <time>2022-05-21T01:42:59Z</time>
      </trkpt>
      <trkpt lat="48.24606" lon="-3.28761">
        <ele>194</ele>
        <time>2022-05-21T01:43:30Z</time>
      </trkpt>
      <trkpt lat="48.24613" lon="-3.28709">
        <ele>193</ele>
        <time>2022-05-21T01:43:36Z</time>
      </trkpt>
      <trkpt lat="48.24613" lon="-3.28689">
        <ele>193</ele>
        <time>2022-05-21T01:43:39Z</time>
      </trkpt>
      <trkpt lat="48.24617" lon="-3.28668">
        <ele>193</ele>
        <time>2022-05-21T01:43:41Z</time>
      </trkpt>
      <trkpt lat="48.2463" lon="-3.28623">
        <ele>192</ele>
        <time>2022-05-21T01:43:47Z</time>
      </trkpt>
      <trkpt lat="48.24639" lon="-3.28581">
        <ele>192</ele>
        <time>2022-05-21T01:43:52Z</time>
      </trkpt>
      <trkpt lat="48.24647" lon="-3.28553">
        <ele>192</ele>
        <time>2022-05-21T01:43:56Z</time>
      </trkpt>
      <trkpt lat="48.24653" lon="-3.28541">
        <ele>192</ele>
        <time>2022-05-21T01:43:58Z</time>
      </trkpt>
      <trkpt lat="48.24653" lon="-3.28497">
        <ele>192</ele>
        <time>2022-05-21T01:44:03Z</time>
      </trkpt>
      <trkpt lat="48.24637" lon="-3.28423">
        <ele>191</ele>
        <time>2022-05-21T01:44:12Z</time>
      </trkpt>
      <trkpt lat="48.24634" lon="-3.28378">
        <ele>189</ele>
        <time>2022-05-21T01:44:18Z</time>
      </trkpt>
      <trkpt lat="48.24643" lon="-3.28253">
        <ele>187</ele>
        <time>2022-05-21T01:44:32Z</time>
      </trkpt>
      <trkpt lat="48.24642" lon="-3.28213">
        <ele>187</ele>
        <time>2022-05-21T01:44:37Z</time>
      </trkpt>
      <trkpt lat="48.24648" lon="-3.2813">
        <ele>186</ele>
        <time>2022-05-21T01:44:47Z</time>
      </trkpt>
      <trkpt lat="48.24647" lon="-3.28112">
        <ele>186</ele>
        <time>2022-05-21T01:44:49Z</time>
      </trkpt>
      <trkpt lat="48.24655" lon="-3.28103">
        <ele>186</ele>
        <time>2022-05-21T01:44:51Z</time>
      </trkpt>
      <trkpt lat="48.24653" lon="-3.28066">
        <ele>186</ele>
        <time>2022-05-21T01:44:55Z</time>
      </trkpt>
      <trkpt lat="48.24662" lon="-3.27946">
        <ele>184</ele>
        <time>2022-05-21T01:45:10Z</time>
      </trkpt>
      <trkpt lat="48.24665" lon="-3.27805">
        <ele>184</ele>
        <time>2022-05-21T01:45:26Z</time>
      </trkpt>
      <trkpt lat="48.24658" lon="-3.2771">
        <ele>185</ele>
        <time>2022-05-21T01:45:38Z</time>
      </trkpt>
      <trkpt lat="48.24665" lon="-3.27678">
        <ele>186</ele>
        <time>2022-05-21T01:45:42Z</time>
      </trkpt>
      <trkpt lat="48.24681" lon="-3.27641">
        <ele>188</ele>
        <time>2022-05-21T01:45:47Z</time>
      </trkpt>
      <trkpt lat="48.24679" lon="-3.27611">
        <ele>189</ele>
        <time>2022-05-21T01:45:50Z</time>
      </trkpt>
      <trkpt lat="48.24673" lon="-3.27597">
        <ele>189</ele>
        <time>2022-05-21T01:45:52Z</time>
      </trkpt>
      <trkpt lat="48.24656" lon="-3.27582">
        <ele>188</ele>
        <time>2022-05-21T01:45:56Z</time>
      </trkpt>
      <trkpt lat="48.24634" lon="-3.27574">
        <ele>187</ele>
        <time>2022-05-21T01:46:00Z</time>
      </trkpt>
      <trkpt lat="48.24624" lon="-3.27566">
        <ele>187</ele>
        <time>2022-05-21T01:46:02Z</time>
      </trkpt>
      <trkpt lat="48.24621" lon="-3.27512">
        <ele>187</ele>
        <time>2022-05-21T01:46:08Z</time>
      </trkpt>
      <trkpt lat="48.24623" lon="-3.27474">
        <ele>187</ele>
        <time>2022-05-21T01:46:13Z</time>
      </trkpt>
      <trkpt lat="48.24613" lon="-3.27355">
        <ele>187</ele>
        <time>2022-05-21T01:46:27Z</time>
      </trkpt>
      <trkpt lat="48.24612" lon="-3.27304">
        <ele>187</ele>
        <time>2022-05-21T01:46:33Z</time>
      </trkpt>
      <trkpt lat="48.246" lon="-3.27144">
        <ele>185</ele>
        <time>2022-05-21T01:46:52Z</time>
      </trkpt>
      <trkpt lat="48.24601" lon="-3.27114">
        <ele>185</ele>
        <time>2022-05-21T01:46:56Z</time>
      </trkpt>
      <trkpt lat="48.24592" lon="-3.26993">
        <ele>185</ele>
        <time>2022-05-21T01:47:10Z</time>
      </trkpt>
      <trkpt lat="48.2459" lon="-3.26907">
        <ele>185</ele>
        <time>2022-05-21T01:47:20Z</time>
      </trkpt>
      <trkpt lat="48.24593" lon="-3.26842">
        <ele>188</ele>
        <time>2022-05-21T01:47:28Z</time>
      </trkpt>
      <trkpt lat="48.24606" lon="-3.26784">
        <ele>189</ele>
        <time>2022-05-21T01:47:35Z</time>
      </trkpt>
      <trkpt lat="48.24618" lon="-3.26713">
        <ele>189</ele>
        <time>2022-05-21T01:47:44Z</time>
      </trkpt>
      <trkpt lat="48.24616" lon="-3.26604">
        <ele>189</ele>
        <time>2022-05-21T01:47:57Z</time>
      </trkpt>
      <trkpt lat="48.24602" lon="-3.26528">
        <ele>190</ele>
        <time>2022-05-21T01:48:06Z</time>
      </trkpt>
      <trkpt lat="48.24603" lon="-3.265">
        <ele>190</ele>
        <time>2022-05-21T01:48:10Z</time>
      </trkpt>
      <trkpt lat="48.24611" lon="-3.26453">
        <ele>190</ele>
        <time>2022-05-21T01:48:15Z</time>
      </trkpt>
      <trkpt lat="48.24605" lon="-3.26436">
        <ele>190</ele>
        <time>2022-05-21T01:48:18Z</time>
      </trkpt>
      <trkpt lat="48.24576" lon="-3.26388">
        <ele>190</ele>
        <time>2022-05-21T01:48:25Z</time>
      </trkpt>
      <trkpt lat="48.2457" lon="-3.2637">
        <ele>190</ele>
        <time>2022-05-21T01:48:28Z</time>
      </trkpt>
      <trkpt lat="48.24555" lon="-3.26224">
        <ele>190</ele>
        <time>2022-05-21T01:48:45Z</time>
      </trkpt>
      <trkpt lat="48.24548" lon="-3.26088">
        <ele>190</ele>
        <time>2022-05-21T01:49:01Z</time>
      </trkpt>
      <trkpt lat="48.24546" lon="-3.25959">
        <ele>192</ele>
        <time>2022-05-21T01:49:17Z</time>
      </trkpt>
      <trkpt lat="48.24542" lon="-3.25904">
        <ele>192</ele>
        <time>2022-05-21T01:49:23Z</time>
      </trkpt>
      <trkpt lat="48.24541" lon="-3.25789">
        <ele>192</ele>
        <time>2022-05-21T01:49:37Z</time>
      </trkpt>
      <trkpt lat="48.24537" lon="-3.25759">
        <ele>193</ele>
        <time>2022-05-21T01:49:41Z</time>
      </trkpt>
      <trkpt lat="48.24534" lon="-3.25679">
        <ele>193</ele>
        <time>2022-05-21T01:49:50Z</time>
      </trkpt>
      <trkpt lat="48.24528" lon="-3.25613">
        <ele>194</ele>
        <time>2022-05-21T01:49:58Z</time>
      </trkpt>
      <trkpt lat="48.2453" lon="-3.25598">
        <ele>194</ele>
        <time>2022-05-21T01:50:00Z</time>
      </trkpt>
      <trkpt lat="48.24527" lon="-3.25583">
        <ele>194</ele>
        <time>2022-05-21T01:50:02Z</time>
      </trkpt>
      <trkpt lat="48.24519" lon="-3.25471">
        <ele>195</ele>
        <time>2022-05-21T01:50:15Z</time>
      </trkpt>
      <trkpt lat="48.24513" lon="-3.25269">
        <ele>197</ele>
        <time>2022-05-21T01:50:39Z</time>
      </trkpt>
      <trkpt lat="48.24519" lon="-3.25226">
        <ele>198</ele>
        <time>2022-05-21T01:50:44Z</time>
      </trkpt>
      <trkpt lat="48.24527" lon="-3.25211">
        <ele>198</ele>
        <time>2022-05-21T01:50:46Z</time>
      </trkpt>
      <trkpt lat="48.24541" lon="-3.25166">
        <ele>199</ele>
        <time>2022-05-21T01:50:52Z</time>
      </trkpt>
      <trkpt lat="48.2454" lon="-3.25149">
        <ele>199</ele>
        <time>2022-05-21T01:50:54Z</time>
      </trkpt>
      <trkpt lat="48.24512" lon="-3.25102">
        <ele>200</ele>
        <time>2022-05-21T01:51:02Z</time>
      </trkpt>
      <trkpt lat="48.24505" lon="-3.25076">
        <ele>200</ele>
        <time>2022-05-21T01:51:05Z</time>
      </trkpt>
      <trkpt lat="48.24499" lon="-3.25031">
        <ele>200</ele>
        <time>2022-05-21T01:51:11Z</time>
      </trkpt>
      <trkpt lat="48.24493" lon="-3.24891">
        <ele>202</ele>
        <time>2022-05-21T01:51:27Z</time>
      </trkpt>
      <trkpt lat="48.24494" lon="-3.24873">
        <ele>202</ele>
        <time>2022-05-21T01:51:29Z</time>
      </trkpt>
      <trkpt lat="48.2449" lon="-3.2484">
        <ele>203</ele>
        <time>2022-05-21T01:51:33Z</time>
      </trkpt>
      <trkpt lat="48.24491" lon="-3.24823">
        <ele>203</ele>
        <time>2022-05-21T01:51:35Z</time>
      </trkpt>
      <trkpt lat="48.24479" lon="-3.24602">
        <ele>207</ele>
        <time>2022-05-21T01:52:02Z</time>
      </trkpt>
      <trkpt lat="48.2448" lon="-3.24572">
        <ele>207</ele>
        <time>2022-05-21T01:52:05Z</time>
      </trkpt>
      <trkpt lat="48.24491" lon="-3.24545">
        <ele>208</ele>
        <time>2022-05-21T01:52:09Z</time>
      </trkpt>
      <trkpt lat="48.24509" lon="-3.24513">
        <ele>209</ele>
        <time>2022-05-21T01:52:14Z</time>
      </trkpt>
      <trkpt lat="48.24526" lon="-3.24494">
        <ele>208</ele>
        <time>2022-05-21T01:52:18Z</time>
      </trkpt>
      <trkpt lat="48.24526" lon="-3.24459">
        <ele>209</ele>
        <time>2022-05-21T01:52:22Z</time>
      </trkpt>
      <trkpt lat="48.24522" lon="-3.24447">
        <ele>209</ele>
        <time>2022-05-21T01:52:23Z</time>
      </trkpt>
      <trkpt lat="48.24513" lon="-3.24443">
        <ele>209</ele>
        <time>2022-05-21T01:52:25Z</time>
      </trkpt>
      <trkpt lat="48.24482" lon="-3.24458">
        <ele>209</ele>
        <time>2022-05-21T01:52:31Z</time>
      </trkpt>
      <trkpt lat="48.24478" lon="-3.24445">
        <ele>209</ele>
        <time>2022-05-21T01:52:33Z</time>
      </trkpt>
      <trkpt lat="48.24471" lon="-3.24204">
        <ele>212</ele>
        <time>2022-05-21T01:53:01Z</time>
      </trkpt>
      <trkpt lat="48.24465" lon="-3.24131">
        <ele>214</ele>
        <time>2022-05-21T01:53:10Z</time>
      </trkpt>
      <trkpt lat="48.24457" lon="-3.2397">
        <ele>219</ele>
        <time>2022-05-21T01:53:29Z</time>
      </trkpt>
      <trkpt lat="48.24439" lon="-3.23835">
        <ele>223</ele>
        <time>2022-05-21T01:53:45Z</time>
      </trkpt>
      <trkpt lat="48.24429" lon="-3.23789">
        <ele>223</ele>
        <time>2022-05-21T01:53:51Z</time>
      </trkpt>
      <trkpt lat="48.24428" lon="-3.23773">
        <ele>223</ele>
        <time>2022-05-21T01:53:53Z</time>
      </trkpt>
      <trkpt lat="48.24442" lon="-3.23608">
        <ele>224</ele>
        <time>2022-05-21T01:54:13Z</time>
      </trkpt>
      <trkpt lat="48.24452" lon="-3.23544">
        <ele>222</ele>
        <time>2022-05-21T01:54:20Z</time>
      </trkpt>
      <trkpt lat="48.24454" lon="-3.23457">
        <ele>218</ele>
        <time>2022-05-21T01:54:31Z</time>
      </trkpt>
      <trkpt lat="48.24457" lon="-3.23425">
        <ele>217</ele>
        <time>2022-05-21T01:54:35Z</time>
      </trkpt>
      <trkpt lat="48.24456" lon="-3.23366">
        <ele>216</ele>
        <time>2022-05-21T01:54:42Z</time>
      </trkpt>
      <trkpt lat="48.24457" lon="-3.23312">
        <ele>215</ele>
        <time>2022-05-21T01:54:48Z</time>
      </trkpt>
      <trkpt lat="48.24461" lon="-3.2326">
        <ele>215</ele>
        <time>2022-05-21T01:54:54Z</time>
      </trkpt>
      <trkpt lat="48.24461" lon="-3.23209">
        <ele>214</ele>
        <time>2022-05-21T01:55:00Z</time>
      </trkpt>
      <trkpt lat="48.24466" lon="-3.23165">
        <ele>214</ele>
        <time>2022-05-21T01:55:05Z</time>
      </trkpt>
      <trkpt lat="48.24475" lon="-3.23025">
        <ele>209</ele>
        <time>2022-05-21T01:55:22Z</time>
      </trkpt>
      <trkpt lat="48.24481" lon="-3.22974">
        <ele>208</ele>
        <time>2022-05-21T01:55:28Z</time>
      </trkpt>
      <trkpt lat="48.24489" lon="-3.22782">
        <ele>209</ele>
        <time>2022-05-21T01:55:51Z</time>
      </trkpt>
      <trkpt lat="48.24495" lon="-3.22689">
        <ele>211</ele>
        <time>2022-05-21T01:56:02Z</time>
      </trkpt>
      <trkpt lat="48.24501" lon="-3.22641">
        <ele>210</ele>
        <time>2022-05-21T01:56:08Z</time>
      </trkpt>
      <trkpt lat="48.245" lon="-3.22586">
        <ele>209</ele>
        <time>2022-05-21T01:56:14Z</time>
      </trkpt>
      <trkpt lat="48.24496" lon="-3.22533">
        <ele>209</ele>
        <time>2022-05-21T01:56:21Z</time>
      </trkpt>
      <trkpt lat="48.24486" lon="-3.22473">
        <ele>208</ele>
        <time>2022-05-21T01:56:28Z</time>
      </trkpt>
      <trkpt lat="48.2447" lon="-3.22401">
        <ele>207</ele>
        <time>2022-05-21T01:56:37Z</time>
      </trkpt>
      <trkpt lat="48.2443" lon="-3.2224">
        <ele>213</ele>
        <time>2022-05-21T01:56:57Z</time>
      </trkpt>
      <trkpt lat="48.24424" lon="-3.22223">
        <ele>214</ele>
        <time>2022-05-21T01:57:00Z</time>
      </trkpt>
      <trkpt lat="48.24407" lon="-3.22122">
        <ele>214</ele>
        <time>2022-05-21T01:57:12Z</time>
      </trkpt>
      <trkpt lat="48.2439" lon="-3.21902">
        <ele>210</ele>
        <time>2022-05-21T01:57:38Z</time>
      </trkpt>
      <trkpt lat="48.24389" lon="-3.21806">
        <ele>201</ele>
        <time>2022-05-21T01:57:50Z</time>
      </trkpt>
      <trkpt lat="48.24385" lon="-3.21784">
        <ele>200</ele>
        <time>2022-05-21T01:57:52Z</time>
      </trkpt>
      <trkpt lat="48.24378" lon="-3.21708">
        <ele>198</ele>
        <time>2022-05-21T01:58:02Z</time>
      </trkpt>
      <trkpt lat="48.24376" lon="-3.21643">
        <ele>197</ele>
        <time>2022-05-21T01:58:09Z</time>
      </trkpt>
      <trkpt lat="48.24372" lon="-3.21609">
        <ele>196</ele>
        <time>2022-05-21T01:58:13Z</time>
      </trkpt>
      <trkpt lat="48.24372" lon="-3.21575">
        <ele>195</ele>
        <time>2022-05-21T01:58:17Z</time>
      </trkpt>
      <trkpt lat="48.24381" lon="-3.21475">
        <ele>195</ele>
        <time>2022-05-21T01:58:29Z</time>
      </trkpt>
      <trkpt lat="48.24409" lon="-3.21361">
        <ele>195</ele>
        <time>2022-05-21T01:58:44Z</time>
      </trkpt>
      <trkpt lat="48.24414" lon="-3.21325">
        <ele>195</ele>
        <time>2022-05-21T01:58:48Z</time>
      </trkpt>
      <trkpt lat="48.24426" lon="-3.21273">
        <ele>196</ele>
        <time>2022-05-21T01:58:55Z</time>
      </trkpt>
      <trkpt lat="48.24443" lon="-3.2121">
        <ele>195</ele>
        <time>2022-05-21T01:59:03Z</time>
      </trkpt>
      <trkpt lat="48.24484" lon="-3.21026">
        <ele>191</ele>
        <time>2022-05-21T01:59:26Z</time>
      </trkpt>
      <trkpt lat="48.245" lon="-3.20965">
        <ele>191</ele>
        <time>2022-05-21T01:59:33Z</time>
      </trkpt>
      <trkpt lat="48.24523" lon="-3.20852">
        <ele>189</ele>
        <time>2022-05-21T01:59:47Z</time>
      </trkpt>
      <trkpt lat="48.24531" lon="-3.20802">
        <ele>188</ele>
        <time>2022-05-21T01:59:53Z</time>
      </trkpt>
      <trkpt lat="48.24535" lon="-3.20749">
        <ele>187</ele>
        <time>2022-05-21T02:00:00Z</time>
      </trkpt>
      <trkpt lat="48.24535" lon="-3.20719">
        <ele>187</ele>
        <time>2022-05-21T02:00:03Z</time>
      </trkpt>
      <trkpt lat="48.2453" lon="-3.20676">
        <ele>187</ele>
        <time>2022-05-21T02:00:09Z</time>
      </trkpt>
      <trkpt lat="48.24521" lon="-3.20629">
        <ele>187</ele>
        <time>2022-05-21T02:00:14Z</time>
      </trkpt>
      <trkpt lat="48.24515" lon="-3.20613">
        <ele>187</ele>
        <time>2022-05-21T02:00:16Z</time>
      </trkpt>
      <trkpt lat="48.24509" lon="-3.20598">
        <ele>187</ele>
        <time>2022-05-21T02:00:19Z</time>
      </trkpt>
      <trkpt lat="48.2448" lon="-3.20548">
        <ele>187</ele>
        <time>2022-05-21T02:00:26Z</time>
      </trkpt>
      <trkpt lat="48.24452" lon="-3.20515">
        <ele>186</ele>
        <time>2022-05-21T02:00:33Z</time>
      </trkpt>
      <trkpt lat="48.24339" lon="-3.20443">
        <ele>183</ele>
        <time>2022-05-21T02:00:55Z</time>
      </trkpt>
      <trkpt lat="48.2431" lon="-3.20414">
        <ele>182</ele>
        <time>2022-05-21T02:01:01Z</time>
      </trkpt>
      <trkpt lat="48.24275" lon="-3.20362">
        <ele>180</ele>
        <time>2022-05-21T02:01:10Z</time>
      </trkpt>
      <trkpt lat="48.24234" lon="-3.20264">
        <ele>179</ele>
        <time>2022-05-21T02:01:23Z</time>
      </trkpt>
      <trkpt lat="48.24208" lon="-3.20214">
        <ele>178</ele>
        <time>2022-05-21T02:01:31Z</time>
      </trkpt>
      <trkpt lat="48.24183" lon="-3.20182">
        <ele>178</ele>
        <time>2022-05-21T02:01:37Z</time>
      </trkpt>
      <trkpt lat="48.24166" lon="-3.20165">
        <ele>179</ele>
        <time>2022-05-21T02:01:40Z</time>
      </trkpt>
      <trkpt lat="48.24131" lon="-3.20143">
        <ele>178</ele>
        <time>2022-05-21T02:01:47Z</time>
      </trkpt>
      <trkpt lat="48.24122" lon="-3.20135">
        <ele>178</ele>
        <time>2022-05-21T02:01:49Z</time>
      </trkpt>
      <trkpt lat="48.24084" lon="-3.20123">
        <ele>179</ele>
        <time>2022-05-21T02:01:56Z</time>
      </trkpt>
      <trkpt lat="48.24047" lon="-3.20117">
        <ele>178</ele>
        <time>2022-05-21T02:02:02Z</time>
      </trkpt>
      <trkpt lat="48.24035" lon="-3.20111">
        <ele>178</ele>
        <time>2022-05-21T02:02:05Z</time>
      </trkpt>
      <trkpt lat="48.24007" lon="-3.20106">
        <ele>178</ele>
        <time>2022-05-21T02:02:10Z</time>
      </trkpt>
      <trkpt lat="48.23966" lon="-3.2009">
        <ele>177</ele>
        <time>2022-05-21T02:02:17Z</time>
      </trkpt>
      <trkpt lat="48.23954" lon="-3.20083">
        <ele>176</ele>
        <time>2022-05-21T02:02:20Z</time>
      </trkpt>
      <trkpt lat="48.2392" lon="-3.20055">
        <ele>175</ele>
        <time>2022-05-21T02:02:26Z</time>
      </trkpt>
      <trkpt lat="48.23899" lon="-3.20027">
        <ele>174</ele>
        <time>2022-05-21T02:02:31Z</time>
      </trkpt>
      <trkpt lat="48.23879" lon="-3.1999">
        <ele>173</ele>
        <time>2022-05-21T02:02:37Z</time>
      </trkpt>
      <trkpt lat="48.23869" lon="-3.19962">
        <ele>172</ele>
        <time>2022-05-21T02:02:41Z</time>
      </trkpt>
      <trkpt lat="48.23856" lon="-3.19915">
        <ele>171</ele>
        <time>2022-05-21T02:02:47Z</time>
      </trkpt>
      <trkpt lat="48.23814" lon="-3.198">
        <ele>168</ele>
        <time>2022-05-21T02:03:02Z</time>
      </trkpt>
      <trkpt lat="48.23698" lon="-3.19459">
        <ele>161</ele>
        <time>2022-05-21T02:03:48Z</time>
      </trkpt>
      <trkpt lat="48.23635" lon="-3.19264">
        <ele>160</ele>
        <time>2022-05-21T02:04:13Z</time>
      </trkpt>
      <trkpt lat="48.23604" lon="-3.19188">
        <ele>159</ele>
        <time>2022-05-21T02:04:24Z</time>
      </trkpt>
      <trkpt lat="48.23601" lon="-3.19175">
        <ele>159</ele>
        <time>2022-05-21T02:04:26Z</time>
      </trkpt>
      <trkpt lat="48.23568" lon="-3.19109">
        <ele>157</ele>
        <time>2022-05-21T02:04:35Z</time>
      </trkpt>
      <trkpt lat="48.23551" lon="-3.19097">
        <ele>155</ele>
        <time>2022-05-21T02:04:39Z</time>
      </trkpt>
      <trkpt lat="48.23539" lon="-3.19099">
        <ele>154</ele>
        <time>2022-05-21T02:04:41Z</time>
      </trkpt>
      <trkpt lat="48.23528" lon="-3.19097">
        <ele>153</ele>
        <time>2022-05-21T02:04:43Z</time>
      </trkpt>
      <trkpt lat="48.23494" lon="-3.19064">
        <ele>151</ele>
        <time>2022-05-21T02:04:50Z</time>
      </trkpt>
      <trkpt lat="48.23469" lon="-3.19049">
        <ele>150</ele>
        <time>2022-05-21T02:04:55Z</time>
      </trkpt>
      <trkpt lat="48.2339" lon="-3.19029">
        <ele>150</ele>
        <time>2022-05-21T02:05:09Z</time>
      </trkpt>
      <trkpt lat="48.23327" lon="-3.1901">
        <ele>153</ele>
        <time>2022-05-21T02:05:21Z</time>
      </trkpt>
      <trkpt lat="48.23271" lon="-3.18983">
        <ele>156</ele>
        <time>2022-05-21T02:05:31Z</time>
      </trkpt>
      <trkpt lat="48.23269" lon="-3.18969">
        <ele>157</ele>
        <time>2022-05-21T02:05:33Z</time>
      </trkpt>
      <trkpt lat="48.23279" lon="-3.18967">
        <ele>157</ele>
        <time>2022-05-21T02:05:35Z</time>
      </trkpt>
      <trkpt lat="48.23323" lon="-3.18985">
        <ele>154</ele>
        <time>2022-05-21T02:05:43Z</time>
      </trkpt>
      <trkpt lat="48.23336" lon="-3.18985">
        <ele>153</ele>
        <time>2022-05-21T02:05:45Z</time>
      </trkpt>
      <trkpt lat="48.23343" lon="-3.18977">
        <ele>153</ele>
        <time>2022-05-21T02:05:47Z</time>
      </trkpt>
      <trkpt lat="48.23356" lon="-3.18919">
        <ele>154</ele>
        <time>2022-05-21T02:05:54Z</time>
      </trkpt>
      <trkpt lat="48.23371" lon="-3.18828">
        <ele>156</ele>
        <time>2022-05-21T02:06:05Z</time>
      </trkpt>
      <trkpt lat="48.23378" lon="-3.18798">
        <ele>156</ele>
        <time>2022-05-21T02:06:09Z</time>
      </trkpt>
      <trkpt lat="48.23441" lon="-3.18572">
        <ele>150</ele>
        <time>2022-05-21T02:06:38Z</time>
      </trkpt>
      <trkpt lat="48.23445" lon="-3.1855">
        <ele>149</ele>
        <time>2022-05-21T02:06:40Z</time>
      </trkpt>
      <trkpt lat="48.23442" lon="-3.18527">
        <ele>149</ele>
        <time>2022-05-21T02:06:43Z</time>
      </trkpt>
      <trkpt lat="48.23413" lon="-3.18451">
        <ele>148</ele>
        <time>2022-05-21T02:06:54Z</time>
      </trkpt>
      <trkpt lat="48.23394" lon="-3.18422">
        <ele>146</ele>
        <time>2022-05-21T02:06:58Z</time>
      </trkpt>
      <trkpt lat="48.2337" lon="-3.18392">
        <ele>145</ele>
        <time>2022-05-21T02:07:04Z</time>
      </trkpt>
      <trkpt lat="48.2332" lon="-3.18352">
        <ele>144</ele>
        <time>2022-05-21T02:07:14Z</time>
      </trkpt>
      <trkpt lat="48.23305" lon="-3.18345">
        <ele>143</ele>
        <time>2022-05-21T02:07:17Z</time>
      </trkpt>
      <trkpt lat="48.23257" lon="-3.18315">
        <ele>141</ele>
        <time>2022-05-21T02:07:26Z</time>
      </trkpt>
      <trkpt lat="48.23196" lon="-3.18291">
        <ele>140</ele>
        <time>2022-05-21T02:07:37Z</time>
      </trkpt>
      <trkpt lat="48.2316" lon="-3.18271">
        <ele>138</ele>
        <time>2022-05-21T02:07:44Z</time>
      </trkpt>
      <trkpt lat="48.23126" lon="-3.18245">
        <ele>138</ele>
        <time>2022-05-21T02:07:51Z</time>
      </trkpt>
      <trkpt lat="48.23095" lon="-3.18211">
        <ele>137</ele>
        <time>2022-05-21T02:07:58Z</time>
      </trkpt>
      <trkpt lat="48.22984" lon="-3.18059">
        <ele>134</ele>
        <time>2022-05-21T02:08:24Z</time>
      </trkpt>
      <trkpt lat="48.22974" lon="-3.18035">
        <ele>134</ele>
        <time>2022-05-21T02:08:28Z</time>
      </trkpt>
      <trkpt lat="48.2295" lon="-3.1801">
        <ele>133</ele>
        <time>2022-05-21T02:08:33Z</time>
      </trkpt>
      <trkpt lat="48.22947" lon="-3.17995">
        <ele>133</ele>
        <time>2022-05-21T02:08:35Z</time>
      </trkpt>
      <trkpt lat="48.2292" lon="-3.17949">
        <ele>132</ele>
        <time>2022-05-21T02:08:42Z</time>
      </trkpt>
      <trkpt lat="48.22905" lon="-3.17926">
        <ele>132</ele>
        <time>2022-05-21T02:08:46Z</time>
      </trkpt>
      <trkpt lat="48.22882" lon="-3.17898">
        <ele>132</ele>
        <time>2022-05-21T02:08:51Z</time>
      </trkpt>
      <trkpt lat="48.22874" lon="-3.17884">
        <ele>131</ele>
        <time>2022-05-21T02:08:53Z</time>
      </trkpt>
      <trkpt lat="48.22843" lon="-3.17845">
        <ele>131</ele>
        <time>2022-05-21T02:09:01Z</time>
      </trkpt>
      <trkpt lat="48.22772" lon="-3.17737">
        <ele>132</ele>
        <time>2022-05-21T02:09:19Z</time>
      </trkpt>
      <trkpt lat="48.22748" lon="-3.17705">
        <ele>133</ele>
        <time>2022-05-21T02:09:24Z</time>
      </trkpt>
      <trkpt lat="48.22732" lon="-3.1769">
        <ele>133</ele>
        <time>2022-05-21T02:09:28Z</time>
      </trkpt>
      <trkpt lat="48.22721" lon="-3.17686">
        <ele>132</ele>
        <time>2022-05-21T02:09:30Z</time>
      </trkpt>
      <trkpt lat="48.22706" lon="-3.17661">
        <ele>133</ele>
        <time>2022-05-21T02:09:34Z</time>
      </trkpt>
      <trkpt lat="48.22694" lon="-3.17655">
        <ele>132</ele>
        <time>2022-05-21T02:09:36Z</time>
      </trkpt>
      <trkpt lat="48.2269" lon="-3.17642">
        <ele>133</ele>
        <time>2022-05-21T02:09:38Z</time>
      </trkpt>
      <trkpt lat="48.22691" lon="-3.17628">
        <ele>133</ele>
        <time>2022-05-21T02:09:39Z</time>
      </trkpt>
      <trkpt lat="48.22674" lon="-3.17585">
        <ele>132</ele>
        <time>2022-05-21T02:09:45Z</time>
      </trkpt>
      <trkpt lat="48.22652" lon="-3.17553">
        <ele>133</ele>
        <time>2022-05-21T02:09:51Z</time>
      </trkpt>
      <trkpt lat="48.22615" lon="-3.17477">
        <ele>135</ele>
        <time>2022-05-21T02:10:02Z</time>
      </trkpt>
      <trkpt lat="48.22588" lon="-3.17428">
        <ele>134</ele>
        <time>2022-05-21T02:10:09Z</time>
      </trkpt>
      <trkpt lat="48.22549" lon="-3.17365">
        <ele>134</ele>
        <time>2022-05-21T02:10:20Z</time>
      </trkpt>
      <trkpt lat="48.22533" lon="-3.17324">
        <ele>134</ele>
        <time>2022-05-21T02:10:25Z</time>
      </trkpt>
      <trkpt lat="48.22514" lon="-3.17289">
        <ele>133</ele>
        <time>2022-05-21T02:10:31Z</time>
      </trkpt>
      <trkpt lat="48.22504" lon="-3.17264">
        <ele>132</ele>
        <time>2022-05-21T02:10:34Z</time>
      </trkpt>
      <trkpt lat="48.22495" lon="-3.17262">
        <ele>132</ele>
        <time>2022-05-21T02:10:36Z</time>
      </trkpt>
      <trkpt lat="48.22488" lon="-3.1725">
        <ele>132</ele>
        <time>2022-05-21T02:10:37Z</time>
      </trkpt>
      <trkpt lat="48.22478" lon="-3.17247">
        <ele>133</ele>
        <time>2022-05-21T02:10:39Z</time>
      </trkpt>
      <trkpt lat="48.2247" lon="-3.17254">
        <ele>132</ele>
        <time>2022-05-21T02:10:41Z</time>
      </trkpt>
      <trkpt lat="48.22479" lon="-3.17244">
        <ele>133</ele>
        <time>2022-05-21T02:10:43Z</time>
      </trkpt>
      <trkpt lat="48.22486" lon="-3.17259">
        <ele>132</ele>
        <time>2022-05-21T02:10:45Z</time>
      </trkpt>
      <trkpt lat="48.22495" lon="-3.17263">
        <ele>132</ele>
        <time>2022-05-21T02:10:47Z</time>
      </trkpt>
      <trkpt lat="48.22529" lon="-3.17316">
        <ele>134</ele>
        <time>2022-05-21T02:10:55Z</time>
      </trkpt>
      <trkpt lat="48.22623" lon="-3.17486">
        <ele>135</ele>
        <time>2022-05-21T02:11:22Z</time>
      </trkpt>
      <trkpt lat="48.22677" lon="-3.17599">
        <ele>132</ele>
        <time>2022-05-21T02:11:38Z</time>
      </trkpt>
      <trkpt lat="48.22686" lon="-3.17624">
        <ele>133</ele>
        <time>2022-05-21T02:11:42Z</time>
      </trkpt>
      <trkpt lat="48.22686" lon="-3.17638">
        <ele>132</ele>
        <time>2022-05-21T02:11:43Z</time>
      </trkpt>
      <trkpt lat="48.2268" lon="-3.17649">
        <ele>132</ele>
        <time>2022-05-21T02:11:45Z</time>
      </trkpt>
      <trkpt lat="48.22649" lon="-3.17662">
        <ele>132</ele>
        <time>2022-05-21T02:11:51Z</time>
      </trkpt>
      <trkpt lat="48.22633" lon="-3.17683">
        <ele>132</ele>
        <time>2022-05-21T02:11:54Z</time>
      </trkpt>
      <trkpt lat="48.22613" lon="-3.17716">
        <ele>132</ele>
        <time>2022-05-21T02:12:00Z</time>
      </trkpt>
      <trkpt lat="48.22603" lon="-3.17722">
        <ele>132</ele>
        <time>2022-05-21T02:12:02Z</time>
      </trkpt>
      <trkpt lat="48.22592" lon="-3.17716">
        <ele>132</ele>
        <time>2022-05-21T02:12:04Z</time>
      </trkpt>
      <trkpt lat="48.22559" lon="-3.17659">
        <ele>132</ele>
        <time>2022-05-21T02:12:13Z</time>
      </trkpt>
      <trkpt lat="48.22551" lon="-3.17649">
        <ele>132</ele>
        <time>2022-05-21T02:12:14Z</time>
      </trkpt>
      <trkpt lat="48.22543" lon="-3.17644">
        <ele>132</ele>
        <time>2022-05-21T02:12:16Z</time>
      </trkpt>
      <trkpt lat="48.22552" lon="-3.17649">
        <ele>132</ele>
        <time>2022-05-21T02:12:18Z</time>
      </trkpt>
      <trkpt lat="48.22585" lon="-3.17719">
        <ele>132</ele>
        <time>2022-05-21T02:12:28Z</time>
      </trkpt>
      <trkpt lat="48.22597" lon="-3.17758">
        <ele>132</ele>
        <time>2022-05-21T02:12:33Z</time>
      </trkpt>
      <trkpt lat="48.22578" lon="-3.17799">
        <ele>131</ele>
        <time>2022-05-21T02:12:39Z</time>
      </trkpt>
      <trkpt lat="48.22557" lon="-3.17858">
        <ele>132</ele>
        <time>2022-05-21T02:12:47Z</time>
      </trkpt>
      <trkpt lat="48.22539" lon="-3.17847">
        <ele>131</ele>
        <time>2022-05-21T02:12:50Z</time>
      </trkpt>
      <trkpt lat="48.22529" lon="-3.17844">
        <ele>131</ele>
        <time>2022-05-21T02:12:52Z</time>
      </trkpt>
      <trkpt lat="48.22498" lon="-3.17837">
        <ele>131</ele>
        <time>2022-05-21T02:12:58Z</time>
      </trkpt>
      <trkpt lat="48.22467" lon="-3.17834">
        <ele>132</ele>
        <time>2022-05-21T02:13:03Z</time>
      </trkpt>
      <trkpt lat="48.22456" lon="-3.1783">
        <ele>133</ele>
        <time>2022-05-21T02:13:05Z</time>
      </trkpt>
      <trkpt lat="48.22437" lon="-3.1783">
        <ele>133</ele>
        <time>2022-05-21T02:13:09Z</time>
      </trkpt>
      <trkpt lat="48.22429" lon="-3.1784">
        <ele>134</ele>
        <time>2022-05-21T02:13:10Z</time>
      </trkpt>
      <trkpt lat="48.2243" lon="-3.17826">
        <ele>134</ele>
        <time>2022-05-21T02:13:12Z</time>
      </trkpt>
      <trkpt lat="48.22442" lon="-3.17823">
        <ele>133</ele>
        <time>2022-05-21T02:13:14Z</time>
      </trkpt>
      <trkpt lat="48.22446" lon="-3.17717">
        <ele>135</ele>
        <time>2022-05-21T02:13:27Z</time>
      </trkpt>
      <trkpt lat="48.22453" lon="-3.17671">
        <ele>135</ele>
        <time>2022-05-21T02:13:32Z</time>
      </trkpt>
      <trkpt lat="48.22472" lon="-3.17593">
        <ele>133</ele>
        <time>2022-05-21T02:13:42Z</time>
      </trkpt>
      <trkpt lat="48.2248" lon="-3.17476">
        <ele>132</ele>
        <time>2022-05-21T02:13:56Z</time>
      </trkpt>
      <trkpt lat="48.2249" lon="-3.17391">
        <ele>132</ele>
        <time>2022-05-21T02:14:06Z</time>
      </trkpt>
      <trkpt lat="48.22492" lon="-3.17363">
        <ele>132</ele>
        <time>2022-05-21T02:14:10Z</time>
      </trkpt>
      <trkpt lat="48.2249" lon="-3.17348">
        <ele>132</ele>
        <time>2022-05-21T02:14:12Z</time>
      </trkpt>
      <trkpt lat="48.2248" lon="-3.17316">
        <ele>132</ele>
        <time>2022-05-21T02:14:16Z</time>
      </trkpt>
      <trkpt lat="48.22471" lon="-3.17301">
        <ele>132</ele>
        <time>2022-05-21T02:14:18Z</time>
      </trkpt>
      <trkpt lat="48.22452" lon="-3.1728">
        <ele>132</ele>
        <time>2022-05-21T02:14:22Z</time>
      </trkpt>
      <trkpt lat="48.22414" lon="-3.17229">
        <ele>134</ele>
        <time>2022-05-21T02:14:31Z</time>
      </trkpt>
      <trkpt lat="48.22392" lon="-3.17207">
        <ele>135</ele>
        <time>2022-05-21T02:14:36Z</time>
      </trkpt>
      <trkpt lat="48.22375" lon="-3.17196">
        <ele>136</ele>
        <time>2022-05-21T02:14:39Z</time>
      </trkpt>
      <trkpt lat="48.22292" lon="-3.1717">
        <ele>136</ele>
        <time>2022-05-21T02:14:55Z</time>
      </trkpt>
      <trkpt lat="48.2217" lon="-3.17155">
        <ele>138</ele>
        <time>2022-05-21T02:15:16Z</time>
      </trkpt>
      <trkpt lat="48.22119" lon="-3.17155">
        <ele>139</ele>
        <time>2022-05-21T02:15:25Z</time>
      </trkpt>
      <trkpt lat="48.22095" lon="-3.17149">
        <ele>139</ele>
        <time>2022-05-21T02:15:30Z</time>
      </trkpt>
      <trkpt lat="48.22073" lon="-3.17135">
        <ele>140</ele>
        <time>2022-05-21T02:15:34Z</time>
      </trkpt>
      <trkpt lat="48.22035" lon="-3.17104">
        <ele>141</ele>
        <time>2022-05-21T02:15:42Z</time>
      </trkpt>
      <trkpt lat="48.22018" lon="-3.17095">
        <ele>142</ele>
        <time>2022-05-21T02:15:45Z</time>
      </trkpt>
      <trkpt lat="48.21983" lon="-3.17068">
        <ele>143</ele>
        <time>2022-05-21T02:15:52Z</time>
      </trkpt>
      <trkpt lat="48.21955" lon="-3.17039">
        <ele>144</ele>
        <time>2022-05-21T02:15:58Z</time>
      </trkpt>
      <trkpt lat="48.21947" lon="-3.17026">
        <ele>143</ele>
        <time>2022-05-21T02:16:00Z</time>
      </trkpt>
      <trkpt lat="48.21936" lon="-3.17016">
        <ele>144</ele>
        <time>2022-05-21T02:16:02Z</time>
      </trkpt>
      <trkpt lat="48.21913" lon="-3.16985">
        <ele>144</ele>
        <time>2022-05-21T02:16:08Z</time>
      </trkpt>
      <trkpt lat="48.21893" lon="-3.16924">
        <ele>146</ele>
        <time>2022-05-21T02:16:16Z</time>
      </trkpt>
      <trkpt lat="48.21886" lon="-3.16886">
        <ele>147</ele>
        <time>2022-05-21T02:16:21Z</time>
      </trkpt>
      <trkpt lat="48.21882" lon="-3.16799">
        <ele>148</ele>
        <time>2022-05-21T02:16:31Z</time>
      </trkpt>
      <trkpt lat="48.21889" lon="-3.16687">
        <ele>146</ele>
        <time>2022-05-21T02:16:44Z</time>
      </trkpt>
      <trkpt lat="48.21894" lon="-3.16671">
        <ele>145</ele>
        <time>2022-05-21T02:16:46Z</time>
      </trkpt>
      <trkpt lat="48.21903" lon="-3.16591">
        <ele>143</ele>
        <time>2022-05-21T02:16:56Z</time>
      </trkpt>
      <trkpt lat="48.21911" lon="-3.16555">
        <ele>142</ele>
        <time>2022-05-21T02:17:00Z</time>
      </trkpt>
      <trkpt lat="48.21938" lon="-3.1648">
        <ele>143</ele>
        <time>2022-05-21T02:17:11Z</time>
      </trkpt>
      <trkpt lat="48.21953" lon="-3.16455">
        <ele>143</ele>
        <time>2022-05-21T02:17:15Z</time>
      </trkpt>
      <trkpt lat="48.21975" lon="-3.16407">
        <ele>143</ele>
        <time>2022-05-21T02:17:21Z</time>
      </trkpt>
      <trkpt lat="48.2199" lon="-3.16361">
        <ele>142</ele>
        <time>2022-05-21T02:17:28Z</time>
      </trkpt>
      <trkpt lat="48.22003" lon="-3.16282">
        <ele>141</ele>
        <time>2022-05-21T02:17:37Z</time>
      </trkpt>
      <trkpt lat="48.22007" lon="-3.16237">
        <ele>142</ele>
        <time>2022-05-21T02:17:43Z</time>
      </trkpt>
      <trkpt lat="48.22002" lon="-3.16195">
        <ele>141</ele>
        <time>2022-05-21T02:17:48Z</time>
      </trkpt>
      <trkpt lat="48.22003" lon="-3.16178">
        <ele>141</ele>
        <time>2022-05-21T02:17:50Z</time>
      </trkpt>
      <trkpt lat="48.21996" lon="-3.1615">
        <ele>140</ele>
        <time>2022-05-21T02:17:53Z</time>
      </trkpt>
      <trkpt lat="48.21989" lon="-3.16137">
        <ele>140</ele>
        <time>2022-05-21T02:17:55Z</time>
      </trkpt>
      <trkpt lat="48.21899" lon="-3.16038">
        <ele>139</ele>
        <time>2022-05-21T02:18:15Z</time>
      </trkpt>
      <trkpt lat="48.21887" lon="-3.16032">
        <ele>139</ele>
        <time>2022-05-21T02:18:17Z</time>
      </trkpt>
      <trkpt lat="48.21878" lon="-3.1603">
        <ele>139</ele>
        <time>2022-05-21T02:18:19Z</time>
      </trkpt>
      <trkpt lat="48.21867" lon="-3.16031">
        <ele>139</ele>
        <time>2022-05-21T02:18:21Z</time>
      </trkpt>
      <trkpt lat="48.21832" lon="-3.16022">
        <ele>140</ele>
        <time>2022-05-21T02:18:27Z</time>
      </trkpt>
      <trkpt lat="48.2182" lon="-3.16022">
        <ele>140</ele>
        <time>2022-05-21T02:18:29Z</time>
      </trkpt>
      <trkpt lat="48.21798" lon="-3.16029">
        <ele>142</ele>
        <time>2022-05-21T02:18:33Z</time>
      </trkpt>
      <trkpt lat="48.21692" lon="-3.1608">
        <ele>143</ele>
        <time>2022-05-21T02:18:53Z</time>
      </trkpt>
      <trkpt lat="48.2165" lon="-3.16096">
        <ele>144</ele>
        <time>2022-05-21T02:19:01Z</time>
      </trkpt>
      <trkpt lat="48.21603" lon="-3.16102">
        <ele>146</ele>
        <time>2022-05-21T02:19:09Z</time>
      </trkpt>
      <trkpt lat="48.21563" lon="-3.1609">
        <ele>146</ele>
        <time>2022-05-21T02:19:16Z</time>
      </trkpt>
      <trkpt lat="48.21543" lon="-3.16075">
        <ele>146</ele>
        <time>2022-05-21T02:19:20Z</time>
      </trkpt>
      <trkpt lat="48.21512" lon="-3.16059">
        <ele>146</ele>
        <time>2022-05-21T02:19:26Z</time>
      </trkpt>
      <trkpt lat="48.21486" lon="-3.16037">
        <ele>146</ele>
        <time>2022-05-21T02:19:32Z</time>
      </trkpt>
      <trkpt lat="48.21446" lon="-3.15995">
        <ele>148</ele>
        <time>2022-05-21T02:19:40Z</time>
      </trkpt>
      <trkpt lat="48.21395" lon="-3.1593">
        <ele>141</ele>
        <time>2022-05-21T02:19:52Z</time>
      </trkpt>
      <trkpt lat="48.2136" lon="-3.1589">
        <ele>139</ele>
        <time>2022-05-21T02:20:00Z</time>
      </trkpt>
      <trkpt lat="48.21279" lon="-3.15824">
        <ele>135</ele>
        <time>2022-05-21T02:20:16Z</time>
      </trkpt>
      <trkpt lat="48.21253" lon="-3.15793">
        <ele>134</ele>
        <time>2022-05-21T02:20:22Z</time>
      </trkpt>
      <trkpt lat="48.21236" lon="-3.15765">
        <ele>135</ele>
        <time>2022-05-21T02:20:27Z</time>
      </trkpt>
      <trkpt lat="48.21222" lon="-3.15709">
        <ele>136</ele>
        <time>2022-05-21T02:20:34Z</time>
      </trkpt>
      <trkpt lat="48.21208" lon="-3.15555">
        <ele>140</ele>
        <time>2022-05-21T02:20:52Z</time>
      </trkpt>
      <trkpt lat="48.21205" lon="-3.15518">
        <ele>141</ele>
        <time>2022-05-21T02:20:57Z</time>
      </trkpt>
      <trkpt lat="48.21207" lon="-3.15466">
        <ele>140</ele>
        <time>2022-05-21T02:21:03Z</time>
      </trkpt>
      <trkpt lat="48.21198" lon="-3.15378">
        <ele>140</ele>
        <time>2022-05-21T02:21:14Z</time>
      </trkpt>
      <trkpt lat="48.21199" lon="-3.15349">
        <ele>139</ele>
        <time>2022-05-21T02:21:17Z</time>
      </trkpt>
      <trkpt lat="48.2121" lon="-3.15296">
        <ele>136</ele>
        <time>2022-05-21T02:21:24Z</time>
      </trkpt>
      <trkpt lat="48.21233" lon="-3.15243">
        <ele>131</ele>
        <time>2022-05-21T02:21:31Z</time>
      </trkpt>
      <trkpt lat="48.21269" lon="-3.15176">
        <ele>129</ele>
        <time>2022-05-21T02:21:41Z</time>
      </trkpt>
      <trkpt lat="48.21296" lon="-3.15116">
        <ele>131</ele>
        <time>2022-05-21T02:21:50Z</time>
      </trkpt>
      <trkpt lat="48.21313" lon="-3.15068">
        <ele>131</ele>
        <time>2022-05-21T02:21:56Z</time>
      </trkpt>
      <trkpt lat="48.2132" lon="-3.15032">
        <ele>131</ele>
        <time>2022-05-21T02:22:01Z</time>
      </trkpt>
      <trkpt lat="48.21323" lon="-3.14979">
        <ele>131</ele>
        <time>2022-05-21T02:22:07Z</time>
      </trkpt>
      <trkpt lat="48.21329" lon="-3.14944">
        <ele>131</ele>
        <time>2022-05-21T02:22:11Z</time>
      </trkpt>
      <trkpt lat="48.21352" lon="-3.1486">
        <ele>133</ele>
        <time>2022-05-21T02:22:22Z</time>
      </trkpt>
      <trkpt lat="48.21378" lon="-3.14777">
        <ele>134</ele>
        <time>2022-05-21T02:22:33Z</time>
      </trkpt>
      <trkpt lat="48.21389" lon="-3.14719">
        <ele>134</ele>
        <time>2022-05-21T02:22:40Z</time>
      </trkpt>
      <trkpt lat="48.2141" lon="-3.14577">
        <ele>133</ele>
        <time>2022-05-21T02:22:57Z</time>
      </trkpt>
      <trkpt lat="48.21428" lon="-3.14492">
        <ele>133</ele>
        <time>2022-05-21T02:23:08Z</time>
      </trkpt>
      <trkpt lat="48.21446" lon="-3.14389">
        <ele>134</ele>
        <time>2022-05-21T02:23:21Z</time>
      </trkpt>
      <trkpt lat="48.21457" lon="-3.14306">
        <ele>136</ele>
        <time>2022-05-21T02:23:31Z</time>
      </trkpt>
      <trkpt lat="48.21456" lon="-3.14289">
        <ele>136</ele>
        <time>2022-05-21T02:23:33Z</time>
      </trkpt>
      <trkpt lat="48.21444" lon="-3.14241">
        <ele>135</ele>
        <time>2022-05-21T02:23:39Z</time>
      </trkpt>
      <trkpt lat="48.21438" lon="-3.14197">
        <ele>134</ele>
        <time>2022-05-21T02:23:44Z</time>
      </trkpt>
      <trkpt lat="48.21439" lon="-3.14168">
        <ele>134</ele>
        <time>2022-05-21T02:23:47Z</time>
      </trkpt>
      <trkpt lat="48.21446" lon="-3.14121">
        <ele>133</ele>
        <time>2022-05-21T02:23:53Z</time>
      </trkpt>
      <trkpt lat="48.21447" lon="-3.14088">
        <ele>132</ele>
        <time>2022-05-21T02:23:57Z</time>
      </trkpt>
      <trkpt lat="48.21436" lon="-3.1393">
        <ele>131</ele>
        <time>2022-05-21T02:24:16Z</time>
      </trkpt>
      <trkpt lat="48.21436" lon="-3.13848">
        <ele>132</ele>
        <time>2022-05-21T02:24:26Z</time>
      </trkpt>
      <trkpt lat="48.21433" lon="-3.13798">
        <ele>132</ele>
        <time>2022-05-21T02:24:32Z</time>
      </trkpt>
      <trkpt lat="48.21424" lon="-3.13751">
        <ele>131</ele>
        <time>2022-05-21T02:24:37Z</time>
      </trkpt>
      <trkpt lat="48.21416" lon="-3.13721">
        <ele>130</ele>
        <time>2022-05-21T02:24:41Z</time>
      </trkpt>
      <trkpt lat="48.21409" lon="-3.13706">
        <ele>132</ele>
        <time>2022-05-21T02:24:43Z</time>
      </trkpt>
      <trkpt lat="48.214" lon="-3.1367">
        <ele>134</ele>
        <time>2022-05-21T02:24:48Z</time>
      </trkpt>
      <trkpt lat="48.2139" lon="-3.13535">
        <ele>137</ele>
        <time>2022-05-21T02:25:04Z</time>
      </trkpt>
      <trkpt lat="48.2139" lon="-3.13507">
        <ele>138</ele>
        <time>2022-05-21T02:25:07Z</time>
      </trkpt>
      <trkpt lat="48.21375" lon="-3.13393">
        <ele>138</ele>
        <time>2022-05-21T02:25:21Z</time>
      </trkpt>
      <trkpt lat="48.21374" lon="-3.13253">
        <ele>136</ele>
        <time>2022-05-21T02:25:38Z</time>
      </trkpt>
      <trkpt lat="48.21369" lon="-3.13218">
        <ele>136</ele>
        <time>2022-05-21T02:25:42Z</time>
      </trkpt>
      <trkpt lat="48.21363" lon="-3.13199">
        <ele>137</ele>
        <time>2022-05-21T02:25:44Z</time>
      </trkpt>
      <trkpt lat="48.21333" lon="-3.13146">
        <ele>137</ele>
        <time>2022-05-21T02:25:53Z</time>
      </trkpt>
      <trkpt lat="48.21315" lon="-3.13125">
        <ele>136</ele>
        <time>2022-05-21T02:25:57Z</time>
      </trkpt>
      <trkpt lat="48.21278" lon="-3.1309">
        <ele>134</ele>
        <time>2022-05-21T02:26:05Z</time>
      </trkpt>
      <trkpt lat="48.21253" lon="-3.1306">
        <ele>131</ele>
        <time>2022-05-21T02:26:10Z</time>
      </trkpt>
      <trkpt lat="48.21246" lon="-3.13049">
        <ele>130</ele>
        <time>2022-05-21T02:26:12Z</time>
      </trkpt>
      <trkpt lat="48.2124" lon="-3.13027">
        <ele>129</ele>
        <time>2022-05-21T02:26:15Z</time>
      </trkpt>
      <trkpt lat="48.21205" lon="-3.12998">
        <ele>129</ele>
        <time>2022-05-21T02:26:22Z</time>
      </trkpt>
      <trkpt lat="48.21198" lon="-3.13008">
        <ele>131</ele>
        <time>2022-05-21T02:26:24Z</time>
      </trkpt>
      <trkpt lat="48.21188" lon="-3.13015">
        <ele>133</ele>
        <time>2022-05-21T02:26:26Z</time>
      </trkpt>
      <trkpt lat="48.2118" lon="-3.13009">
        <ele>133</ele>
        <time>2022-05-21T02:26:27Z</time>
      </trkpt>
      <trkpt lat="48.2116" lon="-3.13005">
        <ele>136</ele>
        <time>2022-05-21T02:26:31Z</time>
      </trkpt>
      <trkpt lat="48.21167" lon="-3.12995">
        <ele>133</ele>
        <time>2022-05-21T02:26:33Z</time>
      </trkpt>
      <trkpt lat="48.21177" lon="-3.12991">
        <ele>131</ele>
        <time>2022-05-21T02:26:34Z</time>
      </trkpt>
      <trkpt lat="48.21196" lon="-3.12998">
        <ele>130</ele>
        <time>2022-05-21T02:26:38Z</time>
      </trkpt>
      <trkpt lat="48.21205" lon="-3.13006">
        <ele>130</ele>
        <time>2022-05-21T02:26:40Z</time>
      </trkpt>
      <trkpt lat="48.21218" lon="-3.12978">
        <ele>127</ele>
        <time>2022-05-21T02:26:44Z</time>
      </trkpt>
      <trkpt lat="48.21255" lon="-3.12921">
        <ele>126</ele>
        <time>2022-05-21T02:26:53Z</time>
      </trkpt>
      <trkpt lat="48.21288" lon="-3.12862">
        <ele>129</ele>
        <time>2022-05-21T02:27:02Z</time>
      </trkpt>
      <trkpt lat="48.21303" lon="-3.12842">
        <ele>129</ele>
        <time>2022-05-21T02:27:06Z</time>
      </trkpt>
      <trkpt lat="48.21313" lon="-3.12841">
        <ele>129</ele>
        <time>2022-05-21T02:27:08Z</time>
      </trkpt>
      <trkpt lat="48.21321" lon="-3.12836">
        <ele>129</ele>
        <time>2022-05-21T02:27:09Z</time>
      </trkpt>
      <trkpt lat="48.21329" lon="-3.12823">
        <ele>128</ele>
        <time>2022-05-21T02:27:11Z</time>
      </trkpt>
      <trkpt lat="48.21289" lon="-3.12856">
        <ele>129</ele>
        <time>2022-05-21T02:27:19Z</time>
      </trkpt>
      <trkpt lat="48.21267" lon="-3.12829">
        <ele>131</ele>
        <time>2022-05-21T02:27:25Z</time>
      </trkpt>
      <trkpt lat="48.21285" lon="-3.12858">
        <ele>129</ele>
        <time>2022-05-21T02:27:29Z</time>
      </trkpt>
      <trkpt lat="48.21284" lon="-3.12875">
        <ele>128</ele>
        <time>2022-05-21T02:27:31Z</time>
      </trkpt>
      <trkpt lat="48.21269" lon="-3.12892">
        <ele>128</ele>
        <time>2022-05-21T02:27:35Z</time>
      </trkpt>
      <trkpt lat="48.21241" lon="-3.12939">
        <ele>126</ele>
        <time>2022-05-21T02:27:42Z</time>
      </trkpt>
      <trkpt lat="48.21236" lon="-3.12952">
        <ele>126</ele>
        <time>2022-05-21T02:27:44Z</time>
      </trkpt>
      <trkpt lat="48.21226" lon="-3.1296">
        <ele>126</ele>
        <time>2022-05-21T02:27:46Z</time>
      </trkpt>
      <trkpt lat="48.21216" lon="-3.12984">
        <ele>127</ele>
        <time>2022-05-21T02:27:49Z</time>
      </trkpt>
      <trkpt lat="48.21201" lon="-3.13004">
        <ele>130</ele>
        <time>2022-05-21T02:27:53Z</time>
      </trkpt>
      <trkpt lat="48.21191" lon="-3.13008">
        <ele>132</ele>
        <time>2022-05-21T02:27:55Z</time>
      </trkpt>
      <trkpt lat="48.21169" lon="-3.13004">
        <ele>134</ele>
        <time>2022-05-21T02:27:59Z</time>
      </trkpt>
      <trkpt lat="48.21158" lon="-3.12999">
        <ele>135</ele>
        <time>2022-05-21T02:28:01Z</time>
      </trkpt>
      <trkpt lat="48.21119" lon="-3.12966">
        <ele>140</ele>
        <time>2022-05-21T02:28:09Z</time>
      </trkpt>
      <trkpt lat="48.21103" lon="-3.12941">
        <ele>139</ele>
        <time>2022-05-21T02:28:13Z</time>
      </trkpt>
      <trkpt lat="48.21081" lon="-3.12884">
        <ele>135</ele>
        <time>2022-05-21T02:28:21Z</time>
      </trkpt>
      <trkpt lat="48.21065" lon="-3.12858">
        <ele>138</ele>
        <time>2022-05-21T02:28:25Z</time>
      </trkpt>
      <trkpt lat="48.21022" lon="-3.12741">
        <ele>144</ele>
        <time>2022-05-21T02:28:41Z</time>
      </trkpt>
      <trkpt lat="48.21013" lon="-3.12693">
        <ele>142</ele>
        <time>2022-05-21T02:28:46Z</time>
      </trkpt>
      <trkpt lat="48.21006" lon="-3.12591">
        <ele>138</ele>
        <time>2022-05-21T02:28:59Z</time>
      </trkpt>
      <trkpt lat="48.21009" lon="-3.1256">
        <ele>137</ele>
        <time>2022-05-21T02:29:02Z</time>
      </trkpt>
      <trkpt lat="48.21007" lon="-3.12545">
        <ele>137</ele>
        <time>2022-05-21T02:29:04Z</time>
      </trkpt>
      <trkpt lat="48.21009" lon="-3.12532">
        <ele>136</ele>
        <time>2022-05-21T02:29:06Z</time>
      </trkpt>
      <trkpt lat="48.21008" lon="-3.12478">
        <ele>137</ele>
        <time>2022-05-21T02:29:12Z</time>
      </trkpt>
      <trkpt lat="48.21021" lon="-3.12251">
        <ele>138</ele>
        <time>2022-05-21T02:29:39Z</time>
      </trkpt>
      <trkpt lat="48.21021" lon="-3.12219">
        <ele>140</ele>
        <time>2022-05-21T02:29:43Z</time>
      </trkpt>
      <trkpt lat="48.21029" lon="-3.12168">
        <ele>142</ele>
        <time>2022-05-21T02:29:49Z</time>
      </trkpt>
      <trkpt lat="48.21028" lon="-3.12069">
        <ele>142</ele>
        <time>2022-05-21T02:30:01Z</time>
      </trkpt>
      <trkpt lat="48.21025" lon="-3.12035">
        <ele>141</ele>
        <time>2022-05-21T02:30:05Z</time>
      </trkpt>
      <trkpt lat="48.2099" lon="-3.11849">
        <ele>133</ele>
        <time>2022-05-21T02:30:28Z</time>
      </trkpt>
      <trkpt lat="48.20947" lon="-3.11741">
        <ele>134</ele>
        <time>2022-05-21T02:30:43Z</time>
      </trkpt>
      <trkpt lat="48.20932" lon="-3.11718">
        <ele>134</ele>
        <time>2022-05-21T02:30:47Z</time>
      </trkpt>
      <trkpt lat="48.20919" lon="-3.1171">
        <ele>134</ele>
        <time>2022-05-21T02:30:49Z</time>
      </trkpt>
      <trkpt lat="48.20887" lon="-3.11695">
        <ele>137</ele>
        <time>2022-05-21T02:30:55Z</time>
      </trkpt>
      <trkpt lat="48.20846" lon="-3.11684">
        <ele>141</ele>
        <time>2022-05-21T02:31:03Z</time>
      </trkpt>
      <trkpt lat="48.20816" lon="-3.11669">
        <ele>142</ele>
        <time>2022-05-21T02:31:08Z</time>
      </trkpt>
      <trkpt lat="48.20784" lon="-3.11648">
        <ele>143</ele>
        <time>2022-05-21T02:31:14Z</time>
      </trkpt>
      <trkpt lat="48.20754" lon="-3.11622">
        <ele>142</ele>
        <time>2022-05-21T02:31:21Z</time>
      </trkpt>
      <trkpt lat="48.20726" lon="-3.11603">
        <ele>138</ele>
        <time>2022-05-21T02:31:26Z</time>
      </trkpt>
      <trkpt lat="48.20702" lon="-3.11594">
        <ele>136</ele>
        <time>2022-05-21T02:31:30Z</time>
      </trkpt>
      <trkpt lat="48.20639" lon="-3.11591">
        <ele>136</ele>
        <time>2022-05-21T02:31:42Z</time>
      </trkpt>
      <trkpt lat="48.20584" lon="-3.116">
        <ele>139</ele>
        <time>2022-05-21T02:31:51Z</time>
      </trkpt>
      <trkpt lat="48.20574" lon="-3.11599">
        <ele>140</ele>
        <time>2022-05-21T02:31:53Z</time>
      </trkpt>
      <trkpt lat="48.20555" lon="-3.11603">
        <ele>142</ele>
        <time>2022-05-21T02:31:57Z</time>
      </trkpt>
      <trkpt lat="48.20525" lon="-3.11603">
        <ele>146</ele>
        <time>2022-05-21T02:32:02Z</time>
      </trkpt>
      <trkpt lat="48.20508" lon="-3.11611">
        <ele>148</ele>
        <time>2022-05-21T02:32:05Z</time>
      </trkpt>
      <trkpt lat="48.20448" lon="-3.11592">
        <ele>152</ele>
        <time>2022-05-21T02:32:16Z</time>
      </trkpt>
      <trkpt lat="48.20431" lon="-3.11584">
        <ele>153</ele>
        <time>2022-05-21T02:32:19Z</time>
      </trkpt>
      <trkpt lat="48.20374" lon="-3.11567">
        <ele>158</ele>
        <time>2022-05-21T02:32:30Z</time>
      </trkpt>
      <trkpt lat="48.20354" lon="-3.11568">
        <ele>159</ele>
        <time>2022-05-21T02:32:33Z</time>
      </trkpt>
      <trkpt lat="48.20344" lon="-3.11575">
        <ele>158</ele>
        <time>2022-05-21T02:32:35Z</time>
      </trkpt>
      <trkpt lat="48.20326" lon="-3.1158">
        <ele>159</ele>
        <time>2022-05-21T02:32:38Z</time>
      </trkpt>
      <trkpt lat="48.20283" lon="-3.11616">
        <ele>161</ele>
        <time>2022-05-21T02:32:47Z</time>
      </trkpt>
      <trkpt lat="48.20256" lon="-3.11657">
        <ele>159</ele>
        <time>2022-05-21T02:32:54Z</time>
      </trkpt>
      <trkpt lat="48.20206" lon="-3.11757">
        <ele>162</ele>
        <time>2022-05-21T02:33:09Z</time>
      </trkpt>
      <trkpt lat="48.20169" lon="-3.1181">
        <ele>161</ele>
        <time>2022-05-21T02:33:18Z</time>
      </trkpt>
      <trkpt lat="48.20151" lon="-3.11826">
        <ele>160</ele>
        <time>2022-05-21T02:33:22Z</time>
      </trkpt>
      <trkpt lat="48.20099" lon="-3.11857">
        <ele>160</ele>
        <time>2022-05-21T02:33:32Z</time>
      </trkpt>
      <trkpt lat="48.20079" lon="-3.11862">
        <ele>160</ele>
        <time>2022-05-21T02:33:35Z</time>
      </trkpt>
      <trkpt lat="48.20061" lon="-3.11869">
        <ele>160</ele>
        <time>2022-05-21T02:33:38Z</time>
      </trkpt>
      <trkpt lat="48.20052" lon="-3.11875">
        <ele>160</ele>
        <time>2022-05-21T02:33:40Z</time>
      </trkpt>
      <trkpt lat="48.20041" lon="-3.11878">
        <ele>160</ele>
        <time>2022-05-21T02:33:42Z</time>
      </trkpt>
      <trkpt lat="48.2005" lon="-3.11872">
        <ele>161</ele>
        <time>2022-05-21T02:33:44Z</time>
      </trkpt>
      <trkpt lat="48.20056" lon="-3.11861">
        <ele>161</ele>
        <time>2022-05-21T02:33:46Z</time>
      </trkpt>
      <trkpt lat="48.20072" lon="-3.1185">
        <ele>161</ele>
        <time>2022-05-21T02:33:49Z</time>
      </trkpt>
      <trkpt lat="48.20078" lon="-3.11864">
        <ele>160</ele>
        <time>2022-05-21T02:33:51Z</time>
      </trkpt>
      <trkpt lat="48.20078" lon="-3.1188">
        <ele>159</ele>
        <time>2022-05-21T02:33:53Z</time>
      </trkpt>
      <trkpt lat="48.20069" lon="-3.11879">
        <ele>159</ele>
        <time>2022-05-21T02:33:54Z</time>
      </trkpt>
      <trkpt lat="48.20061" lon="-3.11871">
        <ele>160</ele>
        <time>2022-05-21T02:33:56Z</time>
      </trkpt>
      <trkpt lat="48.20051" lon="-3.11871">
        <ele>161</ele>
        <time>2022-05-21T02:33:58Z</time>
      </trkpt>
      <trkpt lat="48.20021" lon="-3.11881">
        <ele>161</ele>
        <time>2022-05-21T02:34:03Z</time>
      </trkpt>
      <trkpt lat="48.19961" lon="-3.11894">
        <ele>160</ele>
        <time>2022-05-21T02:34:14Z</time>
      </trkpt>
      <trkpt lat="48.19952" lon="-3.11893">
        <ele>160</ele>
        <time>2022-05-21T02:34:16Z</time>
      </trkpt>
      <trkpt lat="48.19946" lon="-3.11881">
        <ele>162</ele>
        <time>2022-05-21T02:34:17Z</time>
      </trkpt>
      <trkpt lat="48.19923" lon="-3.11856">
        <ele>163</ele>
        <time>2022-05-21T02:34:22Z</time>
      </trkpt>
      <trkpt lat="48.19892" lon="-3.118">
        <ele>166</ele>
        <time>2022-05-21T02:34:31Z</time>
      </trkpt>
      <trkpt lat="48.19874" lon="-3.11762">
        <ele>169</ele>
        <time>2022-05-21T02:34:37Z</time>
      </trkpt>
      <trkpt lat="48.19819" lon="-3.11679">
        <ele>175</ele>
        <time>2022-05-21T02:34:50Z</time>
      </trkpt>
      <trkpt lat="48.19814" lon="-3.11666">
        <ele>176</ele>
        <time>2022-05-21T02:34:52Z</time>
      </trkpt>
      <trkpt lat="48.19794" lon="-3.11635">
        <ele>178</ele>
        <time>2022-05-21T02:34:57Z</time>
      </trkpt>
      <trkpt lat="48.19784" lon="-3.11612">
        <ele>181</ele>
        <time>2022-05-21T02:35:01Z</time>
      </trkpt>
      <trkpt lat="48.19758" lon="-3.11572">
        <ele>185</ele>
        <time>2022-05-21T02:35:07Z</time>
      </trkpt>
      <trkpt lat="48.19746" lon="-3.11549">
        <ele>187</ele>
        <time>2022-05-21T02:35:11Z</time>
      </trkpt>
      <trkpt lat="48.19731" lon="-3.11531">
        <ele>189</ele>
        <time>2022-05-21T02:35:14Z</time>
      </trkpt>
      <trkpt lat="48.19716" lon="-3.11496">
        <ele>192</ele>
        <time>2022-05-21T02:35:19Z</time>
      </trkpt>
      <trkpt lat="48.19708" lon="-3.11487">
        <ele>193</ele>
        <time>2022-05-21T02:35:21Z</time>
      </trkpt>
      <trkpt lat="48.19675" lon="-3.1143">
        <ele>196</ele>
        <time>2022-05-21T02:35:30Z</time>
      </trkpt>
      <trkpt lat="48.19666" lon="-3.11402">
        <ele>196</ele>
        <time>2022-05-21T02:35:33Z</time>
      </trkpt>
      <trkpt lat="48.19656" lon="-3.11362">
        <ele>195</ele>
        <time>2022-05-21T02:35:39Z</time>
      </trkpt>
      <trkpt lat="48.19657" lon="-3.11332">
        <ele>196</ele>
        <time>2022-05-21T02:35:42Z</time>
      </trkpt>
      <trkpt lat="48.19646" lon="-3.11255">
        <ele>196</ele>
        <time>2022-05-21T02:35:51Z</time>
      </trkpt>
      <trkpt lat="48.19646" lon="-3.1124">
        <ele>197</ele>
        <time>2022-05-21T02:35:53Z</time>
      </trkpt>
      <trkpt lat="48.19634" lon="-3.11171">
        <ele>196</ele>
        <time>2022-05-21T02:36:02Z</time>
      </trkpt>
      <trkpt lat="48.19629" lon="-3.11113">
        <ele>196</ele>
        <time>2022-05-21T02:36:09Z</time>
      </trkpt>
      <trkpt lat="48.19614" lon="-3.11003">
        <ele>192</ele>
        <time>2022-05-21T02:36:22Z</time>
      </trkpt>
      <trkpt lat="48.19613" lon="-3.1098">
        <ele>192</ele>
        <time>2022-05-21T02:36:25Z</time>
      </trkpt>
      <trkpt lat="48.19583" lon="-3.10725">
        <ele>189</ele>
        <time>2022-05-21T02:36:55Z</time>
      </trkpt>
      <trkpt lat="48.19575" lon="-3.10614">
        <ele>191</ele>
        <time>2022-05-21T02:37:09Z</time>
      </trkpt>
      <trkpt lat="48.19564" lon="-3.10553">
        <ele>192</ele>
        <time>2022-05-21T02:37:16Z</time>
      </trkpt>
      <trkpt lat="48.19552" lon="-3.10436">
        <ele>195</ele>
        <time>2022-05-21T02:37:30Z</time>
      </trkpt>
      <trkpt lat="48.19548" lon="-3.10423">
        <ele>195</ele>
        <time>2022-05-21T02:37:32Z</time>
      </trkpt>
      <trkpt lat="48.19539" lon="-3.10304">
        <ele>199</ele>
        <time>2022-05-21T02:37:46Z</time>
      </trkpt>
      <trkpt lat="48.19522" lon="-3.1016">
        <ele>204</ele>
        <time>2022-05-21T02:38:03Z</time>
      </trkpt>
      <trkpt lat="48.19519" lon="-3.10117">
        <ele>206</ele>
        <time>2022-05-21T02:38:09Z</time>
      </trkpt>
      <trkpt lat="48.19509" lon="-3.10059">
        <ele>208</ele>
        <time>2022-05-21T02:38:16Z</time>
      </trkpt>
      <trkpt lat="48.19509" lon="-3.10045">
        <ele>208</ele>
        <time>2022-05-21T02:38:17Z</time>
      </trkpt>
      <trkpt lat="48.19499" lon="-3.10004">
        <ele>210</ele>
        <time>2022-05-21T02:38:22Z</time>
      </trkpt>
      <trkpt lat="48.19497" lon="-3.09943">
        <ele>214</ele>
        <time>2022-05-21T02:38:30Z</time>
      </trkpt>
      <trkpt lat="48.19477" lon="-3.09804">
        <ele>222</ele>
        <time>2022-05-21T02:38:47Z</time>
      </trkpt>
      <trkpt lat="48.19472" lon="-3.09743">
        <ele>224</ele>
        <time>2022-05-21T02:38:54Z</time>
      </trkpt>
      <trkpt lat="48.19466" lon="-3.09716">
        <ele>224</ele>
        <time>2022-05-21T02:38:57Z</time>
      </trkpt>
      <trkpt lat="48.19439" lon="-3.09455">
        <ele>216</ele>
        <time>2022-05-21T02:39:29Z</time>
      </trkpt>
      <trkpt lat="48.19428" lon="-3.09376">
        <ele>211</ele>
        <time>2022-05-21T02:39:38Z</time>
      </trkpt>
      <trkpt lat="48.19428" lon="-3.09355">
        <ele>209</ele>
        <time>2022-05-21T02:39:41Z</time>
      </trkpt>
      <trkpt lat="48.19416" lon="-3.09274">
        <ele>206</ele>
        <time>2022-05-21T02:39:50Z</time>
      </trkpt>
      <trkpt lat="48.19417" lon="-3.09258">
        <ele>206</ele>
        <time>2022-05-21T02:39:52Z</time>
      </trkpt>
      <trkpt lat="48.19393" lon="-3.09085">
        <ele>204</ele>
        <time>2022-05-21T02:40:13Z</time>
      </trkpt>
      <trkpt lat="48.19382" lon="-3.0903">
        <ele>203</ele>
        <time>2022-05-21T02:40:20Z</time>
      </trkpt>
      <trkpt lat="48.19376" lon="-3.08917">
        <ele>201</ele>
        <time>2022-05-21T02:40:34Z</time>
      </trkpt>
      <trkpt lat="48.19381" lon="-3.08851">
        <ele>198</ele>
        <time>2022-05-21T02:40:41Z</time>
      </trkpt>
      <trkpt lat="48.19411" lon="-3.08667">
        <ele>190</ele>
        <time>2022-05-21T02:41:04Z</time>
      </trkpt>
      <trkpt lat="48.19436" lon="-3.08532">
        <ele>187</ele>
        <time>2022-05-21T02:41:21Z</time>
      </trkpt>
      <trkpt lat="48.19443" lon="-3.08473">
        <ele>187</ele>
        <time>2022-05-21T02:41:28Z</time>
      </trkpt>
      <trkpt lat="48.19443" lon="-3.08432">
        <ele>187</ele>
        <time>2022-05-21T02:41:33Z</time>
      </trkpt>
      <trkpt lat="48.19438" lon="-3.08395">
        <ele>186</ele>
        <time>2022-05-21T02:41:37Z</time>
      </trkpt>
      <trkpt lat="48.19417" lon="-3.08313">
        <ele>182</ele>
        <time>2022-05-21T02:41:47Z</time>
      </trkpt>
      <trkpt lat="48.19388" lon="-3.08156">
        <ele>180</ele>
        <time>2022-05-21T02:42:07Z</time>
      </trkpt>
      <trkpt lat="48.19356" lon="-3.08017">
        <ele>181</ele>
        <time>2022-05-21T02:42:24Z</time>
      </trkpt>
      <trkpt lat="48.1934" lon="-3.07964">
        <ele>180</ele>
        <time>2022-05-21T02:42:31Z</time>
      </trkpt>
      <trkpt lat="48.19328" lon="-3.07913">
        <ele>179</ele>
        <time>2022-05-21T02:42:38Z</time>
      </trkpt>
      <trkpt lat="48.19302" lon="-3.07781">
        <ele>174</ele>
        <time>2022-05-21T02:42:54Z</time>
      </trkpt>
      <trkpt lat="48.19273" lon="-3.07653">
        <ele>165</ele>
        <time>2022-05-21T02:43:10Z</time>
      </trkpt>
      <trkpt lat="48.19265" lon="-3.07603">
        <ele>164</ele>
        <time>2022-05-21T02:43:16Z</time>
      </trkpt>
      <trkpt lat="48.19245" lon="-3.07509">
        <ele>159</ele>
        <time>2022-05-21T02:43:28Z</time>
      </trkpt>
      <trkpt lat="48.19239" lon="-3.07444">
        <ele>157</ele>
        <time>2022-05-21T02:43:35Z</time>
      </trkpt>
      <trkpt lat="48.19239" lon="-3.07325">
        <ele>158</ele>
        <time>2022-05-21T02:43:50Z</time>
      </trkpt>
      <trkpt lat="48.1922" lon="-3.07113">
        <ele>167</ele>
        <time>2022-05-21T02:44:15Z</time>
      </trkpt>
      <trkpt lat="48.19217" lon="-3.07037">
        <ele>168</ele>
        <time>2022-05-21T02:44:24Z</time>
      </trkpt>
      <trkpt lat="48.19231" lon="-3.06953">
        <ele>170</ele>
        <time>2022-05-21T02:44:34Z</time>
      </trkpt>
      <trkpt lat="48.19259" lon="-3.0682">
        <ele>173</ele>
        <time>2022-05-21T02:44:51Z</time>
      </trkpt>
      <trkpt lat="48.19283" lon="-3.06563">
        <ele>178</ele>
        <time>2022-05-21T02:45:22Z</time>
      </trkpt>
      <trkpt lat="48.19289" lon="-3.06518">
        <ele>179</ele>
        <time>2022-05-21T02:45:27Z</time>
      </trkpt>
      <trkpt lat="48.19308" lon="-3.06439">
        <ele>183</ele>
        <time>2022-05-21T02:45:37Z</time>
      </trkpt>
      <trkpt lat="48.19313" lon="-3.06427">
        <ele>184</ele>
        <time>2022-05-21T02:45:39Z</time>
      </trkpt>
      <trkpt lat="48.19318" lon="-3.06399">
        <ele>185</ele>
        <time>2022-05-21T02:45:42Z</time>
      </trkpt>
      <trkpt lat="48.1933" lon="-3.06283">
        <ele>187</ele>
        <time>2022-05-21T02:45:56Z</time>
      </trkpt>
      <trkpt lat="48.19338" lon="-3.06275">
        <ele>188</ele>
        <time>2022-05-21T02:45:58Z</time>
      </trkpt>
      <trkpt lat="48.19346" lon="-3.06304">
        <ele>189</ele>
        <time>2022-05-21T02:46:01Z</time>
      </trkpt>
      <trkpt lat="48.19353" lon="-3.06314">
        <ele>189</ele>
        <time>2022-05-21T02:46:03Z</time>
      </trkpt>
      <trkpt lat="48.19369" lon="-3.06366">
        <ele>190</ele>
        <time>2022-05-21T02:46:10Z</time>
      </trkpt>
      <trkpt lat="48.19375" lon="-3.06376">
        <ele>190</ele>
        <time>2022-05-21T02:46:12Z</time>
      </trkpt>
      <trkpt lat="48.19383" lon="-3.06402">
        <ele>190</ele>
        <time>2022-05-21T02:46:15Z</time>
      </trkpt>
      <trkpt lat="48.19394" lon="-3.06427">
        <ele>190</ele>
        <time>2022-05-21T02:46:19Z</time>
      </trkpt>
      <trkpt lat="48.19367" lon="-3.06344">
        <ele>190</ele>
        <time>2022-05-21T02:46:29Z</time>
      </trkpt>
      <trkpt lat="48.19344" lon="-3.06288">
        <ele>189</ele>
        <time>2022-05-21T02:46:37Z</time>
      </trkpt>
      <trkpt lat="48.19341" lon="-3.06273">
        <ele>188</ele>
        <time>2022-05-21T02:46:39Z</time>
      </trkpt>
      <trkpt lat="48.19351" lon="-3.06267">
        <ele>189</ele>
        <time>2022-05-21T02:46:41Z</time>
      </trkpt>
      <trkpt lat="48.19421" lon="-3.06251">
        <ele>196</ele>
        <time>2022-05-21T02:46:54Z</time>
      </trkpt>
      <trkpt lat="48.19448" lon="-3.06239">
        <ele>199</ele>
        <time>2022-05-21T02:46:59Z</time>
      </trkpt>
      <trkpt lat="48.19475" lon="-3.06215">
        <ele>202</ele>
        <time>2022-05-21T02:47:04Z</time>
      </trkpt>
      <trkpt lat="48.19482" lon="-3.06206">
        <ele>203</ele>
        <time>2022-05-21T02:47:06Z</time>
      </trkpt>
      <trkpt lat="48.19509" lon="-3.06189">
        <ele>206</ele>
        <time>2022-05-21T02:47:11Z</time>
      </trkpt>
      <trkpt lat="48.19534" lon="-3.06162">
        <ele>208</ele>
        <time>2022-05-21T02:47:17Z</time>
      </trkpt>
      <trkpt lat="48.19549" lon="-3.06142">
        <ele>209</ele>
        <time>2022-05-21T02:47:20Z</time>
      </trkpt>
      <trkpt lat="48.19591" lon="-3.06105">
        <ele>212</ele>
        <time>2022-05-21T02:47:29Z</time>
      </trkpt>
      <trkpt lat="48.19607" lon="-3.06084">
        <ele>214</ele>
        <time>2022-05-21T02:47:33Z</time>
      </trkpt>
      <trkpt lat="48.19612" lon="-3.06072">
        <ele>215</ele>
        <time>2022-05-21T02:47:34Z</time>
      </trkpt>
      <trkpt lat="48.19625" lon="-3.06012">
        <ele>217</ele>
        <time>2022-05-21T02:47:42Z</time>
      </trkpt>
      <trkpt lat="48.19639" lon="-3.05916">
        <ele>216</ele>
        <time>2022-05-21T02:47:53Z</time>
      </trkpt>
      <trkpt lat="48.19644" lon="-3.05898">
        <ele>216</ele>
        <time>2022-05-21T02:47:56Z</time>
      </trkpt>
      <trkpt lat="48.19668" lon="-3.05721">
        <ele>216</ele>
        <time>2022-05-21T02:48:17Z</time>
      </trkpt>
      <trkpt lat="48.19686" lon="-3.05615">
        <ele>215</ele>
        <time>2022-05-21T02:48:30Z</time>
      </trkpt>
      <trkpt lat="48.19699" lon="-3.05476">
        <ele>213</ele>
        <time>2022-05-21T02:48:47Z</time>
      </trkpt>
      <trkpt lat="48.19697" lon="-3.05427">
        <ele>213</ele>
        <time>2022-05-21T02:48:53Z</time>
      </trkpt>
      <trkpt lat="48.19681" lon="-3.05336">
        <ele>216</ele>
        <time>2022-05-21T02:49:04Z</time>
      </trkpt>
      <trkpt lat="48.19669" lon="-3.05288">
        <ele>218</ele>
        <time>2022-05-21T02:49:10Z</time>
      </trkpt>
      <trkpt lat="48.1964" lon="-3.05212">
        <ele>218</ele>
        <time>2022-05-21T02:49:20Z</time>
      </trkpt>
      <trkpt lat="48.19604" lon="-3.05139">
        <ele>220</ele>
        <time>2022-05-21T02:49:31Z</time>
      </trkpt>
      <trkpt lat="48.19583" lon="-3.05088">
        <ele>223</ele>
        <time>2022-05-21T02:49:38Z</time>
      </trkpt>
      <trkpt lat="48.19557" lon="-3.04991">
        <ele>229</ele>
        <time>2022-05-21T02:49:51Z</time>
      </trkpt>
      <trkpt lat="48.19527" lon="-3.0483">
        <ele>230</ele>
        <time>2022-05-21T02:50:10Z</time>
      </trkpt>
      <trkpt lat="48.19522" lon="-3.04744">
        <ele>229</ele>
        <time>2022-05-21T02:50:21Z</time>
      </trkpt>
      <trkpt lat="48.19522" lon="-3.04619">
        <ele>227</ele>
        <time>2022-05-21T02:50:35Z</time>
      </trkpt>
      <trkpt lat="48.19515" lon="-3.04575">
        <ele>226</ele>
        <time>2022-05-21T02:50:41Z</time>
      </trkpt>
      <trkpt lat="48.19485" lon="-3.045">
        <ele>224</ele>
        <time>2022-05-21T02:50:51Z</time>
      </trkpt>
      <trkpt lat="48.19453" lon="-3.04428">
        <ele>222</ele>
        <time>2022-05-21T02:51:01Z</time>
      </trkpt>
      <trkpt lat="48.19392" lon="-3.04327">
        <ele>222</ele>
        <time>2022-05-21T02:51:18Z</time>
      </trkpt>
      <trkpt lat="48.1938" lon="-3.04303">
        <ele>221</ele>
        <time>2022-05-21T02:51:21Z</time>
      </trkpt>
      <trkpt lat="48.19366" lon="-3.04264">
        <ele>220</ele>
        <time>2022-05-21T02:51:26Z</time>
      </trkpt>
      <trkpt lat="48.19286" lon="-3.03906">
        <ele>214</ele>
        <time>2022-05-21T02:52:11Z</time>
      </trkpt>
      <trkpt lat="48.19275" lon="-3.03848">
        <ele>213</ele>
        <time>2022-05-21T02:52:18Z</time>
      </trkpt>
      <trkpt lat="48.19253" lon="-3.03593">
        <ele>206</ele>
        <time>2022-05-21T02:52:49Z</time>
      </trkpt>
      <trkpt lat="48.19245" lon="-3.0353">
        <ele>205</ele>
        <time>2022-05-21T02:52:56Z</time>
      </trkpt>
      <trkpt lat="48.19238" lon="-3.03483">
        <ele>204</ele>
        <time>2022-05-21T02:53:02Z</time>
      </trkpt>
      <trkpt lat="48.1921" lon="-3.03338">
        <ele>198</ele>
        <time>2022-05-21T02:53:20Z</time>
      </trkpt>
      <trkpt lat="48.19199" lon="-3.033">
        <ele>196</ele>
        <time>2022-05-21T02:53:25Z</time>
      </trkpt>
      <trkpt lat="48.19182" lon="-3.03263">
        <ele>194</ele>
        <time>2022-05-21T02:53:30Z</time>
      </trkpt>
      <trkpt lat="48.19094" lon="-3.031">
        <ele>187</ele>
        <time>2022-05-21T02:53:55Z</time>
      </trkpt>
      <trkpt lat="48.19041" lon="-3.0292">
        <ele>191</ele>
        <time>2022-05-21T02:54:19Z</time>
      </trkpt>
      <trkpt lat="48.19018" lon="-3.02855">
        <ele>189</ele>
        <time>2022-05-21T02:54:27Z</time>
      </trkpt>
      <trkpt lat="48.19015" lon="-3.02827">
        <ele>187</ele>
        <time>2022-05-21T02:54:31Z</time>
      </trkpt>
      <trkpt lat="48.19011" lon="-3.02813">
        <ele>187</ele>
        <time>2022-05-21T02:54:32Z</time>
      </trkpt>
      <trkpt lat="48.19012" lon="-3.02785">
        <ele>186</ele>
        <time>2022-05-21T02:54:36Z</time>
      </trkpt>
      <trkpt lat="48.19016" lon="-3.0276">
        <ele>185</ele>
        <time>2022-05-21T02:54:39Z</time>
      </trkpt>
      <trkpt lat="48.19035" lon="-3.02772">
        <ele>184</ele>
        <time>2022-05-21T02:54:42Z</time>
      </trkpt>
      <trkpt lat="48.19053" lon="-3.02791">
        <ele>183</ele>
        <time>2022-05-21T02:54:46Z</time>
      </trkpt>
      <trkpt lat="48.19086" lon="-3.02835">
        <ele>182</ele>
        <time>2022-05-21T02:54:54Z</time>
      </trkpt>
      <trkpt lat="48.19125" lon="-3.02897">
        <ele>182</ele>
        <time>2022-05-21T02:55:04Z</time>
      </trkpt>
      <trkpt lat="48.19147" lon="-3.02926">
        <ele>182</ele>
        <time>2022-05-21T02:55:10Z</time>
      </trkpt>
      <trkpt lat="48.19159" lon="-3.02936">
        <ele>181</ele>
        <time>2022-05-21T02:55:12Z</time>
      </trkpt>
      <trkpt lat="48.19172" lon="-3.02938">
        <ele>181</ele>
        <time>2022-05-21T02:55:14Z</time>
      </trkpt>
      <trkpt lat="48.19181" lon="-3.02935">
        <ele>182</ele>
        <time>2022-05-21T02:55:16Z</time>
      </trkpt>
      <trkpt lat="48.19196" lon="-3.02919">
        <ele>182</ele>
        <time>2022-05-21T02:55:19Z</time>
      </trkpt>
      <trkpt lat="48.19208" lon="-3.0291">
        <ele>182</ele>
        <time>2022-05-21T02:55:22Z</time>
      </trkpt>
      <trkpt lat="48.19227" lon="-3.02902">
        <ele>182</ele>
        <time>2022-05-21T02:55:25Z</time>
      </trkpt>
      <trkpt lat="48.19236" lon="-3.02901">
        <ele>183</ele>
        <time>2022-05-21T02:55:27Z</time>
      </trkpt>
      <trkpt lat="48.19246" lon="-3.02902">
        <ele>184</ele>
        <time>2022-05-21T02:55:29Z</time>
      </trkpt>
      <trkpt lat="48.19263" lon="-3.02913">
        <ele>185</ele>
        <time>2022-05-21T02:55:32Z</time>
      </trkpt>
      <trkpt lat="48.19279" lon="-3.02928">
        <ele>188</ele>
        <time>2022-05-21T02:55:35Z</time>
      </trkpt>
      <trkpt lat="48.19292" lon="-3.02949">
        <ele>190</ele>
        <time>2022-05-21T02:55:39Z</time>
      </trkpt>
      <trkpt lat="48.19311" lon="-3.02933">
        <ele>190</ele>
        <time>2022-05-21T02:55:42Z</time>
      </trkpt>
      <trkpt lat="48.19363" lon="-3.02807">
        <ele>186</ele>
        <time>2022-05-21T02:56:00Z</time>
      </trkpt>
      <trkpt lat="48.19377" lon="-3.02784">
        <ele>186</ele>
        <time>2022-05-21T02:56:04Z</time>
      </trkpt>
      <trkpt lat="48.19392" lon="-3.02765">
        <ele>186</ele>
        <time>2022-05-21T02:56:07Z</time>
      </trkpt>
      <trkpt lat="48.19409" lon="-3.02753">
        <ele>187</ele>
        <time>2022-05-21T02:56:11Z</time>
      </trkpt>
      <trkpt lat="48.19428" lon="-3.02626">
        <ele>178</ele>
        <time>2022-05-21T02:56:26Z</time>
      </trkpt>
      <trkpt lat="48.19423" lon="-3.02538">
        <ele>180</ele>
        <time>2022-05-21T02:56:36Z</time>
      </trkpt>
      <trkpt lat="48.19431" lon="-3.02475">
        <ele>177</ele>
        <time>2022-05-21T02:56:44Z</time>
      </trkpt>
      <trkpt lat="48.19431" lon="-3.0246">
        <ele>178</ele>
        <time>2022-05-21T02:56:46Z</time>
      </trkpt>
      <trkpt lat="48.19424" lon="-3.02414">
        <ele>181</ele>
        <time>2022-05-21T02:56:51Z</time>
      </trkpt>
      <trkpt lat="48.19423" lon="-3.02383">
        <ele>181</ele>
        <time>2022-05-21T02:56:55Z</time>
      </trkpt>
      <trkpt lat="48.19435" lon="-3.02327">
        <ele>177</ele>
        <time>2022-05-21T02:57:02Z</time>
      </trkpt>
      <trkpt lat="48.19428" lon="-3.02317">
        <ele>177</ele>
        <time>2022-05-21T02:57:04Z</time>
      </trkpt>
      <trkpt lat="48.19416" lon="-3.02322">
        <ele>178</ele>
        <time>2022-05-21T02:57:06Z</time>
      </trkpt>
      <trkpt lat="48.19421" lon="-3.02335">
        <ele>180</ele>
        <time>2022-05-21T02:57:08Z</time>
      </trkpt>
      <trkpt lat="48.19417" lon="-3.02374">
        <ele>181</ele>
        <time>2022-05-21T02:57:12Z</time>
      </trkpt>
      <trkpt lat="48.19407" lon="-3.02403">
        <ele>180</ele>
        <time>2022-05-21T02:57:16Z</time>
      </trkpt>
      <trkpt lat="48.19395" lon="-3.02428">
        <ele>179</ele>
        <time>2022-05-21T02:57:20Z</time>
      </trkpt>
      <trkpt lat="48.19363" lon="-3.02479">
        <ele>173</ele>
        <time>2022-05-21T02:57:28Z</time>
      </trkpt>
      <trkpt lat="48.19353" lon="-3.02515">
        <ele>173</ele>
        <time>2022-05-21T02:57:33Z</time>
      </trkpt>
      <trkpt lat="48.19341" lon="-3.02543">
        <ele>172</ele>
        <time>2022-05-21T02:57:37Z</time>
      </trkpt>
      <trkpt lat="48.19314" lon="-3.02578">
        <ele>172</ele>
        <time>2022-05-21T02:57:43Z</time>
      </trkpt>
      <trkpt lat="48.19295" lon="-3.02591">
        <ele>172</ele>
        <time>2022-05-21T02:57:47Z</time>
      </trkpt>
      <trkpt lat="48.19285" lon="-3.02603">
        <ele>172</ele>
        <time>2022-05-21T02:57:49Z</time>
      </trkpt>
      <trkpt lat="48.19276" lon="-3.02629">
        <ele>172</ele>
        <time>2022-05-21T02:57:53Z</time>
      </trkpt>
      <trkpt lat="48.19254" lon="-3.02671">
        <ele>172</ele>
        <time>2022-05-21T02:57:59Z</time>
      </trkpt>
      <trkpt lat="48.19238" lon="-3.02689">
        <ele>173</ele>
        <time>2022-05-21T02:58:03Z</time>
      </trkpt>
      <trkpt lat="48.19222" lon="-3.027">
        <ele>174</ele>
        <time>2022-05-21T02:58:06Z</time>
      </trkpt>
      <trkpt lat="48.19202" lon="-3.02704">
        <ele>174</ele>
        <time>2022-05-21T02:58:09Z</time>
      </trkpt>
      <trkpt lat="48.19193" lon="-3.02702">
        <ele>175</ele>
        <time>2022-05-21T02:58:11Z</time>
      </trkpt>
      <trkpt lat="48.19183" lon="-3.02695">
        <ele>175</ele>
        <time>2022-05-21T02:58:13Z</time>
      </trkpt>
      <trkpt lat="48.1916" lon="-3.02666">
        <ele>177</ele>
        <time>2022-05-21T02:58:18Z</time>
      </trkpt>
      <trkpt lat="48.19147" lon="-3.02628">
        <ele>178</ele>
        <time>2022-05-21T02:58:23Z</time>
      </trkpt>
      <trkpt lat="48.1914" lon="-3.02598">
        <ele>179</ele>
        <time>2022-05-21T02:58:27Z</time>
      </trkpt>
      <trkpt lat="48.19131" lon="-3.02527">
        <ele>178</ele>
        <time>2022-05-21T02:58:36Z</time>
      </trkpt>
      <trkpt lat="48.19125" lon="-3.025">
        <ele>179</ele>
        <time>2022-05-21T02:58:39Z</time>
      </trkpt>
      <trkpt lat="48.19113" lon="-3.02476">
        <ele>178</ele>
        <time>2022-05-21T02:58:43Z</time>
      </trkpt>
      <trkpt lat="48.19105" lon="-3.02467">
        <ele>179</ele>
        <time>2022-05-21T02:58:44Z</time>
      </trkpt>
      <trkpt lat="48.19077" lon="-3.02445">
        <ele>180</ele>
        <time>2022-05-21T02:58:50Z</time>
      </trkpt>
      <trkpt lat="48.19067" lon="-3.02442">
        <ele>179</ele>
        <time>2022-05-21T02:58:52Z</time>
      </trkpt>
      <trkpt lat="48.19001" lon="-3.02403">
        <ele>171</ele>
        <time>2022-05-21T02:59:04Z</time>
      </trkpt>
      <trkpt lat="48.1898" lon="-3.02396">
        <ele>168</ele>
        <time>2022-05-21T02:59:08Z</time>
      </trkpt>
      <trkpt lat="48.18959" lon="-3.02395">
        <ele>166</ele>
        <time>2022-05-21T02:59:12Z</time>
      </trkpt>
      <trkpt lat="48.18867" lon="-3.02427">
        <ele>159</ele>
        <time>2022-05-21T02:59:29Z</time>
      </trkpt>
      <trkpt lat="48.18847" lon="-3.02432">
        <ele>157</ele>
        <time>2022-05-21T02:59:32Z</time>
      </trkpt>
      <trkpt lat="48.18812" lon="-3.02447">
        <ele>156</ele>
        <time>2022-05-21T02:59:39Z</time>
      </trkpt>
      <trkpt lat="48.18779" lon="-3.0247">
        <ele>155</ele>
        <time>2022-05-21T02:59:45Z</time>
      </trkpt>
      <trkpt lat="48.18695" lon="-3.02548">
        <ele>154</ele>
        <time>2022-05-21T03:00:03Z</time>
      </trkpt>
      <trkpt lat="48.18666" lon="-3.02569">
        <ele>153</ele>
        <time>2022-05-21T03:00:09Z</time>
      </trkpt>
      <trkpt lat="48.18651" lon="-3.02572">
        <ele>153</ele>
        <time>2022-05-21T03:00:11Z</time>
      </trkpt>
      <trkpt lat="48.18636" lon="-3.02568">
        <ele>152</ele>
        <time>2022-05-21T03:00:14Z</time>
      </trkpt>
      <trkpt lat="48.18622" lon="-3.02558">
        <ele>151</ele>
        <time>2022-05-21T03:00:17Z</time>
      </trkpt>
      <trkpt lat="48.18611" lon="-3.02542">
        <ele>149</ele>
        <time>2022-05-21T03:00:20Z</time>
      </trkpt>
      <trkpt lat="48.18581" lon="-3.02486">
        <ele>144</ele>
        <time>2022-05-21T03:00:28Z</time>
      </trkpt>
      <trkpt lat="48.18569" lon="-3.02471">
        <ele>144</ele>
        <time>2022-05-21T03:00:31Z</time>
      </trkpt>
      <trkpt lat="48.18544" lon="-3.02449">
        <ele>145</ele>
        <time>2022-05-21T03:00:36Z</time>
      </trkpt>
      <trkpt lat="48.18505" lon="-3.02406">
        <ele>145</ele>
        <time>2022-05-21T03:00:45Z</time>
      </trkpt>
      <trkpt lat="48.18494" lon="-3.02379">
        <ele>145</ele>
        <time>2022-05-21T03:00:48Z</time>
      </trkpt>
      <trkpt lat="48.18484" lon="-3.02369">
        <ele>145</ele>
        <time>2022-05-21T03:00:51Z</time>
      </trkpt>
      <trkpt lat="48.18461" lon="-3.02359">
        <ele>146</ele>
        <time>2022-05-21T03:00:55Z</time>
      </trkpt>
      <trkpt lat="48.18439" lon="-3.02355">
        <ele>146</ele>
        <time>2022-05-21T03:00:59Z</time>
      </trkpt>
      <trkpt lat="48.18408" lon="-3.02357">
        <ele>147</ele>
        <time>2022-05-21T03:01:04Z</time>
      </trkpt>
      <trkpt lat="48.18401" lon="-3.02343">
        <ele>146</ele>
        <time>2022-05-21T03:01:06Z</time>
      </trkpt>
      <trkpt lat="48.18399" lon="-3.02267">
        <ele>145</ele>
        <time>2022-05-21T03:01:15Z</time>
      </trkpt>
      <trkpt lat="48.18378" lon="-3.02046">
        <ele>140</ele>
        <time>2022-05-21T03:01:42Z</time>
      </trkpt>
      <trkpt lat="48.18379" lon="-3.02006">
        <ele>139</ele>
        <time>2022-05-21T03:01:47Z</time>
      </trkpt>
      <trkpt lat="48.18377" lon="-3.01982">
        <ele>138</ele>
        <time>2022-05-21T03:01:49Z</time>
      </trkpt>
      <trkpt lat="48.1836" lon="-3.01892">
        <ele>131</ele>
        <time>2022-05-21T03:02:01Z</time>
      </trkpt>
      <trkpt lat="48.18348" lon="-3.01866">
        <ele>129</ele>
        <time>2022-05-21T03:02:04Z</time>
      </trkpt>
      <trkpt lat="48.18325" lon="-3.01827">
        <ele>125</ele>
        <time>2022-05-21T03:02:10Z</time>
      </trkpt>
      <trkpt lat="48.18233" lon="-3.01694">
        <ele>109</ele>
        <time>2022-05-21T03:02:33Z</time>
      </trkpt>
      <trkpt lat="48.18205" lon="-3.01668">
        <ele>108</ele>
        <time>2022-05-21T03:02:39Z</time>
      </trkpt>
      <trkpt lat="48.18164" lon="-3.01651">
        <ele>106</ele>
        <time>2022-05-21T03:02:47Z</time>
      </trkpt>
      <trkpt lat="48.18152" lon="-3.01651">
        <ele>106</ele>
        <time>2022-05-21T03:02:49Z</time>
      </trkpt>
      <trkpt lat="48.18136" lon="-3.01672">
        <ele>108</ele>
        <time>2022-05-21T03:02:53Z</time>
      </trkpt>
      <trkpt lat="48.18109" lon="-3.01682">
        <ele>108</ele>
        <time>2022-05-21T03:02:58Z</time>
      </trkpt>
      <trkpt lat="48.18099" lon="-3.01683">
        <ele>107</ele>
        <time>2022-05-21T03:02:59Z</time>
      </trkpt>
      <trkpt lat="48.18068" lon="-3.01696">
        <ele>107</ele>
        <time>2022-05-21T03:03:05Z</time>
      </trkpt>
      <trkpt lat="48.18046" lon="-3.01699">
        <ele>106</ele>
        <time>2022-05-21T03:03:09Z</time>
      </trkpt>
      <trkpt lat="48.18033" lon="-3.01698">
        <ele>106</ele>
        <time>2022-05-21T03:03:11Z</time>
      </trkpt>
      <trkpt lat="48.17927" lon="-3.01648">
        <ele>99</ele>
        <time>2022-05-21T03:03:31Z</time>
      </trkpt>
      <trkpt lat="48.179" lon="-3.01628">
        <ele>96</ele>
        <time>2022-05-21T03:03:36Z</time>
      </trkpt>
      <trkpt lat="48.17881" lon="-3.01601">
        <ele>94</ele>
        <time>2022-05-21T03:03:41Z</time>
      </trkpt>
      <trkpt lat="48.1786" lon="-3.01551">
        <ele>89</ele>
        <time>2022-05-21T03:03:48Z</time>
      </trkpt>
      <trkpt lat="48.17817" lon="-3.0143">
        <ele>84</ele>
        <time>2022-05-21T03:04:04Z</time>
      </trkpt>
      <trkpt lat="48.17803" lon="-3.01398">
        <ele>83</ele>
        <time>2022-05-21T03:04:09Z</time>
      </trkpt>
      <trkpt lat="48.17796" lon="-3.01388">
        <ele>82</ele>
        <time>2022-05-21T03:04:11Z</time>
      </trkpt>
      <trkpt lat="48.17787" lon="-3.01382">
        <ele>82</ele>
        <time>2022-05-21T03:04:12Z</time>
      </trkpt>
      <trkpt lat="48.17755" lon="-3.01387">
        <ele>83</ele>
        <time>2022-05-21T03:04:18Z</time>
      </trkpt>
      <trkpt lat="48.17736" lon="-3.01382">
        <ele>83</ele>
        <time>2022-05-21T03:04:22Z</time>
      </trkpt>
      <trkpt lat="48.17665" lon="-3.01336">
        <ele>82</ele>
        <time>2022-05-21T03:04:35Z</time>
      </trkpt>
      <trkpt lat="48.17614" lon="-3.01299">
        <ele>80</ele>
        <time>2022-05-21T03:04:45Z</time>
      </trkpt>
      <trkpt lat="48.17583" lon="-3.01287">
        <ele>78</ele>
        <time>2022-05-21T03:04:51Z</time>
      </trkpt>
      <trkpt lat="48.17576" lon="-3.01276">
        <ele>78</ele>
        <time>2022-05-21T03:04:53Z</time>
      </trkpt>
      <trkpt lat="48.17577" lon="-3.01214">
        <ele>77</ele>
        <time>2022-05-21T03:05:00Z</time>
      </trkpt>
      <trkpt lat="48.17573" lon="-3.01142">
        <ele>78</ele>
        <time>2022-05-21T03:05:09Z</time>
      </trkpt>
      <trkpt lat="48.17553" lon="-3.00941">
        <ele>80</ele>
        <time>2022-05-21T03:05:33Z</time>
      </trkpt>
      <trkpt lat="48.17553" lon="-3.00906">
        <ele>81</ele>
        <time>2022-05-21T03:05:37Z</time>
      </trkpt>
      <trkpt lat="48.17567" lon="-3.00868">
        <ele>81</ele>
        <time>2022-05-21T03:05:42Z</time>
      </trkpt>
      <trkpt lat="48.17558" lon="-3.00848">
        <ele>81</ele>
        <time>2022-05-21T03:05:45Z</time>
      </trkpt>
      <trkpt lat="48.17548" lon="-3.00844">
        <ele>81</ele>
        <time>2022-05-21T03:05:47Z</time>
      </trkpt>
      <trkpt lat="48.1753" lon="-3.00826">
        <ele>80</ele>
        <time>2022-05-21T03:05:51Z</time>
      </trkpt>
      <trkpt lat="48.17446" lon="-3.00762">
        <ele>80</ele>
        <time>2022-05-21T03:06:08Z</time>
      </trkpt>
      <trkpt lat="48.17405" lon="-3.00727">
        <ele>81</ele>
        <time>2022-05-21T03:06:16Z</time>
      </trkpt>
      <trkpt lat="48.1738" lon="-3.00693">
        <ele>80</ele>
        <time>2022-05-21T03:06:22Z</time>
      </trkpt>
      <trkpt lat="48.17366" lon="-3.00661">
        <ele>80</ele>
        <time>2022-05-21T03:06:26Z</time>
      </trkpt>
      <trkpt lat="48.17347" lon="-3.00578">
        <ele>80</ele>
        <time>2022-05-21T03:06:37Z</time>
      </trkpt>
      <trkpt lat="48.17336" lon="-3.00504">
        <ele>78</ele>
        <time>2022-05-21T03:06:46Z</time>
      </trkpt>
      <trkpt lat="48.17299" lon="-3.00323">
        <ele>77</ele>
        <time>2022-05-21T03:07:08Z</time>
      </trkpt>
      <trkpt lat="48.17232" lon="-2.99936">
        <ele>75</ele>
        <time>2022-05-21T03:07:56Z</time>
      </trkpt>
      <trkpt lat="48.17221" lon="-2.9989">
        <ele>75</ele>
        <time>2022-05-21T03:08:02Z</time>
      </trkpt>
      <trkpt lat="48.17184" lon="-2.99668">
        <ele>76</ele>
        <time>2022-05-21T03:08:29Z</time>
      </trkpt>
      <trkpt lat="48.17164" lon="-2.99567">
        <ele>77</ele>
        <time>2022-05-21T03:08:41Z</time>
      </trkpt>
      <trkpt lat="48.17153" lon="-2.99528">
        <ele>76</ele>
        <time>2022-05-21T03:08:46Z</time>
      </trkpt>
      <trkpt lat="48.17132" lon="-2.99491">
        <ele>76</ele>
        <time>2022-05-21T03:08:52Z</time>
      </trkpt>
      <trkpt lat="48.17097" lon="-2.99462">
        <ele>75</ele>
        <time>2022-05-21T03:08:59Z</time>
      </trkpt>
      <trkpt lat="48.17085" lon="-2.99455">
        <ele>76</ele>
        <time>2022-05-21T03:09:01Z</time>
      </trkpt>
      <trkpt lat="48.17057" lon="-2.99446">
        <ele>76</ele>
        <time>2022-05-21T03:09:07Z</time>
      </trkpt>
      <trkpt lat="48.17037" lon="-2.99444">
        <ele>77</ele>
        <time>2022-05-21T03:09:10Z</time>
      </trkpt>
      <trkpt lat="48.16997" lon="-2.99452">
        <ele>78</ele>
        <time>2022-05-21T03:09:17Z</time>
      </trkpt>
      <trkpt lat="48.1695" lon="-2.99467">
        <ele>79</ele>
        <time>2022-05-21T03:09:26Z</time>
      </trkpt>
      <trkpt lat="48.16816" lon="-2.99501">
        <ele>79</ele>
        <time>2022-05-21T03:09:50Z</time>
      </trkpt>
      <trkpt lat="48.16786" lon="-2.99512">
        <ele>79</ele>
        <time>2022-05-21T03:09:55Z</time>
      </trkpt>
      <trkpt lat="48.16719" lon="-2.99551">
        <ele>78</ele>
        <time>2022-05-21T03:10:08Z</time>
      </trkpt>
      <trkpt lat="48.16643" lon="-2.99599">
        <ele>77</ele>
        <time>2022-05-21T03:10:23Z</time>
      </trkpt>
      <trkpt lat="48.16529" lon="-2.99666">
        <ele>77</ele>
        <time>2022-05-21T03:10:45Z</time>
      </trkpt>
      <trkpt lat="48.16521" lon="-2.99674">
        <ele>77</ele>
        <time>2022-05-21T03:10:46Z</time>
      </trkpt>
      <trkpt lat="48.16512" lon="-2.99671">
        <ele>78</ele>
        <time>2022-05-21T03:10:48Z</time>
      </trkpt>
      <trkpt lat="48.16504" lon="-2.99642">
        <ele>80</ele>
        <time>2022-05-21T03:10:52Z</time>
      </trkpt>
      <trkpt lat="48.16496" lon="-2.99634">
        <ele>81</ele>
        <time>2022-05-21T03:10:54Z</time>
      </trkpt>
      <trkpt lat="48.16487" lon="-2.9963">
        <ele>82</ele>
        <time>2022-05-21T03:10:55Z</time>
      </trkpt>
      <trkpt lat="48.16435" lon="-2.99625">
        <ele>84</ele>
        <time>2022-05-21T03:11:04Z</time>
      </trkpt>
      <trkpt lat="48.16407" lon="-2.99612">
        <ele>85</ele>
        <time>2022-05-21T03:11:10Z</time>
      </trkpt>
      <trkpt lat="48.16381" lon="-2.99593">
        <ele>84</ele>
        <time>2022-05-21T03:11:15Z</time>
      </trkpt>
      <trkpt lat="48.16365" lon="-2.99578">
        <ele>83</ele>
        <time>2022-05-21T03:11:18Z</time>
      </trkpt>
      <trkpt lat="48.16349" lon="-2.99555">
        <ele>83</ele>
        <time>2022-05-21T03:11:22Z</time>
      </trkpt>
      <trkpt lat="48.16332" lon="-2.99522">
        <ele>83</ele>
        <time>2022-05-21T03:11:27Z</time>
      </trkpt>
      <trkpt lat="48.16311" lon="-2.99456">
        <ele>85</ele>
        <time>2022-05-21T03:11:36Z</time>
      </trkpt>
      <trkpt lat="48.16306" lon="-2.99427">
        <ele>86</ele>
        <time>2022-05-21T03:11:39Z</time>
      </trkpt>
      <trkpt lat="48.16269" lon="-2.99274">
        <ele>89</ele>
        <time>2022-05-21T03:11:59Z</time>
      </trkpt>
      <trkpt lat="48.16255" lon="-2.99199">
        <ele>89</ele>
        <time>2022-05-21T03:12:08Z</time>
      </trkpt>
      <trkpt lat="48.16237" lon="-2.99126">
        <ele>89</ele>
        <time>2022-05-21T03:12:17Z</time>
      </trkpt>
      <trkpt lat="48.16219" lon="-2.99037">
        <ele>88</ele>
        <time>2022-05-21T03:12:28Z</time>
      </trkpt>
      <trkpt lat="48.16214" lon="-2.99023">
        <ele>88</ele>
        <time>2022-05-21T03:12:30Z</time>
      </trkpt>
      <trkpt lat="48.16193" lon="-2.98923">
        <ele>88</ele>
        <time>2022-05-21T03:12:42Z</time>
      </trkpt>
      <trkpt lat="48.16167" lon="-2.98816">
        <ele>88</ele>
        <time>2022-05-21T03:12:56Z</time>
      </trkpt>
      <trkpt lat="48.16158" lon="-2.98758">
        <ele>89</ele>
        <time>2022-05-21T03:13:03Z</time>
      </trkpt>
      <trkpt lat="48.16157" lon="-2.98701">
        <ele>87</ele>
        <time>2022-05-21T03:13:10Z</time>
      </trkpt>
      <trkpt lat="48.16173" lon="-2.9842">
        <ele>85</ele>
        <time>2022-05-21T03:13:43Z</time>
      </trkpt>
      <trkpt lat="48.16169" lon="-2.98387">
        <ele>85</ele>
        <time>2022-05-21T03:13:47Z</time>
      </trkpt>
      <trkpt lat="48.16161" lon="-2.98356">
        <ele>85</ele>
        <time>2022-05-21T03:13:51Z</time>
      </trkpt>
      <trkpt lat="48.16154" lon="-2.98342">
        <ele>85</ele>
        <time>2022-05-21T03:13:53Z</time>
      </trkpt>
      <trkpt lat="48.1614" lon="-2.9832">
        <ele>84</ele>
        <time>2022-05-21T03:13:57Z</time>
      </trkpt>
      <trkpt lat="48.16115" lon="-2.98297">
        <ele>83</ele>
        <time>2022-05-21T03:14:02Z</time>
      </trkpt>
      <trkpt lat="48.16104" lon="-2.98291">
        <ele>82</ele>
        <time>2022-05-21T03:14:04Z</time>
      </trkpt>
      <trkpt lat="48.15995" lon="-2.9829">
        <ele>83</ele>
        <time>2022-05-21T03:14:24Z</time>
      </trkpt>
      <trkpt lat="48.15946" lon="-2.98286">
        <ele>84</ele>
        <time>2022-05-21T03:14:32Z</time>
      </trkpt>
      <trkpt lat="48.15937" lon="-2.98281">
        <ele>84</ele>
        <time>2022-05-21T03:14:34Z</time>
      </trkpt>
      <trkpt lat="48.15928" lon="-2.98272">
        <ele>84</ele>
        <time>2022-05-21T03:14:36Z</time>
      </trkpt>
      <trkpt lat="48.15916" lon="-2.98236">
        <ele>85</ele>
        <time>2022-05-21T03:14:41Z</time>
      </trkpt>
      <trkpt lat="48.15896" lon="-2.98135">
        <ele>90</ele>
        <time>2022-05-21T03:14:53Z</time>
      </trkpt>
      <trkpt lat="48.15891" lon="-2.98122">
        <ele>91</ele>
        <time>2022-05-21T03:14:55Z</time>
      </trkpt>
      <trkpt lat="48.15873" lon="-2.98035">
        <ele>96</ele>
        <time>2022-05-21T03:15:06Z</time>
      </trkpt>
      <trkpt lat="48.15836" lon="-2.9788">
        <ele>101</ele>
        <time>2022-05-21T03:15:25Z</time>
      </trkpt>
      <trkpt lat="48.15823" lon="-2.97808">
        <ele>101</ele>
        <time>2022-05-21T03:15:34Z</time>
      </trkpt>
      <trkpt lat="48.158" lon="-2.97723">
        <ele>105</ele>
        <time>2022-05-21T03:15:45Z</time>
      </trkpt>
      <trkpt lat="48.15791" lon="-2.97679">
        <ele>106</ele>
        <time>2022-05-21T03:15:51Z</time>
      </trkpt>
      <trkpt lat="48.15773" lon="-2.97627">
        <ele>109</ele>
        <time>2022-05-21T03:15:58Z</time>
      </trkpt>
      <trkpt lat="48.15739" lon="-2.97575">
        <ele>112</ele>
        <time>2022-05-21T03:16:06Z</time>
      </trkpt>
      <trkpt lat="48.15607" lon="-2.97394">
        <ele>110</ele>
        <time>2022-05-21T03:16:38Z</time>
      </trkpt>
      <trkpt lat="48.15385" lon="-2.97098">
        <ele>107</ele>
        <time>2022-05-21T03:17:31Z</time>
      </trkpt>
      <trkpt lat="48.15302" lon="-2.96978">
        <ele>110</ele>
        <time>2022-05-21T03:17:51Z</time>
      </trkpt>
      <trkpt lat="48.15249" lon="-2.96913">
        <ele>110</ele>
        <time>2022-05-21T03:18:04Z</time>
      </trkpt>
      <trkpt lat="48.15222" lon="-2.96874">
        <ele>109</ele>
        <time>2022-05-21T03:18:10Z</time>
      </trkpt>
      <trkpt lat="48.15214" lon="-2.96865">
        <ele>108</ele>
        <time>2022-05-21T03:18:12Z</time>
      </trkpt>
      <trkpt lat="48.15189" lon="-2.96846">
        <ele>109</ele>
        <time>2022-05-21T03:18:17Z</time>
      </trkpt>
      <trkpt lat="48.15158" lon="-2.96832">
        <ele>109</ele>
        <time>2022-05-21T03:18:23Z</time>
      </trkpt>
      <trkpt lat="48.15126" lon="-2.96827">
        <ele>110</ele>
        <time>2022-05-21T03:18:29Z</time>
      </trkpt>
      <trkpt lat="48.15104" lon="-2.96827">
        <ele>110</ele>
        <time>2022-05-21T03:18:32Z</time>
      </trkpt>
      <trkpt lat="48.15074" lon="-2.96831">
        <ele>111</ele>
        <time>2022-05-21T03:18:38Z</time>
      </trkpt>
      <trkpt lat="48.15044" lon="-2.96829">
        <ele>111</ele>
        <time>2022-05-21T03:18:43Z</time>
      </trkpt>
      <trkpt lat="48.15011" lon="-2.96817">
        <ele>111</ele>
        <time>2022-05-21T03:18:49Z</time>
      </trkpt>
      <trkpt lat="48.14986" lon="-2.96796">
        <ele>112</ele>
        <time>2022-05-21T03:18:54Z</time>
      </trkpt>
      <trkpt lat="48.14923" lon="-2.96736">
        <ele>112</ele>
        <time>2022-05-21T03:19:08Z</time>
      </trkpt>
      <trkpt lat="48.14891" lon="-2.96698">
        <ele>112</ele>
        <time>2022-05-21T03:19:15Z</time>
      </trkpt>
      <trkpt lat="48.14856" lon="-2.96651">
        <ele>113</ele>
        <time>2022-05-21T03:19:23Z</time>
      </trkpt>
      <trkpt lat="48.14803" lon="-2.96572">
        <ele>113</ele>
        <time>2022-05-21T03:19:36Z</time>
      </trkpt>
      <trkpt lat="48.14767" lon="-2.96525">
        <ele>114</ele>
        <time>2022-05-21T03:19:45Z</time>
      </trkpt>
      <trkpt lat="48.14733" lon="-2.96462">
        <ele>114</ele>
        <time>2022-05-21T03:19:55Z</time>
      </trkpt>
      <trkpt lat="48.14687" lon="-2.96317">
        <ele>116</ele>
        <time>2022-05-21T03:20:14Z</time>
      </trkpt>
      <trkpt lat="48.14677" lon="-2.96271">
        <ele>117</ele>
        <time>2022-05-21T03:20:19Z</time>
      </trkpt>
      <trkpt lat="48.14676" lon="-2.9622">
        <ele>118</ele>
        <time>2022-05-21T03:20:25Z</time>
      </trkpt>
      <trkpt lat="48.14681" lon="-2.96128">
        <ele>118</ele>
        <time>2022-05-21T03:20:36Z</time>
      </trkpt>
      <trkpt lat="48.14668" lon="-2.95998">
        <ele>119</ele>
        <time>2022-05-21T03:20:52Z</time>
      </trkpt>
      <trkpt lat="48.14668" lon="-2.95965">
        <ele>119</ele>
        <time>2022-05-21T03:20:56Z</time>
      </trkpt>
      <trkpt lat="48.14673" lon="-2.95913">
        <ele>120</ele>
        <time>2022-05-21T03:21:02Z</time>
      </trkpt>
      <trkpt lat="48.14684" lon="-2.95861">
        <ele>121</ele>
        <time>2022-05-21T03:21:09Z</time>
      </trkpt>
      <trkpt lat="48.14688" lon="-2.95824">
        <ele>121</ele>
        <time>2022-05-21T03:21:13Z</time>
      </trkpt>
      <trkpt lat="48.1468" lon="-2.95736">
        <ele>123</ele>
        <time>2022-05-21T03:21:24Z</time>
      </trkpt>
      <trkpt lat="48.14685" lon="-2.95692">
        <ele>123</ele>
        <time>2022-05-21T03:21:29Z</time>
      </trkpt>
      <trkpt lat="48.14684" lon="-2.95618">
        <ele>124</ele>
        <time>2022-05-21T03:21:38Z</time>
      </trkpt>
      <trkpt lat="48.14679" lon="-2.95575">
        <ele>124</ele>
        <time>2022-05-21T03:21:43Z</time>
      </trkpt>
      <trkpt lat="48.14667" lon="-2.95551">
        <ele>125</ele>
        <time>2022-05-21T03:21:46Z</time>
      </trkpt>
      <trkpt lat="48.14662" lon="-2.95523">
        <ele>125</ele>
        <time>2022-05-21T03:21:50Z</time>
      </trkpt>
      <trkpt lat="48.14653" lon="-2.95496">
        <ele>126</ele>
        <time>2022-05-21T03:21:53Z</time>
      </trkpt>
      <trkpt lat="48.14642" lon="-2.95473">
        <ele>127</ele>
        <time>2022-05-21T03:21:57Z</time>
      </trkpt>
      <trkpt lat="48.14631" lon="-2.95468">
        <ele>127</ele>
        <time>2022-05-21T03:21:59Z</time>
      </trkpt>
      <trkpt lat="48.14638" lon="-2.95482">
        <ele>127</ele>
        <time>2022-05-21T03:22:01Z</time>
      </trkpt>
      <trkpt lat="48.14629" lon="-2.95474">
        <ele>127</ele>
        <time>2022-05-21T03:22:03Z</time>
      </trkpt>
      <trkpt lat="48.14645" lon="-2.95469">
        <ele>127</ele>
        <time>2022-05-21T03:22:06Z</time>
      </trkpt>
      <trkpt lat="48.14646" lon="-2.95483">
        <ele>126</ele>
        <time>2022-05-21T03:22:07Z</time>
      </trkpt>
      <trkpt lat="48.14651" lon="-2.95497">
        <ele>126</ele>
        <time>2022-05-21T03:22:09Z</time>
      </trkpt>
      <trkpt lat="48.1466" lon="-2.95493">
        <ele>126</ele>
        <time>2022-05-21T03:22:11Z</time>
      </trkpt>
      <trkpt lat="48.14653" lon="-2.95503">
        <ele>126</ele>
        <time>2022-05-21T03:22:13Z</time>
      </trkpt>
      <trkpt lat="48.14646" lon="-2.95493">
        <ele>126</ele>
        <time>2022-05-21T03:22:14Z</time>
      </trkpt>
      <trkpt lat="48.1462" lon="-2.95423">
        <ele>128</ele>
        <time>2022-05-21T03:22:24Z</time>
      </trkpt>
      <trkpt lat="48.14615" lon="-2.95395">
        <ele>128</ele>
        <time>2022-05-21T03:22:27Z</time>
      </trkpt>
      <trkpt lat="48.146" lon="-2.95353">
        <ele>128</ele>
        <time>2022-05-21T03:22:33Z</time>
      </trkpt>
      <trkpt lat="48.14598" lon="-2.95317">
        <ele>128</ele>
        <time>2022-05-21T03:22:37Z</time>
      </trkpt>
      <trkpt lat="48.14601" lon="-2.95264">
        <ele>127</ele>
        <time>2022-05-21T03:22:44Z</time>
      </trkpt>
      <trkpt lat="48.14612" lon="-2.95219">
        <ele>127</ele>
        <time>2022-05-21T03:22:49Z</time>
      </trkpt>
      <trkpt lat="48.14621" lon="-2.95152">
        <ele>129</ele>
        <time>2022-05-21T03:22:57Z</time>
      </trkpt>
      <trkpt lat="48.14615" lon="-2.95108">
        <ele>129</ele>
        <time>2022-05-21T03:23:03Z</time>
      </trkpt>
      <trkpt lat="48.1458" lon="-2.94994">
        <ele>134</ele>
        <time>2022-05-21T03:23:18Z</time>
      </trkpt>
      <trkpt lat="48.14555" lon="-2.9489">
        <ele>139</ele>
        <time>2022-05-21T03:23:31Z</time>
      </trkpt>
      <trkpt lat="48.1454" lon="-2.94874">
        <ele>140</ele>
        <time>2022-05-21T03:23:34Z</time>
      </trkpt>
      <trkpt lat="48.14502" lon="-2.94849">
        <ele>140</ele>
        <time>2022-05-21T03:23:41Z</time>
      </trkpt>
      <trkpt lat="48.14464" lon="-2.94828">
        <ele>139</ele>
        <time>2022-05-21T03:23:49Z</time>
      </trkpt>
      <trkpt lat="48.14454" lon="-2.94823">
        <ele>139</ele>
        <time>2022-05-21T03:23:51Z</time>
      </trkpt>
      <trkpt lat="48.14416" lon="-2.94817">
        <ele>139</ele>
        <time>2022-05-21T03:23:57Z</time>
      </trkpt>
      <trkpt lat="48.14407" lon="-2.94813">
        <ele>139</ele>
        <time>2022-05-21T03:23:59Z</time>
      </trkpt>
      <trkpt lat="48.14399" lon="-2.94807">
        <ele>139</ele>
        <time>2022-05-21T03:24:01Z</time>
      </trkpt>
      <trkpt lat="48.14384" lon="-2.94783">
        <ele>138</ele>
        <time>2022-05-21T03:24:04Z</time>
      </trkpt>
      <trkpt lat="48.14362" lon="-2.94683">
        <ele>136</ele>
        <time>2022-05-21T03:24:17Z</time>
      </trkpt>
      <trkpt lat="48.14359" lon="-2.94611">
        <ele>132</ele>
        <time>2022-05-21T03:24:26Z</time>
      </trkpt>
      <trkpt lat="48.14353" lon="-2.94563">
        <ele>130</ele>
        <time>2022-05-21T03:24:31Z</time>
      </trkpt>
      <trkpt lat="48.14279" lon="-2.94183">
        <ele>120</ele>
        <time>2022-05-21T03:25:18Z</time>
      </trkpt>
      <trkpt lat="48.14273" lon="-2.94161">
        <ele>119</ele>
        <time>2022-05-21T03:25:21Z</time>
      </trkpt>
      <trkpt lat="48.14256" lon="-2.9412">
        <ele>118</ele>
        <time>2022-05-21T03:25:27Z</time>
      </trkpt>
      <trkpt lat="48.14237" lon="-2.94084">
        <ele>117</ele>
        <time>2022-05-21T03:25:32Z</time>
      </trkpt>
      <trkpt lat="48.14216" lon="-2.94051">
        <ele>116</ele>
        <time>2022-05-21T03:25:38Z</time>
      </trkpt>
      <trkpt lat="48.14191" lon="-2.94026">
        <ele>116</ele>
        <time>2022-05-21T03:25:43Z</time>
      </trkpt>
      <trkpt lat="48.14164" lon="-2.94009">
        <ele>115</ele>
        <time>2022-05-21T03:25:48Z</time>
      </trkpt>
      <trkpt lat="48.14123" lon="-2.93988">
        <ele>115</ele>
        <time>2022-05-21T03:25:56Z</time>
      </trkpt>
      <trkpt lat="48.1411" lon="-2.93979">
        <ele>114</ele>
        <time>2022-05-21T03:25:59Z</time>
      </trkpt>
      <trkpt lat="48.14086" lon="-2.93955">
        <ele>113</ele>
        <time>2022-05-21T03:26:04Z</time>
      </trkpt>
      <trkpt lat="48.13936" lon="-2.93729">
        <ele>107</ele>
        <time>2022-05-21T03:26:42Z</time>
      </trkpt>
      <trkpt lat="48.13927" lon="-2.93714">
        <ele>107</ele>
        <time>2022-05-21T03:26:44Z</time>
      </trkpt>
      <trkpt lat="48.13914" lon="-2.93683">
        <ele>107</ele>
        <time>2022-05-21T03:26:48Z</time>
      </trkpt>
      <trkpt lat="48.1391" lon="-2.93647">
        <ele>107</ele>
        <time>2022-05-21T03:26:53Z</time>
      </trkpt>
      <trkpt lat="48.13928" lon="-2.93542">
        <ele>107</ele>
        <time>2022-05-21T03:27:06Z</time>
      </trkpt>
      <trkpt lat="48.13931" lon="-2.93493">
        <ele>107</ele>
        <time>2022-05-21T03:27:11Z</time>
      </trkpt>
      <trkpt lat="48.13893" lon="-2.9336">
        <ele>108</ele>
        <time>2022-05-21T03:27:29Z</time>
      </trkpt>
      <trkpt lat="48.13887" lon="-2.93318">
        <ele>108</ele>
        <time>2022-05-21T03:27:34Z</time>
      </trkpt>
      <trkpt lat="48.13886" lon="-2.93276">
        <ele>108</ele>
        <time>2022-05-21T03:27:39Z</time>
      </trkpt>
      <trkpt lat="48.13909" lon="-2.93029">
        <ele>110</ele>
        <time>2022-05-21T03:28:08Z</time>
      </trkpt>
      <trkpt lat="48.1391" lon="-2.92999">
        <ele>111</ele>
        <time>2022-05-21T03:28:12Z</time>
      </trkpt>
      <trkpt lat="48.139" lon="-2.92922">
        <ele>111</ele>
        <time>2022-05-21T03:28:21Z</time>
      </trkpt>
      <trkpt lat="48.13901" lon="-2.92904">
        <ele>111</ele>
        <time>2022-05-21T03:28:23Z</time>
      </trkpt>
      <trkpt lat="48.13917" lon="-2.92816">
        <ele>112</ele>
        <time>2022-05-21T03:28:34Z</time>
      </trkpt>
      <trkpt lat="48.13921" lon="-2.9277">
        <ele>111</ele>
        <time>2022-05-21T03:28:40Z</time>
      </trkpt>
      <trkpt lat="48.1392" lon="-2.92755">
        <ele>110</ele>
        <time>2022-05-21T03:28:41Z</time>
      </trkpt>
      <trkpt lat="48.13915" lon="-2.9274">
        <ele>110</ele>
        <time>2022-05-21T03:28:43Z</time>
      </trkpt>
      <trkpt lat="48.13899" lon="-2.92716">
        <ele>110</ele>
        <time>2022-05-21T03:28:47Z</time>
      </trkpt>
      <trkpt lat="48.13831" lon="-2.92677">
        <ele>112</ele>
        <time>2022-05-21T03:29:00Z</time>
      </trkpt>
      <trkpt lat="48.13762" lon="-2.92643">
        <ele>112</ele>
        <time>2022-05-21T03:29:13Z</time>
      </trkpt>
      <trkpt lat="48.13743" lon="-2.92627">
        <ele>113</ele>
        <time>2022-05-21T03:29:17Z</time>
      </trkpt>
      <trkpt lat="48.1373" lon="-2.92603">
        <ele>114</ele>
        <time>2022-05-21T03:29:21Z</time>
      </trkpt>
      <trkpt lat="48.13724" lon="-2.92572">
        <ele>115</ele>
        <time>2022-05-21T03:29:25Z</time>
      </trkpt>
      <trkpt lat="48.13718" lon="-2.92456">
        <ele>117</ele>
        <time>2022-05-21T03:29:38Z</time>
      </trkpt>
      <trkpt lat="48.13727" lon="-2.92339">
        <ele>116</ele>
        <time>2022-05-21T03:29:52Z</time>
      </trkpt>
      <trkpt lat="48.13725" lon="-2.92254">
        <ele>117</ele>
        <time>2022-05-21T03:30:03Z</time>
      </trkpt>
      <trkpt lat="48.13715" lon="-2.92225">
        <ele>118</ele>
        <time>2022-05-21T03:30:06Z</time>
      </trkpt>
      <trkpt lat="48.13702" lon="-2.92197">
        <ele>119</ele>
        <time>2022-05-21T03:30:10Z</time>
      </trkpt>
      <trkpt lat="48.13675" lon="-2.92144">
        <ele>121</ele>
        <time>2022-05-21T03:30:18Z</time>
      </trkpt>
      <trkpt lat="48.13622" lon="-2.9205">
        <ele>123</ele>
        <time>2022-05-21T03:30:33Z</time>
      </trkpt>
      <trkpt lat="48.13599" lon="-2.92024">
        <ele>124</ele>
        <time>2022-05-21T03:30:38Z</time>
      </trkpt>
      <trkpt lat="48.1359" lon="-2.9202">
        <ele>124</ele>
        <time>2022-05-21T03:30:40Z</time>
      </trkpt>
      <trkpt lat="48.13558" lon="-2.92021">
        <ele>125</ele>
        <time>2022-05-21T03:30:46Z</time>
      </trkpt>
      <trkpt lat="48.13496" lon="-2.92036">
        <ele>127</ele>
        <time>2022-05-21T03:30:57Z</time>
      </trkpt>
      <trkpt lat="48.13477" lon="-2.92038">
        <ele>128</ele>
        <time>2022-05-21T03:31:00Z</time>
      </trkpt>
      <trkpt lat="48.13449" lon="-2.92046">
        <ele>131</ele>
        <time>2022-05-21T03:31:05Z</time>
      </trkpt>
      <trkpt lat="48.13408" lon="-2.92048">
        <ele>134</ele>
        <time>2022-05-21T03:31:12Z</time>
      </trkpt>
      <trkpt lat="48.1337" lon="-2.9204">
        <ele>137</ele>
        <time>2022-05-21T03:31:19Z</time>
      </trkpt>
      <trkpt lat="48.1336" lon="-2.92041">
        <ele>137</ele>
        <time>2022-05-21T03:31:21Z</time>
      </trkpt>
      <trkpt lat="48.13351" lon="-2.92036">
        <ele>138</ele>
        <time>2022-05-21T03:31:23Z</time>
      </trkpt>
      <trkpt lat="48.1334" lon="-2.92037">
        <ele>138</ele>
        <time>2022-05-21T03:31:25Z</time>
      </trkpt>
      <trkpt lat="48.13323" lon="-2.92029">
        <ele>139</ele>
        <time>2022-05-21T03:31:28Z</time>
      </trkpt>
      <trkpt lat="48.13281" lon="-2.92023">
        <ele>140</ele>
        <time>2022-05-21T03:31:35Z</time>
      </trkpt>
      <trkpt lat="48.13229" lon="-2.92008">
        <ele>142</ele>
        <time>2022-05-21T03:31:45Z</time>
      </trkpt>
      <trkpt lat="48.13198" lon="-2.91995">
        <ele>142</ele>
        <time>2022-05-21T03:31:51Z</time>
      </trkpt>
      <trkpt lat="48.1318" lon="-2.91981">
        <ele>143</ele>
        <time>2022-05-21T03:31:54Z</time>
      </trkpt>
      <trkpt lat="48.13172" lon="-2.9197">
        <ele>143</ele>
        <time>2022-05-21T03:31:56Z</time>
      </trkpt>
      <trkpt lat="48.13163" lon="-2.91963">
        <ele>144</ele>
        <time>2022-05-21T03:31:58Z</time>
      </trkpt>
      <trkpt lat="48.13117" lon="-2.919">
        <ele>146</ele>
        <time>2022-05-21T03:32:09Z</time>
      </trkpt>
      <trkpt lat="48.13074" lon="-2.91834">
        <ele>147</ele>
        <time>2022-05-21T03:32:20Z</time>
      </trkpt>
      <trkpt lat="48.13066" lon="-2.91827">
        <ele>147</ele>
        <time>2022-05-21T03:32:22Z</time>
      </trkpt>
      <trkpt lat="48.13038" lon="-2.91806">
        <ele>148</ele>
        <time>2022-05-21T03:32:27Z</time>
      </trkpt>
      <trkpt lat="48.1302" lon="-2.91796">
        <ele>149</ele>
        <time>2022-05-21T03:32:31Z</time>
      </trkpt>
      <trkpt lat="48.12968" lon="-2.91772">
        <ele>150</ele>
        <time>2022-05-21T03:32:40Z</time>
      </trkpt>
      <trkpt lat="48.12921" lon="-2.91754">
        <ele>151</ele>
        <time>2022-05-21T03:32:49Z</time>
      </trkpt>
      <trkpt lat="48.12883" lon="-2.91734">
        <ele>151</ele>
        <time>2022-05-21T03:32:56Z</time>
      </trkpt>
      <trkpt lat="48.12867" lon="-2.91721">
        <ele>151</ele>
        <time>2022-05-21T03:32:59Z</time>
      </trkpt>
      <trkpt lat="48.12851" lon="-2.91702">
        <ele>152</ele>
        <time>2022-05-21T03:33:03Z</time>
      </trkpt>
      <trkpt lat="48.12792" lon="-2.91604">
        <ele>151</ele>
        <time>2022-05-21T03:33:19Z</time>
      </trkpt>
      <trkpt lat="48.12773" lon="-2.91586">
        <ele>151</ele>
        <time>2022-05-21T03:33:23Z</time>
      </trkpt>
      <trkpt lat="48.12751" lon="-2.91578">
        <ele>150</ele>
        <time>2022-05-21T03:33:27Z</time>
      </trkpt>
      <trkpt lat="48.12658" lon="-2.91564">
        <ele>151</ele>
        <time>2022-05-21T03:33:43Z</time>
      </trkpt>
      <trkpt lat="48.12636" lon="-2.91558">
        <ele>151</ele>
        <time>2022-05-21T03:33:47Z</time>
      </trkpt>
      <trkpt lat="48.12607" lon="-2.91543">
        <ele>151</ele>
        <time>2022-05-21T03:33:53Z</time>
      </trkpt>
      <trkpt lat="48.12598" lon="-2.91536">
        <ele>150</ele>
        <time>2022-05-21T03:33:54Z</time>
      </trkpt>
      <trkpt lat="48.12579" lon="-2.91519">
        <ele>150</ele>
        <time>2022-05-21T03:33:58Z</time>
      </trkpt>
      <trkpt lat="48.12561" lon="-2.91498">
        <ele>149</ele>
        <time>2022-05-21T03:34:02Z</time>
      </trkpt>
      <trkpt lat="48.12503" lon="-2.91416">
        <ele>145</ele>
        <time>2022-05-21T03:34:17Z</time>
      </trkpt>
      <trkpt lat="48.12487" lon="-2.9138">
        <ele>144</ele>
        <time>2022-05-21T03:34:22Z</time>
      </trkpt>
      <trkpt lat="48.12437" lon="-2.91242">
        <ele>140</ele>
        <time>2022-05-21T03:34:40Z</time>
      </trkpt>
      <trkpt lat="48.12385" lon="-2.9113">
        <ele>138</ele>
        <time>2022-05-21T03:34:57Z</time>
      </trkpt>
      <trkpt lat="48.12347" lon="-2.91083">
        <ele>140</ele>
        <time>2022-05-21T03:35:05Z</time>
      </trkpt>
      <trkpt lat="48.12301" lon="-2.91043">
        <ele>142</ele>
        <time>2022-05-21T03:35:15Z</time>
      </trkpt>
      <trkpt lat="48.12229" lon="-2.90975">
        <ele>145</ele>
        <time>2022-05-21T03:35:30Z</time>
      </trkpt>
      <trkpt lat="48.12206" lon="-2.90947">
        <ele>144</ele>
        <time>2022-05-21T03:35:35Z</time>
      </trkpt>
      <trkpt lat="48.12174" lon="-2.90903">
        <ele>143</ele>
        <time>2022-05-21T03:35:43Z</time>
      </trkpt>
      <trkpt lat="48.12159" lon="-2.90878">
        <ele>143</ele>
        <time>2022-05-21T03:35:47Z</time>
      </trkpt>
      <trkpt lat="48.12148" lon="-2.90866">
        <ele>142</ele>
        <time>2022-05-21T03:35:49Z</time>
      </trkpt>
      <trkpt lat="48.12137" lon="-2.90868">
        <ele>142</ele>
        <time>2022-05-21T03:35:51Z</time>
      </trkpt>
      <trkpt lat="48.12126" lon="-2.90874">
        <ele>142</ele>
        <time>2022-05-21T03:35:54Z</time>
      </trkpt>
      <trkpt lat="48.12104" lon="-2.90888">
        <ele>142</ele>
        <time>2022-05-21T03:35:58Z</time>
      </trkpt>
      <trkpt lat="48.1207" lon="-2.90915">
        <ele>143</ele>
        <time>2022-05-21T03:36:05Z</time>
      </trkpt>
      <trkpt lat="48.11965" lon="-2.91012">
        <ele>141</ele>
        <time>2022-05-21T03:36:27Z</time>
      </trkpt>
      <trkpt lat="48.11833" lon="-2.91123">
        <ele>134</ele>
        <time>2022-05-21T03:36:53Z</time>
      </trkpt>
      <trkpt lat="48.11661" lon="-2.91283">
        <ele>121</ele>
        <time>2022-05-21T03:37:30Z</time>
      </trkpt>
      <trkpt lat="48.11649" lon="-2.91289">
        <ele>120</ele>
        <time>2022-05-21T03:37:32Z</time>
      </trkpt>
      <trkpt lat="48.11636" lon="-2.91283">
        <ele>119</ele>
        <time>2022-05-21T03:37:34Z</time>
      </trkpt>
      <trkpt lat="48.11627" lon="-2.9127">
        <ele>119</ele>
        <time>2022-05-21T03:37:36Z</time>
      </trkpt>
      <trkpt lat="48.1162" lon="-2.91235">
        <ele>119</ele>
        <time>2022-05-21T03:37:41Z</time>
      </trkpt>
      <trkpt lat="48.11623" lon="-2.91176">
        <ele>121</ele>
        <time>2022-05-21T03:37:48Z</time>
      </trkpt>
      <trkpt lat="48.11619" lon="-2.91125">
        <ele>122</ele>
        <time>2022-05-21T03:37:54Z</time>
      </trkpt>
      <trkpt lat="48.11519" lon="-2.90678">
        <ele>118</ele>
        <time>2022-05-21T03:38:50Z</time>
      </trkpt>
      <trkpt lat="48.11512" lon="-2.90656">
        <ele>117</ele>
        <time>2022-05-21T03:38:53Z</time>
      </trkpt>
      <trkpt lat="48.11501" lon="-2.90637">
        <ele>116</ele>
        <time>2022-05-21T03:38:56Z</time>
      </trkpt>
      <trkpt lat="48.11463" lon="-2.90599">
        <ele>113</ele>
        <time>2022-05-21T03:39:04Z</time>
      </trkpt>
      <trkpt lat="48.11452" lon="-2.90582">
        <ele>112</ele>
        <time>2022-05-21T03:39:07Z</time>
      </trkpt>
      <trkpt lat="48.11448" lon="-2.90559">
        <ele>111</ele>
        <time>2022-05-21T03:39:10Z</time>
      </trkpt>
      <trkpt lat="48.11448" lon="-2.90509">
        <ele>110</ele>
        <time>2022-05-21T03:39:15Z</time>
      </trkpt>
      <trkpt lat="48.11454" lon="-2.90485">
        <ele>110</ele>
        <time>2022-05-21T03:39:19Z</time>
      </trkpt>
      <trkpt lat="48.11465" lon="-2.90467">
        <ele>110</ele>
        <time>2022-05-21T03:39:21Z</time>
      </trkpt>
      <trkpt lat="48.11487" lon="-2.90439">
        <ele>110</ele>
        <time>2022-05-21T03:39:27Z</time>
      </trkpt>
      <trkpt lat="48.11504" lon="-2.90408">
        <ele>110</ele>
        <time>2022-05-21T03:39:31Z</time>
      </trkpt>
      <trkpt lat="48.11514" lon="-2.90376">
        <ele>110</ele>
        <time>2022-05-21T03:39:36Z</time>
      </trkpt>
      <trkpt lat="48.11521" lon="-2.9033">
        <ele>110</ele>
        <time>2022-05-21T03:39:41Z</time>
      </trkpt>
      <trkpt lat="48.11512" lon="-2.90256">
        <ele>109</ele>
        <time>2022-05-21T03:39:50Z</time>
      </trkpt>
      <trkpt lat="48.11501" lon="-2.90208">
        <ele>109</ele>
        <time>2022-05-21T03:39:56Z</time>
      </trkpt>
      <trkpt lat="48.11501" lon="-2.90195">
        <ele>110</ele>
        <time>2022-05-21T03:39:58Z</time>
      </trkpt>
      <trkpt lat="48.11483" lon="-2.9008">
        <ele>111</ele>
        <time>2022-05-21T03:40:12Z</time>
      </trkpt>
      <trkpt lat="48.11474" lon="-2.90002">
        <ele>114</ele>
        <time>2022-05-21T03:40:21Z</time>
      </trkpt>
      <trkpt lat="48.11454" lon="-2.89885">
        <ele>115</ele>
        <time>2022-05-21T03:40:35Z</time>
      </trkpt>
      <trkpt lat="48.11442" lon="-2.89787">
        <ele>117</ele>
        <time>2022-05-21T03:40:47Z</time>
      </trkpt>
      <trkpt lat="48.11432" lon="-2.89737">
        <ele>118</ele>
        <time>2022-05-21T03:40:53Z</time>
      </trkpt>
      <trkpt lat="48.11418" lon="-2.89632">
        <ele>119</ele>
        <time>2022-05-21T03:41:06Z</time>
      </trkpt>
      <trkpt lat="48.11411" lon="-2.89587">
        <ele>120</ele>
        <time>2022-05-21T03:41:12Z</time>
      </trkpt>
      <trkpt lat="48.11407" lon="-2.89575">
        <ele>120</ele>
        <time>2022-05-21T03:41:13Z</time>
      </trkpt>
      <trkpt lat="48.11396" lon="-2.89495">
        <ele>122</ele>
        <time>2022-05-21T03:41:23Z</time>
      </trkpt>
      <trkpt lat="48.11392" lon="-2.89372">
        <ele>125</ele>
        <time>2022-05-21T03:41:38Z</time>
      </trkpt>
      <trkpt lat="48.11393" lon="-2.8934">
        <ele>126</ele>
        <time>2022-05-21T03:41:41Z</time>
      </trkpt>
      <trkpt lat="48.11407" lon="-2.89265">
        <ele>127</ele>
        <time>2022-05-21T03:41:51Z</time>
      </trkpt>
      <trkpt lat="48.11433" lon="-2.89186">
        <ele>128</ele>
        <time>2022-05-21T03:42:01Z</time>
      </trkpt>
      <trkpt lat="48.1144" lon="-2.89158">
        <ele>128</ele>
        <time>2022-05-21T03:42:05Z</time>
      </trkpt>
      <trkpt lat="48.11454" lon="-2.89044">
        <ele>130</ele>
        <time>2022-05-21T03:42:18Z</time>
      </trkpt>
      <trkpt lat="48.11453" lon="-2.89015">
        <ele>130</ele>
        <time>2022-05-21T03:42:22Z</time>
      </trkpt>
      <trkpt lat="48.11432" lon="-2.88899">
        <ele>132</ele>
        <time>2022-05-21T03:42:36Z</time>
      </trkpt>
      <trkpt lat="48.11433" lon="-2.88883">
        <ele>132</ele>
        <time>2022-05-21T03:42:38Z</time>
      </trkpt>
      <trkpt lat="48.11424" lon="-2.88854">
        <ele>134</ele>
        <time>2022-05-21T03:42:42Z</time>
      </trkpt>
      <trkpt lat="48.11422" lon="-2.88787">
        <ele>135</ele>
        <time>2022-05-21T03:42:50Z</time>
      </trkpt>
      <trkpt lat="48.1145" lon="-2.88507">
        <ele>134</ele>
        <time>2022-05-21T03:43:23Z</time>
      </trkpt>
      <trkpt lat="48.11454" lon="-2.88475">
        <ele>133</ele>
        <time>2022-05-21T03:43:27Z</time>
      </trkpt>
      <trkpt lat="48.11468" lon="-2.88415">
        <ele>132</ele>
        <time>2022-05-21T03:43:35Z</time>
      </trkpt>
      <trkpt lat="48.11544" lon="-2.88171">
        <ele>132</ele>
        <time>2022-05-21T03:44:07Z</time>
      </trkpt>
      <trkpt lat="48.1156" lon="-2.88129">
        <ele>132</ele>
        <time>2022-05-21T03:44:13Z</time>
      </trkpt>
      <trkpt lat="48.11576" lon="-2.88104">
        <ele>132</ele>
        <time>2022-05-21T03:44:17Z</time>
      </trkpt>
      <trkpt lat="48.11593" lon="-2.88083">
        <ele>132</ele>
        <time>2022-05-21T03:44:21Z</time>
      </trkpt>
      <trkpt lat="48.1161" lon="-2.8807">
        <ele>133</ele>
        <time>2022-05-21T03:44:24Z</time>
      </trkpt>
      <trkpt lat="48.1165" lon="-2.88029">
        <ele>133</ele>
        <time>2022-05-21T03:44:33Z</time>
      </trkpt>
      <trkpt lat="48.11674" lon="-2.87994">
        <ele>133</ele>
        <time>2022-05-21T03:44:39Z</time>
      </trkpt>
      <trkpt lat="48.11686" lon="-2.87971">
        <ele>132</ele>
        <time>2022-05-21T03:44:42Z</time>
      </trkpt>
      <trkpt lat="48.11697" lon="-2.8794">
        <ele>131</ele>
        <time>2022-05-21T03:44:46Z</time>
      </trkpt>
      <trkpt lat="48.11732" lon="-2.87782">
        <ele>131</ele>
        <time>2022-05-21T03:45:06Z</time>
      </trkpt>
      <trkpt lat="48.11772" lon="-2.87572">
        <ele>133</ele>
        <time>2022-05-21T03:45:32Z</time>
      </trkpt>
      <trkpt lat="48.11796" lon="-2.8746">
        <ele>133</ele>
        <time>2022-05-21T03:45:46Z</time>
      </trkpt>
      <trkpt lat="48.11805" lon="-2.87374">
        <ele>133</ele>
        <time>2022-05-21T03:45:56Z</time>
      </trkpt>
      <trkpt lat="48.11804" lon="-2.87343">
        <ele>132</ele>
        <time>2022-05-21T03:46:00Z</time>
      </trkpt>
      <trkpt lat="48.11794" lon="-2.87286">
        <ele>133</ele>
        <time>2022-05-21T03:46:07Z</time>
      </trkpt>
      <trkpt lat="48.11774" lon="-2.87227">
        <ele>133</ele>
        <time>2022-05-21T03:46:15Z</time>
      </trkpt>
      <trkpt lat="48.11769" lon="-2.87198">
        <ele>133</ele>
        <time>2022-05-21T03:46:18Z</time>
      </trkpt>
      <trkpt lat="48.11765" lon="-2.87148">
        <ele>132</ele>
        <time>2022-05-21T03:46:24Z</time>
      </trkpt>
      <trkpt lat="48.11769" lon="-2.87085">
        <ele>130</ele>
        <time>2022-05-21T03:46:32Z</time>
      </trkpt>
      <trkpt lat="48.11789" lon="-2.86922">
        <ele>131</ele>
        <time>2022-05-21T03:46:52Z</time>
      </trkpt>
      <trkpt lat="48.11802" lon="-2.86841">
        <ele>129</ele>
        <time>2022-05-21T03:47:01Z</time>
      </trkpt>
      <trkpt lat="48.11833" lon="-2.86711">
        <ele>131</ele>
        <time>2022-05-21T03:47:18Z</time>
      </trkpt>
      <trkpt lat="48.11879" lon="-2.86625">
        <ele>131</ele>
        <time>2022-05-21T03:47:31Z</time>
      </trkpt>
      <trkpt lat="48.11895" lon="-2.86602">
        <ele>131</ele>
        <time>2022-05-21T03:47:35Z</time>
      </trkpt>
      <trkpt lat="48.11946" lon="-2.86512">
        <ele>131</ele>
        <time>2022-05-21T03:47:49Z</time>
      </trkpt>
      <trkpt lat="48.11965" lon="-2.86467">
        <ele>132</ele>
        <time>2022-05-21T03:47:55Z</time>
      </trkpt>
      <trkpt lat="48.11977" lon="-2.86421">
        <ele>133</ele>
        <time>2022-05-21T03:48:01Z</time>
      </trkpt>
      <trkpt lat="48.11979" lon="-2.86392">
        <ele>133</ele>
        <time>2022-05-21T03:48:05Z</time>
      </trkpt>
      <trkpt lat="48.11977" lon="-2.86338">
        <ele>133</ele>
        <time>2022-05-21T03:48:11Z</time>
      </trkpt>
      <trkpt lat="48.11969" lon="-2.86304">
        <ele>133</ele>
        <time>2022-05-21T03:48:15Z</time>
      </trkpt>
      <trkpt lat="48.11957" lon="-2.8627">
        <ele>134</ele>
        <time>2022-05-21T03:48:20Z</time>
      </trkpt>
      <trkpt lat="48.11935" lon="-2.86219">
        <ele>134</ele>
        <time>2022-05-21T03:48:27Z</time>
      </trkpt>
      <trkpt lat="48.11926" lon="-2.86177">
        <ele>133</ele>
        <time>2022-05-21T03:48:32Z</time>
      </trkpt>
      <trkpt lat="48.11924" lon="-2.86142">
        <ele>133</ele>
        <time>2022-05-21T03:48:36Z</time>
      </trkpt>
      <trkpt lat="48.11928" lon="-2.86094">
        <ele>133</ele>
        <time>2022-05-21T03:48:42Z</time>
      </trkpt>
      <trkpt lat="48.11933" lon="-2.86077">
        <ele>132</ele>
        <time>2022-05-21T03:48:44Z</time>
      </trkpt>
      <trkpt lat="48.11934" lon="-2.86061">
        <ele>132</ele>
        <time>2022-05-21T03:48:46Z</time>
      </trkpt>
      <trkpt lat="48.11983" lon="-2.85831">
        <ele>132</ele>
        <time>2022-05-21T03:49:15Z</time>
      </trkpt>
      <trkpt lat="48.11988" lon="-2.85777">
        <ele>133</ele>
        <time>2022-05-21T03:49:21Z</time>
      </trkpt>
      <trkpt lat="48.11986" lon="-2.85733">
        <ele>133</ele>
        <time>2022-05-21T03:49:27Z</time>
      </trkpt>
      <trkpt lat="48.11969" lon="-2.85654">
        <ele>130</ele>
        <time>2022-05-21T03:49:37Z</time>
      </trkpt>
      <trkpt lat="48.11916" lon="-2.85471">
        <ele>131</ele>
        <time>2022-05-21T03:50:00Z</time>
      </trkpt>
      <trkpt lat="48.11908" lon="-2.85433">
        <ele>131</ele>
        <time>2022-05-21T03:50:05Z</time>
      </trkpt>
      <trkpt lat="48.11902" lon="-2.85381">
        <ele>131</ele>
        <time>2022-05-21T03:50:11Z</time>
      </trkpt>
      <trkpt lat="48.11887" lon="-2.8515">
        <ele>132</ele>
        <time>2022-05-21T03:50:39Z</time>
      </trkpt>
      <trkpt lat="48.11872" lon="-2.85094">
        <ele>132</ele>
        <time>2022-05-21T03:50:46Z</time>
      </trkpt>
      <trkpt lat="48.11852" lon="-2.85055">
        <ele>132</ele>
        <time>2022-05-21T03:50:52Z</time>
      </trkpt>
      <trkpt lat="48.11835" lon="-2.85031">
        <ele>132</ele>
        <time>2022-05-21T03:50:56Z</time>
      </trkpt>
      <trkpt lat="48.11814" lon="-2.85008">
        <ele>132</ele>
        <time>2022-05-21T03:51:01Z</time>
      </trkpt>
      <trkpt lat="48.11792" lon="-2.84994">
        <ele>133</ele>
        <time>2022-05-21T03:51:05Z</time>
      </trkpt>
      <trkpt lat="48.11779" lon="-2.84989">
        <ele>133</ele>
        <time>2022-05-21T03:51:07Z</time>
      </trkpt>
      <trkpt lat="48.11683" lon="-2.84965">
        <ele>133</ele>
        <time>2022-05-21T03:51:25Z</time>
      </trkpt>
      <trkpt lat="48.11623" lon="-2.84954">
        <ele>134</ele>
        <time>2022-05-21T03:51:35Z</time>
      </trkpt>
      <trkpt lat="48.1161" lon="-2.84954">
        <ele>134</ele>
        <time>2022-05-21T03:51:38Z</time>
      </trkpt>
      <trkpt lat="48.11598" lon="-2.8495">
        <ele>134</ele>
        <time>2022-05-21T03:51:40Z</time>
      </trkpt>
      <trkpt lat="48.11575" lon="-2.84949">
        <ele>134</ele>
        <time>2022-05-21T03:51:44Z</time>
      </trkpt>
      <trkpt lat="48.11504" lon="-2.84933">
        <ele>134</ele>
        <time>2022-05-21T03:51:57Z</time>
      </trkpt>
      <trkpt lat="48.11484" lon="-2.84924">
        <ele>135</ele>
        <time>2022-05-21T03:52:00Z</time>
      </trkpt>
      <trkpt lat="48.11474" lon="-2.84915">
        <ele>135</ele>
        <time>2022-05-21T03:52:03Z</time>
      </trkpt>
      <trkpt lat="48.11452" lon="-2.84902">
        <ele>135</ele>
        <time>2022-05-21T03:52:07Z</time>
      </trkpt>
      <trkpt lat="48.11426" lon="-2.84874">
        <ele>135</ele>
        <time>2022-05-21T03:52:12Z</time>
      </trkpt>
      <trkpt lat="48.11392" lon="-2.84815">
        <ele>137</ele>
        <time>2022-05-21T03:52:22Z</time>
      </trkpt>
      <trkpt lat="48.11375" lon="-2.84771">
        <ele>139</ele>
        <time>2022-05-21T03:52:28Z</time>
      </trkpt>
      <trkpt lat="48.11355" lon="-2.84649">
        <ele>143</ele>
        <time>2022-05-21T03:52:43Z</time>
      </trkpt>
      <trkpt lat="48.11344" lon="-2.8457">
        <ele>143</ele>
        <time>2022-05-21T03:52:52Z</time>
      </trkpt>
      <trkpt lat="48.11344" lon="-2.84551">
        <ele>143</ele>
        <time>2022-05-21T03:52:54Z</time>
      </trkpt>
      <trkpt lat="48.11335" lon="-2.84494">
        <ele>143</ele>
        <time>2022-05-21T03:53:01Z</time>
      </trkpt>
      <trkpt lat="48.11335" lon="-2.84431">
        <ele>144</ele>
        <time>2022-05-21T03:53:09Z</time>
      </trkpt>
      <trkpt lat="48.11343" lon="-2.84383">
        <ele>145</ele>
        <time>2022-05-21T03:53:15Z</time>
      </trkpt>
      <trkpt lat="48.11362" lon="-2.84326">
        <ele>146</ele>
        <time>2022-05-21T03:53:22Z</time>
      </trkpt>
      <trkpt lat="48.11368" lon="-2.84316">
        <ele>146</ele>
        <time>2022-05-21T03:53:24Z</time>
      </trkpt>
      <trkpt lat="48.11383" lon="-2.8426">
        <ele>147</ele>
        <time>2022-05-21T03:53:31Z</time>
      </trkpt>
      <trkpt lat="48.11388" lon="-2.84232">
        <ele>148</ele>
        <time>2022-05-21T03:53:35Z</time>
      </trkpt>
      <trkpt lat="48.11395" lon="-2.84224">
        <ele>148</ele>
        <time>2022-05-21T03:53:36Z</time>
      </trkpt>
      <trkpt lat="48.114" lon="-2.84213">
        <ele>148</ele>
        <time>2022-05-21T03:53:38Z</time>
      </trkpt>
      <trkpt lat="48.11403" lon="-2.84183">
        <ele>148</ele>
        <time>2022-05-21T03:53:41Z</time>
      </trkpt>
      <trkpt lat="48.11428" lon="-2.84153">
        <ele>149</ele>
        <time>2022-05-21T03:53:47Z</time>
      </trkpt>
      <trkpt lat="48.11432" lon="-2.8414">
        <ele>150</ele>
        <time>2022-05-21T03:53:49Z</time>
      </trkpt>
      <trkpt lat="48.11442" lon="-2.84129">
        <ele>151</ele>
        <time>2022-05-21T03:53:51Z</time>
      </trkpt>
      <trkpt lat="48.11448" lon="-2.84117">
        <ele>151</ele>
        <time>2022-05-21T03:53:53Z</time>
      </trkpt>
      <trkpt lat="48.11469" lon="-2.84057">
        <ele>151</ele>
        <time>2022-05-21T03:54:01Z</time>
      </trkpt>
      <trkpt lat="48.11482" lon="-2.84027">
        <ele>150</ele>
        <time>2022-05-21T03:54:05Z</time>
      </trkpt>
      <trkpt lat="48.1151" lon="-2.83972">
        <ele>149</ele>
        <time>2022-05-21T03:54:13Z</time>
      </trkpt>
      <trkpt lat="48.11543" lon="-2.83897">
        <ele>148</ele>
        <time>2022-05-21T03:54:24Z</time>
      </trkpt>
      <trkpt lat="48.11573" lon="-2.8384">
        <ele>145</ele>
        <time>2022-05-21T03:54:33Z</time>
      </trkpt>
      <trkpt lat="48.11607" lon="-2.83759">
        <ele>147</ele>
        <time>2022-05-21T03:54:44Z</time>
      </trkpt>
      <trkpt lat="48.11615" lon="-2.83746">
        <ele>147</ele>
        <time>2022-05-21T03:54:46Z</time>
      </trkpt>
      <trkpt lat="48.11633" lon="-2.83701">
        <ele>147</ele>
        <time>2022-05-21T03:54:52Z</time>
      </trkpt>
      <trkpt lat="48.11647" lon="-2.83673">
        <ele>145</ele>
        <time>2022-05-21T03:54:56Z</time>
      </trkpt>
      <trkpt lat="48.11662" lon="-2.83621">
        <ele>143</ele>
        <time>2022-05-21T03:55:03Z</time>
      </trkpt>
      <trkpt lat="48.11669" lon="-2.83563">
        <ele>142</ele>
        <time>2022-05-21T03:55:10Z</time>
      </trkpt>
      <trkpt lat="48.11669" lon="-2.83512">
        <ele>141</ele>
        <time>2022-05-21T03:55:16Z</time>
      </trkpt>
      <trkpt lat="48.11637" lon="-2.83417">
        <ele>134</ele>
        <time>2022-05-21T03:55:29Z</time>
      </trkpt>
      <trkpt lat="48.11625" lon="-2.83396">
        <ele>133</ele>
        <time>2022-05-21T03:55:32Z</time>
      </trkpt>
      <trkpt lat="48.11623" lon="-2.83382">
        <ele>133</ele>
        <time>2022-05-21T03:55:34Z</time>
      </trkpt>
      <trkpt lat="48.11609" lon="-2.83362">
        <ele>133</ele>
        <time>2022-05-21T03:55:37Z</time>
      </trkpt>
      <trkpt lat="48.11599" lon="-2.83335">
        <ele>133</ele>
        <time>2022-05-21T03:55:41Z</time>
      </trkpt>
      <trkpt lat="48.11576" lon="-2.83294">
        <ele>133</ele>
        <time>2022-05-21T03:55:47Z</time>
      </trkpt>
      <trkpt lat="48.11524" lon="-2.83235">
        <ele>129</ele>
        <time>2022-05-21T03:55:59Z</time>
      </trkpt>
      <trkpt lat="48.11495" lon="-2.83192">
        <ele>127</ele>
        <time>2022-05-21T03:56:06Z</time>
      </trkpt>
      <trkpt lat="48.11462" lon="-2.83151">
        <ele>126</ele>
        <time>2022-05-21T03:56:14Z</time>
      </trkpt>
      <trkpt lat="48.11444" lon="-2.83133">
        <ele>126</ele>
        <time>2022-05-21T03:56:18Z</time>
      </trkpt>
      <trkpt lat="48.11425" lon="-2.83106">
        <ele>125</ele>
        <time>2022-05-21T03:56:22Z</time>
      </trkpt>
      <trkpt lat="48.11326" lon="-2.82982">
        <ele>123</ele>
        <time>2022-05-21T03:56:45Z</time>
      </trkpt>
      <trkpt lat="48.11295" lon="-2.82935">
        <ele>124</ele>
        <time>2022-05-21T03:56:53Z</time>
      </trkpt>
      <trkpt lat="48.11275" lon="-2.82889">
        <ele>124</ele>
        <time>2022-05-21T03:57:00Z</time>
      </trkpt>
      <trkpt lat="48.11234" lon="-2.8277">
        <ele>120</ele>
        <time>2022-05-21T03:57:16Z</time>
      </trkpt>
      <trkpt lat="48.11226" lon="-2.82737">
        <ele>120</ele>
        <time>2022-05-21T03:57:20Z</time>
      </trkpt>
      <trkpt lat="48.11186" lon="-2.82404">
        <ele>115</ele>
        <time>2022-05-21T03:58:00Z</time>
      </trkpt>
      <trkpt lat="48.11179" lon="-2.82314">
        <ele>113</ele>
        <time>2022-05-21T03:58:11Z</time>
      </trkpt>
      <trkpt lat="48.11169" lon="-2.82255">
        <ele>114</ele>
        <time>2022-05-21T03:58:18Z</time>
      </trkpt>
      <trkpt lat="48.11146" lon="-2.82179">
        <ele>113</ele>
        <time>2022-05-21T03:58:28Z</time>
      </trkpt>
      <trkpt lat="48.11089" lon="-2.82057">
        <ele>113</ele>
        <time>2022-05-21T03:58:45Z</time>
      </trkpt>
      <trkpt lat="48.11034" lon="-2.81921">
        <ele>116</ele>
        <time>2022-05-21T03:59:04Z</time>
      </trkpt>
      <trkpt lat="48.10995" lon="-2.81837">
        <ele>114</ele>
        <time>2022-05-21T03:59:17Z</time>
      </trkpt>
      <trkpt lat="48.10954" lon="-2.81739">
        <ele>111</ele>
        <time>2022-05-21T03:59:30Z</time>
      </trkpt>
      <trkpt lat="48.10945" lon="-2.81724">
        <ele>110</ele>
        <time>2022-05-21T03:59:33Z</time>
      </trkpt>
      <trkpt lat="48.10894" lon="-2.81602">
        <ele>107</ele>
        <time>2022-05-21T03:59:50Z</time>
      </trkpt>
      <trkpt lat="48.10843" lon="-2.81491">
        <ele>107</ele>
        <time>2022-05-21T04:00:06Z</time>
      </trkpt>
      <trkpt lat="48.10838" lon="-2.81476">
        <ele>107</ele>
        <time>2022-05-21T04:00:08Z</time>
      </trkpt>
      <trkpt lat="48.10814" lon="-2.81428">
        <ele>105</ele>
        <time>2022-05-21T04:00:15Z</time>
      </trkpt>
      <trkpt lat="48.10791" lon="-2.81373">
        <ele>103</ele>
        <time>2022-05-21T04:00:23Z</time>
      </trkpt>
      <trkpt lat="48.10772" lon="-2.81337">
        <ele>102</ele>
        <time>2022-05-21T04:00:28Z</time>
      </trkpt>
      <trkpt lat="48.10757" lon="-2.81301">
        <ele>102</ele>
        <time>2022-05-21T04:00:33Z</time>
      </trkpt>
      <trkpt lat="48.10645" lon="-2.81072">
        <ele>102</ele>
        <time>2022-05-21T04:01:07Z</time>
      </trkpt>
      <trkpt lat="48.10624" lon="-2.81002">
        <ele>101</ele>
        <time>2022-05-21T04:01:16Z</time>
      </trkpt>
      <trkpt lat="48.10597" lon="-2.80878">
        <ele>100</ele>
        <time>2022-05-21T04:01:31Z</time>
      </trkpt>
      <trkpt lat="48.10593" lon="-2.80842">
        <ele>100</ele>
        <time>2022-05-21T04:01:36Z</time>
      </trkpt>
      <trkpt lat="48.10593" lon="-2.80804">
        <ele>99</ele>
        <time>2022-05-21T04:01:40Z</time>
      </trkpt>
      <trkpt lat="48.10603" lon="-2.80617">
        <ele>98</ele>
        <time>2022-05-21T04:02:03Z</time>
      </trkpt>
      <trkpt lat="48.10607" lon="-2.80495">
        <ele>96</ele>
        <time>2022-05-21T04:02:17Z</time>
      </trkpt>
      <trkpt lat="48.10612" lon="-2.80446">
        <ele>96</ele>
        <time>2022-05-21T04:02:23Z</time>
      </trkpt>
      <trkpt lat="48.10617" lon="-2.80347">
        <ele>98</ele>
        <time>2022-05-21T04:02:35Z</time>
      </trkpt>
      <trkpt lat="48.10616" lon="-2.80272">
        <ele>96</ele>
        <time>2022-05-21T04:02:44Z</time>
      </trkpt>
      <trkpt lat="48.10601" lon="-2.80181">
        <ele>95</ele>
        <time>2022-05-21T04:02:55Z</time>
      </trkpt>
      <trkpt lat="48.10594" lon="-2.80115">
        <ele>94</ele>
        <time>2022-05-21T04:03:03Z</time>
      </trkpt>
      <trkpt lat="48.10584" lon="-2.8006">
        <ele>93</ele>
        <time>2022-05-21T04:03:10Z</time>
      </trkpt>
      <trkpt lat="48.10584" lon="-2.80044">
        <ele>93</ele>
        <time>2022-05-21T04:03:11Z</time>
      </trkpt>
      <trkpt lat="48.1057" lon="-2.79964">
        <ele>93</ele>
        <time>2022-05-21T04:03:21Z</time>
      </trkpt>
      <trkpt lat="48.10549" lon="-2.79812">
        <ele>90</ele>
        <time>2022-05-21T04:03:40Z</time>
      </trkpt>
      <trkpt lat="48.10543" lon="-2.7975">
        <ele>89</ele>
        <time>2022-05-21T04:03:47Z</time>
      </trkpt>
      <trkpt lat="48.10521" lon="-2.79617">
        <ele>88</ele>
        <time>2022-05-21T04:04:03Z</time>
      </trkpt>
      <trkpt lat="48.10513" lon="-2.79587">
        <ele>87</ele>
        <time>2022-05-21T04:04:07Z</time>
      </trkpt>
      <trkpt lat="48.10488" lon="-2.79447">
        <ele>84</ele>
        <time>2022-05-21T04:04:24Z</time>
      </trkpt>
      <trkpt lat="48.10457" lon="-2.79106">
        <ele>82</ele>
        <time>2022-05-21T04:05:05Z</time>
      </trkpt>
      <trkpt lat="48.10451" lon="-2.79094">
        <ele>82</ele>
        <time>2022-05-21T04:05:07Z</time>
      </trkpt>
      <trkpt lat="48.10452" lon="-2.79065">
        <ele>81</ele>
        <time>2022-05-21T04:05:11Z</time>
      </trkpt>
      <trkpt lat="48.10449" lon="-2.79052">
        <ele>81</ele>
        <time>2022-05-21T04:05:12Z</time>
      </trkpt>
      <trkpt lat="48.10455" lon="-2.79041">
        <ele>81</ele>
        <time>2022-05-21T04:05:14Z</time>
      </trkpt>
      <trkpt lat="48.1045" lon="-2.79027">
        <ele>81</ele>
        <time>2022-05-21T04:05:16Z</time>
      </trkpt>
      <trkpt lat="48.10446" lon="-2.78967">
        <ele>81</ele>
        <time>2022-05-21T04:05:23Z</time>
      </trkpt>
      <trkpt lat="48.10449" lon="-2.78835">
        <ele>81</ele>
        <time>2022-05-21T04:05:39Z</time>
      </trkpt>
      <trkpt lat="48.10461" lon="-2.7871">
        <ele>79</ele>
        <time>2022-05-21T04:05:54Z</time>
      </trkpt>
      <trkpt lat="48.10465" lon="-2.78635">
        <ele>79</ele>
        <time>2022-05-21T04:06:03Z</time>
      </trkpt>
      <trkpt lat="48.10472" lon="-2.78576">
        <ele>79</ele>
        <time>2022-05-21T04:06:10Z</time>
      </trkpt>
      <trkpt lat="48.10572" lon="-2.78267">
        <ele>74</ele>
        <time>2022-05-21T04:06:51Z</time>
      </trkpt>
      <trkpt lat="48.10574" lon="-2.78252">
        <ele>74</ele>
        <time>2022-05-21T04:06:52Z</time>
      </trkpt>
      <trkpt lat="48.10577" lon="-2.78218">
        <ele>74</ele>
        <time>2022-05-21T04:06:56Z</time>
      </trkpt>
      <trkpt lat="48.10571" lon="-2.78168">
        <ele>74</ele>
        <time>2022-05-21T04:07:02Z</time>
      </trkpt>
      <trkpt lat="48.10551" lon="-2.78112">
        <ele>74</ele>
        <time>2022-05-21T04:07:10Z</time>
      </trkpt>
      <trkpt lat="48.10536" lon="-2.78092">
        <ele>73</ele>
        <time>2022-05-21T04:07:14Z</time>
      </trkpt>
      <trkpt lat="48.1051" lon="-2.78071">
        <ele>73</ele>
        <time>2022-05-21T04:07:19Z</time>
      </trkpt>
      <trkpt lat="48.10469" lon="-2.78052">
        <ele>72</ele>
        <time>2022-05-21T04:07:26Z</time>
      </trkpt>
      <trkpt lat="48.10424" lon="-2.78037">
        <ele>71</ele>
        <time>2022-05-21T04:07:35Z</time>
      </trkpt>
      <trkpt lat="48.10402" lon="-2.78033">
        <ele>71</ele>
        <time>2022-05-21T04:07:39Z</time>
      </trkpt>
      <trkpt lat="48.10361" lon="-2.7802">
        <ele>71</ele>
        <time>2022-05-21T04:07:46Z</time>
      </trkpt>
      <trkpt lat="48.10264" lon="-2.78003">
        <ele>69</ele>
        <time>2022-05-21T04:08:03Z</time>
      </trkpt>
      <trkpt lat="48.10241" lon="-2.77997">
        <ele>69</ele>
        <time>2022-05-21T04:08:08Z</time>
      </trkpt>
      <trkpt lat="48.10229" lon="-2.77997">
        <ele>70</ele>
        <time>2022-05-21T04:08:10Z</time>
      </trkpt>
      <trkpt lat="48.1022" lon="-2.77993">
        <ele>70</ele>
        <time>2022-05-21T04:08:11Z</time>
      </trkpt>
      <trkpt lat="48.1021" lon="-2.77993">
        <ele>70</ele>
        <time>2022-05-21T04:08:13Z</time>
      </trkpt>
      <trkpt lat="48.10178" lon="-2.77984">
        <ele>71</ele>
        <time>2022-05-21T04:08:19Z</time>
      </trkpt>
      <trkpt lat="48.10152" lon="-2.7798">
        <ele>72</ele>
        <time>2022-05-21T04:08:24Z</time>
      </trkpt>
      <trkpt lat="48.10119" lon="-2.7798">
        <ele>73</ele>
        <time>2022-05-21T04:08:30Z</time>
      </trkpt>
      <trkpt lat="48.10067" lon="-2.77964">
        <ele>74</ele>
        <time>2022-05-21T04:08:39Z</time>
      </trkpt>
      <trkpt lat="48.10013" lon="-2.77957">
        <ele>72</ele>
        <time>2022-05-21T04:08:49Z</time>
      </trkpt>
      <trkpt lat="48.09932" lon="-2.77941">
        <ele>72</ele>
        <time>2022-05-21T04:09:03Z</time>
      </trkpt>
      <trkpt lat="48.09901" lon="-2.77933">
        <ele>72</ele>
        <time>2022-05-21T04:09:09Z</time>
      </trkpt>
      <trkpt lat="48.0989" lon="-2.77928">
        <ele>72</ele>
        <time>2022-05-21T04:09:11Z</time>
      </trkpt>
      <trkpt lat="48.09858" lon="-2.77908">
        <ele>71</ele>
        <time>2022-05-21T04:09:17Z</time>
      </trkpt>
      <trkpt lat="48.09827" lon="-2.77881">
        <ele>70</ele>
        <time>2022-05-21T04:09:23Z</time>
      </trkpt>
      <trkpt lat="48.09739" lon="-2.77789">
        <ele>70</ele>
        <time>2022-05-21T04:09:42Z</time>
      </trkpt>
      <trkpt lat="48.0973" lon="-2.77782">
        <ele>70</ele>
        <time>2022-05-21T04:09:44Z</time>
      </trkpt>
      <trkpt lat="48.09676" lon="-2.77722">
        <ele>71</ele>
        <time>2022-05-21T04:09:56Z</time>
      </trkpt>
      <trkpt lat="48.09645" lon="-2.77697">
        <ele>70</ele>
        <time>2022-05-21T04:10:02Z</time>
      </trkpt>
      <trkpt lat="48.09609" lon="-2.77677">
        <ele>70</ele>
        <time>2022-05-21T04:10:09Z</time>
      </trkpt>
      <trkpt lat="48.09569" lon="-2.77669">
        <ele>70</ele>
        <time>2022-05-21T04:10:16Z</time>
      </trkpt>
      <trkpt lat="48.09541" lon="-2.77671">
        <ele>69</ele>
        <time>2022-05-21T04:10:21Z</time>
      </trkpt>
      <trkpt lat="48.09498" lon="-2.77669">
        <ele>68</ele>
        <time>2022-05-21T04:10:29Z</time>
      </trkpt>
      <trkpt lat="48.09487" lon="-2.77671">
        <ele>68</ele>
        <time>2022-05-21T04:10:31Z</time>
      </trkpt>
      <trkpt lat="48.09483" lon="-2.77682">
        <ele>68</ele>
        <time>2022-05-21T04:10:33Z</time>
      </trkpt>
      <trkpt lat="48.09482" lon="-2.77698">
        <ele>68</ele>
        <time>2022-05-21T04:10:34Z</time>
      </trkpt>
      <trkpt lat="48.09474" lon="-2.77704">
        <ele>68</ele>
        <time>2022-05-21T04:10:36Z</time>
      </trkpt>
      <trkpt lat="48.09464" lon="-2.77704">
        <ele>68</ele>
        <time>2022-05-21T04:10:38Z</time>
      </trkpt>
      <trkpt lat="48.09432" lon="-2.77718">
        <ele>68</ele>
        <time>2022-05-21T04:10:44Z</time>
      </trkpt>
      <trkpt lat="48.09402" lon="-2.77735">
        <ele>68</ele>
        <time>2022-05-21T04:10:49Z</time>
      </trkpt>
      <trkpt lat="48.09356" lon="-2.77749">
        <ele>68</ele>
        <time>2022-05-21T04:10:58Z</time>
      </trkpt>
      <trkpt lat="48.09178" lon="-2.77755">
        <ele>70</ele>
        <time>2022-05-21T04:11:30Z</time>
      </trkpt>
      <trkpt lat="48.09081" lon="-2.77771">
        <ele>67</ele>
        <time>2022-05-21T04:11:47Z</time>
      </trkpt>
      <trkpt lat="48.0907" lon="-2.7777">
        <ele>67</ele>
        <time>2022-05-21T04:11:49Z</time>
      </trkpt>
      <trkpt lat="48.09022" lon="-2.77756">
        <ele>68</ele>
        <time>2022-05-21T04:11:58Z</time>
      </trkpt>
      <trkpt lat="48.08974" lon="-2.77736">
        <ele>68</ele>
        <time>2022-05-21T04:12:06Z</time>
      </trkpt>
      <trkpt lat="48.08906" lon="-2.77692">
        <ele>67</ele>
        <time>2022-05-21T04:12:20Z</time>
      </trkpt>
      <trkpt lat="48.08874" lon="-2.77666">
        <ele>69</ele>
        <time>2022-05-21T04:12:26Z</time>
      </trkpt>
      <trkpt lat="48.08758" lon="-2.77582">
        <ele>71</ele>
        <time>2022-05-21T04:12:49Z</time>
      </trkpt>
      <trkpt lat="48.0873" lon="-2.77553">
        <ele>70</ele>
        <time>2022-05-21T04:12:55Z</time>
      </trkpt>
      <trkpt lat="48.08721" lon="-2.77538">
        <ele>70</ele>
        <time>2022-05-21T04:12:57Z</time>
      </trkpt>
      <trkpt lat="48.08706" lon="-2.77499">
        <ele>69</ele>
        <time>2022-05-21T04:13:03Z</time>
      </trkpt>
      <trkpt lat="48.08693" lon="-2.77455">
        <ele>69</ele>
        <time>2022-05-21T04:13:09Z</time>
      </trkpt>
      <trkpt lat="48.08683" lon="-2.77405">
        <ele>69</ele>
        <time>2022-05-21T04:13:15Z</time>
      </trkpt>
      <trkpt lat="48.08664" lon="-2.7735">
        <ele>69</ele>
        <time>2022-05-21T04:13:22Z</time>
      </trkpt>
      <trkpt lat="48.08658" lon="-2.77319">
        <ele>69</ele>
        <time>2022-05-21T04:13:26Z</time>
      </trkpt>
      <trkpt lat="48.08652" lon="-2.77301">
        <ele>69</ele>
        <time>2022-05-21T04:13:28Z</time>
      </trkpt>
      <trkpt lat="48.08649" lon="-2.77265">
        <ele>68</ele>
        <time>2022-05-21T04:13:33Z</time>
      </trkpt>
      <trkpt lat="48.08663" lon="-2.77182">
        <ele>69</ele>
        <time>2022-05-21T04:13:43Z</time>
      </trkpt>
      <trkpt lat="48.08668" lon="-2.77164">
        <ele>69</ele>
        <time>2022-05-21T04:13:45Z</time>
      </trkpt>
      <trkpt lat="48.08671" lon="-2.77137">
        <ele>68</ele>
        <time>2022-05-21T04:13:48Z</time>
      </trkpt>
      <trkpt lat="48.08684" lon="-2.77081">
        <ele>68</ele>
        <time>2022-05-21T04:13:55Z</time>
      </trkpt>
      <trkpt lat="48.08724" lon="-2.76978">
        <ele>67</ele>
        <time>2022-05-21T04:14:10Z</time>
      </trkpt>
      <trkpt lat="48.08739" lon="-2.76931">
        <ele>66</ele>
        <time>2022-05-21T04:14:16Z</time>
      </trkpt>
      <trkpt lat="48.08743" lon="-2.76895">
        <ele>65</ele>
        <time>2022-05-21T04:14:20Z</time>
      </trkpt>
      <trkpt lat="48.0874" lon="-2.76877">
        <ele>65</ele>
        <time>2022-05-21T04:14:22Z</time>
      </trkpt>
      <trkpt lat="48.08736" lon="-2.76859">
        <ele>65</ele>
        <time>2022-05-21T04:14:25Z</time>
      </trkpt>
      <trkpt lat="48.0873" lon="-2.76845">
        <ele>65</ele>
        <time>2022-05-21T04:14:27Z</time>
      </trkpt>
      <trkpt lat="48.08717" lon="-2.76824">
        <ele>65</ele>
        <time>2022-05-21T04:14:30Z</time>
      </trkpt>
      <trkpt lat="48.08689" lon="-2.76798">
        <ele>66</ele>
        <time>2022-05-21T04:14:36Z</time>
      </trkpt>
      <trkpt lat="48.08659" lon="-2.76778">
        <ele>66</ele>
        <time>2022-05-21T04:14:42Z</time>
      </trkpt>
      <trkpt lat="48.0864" lon="-2.76759">
        <ele>66</ele>
        <time>2022-05-21T04:14:46Z</time>
      </trkpt>
      <trkpt lat="48.08609" lon="-2.76739">
        <ele>66</ele>
        <time>2022-05-21T04:14:52Z</time>
      </trkpt>
      <trkpt lat="48.08458" lon="-2.76625">
        <ele>66</ele>
        <time>2022-05-21T04:15:22Z</time>
      </trkpt>
      <trkpt lat="48.08403" lon="-2.76581">
        <ele>67</ele>
        <time>2022-05-21T04:15:33Z</time>
      </trkpt>
      <trkpt lat="48.08292" lon="-2.76498">
        <ele>67</ele>
        <time>2022-05-21T04:15:55Z</time>
      </trkpt>
      <trkpt lat="48.08258" lon="-2.76471">
        <ele>66</ele>
        <time>2022-05-21T04:16:02Z</time>
      </trkpt>
      <trkpt lat="48.08249" lon="-2.76461">
        <ele>66</ele>
        <time>2022-05-21T04:16:04Z</time>
      </trkpt>
      <trkpt lat="48.08226" lon="-2.76448">
        <ele>67</ele>
        <time>2022-05-21T04:16:08Z</time>
      </trkpt>
      <trkpt lat="48.08168" lon="-2.76402">
        <ele>68</ele>
        <time>2022-05-21T04:16:20Z</time>
      </trkpt>
      <trkpt lat="48.08155" lon="-2.76395">
        <ele>70</ele>
        <time>2022-05-21T04:16:22Z</time>
      </trkpt>
      <trkpt lat="48.08122" lon="-2.76365">
        <ele>72</ele>
        <time>2022-05-21T04:16:29Z</time>
      </trkpt>
      <trkpt lat="48.08094" lon="-2.76334">
        <ele>72</ele>
        <time>2022-05-21T04:16:35Z</time>
      </trkpt>
      <trkpt lat="48.08069" lon="-2.76282">
        <ele>70</ele>
        <time>2022-05-21T04:16:43Z</time>
      </trkpt>
      <trkpt lat="48.08013" lon="-2.762">
        <ele>68</ele>
        <time>2022-05-21T04:16:57Z</time>
      </trkpt>
      <trkpt lat="48.07909" lon="-2.76058">
        <ele>68</ele>
        <time>2022-05-21T04:17:22Z</time>
      </trkpt>
      <trkpt lat="48.0785" lon="-2.75994">
        <ele>67</ele>
        <time>2022-05-21T04:17:35Z</time>
      </trkpt>
      <trkpt lat="48.07771" lon="-2.75923">
        <ele>68</ele>
        <time>2022-05-21T04:17:51Z</time>
      </trkpt>
      <trkpt lat="48.07705" lon="-2.75858">
        <ele>67</ele>
        <time>2022-05-21T04:18:05Z</time>
      </trkpt>
      <trkpt lat="48.0762" lon="-2.75782">
        <ele>66</ele>
        <time>2022-05-21T04:18:23Z</time>
      </trkpt>
      <trkpt lat="48.07547" lon="-2.75695">
        <ele>66</ele>
        <time>2022-05-21T04:18:40Z</time>
      </trkpt>
      <trkpt lat="48.07528" lon="-2.75683">
        <ele>65</ele>
        <time>2022-05-21T04:18:43Z</time>
      </trkpt>
      <trkpt lat="48.07486" lon="-2.75679">
        <ele>65</ele>
        <time>2022-05-21T04:18:51Z</time>
      </trkpt>
      <trkpt lat="48.0744" lon="-2.75671">
        <ele>65</ele>
        <time>2022-05-21T04:18:59Z</time>
      </trkpt>
      <trkpt lat="48.07419" lon="-2.75661">
        <ele>65</ele>
        <time>2022-05-21T04:19:03Z</time>
      </trkpt>
      <trkpt lat="48.07408" lon="-2.75652">
        <ele>65</ele>
        <time>2022-05-21T04:19:05Z</time>
      </trkpt>
      <trkpt lat="48.0739" lon="-2.75628">
        <ele>65</ele>
        <time>2022-05-21T04:19:09Z</time>
      </trkpt>
      <trkpt lat="48.0738" lon="-2.75623">
        <ele>65</ele>
        <time>2022-05-21T04:19:11Z</time>
      </trkpt>
      <trkpt lat="48.07362" lon="-2.75635">
        <ele>65</ele>
        <time>2022-05-21T04:19:15Z</time>
      </trkpt>
      <trkpt lat="48.07346" lon="-2.75653">
        <ele>66</ele>
        <time>2022-05-21T04:19:18Z</time>
      </trkpt>
      <trkpt lat="48.07336" lon="-2.75653">
        <ele>66</ele>
        <time>2022-05-21T04:19:20Z</time>
      </trkpt>
      <trkpt lat="48.07294" lon="-2.75626">
        <ele>66</ele>
        <time>2022-05-21T04:19:28Z</time>
      </trkpt>
      <trkpt lat="48.07273" lon="-2.75616">
        <ele>67</ele>
        <time>2022-05-21T04:19:32Z</time>
      </trkpt>
      <trkpt lat="48.07219" lon="-2.75583">
        <ele>66</ele>
        <time>2022-05-21T04:19:43Z</time>
      </trkpt>
      <trkpt lat="48.07157" lon="-2.75526">
        <ele>66</ele>
        <time>2022-05-21T04:19:56Z</time>
      </trkpt>
      <trkpt lat="48.07149" lon="-2.75514">
        <ele>66</ele>
        <time>2022-05-21T04:19:58Z</time>
      </trkpt>
      <trkpt lat="48.07132" lon="-2.75475">
        <ele>66</ele>
        <time>2022-05-21T04:20:03Z</time>
      </trkpt>
      <trkpt lat="48.07094" lon="-2.75415">
        <ele>68</ele>
        <time>2022-05-21T04:20:13Z</time>
      </trkpt>
      <trkpt lat="48.0704" lon="-2.753">
        <ele>67</ele>
        <time>2022-05-21T04:20:30Z</time>
      </trkpt>
      <trkpt lat="48.07029" lon="-2.75255">
        <ele>68</ele>
        <time>2022-05-21T04:20:35Z</time>
      </trkpt>
      <trkpt lat="48.07005" lon="-2.75086">
        <ele>66</ele>
        <time>2022-05-21T04:20:56Z</time>
      </trkpt>
      <trkpt lat="48.06985" lon="-2.75089">
        <ele>67</ele>
        <time>2022-05-21T04:20:59Z</time>
      </trkpt>
      <trkpt lat="48.06979" lon="-2.75101">
        <ele>67</ele>
        <time>2022-05-21T04:21:01Z</time>
      </trkpt>
      <trkpt lat="48.06968" lon="-2.75156">
        <ele>69</ele>
        <time>2022-05-21T04:21:08Z</time>
      </trkpt>
      <trkpt lat="48.06969" lon="-2.7517">
        <ele>70</ele>
        <time>2022-05-21T04:21:10Z</time>
      </trkpt>
      <trkpt lat="48.06964" lon="-2.75181">
        <ele>70</ele>
        <time>2022-05-21T04:21:11Z</time>
      </trkpt>
      <trkpt lat="48.0697" lon="-2.75169">
        <ele>70</ele>
        <time>2022-05-21T04:21:13Z</time>
      </trkpt>
      <trkpt lat="48.06976" lon="-2.75137">
        <ele>68</ele>
        <time>2022-05-21T04:21:17Z</time>
      </trkpt>
      <trkpt lat="48.06975" lon="-2.75122">
        <ele>68</ele>
        <time>2022-05-21T04:21:19Z</time>
      </trkpt>
      <trkpt lat="48.0698" lon="-2.75109">
        <ele>67</ele>
        <time>2022-05-21T04:21:21Z</time>
      </trkpt>
      <trkpt lat="48.06991" lon="-2.75105">
        <ele>67</ele>
        <time>2022-05-21T04:21:23Z</time>
      </trkpt>
      <trkpt lat="48.06995" lon="-2.75093">
        <ele>66</ele>
        <time>2022-05-21T04:21:24Z</time>
      </trkpt>
      <trkpt lat="48.06997" lon="-2.75107">
        <ele>67</ele>
        <time>2022-05-21T04:21:26Z</time>
      </trkpt>
      <trkpt lat="48.06996" lon="-2.75084">
        <ele>66</ele>
        <time>2022-05-21T04:21:29Z</time>
      </trkpt>
      <trkpt lat="48.06999" lon="-2.75071">
        <ele>66</ele>
        <time>2022-05-21T04:21:30Z</time>
      </trkpt>
      <trkpt lat="48.06993" lon="-2.75041">
        <ele>66</ele>
        <time>2022-05-21T04:21:34Z</time>
      </trkpt>
      <trkpt lat="48.06983" lon="-2.75011">
        <ele>66</ele>
        <time>2022-05-21T04:21:38Z</time>
      </trkpt>
      <trkpt lat="48.06954" lon="-2.74941">
        <ele>69</ele>
        <time>2022-05-21T04:21:48Z</time>
      </trkpt>
      <trkpt lat="48.06947" lon="-2.74928">
        <ele>69</ele>
        <time>2022-05-21T04:21:50Z</time>
      </trkpt>
      <trkpt lat="48.06946" lon="-2.74934">
        <ele>69</ele>
        <time>2022-05-21T04:21:51Z</time>
      </trkpt>
      <trkpt lat="48.06941" lon="-2.74922">
        <ele>69</ele>
        <time>2022-05-21T04:21:52Z</time>
      </trkpt>
      <trkpt lat="48.06929" lon="-2.74921">
        <ele>69</ele>
        <time>2022-05-21T04:21:54Z</time>
      </trkpt>
      <trkpt lat="48.06882" lon="-2.74969">
        <ele>68</ele>
        <time>2022-05-21T04:22:05Z</time>
      </trkpt>
      <trkpt lat="48.06845" lon="-2.74999">
        <ele>66</ele>
        <time>2022-05-21T04:22:12Z</time>
      </trkpt>
      <trkpt lat="48.06825" lon="-2.75">
        <ele>66</ele>
        <time>2022-05-21T04:22:16Z</time>
      </trkpt>
      <trkpt lat="48.06816" lon="-2.74997">
        <ele>66</ele>
        <time>2022-05-21T04:22:17Z</time>
      </trkpt>
      <trkpt lat="48.06815" lon="-2.74968">
        <ele>69</ele>
        <time>2022-05-21T04:22:21Z</time>
      </trkpt>
      <trkpt lat="48.06811" lon="-2.74956">
        <ele>70</ele>
        <time>2022-05-21T04:22:22Z</time>
      </trkpt>
      <trkpt lat="48.06787" lon="-2.74943">
        <ele>71</ele>
        <time>2022-05-21T04:22:27Z</time>
      </trkpt>
      <trkpt lat="48.06746" lon="-2.74963">
        <ele>68</ele>
        <time>2022-05-21T04:22:34Z</time>
      </trkpt>
      <trkpt lat="48.06739" lon="-2.74971">
        <ele>67</ele>
        <time>2022-05-21T04:22:36Z</time>
      </trkpt>
      <trkpt lat="48.06721" lon="-2.74982">
        <ele>66</ele>
        <time>2022-05-21T04:22:39Z</time>
      </trkpt>
      <trkpt lat="48.06711" lon="-2.74981">
        <ele>66</ele>
        <time>2022-05-21T04:22:41Z</time>
      </trkpt>
      <trkpt lat="48.06671" lon="-2.74948">
        <ele>66</ele>
        <time>2022-05-21T04:22:49Z</time>
      </trkpt>
      <trkpt lat="48.06661" lon="-2.74921">
        <ele>66</ele>
        <time>2022-05-21T04:22:53Z</time>
      </trkpt>
      <trkpt lat="48.06657" lon="-2.74852">
        <ele>68</ele>
        <time>2022-05-21T04:23:01Z</time>
      </trkpt>
      <trkpt lat="48.06649" lon="-2.74811">
        <ele>70</ele>
        <time>2022-05-21T04:23:06Z</time>
      </trkpt>
      <trkpt lat="48.06608" lon="-2.74699">
        <ele>70</ele>
        <time>2022-05-21T04:23:22Z</time>
      </trkpt>
      <trkpt lat="48.06594" lon="-2.74675">
        <ele>69</ele>
        <time>2022-05-21T04:23:25Z</time>
      </trkpt>
      <trkpt lat="48.06577" lon="-2.74634">
        <ele>69</ele>
        <time>2022-05-21T04:23:31Z</time>
      </trkpt>
      <trkpt lat="48.0656" lon="-2.74603">
        <ele>70</ele>
        <time>2022-05-21T04:23:36Z</time>
      </trkpt>
      <trkpt lat="48.06535" lon="-2.74574">
        <ele>70</ele>
        <time>2022-05-21T04:23:41Z</time>
      </trkpt>
      <trkpt lat="48.0653" lon="-2.7456">
        <ele>69</ele>
        <time>2022-05-21T04:23:43Z</time>
      </trkpt>
      <trkpt lat="48.06512" lon="-2.74538">
        <ele>68</ele>
        <time>2022-05-21T04:23:48Z</time>
      </trkpt>
      <trkpt lat="48.065" lon="-2.7451">
        <ele>65</ele>
        <time>2022-05-21T04:23:51Z</time>
      </trkpt>
      <trkpt lat="48.06481" lon="-2.74481">
        <ele>65</ele>
        <time>2022-05-21T04:23:56Z</time>
      </trkpt>
      <trkpt lat="48.0646" lon="-2.74441">
        <ele>63</ele>
        <time>2022-05-21T04:24:02Z</time>
      </trkpt>
      <trkpt lat="48.06442" lon="-2.74401">
        <ele>62</ele>
        <time>2022-05-21T04:24:08Z</time>
      </trkpt>
      <trkpt lat="48.064" lon="-2.74319">
        <ele>61</ele>
        <time>2022-05-21T04:24:20Z</time>
      </trkpt>
      <trkpt lat="48.0633" lon="-2.74206">
        <ele>61</ele>
        <time>2022-05-21T04:24:39Z</time>
      </trkpt>
      <trkpt lat="48.06321" lon="-2.74176">
        <ele>62</ele>
        <time>2022-05-21T04:24:43Z</time>
      </trkpt>
      <trkpt lat="48.06254" lon="-2.73843">
        <ele>60</ele>
        <time>2022-05-21T04:25:24Z</time>
      </trkpt>
      <trkpt lat="48.06239" lon="-2.73783">
        <ele>63</ele>
        <time>2022-05-21T04:25:32Z</time>
      </trkpt>
      <trkpt lat="48.06226" lon="-2.73758">
        <ele>64</ele>
        <time>2022-05-21T04:25:35Z</time>
      </trkpt>
      <trkpt lat="48.062" lon="-2.73726">
        <ele>64</ele>
        <time>2022-05-21T04:25:41Z</time>
      </trkpt>
      <trkpt lat="48.06161" lon="-2.73665">
        <ele>63</ele>
        <time>2022-05-21T04:25:51Z</time>
      </trkpt>
      <trkpt lat="48.06142" lon="-2.73646">
        <ele>61</ele>
        <time>2022-05-21T04:25:55Z</time>
      </trkpt>
      <trkpt lat="48.06074" lon="-2.7356">
        <ele>58</ele>
        <time>2022-05-21T04:26:11Z</time>
      </trkpt>
      <trkpt lat="48.06016" lon="-2.73495">
        <ele>59</ele>
        <time>2022-05-21T04:26:24Z</time>
      </trkpt>
      <trkpt lat="48.05882" lon="-2.73378">
        <ele>63</ele>
        <time>2022-05-21T04:26:52Z</time>
      </trkpt>
      <trkpt lat="48.05821" lon="-2.73329">
        <ele>65</ele>
        <time>2022-05-21T04:27:04Z</time>
      </trkpt>
      <trkpt lat="48.05811" lon="-2.73323">
        <ele>65</ele>
        <time>2022-05-21T04:27:06Z</time>
      </trkpt>
      <trkpt lat="48.05791" lon="-2.73318">
        <ele>66</ele>
        <time>2022-05-21T04:27:10Z</time>
      </trkpt>
      <trkpt lat="48.05781" lon="-2.73319">
        <ele>66</ele>
        <time>2022-05-21T04:27:11Z</time>
      </trkpt>
      <trkpt lat="48.05754" lon="-2.7333">
        <ele>66</ele>
        <time>2022-05-21T04:27:16Z</time>
      </trkpt>
      <trkpt lat="48.05689" lon="-2.73371">
        <ele>66</ele>
        <time>2022-05-21T04:27:29Z</time>
      </trkpt>
      <trkpt lat="48.0564" lon="-2.73396">
        <ele>64</ele>
        <time>2022-05-21T04:27:38Z</time>
      </trkpt>
      <trkpt lat="48.05573" lon="-2.73406">
        <ele>62</ele>
        <time>2022-05-21T04:27:50Z</time>
      </trkpt>
      <trkpt lat="48.0552" lon="-2.73419">
        <ele>61</ele>
        <time>2022-05-21T04:28:00Z</time>
      </trkpt>
      <trkpt lat="48.05457" lon="-2.73446">
        <ele>62</ele>
        <time>2022-05-21T04:28:11Z</time>
      </trkpt>
      <trkpt lat="48.05416" lon="-2.73468">
        <ele>63</ele>
        <time>2022-05-21T04:28:19Z</time>
      </trkpt>
      <trkpt lat="48.05386" lon="-2.73478">
        <ele>62</ele>
        <time>2022-05-21T04:28:25Z</time>
      </trkpt>
      <trkpt lat="48.0533" lon="-2.7349">
        <ele>61</ele>
        <time>2022-05-21T04:28:35Z</time>
      </trkpt>
      <trkpt lat="48.05309" lon="-2.73491">
        <ele>61</ele>
        <time>2022-05-21T04:28:38Z</time>
      </trkpt>
      <trkpt lat="48.05298" lon="-2.73488">
        <ele>61</ele>
        <time>2022-05-21T04:28:40Z</time>
      </trkpt>
      <trkpt lat="48.05279" lon="-2.73478">
        <ele>61</ele>
        <time>2022-05-21T04:28:44Z</time>
      </trkpt>
      <trkpt lat="48.0526" lon="-2.73462">
        <ele>60</ele>
        <time>2022-05-21T04:28:48Z</time>
      </trkpt>
      <trkpt lat="48.05243" lon="-2.73441">
        <ele>60</ele>
        <time>2022-05-21T04:28:52Z</time>
      </trkpt>
      <trkpt lat="48.05218" lon="-2.73408">
        <ele>60</ele>
        <time>2022-05-21T04:28:58Z</time>
      </trkpt>
      <trkpt lat="48.05137" lon="-2.73267">
        <ele>61</ele>
        <time>2022-05-21T04:29:20Z</time>
      </trkpt>
      <trkpt lat="48.05061" lon="-2.73122">
        <ele>60</ele>
        <time>2022-05-21T04:29:42Z</time>
      </trkpt>
      <trkpt lat="48.04973" lon="-2.72968">
        <ele>61</ele>
        <time>2022-05-21T04:30:06Z</time>
      </trkpt>
      <trkpt lat="48.04963" lon="-2.72945">
        <ele>61</ele>
        <time>2022-05-21T04:30:09Z</time>
      </trkpt>
      <trkpt lat="48.04893" lon="-2.72818">
        <ele>60</ele>
        <time>2022-05-21T04:30:29Z</time>
      </trkpt>
      <trkpt lat="48.04877" lon="-2.72783">
        <ele>60</ele>
        <time>2022-05-21T04:30:34Z</time>
      </trkpt>
      <trkpt lat="48.04822" lon="-2.72688">
        <ele>59</ele>
        <time>2022-05-21T04:30:49Z</time>
      </trkpt>
      <trkpt lat="48.04641" lon="-2.72354">
        <ele>63</ele>
        <time>2022-05-21T04:31:40Z</time>
      </trkpt>
      <trkpt lat="48.0457" lon="-2.72229">
        <ele>62</ele>
        <time>2022-05-21T04:31:59Z</time>
      </trkpt>
      <trkpt lat="48.04441" lon="-2.71987">
        <ele>62</ele>
        <time>2022-05-21T04:32:36Z</time>
      </trkpt>
      <trkpt lat="48.04382" lon="-2.71881">
        <ele>60</ele>
        <time>2022-05-21T04:32:53Z</time>
      </trkpt>
      <trkpt lat="48.04334" lon="-2.71788">
        <ele>63</ele>
        <time>2022-05-21T04:33:06Z</time>
      </trkpt>
      <trkpt lat="48.0429" lon="-2.71711">
        <ele>64</ele>
        <time>2022-05-21T04:33:19Z</time>
      </trkpt>
      <trkpt lat="48.04249" lon="-2.71645">
        <ele>64</ele>
        <time>2022-05-21T04:33:29Z</time>
      </trkpt>
      <trkpt lat="48.04212" lon="-2.71568">
        <ele>61</ele>
        <time>2022-05-21T04:33:41Z</time>
      </trkpt>
      <trkpt lat="48.04183" lon="-2.71514">
        <ele>63</ele>
        <time>2022-05-21T04:33:49Z</time>
      </trkpt>
      <trkpt lat="48.04147" lon="-2.7146">
        <ele>63</ele>
        <time>2022-05-21T04:33:58Z</time>
      </trkpt>
      <trkpt lat="48.04058" lon="-2.71372">
        <ele>61</ele>
        <time>2022-05-21T04:34:17Z</time>
      </trkpt>
      <trkpt lat="48.04042" lon="-2.71352">
        <ele>59</ele>
        <time>2022-05-21T04:34:21Z</time>
      </trkpt>
      <trkpt lat="48.03983" lon="-2.71293">
        <ele>57</ele>
        <time>2022-05-21T04:34:33Z</time>
      </trkpt>
      <trkpt lat="48.03865" lon="-2.71182">
        <ele>61</ele>
        <time>2022-05-21T04:34:58Z</time>
      </trkpt>
      <trkpt lat="48.03802" lon="-2.71126">
        <ele>62</ele>
        <time>2022-05-21T04:35:11Z</time>
      </trkpt>
      <trkpt lat="48.0371" lon="-2.71031">
        <ele>58</ele>
        <time>2022-05-21T04:35:31Z</time>
      </trkpt>
      <trkpt lat="48.03648" lon="-2.70973">
        <ele>57</ele>
        <time>2022-05-21T04:35:44Z</time>
      </trkpt>
      <trkpt lat="48.0361" lon="-2.70934">
        <ele>55</ele>
        <time>2022-05-21T04:35:52Z</time>
      </trkpt>
      <trkpt lat="48.03551" lon="-2.70881">
        <ele>55</ele>
        <time>2022-05-21T04:36:04Z</time>
      </trkpt>
      <trkpt lat="48.03534" lon="-2.70861">
        <ele>55</ele>
        <time>2022-05-21T04:36:08Z</time>
      </trkpt>
      <trkpt lat="48.03417" lon="-2.70759">
        <ele>58</ele>
        <time>2022-05-21T04:36:32Z</time>
      </trkpt>
      <trkpt lat="48.0336" lon="-2.70696">
        <ele>56</ele>
        <time>2022-05-21T04:36:45Z</time>
      </trkpt>
      <trkpt lat="48.03256" lon="-2.70601">
        <ele>57</ele>
        <time>2022-05-21T04:37:07Z</time>
      </trkpt>
      <trkpt lat="48.03147" lon="-2.70493">
        <ele>58</ele>
        <time>2022-05-21T04:37:30Z</time>
      </trkpt>
      <trkpt lat="48.03067" lon="-2.70419">
        <ele>55</ele>
        <time>2022-05-21T04:37:47Z</time>
      </trkpt>
      <trkpt lat="48.03052" lon="-2.70402">
        <ele>55</ele>
        <time>2022-05-21T04:37:50Z</time>
      </trkpt>
      <trkpt lat="48.02961" lon="-2.70319">
        <ele>57</ele>
        <time>2022-05-21T04:38:09Z</time>
      </trkpt>
      <trkpt lat="48.02791" lon="-2.70146">
        <ele>53</ele>
        <time>2022-05-21T04:38:46Z</time>
      </trkpt>
      <trkpt lat="48.02752" lon="-2.70113">
        <ele>54</ele>
        <time>2022-05-21T04:38:53Z</time>
      </trkpt>
      <trkpt lat="48.02648" lon="-2.70014">
        <ele>54</ele>
        <time>2022-05-21T04:39:15Z</time>
      </trkpt>
      <trkpt lat="48.02556" lon="-2.69922">
        <ele>54</ele>
        <time>2022-05-21T04:39:35Z</time>
      </trkpt>
      <trkpt lat="48.02445" lon="-2.69823">
        <ele>53</ele>
        <time>2022-05-21T04:39:58Z</time>
      </trkpt>
      <trkpt lat="48.02419" lon="-2.69793">
        <ele>53</ele>
        <time>2022-05-21T04:40:04Z</time>
      </trkpt>
      <trkpt lat="48.02395" lon="-2.69759">
        <ele>52</ele>
        <time>2022-05-21T04:40:10Z</time>
      </trkpt>
      <trkpt lat="48.02377" lon="-2.69725">
        <ele>52</ele>
        <time>2022-05-21T04:40:15Z</time>
      </trkpt>
      <trkpt lat="48.02358" lon="-2.69661">
        <ele>51</ele>
        <time>2022-05-21T04:40:23Z</time>
      </trkpt>
      <trkpt lat="48.02237" lon="-2.68928">
        <ele>51</ele>
        <time>2022-05-21T04:41:53Z</time>
      </trkpt>
      <trkpt lat="48.02222" lon="-2.68823">
        <ele>52</ele>
        <time>2022-05-21T04:42:06Z</time>
      </trkpt>
      <trkpt lat="48.02218" lon="-2.6881">
        <ele>52</ele>
        <time>2022-05-21T04:42:08Z</time>
      </trkpt>
      <trkpt lat="48.02216" lon="-2.68783">
        <ele>52</ele>
        <time>2022-05-21T04:42:11Z</time>
      </trkpt>
      <trkpt lat="48.02211" lon="-2.68767">
        <ele>52</ele>
        <time>2022-05-21T04:42:13Z</time>
      </trkpt>
      <trkpt lat="48.02209" lon="-2.6875">
        <ele>53</ele>
        <time>2022-05-21T04:42:15Z</time>
      </trkpt>
      <trkpt lat="48.02214" lon="-2.68701">
        <ele>53</ele>
        <time>2022-05-21T04:42:21Z</time>
      </trkpt>
      <trkpt lat="48.02213" lon="-2.68683">
        <ele>53</ele>
        <time>2022-05-21T04:42:23Z</time>
      </trkpt>
      <trkpt lat="48.02217" lon="-2.68668">
        <ele>54</ele>
        <time>2022-05-21T04:42:25Z</time>
      </trkpt>
      <trkpt lat="48.02219" lon="-2.68639">
        <ele>53</ele>
        <time>2022-05-21T04:42:28Z</time>
      </trkpt>
      <trkpt lat="48.02226" lon="-2.6861">
        <ele>53</ele>
        <time>2022-05-21T04:42:32Z</time>
      </trkpt>
      <trkpt lat="48.02232" lon="-2.68565">
        <ele>53</ele>
        <time>2022-05-21T04:42:38Z</time>
      </trkpt>
      <trkpt lat="48.02232" lon="-2.6853">
        <ele>53</ele>
        <time>2022-05-21T04:42:42Z</time>
      </trkpt>
      <trkpt lat="48.02205" lon="-2.68408">
        <ele>53</ele>
        <time>2022-05-21T04:42:57Z</time>
      </trkpt>
      <trkpt lat="48.0219" lon="-2.68368">
        <ele>53</ele>
        <time>2022-05-21T04:43:03Z</time>
      </trkpt>
      <trkpt lat="48.02176" lon="-2.68348">
        <ele>52</ele>
        <time>2022-05-21T04:43:06Z</time>
      </trkpt>
      <trkpt lat="48.02165" lon="-2.68325">
        <ele>52</ele>
        <time>2022-05-21T04:43:09Z</time>
      </trkpt>
      <trkpt lat="48.02103" lon="-2.6822">
        <ele>52</ele>
        <time>2022-05-21T04:43:26Z</time>
      </trkpt>
      <trkpt lat="48.02092" lon="-2.68195">
        <ele>51</ele>
        <time>2022-05-21T04:43:30Z</time>
      </trkpt>
      <trkpt lat="48.02055" lon="-2.6808">
        <ele>52</ele>
        <time>2022-05-21T04:43:45Z</time>
      </trkpt>
      <trkpt lat="48.02018" lon="-2.68011">
        <ele>52</ele>
        <time>2022-05-21T04:43:55Z</time>
      </trkpt>
      <trkpt lat="48.0196" lon="-2.6795">
        <ele>52</ele>
        <time>2022-05-21T04:44:08Z</time>
      </trkpt>
      <trkpt lat="48.01955" lon="-2.67939">
        <ele>52</ele>
        <time>2022-05-21T04:44:09Z</time>
      </trkpt>
      <trkpt lat="48.01903" lon="-2.67885">
        <ele>52</ele>
        <time>2022-05-21T04:44:21Z</time>
      </trkpt>
      <trkpt lat="48.01836" lon="-2.67822">
        <ele>50</ele>
        <time>2022-05-21T04:44:35Z</time>
      </trkpt>
      <trkpt lat="48.01801" lon="-2.67784">
        <ele>50</ele>
        <time>2022-05-21T04:44:43Z</time>
      </trkpt>
      <trkpt lat="48.01771" lon="-2.67759">
        <ele>50</ele>
        <time>2022-05-21T04:44:49Z</time>
      </trkpt>
      <trkpt lat="48.01764" lon="-2.67747">
        <ele>50</ele>
        <time>2022-05-21T04:44:51Z</time>
      </trkpt>
      <trkpt lat="48.01705" lon="-2.67683">
        <ele>48</ele>
        <time>2022-05-21T04:45:03Z</time>
      </trkpt>
      <trkpt lat="48.01638" lon="-2.67632">
        <ele>47</ele>
        <time>2022-05-21T04:45:17Z</time>
      </trkpt>
      <trkpt lat="48.016" lon="-2.67608">
        <ele>47</ele>
        <time>2022-05-21T04:45:24Z</time>
      </trkpt>
      <trkpt lat="48.01568" lon="-2.67591">
        <ele>47</ele>
        <time>2022-05-21T04:45:30Z</time>
      </trkpt>
      <trkpt lat="48.01482" lon="-2.67555">
        <ele>48</ele>
        <time>2022-05-21T04:45:46Z</time>
      </trkpt>
      <trkpt lat="48.0145" lon="-2.67537">
        <ele>48</ele>
        <time>2022-05-21T04:45:52Z</time>
      </trkpt>
      <trkpt lat="48.01417" lon="-2.67511">
        <ele>48</ele>
        <time>2022-05-21T04:45:59Z</time>
      </trkpt>
      <trkpt lat="48.0139" lon="-2.67486">
        <ele>48</ele>
        <time>2022-05-21T04:46:05Z</time>
      </trkpt>
      <trkpt lat="48.01352" lon="-2.67461">
        <ele>48</ele>
        <time>2022-05-21T04:46:12Z</time>
      </trkpt>
      <trkpt lat="48.01291" lon="-2.67441">
        <ele>48</ele>
        <time>2022-05-21T04:46:23Z</time>
      </trkpt>
      <trkpt lat="48.01279" lon="-2.67435">
        <ele>49</ele>
        <time>2022-05-21T04:46:25Z</time>
      </trkpt>
      <trkpt lat="48.0125" lon="-2.67414">
        <ele>49</ele>
        <time>2022-05-21T04:46:31Z</time>
      </trkpt>
      <trkpt lat="48.01208" lon="-2.67369">
        <ele>50</ele>
        <time>2022-05-21T04:46:40Z</time>
      </trkpt>
      <trkpt lat="48.01172" lon="-2.67335">
        <ele>51</ele>
        <time>2022-05-21T04:46:48Z</time>
      </trkpt>
      <trkpt lat="48.01162" lon="-2.67322">
        <ele>50</ele>
        <time>2022-05-21T04:46:50Z</time>
      </trkpt>
      <trkpt lat="48.01109" lon="-2.67273">
        <ele>47</ele>
        <time>2022-05-21T04:47:01Z</time>
      </trkpt>
      <trkpt lat="48.01093" lon="-2.67256">
        <ele>46</ele>
        <time>2022-05-21T04:47:05Z</time>
      </trkpt>
      <trkpt lat="48.01086" lon="-2.67245">
        <ele>45</ele>
        <time>2022-05-21T04:47:07Z</time>
      </trkpt>
      <trkpt lat="48.01076" lon="-2.6725">
        <ele>45</ele>
        <time>2022-05-21T04:47:08Z</time>
      </trkpt>
      <trkpt lat="48.01069" lon="-2.67261">
        <ele>46</ele>
        <time>2022-05-21T04:47:10Z</time>
      </trkpt>
      <trkpt lat="48.0106" lon="-2.67267">
        <ele>46</ele>
        <time>2022-05-21T04:47:12Z</time>
      </trkpt>
      <trkpt lat="48.00998" lon="-2.67196">
        <ele>49</ele>
        <time>2022-05-21T04:47:26Z</time>
      </trkpt>
      <trkpt lat="48.0095" lon="-2.67103">
        <ele>48</ele>
        <time>2022-05-21T04:47:40Z</time>
      </trkpt>
      <trkpt lat="48.0094" lon="-2.67093">
        <ele>48</ele>
        <time>2022-05-21T04:47:42Z</time>
      </trkpt>
      <trkpt lat="48.0093" lon="-2.67091">
        <ele>48</ele>
        <time>2022-05-21T04:47:44Z</time>
      </trkpt>
      <trkpt lat="48.00919" lon="-2.67085">
        <ele>48</ele>
        <time>2022-05-21T04:47:46Z</time>
      </trkpt>
      <trkpt lat="48.00916" lon="-2.67051">
        <ele>48</ele>
        <time>2022-05-21T04:47:50Z</time>
      </trkpt>
      <trkpt lat="48.00916" lon="-2.67017">
        <ele>47</ele>
        <time>2022-05-21T04:47:54Z</time>
      </trkpt>
      <trkpt lat="48.00919" lon="-2.66988">
        <ele>47</ele>
        <time>2022-05-21T04:47:57Z</time>
      </trkpt>
      <trkpt lat="48.00927" lon="-2.66957">
        <ele>47</ele>
        <time>2022-05-21T04:48:01Z</time>
      </trkpt>
      <trkpt lat="48.00952" lon="-2.66883">
        <ele>46</ele>
        <time>2022-05-21T04:48:11Z</time>
      </trkpt>
      <trkpt lat="48.00964" lon="-2.66836">
        <ele>45</ele>
        <time>2022-05-21T04:48:17Z</time>
      </trkpt>
      <trkpt lat="48.00974" lon="-2.66779">
        <ele>45</ele>
        <time>2022-05-21T04:48:24Z</time>
      </trkpt>
      <trkpt lat="48.0098" lon="-2.66731">
        <ele>45</ele>
        <time>2022-05-21T04:48:30Z</time>
      </trkpt>
      <trkpt lat="48.00981" lon="-2.66703">
        <ele>45</ele>
        <time>2022-05-21T04:48:33Z</time>
      </trkpt>
      <trkpt lat="48.0099" lon="-2.66656">
        <ele>45</ele>
        <time>2022-05-21T04:48:39Z</time>
      </trkpt>
      <trkpt lat="48.01069" lon="-2.66402">
        <ele>48</ele>
        <time>2022-05-21T04:49:13Z</time>
      </trkpt>
      <trkpt lat="48.01073" lon="-2.66373">
        <ele>49</ele>
        <time>2022-05-21T04:49:16Z</time>
      </trkpt>
      <trkpt lat="48.0107" lon="-2.66329">
        <ele>48</ele>
        <time>2022-05-21T04:49:21Z</time>
      </trkpt>
      <trkpt lat="48.01067" lon="-2.66315">
        <ele>48</ele>
        <time>2022-05-21T04:49:23Z</time>
      </trkpt>
      <trkpt lat="48.01054" lon="-2.66284">
        <ele>48</ele>
        <time>2022-05-21T04:49:28Z</time>
      </trkpt>
      <trkpt lat="48.01041" lon="-2.66261">
        <ele>47</ele>
        <time>2022-05-21T04:49:31Z</time>
      </trkpt>
      <trkpt lat="48.00967" lon="-2.6615">
        <ele>47</ele>
        <time>2022-05-21T04:49:50Z</time>
      </trkpt>
      <trkpt lat="48.00957" lon="-2.66124">
        <ele>46</ele>
        <time>2022-05-21T04:49:53Z</time>
      </trkpt>
      <trkpt lat="48.00943" lon="-2.66068">
        <ele>46</ele>
        <time>2022-05-21T04:50:00Z</time>
      </trkpt>
      <trkpt lat="48.00928" lon="-2.66023">
        <ele>47</ele>
        <time>2022-05-21T04:50:06Z</time>
      </trkpt>
      <trkpt lat="48.00913" lon="-2.66">
        <ele>47</ele>
        <time>2022-05-21T04:50:10Z</time>
      </trkpt>
      <trkpt lat="48.00881" lon="-2.6598">
        <ele>46</ele>
        <time>2022-05-21T04:50:16Z</time>
      </trkpt>
      <trkpt lat="48.00851" lon="-2.65976">
        <ele>46</ele>
        <time>2022-05-21T04:50:22Z</time>
      </trkpt>
      <trkpt lat="48.00801" lon="-2.65964">
        <ele>45</ele>
        <time>2022-05-21T04:50:31Z</time>
      </trkpt>
      <trkpt lat="48.00792" lon="-2.6596">
        <ele>45</ele>
        <time>2022-05-21T04:50:32Z</time>
      </trkpt>
      <trkpt lat="48.00738" lon="-2.65951">
        <ele>45</ele>
        <time>2022-05-21T04:50:42Z</time>
      </trkpt>
      <trkpt lat="48.00646" lon="-2.65927">
        <ele>46</ele>
        <time>2022-05-21T04:50:59Z</time>
      </trkpt>
      <trkpt lat="48.00605" lon="-2.6592">
        <ele>47</ele>
        <time>2022-05-21T04:51:06Z</time>
      </trkpt>
      <trkpt lat="48.00584" lon="-2.65914">
        <ele>47</ele>
        <time>2022-05-21T04:51:10Z</time>
      </trkpt>
      <trkpt lat="48.00572" lon="-2.6591">
        <ele>47</ele>
        <time>2022-05-21T04:51:12Z</time>
      </trkpt>
      <trkpt lat="48.00552" lon="-2.65895">
        <ele>47</ele>
        <time>2022-05-21T04:51:16Z</time>
      </trkpt>
      <trkpt lat="48.00543" lon="-2.65885">
        <ele>47</ele>
        <time>2022-05-21T04:51:18Z</time>
      </trkpt>
      <trkpt lat="48.00533" lon="-2.6586">
        <ele>48</ele>
        <time>2022-05-21T04:51:22Z</time>
      </trkpt>
      <trkpt lat="48.00519" lon="-2.65841">
        <ele>48</ele>
        <time>2022-05-21T04:51:25Z</time>
      </trkpt>
      <trkpt lat="48.00506" lon="-2.65817">
        <ele>48</ele>
        <time>2022-05-21T04:51:29Z</time>
      </trkpt>
      <trkpt lat="48.00501" lon="-2.65801">
        <ele>48</ele>
        <time>2022-05-21T04:51:31Z</time>
      </trkpt>
      <trkpt lat="48.00484" lon="-2.6574">
        <ele>47</ele>
        <time>2022-05-21T04:51:39Z</time>
      </trkpt>
      <trkpt lat="48.00472" lon="-2.65674">
        <ele>45</ele>
        <time>2022-05-21T04:51:47Z</time>
      </trkpt>
      <trkpt lat="48.00471" lon="-2.65645">
        <ele>45</ele>
        <time>2022-05-21T04:51:50Z</time>
      </trkpt>
      <trkpt lat="48.00406" lon="-2.65432">
        <ele>46</ele>
        <time>2022-05-21T04:52:18Z</time>
      </trkpt>
      <trkpt lat="48.00391" lon="-2.65392">
        <ele>46</ele>
        <time>2022-05-21T04:52:23Z</time>
      </trkpt>
      <trkpt lat="48.00329" lon="-2.65247">
        <ele>46</ele>
        <time>2022-05-21T04:52:44Z</time>
      </trkpt>
      <trkpt lat="48.00322" lon="-2.65234">
        <ele>46</ele>
        <time>2022-05-21T04:52:46Z</time>
      </trkpt>
      <trkpt lat="48.00295" lon="-2.65198">
        <ele>46</ele>
        <time>2022-05-21T04:52:52Z</time>
      </trkpt>
      <trkpt lat="48.00274" lon="-2.65181">
        <ele>47</ele>
        <time>2022-05-21T04:52:57Z</time>
      </trkpt>
      <trkpt lat="48.00264" lon="-2.65176">
        <ele>47</ele>
        <time>2022-05-21T04:52:58Z</time>
      </trkpt>
      <trkpt lat="48.00228" lon="-2.65166">
        <ele>47</ele>
        <time>2022-05-21T04:53:05Z</time>
      </trkpt>
      <trkpt lat="48.00204" lon="-2.65167">
        <ele>47</ele>
        <time>2022-05-21T04:53:09Z</time>
      </trkpt>
      <trkpt lat="48.00142" lon="-2.6519">
        <ele>47</ele>
        <time>2022-05-21T04:53:21Z</time>
      </trkpt>
      <trkpt lat="47.99983" lon="-2.65262">
        <ele>46</ele>
        <time>2022-05-21T04:53:50Z</time>
      </trkpt>
      <trkpt lat="47.99924" lon="-2.65286">
        <ele>46</ele>
        <time>2022-05-21T04:54:01Z</time>
      </trkpt>
      <trkpt lat="47.99915" lon="-2.65292">
        <ele>46</ele>
        <time>2022-05-21T04:54:03Z</time>
      </trkpt>
      <trkpt lat="47.99896" lon="-2.653">
        <ele>46</ele>
        <time>2022-05-21T04:54:06Z</time>
      </trkpt>
      <trkpt lat="47.99886" lon="-2.65301">
        <ele>46</ele>
        <time>2022-05-21T04:54:08Z</time>
      </trkpt>
      <trkpt lat="47.99858" lon="-2.65313">
        <ele>46</ele>
        <time>2022-05-21T04:54:13Z</time>
      </trkpt>
      <trkpt lat="47.99678" lon="-2.65398">
        <ele>43</ele>
        <time>2022-05-21T04:54:47Z</time>
      </trkpt>
      <trkpt lat="47.99575" lon="-2.65457">
        <ele>42</ele>
        <time>2022-05-21T04:55:07Z</time>
      </trkpt>
      <trkpt lat="47.99539" lon="-2.65483">
        <ele>44</ele>
        <time>2022-05-21T04:55:14Z</time>
      </trkpt>
      <trkpt lat="47.99483" lon="-2.65538">
        <ele>45</ele>
        <time>2022-05-21T04:55:26Z</time>
      </trkpt>
      <trkpt lat="47.99475" lon="-2.65549">
        <ele>45</ele>
        <time>2022-05-21T04:55:28Z</time>
      </trkpt>
      <trkpt lat="47.99465" lon="-2.65555">
        <ele>44</ele>
        <time>2022-05-21T04:55:29Z</time>
      </trkpt>
      <trkpt lat="47.99455" lon="-2.65565">
        <ele>44</ele>
        <time>2022-05-21T04:55:32Z</time>
      </trkpt>
      <trkpt lat="47.99443" lon="-2.65571">
        <ele>44</ele>
        <time>2022-05-21T04:55:34Z</time>
      </trkpt>
      <trkpt lat="47.99422" lon="-2.65577">
        <ele>44</ele>
        <time>2022-05-21T04:55:38Z</time>
      </trkpt>
      <trkpt lat="47.9938" lon="-2.65575">
        <ele>46</ele>
        <time>2022-05-21T04:55:45Z</time>
      </trkpt>
      <trkpt lat="47.99326" lon="-2.65564">
        <ele>49</ele>
        <time>2022-05-21T04:55:55Z</time>
      </trkpt>
      <trkpt lat="47.99314" lon="-2.65564">
        <ele>50</ele>
        <time>2022-05-21T04:55:57Z</time>
      </trkpt>
      <trkpt lat="47.99272" lon="-2.65552">
        <ele>52</ele>
        <time>2022-05-21T04:56:05Z</time>
      </trkpt>
      <trkpt lat="47.99238" lon="-2.65536">
        <ele>52</ele>
        <time>2022-05-21T04:56:11Z</time>
      </trkpt>
      <trkpt lat="47.99187" lon="-2.65501">
        <ele>48</ele>
        <time>2022-05-21T04:56:21Z</time>
      </trkpt>
      <trkpt lat="47.99179" lon="-2.65493">
        <ele>48</ele>
        <time>2022-05-21T04:56:23Z</time>
      </trkpt>
      <trkpt lat="47.99169" lon="-2.65489">
        <ele>48</ele>
        <time>2022-05-21T04:56:24Z</time>
      </trkpt>
      <trkpt lat="47.99081" lon="-2.65418">
        <ele>47</ele>
        <time>2022-05-21T04:56:42Z</time>
      </trkpt>
      <trkpt lat="47.99014" lon="-2.65356">
        <ele>45</ele>
        <time>2022-05-21T04:56:56Z</time>
      </trkpt>
      <trkpt lat="47.99" lon="-2.65333">
        <ele>45</ele>
        <time>2022-05-21T04:57:00Z</time>
      </trkpt>
      <trkpt lat="47.98971" lon="-2.65265">
        <ele>44</ele>
        <time>2022-05-21T04:57:10Z</time>
      </trkpt>
      <trkpt lat="47.98957" lon="-2.65223">
        <ele>43</ele>
        <time>2022-05-21T04:57:15Z</time>
      </trkpt>
      <trkpt lat="47.98951" lon="-2.65196">
        <ele>43</ele>
        <time>2022-05-21T04:57:19Z</time>
      </trkpt>
      <trkpt lat="47.98938" lon="-2.65167">
        <ele>43</ele>
        <time>2022-05-21T04:57:23Z</time>
      </trkpt>
      <trkpt lat="47.98922" lon="-2.65122">
        <ele>43</ele>
        <time>2022-05-21T04:57:29Z</time>
      </trkpt>
      <trkpt lat="47.98907" lon="-2.65098">
        <ele>43</ele>
        <time>2022-05-21T04:57:33Z</time>
      </trkpt>
      <trkpt lat="47.98898" lon="-2.65089">
        <ele>43</ele>
        <time>2022-05-21T04:57:35Z</time>
      </trkpt>
      <trkpt lat="47.98879" lon="-2.65075">
        <ele>43</ele>
        <time>2022-05-21T04:57:38Z</time>
      </trkpt>
      <trkpt lat="47.98866" lon="-2.65071">
        <ele>43</ele>
        <time>2022-05-21T04:57:41Z</time>
      </trkpt>
      <trkpt lat="47.98843" lon="-2.6507">
        <ele>43</ele>
        <time>2022-05-21T04:57:45Z</time>
      </trkpt>
      <trkpt lat="47.9878" lon="-2.65082">
        <ele>43</ele>
        <time>2022-05-21T04:57:56Z</time>
      </trkpt>
      <trkpt lat="47.98723" lon="-2.65097">
        <ele>44</ele>
        <time>2022-05-21T04:58:06Z</time>
      </trkpt>
      <trkpt lat="47.98691" lon="-2.65094">
        <ele>45</ele>
        <time>2022-05-21T04:58:12Z</time>
      </trkpt>
      <trkpt lat="47.98614" lon="-2.65045">
        <ele>46</ele>
        <time>2022-05-21T04:58:27Z</time>
      </trkpt>
      <trkpt lat="47.98565" lon="-2.65007">
        <ele>47</ele>
        <time>2022-05-21T04:58:37Z</time>
      </trkpt>
      <trkpt lat="47.98535" lon="-2.64969">
        <ele>48</ele>
        <time>2022-05-21T04:58:44Z</time>
      </trkpt>
      <trkpt lat="47.98521" lon="-2.64948">
        <ele>49</ele>
        <time>2022-05-21T04:58:47Z</time>
      </trkpt>
      <trkpt lat="47.98507" lon="-2.64921">
        <ele>49</ele>
        <time>2022-05-21T04:58:51Z</time>
      </trkpt>
      <trkpt lat="47.98488" lon="-2.64896">
        <ele>50</ele>
        <time>2022-05-21T04:58:56Z</time>
      </trkpt>
      <trkpt lat="47.98475" lon="-2.64866">
        <ele>50</ele>
        <time>2022-05-21T04:59:00Z</time>
      </trkpt>
      <trkpt lat="47.98442" lon="-2.64807">
        <ele>48</ele>
        <time>2022-05-21T04:59:09Z</time>
      </trkpt>
      <trkpt lat="47.98418" lon="-2.64757">
        <ele>45</ele>
        <time>2022-05-21T04:59:17Z</time>
      </trkpt>
      <trkpt lat="47.98396" lon="-2.64687">
        <ele>45</ele>
        <time>2022-05-21T04:59:26Z</time>
      </trkpt>
      <trkpt lat="47.98377" lon="-2.64586">
        <ele>46</ele>
        <time>2022-05-21T04:59:38Z</time>
      </trkpt>
      <trkpt lat="47.98374" lon="-2.64554">
        <ele>46</ele>
        <time>2022-05-21T04:59:42Z</time>
      </trkpt>
      <trkpt lat="47.98375" lon="-2.64462">
        <ele>46</ele>
        <time>2022-05-21T04:59:53Z</time>
      </trkpt>
      <trkpt lat="47.98386" lon="-2.64377">
        <ele>45</ele>
        <time>2022-05-21T05:00:03Z</time>
      </trkpt>
      <trkpt lat="47.98393" lon="-2.64349">
        <ele>45</ele>
        <time>2022-05-21T05:00:07Z</time>
      </trkpt>
      <trkpt lat="47.98393" lon="-2.64335">
        <ele>45</ele>
        <time>2022-05-21T05:00:09Z</time>
      </trkpt>
      <trkpt lat="47.98397" lon="-2.6432">
        <ele>44</ele>
        <time>2022-05-21T05:00:11Z</time>
      </trkpt>
      <trkpt lat="47.98397" lon="-2.64304">
        <ele>44</ele>
        <time>2022-05-21T05:00:13Z</time>
      </trkpt>
      <trkpt lat="47.98401" lon="-2.6429">
        <ele>44</ele>
        <time>2022-05-21T05:00:14Z</time>
      </trkpt>
      <trkpt lat="47.98409" lon="-2.64214">
        <ele>44</ele>
        <time>2022-05-21T05:00:24Z</time>
      </trkpt>
      <trkpt lat="47.98407" lon="-2.64182">
        <ele>45</ele>
        <time>2022-05-21T05:00:27Z</time>
      </trkpt>
      <trkpt lat="47.984" lon="-2.64154">
        <ele>45</ele>
        <time>2022-05-21T05:00:31Z</time>
      </trkpt>
      <trkpt lat="47.98365" lon="-2.64079">
        <ele>45</ele>
        <time>2022-05-21T05:00:42Z</time>
      </trkpt>
      <trkpt lat="47.98356" lon="-2.6407">
        <ele>45</ele>
        <time>2022-05-21T05:00:44Z</time>
      </trkpt>
      <trkpt lat="47.9833" lon="-2.64013">
        <ele>46</ele>
        <time>2022-05-21T05:00:52Z</time>
      </trkpt>
      <trkpt lat="47.98065" lon="-2.63526">
        <ele>44</ele>
        <time>2022-05-21T05:02:07Z</time>
      </trkpt>
      <trkpt lat="47.97989" lon="-2.63373">
        <ele>45</ele>
        <time>2022-05-21T05:02:29Z</time>
      </trkpt>
      <trkpt lat="47.97985" lon="-2.63359">
        <ele>44</ele>
        <time>2022-05-21T05:02:31Z</time>
      </trkpt>
      <trkpt lat="47.97817" lon="-2.63046">
        <ele>45</ele>
        <time>2022-05-21T05:03:19Z</time>
      </trkpt>
      <trkpt lat="47.97812" lon="-2.63032">
        <ele>45</ele>
        <time>2022-05-21T05:03:21Z</time>
      </trkpt>
      <trkpt lat="47.97703" lon="-2.62843">
        <ele>45</ele>
        <time>2022-05-21T05:03:51Z</time>
      </trkpt>
      <trkpt lat="47.97651" lon="-2.62737">
        <ele>42</ele>
        <time>2022-05-21T05:04:06Z</time>
      </trkpt>
      <trkpt lat="47.97636" lon="-2.62711">
        <ele>42</ele>
        <time>2022-05-21T05:04:10Z</time>
      </trkpt>
      <trkpt lat="47.97626" lon="-2.62703">
        <ele>42</ele>
        <time>2022-05-21T05:04:12Z</time>
      </trkpt>
      <trkpt lat="47.97618" lon="-2.62678">
        <ele>42</ele>
        <time>2022-05-21T05:04:16Z</time>
      </trkpt>
      <trkpt lat="47.97606" lon="-2.62652">
        <ele>41</ele>
        <time>2022-05-21T05:04:19Z</time>
      </trkpt>
      <trkpt lat="47.97527" lon="-2.62508">
        <ele>40</ele>
        <time>2022-05-21T05:04:42Z</time>
      </trkpt>
      <trkpt lat="47.97498" lon="-2.62465">
        <ele>40</ele>
        <time>2022-05-21T05:04:49Z</time>
      </trkpt>
      <trkpt lat="47.97472" lon="-2.62443">
        <ele>39</ele>
        <time>2022-05-21T05:04:54Z</time>
      </trkpt>
      <trkpt lat="47.97454" lon="-2.62433">
        <ele>39</ele>
        <time>2022-05-21T05:04:58Z</time>
      </trkpt>
      <trkpt lat="47.9736" lon="-2.62397">
        <ele>40</ele>
        <time>2022-05-21T05:05:15Z</time>
      </trkpt>
      <trkpt lat="47.9729" lon="-2.62376">
        <ele>41</ele>
        <time>2022-05-21T05:05:28Z</time>
      </trkpt>
      <trkpt lat="47.97282" lon="-2.62371">
        <ele>41</ele>
        <time>2022-05-21T05:05:29Z</time>
      </trkpt>
      <trkpt lat="47.97082" lon="-2.62305">
        <ele>41</ele>
        <time>2022-05-21T05:06:06Z</time>
      </trkpt>
      <trkpt lat="47.97048" lon="-2.62291">
        <ele>40</ele>
        <time>2022-05-21T05:06:12Z</time>
      </trkpt>
      <trkpt lat="47.96996" lon="-2.62259">
        <ele>39</ele>
        <time>2022-05-21T05:06:22Z</time>
      </trkpt>
      <trkpt lat="47.96962" lon="-2.62233">
        <ele>38</ele>
        <time>2022-05-21T05:06:29Z</time>
      </trkpt>
      <trkpt lat="47.96866" lon="-2.6215">
        <ele>39</ele>
        <time>2022-05-21T05:06:48Z</time>
      </trkpt>
      <trkpt lat="47.96838" lon="-2.62118">
        <ele>40</ele>
        <time>2022-05-21T05:06:55Z</time>
      </trkpt>
      <trkpt lat="47.96819" lon="-2.62103">
        <ele>40</ele>
        <time>2022-05-21T05:06:58Z</time>
      </trkpt>
      <trkpt lat="47.9674" lon="-2.62074">
        <ele>41</ele>
        <time>2022-05-21T05:07:13Z</time>
      </trkpt>
      <trkpt lat="47.96642" lon="-2.6203">
        <ele>38</ele>
        <time>2022-05-21T05:07:31Z</time>
      </trkpt>
      <trkpt lat="47.96623" lon="-2.62023">
        <ele>38</ele>
        <time>2022-05-21T05:07:35Z</time>
      </trkpt>
      <trkpt lat="47.96613" lon="-2.62023">
        <ele>38</ele>
        <time>2022-05-21T05:07:36Z</time>
      </trkpt>
      <trkpt lat="47.96606" lon="-2.62014">
        <ele>38</ele>
        <time>2022-05-21T05:07:38Z</time>
      </trkpt>
      <trkpt lat="47.96604" lon="-2.62">
        <ele>38</ele>
        <time>2022-05-21T05:07:40Z</time>
      </trkpt>
      <trkpt lat="47.96607" lon="-2.61941">
        <ele>39</ele>
        <time>2022-05-21T05:07:47Z</time>
      </trkpt>
      <trkpt lat="47.96601" lon="-2.61927">
        <ele>40</ele>
        <time>2022-05-21T05:07:49Z</time>
      </trkpt>
      <trkpt lat="47.96593" lon="-2.61919">
        <ele>40</ele>
        <time>2022-05-21T05:07:50Z</time>
      </trkpt>
      <trkpt lat="47.96591" lon="-2.61905">
        <ele>40</ele>
        <time>2022-05-21T05:07:52Z</time>
      </trkpt>
      <trkpt lat="47.96585" lon="-2.61893">
        <ele>40</ele>
        <time>2022-05-21T05:07:54Z</time>
      </trkpt>
      <trkpt lat="47.96593" lon="-2.61904">
        <ele>40</ele>
        <time>2022-05-21T05:07:56Z</time>
      </trkpt>
      <trkpt lat="47.9659" lon="-2.61919">
        <ele>40</ele>
        <time>2022-05-21T05:07:58Z</time>
      </trkpt>
      <trkpt lat="47.96583" lon="-2.61929">
        <ele>40</ele>
        <time>2022-05-21T05:07:59Z</time>
      </trkpt>
      <trkpt lat="47.96574" lon="-2.61936">
        <ele>39</ele>
        <time>2022-05-21T05:08:01Z</time>
      </trkpt>
      <trkpt lat="47.96555" lon="-2.61943">
        <ele>39</ele>
        <time>2022-05-21T05:08:05Z</time>
      </trkpt>
      <trkpt lat="47.96546" lon="-2.61939">
        <ele>39</ele>
        <time>2022-05-21T05:08:06Z</time>
      </trkpt>
      <trkpt lat="47.96536" lon="-2.61938">
        <ele>39</ele>
        <time>2022-05-21T05:08:08Z</time>
      </trkpt>
      <trkpt lat="47.96485" lon="-2.61956">
        <ele>39</ele>
        <time>2022-05-21T05:08:18Z</time>
      </trkpt>
      <trkpt lat="47.96435" lon="-2.61991">
        <ele>39</ele>
        <time>2022-05-21T05:08:27Z</time>
      </trkpt>
      <trkpt lat="47.96426" lon="-2.61994">
        <ele>39</ele>
        <time>2022-05-21T05:08:29Z</time>
      </trkpt>
      <trkpt lat="47.96346" lon="-2.62051">
        <ele>37</ele>
        <time>2022-05-21T05:08:45Z</time>
      </trkpt>
      <trkpt lat="47.96295" lon="-2.62098">
        <ele>37</ele>
        <time>2022-05-21T05:08:55Z</time>
      </trkpt>
      <trkpt lat="47.96197" lon="-2.62216">
        <ele>38</ele>
        <time>2022-05-21T05:09:18Z</time>
      </trkpt>
      <trkpt lat="47.96168" lon="-2.62243">
        <ele>39</ele>
        <time>2022-05-21T05:09:24Z</time>
      </trkpt>
      <trkpt lat="47.96133" lon="-2.62265">
        <ele>40</ele>
        <time>2022-05-21T05:09:31Z</time>
      </trkpt>
      <trkpt lat="47.96111" lon="-2.62273">
        <ele>40</ele>
        <time>2022-05-21T05:09:35Z</time>
      </trkpt>
      <trkpt lat="47.96075" lon="-2.62279">
        <ele>41</ele>
        <time>2022-05-21T05:09:41Z</time>
      </trkpt>
      <trkpt lat="47.96019" lon="-2.62275">
        <ele>42</ele>
        <time>2022-05-21T05:09:51Z</time>
      </trkpt>
      <trkpt lat="47.96" lon="-2.62271">
        <ele>42</ele>
        <time>2022-05-21T05:09:55Z</time>
      </trkpt>
      <trkpt lat="47.95977" lon="-2.62254">
        <ele>42</ele>
        <time>2022-05-21T05:09:59Z</time>
      </trkpt>
      <trkpt lat="47.95961" lon="-2.62236">
        <ele>42</ele>
        <time>2022-05-21T05:10:03Z</time>
      </trkpt>
      <trkpt lat="47.95925" lon="-2.62176">
        <ele>39</ele>
        <time>2022-05-21T05:10:12Z</time>
      </trkpt>
      <trkpt lat="47.95897" lon="-2.62116">
        <ele>38</ele>
        <time>2022-05-21T05:10:21Z</time>
      </trkpt>
      <trkpt lat="47.95871" lon="-2.62035">
        <ele>38</ele>
        <time>2022-05-21T05:10:32Z</time>
      </trkpt>
      <trkpt lat="47.95835" lon="-2.61911">
        <ele>41</ele>
        <time>2022-05-21T05:10:48Z</time>
      </trkpt>
      <trkpt lat="47.95826" lon="-2.61867">
        <ele>41</ele>
        <time>2022-05-21T05:10:53Z</time>
      </trkpt>
      <trkpt lat="47.95808" lon="-2.61811">
        <ele>41</ele>
        <time>2022-05-21T05:11:01Z</time>
      </trkpt>
      <trkpt lat="47.95797" lon="-2.6174">
        <ele>41</ele>
        <time>2022-05-21T05:11:09Z</time>
      </trkpt>
      <trkpt lat="47.95799" lon="-2.61681">
        <ele>40</ele>
        <time>2022-05-21T05:11:16Z</time>
      </trkpt>
      <trkpt lat="47.95812" lon="-2.61503">
        <ele>38</ele>
        <time>2022-05-21T05:11:38Z</time>
      </trkpt>
      <trkpt lat="47.95813" lon="-2.61443">
        <ele>38</ele>
        <time>2022-05-21T05:11:45Z</time>
      </trkpt>
      <trkpt lat="47.95796" lon="-2.61244">
        <ele>39</ele>
        <time>2022-05-21T05:12:09Z</time>
      </trkpt>
      <trkpt lat="47.95795" lon="-2.6118">
        <ele>40</ele>
        <time>2022-05-21T05:12:16Z</time>
      </trkpt>
      <trkpt lat="47.95797" lon="-2.61148">
        <ele>39</ele>
        <time>2022-05-21T05:12:20Z</time>
      </trkpt>
      <trkpt lat="47.95811" lon="-2.61042">
        <ele>38</ele>
        <time>2022-05-21T05:12:33Z</time>
      </trkpt>
      <trkpt lat="47.95841" lon="-2.6085">
        <ele>37</ele>
        <time>2022-05-21T05:12:57Z</time>
      </trkpt>
      <trkpt lat="47.95855" lon="-2.60804">
        <ele>37</ele>
        <time>2022-05-21T05:13:03Z</time>
      </trkpt>
      <trkpt lat="47.95861" lon="-2.60791">
        <ele>37</ele>
        <time>2022-05-21T05:13:05Z</time>
      </trkpt>
      <trkpt lat="47.95884" lon="-2.60759">
        <ele>37</ele>
        <time>2022-05-21T05:13:10Z</time>
      </trkpt>
      <trkpt lat="47.95903" lon="-2.60743">
        <ele>37</ele>
        <time>2022-05-21T05:13:14Z</time>
      </trkpt>
      <trkpt lat="47.96006" lon="-2.60682">
        <ele>37</ele>
        <time>2022-05-21T05:13:34Z</time>
      </trkpt>
      <trkpt lat="47.96086" lon="-2.60616">
        <ele>36</ele>
        <time>2022-05-21T05:13:50Z</time>
      </trkpt>
      <trkpt lat="47.9613" lon="-2.60574">
        <ele>36</ele>
        <time>2022-05-21T05:13:59Z</time>
      </trkpt>
      <trkpt lat="47.96146" lon="-2.6055">
        <ele>36</ele>
        <time>2022-05-21T05:14:03Z</time>
      </trkpt>
      <trkpt lat="47.96161" lon="-2.60503">
        <ele>36</ele>
        <time>2022-05-21T05:14:10Z</time>
      </trkpt>
      <trkpt lat="47.96159" lon="-2.60439">
        <ele>36</ele>
        <time>2022-05-21T05:14:17Z</time>
      </trkpt>
      <trkpt lat="47.96151" lon="-2.60364">
        <ele>36</ele>
        <time>2022-05-21T05:14:26Z</time>
      </trkpt>
      <trkpt lat="47.96132" lon="-2.60268">
        <ele>37</ele>
        <time>2022-05-21T05:14:38Z</time>
      </trkpt>
      <trkpt lat="47.96115" lon="-2.60144">
        <ele>37</ele>
        <time>2022-05-21T05:14:53Z</time>
      </trkpt>
      <trkpt lat="47.96062" lon="-2.59907">
        <ele>35</ele>
        <time>2022-05-21T05:15:23Z</time>
      </trkpt>
      <trkpt lat="47.96056" lon="-2.59814">
        <ele>35</ele>
        <time>2022-05-21T05:15:34Z</time>
      </trkpt>
      <trkpt lat="47.96061" lon="-2.59721">
        <ele>35</ele>
        <time>2022-05-21T05:15:45Z</time>
      </trkpt>
      <trkpt lat="47.96061" lon="-2.59662">
        <ele>36</ele>
        <time>2022-05-21T05:15:52Z</time>
      </trkpt>
      <trkpt lat="47.9605" lon="-2.59602">
        <ele>36</ele>
        <time>2022-05-21T05:16:00Z</time>
      </trkpt>
      <trkpt lat="47.9602" lon="-2.59479">
        <ele>36</ele>
        <time>2022-05-21T05:16:15Z</time>
      </trkpt>
      <trkpt lat="47.96013" lon="-2.59423">
        <ele>35</ele>
        <time>2022-05-21T05:16:22Z</time>
      </trkpt>
      <trkpt lat="47.96015" lon="-2.59403">
        <ele>36</ele>
        <time>2022-05-21T05:16:24Z</time>
      </trkpt>
      <trkpt lat="47.96014" lon="-2.59305">
        <ele>36</ele>
        <time>2022-05-21T05:16:36Z</time>
      </trkpt>
      <trkpt lat="47.96017" lon="-2.59134">
        <ele>34</ele>
        <time>2022-05-21T05:16:57Z</time>
      </trkpt>
      <trkpt lat="47.9601" lon="-2.591">
        <ele>34</ele>
        <time>2022-05-21T05:17:01Z</time>
      </trkpt>
      <trkpt lat="47.95993" lon="-2.5906">
        <ele>34</ele>
        <time>2022-05-21T05:17:06Z</time>
      </trkpt>
      <trkpt lat="47.9593" lon="-2.58953">
        <ele>33</ele>
        <time>2022-05-21T05:17:23Z</time>
      </trkpt>
      <trkpt lat="47.95918" lon="-2.58926">
        <ele>33</ele>
        <time>2022-05-21T05:17:27Z</time>
      </trkpt>
      <trkpt lat="47.9591" lon="-2.58914">
        <ele>33</ele>
        <time>2022-05-21T05:17:29Z</time>
      </trkpt>
      <trkpt lat="47.95895" lon="-2.58828">
        <ele>34</ele>
        <time>2022-05-21T05:17:40Z</time>
      </trkpt>
      <trkpt lat="47.95878" lon="-2.58769">
        <ele>37</ele>
        <time>2022-05-21T05:17:47Z</time>
      </trkpt>
      <trkpt lat="47.95872" lon="-2.58757">
        <ele>38</ele>
        <time>2022-05-21T05:17:49Z</time>
      </trkpt>
      <trkpt lat="47.95859" lon="-2.58713">
        <ele>38</ele>
        <time>2022-05-21T05:17:55Z</time>
      </trkpt>
      <trkpt lat="47.95809" lon="-2.58571">
        <ele>39</ele>
        <time>2022-05-21T05:18:14Z</time>
      </trkpt>
      <trkpt lat="47.95777" lon="-2.58497">
        <ele>37</ele>
        <time>2022-05-21T05:18:25Z</time>
      </trkpt>
      <trkpt lat="47.95756" lon="-2.58456">
        <ele>37</ele>
        <time>2022-05-21T05:18:31Z</time>
      </trkpt>
      <trkpt lat="47.95643" lon="-2.58274">
        <ele>35</ele>
        <time>2022-05-21T05:19:00Z</time>
      </trkpt>
      <trkpt lat="47.95619" lon="-2.58229">
        <ele>36</ele>
        <time>2022-05-21T05:19:07Z</time>
      </trkpt>
      <trkpt lat="47.95579" lon="-2.58171">
        <ele>37</ele>
        <time>2022-05-21T05:19:17Z</time>
      </trkpt>
      <trkpt lat="47.95571" lon="-2.58155">
        <ele>37</ele>
        <time>2022-05-21T05:19:19Z</time>
      </trkpt>
      <trkpt lat="47.95547" lon="-2.5812">
        <ele>37</ele>
        <time>2022-05-21T05:19:25Z</time>
      </trkpt>
      <trkpt lat="47.95486" lon="-2.58019">
        <ele>37</ele>
        <time>2022-05-21T05:19:42Z</time>
      </trkpt>
      <trkpt lat="47.95426" lon="-2.57927">
        <ele>35</ele>
        <time>2022-05-21T05:19:57Z</time>
      </trkpt>
      <trkpt lat="47.95395" lon="-2.57863">
        <ele>34</ele>
        <time>2022-05-21T05:20:06Z</time>
      </trkpt>
      <trkpt lat="47.95368" lon="-2.57752">
        <ele>34</ele>
        <time>2022-05-21T05:20:20Z</time>
      </trkpt>
      <trkpt lat="47.95325" lon="-2.57543">
        <ele>34</ele>
        <time>2022-05-21T05:20:47Z</time>
      </trkpt>
      <trkpt lat="47.95332" lon="-2.57532">
        <ele>34</ele>
        <time>2022-05-21T05:20:48Z</time>
      </trkpt>
      <trkpt lat="47.95343" lon="-2.57532">
        <ele>34</ele>
        <time>2022-05-21T05:20:50Z</time>
      </trkpt>
      <trkpt lat="47.95346" lon="-2.57517">
        <ele>34</ele>
        <time>2022-05-21T05:20:52Z</time>
      </trkpt>
      <trkpt lat="47.95343" lon="-2.575">
        <ele>33</ele>
        <time>2022-05-21T05:20:54Z</time>
      </trkpt>
      <trkpt lat="47.95333" lon="-2.57478">
        <ele>33</ele>
        <time>2022-05-21T05:20:57Z</time>
      </trkpt>
      <trkpt lat="47.95324" lon="-2.57476">
        <ele>33</ele>
        <time>2022-05-21T05:20:59Z</time>
      </trkpt>
      <trkpt lat="47.95315" lon="-2.57481">
        <ele>33</ele>
        <time>2022-05-21T05:21:01Z</time>
      </trkpt>
      <trkpt lat="47.95306" lon="-2.57449">
        <ele>33</ele>
        <time>2022-05-21T05:21:05Z</time>
      </trkpt>
      <trkpt lat="47.95302" lon="-2.57415">
        <ele>33</ele>
        <time>2022-05-21T05:21:09Z</time>
      </trkpt>
      <trkpt lat="47.95303" lon="-2.57385">
        <ele>34</ele>
        <time>2022-05-21T05:21:13Z</time>
      </trkpt>
      <trkpt lat="47.95321" lon="-2.57308">
        <ele>35</ele>
        <time>2022-05-21T05:21:22Z</time>
      </trkpt>
      <trkpt lat="47.95329" lon="-2.57262">
        <ele>36</ele>
        <time>2022-05-21T05:21:28Z</time>
      </trkpt>
      <trkpt lat="47.95338" lon="-2.57113">
        <ele>33</ele>
        <time>2022-05-21T05:21:46Z</time>
      </trkpt>
      <trkpt lat="47.95346" lon="-2.57049">
        <ele>34</ele>
        <time>2022-05-21T05:21:54Z</time>
      </trkpt>
      <trkpt lat="47.95354" lon="-2.57018">
        <ele>34</ele>
        <time>2022-05-21T05:21:57Z</time>
      </trkpt>
      <trkpt lat="47.95364" lon="-2.56962">
        <ele>34</ele>
        <time>2022-05-21T05:22:04Z</time>
      </trkpt>
      <trkpt lat="47.95371" lon="-2.56909">
        <ele>33</ele>
        <time>2022-05-21T05:22:11Z</time>
      </trkpt>
      <trkpt lat="47.95376" lon="-2.56704">
        <ele>35</ele>
        <time>2022-05-21T05:22:35Z</time>
      </trkpt>
      <trkpt lat="47.95382" lon="-2.56656">
        <ele>35</ele>
        <time>2022-05-21T05:22:41Z</time>
      </trkpt>
      <trkpt lat="47.95405" lon="-2.56568">
        <ele>33</ele>
        <time>2022-05-21T05:22:52Z</time>
      </trkpt>
      <trkpt lat="47.95399" lon="-2.56549">
        <ele>34</ele>
        <time>2022-05-21T05:22:55Z</time>
      </trkpt>
      <trkpt lat="47.95401" lon="-2.56536">
        <ele>34</ele>
        <time>2022-05-21T05:22:56Z</time>
      </trkpt>
      <trkpt lat="47.95391" lon="-2.5651">
        <ele>34</ele>
        <time>2022-05-21T05:23:00Z</time>
      </trkpt>
      <trkpt lat="47.95407" lon="-2.56533">
        <ele>34</ele>
        <time>2022-05-21T05:23:04Z</time>
      </trkpt>
      <trkpt lat="47.95408" lon="-2.565">
        <ele>35</ele>
        <time>2022-05-21T05:23:08Z</time>
      </trkpt>
      <trkpt lat="47.95403" lon="-2.56445">
        <ele>36</ele>
        <time>2022-05-21T05:23:15Z</time>
      </trkpt>
      <trkpt lat="47.95389" lon="-2.56369">
        <ele>37</ele>
        <time>2022-05-21T05:23:24Z</time>
      </trkpt>
      <trkpt lat="47.95386" lon="-2.56337">
        <ele>37</ele>
        <time>2022-05-21T05:23:28Z</time>
      </trkpt>
      <trkpt lat="47.95371" lon="-2.56254">
        <ele>33</ele>
        <time>2022-05-21T05:23:38Z</time>
      </trkpt>
      <trkpt lat="47.95357" lon="-2.56194">
        <ele>34</ele>
        <time>2022-05-21T05:23:46Z</time>
      </trkpt>
      <trkpt lat="47.95333" lon="-2.56139">
        <ele>34</ele>
        <time>2022-05-21T05:23:53Z</time>
      </trkpt>
      <trkpt lat="47.95323" lon="-2.5611">
        <ele>34</ele>
        <time>2022-05-21T05:23:57Z</time>
      </trkpt>
      <trkpt lat="47.95311" lon="-2.56089">
        <ele>34</ele>
        <time>2022-05-21T05:24:01Z</time>
      </trkpt>
      <trkpt lat="47.95302" lon="-2.56075">
        <ele>34</ele>
        <time>2022-05-21T05:24:03Z</time>
      </trkpt>
      <trkpt lat="47.95274" lon="-2.56047">
        <ele>34</ele>
        <time>2022-05-21T05:24:09Z</time>
      </trkpt>
      <trkpt lat="47.95252" lon="-2.56017">
        <ele>35</ele>
        <time>2022-05-21T05:24:14Z</time>
      </trkpt>
      <trkpt lat="47.95235" lon="-2.55999">
        <ele>35</ele>
        <time>2022-05-21T05:24:18Z</time>
      </trkpt>
      <trkpt lat="47.95229" lon="-2.55984">
        <ele>34</ele>
        <time>2022-05-21T05:24:20Z</time>
      </trkpt>
      <trkpt lat="47.95222" lon="-2.55956">
        <ele>34</ele>
        <time>2022-05-21T05:24:24Z</time>
      </trkpt>
      <trkpt lat="47.9518" lon="-2.55695">
        <ele>33</ele>
        <time>2022-05-21T05:24:56Z</time>
      </trkpt>
      <trkpt lat="47.95179" lon="-2.55663">
        <ele>34</ele>
        <time>2022-05-21T05:24:59Z</time>
      </trkpt>
      <trkpt lat="47.95184" lon="-2.55646">
        <ele>35</ele>
        <time>2022-05-21T05:25:02Z</time>
      </trkpt>
      <trkpt lat="47.95221" lon="-2.55571">
        <ele>35</ele>
        <time>2022-05-21T05:25:13Z</time>
      </trkpt>
      <trkpt lat="47.95244" lon="-2.55487">
        <ele>32</ele>
        <time>2022-05-21T05:25:23Z</time>
      </trkpt>
      <trkpt lat="47.95272" lon="-2.55344">
        <ele>36</ele>
        <time>2022-05-21T05:25:41Z</time>
      </trkpt>
      <trkpt lat="47.95285" lon="-2.55208">
        <ele>37</ele>
        <time>2022-05-21T05:25:58Z</time>
      </trkpt>
      <trkpt lat="47.95286" lon="-2.55103">
        <ele>36</ele>
        <time>2022-05-21T05:26:10Z</time>
      </trkpt>
      <trkpt lat="47.95272" lon="-2.54908">
        <ele>39</ele>
        <time>2022-05-21T05:26:33Z</time>
      </trkpt>
      <trkpt lat="47.95252" lon="-2.5481">
        <ele>44</ele>
        <time>2022-05-21T05:26:46Z</time>
      </trkpt>
      <trkpt lat="47.95245" lon="-2.54797">
        <ele>44</ele>
        <time>2022-05-21T05:26:48Z</time>
      </trkpt>
      <trkpt lat="47.95226" lon="-2.54774">
        <ele>45</ele>
        <time>2022-05-21T05:26:52Z</time>
      </trkpt>
      <trkpt lat="47.95194" lon="-2.54723">
        <ele>44</ele>
        <time>2022-05-21T05:27:00Z</time>
      </trkpt>
      <trkpt lat="47.9514" lon="-2.54648">
        <ele>38</ele>
        <time>2022-05-21T05:27:13Z</time>
      </trkpt>
      <trkpt lat="47.95121" lon="-2.54608">
        <ele>37</ele>
        <time>2022-05-21T05:27:19Z</time>
      </trkpt>
      <trkpt lat="47.95063" lon="-2.54536">
        <ele>37</ele>
        <time>2022-05-21T05:27:33Z</time>
      </trkpt>
      <trkpt lat="47.95059" lon="-2.54524">
        <ele>37</ele>
        <time>2022-05-21T05:27:34Z</time>
      </trkpt>
      <trkpt lat="47.95065" lon="-2.54511">
        <ele>39</ele>
        <time>2022-05-21T05:27:36Z</time>
      </trkpt>
      <trkpt lat="47.95057" lon="-2.54523">
        <ele>37</ele>
        <time>2022-05-21T05:27:38Z</time>
      </trkpt>
      <trkpt lat="47.95047" lon="-2.54524">
        <ele>37</ele>
        <time>2022-05-21T05:27:40Z</time>
      </trkpt>
      <trkpt lat="47.95038" lon="-2.54518">
        <ele>36</ele>
        <time>2022-05-21T05:27:42Z</time>
      </trkpt>
      <trkpt lat="47.95007" lon="-2.54476">
        <ele>36</ele>
        <time>2022-05-21T05:27:49Z</time>
      </trkpt>
      <trkpt lat="47.94975" lon="-2.54443">
        <ele>38</ele>
        <time>2022-05-21T05:27:56Z</time>
      </trkpt>
      <trkpt lat="47.94967" lon="-2.54429">
        <ele>39</ele>
        <time>2022-05-21T05:27:58Z</time>
      </trkpt>
      <trkpt lat="47.94913" lon="-2.54373">
        <ele>38</ele>
        <time>2022-05-21T05:28:10Z</time>
      </trkpt>
      <trkpt lat="47.94903" lon="-2.54368">
        <ele>38</ele>
        <time>2022-05-21T05:28:12Z</time>
      </trkpt>
      <trkpt lat="47.94894" lon="-2.5436">
        <ele>38</ele>
        <time>2022-05-21T05:28:14Z</time>
      </trkpt>
      <trkpt lat="47.94882" lon="-2.54355">
        <ele>38</ele>
        <time>2022-05-21T05:28:16Z</time>
      </trkpt>
      <trkpt lat="47.94863" lon="-2.5434">
        <ele>37</ele>
        <time>2022-05-21T05:28:20Z</time>
      </trkpt>
      <trkpt lat="47.94851" lon="-2.54338">
        <ele>37</ele>
        <time>2022-05-21T05:28:22Z</time>
      </trkpt>
      <trkpt lat="47.94843" lon="-2.54329">
        <ele>36</ele>
        <time>2022-05-21T05:28:24Z</time>
      </trkpt>
      <trkpt lat="47.94821" lon="-2.54314">
        <ele>37</ele>
        <time>2022-05-21T05:28:28Z</time>
      </trkpt>
      <trkpt lat="47.94811" lon="-2.54304">
        <ele>38</ele>
        <time>2022-05-21T05:28:30Z</time>
      </trkpt>
      <trkpt lat="47.9474" lon="-2.54253">
        <ele>35</ele>
        <time>2022-05-21T05:28:44Z</time>
      </trkpt>
      <trkpt lat="47.94701" lon="-2.54222">
        <ele>38</ele>
        <time>2022-05-21T05:28:52Z</time>
      </trkpt>
      <trkpt lat="47.94657" lon="-2.54192">
        <ele>36</ele>
        <time>2022-05-21T05:29:01Z</time>
      </trkpt>
      <trkpt lat="47.94642" lon="-2.54176">
        <ele>35</ele>
        <time>2022-05-21T05:29:04Z</time>
      </trkpt>
      <trkpt lat="47.94629" lon="-2.54171">
        <ele>36</ele>
        <time>2022-05-21T05:29:06Z</time>
      </trkpt>
      <trkpt lat="47.94638" lon="-2.54165">
        <ele>34</ele>
        <time>2022-05-21T05:29:08Z</time>
      </trkpt>
      <trkpt lat="47.94623" lon="-2.54157">
        <ele>36</ele>
        <time>2022-05-21T05:29:11Z</time>
      </trkpt>
      <trkpt lat="47.94603" lon="-2.54139">
        <ele>36</ele>
        <time>2022-05-21T05:29:15Z</time>
      </trkpt>
      <trkpt lat="47.94583" lon="-2.5413">
        <ele>36</ele>
        <time>2022-05-21T05:29:19Z</time>
      </trkpt>
      <trkpt lat="47.94575" lon="-2.54124">
        <ele>36</ele>
        <time>2022-05-21T05:29:20Z</time>
      </trkpt>
      <trkpt lat="47.94546" lon="-2.54098">
        <ele>34</ele>
        <time>2022-05-21T05:29:26Z</time>
      </trkpt>
      <trkpt lat="47.94528" lon="-2.54077">
        <ele>33</ele>
        <time>2022-05-21T05:29:30Z</time>
      </trkpt>
      <trkpt lat="47.94517" lon="-2.54069">
        <ele>34</ele>
        <time>2022-05-21T05:29:33Z</time>
      </trkpt>
      <trkpt lat="47.94482" lon="-2.54051">
        <ele>34</ele>
        <time>2022-05-21T05:29:39Z</time>
      </trkpt>
      <trkpt lat="47.94406" lon="-2.54006">
        <ele>32</ele>
        <time>2022-05-21T05:29:54Z</time>
      </trkpt>
      <trkpt lat="47.9433" lon="-2.5398">
        <ele>32</ele>
        <time>2022-05-21T05:30:08Z</time>
      </trkpt>
      <trkpt lat="47.9424" lon="-2.53954">
        <ele>30</ele>
        <time>2022-05-21T05:30:24Z</time>
      </trkpt>
      <trkpt lat="47.94198" lon="-2.53938">
        <ele>31</ele>
        <time>2022-05-21T05:30:32Z</time>
      </trkpt>
      <trkpt lat="47.94097" lon="-2.53884">
        <ele>29</ele>
        <time>2022-05-21T05:30:51Z</time>
      </trkpt>
      <trkpt lat="47.94018" lon="-2.53845">
        <ele>30</ele>
        <time>2022-05-21T05:31:06Z</time>
      </trkpt>
      <trkpt lat="47.93963" lon="-2.53833">
        <ele>29</ele>
        <time>2022-05-21T05:31:15Z</time>
      </trkpt>
      <trkpt lat="47.9393" lon="-2.53832">
        <ele>28</ele>
        <time>2022-05-21T05:31:21Z</time>
      </trkpt>
      <trkpt lat="47.93879" lon="-2.53823">
        <ele>29</ele>
        <time>2022-05-21T05:31:30Z</time>
      </trkpt>
      <trkpt lat="47.9386" lon="-2.53813">
        <ele>30</ele>
        <time>2022-05-21T05:31:34Z</time>
      </trkpt>
      <trkpt lat="47.9383" lon="-2.53792">
        <ele>31</ele>
        <time>2022-05-21T05:31:40Z</time>
      </trkpt>
      <trkpt lat="47.93749" lon="-2.53711">
        <ele>33</ele>
        <time>2022-05-21T05:31:57Z</time>
      </trkpt>
      <trkpt lat="47.93701" lon="-2.53659">
        <ele>31</ele>
        <time>2022-05-21T05:32:08Z</time>
      </trkpt>
      <trkpt lat="47.93577" lon="-2.53535">
        <ele>29</ele>
        <time>2022-05-21T05:32:34Z</time>
      </trkpt>
      <trkpt lat="47.93559" lon="-2.5352">
        <ele>29</ele>
        <time>2022-05-21T05:32:38Z</time>
      </trkpt>
      <trkpt lat="47.9355" lon="-2.53508">
        <ele>28</ele>
        <time>2022-05-21T05:32:40Z</time>
      </trkpt>
      <trkpt lat="47.93534" lon="-2.53483">
        <ele>28</ele>
        <time>2022-05-21T05:32:44Z</time>
      </trkpt>
      <trkpt lat="47.9352" lon="-2.53415">
        <ele>29</ele>
        <time>2022-05-21T05:32:53Z</time>
      </trkpt>
      <trkpt lat="47.93505" lon="-2.53362">
        <ele>29</ele>
        <time>2022-05-21T05:33:00Z</time>
      </trkpt>
      <trkpt lat="47.93481" lon="-2.53293">
        <ele>29</ele>
        <time>2022-05-21T05:33:09Z</time>
      </trkpt>
      <trkpt lat="47.93467" lon="-2.53269">
        <ele>29</ele>
        <time>2022-05-21T05:33:13Z</time>
      </trkpt>
      <trkpt lat="47.93451" lon="-2.53249">
        <ele>30</ele>
        <time>2022-05-21T05:33:16Z</time>
      </trkpt>
      <trkpt lat="47.93407" lon="-2.53205">
        <ele>31</ele>
        <time>2022-05-21T05:33:26Z</time>
      </trkpt>
      <trkpt lat="47.93388" lon="-2.5319">
        <ele>31</ele>
        <time>2022-05-21T05:33:30Z</time>
      </trkpt>
      <trkpt lat="47.93364" lon="-2.53161">
        <ele>32</ele>
        <time>2022-05-21T05:33:35Z</time>
      </trkpt>
      <trkpt lat="47.93343" lon="-2.53118">
        <ele>31</ele>
        <time>2022-05-21T05:33:42Z</time>
      </trkpt>
      <trkpt lat="47.93275" lon="-2.52952">
        <ele>28</ele>
        <time>2022-05-21T05:34:05Z</time>
      </trkpt>
      <trkpt lat="47.93262" lon="-2.52926">
        <ele>27</ele>
        <time>2022-05-21T05:34:09Z</time>
      </trkpt>
      <trkpt lat="47.93239" lon="-2.52889">
        <ele>27</ele>
        <time>2022-05-21T05:34:15Z</time>
      </trkpt>
      <trkpt lat="47.93206" lon="-2.52856">
        <ele>28</ele>
        <time>2022-05-21T05:34:22Z</time>
      </trkpt>
      <trkpt lat="47.93172" lon="-2.52833">
        <ele>29</ele>
        <time>2022-05-21T05:34:28Z</time>
      </trkpt>
      <trkpt lat="47.93145" lon="-2.5281">
        <ele>32</ele>
        <time>2022-05-21T05:34:34Z</time>
      </trkpt>
      <trkpt lat="47.93121" lon="-2.5278">
        <ele>34</ele>
        <time>2022-05-21T05:34:39Z</time>
      </trkpt>
      <trkpt lat="47.93111" lon="-2.5275">
        <ele>35</ele>
        <time>2022-05-21T05:34:43Z</time>
      </trkpt>
      <trkpt lat="47.93103" lon="-2.52703">
        <ele>34</ele>
        <time>2022-05-21T05:34:49Z</time>
      </trkpt>
      <trkpt lat="47.93101" lon="-2.52671">
        <ele>34</ele>
        <time>2022-05-21T05:34:53Z</time>
      </trkpt>
      <trkpt lat="47.93102" lon="-2.52609">
        <ele>34</ele>
        <time>2022-05-21T05:35:00Z</time>
      </trkpt>
      <trkpt lat="47.93105" lon="-2.52574">
        <ele>34</ele>
        <time>2022-05-21T05:35:05Z</time>
      </trkpt>
      <trkpt lat="47.93114" lon="-2.52516">
        <ele>35</ele>
        <time>2022-05-21T05:35:12Z</time>
      </trkpt>
      <trkpt lat="47.93117" lon="-2.52453">
        <ele>34</ele>
        <time>2022-05-21T05:35:19Z</time>
      </trkpt>
      <trkpt lat="47.931" lon="-2.52212">
        <ele>29</ele>
        <time>2022-05-21T05:35:48Z</time>
      </trkpt>
      <trkpt lat="47.93104" lon="-2.52145">
        <ele>28</ele>
        <time>2022-05-21T05:35:56Z</time>
      </trkpt>
      <trkpt lat="47.93126" lon="-2.51951">
        <ele>29</ele>
        <time>2022-05-21T05:36:20Z</time>
      </trkpt>
      <trkpt lat="47.93128" lon="-2.51909">
        <ele>29</ele>
        <time>2022-05-21T05:36:25Z</time>
      </trkpt>
      <trkpt lat="47.93122" lon="-2.5185">
        <ele>29</ele>
        <time>2022-05-21T05:36:32Z</time>
      </trkpt>
      <trkpt lat="47.93103" lon="-2.51746">
        <ele>28</ele>
        <time>2022-05-21T05:36:45Z</time>
      </trkpt>
      <trkpt lat="47.93087" lon="-2.5164">
        <ele>30</ele>
        <time>2022-05-21T05:36:58Z</time>
      </trkpt>
      <trkpt lat="47.93076" lon="-2.51593">
        <ele>30</ele>
        <time>2022-05-21T05:37:04Z</time>
      </trkpt>
      <trkpt lat="47.93043" lon="-2.5151">
        <ele>30</ele>
        <time>2022-05-21T05:37:15Z</time>
      </trkpt>
      <trkpt lat="47.93016" lon="-2.5146">
        <ele>29</ele>
        <time>2022-05-21T05:37:23Z</time>
      </trkpt>
      <trkpt lat="47.92993" lon="-2.51426">
        <ele>28</ele>
        <time>2022-05-21T05:37:28Z</time>
      </trkpt>
      <trkpt lat="47.92922" lon="-2.51298">
        <ele>26</ele>
        <time>2022-05-21T05:37:48Z</time>
      </trkpt>
      <trkpt lat="47.92894" lon="-2.51262">
        <ele>26</ele>
        <time>2022-05-21T05:37:55Z</time>
      </trkpt>
      <trkpt lat="47.92889" lon="-2.51234">
        <ele>27</ele>
        <time>2022-05-21T05:37:58Z</time>
      </trkpt>
      <trkpt lat="47.92844" lon="-2.51145">
        <ele>27</ele>
        <time>2022-05-21T05:38:12Z</time>
      </trkpt>
      <trkpt lat="47.92818" lon="-2.51081">
        <ele>26</ele>
        <time>2022-05-21T05:38:21Z</time>
      </trkpt>
      <trkpt lat="47.92768" lon="-2.50891">
        <ele>27</ele>
        <time>2022-05-21T05:38:45Z</time>
      </trkpt>
      <trkpt lat="47.92754" lon="-2.50807">
        <ele>27</ele>
        <time>2022-05-21T05:38:55Z</time>
      </trkpt>
      <trkpt lat="47.92749" lon="-2.50715">
        <ele>27</ele>
        <time>2022-05-21T05:39:06Z</time>
      </trkpt>
      <trkpt lat="47.92741" lon="-2.50671">
        <ele>26</ele>
        <time>2022-05-21T05:39:12Z</time>
      </trkpt>
      <trkpt lat="47.92719" lon="-2.50608">
        <ele>26</ele>
        <time>2022-05-21T05:39:20Z</time>
      </trkpt>
      <trkpt lat="47.927" lon="-2.50569">
        <ele>26</ele>
        <time>2022-05-21T05:39:26Z</time>
      </trkpt>
      <trkpt lat="47.9267" lon="-2.50523">
        <ele>26</ele>
        <time>2022-05-21T05:39:33Z</time>
      </trkpt>
      <trkpt lat="47.92621" lon="-2.5046">
        <ele>28</ele>
        <time>2022-05-21T05:39:45Z</time>
      </trkpt>
      <trkpt lat="47.92605" lon="-2.50436">
        <ele>29</ele>
        <time>2022-05-21T05:39:49Z</time>
      </trkpt>
      <trkpt lat="47.92559" lon="-2.50355">
        <ele>29</ele>
        <time>2022-05-21T05:40:02Z</time>
      </trkpt>
      <trkpt lat="47.9251" lon="-2.50286">
        <ele>29</ele>
        <time>2022-05-21T05:40:14Z</time>
      </trkpt>
      <trkpt lat="47.92471" lon="-2.50238">
        <ele>30</ele>
        <time>2022-05-21T05:40:23Z</time>
      </trkpt>
      <trkpt lat="47.92395" lon="-2.50164">
        <ele>29</ele>
        <time>2022-05-21T05:40:39Z</time>
      </trkpt>
      <trkpt lat="47.92368" lon="-2.50144">
        <ele>30</ele>
        <time>2022-05-21T05:40:44Z</time>
      </trkpt>
      <trkpt lat="47.92345" lon="-2.50132">
        <ele>29</ele>
        <time>2022-05-21T05:40:49Z</time>
      </trkpt>
      <trkpt lat="47.92305" lon="-2.50105">
        <ele>30</ele>
        <time>2022-05-21T05:40:56Z</time>
      </trkpt>
      <trkpt lat="47.92296" lon="-2.50095">
        <ele>31</ele>
        <time>2022-05-21T05:40:58Z</time>
      </trkpt>
      <trkpt lat="47.92282" lon="-2.50072">
        <ele>31</ele>
        <time>2022-05-21T05:41:02Z</time>
      </trkpt>
      <trkpt lat="47.92273" lon="-2.50043">
        <ele>31</ele>
        <time>2022-05-21T05:41:06Z</time>
      </trkpt>
      <trkpt lat="47.92267" lon="-2.50007">
        <ele>30</ele>
        <time>2022-05-21T05:41:10Z</time>
      </trkpt>
      <trkpt lat="47.92267" lon="-2.49967">
        <ele>31</ele>
        <time>2022-05-21T05:41:15Z</time>
      </trkpt>
      <trkpt lat="47.92275" lon="-2.4993">
        <ele>31</ele>
        <time>2022-05-21T05:41:20Z</time>
      </trkpt>
      <trkpt lat="47.9229" lon="-2.49883">
        <ele>30</ele>
        <time>2022-05-21T05:41:26Z</time>
      </trkpt>
      <trkpt lat="47.92301" lon="-2.49857">
        <ele>30</ele>
        <time>2022-05-21T05:41:30Z</time>
      </trkpt>
      <trkpt lat="47.92316" lon="-2.49833">
        <ele>28</ele>
        <time>2022-05-21T05:41:33Z</time>
      </trkpt>
      <trkpt lat="47.92348" lon="-2.49799">
        <ele>27</ele>
        <time>2022-05-21T05:41:40Z</time>
      </trkpt>
      <trkpt lat="47.92355" lon="-2.49785">
        <ele>27</ele>
        <time>2022-05-21T05:41:43Z</time>
      </trkpt>
      <trkpt lat="47.9237" lon="-2.49736">
        <ele>27</ele>
        <time>2022-05-21T05:41:49Z</time>
      </trkpt>
      <trkpt lat="47.92373" lon="-2.4972">
        <ele>27</ele>
        <time>2022-05-21T05:41:51Z</time>
      </trkpt>
      <trkpt lat="47.92373" lon="-2.49694">
        <ele>27</ele>
        <time>2022-05-21T05:41:54Z</time>
      </trkpt>
      <trkpt lat="47.92375" lon="-2.49707">
        <ele>27</ele>
        <time>2022-05-21T05:41:56Z</time>
      </trkpt>
      <trkpt lat="47.92378" lon="-2.4969">
        <ele>28</ele>
        <time>2022-05-21T05:41:58Z</time>
      </trkpt>
      <trkpt lat="47.92376" lon="-2.49706">
        <ele>28</ele>
        <time>2022-05-21T05:42:00Z</time>
      </trkpt>
      <trkpt lat="47.9236" lon="-2.49765">
        <ele>27</ele>
        <time>2022-05-21T05:42:07Z</time>
      </trkpt>
      <trkpt lat="47.92362" lon="-2.4978">
        <ele>27</ele>
        <time>2022-05-21T05:42:09Z</time>
      </trkpt>
      <trkpt lat="47.92369" lon="-2.4979">
        <ele>27</ele>
        <time>2022-05-21T05:42:11Z</time>
      </trkpt>
      <trkpt lat="47.92379" lon="-2.49798">
        <ele>28</ele>
        <time>2022-05-21T05:42:13Z</time>
      </trkpt>
      <trkpt lat="47.9241" lon="-2.49797">
        <ele>28</ele>
        <time>2022-05-21T05:42:18Z</time>
      </trkpt>
      <trkpt lat="47.92495" lon="-2.49786">
        <ele>30</ele>
        <time>2022-05-21T05:42:34Z</time>
      </trkpt>
      <trkpt lat="47.92503" lon="-2.49778">
        <ele>30</ele>
        <time>2022-05-21T05:42:35Z</time>
      </trkpt>
      <trkpt lat="47.92515" lon="-2.49756">
        <ele>31</ele>
        <time>2022-05-21T05:42:39Z</time>
      </trkpt>
      <trkpt lat="47.92524" lon="-2.49732">
        <ele>33</ele>
        <time>2022-05-21T05:42:42Z</time>
      </trkpt>
      <trkpt lat="47.92543" lon="-2.49697">
        <ele>37</ele>
        <time>2022-05-21T05:42:47Z</time>
      </trkpt>
      <trkpt lat="47.92545" lon="-2.49683">
        <ele>38</ele>
        <time>2022-05-21T05:42:49Z</time>
      </trkpt>
      <trkpt lat="47.92539" lon="-2.49655">
        <ele>38</ele>
        <time>2022-05-21T05:42:52Z</time>
      </trkpt>
      <trkpt lat="47.92533" lon="-2.49596">
        <ele>41</ele>
        <time>2022-05-21T05:43:00Z</time>
      </trkpt>
      <trkpt lat="47.92525" lon="-2.4955">
        <ele>42</ele>
        <time>2022-05-21T05:43:05Z</time>
      </trkpt>
      <trkpt lat="47.92486" lon="-2.49426">
        <ele>43</ele>
        <time>2022-05-21T05:43:22Z</time>
      </trkpt>
      <trkpt lat="47.92422" lon="-2.49235">
        <ele>48</ele>
        <time>2022-05-21T05:43:47Z</time>
      </trkpt>
      <trkpt lat="47.92412" lon="-2.49211">
        <ele>48</ele>
        <time>2022-05-21T05:43:50Z</time>
      </trkpt>
      <trkpt lat="47.92398" lon="-2.49164">
        <ele>47</ele>
        <time>2022-05-21T05:43:57Z</time>
      </trkpt>
      <trkpt lat="47.92386" lon="-2.49139">
        <ele>47</ele>
        <time>2022-05-21T05:44:00Z</time>
      </trkpt>
      <trkpt lat="47.92333" lon="-2.49049">
        <ele>47</ele>
        <time>2022-05-21T05:44:14Z</time>
      </trkpt>
      <trkpt lat="47.92312" lon="-2.49006">
        <ele>46</ele>
        <time>2022-05-21T05:44:21Z</time>
      </trkpt>
      <trkpt lat="47.92287" lon="-2.48944">
        <ele>48</ele>
        <time>2022-05-21T05:44:29Z</time>
      </trkpt>
      <trkpt lat="47.9226" lon="-2.48862">
        <ele>51</ele>
        <time>2022-05-21T05:44:40Z</time>
      </trkpt>
      <trkpt lat="47.92248" lon="-2.48807">
        <ele>54</ele>
        <time>2022-05-21T05:44:47Z</time>
      </trkpt>
      <trkpt lat="47.92248" lon="-2.48793">
        <ele>55</ele>
        <time>2022-05-21T05:44:49Z</time>
      </trkpt>
      <trkpt lat="47.92239" lon="-2.48751">
        <ele>59</ele>
        <time>2022-05-21T05:44:54Z</time>
      </trkpt>
      <trkpt lat="47.92217" lon="-2.48684">
        <ele>60</ele>
        <time>2022-05-21T05:45:03Z</time>
      </trkpt>
      <trkpt lat="47.92208" lon="-2.48645">
        <ele>60</ele>
        <time>2022-05-21T05:45:08Z</time>
      </trkpt>
      <trkpt lat="47.92207" lon="-2.4857">
        <ele>61</ele>
        <time>2022-05-21T05:45:17Z</time>
      </trkpt>
      <trkpt lat="47.92203" lon="-2.48527">
        <ele>62</ele>
        <time>2022-05-21T05:45:22Z</time>
      </trkpt>
      <trkpt lat="47.92204" lon="-2.48513">
        <ele>63</ele>
        <time>2022-05-21T05:45:24Z</time>
      </trkpt>
      <trkpt lat="47.922" lon="-2.48483">
        <ele>63</ele>
        <time>2022-05-21T05:45:27Z</time>
      </trkpt>
      <trkpt lat="47.92201" lon="-2.48467">
        <ele>64</ele>
        <time>2022-05-21T05:45:29Z</time>
      </trkpt>
      <trkpt lat="47.92196" lon="-2.48424">
        <ele>65</ele>
        <time>2022-05-21T05:45:35Z</time>
      </trkpt>
      <trkpt lat="47.92197" lon="-2.48378">
        <ele>65</ele>
        <time>2022-05-21T05:45:40Z</time>
      </trkpt>
      <trkpt lat="47.92185" lon="-2.48218">
        <ele>67</ele>
        <time>2022-05-21T05:45:59Z</time>
      </trkpt>
      <trkpt lat="47.92186" lon="-2.4819">
        <ele>68</ele>
        <time>2022-05-21T05:46:03Z</time>
      </trkpt>
      <trkpt lat="47.92182" lon="-2.48149">
        <ele>69</ele>
        <time>2022-05-21T05:46:08Z</time>
      </trkpt>
      <trkpt lat="47.92176" lon="-2.48121">
        <ele>70</ele>
        <time>2022-05-21T05:46:11Z</time>
      </trkpt>
      <trkpt lat="47.9216" lon="-2.48066">
        <ele>71</ele>
        <time>2022-05-21T05:46:18Z</time>
      </trkpt>
      <trkpt lat="47.92145" lon="-2.48029">
        <ele>73</ele>
        <time>2022-05-21T05:46:23Z</time>
      </trkpt>
      <trkpt lat="47.92125" lon="-2.47996">
        <ele>75</ele>
        <time>2022-05-21T05:46:29Z</time>
      </trkpt>
      <trkpt lat="47.92052" lon="-2.47903">
        <ele>84</ele>
        <time>2022-05-21T05:46:46Z</time>
      </trkpt>
      <trkpt lat="47.92043" lon="-2.47895">
        <ele>84</ele>
        <time>2022-05-21T05:46:48Z</time>
      </trkpt>
      <trkpt lat="47.91978" lon="-2.47801">
        <ele>87</ele>
        <time>2022-05-21T05:47:04Z</time>
      </trkpt>
      <trkpt lat="47.91969" lon="-2.47791">
        <ele>88</ele>
        <time>2022-05-21T05:47:06Z</time>
      </trkpt>
      <trkpt lat="47.91963" lon="-2.47778">
        <ele>88</ele>
        <time>2022-05-21T05:47:08Z</time>
      </trkpt>
      <trkpt lat="47.91946" lon="-2.47759">
        <ele>90</ele>
        <time>2022-05-21T05:47:11Z</time>
      </trkpt>
      <trkpt lat="47.91922" lon="-2.47725">
        <ele>90</ele>
        <time>2022-05-21T05:47:17Z</time>
      </trkpt>
      <trkpt lat="47.91911" lon="-2.47702">
        <ele>90</ele>
        <time>2022-05-21T05:47:21Z</time>
      </trkpt>
      <trkpt lat="47.91902" lon="-2.47671">
        <ele>89</ele>
        <time>2022-05-21T05:47:25Z</time>
      </trkpt>
      <trkpt lat="47.91882" lon="-2.47632">
        <ele>88</ele>
        <time>2022-05-21T05:47:30Z</time>
      </trkpt>
      <trkpt lat="47.91877" lon="-2.47617">
        <ele>88</ele>
        <time>2022-05-21T05:47:32Z</time>
      </trkpt>
      <trkpt lat="47.91842" lon="-2.47543">
        <ele>87</ele>
        <time>2022-05-21T05:47:43Z</time>
      </trkpt>
      <trkpt lat="47.91821" lon="-2.47488">
        <ele>88</ele>
        <time>2022-05-21T05:47:51Z</time>
      </trkpt>
      <trkpt lat="47.91813" lon="-2.47457">
        <ele>89</ele>
        <time>2022-05-21T05:47:55Z</time>
      </trkpt>
      <trkpt lat="47.91796" lon="-2.47408">
        <ele>89</ele>
        <time>2022-05-21T05:48:01Z</time>
      </trkpt>
      <trkpt lat="47.91759" lon="-2.47324">
        <ele>87</ele>
        <time>2022-05-21T05:48:13Z</time>
      </trkpt>
      <trkpt lat="47.91689" lon="-2.47144">
        <ele>91</ele>
        <time>2022-05-21T05:48:38Z</time>
      </trkpt>
      <trkpt lat="47.91673" lon="-2.47108">
        <ele>90</ele>
        <time>2022-05-21T05:48:43Z</time>
      </trkpt>
      <trkpt lat="47.91644" lon="-2.47002">
        <ele>88</ele>
        <time>2022-05-21T05:48:57Z</time>
      </trkpt>
      <trkpt lat="47.91627" lon="-2.46864">
        <ele>86</ele>
        <time>2022-05-21T05:49:14Z</time>
      </trkpt>
      <trkpt lat="47.91624" lon="-2.46849">
        <ele>86</ele>
        <time>2022-05-21T05:49:16Z</time>
      </trkpt>
      <trkpt lat="47.91618" lon="-2.46839">
        <ele>86</ele>
        <time>2022-05-21T05:49:17Z</time>
      </trkpt>
      <trkpt lat="47.91618" lon="-2.46833">
        <ele>86</ele>
        <time>2022-05-21T05:49:18Z</time>
      </trkpt>
      <trkpt lat="47.91626" lon="-2.46824">
        <ele>85</ele>
        <time>2022-05-21T05:49:20Z</time>
      </trkpt>
      <trkpt lat="47.91631" lon="-2.46813">
        <ele>85</ele>
        <time>2022-05-21T05:49:21Z</time>
      </trkpt>
      <trkpt lat="47.9164" lon="-2.46783">
        <ele>85</ele>
        <time>2022-05-21T05:49:25Z</time>
      </trkpt>
      <trkpt lat="47.91647" lon="-2.46747">
        <ele>85</ele>
        <time>2022-05-21T05:49:30Z</time>
      </trkpt>
      <trkpt lat="47.91646" lon="-2.46703">
        <ele>84</ele>
        <time>2022-05-21T05:49:35Z</time>
      </trkpt>
      <trkpt lat="47.91633" lon="-2.46622">
        <ele>82</ele>
        <time>2022-05-21T05:49:45Z</time>
      </trkpt>
      <trkpt lat="47.91616" lon="-2.46544">
        <ele>81</ele>
        <time>2022-05-21T05:49:55Z</time>
      </trkpt>
      <trkpt lat="47.91598" lon="-2.46421">
        <ele>79</ele>
        <time>2022-05-21T05:50:10Z</time>
      </trkpt>
      <trkpt lat="47.91578" lon="-2.46338">
        <ele>80</ele>
        <time>2022-05-21T05:50:20Z</time>
      </trkpt>
      <trkpt lat="47.91558" lon="-2.46295">
        <ele>79</ele>
        <time>2022-05-21T05:50:26Z</time>
      </trkpt>
      <trkpt lat="47.91543" lon="-2.4627">
        <ele>78</ele>
        <time>2022-05-21T05:50:30Z</time>
      </trkpt>
      <trkpt lat="47.91329" lon="-2.45955">
        <ele>75</ele>
        <time>2022-05-21T05:51:24Z</time>
      </trkpt>
      <trkpt lat="47.91268" lon="-2.45863">
        <ele>74</ele>
        <time>2022-05-21T05:51:39Z</time>
      </trkpt>
      <trkpt lat="47.91254" lon="-2.45835">
        <ele>74</ele>
        <time>2022-05-21T05:51:43Z</time>
      </trkpt>
      <trkpt lat="47.91236" lon="-2.45811">
        <ele>73</ele>
        <time>2022-05-21T05:51:48Z</time>
      </trkpt>
      <trkpt lat="47.91215" lon="-2.45772">
        <ele>73</ele>
        <time>2022-05-21T05:51:54Z</time>
      </trkpt>
      <trkpt lat="47.91133" lon="-2.45595">
        <ele>68</ele>
        <time>2022-05-21T05:52:19Z</time>
      </trkpt>
      <trkpt lat="47.91129" lon="-2.45573">
        <ele>68</ele>
        <time>2022-05-21T05:52:22Z</time>
      </trkpt>
      <trkpt lat="47.91129" lon="-2.45553">
        <ele>68</ele>
        <time>2022-05-21T05:52:25Z</time>
      </trkpt>
      <trkpt lat="47.91135" lon="-2.45523">
        <ele>68</ele>
        <time>2022-05-21T05:52:28Z</time>
      </trkpt>
      <trkpt lat="47.91156" lon="-2.45372">
        <ele>69</ele>
        <time>2022-05-21T05:52:47Z</time>
      </trkpt>
      <trkpt lat="47.91216" lon="-2.45006">
        <ele>59</ele>
        <time>2022-05-21T05:53:32Z</time>
      </trkpt>
      <trkpt lat="47.91245" lon="-2.44813">
        <ele>43</ele>
        <time>2022-05-21T05:53:55Z</time>
      </trkpt>
      <trkpt lat="47.91247" lon="-2.44781">
        <ele>43</ele>
        <time>2022-05-21T05:53:59Z</time>
      </trkpt>
      <trkpt lat="47.91254" lon="-2.44737">
        <ele>42</ele>
        <time>2022-05-21T05:54:04Z</time>
      </trkpt>
      <trkpt lat="47.91266" lon="-2.44697">
        <ele>42</ele>
        <time>2022-05-21T05:54:10Z</time>
      </trkpt>
      <trkpt lat="47.91302" lon="-2.44618">
        <ele>39</ele>
        <time>2022-05-21T05:54:21Z</time>
      </trkpt>
      <trkpt lat="47.91353" lon="-2.44533">
        <ele>37</ele>
        <time>2022-05-21T05:54:35Z</time>
      </trkpt>
      <trkpt lat="47.91372" lon="-2.44498">
        <ele>36</ele>
        <time>2022-05-21T05:54:40Z</time>
      </trkpt>
      <trkpt lat="47.91395" lon="-2.44447">
        <ele>35</ele>
        <time>2022-05-21T05:54:47Z</time>
      </trkpt>
      <trkpt lat="47.91412" lon="-2.44381">
        <ele>34</ele>
        <time>2022-05-21T05:54:56Z</time>
      </trkpt>
      <trkpt lat="47.91439" lon="-2.44213">
        <ele>35</ele>
        <time>2022-05-21T05:55:16Z</time>
      </trkpt>
      <trkpt lat="47.91462" lon="-2.44064">
        <ele>36</ele>
        <time>2022-05-21T05:55:35Z</time>
      </trkpt>
      <trkpt lat="47.91476" lon="-2.43951">
        <ele>36</ele>
        <time>2022-05-21T05:55:48Z</time>
      </trkpt>
      <trkpt lat="47.91476" lon="-2.43921">
        <ele>36</ele>
        <time>2022-05-21T05:55:52Z</time>
      </trkpt>
      <trkpt lat="47.9147" lon="-2.43841">
        <ele>35</ele>
        <time>2022-05-21T05:56:01Z</time>
      </trkpt>
      <trkpt lat="47.91472" lon="-2.43826">
        <ele>35</ele>
        <time>2022-05-21T05:56:03Z</time>
      </trkpt>
      <trkpt lat="47.91468" lon="-2.43796">
        <ele>35</ele>
        <time>2022-05-21T05:56:07Z</time>
      </trkpt>
      <trkpt lat="47.91465" lon="-2.43735">
        <ele>36</ele>
        <time>2022-05-21T05:56:14Z</time>
      </trkpt>
      <trkpt lat="47.91466" lon="-2.43566">
        <ele>33</ele>
        <time>2022-05-21T05:56:34Z</time>
      </trkpt>
      <trkpt lat="47.9146" lon="-2.43487">
        <ele>29</ele>
        <time>2022-05-21T05:56:44Z</time>
      </trkpt>
      <trkpt lat="47.91463" lon="-2.43474">
        <ele>28</ele>
        <time>2022-05-21T05:56:46Z</time>
      </trkpt>
      <trkpt lat="47.91493" lon="-2.43476">
        <ele>29</ele>
        <time>2022-05-21T05:56:51Z</time>
      </trkpt>
      <trkpt lat="47.91528" lon="-2.43474">
        <ele>29</ele>
        <time>2022-05-21T05:56:57Z</time>
      </trkpt>
      <trkpt lat="47.91538" lon="-2.4347">
        <ele>30</ele>
        <time>2022-05-21T05:56:59Z</time>
      </trkpt>
      <trkpt lat="47.91548" lon="-2.43462">
        <ele>29</ele>
        <time>2022-05-21T05:57:01Z</time>
      </trkpt>
      <trkpt lat="47.91555" lon="-2.4345">
        <ele>29</ele>
        <time>2022-05-21T05:57:03Z</time>
      </trkpt>
      <trkpt lat="47.9156" lon="-2.4342">
        <ele>27</ele>
        <time>2022-05-21T05:57:07Z</time>
      </trkpt>
      <trkpt lat="47.91561" lon="-2.4337">
        <ele>27</ele>
        <time>2022-05-21T05:57:12Z</time>
      </trkpt>
      <trkpt lat="47.91567" lon="-2.43327">
        <ele>26</ele>
        <time>2022-05-21T05:57:18Z</time>
      </trkpt>
      <trkpt lat="47.91578" lon="-2.43305">
        <ele>26</ele>
        <time>2022-05-21T05:57:21Z</time>
      </trkpt>
      <trkpt lat="47.91617" lon="-2.43249">
        <ele>29</ele>
        <time>2022-05-21T05:57:31Z</time>
      </trkpt>
      <trkpt lat="47.9162" lon="-2.43212">
        <ele>30</ele>
        <time>2022-05-21T05:57:35Z</time>
      </trkpt>
      <trkpt lat="47.91606" lon="-2.43145">
        <ele>29</ele>
        <time>2022-05-21T05:57:43Z</time>
      </trkpt>
      <trkpt lat="47.91604" lon="-2.43115">
        <ele>29</ele>
        <time>2022-05-21T05:57:47Z</time>
      </trkpt>
      <trkpt lat="47.91612" lon="-2.43053">
        <ele>31</ele>
        <time>2022-05-21T05:57:55Z</time>
      </trkpt>
      <trkpt lat="47.91615" lon="-2.4304">
        <ele>31</ele>
        <time>2022-05-21T05:57:56Z</time>
      </trkpt>
      <trkpt lat="47.91622" lon="-2.43027">
        <ele>32</ele>
        <time>2022-05-21T05:57:58Z</time>
      </trkpt>
      <trkpt lat="47.91629" lon="-2.43017">
        <ele>32</ele>
        <time>2022-05-21T05:58:00Z</time>
      </trkpt>
      <trkpt lat="47.91649" lon="-2.43007">
        <ele>33</ele>
        <time>2022-05-21T05:58:04Z</time>
      </trkpt>
      <trkpt lat="47.91687" lon="-2.42996">
        <ele>35</ele>
        <time>2022-05-21T05:58:11Z</time>
      </trkpt>
      <trkpt lat="47.91729" lon="-2.42988">
        <ele>39</ele>
        <time>2022-05-21T05:58:18Z</time>
      </trkpt>
      <trkpt lat="47.91777" lon="-2.42968">
        <ele>41</ele>
        <time>2022-05-21T05:58:27Z</time>
      </trkpt>
      <trkpt lat="47.91825" lon="-2.42936">
        <ele>39</ele>
        <time>2022-05-21T05:58:36Z</time>
      </trkpt>
      <trkpt lat="47.91853" lon="-2.4291">
        <ele>38</ele>
        <time>2022-05-21T05:58:42Z</time>
      </trkpt>
      <trkpt lat="47.91883" lon="-2.42868">
        <ele>39</ele>
        <time>2022-05-21T05:58:50Z</time>
      </trkpt>
      <trkpt lat="47.91903" lon="-2.4282">
        <ele>38</ele>
        <time>2022-05-21T05:58:56Z</time>
      </trkpt>
      <trkpt lat="47.91921" lon="-2.42766">
        <ele>41</ele>
        <time>2022-05-21T05:59:03Z</time>
      </trkpt>
      <trkpt lat="47.91937" lon="-2.4273">
        <ele>42</ele>
        <time>2022-05-21T05:59:09Z</time>
      </trkpt>
      <trkpt lat="47.91937" lon="-2.42714">
        <ele>42</ele>
        <time>2022-05-21T05:59:10Z</time>
      </trkpt>
      <trkpt lat="47.91932" lon="-2.42685">
        <ele>41</ele>
        <time>2022-05-21T05:59:14Z</time>
      </trkpt>
      <trkpt lat="47.92" lon="-2.42616">
        <ele>44</ele>
        <time>2022-05-21T05:59:29Z</time>
      </trkpt>
      <trkpt lat="47.92063" lon="-2.42535">
        <ele>49</ele>
        <time>2022-05-21T05:59:43Z</time>
      </trkpt>
      <trkpt lat="47.92151" lon="-2.42383">
        <ele>50</ele>
        <time>2022-05-21T06:00:07Z</time>
      </trkpt>
      <trkpt lat="47.92168" lon="-2.42348">
        <ele>50</ele>
        <time>2022-05-21T06:00:13Z</time>
      </trkpt>
      <trkpt lat="47.92205" lon="-2.42255">
        <ele>52</ele>
        <time>2022-05-21T06:00:25Z</time>
      </trkpt>
      <trkpt lat="47.92238" lon="-2.42148">
        <ele>51</ele>
        <time>2022-05-21T06:00:40Z</time>
      </trkpt>
      <trkpt lat="47.92251" lon="-2.42086">
        <ele>51</ele>
        <time>2022-05-21T06:00:47Z</time>
      </trkpt>
      <trkpt lat="47.92284" lon="-2.41954">
        <ele>52</ele>
        <time>2022-05-21T06:01:04Z</time>
      </trkpt>
      <trkpt lat="47.92302" lon="-2.41867">
        <ele>52</ele>
        <time>2022-05-21T06:01:15Z</time>
      </trkpt>
      <trkpt lat="47.92308" lon="-2.41855">
        <ele>52</ele>
        <time>2022-05-21T06:01:17Z</time>
      </trkpt>
      <trkpt lat="47.9233" lon="-2.41769">
        <ele>54</ele>
        <time>2022-05-21T06:01:28Z</time>
      </trkpt>
      <trkpt lat="47.92345" lon="-2.41694">
        <ele>55</ele>
        <time>2022-05-21T06:01:37Z</time>
      </trkpt>
      <trkpt lat="47.92357" lon="-2.41651">
        <ele>56</ele>
        <time>2022-05-21T06:01:43Z</time>
      </trkpt>
      <trkpt lat="47.92365" lon="-2.41607">
        <ele>57</ele>
        <time>2022-05-21T06:01:48Z</time>
      </trkpt>
      <trkpt lat="47.92384" lon="-2.41534">
        <ele>57</ele>
        <time>2022-05-21T06:01:57Z</time>
      </trkpt>
      <trkpt lat="47.92407" lon="-2.4143">
        <ele>58</ele>
        <time>2022-05-21T06:02:10Z</time>
      </trkpt>
      <trkpt lat="47.92421" lon="-2.41388">
        <ele>60</ele>
        <time>2022-05-21T06:02:16Z</time>
      </trkpt>
      <trkpt lat="47.92427" lon="-2.41358">
        <ele>61</ele>
        <time>2022-05-21T06:02:20Z</time>
      </trkpt>
      <trkpt lat="47.92436" lon="-2.41329">
        <ele>62</ele>
        <time>2022-05-21T06:02:24Z</time>
      </trkpt>
      <trkpt lat="47.92438" lon="-2.41311">
        <ele>62</ele>
        <time>2022-05-21T06:02:26Z</time>
      </trkpt>
      <trkpt lat="47.92455" lon="-2.41237">
        <ele>61</ele>
        <time>2022-05-21T06:02:35Z</time>
      </trkpt>
      <trkpt lat="47.92484" lon="-2.41135">
        <ele>64</ele>
        <time>2022-05-21T06:02:48Z</time>
      </trkpt>
      <trkpt lat="47.92511" lon="-2.41066">
        <ele>67</ele>
        <time>2022-05-21T06:02:58Z</time>
      </trkpt>
      <trkpt lat="47.92521" lon="-2.41059">
        <ele>67</ele>
        <time>2022-05-21T06:03:00Z</time>
      </trkpt>
      <trkpt lat="47.92589" lon="-2.40946">
        <ele>73</ele>
        <time>2022-05-21T06:03:18Z</time>
      </trkpt>
      <trkpt lat="47.92612" lon="-2.40918">
        <ele>74</ele>
        <time>2022-05-21T06:03:23Z</time>
      </trkpt>
      <trkpt lat="47.92638" lon="-2.40894">
        <ele>74</ele>
        <time>2022-05-21T06:03:29Z</time>
      </trkpt>
      <trkpt lat="47.92675" lon="-2.40853">
        <ele>73</ele>
        <time>2022-05-21T06:03:37Z</time>
      </trkpt>
      <trkpt lat="47.92704" lon="-2.40831">
        <ele>72</ele>
        <time>2022-05-21T06:03:43Z</time>
      </trkpt>
      <trkpt lat="47.92725" lon="-2.40811">
        <ele>71</ele>
        <time>2022-05-21T06:03:47Z</time>
      </trkpt>
      <trkpt lat="47.92823" lon="-2.40747">
        <ele>66</ele>
        <time>2022-05-21T06:04:06Z</time>
      </trkpt>
      <trkpt lat="47.92845" lon="-2.40735">
        <ele>66</ele>
        <time>2022-05-21T06:04:10Z</time>
      </trkpt>
      <trkpt lat="47.92866" lon="-2.40718">
        <ele>65</ele>
        <time>2022-05-21T06:04:14Z</time>
      </trkpt>
      <trkpt lat="47.92922" lon="-2.40691">
        <ele>64</ele>
        <time>2022-05-21T06:04:25Z</time>
      </trkpt>
      <trkpt lat="47.92994" lon="-2.40642">
        <ele>61</ele>
        <time>2022-05-21T06:04:39Z</time>
      </trkpt>
      <trkpt lat="47.93023" lon="-2.40625">
        <ele>60</ele>
        <time>2022-05-21T06:04:45Z</time>
      </trkpt>
      <trkpt lat="47.9308" lon="-2.40598">
        <ele>60</ele>
        <time>2022-05-21T06:04:55Z</time>
      </trkpt>
      <trkpt lat="47.93135" lon="-2.40587">
        <ele>59</ele>
        <time>2022-05-21T06:05:05Z</time>
      </trkpt>
      <trkpt lat="47.93176" lon="-2.40586">
        <ele>59</ele>
        <time>2022-05-21T06:05:12Z</time>
      </trkpt>
      <trkpt lat="47.93201" lon="-2.40589">
        <ele>58</ele>
        <time>2022-05-21T06:05:17Z</time>
      </trkpt>
      <trkpt lat="47.93283" lon="-2.40617">
        <ele>57</ele>
        <time>2022-05-21T06:05:32Z</time>
      </trkpt>
      <trkpt lat="47.93306" lon="-2.40621">
        <ele>56</ele>
        <time>2022-05-21T06:05:36Z</time>
      </trkpt>
      <trkpt lat="47.93317" lon="-2.4062">
        <ele>55</ele>
        <time>2022-05-21T06:05:38Z</time>
      </trkpt>
      <trkpt lat="47.93326" lon="-2.40611">
        <ele>55</ele>
        <time>2022-05-21T06:05:40Z</time>
      </trkpt>
      <trkpt lat="47.93324" lon="-2.40592">
        <ele>55</ele>
        <time>2022-05-21T06:05:42Z</time>
      </trkpt>
      <trkpt lat="47.93328" lon="-2.40547">
        <ele>54</ele>
        <time>2022-05-21T06:05:48Z</time>
      </trkpt>
      <trkpt lat="47.93329" lon="-2.40514">
        <ele>53</ele>
        <time>2022-05-21T06:05:51Z</time>
      </trkpt>
      <trkpt lat="47.93327" lon="-2.40497">
        <ele>53</ele>
        <time>2022-05-21T06:05:54Z</time>
      </trkpt>
      <trkpt lat="47.9333" lon="-2.40477">
        <ele>53</ele>
        <time>2022-05-21T06:05:56Z</time>
      </trkpt>
      <trkpt lat="47.93331" lon="-2.40399">
        <ele>55</ele>
        <time>2022-05-21T06:06:05Z</time>
      </trkpt>
      <trkpt lat="47.93329" lon="-2.40381">
        <ele>57</ele>
        <time>2022-05-21T06:06:07Z</time>
      </trkpt>
      <trkpt lat="47.93313" lon="-2.40323">
        <ele>60</ele>
        <time>2022-05-21T06:06:15Z</time>
      </trkpt>
      <trkpt lat="47.93309" lon="-2.40294">
        <ele>60</ele>
        <time>2022-05-21T06:06:18Z</time>
      </trkpt>
      <trkpt lat="47.93298" lon="-2.40252">
        <ele>61</ele>
        <time>2022-05-21T06:06:24Z</time>
      </trkpt>
      <trkpt lat="47.93304" lon="-2.40265">
        <ele>61</ele>
        <time>2022-05-21T06:06:26Z</time>
      </trkpt>
      <trkpt lat="47.93316" lon="-2.40346">
        <ele>59</ele>
        <time>2022-05-21T06:06:36Z</time>
      </trkpt>
      <trkpt lat="47.93329" lon="-2.40403">
        <ele>55</ele>
        <time>2022-05-21T06:06:43Z</time>
      </trkpt>
      <trkpt lat="47.93326" lon="-2.40527">
        <ele>54</ele>
        <time>2022-05-21T06:06:58Z</time>
      </trkpt>
      <trkpt lat="47.93328" lon="-2.4056">
        <ele>54</ele>
        <time>2022-05-21T06:07:02Z</time>
      </trkpt>
      <trkpt lat="47.93339" lon="-2.40588">
        <ele>54</ele>
        <time>2022-05-21T06:07:05Z</time>
      </trkpt>
      <trkpt lat="47.93356" lon="-2.40605">
        <ele>54</ele>
        <time>2022-05-21T06:07:09Z</time>
      </trkpt>
      <trkpt lat="47.93362" lon="-2.40637">
        <ele>55</ele>
        <time>2022-05-21T06:07:13Z</time>
      </trkpt>
      <trkpt lat="47.93375" lon="-2.40661">
        <ele>55</ele>
        <time>2022-05-21T06:07:17Z</time>
      </trkpt>
      <trkpt lat="47.93393" lon="-2.40671">
        <ele>55</ele>
        <time>2022-05-21T06:07:20Z</time>
      </trkpt>
      <trkpt lat="47.93448" lon="-2.40685">
        <ele>55</ele>
        <time>2022-05-21T06:07:30Z</time>
      </trkpt>
      <trkpt lat="47.93471" lon="-2.40697">
        <ele>55</ele>
        <time>2022-05-21T06:07:34Z</time>
      </trkpt>
      <trkpt lat="47.93496" lon="-2.40705">
        <ele>55</ele>
        <time>2022-05-21T06:07:39Z</time>
      </trkpt>
      <trkpt lat="47.93505" lon="-2.40712">
        <ele>55</ele>
        <time>2022-05-21T06:07:41Z</time>
      </trkpt>
      <trkpt lat="47.93515" lon="-2.40712">
        <ele>55</ele>
        <time>2022-05-21T06:07:42Z</time>
      </trkpt>
      <trkpt lat="47.93526" lon="-2.40718">
        <ele>55</ele>
        <time>2022-05-21T06:07:45Z</time>
      </trkpt>
      <trkpt lat="47.93537" lon="-2.4072">
        <ele>55</ele>
        <time>2022-05-21T06:07:47Z</time>
      </trkpt>
      <trkpt lat="47.93557" lon="-2.40731">
        <ele>55</ele>
        <time>2022-05-21T06:07:50Z</time>
      </trkpt>
      <trkpt lat="47.93568" lon="-2.40732">
        <ele>55</ele>
        <time>2022-05-21T06:07:52Z</time>
      </trkpt>
      <trkpt lat="47.93578" lon="-2.40738">
        <ele>55</ele>
        <time>2022-05-21T06:07:54Z</time>
      </trkpt>
      <trkpt lat="47.93642" lon="-2.40752">
        <ele>53</ele>
        <time>2022-05-21T06:08:06Z</time>
      </trkpt>
      <trkpt lat="47.93675" lon="-2.40766">
        <ele>52</ele>
        <time>2022-05-21T06:08:12Z</time>
      </trkpt>
      <trkpt lat="47.93729" lon="-2.40794">
        <ele>52</ele>
        <time>2022-05-21T06:08:22Z</time>
      </trkpt>
      <trkpt lat="47.93752" lon="-2.40809">
        <ele>52</ele>
        <time>2022-05-21T06:08:26Z</time>
      </trkpt>
      <trkpt lat="47.93807" lon="-2.40832">
        <ele>52</ele>
        <time>2022-05-21T06:08:37Z</time>
      </trkpt>
      <trkpt lat="47.93841" lon="-2.40844">
        <ele>52</ele>
        <time>2022-05-21T06:08:43Z</time>
      </trkpt>
      <trkpt lat="47.93865" lon="-2.40843">
        <ele>51</ele>
        <time>2022-05-21T06:08:47Z</time>
      </trkpt>
      <trkpt lat="47.93889" lon="-2.4085">
        <ele>51</ele>
        <time>2022-05-21T06:08:51Z</time>
      </trkpt>
      <trkpt lat="47.9391" lon="-2.4085">
        <ele>50</ele>
        <time>2022-05-21T06:08:55Z</time>
      </trkpt>
      <trkpt lat="47.939" lon="-2.40846">
        <ele>50</ele>
        <time>2022-05-21T06:08:57Z</time>
      </trkpt>
      <trkpt lat="47.93847" lon="-2.40844">
        <ele>52</ele>
        <time>2022-05-21T06:09:06Z</time>
      </trkpt>
      <trkpt lat="47.93806" lon="-2.40832">
        <ele>52</ele>
        <time>2022-05-21T06:09:14Z</time>
      </trkpt>
      <trkpt lat="47.93763" lon="-2.4081">
        <ele>52</ele>
        <time>2022-05-21T06:09:22Z</time>
      </trkpt>
      <trkpt lat="47.93727" lon="-2.40784">
        <ele>51</ele>
        <time>2022-05-21T06:09:29Z</time>
      </trkpt>
      <trkpt lat="47.93681" lon="-2.40734">
        <ele>51</ele>
        <time>2022-05-21T06:09:39Z</time>
      </trkpt>
      <trkpt lat="47.93687" lon="-2.40725">
        <ele>51</ele>
        <time>2022-05-21T06:09:41Z</time>
      </trkpt>
      <trkpt lat="47.93706" lon="-2.40737">
        <ele>50</ele>
        <time>2022-05-21T06:09:44Z</time>
      </trkpt>
      <trkpt lat="47.93738" lon="-2.40752">
        <ele>50</ele>
        <time>2022-05-21T06:09:50Z</time>
      </trkpt>
      <trkpt lat="47.938" lon="-2.4079">
        <ele>49</ele>
        <time>2022-05-21T06:10:02Z</time>
      </trkpt>
      <trkpt lat="47.93827" lon="-2.40797">
        <ele>49</ele>
        <time>2022-05-21T06:10:07Z</time>
      </trkpt>
      <trkpt lat="47.93857" lon="-2.40794">
        <ele>48</ele>
        <time>2022-05-21T06:10:13Z</time>
      </trkpt>
      <trkpt lat="47.93887" lon="-2.40782">
        <ele>46</ele>
        <time>2022-05-21T06:10:18Z</time>
      </trkpt>
      <trkpt lat="47.93895" lon="-2.40769">
        <ele>45</ele>
        <time>2022-05-21T06:10:20Z</time>
      </trkpt>
      <trkpt lat="47.93896" lon="-2.40751">
        <ele>44</ele>
        <time>2022-05-21T06:10:22Z</time>
      </trkpt>
      <trkpt lat="47.93893" lon="-2.40732">
        <ele>43</ele>
        <time>2022-05-21T06:10:25Z</time>
      </trkpt>
      <trkpt lat="47.93888" lon="-2.40718">
        <ele>42</ele>
        <time>2022-05-21T06:10:27Z</time>
      </trkpt>
      <trkpt lat="47.9388" lon="-2.40707">
        <ele>42</ele>
        <time>2022-05-21T06:10:28Z</time>
      </trkpt>
      <trkpt lat="47.93876" lon="-2.40692">
        <ele>41</ele>
        <time>2022-05-21T06:10:30Z</time>
      </trkpt>
      <trkpt lat="47.93884" lon="-2.4066">
        <ele>39</ele>
        <time>2022-05-21T06:10:34Z</time>
      </trkpt>
      <trkpt lat="47.93896" lon="-2.40572">
        <ele>40</ele>
        <time>2022-05-21T06:10:45Z</time>
      </trkpt>
      <trkpt lat="47.9389" lon="-2.40563">
        <ele>40</ele>
        <time>2022-05-21T06:10:47Z</time>
      </trkpt>
      <trkpt lat="47.9388" lon="-2.4056">
        <ele>40</ele>
        <time>2022-05-21T06:10:48Z</time>
      </trkpt>
      <trkpt lat="47.93869" lon="-2.4056">
        <ele>41</ele>
        <time>2022-05-21T06:10:50Z</time>
      </trkpt>
      <trkpt lat="47.9386" lon="-2.40555">
        <ele>41</ele>
        <time>2022-05-21T06:10:52Z</time>
      </trkpt>
      <trkpt lat="47.93859" lon="-2.40541">
        <ele>41</ele>
        <time>2022-05-21T06:10:54Z</time>
      </trkpt>
      <trkpt lat="47.93864" lon="-2.40677">
        <ele>40</ele>
        <time>2022-05-21T06:11:10Z</time>
      </trkpt>
      <trkpt lat="47.93862" lon="-2.40713">
        <ele>42</ele>
        <time>2022-05-21T06:11:14Z</time>
      </trkpt>
      <trkpt lat="47.93871" lon="-2.40719">
        <ele>42</ele>
        <time>2022-05-21T06:11:16Z</time>
      </trkpt>
      <trkpt lat="47.93881" lon="-2.4072">
        <ele>42</ele>
        <time>2022-05-21T06:11:18Z</time>
      </trkpt>
      <trkpt lat="47.93874" lon="-2.40708">
        <ele>42</ele>
        <time>2022-05-21T06:11:20Z</time>
      </trkpt>
      <trkpt lat="47.93878" lon="-2.40694">
        <ele>41</ele>
        <time>2022-05-21T06:11:22Z</time>
      </trkpt>
      <trkpt lat="47.93888" lon="-2.40686">
        <ele>40</ele>
        <time>2022-05-21T06:11:24Z</time>
      </trkpt>
      <trkpt lat="47.93894" lon="-2.40698">
        <ele>41</ele>
        <time>2022-05-21T06:11:25Z</time>
      </trkpt>
      <trkpt lat="47.93896" lon="-2.40728">
        <ele>42</ele>
        <time>2022-05-21T06:11:29Z</time>
      </trkpt>
      <trkpt lat="47.93903" lon="-2.40755">
        <ele>44</ele>
        <time>2022-05-21T06:11:32Z</time>
      </trkpt>
      <trkpt lat="47.93912" lon="-2.40765">
        <ele>44</ele>
        <time>2022-05-21T06:11:34Z</time>
      </trkpt>
      <trkpt lat="47.93918" lon="-2.40779">
        <ele>45</ele>
        <time>2022-05-21T06:11:36Z</time>
      </trkpt>
      <trkpt lat="47.93914" lon="-2.40793">
        <ele>47</ele>
        <time>2022-05-21T06:11:38Z</time>
      </trkpt>
      <trkpt lat="47.93905" lon="-2.40795">
        <ele>47</ele>
        <time>2022-05-21T06:11:40Z</time>
      </trkpt>
      <trkpt lat="47.93897" lon="-2.40782">
        <ele>46</ele>
        <time>2022-05-21T06:11:42Z</time>
      </trkpt>
      <trkpt lat="47.93896" lon="-2.40729">
        <ele>42</ele>
        <time>2022-05-21T06:11:48Z</time>
      </trkpt>
      <trkpt lat="47.93888" lon="-2.40712">
        <ele>42</ele>
        <time>2022-05-21T06:11:51Z</time>
      </trkpt>
      <trkpt lat="47.93872" lon="-2.40692">
        <ele>41</ele>
        <time>2022-05-21T06:11:54Z</time>
      </trkpt>
      <trkpt lat="47.93882" lon="-2.40663">
        <ele>39</ele>
        <time>2022-05-21T06:11:58Z</time>
      </trkpt>
      <trkpt lat="47.93892" lon="-2.40579">
        <ele>40</ele>
        <time>2022-05-21T06:12:09Z</time>
      </trkpt>
      <trkpt lat="47.93908" lon="-2.4051">
        <ele>40</ele>
        <time>2022-05-21T06:12:17Z</time>
      </trkpt>
      <trkpt lat="47.9391" lon="-2.4048">
        <ele>41</ele>
        <time>2022-05-21T06:12:21Z</time>
      </trkpt>
      <trkpt lat="47.93917" lon="-2.40466">
        <ele>41</ele>
        <time>2022-05-21T06:12:23Z</time>
      </trkpt>
      <trkpt lat="47.93914" lon="-2.40433">
        <ele>42</ele>
        <time>2022-05-21T06:12:27Z</time>
      </trkpt>
      <trkpt lat="47.93915" lon="-2.40419">
        <ele>42</ele>
        <time>2022-05-21T06:12:29Z</time>
      </trkpt>
      <trkpt lat="47.93919" lon="-2.40465">
        <ele>41</ele>
        <time>2022-05-21T06:12:34Z</time>
      </trkpt>
      <trkpt lat="47.93937" lon="-2.40485">
        <ele>41</ele>
        <time>2022-05-21T06:12:38Z</time>
      </trkpt>
      <trkpt lat="47.93947" lon="-2.40525">
        <ele>41</ele>
        <time>2022-05-21T06:12:43Z</time>
      </trkpt>
      <trkpt lat="47.93948" lon="-2.40539">
        <ele>41</ele>
        <time>2022-05-21T06:12:45Z</time>
      </trkpt>
      <trkpt lat="47.93954" lon="-2.40552">
        <ele>41</ele>
        <time>2022-05-21T06:12:47Z</time>
      </trkpt>
      <trkpt lat="47.93964" lon="-2.40557">
        <ele>41</ele>
        <time>2022-05-21T06:12:49Z</time>
      </trkpt>
      <trkpt lat="47.93969" lon="-2.40571">
        <ele>41</ele>
        <time>2022-05-21T06:12:51Z</time>
      </trkpt>
      <trkpt lat="47.93976" lon="-2.40581">
        <ele>41</ele>
        <time>2022-05-21T06:12:52Z</time>
      </trkpt>
      <trkpt lat="47.94" lon="-2.40551">
        <ele>43</ele>
        <time>2022-05-21T06:12:58Z</time>
      </trkpt>
      <trkpt lat="47.94022" lon="-2.40513">
        <ele>44</ele>
        <time>2022-05-21T06:13:04Z</time>
      </trkpt>
      <trkpt lat="47.9403" lon="-2.40504">
        <ele>44</ele>
        <time>2022-05-21T06:13:06Z</time>
      </trkpt>
      <trkpt lat="47.94033" lon="-2.40492">
        <ele>44</ele>
        <time>2022-05-21T06:13:07Z</time>
      </trkpt>
      <trkpt lat="47.94044" lon="-2.40483">
        <ele>44</ele>
        <time>2022-05-21T06:13:09Z</time>
      </trkpt>
      <trkpt lat="47.94053" lon="-2.40484">
        <ele>44</ele>
        <time>2022-05-21T06:13:11Z</time>
      </trkpt>
      <trkpt lat="47.94035" lon="-2.40487">
        <ele>44</ele>
        <time>2022-05-21T06:13:14Z</time>
      </trkpt>
      <trkpt lat="47.94021" lon="-2.40509">
        <ele>44</ele>
        <time>2022-05-21T06:13:18Z</time>
      </trkpt>
      <trkpt lat="47.94029" lon="-2.40516">
        <ele>44</ele>
        <time>2022-05-21T06:13:19Z</time>
      </trkpt>
      <trkpt lat="47.94039" lon="-2.4051">
        <ele>44</ele>
        <time>2022-05-21T06:13:21Z</time>
      </trkpt>
      <trkpt lat="47.94049" lon="-2.40511">
        <ele>44</ele>
        <time>2022-05-21T06:13:23Z</time>
      </trkpt>
      <trkpt lat="47.94053" lon="-2.40524">
        <ele>44</ele>
        <time>2022-05-21T06:13:25Z</time>
      </trkpt>
      <trkpt lat="47.94068" lon="-2.40526">
        <ele>44</ele>
        <time>2022-05-21T06:13:28Z</time>
      </trkpt>
      <trkpt lat="47.94051" lon="-2.4054">
        <ele>44</ele>
        <time>2022-05-21T06:13:31Z</time>
      </trkpt>
      <trkpt lat="47.94037" lon="-2.40544">
        <ele>44</ele>
        <time>2022-05-21T06:13:34Z</time>
      </trkpt>
      <trkpt lat="47.94057" lon="-2.40535">
        <ele>44</ele>
        <time>2022-05-21T06:13:37Z</time>
      </trkpt>
      <trkpt lat="47.94034" lon="-2.40525">
        <ele>44</ele>
        <time>2022-05-21T06:13:41Z</time>
      </trkpt>
      <trkpt lat="47.94062" lon="-2.40517">
        <ele>44</ele>
        <time>2022-05-21T06:13:47Z</time>
      </trkpt>
      <trkpt lat="47.94048" lon="-2.40503">
        <ele>44</ele>
        <time>2022-05-21T06:13:50Z</time>
      </trkpt>
      <trkpt lat="47.94039" lon="-2.40506">
        <ele>44</ele>
        <time>2022-05-21T06:13:51Z</time>
      </trkpt>
      <trkpt lat="47.94031" lon="-2.40514">
        <ele>44</ele>
        <time>2022-05-21T06:13:53Z</time>
      </trkpt>
      <trkpt lat="47.94022" lon="-2.40509">
        <ele>44</ele>
        <time>2022-05-21T06:13:55Z</time>
      </trkpt>
      <trkpt lat="47.94027" lon="-2.40497">
        <ele>44</ele>
        <time>2022-05-21T06:13:56Z</time>
      </trkpt>
      <trkpt lat="47.94041" lon="-2.40485">
        <ele>44</ele>
        <time>2022-05-21T06:13:59Z</time>
      </trkpt>
      <trkpt lat="47.9407" lon="-2.40498">
        <ele>44</ele>
        <time>2022-05-21T06:14:05Z</time>
      </trkpt>
      <trkpt lat="47.9408" lon="-2.40498">
        <ele>44</ele>
        <time>2022-05-21T06:14:06Z</time>
      </trkpt>
      <trkpt lat="47.94099" lon="-2.4049">
        <ele>45</ele>
        <time>2022-05-21T06:14:10Z</time>
      </trkpt>
      <trkpt lat="47.94109" lon="-2.40492">
        <ele>46</ele>
        <time>2022-05-21T06:14:12Z</time>
      </trkpt>
      <trkpt lat="47.94124" lon="-2.40513">
        <ele>47</ele>
        <time>2022-05-21T06:14:15Z</time>
      </trkpt>
      <trkpt lat="47.94181" lon="-2.40541">
        <ele>51</ele>
        <time>2022-05-21T06:14:26Z</time>
      </trkpt>
      <trkpt lat="47.94208" lon="-2.4056">
        <ele>54</ele>
        <time>2022-05-21T06:14:31Z</time>
      </trkpt>
      <trkpt lat="47.94263" lon="-2.40593">
        <ele>57</ele>
        <time>2022-05-21T06:14:42Z</time>
      </trkpt>
      <trkpt lat="47.94275" lon="-2.40617">
        <ele>57</ele>
        <time>2022-05-21T06:14:45Z</time>
      </trkpt>
      <trkpt lat="47.94287" lon="-2.40658">
        <ele>55</ele>
        <time>2022-05-21T06:14:51Z</time>
      </trkpt>
      <trkpt lat="47.94295" lon="-2.40673">
        <ele>55</ele>
        <time>2022-05-21T06:14:53Z</time>
      </trkpt>
      <trkpt lat="47.94331" lon="-2.40712">
        <ele>54</ele>
        <time>2022-05-21T06:15:01Z</time>
      </trkpt>
      <trkpt lat="47.94383" lon="-2.4076">
        <ele>53</ele>
        <time>2022-05-21T06:15:12Z</time>
      </trkpt>
      <trkpt lat="47.94396" lon="-2.4077">
        <ele>52</ele>
        <time>2022-05-21T06:15:14Z</time>
      </trkpt>
      <trkpt lat="47.9442" lon="-2.40783">
        <ele>51</ele>
        <time>2022-05-21T06:15:19Z</time>
      </trkpt>
      <trkpt lat="47.94428" lon="-2.40791">
        <ele>51</ele>
        <time>2022-05-21T06:15:21Z</time>
      </trkpt>
      <trkpt lat="47.9444" lon="-2.40793">
        <ele>51</ele>
        <time>2022-05-21T06:15:23Z</time>
      </trkpt>
      <trkpt lat="47.9449" lon="-2.40792">
        <ele>51</ele>
        <time>2022-05-21T06:15:32Z</time>
      </trkpt>
      <trkpt lat="47.94535" lon="-2.40782">
        <ele>50</ele>
        <time>2022-05-21T06:15:40Z</time>
      </trkpt>
      <trkpt lat="47.94612" lon="-2.40781">
        <ele>49</ele>
        <time>2022-05-21T06:15:54Z</time>
      </trkpt>
      <trkpt lat="47.94647" lon="-2.40774">
        <ele>48</ele>
        <time>2022-05-21T06:16:00Z</time>
      </trkpt>
      <trkpt lat="47.94681" lon="-2.40771">
        <ele>47</ele>
        <time>2022-05-21T06:16:06Z</time>
      </trkpt>
      <trkpt lat="47.94719" lon="-2.40772">
        <ele>48</ele>
        <time>2022-05-21T06:16:13Z</time>
      </trkpt>
      <trkpt lat="47.94781" lon="-2.40765">
        <ele>48</ele>
        <time>2022-05-21T06:16:24Z</time>
      </trkpt>
      <trkpt lat="47.94812" lon="-2.40759">
        <ele>49</ele>
        <time>2022-05-21T06:16:29Z</time>
      </trkpt>
      <trkpt lat="47.94854" lon="-2.40747">
        <ele>47</ele>
        <time>2022-05-21T06:16:37Z</time>
      </trkpt>
      <trkpt lat="47.94867" lon="-2.40746">
        <ele>45</ele>
        <time>2022-05-21T06:16:39Z</time>
      </trkpt>
      <trkpt lat="47.94883" lon="-2.4074">
        <ele>44</ele>
        <time>2022-05-21T06:16:42Z</time>
      </trkpt>
      <trkpt lat="47.94923" lon="-2.40736">
        <ele>41</ele>
        <time>2022-05-21T06:16:49Z</time>
      </trkpt>
      <trkpt lat="47.9495" lon="-2.40736">
        <ele>41</ele>
        <time>2022-05-21T06:16:54Z</time>
      </trkpt>
      <trkpt lat="47.94965" lon="-2.40733">
        <ele>41</ele>
        <time>2022-05-21T06:16:57Z</time>
      </trkpt>
      <trkpt lat="47.94989" lon="-2.40734">
        <ele>41</ele>
        <time>2022-05-21T06:17:01Z</time>
      </trkpt>
      <trkpt lat="47.95004" lon="-2.40729">
        <ele>41</ele>
        <time>2022-05-21T06:17:04Z</time>
      </trkpt>
      <trkpt lat="47.95118" lon="-2.40722">
        <ele>39</ele>
        <time>2022-05-21T06:17:24Z</time>
      </trkpt>
      <trkpt lat="47.95176" lon="-2.4071">
        <ele>38</ele>
        <time>2022-05-21T06:17:34Z</time>
      </trkpt>
      <trkpt lat="47.95185" lon="-2.40711">
        <ele>38</ele>
        <time>2022-05-21T06:17:36Z</time>
      </trkpt>
      <trkpt lat="47.95208" lon="-2.40704">
        <ele>38</ele>
        <time>2022-05-21T06:17:40Z</time>
      </trkpt>
      <trkpt lat="47.95233" lon="-2.40703">
        <ele>38</ele>
        <time>2022-05-21T06:17:45Z</time>
      </trkpt>
      <trkpt lat="47.95253" lon="-2.40698">
        <ele>39</ele>
        <time>2022-05-21T06:17:48Z</time>
      </trkpt>
      <trkpt lat="47.95264" lon="-2.40698">
        <ele>39</ele>
        <time>2022-05-21T06:17:50Z</time>
      </trkpt>
      <trkpt lat="47.95282" lon="-2.40691">
        <ele>40</ele>
        <time>2022-05-21T06:17:54Z</time>
      </trkpt>
      <trkpt lat="47.95293" lon="-2.40691">
        <ele>41</ele>
        <time>2022-05-21T06:17:56Z</time>
      </trkpt>
      <trkpt lat="47.95329" lon="-2.40679">
        <ele>42</ele>
        <time>2022-05-21T06:18:02Z</time>
      </trkpt>
      <trkpt lat="47.95342" lon="-2.40677">
        <ele>42</ele>
        <time>2022-05-21T06:18:04Z</time>
      </trkpt>
      <trkpt lat="47.95411" lon="-2.40653">
        <ele>40</ele>
        <time>2022-05-21T06:18:17Z</time>
      </trkpt>
      <trkpt lat="47.95456" lon="-2.40624">
        <ele>41</ele>
        <time>2022-05-21T06:18:26Z</time>
      </trkpt>
      <trkpt lat="47.95601" lon="-2.40553">
        <ele>39</ele>
        <time>2022-05-21T06:18:53Z</time>
      </trkpt>
      <trkpt lat="47.95727" lon="-2.40486">
        <ele>38</ele>
        <time>2022-05-21T06:19:17Z</time>
      </trkpt>
      <trkpt lat="47.95797" lon="-2.40451">
        <ele>37</ele>
        <time>2022-05-21T06:19:30Z</time>
      </trkpt>
      <trkpt lat="47.95853" lon="-2.4043">
        <ele>37</ele>
        <time>2022-05-21T06:19:40Z</time>
      </trkpt>
      <trkpt lat="47.95894" lon="-2.40408">
        <ele>37</ele>
        <time>2022-05-21T06:19:48Z</time>
      </trkpt>
      <trkpt lat="47.95965" lon="-2.40375">
        <ele>39</ele>
        <time>2022-05-21T06:20:01Z</time>
      </trkpt>
      <trkpt lat="47.95986" lon="-2.4036">
        <ele>40</ele>
        <time>2022-05-21T06:20:05Z</time>
      </trkpt>
      <trkpt lat="47.96008" lon="-2.40353">
        <ele>41</ele>
        <time>2022-05-21T06:20:09Z</time>
      </trkpt>
      <trkpt lat="47.9602" lon="-2.40345">
        <ele>41</ele>
        <time>2022-05-21T06:20:12Z</time>
      </trkpt>
      <trkpt lat="47.96042" lon="-2.40336">
        <ele>42</ele>
        <time>2022-05-21T06:20:16Z</time>
      </trkpt>
      <trkpt lat="47.96105" lon="-2.40289">
        <ele>43</ele>
        <time>2022-05-21T06:20:28Z</time>
      </trkpt>
      <trkpt lat="47.96147" lon="-2.40249">
        <ele>44</ele>
        <time>2022-05-21T06:20:37Z</time>
      </trkpt>
      <trkpt lat="47.96173" lon="-2.40215">
        <ele>44</ele>
        <time>2022-05-21T06:20:43Z</time>
      </trkpt>
      <trkpt lat="47.96213" lon="-2.40153">
        <ele>43</ele>
        <time>2022-05-21T06:20:53Z</time>
      </trkpt>
      <trkpt lat="47.96247" lon="-2.40089">
        <ele>44</ele>
        <time>2022-05-21T06:21:03Z</time>
      </trkpt>
      <trkpt lat="47.9627" lon="-2.40035">
        <ele>45</ele>
        <time>2022-05-21T06:21:11Z</time>
      </trkpt>
      <trkpt lat="47.96307" lon="-2.39912">
        <ele>46</ele>
        <time>2022-05-21T06:21:27Z</time>
      </trkpt>
      <trkpt lat="47.96324" lon="-2.39833">
        <ele>44</ele>
        <time>2022-05-21T06:21:37Z</time>
      </trkpt>
      <trkpt lat="47.96344" lon="-2.3965">
        <ele>38</ele>
        <time>2022-05-21T06:21:59Z</time>
      </trkpt>
      <trkpt lat="47.96385" lon="-2.39365">
        <ele>36</ele>
        <time>2022-05-21T06:22:34Z</time>
      </trkpt>
      <trkpt lat="47.96385" lon="-2.39348">
        <ele>36</ele>
        <time>2022-05-21T06:22:36Z</time>
      </trkpt>
      <trkpt lat="47.96411" lon="-2.39258">
        <ele>36</ele>
        <time>2022-05-21T06:22:47Z</time>
      </trkpt>
      <trkpt lat="47.96457" lon="-2.39142">
        <ele>36</ele>
        <time>2022-05-21T06:23:03Z</time>
      </trkpt>
      <trkpt lat="47.9649" lon="-2.39084">
        <ele>35</ele>
        <time>2022-05-21T06:23:12Z</time>
      </trkpt>
      <trkpt lat="47.96519" lon="-2.39042">
        <ele>35</ele>
        <time>2022-05-21T06:23:20Z</time>
      </trkpt>
      <trkpt lat="47.96545" lon="-2.39011">
        <ele>35</ele>
        <time>2022-05-21T06:23:26Z</time>
      </trkpt>
      <trkpt lat="47.96575" lon="-2.38981">
        <ele>35</ele>
        <time>2022-05-21T06:23:32Z</time>
      </trkpt>
      <trkpt lat="47.96596" lon="-2.38962">
        <ele>35</ele>
        <time>2022-05-21T06:23:36Z</time>
      </trkpt>
      <trkpt lat="47.96616" lon="-2.3895">
        <ele>35</ele>
        <time>2022-05-21T06:23:40Z</time>
      </trkpt>
      <trkpt lat="47.96624" lon="-2.38942">
        <ele>35</ele>
        <time>2022-05-21T06:23:42Z</time>
      </trkpt>
      <trkpt lat="47.96815" lon="-2.38815">
        <ele>38</ele>
        <time>2022-05-21T06:24:19Z</time>
      </trkpt>
      <trkpt lat="47.96842" lon="-2.388">
        <ele>38</ele>
        <time>2022-05-21T06:24:24Z</time>
      </trkpt>
      <trkpt lat="47.9693" lon="-2.38739">
        <ele>37</ele>
        <time>2022-05-21T06:24:41Z</time>
      </trkpt>
      <trkpt lat="47.9694" lon="-2.38729">
        <ele>38</ele>
        <time>2022-05-21T06:24:44Z</time>
      </trkpt>
      <trkpt lat="47.9696" lon="-2.38715">
        <ele>38</ele>
        <time>2022-05-21T06:24:48Z</time>
      </trkpt>
      <trkpt lat="47.96982" lon="-2.38705">
        <ele>37</ele>
        <time>2022-05-21T06:24:52Z</time>
      </trkpt>
      <trkpt lat="47.97001" lon="-2.38691">
        <ele>37</ele>
        <time>2022-05-21T06:24:55Z</time>
      </trkpt>
      <trkpt lat="47.97061" lon="-2.38661">
        <ele>35</ele>
        <time>2022-05-21T06:25:07Z</time>
      </trkpt>
      <trkpt lat="47.97094" lon="-2.38656">
        <ele>34</ele>
        <time>2022-05-21T06:25:13Z</time>
      </trkpt>
      <trkpt lat="47.9713" lon="-2.38647">
        <ele>35</ele>
        <time>2022-05-21T06:25:19Z</time>
      </trkpt>
      <trkpt lat="47.97203" lon="-2.38638">
        <ele>36</ele>
        <time>2022-05-21T06:25:32Z</time>
      </trkpt>
      <trkpt lat="47.97257" lon="-2.38635">
        <ele>37</ele>
        <time>2022-05-21T06:25:42Z</time>
      </trkpt>
      <trkpt lat="47.97289" lon="-2.38638">
        <ele>38</ele>
        <time>2022-05-21T06:25:47Z</time>
      </trkpt>
      <trkpt lat="47.97335" lon="-2.38631">
        <ele>39</ele>
        <time>2022-05-21T06:25:56Z</time>
      </trkpt>
      <trkpt lat="47.97344" lon="-2.38627">
        <ele>39</ele>
        <time>2022-05-21T06:25:57Z</time>
      </trkpt>
      <trkpt lat="47.97366" lon="-2.38629">
        <ele>39</ele>
        <time>2022-05-21T06:26:01Z</time>
      </trkpt>
      <trkpt lat="47.97421" lon="-2.38626">
        <ele>38</ele>
        <time>2022-05-21T06:26:11Z</time>
      </trkpt>
      <trkpt lat="47.97457" lon="-2.38621">
        <ele>38</ele>
        <time>2022-05-21T06:26:17Z</time>
      </trkpt>
      <trkpt lat="47.9747" lon="-2.38616">
        <ele>38</ele>
        <time>2022-05-21T06:26:20Z</time>
      </trkpt>
      <trkpt lat="47.97481" lon="-2.38617">
        <ele>37</ele>
        <time>2022-05-21T06:26:22Z</time>
      </trkpt>
      <trkpt lat="47.97544" lon="-2.38608">
        <ele>37</ele>
        <time>2022-05-21T06:26:33Z</time>
      </trkpt>
      <trkpt lat="47.97579" lon="-2.38607">
        <ele>37</ele>
        <time>2022-05-21T06:26:39Z</time>
      </trkpt>
      <trkpt lat="47.97643" lon="-2.38599">
        <ele>38</ele>
        <time>2022-05-21T06:26:51Z</time>
      </trkpt>
      <trkpt lat="47.97673" lon="-2.38599">
        <ele>39</ele>
        <time>2022-05-21T06:26:56Z</time>
      </trkpt>
      <trkpt lat="47.97709" lon="-2.38603">
        <ele>40</ele>
        <time>2022-05-21T06:27:02Z</time>
      </trkpt>
      <trkpt lat="47.97729" lon="-2.38601">
        <ele>40</ele>
        <time>2022-05-21T06:27:06Z</time>
      </trkpt>
      <trkpt lat="47.97759" lon="-2.38594">
        <ele>40</ele>
        <time>2022-05-21T06:27:11Z</time>
      </trkpt>
      <trkpt lat="47.97782" lon="-2.38596">
        <ele>40</ele>
        <time>2022-05-21T06:27:16Z</time>
      </trkpt>
      <trkpt lat="47.97826" lon="-2.38576">
        <ele>40</ele>
        <time>2022-05-21T06:27:24Z</time>
      </trkpt>
      <trkpt lat="47.97858" lon="-2.38556">
        <ele>40</ele>
        <time>2022-05-21T06:27:30Z</time>
      </trkpt>
      <trkpt lat="47.9787" lon="-2.38552">
        <ele>41</ele>
        <time>2022-05-21T06:27:32Z</time>
      </trkpt>
      <trkpt lat="47.97889" lon="-2.38538">
        <ele>41</ele>
        <time>2022-05-21T06:27:36Z</time>
      </trkpt>
      <trkpt lat="47.97908" lon="-2.38516">
        <ele>42</ele>
        <time>2022-05-21T06:27:40Z</time>
      </trkpt>
      <trkpt lat="47.97949" lon="-2.3848">
        <ele>45</ele>
        <time>2022-05-21T06:27:49Z</time>
      </trkpt>
      <trkpt lat="47.97956" lon="-2.3847">
        <ele>46</ele>
        <time>2022-05-21T06:27:50Z</time>
      </trkpt>
      <trkpt lat="47.98042" lon="-2.38378">
        <ele>49</ele>
        <time>2022-05-21T06:28:09Z</time>
      </trkpt>
      <trkpt lat="47.98085" lon="-2.38347">
        <ele>47</ele>
        <time>2022-05-21T06:28:18Z</time>
      </trkpt>
      <trkpt lat="47.98122" lon="-2.38307">
        <ele>43</ele>
        <time>2022-05-21T06:28:26Z</time>
      </trkpt>
      <trkpt lat="47.9825" lon="-2.38182">
        <ele>37</ele>
        <time>2022-05-21T06:28:53Z</time>
      </trkpt>
      <trkpt lat="47.98336" lon="-2.38094">
        <ele>36</ele>
        <time>2022-05-21T06:29:11Z</time>
      </trkpt>
      <trkpt lat="47.98376" lon="-2.38059">
        <ele>36</ele>
        <time>2022-05-21T06:29:20Z</time>
      </trkpt>
      <trkpt lat="47.98412" lon="-2.38024">
        <ele>38</ele>
        <time>2022-05-21T06:29:27Z</time>
      </trkpt>
      <trkpt lat="47.98427" lon="-2.38004">
        <ele>38</ele>
        <time>2022-05-21T06:29:31Z</time>
      </trkpt>
      <trkpt lat="47.98464" lon="-2.37972">
        <ele>40</ele>
        <time>2022-05-21T06:29:39Z</time>
      </trkpt>
      <trkpt lat="47.9849" lon="-2.37946">
        <ele>42</ele>
        <time>2022-05-21T06:29:44Z</time>
      </trkpt>
      <trkpt lat="47.98497" lon="-2.37934">
        <ele>43</ele>
        <time>2022-05-21T06:29:46Z</time>
      </trkpt>
      <trkpt lat="47.98513" lon="-2.37917">
        <ele>44</ele>
        <time>2022-05-21T06:29:50Z</time>
      </trkpt>
      <trkpt lat="47.98524" lon="-2.37911">
        <ele>43</ele>
        <time>2022-05-21T06:29:52Z</time>
      </trkpt>
      <trkpt lat="47.9855" lon="-2.37878">
        <ele>44</ele>
        <time>2022-05-21T06:29:58Z</time>
      </trkpt>
      <trkpt lat="47.9862" lon="-2.37774">
        <ele>45</ele>
        <time>2022-05-21T06:30:15Z</time>
      </trkpt>
      <trkpt lat="47.98659" lon="-2.37708">
        <ele>43</ele>
        <time>2022-05-21T06:30:26Z</time>
      </trkpt>
      <trkpt lat="47.98684" lon="-2.37674">
        <ele>42</ele>
        <time>2022-05-21T06:30:32Z</time>
      </trkpt>
      <trkpt lat="47.98698" lon="-2.37646">
        <ele>41</ele>
        <time>2022-05-21T06:30:36Z</time>
      </trkpt>
      <trkpt lat="47.98795" lon="-2.37429">
        <ele>37</ele>
        <time>2022-05-21T06:31:07Z</time>
      </trkpt>
      <trkpt lat="47.98804" lon="-2.374">
        <ele>37</ele>
        <time>2022-05-21T06:31:11Z</time>
      </trkpt>
      <trkpt lat="47.98872" lon="-2.37245">
        <ele>37</ele>
        <time>2022-05-21T06:31:33Z</time>
      </trkpt>
      <trkpt lat="47.98896" lon="-2.37182">
        <ele>37</ele>
        <time>2022-05-21T06:31:41Z</time>
      </trkpt>
      <trkpt lat="47.98956" lon="-2.37044">
        <ele>38</ele>
        <time>2022-05-21T06:32:01Z</time>
      </trkpt>
      <trkpt lat="47.98959" lon="-2.37029">
        <ele>38</ele>
        <time>2022-05-21T06:32:03Z</time>
      </trkpt>
      <trkpt lat="47.99005" lon="-2.36931">
        <ele>37</ele>
        <time>2022-05-21T06:32:17Z</time>
      </trkpt>
      <trkpt lat="47.99045" lon="-2.36837">
        <ele>39</ele>
        <time>2022-05-21T06:32:30Z</time>
      </trkpt>
      <trkpt lat="47.99058" lon="-2.36799">
        <ele>39</ele>
        <time>2022-05-21T06:32:36Z</time>
      </trkpt>
      <trkpt lat="47.99065" lon="-2.36787">
        <ele>38</ele>
        <time>2022-05-21T06:32:37Z</time>
      </trkpt>
      <trkpt lat="47.99092" lon="-2.36721">
        <ele>37</ele>
        <time>2022-05-21T06:32:47Z</time>
      </trkpt>
      <trkpt lat="47.99157" lon="-2.36575">
        <ele>37</ele>
        <time>2022-05-21T06:33:08Z</time>
      </trkpt>
      <trkpt lat="47.99172" lon="-2.36532">
        <ele>38</ele>
        <time>2022-05-21T06:33:13Z</time>
      </trkpt>
      <trkpt lat="47.99243" lon="-2.3637">
        <ele>40</ele>
        <time>2022-05-21T06:33:36Z</time>
      </trkpt>
      <trkpt lat="47.99269" lon="-2.36303">
        <ele>43</ele>
        <time>2022-05-21T06:33:46Z</time>
      </trkpt>
      <trkpt lat="47.99304" lon="-2.36237">
        <ele>45</ele>
        <time>2022-05-21T06:33:56Z</time>
      </trkpt>
      <trkpt lat="47.9934" lon="-2.36182">
        <ele>46</ele>
        <time>2022-05-21T06:34:05Z</time>
      </trkpt>
      <trkpt lat="47.99374" lon="-2.36137">
        <ele>47</ele>
        <time>2022-05-21T06:34:13Z</time>
      </trkpt>
      <trkpt lat="47.99395" lon="-2.36114">
        <ele>48</ele>
        <time>2022-05-21T06:34:17Z</time>
      </trkpt>
      <trkpt lat="47.99736" lon="-2.35796">
        <ele>57</ele>
        <time>2022-05-21T06:35:29Z</time>
      </trkpt>
      <trkpt lat="47.99783" lon="-2.35758">
        <ele>57</ele>
        <time>2022-05-21T06:35:39Z</time>
      </trkpt>
      <trkpt lat="47.99815" lon="-2.35737">
        <ele>56</ele>
        <time>2022-05-21T06:35:45Z</time>
      </trkpt>
      <trkpt lat="47.99877" lon="-2.35704">
        <ele>58</ele>
        <time>2022-05-21T06:35:56Z</time>
      </trkpt>
      <trkpt lat="47.9994" lon="-2.35678">
        <ele>58</ele>
        <time>2022-05-21T06:36:08Z</time>
      </trkpt>
      <trkpt lat="47.99951" lon="-2.35677">
        <ele>58</ele>
        <time>2022-05-21T06:36:10Z</time>
      </trkpt>
      <trkpt lat="48.0001" lon="-2.35661">
        <ele>55</ele>
        <time>2022-05-21T06:36:21Z</time>
      </trkpt>
      <trkpt lat="48.00092" lon="-2.35632">
        <ele>52</ele>
        <time>2022-05-21T06:36:36Z</time>
      </trkpt>
      <trkpt lat="48.00185" lon="-2.35604">
        <ele>53</ele>
        <time>2022-05-21T06:36:53Z</time>
      </trkpt>
      <trkpt lat="48.00258" lon="-2.35579">
        <ele>56</ele>
        <time>2022-05-21T06:37:06Z</time>
      </trkpt>
      <trkpt lat="48.00269" lon="-2.35578">
        <ele>57</ele>
        <time>2022-05-21T06:37:08Z</time>
      </trkpt>
      <trkpt lat="48.00394" lon="-2.3554">
        <ele>60</ele>
        <time>2022-05-21T06:37:31Z</time>
      </trkpt>
      <trkpt lat="48.00444" lon="-2.3552">
        <ele>61</ele>
        <time>2022-05-21T06:37:40Z</time>
      </trkpt>
      <trkpt lat="48.00519" lon="-2.35499">
        <ele>61</ele>
        <time>2022-05-21T06:37:53Z</time>
      </trkpt>
      <trkpt lat="48.00531" lon="-2.35498">
        <ele>62</ele>
        <time>2022-05-21T06:37:55Z</time>
      </trkpt>
      <trkpt lat="48.00543" lon="-2.35492">
        <ele>62</ele>
        <time>2022-05-21T06:37:58Z</time>
      </trkpt>
      <trkpt lat="48.00668" lon="-2.35449">
        <ele>66</ele>
        <time>2022-05-21T06:38:21Z</time>
      </trkpt>
      <trkpt lat="48.00744" lon="-2.35436">
        <ele>65</ele>
        <time>2022-05-21T06:38:34Z</time>
      </trkpt>
      <trkpt lat="48.00788" lon="-2.35437">
        <ele>65</ele>
        <time>2022-05-21T06:38:42Z</time>
      </trkpt>
      <trkpt lat="48.00819" lon="-2.35441">
        <ele>65</ele>
        <time>2022-05-21T06:38:48Z</time>
      </trkpt>
      <trkpt lat="48.00895" lon="-2.35464">
        <ele>64</ele>
        <time>2022-05-21T06:39:01Z</time>
      </trkpt>
      <trkpt lat="48.00943" lon="-2.35491">
        <ele>63</ele>
        <time>2022-05-21T06:39:10Z</time>
      </trkpt>
      <trkpt lat="48.01014" lon="-2.35524">
        <ele>60</ele>
        <time>2022-05-21T06:39:24Z</time>
      </trkpt>
      <trkpt lat="48.01027" lon="-2.35533">
        <ele>60</ele>
        <time>2022-05-21T06:39:26Z</time>
      </trkpt>
      <trkpt lat="48.01048" lon="-2.35538">
        <ele>60</ele>
        <time>2022-05-21T06:39:30Z</time>
      </trkpt>
      <trkpt lat="48.01058" lon="-2.35543">
        <ele>61</ele>
        <time>2022-05-21T06:39:32Z</time>
      </trkpt>
      <trkpt lat="48.01065" lon="-2.35552">
        <ele>61</ele>
        <time>2022-05-21T06:39:34Z</time>
      </trkpt>
      <trkpt lat="48.01085" lon="-2.3556">
        <ele>61</ele>
        <time>2022-05-21T06:39:37Z</time>
      </trkpt>
      <trkpt lat="48.01095" lon="-2.35568">
        <ele>61</ele>
        <time>2022-05-21T06:39:39Z</time>
      </trkpt>
      <trkpt lat="48.01119" lon="-2.35579">
        <ele>60</ele>
        <time>2022-05-21T06:39:44Z</time>
      </trkpt>
      <trkpt lat="48.01148" lon="-2.35598">
        <ele>61</ele>
        <time>2022-05-21T06:39:49Z</time>
      </trkpt>
      <trkpt lat="48.0121" lon="-2.35625">
        <ele>59</ele>
        <time>2022-05-21T06:40:01Z</time>
      </trkpt>
      <trkpt lat="48.01241" lon="-2.35636">
        <ele>58</ele>
        <time>2022-05-21T06:40:07Z</time>
      </trkpt>
      <trkpt lat="48.0128" lon="-2.35645">
        <ele>56</ele>
        <time>2022-05-21T06:40:14Z</time>
      </trkpt>
      <trkpt lat="48.01356" lon="-2.35651">
        <ele>52</ele>
        <time>2022-05-21T06:40:27Z</time>
      </trkpt>
      <trkpt lat="48.01376" lon="-2.35649">
        <ele>52</ele>
        <time>2022-05-21T06:40:31Z</time>
      </trkpt>
      <trkpt lat="48.01339" lon="-2.35652">
        <ele>51</ele>
        <time>2022-05-21T06:40:37Z</time>
      </trkpt>
      <trkpt lat="48.01266" lon="-2.35645">
        <ele>57</ele>
        <time>2022-05-21T06:40:50Z</time>
      </trkpt>
      <trkpt lat="48.01236" lon="-2.35635">
        <ele>58</ele>
        <time>2022-05-21T06:40:56Z</time>
      </trkpt>
      <trkpt lat="48.01184" lon="-2.35613">
        <ele>60</ele>
        <time>2022-05-21T06:41:05Z</time>
      </trkpt>
      <trkpt lat="48.01121" lon="-2.35578">
        <ele>60</ele>
        <time>2022-05-21T06:41:17Z</time>
      </trkpt>
      <trkpt lat="48.01086" lon="-2.35562">
        <ele>61</ele>
        <time>2022-05-21T06:41:24Z</time>
      </trkpt>
      <trkpt lat="48.01068" lon="-2.35551">
        <ele>61</ele>
        <time>2022-05-21T06:41:27Z</time>
      </trkpt>
      <trkpt lat="48.01061" lon="-2.35544">
        <ele>61</ele>
        <time>2022-05-21T06:41:29Z</time>
      </trkpt>
      <trkpt lat="48.01054" lon="-2.35516">
        <ele>60</ele>
        <time>2022-05-21T06:41:32Z</time>
      </trkpt>
      <trkpt lat="48.0105" lon="-2.35435">
        <ele>59</ele>
        <time>2022-05-21T06:41:42Z</time>
      </trkpt>
      <trkpt lat="48.01038" lon="-2.35347">
        <ele>56</ele>
        <time>2022-05-21T06:41:53Z</time>
      </trkpt>
      <trkpt lat="48.01012" lon="-2.35202">
        <ele>55</ele>
        <time>2022-05-21T06:42:11Z</time>
      </trkpt>
      <trkpt lat="48.01004" lon="-2.35109">
        <ele>58</ele>
        <time>2022-05-21T06:42:22Z</time>
      </trkpt>
      <trkpt lat="48.01002" lon="-2.35034">
        <ele>61</ele>
        <time>2022-05-21T06:42:31Z</time>
      </trkpt>
      <trkpt lat="48.00998" lon="-2.35007">
        <ele>63</ele>
        <time>2022-05-21T06:42:34Z</time>
      </trkpt>
      <trkpt lat="48.0099" lon="-2.34979">
        <ele>64</ele>
        <time>2022-05-21T06:42:38Z</time>
      </trkpt>
      <trkpt lat="48.00966" lon="-2.34912">
        <ele>66</ele>
        <time>2022-05-21T06:42:47Z</time>
      </trkpt>
      <trkpt lat="48.00958" lon="-2.34837">
        <ele>68</ele>
        <time>2022-05-21T06:42:56Z</time>
      </trkpt>
      <trkpt lat="48.00956" lon="-2.34807">
        <ele>69</ele>
        <time>2022-05-21T06:42:59Z</time>
      </trkpt>
      <trkpt lat="48.00962" lon="-2.3475">
        <ele>71</ele>
        <time>2022-05-21T06:43:06Z</time>
      </trkpt>
      <trkpt lat="48.00976" lon="-2.34712">
        <ele>71</ele>
        <time>2022-05-21T06:43:11Z</time>
      </trkpt>
      <trkpt lat="48.00994" lon="-2.34675">
        <ele>72</ele>
        <time>2022-05-21T06:43:17Z</time>
      </trkpt>
      <trkpt lat="48.00997" lon="-2.34648">
        <ele>72</ele>
        <time>2022-05-21T06:43:20Z</time>
      </trkpt>
      <trkpt lat="48.00993" lon="-2.34635">
        <ele>71</ele>
        <time>2022-05-21T06:43:22Z</time>
      </trkpt>
      <trkpt lat="48.00986" lon="-2.34626">
        <ele>71</ele>
        <time>2022-05-21T06:43:23Z</time>
      </trkpt>
      <trkpt lat="48.00975" lon="-2.34593">
        <ele>71</ele>
        <time>2022-05-21T06:43:28Z</time>
      </trkpt>
      <trkpt lat="48.00975" lon="-2.34532">
        <ele>70</ele>
        <time>2022-05-21T06:43:35Z</time>
      </trkpt>
      <trkpt lat="48.00971" lon="-2.34518">
        <ele>70</ele>
        <time>2022-05-21T06:43:37Z</time>
      </trkpt>
      <trkpt lat="48.00957" lon="-2.34497">
        <ele>70</ele>
        <time>2022-05-21T06:43:40Z</time>
      </trkpt>
      <trkpt lat="48.00954" lon="-2.3448">
        <ele>70</ele>
        <time>2022-05-21T06:43:42Z</time>
      </trkpt>
      <trkpt lat="48.00995" lon="-2.34197">
        <ele>68</ele>
        <time>2022-05-21T06:44:17Z</time>
      </trkpt>
      <trkpt lat="48.01017" lon="-2.34026">
        <ele>64</ele>
        <time>2022-05-21T06:44:38Z</time>
      </trkpt>
      <trkpt lat="48.01023" lon="-2.33924">
        <ele>60</ele>
        <time>2022-05-21T06:44:50Z</time>
      </trkpt>
      <trkpt lat="48.01027" lon="-2.33725">
        <ele>55</ele>
        <time>2022-05-21T06:45:13Z</time>
      </trkpt>
      <trkpt lat="48.01033" lon="-2.33675">
        <ele>55</ele>
        <time>2022-05-21T06:45:20Z</time>
      </trkpt>
      <trkpt lat="48.0108" lon="-2.33527">
        <ele>56</ele>
        <time>2022-05-21T06:45:39Z</time>
      </trkpt>
      <trkpt lat="48.01084" lon="-2.33508">
        <ele>56</ele>
        <time>2022-05-21T06:45:41Z</time>
      </trkpt>
      <trkpt lat="48.011" lon="-2.33468">
        <ele>56</ele>
        <time>2022-05-21T06:45:47Z</time>
      </trkpt>
      <trkpt lat="48.01157" lon="-2.33378">
        <ele>59</ele>
        <time>2022-05-21T06:46:02Z</time>
      </trkpt>
      <trkpt lat="48.01163" lon="-2.33367">
        <ele>60</ele>
        <time>2022-05-21T06:46:03Z</time>
      </trkpt>
      <trkpt lat="48.01166" lon="-2.33355">
        <ele>60</ele>
        <time>2022-05-21T06:46:05Z</time>
      </trkpt>
      <trkpt lat="48.0115" lon="-2.3325">
        <ele>61</ele>
        <time>2022-05-21T06:46:18Z</time>
      </trkpt>
      <trkpt lat="48.01123" lon="-2.33153">
        <ele>61</ele>
        <time>2022-05-21T06:46:30Z</time>
      </trkpt>
      <trkpt lat="48.01122" lon="-2.33137">
        <ele>62</ele>
        <time>2022-05-21T06:46:32Z</time>
      </trkpt>
      <trkpt lat="48.0115" lon="-2.33085">
        <ele>64</ele>
        <time>2022-05-21T06:46:40Z</time>
      </trkpt>
      <trkpt lat="48.01174" lon="-2.33047">
        <ele>66</ele>
        <time>2022-05-21T06:46:46Z</time>
      </trkpt>
      <trkpt lat="48.01179" lon="-2.33034">
        <ele>66</ele>
        <time>2022-05-21T06:46:48Z</time>
      </trkpt>
      <trkpt lat="48.01176" lon="-2.33018">
        <ele>67</ele>
        <time>2022-05-21T06:46:50Z</time>
      </trkpt>
      <trkpt lat="48.0113" lon="-2.32952">
        <ele>67</ele>
        <time>2022-05-21T06:47:01Z</time>
      </trkpt>
      <trkpt lat="48.01129" lon="-2.32937">
        <ele>67</ele>
        <time>2022-05-21T06:47:03Z</time>
      </trkpt>
      <trkpt lat="48.01152" lon="-2.32891">
        <ele>70</ele>
        <time>2022-05-21T06:47:10Z</time>
      </trkpt>
      <trkpt lat="48.01174" lon="-2.32826">
        <ele>74</ele>
        <time>2022-05-21T06:47:19Z</time>
      </trkpt>
      <trkpt lat="48.01203" lon="-2.32767">
        <ele>77</ele>
        <time>2022-05-21T06:47:27Z</time>
      </trkpt>
      <trkpt lat="48.01188" lon="-2.32744">
        <ele>79</ele>
        <time>2022-05-21T06:47:31Z</time>
      </trkpt>
      <trkpt lat="48.01186" lon="-2.32729">
        <ele>79</ele>
        <time>2022-05-21T06:47:33Z</time>
      </trkpt>
      <trkpt lat="48.01184" lon="-2.32712">
        <ele>79</ele>
        <time>2022-05-21T06:47:35Z</time>
      </trkpt>
      <trkpt lat="48.01191" lon="-2.32651">
        <ele>79</ele>
        <time>2022-05-21T06:47:43Z</time>
      </trkpt>
      <trkpt lat="48.01181" lon="-2.326">
        <ele>79</ele>
        <time>2022-05-21T06:47:49Z</time>
      </trkpt>
      <trkpt lat="48.01159" lon="-2.32554">
        <ele>79</ele>
        <time>2022-05-21T06:47:56Z</time>
      </trkpt>
      <trkpt lat="48.01101" lon="-2.32456">
        <ele>79</ele>
        <time>2022-05-21T06:48:11Z</time>
      </trkpt>
      <trkpt lat="48.01085" lon="-2.32433">
        <ele>80</ele>
        <time>2022-05-21T06:48:15Z</time>
      </trkpt>
      <trkpt lat="48.01069" lon="-2.32415">
        <ele>80</ele>
        <time>2022-05-21T06:48:19Z</time>
      </trkpt>
      <trkpt lat="48.0104" lon="-2.32391">
        <ele>80</ele>
        <time>2022-05-21T06:48:25Z</time>
      </trkpt>
      <trkpt lat="48.01047" lon="-2.32379">
        <ele>80</ele>
        <time>2022-05-21T06:48:26Z</time>
      </trkpt>
      <trkpt lat="48.01005" lon="-2.32295">
        <ele>82</ele>
        <time>2022-05-21T06:48:39Z</time>
      </trkpt>
      <trkpt lat="48.00961" lon="-2.32184">
        <ele>84</ele>
        <time>2022-05-21T06:48:54Z</time>
      </trkpt>
      <trkpt lat="48.00941" lon="-2.32121">
        <ele>85</ele>
        <time>2022-05-21T06:49:03Z</time>
      </trkpt>
      <trkpt lat="48.00904" lon="-2.3199">
        <ele>88</ele>
        <time>2022-05-21T06:49:20Z</time>
      </trkpt>
      <trkpt lat="48.00893" lon="-2.31964">
        <ele>90</ele>
        <time>2022-05-21T06:49:23Z</time>
      </trkpt>
      <trkpt lat="48.00893" lon="-2.31949">
        <ele>91</ele>
        <time>2022-05-21T06:49:25Z</time>
      </trkpt>
      <trkpt lat="48.00882" lon="-2.31885">
        <ele>95</ele>
        <time>2022-05-21T06:49:33Z</time>
      </trkpt>
      <trkpt lat="48.00878" lon="-2.31842">
        <ele>97</ele>
        <time>2022-05-21T06:49:38Z</time>
      </trkpt>
      <trkpt lat="48.00887" lon="-2.31775">
        <ele>96</ele>
        <time>2022-05-21T06:49:46Z</time>
      </trkpt>
      <trkpt lat="48.0089" lon="-2.31725">
        <ele>95</ele>
        <time>2022-05-21T06:49:52Z</time>
      </trkpt>
      <trkpt lat="48.00885" lon="-2.31607">
        <ele>93</ele>
        <time>2022-05-21T06:50:06Z</time>
      </trkpt>
      <trkpt lat="48.00878" lon="-2.31544">
        <ele>92</ele>
        <time>2022-05-21T06:50:14Z</time>
      </trkpt>
      <trkpt lat="48.00874" lon="-2.31477">
        <ele>89</ele>
        <time>2022-05-21T06:50:22Z</time>
      </trkpt>
      <trkpt lat="48.0087" lon="-2.31305">
        <ele>86</ele>
        <time>2022-05-21T06:50:42Z</time>
      </trkpt>
      <trkpt lat="48.00864" lon="-2.31271">
        <ele>87</ele>
        <time>2022-05-21T06:50:46Z</time>
      </trkpt>
      <trkpt lat="48.00834" lon="-2.31144">
        <ele>93</ele>
        <time>2022-05-21T06:51:02Z</time>
      </trkpt>
      <trkpt lat="48.0081" lon="-2.30988">
        <ele>96</ele>
        <time>2022-05-21T06:51:22Z</time>
      </trkpt>
      <trkpt lat="48.00802" lon="-2.30981">
        <ele>96</ele>
        <time>2022-05-21T06:51:23Z</time>
      </trkpt>
      <trkpt lat="48.00806" lon="-2.30961">
        <ele>96</ele>
        <time>2022-05-21T06:51:26Z</time>
      </trkpt>
      <trkpt lat="48.00793" lon="-2.30786">
        <ele>102</ele>
        <time>2022-05-21T06:51:47Z</time>
      </trkpt>
      <trkpt lat="48.00798" lon="-2.30708">
        <ele>104</ele>
        <time>2022-05-21T06:51:56Z</time>
      </trkpt>
      <trkpt lat="48.00805" lon="-2.30675">
        <ele>104</ele>
        <time>2022-05-21T06:52:00Z</time>
      </trkpt>
      <trkpt lat="48.00812" lon="-2.30594">
        <ele>108</ele>
        <time>2022-05-21T06:52:10Z</time>
      </trkpt>
      <trkpt lat="48.00823" lon="-2.30533">
        <ele>108</ele>
        <time>2022-05-21T06:52:17Z</time>
      </trkpt>
      <trkpt lat="48.00828" lon="-2.30517">
        <ele>107</ele>
        <time>2022-05-21T06:52:19Z</time>
      </trkpt>
      <trkpt lat="48.00831" lon="-2.30483">
        <ele>107</ele>
        <time>2022-05-21T06:52:24Z</time>
      </trkpt>
      <trkpt lat="48.00827" lon="-2.30411">
        <ele>105</ele>
        <time>2022-05-21T06:52:32Z</time>
      </trkpt>
      <trkpt lat="48.00819" lon="-2.30402">
        <ele>105</ele>
        <time>2022-05-21T06:52:34Z</time>
      </trkpt>
      <trkpt lat="48.00818" lon="-2.30346">
        <ele>103</ele>
        <time>2022-05-21T06:52:41Z</time>
      </trkpt>
      <trkpt lat="48.00809" lon="-2.30238">
        <ele>100</ele>
        <time>2022-05-21T06:52:54Z</time>
      </trkpt>
      <trkpt lat="48.00812" lon="-2.30209">
        <ele>99</ele>
        <time>2022-05-21T06:52:57Z</time>
      </trkpt>
      <trkpt lat="48.00808" lon="-2.30196">
        <ele>98</ele>
        <time>2022-05-21T06:52:59Z</time>
      </trkpt>
      <trkpt lat="48.00807" lon="-2.30168">
        <ele>97</ele>
        <time>2022-05-21T06:53:02Z</time>
      </trkpt>
      <trkpt lat="48.0081" lon="-2.30118">
        <ele>96</ele>
        <time>2022-05-21T06:53:08Z</time>
      </trkpt>
      <trkpt lat="48.0082" lon="-2.30035">
        <ele>94</ele>
        <time>2022-05-21T06:53:18Z</time>
      </trkpt>
      <trkpt lat="48.00825" lon="-2.30018">
        <ele>94</ele>
        <time>2022-05-21T06:53:20Z</time>
      </trkpt>
      <trkpt lat="48.00837" lon="-2.29926">
        <ele>95</ele>
        <time>2022-05-21T06:53:31Z</time>
      </trkpt>
      <trkpt lat="48.00839" lon="-2.29882">
        <ele>96</ele>
        <time>2022-05-21T06:53:37Z</time>
      </trkpt>
      <trkpt lat="48.00838" lon="-2.29813">
        <ele>97</ele>
        <time>2022-05-21T06:53:45Z</time>
      </trkpt>
      <trkpt lat="48.00832" lon="-2.29627">
        <ele>98</ele>
        <time>2022-05-21T06:54:07Z</time>
      </trkpt>
      <trkpt lat="48.00834" lon="-2.29498">
        <ele>100</ele>
        <time>2022-05-21T06:54:22Z</time>
      </trkpt>
      <trkpt lat="48.00836" lon="-2.29462">
        <ele>98</ele>
        <time>2022-05-21T06:54:27Z</time>
      </trkpt>
      <trkpt lat="48.00848" lon="-2.29386">
        <ele>95</ele>
        <time>2022-05-21T06:54:36Z</time>
      </trkpt>
      <trkpt lat="48.00849" lon="-2.29255">
        <ele>91</ele>
        <time>2022-05-21T06:54:52Z</time>
      </trkpt>
      <trkpt lat="48.00857" lon="-2.29126">
        <ele>92</ele>
        <time>2022-05-21T06:55:07Z</time>
      </trkpt>
      <trkpt lat="48.00855" lon="-2.29022">
        <ele>93</ele>
        <time>2022-05-21T06:55:19Z</time>
      </trkpt>
      <trkpt lat="48.00858" lon="-2.28991">
        <ele>93</ele>
        <time>2022-05-21T06:55:23Z</time>
      </trkpt>
      <trkpt lat="48.00872" lon="-2.2891">
        <ele>93</ele>
        <time>2022-05-21T06:55:33Z</time>
      </trkpt>
      <trkpt lat="48.00876" lon="-2.28862">
        <ele>93</ele>
        <time>2022-05-21T06:55:39Z</time>
      </trkpt>
      <trkpt lat="48.00876" lon="-2.28814">
        <ele>93</ele>
        <time>2022-05-21T06:55:45Z</time>
      </trkpt>
      <trkpt lat="48.00868" lon="-2.28785">
        <ele>92</ele>
        <time>2022-05-21T06:55:48Z</time>
      </trkpt>
      <trkpt lat="48.00868" lon="-2.28767">
        <ele>92</ele>
        <time>2022-05-21T06:55:50Z</time>
      </trkpt>
      <trkpt lat="48.00865" lon="-2.28751">
        <ele>92</ele>
        <time>2022-05-21T06:55:52Z</time>
      </trkpt>
      <trkpt lat="48.00859" lon="-2.28736">
        <ele>92</ele>
        <time>2022-05-21T06:55:55Z</time>
      </trkpt>
      <trkpt lat="48.00843" lon="-2.28713">
        <ele>91</ele>
        <time>2022-05-21T06:55:58Z</time>
      </trkpt>
      <trkpt lat="48.00818" lon="-2.28683">
        <ele>91</ele>
        <time>2022-05-21T06:56:04Z</time>
      </trkpt>
      <trkpt lat="48.00809" lon="-2.28676">
        <ele>91</ele>
        <time>2022-05-21T06:56:06Z</time>
      </trkpt>
      <trkpt lat="48.0079" lon="-2.28668">
        <ele>90</ele>
        <time>2022-05-21T06:56:09Z</time>
      </trkpt>
      <trkpt lat="48.0078" lon="-2.2867">
        <ele>90</ele>
        <time>2022-05-21T06:56:11Z</time>
      </trkpt>
      <trkpt lat="48.0077" lon="-2.28667">
        <ele>90</ele>
        <time>2022-05-21T06:56:13Z</time>
      </trkpt>
      <trkpt lat="48.00759" lon="-2.28667">
        <ele>90</ele>
        <time>2022-05-21T06:56:15Z</time>
      </trkpt>
      <trkpt lat="48.0078" lon="-2.28671">
        <ele>90</ele>
        <time>2022-05-21T06:56:19Z</time>
      </trkpt>
      <trkpt lat="48.00787" lon="-2.28682">
        <ele>90</ele>
        <time>2022-05-21T06:56:21Z</time>
      </trkpt>
      <trkpt lat="48.0078" lon="-2.28711">
        <ele>90</ele>
        <time>2022-05-21T06:56:24Z</time>
      </trkpt>
      <trkpt lat="48.00772" lon="-2.2872">
        <ele>90</ele>
        <time>2022-05-21T06:56:26Z</time>
      </trkpt>
      <trkpt lat="48.00773" lon="-2.28745">
        <ele>90</ele>
        <time>2022-05-21T06:56:29Z</time>
      </trkpt>
      <trkpt lat="48.00783" lon="-2.28743">
        <ele>90</ele>
        <time>2022-05-21T06:56:31Z</time>
      </trkpt>
      <trkpt lat="48.0079" lon="-2.28732">
        <ele>90</ele>
        <time>2022-05-21T06:56:33Z</time>
      </trkpt>
      <trkpt lat="48.00776" lon="-2.28739">
        <ele>90</ele>
        <time>2022-05-21T06:56:35Z</time>
      </trkpt>
      <trkpt lat="48.0079" lon="-2.28677">
        <ele>90</ele>
        <time>2022-05-21T06:56:43Z</time>
      </trkpt>
      <trkpt lat="48.00797" lon="-2.28667">
        <ele>91</ele>
        <time>2022-05-21T06:56:45Z</time>
      </trkpt>
      <trkpt lat="48.00807" lon="-2.28671">
        <ele>91</ele>
        <time>2022-05-21T06:56:47Z</time>
      </trkpt>
      <trkpt lat="48.00824" lon="-2.28685">
        <ele>91</ele>
        <time>2022-05-21T06:56:50Z</time>
      </trkpt>
      <trkpt lat="48.00845" lon="-2.28719">
        <ele>91</ele>
        <time>2022-05-21T06:56:56Z</time>
      </trkpt>
      <trkpt lat="48.00853" lon="-2.28727">
        <ele>91</ele>
        <time>2022-05-21T06:56:57Z</time>
      </trkpt>
      <trkpt lat="48.00859" lon="-2.28741">
        <ele>92</ele>
        <time>2022-05-21T06:56:59Z</time>
      </trkpt>
      <trkpt lat="48.00869" lon="-2.28784">
        <ele>92</ele>
        <time>2022-05-21T06:57:05Z</time>
      </trkpt>
      <trkpt lat="48.00867" lon="-2.28812">
        <ele>92</ele>
        <time>2022-05-21T06:57:08Z</time>
      </trkpt>
      <trkpt lat="48.00865" lon="-2.28765">
        <ele>92</ele>
        <time>2022-05-21T06:57:14Z</time>
      </trkpt>
      <trkpt lat="48.0088" lon="-2.2882">
        <ele>93</ele>
        <time>2022-05-21T06:57:21Z</time>
      </trkpt>
      <trkpt lat="48.00889" lon="-2.28829">
        <ele>94</ele>
        <time>2022-05-21T06:57:23Z</time>
      </trkpt>
      <trkpt lat="48.00898" lon="-2.28834">
        <ele>94</ele>
        <time>2022-05-21T06:57:24Z</time>
      </trkpt>
      <trkpt lat="48.00946" lon="-2.28845">
        <ele>96</ele>
        <time>2022-05-21T06:57:33Z</time>
      </trkpt>
      <trkpt lat="48.00993" lon="-2.28863">
        <ele>99</ele>
        <time>2022-05-21T06:57:42Z</time>
      </trkpt>
      <trkpt lat="48.01102" lon="-2.28925">
        <ele>108</ele>
        <time>2022-05-21T06:58:02Z</time>
      </trkpt>
      <trkpt lat="48.0115" lon="-2.28944">
        <ele>113</ele>
        <time>2022-05-21T06:58:11Z</time>
      </trkpt>
      <trkpt lat="48.01168" lon="-2.2896">
        <ele>115</ele>
        <time>2022-05-21T06:58:15Z</time>
      </trkpt>
      <trkpt lat="48.01185" lon="-2.2897">
        <ele>117</ele>
        <time>2022-05-21T06:58:18Z</time>
      </trkpt>
      <trkpt lat="48.01195" lon="-2.28969">
        <ele>118</ele>
        <time>2022-05-21T06:58:20Z</time>
      </trkpt>
      <trkpt lat="48.01208" lon="-2.28961">
        <ele>120</ele>
        <time>2022-05-21T06:58:23Z</time>
      </trkpt>
      <trkpt lat="48.0123" lon="-2.28931">
        <ele>122</ele>
        <time>2022-05-21T06:58:28Z</time>
      </trkpt>
      <trkpt lat="48.01269" lon="-2.28885">
        <ele>123</ele>
        <time>2022-05-21T06:58:37Z</time>
      </trkpt>
      <trkpt lat="48.01279" lon="-2.28879">
        <ele>123</ele>
        <time>2022-05-21T06:58:39Z</time>
      </trkpt>
      <trkpt lat="48.01299" lon="-2.28872">
        <ele>123</ele>
        <time>2022-05-21T06:58:42Z</time>
      </trkpt>
      <trkpt lat="48.01309" lon="-2.28871">
        <ele>123</ele>
        <time>2022-05-21T06:58:44Z</time>
      </trkpt>
      <trkpt lat="48.01319" lon="-2.28874">
        <ele>123</ele>
        <time>2022-05-21T06:58:46Z</time>
      </trkpt>
      <trkpt lat="48.01327" lon="-2.28879">
        <ele>124</ele>
        <time>2022-05-21T06:58:47Z</time>
      </trkpt>
      <trkpt lat="48.01343" lon="-2.28896">
        <ele>125</ele>
        <time>2022-05-21T06:58:51Z</time>
      </trkpt>
      <trkpt lat="48.01356" lon="-2.28917">
        <ele>126</ele>
        <time>2022-05-21T06:58:54Z</time>
      </trkpt>
      <trkpt lat="48.01395" lon="-2.29025">
        <ele>130</ele>
        <time>2022-05-21T06:59:09Z</time>
      </trkpt>
      <trkpt lat="48.01412" lon="-2.29063">
        <ele>131</ele>
        <time>2022-05-21T06:59:14Z</time>
      </trkpt>
      <trkpt lat="48.01427" lon="-2.29084">
        <ele>132</ele>
        <time>2022-05-21T06:59:18Z</time>
      </trkpt>
      <trkpt lat="48.01437" lon="-2.29092">
        <ele>132</ele>
        <time>2022-05-21T06:59:20Z</time>
      </trkpt>
      <trkpt lat="48.01464" lon="-2.29102">
        <ele>133</ele>
        <time>2022-05-21T06:59:25Z</time>
      </trkpt>
      <trkpt lat="48.01537" lon="-2.291">
        <ele>133</ele>
        <time>2022-05-21T06:59:38Z</time>
      </trkpt>
      <trkpt lat="48.01574" lon="-2.29095">
        <ele>133</ele>
        <time>2022-05-21T06:59:45Z</time>
      </trkpt>
      <trkpt lat="48.01745" lon="-2.29023">
        <ele>136</ele>
        <time>2022-05-21T07:00:16Z</time>
      </trkpt>
      <trkpt lat="48.0179" lon="-2.29001">
        <ele>135</ele>
        <time>2022-05-21T07:00:25Z</time>
      </trkpt>
      <trkpt lat="48.01832" lon="-2.28969">
        <ele>135</ele>
        <time>2022-05-21T07:00:33Z</time>
      </trkpt>
      <trkpt lat="48.01862" lon="-2.28942">
        <ele>136</ele>
        <time>2022-05-21T07:00:39Z</time>
      </trkpt>
      <trkpt lat="48.0201" lon="-2.28793">
        <ele>144</ele>
        <time>2022-05-21T07:01:11Z</time>
      </trkpt>
      <trkpt lat="48.02041" lon="-2.28754">
        <ele>146</ele>
        <time>2022-05-21T07:01:18Z</time>
      </trkpt>
      <trkpt lat="48.02044" lon="-2.28699">
        <ele>146</ele>
        <time>2022-05-21T07:01:25Z</time>
      </trkpt>
      <trkpt lat="48.02065" lon="-2.28626">
        <ele>147</ele>
        <time>2022-05-21T07:01:34Z</time>
      </trkpt>
      <trkpt lat="48.02072" lon="-2.2861">
        <ele>147</ele>
        <time>2022-05-21T07:01:36Z</time>
      </trkpt>
      <trkpt lat="48.02082" lon="-2.28564">
        <ele>148</ele>
        <time>2022-05-21T07:01:42Z</time>
      </trkpt>
      <trkpt lat="48.02104" lon="-2.28357">
        <ele>147</ele>
        <time>2022-05-21T07:02:07Z</time>
      </trkpt>
      <trkpt lat="48.02104" lon="-2.28338">
        <ele>147</ele>
        <time>2022-05-21T07:02:09Z</time>
      </trkpt>
      <trkpt lat="48.02111" lon="-2.28287">
        <ele>148</ele>
        <time>2022-05-21T07:02:16Z</time>
      </trkpt>
      <trkpt lat="48.02113" lon="-2.28175">
        <ele>147</ele>
        <time>2022-05-21T07:02:29Z</time>
      </trkpt>
      <trkpt lat="48.0212" lon="-2.28061">
        <ele>150</ele>
        <time>2022-05-21T07:02:43Z</time>
      </trkpt>
      <trkpt lat="48.02104" lon="-2.27941">
        <ele>154</ele>
        <time>2022-05-21T07:02:57Z</time>
      </trkpt>
      <trkpt lat="48.0211" lon="-2.27816">
        <ele>155</ele>
        <time>2022-05-21T07:03:12Z</time>
      </trkpt>
      <trkpt lat="48.02105" lon="-2.27785">
        <ele>156</ele>
        <time>2022-05-21T07:03:16Z</time>
      </trkpt>
      <trkpt lat="48.02087" lon="-2.27749">
        <ele>158</ele>
        <time>2022-05-21T07:03:21Z</time>
      </trkpt>
      <trkpt lat="48.02083" lon="-2.27734">
        <ele>158</ele>
        <time>2022-05-21T07:03:23Z</time>
      </trkpt>
      <trkpt lat="48.0208" lon="-2.27703">
        <ele>158</ele>
        <time>2022-05-21T07:03:27Z</time>
      </trkpt>
      <trkpt lat="48.02082" lon="-2.27657">
        <ele>158</ele>
        <time>2022-05-21T07:03:32Z</time>
      </trkpt>
      <trkpt lat="48.02081" lon="-2.27518">
        <ele>161</ele>
        <time>2022-05-21T07:03:49Z</time>
      </trkpt>
      <trkpt lat="48.02078" lon="-2.27487">
        <ele>161</ele>
        <time>2022-05-21T07:03:53Z</time>
      </trkpt>
      <trkpt lat="48.02078" lon="-2.27425">
        <ele>162</ele>
        <time>2022-05-21T07:04:00Z</time>
      </trkpt>
      <trkpt lat="48.02069" lon="-2.27293">
        <ele>166</ele>
        <time>2022-05-21T07:04:16Z</time>
      </trkpt>
      <trkpt lat="48.0207" lon="-2.27262">
        <ele>167</ele>
        <time>2022-05-21T07:04:19Z</time>
      </trkpt>
      <trkpt lat="48.02067" lon="-2.27187">
        <ele>170</ele>
        <time>2022-05-21T07:04:28Z</time>
      </trkpt>
      <trkpt lat="48.02067" lon="-2.2714">
        <ele>172</ele>
        <time>2022-05-21T07:04:34Z</time>
      </trkpt>
      <trkpt lat="48.0207" lon="-2.2711">
        <ele>173</ele>
        <time>2022-05-21T07:04:38Z</time>
      </trkpt>
      <trkpt lat="48.02068" lon="-2.2695">
        <ele>180</ele>
        <time>2022-05-21T07:04:57Z</time>
      </trkpt>
      <trkpt lat="48.02061" lon="-2.26936">
        <ele>180</ele>
        <time>2022-05-21T07:04:59Z</time>
      </trkpt>
      <trkpt lat="48.02061" lon="-2.26922">
        <ele>181</ele>
        <time>2022-05-21T07:05:00Z</time>
      </trkpt>
      <trkpt lat="48.02053" lon="-2.2688">
        <ele>184</ele>
        <time>2022-05-21T07:05:06Z</time>
      </trkpt>
      <trkpt lat="48.02025" lon="-2.2677">
        <ele>188</ele>
        <time>2022-05-21T07:05:20Z</time>
      </trkpt>
      <trkpt lat="48.02009" lon="-2.26717">
        <ele>190</ele>
        <time>2022-05-21T07:05:26Z</time>
      </trkpt>
      <trkpt lat="48.02003" lon="-2.26704">
        <ele>190</ele>
        <time>2022-05-21T07:05:28Z</time>
      </trkpt>
      <trkpt lat="48.01997" lon="-2.26674">
        <ele>191</ele>
        <time>2022-05-21T07:05:32Z</time>
      </trkpt>
      <trkpt lat="48.01995" lon="-2.26642">
        <ele>192</ele>
        <time>2022-05-21T07:05:36Z</time>
      </trkpt>
      <trkpt lat="48.02001" lon="-2.26597">
        <ele>194</ele>
        <time>2022-05-21T07:05:41Z</time>
      </trkpt>
      <trkpt lat="48.02004" lon="-2.26551">
        <ele>194</ele>
        <time>2022-05-21T07:05:47Z</time>
      </trkpt>
      <trkpt lat="48.02014" lon="-2.26549">
        <ele>194</ele>
        <time>2022-05-21T07:05:49Z</time>
      </trkpt>
      <trkpt lat="48.02023" lon="-2.26554">
        <ele>195</ele>
        <time>2022-05-21T07:05:50Z</time>
      </trkpt>
      <trkpt lat="48.02064" lon="-2.26557">
        <ele>196</ele>
        <time>2022-05-21T07:05:58Z</time>
      </trkpt>
      <trkpt lat="48.02075" lon="-2.26555">
        <ele>196</ele>
        <time>2022-05-21T07:06:00Z</time>
      </trkpt>
      <trkpt lat="48.02152" lon="-2.26561">
        <ele>196</ele>
        <time>2022-05-21T07:06:13Z</time>
      </trkpt>
      <trkpt lat="48.02163" lon="-2.26558">
        <ele>196</ele>
        <time>2022-05-21T07:06:15Z</time>
      </trkpt>
      <trkpt lat="48.02174" lon="-2.26562">
        <ele>196</ele>
        <time>2022-05-21T07:06:17Z</time>
      </trkpt>
      <trkpt lat="48.02204" lon="-2.26559">
        <ele>195</ele>
        <time>2022-05-21T07:06:23Z</time>
      </trkpt>
      <trkpt lat="48.02213" lon="-2.26562">
        <ele>195</ele>
        <time>2022-05-21T07:06:24Z</time>
      </trkpt>
      <trkpt lat="48.02227" lon="-2.26558">
        <ele>194</ele>
        <time>2022-05-21T07:06:27Z</time>
      </trkpt>
      <trkpt lat="48.02285" lon="-2.26551">
        <ele>191</ele>
        <time>2022-05-21T07:06:37Z</time>
      </trkpt>
      <trkpt lat="48.02293" lon="-2.26544">
        <ele>191</ele>
        <time>2022-05-21T07:06:39Z</time>
      </trkpt>
      <trkpt lat="48.02312" lon="-2.26543">
        <ele>190</ele>
        <time>2022-05-21T07:06:42Z</time>
      </trkpt>
      <trkpt lat="48.02371" lon="-2.26521">
        <ele>188</ele>
        <time>2022-05-21T07:06:53Z</time>
      </trkpt>
      <trkpt lat="48.02381" lon="-2.26523">
        <ele>187</ele>
        <time>2022-05-21T07:06:55Z</time>
      </trkpt>
      <trkpt lat="48.02401" lon="-2.26536">
        <ele>185</ele>
        <time>2022-05-21T07:06:59Z</time>
      </trkpt>
      <trkpt lat="48.02416" lon="-2.26557">
        <ele>182</ele>
        <time>2022-05-21T07:07:02Z</time>
      </trkpt>
      <trkpt lat="48.02433" lon="-2.26559">
        <ele>180</ele>
        <time>2022-05-21T07:07:05Z</time>
      </trkpt>
      <trkpt lat="48.02452" lon="-2.26553">
        <ele>179</ele>
        <time>2022-05-21T07:07:09Z</time>
      </trkpt>
      <trkpt lat="48.02489" lon="-2.2652">
        <ele>176</ele>
        <time>2022-05-21T07:07:17Z</time>
      </trkpt>
      <trkpt lat="48.02445" lon="-2.26552">
        <ele>180</ele>
        <time>2022-05-21T07:07:25Z</time>
      </trkpt>
      <trkpt lat="48.02435" lon="-2.26554">
        <ele>180</ele>
        <time>2022-05-21T07:07:27Z</time>
      </trkpt>
      <trkpt lat="48.02425" lon="-2.2655">
        <ele>182</ele>
        <time>2022-05-21T07:07:29Z</time>
      </trkpt>
      <trkpt lat="48.02415" lon="-2.26554">
        <ele>183</ele>
        <time>2022-05-21T07:07:31Z</time>
      </trkpt>
      <trkpt lat="48.024" lon="-2.26598">
        <ele>180</ele>
        <time>2022-05-21T07:07:37Z</time>
      </trkpt>
      <trkpt lat="48.0237" lon="-2.26665">
        <ele>176</ele>
        <time>2022-05-21T07:07:46Z</time>
      </trkpt>
      <trkpt lat="48.02328" lon="-2.26805">
        <ele>174</ele>
        <time>2022-05-21T07:08:05Z</time>
      </trkpt>
      <trkpt lat="48.02302" lon="-2.26902">
        <ele>172</ele>
        <time>2022-05-21T07:08:17Z</time>
      </trkpt>
      <trkpt lat="48.0228" lon="-2.26975">
        <ele>171</ele>
        <time>2022-05-21T07:08:26Z</time>
      </trkpt>
      <trkpt lat="48.02253" lon="-2.2705">
        <ele>171</ele>
        <time>2022-05-21T07:08:37Z</time>
      </trkpt>
      <trkpt lat="48.02239" lon="-2.27109">
        <ele>169</ele>
        <time>2022-05-21T07:08:44Z</time>
      </trkpt>
      <trkpt lat="48.02214" lon="-2.27188">
        <ele>166</ele>
        <time>2022-05-21T07:08:54Z</time>
      </trkpt>
      <trkpt lat="48.02136" lon="-2.27516">
        <ele>158</ele>
        <time>2022-05-21T07:09:36Z</time>
      </trkpt>
      <trkpt lat="48.02119" lon="-2.27556">
        <ele>159</ele>
        <time>2022-05-21T07:09:42Z</time>
      </trkpt>
      <trkpt lat="48.02097" lon="-2.27592">
        <ele>159</ele>
        <time>2022-05-21T07:09:47Z</time>
      </trkpt>
      <trkpt lat="48.02086" lon="-2.27593">
        <ele>159</ele>
        <time>2022-05-21T07:09:49Z</time>
      </trkpt>
      <trkpt lat="48.0208" lon="-2.27582">
        <ele>159</ele>
        <time>2022-05-21T07:09:51Z</time>
      </trkpt>
      <trkpt lat="48.02078" lon="-2.27429">
        <ele>162</ele>
        <time>2022-05-21T07:10:09Z</time>
      </trkpt>
      <trkpt lat="48.02067" lon="-2.27196">
        <ele>170</ele>
        <time>2022-05-21T07:10:37Z</time>
      </trkpt>
      <trkpt lat="48.02072" lon="-2.27009">
        <ele>177</ele>
        <time>2022-05-21T07:10:59Z</time>
      </trkpt>
      <trkpt lat="48.02067" lon="-2.26934">
        <ele>180</ele>
        <time>2022-05-21T07:11:08Z</time>
      </trkpt>
      <trkpt lat="48.02054" lon="-2.26875">
        <ele>184</ele>
        <time>2022-05-21T07:11:16Z</time>
      </trkpt>
      <trkpt lat="48.0203" lon="-2.26795">
        <ele>188</ele>
        <time>2022-05-21T07:11:26Z</time>
      </trkpt>
      <trkpt lat="48.02022" lon="-2.26753">
        <ele>189</ele>
        <time>2022-05-21T07:11:31Z</time>
      </trkpt>
      <trkpt lat="48.02003" lon="-2.26696">
        <ele>191</ele>
        <time>2022-05-21T07:11:39Z</time>
      </trkpt>
      <trkpt lat="48.01997" lon="-2.26651">
        <ele>192</ele>
        <time>2022-05-21T07:11:44Z</time>
      </trkpt>
      <trkpt lat="48.02018" lon="-2.26468">
        <ele>195</ele>
        <time>2022-05-21T07:12:06Z</time>
      </trkpt>
      <trkpt lat="48.02071" lon="-2.26202">
        <ele>203</ele>
        <time>2022-05-21T07:12:39Z</time>
      </trkpt>
      <trkpt lat="48.02078" lon="-2.26145">
        <ele>206</ele>
        <time>2022-05-21T07:12:46Z</time>
      </trkpt>
      <trkpt lat="48.02079" lon="-2.26101">
        <ele>207</ele>
        <time>2022-05-21T07:12:52Z</time>
      </trkpt>
      <trkpt lat="48.02086" lon="-2.26043">
        <ele>209</ele>
        <time>2022-05-21T07:12:59Z</time>
      </trkpt>
      <trkpt lat="48.02081" lon="-2.25984">
        <ele>209</ele>
        <time>2022-05-21T07:13:06Z</time>
      </trkpt>
      <trkpt lat="48.02082" lon="-2.25968">
        <ele>209</ele>
        <time>2022-05-21T07:13:08Z</time>
      </trkpt>
      <trkpt lat="48.02077" lon="-2.25922">
        <ele>209</ele>
        <time>2022-05-21T07:13:13Z</time>
      </trkpt>
      <trkpt lat="48.02076" lon="-2.25811">
        <ele>209</ele>
        <time>2022-05-21T07:13:26Z</time>
      </trkpt>
      <trkpt lat="48.02074" lon="-2.25749">
        <ele>210</ele>
        <time>2022-05-21T07:13:34Z</time>
      </trkpt>
      <trkpt lat="48.02071" lon="-2.25732">
        <ele>209</ele>
        <time>2022-05-21T07:13:36Z</time>
      </trkpt>
      <trkpt lat="48.02072" lon="-2.25686">
        <ele>209</ele>
        <time>2022-05-21T07:13:41Z</time>
      </trkpt>
      <trkpt lat="48.02061" lon="-2.25319">
        <ele>225</ele>
        <time>2022-05-21T07:14:25Z</time>
      </trkpt>
      <trkpt lat="48.02067" lon="-2.25231">
        <ele>227</ele>
        <time>2022-05-21T07:14:36Z</time>
      </trkpt>
      <trkpt lat="48.02076" lon="-2.2516">
        <ele>230</ele>
        <time>2022-05-21T07:14:44Z</time>
      </trkpt>
      <trkpt lat="48.02093" lon="-2.25062">
        <ele>233</ele>
        <time>2022-05-21T07:14:56Z</time>
      </trkpt>
      <trkpt lat="48.021" lon="-2.24989">
        <ele>235</ele>
        <time>2022-05-21T07:15:05Z</time>
      </trkpt>
      <trkpt lat="48.02114" lon="-2.24883">
        <ele>238</ele>
        <time>2022-05-21T07:15:18Z</time>
      </trkpt>
      <trkpt lat="48.02114" lon="-2.24868">
        <ele>238</ele>
        <time>2022-05-21T07:15:20Z</time>
      </trkpt>
      <trkpt lat="48.0212" lon="-2.24825">
        <ele>238</ele>
        <time>2022-05-21T07:15:25Z</time>
      </trkpt>
      <trkpt lat="48.02124" lon="-2.24811">
        <ele>238</ele>
        <time>2022-05-21T07:15:27Z</time>
      </trkpt>
      <trkpt lat="48.02132" lon="-2.24738">
        <ele>238</ele>
        <time>2022-05-21T07:15:35Z</time>
      </trkpt>
      <trkpt lat="48.02142" lon="-2.24677">
        <ele>238</ele>
        <time>2022-05-21T07:15:43Z</time>
      </trkpt>
      <trkpt lat="48.02146" lon="-2.24632">
        <ele>237</ele>
        <time>2022-05-21T07:15:48Z</time>
      </trkpt>
      <trkpt lat="48.02142" lon="-2.24603">
        <ele>235</ele>
        <time>2022-05-21T07:15:52Z</time>
      </trkpt>
      <trkpt lat="48.02146" lon="-2.24625">
        <ele>237</ele>
        <time>2022-05-21T07:15:55Z</time>
      </trkpt>
      <trkpt lat="48.02138" lon="-2.24617">
        <ele>236</ele>
        <time>2022-05-21T07:15:56Z</time>
      </trkpt>
      <trkpt lat="48.02177" lon="-2.24643">
        <ele>240</ele>
        <time>2022-05-21T07:16:04Z</time>
      </trkpt>
      <trkpt lat="48.02249" lon="-2.24699">
        <ele>245</ele>
        <time>2022-05-21T07:16:18Z</time>
      </trkpt>
      <trkpt lat="48.02268" lon="-2.24711">
        <ele>246</ele>
        <time>2022-05-21T07:16:22Z</time>
      </trkpt>
      <trkpt lat="48.02312" lon="-2.24748">
        <ele>248</ele>
        <time>2022-05-21T07:16:31Z</time>
      </trkpt>
      <trkpt lat="48.02343" lon="-2.24767">
        <ele>249</ele>
        <time>2022-05-21T07:16:37Z</time>
      </trkpt>
      <trkpt lat="48.0239" lon="-2.24802">
        <ele>249</ele>
        <time>2022-05-21T07:16:46Z</time>
      </trkpt>
      <trkpt lat="48.02436" lon="-2.24842">
        <ele>247</ele>
        <time>2022-05-21T07:16:56Z</time>
      </trkpt>
      <trkpt lat="48.02473" lon="-2.24871">
        <ele>245</ele>
        <time>2022-05-21T07:17:03Z</time>
      </trkpt>
      <trkpt lat="48.02484" lon="-2.24877">
        <ele>245</ele>
        <time>2022-05-21T07:17:05Z</time>
      </trkpt>
      <trkpt lat="48.02536" lon="-2.24921">
        <ele>241</ele>
        <time>2022-05-21T07:17:16Z</time>
      </trkpt>
      <trkpt lat="48.0255" lon="-2.24929">
        <ele>240</ele>
        <time>2022-05-21T07:17:19Z</time>
      </trkpt>
      <trkpt lat="48.02563" lon="-2.24941">
        <ele>239</ele>
        <time>2022-05-21T07:17:21Z</time>
      </trkpt>
      <trkpt lat="48.02604" lon="-2.2497">
        <ele>235</ele>
        <time>2022-05-21T07:17:29Z</time>
      </trkpt>
      <trkpt lat="48.02612" lon="-2.24979">
        <ele>233</ele>
        <time>2022-05-21T07:17:31Z</time>
      </trkpt>
      <trkpt lat="48.02671" lon="-2.25025">
        <ele>226</ele>
        <time>2022-05-21T07:17:43Z</time>
      </trkpt>
      <trkpt lat="48.02749" lon="-2.25083">
        <ele>220</ele>
        <time>2022-05-21T07:17:58Z</time>
      </trkpt>
      <trkpt lat="48.02832" lon="-2.25152">
        <ele>213</ele>
        <time>2022-05-21T07:18:15Z</time>
      </trkpt>
      <trkpt lat="48.02842" lon="-2.2515">
        <ele>213</ele>
        <time>2022-05-21T07:18:17Z</time>
      </trkpt>
      <trkpt lat="48.02851" lon="-2.25168">
        <ele>212</ele>
        <time>2022-05-21T07:18:20Z</time>
      </trkpt>
      <trkpt lat="48.02862" lon="-2.25174">
        <ele>212</ele>
        <time>2022-05-21T07:18:22Z</time>
      </trkpt>
      <trkpt lat="48.02986" lon="-2.25271">
        <ele>212</ele>
        <time>2022-05-21T07:18:47Z</time>
      </trkpt>
      <trkpt lat="48.02995" lon="-2.25276">
        <ele>212</ele>
        <time>2022-05-21T07:18:49Z</time>
      </trkpt>
      <trkpt lat="48.03033" lon="-2.25309">
        <ele>212</ele>
        <time>2022-05-21T07:18:56Z</time>
      </trkpt>
      <trkpt lat="48.03076" lon="-2.25339">
        <ele>212</ele>
        <time>2022-05-21T07:19:05Z</time>
      </trkpt>
      <trkpt lat="48.03115" lon="-2.25373">
        <ele>211</ele>
        <time>2022-05-21T07:19:13Z</time>
      </trkpt>
      <trkpt lat="48.03162" lon="-2.25408">
        <ele>210</ele>
        <time>2022-05-21T07:19:22Z</time>
      </trkpt>
      <trkpt lat="48.03315" lon="-2.25532">
        <ele>197</ele>
        <time>2022-05-21T07:19:53Z</time>
      </trkpt>
      <trkpt lat="48.03337" lon="-2.25564">
        <ele>194</ele>
        <time>2022-05-21T07:19:59Z</time>
      </trkpt>
      <trkpt lat="48.03352" lon="-2.256">
        <ele>189</ele>
        <time>2022-05-21T07:20:04Z</time>
      </trkpt>
      <trkpt lat="48.03358" lon="-2.25621">
        <ele>187</ele>
        <time>2022-05-21T07:20:06Z</time>
      </trkpt>
      <trkpt lat="48.03377" lon="-2.25721">
        <ele>180</ele>
        <time>2022-05-21T07:20:19Z</time>
      </trkpt>
      <trkpt lat="48.03389" lon="-2.25748">
        <ele>179</ele>
        <time>2022-05-21T07:20:23Z</time>
      </trkpt>
      <trkpt lat="48.03412" lon="-2.2578">
        <ele>174</ele>
        <time>2022-05-21T07:20:28Z</time>
      </trkpt>
      <trkpt lat="48.03434" lon="-2.25816">
        <ele>169</ele>
        <time>2022-05-21T07:20:34Z</time>
      </trkpt>
      <trkpt lat="48.03444" lon="-2.25827">
        <ele>168</ele>
        <time>2022-05-21T07:20:36Z</time>
      </trkpt>
      <trkpt lat="48.03465" lon="-2.25843">
        <ele>164</ele>
        <time>2022-05-21T07:20:40Z</time>
      </trkpt>
      <trkpt lat="48.03527" lon="-2.25872">
        <ele>157</ele>
        <time>2022-05-21T07:20:52Z</time>
      </trkpt>
      <trkpt lat="48.03563" lon="-2.25893">
        <ele>153</ele>
        <time>2022-05-21T07:20:59Z</time>
      </trkpt>
      <trkpt lat="48.03717" lon="-2.25997">
        <ele>143</ele>
        <time>2022-05-21T07:21:29Z</time>
      </trkpt>
      <trkpt lat="48.03729" lon="-2.26011">
        <ele>143</ele>
        <time>2022-05-21T07:21:32Z</time>
      </trkpt>
      <trkpt lat="48.03746" lon="-2.26045">
        <ele>141</ele>
        <time>2022-05-21T07:21:37Z</time>
      </trkpt>
      <trkpt lat="48.0375" lon="-2.26086">
        <ele>140</ele>
        <time>2022-05-21T07:21:42Z</time>
      </trkpt>
      <trkpt lat="48.03746" lon="-2.26122">
        <ele>138</ele>
        <time>2022-05-21T07:21:46Z</time>
      </trkpt>
      <trkpt lat="48.03756" lon="-2.26124">
        <ele>138</ele>
        <time>2022-05-21T07:21:48Z</time>
      </trkpt>
      <trkpt lat="48.03764" lon="-2.26118">
        <ele>137</ele>
        <time>2022-05-21T07:21:49Z</time>
      </trkpt>
      <trkpt lat="48.03785" lon="-2.26111">
        <ele>136</ele>
        <time>2022-05-21T07:21:53Z</time>
      </trkpt>
      <trkpt lat="48.03831" lon="-2.26075">
        <ele>135</ele>
        <time>2022-05-21T07:22:02Z</time>
      </trkpt>
      <trkpt lat="48.03874" lon="-2.2606">
        <ele>134</ele>
        <time>2022-05-21T07:22:10Z</time>
      </trkpt>
      <trkpt lat="48.03885" lon="-2.26048">
        <ele>134</ele>
        <time>2022-05-21T07:22:13Z</time>
      </trkpt>
      <trkpt lat="48.03898" lon="-2.26027">
        <ele>134</ele>
        <time>2022-05-21T07:22:16Z</time>
      </trkpt>
      <trkpt lat="48.03941" lon="-2.25969">
        <ele>134</ele>
        <time>2022-05-21T07:22:26Z</time>
      </trkpt>
      <trkpt lat="48.0398" lon="-2.2593">
        <ele>133</ele>
        <time>2022-05-21T07:22:35Z</time>
      </trkpt>
      <trkpt lat="48.03997" lon="-2.25907">
        <ele>133</ele>
        <time>2022-05-21T07:22:39Z</time>
      </trkpt>
      <trkpt lat="48.04018" lon="-2.25868">
        <ele>134</ele>
        <time>2022-05-21T07:22:45Z</time>
      </trkpt>
      <trkpt lat="48.04028" lon="-2.25842">
        <ele>135</ele>
        <time>2022-05-21T07:22:48Z</time>
      </trkpt>
      <trkpt lat="48.04051" lon="-2.25795">
        <ele>135</ele>
        <time>2022-05-21T07:22:55Z</time>
      </trkpt>
      <trkpt lat="48.04068" lon="-2.25768">
        <ele>135</ele>
        <time>2022-05-21T07:23:00Z</time>
      </trkpt>
      <trkpt lat="48.04143" lon="-2.25714">
        <ele>132</ele>
        <time>2022-05-21T07:23:14Z</time>
      </trkpt>
      <trkpt lat="48.04146" lon="-2.25698">
        <ele>132</ele>
        <time>2022-05-21T07:23:16Z</time>
      </trkpt>
      <trkpt lat="48.04136" lon="-2.25675">
        <ele>134</ele>
        <time>2022-05-21T07:23:20Z</time>
      </trkpt>
      <trkpt lat="48.04132" lon="-2.25646">
        <ele>135</ele>
        <time>2022-05-21T07:23:23Z</time>
      </trkpt>
      <trkpt lat="48.04139" lon="-2.25604">
        <ele>137</ele>
        <time>2022-05-21T07:23:28Z</time>
      </trkpt>
      <trkpt lat="48.04121" lon="-2.25036">
        <ele>157</ele>
        <time>2022-05-21T07:24:36Z</time>
      </trkpt>
      <trkpt lat="48.04146" lon="-2.24959">
        <ele>157</ele>
        <time>2022-05-21T07:24:46Z</time>
      </trkpt>
      <trkpt lat="48.04153" lon="-2.24919">
        <ele>158</ele>
        <time>2022-05-21T07:24:51Z</time>
      </trkpt>
      <trkpt lat="48.04164" lon="-2.24879">
        <ele>157</ele>
        <time>2022-05-21T07:24:56Z</time>
      </trkpt>
      <trkpt lat="48.04161" lon="-2.24863">
        <ele>157</ele>
        <time>2022-05-21T07:24:58Z</time>
      </trkpt>
      <trkpt lat="48.04156" lon="-2.2485">
        <ele>158</ele>
        <time>2022-05-21T07:25:00Z</time>
      </trkpt>
      <trkpt lat="48.04142" lon="-2.24831">
        <ele>160</ele>
        <time>2022-05-21T07:25:03Z</time>
      </trkpt>
      <trkpt lat="48.04122" lon="-2.24818">
        <ele>163</ele>
        <time>2022-05-21T07:25:07Z</time>
      </trkpt>
      <trkpt lat="48.04094" lon="-2.24811">
        <ele>167</ele>
        <time>2022-05-21T07:25:12Z</time>
      </trkpt>
      <trkpt lat="48.04085" lon="-2.24815">
        <ele>167</ele>
        <time>2022-05-21T07:25:14Z</time>
      </trkpt>
      <trkpt lat="48.04076" lon="-2.24786">
        <ele>169</ele>
        <time>2022-05-21T07:25:18Z</time>
      </trkpt>
      <trkpt lat="48.04057" lon="-2.24781">
        <ele>171</ele>
        <time>2022-05-21T07:25:21Z</time>
      </trkpt>
      <trkpt lat="48.0405" lon="-2.24773">
        <ele>172</ele>
        <time>2022-05-21T07:25:23Z</time>
      </trkpt>
      <trkpt lat="48.0403" lon="-2.2477">
        <ele>173</ele>
        <time>2022-05-21T07:25:26Z</time>
      </trkpt>
      <trkpt lat="48.04021" lon="-2.24771">
        <ele>174</ele>
        <time>2022-05-21T07:25:28Z</time>
      </trkpt>
      <trkpt lat="48.04011" lon="-2.24767">
        <ele>175</ele>
        <time>2022-05-21T07:25:30Z</time>
      </trkpt>
      <trkpt lat="48.03993" lon="-2.24765">
        <ele>176</ele>
        <time>2022-05-21T07:25:33Z</time>
      </trkpt>
      <trkpt lat="48.03978" lon="-2.24773">
        <ele>178</ele>
        <time>2022-05-21T07:25:36Z</time>
      </trkpt>
      <trkpt lat="48.03969" lon="-2.24774">
        <ele>179</ele>
        <time>2022-05-21T07:25:37Z</time>
      </trkpt>
      <trkpt lat="48.03952" lon="-2.24765">
        <ele>180</ele>
        <time>2022-05-21T07:25:41Z</time>
      </trkpt>
      <trkpt lat="48.03942" lon="-2.24769">
        <ele>181</ele>
        <time>2022-05-21T07:25:43Z</time>
      </trkpt>
      <trkpt lat="48.03925" lon="-2.24759">
        <ele>183</ele>
        <time>2022-05-21T07:25:46Z</time>
      </trkpt>
      <trkpt lat="48.03916" lon="-2.24759">
        <ele>184</ele>
        <time>2022-05-21T07:25:47Z</time>
      </trkpt>
      <trkpt lat="48.03897" lon="-2.24764">
        <ele>185</ele>
        <time>2022-05-21T07:25:51Z</time>
      </trkpt>
      <trkpt lat="48.03889" lon="-2.24758">
        <ele>186</ele>
        <time>2022-05-21T07:25:52Z</time>
      </trkpt>
      <trkpt lat="48.03888" lon="-2.24743">
        <ele>186</ele>
        <time>2022-05-21T07:25:54Z</time>
      </trkpt>
      <trkpt lat="48.03891" lon="-2.24713">
        <ele>188</ele>
        <time>2022-05-21T07:25:58Z</time>
      </trkpt>
      <trkpt lat="48.03881" lon="-2.24717">
        <ele>188</ele>
        <time>2022-05-21T07:26:00Z</time>
      </trkpt>
      <trkpt lat="48.03895" lon="-2.24694">
        <ele>188</ele>
        <time>2022-05-21T07:26:03Z</time>
      </trkpt>
      <trkpt lat="48.03885" lon="-2.24665">
        <ele>191</ele>
        <time>2022-05-21T07:26:07Z</time>
      </trkpt>
      <trkpt lat="48.03892" lon="-2.24674">
        <ele>190</ele>
        <time>2022-05-21T07:26:09Z</time>
      </trkpt>
      <trkpt lat="48.039" lon="-2.24679">
        <ele>189</ele>
        <time>2022-05-21T07:26:10Z</time>
      </trkpt>
      <trkpt lat="48.0389" lon="-2.24682">
        <ele>189</ele>
        <time>2022-05-21T07:26:12Z</time>
      </trkpt>
      <trkpt lat="48.03887" lon="-2.24699">
        <ele>189</ele>
        <time>2022-05-21T07:26:14Z</time>
      </trkpt>
      <trkpt lat="48.03894" lon="-2.2469">
        <ele>189</ele>
        <time>2022-05-21T07:26:16Z</time>
      </trkpt>
      <trkpt lat="48.03903" lon="-2.24686">
        <ele>188</ele>
        <time>2022-05-21T07:26:18Z</time>
      </trkpt>
      <trkpt lat="48.03906" lon="-2.24672">
        <ele>189</ele>
        <time>2022-05-21T07:26:19Z</time>
      </trkpt>
      <trkpt lat="48.03936" lon="-2.24638">
        <ele>189</ele>
        <time>2022-05-21T07:26:26Z</time>
      </trkpt>
      <trkpt lat="48.03958" lon="-2.24618">
        <ele>189</ele>
        <time>2022-05-21T07:26:31Z</time>
      </trkpt>
      <trkpt lat="48.03976" lon="-2.24609">
        <ele>189</ele>
        <time>2022-05-21T07:26:34Z</time>
      </trkpt>
      <trkpt lat="48.03991" lon="-2.24593">
        <ele>189</ele>
        <time>2022-05-21T07:26:37Z</time>
      </trkpt>
      <trkpt lat="48.04" lon="-2.24592">
        <ele>189</ele>
        <time>2022-05-21T07:26:39Z</time>
      </trkpt>
      <trkpt lat="48.04011" lon="-2.24597">
        <ele>188</ele>
        <time>2022-05-21T07:26:41Z</time>
      </trkpt>
      <trkpt lat="48.04045" lon="-2.24622">
        <ele>183</ele>
        <time>2022-05-21T07:26:48Z</time>
      </trkpt>
      <trkpt lat="48.04135" lon="-2.25723">
        <ele>132</ele>
        <time>2022-05-21T07:29:00Z</time>
      </trkpt>
      <trkpt lat="48.04108" lon="-2.25737">
        <ele>133</ele>
        <time>2022-05-21T07:29:05Z</time>
      </trkpt>
      <trkpt lat="48.04067" lon="-2.25768">
        <ele>135</ele>
        <time>2022-05-21T07:29:13Z</time>
      </trkpt>
      <trkpt lat="48.03992" lon="-2.25911">
        <ele>133</ele>
        <time>2022-05-21T07:29:35Z</time>
      </trkpt>
      <trkpt lat="48.03963" lon="-2.25942">
        <ele>134</ele>
        <time>2022-05-21T07:29:41Z</time>
      </trkpt>
      <trkpt lat="48.03953" lon="-2.25948">
        <ele>134</ele>
        <time>2022-05-21T07:29:43Z</time>
      </trkpt>
      <trkpt lat="48.0391" lon="-2.26002">
        <ele>134</ele>
        <time>2022-05-21T07:29:53Z</time>
      </trkpt>
      <trkpt lat="48.0388" lon="-2.26048">
        <ele>134</ele>
        <time>2022-05-21T07:30:00Z</time>
      </trkpt>
      <trkpt lat="48.03862" lon="-2.26063">
        <ele>134</ele>
        <time>2022-05-21T07:30:04Z</time>
      </trkpt>
      <trkpt lat="48.03843" lon="-2.2607">
        <ele>135</ele>
        <time>2022-05-21T07:30:08Z</time>
      </trkpt>
      <trkpt lat="48.03833" lon="-2.2607">
        <ele>135</ele>
        <time>2022-05-21T07:30:09Z</time>
      </trkpt>
      <trkpt lat="48.03823" lon="-2.26075">
        <ele>135</ele>
        <time>2022-05-21T07:30:11Z</time>
      </trkpt>
      <trkpt lat="48.03806" lon="-2.26092">
        <ele>136</ele>
        <time>2022-05-21T07:30:15Z</time>
      </trkpt>
      <trkpt lat="48.03779" lon="-2.26109">
        <ele>137</ele>
        <time>2022-05-21T07:30:20Z</time>
      </trkpt>
      <trkpt lat="48.0375" lon="-2.2612">
        <ele>138</ele>
        <time>2022-05-21T07:30:25Z</time>
      </trkpt>
      <trkpt lat="48.03697" lon="-2.26197">
        <ele>140</ele>
        <time>2022-05-21T07:30:39Z</time>
      </trkpt>
      <trkpt lat="48.03653" lon="-2.26254">
        <ele>141</ele>
        <time>2022-05-21T07:30:49Z</time>
      </trkpt>
      <trkpt lat="48.03627" lon="-2.26283">
        <ele>141</ele>
        <time>2022-05-21T07:30:55Z</time>
      </trkpt>
      <trkpt lat="48.03586" lon="-2.2634">
        <ele>141</ele>
        <time>2022-05-21T07:31:05Z</time>
      </trkpt>
      <trkpt lat="48.03576" lon="-2.26373">
        <ele>139</ele>
        <time>2022-05-21T07:31:09Z</time>
      </trkpt>
      <trkpt lat="48.03576" lon="-2.26391">
        <ele>138</ele>
        <time>2022-05-21T07:31:11Z</time>
      </trkpt>
      <trkpt lat="48.0358" lon="-2.26408">
        <ele>137</ele>
        <time>2022-05-21T07:31:13Z</time>
      </trkpt>
      <trkpt lat="48.0359" lon="-2.26427">
        <ele>135</ele>
        <time>2022-05-21T07:31:16Z</time>
      </trkpt>
      <trkpt lat="48.03616" lon="-2.2646">
        <ele>133</ele>
        <time>2022-05-21T07:31:22Z</time>
      </trkpt>
      <trkpt lat="48.03629" lon="-2.26482">
        <ele>131</ele>
        <time>2022-05-21T07:31:26Z</time>
      </trkpt>
      <trkpt lat="48.03654" lon="-2.26543">
        <ele>128</ele>
        <time>2022-05-21T07:31:34Z</time>
      </trkpt>
      <trkpt lat="48.03692" lon="-2.26649">
        <ele>128</ele>
        <time>2022-05-21T07:31:48Z</time>
      </trkpt>
      <trkpt lat="48.03704" lon="-2.26662">
        <ele>128</ele>
        <time>2022-05-21T07:31:51Z</time>
      </trkpt>
      <trkpt lat="48.03717" lon="-2.26665">
        <ele>129</ele>
        <time>2022-05-21T07:31:53Z</time>
      </trkpt>
      <trkpt lat="48.0374" lon="-2.26662">
        <ele>129</ele>
        <time>2022-05-21T07:31:58Z</time>
      </trkpt>
      <trkpt lat="48.03798" lon="-2.26668">
        <ele>128</ele>
        <time>2022-05-21T07:32:08Z</time>
      </trkpt>
      <trkpt lat="48.03825" lon="-2.2668">
        <ele>128</ele>
        <time>2022-05-21T07:32:13Z</time>
      </trkpt>
      <trkpt lat="48.03849" lon="-2.26687">
        <ele>128</ele>
        <time>2022-05-21T07:32:17Z</time>
      </trkpt>
      <trkpt lat="48.03924" lon="-2.26695">
        <ele>126</ele>
        <time>2022-05-21T07:32:31Z</time>
      </trkpt>
      <trkpt lat="48.04008" lon="-2.26711">
        <ele>123</ele>
        <time>2022-05-21T07:32:46Z</time>
      </trkpt>
      <trkpt lat="48.0423" lon="-2.26746">
        <ele>117</ele>
        <time>2022-05-21T07:33:25Z</time>
      </trkpt>
      <trkpt lat="48.04295" lon="-2.2678">
        <ele>115</ele>
        <time>2022-05-21T07:33:38Z</time>
      </trkpt>
      <trkpt lat="48.04355" lon="-2.26822">
        <ele>115</ele>
        <time>2022-05-21T07:33:49Z</time>
      </trkpt>
      <trkpt lat="48.04384" lon="-2.26847">
        <ele>115</ele>
        <time>2022-05-21T07:33:55Z</time>
      </trkpt>
      <trkpt lat="48.04471" lon="-2.26908">
        <ele>109</ele>
        <time>2022-05-21T07:34:13Z</time>
      </trkpt>
      <trkpt lat="48.045" lon="-2.26923">
        <ele>106</ele>
        <time>2022-05-21T07:34:18Z</time>
      </trkpt>
      <trkpt lat="48.04527" lon="-2.26931">
        <ele>105</ele>
        <time>2022-05-21T07:34:23Z</time>
      </trkpt>
      <trkpt lat="48.04556" lon="-2.26933">
        <ele>103</ele>
        <time>2022-05-21T07:34:28Z</time>
      </trkpt>
      <trkpt lat="48.04662" lon="-2.26932">
        <ele>100</ele>
        <time>2022-05-21T07:34:47Z</time>
      </trkpt>
      <trkpt lat="48.04719" lon="-2.26934">
        <ele>97</ele>
        <time>2022-05-21T07:34:57Z</time>
      </trkpt>
      <trkpt lat="48.04757" lon="-2.26939">
        <ele>96</ele>
        <time>2022-05-21T07:35:04Z</time>
      </trkpt>
      <trkpt lat="48.04784" lon="-2.26935">
        <ele>95</ele>
        <time>2022-05-21T07:35:09Z</time>
      </trkpt>
      <trkpt lat="48.04817" lon="-2.26937">
        <ele>94</ele>
        <time>2022-05-21T07:35:15Z</time>
      </trkpt>
      <trkpt lat="48.04829" lon="-2.26933">
        <ele>94</ele>
        <time>2022-05-21T07:35:17Z</time>
      </trkpt>
      <trkpt lat="48.04835" lon="-2.2692">
        <ele>94</ele>
        <time>2022-05-21T07:35:19Z</time>
      </trkpt>
      <trkpt lat="48.04836" lon="-2.26889">
        <ele>95</ele>
        <time>2022-05-21T07:35:22Z</time>
      </trkpt>
      <trkpt lat="48.04842" lon="-2.26859">
        <ele>95</ele>
        <time>2022-05-21T07:35:26Z</time>
      </trkpt>
      <trkpt lat="48.04869" lon="-2.26774">
        <ele>94</ele>
        <time>2022-05-21T07:35:37Z</time>
      </trkpt>
      <trkpt lat="48.04874" lon="-2.26761">
        <ele>94</ele>
        <time>2022-05-21T07:35:39Z</time>
      </trkpt>
      <trkpt lat="48.04895" lon="-2.26726">
        <ele>95</ele>
        <time>2022-05-21T07:35:45Z</time>
      </trkpt>
      <trkpt lat="48.04921" lon="-2.26671">
        <ele>95</ele>
        <time>2022-05-21T07:35:53Z</time>
      </trkpt>
      <trkpt lat="48.04966" lon="-2.26587">
        <ele>98</ele>
        <time>2022-05-21T07:36:05Z</time>
      </trkpt>
      <trkpt lat="48.05147" lon="-2.26266">
        <ele>97</ele>
        <time>2022-05-21T07:36:55Z</time>
      </trkpt>
      <trkpt lat="48.05179" lon="-2.26213">
        <ele>96</ele>
        <time>2022-05-21T07:37:04Z</time>
      </trkpt>
      <trkpt lat="48.05296" lon="-2.25998">
        <ele>92</ele>
        <time>2022-05-21T07:37:37Z</time>
      </trkpt>
      <trkpt lat="48.0553" lon="-2.25585">
        <ele>97</ele>
        <time>2022-05-21T07:38:41Z</time>
      </trkpt>
      <trkpt lat="48.0559" lon="-2.25493">
        <ele>96</ele>
        <time>2022-05-21T07:38:57Z</time>
      </trkpt>
      <trkpt lat="48.05667" lon="-2.25394">
        <ele>96</ele>
        <time>2022-05-21T07:39:15Z</time>
      </trkpt>
      <trkpt lat="48.05683" lon="-2.25368">
        <ele>95</ele>
        <time>2022-05-21T07:39:19Z</time>
      </trkpt>
      <trkpt lat="48.05698" lon="-2.25335">
        <ele>94</ele>
        <time>2022-05-21T07:39:24Z</time>
      </trkpt>
      <trkpt lat="48.05722" lon="-2.25256">
        <ele>92</ele>
        <time>2022-05-21T07:39:34Z</time>
      </trkpt>
      <trkpt lat="48.05734" lon="-2.25194">
        <ele>91</ele>
        <time>2022-05-21T07:39:42Z</time>
      </trkpt>
      <trkpt lat="48.05755" lon="-2.24962">
        <ele>88</ele>
        <time>2022-05-21T07:40:09Z</time>
      </trkpt>
      <trkpt lat="48.05767" lon="-2.24901">
        <ele>86</ele>
        <time>2022-05-21T07:40:17Z</time>
      </trkpt>
      <trkpt lat="48.05792" lon="-2.24823">
        <ele>84</ele>
        <time>2022-05-21T07:40:27Z</time>
      </trkpt>
      <trkpt lat="48.05824" lon="-2.2474">
        <ele>83</ele>
        <time>2022-05-21T07:40:39Z</time>
      </trkpt>
      <trkpt lat="48.05846" lon="-2.2467">
        <ele>82</ele>
        <time>2022-05-21T07:40:48Z</time>
      </trkpt>
      <trkpt lat="48.05854" lon="-2.24632">
        <ele>83</ele>
        <time>2022-05-21T07:40:53Z</time>
      </trkpt>
      <trkpt lat="48.05857" lon="-2.24594">
        <ele>83</ele>
        <time>2022-05-21T07:40:57Z</time>
      </trkpt>
      <trkpt lat="48.05859" lon="-2.24537">
        <ele>83</ele>
        <time>2022-05-21T07:41:04Z</time>
      </trkpt>
      <trkpt lat="48.05856" lon="-2.24336">
        <ele>80</ele>
        <time>2022-05-21T07:41:28Z</time>
      </trkpt>
      <trkpt lat="48.05857" lon="-2.24178">
        <ele>80</ele>
        <time>2022-05-21T07:41:47Z</time>
      </trkpt>
      <trkpt lat="48.05854" lon="-2.24107">
        <ele>79</ele>
        <time>2022-05-21T07:41:55Z</time>
      </trkpt>
      <trkpt lat="48.0584" lon="-2.24009">
        <ele>79</ele>
        <time>2022-05-21T07:42:07Z</time>
      </trkpt>
      <trkpt lat="48.05792" lon="-2.23794">
        <ele>80</ele>
        <time>2022-05-21T07:42:34Z</time>
      </trkpt>
      <trkpt lat="48.05783" lon="-2.23747">
        <ele>81</ele>
        <time>2022-05-21T07:42:40Z</time>
      </trkpt>
      <trkpt lat="48.05783" lon="-2.23731">
        <ele>81</ele>
        <time>2022-05-21T07:42:42Z</time>
      </trkpt>
      <trkpt lat="48.05809" lon="-2.23339">
        <ele>80</ele>
        <time>2022-05-21T07:43:28Z</time>
      </trkpt>
      <trkpt lat="48.05822" lon="-2.23182">
        <ele>80</ele>
        <time>2022-05-21T07:43:47Z</time>
      </trkpt>
      <trkpt lat="48.0583" lon="-2.23039">
        <ele>81</ele>
        <time>2022-05-21T07:44:04Z</time>
      </trkpt>
      <trkpt lat="48.0584" lon="-2.22925">
        <ele>80</ele>
        <time>2022-05-21T07:44:18Z</time>
      </trkpt>
      <trkpt lat="48.05845" lon="-2.22828">
        <ele>79</ele>
        <time>2022-05-21T07:44:30Z</time>
      </trkpt>
      <trkpt lat="48.05865" lon="-2.22606">
        <ele>76</ele>
        <time>2022-05-21T07:44:56Z</time>
      </trkpt>
      <trkpt lat="48.05878" lon="-2.2243">
        <ele>75</ele>
        <time>2022-05-21T07:45:17Z</time>
      </trkpt>
      <trkpt lat="48.05886" lon="-2.22381">
        <ele>76</ele>
        <time>2022-05-21T07:45:23Z</time>
      </trkpt>
      <trkpt lat="48.05898" lon="-2.22336">
        <ele>76</ele>
        <time>2022-05-21T07:45:29Z</time>
      </trkpt>
      <trkpt lat="48.05967" lon="-2.22167">
        <ele>79</ele>
        <time>2022-05-21T07:45:53Z</time>
      </trkpt>
      <trkpt lat="48.05987" lon="-2.2213">
        <ele>80</ele>
        <time>2022-05-21T07:45:58Z</time>
      </trkpt>
      <trkpt lat="48.05995" lon="-2.2212">
        <ele>80</ele>
        <time>2022-05-21T07:46:00Z</time>
      </trkpt>
      <trkpt lat="48.06021" lon="-2.22099">
        <ele>82</ele>
        <time>2022-05-21T07:46:05Z</time>
      </trkpt>
      <trkpt lat="48.05991" lon="-2.22128">
        <ele>80</ele>
        <time>2022-05-21T07:46:12Z</time>
      </trkpt>
      <trkpt lat="48.0597" lon="-2.22159">
        <ele>79</ele>
        <time>2022-05-21T07:46:17Z</time>
      </trkpt>
      <trkpt lat="48.05923" lon="-2.22279">
        <ele>77</ele>
        <time>2022-05-21T07:46:34Z</time>
      </trkpt>
      <trkpt lat="48.05903" lon="-2.22318">
        <ele>76</ele>
        <time>2022-05-21T07:46:39Z</time>
      </trkpt>
      <trkpt lat="48.05902" lon="-2.22333">
        <ele>76</ele>
        <time>2022-05-21T07:46:41Z</time>
      </trkpt>
      <trkpt lat="48.05896" lon="-2.22347">
        <ele>76</ele>
        <time>2022-05-21T07:46:43Z</time>
      </trkpt>
      <trkpt lat="48.05885" lon="-2.2239">
        <ele>76</ele>
        <time>2022-05-21T07:46:49Z</time>
      </trkpt>
      <trkpt lat="48.0587" lon="-2.22544">
        <ele>75</ele>
        <time>2022-05-21T07:47:07Z</time>
      </trkpt>
      <trkpt lat="48.05859" lon="-2.22553">
        <ele>75</ele>
        <time>2022-05-21T07:47:09Z</time>
      </trkpt>
      <trkpt lat="48.05804" lon="-2.22549">
        <ele>77</ele>
        <time>2022-05-21T07:47:19Z</time>
      </trkpt>
      <trkpt lat="48.05794" lon="-2.22554">
        <ele>77</ele>
        <time>2022-05-21T07:47:21Z</time>
      </trkpt>
      <trkpt lat="48.05769" lon="-2.2258">
        <ele>78</ele>
        <time>2022-05-21T07:47:26Z</time>
      </trkpt>
      <trkpt lat="48.05729" lon="-2.22631">
        <ele>80</ele>
        <time>2022-05-21T07:47:36Z</time>
      </trkpt>
      <trkpt lat="48.05712" lon="-2.22648">
        <ele>80</ele>
        <time>2022-05-21T07:47:39Z</time>
      </trkpt>
      <trkpt lat="48.0568" lon="-2.22668">
        <ele>80</ele>
        <time>2022-05-21T07:47:46Z</time>
      </trkpt>
      <trkpt lat="48.05671" lon="-2.22666">
        <ele>80</ele>
        <time>2022-05-21T07:47:47Z</time>
      </trkpt>
      <trkpt lat="48.05656" lon="-2.22645">
        <ele>81</ele>
        <time>2022-05-21T07:47:51Z</time>
      </trkpt>
      <trkpt lat="48.05648" lon="-2.22638">
        <ele>82</ele>
        <time>2022-05-21T07:47:53Z</time>
      </trkpt>
      <trkpt lat="48.05645" lon="-2.22652">
        <ele>82</ele>
        <time>2022-05-21T07:47:54Z</time>
      </trkpt>
      <trkpt lat="48.05666" lon="-2.22656">
        <ele>80</ele>
        <time>2022-05-21T07:47:58Z</time>
      </trkpt>
      <trkpt lat="48.05677" lon="-2.22667">
        <ele>80</ele>
        <time>2022-05-21T07:48:00Z</time>
      </trkpt>
      <trkpt lat="48.05688" lon="-2.22673">
        <ele>80</ele>
        <time>2022-05-21T07:48:02Z</time>
      </trkpt>
      <trkpt lat="48.05719" lon="-2.2265">
        <ele>80</ele>
        <time>2022-05-21T07:48:09Z</time>
      </trkpt>
      <trkpt lat="48.05769" lon="-2.22587">
        <ele>79</ele>
        <time>2022-05-21T07:48:20Z</time>
      </trkpt>
      <trkpt lat="48.05801" lon="-2.22559">
        <ele>77</ele>
        <time>2022-05-21T07:48:27Z</time>
      </trkpt>
      <trkpt lat="48.05823" lon="-2.22564">
        <ele>77</ele>
        <time>2022-05-21T07:48:31Z</time>
      </trkpt>
      <trkpt lat="48.05836" lon="-2.2256">
        <ele>76</ele>
        <time>2022-05-21T07:48:33Z</time>
      </trkpt>
      <trkpt lat="48.05858" lon="-2.22562">
        <ele>76</ele>
        <time>2022-05-21T07:48:37Z</time>
      </trkpt>
      <trkpt lat="48.05868" lon="-2.22556">
        <ele>75</ele>
        <time>2022-05-21T07:48:39Z</time>
      </trkpt>
      <trkpt lat="48.05875" lon="-2.22503">
        <ele>74</ele>
        <time>2022-05-21T07:48:45Z</time>
      </trkpt>
      <trkpt lat="48.05878" lon="-2.22434">
        <ele>75</ele>
        <time>2022-05-21T07:48:54Z</time>
      </trkpt>
      <trkpt lat="48.05887" lon="-2.22374">
        <ele>76</ele>
        <time>2022-05-21T07:49:01Z</time>
      </trkpt>
      <trkpt lat="48.05904" lon="-2.22321">
        <ele>76</ele>
        <time>2022-05-21T07:49:08Z</time>
      </trkpt>
      <trkpt lat="48.05976" lon="-2.2215">
        <ele>79</ele>
        <time>2022-05-21T07:49:32Z</time>
      </trkpt>
      <trkpt lat="48.05998" lon="-2.22119">
        <ele>80</ele>
        <time>2022-05-21T07:49:37Z</time>
      </trkpt>
      <trkpt lat="48.06025" lon="-2.22098">
        <ele>82</ele>
        <time>2022-05-21T07:49:43Z</time>
      </trkpt>
      <trkpt lat="48.06054" lon="-2.22085">
        <ele>84</ele>
        <time>2022-05-21T07:49:48Z</time>
      </trkpt>
      <trkpt lat="48.06094" lon="-2.22077">
        <ele>86</ele>
        <time>2022-05-21T07:49:55Z</time>
      </trkpt>
      <trkpt lat="48.06104" lon="-2.22077">
        <ele>87</ele>
        <time>2022-05-21T07:49:57Z</time>
      </trkpt>
      <trkpt lat="48.06132" lon="-2.22068">
        <ele>88</ele>
        <time>2022-05-21T07:50:02Z</time>
      </trkpt>
      <trkpt lat="48.06142" lon="-2.2206">
        <ele>88</ele>
        <time>2022-05-21T07:50:04Z</time>
      </trkpt>
      <trkpt lat="48.0615" lon="-2.22049">
        <ele>89</ele>
        <time>2022-05-21T07:50:06Z</time>
      </trkpt>
      <trkpt lat="48.06154" lon="-2.22036">
        <ele>89</ele>
        <time>2022-05-21T07:50:08Z</time>
      </trkpt>
      <trkpt lat="48.06156" lon="-2.21872">
        <ele>88</ele>
        <time>2022-05-21T07:50:27Z</time>
      </trkpt>
      <trkpt lat="48.0619" lon="-2.21569">
        <ele>84</ele>
        <time>2022-05-21T07:51:04Z</time>
      </trkpt>
      <trkpt lat="48.06205" lon="-2.21405">
        <ele>83</ele>
        <time>2022-05-21T07:51:24Z</time>
      </trkpt>
      <trkpt lat="48.06211" lon="-2.21376">
        <ele>83</ele>
        <time>2022-05-21T07:51:27Z</time>
      </trkpt>
      <trkpt lat="48.06272" lon="-2.21201">
        <ele>84</ele>
        <time>2022-05-21T07:51:51Z</time>
      </trkpt>
      <trkpt lat="48.06288" lon="-2.21148">
        <ele>86</ele>
        <time>2022-05-21T07:51:58Z</time>
      </trkpt>
      <trkpt lat="48.06301" lon="-2.21013">
        <ele>90</ele>
        <time>2022-05-21T07:52:14Z</time>
      </trkpt>
      <trkpt lat="48.06303" lon="-2.20851">
        <ele>94</ele>
        <time>2022-05-21T07:52:33Z</time>
      </trkpt>
      <trkpt lat="48.06311" lon="-2.20823">
        <ele>95</ele>
        <time>2022-05-21T07:52:37Z</time>
      </trkpt>
      <trkpt lat="48.06324" lon="-2.20801">
        <ele>97</ele>
        <time>2022-05-21T07:52:40Z</time>
      </trkpt>
      <trkpt lat="48.06332" lon="-2.20794">
        <ele>97</ele>
        <time>2022-05-21T07:52:42Z</time>
      </trkpt>
      <trkpt lat="48.06342" lon="-2.2079">
        <ele>97</ele>
        <time>2022-05-21T07:52:44Z</time>
      </trkpt>
      <trkpt lat="48.06332" lon="-2.20792">
        <ele>97</ele>
        <time>2022-05-21T07:52:46Z</time>
      </trkpt>
      <trkpt lat="48.06324" lon="-2.20801">
        <ele>97</ele>
        <time>2022-05-21T07:52:47Z</time>
      </trkpt>
      <trkpt lat="48.06313" lon="-2.20827">
        <ele>95</ele>
        <time>2022-05-21T07:52:51Z</time>
      </trkpt>
      <trkpt lat="48.06309" lon="-2.2084">
        <ele>95</ele>
        <time>2022-05-21T07:52:53Z</time>
      </trkpt>
      <trkpt lat="48.06305" lon="-2.20871">
        <ele>94</ele>
        <time>2022-05-21T07:52:56Z</time>
      </trkpt>
      <trkpt lat="48.06306" lon="-2.20888">
        <ele>93</ele>
        <time>2022-05-21T07:52:58Z</time>
      </trkpt>
      <trkpt lat="48.06302" lon="-2.20872">
        <ele>94</ele>
        <time>2022-05-21T07:53:00Z</time>
      </trkpt>
      <trkpt lat="48.06303" lon="-2.20857">
        <ele>94</ele>
        <time>2022-05-21T07:53:02Z</time>
      </trkpt>
      <trkpt lat="48.06305" lon="-2.20924">
        <ele>92</ele>
        <time>2022-05-21T07:53:10Z</time>
      </trkpt>
      <trkpt lat="48.06305" lon="-2.20896">
        <ele>93</ele>
        <time>2022-05-21T07:53:14Z</time>
      </trkpt>
      <trkpt lat="48.06301" lon="-2.2088">
        <ele>93</ele>
        <time>2022-05-21T07:53:16Z</time>
      </trkpt>
      <trkpt lat="48.06304" lon="-2.20848">
        <ele>94</ele>
        <time>2022-05-21T07:53:19Z</time>
      </trkpt>
      <trkpt lat="48.06317" lon="-2.20811">
        <ele>96</ele>
        <time>2022-05-21T07:53:24Z</time>
      </trkpt>
      <trkpt lat="48.06324" lon="-2.20802">
        <ele>96</ele>
        <time>2022-05-21T07:53:26Z</time>
      </trkpt>
      <trkpt lat="48.06341" lon="-2.2079">
        <ele>97</ele>
        <time>2022-05-21T07:53:29Z</time>
      </trkpt>
      <trkpt lat="48.0637" lon="-2.20785">
        <ele>98</ele>
        <time>2022-05-21T07:53:35Z</time>
      </trkpt>
      <trkpt lat="48.06379" lon="-2.20787">
        <ele>98</ele>
        <time>2022-05-21T07:53:36Z</time>
      </trkpt>
      <trkpt lat="48.06389" lon="-2.20786">
        <ele>98</ele>
        <time>2022-05-21T07:53:38Z</time>
      </trkpt>
      <trkpt lat="48.06419" lon="-2.20778">
        <ele>99</ele>
        <time>2022-05-21T07:53:43Z</time>
      </trkpt>
      <trkpt lat="48.06427" lon="-2.20769">
        <ele>99</ele>
        <time>2022-05-21T07:53:45Z</time>
      </trkpt>
      <trkpt lat="48.06432" lon="-2.20728">
        <ele>101</ele>
        <time>2022-05-21T07:53:50Z</time>
      </trkpt>
      <trkpt lat="48.0643" lon="-2.20714">
        <ele>102</ele>
        <time>2022-05-21T07:53:52Z</time>
      </trkpt>
      <trkpt lat="48.06406" lon="-2.20689">
        <ele>103</ele>
        <time>2022-05-21T07:53:57Z</time>
      </trkpt>
      <trkpt lat="48.06383" lon="-2.20658">
        <ele>103</ele>
        <time>2022-05-21T07:54:03Z</time>
      </trkpt>
      <trkpt lat="48.06382" lon="-2.20643">
        <ele>103</ele>
        <time>2022-05-21T07:54:04Z</time>
      </trkpt>
      <trkpt lat="48.06385" lon="-2.20613">
        <ele>104</ele>
        <time>2022-05-21T07:54:08Z</time>
      </trkpt>
      <trkpt lat="48.06377" lon="-2.20588">
        <ele>104</ele>
        <time>2022-05-21T07:54:11Z</time>
      </trkpt>
      <trkpt lat="48.06377" lon="-2.20546">
        <ele>104</ele>
        <time>2022-05-21T07:54:16Z</time>
      </trkpt>
      <trkpt lat="48.06379" lon="-2.20559">
        <ele>104</ele>
        <time>2022-05-21T07:54:18Z</time>
      </trkpt>
      <trkpt lat="48.06375" lon="-2.20572">
        <ele>104</ele>
        <time>2022-05-21T07:54:20Z</time>
      </trkpt>
      <trkpt lat="48.06383" lon="-2.20584">
        <ele>104</ele>
        <time>2022-05-21T07:54:22Z</time>
      </trkpt>
      <trkpt lat="48.06373" lon="-2.20625">
        <ele>103</ele>
        <time>2022-05-21T07:54:27Z</time>
      </trkpt>
      <trkpt lat="48.06376" lon="-2.20661">
        <ele>103</ele>
        <time>2022-05-21T07:54:31Z</time>
      </trkpt>
      <trkpt lat="48.06393" lon="-2.20684">
        <ele>103</ele>
        <time>2022-05-21T07:54:35Z</time>
      </trkpt>
      <trkpt lat="48.06385" lon="-2.2076">
        <ele>99</ele>
        <time>2022-05-21T07:54:44Z</time>
      </trkpt>
      <trkpt lat="48.06392" lon="-2.20772">
        <ele>99</ele>
        <time>2022-05-21T07:54:46Z</time>
      </trkpt>
      <trkpt lat="48.06402" lon="-2.20775">
        <ele>99</ele>
        <time>2022-05-21T07:54:48Z</time>
      </trkpt>
      <trkpt lat="48.0643" lon="-2.20777">
        <ele>98</ele>
        <time>2022-05-21T07:54:53Z</time>
      </trkpt>
      <trkpt lat="48.06435" lon="-2.2073">
        <ele>101</ele>
        <time>2022-05-21T07:54:59Z</time>
      </trkpt>
      <trkpt lat="48.06431" lon="-2.20715">
        <ele>102</ele>
        <time>2022-05-21T07:55:01Z</time>
      </trkpt>
      <trkpt lat="48.06422" lon="-2.20706">
        <ele>102</ele>
        <time>2022-05-21T07:55:02Z</time>
      </trkpt>
      <trkpt lat="48.06402" lon="-2.20696">
        <ele>102</ele>
        <time>2022-05-21T07:55:06Z</time>
      </trkpt>
      <trkpt lat="48.06383" lon="-2.20681">
        <ele>103</ele>
        <time>2022-05-21T07:55:10Z</time>
      </trkpt>
      <trkpt lat="48.06379" lon="-2.20666">
        <ele>103</ele>
        <time>2022-05-21T07:55:12Z</time>
      </trkpt>
      <trkpt lat="48.06381" lon="-2.20635">
        <ele>103</ele>
        <time>2022-05-21T07:55:16Z</time>
      </trkpt>
      <trkpt lat="48.06379" lon="-2.2053">
        <ele>104</ele>
        <time>2022-05-21T07:55:28Z</time>
      </trkpt>
      <trkpt lat="48.06402" lon="-2.20372">
        <ele>107</ele>
        <time>2022-05-21T07:55:47Z</time>
      </trkpt>
      <trkpt lat="48.06458" lon="-2.2015">
        <ele>116</ele>
        <time>2022-05-21T07:56:16Z</time>
      </trkpt>
      <trkpt lat="48.06493" lon="-2.20024">
        <ele>119</ele>
        <time>2022-05-21T07:56:32Z</time>
      </trkpt>
      <trkpt lat="48.06499" lon="-2.20013">
        <ele>119</ele>
        <time>2022-05-21T07:56:34Z</time>
      </trkpt>
      <trkpt lat="48.06501" lon="-2.19997">
        <ele>119</ele>
        <time>2022-05-21T07:56:35Z</time>
      </trkpt>
      <trkpt lat="48.06521" lon="-2.19927">
        <ele>118</ele>
        <time>2022-05-21T07:56:45Z</time>
      </trkpt>
      <trkpt lat="48.06523" lon="-2.19912">
        <ele>118</ele>
        <time>2022-05-21T07:56:46Z</time>
      </trkpt>
      <trkpt lat="48.06536" lon="-2.19871">
        <ele>117</ele>
        <time>2022-05-21T07:56:52Z</time>
      </trkpt>
      <trkpt lat="48.06552" lon="-2.19798">
        <ele>117</ele>
        <time>2022-05-21T07:57:01Z</time>
      </trkpt>
      <trkpt lat="48.06558" lon="-2.19784">
        <ele>116</ele>
        <time>2022-05-21T07:57:03Z</time>
      </trkpt>
      <trkpt lat="48.06578" lon="-2.19688">
        <ele>116</ele>
        <time>2022-05-21T07:57:15Z</time>
      </trkpt>
      <trkpt lat="48.06591" lon="-2.19539">
        <ele>115</ele>
        <time>2022-05-21T07:57:33Z</time>
      </trkpt>
      <trkpt lat="48.06592" lon="-2.19459">
        <ele>117</ele>
        <time>2022-05-21T07:57:42Z</time>
      </trkpt>
      <trkpt lat="48.06597" lon="-2.19398">
        <ele>118</ele>
        <time>2022-05-21T07:57:49Z</time>
      </trkpt>
      <trkpt lat="48.06599" lon="-2.19303">
        <ele>121</ele>
        <time>2022-05-21T07:58:01Z</time>
      </trkpt>
      <trkpt lat="48.06603" lon="-2.19271">
        <ele>121</ele>
        <time>2022-05-21T07:58:05Z</time>
      </trkpt>
      <trkpt lat="48.06602" lon="-2.19254">
        <ele>122</ele>
        <time>2022-05-21T07:58:07Z</time>
      </trkpt>
      <trkpt lat="48.06608" lon="-2.19163">
        <ele>121</ele>
        <time>2022-05-21T07:58:18Z</time>
      </trkpt>
      <trkpt lat="48.0661" lon="-2.19052">
        <ele>120</ele>
        <time>2022-05-21T07:58:31Z</time>
      </trkpt>
      <trkpt lat="48.06613" lon="-2.18998">
        <ele>118</ele>
        <time>2022-05-21T07:58:37Z</time>
      </trkpt>
      <trkpt lat="48.06619" lon="-2.18954">
        <ele>118</ele>
        <time>2022-05-21T07:58:43Z</time>
      </trkpt>
      <trkpt lat="48.06618" lon="-2.1894">
        <ele>118</ele>
        <time>2022-05-21T07:58:44Z</time>
      </trkpt>
      <trkpt lat="48.06611" lon="-2.18931">
        <ele>118</ele>
        <time>2022-05-21T07:58:46Z</time>
      </trkpt>
      <trkpt lat="48.06599" lon="-2.18903">
        <ele>117</ele>
        <time>2022-05-21T07:58:50Z</time>
      </trkpt>
      <trkpt lat="48.06545" lon="-2.18837">
        <ele>117</ele>
        <time>2022-05-21T07:59:02Z</time>
      </trkpt>
      <trkpt lat="48.06534" lon="-2.18832">
        <ele>118</ele>
        <time>2022-05-21T07:59:04Z</time>
      </trkpt>
      <trkpt lat="48.06468" lon="-2.18749">
        <ele>118</ele>
        <time>2022-05-21T07:59:20Z</time>
      </trkpt>
      <trkpt lat="48.06452" lon="-2.18724">
        <ele>117</ele>
        <time>2022-05-21T07:59:24Z</time>
      </trkpt>
      <trkpt lat="48.06414" lon="-2.1868">
        <ele>116</ele>
        <time>2022-05-21T07:59:32Z</time>
      </trkpt>
      <trkpt lat="48.06364" lon="-2.18611">
        <ele>117</ele>
        <time>2022-05-21T07:59:44Z</time>
      </trkpt>
      <trkpt lat="48.06321" lon="-2.18562">
        <ele>117</ele>
        <time>2022-05-21T07:59:54Z</time>
      </trkpt>
      <trkpt lat="48.06302" lon="-2.18544">
        <ele>117</ele>
        <time>2022-05-21T07:59:58Z</time>
      </trkpt>
      <trkpt lat="48.0627" lon="-2.18519">
        <ele>116</ele>
        <time>2022-05-21T08:00:04Z</time>
      </trkpt>
      <trkpt lat="48.06196" lon="-2.18472">
        <ele>116</ele>
        <time>2022-05-21T08:00:19Z</time>
      </trkpt>
      <trkpt lat="48.06167" lon="-2.18461">
        <ele>116</ele>
        <time>2022-05-21T08:00:24Z</time>
      </trkpt>
      <trkpt lat="48.06056" lon="-2.18435">
        <ele>116</ele>
        <time>2022-05-21T08:00:44Z</time>
      </trkpt>
      <trkpt lat="48.06004" lon="-2.18434">
        <ele>117</ele>
        <time>2022-05-21T08:00:53Z</time>
      </trkpt>
      <trkpt lat="48.05968" lon="-2.18439">
        <ele>117</ele>
        <time>2022-05-21T08:01:00Z</time>
      </trkpt>
      <trkpt lat="48.05947" lon="-2.18445">
        <ele>116</ele>
        <time>2022-05-21T08:01:04Z</time>
      </trkpt>
      <trkpt lat="48.05928" lon="-2.18456">
        <ele>116</ele>
        <time>2022-05-21T08:01:07Z</time>
      </trkpt>
      <trkpt lat="48.05912" lon="-2.18473">
        <ele>116</ele>
        <time>2022-05-21T08:01:11Z</time>
      </trkpt>
      <trkpt lat="48.05876" lon="-2.18523">
        <ele>116</ele>
        <time>2022-05-21T08:01:19Z</time>
      </trkpt>
      <trkpt lat="48.05831" lon="-2.18567">
        <ele>116</ele>
        <time>2022-05-21T08:01:29Z</time>
      </trkpt>
      <trkpt lat="48.05805" lon="-2.18599">
        <ele>116</ele>
        <time>2022-05-21T08:01:35Z</time>
      </trkpt>
      <trkpt lat="48.05794" lon="-2.18606">
        <ele>116</ele>
        <time>2022-05-21T08:01:37Z</time>
      </trkpt>
      <trkpt lat="48.05772" lon="-2.18614">
        <ele>115</ele>
        <time>2022-05-21T08:01:41Z</time>
      </trkpt>
      <trkpt lat="48.05761" lon="-2.18614">
        <ele>115</ele>
        <time>2022-05-21T08:01:43Z</time>
      </trkpt>
      <trkpt lat="48.05631" lon="-2.18658">
        <ele>117</ele>
        <time>2022-05-21T08:02:07Z</time>
      </trkpt>
      <trkpt lat="48.05607" lon="-2.18665">
        <ele>119</ele>
        <time>2022-05-21T08:02:11Z</time>
      </trkpt>
      <trkpt lat="48.05578" lon="-2.1867">
        <ele>120</ele>
        <time>2022-05-21T08:02:16Z</time>
      </trkpt>
      <trkpt lat="48.05512" lon="-2.18664">
        <ele>119</ele>
        <time>2022-05-21T08:02:28Z</time>
      </trkpt>
      <trkpt lat="48.05501" lon="-2.1866">
        <ele>119</ele>
        <time>2022-05-21T08:02:30Z</time>
      </trkpt>
      <trkpt lat="48.05471" lon="-2.18656">
        <ele>120</ele>
        <time>2022-05-21T08:02:35Z</time>
      </trkpt>
      <trkpt lat="48.0545" lon="-2.18649">
        <ele>121</ele>
        <time>2022-05-21T08:02:39Z</time>
      </trkpt>
      <trkpt lat="48.05432" lon="-2.18649">
        <ele>121</ele>
        <time>2022-05-21T08:02:42Z</time>
      </trkpt>
      <trkpt lat="48.05364" lon="-2.18634">
        <ele>124</ele>
        <time>2022-05-21T08:02:55Z</time>
      </trkpt>
      <trkpt lat="48.05167" lon="-2.18577">
        <ele>131</ele>
        <time>2022-05-21T08:03:30Z</time>
      </trkpt>
      <trkpt lat="48.05158" lon="-2.18574">
        <ele>132</ele>
        <time>2022-05-21T08:03:32Z</time>
      </trkpt>
      <trkpt lat="48.05151" lon="-2.18565">
        <ele>132</ele>
        <time>2022-05-21T08:03:34Z</time>
      </trkpt>
      <trkpt lat="48.0512" lon="-2.18553">
        <ele>133</ele>
        <time>2022-05-21T08:03:39Z</time>
      </trkpt>
      <trkpt lat="48.051" lon="-2.18548">
        <ele>134</ele>
        <time>2022-05-21T08:03:43Z</time>
      </trkpt>
      <trkpt lat="48.05069" lon="-2.18547">
        <ele>135</ele>
        <time>2022-05-21T08:03:49Z</time>
      </trkpt>
      <trkpt lat="48.05039" lon="-2.18549">
        <ele>136</ele>
        <time>2022-05-21T08:03:54Z</time>
      </trkpt>
      <trkpt lat="48.04956" lon="-2.18561">
        <ele>138</ele>
        <time>2022-05-21T08:04:09Z</time>
      </trkpt>
      <trkpt lat="48.04894" lon="-2.18564">
        <ele>140</ele>
        <time>2022-05-21T08:04:20Z</time>
      </trkpt>
      <trkpt lat="48.04765" lon="-2.18565">
        <ele>145</ele>
        <time>2022-05-21T08:04:43Z</time>
      </trkpt>
      <trkpt lat="48.04733" lon="-2.1856">
        <ele>146</ele>
        <time>2022-05-21T08:04:48Z</time>
      </trkpt>
      <trkpt lat="48.04659" lon="-2.18536">
        <ele>148</ele>
        <time>2022-05-21T08:05:02Z</time>
      </trkpt>
      <trkpt lat="48.04558" lon="-2.18492">
        <ele>152</ele>
        <time>2022-05-21T08:05:21Z</time>
      </trkpt>
      <trkpt lat="48.04495" lon="-2.18452">
        <ele>154</ele>
        <time>2022-05-21T08:05:33Z</time>
      </trkpt>
      <trkpt lat="48.04438" lon="-2.18427">
        <ele>156</ele>
        <time>2022-05-21T08:05:43Z</time>
      </trkpt>
      <trkpt lat="48.04331" lon="-2.18393">
        <ele>162</ele>
        <time>2022-05-21T08:06:03Z</time>
      </trkpt>
      <trkpt lat="48.04321" lon="-2.18393">
        <ele>163</ele>
        <time>2022-05-21T08:06:05Z</time>
      </trkpt>
      <trkpt lat="48.04227" lon="-2.18369">
        <ele>166</ele>
        <time>2022-05-21T08:06:22Z</time>
      </trkpt>
      <trkpt lat="48.0408" lon="-2.18318">
        <ele>171</ele>
        <time>2022-05-21T08:06:48Z</time>
      </trkpt>
      <trkpt lat="48.04039" lon="-2.183">
        <ele>172</ele>
        <time>2022-05-21T08:06:56Z</time>
      </trkpt>
      <trkpt lat="48.03982" lon="-2.18266">
        <ele>172</ele>
        <time>2022-05-21T08:07:07Z</time>
      </trkpt>
      <trkpt lat="48.03919" lon="-2.18223">
        <ele>172</ele>
        <time>2022-05-21T08:07:19Z</time>
      </trkpt>
      <trkpt lat="48.03893" lon="-2.18201">
        <ele>171</ele>
        <time>2022-05-21T08:07:25Z</time>
      </trkpt>
      <trkpt lat="48.03825" lon="-2.18131">
        <ele>169</ele>
        <time>2022-05-21T08:07:39Z</time>
      </trkpt>
      <trkpt lat="48.03792" lon="-2.18101">
        <ele>169</ele>
        <time>2022-05-21T08:07:46Z</time>
      </trkpt>
      <trkpt lat="48.03768" lon="-2.18084">
        <ele>169</ele>
        <time>2022-05-21T08:07:51Z</time>
      </trkpt>
      <trkpt lat="48.03268" lon="-2.17772">
        <ele>169</ele>
        <time>2022-05-21T08:09:27Z</time>
      </trkpt>
      <trkpt lat="48.03227" lon="-2.17743">
        <ele>170</ele>
        <time>2022-05-21T08:09:35Z</time>
      </trkpt>
      <trkpt lat="48.03207" lon="-2.17734">
        <ele>171</ele>
        <time>2022-05-21T08:09:39Z</time>
      </trkpt>
      <trkpt lat="48.02821" lon="-2.17492">
        <ele>167</ele>
        <time>2022-05-21T08:10:54Z</time>
      </trkpt>
      <trkpt lat="48.02697" lon="-2.17411">
        <ele>163</ele>
        <time>2022-05-21T08:11:18Z</time>
      </trkpt>
      <trkpt lat="48.02611" lon="-2.17358">
        <ele>165</ele>
        <time>2022-05-21T08:11:34Z</time>
      </trkpt>
      <trkpt lat="48.02603" lon="-2.17351">
        <ele>165</ele>
        <time>2022-05-21T08:11:36Z</time>
      </trkpt>
      <trkpt lat="48.02573" lon="-2.17335">
        <ele>166</ele>
        <time>2022-05-21T08:11:41Z</time>
      </trkpt>
      <trkpt lat="48.02564" lon="-2.17327">
        <ele>165</ele>
        <time>2022-05-21T08:11:43Z</time>
      </trkpt>
      <trkpt lat="48.02533" lon="-2.17312">
        <ele>164</ele>
        <time>2022-05-21T08:11:49Z</time>
      </trkpt>
      <trkpt lat="48.025" lon="-2.17303">
        <ele>162</ele>
        <time>2022-05-21T08:11:55Z</time>
      </trkpt>
      <trkpt lat="48.0247" lon="-2.17288">
        <ele>162</ele>
        <time>2022-05-21T08:12:01Z</time>
      </trkpt>
      <trkpt lat="48.02428" lon="-2.17274">
        <ele>162</ele>
        <time>2022-05-21T08:12:08Z</time>
      </trkpt>
      <trkpt lat="48.02417" lon="-2.17267">
        <ele>162</ele>
        <time>2022-05-21T08:12:11Z</time>
      </trkpt>
      <trkpt lat="48.02375" lon="-2.17253">
        <ele>161</ele>
        <time>2022-05-21T08:12:18Z</time>
      </trkpt>
      <trkpt lat="48.02353" lon="-2.17243">
        <ele>160</ele>
        <time>2022-05-21T08:12:22Z</time>
      </trkpt>
      <trkpt lat="48.0232" lon="-2.17236">
        <ele>160</ele>
        <time>2022-05-21T08:12:28Z</time>
      </trkpt>
      <trkpt lat="48.02246" lon="-2.17209">
        <ele>157</ele>
        <time>2022-05-21T08:12:42Z</time>
      </trkpt>
      <trkpt lat="48.02202" lon="-2.1719">
        <ele>156</ele>
        <time>2022-05-21T08:12:50Z</time>
      </trkpt>
      <trkpt lat="48.02167" lon="-2.17166">
        <ele>155</ele>
        <time>2022-05-21T08:12:57Z</time>
      </trkpt>
      <trkpt lat="48.02141" lon="-2.17136">
        <ele>154</ele>
        <time>2022-05-21T08:13:03Z</time>
      </trkpt>
      <trkpt lat="48.02136" lon="-2.17124">
        <ele>154</ele>
        <time>2022-05-21T08:13:04Z</time>
      </trkpt>
      <trkpt lat="48.0212" lon="-2.17108">
        <ele>153</ele>
        <time>2022-05-21T08:13:08Z</time>
      </trkpt>
      <trkpt lat="48.02079" lon="-2.171">
        <ele>152</ele>
        <time>2022-05-21T08:13:15Z</time>
      </trkpt>
      <trkpt lat="48.0203" lon="-2.17096">
        <ele>152</ele>
        <time>2022-05-21T08:13:24Z</time>
      </trkpt>
      <trkpt lat="48.01998" lon="-2.17096">
        <ele>151</ele>
        <time>2022-05-21T08:13:29Z</time>
      </trkpt>
      <trkpt lat="48.01988" lon="-2.17098">
        <ele>152</ele>
        <time>2022-05-21T08:13:31Z</time>
      </trkpt>
      <trkpt lat="48.01982" lon="-2.17132">
        <ele>153</ele>
        <time>2022-05-21T08:13:35Z</time>
      </trkpt>
      <trkpt lat="48.01974" lon="-2.17119">
        <ele>153</ele>
        <time>2022-05-21T08:13:38Z</time>
      </trkpt>
      <trkpt lat="48.01976" lon="-2.1709">
        <ele>153</ele>
        <time>2022-05-21T08:13:41Z</time>
      </trkpt>
      <trkpt lat="48.01937" lon="-2.17083">
        <ele>156</ele>
        <time>2022-05-21T08:13:48Z</time>
      </trkpt>
      <trkpt lat="48.01931" lon="-2.17095">
        <ele>156</ele>
        <time>2022-05-21T08:13:50Z</time>
      </trkpt>
      <trkpt lat="48.01921" lon="-2.17138">
        <ele>157</ele>
        <time>2022-05-21T08:13:55Z</time>
      </trkpt>
      <trkpt lat="48.01909" lon="-2.17225">
        <ele>156</ele>
        <time>2022-05-21T08:14:06Z</time>
      </trkpt>
      <trkpt lat="48.01886" lon="-2.1733">
        <ele>155</ele>
        <time>2022-05-21T08:14:19Z</time>
      </trkpt>
      <trkpt lat="48.01881" lon="-2.17317">
        <ele>155</ele>
        <time>2022-05-21T08:14:21Z</time>
      </trkpt>
      <trkpt lat="48.01882" lon="-2.17344">
        <ele>154</ele>
        <time>2022-05-21T08:14:24Z</time>
      </trkpt>
      <trkpt lat="48.01865" lon="-2.1733">
        <ele>154</ele>
        <time>2022-05-21T08:14:27Z</time>
      </trkpt>
      <trkpt lat="48.01872" lon="-2.17342">
        <ele>154</ele>
        <time>2022-05-21T08:14:29Z</time>
      </trkpt>
      <trkpt lat="48.0188" lon="-2.17337">
        <ele>154</ele>
        <time>2022-05-21T08:14:31Z</time>
      </trkpt>
      <trkpt lat="48.01897" lon="-2.17333">
        <ele>155</ele>
        <time>2022-05-21T08:14:34Z</time>
      </trkpt>
      <trkpt lat="48.0188" lon="-2.17343">
        <ele>154</ele>
        <time>2022-05-21T08:14:37Z</time>
      </trkpt>
      <trkpt lat="48.01871" lon="-2.17338">
        <ele>154</ele>
        <time>2022-05-21T08:14:39Z</time>
      </trkpt>
      <trkpt lat="48.0187" lon="-2.17325">
        <ele>155</ele>
        <time>2022-05-21T08:14:40Z</time>
      </trkpt>
      <trkpt lat="48.01863" lon="-2.17344">
        <ele>154</ele>
        <time>2022-05-21T08:14:43Z</time>
      </trkpt>
      <trkpt lat="48.01867" lon="-2.17342">
        <ele>154</ele>
        <time>2022-05-21T08:14:44Z</time>
      </trkpt>
      <trkpt lat="48.01773" lon="-2.17286">
        <ele>152</ele>
        <time>2022-05-21T08:15:02Z</time>
      </trkpt>
      <trkpt lat="48.0177" lon="-2.1727">
        <ele>153</ele>
        <time>2022-05-21T08:15:04Z</time>
      </trkpt>
      <trkpt lat="48.01776" lon="-2.1726">
        <ele>154</ele>
        <time>2022-05-21T08:15:05Z</time>
      </trkpt>
      <trkpt lat="48.01777" lon="-2.17245">
        <ele>154</ele>
        <time>2022-05-21T08:15:07Z</time>
      </trkpt>
      <trkpt lat="48.01794" lon="-2.1719">
        <ele>156</ele>
        <time>2022-05-21T08:15:14Z</time>
      </trkpt>
      <trkpt lat="48.01814" lon="-2.17106">
        <ele>157</ele>
        <time>2022-05-21T08:15:25Z</time>
      </trkpt>
      <trkpt lat="48.01826" lon="-2.17066">
        <ele>158</ele>
        <time>2022-05-21T08:15:30Z</time>
      </trkpt>
      <trkpt lat="48.01829" lon="-2.17038">
        <ele>159</ele>
        <time>2022-05-21T08:15:34Z</time>
      </trkpt>
      <trkpt lat="48.01852" lon="-2.17041">
        <ele>158</ele>
        <time>2022-05-21T08:15:38Z</time>
      </trkpt>
      <trkpt lat="48.01879" lon="-2.17056">
        <ele>157</ele>
        <time>2022-05-21T08:15:43Z</time>
      </trkpt>
      <trkpt lat="48.01901" lon="-2.17065">
        <ele>157</ele>
        <time>2022-05-21T08:15:47Z</time>
      </trkpt>
      <trkpt lat="48.01939" lon="-2.17087">
        <ele>155</ele>
        <time>2022-05-21T08:15:54Z</time>
      </trkpt>
      <trkpt lat="48.01962" lon="-2.17092">
        <ele>154</ele>
        <time>2022-05-21T08:15:58Z</time>
      </trkpt>
      <trkpt lat="48.01974" lon="-2.17083">
        <ele>153</ele>
        <time>2022-05-21T08:16:01Z</time>
      </trkpt>
      <trkpt lat="48.01986" lon="-2.17067">
        <ele>152</ele>
        <time>2022-05-21T08:16:03Z</time>
      </trkpt>
      <trkpt lat="48.02033" lon="-2.16991">
        <ele>153</ele>
        <time>2022-05-21T08:16:16Z</time>
      </trkpt>
      <trkpt lat="48.02055" lon="-2.16943">
        <ele>151</ele>
        <time>2022-05-21T08:16:23Z</time>
      </trkpt>
      <trkpt lat="48.02073" lon="-2.16887">
        <ele>149</ele>
        <time>2022-05-21T08:16:30Z</time>
      </trkpt>
      <trkpt lat="48.02082" lon="-2.16881">
        <ele>148</ele>
        <time>2022-05-21T08:16:32Z</time>
      </trkpt>
      <trkpt lat="48.02092" lon="-2.16892">
        <ele>149</ele>
        <time>2022-05-21T08:16:34Z</time>
      </trkpt>
      <trkpt lat="48.02099" lon="-2.16919">
        <ele>150</ele>
        <time>2022-05-21T08:16:38Z</time>
      </trkpt>
      <trkpt lat="48.02102" lon="-2.16952">
        <ele>151</ele>
        <time>2022-05-21T08:16:41Z</time>
      </trkpt>
      <trkpt lat="48.0212" lon="-2.17022">
        <ele>153</ele>
        <time>2022-05-21T08:16:50Z</time>
      </trkpt>
      <trkpt lat="48.02124" lon="-2.17068">
        <ele>153</ele>
        <time>2022-05-21T08:16:56Z</time>
      </trkpt>
      <trkpt lat="48.02138" lon="-2.17124">
        <ele>154</ele>
        <time>2022-05-21T08:17:03Z</time>
      </trkpt>
      <trkpt lat="48.02144" lon="-2.17136">
        <ele>154</ele>
        <time>2022-05-21T08:17:05Z</time>
      </trkpt>
      <trkpt lat="48.02153" lon="-2.17142">
        <ele>154</ele>
        <time>2022-05-21T08:17:07Z</time>
      </trkpt>
      <trkpt lat="48.02168" lon="-2.17161">
        <ele>155</ele>
        <time>2022-05-21T08:17:10Z</time>
      </trkpt>
      <trkpt lat="48.02177" lon="-2.17167">
        <ele>155</ele>
        <time>2022-05-21T08:17:12Z</time>
      </trkpt>
      <trkpt lat="48.02187" lon="-2.17166">
        <ele>155</ele>
        <time>2022-05-21T08:17:14Z</time>
      </trkpt>
      <trkpt lat="48.02241" lon="-2.17104">
        <ele>157</ele>
        <time>2022-05-21T08:17:26Z</time>
      </trkpt>
      <trkpt lat="48.02327" lon="-2.17019">
        <ele>159</ele>
        <time>2022-05-21T08:17:44Z</time>
      </trkpt>
      <trkpt lat="48.02367" lon="-2.16971">
        <ele>161</ele>
        <time>2022-05-21T08:17:53Z</time>
      </trkpt>
      <trkpt lat="48.02419" lon="-2.16919">
        <ele>163</ele>
        <time>2022-05-21T08:18:04Z</time>
      </trkpt>
      <trkpt lat="48.02468" lon="-2.16877">
        <ele>164</ele>
        <time>2022-05-21T08:18:14Z</time>
      </trkpt>
      <trkpt lat="48.02523" lon="-2.16838">
        <ele>166</ele>
        <time>2022-05-21T08:18:25Z</time>
      </trkpt>
      <trkpt lat="48.0258" lon="-2.16807">
        <ele>169</ele>
        <time>2022-05-21T08:18:36Z</time>
      </trkpt>
      <trkpt lat="48.02592" lon="-2.16806">
        <ele>169</ele>
        <time>2022-05-21T08:18:38Z</time>
      </trkpt>
      <trkpt lat="48.02601" lon="-2.16801">
        <ele>170</ele>
        <time>2022-05-21T08:18:40Z</time>
      </trkpt>
      <trkpt lat="48.02622" lon="-2.16795">
        <ele>170</ele>
        <time>2022-05-21T08:18:44Z</time>
      </trkpt>
      <trkpt lat="48.02651" lon="-2.16777">
        <ele>171</ele>
        <time>2022-05-21T08:18:49Z</time>
      </trkpt>
      <trkpt lat="48.02665" lon="-2.16773">
        <ele>171</ele>
        <time>2022-05-21T08:18:52Z</time>
      </trkpt>
      <trkpt lat="48.02684" lon="-2.16759">
        <ele>170</ele>
        <time>2022-05-21T08:18:56Z</time>
      </trkpt>
      <trkpt lat="48.02705" lon="-2.16752">
        <ele>170</ele>
        <time>2022-05-21T08:18:59Z</time>
      </trkpt>
      <trkpt lat="48.02743" lon="-2.1673">
        <ele>168</ele>
        <time>2022-05-21T08:19:07Z</time>
      </trkpt>
      <trkpt lat="48.02794" lon="-2.16705">
        <ele>168</ele>
        <time>2022-05-21T08:19:16Z</time>
      </trkpt>
      <trkpt lat="48.02811" lon="-2.16692">
        <ele>167</ele>
        <time>2022-05-21T08:19:20Z</time>
      </trkpt>
      <trkpt lat="48.02835" lon="-2.16684">
        <ele>167</ele>
        <time>2022-05-21T08:19:24Z</time>
      </trkpt>
      <trkpt lat="48.02854" lon="-2.1667">
        <ele>167</ele>
        <time>2022-05-21T08:19:28Z</time>
      </trkpt>
      <trkpt lat="48.02863" lon="-2.16667">
        <ele>167</ele>
        <time>2022-05-21T08:19:29Z</time>
      </trkpt>
      <trkpt lat="48.02927" lon="-2.16629">
        <ele>167</ele>
        <time>2022-05-21T08:19:42Z</time>
      </trkpt>
      <trkpt lat="48.03028" lon="-2.16585">
        <ele>169</ele>
        <time>2022-05-21T08:20:00Z</time>
      </trkpt>
      <trkpt lat="48.03083" lon="-2.16557">
        <ele>171</ele>
        <time>2022-05-21T08:20:11Z</time>
      </trkpt>
      <trkpt lat="48.03116" lon="-2.16545">
        <ele>172</ele>
        <time>2022-05-21T08:20:17Z</time>
      </trkpt>
      <trkpt lat="48.03129" lon="-2.16536">
        <ele>173</ele>
        <time>2022-05-21T08:20:19Z</time>
      </trkpt>
      <trkpt lat="48.0314" lon="-2.16533">
        <ele>173</ele>
        <time>2022-05-21T08:20:21Z</time>
      </trkpt>
      <trkpt lat="48.03153" lon="-2.16525">
        <ele>174</ele>
        <time>2022-05-21T08:20:24Z</time>
      </trkpt>
      <trkpt lat="48.03162" lon="-2.16516">
        <ele>174</ele>
        <time>2022-05-21T08:20:26Z</time>
      </trkpt>
      <trkpt lat="48.03172" lon="-2.16515">
        <ele>174</ele>
        <time>2022-05-21T08:20:27Z</time>
      </trkpt>
      <trkpt lat="48.03214" lon="-2.1649">
        <ele>174</ele>
        <time>2022-05-21T08:20:35Z</time>
      </trkpt>
      <trkpt lat="48.03297" lon="-2.16449">
        <ele>173</ele>
        <time>2022-05-21T08:20:51Z</time>
      </trkpt>
      <trkpt lat="48.03309" lon="-2.16445">
        <ele>173</ele>
        <time>2022-05-21T08:20:53Z</time>
      </trkpt>
      <trkpt lat="48.03329" lon="-2.16431">
        <ele>173</ele>
        <time>2022-05-21T08:20:57Z</time>
      </trkpt>
      <trkpt lat="48.0334" lon="-2.16428">
        <ele>173</ele>
        <time>2022-05-21T08:20:59Z</time>
      </trkpt>
      <trkpt lat="48.03427" lon="-2.16389">
        <ele>173</ele>
        <time>2022-05-21T08:21:15Z</time>
      </trkpt>
      <trkpt lat="48.03532" lon="-2.16324">
        <ele>175</ele>
        <time>2022-05-21T08:21:36Z</time>
      </trkpt>
      <trkpt lat="48.03567" lon="-2.16312">
        <ele>174</ele>
        <time>2022-05-21T08:21:42Z</time>
      </trkpt>
      <trkpt lat="48.03618" lon="-2.16285">
        <ele>172</ele>
        <time>2022-05-21T08:21:52Z</time>
      </trkpt>
      <trkpt lat="48.0371" lon="-2.16231">
        <ele>168</ele>
        <time>2022-05-21T08:22:09Z</time>
      </trkpt>
      <trkpt lat="48.03751" lon="-2.16212">
        <ele>168</ele>
        <time>2022-05-21T08:22:17Z</time>
      </trkpt>
      <trkpt lat="48.03877" lon="-2.16146">
        <ele>171</ele>
        <time>2022-05-21T08:22:41Z</time>
      </trkpt>
      <trkpt lat="48.03995" lon="-2.16091">
        <ele>171</ele>
        <time>2022-05-21T08:23:02Z</time>
      </trkpt>
      <trkpt lat="48.04026" lon="-2.16071">
        <ele>170</ele>
        <time>2022-05-21T08:23:09Z</time>
      </trkpt>
      <trkpt lat="48.04049" lon="-2.16063">
        <ele>170</ele>
        <time>2022-05-21T08:23:13Z</time>
      </trkpt>
      <trkpt lat="48.04069" lon="-2.16052">
        <ele>169</ele>
        <time>2022-05-21T08:23:17Z</time>
      </trkpt>
      <trkpt lat="48.04123" lon="-2.1603">
        <ele>167</ele>
        <time>2022-05-21T08:23:26Z</time>
      </trkpt>
      <trkpt lat="48.04161" lon="-2.16004">
        <ele>165</ele>
        <time>2022-05-21T08:23:34Z</time>
      </trkpt>
      <trkpt lat="48.04195" lon="-2.15991">
        <ele>164</ele>
        <time>2022-05-21T08:23:40Z</time>
      </trkpt>
      <trkpt lat="48.04224" lon="-2.15975">
        <ele>164</ele>
        <time>2022-05-21T08:23:46Z</time>
      </trkpt>
      <trkpt lat="48.04256" lon="-2.15966">
        <ele>163</ele>
        <time>2022-05-21T08:23:51Z</time>
      </trkpt>
      <trkpt lat="48.04267" lon="-2.1596">
        <ele>163</ele>
        <time>2022-05-21T08:23:54Z</time>
      </trkpt>
      <trkpt lat="48.04299" lon="-2.15939">
        <ele>163</ele>
        <time>2022-05-21T08:24:00Z</time>
      </trkpt>
      <trkpt lat="48.04308" lon="-2.1593">
        <ele>163</ele>
        <time>2022-05-21T08:24:02Z</time>
      </trkpt>
      <trkpt lat="48.04377" lon="-2.15887">
        <ele>162</ele>
        <time>2022-05-21T08:24:15Z</time>
      </trkpt>
      <trkpt lat="48.04389" lon="-2.15883">
        <ele>162</ele>
        <time>2022-05-21T08:24:17Z</time>
      </trkpt>
      <trkpt lat="48.04435" lon="-2.1585">
        <ele>161</ele>
        <time>2022-05-21T08:24:26Z</time>
      </trkpt>
      <trkpt lat="48.0452" lon="-2.15758">
        <ele>162</ele>
        <time>2022-05-21T08:24:45Z</time>
      </trkpt>
      <trkpt lat="48.0459" lon="-2.15689">
        <ele>164</ele>
        <time>2022-05-21T08:25:00Z</time>
      </trkpt>
      <trkpt lat="48.04612" lon="-2.15658">
        <ele>164</ele>
        <time>2022-05-21T08:25:05Z</time>
      </trkpt>
      <trkpt lat="48.04688" lon="-2.15528">
        <ele>164</ele>
        <time>2022-05-21T08:25:26Z</time>
      </trkpt>
      <trkpt lat="48.04754" lon="-2.15409">
        <ele>163</ele>
        <time>2022-05-21T08:25:44Z</time>
      </trkpt>
      <trkpt lat="48.04798" lon="-2.15337">
        <ele>166</ele>
        <time>2022-05-21T08:25:56Z</time>
      </trkpt>
      <trkpt lat="48.04824" lon="-2.15307">
        <ele>166</ele>
        <time>2022-05-21T08:26:02Z</time>
      </trkpt>
      <trkpt lat="48.04845" lon="-2.15295">
        <ele>166</ele>
        <time>2022-05-21T08:26:06Z</time>
      </trkpt>
      <trkpt lat="48.04891" lon="-2.15262">
        <ele>167</ele>
        <time>2022-05-21T08:26:15Z</time>
      </trkpt>
      <trkpt lat="48.04968" lon="-2.15212">
        <ele>168</ele>
        <time>2022-05-21T08:26:30Z</time>
      </trkpt>
      <trkpt lat="48.04982" lon="-2.15195">
        <ele>168</ele>
        <time>2022-05-21T08:26:33Z</time>
      </trkpt>
      <trkpt lat="48.05006" lon="-2.1515">
        <ele>168</ele>
        <time>2022-05-21T08:26:40Z</time>
      </trkpt>
      <trkpt lat="48.05041" lon="-2.15053">
        <ele>167</ele>
        <time>2022-05-21T08:26:53Z</time>
      </trkpt>
      <trkpt lat="48.05063" lon="-2.14943">
        <ele>167</ele>
        <time>2022-05-21T08:27:06Z</time>
      </trkpt>
      <trkpt lat="48.05084" lon="-2.1486">
        <ele>168</ele>
        <time>2022-05-21T08:27:17Z</time>
      </trkpt>
      <trkpt lat="48.05224" lon="-2.1446">
        <ele>165</ele>
        <time>2022-05-21T08:28:11Z</time>
      </trkpt>
      <trkpt lat="48.05256" lon="-2.14389">
        <ele>166</ele>
        <time>2022-05-21T08:28:21Z</time>
      </trkpt>
      <trkpt lat="48.05321" lon="-2.14291">
        <ele>164</ele>
        <time>2022-05-21T08:28:37Z</time>
      </trkpt>
      <trkpt lat="48.05325" lon="-2.14274">
        <ele>164</ele>
        <time>2022-05-21T08:28:39Z</time>
      </trkpt>
      <trkpt lat="48.05339" lon="-2.14246">
        <ele>164</ele>
        <time>2022-05-21T08:28:44Z</time>
      </trkpt>
      <trkpt lat="48.05372" lon="-2.14166">
        <ele>165</ele>
        <time>2022-05-21T08:28:55Z</time>
      </trkpt>
      <trkpt lat="48.05518" lon="-2.13784">
        <ele>165</ele>
        <time>2022-05-21T08:29:47Z</time>
      </trkpt>
      <trkpt lat="48.05699" lon="-2.13353">
        <ele>162</ele>
        <time>2022-05-21T08:30:48Z</time>
      </trkpt>
      <trkpt lat="48.05751" lon="-2.13256">
        <ele>160</ele>
        <time>2022-05-21T08:31:02Z</time>
      </trkpt>
      <trkpt lat="48.05793" lon="-2.1319">
        <ele>159</ele>
        <time>2022-05-21T08:31:13Z</time>
      </trkpt>
      <trkpt lat="48.05963" lon="-2.12937">
        <ele>156</ele>
        <time>2022-05-21T08:31:56Z</time>
      </trkpt>
      <trkpt lat="48.06117" lon="-2.12734">
        <ele>157</ele>
        <time>2022-05-21T08:32:32Z</time>
      </trkpt>
      <trkpt lat="48.06189" lon="-2.12646">
        <ele>159</ele>
        <time>2022-05-21T08:32:49Z</time>
      </trkpt>
      <trkpt lat="48.06214" lon="-2.12618">
        <ele>157</ele>
        <time>2022-05-21T08:32:55Z</time>
      </trkpt>
      <trkpt lat="48.0624" lon="-2.12596">
        <ele>156</ele>
        <time>2022-05-21T08:33:00Z</time>
      </trkpt>
      <trkpt lat="48.06265" lon="-2.12561">
        <ele>154</ele>
        <time>2022-05-21T08:33:06Z</time>
      </trkpt>
      <trkpt lat="48.06284" lon="-2.12542">
        <ele>153</ele>
        <time>2022-05-21T08:33:10Z</time>
      </trkpt>
      <trkpt lat="48.06311" lon="-2.12506">
        <ele>152</ele>
        <time>2022-05-21T08:33:16Z</time>
      </trkpt>
      <trkpt lat="48.06352" lon="-2.12459">
        <ele>148</ele>
        <time>2022-05-21T08:33:26Z</time>
      </trkpt>
      <trkpt lat="48.06386" lon="-2.12408">
        <ele>146</ele>
        <time>2022-05-21T08:33:34Z</time>
      </trkpt>
      <trkpt lat="48.06489" lon="-2.12274">
        <ele>139</ele>
        <time>2022-05-21T08:33:58Z</time>
      </trkpt>
      <trkpt lat="48.06499" lon="-2.12254">
        <ele>139</ele>
        <time>2022-05-21T08:34:01Z</time>
      </trkpt>
      <trkpt lat="48.06742" lon="-2.11946">
        <ele>127</ele>
        <time>2022-05-21T08:34:58Z</time>
      </trkpt>
      <trkpt lat="48.06765" lon="-2.11914">
        <ele>125</ele>
        <time>2022-05-21T08:35:04Z</time>
      </trkpt>
      <trkpt lat="48.06789" lon="-2.11887">
        <ele>123</ele>
        <time>2022-05-21T08:35:09Z</time>
      </trkpt>
      <trkpt lat="48.06889" lon="-2.11751">
        <ele>114</ele>
        <time>2022-05-21T08:35:33Z</time>
      </trkpt>
      <trkpt lat="48.06955" lon="-2.11675">
        <ele>113</ele>
        <time>2022-05-21T08:35:48Z</time>
      </trkpt>
      <trkpt lat="48.0697" lon="-2.11662">
        <ele>113</ele>
        <time>2022-05-21T08:35:51Z</time>
      </trkpt>
      <trkpt lat="48.07035" lon="-2.11581">
        <ele>111</ele>
        <time>2022-05-21T08:36:06Z</time>
      </trkpt>
      <trkpt lat="48.07054" lon="-2.11554">
        <ele>110</ele>
        <time>2022-05-21T08:36:11Z</time>
      </trkpt>
      <trkpt lat="48.07118" lon="-2.11476">
        <ele>111</ele>
        <time>2022-05-21T08:36:25Z</time>
      </trkpt>
      <trkpt lat="48.07109" lon="-2.11482">
        <ele>111</ele>
        <time>2022-05-21T08:36:27Z</time>
      </trkpt>
      <trkpt lat="48.07098" lon="-2.11481">
        <ele>111</ele>
        <time>2022-05-21T08:36:29Z</time>
      </trkpt>
      <trkpt lat="48.07089" lon="-2.11483">
        <ele>111</ele>
        <time>2022-05-21T08:36:31Z</time>
      </trkpt>
      <trkpt lat="48.07078" lon="-2.11481">
        <ele>111</ele>
        <time>2022-05-21T08:36:33Z</time>
      </trkpt>
      <trkpt lat="48.07057" lon="-2.11483">
        <ele>111</ele>
        <time>2022-05-21T08:36:36Z</time>
      </trkpt>
      <trkpt lat="48.07047" lon="-2.11479">
        <ele>111</ele>
        <time>2022-05-21T08:36:38Z</time>
      </trkpt>
      <trkpt lat="48.07012" lon="-2.11483">
        <ele>112</ele>
        <time>2022-05-21T08:36:45Z</time>
      </trkpt>
      <trkpt lat="48.06983" lon="-2.1148">
        <ele>113</ele>
        <time>2022-05-21T08:36:50Z</time>
      </trkpt>
      <trkpt lat="48.0692" lon="-2.11467">
        <ele>114</ele>
        <time>2022-05-21T08:37:01Z</time>
      </trkpt>
      <trkpt lat="48.0691" lon="-2.11468">
        <ele>115</ele>
        <time>2022-05-21T08:37:03Z</time>
      </trkpt>
      <trkpt lat="48.0685" lon="-2.11463">
        <ele>119</ele>
        <time>2022-05-21T08:37:13Z</time>
      </trkpt>
      <trkpt lat="48.06829" lon="-2.11458">
        <ele>120</ele>
        <time>2022-05-21T08:37:17Z</time>
      </trkpt>
      <trkpt lat="48.06789" lon="-2.11455">
        <ele>120</ele>
        <time>2022-05-21T08:37:24Z</time>
      </trkpt>
      <trkpt lat="48.06779" lon="-2.11452">
        <ele>120</ele>
        <time>2022-05-21T08:37:26Z</time>
      </trkpt>
      <trkpt lat="48.06718" lon="-2.11457">
        <ele>122</ele>
        <time>2022-05-21T08:37:37Z</time>
      </trkpt>
      <trkpt lat="48.06675" lon="-2.11454">
        <ele>125</ele>
        <time>2022-05-21T08:37:45Z</time>
      </trkpt>
      <trkpt lat="48.06636" lon="-2.11444">
        <ele>126</ele>
        <time>2022-05-21T08:37:52Z</time>
      </trkpt>
      <trkpt lat="48.06596" lon="-2.11438">
        <ele>128</ele>
        <time>2022-05-21T08:37:59Z</time>
      </trkpt>
      <trkpt lat="48.06587" lon="-2.11439">
        <ele>128</ele>
        <time>2022-05-21T08:38:01Z</time>
      </trkpt>
      <trkpt lat="48.06578" lon="-2.11435">
        <ele>129</ele>
        <time>2022-05-21T08:38:02Z</time>
      </trkpt>
      <trkpt lat="48.06566" lon="-2.11416">
        <ele>129</ele>
        <time>2022-05-21T08:38:05Z</time>
      </trkpt>
      <trkpt lat="48.06561" lon="-2.11376">
        <ele>129</ele>
        <time>2022-05-21T08:38:10Z</time>
      </trkpt>
      <trkpt lat="48.06554" lon="-2.11366">
        <ele>130</ele>
        <time>2022-05-21T08:38:12Z</time>
      </trkpt>
      <trkpt lat="48.06553" lon="-2.11323">
        <ele>130</ele>
        <time>2022-05-21T08:38:17Z</time>
      </trkpt>
      <trkpt lat="48.06557" lon="-2.1131">
        <ele>130</ele>
        <time>2022-05-21T08:38:19Z</time>
      </trkpt>
      <trkpt lat="48.06563" lon="-2.11268">
        <ele>129</ele>
        <time>2022-05-21T08:38:24Z</time>
      </trkpt>
      <trkpt lat="48.06571" lon="-2.11254">
        <ele>129</ele>
        <time>2022-05-21T08:38:26Z</time>
      </trkpt>
      <trkpt lat="48.06562" lon="-2.11254">
        <ele>129</ele>
        <time>2022-05-21T08:38:28Z</time>
      </trkpt>
      <trkpt lat="48.06553" lon="-2.1125">
        <ele>130</ele>
        <time>2022-05-21T08:38:29Z</time>
      </trkpt>
      <trkpt lat="48.06568" lon="-2.11252">
        <ele>129</ele>
        <time>2022-05-21T08:38:32Z</time>
      </trkpt>
      <trkpt lat="48.06585" lon="-2.11456">
        <ele>129</ele>
        <time>2022-05-21T08:38:56Z</time>
      </trkpt>
      <trkpt lat="48.06594" lon="-2.1146">
        <ele>129</ele>
        <time>2022-05-21T08:38:58Z</time>
      </trkpt>
      <trkpt lat="48.06642" lon="-2.11469">
        <ele>127</ele>
        <time>2022-05-21T08:39:07Z</time>
      </trkpt>
      <trkpt lat="48.06696" lon="-2.11473">
        <ele>124</ele>
        <time>2022-05-21T08:39:16Z</time>
      </trkpt>
      <trkpt lat="48.06711" lon="-2.11472">
        <ele>123</ele>
        <time>2022-05-21T08:39:19Z</time>
      </trkpt>
      <trkpt lat="48.06736" lon="-2.11477">
        <ele>122</ele>
        <time>2022-05-21T08:39:23Z</time>
      </trkpt>
      <trkpt lat="48.06793" lon="-2.11483">
        <ele>121</ele>
        <time>2022-05-21T08:39:34Z</time>
      </trkpt>
      <trkpt lat="48.06877" lon="-2.11484">
        <ele>117</ele>
        <time>2022-05-21T08:39:49Z</time>
      </trkpt>
      <trkpt lat="48.06932" lon="-2.11496">
        <ele>114</ele>
        <time>2022-05-21T08:39:58Z</time>
      </trkpt>
      <trkpt lat="48.06964" lon="-2.11493">
        <ele>113</ele>
        <time>2022-05-21T08:40:04Z</time>
      </trkpt>
      <trkpt lat="48.07004" lon="-2.11494">
        <ele>112</ele>
        <time>2022-05-21T08:40:11Z</time>
      </trkpt>
      <trkpt lat="48.07028" lon="-2.11498">
        <ele>111</ele>
        <time>2022-05-21T08:40:16Z</time>
      </trkpt>
      <trkpt lat="48.07039" lon="-2.11495">
        <ele>111</ele>
        <time>2022-05-21T08:40:18Z</time>
      </trkpt>
      <trkpt lat="48.07049" lon="-2.11497">
        <ele>111</ele>
        <time>2022-05-21T08:40:19Z</time>
      </trkpt>
      <trkpt lat="48.07059" lon="-2.11495">
        <ele>111</ele>
        <time>2022-05-21T08:40:21Z</time>
      </trkpt>
      <trkpt lat="48.0707" lon="-2.11496">
        <ele>110</ele>
        <time>2022-05-21T08:40:23Z</time>
      </trkpt>
      <trkpt lat="48.07078" lon="-2.11489">
        <ele>110</ele>
        <time>2022-05-21T08:40:25Z</time>
      </trkpt>
      <trkpt lat="48.07101" lon="-2.11487">
        <ele>111</ele>
        <time>2022-05-21T08:40:29Z</time>
      </trkpt>
      <trkpt lat="48.0711" lon="-2.11483">
        <ele>111</ele>
        <time>2022-05-21T08:40:31Z</time>
      </trkpt>
      <trkpt lat="48.072" lon="-2.11374">
        <ele>114</ele>
        <time>2022-05-21T08:40:51Z</time>
      </trkpt>
      <trkpt lat="48.07265" lon="-2.11289">
        <ele>116</ele>
        <time>2022-05-21T08:41:06Z</time>
      </trkpt>
      <trkpt lat="48.07274" lon="-2.11281">
        <ele>116</ele>
        <time>2022-05-21T08:41:08Z</time>
      </trkpt>
      <trkpt lat="48.07295" lon="-2.11248">
        <ele>115</ele>
        <time>2022-05-21T08:41:14Z</time>
      </trkpt>
      <trkpt lat="48.07367" lon="-2.11162">
        <ele>114</ele>
        <time>2022-05-21T08:41:30Z</time>
      </trkpt>
      <trkpt lat="48.07375" lon="-2.11155">
        <ele>114</ele>
        <time>2022-05-21T08:41:32Z</time>
      </trkpt>
      <trkpt lat="48.07385" lon="-2.11151">
        <ele>114</ele>
        <time>2022-05-21T08:41:34Z</time>
      </trkpt>
      <trkpt lat="48.07397" lon="-2.11138">
        <ele>113</ele>
        <time>2022-05-21T08:41:36Z</time>
      </trkpt>
      <trkpt lat="48.07406" lon="-2.11108">
        <ele>113</ele>
        <time>2022-05-21T08:41:40Z</time>
      </trkpt>
      <trkpt lat="48.07434" lon="-2.11078">
        <ele>113</ele>
        <time>2022-05-21T08:41:46Z</time>
      </trkpt>
      <trkpt lat="48.07457" lon="-2.11044">
        <ele>112</ele>
        <time>2022-05-21T08:41:52Z</time>
      </trkpt>
      <trkpt lat="48.07499" lon="-2.10996">
        <ele>109</ele>
        <time>2022-05-21T08:42:01Z</time>
      </trkpt>
      <trkpt lat="48.07543" lon="-2.10931">
        <ele>107</ele>
        <time>2022-05-21T08:42:12Z</time>
      </trkpt>
      <trkpt lat="48.07561" lon="-2.10911">
        <ele>106</ele>
        <time>2022-05-21T08:42:16Z</time>
      </trkpt>
      <trkpt lat="48.07573" lon="-2.10907">
        <ele>105</ele>
        <time>2022-05-21T08:42:19Z</time>
      </trkpt>
      <trkpt lat="48.076" lon="-2.10915">
        <ele>105</ele>
        <time>2022-05-21T08:42:24Z</time>
      </trkpt>
      <trkpt lat="48.07656" lon="-2.10941">
        <ele>105</ele>
        <time>2022-05-21T08:42:34Z</time>
      </trkpt>
      <trkpt lat="48.07692" lon="-2.10953">
        <ele>105</ele>
        <time>2022-05-21T08:42:41Z</time>
      </trkpt>
      <trkpt lat="48.07726" lon="-2.10968">
        <ele>105</ele>
        <time>2022-05-21T08:42:47Z</time>
      </trkpt>
      <trkpt lat="48.07768" lon="-2.11006">
        <ele>105</ele>
        <time>2022-05-21T08:42:56Z</time>
      </trkpt>
      <trkpt lat="48.07776" lon="-2.1102">
        <ele>105</ele>
        <time>2022-05-21T08:42:58Z</time>
      </trkpt>
      <trkpt lat="48.07785" lon="-2.11056">
        <ele>104</ele>
        <time>2022-05-21T08:43:02Z</time>
      </trkpt>
      <trkpt lat="48.07788" lon="-2.11094">
        <ele>104</ele>
        <time>2022-05-21T08:43:07Z</time>
      </trkpt>
      <trkpt lat="48.07774" lon="-2.1133">
        <ele>104</ele>
        <time>2022-05-21T08:43:35Z</time>
      </trkpt>
      <trkpt lat="48.07773" lon="-2.11388">
        <ele>104</ele>
        <time>2022-05-21T08:43:42Z</time>
      </trkpt>
      <trkpt lat="48.07766" lon="-2.11428">
        <ele>104</ele>
        <time>2022-05-21T08:43:47Z</time>
      </trkpt>
      <trkpt lat="48.07755" lon="-2.11448">
        <ele>104</ele>
        <time>2022-05-21T08:43:50Z</time>
      </trkpt>
      <trkpt lat="48.07691" lon="-2.11532">
        <ele>105</ele>
        <time>2022-05-21T08:44:05Z</time>
      </trkpt>
      <trkpt lat="48.07685" lon="-2.11546">
        <ele>104</ele>
        <time>2022-05-21T08:44:07Z</time>
      </trkpt>
      <trkpt lat="48.07684" lon="-2.11584">
        <ele>104</ele>
        <time>2022-05-21T08:44:12Z</time>
      </trkpt>
      <trkpt lat="48.07696" lon="-2.11691">
        <ele>107</ele>
        <time>2022-05-21T08:44:24Z</time>
      </trkpt>
      <trkpt lat="48.07704" lon="-2.11732">
        <ele>107</ele>
        <time>2022-05-21T08:44:30Z</time>
      </trkpt>
      <trkpt lat="48.07726" lon="-2.11797">
        <ele>109</ele>
        <time>2022-05-21T08:44:38Z</time>
      </trkpt>
      <trkpt lat="48.07743" lon="-2.1183">
        <ele>110</ele>
        <time>2022-05-21T08:44:43Z</time>
      </trkpt>
      <trkpt lat="48.07751" lon="-2.11854">
        <ele>111</ele>
        <time>2022-05-21T08:44:46Z</time>
      </trkpt>
      <trkpt lat="48.07749" lon="-2.11869">
        <ele>111</ele>
        <time>2022-05-21T08:44:48Z</time>
      </trkpt>
      <trkpt lat="48.07754" lon="-2.11881">
        <ele>112</ele>
        <time>2022-05-21T08:44:50Z</time>
      </trkpt>
      <trkpt lat="48.07762" lon="-2.11887">
        <ele>112</ele>
        <time>2022-05-21T08:44:51Z</time>
      </trkpt>
      <trkpt lat="48.07771" lon="-2.1189">
        <ele>112</ele>
        <time>2022-05-21T08:44:53Z</time>
      </trkpt>
      <trkpt lat="48.07787" lon="-2.11871">
        <ele>111</ele>
        <time>2022-05-21T08:44:57Z</time>
      </trkpt>
      <trkpt lat="48.07799" lon="-2.11844">
        <ele>110</ele>
        <time>2022-05-21T08:45:01Z</time>
      </trkpt>
      <trkpt lat="48.07807" lon="-2.11816">
        <ele>109</ele>
        <time>2022-05-21T08:45:04Z</time>
      </trkpt>
      <trkpt lat="48.07807" lon="-2.11802">
        <ele>109</ele>
        <time>2022-05-21T08:45:06Z</time>
      </trkpt>
      <trkpt lat="48.078" lon="-2.11774">
        <ele>109</ele>
        <time>2022-05-21T08:45:09Z</time>
      </trkpt>
      <trkpt lat="48.07807" lon="-2.11783">
        <ele>110</ele>
        <time>2022-05-21T08:45:11Z</time>
      </trkpt>
      <trkpt lat="48.07796" lon="-2.11781">
        <ele>109</ele>
        <time>2022-05-21T08:45:13Z</time>
      </trkpt>
      <trkpt lat="48.07775" lon="-2.11791">
        <ele>109</ele>
        <time>2022-05-21T08:45:17Z</time>
      </trkpt>
      <trkpt lat="48.07768" lon="-2.11801">
        <ele>109</ele>
        <time>2022-05-21T08:45:19Z</time>
      </trkpt>
      <trkpt lat="48.07758" lon="-2.11804">
        <ele>109</ele>
        <time>2022-05-21T08:45:20Z</time>
      </trkpt>
      <trkpt lat="48.07751" lon="-2.11792">
        <ele>109</ele>
        <time>2022-05-21T08:45:22Z</time>
      </trkpt>
      <trkpt lat="48.07746" lon="-2.11731">
        <ele>107</ele>
        <time>2022-05-21T08:45:30Z</time>
      </trkpt>
      <trkpt lat="48.07751" lon="-2.11719">
        <ele>107</ele>
        <time>2022-05-21T08:45:31Z</time>
      </trkpt>
      <trkpt lat="48.07767" lon="-2.117">
        <ele>108</ele>
        <time>2022-05-21T08:45:35Z</time>
      </trkpt>
      <trkpt lat="48.07786" lon="-2.11668">
        <ele>108</ele>
        <time>2022-05-21T08:45:40Z</time>
      </trkpt>
      <trkpt lat="48.07796" lon="-2.11667">
        <ele>109</ele>
        <time>2022-05-21T08:45:42Z</time>
      </trkpt>
      <trkpt lat="48.07801" lon="-2.11655">
        <ele>109</ele>
        <time>2022-05-21T08:45:44Z</time>
      </trkpt>
      <trkpt lat="48.0782" lon="-2.11644">
        <ele>109</ele>
        <time>2022-05-21T08:45:47Z</time>
      </trkpt>
      <trkpt lat="48.07829" lon="-2.11636">
        <ele>109</ele>
        <time>2022-05-21T08:45:49Z</time>
      </trkpt>
      <trkpt lat="48.07836" lon="-2.11625">
        <ele>109</ele>
        <time>2022-05-21T08:45:51Z</time>
      </trkpt>
      <trkpt lat="48.07845" lon="-2.11626">
        <ele>109</ele>
        <time>2022-05-21T08:45:52Z</time>
      </trkpt>
      <trkpt lat="48.07855" lon="-2.11619">
        <ele>108</ele>
        <time>2022-05-21T08:45:54Z</time>
      </trkpt>
      <trkpt lat="48.07866" lon="-2.11616">
        <ele>107</ele>
        <time>2022-05-21T08:45:56Z</time>
      </trkpt>
      <trkpt lat="48.07875" lon="-2.11608">
        <ele>107</ele>
        <time>2022-05-21T08:45:58Z</time>
      </trkpt>
      <trkpt lat="48.07884" lon="-2.11605">
        <ele>107</ele>
        <time>2022-05-21T08:46:00Z</time>
      </trkpt>
      <trkpt lat="48.07913" lon="-2.1162">
        <ele>106</ele>
        <time>2022-05-21T08:46:05Z</time>
      </trkpt>
      <trkpt lat="48.07921" lon="-2.11631">
        <ele>106</ele>
        <time>2022-05-21T08:46:07Z</time>
      </trkpt>
      <trkpt lat="48.0793" lon="-2.11633">
        <ele>105</ele>
        <time>2022-05-21T08:46:09Z</time>
      </trkpt>
      <trkpt lat="48.07962" lon="-2.11611">
        <ele>105</ele>
        <time>2022-05-21T08:46:15Z</time>
      </trkpt>
      <trkpt lat="48.07951" lon="-2.11616">
        <ele>105</ele>
        <time>2022-05-21T08:46:17Z</time>
      </trkpt>
      <trkpt lat="48.07941" lon="-2.11624">
        <ele>105</ele>
        <time>2022-05-21T08:46:19Z</time>
      </trkpt>
      <trkpt lat="48.07934" lon="-2.11635">
        <ele>105</ele>
        <time>2022-05-21T08:46:21Z</time>
      </trkpt>
      <trkpt lat="48.07928" lon="-2.11667">
        <ele>106</ele>
        <time>2022-05-21T08:46:25Z</time>
      </trkpt>
      <trkpt lat="48.07927" lon="-2.11685">
        <ele>106</ele>
        <time>2022-05-21T08:46:27Z</time>
      </trkpt>
      <trkpt lat="48.07919" lon="-2.11697">
        <ele>106</ele>
        <time>2022-05-21T08:46:29Z</time>
      </trkpt>
      <trkpt lat="48.07898" lon="-2.11705">
        <ele>107</ele>
        <time>2022-05-21T08:46:33Z</time>
      </trkpt>
      <trkpt lat="48.07878" lon="-2.11722">
        <ele>109</ele>
        <time>2022-05-21T08:46:37Z</time>
      </trkpt>
      <trkpt lat="48.07839" lon="-2.11765">
        <ele>110</ele>
        <time>2022-05-21T08:46:46Z</time>
      </trkpt>
      <trkpt lat="48.07804" lon="-2.11822">
        <ele>109</ele>
        <time>2022-05-21T08:46:55Z</time>
      </trkpt>
      <trkpt lat="48.07785" lon="-2.1187">
        <ele>111</ele>
        <time>2022-05-21T08:47:02Z</time>
      </trkpt>
      <trkpt lat="48.07779" lon="-2.1188">
        <ele>112</ele>
        <time>2022-05-21T08:47:03Z</time>
      </trkpt>
      <trkpt lat="48.07772" lon="-2.1189">
        <ele>112</ele>
        <time>2022-05-21T08:47:05Z</time>
      </trkpt>
      <trkpt lat="48.07753" lon="-2.11907">
        <ele>113</ele>
        <time>2022-05-21T08:47:09Z</time>
      </trkpt>
      <trkpt lat="48.07743" lon="-2.11906">
        <ele>112</ele>
        <time>2022-05-21T08:47:11Z</time>
      </trkpt>
      <trkpt lat="48.07743" lon="-2.1189">
        <ele>112</ele>
        <time>2022-05-21T08:47:13Z</time>
      </trkpt>
      <trkpt lat="48.0775" lon="-2.11877">
        <ele>112</ele>
        <time>2022-05-21T08:47:15Z</time>
      </trkpt>
      <trkpt lat="48.07751" lon="-2.11845">
        <ele>110</ele>
        <time>2022-05-21T08:47:18Z</time>
      </trkpt>
      <trkpt lat="48.07726" lon="-2.11787">
        <ele>108</ele>
        <time>2022-05-21T08:47:27Z</time>
      </trkpt>
      <trkpt lat="48.07711" lon="-2.11745">
        <ele>107</ele>
        <time>2022-05-21T08:47:32Z</time>
      </trkpt>
      <trkpt lat="48.07705" lon="-2.11719">
        <ele>107</ele>
        <time>2022-05-21T08:47:35Z</time>
      </trkpt>
      <trkpt lat="48.07686" lon="-2.11582">
        <ele>104</ele>
        <time>2022-05-21T08:47:52Z</time>
      </trkpt>
      <trkpt lat="48.07686" lon="-2.11556">
        <ele>104</ele>
        <time>2022-05-21T08:47:55Z</time>
      </trkpt>
      <trkpt lat="48.07694" lon="-2.11534">
        <ele>105</ele>
        <time>2022-05-21T08:47:58Z</time>
      </trkpt>
      <trkpt lat="48.07717" lon="-2.11508">
        <ele>104</ele>
        <time>2022-05-21T08:48:03Z</time>
      </trkpt>
      <trkpt lat="48.07755" lon="-2.11446">
        <ele>104</ele>
        <time>2022-05-21T08:48:13Z</time>
      </trkpt>
      <trkpt lat="48.07766" lon="-2.11418">
        <ele>104</ele>
        <time>2022-05-21T08:48:17Z</time>
      </trkpt>
      <trkpt lat="48.07773" lon="-2.1136">
        <ele>104</ele>
        <time>2022-05-21T08:48:24Z</time>
      </trkpt>
      <trkpt lat="48.07786" lon="-2.11138">
        <ele>103</ele>
        <time>2022-05-21T08:48:51Z</time>
      </trkpt>
      <trkpt lat="48.07786" lon="-2.11084">
        <ele>104</ele>
        <time>2022-05-21T08:48:57Z</time>
      </trkpt>
      <trkpt lat="48.07783" lon="-2.11046">
        <ele>104</ele>
        <time>2022-05-21T08:49:02Z</time>
      </trkpt>
      <trkpt lat="48.07776" lon="-2.1102">
        <ele>105</ele>
        <time>2022-05-21T08:49:05Z</time>
      </trkpt>
      <trkpt lat="48.07767" lon="-2.11005">
        <ele>105</ele>
        <time>2022-05-21T08:49:07Z</time>
      </trkpt>
      <trkpt lat="48.07742" lon="-2.10976">
        <ele>105</ele>
        <time>2022-05-21T08:49:13Z</time>
      </trkpt>
      <trkpt lat="48.07664" lon="-2.10941">
        <ele>105</ele>
        <time>2022-05-21T08:49:27Z</time>
      </trkpt>
      <trkpt lat="48.07582" lon="-2.10909">
        <ele>105</ele>
        <time>2022-05-21T08:49:43Z</time>
      </trkpt>
      <trkpt lat="48.07574" lon="-2.109">
        <ele>105</ele>
        <time>2022-05-21T08:49:44Z</time>
      </trkpt>
      <trkpt lat="48.07577" lon="-2.10886">
        <ele>105</ele>
        <time>2022-05-21T08:49:46Z</time>
      </trkpt>
      <trkpt lat="48.07783" lon="-2.10631">
        <ele>102</ele>
        <time>2022-05-21T08:50:34Z</time>
      </trkpt>
      <trkpt lat="48.078" lon="-2.10599">
        <ele>102</ele>
        <time>2022-05-21T08:50:38Z</time>
      </trkpt>
      <trkpt lat="48.0786" lon="-2.10568">
        <ele>102</ele>
        <time>2022-05-21T08:50:50Z</time>
      </trkpt>
      <trkpt lat="48.07889" lon="-2.1055">
        <ele>102</ele>
        <time>2022-05-21T08:50:55Z</time>
      </trkpt>
      <trkpt lat="48.07993" lon="-2.10482">
        <ele>100</ele>
        <time>2022-05-21T08:51:16Z</time>
      </trkpt>
      <trkpt lat="48.08034" lon="-2.10451">
        <ele>96</ele>
        <time>2022-05-21T08:51:24Z</time>
      </trkpt>
      <trkpt lat="48.08047" lon="-2.10434">
        <ele>95</ele>
        <time>2022-05-21T08:51:27Z</time>
      </trkpt>
      <trkpt lat="48.0808" lon="-2.10369">
        <ele>93</ele>
        <time>2022-05-21T08:51:37Z</time>
      </trkpt>
      <trkpt lat="48.08125" lon="-2.10309">
        <ele>87</ele>
        <time>2022-05-21T08:51:47Z</time>
      </trkpt>
      <trkpt lat="48.08155" lon="-2.10261">
        <ele>83</ele>
        <time>2022-05-21T08:51:55Z</time>
      </trkpt>
      <trkpt lat="48.08186" lon="-2.10188">
        <ele>80</ele>
        <time>2022-05-21T08:52:05Z</time>
      </trkpt>
      <trkpt lat="48.08233" lon="-2.10096">
        <ele>77</ele>
        <time>2022-05-21T08:52:19Z</time>
      </trkpt>
      <trkpt lat="48.08263" lon="-2.10041">
        <ele>77</ele>
        <time>2022-05-21T08:52:28Z</time>
      </trkpt>
      <trkpt lat="48.08299" lon="-2.09985">
        <ele>77</ele>
        <time>2022-05-21T08:52:37Z</time>
      </trkpt>
      <trkpt lat="48.08433" lon="-2.09812">
        <ele>85</ele>
        <time>2022-05-21T08:53:08Z</time>
      </trkpt>
      <trkpt lat="48.08464" lon="-2.09778">
        <ele>86</ele>
        <time>2022-05-21T08:53:15Z</time>
      </trkpt>
      <trkpt lat="48.08483" lon="-2.09761">
        <ele>87</ele>
        <time>2022-05-21T08:53:19Z</time>
      </trkpt>
      <trkpt lat="48.08574" lon="-2.09654">
        <ele>91</ele>
        <time>2022-05-21T08:53:40Z</time>
      </trkpt>
      <trkpt lat="48.086" lon="-2.09632">
        <ele>91</ele>
        <time>2022-05-21T08:53:45Z</time>
      </trkpt>
      <trkpt lat="48.08656" lon="-2.09606">
        <ele>90</ele>
        <time>2022-05-21T08:53:55Z</time>
      </trkpt>
      <trkpt lat="48.0866" lon="-2.09587">
        <ele>90</ele>
        <time>2022-05-21T08:53:58Z</time>
      </trkpt>
      <trkpt lat="48.08653" lon="-2.09558">
        <ele>90</ele>
        <time>2022-05-21T08:54:01Z</time>
      </trkpt>
      <trkpt lat="48.0866" lon="-2.09589">
        <ele>90</ele>
        <time>2022-05-21T08:54:05Z</time>
      </trkpt>
      <trkpt lat="48.08666" lon="-2.096">
        <ele>90</ele>
        <time>2022-05-21T08:54:07Z</time>
      </trkpt>
      <trkpt lat="48.08718" lon="-2.09605">
        <ele>89</ele>
        <time>2022-05-21T08:54:16Z</time>
      </trkpt>
      <trkpt lat="48.08753" lon="-2.09618">
        <ele>89</ele>
        <time>2022-05-21T08:54:23Z</time>
      </trkpt>
      <trkpt lat="48.08855" lon="-2.09667">
        <ele>89</ele>
        <time>2022-05-21T08:54:42Z</time>
      </trkpt>
      <trkpt lat="48.08864" lon="-2.0966">
        <ele>89</ele>
        <time>2022-05-21T08:54:44Z</time>
      </trkpt>
      <trkpt lat="48.08877" lon="-2.09511">
        <ele>91</ele>
        <time>2022-05-21T08:55:01Z</time>
      </trkpt>
      <trkpt lat="48.08879" lon="-2.09456">
        <ele>92</ele>
        <time>2022-05-21T08:55:08Z</time>
      </trkpt>
      <trkpt lat="48.08912" lon="-2.09034">
        <ele>90</ele>
        <time>2022-05-21T08:55:58Z</time>
      </trkpt>
      <trkpt lat="48.08956" lon="-2.08841">
        <ele>86</ele>
        <time>2022-05-21T08:56:23Z</time>
      </trkpt>
      <trkpt lat="48.08981" lon="-2.08745">
        <ele>83</ele>
        <time>2022-05-21T08:56:35Z</time>
      </trkpt>
      <trkpt lat="48.09001" lon="-2.08693">
        <ele>83</ele>
        <time>2022-05-21T08:56:42Z</time>
      </trkpt>
      <trkpt lat="48.09032" lon="-2.0863">
        <ele>80</ele>
        <time>2022-05-21T08:56:51Z</time>
      </trkpt>
      <trkpt lat="48.09046" lon="-2.08594">
        <ele>79</ele>
        <time>2022-05-21T08:56:56Z</time>
      </trkpt>
      <trkpt lat="48.09056" lon="-2.08554">
        <ele>78</ele>
        <time>2022-05-21T08:57:01Z</time>
      </trkpt>
      <trkpt lat="48.09068" lon="-2.08487">
        <ele>77</ele>
        <time>2022-05-21T08:57:10Z</time>
      </trkpt>
      <trkpt lat="48.09068" lon="-2.084">
        <ele>75</ele>
        <time>2022-05-21T08:57:20Z</time>
      </trkpt>
      <trkpt lat="48.09059" lon="-2.08145">
        <ele>73</ele>
        <time>2022-05-21T08:57:50Z</time>
      </trkpt>
      <trkpt lat="48.09027" lon="-2.08028">
        <ele>71</ele>
        <time>2022-05-21T08:58:05Z</time>
      </trkpt>
      <trkpt lat="48.08967" lon="-2.07826">
        <ele>67</ele>
        <time>2022-05-21T08:58:32Z</time>
      </trkpt>
      <trkpt lat="48.08949" lon="-2.07756">
        <ele>68</ele>
        <time>2022-05-21T08:58:41Z</time>
      </trkpt>
      <trkpt lat="48.08935" lon="-2.07686">
        <ele>68</ele>
        <time>2022-05-21T08:58:49Z</time>
      </trkpt>
      <trkpt lat="48.08921" lon="-2.0764">
        <ele>69</ele>
        <time>2022-05-21T08:58:55Z</time>
      </trkpt>
      <trkpt lat="48.08915" lon="-2.07594">
        <ele>72</ele>
        <time>2022-05-21T08:59:01Z</time>
      </trkpt>
      <trkpt lat="48.0892" lon="-2.07496">
        <ele>81</ele>
        <time>2022-05-21T08:59:12Z</time>
      </trkpt>
      <trkpt lat="48.08918" lon="-2.07454">
        <ele>85</ele>
        <time>2022-05-21T08:59:17Z</time>
      </trkpt>
      <trkpt lat="48.08913" lon="-2.07443">
        <ele>87</ele>
        <time>2022-05-21T08:59:19Z</time>
      </trkpt>
      <trkpt lat="48.08902" lon="-2.0743">
        <ele>88</ele>
        <time>2022-05-21T08:59:22Z</time>
      </trkpt>
      <trkpt lat="48.08884" lon="-2.07417">
        <ele>91</ele>
        <time>2022-05-21T08:59:25Z</time>
      </trkpt>
      <trkpt lat="48.08856" lon="-2.07411">
        <ele>92</ele>
        <time>2022-05-21T08:59:30Z</time>
      </trkpt>
      <trkpt lat="48.08826" lon="-2.07401">
        <ele>94</ele>
        <time>2022-05-21T08:59:36Z</time>
      </trkpt>
      <trkpt lat="48.08806" lon="-2.07398">
        <ele>95</ele>
        <time>2022-05-21T08:59:39Z</time>
      </trkpt>
      <trkpt lat="48.08796" lon="-2.07392">
        <ele>96</ele>
        <time>2022-05-21T08:59:41Z</time>
      </trkpt>
      <trkpt lat="48.08791" lon="-2.0738">
        <ele>97</ele>
        <time>2022-05-21T08:59:43Z</time>
      </trkpt>
      <trkpt lat="48.08786" lon="-2.07337">
        <ele>98</ele>
        <time>2022-05-21T08:59:48Z</time>
      </trkpt>
      <trkpt lat="48.08776" lon="-2.07312">
        <ele>98</ele>
        <time>2022-05-21T08:59:51Z</time>
      </trkpt>
      <trkpt lat="48.08726" lon="-2.07226">
        <ele>98</ele>
        <time>2022-05-21T09:00:05Z</time>
      </trkpt>
      <trkpt lat="48.0871" lon="-2.07205">
        <ele>98</ele>
        <time>2022-05-21T09:00:09Z</time>
      </trkpt>
      <trkpt lat="48.08702" lon="-2.072">
        <ele>98</ele>
        <time>2022-05-21T09:00:10Z</time>
      </trkpt>
      <trkpt lat="48.08672" lon="-2.07195">
        <ele>99</ele>
        <time>2022-05-21T09:00:16Z</time>
      </trkpt>
      <trkpt lat="48.08651" lon="-2.07205">
        <ele>99</ele>
        <time>2022-05-21T09:00:20Z</time>
      </trkpt>
      <trkpt lat="48.08612" lon="-2.07231">
        <ele>100</ele>
        <time>2022-05-21T09:00:27Z</time>
      </trkpt>
      <trkpt lat="48.08602" lon="-2.07227">
        <ele>100</ele>
        <time>2022-05-21T09:00:29Z</time>
      </trkpt>
      <trkpt lat="48.08576" lon="-2.06987">
        <ele>97</ele>
        <time>2022-05-21T09:00:58Z</time>
      </trkpt>
      <trkpt lat="48.08576" lon="-2.0697">
        <ele>96</ele>
        <time>2022-05-21T09:01:00Z</time>
      </trkpt>
      <trkpt lat="48.08582" lon="-2.06941">
        <ele>96</ele>
        <time>2022-05-21T09:01:04Z</time>
      </trkpt>
      <trkpt lat="48.08587" lon="-2.06928">
        <ele>96</ele>
        <time>2022-05-21T09:01:05Z</time>
      </trkpt>
      <trkpt lat="48.08693" lon="-2.06709">
        <ele>96</ele>
        <time>2022-05-21T09:01:37Z</time>
      </trkpt>
      <trkpt lat="48.08718" lon="-2.06651">
        <ele>96</ele>
        <time>2022-05-21T09:01:46Z</time>
      </trkpt>
      <trkpt lat="48.08727" lon="-2.06623">
        <ele>96</ele>
        <time>2022-05-21T09:01:49Z</time>
      </trkpt>
      <trkpt lat="48.08736" lon="-2.06589">
        <ele>95</ele>
        <time>2022-05-21T09:01:54Z</time>
      </trkpt>
      <trkpt lat="48.08774" lon="-2.064">
        <ele>97</ele>
        <time>2022-05-21T09:02:17Z</time>
      </trkpt>
      <trkpt lat="48.08782" lon="-2.06371">
        <ele>97</ele>
        <time>2022-05-21T09:02:21Z</time>
      </trkpt>
      <trkpt lat="48.08793" lon="-2.06308">
        <ele>98</ele>
        <time>2022-05-21T09:02:29Z</time>
      </trkpt>
      <trkpt lat="48.08813" lon="-2.06233">
        <ele>98</ele>
        <time>2022-05-21T09:02:38Z</time>
      </trkpt>
      <trkpt lat="48.08842" lon="-2.06221">
        <ele>97</ele>
        <time>2022-05-21T09:02:44Z</time>
      </trkpt>
      <trkpt lat="48.08863" lon="-2.06218">
        <ele>96</ele>
        <time>2022-05-21T09:02:47Z</time>
      </trkpt>
      <trkpt lat="48.08886" lon="-2.06223">
        <ele>96</ele>
        <time>2022-05-21T09:02:52Z</time>
      </trkpt>
      <trkpt lat="48.09004" lon="-2.06234">
        <ele>95</ele>
        <time>2022-05-21T09:03:13Z</time>
      </trkpt>
      <trkpt lat="48.09047" lon="-2.06234">
        <ele>95</ele>
        <time>2022-05-21T09:03:20Z</time>
      </trkpt>
      <trkpt lat="48.09058" lon="-2.06232">
        <ele>95</ele>
        <time>2022-05-21T09:03:22Z</time>
      </trkpt>
      <trkpt lat="48.09167" lon="-2.06249">
        <ele>93</ele>
        <time>2022-05-21T09:03:42Z</time>
      </trkpt>
      <trkpt lat="48.09234" lon="-2.06274">
        <ele>89</ele>
        <time>2022-05-21T09:03:54Z</time>
      </trkpt>
      <trkpt lat="48.09259" lon="-2.06291">
        <ele>88</ele>
        <time>2022-05-21T09:03:59Z</time>
      </trkpt>
      <trkpt lat="48.09273" lon="-2.06297">
        <ele>88</ele>
        <time>2022-05-21T09:04:01Z</time>
      </trkpt>
      <trkpt lat="48.09298" lon="-2.06318">
        <ele>87</ele>
        <time>2022-05-21T09:04:07Z</time>
      </trkpt>
      <trkpt lat="48.09308" lon="-2.06322">
        <ele>87</ele>
        <time>2022-05-21T09:04:08Z</time>
      </trkpt>
      <trkpt lat="48.09316" lon="-2.06295">
        <ele>86</ele>
        <time>2022-05-21T09:04:12Z</time>
      </trkpt>
      <trkpt lat="48.09326" lon="-2.062">
        <ele>84</ele>
        <time>2022-05-21T09:04:23Z</time>
      </trkpt>
      <trkpt lat="48.09326" lon="-2.06181">
        <ele>84</ele>
        <time>2022-05-21T09:04:26Z</time>
      </trkpt>
      <trkpt lat="48.0931" lon="-2.06173">
        <ele>85</ele>
        <time>2022-05-21T09:04:29Z</time>
      </trkpt>
      <trkpt lat="48.09301" lon="-2.06161">
        <ele>86</ele>
        <time>2022-05-21T09:04:31Z</time>
      </trkpt>
      <trkpt lat="48.09297" lon="-2.06129">
        <ele>86</ele>
        <time>2022-05-21T09:04:35Z</time>
      </trkpt>
      <trkpt lat="48.09307" lon="-2.06025">
        <ele>86</ele>
        <time>2022-05-21T09:04:47Z</time>
      </trkpt>
      <trkpt lat="48.09317" lon="-2.0596">
        <ele>88</ele>
        <time>2022-05-21T09:04:55Z</time>
      </trkpt>
      <trkpt lat="48.09347" lon="-2.0589">
        <ele>86</ele>
        <time>2022-05-21T09:05:05Z</time>
      </trkpt>
      <trkpt lat="48.09355" lon="-2.0588">
        <ele>85</ele>
        <time>2022-05-21T09:05:07Z</time>
      </trkpt>
      <trkpt lat="48.09366" lon="-2.05874">
        <ele>82</ele>
        <time>2022-05-21T09:05:09Z</time>
      </trkpt>
      <trkpt lat="48.0938" lon="-2.05876">
        <ele>80</ele>
        <time>2022-05-21T09:05:11Z</time>
      </trkpt>
      <trkpt lat="48.09406" lon="-2.05903">
        <ele>76</ele>
        <time>2022-05-21T09:05:17Z</time>
      </trkpt>
      <trkpt lat="48.0941" lon="-2.05878">
        <ele>74</ele>
        <time>2022-05-21T09:05:20Z</time>
      </trkpt>
      <trkpt lat="48.09404" lon="-2.05859">
        <ele>75</ele>
        <time>2022-05-21T09:05:23Z</time>
      </trkpt>
      <trkpt lat="48.09385" lon="-2.05818">
        <ele>77</ele>
        <time>2022-05-21T09:05:28Z</time>
      </trkpt>
      <trkpt lat="48.09364" lon="-2.05789">
        <ele>78</ele>
        <time>2022-05-21T09:05:34Z</time>
      </trkpt>
      <trkpt lat="48.0935" lon="-2.05779">
        <ele>79</ele>
        <time>2022-05-21T09:05:36Z</time>
      </trkpt>
      <trkpt lat="48.09354" lon="-2.05762">
        <ele>77</ele>
        <time>2022-05-21T09:05:38Z</time>
      </trkpt>
      <trkpt lat="48.09373" lon="-2.05753">
        <ele>75</ele>
        <time>2022-05-21T09:05:42Z</time>
      </trkpt>
      <trkpt lat="48.0939" lon="-2.05766">
        <ele>75</ele>
        <time>2022-05-21T09:05:45Z</time>
      </trkpt>
      <trkpt lat="48.09401" lon="-2.05768">
        <ele>74</ele>
        <time>2022-05-21T09:05:47Z</time>
      </trkpt>
      <trkpt lat="48.09441" lon="-2.05723">
        <ele>76</ele>
        <time>2022-05-21T09:05:56Z</time>
      </trkpt>
      <trkpt lat="48.09476" lon="-2.05675">
        <ele>80</ele>
        <time>2022-05-21T09:06:05Z</time>
      </trkpt>
      <trkpt lat="48.09501" lon="-2.05646">
        <ele>81</ele>
        <time>2022-05-21T09:06:10Z</time>
      </trkpt>
      <trkpt lat="48.0951" lon="-2.05638">
        <ele>81</ele>
        <time>2022-05-21T09:06:12Z</time>
      </trkpt>
      <trkpt lat="48.09519" lon="-2.05634">
        <ele>82</ele>
        <time>2022-05-21T09:06:14Z</time>
      </trkpt>
      <trkpt lat="48.0955" lon="-2.05635">
        <ele>81</ele>
        <time>2022-05-21T09:06:19Z</time>
      </trkpt>
      <trkpt lat="48.0956" lon="-2.0563">
        <ele>81</ele>
        <time>2022-05-21T09:06:21Z</time>
      </trkpt>
      <trkpt lat="48.09566" lon="-2.05619">
        <ele>82</ele>
        <time>2022-05-21T09:06:23Z</time>
      </trkpt>
      <trkpt lat="48.09582" lon="-2.05581">
        <ele>87</ele>
        <time>2022-05-21T09:06:28Z</time>
      </trkpt>
      <trkpt lat="48.09613" lon="-2.05448">
        <ele>95</ele>
        <time>2022-05-21T09:06:45Z</time>
      </trkpt>
      <trkpt lat="48.09658" lon="-2.05289">
        <ele>103</ele>
        <time>2022-05-21T09:07:06Z</time>
      </trkpt>
      <trkpt lat="48.09714" lon="-2.05134">
        <ele>106</ele>
        <time>2022-05-21T09:07:26Z</time>
      </trkpt>
      <trkpt lat="48.09727" lon="-2.05071">
        <ele>107</ele>
        <time>2022-05-21T09:07:34Z</time>
      </trkpt>
      <trkpt lat="48.09734" lon="-2.05055">
        <ele>107</ele>
        <time>2022-05-21T09:07:37Z</time>
      </trkpt>
      <trkpt lat="48.0974" lon="-2.05023">
        <ele>107</ele>
        <time>2022-05-21T09:07:41Z</time>
      </trkpt>
      <trkpt lat="48.09749" lon="-2.04997">
        <ele>107</ele>
        <time>2022-05-21T09:07:44Z</time>
      </trkpt>
      <trkpt lat="48.09751" lon="-2.04981">
        <ele>107</ele>
        <time>2022-05-21T09:07:46Z</time>
      </trkpt>
      <trkpt lat="48.09773" lon="-2.04901">
        <ele>107</ele>
        <time>2022-05-21T09:07:56Z</time>
      </trkpt>
      <trkpt lat="48.09774" lon="-2.04882">
        <ele>107</ele>
        <time>2022-05-21T09:07:58Z</time>
      </trkpt>
      <trkpt lat="48.09771" lon="-2.0485">
        <ele>107</ele>
        <time>2022-05-21T09:08:02Z</time>
      </trkpt>
      <trkpt lat="48.0976" lon="-2.04808">
        <ele>107</ele>
        <time>2022-05-21T09:08:08Z</time>
      </trkpt>
      <trkpt lat="48.09729" lon="-2.04739">
        <ele>108</ele>
        <time>2022-05-21T09:08:18Z</time>
      </trkpt>
      <trkpt lat="48.09697" lon="-2.04685">
        <ele>108</ele>
        <time>2022-05-21T09:08:26Z</time>
      </trkpt>
      <trkpt lat="48.09679" lon="-2.04643">
        <ele>106</ele>
        <time>2022-05-21T09:08:32Z</time>
      </trkpt>
      <trkpt lat="48.09666" lon="-2.04595">
        <ele>104</ele>
        <time>2022-05-21T09:08:38Z</time>
      </trkpt>
      <trkpt lat="48.09624" lon="-2.04492">
        <ele>107</ele>
        <time>2022-05-21T09:08:53Z</time>
      </trkpt>
      <trkpt lat="48.09641" lon="-2.04468">
        <ele>106</ele>
        <time>2022-05-21T09:08:57Z</time>
      </trkpt>
      <trkpt lat="48.09678" lon="-2.04435">
        <ele>106</ele>
        <time>2022-05-21T09:09:04Z</time>
      </trkpt>
      <trkpt lat="48.09737" lon="-2.04394">
        <ele>107</ele>
        <time>2022-05-21T09:09:16Z</time>
      </trkpt>
      <trkpt lat="48.09773" lon="-2.04363">
        <ele>107</ele>
        <time>2022-05-21T09:09:23Z</time>
      </trkpt>
      <trkpt lat="48.09803" lon="-2.04346">
        <ele>108</ele>
        <time>2022-05-21T09:09:29Z</time>
      </trkpt>
      <trkpt lat="48.0982" lon="-2.04328">
        <ele>108</ele>
        <time>2022-05-21T09:09:33Z</time>
      </trkpt>
      <trkpt lat="48.09895" lon="-2.04265">
        <ele>108</ele>
        <time>2022-05-21T09:09:48Z</time>
      </trkpt>
      <trkpt lat="48.09905" lon="-2.0426">
        <ele>107</ele>
        <time>2022-05-21T09:09:50Z</time>
      </trkpt>
      <trkpt lat="48.09913" lon="-2.0425">
        <ele>107</ele>
        <time>2022-05-21T09:09:52Z</time>
      </trkpt>
      <trkpt lat="48.09958" lon="-2.04213">
        <ele>105</ele>
        <time>2022-05-21T09:10:01Z</time>
      </trkpt>
      <trkpt lat="48.09966" lon="-2.04203">
        <ele>105</ele>
        <time>2022-05-21T09:10:03Z</time>
      </trkpt>
      <trkpt lat="48.10008" lon="-2.04166">
        <ele>105</ele>
        <time>2022-05-21T09:10:11Z</time>
      </trkpt>
      <trkpt lat="48.10112" lon="-2.04081">
        <ele>104</ele>
        <time>2022-05-21T09:10:33Z</time>
      </trkpt>
      <trkpt lat="48.10121" lon="-2.04077">
        <ele>104</ele>
        <time>2022-05-21T09:10:34Z</time>
      </trkpt>
      <trkpt lat="48.10144" lon="-2.04054">
        <ele>103</ele>
        <time>2022-05-21T09:10:39Z</time>
      </trkpt>
      <trkpt lat="48.10224" lon="-2.03989">
        <ele>103</ele>
        <time>2022-05-21T09:10:55Z</time>
      </trkpt>
      <trkpt lat="48.10232" lon="-2.0398">
        <ele>103</ele>
        <time>2022-05-21T09:10:57Z</time>
      </trkpt>
      <trkpt lat="48.10229" lon="-2.03963">
        <ele>103</ele>
        <time>2022-05-21T09:10:59Z</time>
      </trkpt>
      <trkpt lat="48.10133" lon="-2.03893">
        <ele>102</ele>
        <time>2022-05-21T09:11:18Z</time>
      </trkpt>
      <trkpt lat="48.10069" lon="-2.03854">
        <ele>103</ele>
        <time>2022-05-21T09:11:30Z</time>
      </trkpt>
      <trkpt lat="48.1005" lon="-2.03838">
        <ele>103</ele>
        <time>2022-05-21T09:11:34Z</time>
      </trkpt>
      <trkpt lat="48.1004" lon="-2.03824">
        <ele>103</ele>
        <time>2022-05-21T09:11:37Z</time>
      </trkpt>
      <trkpt lat="48.10026" lon="-2.03791">
        <ele>104</ele>
        <time>2022-05-21T09:11:41Z</time>
      </trkpt>
      <trkpt lat="48.10015" lon="-2.03741">
        <ele>106</ele>
        <time>2022-05-21T09:11:48Z</time>
      </trkpt>
      <trkpt lat="48.10011" lon="-2.03711">
        <ele>107</ele>
        <time>2022-05-21T09:11:51Z</time>
      </trkpt>
      <trkpt lat="48.10014" lon="-2.03661">
        <ele>107</ele>
        <time>2022-05-21T09:11:57Z</time>
      </trkpt>
      <trkpt lat="48.10021" lon="-2.0359">
        <ele>107</ele>
        <time>2022-05-21T09:12:06Z</time>
      </trkpt>
      <trkpt lat="48.10031" lon="-2.0354">
        <ele>107</ele>
        <time>2022-05-21T09:12:12Z</time>
      </trkpt>
      <trkpt lat="48.10038" lon="-2.03462">
        <ele>106</ele>
        <time>2022-05-21T09:12:21Z</time>
      </trkpt>
      <trkpt lat="48.10027" lon="-2.03456">
        <ele>105</ele>
        <time>2022-05-21T09:12:23Z</time>
      </trkpt>
      <trkpt lat="48.1002" lon="-2.03443">
        <ele>105</ele>
        <time>2022-05-21T09:12:25Z</time>
      </trkpt>
      <trkpt lat="48.10014" lon="-2.03412">
        <ele>104</ele>
        <time>2022-05-21T09:12:29Z</time>
      </trkpt>
      <trkpt lat="48.10021" lon="-2.03357">
        <ele>102</ele>
        <time>2022-05-21T09:12:36Z</time>
      </trkpt>
      <trkpt lat="48.10039" lon="-2.0334">
        <ele>102</ele>
        <time>2022-05-21T09:12:40Z</time>
      </trkpt>
      <trkpt lat="48.10048" lon="-2.03336">
        <ele>102</ele>
        <time>2022-05-21T09:12:41Z</time>
      </trkpt>
      <trkpt lat="48.10051" lon="-2.03322">
        <ele>102</ele>
        <time>2022-05-21T09:12:43Z</time>
      </trkpt>
      <trkpt lat="48.10046" lon="-2.03309">
        <ele>101</ele>
        <time>2022-05-21T09:12:45Z</time>
      </trkpt>
      <trkpt lat="48.10035" lon="-2.03301">
        <ele>101</ele>
        <time>2022-05-21T09:12:47Z</time>
      </trkpt>
      <trkpt lat="48.1002" lon="-2.03285">
        <ele>100</ele>
        <time>2022-05-21T09:12:50Z</time>
      </trkpt>
      <trkpt lat="48.10016" lon="-2.03273">
        <ele>99</ele>
        <time>2022-05-21T09:12:52Z</time>
      </trkpt>
      <trkpt lat="48.10019" lon="-2.03243">
        <ele>98</ele>
        <time>2022-05-21T09:12:56Z</time>
      </trkpt>
      <trkpt lat="48.10018" lon="-2.03226">
        <ele>98</ele>
        <time>2022-05-21T09:12:58Z</time>
      </trkpt>
      <trkpt lat="48.10022" lon="-2.03212">
        <ele>98</ele>
        <time>2022-05-21T09:12:59Z</time>
      </trkpt>
      <trkpt lat="48.1003" lon="-2.03199">
        <ele>99</ele>
        <time>2022-05-21T09:13:02Z</time>
      </trkpt>
      <trkpt lat="48.10056" lon="-2.03171">
        <ele>101</ele>
        <time>2022-05-21T09:13:07Z</time>
      </trkpt>
      <trkpt lat="48.10062" lon="-2.03161">
        <ele>101</ele>
        <time>2022-05-21T09:13:09Z</time>
      </trkpt>
      <trkpt lat="48.10073" lon="-2.03138">
        <ele>101</ele>
        <time>2022-05-21T09:13:12Z</time>
      </trkpt>
      <trkpt lat="48.10078" lon="-2.03107">
        <ele>101</ele>
        <time>2022-05-21T09:13:16Z</time>
      </trkpt>
      <trkpt lat="48.10071" lon="-2.03079">
        <ele>100</ele>
        <time>2022-05-21T09:13:20Z</time>
      </trkpt>
      <trkpt lat="48.10064" lon="-2.0307">
        <ele>99</ele>
        <time>2022-05-21T09:13:21Z</time>
      </trkpt>
      <trkpt lat="48.10056" lon="-2.03064">
        <ele>99</ele>
        <time>2022-05-21T09:13:23Z</time>
      </trkpt>
      <trkpt lat="48.10037" lon="-2.03062">
        <ele>99</ele>
        <time>2022-05-21T09:13:26Z</time>
      </trkpt>
      <trkpt lat="48.10047" lon="-2.03059">
        <ele>99</ele>
        <time>2022-05-21T09:13:28Z</time>
      </trkpt>
      <trkpt lat="48.10052" lon="-2.03048">
        <ele>99</ele>
        <time>2022-05-21T09:13:30Z</time>
      </trkpt>
      <trkpt lat="48.10054" lon="-2.03034">
        <ele>98</ele>
        <time>2022-05-21T09:13:31Z</time>
      </trkpt>
      <trkpt lat="48.1004" lon="-2.02995">
        <ele>97</ele>
        <time>2022-05-21T09:13:36Z</time>
      </trkpt>
      <trkpt lat="48.10048" lon="-2.03005">
        <ele>98</ele>
        <time>2022-05-21T09:13:38Z</time>
      </trkpt>
      <trkpt lat="48.10063" lon="-2.03059">
        <ele>99</ele>
        <time>2022-05-21T09:13:45Z</time>
      </trkpt>
      <trkpt lat="48.10059" lon="-2.03046">
        <ele>99</ele>
        <time>2022-05-21T09:13:47Z</time>
      </trkpt>
      <trkpt lat="48.10067" lon="-2.03037">
        <ele>99</ele>
        <time>2022-05-21T09:13:49Z</time>
      </trkpt>
      <trkpt lat="48.10076" lon="-2.03032">
        <ele>99</ele>
        <time>2022-05-21T09:13:50Z</time>
      </trkpt>
      <trkpt lat="48.1006" lon="-2.03046">
        <ele>99</ele>
        <time>2022-05-21T09:13:54Z</time>
      </trkpt>
      <trkpt lat="48.10068" lon="-2.03038">
        <ele>99</ele>
        <time>2022-05-21T09:13:55Z</time>
      </trkpt>
      <trkpt lat="48.10077" lon="-2.03034">
        <ele>99</ele>
        <time>2022-05-21T09:13:57Z</time>
      </trkpt>
      <trkpt lat="48.1007" lon="-2.03023">
        <ele>98</ele>
        <time>2022-05-21T09:13:59Z</time>
      </trkpt>
      <trkpt lat="48.10075" lon="-2.03034">
        <ele>99</ele>
        <time>2022-05-21T09:14:01Z</time>
      </trkpt>
      <trkpt lat="48.10067" lon="-2.03042">
        <ele>99</ele>
        <time>2022-05-21T09:14:02Z</time>
      </trkpt>
      <trkpt lat="48.10067" lon="-2.03068">
        <ele>99</ele>
        <time>2022-05-21T09:14:05Z</time>
      </trkpt>
      <trkpt lat="48.10075" lon="-2.03084">
        <ele>100</ele>
        <time>2022-05-21T09:14:08Z</time>
      </trkpt>
      <trkpt lat="48.10082" lon="-2.03094">
        <ele>100</ele>
        <time>2022-05-21T09:14:09Z</time>
      </trkpt>
      <trkpt lat="48.10112" lon="-2.03123">
        <ele>101</ele>
        <time>2022-05-21T09:14:16Z</time>
      </trkpt>
      <trkpt lat="48.10154" lon="-2.03185">
        <ele>102</ele>
        <time>2022-05-21T09:14:26Z</time>
      </trkpt>
      <trkpt lat="48.10187" lon="-2.03198">
        <ele>101</ele>
        <time>2022-05-21T09:14:32Z</time>
      </trkpt>
      <trkpt lat="48.10209" lon="-2.03198">
        <ele>101</ele>
        <time>2022-05-21T09:14:36Z</time>
      </trkpt>
      <trkpt lat="48.10222" lon="-2.03201">
        <ele>101</ele>
        <time>2022-05-21T09:14:39Z</time>
      </trkpt>
      <trkpt lat="48.10229" lon="-2.03212">
        <ele>101</ele>
        <time>2022-05-21T09:14:40Z</time>
      </trkpt>
      <trkpt lat="48.10235" lon="-2.03293">
        <ele>101</ele>
        <time>2022-05-21T09:14:50Z</time>
      </trkpt>
      <trkpt lat="48.10242" lon="-2.0331">
        <ele>100</ele>
        <time>2022-05-21T09:14:52Z</time>
      </trkpt>
      <trkpt lat="48.10279" lon="-2.0335">
        <ele>99</ele>
        <time>2022-05-21T09:15:01Z</time>
      </trkpt>
      <trkpt lat="48.10332" lon="-2.03374">
        <ele>99</ele>
        <time>2022-05-21T09:15:10Z</time>
      </trkpt>
      <trkpt lat="48.10353" lon="-2.0338">
        <ele>99</ele>
        <time>2022-05-21T09:15:14Z</time>
      </trkpt>
      <trkpt lat="48.10376" lon="-2.03383">
        <ele>99</ele>
        <time>2022-05-21T09:15:18Z</time>
      </trkpt>
      <trkpt lat="48.10453" lon="-2.03383">
        <ele>101</ele>
        <time>2022-05-21T09:15:32Z</time>
      </trkpt>
      <trkpt lat="48.10464" lon="-2.03385">
        <ele>101</ele>
        <time>2022-05-21T09:15:34Z</time>
      </trkpt>
      <trkpt lat="48.10474" lon="-2.03382">
        <ele>101</ele>
        <time>2022-05-21T09:15:36Z</time>
      </trkpt>
      <trkpt lat="48.10484" lon="-2.03383">
        <ele>102</ele>
        <time>2022-05-21T09:15:38Z</time>
      </trkpt>
      <trkpt lat="48.10506" lon="-2.0338">
        <ele>103</ele>
        <time>2022-05-21T09:15:42Z</time>
      </trkpt>
      <trkpt lat="48.10602" lon="-2.03378">
        <ele>105</ele>
        <time>2022-05-21T09:15:59Z</time>
      </trkpt>
      <trkpt lat="48.10648" lon="-2.03381">
        <ele>106</ele>
        <time>2022-05-21T09:16:07Z</time>
      </trkpt>
      <trkpt lat="48.10671" lon="-2.03388">
        <ele>106</ele>
        <time>2022-05-21T09:16:11Z</time>
      </trkpt>
      <trkpt lat="48.10693" lon="-2.03399">
        <ele>106</ele>
        <time>2022-05-21T09:16:15Z</time>
      </trkpt>
      <trkpt lat="48.10742" lon="-2.0343">
        <ele>106</ele>
        <time>2022-05-21T09:16:25Z</time>
      </trkpt>
      <trkpt lat="48.10776" lon="-2.03439">
        <ele>105</ele>
        <time>2022-05-21T09:16:31Z</time>
      </trkpt>
      <trkpt lat="48.10817" lon="-2.03454">
        <ele>103</ele>
        <time>2022-05-21T09:16:38Z</time>
      </trkpt>
      <trkpt lat="48.10863" lon="-2.0348">
        <ele>103</ele>
        <time>2022-05-21T09:16:47Z</time>
      </trkpt>
      <trkpt lat="48.10872" lon="-2.03483">
        <ele>103</ele>
        <time>2022-05-21T09:16:49Z</time>
      </trkpt>
      <trkpt lat="48.10883" lon="-2.03482">
        <ele>103</ele>
        <time>2022-05-21T09:16:51Z</time>
      </trkpt>
      <trkpt lat="48.10897" lon="-2.03459">
        <ele>103</ele>
        <time>2022-05-21T09:16:54Z</time>
      </trkpt>
      <trkpt lat="48.10905" lon="-2.03452">
        <ele>103</ele>
        <time>2022-05-21T09:16:56Z</time>
      </trkpt>
      <trkpt lat="48.10915" lon="-2.03449">
        <ele>104</ele>
        <time>2022-05-21T09:16:58Z</time>
      </trkpt>
      <trkpt lat="48.10925" lon="-2.03451">
        <ele>103</ele>
        <time>2022-05-21T09:17:00Z</time>
      </trkpt>
      <trkpt lat="48.10945" lon="-2.03475">
        <ele>103</ele>
        <time>2022-05-21T09:17:04Z</time>
      </trkpt>
      <trkpt lat="48.10974" lon="-2.03489">
        <ele>102</ele>
        <time>2022-05-21T09:17:10Z</time>
      </trkpt>
      <trkpt lat="48.10986" lon="-2.0349">
        <ele>101</ele>
        <time>2022-05-21T09:17:12Z</time>
      </trkpt>
      <trkpt lat="48.10999" lon="-2.03468">
        <ele>101</ele>
        <time>2022-05-21T09:17:15Z</time>
      </trkpt>
      <trkpt lat="48.11008" lon="-2.03438">
        <ele>101</ele>
        <time>2022-05-21T09:17:19Z</time>
      </trkpt>
      <trkpt lat="48.1101" lon="-2.03421">
        <ele>101</ele>
        <time>2022-05-21T09:17:21Z</time>
      </trkpt>
      <trkpt lat="48.11014" lon="-2.03354">
        <ele>101</ele>
        <time>2022-05-21T09:17:29Z</time>
      </trkpt>
      <trkpt lat="48.11013" lon="-2.0332">
        <ele>101</ele>
        <time>2022-05-21T09:17:33Z</time>
      </trkpt>
      <trkpt lat="48.11016" lon="-2.0328">
        <ele>100</ele>
        <time>2022-05-21T09:17:38Z</time>
      </trkpt>
      <trkpt lat="48.11018" lon="-2.03182">
        <ele>99</ele>
        <time>2022-05-21T09:17:50Z</time>
      </trkpt>
      <trkpt lat="48.11027" lon="-2.03039">
        <ele>99</ele>
        <time>2022-05-21T09:18:07Z</time>
      </trkpt>
      <trkpt lat="48.11027" lon="-2.02978">
        <ele>99</ele>
        <time>2022-05-21T09:18:14Z</time>
      </trkpt>
      <trkpt lat="48.11018" lon="-2.0288">
        <ele>99</ele>
        <time>2022-05-21T09:18:26Z</time>
      </trkpt>
      <trkpt lat="48.11015" lon="-2.02813">
        <ele>98</ele>
        <time>2022-05-21T09:18:34Z</time>
      </trkpt>
      <trkpt lat="48.11016" lon="-2.0279">
        <ele>98</ele>
        <time>2022-05-21T09:18:36Z</time>
      </trkpt>
      <trkpt lat="48.11033" lon="-2.02704">
        <ele>98</ele>
        <time>2022-05-21T09:18:47Z</time>
      </trkpt>
      <trkpt lat="48.11051" lon="-2.02548">
        <ele>99</ele>
        <time>2022-05-21T09:19:06Z</time>
      </trkpt>
      <trkpt lat="48.11049" lon="-2.02532">
        <ele>99</ele>
        <time>2022-05-21T09:19:08Z</time>
      </trkpt>
      <trkpt lat="48.11043" lon="-2.02518">
        <ele>100</ele>
        <time>2022-05-21T09:19:10Z</time>
      </trkpt>
      <trkpt lat="48.10957" lon="-2.02444">
        <ele>101</ele>
        <time>2022-05-21T09:19:27Z</time>
      </trkpt>
      <trkpt lat="48.10947" lon="-2.02433">
        <ele>101</ele>
        <time>2022-05-21T09:19:30Z</time>
      </trkpt>
      <trkpt lat="48.10937" lon="-2.02419">
        <ele>102</ele>
        <time>2022-05-21T09:19:32Z</time>
      </trkpt>
      <trkpt lat="48.10894" lon="-2.02341">
        <ele>102</ele>
        <time>2022-05-21T09:19:44Z</time>
      </trkpt>
      <trkpt lat="48.10799" lon="-2.02287">
        <ele>102</ele>
        <time>2022-05-21T09:20:02Z</time>
      </trkpt>
      <trkpt lat="48.10739" lon="-2.02271">
        <ele>102</ele>
        <time>2022-05-21T09:20:13Z</time>
      </trkpt>
      <trkpt lat="48.10731" lon="-2.02264">
        <ele>103</ele>
        <time>2022-05-21T09:20:15Z</time>
      </trkpt>
      <trkpt lat="48.10729" lon="-2.0222">
        <ele>103</ele>
        <time>2022-05-21T09:20:20Z</time>
      </trkpt>
      <trkpt lat="48.10736" lon="-2.0212">
        <ele>105</ele>
        <time>2022-05-21T09:20:32Z</time>
      </trkpt>
      <trkpt lat="48.10733" lon="-2.02092">
        <ele>106</ele>
        <time>2022-05-21T09:20:35Z</time>
      </trkpt>
      <trkpt lat="48.10733" lon="-2.02045">
        <ele>106</ele>
        <time>2022-05-21T09:20:41Z</time>
      </trkpt>
      <trkpt lat="48.10701" lon="-2.01991">
        <ele>104</ele>
        <time>2022-05-21T09:20:49Z</time>
      </trkpt>
      <trkpt lat="48.10682" lon="-2.01946">
        <ele>101</ele>
        <time>2022-05-21T09:20:56Z</time>
      </trkpt>
      <trkpt lat="48.10678" lon="-2.01933">
        <ele>100</ele>
        <time>2022-05-21T09:20:57Z</time>
      </trkpt>
      <trkpt lat="48.10676" lon="-2.01881">
        <ele>97</ele>
        <time>2022-05-21T09:21:04Z</time>
      </trkpt>
      <trkpt lat="48.1068" lon="-2.01845">
        <ele>95</ele>
        <time>2022-05-21T09:21:08Z</time>
      </trkpt>
      <trkpt lat="48.10691" lon="-2.01797">
        <ele>91</ele>
        <time>2022-05-21T09:21:14Z</time>
      </trkpt>
      <trkpt lat="48.10697" lon="-2.01785">
        <ele>90</ele>
        <time>2022-05-21T09:21:16Z</time>
      </trkpt>
      <trkpt lat="48.10735" lon="-2.01752">
        <ele>88</ele>
        <time>2022-05-21T09:21:24Z</time>
      </trkpt>
      <trkpt lat="48.10741" lon="-2.01741">
        <ele>88</ele>
        <time>2022-05-21T09:21:25Z</time>
      </trkpt>
      <trkpt lat="48.1074" lon="-2.01713">
        <ele>87</ele>
        <time>2022-05-21T09:21:29Z</time>
      </trkpt>
      <trkpt lat="48.10735" lon="-2.01683">
        <ele>86</ele>
        <time>2022-05-21T09:21:32Z</time>
      </trkpt>
      <trkpt lat="48.1074" lon="-2.01699">
        <ele>87</ele>
        <time>2022-05-21T09:21:34Z</time>
      </trkpt>
      <trkpt lat="48.10745" lon="-2.0173">
        <ele>88</ele>
        <time>2022-05-21T09:21:38Z</time>
      </trkpt>
      <trkpt lat="48.10764" lon="-2.0173">
        <ele>88</ele>
        <time>2022-05-21T09:21:41Z</time>
      </trkpt>
      <trkpt lat="48.10773" lon="-2.01726">
        <ele>88</ele>
        <time>2022-05-21T09:21:43Z</time>
      </trkpt>
      <trkpt lat="48.10794" lon="-2.01724">
        <ele>87</ele>
        <time>2022-05-21T09:21:47Z</time>
      </trkpt>
      <trkpt lat="48.10805" lon="-2.01725">
        <ele>87</ele>
        <time>2022-05-21T09:21:49Z</time>
      </trkpt>
      <trkpt lat="48.10824" lon="-2.01734">
        <ele>87</ele>
        <time>2022-05-21T09:21:52Z</time>
      </trkpt>
      <trkpt lat="48.10845" lon="-2.0175">
        <ele>86</ele>
        <time>2022-05-21T09:21:57Z</time>
      </trkpt>
      <trkpt lat="48.10854" lon="-2.01753">
        <ele>86</ele>
        <time>2022-05-21T09:21:58Z</time>
      </trkpt>
      <trkpt lat="48.10871" lon="-2.01767">
        <ele>86</ele>
        <time>2022-05-21T09:22:02Z</time>
      </trkpt>
      <trkpt lat="48.10882" lon="-2.01768">
        <ele>86</ele>
        <time>2022-05-21T09:22:04Z</time>
      </trkpt>
      <trkpt lat="48.10901" lon="-2.01761">
        <ele>83</ele>
        <time>2022-05-21T09:22:07Z</time>
      </trkpt>
      <trkpt lat="48.1091" lon="-2.01764">
        <ele>83</ele>
        <time>2022-05-21T09:22:09Z</time>
      </trkpt>
      <trkpt lat="48.10931" lon="-2.01762">
        <ele>82</ele>
        <time>2022-05-21T09:22:13Z</time>
      </trkpt>
      <trkpt lat="48.10931" lon="-2.01748">
        <ele>81</ele>
        <time>2022-05-21T09:22:14Z</time>
      </trkpt>
      <trkpt lat="48.1094" lon="-2.01753">
        <ele>81</ele>
        <time>2022-05-21T09:22:16Z</time>
      </trkpt>
      <trkpt lat="48.10958" lon="-2.01748">
        <ele>80</ele>
        <time>2022-05-21T09:22:19Z</time>
      </trkpt>
      <trkpt lat="48.10967" lon="-2.01751">
        <ele>80</ele>
        <time>2022-05-21T09:22:21Z</time>
      </trkpt>
      <trkpt lat="48.10994" lon="-2.01769">
        <ele>81</ele>
        <time>2022-05-21T09:22:26Z</time>
      </trkpt>
      <trkpt lat="48.11012" lon="-2.01774">
        <ele>81</ele>
        <time>2022-05-21T09:22:29Z</time>
      </trkpt>
      <trkpt lat="48.11056" lon="-2.01833">
        <ele>79</ele>
        <time>2022-05-21T09:22:40Z</time>
      </trkpt>
      <trkpt lat="48.11081" lon="-2.01859">
        <ele>76</ele>
        <time>2022-05-21T09:22:45Z</time>
      </trkpt>
      <trkpt lat="48.11095" lon="-2.01878">
        <ele>75</ele>
        <time>2022-05-21T09:22:49Z</time>
      </trkpt>
      <trkpt lat="48.11115" lon="-2.01882">
        <ele>74</ele>
        <time>2022-05-21T09:22:52Z</time>
      </trkpt>
      <trkpt lat="48.11124" lon="-2.01881">
        <ele>73</ele>
        <time>2022-05-21T09:22:54Z</time>
      </trkpt>
      <trkpt lat="48.11144" lon="-2.01875">
        <ele>71</ele>
        <time>2022-05-21T09:22:57Z</time>
      </trkpt>
      <trkpt lat="48.11154" lon="-2.0187">
        <ele>70</ele>
        <time>2022-05-21T09:22:59Z</time>
      </trkpt>
      <trkpt lat="48.11162" lon="-2.01862">
        <ele>69</ele>
        <time>2022-05-21T09:23:01Z</time>
      </trkpt>
      <trkpt lat="48.11169" lon="-2.01835">
        <ele>68</ele>
        <time>2022-05-21T09:23:04Z</time>
      </trkpt>
      <trkpt lat="48.11177" lon="-2.01825">
        <ele>68</ele>
        <time>2022-05-21T09:23:06Z</time>
      </trkpt>
      <trkpt lat="48.11189" lon="-2.01819">
        <ele>67</ele>
        <time>2022-05-21T09:23:09Z</time>
      </trkpt>
      <trkpt lat="48.11196" lon="-2.01809">
        <ele>67</ele>
        <time>2022-05-21T09:23:10Z</time>
      </trkpt>
      <trkpt lat="48.11215" lon="-2.01775">
        <ele>67</ele>
        <time>2022-05-21T09:23:16Z</time>
      </trkpt>
      <trkpt lat="48.11224" lon="-2.0175">
        <ele>66</ele>
        <time>2022-05-21T09:23:19Z</time>
      </trkpt>
      <trkpt lat="48.11232" lon="-2.01741">
        <ele>65</ele>
        <time>2022-05-21T09:23:21Z</time>
      </trkpt>
      <trkpt lat="48.11242" lon="-2.01739">
        <ele>63</ele>
        <time>2022-05-21T09:23:22Z</time>
      </trkpt>
      <trkpt lat="48.1125" lon="-2.01742">
        <ele>61</ele>
        <time>2022-05-21T09:23:24Z</time>
      </trkpt>
      <trkpt lat="48.11261" lon="-2.01742">
        <ele>61</ele>
        <time>2022-05-21T09:23:26Z</time>
      </trkpt>
      <trkpt lat="48.11279" lon="-2.01756">
        <ele>60</ele>
        <time>2022-05-21T09:23:30Z</time>
      </trkpt>
      <trkpt lat="48.11286" lon="-2.01766">
        <ele>60</ele>
        <time>2022-05-21T09:23:31Z</time>
      </trkpt>
      <trkpt lat="48.11304" lon="-2.01778">
        <ele>60</ele>
        <time>2022-05-21T09:23:35Z</time>
      </trkpt>
      <trkpt lat="48.1134" lon="-2.0181">
        <ele>61</ele>
        <time>2022-05-21T09:23:42Z</time>
      </trkpt>
      <trkpt lat="48.11349" lon="-2.01816">
        <ele>61</ele>
        <time>2022-05-21T09:23:44Z</time>
      </trkpt>
      <trkpt lat="48.11359" lon="-2.01813">
        <ele>61</ele>
        <time>2022-05-21T09:23:46Z</time>
      </trkpt>
      <trkpt lat="48.11388" lon="-2.01791">
        <ele>60</ele>
        <time>2022-05-21T09:23:52Z</time>
      </trkpt>
      <trkpt lat="48.11411" lon="-2.01755">
        <ele>58</ele>
        <time>2022-05-21T09:23:57Z</time>
      </trkpt>
      <trkpt lat="48.11441" lon="-2.01663">
        <ele>54</ele>
        <time>2022-05-21T09:24:10Z</time>
      </trkpt>
      <trkpt lat="48.11456" lon="-2.01603">
        <ele>56</ele>
        <time>2022-05-21T09:24:17Z</time>
      </trkpt>
      <trkpt lat="48.11467" lon="-2.01575">
        <ele>57</ele>
        <time>2022-05-21T09:24:21Z</time>
      </trkpt>
      <trkpt lat="48.11475" lon="-2.01567">
        <ele>57</ele>
        <time>2022-05-21T09:24:23Z</time>
      </trkpt>
      <trkpt lat="48.11517" lon="-2.01551">
        <ele>57</ele>
        <time>2022-05-21T09:24:31Z</time>
      </trkpt>
      <trkpt lat="48.11528" lon="-2.01544">
        <ele>57</ele>
        <time>2022-05-21T09:24:33Z</time>
      </trkpt>
      <trkpt lat="48.11579" lon="-2.01501">
        <ele>56</ele>
        <time>2022-05-21T09:24:43Z</time>
      </trkpt>
      <trkpt lat="48.11629" lon="-2.01314">
        <ele>61</ele>
        <time>2022-05-21T09:25:07Z</time>
      </trkpt>
      <trkpt lat="48.11682" lon="-2.01135">
        <ele>62</ele>
        <time>2022-05-21T09:25:30Z</time>
      </trkpt>
      <trkpt lat="48.11679" lon="-2.01107">
        <ele>63</ele>
        <time>2022-05-21T09:25:34Z</time>
      </trkpt>
      <trkpt lat="48.11662" lon="-2.01104">
        <ele>64</ele>
        <time>2022-05-21T09:25:37Z</time>
      </trkpt>
      <trkpt lat="48.11631" lon="-2.01068">
        <ele>66</ele>
        <time>2022-05-21T09:25:44Z</time>
      </trkpt>
      <trkpt lat="48.11609" lon="-2.01035">
        <ele>68</ele>
        <time>2022-05-21T09:25:49Z</time>
      </trkpt>
      <trkpt lat="48.11507" lon="-2.00837">
        <ele>84</ele>
        <time>2022-05-21T09:26:19Z</time>
      </trkpt>
      <trkpt lat="48.11489" lon="-2.00806">
        <ele>85</ele>
        <time>2022-05-21T09:26:24Z</time>
      </trkpt>
      <trkpt lat="48.11472" lon="-2.00769">
        <ele>87</ele>
        <time>2022-05-21T09:26:29Z</time>
      </trkpt>
      <trkpt lat="48.11433" lon="-2.00701">
        <ele>89</ele>
        <time>2022-05-21T09:26:40Z</time>
      </trkpt>
      <trkpt lat="48.11417" lon="-2.0068">
        <ele>90</ele>
        <time>2022-05-21T09:26:44Z</time>
      </trkpt>
      <trkpt lat="48.11393" lon="-2.00656">
        <ele>93</ele>
        <time>2022-05-21T09:26:49Z</time>
      </trkpt>
      <trkpt lat="48.11359" lon="-2.00631">
        <ele>97</ele>
        <time>2022-05-21T09:26:55Z</time>
      </trkpt>
      <trkpt lat="48.11267" lon="-2.00581">
        <ele>104</ele>
        <time>2022-05-21T09:27:13Z</time>
      </trkpt>
      <trkpt lat="48.11264" lon="-2.00567">
        <ele>105</ele>
        <time>2022-05-21T09:27:15Z</time>
      </trkpt>
      <trkpt lat="48.11275" lon="-2.0045">
        <ele>109</ele>
        <time>2022-05-21T09:27:29Z</time>
      </trkpt>
      <trkpt lat="48.1129" lon="-2.00349">
        <ele>113</ele>
        <time>2022-05-21T09:27:41Z</time>
      </trkpt>
      <trkpt lat="48.1129" lon="-2.00301">
        <ele>115</ele>
        <time>2022-05-21T09:27:47Z</time>
      </trkpt>
      <trkpt lat="48.11299" lon="-2.00206">
        <ele>117</ele>
        <time>2022-05-21T09:27:58Z</time>
      </trkpt>
      <trkpt lat="48.113" lon="-2.00159">
        <ele>119</ele>
        <time>2022-05-21T09:28:04Z</time>
      </trkpt>
      <trkpt lat="48.11295" lon="-2.00099">
        <ele>120</ele>
        <time>2022-05-21T09:28:11Z</time>
      </trkpt>
      <trkpt lat="48.11281" lon="-2.00031">
        <ele>121</ele>
        <time>2022-05-21T09:28:19Z</time>
      </trkpt>
      <trkpt lat="48.11257" lon="-1.99936">
        <ele>123</ele>
        <time>2022-05-21T09:28:31Z</time>
      </trkpt>
      <trkpt lat="48.11241" lon="-1.99883">
        <ele>123</ele>
        <time>2022-05-21T09:28:38Z</time>
      </trkpt>
      <trkpt lat="48.11206" lon="-1.99806">
        <ele>124</ele>
        <time>2022-05-21T09:28:49Z</time>
      </trkpt>
      <trkpt lat="48.11198" lon="-1.99795">
        <ele>124</ele>
        <time>2022-05-21T09:28:51Z</time>
      </trkpt>
      <trkpt lat="48.11194" lon="-1.99782">
        <ele>123</ele>
        <time>2022-05-21T09:28:53Z</time>
      </trkpt>
      <trkpt lat="48.11195" lon="-1.99718">
        <ele>123</ele>
        <time>2022-05-21T09:29:01Z</time>
      </trkpt>
      <trkpt lat="48.11186" lon="-1.99645">
        <ele>124</ele>
        <time>2022-05-21T09:29:09Z</time>
      </trkpt>
      <trkpt lat="48.11132" lon="-1.99387">
        <ele>125</ele>
        <time>2022-05-21T09:29:41Z</time>
      </trkpt>
      <trkpt lat="48.11117" lon="-1.99327">
        <ele>125</ele>
        <time>2022-05-21T09:29:49Z</time>
      </trkpt>
      <trkpt lat="48.11088" lon="-1.99255">
        <ele>124</ele>
        <time>2022-05-21T09:29:59Z</time>
      </trkpt>
      <trkpt lat="48.11022" lon="-1.99125">
        <ele>124</ele>
        <time>2022-05-21T09:30:18Z</time>
      </trkpt>
      <trkpt lat="48.11013" lon="-1.99098">
        <ele>124</ele>
        <time>2022-05-21T09:30:22Z</time>
      </trkpt>
      <trkpt lat="48.11007" lon="-1.99069">
        <ele>124</ele>
        <time>2022-05-21T09:30:26Z</time>
      </trkpt>
      <trkpt lat="48.10984" lon="-1.98874">
        <ele>125</ele>
        <time>2022-05-21T09:30:49Z</time>
      </trkpt>
      <trkpt lat="48.10981" lon="-1.98832">
        <ele>124</ele>
        <time>2022-05-21T09:30:54Z</time>
      </trkpt>
      <trkpt lat="48.10983" lon="-1.98741">
        <ele>124</ele>
        <time>2022-05-21T09:31:05Z</time>
      </trkpt>
      <trkpt lat="48.10991" lon="-1.9866">
        <ele>125</ele>
        <time>2022-05-21T09:31:15Z</time>
      </trkpt>
      <trkpt lat="48.10992" lon="-1.98626">
        <ele>125</ele>
        <time>2022-05-21T09:31:19Z</time>
      </trkpt>
      <trkpt lat="48.11004" lon="-1.98544">
        <ele>125</ele>
        <time>2022-05-21T09:31:29Z</time>
      </trkpt>
      <trkpt lat="48.11014" lon="-1.98402">
        <ele>124</ele>
        <time>2022-05-21T09:31:46Z</time>
      </trkpt>
      <trkpt lat="48.1103" lon="-1.98225">
        <ele>124</ele>
        <time>2022-05-21T09:32:07Z</time>
      </trkpt>
      <trkpt lat="48.11034" lon="-1.98013">
        <ele>124</ele>
        <time>2022-05-21T09:32:32Z</time>
      </trkpt>
      <trkpt lat="48.11034" lon="-1.97951">
        <ele>126</ele>
        <time>2022-05-21T09:32:39Z</time>
      </trkpt>
      <trkpt lat="48.11031" lon="-1.97906">
        <ele>127</ele>
        <time>2022-05-21T09:32:45Z</time>
      </trkpt>
      <trkpt lat="48.10996" lon="-1.97754">
        <ele>132</ele>
        <time>2022-05-21T09:33:04Z</time>
      </trkpt>
      <trkpt lat="48.10973" lon="-1.97678">
        <ele>130</ele>
        <time>2022-05-21T09:33:14Z</time>
      </trkpt>
      <trkpt lat="48.1096" lon="-1.9765">
        <ele>129</ele>
        <time>2022-05-21T09:33:18Z</time>
      </trkpt>
      <trkpt lat="48.10925" lon="-1.97612">
        <ele>126</ele>
        <time>2022-05-21T09:33:26Z</time>
      </trkpt>
      <trkpt lat="48.10911" lon="-1.97586">
        <ele>126</ele>
        <time>2022-05-21T09:33:30Z</time>
      </trkpt>
      <trkpt lat="48.10907" lon="-1.97569">
        <ele>126</ele>
        <time>2022-05-21T09:33:32Z</time>
      </trkpt>
      <trkpt lat="48.10891" lon="-1.97465">
        <ele>127</ele>
        <time>2022-05-21T09:33:44Z</time>
      </trkpt>
      <trkpt lat="48.1089" lon="-1.9745">
        <ele>127</ele>
        <time>2022-05-21T09:33:46Z</time>
      </trkpt>
      <trkpt lat="48.10896" lon="-1.97391">
        <ele>127</ele>
        <time>2022-05-21T09:33:53Z</time>
      </trkpt>
      <trkpt lat="48.10896" lon="-1.97362">
        <ele>127</ele>
        <time>2022-05-21T09:33:57Z</time>
      </trkpt>
      <trkpt lat="48.10888" lon="-1.97261">
        <ele>128</ele>
        <time>2022-05-21T09:34:09Z</time>
      </trkpt>
      <trkpt lat="48.10881" lon="-1.97217">
        <ele>128</ele>
        <time>2022-05-21T09:34:14Z</time>
      </trkpt>
      <trkpt lat="48.1087" lon="-1.97192">
        <ele>127</ele>
        <time>2022-05-21T09:34:18Z</time>
      </trkpt>
      <trkpt lat="48.10849" lon="-1.97195">
        <ele>126</ele>
        <time>2022-05-21T09:34:22Z</time>
      </trkpt>
      <trkpt lat="48.10826" lon="-1.97223">
        <ele>124</ele>
        <time>2022-05-21T09:34:27Z</time>
      </trkpt>
      <trkpt lat="48.10817" lon="-1.97229">
        <ele>124</ele>
        <time>2022-05-21T09:34:29Z</time>
      </trkpt>
      <trkpt lat="48.10807" lon="-1.97224">
        <ele>124</ele>
        <time>2022-05-21T09:34:30Z</time>
      </trkpt>
      <trkpt lat="48.10764" lon="-1.97108">
        <ele>124</ele>
        <time>2022-05-21T09:34:46Z</time>
      </trkpt>
      <trkpt lat="48.10746" lon="-1.97066">
        <ele>125</ele>
        <time>2022-05-21T09:34:52Z</time>
      </trkpt>
      <trkpt lat="48.10669" lon="-1.96933">
        <ele>129</ele>
        <time>2022-05-21T09:35:13Z</time>
      </trkpt>
      <trkpt lat="48.1065" lon="-1.96892">
        <ele>128</ele>
        <time>2022-05-21T09:35:19Z</time>
      </trkpt>
      <trkpt lat="48.10609" lon="-1.96771">
        <ele>125</ele>
        <time>2022-05-21T09:35:35Z</time>
      </trkpt>
      <trkpt lat="48.10597" lon="-1.96723">
        <ele>125</ele>
        <time>2022-05-21T09:35:41Z</time>
      </trkpt>
      <trkpt lat="48.10555" lon="-1.9645">
        <ele>127</ele>
        <time>2022-05-21T09:36:14Z</time>
      </trkpt>
      <trkpt lat="48.10551" lon="-1.96435">
        <ele>127</ele>
        <time>2022-05-21T09:36:16Z</time>
      </trkpt>
      <trkpt lat="48.10541" lon="-1.96338">
        <ele>127</ele>
        <time>2022-05-21T09:36:28Z</time>
      </trkpt>
      <trkpt lat="48.10545" lon="-1.95963">
        <ele>126</ele>
        <time>2022-05-21T09:37:13Z</time>
      </trkpt>
      <trkpt lat="48.10543" lon="-1.95934">
        <ele>127</ele>
        <time>2022-05-21T09:37:16Z</time>
      </trkpt>
      <trkpt lat="48.10547" lon="-1.95921">
        <ele>127</ele>
        <time>2022-05-21T09:37:18Z</time>
      </trkpt>
      <trkpt lat="48.1054" lon="-1.95858">
        <ele>130</ele>
        <time>2022-05-21T09:37:25Z</time>
      </trkpt>
      <trkpt lat="48.10549" lon="-1.95816">
        <ele>131</ele>
        <time>2022-05-21T09:37:31Z</time>
      </trkpt>
      <trkpt lat="48.10562" lon="-1.95822">
        <ele>131</ele>
        <time>2022-05-21T09:37:33Z</time>
      </trkpt>
      <trkpt lat="48.10608" lon="-1.95798">
        <ele>130</ele>
        <time>2022-05-21T09:37:42Z</time>
      </trkpt>
      <trkpt lat="48.10616" lon="-1.95786">
        <ele>130</ele>
        <time>2022-05-21T09:37:44Z</time>
      </trkpt>
      <trkpt lat="48.10625" lon="-1.9578">
        <ele>130</ele>
        <time>2022-05-21T09:37:45Z</time>
      </trkpt>
      <trkpt lat="48.10635" lon="-1.95777">
        <ele>130</ele>
        <time>2022-05-21T09:37:47Z</time>
      </trkpt>
      <trkpt lat="48.10644" lon="-1.95769">
        <ele>130</ele>
        <time>2022-05-21T09:37:49Z</time>
      </trkpt>
      <trkpt lat="48.1069" lon="-1.95703">
        <ele>129</ele>
        <time>2022-05-21T09:38:00Z</time>
      </trkpt>
      <trkpt lat="48.10707" lon="-1.95693">
        <ele>130</ele>
        <time>2022-05-21T09:38:04Z</time>
      </trkpt>
      <trkpt lat="48.10713" lon="-1.95682">
        <ele>130</ele>
        <time>2022-05-21T09:38:05Z</time>
      </trkpt>
      <trkpt lat="48.10714" lon="-1.95667">
        <ele>131</ele>
        <time>2022-05-21T09:38:07Z</time>
      </trkpt>
      <trkpt lat="48.10719" lon="-1.95652">
        <ele>131</ele>
        <time>2022-05-21T09:38:09Z</time>
      </trkpt>
      <trkpt lat="48.10727" lon="-1.95642">
        <ele>131</ele>
        <time>2022-05-21T09:38:11Z</time>
      </trkpt>
      <trkpt lat="48.10732" lon="-1.95629">
        <ele>131</ele>
        <time>2022-05-21T09:38:13Z</time>
      </trkpt>
      <trkpt lat="48.10739" lon="-1.95603">
        <ele>132</ele>
        <time>2022-05-21T09:38:16Z</time>
      </trkpt>
      <trkpt lat="48.1074" lon="-1.95588">
        <ele>132</ele>
        <time>2022-05-21T09:38:18Z</time>
      </trkpt>
      <trkpt lat="48.10753" lon="-1.95572">
        <ele>132</ele>
        <time>2022-05-21T09:38:21Z</time>
      </trkpt>
      <trkpt lat="48.10762" lon="-1.95546">
        <ele>131</ele>
        <time>2022-05-21T09:38:24Z</time>
      </trkpt>
      <trkpt lat="48.10771" lon="-1.95542">
        <ele>131</ele>
        <time>2022-05-21T09:38:26Z</time>
      </trkpt>
      <trkpt lat="48.10803" lon="-1.95488">
        <ele>130</ele>
        <time>2022-05-21T09:38:35Z</time>
      </trkpt>
      <trkpt lat="48.10817" lon="-1.95467">
        <ele>129</ele>
        <time>2022-05-21T09:38:38Z</time>
      </trkpt>
      <trkpt lat="48.10833" lon="-1.95449">
        <ele>128</ele>
        <time>2022-05-21T09:38:42Z</time>
      </trkpt>
      <trkpt lat="48.10842" lon="-1.9544">
        <ele>128</ele>
        <time>2022-05-21T09:38:44Z</time>
      </trkpt>
      <trkpt lat="48.10879" lon="-1.95429">
        <ele>127</ele>
        <time>2022-05-21T09:38:50Z</time>
      </trkpt>
      <trkpt lat="48.10888" lon="-1.9543">
        <ele>127</ele>
        <time>2022-05-21T09:38:52Z</time>
      </trkpt>
      <trkpt lat="48.10884" lon="-1.95417">
        <ele>126</ele>
        <time>2022-05-21T09:38:54Z</time>
      </trkpt>
      <trkpt lat="48.10892" lon="-1.95425">
        <ele>126</ele>
        <time>2022-05-21T09:38:55Z</time>
      </trkpt>
      <trkpt lat="48.10903" lon="-1.95427">
        <ele>126</ele>
        <time>2022-05-21T09:38:57Z</time>
      </trkpt>
      <trkpt lat="48.10954" lon="-1.95381">
        <ele>126</ele>
        <time>2022-05-21T09:39:08Z</time>
      </trkpt>
      <trkpt lat="48.10972" lon="-1.95369">
        <ele>126</ele>
        <time>2022-05-21T09:39:11Z</time>
      </trkpt>
      <trkpt lat="48.10993" lon="-1.95361">
        <ele>126</ele>
        <time>2022-05-21T09:39:15Z</time>
      </trkpt>
      <trkpt lat="48.11028" lon="-1.95324">
        <ele>126</ele>
        <time>2022-05-21T09:39:23Z</time>
      </trkpt>
      <trkpt lat="48.11069" lon="-1.95302">
        <ele>127</ele>
        <time>2022-05-21T09:39:31Z</time>
      </trkpt>
      <trkpt lat="48.11122" lon="-1.953">
        <ele>127</ele>
        <time>2022-05-21T09:39:40Z</time>
      </trkpt>
      <trkpt lat="48.11154" lon="-1.95294">
        <ele>127</ele>
        <time>2022-05-21T09:39:46Z</time>
      </trkpt>
      <trkpt lat="48.11173" lon="-1.95287">
        <ele>126</ele>
        <time>2022-05-21T09:39:49Z</time>
      </trkpt>
      <trkpt lat="48.11204" lon="-1.9527">
        <ele>125</ele>
        <time>2022-05-21T09:39:55Z</time>
      </trkpt>
      <trkpt lat="48.11222" lon="-1.95256">
        <ele>124</ele>
        <time>2022-05-21T09:39:59Z</time>
      </trkpt>
      <trkpt lat="48.11251" lon="-1.95244">
        <ele>124</ele>
        <time>2022-05-21T09:40:04Z</time>
      </trkpt>
      <trkpt lat="48.11268" lon="-1.95232">
        <ele>123</ele>
        <time>2022-05-21T09:40:08Z</time>
      </trkpt>
      <trkpt lat="48.11278" lon="-1.95228">
        <ele>123</ele>
        <time>2022-05-21T09:40:09Z</time>
      </trkpt>
      <trkpt lat="48.11288" lon="-1.95228">
        <ele>123</ele>
        <time>2022-05-21T09:40:11Z</time>
      </trkpt>
      <trkpt lat="48.11309" lon="-1.9522">
        <ele>122</ele>
        <time>2022-05-21T09:40:15Z</time>
      </trkpt>
      <trkpt lat="48.11338" lon="-1.95198">
        <ele>121</ele>
        <time>2022-05-21T09:40:21Z</time>
      </trkpt>
      <trkpt lat="48.11377" lon="-1.95142">
        <ele>118</ele>
        <time>2022-05-21T09:40:30Z</time>
      </trkpt>
      <trkpt lat="48.11396" lon="-1.95122">
        <ele>117</ele>
        <time>2022-05-21T09:40:35Z</time>
      </trkpt>
      <trkpt lat="48.11406" lon="-1.95115">
        <ele>117</ele>
        <time>2022-05-21T09:40:36Z</time>
      </trkpt>
      <trkpt lat="48.11416" lon="-1.95112">
        <ele>116</ele>
        <time>2022-05-21T09:40:38Z</time>
      </trkpt>
      <trkpt lat="48.11426" lon="-1.95113">
        <ele>116</ele>
        <time>2022-05-21T09:40:40Z</time>
      </trkpt>
      <trkpt lat="48.11435" lon="-1.95109">
        <ele>115</ele>
        <time>2022-05-21T09:40:42Z</time>
      </trkpt>
      <trkpt lat="48.11448" lon="-1.95111">
        <ele>115</ele>
        <time>2022-05-21T09:40:44Z</time>
      </trkpt>
      <trkpt lat="48.11457" lon="-1.95116">
        <ele>115</ele>
        <time>2022-05-21T09:40:46Z</time>
      </trkpt>
      <trkpt lat="48.11477" lon="-1.95121">
        <ele>114</ele>
        <time>2022-05-21T09:40:49Z</time>
      </trkpt>
      <trkpt lat="48.11485" lon="-1.95126">
        <ele>114</ele>
        <time>2022-05-21T09:40:51Z</time>
      </trkpt>
      <trkpt lat="48.11495" lon="-1.95127">
        <ele>114</ele>
        <time>2022-05-21T09:40:53Z</time>
      </trkpt>
      <trkpt lat="48.11521" lon="-1.9514">
        <ele>113</ele>
        <time>2022-05-21T09:40:58Z</time>
      </trkpt>
      <trkpt lat="48.11538" lon="-1.95152">
        <ele>112</ele>
        <time>2022-05-21T09:41:01Z</time>
      </trkpt>
      <trkpt lat="48.11545" lon="-1.95137">
        <ele>111</ele>
        <time>2022-05-21T09:41:03Z</time>
      </trkpt>
      <trkpt lat="48.11569" lon="-1.95108">
        <ele>110</ele>
        <time>2022-05-21T09:41:09Z</time>
      </trkpt>
      <trkpt lat="48.11591" lon="-1.95098">
        <ele>109</ele>
        <time>2022-05-21T09:41:13Z</time>
      </trkpt>
      <trkpt lat="48.1161" lon="-1.95096">
        <ele>109</ele>
        <time>2022-05-21T09:41:16Z</time>
      </trkpt>
      <trkpt lat="48.11657" lon="-1.95109">
        <ele>108</ele>
        <time>2022-05-21T09:41:25Z</time>
      </trkpt>
      <trkpt lat="48.11679" lon="-1.95118">
        <ele>107</ele>
        <time>2022-05-21T09:41:29Z</time>
      </trkpt>
      <trkpt lat="48.11689" lon="-1.95125">
        <ele>106</ele>
        <time>2022-05-21T09:41:31Z</time>
      </trkpt>
      <trkpt lat="48.11695" lon="-1.95135">
        <ele>106</ele>
        <time>2022-05-21T09:41:32Z</time>
      </trkpt>
      <trkpt lat="48.11734" lon="-1.95155">
        <ele>103</ele>
        <time>2022-05-21T09:41:40Z</time>
      </trkpt>
      <trkpt lat="48.11748" lon="-1.95178">
        <ele>100</ele>
        <time>2022-05-21T09:41:43Z</time>
      </trkpt>
      <trkpt lat="48.11757" lon="-1.95179">
        <ele>100</ele>
        <time>2022-05-21T09:41:45Z</time>
      </trkpt>
      <trkpt lat="48.11776" lon="-1.95174">
        <ele>99</ele>
        <time>2022-05-21T09:41:48Z</time>
      </trkpt>
      <trkpt lat="48.11786" lon="-1.95167">
        <ele>99</ele>
        <time>2022-05-21T09:41:50Z</time>
      </trkpt>
      <trkpt lat="48.11807" lon="-1.95161">
        <ele>98</ele>
        <time>2022-05-21T09:41:54Z</time>
      </trkpt>
      <trkpt lat="48.11827" lon="-1.95162">
        <ele>96</ele>
        <time>2022-05-21T09:41:58Z</time>
      </trkpt>
      <trkpt lat="48.11838" lon="-1.95159">
        <ele>96</ele>
        <time>2022-05-21T09:42:00Z</time>
      </trkpt>
      <trkpt lat="48.11879" lon="-1.95138">
        <ele>92</ele>
        <time>2022-05-21T09:42:07Z</time>
      </trkpt>
      <trkpt lat="48.11907" lon="-1.9512">
        <ele>89</ele>
        <time>2022-05-21T09:42:13Z</time>
      </trkpt>
      <trkpt lat="48.11922" lon="-1.95104">
        <ele>88</ele>
        <time>2022-05-21T09:42:16Z</time>
      </trkpt>
      <trkpt lat="48.11944" lon="-1.95091">
        <ele>87</ele>
        <time>2022-05-21T09:42:20Z</time>
      </trkpt>
      <trkpt lat="48.11965" lon="-1.95087">
        <ele>85</ele>
        <time>2022-05-21T09:42:24Z</time>
      </trkpt>
      <trkpt lat="48.11984" lon="-1.95077">
        <ele>84</ele>
        <time>2022-05-21T09:42:28Z</time>
      </trkpt>
      <trkpt lat="48.12026" lon="-1.9503">
        <ele>80</ele>
        <time>2022-05-21T09:42:37Z</time>
      </trkpt>
      <trkpt lat="48.12042" lon="-1.95007">
        <ele>79</ele>
        <time>2022-05-21T09:42:41Z</time>
      </trkpt>
      <trkpt lat="48.12062" lon="-1.94986">
        <ele>78</ele>
        <time>2022-05-21T09:42:45Z</time>
      </trkpt>
      <trkpt lat="48.12104" lon="-1.9496">
        <ele>77</ele>
        <time>2022-05-21T09:42:53Z</time>
      </trkpt>
      <trkpt lat="48.12121" lon="-1.94943">
        <ele>76</ele>
        <time>2022-05-21T09:42:57Z</time>
      </trkpt>
      <trkpt lat="48.12136" lon="-1.94917">
        <ele>74</ele>
        <time>2022-05-21T09:43:01Z</time>
      </trkpt>
      <trkpt lat="48.1217" lon="-1.94892">
        <ele>73</ele>
        <time>2022-05-21T09:43:08Z</time>
      </trkpt>
      <trkpt lat="48.12219" lon="-1.9485">
        <ele>72</ele>
        <time>2022-05-21T09:43:18Z</time>
      </trkpt>
      <trkpt lat="48.12221" lon="-1.94833">
        <ele>72</ele>
        <time>2022-05-21T09:43:20Z</time>
      </trkpt>
      <trkpt lat="48.12206" lon="-1.94807">
        <ele>72</ele>
        <time>2022-05-21T09:43:24Z</time>
      </trkpt>
      <trkpt lat="48.12206" lon="-1.94793">
        <ele>72</ele>
        <time>2022-05-21T09:43:26Z</time>
      </trkpt>
      <trkpt lat="48.12219" lon="-1.94767">
        <ele>72</ele>
        <time>2022-05-21T09:43:29Z</time>
      </trkpt>
      <trkpt lat="48.12234" lon="-1.94744">
        <ele>72</ele>
        <time>2022-05-21T09:43:33Z</time>
      </trkpt>
      <trkpt lat="48.12274" lon="-1.94695">
        <ele>72</ele>
        <time>2022-05-21T09:43:42Z</time>
      </trkpt>
      <trkpt lat="48.123" lon="-1.9467">
        <ele>72</ele>
        <time>2022-05-21T09:43:48Z</time>
      </trkpt>
      <trkpt lat="48.1231" lon="-1.94665">
        <ele>72</ele>
        <time>2022-05-21T09:43:50Z</time>
      </trkpt>
      <trkpt lat="48.12332" lon="-1.94638">
        <ele>71</ele>
        <time>2022-05-21T09:43:55Z</time>
      </trkpt>
      <trkpt lat="48.12341" lon="-1.94636">
        <ele>71</ele>
        <time>2022-05-21T09:43:56Z</time>
      </trkpt>
      <trkpt lat="48.12351" lon="-1.94641">
        <ele>72</ele>
        <time>2022-05-21T09:43:58Z</time>
      </trkpt>
      <trkpt lat="48.12377" lon="-1.94616">
        <ele>73</ele>
        <time>2022-05-21T09:44:04Z</time>
      </trkpt>
      <trkpt lat="48.12395" lon="-1.94605">
        <ele>74</ele>
        <time>2022-05-21T09:44:07Z</time>
      </trkpt>
      <trkpt lat="48.12413" lon="-1.94598">
        <ele>75</ele>
        <time>2022-05-21T09:44:11Z</time>
      </trkpt>
      <trkpt lat="48.12442" lon="-1.94596">
        <ele>76</ele>
        <time>2022-05-21T09:44:16Z</time>
      </trkpt>
      <trkpt lat="48.12451" lon="-1.94599">
        <ele>77</ele>
        <time>2022-05-21T09:44:17Z</time>
      </trkpt>
      <trkpt lat="48.12469" lon="-1.9461">
        <ele>78</ele>
        <time>2022-05-21T09:44:21Z</time>
      </trkpt>
      <trkpt lat="48.12495" lon="-1.94637">
        <ele>79</ele>
        <time>2022-05-21T09:44:27Z</time>
      </trkpt>
      <trkpt lat="48.12505" lon="-1.94638">
        <ele>80</ele>
        <time>2022-05-21T09:44:28Z</time>
      </trkpt>
      <trkpt lat="48.12524" lon="-1.94636">
        <ele>80</ele>
        <time>2022-05-21T09:44:32Z</time>
      </trkpt>
      <trkpt lat="48.12593" lon="-1.94612">
        <ele>81</ele>
        <time>2022-05-21T09:44:44Z</time>
      </trkpt>
      <trkpt lat="48.12635" lon="-1.94601">
        <ele>80</ele>
        <time>2022-05-21T09:44:52Z</time>
      </trkpt>
      <trkpt lat="48.12672" lon="-1.94577">
        <ele>78</ele>
        <time>2022-05-21T09:44:59Z</time>
      </trkpt>
      <trkpt lat="48.12688" lon="-1.94555">
        <ele>76</ele>
        <time>2022-05-21T09:45:03Z</time>
      </trkpt>
      <trkpt lat="48.12708" lon="-1.94489">
        <ele>73</ele>
        <time>2022-05-21T09:45:12Z</time>
      </trkpt>
      <trkpt lat="48.12717" lon="-1.94494">
        <ele>72</ele>
        <time>2022-05-21T09:45:13Z</time>
      </trkpt>
      <trkpt lat="48.12733" lon="-1.94509">
        <ele>69</ele>
        <time>2022-05-21T09:45:17Z</time>
      </trkpt>
      <trkpt lat="48.12766" lon="-1.94582">
        <ele>61</ele>
        <time>2022-05-21T09:45:27Z</time>
      </trkpt>
      <trkpt lat="48.12772" lon="-1.9457">
        <ele>59</ele>
        <time>2022-05-21T09:45:29Z</time>
      </trkpt>
      <trkpt lat="48.12773" lon="-1.94505">
        <ele>59</ele>
        <time>2022-05-21T09:45:37Z</time>
      </trkpt>
      <trkpt lat="48.12765" lon="-1.94475">
        <ele>61</ele>
        <time>2022-05-21T09:45:40Z</time>
      </trkpt>
      <trkpt lat="48.1277" lon="-1.94489">
        <ele>60</ele>
        <time>2022-05-21T09:45:42Z</time>
      </trkpt>
      <trkpt lat="48.12777" lon="-1.94499">
        <ele>58</ele>
        <time>2022-05-21T09:45:44Z</time>
      </trkpt>
      <trkpt lat="48.12786" lon="-1.94507">
        <ele>55</ele>
        <time>2022-05-21T09:45:46Z</time>
      </trkpt>
      <trkpt lat="48.12799" lon="-1.94529">
        <ele>51</ele>
        <time>2022-05-21T09:45:49Z</time>
      </trkpt>
      <trkpt lat="48.12808" lon="-1.94536">
        <ele>48</ele>
        <time>2022-05-21T09:45:51Z</time>
      </trkpt>
      <trkpt lat="48.12828" lon="-1.94592">
        <ele>44</ele>
        <time>2022-05-21T09:45:59Z</time>
      </trkpt>
      <trkpt lat="48.12843" lon="-1.94611">
        <ele>42</ele>
        <time>2022-05-21T09:46:02Z</time>
      </trkpt>
      <trkpt lat="48.12854" lon="-1.94639">
        <ele>41</ele>
        <time>2022-05-21T09:46:06Z</time>
      </trkpt>
      <trkpt lat="48.12872" lon="-1.94701">
        <ele>40</ele>
        <time>2022-05-21T09:46:14Z</time>
      </trkpt>
      <trkpt lat="48.12877" lon="-1.94731">
        <ele>40</ele>
        <time>2022-05-21T09:46:18Z</time>
      </trkpt>
      <trkpt lat="48.12884" lon="-1.94792">
        <ele>42</ele>
        <time>2022-05-21T09:46:25Z</time>
      </trkpt>
      <trkpt lat="48.12884" lon="-1.94839">
        <ele>45</ele>
        <time>2022-05-21T09:46:31Z</time>
      </trkpt>
      <trkpt lat="48.12888" lon="-1.94867">
        <ele>44</ele>
        <time>2022-05-21T09:46:34Z</time>
      </trkpt>
      <trkpt lat="48.12895" lon="-1.94893">
        <ele>43</ele>
        <time>2022-05-21T09:46:37Z</time>
      </trkpt>
      <trkpt lat="48.12909" lon="-1.94915">
        <ele>40</ele>
        <time>2022-05-21T09:46:41Z</time>
      </trkpt>
      <trkpt lat="48.12918" lon="-1.94889">
        <ele>38</ele>
        <time>2022-05-21T09:46:45Z</time>
      </trkpt>
      <trkpt lat="48.12916" lon="-1.94876">
        <ele>38</ele>
        <time>2022-05-21T09:46:46Z</time>
      </trkpt>
      <trkpt lat="48.12933" lon="-1.94856">
        <ele>36</ele>
        <time>2022-05-21T09:46:50Z</time>
      </trkpt>
      <trkpt lat="48.12938" lon="-1.94845">
        <ele>36</ele>
        <time>2022-05-21T09:46:52Z</time>
      </trkpt>
      <trkpt lat="48.12941" lon="-1.9486">
        <ele>36</ele>
        <time>2022-05-21T09:46:53Z</time>
      </trkpt>
      <trkpt lat="48.12944" lon="-1.94922">
        <ele>36</ele>
        <time>2022-05-21T09:47:01Z</time>
      </trkpt>
      <trkpt lat="48.12954" lon="-1.94951">
        <ele>36</ele>
        <time>2022-05-21T09:47:05Z</time>
      </trkpt>
      <trkpt lat="48.12968" lon="-1.94983">
        <ele>36</ele>
        <time>2022-05-21T09:47:09Z</time>
      </trkpt>
      <trkpt lat="48.12983" lon="-1.95005">
        <ele>35</ele>
        <time>2022-05-21T09:47:13Z</time>
      </trkpt>
      <trkpt lat="48.12999" lon="-1.95022">
        <ele>34</ele>
        <time>2022-05-21T09:47:16Z</time>
      </trkpt>
      <trkpt lat="48.1302" lon="-1.95057">
        <ele>36</ele>
        <time>2022-05-21T09:47:22Z</time>
      </trkpt>
      <trkpt lat="48.13039" lon="-1.95075">
        <ele>36</ele>
        <time>2022-05-21T09:47:26Z</time>
      </trkpt>
      <trkpt lat="48.13068" lon="-1.95095">
        <ele>35</ele>
        <time>2022-05-21T09:47:32Z</time>
      </trkpt>
      <trkpt lat="48.13079" lon="-1.95102">
        <ele>35</ele>
        <time>2022-05-21T09:47:34Z</time>
      </trkpt>
      <trkpt lat="48.13112" lon="-1.95116">
        <ele>35</ele>
        <time>2022-05-21T09:47:40Z</time>
      </trkpt>
      <trkpt lat="48.13122" lon="-1.95126">
        <ele>35</ele>
        <time>2022-05-21T09:47:42Z</time>
      </trkpt>
      <trkpt lat="48.13147" lon="-1.9516">
        <ele>35</ele>
        <time>2022-05-21T09:47:48Z</time>
      </trkpt>
      <trkpt lat="48.13176" lon="-1.95179">
        <ele>34</ele>
        <time>2022-05-21T09:47:54Z</time>
      </trkpt>
      <trkpt lat="48.13195" lon="-1.95198">
        <ele>35</ele>
        <time>2022-05-21T09:47:58Z</time>
      </trkpt>
      <trkpt lat="48.13212" lon="-1.95211">
        <ele>35</ele>
        <time>2022-05-21T09:48:01Z</time>
      </trkpt>
      <trkpt lat="48.13222" lon="-1.95216">
        <ele>35</ele>
        <time>2022-05-21T09:48:03Z</time>
      </trkpt>
      <trkpt lat="48.13242" lon="-1.95221">
        <ele>35</ele>
        <time>2022-05-21T09:48:07Z</time>
      </trkpt>
      <trkpt lat="48.13275" lon="-1.95224">
        <ele>35</ele>
        <time>2022-05-21T09:48:13Z</time>
      </trkpt>
      <trkpt lat="48.13314" lon="-1.95244">
        <ele>35</ele>
        <time>2022-05-21T09:48:20Z</time>
      </trkpt>
      <trkpt lat="48.13344" lon="-1.95244">
        <ele>34</ele>
        <time>2022-05-21T09:48:25Z</time>
      </trkpt>
      <trkpt lat="48.13346" lon="-1.9523">
        <ele>35</ele>
        <time>2022-05-21T09:48:27Z</time>
      </trkpt>
      <trkpt lat="48.13363" lon="-1.95251">
        <ele>35</ele>
        <time>2022-05-21T09:48:31Z</time>
      </trkpt>
      <trkpt lat="48.13372" lon="-1.9525">
        <ele>35</ele>
        <time>2022-05-21T09:48:32Z</time>
      </trkpt>
      <trkpt lat="48.13428" lon="-1.95265">
        <ele>36</ele>
        <time>2022-05-21T09:48:43Z</time>
      </trkpt>
      <trkpt lat="48.13462" lon="-1.95269">
        <ele>35</ele>
        <time>2022-05-21T09:48:49Z</time>
      </trkpt>
      <trkpt lat="48.13485" lon="-1.95261">
        <ele>36</ele>
        <time>2022-05-21T09:48:53Z</time>
      </trkpt>
      <trkpt lat="48.13528" lon="-1.95256">
        <ele>36</ele>
        <time>2022-05-21T09:49:00Z</time>
      </trkpt>
      <trkpt lat="48.13554" lon="-1.95234">
        <ele>38</ele>
        <time>2022-05-21T09:49:06Z</time>
      </trkpt>
      <trkpt lat="48.1357" lon="-1.95212">
        <ele>40</ele>
        <time>2022-05-21T09:49:10Z</time>
      </trkpt>
      <trkpt lat="48.13579" lon="-1.95211">
        <ele>40</ele>
        <time>2022-05-21T09:49:11Z</time>
      </trkpt>
      <trkpt lat="48.13588" lon="-1.95215">
        <ele>40</ele>
        <time>2022-05-21T09:49:13Z</time>
      </trkpt>
      <trkpt lat="48.13595" lon="-1.95244">
        <ele>38</ele>
        <time>2022-05-21T09:49:17Z</time>
      </trkpt>
      <trkpt lat="48.13612" lon="-1.95229">
        <ele>39</ele>
        <time>2022-05-21T09:49:20Z</time>
      </trkpt>
      <trkpt lat="48.13623" lon="-1.95226">
        <ele>39</ele>
        <time>2022-05-21T09:49:22Z</time>
      </trkpt>
      <trkpt lat="48.1367" lon="-1.9524">
        <ele>38</ele>
        <time>2022-05-21T09:49:31Z</time>
      </trkpt>
      <trkpt lat="48.13707" lon="-1.9526">
        <ele>38</ele>
        <time>2022-05-21T09:49:38Z</time>
      </trkpt>
      <trkpt lat="48.13718" lon="-1.95286">
        <ele>37</ele>
        <time>2022-05-21T09:49:41Z</time>
      </trkpt>
      <trkpt lat="48.13715" lon="-1.95302">
        <ele>37</ele>
        <time>2022-05-21T09:49:43Z</time>
      </trkpt>
      <trkpt lat="48.13698" lon="-1.95315">
        <ele>37</ele>
        <time>2022-05-21T09:49:47Z</time>
      </trkpt>
      <trkpt lat="48.13698" lon="-1.95329">
        <ele>37</ele>
        <time>2022-05-21T09:49:48Z</time>
      </trkpt>
      <trkpt lat="48.13686" lon="-1.95351">
        <ele>37</ele>
        <time>2022-05-21T09:49:52Z</time>
      </trkpt>
      <trkpt lat="48.13715" lon="-1.95391">
        <ele>37</ele>
        <time>2022-05-21T09:49:59Z</time>
      </trkpt>
      <trkpt lat="48.13727" lon="-1.95414">
        <ele>37</ele>
        <time>2022-05-21T09:50:02Z</time>
      </trkpt>
      <trkpt lat="48.13735" lon="-1.9542">
        <ele>36</ele>
        <time>2022-05-21T09:50:04Z</time>
      </trkpt>
      <trkpt lat="48.13741" lon="-1.9543">
        <ele>37</ele>
        <time>2022-05-21T09:50:05Z</time>
      </trkpt>
      <trkpt lat="48.13745" lon="-1.95445">
        <ele>37</ele>
        <time>2022-05-21T09:50:07Z</time>
      </trkpt>
      <trkpt lat="48.13756" lon="-1.95469">
        <ele>38</ele>
        <time>2022-05-21T09:50:11Z</time>
      </trkpt>
      <trkpt lat="48.13793" lon="-1.95526">
        <ele>39</ele>
        <time>2022-05-21T09:50:20Z</time>
      </trkpt>
      <trkpt lat="48.13799" lon="-1.95539">
        <ele>39</ele>
        <time>2022-05-21T09:50:22Z</time>
      </trkpt>
      <trkpt lat="48.13814" lon="-1.95559">
        <ele>40</ele>
        <time>2022-05-21T09:50:26Z</time>
      </trkpt>
      <trkpt lat="48.13824" lon="-1.95558">
        <ele>40</ele>
        <time>2022-05-21T09:50:27Z</time>
      </trkpt>
      <trkpt lat="48.13834" lon="-1.95546">
        <ele>39</ele>
        <time>2022-05-21T09:50:30Z</time>
      </trkpt>
      <trkpt lat="48.13867" lon="-1.95499">
        <ele>36</ele>
        <time>2022-05-21T09:50:38Z</time>
      </trkpt>
      <trkpt lat="48.13883" lon="-1.95469">
        <ele>36</ele>
        <time>2022-05-21T09:50:42Z</time>
      </trkpt>
      <trkpt lat="48.13888" lon="-1.95453">
        <ele>36</ele>
        <time>2022-05-21T09:50:44Z</time>
      </trkpt>
      <trkpt lat="48.13887" lon="-1.95438">
        <ele>35</ele>
        <time>2022-05-21T09:50:46Z</time>
      </trkpt>
      <trkpt lat="48.13884" lon="-1.95423">
        <ele>35</ele>
        <time>2022-05-21T09:50:48Z</time>
      </trkpt>
      <trkpt lat="48.13877" lon="-1.95411">
        <ele>35</ele>
        <time>2022-05-21T09:50:50Z</time>
      </trkpt>
      <trkpt lat="48.13886" lon="-1.9541">
        <ele>35</ele>
        <time>2022-05-21T09:50:52Z</time>
      </trkpt>
      <trkpt lat="48.13893" lon="-1.95422">
        <ele>35</ele>
        <time>2022-05-21T09:50:53Z</time>
      </trkpt>
      <trkpt lat="48.13903" lon="-1.95421">
        <ele>35</ele>
        <time>2022-05-21T09:50:55Z</time>
      </trkpt>
      <trkpt lat="48.13913" lon="-1.95413">
        <ele>35</ele>
        <time>2022-05-21T09:50:57Z</time>
      </trkpt>
      <trkpt lat="48.13936" lon="-1.95354">
        <ele>35</ele>
        <time>2022-05-21T09:51:05Z</time>
      </trkpt>
      <trkpt lat="48.13958" lon="-1.95319">
        <ele>35</ele>
        <time>2022-05-21T09:51:11Z</time>
      </trkpt>
      <trkpt lat="48.1397" lon="-1.95309">
        <ele>35</ele>
        <time>2022-05-21T09:51:14Z</time>
      </trkpt>
      <trkpt lat="48.13988" lon="-1.95311">
        <ele>34</ele>
        <time>2022-05-21T09:51:17Z</time>
      </trkpt>
      <trkpt lat="48.14001" lon="-1.95317">
        <ele>34</ele>
        <time>2022-05-21T09:51:19Z</time>
      </trkpt>
      <trkpt lat="48.14024" lon="-1.95374">
        <ele>35</ele>
        <time>2022-05-21T09:51:27Z</time>
      </trkpt>
      <trkpt lat="48.1404" lon="-1.95442">
        <ele>35</ele>
        <time>2022-05-21T09:51:36Z</time>
      </trkpt>
      <trkpt lat="48.14047" lon="-1.95456">
        <ele>36</ele>
        <time>2022-05-21T09:51:38Z</time>
      </trkpt>
      <trkpt lat="48.14064" lon="-1.95474">
        <ele>36</ele>
        <time>2022-05-21T09:51:41Z</time>
      </trkpt>
      <trkpt lat="48.14079" lon="-1.95457">
        <ele>36</ele>
        <time>2022-05-21T09:51:45Z</time>
      </trkpt>
      <trkpt lat="48.14108" lon="-1.95416">
        <ele>37</ele>
        <time>2022-05-21T09:51:52Z</time>
      </trkpt>
      <trkpt lat="48.14064" lon="-1.95472">
        <ele>36</ele>
        <time>2022-05-21T09:52:02Z</time>
      </trkpt>
      <trkpt lat="48.14045" lon="-1.95482">
        <ele>36</ele>
        <time>2022-05-21T09:52:06Z</time>
      </trkpt>
      <trkpt lat="48.14021" lon="-1.95513">
        <ele>37</ele>
        <time>2022-05-21T09:52:11Z</time>
      </trkpt>
      <trkpt lat="48.14012" lon="-1.9552">
        <ele>37</ele>
        <time>2022-05-21T09:52:13Z</time>
      </trkpt>
      <trkpt lat="48.14002" lon="-1.95525">
        <ele>37</ele>
        <time>2022-05-21T09:52:15Z</time>
      </trkpt>
      <trkpt lat="48.1398" lon="-1.95523">
        <ele>37</ele>
        <time>2022-05-21T09:52:19Z</time>
      </trkpt>
      <trkpt lat="48.13932" lon="-1.95547">
        <ele>38</ele>
        <time>2022-05-21T09:52:28Z</time>
      </trkpt>
      <trkpt lat="48.13911" lon="-1.95551">
        <ele>38</ele>
        <time>2022-05-21T09:52:32Z</time>
      </trkpt>
      <trkpt lat="48.1387" lon="-1.95549">
        <ele>39</ele>
        <time>2022-05-21T09:52:39Z</time>
      </trkpt>
      <trkpt lat="48.13856" lon="-1.9553">
        <ele>38</ele>
        <time>2022-05-21T09:52:42Z</time>
      </trkpt>
      <trkpt lat="48.13858" lon="-1.95514">
        <ele>37</ele>
        <time>2022-05-21T09:52:44Z</time>
      </trkpt>
      <trkpt lat="48.13885" lon="-1.95465">
        <ele>36</ele>
        <time>2022-05-21T09:52:52Z</time>
      </trkpt>
      <trkpt lat="48.1389" lon="-1.95452">
        <ele>36</ele>
        <time>2022-05-21T09:52:54Z</time>
      </trkpt>
      <trkpt lat="48.13886" lon="-1.95423">
        <ele>35</ele>
        <time>2022-05-21T09:52:57Z</time>
      </trkpt>
      <trkpt lat="48.13878" lon="-1.95412">
        <ele>35</ele>
        <time>2022-05-21T09:52:59Z</time>
      </trkpt>
      <trkpt lat="48.13873" lon="-1.95399">
        <ele>35</ele>
        <time>2022-05-21T09:53:01Z</time>
      </trkpt>
      <trkpt lat="48.13886" lon="-1.95375">
        <ele>35</ele>
        <time>2022-05-21T09:53:05Z</time>
      </trkpt>
      <trkpt lat="48.1389" lon="-1.9536">
        <ele>35</ele>
        <time>2022-05-21T09:53:06Z</time>
      </trkpt>
      <trkpt lat="48.13919" lon="-1.95312">
        <ele>35</ele>
        <time>2022-05-21T09:53:14Z</time>
      </trkpt>
      <trkpt lat="48.13924" lon="-1.95298">
        <ele>35</ele>
        <time>2022-05-21T09:53:16Z</time>
      </trkpt>
      <trkpt lat="48.13913" lon="-1.95314">
        <ele>35</ele>
        <time>2022-05-21T09:53:19Z</time>
      </trkpt>
      <trkpt lat="48.13901" lon="-1.95342">
        <ele>35</ele>
        <time>2022-05-21T09:53:23Z</time>
      </trkpt>
      <trkpt lat="48.13872" lon="-1.95387">
        <ele>35</ele>
        <time>2022-05-21T09:53:30Z</time>
      </trkpt>
      <trkpt lat="48.13863" lon="-1.95387">
        <ele>35</ele>
        <time>2022-05-21T09:53:32Z</time>
      </trkpt>
      <trkpt lat="48.13851" lon="-1.95366">
        <ele>35</ele>
        <time>2022-05-21T09:53:35Z</time>
      </trkpt>
      <trkpt lat="48.13831" lon="-1.95346">
        <ele>36</ele>
        <time>2022-05-21T09:53:39Z</time>
      </trkpt>
      <trkpt lat="48.13772" lon="-1.95411">
        <ele>36</ele>
        <time>2022-05-21T09:53:52Z</time>
      </trkpt>
      <trkpt lat="48.13752" lon="-1.95423">
        <ele>36</ele>
        <time>2022-05-21T09:53:56Z</time>
      </trkpt>
      <trkpt lat="48.13744" lon="-1.95433">
        <ele>37</ele>
        <time>2022-05-21T09:53:58Z</time>
      </trkpt>
      <trkpt lat="48.13716" lon="-1.95448">
        <ele>37</ele>
        <time>2022-05-21T09:54:03Z</time>
      </trkpt>
      <trkpt lat="48.13677" lon="-1.95476">
        <ele>38</ele>
        <time>2022-05-21T09:54:11Z</time>
      </trkpt>
      <trkpt lat="48.13643" lon="-1.95533">
        <ele>36</ele>
        <time>2022-05-21T09:54:20Z</time>
      </trkpt>
      <trkpt lat="48.13624" lon="-1.95549">
        <ele>35</ele>
        <time>2022-05-21T09:54:24Z</time>
      </trkpt>
      <trkpt lat="48.13541" lon="-1.95601">
        <ele>35</ele>
        <time>2022-05-21T09:54:40Z</time>
      </trkpt>
      <trkpt lat="48.13513" lon="-1.95623">
        <ele>35</ele>
        <time>2022-05-21T09:54:46Z</time>
      </trkpt>
      <trkpt lat="48.13493" lon="-1.95633">
        <ele>36</ele>
        <time>2022-05-21T09:54:49Z</time>
      </trkpt>
      <trkpt lat="48.13483" lon="-1.95635">
        <ele>37</ele>
        <time>2022-05-21T09:54:51Z</time>
      </trkpt>
      <trkpt lat="48.13466" lon="-1.95617">
        <ele>38</ele>
        <time>2022-05-21T09:54:55Z</time>
      </trkpt>
      <trkpt lat="48.13454" lon="-1.95591">
        <ele>38</ele>
        <time>2022-05-21T09:54:59Z</time>
      </trkpt>
      <trkpt lat="48.1342" lon="-1.95466">
        <ele>36</ele>
        <time>2022-05-21T09:55:15Z</time>
      </trkpt>
      <trkpt lat="48.13415" lon="-1.95452">
        <ele>35</ele>
        <time>2022-05-21T09:55:17Z</time>
      </trkpt>
      <trkpt lat="48.13406" lon="-1.95445">
        <ele>36</ele>
        <time>2022-05-21T09:55:18Z</time>
      </trkpt>
      <trkpt lat="48.13395" lon="-1.95402">
        <ele>35</ele>
        <time>2022-05-21T09:55:24Z</time>
      </trkpt>
      <trkpt lat="48.13381" lon="-1.95361">
        <ele>35</ele>
        <time>2022-05-21T09:55:29Z</time>
      </trkpt>
      <trkpt lat="48.13372" lon="-1.95359">
        <ele>35</ele>
        <time>2022-05-21T09:55:31Z</time>
      </trkpt>
      <trkpt lat="48.13363" lon="-1.95366">
        <ele>36</ele>
        <time>2022-05-21T09:55:33Z</time>
      </trkpt>
      <trkpt lat="48.13335" lon="-1.9538">
        <ele>37</ele>
        <time>2022-05-21T09:55:38Z</time>
      </trkpt>
      <trkpt lat="48.1329" lon="-1.95412">
        <ele>39</ele>
        <time>2022-05-21T09:55:47Z</time>
      </trkpt>
      <trkpt lat="48.13358" lon="-1.95368">
        <ele>36</ele>
        <time>2022-05-21T09:56:00Z</time>
      </trkpt>
      <trkpt lat="48.13368" lon="-1.95359">
        <ele>35</ele>
        <time>2022-05-21T09:56:02Z</time>
      </trkpt>
      <trkpt lat="48.13387" lon="-1.95369">
        <ele>35</ele>
        <time>2022-05-21T09:56:06Z</time>
      </trkpt>
      <trkpt lat="48.13404" lon="-1.95432">
        <ele>35</ele>
        <time>2022-05-21T09:56:14Z</time>
      </trkpt>
      <trkpt lat="48.13424" lon="-1.9549">
        <ele>36</ele>
        <time>2022-05-21T09:56:21Z</time>
      </trkpt>
      <trkpt lat="48.13439" lon="-1.95551">
        <ele>38</ele>
        <time>2022-05-21T09:56:29Z</time>
      </trkpt>
      <trkpt lat="48.1345" lon="-1.95578">
        <ele>38</ele>
        <time>2022-05-21T09:56:33Z</time>
      </trkpt>
      <trkpt lat="48.13455" lon="-1.95607">
        <ele>39</ele>
        <time>2022-05-21T09:56:36Z</time>
      </trkpt>
      <trkpt lat="48.13473" lon="-1.95645">
        <ele>38</ele>
        <time>2022-05-21T09:56:42Z</time>
      </trkpt>
      <trkpt lat="48.13482" lon="-1.95639">
        <ele>37</ele>
        <time>2022-05-21T09:56:44Z</time>
      </trkpt>
      <trkpt lat="48.13524" lon="-1.95621">
        <ele>35</ele>
        <time>2022-05-21T09:56:52Z</time>
      </trkpt>
      <trkpt lat="48.13533" lon="-1.95611">
        <ele>35</ele>
        <time>2022-05-21T09:56:54Z</time>
      </trkpt>
      <trkpt lat="48.13553" lon="-1.956">
        <ele>35</ele>
        <time>2022-05-21T09:56:57Z</time>
      </trkpt>
      <trkpt lat="48.13575" lon="-1.95593">
        <ele>34</ele>
        <time>2022-05-21T09:57:01Z</time>
      </trkpt>
      <trkpt lat="48.13582" lon="-1.95582">
        <ele>34</ele>
        <time>2022-05-21T09:57:03Z</time>
      </trkpt>
      <trkpt lat="48.13612" lon="-1.95565">
        <ele>35</ele>
        <time>2022-05-21T09:57:09Z</time>
      </trkpt>
      <trkpt lat="48.13637" lon="-1.95542">
        <ele>36</ele>
        <time>2022-05-21T09:57:14Z</time>
      </trkpt>
      <trkpt lat="48.13644" lon="-1.95552">
        <ele>36</ele>
        <time>2022-05-21T09:57:16Z</time>
      </trkpt>
      <trkpt lat="48.13643" lon="-1.95566">
        <ele>36</ele>
        <time>2022-05-21T09:57:17Z</time>
      </trkpt>
      <trkpt lat="48.1365" lon="-1.95557">
        <ele>36</ele>
        <time>2022-05-21T09:57:19Z</time>
      </trkpt>
      <trkpt lat="48.13641" lon="-1.95563">
        <ele>36</ele>
        <time>2022-05-21T09:57:21Z</time>
      </trkpt>
      <trkpt lat="48.13649" lon="-1.95556">
        <ele>36</ele>
        <time>2022-05-21T09:57:22Z</time>
      </trkpt>
      <trkpt lat="48.13646" lon="-1.95569">
        <ele>36</ele>
        <time>2022-05-21T09:57:24Z</time>
      </trkpt>
      <trkpt lat="48.13648" lon="-1.95553">
        <ele>36</ele>
        <time>2022-05-21T09:57:26Z</time>
      </trkpt>
      <trkpt lat="48.1362" lon="-1.95486">
        <ele>36</ele>
        <time>2022-05-21T09:57:35Z</time>
      </trkpt>
      <trkpt lat="48.1361" lon="-1.95445">
        <ele>36</ele>
        <time>2022-05-21T09:57:41Z</time>
      </trkpt>
      <trkpt lat="48.13621" lon="-1.95418">
        <ele>36</ele>
        <time>2022-05-21T09:57:44Z</time>
      </trkpt>
      <trkpt lat="48.13644" lon="-1.95386">
        <ele>37</ele>
        <time>2022-05-21T09:57:50Z</time>
      </trkpt>
      <trkpt lat="48.13648" lon="-1.95373">
        <ele>37</ele>
        <time>2022-05-21T09:57:52Z</time>
      </trkpt>
      <trkpt lat="48.13658" lon="-1.95364">
        <ele>37</ele>
        <time>2022-05-21T09:57:54Z</time>
      </trkpt>
      <trkpt lat="48.13668" lon="-1.95361">
        <ele>37</ele>
        <time>2022-05-21T09:57:56Z</time>
      </trkpt>
      <trkpt lat="48.13675" lon="-1.95353">
        <ele>37</ele>
        <time>2022-05-21T09:57:57Z</time>
      </trkpt>
      <trkpt lat="48.13695" lon="-1.9532">
        <ele>37</ele>
        <time>2022-05-21T09:58:02Z</time>
      </trkpt>
      <trkpt lat="48.13707" lon="-1.95314">
        <ele>37</ele>
        <time>2022-05-21T09:58:05Z</time>
      </trkpt>
      <trkpt lat="48.13717" lon="-1.95289">
        <ele>37</ele>
        <time>2022-05-21T09:58:08Z</time>
      </trkpt>
      <trkpt lat="48.13725" lon="-1.95281">
        <ele>38</ele>
        <time>2022-05-21T09:58:10Z</time>
      </trkpt>
      <trkpt lat="48.13718" lon="-1.95294">
        <ele>37</ele>
        <time>2022-05-21T09:58:12Z</time>
      </trkpt>
      <trkpt lat="48.13708" lon="-1.95291">
        <ele>37</ele>
        <time>2022-05-21T09:58:14Z</time>
      </trkpt>
      <trkpt lat="48.13703" lon="-1.95279">
        <ele>37</ele>
        <time>2022-05-21T09:58:15Z</time>
      </trkpt>
      <trkpt lat="48.13708" lon="-1.95267">
        <ele>38</ele>
        <time>2022-05-21T09:58:17Z</time>
      </trkpt>
      <trkpt lat="48.13699" lon="-1.95272">
        <ele>37</ele>
        <time>2022-05-21T09:58:19Z</time>
      </trkpt>
      <trkpt lat="48.13702" lon="-1.95285">
        <ele>37</ele>
        <time>2022-05-21T09:58:20Z</time>
      </trkpt>
      <trkpt lat="48.13683" lon="-1.95288">
        <ele>37</ele>
        <time>2022-05-21T09:58:24Z</time>
      </trkpt>
      <trkpt lat="48.13674" lon="-1.95298">
        <ele>37</ele>
        <time>2022-05-21T09:58:26Z</time>
      </trkpt>
      <trkpt lat="48.13695" lon="-1.9531">
        <ele>37</ele>
        <time>2022-05-21T09:58:30Z</time>
      </trkpt>
      <trkpt lat="48.13704" lon="-1.95305">
        <ele>37</ele>
        <time>2022-05-21T09:58:31Z</time>
      </trkpt>
      <trkpt lat="48.13714" lon="-1.95303">
        <ele>37</ele>
        <time>2022-05-21T09:58:33Z</time>
      </trkpt>
      <trkpt lat="48.1372" lon="-1.95293">
        <ele>37</ele>
        <time>2022-05-21T09:58:35Z</time>
      </trkpt>
      <trkpt lat="48.13722" lon="-1.95279">
        <ele>38</ele>
        <time>2022-05-21T09:58:37Z</time>
      </trkpt>
      <trkpt lat="48.13725" lon="-1.95311">
        <ele>37</ele>
        <time>2022-05-21T09:58:40Z</time>
      </trkpt>
      <trkpt lat="48.13737" lon="-1.95335">
        <ele>36</ele>
        <time>2022-05-21T09:58:44Z</time>
      </trkpt>
      <trkpt lat="48.13747" lon="-1.95335">
        <ele>36</ele>
        <time>2022-05-21T09:58:46Z</time>
      </trkpt>
      <trkpt lat="48.13762" lon="-1.95315">
        <ele>37</ele>
        <time>2022-05-21T09:58:49Z</time>
      </trkpt>
      <trkpt lat="48.13782" lon="-1.95309">
        <ele>37</ele>
        <time>2022-05-21T09:58:53Z</time>
      </trkpt>
      <trkpt lat="48.13802" lon="-1.95322">
        <ele>36</ele>
        <time>2022-05-21T09:58:57Z</time>
      </trkpt>
      <trkpt lat="48.13811" lon="-1.95331">
        <ele>36</ele>
        <time>2022-05-21T09:58:59Z</time>
      </trkpt>
      <trkpt lat="48.13821" lon="-1.95332">
        <ele>36</ele>
        <time>2022-05-21T09:59:01Z</time>
      </trkpt>
      <trkpt lat="48.13842" lon="-1.95299">
        <ele>37</ele>
        <time>2022-05-21T09:59:06Z</time>
      </trkpt>
      <trkpt lat="48.13858" lon="-1.95229">
        <ele>38</ele>
        <time>2022-05-21T09:59:15Z</time>
      </trkpt>
      <trkpt lat="48.13862" lon="-1.9515">
        <ele>41</ele>
        <time>2022-05-21T09:59:24Z</time>
      </trkpt>
      <trkpt lat="48.13861" lon="-1.95106">
        <ele>42</ele>
        <time>2022-05-21T09:59:29Z</time>
      </trkpt>
      <trkpt lat="48.1385" lon="-1.95046">
        <ele>43</ele>
        <time>2022-05-21T09:59:37Z</time>
      </trkpt>
      <trkpt lat="48.13828" lon="-1.94959">
        <ele>44</ele>
        <time>2022-05-21T09:59:48Z</time>
      </trkpt>
      <trkpt lat="48.13821" lon="-1.94919">
        <ele>44</ele>
        <time>2022-05-21T09:59:53Z</time>
      </trkpt>
      <trkpt lat="48.13817" lon="-1.94904">
        <ele>45</ele>
        <time>2022-05-21T09:59:55Z</time>
      </trkpt>
      <trkpt lat="48.13804" lon="-1.9488">
        <ele>46</ele>
        <time>2022-05-21T09:59:58Z</time>
      </trkpt>
      <trkpt lat="48.138" lon="-1.94867">
        <ele>46</ele>
        <time>2022-05-21T10:00:00Z</time>
      </trkpt>
      <trkpt lat="48.13796" lon="-1.94852">
        <ele>46</ele>
        <time>2022-05-21T10:00:02Z</time>
      </trkpt>
      <trkpt lat="48.13793" lon="-1.94821">
        <ele>47</ele>
        <time>2022-05-21T10:00:06Z</time>
      </trkpt>
      <trkpt lat="48.13798" lon="-1.94789">
        <ele>47</ele>
        <time>2022-05-21T10:00:10Z</time>
      </trkpt>
      <trkpt lat="48.13818" lon="-1.94739">
        <ele>47</ele>
        <time>2022-05-21T10:00:16Z</time>
      </trkpt>
      <trkpt lat="48.13833" lon="-1.94715">
        <ele>47</ele>
        <time>2022-05-21T10:00:20Z</time>
      </trkpt>
      <trkpt lat="48.13857" lon="-1.94686">
        <ele>48</ele>
        <time>2022-05-21T10:00:26Z</time>
      </trkpt>
      <trkpt lat="48.13888" lon="-1.94642">
        <ele>48</ele>
        <time>2022-05-21T10:00:33Z</time>
      </trkpt>
      <trkpt lat="48.13889" lon="-1.94626">
        <ele>48</ele>
        <time>2022-05-21T10:00:35Z</time>
      </trkpt>
      <trkpt lat="48.13914" lon="-1.94539">
        <ele>48</ele>
        <time>2022-05-21T10:00:47Z</time>
      </trkpt>
      <trkpt lat="48.13928" lon="-1.94465">
        <ele>47</ele>
        <time>2022-05-21T10:00:56Z</time>
      </trkpt>
      <trkpt lat="48.13934" lon="-1.94355">
        <ele>44</ele>
        <time>2022-05-21T10:01:09Z</time>
      </trkpt>
      <trkpt lat="48.13931" lon="-1.94337">
        <ele>44</ele>
        <time>2022-05-21T10:01:11Z</time>
      </trkpt>
      <trkpt lat="48.13922" lon="-1.94324">
        <ele>43</ele>
        <time>2022-05-21T10:01:13Z</time>
      </trkpt>
      <trkpt lat="48.13931" lon="-1.94298">
        <ele>44</ele>
        <time>2022-05-21T10:01:17Z</time>
      </trkpt>
      <trkpt lat="48.13926" lon="-1.94248">
        <ele>44</ele>
        <time>2022-05-21T10:01:23Z</time>
      </trkpt>
      <trkpt lat="48.13927" lon="-1.94232">
        <ele>44</ele>
        <time>2022-05-21T10:01:25Z</time>
      </trkpt>
      <trkpt lat="48.13913" lon="-1.94169">
        <ele>44</ele>
        <time>2022-05-21T10:01:33Z</time>
      </trkpt>
      <trkpt lat="48.13903" lon="-1.94077">
        <ele>44</ele>
        <time>2022-05-21T10:01:44Z</time>
      </trkpt>
      <trkpt lat="48.13892" lon="-1.94046">
        <ele>44</ele>
        <time>2022-05-21T10:01:48Z</time>
      </trkpt>
      <trkpt lat="48.13882" lon="-1.94041">
        <ele>44</ele>
        <time>2022-05-21T10:01:50Z</time>
      </trkpt>
      <trkpt lat="48.13877" lon="-1.94025">
        <ele>44</ele>
        <time>2022-05-21T10:01:52Z</time>
      </trkpt>
      <trkpt lat="48.13883" lon="-1.94011">
        <ele>44</ele>
        <time>2022-05-21T10:01:54Z</time>
      </trkpt>
      <trkpt lat="48.13878" lon="-1.93968">
        <ele>44</ele>
        <time>2022-05-21T10:01:59Z</time>
      </trkpt>
      <trkpt lat="48.13862" lon="-1.93892">
        <ele>44</ele>
        <time>2022-05-21T10:02:08Z</time>
      </trkpt>
      <trkpt lat="48.13857" lon="-1.9388">
        <ele>43</ele>
        <time>2022-05-21T10:02:10Z</time>
      </trkpt>
      <trkpt lat="48.13834" lon="-1.93759">
        <ele>41</ele>
        <time>2022-05-21T10:02:25Z</time>
      </trkpt>
      <trkpt lat="48.13823" lon="-1.93727">
        <ele>41</ele>
        <time>2022-05-21T10:02:29Z</time>
      </trkpt>
      <trkpt lat="48.13814" lon="-1.93722">
        <ele>41</ele>
        <time>2022-05-21T10:02:31Z</time>
      </trkpt>
      <trkpt lat="48.138" lon="-1.93703">
        <ele>41</ele>
        <time>2022-05-21T10:02:34Z</time>
      </trkpt>
      <trkpt lat="48.13797" lon="-1.9369">
        <ele>41</ele>
        <time>2022-05-21T10:02:36Z</time>
      </trkpt>
      <trkpt lat="48.13798" lon="-1.93674">
        <ele>41</ele>
        <time>2022-05-21T10:02:38Z</time>
      </trkpt>
      <trkpt lat="48.13805" lon="-1.93662">
        <ele>41</ele>
        <time>2022-05-21T10:02:40Z</time>
      </trkpt>
      <trkpt lat="48.13804" lon="-1.93628">
        <ele>42</ele>
        <time>2022-05-21T10:02:44Z</time>
      </trkpt>
      <trkpt lat="48.13807" lon="-1.93615">
        <ele>43</ele>
        <time>2022-05-21T10:02:45Z</time>
      </trkpt>
      <trkpt lat="48.13816" lon="-1.93608">
        <ele>43</ele>
        <time>2022-05-21T10:02:47Z</time>
      </trkpt>
      <trkpt lat="48.13825" lon="-1.93614">
        <ele>43</ele>
        <time>2022-05-21T10:02:49Z</time>
      </trkpt>
      <trkpt lat="48.13845" lon="-1.93651">
        <ele>43</ele>
        <time>2022-05-21T10:02:55Z</time>
      </trkpt>
      <trkpt lat="48.13853" lon="-1.9366">
        <ele>43</ele>
        <time>2022-05-21T10:02:56Z</time>
      </trkpt>
      <trkpt lat="48.13861" lon="-1.93665">
        <ele>44</ele>
        <time>2022-05-21T10:02:58Z</time>
      </trkpt>
      <trkpt lat="48.13852" lon="-1.93669">
        <ele>43</ele>
        <time>2022-05-21T10:03:00Z</time>
      </trkpt>
      <trkpt lat="48.1383" lon="-1.93621">
        <ele>43</ele>
        <time>2022-05-21T10:03:07Z</time>
      </trkpt>
      <trkpt lat="48.13809" lon="-1.93615">
        <ele>43</ele>
        <time>2022-05-21T10:03:10Z</time>
      </trkpt>
      <trkpt lat="48.13798" lon="-1.93584">
        <ele>43</ele>
        <time>2022-05-21T10:03:15Z</time>
      </trkpt>
      <trkpt lat="48.13787" lon="-1.93478">
        <ele>45</ele>
        <time>2022-05-21T10:03:27Z</time>
      </trkpt>
      <trkpt lat="48.13774" lon="-1.93314">
        <ele>45</ele>
        <time>2022-05-21T10:03:47Z</time>
      </trkpt>
      <trkpt lat="48.13774" lon="-1.93259">
        <ele>46</ele>
        <time>2022-05-21T10:03:53Z</time>
      </trkpt>
      <trkpt lat="48.13766" lon="-1.93102">
        <ele>49</ele>
        <time>2022-05-21T10:04:12Z</time>
      </trkpt>
      <trkpt lat="48.13768" lon="-1.92985">
        <ele>50</ele>
        <time>2022-05-21T10:04:26Z</time>
      </trkpt>
      <trkpt lat="48.13771" lon="-1.92955">
        <ele>50</ele>
        <time>2022-05-21T10:04:30Z</time>
      </trkpt>
      <trkpt lat="48.13793" lon="-1.9284">
        <ele>48</ele>
        <time>2022-05-21T10:04:44Z</time>
      </trkpt>
      <trkpt lat="48.13808" lon="-1.92779">
        <ele>47</ele>
        <time>2022-05-21T10:04:52Z</time>
      </trkpt>
      <trkpt lat="48.13821" lon="-1.92739">
        <ele>46</ele>
        <time>2022-05-21T10:04:57Z</time>
      </trkpt>
      <trkpt lat="48.13849" lon="-1.92668">
        <ele>47</ele>
        <time>2022-05-21T10:05:07Z</time>
      </trkpt>
      <trkpt lat="48.13891" lon="-1.92579">
        <ele>49</ele>
        <time>2022-05-21T10:05:20Z</time>
      </trkpt>
      <trkpt lat="48.14072" lon="-1.92214">
        <ele>53</ele>
        <time>2022-05-21T10:06:14Z</time>
      </trkpt>
      <trkpt lat="48.14083" lon="-1.92189">
        <ele>53</ele>
        <time>2022-05-21T10:06:17Z</time>
      </trkpt>
      <trkpt lat="48.14107" lon="-1.92119">
        <ele>52</ele>
        <time>2022-05-21T10:06:26Z</time>
      </trkpt>
      <trkpt lat="48.14123" lon="-1.92056">
        <ele>53</ele>
        <time>2022-05-21T10:06:34Z</time>
      </trkpt>
      <trkpt lat="48.14141" lon="-1.91934">
        <ele>54</ele>
        <time>2022-05-21T10:06:49Z</time>
      </trkpt>
      <trkpt lat="48.14153" lon="-1.91875">
        <ele>54</ele>
        <time>2022-05-21T10:06:57Z</time>
      </trkpt>
      <trkpt lat="48.14166" lon="-1.91766">
        <ele>54</ele>
        <time>2022-05-21T10:07:10Z</time>
      </trkpt>
      <trkpt lat="48.14193" lon="-1.91575">
        <ele>55</ele>
        <time>2022-05-21T10:07:33Z</time>
      </trkpt>
      <trkpt lat="48.142" lon="-1.91543">
        <ele>55</ele>
        <time>2022-05-21T10:07:37Z</time>
      </trkpt>
      <trkpt lat="48.14213" lon="-1.91442">
        <ele>54</ele>
        <time>2022-05-21T10:07:49Z</time>
      </trkpt>
      <trkpt lat="48.14281" lon="-1.90983">
        <ele>48</ele>
        <time>2022-05-21T10:08:45Z</time>
      </trkpt>
      <trkpt lat="48.14299" lon="-1.90881">
        <ele>46</ele>
        <time>2022-05-21T10:08:57Z</time>
      </trkpt>
      <trkpt lat="48.14321" lon="-1.90793">
        <ele>47</ele>
        <time>2022-05-21T10:09:09Z</time>
      </trkpt>
      <trkpt lat="48.14347" lon="-1.9071">
        <ele>49</ele>
        <time>2022-05-21T10:09:20Z</time>
      </trkpt>
      <trkpt lat="48.14469" lon="-1.90352">
        <ele>55</ele>
        <time>2022-05-21T10:10:07Z</time>
      </trkpt>
      <trkpt lat="48.14468" lon="-1.90338">
        <ele>55</ele>
        <time>2022-05-21T10:10:09Z</time>
      </trkpt>
      <trkpt lat="48.14477" lon="-1.90267">
        <ele>55</ele>
        <time>2022-05-21T10:10:17Z</time>
      </trkpt>
      <trkpt lat="48.14481" lon="-1.90205">
        <ele>56</ele>
        <time>2022-05-21T10:10:25Z</time>
      </trkpt>
      <trkpt lat="48.14487" lon="-1.90177">
        <ele>56</ele>
        <time>2022-05-21T10:10:28Z</time>
      </trkpt>
      <trkpt lat="48.14493" lon="-1.9013">
        <ele>57</ele>
        <time>2022-05-21T10:10:34Z</time>
      </trkpt>
      <trkpt lat="48.14507" lon="-1.9007">
        <ele>58</ele>
        <time>2022-05-21T10:10:42Z</time>
      </trkpt>
      <trkpt lat="48.14527" lon="-1.90002">
        <ele>58</ele>
        <time>2022-05-21T10:10:50Z</time>
      </trkpt>
      <trkpt lat="48.14527" lon="-1.89896">
        <ele>58</ele>
        <time>2022-05-21T10:11:03Z</time>
      </trkpt>
      <trkpt lat="48.14521" lon="-1.89814">
        <ele>57</ele>
        <time>2022-05-21T10:11:13Z</time>
      </trkpt>
      <trkpt lat="48.14504" lon="-1.89767">
        <ele>57</ele>
        <time>2022-05-21T10:11:19Z</time>
      </trkpt>
      <trkpt lat="48.14487" lon="-1.89743">
        <ele>57</ele>
        <time>2022-05-21T10:11:23Z</time>
      </trkpt>
      <trkpt lat="48.14475" lon="-1.89716">
        <ele>57</ele>
        <time>2022-05-21T10:11:27Z</time>
      </trkpt>
      <trkpt lat="48.14471" lon="-1.89703">
        <ele>57</ele>
        <time>2022-05-21T10:11:29Z</time>
      </trkpt>
      <trkpt lat="48.14467" lon="-1.89673">
        <ele>57</ele>
        <time>2022-05-21T10:11:32Z</time>
      </trkpt>
      <trkpt lat="48.14468" lon="-1.89615">
        <ele>57</ele>
        <time>2022-05-21T10:11:39Z</time>
      </trkpt>
      <trkpt lat="48.14487" lon="-1.89512">
        <ele>59</ele>
        <time>2022-05-21T10:11:52Z</time>
      </trkpt>
      <trkpt lat="48.14487" lon="-1.89466">
        <ele>60</ele>
        <time>2022-05-21T10:11:58Z</time>
      </trkpt>
      <trkpt lat="48.14476" lon="-1.89397">
        <ele>62</ele>
        <time>2022-05-21T10:12:06Z</time>
      </trkpt>
      <trkpt lat="48.14456" lon="-1.89302">
        <ele>63</ele>
        <time>2022-05-21T10:12:18Z</time>
      </trkpt>
      <trkpt lat="48.14447" lon="-1.89272">
        <ele>63</ele>
        <time>2022-05-21T10:12:22Z</time>
      </trkpt>
      <trkpt lat="48.14416" lon="-1.89112">
        <ele>62</ele>
        <time>2022-05-21T10:12:41Z</time>
      </trkpt>
      <trkpt lat="48.14393" lon="-1.88916">
        <ele>60</ele>
        <time>2022-05-21T10:13:05Z</time>
      </trkpt>
      <trkpt lat="48.14387" lon="-1.88836">
        <ele>59</ele>
        <time>2022-05-21T10:13:15Z</time>
      </trkpt>
      <trkpt lat="48.14339" lon="-1.88368">
        <ele>55</ele>
        <time>2022-05-21T10:14:11Z</time>
      </trkpt>
      <trkpt lat="48.1432" lon="-1.8821">
        <ele>52</ele>
        <time>2022-05-21T10:14:30Z</time>
      </trkpt>
      <trkpt lat="48.14304" lon="-1.88131">
        <ele>50</ele>
        <time>2022-05-21T10:14:40Z</time>
      </trkpt>
      <trkpt lat="48.14274" lon="-1.88013">
        <ele>50</ele>
        <time>2022-05-21T10:14:55Z</time>
      </trkpt>
      <trkpt lat="48.14254" lon="-1.87945">
        <ele>49</ele>
        <time>2022-05-21T10:15:04Z</time>
      </trkpt>
      <trkpt lat="48.14211" lon="-1.87814">
        <ele>49</ele>
        <time>2022-05-21T10:15:21Z</time>
      </trkpt>
      <trkpt lat="48.14178" lon="-1.87738">
        <ele>49</ele>
        <time>2022-05-21T10:15:32Z</time>
      </trkpt>
      <trkpt lat="48.13935" lon="-1.87279">
        <ele>47</ele>
        <time>2022-05-21T10:16:41Z</time>
      </trkpt>
      <trkpt lat="48.13899" lon="-1.87201">
        <ele>48</ele>
        <time>2022-05-21T10:16:52Z</time>
      </trkpt>
      <trkpt lat="48.13825" lon="-1.87026">
        <ele>50</ele>
        <time>2022-05-21T10:17:17Z</time>
      </trkpt>
      <trkpt lat="48.13775" lon="-1.86915">
        <ele>51</ele>
        <time>2022-05-21T10:17:33Z</time>
      </trkpt>
      <trkpt lat="48.13747" lon="-1.86842">
        <ele>51</ele>
        <time>2022-05-21T10:17:43Z</time>
      </trkpt>
      <trkpt lat="48.13652" lon="-1.86624">
        <ele>51</ele>
        <time>2022-05-21T10:18:14Z</time>
      </trkpt>
      <trkpt lat="48.13432" lon="-1.86022">
        <ele>39</ele>
        <time>2022-05-21T10:19:35Z</time>
      </trkpt>
      <trkpt lat="48.13298" lon="-1.8554">
        <ele>40</ele>
        <time>2022-05-21T10:20:37Z</time>
      </trkpt>
      <trkpt lat="48.13268" lon="-1.85445">
        <ele>38</ele>
        <time>2022-05-21T10:20:50Z</time>
      </trkpt>
      <trkpt lat="48.13241" lon="-1.85349">
        <ele>36</ele>
        <time>2022-05-21T10:21:02Z</time>
      </trkpt>
      <trkpt lat="48.13225" lon="-1.8528">
        <ele>36</ele>
        <time>2022-05-21T10:21:11Z</time>
      </trkpt>
      <trkpt lat="48.13216" lon="-1.85204">
        <ele>36</ele>
        <time>2022-05-21T10:21:20Z</time>
      </trkpt>
      <trkpt lat="48.13198" lon="-1.84986">
        <ele>35</ele>
        <time>2022-05-21T10:21:46Z</time>
      </trkpt>
      <trkpt lat="48.13191" lon="-1.84955">
        <ele>35</ele>
        <time>2022-05-21T10:21:50Z</time>
      </trkpt>
      <trkpt lat="48.13195" lon="-1.84923">
        <ele>35</ele>
        <time>2022-05-21T10:21:54Z</time>
      </trkpt>
      <trkpt lat="48.13174" lon="-1.84689">
        <ele>37</ele>
        <time>2022-05-21T10:22:22Z</time>
      </trkpt>
      <trkpt lat="48.13139" lon="-1.84442">
        <ele>39</ele>
        <time>2022-05-21T10:22:52Z</time>
      </trkpt>
      <trkpt lat="48.13128" lon="-1.84345">
        <ele>41</ele>
        <time>2022-05-21T10:23:04Z</time>
      </trkpt>
      <trkpt lat="48.1312" lon="-1.84301">
        <ele>42</ele>
        <time>2022-05-21T10:23:09Z</time>
      </trkpt>
      <trkpt lat="48.1307" lon="-1.83917">
        <ele>49</ele>
        <time>2022-05-21T10:23:55Z</time>
      </trkpt>
      <trkpt lat="48.1305" lon="-1.83782">
        <ele>46</ele>
        <time>2022-05-21T10:24:12Z</time>
      </trkpt>
      <trkpt lat="48.12991" lon="-1.83331">
        <ele>40</ele>
        <time>2022-05-21T10:25:06Z</time>
      </trkpt>
      <trkpt lat="48.12974" lon="-1.83236">
        <ele>37</ele>
        <time>2022-05-21T10:25:18Z</time>
      </trkpt>
      <trkpt lat="48.12919" lon="-1.83048">
        <ele>34</ele>
        <time>2022-05-21T10:25:43Z</time>
      </trkpt>
      <trkpt lat="48.1291" lon="-1.82998">
        <ele>32</ele>
        <time>2022-05-21T10:25:49Z</time>
      </trkpt>
      <trkpt lat="48.12906" lon="-1.82952">
        <ele>32</ele>
        <time>2022-05-21T10:25:54Z</time>
      </trkpt>
      <trkpt lat="48.12904" lon="-1.82869">
        <ele>33</ele>
        <time>2022-05-21T10:26:04Z</time>
      </trkpt>
      <trkpt lat="48.12897" lon="-1.82834">
        <ele>34</ele>
        <time>2022-05-21T10:26:08Z</time>
      </trkpt>
      <trkpt lat="48.12899" lon="-1.82817">
        <ele>34</ele>
        <time>2022-05-21T10:26:10Z</time>
      </trkpt>
      <trkpt lat="48.12919" lon="-1.82773">
        <ele>34</ele>
        <time>2022-05-21T10:26:17Z</time>
      </trkpt>
      <trkpt lat="48.12948" lon="-1.82575">
        <ele>42</ele>
        <time>2022-05-21T10:26:41Z</time>
      </trkpt>
      <trkpt lat="48.1295" lon="-1.82588">
        <ele>42</ele>
        <time>2022-05-21T10:26:42Z</time>
      </trkpt>
      <trkpt lat="48.1294" lon="-1.82651">
        <ele>39</ele>
        <time>2022-05-21T10:26:50Z</time>
      </trkpt>
      <trkpt lat="48.1293" lon="-1.82764">
        <ele>35</ele>
        <time>2022-05-21T10:27:04Z</time>
      </trkpt>
      <trkpt lat="48.12935" lon="-1.82838">
        <ele>33</ele>
        <time>2022-05-21T10:27:13Z</time>
      </trkpt>
      <trkpt lat="48.12929" lon="-1.8285">
        <ele>33</ele>
        <time>2022-05-21T10:27:14Z</time>
      </trkpt>
      <trkpt lat="48.12921" lon="-1.82858">
        <ele>33</ele>
        <time>2022-05-21T10:27:16Z</time>
      </trkpt>
      <trkpt lat="48.12911" lon="-1.82858">
        <ele>33</ele>
        <time>2022-05-21T10:27:18Z</time>
      </trkpt>
      <trkpt lat="48.12902" lon="-1.82854">
        <ele>33</ele>
        <time>2022-05-21T10:27:19Z</time>
      </trkpt>
      <trkpt lat="48.12882" lon="-1.82825">
        <ele>34</ele>
        <time>2022-05-21T10:27:24Z</time>
      </trkpt>
      <trkpt lat="48.12853" lon="-1.82804">
        <ele>35</ele>
        <time>2022-05-21T10:27:30Z</time>
      </trkpt>
      <trkpt lat="48.1284" lon="-1.82777">
        <ele>34</ele>
        <time>2022-05-21T10:27:34Z</time>
      </trkpt>
      <trkpt lat="48.12838" lon="-1.82762">
        <ele>34</ele>
        <time>2022-05-21T10:27:36Z</time>
      </trkpt>
      <trkpt lat="48.12833" lon="-1.82624">
        <ele>37</ele>
        <time>2022-05-21T10:27:52Z</time>
      </trkpt>
      <trkpt lat="48.1283" lon="-1.82605">
        <ele>37</ele>
        <time>2022-05-21T10:27:55Z</time>
      </trkpt>
      <trkpt lat="48.12828" lon="-1.82493">
        <ele>41</ele>
        <time>2022-05-21T10:28:08Z</time>
      </trkpt>
      <trkpt lat="48.12829" lon="-1.8246">
        <ele>41</ele>
        <time>2022-05-21T10:28:12Z</time>
      </trkpt>
      <trkpt lat="48.1284" lon="-1.82397">
        <ele>41</ele>
        <time>2022-05-21T10:28:20Z</time>
      </trkpt>
      <trkpt lat="48.12854" lon="-1.82269">
        <ele>42</ele>
        <time>2022-05-21T10:28:35Z</time>
      </trkpt>
      <trkpt lat="48.12848" lon="-1.82235">
        <ele>42</ele>
        <time>2022-05-21T10:28:39Z</time>
      </trkpt>
      <trkpt lat="48.12821" lon="-1.82168">
        <ele>44</ele>
        <time>2022-05-21T10:28:48Z</time>
      </trkpt>
      <trkpt lat="48.12797" lon="-1.82099">
        <ele>47</ele>
        <time>2022-05-21T10:28:58Z</time>
      </trkpt>
      <trkpt lat="48.12759" lon="-1.81973">
        <ele>49</ele>
        <time>2022-05-21T10:29:14Z</time>
      </trkpt>
      <trkpt lat="48.12744" lon="-1.81934">
        <ele>50</ele>
        <time>2022-05-21T10:29:19Z</time>
      </trkpt>
      <trkpt lat="48.12725" lon="-1.819">
        <ele>51</ele>
        <time>2022-05-21T10:29:25Z</time>
      </trkpt>
      <trkpt lat="48.127" lon="-1.81872">
        <ele>52</ele>
        <time>2022-05-21T10:29:30Z</time>
      </trkpt>
      <trkpt lat="48.12675" lon="-1.81851">
        <ele>52</ele>
        <time>2022-05-21T10:29:35Z</time>
      </trkpt>
      <trkpt lat="48.12656" lon="-1.81839">
        <ele>52</ele>
        <time>2022-05-21T10:29:39Z</time>
      </trkpt>
      <trkpt lat="48.12645" lon="-1.81829">
        <ele>51</ele>
        <time>2022-05-21T10:29:41Z</time>
      </trkpt>
      <trkpt lat="48.12613" lon="-1.8181">
        <ele>51</ele>
        <time>2022-05-21T10:29:47Z</time>
      </trkpt>
      <trkpt lat="48.1258" lon="-1.81801">
        <ele>50</ele>
        <time>2022-05-21T10:29:53Z</time>
      </trkpt>
      <trkpt lat="48.12569" lon="-1.81792">
        <ele>50</ele>
        <time>2022-05-21T10:29:56Z</time>
      </trkpt>
      <trkpt lat="48.12564" lon="-1.8178">
        <ele>50</ele>
        <time>2022-05-21T10:29:57Z</time>
      </trkpt>
      <trkpt lat="48.12555" lon="-1.81735">
        <ele>52</ele>
        <time>2022-05-21T10:30:03Z</time>
      </trkpt>
      <trkpt lat="48.12557" lon="-1.81623">
        <ele>55</ele>
        <time>2022-05-21T10:30:16Z</time>
      </trkpt>
      <trkpt lat="48.12552" lon="-1.81537">
        <ele>56</ele>
        <time>2022-05-21T10:30:26Z</time>
      </trkpt>
      <trkpt lat="48.12545" lon="-1.81485">
        <ele>55</ele>
        <time>2022-05-21T10:30:33Z</time>
      </trkpt>
      <trkpt lat="48.12497" lon="-1.8128">
        <ele>52</ele>
        <time>2022-05-21T10:30:59Z</time>
      </trkpt>
      <trkpt lat="48.12492" lon="-1.81246">
        <ele>52</ele>
        <time>2022-05-21T10:31:03Z</time>
      </trkpt>
      <trkpt lat="48.12473" lon="-1.81167">
        <ele>51</ele>
        <time>2022-05-21T10:31:13Z</time>
      </trkpt>
      <trkpt lat="48.12373" lon="-1.80829">
        <ele>47</ele>
        <time>2022-05-21T10:31:57Z</time>
      </trkpt>
      <trkpt lat="48.12341" lon="-1.80728">
        <ele>48</ele>
        <time>2022-05-21T10:32:10Z</time>
      </trkpt>
      <trkpt lat="48.12328" lon="-1.80663">
        <ele>48</ele>
        <time>2022-05-21T10:32:18Z</time>
      </trkpt>
      <trkpt lat="48.12319" lon="-1.80585">
        <ele>48</ele>
        <time>2022-05-21T10:32:27Z</time>
      </trkpt>
      <trkpt lat="48.12315" lon="-1.80571">
        <ele>48</ele>
        <time>2022-05-21T10:32:29Z</time>
      </trkpt>
      <trkpt lat="48.12299" lon="-1.80553">
        <ele>48</ele>
        <time>2022-05-21T10:32:33Z</time>
      </trkpt>
      <trkpt lat="48.12292" lon="-1.80541">
        <ele>48</ele>
        <time>2022-05-21T10:32:35Z</time>
      </trkpt>
      <trkpt lat="48.12289" lon="-1.80526">
        <ele>48</ele>
        <time>2022-05-21T10:32:36Z</time>
      </trkpt>
      <trkpt lat="48.12291" lon="-1.8051">
        <ele>48</ele>
        <time>2022-05-21T10:32:38Z</time>
      </trkpt>
      <trkpt lat="48.12308" lon="-1.80487">
        <ele>47</ele>
        <time>2022-05-21T10:32:42Z</time>
      </trkpt>
      <trkpt lat="48.12311" lon="-1.80471">
        <ele>47</ele>
        <time>2022-05-21T10:32:44Z</time>
      </trkpt>
      <trkpt lat="48.12297" lon="-1.80253">
        <ele>44</ele>
        <time>2022-05-21T10:33:10Z</time>
      </trkpt>
      <trkpt lat="48.12286" lon="-1.80178">
        <ele>43</ele>
        <time>2022-05-21T10:33:20Z</time>
      </trkpt>
      <trkpt lat="48.12285" lon="-1.80069">
        <ele>41</ele>
        <time>2022-05-21T10:33:33Z</time>
      </trkpt>
      <trkpt lat="48.12288" lon="-1.8001">
        <ele>42</ele>
        <time>2022-05-21T10:33:40Z</time>
      </trkpt>
      <trkpt lat="48.12286" lon="-1.79989">
        <ele>42</ele>
        <time>2022-05-21T10:33:42Z</time>
      </trkpt>
      <trkpt lat="48.12276" lon="-1.7995">
        <ele>40</ele>
        <time>2022-05-21T10:33:47Z</time>
      </trkpt>
      <trkpt lat="48.12277" lon="-1.79928">
        <ele>40</ele>
        <time>2022-05-21T10:33:50Z</time>
      </trkpt>
      <trkpt lat="48.12287" lon="-1.79911">
        <ele>41</ele>
        <time>2022-05-21T10:33:52Z</time>
      </trkpt>
      <trkpt lat="48.12298" lon="-1.79899">
        <ele>41</ele>
        <time>2022-05-21T10:33:55Z</time>
      </trkpt>
      <trkpt lat="48.12305" lon="-1.7988">
        <ele>41</ele>
        <time>2022-05-21T10:33:57Z</time>
      </trkpt>
      <trkpt lat="48.12323" lon="-1.79765">
        <ele>36</ele>
        <time>2022-05-21T10:34:11Z</time>
      </trkpt>
      <trkpt lat="48.12327" lon="-1.79691">
        <ele>31</ele>
        <time>2022-05-21T10:34:20Z</time>
      </trkpt>
      <trkpt lat="48.12327" lon="-1.79645">
        <ele>30</ele>
        <time>2022-05-21T10:34:26Z</time>
      </trkpt>
      <trkpt lat="48.12336" lon="-1.79559">
        <ele>30</ele>
        <time>2022-05-21T10:34:36Z</time>
      </trkpt>
      <trkpt lat="48.12341" lon="-1.79455">
        <ele>30</ele>
        <time>2022-05-21T10:34:48Z</time>
      </trkpt>
      <trkpt lat="48.12343" lon="-1.79243">
        <ele>29</ele>
        <time>2022-05-21T10:35:14Z</time>
      </trkpt>
      <trkpt lat="48.12341" lon="-1.79165">
        <ele>29</ele>
        <time>2022-05-21T10:35:23Z</time>
      </trkpt>
      <trkpt lat="48.12334" lon="-1.79088">
        <ele>32</ele>
        <time>2022-05-21T10:35:32Z</time>
      </trkpt>
      <trkpt lat="48.12318" lon="-1.79003">
        <ele>32</ele>
        <time>2022-05-21T10:35:43Z</time>
      </trkpt>
      <trkpt lat="48.12288" lon="-1.78897">
        <ele>32</ele>
        <time>2022-05-21T10:35:56Z</time>
      </trkpt>
      <trkpt lat="48.12279" lon="-1.78855">
        <ele>32</ele>
        <time>2022-05-21T10:36:01Z</time>
      </trkpt>
      <trkpt lat="48.12268" lon="-1.7875">
        <ele>32</ele>
        <time>2022-05-21T10:36:14Z</time>
      </trkpt>
      <trkpt lat="48.1225" lon="-1.7864">
        <ele>34</ele>
        <time>2022-05-21T10:36:28Z</time>
      </trkpt>
      <trkpt lat="48.12245" lon="-1.78576">
        <ele>35</ele>
        <time>2022-05-21T10:36:35Z</time>
      </trkpt>
      <trkpt lat="48.12251" lon="-1.78531">
        <ele>36</ele>
        <time>2022-05-21T10:36:41Z</time>
      </trkpt>
      <trkpt lat="48.12309" lon="-1.78247">
        <ele>42</ele>
        <time>2022-05-21T10:37:16Z</time>
      </trkpt>
      <trkpt lat="48.12317" lon="-1.78164">
        <ele>44</ele>
        <time>2022-05-21T10:37:26Z</time>
      </trkpt>
      <trkpt lat="48.12315" lon="-1.78116">
        <ele>45</ele>
        <time>2022-05-21T10:37:32Z</time>
      </trkpt>
      <trkpt lat="48.12305" lon="-1.78054">
        <ele>47</ele>
        <time>2022-05-21T10:37:39Z</time>
      </trkpt>
      <trkpt lat="48.1229" lon="-1.77993">
        <ele>48</ele>
        <time>2022-05-21T10:37:47Z</time>
      </trkpt>
      <trkpt lat="48.1218" lon="-1.77567">
        <ele>46</ele>
        <time>2022-05-21T10:38:41Z</time>
      </trkpt>
      <trkpt lat="48.12163" lon="-1.77521">
        <ele>45</ele>
        <time>2022-05-21T10:38:47Z</time>
      </trkpt>
      <trkpt lat="48.12136" lon="-1.7747">
        <ele>43</ele>
        <time>2022-05-21T10:38:55Z</time>
      </trkpt>
      <trkpt lat="48.12117" lon="-1.77453">
        <ele>43</ele>
        <time>2022-05-21T10:38:59Z</time>
      </trkpt>
      <trkpt lat="48.12109" lon="-1.7744">
        <ele>43</ele>
        <time>2022-05-21T10:39:01Z</time>
      </trkpt>
      <trkpt lat="48.12106" lon="-1.77423">
        <ele>43</ele>
        <time>2022-05-21T10:39:03Z</time>
      </trkpt>
      <trkpt lat="48.12108" lon="-1.77405">
        <ele>43</ele>
        <time>2022-05-21T10:39:05Z</time>
      </trkpt>
      <trkpt lat="48.12117" lon="-1.77372">
        <ele>43</ele>
        <time>2022-05-21T10:39:10Z</time>
      </trkpt>
      <trkpt lat="48.121" lon="-1.77268">
        <ele>43</ele>
        <time>2022-05-21T10:39:22Z</time>
      </trkpt>
      <trkpt lat="48.12086" lon="-1.76988">
        <ele>49</ele>
        <time>2022-05-21T10:39:56Z</time>
      </trkpt>
      <trkpt lat="48.12081" lon="-1.76939">
        <ele>50</ele>
        <time>2022-05-21T10:40:02Z</time>
      </trkpt>
      <trkpt lat="48.12083" lon="-1.7688">
        <ele>51</ele>
        <time>2022-05-21T10:40:09Z</time>
      </trkpt>
      <trkpt lat="48.1208" lon="-1.76816">
        <ele>52</ele>
        <time>2022-05-21T10:40:16Z</time>
      </trkpt>
      <trkpt lat="48.12076" lon="-1.76784">
        <ele>52</ele>
        <time>2022-05-21T10:40:20Z</time>
      </trkpt>
      <trkpt lat="48.12038" lon="-1.76578">
        <ele>52</ele>
        <time>2022-05-21T10:40:46Z</time>
      </trkpt>
      <trkpt lat="48.11972" lon="-1.76306">
        <ele>45</ele>
        <time>2022-05-21T10:41:20Z</time>
      </trkpt>
      <trkpt lat="48.11929" lon="-1.76149">
        <ele>43</ele>
        <time>2022-05-21T10:41:40Z</time>
      </trkpt>
      <trkpt lat="48.11899" lon="-1.76063">
        <ele>42</ele>
        <time>2022-05-21T10:41:52Z</time>
      </trkpt>
      <trkpt lat="48.11882" lon="-1.76034">
        <ele>41</ele>
        <time>2022-05-21T10:41:56Z</time>
      </trkpt>
      <trkpt lat="48.11879" lon="-1.76015">
        <ele>40</ele>
        <time>2022-05-21T10:41:58Z</time>
      </trkpt>
      <trkpt lat="48.11882" lon="-1.75995">
        <ele>39</ele>
        <time>2022-05-21T10:42:01Z</time>
      </trkpt>
      <trkpt lat="48.11884" lon="-1.75937">
        <ele>38</ele>
        <time>2022-05-21T10:42:08Z</time>
      </trkpt>
      <trkpt lat="48.11896" lon="-1.75862">
        <ele>38</ele>
        <time>2022-05-21T10:42:17Z</time>
      </trkpt>
      <trkpt lat="48.11897" lon="-1.75781">
        <ele>40</ele>
        <time>2022-05-21T10:42:27Z</time>
      </trkpt>
      <trkpt lat="48.11894" lon="-1.75734">
        <ele>41</ele>
        <time>2022-05-21T10:42:32Z</time>
      </trkpt>
      <trkpt lat="48.11887" lon="-1.75721">
        <ele>41</ele>
        <time>2022-05-21T10:42:34Z</time>
      </trkpt>
      <trkpt lat="48.11885" lon="-1.75707">
        <ele>42</ele>
        <time>2022-05-21T10:42:36Z</time>
      </trkpt>
      <trkpt lat="48.11876" lon="-1.75702">
        <ele>42</ele>
        <time>2022-05-21T10:42:38Z</time>
      </trkpt>
      <trkpt lat="48.11883" lon="-1.75711">
        <ele>42</ele>
        <time>2022-05-21T10:42:39Z</time>
      </trkpt>
      <trkpt lat="48.1188" lon="-1.75742">
        <ele>41</ele>
        <time>2022-05-21T10:42:43Z</time>
      </trkpt>
      <trkpt lat="48.11887" lon="-1.75731">
        <ele>41</ele>
        <time>2022-05-21T10:42:45Z</time>
      </trkpt>
      <trkpt lat="48.11894" lon="-1.75688">
        <ele>42</ele>
        <time>2022-05-21T10:42:50Z</time>
      </trkpt>
      <trkpt lat="48.11895" lon="-1.75633">
        <ele>44</ele>
        <time>2022-05-21T10:42:57Z</time>
      </trkpt>
      <trkpt lat="48.11901" lon="-1.75621">
        <ele>44</ele>
        <time>2022-05-21T10:42:58Z</time>
      </trkpt>
      <trkpt lat="48.11903" lon="-1.75604">
        <ele>45</ele>
        <time>2022-05-21T10:43:00Z</time>
      </trkpt>
      <trkpt lat="48.11913" lon="-1.75576">
        <ele>45</ele>
        <time>2022-05-21T10:43:04Z</time>
      </trkpt>
      <trkpt lat="48.11925" lon="-1.75518">
        <ele>47</ele>
        <time>2022-05-21T10:43:11Z</time>
      </trkpt>
      <trkpt lat="48.11931" lon="-1.75452">
        <ele>48</ele>
        <time>2022-05-21T10:43:19Z</time>
      </trkpt>
      <trkpt lat="48.11936" lon="-1.75354">
        <ele>51</ele>
        <time>2022-05-21T10:43:31Z</time>
      </trkpt>
      <trkpt lat="48.11932" lon="-1.75322">
        <ele>51</ele>
        <time>2022-05-21T10:43:35Z</time>
      </trkpt>
      <trkpt lat="48.11935" lon="-1.75309">
        <ele>51</ele>
        <time>2022-05-21T10:43:36Z</time>
      </trkpt>
      <trkpt lat="48.11937" lon="-1.75262">
        <ele>52</ele>
        <time>2022-05-21T10:43:42Z</time>
      </trkpt>
      <trkpt lat="48.11927" lon="-1.75178">
        <ele>52</ele>
        <time>2022-05-21T10:43:52Z</time>
      </trkpt>
      <trkpt lat="48.11919" lon="-1.75074">
        <ele>50</ele>
        <time>2022-05-21T10:44:05Z</time>
      </trkpt>
      <trkpt lat="48.11907" lon="-1.74999">
        <ele>48</ele>
        <time>2022-05-21T10:44:14Z</time>
      </trkpt>
      <trkpt lat="48.11899" lon="-1.74924">
        <ele>47</ele>
        <time>2022-05-21T10:44:23Z</time>
      </trkpt>
      <trkpt lat="48.11899" lon="-1.74906">
        <ele>47</ele>
        <time>2022-05-21T10:44:25Z</time>
      </trkpt>
      <trkpt lat="48.11893" lon="-1.74873">
        <ele>46</ele>
        <time>2022-05-21T10:44:29Z</time>
      </trkpt>
      <trkpt lat="48.11888" lon="-1.7478">
        <ele>43</ele>
        <time>2022-05-21T10:44:40Z</time>
      </trkpt>
      <trkpt lat="48.11848" lon="-1.74357">
        <ele>34</ele>
        <time>2022-05-21T10:45:31Z</time>
      </trkpt>
      <trkpt lat="48.11844" lon="-1.7428">
        <ele>34</ele>
        <time>2022-05-21T10:45:40Z</time>
      </trkpt>
      <trkpt lat="48.11822" lon="-1.74001">
        <ele>36</ele>
        <time>2022-05-21T10:46:13Z</time>
      </trkpt>
      <trkpt lat="48.11813" lon="-1.73905">
        <ele>35</ele>
        <time>2022-05-21T10:46:25Z</time>
      </trkpt>
      <trkpt lat="48.11806" lon="-1.73861">
        <ele>35</ele>
        <time>2022-05-21T10:46:30Z</time>
      </trkpt>
      <trkpt lat="48.11804" lon="-1.73817">
        <ele>35</ele>
        <time>2022-05-21T10:46:36Z</time>
      </trkpt>
      <trkpt lat="48.11792" lon="-1.73686">
        <ele>36</ele>
        <time>2022-05-21T10:46:51Z</time>
      </trkpt>
      <trkpt lat="48.11781" lon="-1.73467">
        <ele>36</ele>
        <time>2022-05-21T10:47:17Z</time>
      </trkpt>
      <trkpt lat="48.1178" lon="-1.7339">
        <ele>37</ele>
        <time>2022-05-21T10:47:26Z</time>
      </trkpt>
      <trkpt lat="48.11768" lon="-1.73193">
        <ele>41</ele>
        <time>2022-05-21T10:47:50Z</time>
      </trkpt>
      <trkpt lat="48.11764" lon="-1.73159">
        <ele>41</ele>
        <time>2022-05-21T10:47:54Z</time>
      </trkpt>
      <trkpt lat="48.11767" lon="-1.73105">
        <ele>42</ele>
        <time>2022-05-21T10:48:00Z</time>
      </trkpt>
      <trkpt lat="48.11754" lon="-1.729">
        <ele>44</ele>
        <time>2022-05-21T10:48:25Z</time>
      </trkpt>
      <trkpt lat="48.11746" lon="-1.72825">
        <ele>46</ele>
        <time>2022-05-21T10:48:34Z</time>
      </trkpt>
      <trkpt lat="48.11726" lon="-1.72701">
        <ele>46</ele>
        <time>2022-05-21T10:48:49Z</time>
      </trkpt>
      <trkpt lat="48.11714" lon="-1.72641">
        <ele>47</ele>
        <time>2022-05-21T10:48:57Z</time>
      </trkpt>
      <trkpt lat="48.11668" lon="-1.72454">
        <ele>46</ele>
        <time>2022-05-21T10:49:20Z</time>
      </trkpt>
      <trkpt lat="48.11648" lon="-1.72361">
        <ele>45</ele>
        <time>2022-05-21T10:49:32Z</time>
      </trkpt>
      <trkpt lat="48.11618" lon="-1.72061">
        <ele>39</ele>
        <time>2022-05-21T10:50:08Z</time>
      </trkpt>
      <trkpt lat="48.11611" lon="-1.71822">
        <ele>39</ele>
        <time>2022-05-21T10:50:36Z</time>
      </trkpt>
      <trkpt lat="48.11617" lon="-1.71731">
        <ele>39</ele>
        <time>2022-05-21T10:50:47Z</time>
      </trkpt>
      <trkpt lat="48.11625" lon="-1.71663">
        <ele>39</ele>
        <time>2022-05-21T10:50:55Z</time>
      </trkpt>
      <trkpt lat="48.1162" lon="-1.7165">
        <ele>39</ele>
        <time>2022-05-21T10:50:57Z</time>
      </trkpt>
      <trkpt lat="48.1162" lon="-1.71637">
        <ele>38</ele>
        <time>2022-05-21T10:50:59Z</time>
      </trkpt>
      <trkpt lat="48.11623" lon="-1.71619">
        <ele>38</ele>
        <time>2022-05-21T10:51:01Z</time>
      </trkpt>
      <trkpt lat="48.11623" lon="-1.71545">
        <ele>38</ele>
        <time>2022-05-21T10:51:10Z</time>
      </trkpt>
      <trkpt lat="48.11626" lon="-1.71512">
        <ele>39</ele>
        <time>2022-05-21T10:51:14Z</time>
      </trkpt>
      <trkpt lat="48.11627" lon="-1.71303">
        <ele>42</ele>
        <time>2022-05-21T10:51:38Z</time>
      </trkpt>
      <trkpt lat="48.11635" lon="-1.71135">
        <ele>45</ele>
        <time>2022-05-21T10:51:58Z</time>
      </trkpt>
      <trkpt lat="48.11634" lon="-1.71044">
        <ele>45</ele>
        <time>2022-05-21T10:52:09Z</time>
      </trkpt>
      <trkpt lat="48.11637" lon="-1.70997">
        <ele>44</ele>
        <time>2022-05-21T10:52:15Z</time>
      </trkpt>
      <trkpt lat="48.11645" lon="-1.70948">
        <ele>45</ele>
        <time>2022-05-21T10:52:21Z</time>
      </trkpt>
      <trkpt lat="48.11645" lon="-1.70933">
        <ele>46</ele>
        <time>2022-05-21T10:52:23Z</time>
      </trkpt>
      <trkpt lat="48.11627" lon="-1.70829">
        <ele>45</ele>
        <time>2022-05-21T10:52:35Z</time>
      </trkpt>
      <trkpt lat="48.11621" lon="-1.70801">
        <ele>45</ele>
        <time>2022-05-21T10:52:39Z</time>
      </trkpt>
      <trkpt lat="48.11602" lon="-1.70738">
        <ele>45</ele>
        <time>2022-05-21T10:52:47Z</time>
      </trkpt>
      <trkpt lat="48.11599" lon="-1.70702">
        <ele>44</ele>
        <time>2022-05-21T10:52:51Z</time>
      </trkpt>
      <trkpt lat="48.11581" lon="-1.70608">
        <ele>43</ele>
        <time>2022-05-21T10:53:03Z</time>
      </trkpt>
      <trkpt lat="48.1157" lon="-1.70529">
        <ele>43</ele>
        <time>2022-05-21T10:53:13Z</time>
      </trkpt>
      <trkpt lat="48.11543" lon="-1.70401">
        <ele>41</ele>
        <time>2022-05-21T10:53:29Z</time>
      </trkpt>
      <trkpt lat="48.11532" lon="-1.70334">
        <ele>41</ele>
        <time>2022-05-21T10:53:37Z</time>
      </trkpt>
      <trkpt lat="48.11516" lon="-1.70271">
        <ele>41</ele>
        <time>2022-05-21T10:53:45Z</time>
      </trkpt>
      <trkpt lat="48.11474" lon="-1.7013">
        <ele>40</ele>
        <time>2022-05-21T10:54:03Z</time>
      </trkpt>
      <trkpt lat="48.11474" lon="-1.70104">
        <ele>40</ele>
        <time>2022-05-21T10:54:06Z</time>
      </trkpt>
      <trkpt lat="48.11462" lon="-1.70076">
        <ele>41</ele>
        <time>2022-05-21T10:54:10Z</time>
      </trkpt>
      <trkpt lat="48.11436" lon="-1.69995">
        <ele>40</ele>
        <time>2022-05-21T10:54:21Z</time>
      </trkpt>
      <trkpt lat="48.11333" lon="-1.69648">
        <ele>36</ele>
        <time>2022-05-21T10:55:06Z</time>
      </trkpt>
      <trkpt lat="48.11321" lon="-1.69625">
        <ele>35</ele>
        <time>2022-05-21T10:55:09Z</time>
      </trkpt>
      <trkpt lat="48.1132" lon="-1.6961">
        <ele>35</ele>
        <time>2022-05-21T10:55:11Z</time>
      </trkpt>
      <trkpt lat="48.11313" lon="-1.69579">
        <ele>34</ele>
        <time>2022-05-21T10:55:15Z</time>
      </trkpt>
      <trkpt lat="48.11307" lon="-1.69565">
        <ele>34</ele>
        <time>2022-05-21T10:55:17Z</time>
      </trkpt>
      <trkpt lat="48.1129" lon="-1.69502">
        <ele>34</ele>
        <time>2022-05-21T10:55:25Z</time>
      </trkpt>
      <trkpt lat="48.11275" lon="-1.69463">
        <ele>33</ele>
        <time>2022-05-21T10:55:31Z</time>
      </trkpt>
      <trkpt lat="48.11265" lon="-1.6938">
        <ele>31</ele>
        <time>2022-05-21T10:55:41Z</time>
      </trkpt>
      <trkpt lat="48.1127" lon="-1.69321">
        <ele>30</ele>
        <time>2022-05-21T10:55:48Z</time>
      </trkpt>
      <trkpt lat="48.11269" lon="-1.6929">
        <ele>30</ele>
        <time>2022-05-21T10:55:51Z</time>
      </trkpt>
      <trkpt lat="48.11261" lon="-1.6924">
        <ele>30</ele>
        <time>2022-05-21T10:55:57Z</time>
      </trkpt>
      <trkpt lat="48.11251" lon="-1.69217">
        <ele>30</ele>
        <time>2022-05-21T10:56:01Z</time>
      </trkpt>
      <trkpt lat="48.11235" lon="-1.69198">
        <ele>31</ele>
        <time>2022-05-21T10:56:04Z</time>
      </trkpt>
      <trkpt lat="48.1123" lon="-1.69187">
        <ele>31</ele>
        <time>2022-05-21T10:56:06Z</time>
      </trkpt>
      <trkpt lat="48.11219" lon="-1.69177">
        <ele>31</ele>
        <time>2022-05-21T10:56:08Z</time>
      </trkpt>
      <trkpt lat="48.11166" lon="-1.69108">
        <ele>32</ele>
        <time>2022-05-21T10:56:21Z</time>
      </trkpt>
      <trkpt lat="48.11147" lon="-1.69075">
        <ele>31</ele>
        <time>2022-05-21T10:56:26Z</time>
      </trkpt>
      <trkpt lat="48.11142" lon="-1.69045">
        <ele>31</ele>
        <time>2022-05-21T10:56:29Z</time>
      </trkpt>
      <trkpt lat="48.11148" lon="-1.69012">
        <ele>32</ele>
        <time>2022-05-21T10:56:34Z</time>
      </trkpt>
      <trkpt lat="48.11189" lon="-1.68873">
        <ele>32</ele>
        <time>2022-05-21T10:56:52Z</time>
      </trkpt>
      <trkpt lat="48.11199" lon="-1.68808">
        <ele>33</ele>
        <time>2022-05-21T10:57:00Z</time>
      </trkpt>
      <trkpt lat="48.11212" lon="-1.68748">
        <ele>33</ele>
        <time>2022-05-21T10:57:07Z</time>
      </trkpt>
      <trkpt lat="48.11218" lon="-1.68738">
        <ele>33</ele>
        <time>2022-05-21T10:57:09Z</time>
      </trkpt>
      <trkpt lat="48.11215" lon="-1.68723">
        <ele>32</ele>
        <time>2022-05-21T10:57:10Z</time>
      </trkpt>
      <trkpt lat="48.11206" lon="-1.68716">
        <ele>31</ele>
        <time>2022-05-21T10:57:12Z</time>
      </trkpt>
      <trkpt lat="48.11196" lon="-1.68713">
        <ele>31</ele>
        <time>2022-05-21T10:57:14Z</time>
      </trkpt>
      <trkpt lat="48.11166" lon="-1.68696">
        <ele>29</ele>
        <time>2022-05-21T10:57:20Z</time>
      </trkpt>
      <trkpt lat="48.11157" lon="-1.68686">
        <ele>29</ele>
        <time>2022-05-21T10:57:22Z</time>
      </trkpt>
      <trkpt lat="48.11126" lon="-1.68673">
        <ele>28</ele>
        <time>2022-05-21T10:57:28Z</time>
      </trkpt>
      <trkpt lat="48.1111" lon="-1.68655">
        <ele>28</ele>
        <time>2022-05-21T10:57:31Z</time>
      </trkpt>
      <trkpt lat="48.1106" lon="-1.6863">
        <ele>28</ele>
        <time>2022-05-21T10:57:40Z</time>
      </trkpt>
      <trkpt lat="48.1105" lon="-1.68623">
        <ele>27</ele>
        <time>2022-05-21T10:57:42Z</time>
      </trkpt>
      <trkpt lat="48.11038" lon="-1.68606">
        <ele>27</ele>
        <time>2022-05-21T10:57:45Z</time>
      </trkpt>
      <trkpt lat="48.11027" lon="-1.68603">
        <ele>26</ele>
        <time>2022-05-21T10:57:47Z</time>
      </trkpt>
      <trkpt lat="48.1102" lon="-1.68592">
        <ele>25</ele>
        <time>2022-05-21T10:57:49Z</time>
      </trkpt>
      <trkpt lat="48.11021" lon="-1.68479">
        <ele>30</ele>
        <time>2022-05-21T10:58:03Z</time>
      </trkpt>
      <trkpt lat="48.11017" lon="-1.68466">
        <ele>30</ele>
        <time>2022-05-21T10:58:04Z</time>
      </trkpt>
      <trkpt lat="48.10992" lon="-1.68465">
        <ele>29</ele>
        <time>2022-05-21T10:58:09Z</time>
      </trkpt>
      <trkpt lat="48.10981" lon="-1.68469">
        <ele>29</ele>
        <time>2022-05-21T10:58:11Z</time>
      </trkpt>
      <trkpt lat="48.10972" lon="-1.68466">
        <ele>29</ele>
        <time>2022-05-21T10:58:12Z</time>
      </trkpt>
      <trkpt lat="48.10969" lon="-1.68451">
        <ele>30</ele>
        <time>2022-05-21T10:58:14Z</time>
      </trkpt>
      <trkpt lat="48.10974" lon="-1.68416">
        <ele>31</ele>
        <time>2022-05-21T10:58:19Z</time>
      </trkpt>
      <trkpt lat="48.10965" lon="-1.68409">
        <ele>31</ele>
        <time>2022-05-21T10:58:20Z</time>
      </trkpt>
      <trkpt lat="48.10936" lon="-1.68406">
        <ele>31</ele>
        <time>2022-05-21T10:58:25Z</time>
      </trkpt>
      <trkpt lat="48.10927" lon="-1.68403">
        <ele>31</ele>
        <time>2022-05-21T10:58:27Z</time>
      </trkpt>
      <trkpt lat="48.10907" lon="-1.68404">
        <ele>30</ele>
        <time>2022-05-21T10:58:31Z</time>
      </trkpt>
      <trkpt lat="48.10897" lon="-1.68408">
        <ele>30</ele>
        <time>2022-05-21T10:58:33Z</time>
      </trkpt>
      <trkpt lat="48.10885" lon="-1.6843">
        <ele>29</ele>
        <time>2022-05-21T10:58:36Z</time>
      </trkpt>
      <trkpt lat="48.10902" lon="-1.684">
        <ele>30</ele>
        <time>2022-05-21T10:58:41Z</time>
      </trkpt>
      <trkpt lat="48.10892" lon="-1.68404">
        <ele>30</ele>
        <time>2022-05-21T10:58:42Z</time>
      </trkpt>
      <trkpt lat="48.10883" lon="-1.68437">
        <ele>29</ele>
        <time>2022-05-21T10:58:47Z</time>
      </trkpt>
      <trkpt lat="48.10874" lon="-1.68444">
        <ele>29</ele>
        <time>2022-05-21T10:58:48Z</time>
      </trkpt>
      <trkpt lat="48.10866" lon="-1.68433">
        <ele>29</ele>
        <time>2022-05-21T10:58:50Z</time>
      </trkpt>
      <trkpt lat="48.10856" lon="-1.68409">
        <ele>29</ele>
        <time>2022-05-21T10:58:54Z</time>
      </trkpt>
      <trkpt lat="48.10855" lon="-1.68366">
        <ele>30</ele>
        <time>2022-05-21T10:58:59Z</time>
      </trkpt>
      <trkpt lat="48.10825" lon="-1.68327">
        <ele>31</ele>
        <time>2022-05-21T10:59:06Z</time>
      </trkpt>
      <trkpt lat="48.1081" lon="-1.68292">
        <ele>31</ele>
        <time>2022-05-21T10:59:11Z</time>
      </trkpt>
      <trkpt lat="48.1082" lon="-1.68295">
        <ele>31</ele>
        <time>2022-05-21T10:59:13Z</time>
      </trkpt>
      <trkpt lat="48.10812" lon="-1.68285">
        <ele>31</ele>
        <time>2022-05-21T10:59:15Z</time>
      </trkpt>
      <trkpt lat="48.10819" lon="-1.68294">
        <ele>31</ele>
        <time>2022-05-21T10:59:16Z</time>
      </trkpt>
      <trkpt lat="48.10818" lon="-1.68323">
        <ele>31</ele>
        <time>2022-05-21T10:59:20Z</time>
      </trkpt>
      <trkpt lat="48.10808" lon="-1.68315">
        <ele>31</ele>
        <time>2022-05-21T10:59:22Z</time>
      </trkpt>
      <trkpt lat="48.10779" lon="-1.6832">
        <ele>30</ele>
        <time>2022-05-21T10:59:27Z</time>
      </trkpt>
      <trkpt lat="48.1076" lon="-1.68329">
        <ele>29</ele>
        <time>2022-05-21T10:59:30Z</time>
      </trkpt>
      <trkpt lat="48.10744" lon="-1.68346">
        <ele>29</ele>
        <time>2022-05-21T10:59:34Z</time>
      </trkpt>
      <trkpt lat="48.10733" lon="-1.68369">
        <ele>29</ele>
        <time>2022-05-21T10:59:37Z</time>
      </trkpt>
      <trkpt lat="48.10707" lon="-1.68385">
        <ele>29</ele>
        <time>2022-05-21T10:59:42Z</time>
      </trkpt>
      <trkpt lat="48.10739" lon="-1.68366">
        <ele>29</ele>
        <time>2022-05-21T10:59:48Z</time>
      </trkpt>
      <trkpt lat="48.10747" lon="-1.68354">
        <ele>29</ele>
        <time>2022-05-21T10:59:50Z</time>
      </trkpt>
      <trkpt lat="48.10757" lon="-1.68345">
        <ele>29</ele>
        <time>2022-05-21T10:59:52Z</time>
      </trkpt>
      <trkpt lat="48.10776" lon="-1.68337">
        <ele>30</ele>
        <time>2022-05-21T10:59:56Z</time>
      </trkpt>
      <trkpt lat="48.10784" lon="-1.68329">
        <ele>30</ele>
        <time>2022-05-21T10:59:58Z</time>
      </trkpt>
      <trkpt lat="48.10796" lon="-1.68308">
        <ele>30</ele>
        <time>2022-05-21T11:00:01Z</time>
      </trkpt>
      <trkpt lat="48.10805" lon="-1.68304">
        <ele>31</ele>
        <time>2022-05-21T11:00:03Z</time>
      </trkpt>
      <trkpt lat="48.10825" lon="-1.68287">
        <ele>31</ele>
        <time>2022-05-21T11:00:07Z</time>
      </trkpt>
      <trkpt lat="48.10814" lon="-1.6831">
        <ele>31</ele>
        <time>2022-05-21T11:00:10Z</time>
      </trkpt>
      <trkpt lat="48.10764" lon="-1.68344">
        <ele>29</ele>
        <time>2022-05-21T11:00:20Z</time>
      </trkpt>
      <trkpt lat="48.10735" lon="-1.68373">
        <ele>29</ele>
        <time>2022-05-21T11:00:26Z</time>
      </trkpt>
      <trkpt lat="48.10724" lon="-1.68378">
        <ele>29</ele>
        <time>2022-05-21T11:00:28Z</time>
      </trkpt>
      <trkpt lat="48.10699" lon="-1.68402">
        <ele>29</ele>
        <time>2022-05-21T11:00:33Z</time>
      </trkpt>
      <trkpt lat="48.10689" lon="-1.68408">
        <ele>29</ele>
        <time>2022-05-21T11:00:35Z</time>
      </trkpt>
      <trkpt lat="48.10674" lon="-1.68428">
        <ele>29</ele>
        <time>2022-05-21T11:00:39Z</time>
      </trkpt>
      <trkpt lat="48.10665" lon="-1.68423">
        <ele>29</ele>
        <time>2022-05-21T11:00:41Z</time>
      </trkpt>
      <trkpt lat="48.10636" lon="-1.68431">
        <ele>28</ele>
        <time>2022-05-21T11:00:46Z</time>
      </trkpt>
      <trkpt lat="48.10615" lon="-1.68429">
        <ele>28</ele>
        <time>2022-05-21T11:00:50Z</time>
      </trkpt>
      <trkpt lat="48.10592" lon="-1.68431">
        <ele>27</ele>
        <time>2022-05-21T11:00:54Z</time>
      </trkpt>
      <trkpt lat="48.10582" lon="-1.68429">
        <ele>27</ele>
        <time>2022-05-21T11:00:55Z</time>
      </trkpt>
      <trkpt lat="48.10573" lon="-1.68424">
        <ele>28</ele>
        <time>2022-05-21T11:00:57Z</time>
      </trkpt>
      <trkpt lat="48.10565" lon="-1.68413">
        <ele>29</ele>
        <time>2022-05-21T11:00:59Z</time>
      </trkpt>
      <trkpt lat="48.10574" lon="-1.6834">
        <ele>31</ele>
        <time>2022-05-21T11:01:08Z</time>
      </trkpt>
      <trkpt lat="48.10575" lon="-1.68279">
        <ele>35</ele>
        <time>2022-05-21T11:01:15Z</time>
      </trkpt>
      <trkpt lat="48.10589" lon="-1.68223">
        <ele>35</ele>
        <time>2022-05-21T11:01:22Z</time>
      </trkpt>
      <trkpt lat="48.10592" lon="-1.68174">
        <ele>33</ele>
        <time>2022-05-21T11:01:28Z</time>
      </trkpt>
      <trkpt lat="48.10602" lon="-1.68146">
        <ele>32</ele>
        <time>2022-05-21T11:01:32Z</time>
      </trkpt>
      <trkpt lat="48.1061" lon="-1.68135">
        <ele>32</ele>
        <time>2022-05-21T11:01:34Z</time>
      </trkpt>
      <trkpt lat="48.10614" lon="-1.68122">
        <ele>31</ele>
        <time>2022-05-21T11:01:36Z</time>
      </trkpt>
      <trkpt lat="48.10605" lon="-1.68124">
        <ele>32</ele>
        <time>2022-05-21T11:01:37Z</time>
      </trkpt>
      <trkpt lat="48.10599" lon="-1.68135">
        <ele>32</ele>
        <time>2022-05-21T11:01:39Z</time>
      </trkpt>
      <trkpt lat="48.10598" lon="-1.68164">
        <ele>32</ele>
        <time>2022-05-21T11:01:42Z</time>
      </trkpt>
      <trkpt lat="48.10602" lon="-1.68179">
        <ele>32</ele>
        <time>2022-05-21T11:01:44Z</time>
      </trkpt>
      <trkpt lat="48.1061" lon="-1.68186">
        <ele>32</ele>
        <time>2022-05-21T11:01:46Z</time>
      </trkpt>
      <trkpt lat="48.1062" lon="-1.68188">
        <ele>31</ele>
        <time>2022-05-21T11:01:48Z</time>
      </trkpt>
      <trkpt lat="48.10613" lon="-1.68197">
        <ele>32</ele>
        <time>2022-05-21T11:01:49Z</time>
      </trkpt>
      <trkpt lat="48.10611" lon="-1.68184">
        <ele>32</ele>
        <time>2022-05-21T11:01:51Z</time>
      </trkpt>
      <trkpt lat="48.10601" lon="-1.68186">
        <ele>33</ele>
        <time>2022-05-21T11:01:53Z</time>
      </trkpt>
      <trkpt lat="48.10593" lon="-1.68192">
        <ele>33</ele>
        <time>2022-05-21T11:01:54Z</time>
      </trkpt>
      <trkpt lat="48.10602" lon="-1.68193">
        <ele>33</ele>
        <time>2022-05-21T11:01:56Z</time>
      </trkpt>
      <trkpt lat="48.10611" lon="-1.68187">
        <ele>32</ele>
        <time>2022-05-21T11:01:58Z</time>
      </trkpt>
      <trkpt lat="48.10603" lon="-1.68179">
        <ele>32</ele>
        <time>2022-05-21T11:01:59Z</time>
      </trkpt>
      <trkpt lat="48.10605" lon="-1.68193">
        <ele>33</ele>
        <time>2022-05-21T11:02:01Z</time>
      </trkpt>
      <trkpt lat="48.10598" lon="-1.68182">
        <ele>33</ele>
        <time>2022-05-21T11:02:03Z</time>
      </trkpt>
      <trkpt lat="48.10608" lon="-1.68181">
        <ele>32</ele>
        <time>2022-05-21T11:02:05Z</time>
      </trkpt>
      <trkpt lat="48.1061" lon="-1.68153">
        <ele>31</ele>
        <time>2022-05-21T11:02:08Z</time>
      </trkpt>
      <trkpt lat="48.10619" lon="-1.68127">
        <ele>31</ele>
        <time>2022-05-21T11:02:11Z</time>
      </trkpt>
      <trkpt lat="48.10623" lon="-1.68099">
        <ele>31</ele>
        <time>2022-05-21T11:02:15Z</time>
      </trkpt>
      <trkpt lat="48.10605" lon="-1.68086">
        <ele>32</ele>
        <time>2022-05-21T11:02:18Z</time>
      </trkpt>
      <trkpt lat="48.10596" lon="-1.68086">
        <ele>32</ele>
        <time>2022-05-21T11:02:20Z</time>
      </trkpt>
      <trkpt lat="48.10559" lon="-1.68107">
        <ele>37</ele>
        <time>2022-05-21T11:02:27Z</time>
      </trkpt>
      <trkpt lat="48.10593" lon="-1.6811">
        <ele>32</ele>
        <time>2022-05-21T11:02:33Z</time>
      </trkpt>
      <trkpt lat="48.10606" lon="-1.68129">
        <ele>32</ele>
        <time>2022-05-21T11:02:36Z</time>
      </trkpt>
      <trkpt lat="48.10613" lon="-1.68155">
        <ele>31</ele>
        <time>2022-05-21T11:02:40Z</time>
      </trkpt>
      <trkpt lat="48.10624" lon="-1.6818">
        <ele>31</ele>
        <time>2022-05-21T11:02:43Z</time>
      </trkpt>
      <trkpt lat="48.10625" lon="-1.68194">
        <ele>31</ele>
        <time>2022-05-21T11:02:45Z</time>
      </trkpt>
      <trkpt lat="48.1062" lon="-1.68182">
        <ele>31</ele>
        <time>2022-05-21T11:02:47Z</time>
      </trkpt>
      <trkpt lat="48.10629" lon="-1.68186">
        <ele>31</ele>
        <time>2022-05-21T11:02:48Z</time>
      </trkpt>
      <trkpt lat="48.10608" lon="-1.68187">
        <ele>32</ele>
        <time>2022-05-21T11:02:52Z</time>
      </trkpt>
      <trkpt lat="48.10617" lon="-1.68186">
        <ele>32</ele>
        <time>2022-05-21T11:02:54Z</time>
      </trkpt>
      <trkpt lat="48.10584" lon="-1.68179">
        <ele>33</ele>
        <time>2022-05-21T11:03:00Z</time>
      </trkpt>
      <trkpt lat="48.10594" lon="-1.68164">
        <ele>32</ele>
        <time>2022-05-21T11:03:02Z</time>
      </trkpt>
      <trkpt lat="48.106" lon="-1.6815">
        <ele>32</ele>
        <time>2022-05-21T11:03:04Z</time>
      </trkpt>
      <trkpt lat="48.10602" lon="-1.68134">
        <ele>32</ele>
        <time>2022-05-21T11:03:06Z</time>
      </trkpt>
      <trkpt lat="48.10615" lon="-1.6809">
        <ele>31</ele>
        <time>2022-05-21T11:03:12Z</time>
      </trkpt>
      <trkpt lat="48.10634" lon="-1.68082">
        <ele>31</ele>
        <time>2022-05-21T11:03:15Z</time>
      </trkpt>
      <trkpt lat="48.10646" lon="-1.68082">
        <ele>30</ele>
        <time>2022-05-21T11:03:17Z</time>
      </trkpt>
      <trkpt lat="48.10655" lon="-1.68077">
        <ele>30</ele>
        <time>2022-05-21T11:03:19Z</time>
      </trkpt>
      <trkpt lat="48.10689" lon="-1.68075">
        <ele>30</ele>
        <time>2022-05-21T11:03:25Z</time>
      </trkpt>
      <trkpt lat="48.10708" lon="-1.68064">
        <ele>30</ele>
        <time>2022-05-21T11:03:29Z</time>
      </trkpt>
      <trkpt lat="48.10719" lon="-1.68061">
        <ele>31</ele>
        <time>2022-05-21T11:03:31Z</time>
      </trkpt>
      <trkpt lat="48.10735" lon="-1.68046">
        <ele>31</ele>
        <time>2022-05-21T11:03:34Z</time>
      </trkpt>
      <trkpt lat="48.10745" lon="-1.68042">
        <ele>31</ele>
        <time>2022-05-21T11:03:36Z</time>
      </trkpt>
      <trkpt lat="48.108" lon="-1.68025">
        <ele>31</ele>
        <time>2022-05-21T11:03:46Z</time>
      </trkpt>
      <trkpt lat="48.1081" lon="-1.68027">
        <ele>31</ele>
        <time>2022-05-21T11:03:48Z</time>
      </trkpt>
      <trkpt lat="48.10822" lon="-1.68006">
        <ele>31</ele>
        <time>2022-05-21T11:03:51Z</time>
      </trkpt>
      <trkpt lat="48.1083" lon="-1.68012">
        <ele>31</ele>
        <time>2022-05-21T11:03:53Z</time>
      </trkpt>
      <trkpt lat="48.1082" lon="-1.68002">
        <ele>31</ele>
        <time>2022-05-21T11:03:55Z</time>
      </trkpt>
      <trkpt lat="48.10821" lon="-1.67987">
        <ele>31</ele>
        <time>2022-05-21T11:03:57Z</time>
      </trkpt>
      <trkpt lat="48.10818" lon="-1.67972">
        <ele>31</ele>
        <time>2022-05-21T11:03:58Z</time>
      </trkpt>
      <trkpt lat="48.10826" lon="-1.67965">
        <ele>31</ele>
        <time>2022-05-21T11:04:00Z</time>
      </trkpt>
      <trkpt lat="48.10827" lon="-1.67979">
        <ele>31</ele>
        <time>2022-05-21T11:04:02Z</time>
      </trkpt>
      <trkpt lat="48.10835" lon="-1.67984">
        <ele>31</ele>
        <time>2022-05-21T11:04:03Z</time>
      </trkpt>
      <trkpt lat="48.10831" lon="-1.67964">
        <ele>31</ele>
        <time>2022-05-21T11:04:06Z</time>
      </trkpt>
      <trkpt lat="48.10831" lon="-1.67984">
        <ele>31</ele>
        <time>2022-05-21T11:04:08Z</time>
      </trkpt>
      <trkpt lat="48.10836" lon="-1.67972">
        <ele>31</ele>
        <time>2022-05-21T11:04:10Z</time>
      </trkpt>
      <trkpt lat="48.10833" lon="-1.67928">
        <ele>31</ele>
        <time>2022-05-21T11:04:15Z</time>
      </trkpt>
      <trkpt lat="48.10807" lon="-1.67912">
        <ele>31</ele>
        <time>2022-05-21T11:04:20Z</time>
      </trkpt>
      <trkpt lat="48.10798" lon="-1.67911">
        <ele>31</ele>
        <time>2022-05-21T11:04:22Z</time>
      </trkpt>
      <trkpt lat="48.10818" lon="-1.67912">
        <ele>31</ele>
        <time>2022-05-21T11:04:25Z</time>
      </trkpt>
      <trkpt lat="48.10828" lon="-1.67915">
        <ele>31</ele>
        <time>2022-05-21T11:04:27Z</time>
      </trkpt>
      <trkpt lat="48.10838" lon="-1.67912">
        <ele>31</ele>
        <time>2022-05-21T11:04:29Z</time>
      </trkpt>
      <trkpt lat="48.10849" lon="-1.67914">
        <ele>32</ele>
        <time>2022-05-21T11:04:31Z</time>
      </trkpt>
      <trkpt lat="48.10857" lon="-1.67922">
        <ele>32</ele>
        <time>2022-05-21T11:04:33Z</time>
      </trkpt>
      <trkpt lat="48.10877" lon="-1.67932">
        <ele>33</ele>
        <time>2022-05-21T11:04:36Z</time>
      </trkpt>
      <trkpt lat="48.10918" lon="-1.67945">
        <ele>35</ele>
        <time>2022-05-21T11:04:44Z</time>
      </trkpt>
      <trkpt lat="48.10934" lon="-1.67925">
        <ele>35</ele>
        <time>2022-05-21T11:04:47Z</time>
      </trkpt>
      <trkpt lat="48.10943" lon="-1.67899">
        <ele>35</ele>
        <time>2022-05-21T11:04:51Z</time>
      </trkpt>
      <trkpt lat="48.10949" lon="-1.6782">
        <ele>34</ele>
        <time>2022-05-21T11:05:00Z</time>
      </trkpt>
      <trkpt lat="48.10944" lon="-1.67808">
        <ele>34</ele>
        <time>2022-05-21T11:05:02Z</time>
      </trkpt>
      <trkpt lat="48.10959" lon="-1.67797">
        <ele>34</ele>
        <time>2022-05-21T11:05:05Z</time>
      </trkpt>
      <trkpt lat="48.10969" lon="-1.67797">
        <ele>34</ele>
        <time>2022-05-21T11:05:07Z</time>
      </trkpt>
      <trkpt lat="48.10979" lon="-1.67791">
        <ele>34</ele>
        <time>2022-05-21T11:05:09Z</time>
      </trkpt>
      <trkpt lat="48.10993" lon="-1.67731">
        <ele>34</ele>
        <time>2022-05-21T11:05:16Z</time>
      </trkpt>
      <trkpt lat="48.10997" lon="-1.67657">
        <ele>35</ele>
        <time>2022-05-21T11:05:25Z</time>
      </trkpt>
      <trkpt lat="48.10992" lon="-1.67611">
        <ele>34</ele>
        <time>2022-05-21T11:05:31Z</time>
      </trkpt>
      <trkpt lat="48.10996" lon="-1.67454">
        <ele>32</ele>
        <time>2022-05-21T11:05:49Z</time>
      </trkpt>
      <trkpt lat="48.10994" lon="-1.67439">
        <ele>31</ele>
        <time>2022-05-21T11:05:51Z</time>
      </trkpt>
      <trkpt lat="48.10997" lon="-1.67425">
        <ele>30</ele>
        <time>2022-05-21T11:05:53Z</time>
      </trkpt>
      <trkpt lat="48.11006" lon="-1.67424">
        <ele>30</ele>
        <time>2022-05-21T11:05:54Z</time>
      </trkpt>
      <trkpt lat="48.11014" lon="-1.6743">
        <ele>30</ele>
        <time>2022-05-21T11:05:56Z</time>
      </trkpt>
      <trkpt lat="48.11024" lon="-1.67432">
        <ele>31</ele>
        <time>2022-05-21T11:05:58Z</time>
      </trkpt>
      <trkpt lat="48.11043" lon="-1.67424">
        <ele>30</ele>
        <time>2022-05-21T11:06:01Z</time>
      </trkpt>
      <trkpt lat="48.11053" lon="-1.67423">
        <ele>31</ele>
        <time>2022-05-21T11:06:03Z</time>
      </trkpt>
      <trkpt lat="48.11062" lon="-1.67426">
        <ele>31</ele>
        <time>2022-05-21T11:06:05Z</time>
      </trkpt>
      <trkpt lat="48.11107" lon="-1.67466">
        <ele>35</ele>
        <time>2022-05-21T11:06:14Z</time>
      </trkpt>
      <trkpt lat="48.11134" lon="-1.67481">
        <ele>37</ele>
        <time>2022-05-21T11:06:19Z</time>
      </trkpt>
      <trkpt lat="48.11152" lon="-1.67494">
        <ele>38</ele>
        <time>2022-05-21T11:06:23Z</time>
      </trkpt>
      <trkpt lat="48.11172" lon="-1.67502">
        <ele>39</ele>
        <time>2022-05-21T11:06:26Z</time>
      </trkpt>
      <trkpt lat="48.11191" lon="-1.67516">
        <ele>41</ele>
        <time>2022-05-21T11:06:30Z</time>
      </trkpt>
      <trkpt lat="48.1122" lon="-1.6752">
        <ele>43</ele>
        <time>2022-05-21T11:06:35Z</time>
      </trkpt>
      <trkpt lat="48.11257" lon="-1.67536">
        <ele>46</ele>
        <time>2022-05-21T11:06:42Z</time>
      </trkpt>
      <trkpt lat="48.11287" lon="-1.67544">
        <ele>47</ele>
        <time>2022-05-21T11:06:48Z</time>
      </trkpt>
      <trkpt lat="48.11355" lon="-1.67519">
        <ele>48</ele>
        <time>2022-05-21T11:07:00Z</time>
      </trkpt>
      <trkpt lat="48.11364" lon="-1.67513">
        <ele>48</ele>
        <time>2022-05-21T11:07:02Z</time>
      </trkpt>
      <trkpt lat="48.11387" lon="-1.6751">
        <ele>48</ele>
        <time>2022-05-21T11:07:06Z</time>
      </trkpt>
      <trkpt lat="48.11406" lon="-1.67498">
        <ele>49</ele>
        <time>2022-05-21T11:07:10Z</time>
      </trkpt>
      <trkpt lat="48.11424" lon="-1.67483">
        <ele>50</ele>
        <time>2022-05-21T11:07:13Z</time>
      </trkpt>
      <trkpt lat="48.11442" lon="-1.67473">
        <ele>51</ele>
        <time>2022-05-21T11:07:17Z</time>
      </trkpt>
      <trkpt lat="48.1146" lon="-1.67458">
        <ele>52</ele>
        <time>2022-05-21T11:07:20Z</time>
      </trkpt>
      <trkpt lat="48.11466" lon="-1.67446">
        <ele>52</ele>
        <time>2022-05-21T11:07:22Z</time>
      </trkpt>
      <trkpt lat="48.11465" lon="-1.67413">
        <ele>53</ele>
        <time>2022-05-21T11:07:26Z</time>
      </trkpt>
      <trkpt lat="48.11463" lon="-1.67397">
        <ele>53</ele>
        <time>2022-05-21T11:07:28Z</time>
      </trkpt>
      <trkpt lat="48.11455" lon="-1.67387">
        <ele>53</ele>
        <time>2022-05-21T11:07:30Z</time>
      </trkpt>
      <trkpt lat="48.11451" lon="-1.67409">
        <ele>53</ele>
        <time>2022-05-21T11:07:33Z</time>
      </trkpt>
      <trkpt lat="48.11454" lon="-1.67441">
        <ele>52</ele>
        <time>2022-05-21T11:07:36Z</time>
      </trkpt>
      <trkpt lat="48.11463" lon="-1.67439">
        <ele>52</ele>
        <time>2022-05-21T11:07:38Z</time>
      </trkpt>
      <trkpt lat="48.11481" lon="-1.67441">
        <ele>52</ele>
        <time>2022-05-21T11:07:41Z</time>
      </trkpt>
      <trkpt lat="48.1152" lon="-1.6744">
        <ele>53</ele>
        <time>2022-05-21T11:07:48Z</time>
      </trkpt>
      <trkpt lat="48.11554" lon="-1.67432">
        <ele>53</ele>
        <time>2022-05-21T11:07:54Z</time>
      </trkpt>
      <trkpt lat="48.11587" lon="-1.6743">
        <ele>54</ele>
        <time>2022-05-21T11:08:00Z</time>
      </trkpt>
      <trkpt lat="48.11608" lon="-1.67424">
        <ele>54</ele>
        <time>2022-05-21T11:08:04Z</time>
      </trkpt>
      <trkpt lat="48.11627" lon="-1.67425">
        <ele>54</ele>
        <time>2022-05-21T11:08:07Z</time>
      </trkpt>
      <trkpt lat="48.11645" lon="-1.67415">
        <ele>55</ele>
        <time>2022-05-21T11:08:11Z</time>
      </trkpt>
      <trkpt lat="48.11664" lon="-1.67419">
        <ele>55</ele>
        <time>2022-05-21T11:08:14Z</time>
      </trkpt>
      <trkpt lat="48.11696" lon="-1.67418">
        <ele>53</ele>
        <time>2022-05-21T11:08:20Z</time>
      </trkpt>
      <trkpt lat="48.11722" lon="-1.6741">
        <ele>52</ele>
        <time>2022-05-21T11:08:25Z</time>
      </trkpt>
      <trkpt lat="48.11734" lon="-1.67403">
        <ele>51</ele>
        <time>2022-05-21T11:08:27Z</time>
      </trkpt>
      <trkpt lat="48.11741" lon="-1.67392">
        <ele>51</ele>
        <time>2022-05-21T11:08:29Z</time>
      </trkpt>
      <trkpt lat="48.11751" lon="-1.67382">
        <ele>51</ele>
        <time>2022-05-21T11:08:31Z</time>
      </trkpt>
      <trkpt lat="48.11762" lon="-1.67376">
        <ele>50</ele>
        <time>2022-05-21T11:08:33Z</time>
      </trkpt>
      <trkpt lat="48.11772" lon="-1.67365">
        <ele>50</ele>
        <time>2022-05-21T11:08:35Z</time>
      </trkpt>
      <trkpt lat="48.11797" lon="-1.67333">
        <ele>49</ele>
        <time>2022-05-21T11:08:41Z</time>
      </trkpt>
      <trkpt lat="48.11822" lon="-1.67241">
        <ele>48</ele>
        <time>2022-05-21T11:08:53Z</time>
      </trkpt>
      <trkpt lat="48.11821" lon="-1.67209">
        <ele>49</ele>
        <time>2022-05-21T11:08:57Z</time>
      </trkpt>
      <trkpt lat="48.11827" lon="-1.67122">
        <ele>49</ele>
        <time>2022-05-21T11:09:07Z</time>
      </trkpt>
      <trkpt lat="48.11834" lon="-1.6707">
        <ele>49</ele>
        <time>2022-05-21T11:09:13Z</time>
      </trkpt>
      <trkpt lat="48.1184" lon="-1.66957">
        <ele>51</ele>
        <time>2022-05-21T11:09:27Z</time>
      </trkpt>
      <trkpt lat="48.11846" lon="-1.66926">
        <ele>52</ele>
        <time>2022-05-21T11:09:31Z</time>
      </trkpt>
      <trkpt lat="48.1186" lon="-1.66885">
        <ele>52</ele>
        <time>2022-05-21T11:09:36Z</time>
      </trkpt>
      <trkpt lat="48.11867" lon="-1.66874">
        <ele>52</ele>
        <time>2022-05-21T11:09:38Z</time>
      </trkpt>
      <trkpt lat="48.1189" lon="-1.66822">
        <ele>52</ele>
        <time>2022-05-21T11:09:45Z</time>
      </trkpt>
      <trkpt lat="48.11915" lon="-1.66784">
        <ele>51</ele>
        <time>2022-05-21T11:09:52Z</time>
      </trkpt>
      <trkpt lat="48.11926" lon="-1.66756">
        <ele>51</ele>
        <time>2022-05-21T11:09:55Z</time>
      </trkpt>
      <trkpt lat="48.11941" lon="-1.66728">
        <ele>51</ele>
        <time>2022-05-21T11:10:00Z</time>
      </trkpt>
      <trkpt lat="48.11943" lon="-1.66715">
        <ele>51</ele>
        <time>2022-05-21T11:10:01Z</time>
      </trkpt>
      <trkpt lat="48.1195" lon="-1.66707">
        <ele>50</ele>
        <time>2022-05-21T11:10:03Z</time>
      </trkpt>
      <trkpt lat="48.1199" lon="-1.66635">
        <ele>51</ele>
        <time>2022-05-21T11:10:14Z</time>
      </trkpt>
      <trkpt lat="48.12001" lon="-1.6661">
        <ele>52</ele>
        <time>2022-05-21T11:10:18Z</time>
      </trkpt>
      <trkpt lat="48.12016" lon="-1.66589">
        <ele>52</ele>
        <time>2022-05-21T11:10:21Z</time>
      </trkpt>
      <trkpt lat="48.12033" lon="-1.66548">
        <ele>51</ele>
        <time>2022-05-21T11:10:27Z</time>
      </trkpt>
      <trkpt lat="48.12058" lon="-1.6651">
        <ele>49</ele>
        <time>2022-05-21T11:10:33Z</time>
      </trkpt>
      <trkpt lat="48.12092" lon="-1.66449">
        <ele>47</ele>
        <time>2022-05-21T11:10:43Z</time>
      </trkpt>
      <trkpt lat="48.12114" lon="-1.66422">
        <ele>46</ele>
        <time>2022-05-21T11:10:48Z</time>
      </trkpt>
      <trkpt lat="48.1213" lon="-1.66395">
        <ele>45</ele>
        <time>2022-05-21T11:10:52Z</time>
      </trkpt>
      <trkpt lat="48.12174" lon="-1.66302">
        <ele>46</ele>
        <time>2022-05-21T11:11:06Z</time>
      </trkpt>
      <trkpt lat="48.12181" lon="-1.66292">
        <ele>46</ele>
        <time>2022-05-21T11:11:07Z</time>
      </trkpt>
      <trkpt lat="48.1221" lon="-1.66222">
        <ele>47</ele>
        <time>2022-05-21T11:11:17Z</time>
      </trkpt>
      <trkpt lat="48.12221" lon="-1.662">
        <ele>48</ele>
        <time>2022-05-21T11:11:20Z</time>
      </trkpt>
      <trkpt lat="48.12249" lon="-1.66156">
        <ele>51</ele>
        <time>2022-05-21T11:11:28Z</time>
      </trkpt>
      <trkpt lat="48.1226" lon="-1.6613">
        <ele>52</ele>
        <time>2022-05-21T11:11:31Z</time>
      </trkpt>
      <trkpt lat="48.12273" lon="-1.6611">
        <ele>52</ele>
        <time>2022-05-21T11:11:35Z</time>
      </trkpt>
      <trkpt lat="48.12283" lon="-1.66084">
        <ele>52</ele>
        <time>2022-05-21T11:11:38Z</time>
      </trkpt>
      <trkpt lat="48.12302" lon="-1.66048">
        <ele>54</ele>
        <time>2022-05-21T11:11:44Z</time>
      </trkpt>
      <trkpt lat="48.12333" lon="-1.6601">
        <ele>56</ele>
        <time>2022-05-21T11:11:51Z</time>
      </trkpt>
      <trkpt lat="48.12369" lon="-1.65953">
        <ele>58</ele>
        <time>2022-05-21T11:12:00Z</time>
      </trkpt>
      <trkpt lat="48.12395" lon="-1.65925">
        <ele>59</ele>
        <time>2022-05-21T11:12:06Z</time>
      </trkpt>
      <trkpt lat="48.12433" lon="-1.65877">
        <ele>60</ele>
        <time>2022-05-21T11:12:15Z</time>
      </trkpt>
      <trkpt lat="48.12438" lon="-1.65862">
        <ele>60</ele>
        <time>2022-05-21T11:12:17Z</time>
      </trkpt>
      <trkpt lat="48.12454" lon="-1.65832">
        <ele>60</ele>
        <time>2022-05-21T11:12:21Z</time>
      </trkpt>
      <trkpt lat="48.12474" lon="-1.65771">
        <ele>61</ele>
        <time>2022-05-21T11:12:29Z</time>
      </trkpt>
      <trkpt lat="48.12492" lon="-1.65748">
        <ele>62</ele>
        <time>2022-05-21T11:12:33Z</time>
      </trkpt>
      <trkpt lat="48.12514" lon="-1.65707">
        <ele>61</ele>
        <time>2022-05-21T11:12:40Z</time>
      </trkpt>
      <trkpt lat="48.12524" lon="-1.65677">
        <ele>60</ele>
        <time>2022-05-21T11:12:44Z</time>
      </trkpt>
      <trkpt lat="48.12525" lon="-1.65658">
        <ele>60</ele>
        <time>2022-05-21T11:12:46Z</time>
      </trkpt>
      <trkpt lat="48.12536" lon="-1.65626">
        <ele>60</ele>
        <time>2022-05-21T11:12:50Z</time>
      </trkpt>
      <trkpt lat="48.12558" lon="-1.65576">
        <ele>59</ele>
        <time>2022-05-21T11:12:57Z</time>
      </trkpt>
      <trkpt lat="48.12576" lon="-1.65538">
        <ele>58</ele>
        <time>2022-05-21T11:13:03Z</time>
      </trkpt>
      <trkpt lat="48.12584" lon="-1.65526">
        <ele>58</ele>
        <time>2022-05-21T11:13:05Z</time>
      </trkpt>
      <trkpt lat="48.12601" lon="-1.65486">
        <ele>57</ele>
        <time>2022-05-21T11:13:10Z</time>
      </trkpt>
      <trkpt lat="48.1266" lon="-1.65378">
        <ele>55</ele>
        <time>2022-05-21T11:13:27Z</time>
      </trkpt>
      <trkpt lat="48.12667" lon="-1.6536">
        <ele>55</ele>
        <time>2022-05-21T11:13:30Z</time>
      </trkpt>
      <trkpt lat="48.12694" lon="-1.65306">
        <ele>54</ele>
        <time>2022-05-21T11:13:38Z</time>
      </trkpt>
      <trkpt lat="48.12714" lon="-1.65272">
        <ele>54</ele>
        <time>2022-05-21T11:13:43Z</time>
      </trkpt>
      <trkpt lat="48.12726" lon="-1.65244">
        <ele>54</ele>
        <time>2022-05-21T11:13:47Z</time>
      </trkpt>
      <trkpt lat="48.12722" lon="-1.65231">
        <ele>54</ele>
        <time>2022-05-21T11:13:49Z</time>
      </trkpt>
      <trkpt lat="48.12715" lon="-1.65219">
        <ele>54</ele>
        <time>2022-05-21T11:13:50Z</time>
      </trkpt>
      <trkpt lat="48.12712" lon="-1.65203">
        <ele>53</ele>
        <time>2022-05-21T11:13:52Z</time>
      </trkpt>
      <trkpt lat="48.12711" lon="-1.65187">
        <ele>53</ele>
        <time>2022-05-21T11:13:54Z</time>
      </trkpt>
      <trkpt lat="48.1272" lon="-1.65155">
        <ele>53</ele>
        <time>2022-05-21T11:13:58Z</time>
      </trkpt>
      <trkpt lat="48.12727" lon="-1.65142">
        <ele>53</ele>
        <time>2022-05-21T11:14:00Z</time>
      </trkpt>
      <trkpt lat="48.12739" lon="-1.65135">
        <ele>53</ele>
        <time>2022-05-21T11:14:03Z</time>
      </trkpt>
      <trkpt lat="48.12749" lon="-1.65133">
        <ele>53</ele>
        <time>2022-05-21T11:14:05Z</time>
      </trkpt>
      <trkpt lat="48.12759" lon="-1.65125">
        <ele>53</ele>
        <time>2022-05-21T11:14:07Z</time>
      </trkpt>
      <trkpt lat="48.12761" lon="-1.65112">
        <ele>53</ele>
        <time>2022-05-21T11:14:08Z</time>
      </trkpt>
      <trkpt lat="48.12758" lon="-1.65127">
        <ele>53</ele>
        <time>2022-05-21T11:14:10Z</time>
      </trkpt>
      <trkpt lat="48.12766" lon="-1.65136">
        <ele>53</ele>
        <time>2022-05-21T11:14:12Z</time>
      </trkpt>
      <trkpt lat="48.12775" lon="-1.65127">
        <ele>53</ele>
        <time>2022-05-21T11:14:14Z</time>
      </trkpt>
      <trkpt lat="48.12785" lon="-1.6508">
        <ele>52</ele>
        <time>2022-05-21T11:14:20Z</time>
      </trkpt>
      <trkpt lat="48.12813" lon="-1.64903">
        <ele>56</ele>
        <time>2022-05-21T11:14:41Z</time>
      </trkpt>
      <trkpt lat="48.12891" lon="-1.64597">
        <ele>58</ele>
        <time>2022-05-21T11:15:20Z</time>
      </trkpt>
      <trkpt lat="48.12895" lon="-1.64583">
        <ele>58</ele>
        <time>2022-05-21T11:15:22Z</time>
      </trkpt>
      <trkpt lat="48.12912" lon="-1.64559">
        <ele>58</ele>
        <time>2022-05-21T11:15:26Z</time>
      </trkpt>
      <trkpt lat="48.12917" lon="-1.64545">
        <ele>58</ele>
        <time>2022-05-21T11:15:28Z</time>
      </trkpt>
      <trkpt lat="48.12937" lon="-1.64473">
        <ele>59</ele>
        <time>2022-05-21T11:15:37Z</time>
      </trkpt>
      <trkpt lat="48.12943" lon="-1.64441">
        <ele>59</ele>
        <time>2022-05-21T11:15:41Z</time>
      </trkpt>
      <trkpt lat="48.1295" lon="-1.64427">
        <ele>59</ele>
        <time>2022-05-21T11:15:43Z</time>
      </trkpt>
      <trkpt lat="48.12964" lon="-1.64377">
        <ele>59</ele>
        <time>2022-05-21T11:15:50Z</time>
      </trkpt>
      <trkpt lat="48.12985" lon="-1.64264">
        <ele>58</ele>
        <time>2022-05-21T11:16:04Z</time>
      </trkpt>
      <trkpt lat="48.13038" lon="-1.64091">
        <ele>56</ele>
        <time>2022-05-21T11:16:26Z</time>
      </trkpt>
      <trkpt lat="48.13043" lon="-1.6406">
        <ele>56</ele>
        <time>2022-05-21T11:16:30Z</time>
      </trkpt>
      <trkpt lat="48.13069" lon="-1.63969">
        <ele>56</ele>
        <time>2022-05-21T11:16:42Z</time>
      </trkpt>
      <trkpt lat="48.13102" lon="-1.63839">
        <ele>56</ele>
        <time>2022-05-21T11:16:58Z</time>
      </trkpt>
      <trkpt lat="48.1316" lon="-1.63663">
        <ele>54</ele>
        <time>2022-05-21T11:17:22Z</time>
      </trkpt>
      <trkpt lat="48.13184" lon="-1.63612">
        <ele>55</ele>
        <time>2022-05-21T11:17:29Z</time>
      </trkpt>
      <trkpt lat="48.13206" lon="-1.63556">
        <ele>57</ele>
        <time>2022-05-21T11:17:37Z</time>
      </trkpt>
      <trkpt lat="48.13215" lon="-1.63521">
        <ele>57</ele>
        <time>2022-05-21T11:17:41Z</time>
      </trkpt>
      <trkpt lat="48.13242" lon="-1.63445">
        <ele>56</ele>
        <time>2022-05-21T11:17:51Z</time>
      </trkpt>
      <trkpt lat="48.13275" lon="-1.63337">
        <ele>58</ele>
        <time>2022-05-21T11:18:05Z</time>
      </trkpt>
      <trkpt lat="48.13294" lon="-1.6326">
        <ele>55</ele>
        <time>2022-05-21T11:18:15Z</time>
      </trkpt>
      <trkpt lat="48.13317" lon="-1.63146">
        <ele>56</ele>
        <time>2022-05-21T11:18:29Z</time>
      </trkpt>
      <trkpt lat="48.13339" lon="-1.63064">
        <ele>58</ele>
        <time>2022-05-21T11:18:40Z</time>
      </trkpt>
      <trkpt lat="48.13371" lon="-1.62984">
        <ele>59</ele>
        <time>2022-05-21T11:18:51Z</time>
      </trkpt>
      <trkpt lat="48.13419" lon="-1.62897">
        <ele>59</ele>
        <time>2022-05-21T11:19:04Z</time>
      </trkpt>
      <trkpt lat="48.13414" lon="-1.62884">
        <ele>59</ele>
        <time>2022-05-21T11:19:06Z</time>
      </trkpt>
      <trkpt lat="48.13419" lon="-1.62871">
        <ele>60</ele>
        <time>2022-05-21T11:19:08Z</time>
      </trkpt>
      <trkpt lat="48.13434" lon="-1.6285">
        <ele>61</ele>
        <time>2022-05-21T11:19:12Z</time>
      </trkpt>
      <trkpt lat="48.13467" lon="-1.62775">
        <ele>63</ele>
        <time>2022-05-21T11:19:22Z</time>
      </trkpt>
      <trkpt lat="48.13488" lon="-1.6274">
        <ele>65</ele>
        <time>2022-05-21T11:19:28Z</time>
      </trkpt>
      <trkpt lat="48.13505" lon="-1.62703">
        <ele>66</ele>
        <time>2022-05-21T11:19:33Z</time>
      </trkpt>
      <trkpt lat="48.13556" lon="-1.62606">
        <ele>66</ele>
        <time>2022-05-21T11:19:48Z</time>
      </trkpt>
      <trkpt lat="48.13571" lon="-1.62565">
        <ele>66</ele>
        <time>2022-05-21T11:19:53Z</time>
      </trkpt>
      <trkpt lat="48.13598" lon="-1.62509">
        <ele>67</ele>
        <time>2022-05-21T11:20:02Z</time>
      </trkpt>
      <trkpt lat="48.13607" lon="-1.62479">
        <ele>67</ele>
        <time>2022-05-21T11:20:05Z</time>
      </trkpt>
      <trkpt lat="48.13608" lon="-1.62464">
        <ele>67</ele>
        <time>2022-05-21T11:20:07Z</time>
      </trkpt>
      <trkpt lat="48.13604" lon="-1.62433">
        <ele>67</ele>
        <time>2022-05-21T11:20:11Z</time>
      </trkpt>
      <trkpt lat="48.13619" lon="-1.62412">
        <ele>68</ele>
        <time>2022-05-21T11:20:15Z</time>
      </trkpt>
      <trkpt lat="48.13624" lon="-1.62381">
        <ele>69</ele>
        <time>2022-05-21T11:20:18Z</time>
      </trkpt>
      <trkpt lat="48.13632" lon="-1.62371">
        <ele>70</ele>
        <time>2022-05-21T11:20:20Z</time>
      </trkpt>
      <trkpt lat="48.13665" lon="-1.6236">
        <ele>72</ele>
        <time>2022-05-21T11:20:26Z</time>
      </trkpt>
      <trkpt lat="48.13675" lon="-1.62352">
        <ele>73</ele>
        <time>2022-05-21T11:20:28Z</time>
      </trkpt>
      <trkpt lat="48.13709" lon="-1.62281">
        <ele>76</ele>
        <time>2022-05-21T11:20:39Z</time>
      </trkpt>
      <trkpt lat="48.13764" lon="-1.62184">
        <ele>74</ele>
        <time>2022-05-21T11:20:54Z</time>
      </trkpt>
      <trkpt lat="48.13789" lon="-1.62126">
        <ele>70</ele>
        <time>2022-05-21T11:21:02Z</time>
      </trkpt>
      <trkpt lat="48.13822" lon="-1.62067">
        <ele>69</ele>
        <time>2022-05-21T11:21:11Z</time>
      </trkpt>
      <trkpt lat="48.13827" lon="-1.62054">
        <ele>69</ele>
        <time>2022-05-21T11:21:13Z</time>
      </trkpt>
      <trkpt lat="48.13834" lon="-1.62044">
        <ele>69</ele>
        <time>2022-05-21T11:21:15Z</time>
      </trkpt>
      <trkpt lat="48.13845" lon="-1.62035">
        <ele>69</ele>
        <time>2022-05-21T11:21:17Z</time>
      </trkpt>
      <trkpt lat="48.13854" lon="-1.62022">
        <ele>69</ele>
        <time>2022-05-21T11:21:19Z</time>
      </trkpt>
      <trkpt lat="48.13895" lon="-1.61952">
        <ele>67</ele>
        <time>2022-05-21T11:21:30Z</time>
      </trkpt>
      <trkpt lat="48.14046" lon="-1.61661">
        <ele>66</ele>
        <time>2022-05-21T11:22:14Z</time>
      </trkpt>
      <trkpt lat="48.14098" lon="-1.61568">
        <ele>67</ele>
        <time>2022-05-21T11:22:28Z</time>
      </trkpt>
      <trkpt lat="48.14143" lon="-1.61478">
        <ele>65</ele>
        <time>2022-05-21T11:22:42Z</time>
      </trkpt>
      <trkpt lat="48.14188" lon="-1.614">
        <ele>64</ele>
        <time>2022-05-21T11:22:54Z</time>
      </trkpt>
      <trkpt lat="48.14352" lon="-1.61088">
        <ele>70</ele>
        <time>2022-05-21T11:23:41Z</time>
      </trkpt>
      <trkpt lat="48.14492" lon="-1.6088">
        <ele>71</ele>
        <time>2022-05-21T11:24:16Z</time>
      </trkpt>
      <trkpt lat="48.14527" lon="-1.60832">
        <ele>71</ele>
        <time>2022-05-21T11:24:25Z</time>
      </trkpt>
      <trkpt lat="48.14657" lon="-1.60635">
        <ele>71</ele>
        <time>2022-05-21T11:24:58Z</time>
      </trkpt>
      <trkpt lat="48.14729" lon="-1.60534">
        <ele>69</ele>
        <time>2022-05-21T11:25:15Z</time>
      </trkpt>
      <trkpt lat="48.14831" lon="-1.6038">
        <ele>64</ele>
        <time>2022-05-21T11:25:41Z</time>
      </trkpt>
      <trkpt lat="48.14969" lon="-1.60187">
        <ele>63</ele>
        <time>2022-05-21T11:26:14Z</time>
      </trkpt>
      <trkpt lat="48.15058" lon="-1.60052">
        <ele>64</ele>
        <time>2022-05-21T11:26:37Z</time>
      </trkpt>
      <trkpt lat="48.15125" lon="-1.59958">
        <ele>62</ele>
        <time>2022-05-21T11:26:53Z</time>
      </trkpt>
      <trkpt lat="48.15178" lon="-1.59874">
        <ele>61</ele>
        <time>2022-05-21T11:27:07Z</time>
      </trkpt>
      <trkpt lat="48.15213" lon="-1.5983">
        <ele>62</ele>
        <time>2022-05-21T11:27:15Z</time>
      </trkpt>
      <trkpt lat="48.15257" lon="-1.59758">
        <ele>61</ele>
        <time>2022-05-21T11:27:27Z</time>
      </trkpt>
      <trkpt lat="48.15381" lon="-1.59578">
        <ele>64</ele>
        <time>2022-05-21T11:27:57Z</time>
      </trkpt>
      <trkpt lat="48.15425" lon="-1.59508">
        <ele>64</ele>
        <time>2022-05-21T11:28:09Z</time>
      </trkpt>
      <trkpt lat="48.15442" lon="-1.59487">
        <ele>65</ele>
        <time>2022-05-21T11:28:13Z</time>
      </trkpt>
      <trkpt lat="48.15444" lon="-1.59473">
        <ele>65</ele>
        <time>2022-05-21T11:28:14Z</time>
      </trkpt>
      <trkpt lat="48.15449" lon="-1.59462">
        <ele>65</ele>
        <time>2022-05-21T11:28:16Z</time>
      </trkpt>
      <trkpt lat="48.15467" lon="-1.59453">
        <ele>66</ele>
        <time>2022-05-21T11:28:19Z</time>
      </trkpt>
      <trkpt lat="48.15476" lon="-1.59445">
        <ele>67</ele>
        <time>2022-05-21T11:28:21Z</time>
      </trkpt>
      <trkpt lat="48.15515" lon="-1.59379">
        <ele>67</ele>
        <time>2022-05-21T11:28:32Z</time>
      </trkpt>
      <trkpt lat="48.15536" lon="-1.59348">
        <ele>67</ele>
        <time>2022-05-21T11:28:37Z</time>
      </trkpt>
      <trkpt lat="48.1556" lon="-1.59317">
        <ele>67</ele>
        <time>2022-05-21T11:28:43Z</time>
      </trkpt>
      <trkpt lat="48.15629" lon="-1.59217">
        <ele>69</ele>
        <time>2022-05-21T11:29:00Z</time>
      </trkpt>
      <trkpt lat="48.15655" lon="-1.59184">
        <ele>70</ele>
        <time>2022-05-21T11:29:06Z</time>
      </trkpt>
      <trkpt lat="48.15711" lon="-1.59097">
        <ele>73</ele>
        <time>2022-05-21T11:29:20Z</time>
      </trkpt>
      <trkpt lat="48.15783" lon="-1.58994">
        <ele>74</ele>
        <time>2022-05-21T11:29:38Z</time>
      </trkpt>
      <trkpt lat="48.15792" lon="-1.58985">
        <ele>74</ele>
        <time>2022-05-21T11:29:40Z</time>
      </trkpt>
      <trkpt lat="48.15895" lon="-1.58833">
        <ele>77</ele>
        <time>2022-05-21T11:30:05Z</time>
      </trkpt>
      <trkpt lat="48.15927" lon="-1.5879">
        <ele>79</ele>
        <time>2022-05-21T11:30:13Z</time>
      </trkpt>
      <trkpt lat="48.15943" lon="-1.58766">
        <ele>79</ele>
        <time>2022-05-21T11:30:17Z</time>
      </trkpt>
      <trkpt lat="48.15969" lon="-1.58715">
        <ele>80</ele>
        <time>2022-05-21T11:30:25Z</time>
      </trkpt>
      <trkpt lat="48.15984" lon="-1.58675">
        <ele>79</ele>
        <time>2022-05-21T11:30:30Z</time>
      </trkpt>
      <trkpt lat="48.15982" lon="-1.58661">
        <ele>79</ele>
        <time>2022-05-21T11:30:32Z</time>
      </trkpt>
      <trkpt lat="48.15973" lon="-1.58655">
        <ele>79</ele>
        <time>2022-05-21T11:30:34Z</time>
      </trkpt>
      <trkpt lat="48.16011" lon="-1.58541">
        <ele>79</ele>
        <time>2022-05-21T11:30:49Z</time>
      </trkpt>
      <trkpt lat="48.16014" lon="-1.58528">
        <ele>79</ele>
        <time>2022-05-21T11:30:50Z</time>
      </trkpt>
      <trkpt lat="48.16016" lon="-1.58496">
        <ele>79</ele>
        <time>2022-05-21T11:30:54Z</time>
      </trkpt>
      <trkpt lat="48.16033" lon="-1.58403">
        <ele>79</ele>
        <time>2022-05-21T11:31:06Z</time>
      </trkpt>
      <trkpt lat="48.16045" lon="-1.58359">
        <ele>78</ele>
        <time>2022-05-21T11:31:11Z</time>
      </trkpt>
      <trkpt lat="48.16069" lon="-1.58287">
        <ele>79</ele>
        <time>2022-05-21T11:31:21Z</time>
      </trkpt>
      <trkpt lat="48.16109" lon="-1.58178">
        <ele>80</ele>
        <time>2022-05-21T11:31:36Z</time>
      </trkpt>
      <trkpt lat="48.16114" lon="-1.58149">
        <ele>80</ele>
        <time>2022-05-21T11:31:39Z</time>
      </trkpt>
      <trkpt lat="48.16116" lon="-1.58103">
        <ele>81</ele>
        <time>2022-05-21T11:31:45Z</time>
      </trkpt>
      <trkpt lat="48.16128" lon="-1.58015">
        <ele>82</ele>
        <time>2022-05-21T11:31:55Z</time>
      </trkpt>
      <trkpt lat="48.16132" lon="-1.57936">
        <ele>84</ele>
        <time>2022-05-21T11:32:05Z</time>
      </trkpt>
      <trkpt lat="48.16138" lon="-1.57895">
        <ele>85</ele>
        <time>2022-05-21T11:32:10Z</time>
      </trkpt>
      <trkpt lat="48.16147" lon="-1.57891">
        <ele>85</ele>
        <time>2022-05-21T11:32:11Z</time>
      </trkpt>
      <trkpt lat="48.16157" lon="-1.57869">
        <ele>85</ele>
        <time>2022-05-21T11:32:15Z</time>
      </trkpt>
      <trkpt lat="48.16165" lon="-1.5782">
        <ele>85</ele>
        <time>2022-05-21T11:32:21Z</time>
      </trkpt>
      <trkpt lat="48.16184" lon="-1.57742">
        <ele>86</ele>
        <time>2022-05-21T11:32:30Z</time>
      </trkpt>
      <trkpt lat="48.16194" lon="-1.57737">
        <ele>86</ele>
        <time>2022-05-21T11:32:32Z</time>
      </trkpt>
      <trkpt lat="48.16213" lon="-1.5764">
        <ele>86</ele>
        <time>2022-05-21T11:32:44Z</time>
      </trkpt>
      <trkpt lat="48.16236" lon="-1.57557">
        <ele>87</ele>
        <time>2022-05-21T11:32:55Z</time>
      </trkpt>
      <trkpt lat="48.16242" lon="-1.57515">
        <ele>86</ele>
        <time>2022-05-21T11:33:00Z</time>
      </trkpt>
      <trkpt lat="48.16257" lon="-1.57463">
        <ele>85</ele>
        <time>2022-05-21T11:33:07Z</time>
      </trkpt>
      <trkpt lat="48.16258" lon="-1.57443">
        <ele>84</ele>
        <time>2022-05-21T11:33:09Z</time>
      </trkpt>
      <trkpt lat="48.16262" lon="-1.57425">
        <ele>84</ele>
        <time>2022-05-21T11:33:11Z</time>
      </trkpt>
      <trkpt lat="48.16276" lon="-1.57399">
        <ele>84</ele>
        <time>2022-05-21T11:33:15Z</time>
      </trkpt>
      <trkpt lat="48.16278" lon="-1.57383">
        <ele>84</ele>
        <time>2022-05-21T11:33:17Z</time>
      </trkpt>
      <trkpt lat="48.16298" lon="-1.57312">
        <ele>86</ele>
        <time>2022-05-21T11:33:26Z</time>
      </trkpt>
      <trkpt lat="48.16309" lon="-1.57281">
        <ele>87</ele>
        <time>2022-05-21T11:33:31Z</time>
      </trkpt>
      <trkpt lat="48.16333" lon="-1.57227">
        <ele>88</ele>
        <time>2022-05-21T11:33:38Z</time>
      </trkpt>
      <trkpt lat="48.16349" lon="-1.57209">
        <ele>88</ele>
        <time>2022-05-21T11:33:42Z</time>
      </trkpt>
      <trkpt lat="48.16347" lon="-1.57195">
        <ele>88</ele>
        <time>2022-05-21T11:33:44Z</time>
      </trkpt>
      <trkpt lat="48.16351" lon="-1.57181">
        <ele>88</ele>
        <time>2022-05-21T11:33:45Z</time>
      </trkpt>
      <trkpt lat="48.16358" lon="-1.57168">
        <ele>88</ele>
        <time>2022-05-21T11:33:47Z</time>
      </trkpt>
      <trkpt lat="48.16383" lon="-1.57097">
        <ele>87</ele>
        <time>2022-05-21T11:33:57Z</time>
      </trkpt>
      <trkpt lat="48.16384" lon="-1.57083">
        <ele>87</ele>
        <time>2022-05-21T11:33:59Z</time>
      </trkpt>
      <trkpt lat="48.16378" lon="-1.57066">
        <ele>87</ele>
        <time>2022-05-21T11:34:01Z</time>
      </trkpt>
      <trkpt lat="48.16387" lon="-1.57058">
        <ele>87</ele>
        <time>2022-05-21T11:34:03Z</time>
      </trkpt>
      <trkpt lat="48.16402" lon="-1.57018">
        <ele>88</ele>
        <time>2022-05-21T11:34:08Z</time>
      </trkpt>
      <trkpt lat="48.16391" lon="-1.57034">
        <ele>87</ele>
        <time>2022-05-21T11:34:11Z</time>
      </trkpt>
      <trkpt lat="48.16388" lon="-1.57048">
        <ele>87</ele>
        <time>2022-05-21T11:34:13Z</time>
      </trkpt>
      <trkpt lat="48.16396" lon="-1.57056">
        <ele>88</ele>
        <time>2022-05-21T11:34:14Z</time>
      </trkpt>
      <trkpt lat="48.16408" lon="-1.57055">
        <ele>88</ele>
        <time>2022-05-21T11:34:16Z</time>
      </trkpt>
      <trkpt lat="48.16417" lon="-1.57046">
        <ele>88</ele>
        <time>2022-05-21T11:34:18Z</time>
      </trkpt>
      <trkpt lat="48.16423" lon="-1.57033">
        <ele>88</ele>
        <time>2022-05-21T11:34:20Z</time>
      </trkpt>
      <trkpt lat="48.16439" lon="-1.57013">
        <ele>88</ele>
        <time>2022-05-21T11:34:24Z</time>
      </trkpt>
      <trkpt lat="48.16446" lon="-1.56999">
        <ele>88</ele>
        <time>2022-05-21T11:34:26Z</time>
      </trkpt>
      <trkpt lat="48.16456" lon="-1.56991">
        <ele>89</ele>
        <time>2022-05-21T11:34:28Z</time>
      </trkpt>
      <trkpt lat="48.16461" lon="-1.56976">
        <ele>89</ele>
        <time>2022-05-21T11:34:30Z</time>
      </trkpt>
      <trkpt lat="48.16469" lon="-1.56969">
        <ele>89</ele>
        <time>2022-05-21T11:34:32Z</time>
      </trkpt>
      <trkpt lat="48.16478" lon="-1.56965">
        <ele>89</ele>
        <time>2022-05-21T11:34:33Z</time>
      </trkpt>
      <trkpt lat="48.165" lon="-1.56957">
        <ele>90</ele>
        <time>2022-05-21T11:34:37Z</time>
      </trkpt>
      <trkpt lat="48.16521" lon="-1.56954">
        <ele>89</ele>
        <time>2022-05-21T11:34:41Z</time>
      </trkpt>
      <trkpt lat="48.16526" lon="-1.56942">
        <ele>89</ele>
        <time>2022-05-21T11:34:43Z</time>
      </trkpt>
      <trkpt lat="48.16547" lon="-1.56847">
        <ele>89</ele>
        <time>2022-05-21T11:34:55Z</time>
      </trkpt>
      <trkpt lat="48.16553" lon="-1.56829">
        <ele>89</ele>
        <time>2022-05-21T11:34:57Z</time>
      </trkpt>
      <trkpt lat="48.16553" lon="-1.56797">
        <ele>90</ele>
        <time>2022-05-21T11:35:01Z</time>
      </trkpt>
      <trkpt lat="48.16558" lon="-1.56785">
        <ele>90</ele>
        <time>2022-05-21T11:35:03Z</time>
      </trkpt>
      <trkpt lat="48.16564" lon="-1.5674">
        <ele>90</ele>
        <time>2022-05-21T11:35:08Z</time>
      </trkpt>
      <trkpt lat="48.16581" lon="-1.56655">
        <ele>90</ele>
        <time>2022-05-21T11:35:19Z</time>
      </trkpt>
      <trkpt lat="48.16589" lon="-1.56601">
        <ele>91</ele>
        <time>2022-05-21T11:35:25Z</time>
      </trkpt>
      <trkpt lat="48.16594" lon="-1.56584">
        <ele>91</ele>
        <time>2022-05-21T11:35:27Z</time>
      </trkpt>
      <trkpt lat="48.16595" lon="-1.56566">
        <ele>91</ele>
        <time>2022-05-21T11:35:29Z</time>
      </trkpt>
      <trkpt lat="48.1661" lon="-1.56477">
        <ele>91</ele>
        <time>2022-05-21T11:35:40Z</time>
      </trkpt>
      <trkpt lat="48.16609" lon="-1.56441">
        <ele>92</ele>
        <time>2022-05-21T11:35:45Z</time>
      </trkpt>
      <trkpt lat="48.16615" lon="-1.56428">
        <ele>92</ele>
        <time>2022-05-21T11:35:46Z</time>
      </trkpt>
      <trkpt lat="48.16621" lon="-1.56396">
        <ele>92</ele>
        <time>2022-05-21T11:35:50Z</time>
      </trkpt>
      <trkpt lat="48.16649" lon="-1.56218">
        <ele>91</ele>
        <time>2022-05-21T11:36:12Z</time>
      </trkpt>
      <trkpt lat="48.16649" lon="-1.562">
        <ele>91</ele>
        <time>2022-05-21T11:36:14Z</time>
      </trkpt>
      <trkpt lat="48.1666" lon="-1.56155">
        <ele>92</ele>
        <time>2022-05-21T11:36:20Z</time>
      </trkpt>
      <trkpt lat="48.1667" lon="-1.56093">
        <ele>92</ele>
        <time>2022-05-21T11:36:28Z</time>
      </trkpt>
      <trkpt lat="48.16676" lon="-1.56083">
        <ele>92</ele>
        <time>2022-05-21T11:36:29Z</time>
      </trkpt>
      <trkpt lat="48.16691" lon="-1.56021">
        <ele>92</ele>
        <time>2022-05-21T11:36:37Z</time>
      </trkpt>
      <trkpt lat="48.1669" lon="-1.55992">
        <ele>92</ele>
        <time>2022-05-21T11:36:40Z</time>
      </trkpt>
      <trkpt lat="48.16696" lon="-1.55966">
        <ele>93</ele>
        <time>2022-05-21T11:36:44Z</time>
      </trkpt>
      <trkpt lat="48.16699" lon="-1.55935">
        <ele>93</ele>
        <time>2022-05-21T11:36:47Z</time>
      </trkpt>
      <trkpt lat="48.16698" lon="-1.55855">
        <ele>94</ele>
        <time>2022-05-21T11:36:57Z</time>
      </trkpt>
      <trkpt lat="48.16693" lon="-1.55808">
        <ele>95</ele>
        <time>2022-05-21T11:37:03Z</time>
      </trkpt>
      <trkpt lat="48.16687" lon="-1.55797">
        <ele>95</ele>
        <time>2022-05-21T11:37:04Z</time>
      </trkpt>
      <trkpt lat="48.16689" lon="-1.55782">
        <ele>95</ele>
        <time>2022-05-21T11:37:06Z</time>
      </trkpt>
      <trkpt lat="48.16682" lon="-1.55733">
        <ele>95</ele>
        <time>2022-05-21T11:37:12Z</time>
      </trkpt>
      <trkpt lat="48.1668" lon="-1.55685">
        <ele>95</ele>
        <time>2022-05-21T11:37:18Z</time>
      </trkpt>
      <trkpt lat="48.16669" lon="-1.55624">
        <ele>95</ele>
        <time>2022-05-21T11:37:25Z</time>
      </trkpt>
      <trkpt lat="48.16654" lon="-1.55581">
        <ele>95</ele>
        <time>2022-05-21T11:37:31Z</time>
      </trkpt>
      <trkpt lat="48.16645" lon="-1.55536">
        <ele>94</ele>
        <time>2022-05-21T11:37:37Z</time>
      </trkpt>
      <trkpt lat="48.16628" lon="-1.55489">
        <ele>94</ele>
        <time>2022-05-21T11:37:43Z</time>
      </trkpt>
      <trkpt lat="48.16617" lon="-1.55466">
        <ele>94</ele>
        <time>2022-05-21T11:37:46Z</time>
      </trkpt>
      <trkpt lat="48.1661" lon="-1.55457">
        <ele>94</ele>
        <time>2022-05-21T11:37:48Z</time>
      </trkpt>
      <trkpt lat="48.16604" lon="-1.55441">
        <ele>94</ele>
        <time>2022-05-21T11:37:50Z</time>
      </trkpt>
      <trkpt lat="48.16562" lon="-1.5539">
        <ele>92</ele>
        <time>2022-05-21T11:38:00Z</time>
      </trkpt>
      <trkpt lat="48.16552" lon="-1.55364">
        <ele>91</ele>
        <time>2022-05-21T11:38:03Z</time>
      </trkpt>
      <trkpt lat="48.16539" lon="-1.55344">
        <ele>91</ele>
        <time>2022-05-21T11:38:07Z</time>
      </trkpt>
      <trkpt lat="48.16537" lon="-1.55326">
        <ele>90</ele>
        <time>2022-05-21T11:38:09Z</time>
      </trkpt>
      <trkpt lat="48.16532" lon="-1.55314">
        <ele>90</ele>
        <time>2022-05-21T11:38:10Z</time>
      </trkpt>
      <trkpt lat="48.16534" lon="-1.55299">
        <ele>90</ele>
        <time>2022-05-21T11:38:12Z</time>
      </trkpt>
      <trkpt lat="48.16549" lon="-1.55262">
        <ele>89</ele>
        <time>2022-05-21T11:38:17Z</time>
      </trkpt>
      <trkpt lat="48.16635" lon="-1.55109">
        <ele>88</ele>
        <time>2022-05-21T11:38:41Z</time>
      </trkpt>
      <trkpt lat="48.16687" lon="-1.55032">
        <ele>88</ele>
        <time>2022-05-21T11:38:54Z</time>
      </trkpt>
      <trkpt lat="48.16706" lon="-1.54998">
        <ele>88</ele>
        <time>2022-05-21T11:38:59Z</time>
      </trkpt>
      <trkpt lat="48.16737" lon="-1.54956">
        <ele>89</ele>
        <time>2022-05-21T11:39:07Z</time>
      </trkpt>
      <trkpt lat="48.16766" lon="-1.5491">
        <ele>90</ele>
        <time>2022-05-21T11:39:14Z</time>
      </trkpt>
      <trkpt lat="48.16792" lon="-1.54862">
        <ele>90</ele>
        <time>2022-05-21T11:39:22Z</time>
      </trkpt>
      <trkpt lat="48.168" lon="-1.54854">
        <ele>90</ele>
        <time>2022-05-21T11:39:23Z</time>
      </trkpt>
      <trkpt lat="48.16871" lon="-1.54741">
        <ele>92</ele>
        <time>2022-05-21T11:39:42Z</time>
      </trkpt>
      <trkpt lat="48.16884" lon="-1.54716">
        <ele>92</ele>
        <time>2022-05-21T11:39:46Z</time>
      </trkpt>
      <trkpt lat="48.16995" lon="-1.54538">
        <ele>89</ele>
        <time>2022-05-21T11:40:14Z</time>
      </trkpt>
      <trkpt lat="48.17031" lon="-1.54474">
        <ele>90</ele>
        <time>2022-05-21T11:40:24Z</time>
      </trkpt>
      <trkpt lat="48.17058" lon="-1.54438">
        <ele>91</ele>
        <time>2022-05-21T11:40:31Z</time>
      </trkpt>
      <trkpt lat="48.1707" lon="-1.54414">
        <ele>91</ele>
        <time>2022-05-21T11:40:34Z</time>
      </trkpt>
      <trkpt lat="48.17115" lon="-1.54347">
        <ele>92</ele>
        <time>2022-05-21T11:40:46Z</time>
      </trkpt>
      <trkpt lat="48.17201" lon="-1.5421">
        <ele>95</ele>
        <time>2022-05-21T11:41:08Z</time>
      </trkpt>
      <trkpt lat="48.1721" lon="-1.54194">
        <ele>95</ele>
        <time>2022-05-21T11:41:10Z</time>
      </trkpt>
      <trkpt lat="48.17213" lon="-1.54181">
        <ele>94</ele>
        <time>2022-05-21T11:41:12Z</time>
      </trkpt>
      <trkpt lat="48.17225" lon="-1.54169">
        <ele>93</ele>
        <time>2022-05-21T11:41:15Z</time>
      </trkpt>
      <trkpt lat="48.17246" lon="-1.5414">
        <ele>92</ele>
        <time>2022-05-21T11:41:20Z</time>
      </trkpt>
      <trkpt lat="48.17399" lon="-1.53886">
        <ele>89</ele>
        <time>2022-05-21T11:42:00Z</time>
      </trkpt>
      <trkpt lat="48.17445" lon="-1.53818">
        <ele>88</ele>
        <time>2022-05-21T11:42:12Z</time>
      </trkpt>
      <trkpt lat="48.17485" lon="-1.53749">
        <ele>91</ele>
        <time>2022-05-21T11:42:23Z</time>
      </trkpt>
      <trkpt lat="48.17493" lon="-1.53741">
        <ele>92</ele>
        <time>2022-05-21T11:42:24Z</time>
      </trkpt>
      <trkpt lat="48.17513" lon="-1.53708">
        <ele>93</ele>
        <time>2022-05-21T11:42:30Z</time>
      </trkpt>
      <trkpt lat="48.17518" lon="-1.53696">
        <ele>93</ele>
        <time>2022-05-21T11:42:31Z</time>
      </trkpt>
      <trkpt lat="48.17588" lon="-1.53592">
        <ele>95</ele>
        <time>2022-05-21T11:42:49Z</time>
      </trkpt>
      <trkpt lat="48.17651" lon="-1.53484">
        <ele>95</ele>
        <time>2022-05-21T11:43:06Z</time>
      </trkpt>
      <trkpt lat="48.17715" lon="-1.53382">
        <ele>90</ele>
        <time>2022-05-21T11:43:23Z</time>
      </trkpt>
      <trkpt lat="48.17715" lon="-1.53368">
        <ele>90</ele>
        <time>2022-05-21T11:43:24Z</time>
      </trkpt>
      <trkpt lat="48.17712" lon="-1.53382">
        <ele>90</ele>
        <time>2022-05-21T11:43:26Z</time>
      </trkpt>
      <trkpt lat="48.17771" lon="-1.53443">
        <ele>91</ele>
        <time>2022-05-21T11:43:39Z</time>
      </trkpt>
      <trkpt lat="48.17842" lon="-1.53523">
        <ele>93</ele>
        <time>2022-05-21T11:43:55Z</time>
      </trkpt>
      <trkpt lat="48.17863" lon="-1.53542">
        <ele>93</ele>
        <time>2022-05-21T11:43:59Z</time>
      </trkpt>
      <trkpt lat="48.17921" lon="-1.53605">
        <ele>91</ele>
        <time>2022-05-21T11:44:12Z</time>
      </trkpt>
      <trkpt lat="48.1794" lon="-1.53622">
        <ele>91</ele>
        <time>2022-05-21T11:44:16Z</time>
      </trkpt>
      <trkpt lat="48.17949" lon="-1.53634">
        <ele>90</ele>
        <time>2022-05-21T11:44:18Z</time>
      </trkpt>
      <trkpt lat="48.18044" lon="-1.53731">
        <ele>92</ele>
        <time>2022-05-21T11:44:38Z</time>
      </trkpt>
      <trkpt lat="48.1806" lon="-1.53753">
        <ele>93</ele>
        <time>2022-05-21T11:44:42Z</time>
      </trkpt>
      <trkpt lat="48.18105" lon="-1.53792">
        <ele>97</ele>
        <time>2022-05-21T11:44:51Z</time>
      </trkpt>
      <trkpt lat="48.18187" lon="-1.53882">
        <ele>98</ele>
        <time>2022-05-21T11:45:09Z</time>
      </trkpt>
      <trkpt lat="48.18207" lon="-1.53898">
        <ele>97</ele>
        <time>2022-05-21T11:45:13Z</time>
      </trkpt>
      <trkpt lat="48.18221" lon="-1.53915">
        <ele>95</ele>
        <time>2022-05-21T11:45:17Z</time>
      </trkpt>
      <trkpt lat="48.18281" lon="-1.53973">
        <ele>97</ele>
        <time>2022-05-21T11:45:29Z</time>
      </trkpt>
      <trkpt lat="48.18323" lon="-1.5402">
        <ele>99</ele>
        <time>2022-05-21T11:45:39Z</time>
      </trkpt>
      <trkpt lat="48.18351" lon="-1.54043">
        <ele>101</ele>
        <time>2022-05-21T11:45:44Z</time>
      </trkpt>
      <trkpt lat="48.18394" lon="-1.54084">
        <ele>103</ele>
        <time>2022-05-21T11:45:53Z</time>
      </trkpt>
      <trkpt lat="48.18442" lon="-1.54138">
        <ele>106</ele>
        <time>2022-05-21T11:46:04Z</time>
      </trkpt>
      <trkpt lat="48.185" lon="-1.54192">
        <ele>109</ele>
        <time>2022-05-21T11:46:16Z</time>
      </trkpt>
      <trkpt lat="48.18627" lon="-1.54327">
        <ele>117</ele>
        <time>2022-05-21T11:46:44Z</time>
      </trkpt>
      <trkpt lat="48.18675" lon="-1.54372">
        <ele>119</ele>
        <time>2022-05-21T11:46:54Z</time>
      </trkpt>
      <trkpt lat="48.18777" lon="-1.54482">
        <ele>119</ele>
        <time>2022-05-21T11:47:16Z</time>
      </trkpt>
      <trkpt lat="48.18816" lon="-1.54528">
        <ele>117</ele>
        <time>2022-05-21T11:47:25Z</time>
      </trkpt>
      <trkpt lat="48.18836" lon="-1.54524">
        <ele>116</ele>
        <time>2022-05-21T11:47:29Z</time>
      </trkpt>
      <trkpt lat="48.18854" lon="-1.54527">
        <ele>115</ele>
        <time>2022-05-21T11:47:32Z</time>
      </trkpt>
      <trkpt lat="48.18853" lon="-1.54543">
        <ele>115</ele>
        <time>2022-05-21T11:47:34Z</time>
      </trkpt>
      <trkpt lat="48.1885" lon="-1.54529">
        <ele>115</ele>
        <time>2022-05-21T11:47:36Z</time>
      </trkpt>
      <trkpt lat="48.18859" lon="-1.54499">
        <ele>115</ele>
        <time>2022-05-21T11:47:39Z</time>
      </trkpt>
      <trkpt lat="48.18878" lon="-1.54466">
        <ele>116</ele>
        <time>2022-05-21T11:47:45Z</time>
      </trkpt>
      <trkpt lat="48.18888" lon="-1.54459">
        <ele>116</ele>
        <time>2022-05-21T11:47:47Z</time>
      </trkpt>
      <trkpt lat="48.18892" lon="-1.54446">
        <ele>116</ele>
        <time>2022-05-21T11:47:48Z</time>
      </trkpt>
      <trkpt lat="48.1889" lon="-1.54431">
        <ele>117</ele>
        <time>2022-05-21T11:47:50Z</time>
      </trkpt>
      <trkpt lat="48.1888" lon="-1.54436">
        <ele>117</ele>
        <time>2022-05-21T11:47:52Z</time>
      </trkpt>
      <trkpt lat="48.18882" lon="-1.54449">
        <ele>116</ele>
        <time>2022-05-21T11:47:54Z</time>
      </trkpt>
      <trkpt lat="48.18874" lon="-1.5444">
        <ele>117</ele>
        <time>2022-05-21T11:47:55Z</time>
      </trkpt>
      <trkpt lat="48.18876" lon="-1.54446">
        <ele>117</ele>
        <time>2022-05-21T11:47:56Z</time>
      </trkpt>
      <trkpt lat="48.18871" lon="-1.54457">
        <ele>116</ele>
        <time>2022-05-21T11:47:58Z</time>
      </trkpt>
      <trkpt lat="48.18885" lon="-1.54478">
        <ele>115</ele>
        <time>2022-05-21T11:48:01Z</time>
      </trkpt>
      <trkpt lat="48.18883" lon="-1.54511">
        <ele>115</ele>
        <time>2022-05-21T11:48:05Z</time>
      </trkpt>
      <trkpt lat="48.18884" lon="-1.54565">
        <ele>114</ele>
        <time>2022-05-21T11:48:12Z</time>
      </trkpt>
      <trkpt lat="48.18887" lon="-1.546">
        <ele>112</ele>
        <time>2022-05-21T11:48:16Z</time>
      </trkpt>
      <trkpt lat="48.18891" lon="-1.54616">
        <ele>111</ele>
        <time>2022-05-21T11:48:18Z</time>
      </trkpt>
      <trkpt lat="48.18891" lon="-1.54633">
        <ele>110</ele>
        <time>2022-05-21T11:48:20Z</time>
      </trkpt>
      <trkpt lat="48.18902" lon="-1.54681">
        <ele>108</ele>
        <time>2022-05-21T11:48:26Z</time>
      </trkpt>
      <trkpt lat="48.18915" lon="-1.54757">
        <ele>105</ele>
        <time>2022-05-21T11:48:35Z</time>
      </trkpt>
      <trkpt lat="48.18943" lon="-1.54894">
        <ele>104</ele>
        <time>2022-05-21T11:48:52Z</time>
      </trkpt>
      <trkpt lat="48.18953" lon="-1.54958">
        <ele>104</ele>
        <time>2022-05-21T11:49:00Z</time>
      </trkpt>
      <trkpt lat="48.18991" lon="-1.55145">
        <ele>102</ele>
        <time>2022-05-21T11:49:23Z</time>
      </trkpt>
      <trkpt lat="48.1901" lon="-1.55256">
        <ele>99</ele>
        <time>2022-05-21T11:49:37Z</time>
      </trkpt>
      <trkpt lat="48.19015" lon="-1.55274">
        <ele>100</ele>
        <time>2022-05-21T11:49:39Z</time>
      </trkpt>
      <trkpt lat="48.1903" lon="-1.55364">
        <ele>102</ele>
        <time>2022-05-21T11:49:50Z</time>
      </trkpt>
      <trkpt lat="48.19048" lon="-1.55453">
        <ele>103</ele>
        <time>2022-05-21T11:50:01Z</time>
      </trkpt>
      <trkpt lat="48.19059" lon="-1.55524">
        <ele>102</ele>
        <time>2022-05-21T11:50:10Z</time>
      </trkpt>
      <trkpt lat="48.1907" lon="-1.55574">
        <ele>101</ele>
        <time>2022-05-21T11:50:16Z</time>
      </trkpt>
      <trkpt lat="48.19127" lon="-1.55885">
        <ele>101</ele>
        <time>2022-05-21T11:50:54Z</time>
      </trkpt>
      <trkpt lat="48.1914" lon="-1.55952">
        <ele>100</ele>
        <time>2022-05-21T11:51:03Z</time>
      </trkpt>
      <trkpt lat="48.19157" lon="-1.56019">
        <ele>97</ele>
        <time>2022-05-21T11:51:11Z</time>
      </trkpt>
      <trkpt lat="48.19166" lon="-1.56072">
        <ele>95</ele>
        <time>2022-05-21T11:51:18Z</time>
      </trkpt>
      <trkpt lat="48.19172" lon="-1.56088">
        <ele>95</ele>
        <time>2022-05-21T11:51:20Z</time>
      </trkpt>
      <trkpt lat="48.19182" lon="-1.56138">
        <ele>93</ele>
        <time>2022-05-21T11:51:26Z</time>
      </trkpt>
      <trkpt lat="48.19186" lon="-1.56186">
        <ele>94</ele>
        <time>2022-05-21T11:51:32Z</time>
      </trkpt>
      <trkpt lat="48.19193" lon="-1.56217">
        <ele>95</ele>
        <time>2022-05-21T11:51:35Z</time>
      </trkpt>
      <trkpt lat="48.19204" lon="-1.56291">
        <ele>96</ele>
        <time>2022-05-21T11:51:44Z</time>
      </trkpt>
      <trkpt lat="48.19209" lon="-1.56309">
        <ele>96</ele>
        <time>2022-05-21T11:51:47Z</time>
      </trkpt>
      <trkpt lat="48.19239" lon="-1.565">
        <ele>91</ele>
        <time>2022-05-21T11:52:10Z</time>
      </trkpt>
      <trkpt lat="48.19257" lon="-1.56578">
        <ele>88</ele>
        <time>2022-05-21T11:52:20Z</time>
      </trkpt>
      <trkpt lat="48.1926" lon="-1.56612">
        <ele>88</ele>
        <time>2022-05-21T11:52:24Z</time>
      </trkpt>
      <trkpt lat="48.19265" lon="-1.56626">
        <ele>88</ele>
        <time>2022-05-21T11:52:26Z</time>
      </trkpt>
      <trkpt lat="48.19266" lon="-1.56643">
        <ele>88</ele>
        <time>2022-05-21T11:52:28Z</time>
      </trkpt>
      <trkpt lat="48.19316" lon="-1.56888">
        <ele>88</ele>
        <time>2022-05-21T11:52:58Z</time>
      </trkpt>
      <trkpt lat="48.19316" lon="-1.56902">
        <ele>88</ele>
        <time>2022-05-21T11:53:00Z</time>
      </trkpt>
      <trkpt lat="48.19323" lon="-1.5693">
        <ele>88</ele>
        <time>2022-05-21T11:53:03Z</time>
      </trkpt>
      <trkpt lat="48.19328" lon="-1.56964">
        <ele>88</ele>
        <time>2022-05-21T11:53:08Z</time>
      </trkpt>
      <trkpt lat="48.19369" lon="-1.5716">
        <ele>90</ele>
        <time>2022-05-21T11:53:32Z</time>
      </trkpt>
      <trkpt lat="48.19382" lon="-1.57244">
        <ele>92</ele>
        <time>2022-05-21T11:53:42Z</time>
      </trkpt>
      <trkpt lat="48.1939" lon="-1.57274">
        <ele>93</ele>
        <time>2022-05-21T11:53:46Z</time>
      </trkpt>
      <trkpt lat="48.19417" lon="-1.57415">
        <ele>95</ele>
        <time>2022-05-21T11:54:03Z</time>
      </trkpt>
      <trkpt lat="48.19443" lon="-1.57529">
        <ele>96</ele>
        <time>2022-05-21T11:54:18Z</time>
      </trkpt>
      <trkpt lat="48.19466" lon="-1.57658">
        <ele>95</ele>
        <time>2022-05-21T11:54:34Z</time>
      </trkpt>
      <trkpt lat="48.19471" lon="-1.57706">
        <ele>95</ele>
        <time>2022-05-21T11:54:39Z</time>
      </trkpt>
      <trkpt lat="48.1948" lon="-1.57736">
        <ele>96</ele>
        <time>2022-05-21T11:54:43Z</time>
      </trkpt>
      <trkpt lat="48.19499" lon="-1.5784">
        <ele>103</ele>
        <time>2022-05-21T11:54:56Z</time>
      </trkpt>
      <trkpt lat="48.19505" lon="-1.57887">
        <ele>100</ele>
        <time>2022-05-21T11:55:02Z</time>
      </trkpt>
      <trkpt lat="48.19513" lon="-1.5792">
        <ele>98</ele>
        <time>2022-05-21T11:55:06Z</time>
      </trkpt>
      <trkpt lat="48.19507" lon="-1.57946">
        <ele>96</ele>
        <time>2022-05-21T11:55:09Z</time>
      </trkpt>
      <trkpt lat="48.19524" lon="-1.57957">
        <ele>94</ele>
        <time>2022-05-21T11:55:12Z</time>
      </trkpt>
      <trkpt lat="48.19553" lon="-1.58014">
        <ele>91</ele>
        <time>2022-05-21T11:55:21Z</time>
      </trkpt>
      <trkpt lat="48.19541" lon="-1.57992">
        <ele>91</ele>
        <time>2022-05-21T11:55:24Z</time>
      </trkpt>
      <trkpt lat="48.19544" lon="-1.5801">
        <ele>91</ele>
        <time>2022-05-21T11:55:26Z</time>
      </trkpt>
      <trkpt lat="48.19537" lon="-1.5802">
        <ele>92</ele>
        <time>2022-05-21T11:55:28Z</time>
      </trkpt>
      <trkpt lat="48.19532" lon="-1.58007">
        <ele>91</ele>
        <time>2022-05-21T11:55:30Z</time>
      </trkpt>
      <trkpt lat="48.19524" lon="-1.57964">
        <ele>94</ele>
        <time>2022-05-21T11:55:35Z</time>
      </trkpt>
      <trkpt lat="48.19516" lon="-1.57956">
        <ele>95</ele>
        <time>2022-05-21T11:55:37Z</time>
      </trkpt>
      <trkpt lat="48.19506" lon="-1.57956">
        <ele>95</ele>
        <time>2022-05-21T11:55:39Z</time>
      </trkpt>
      <trkpt lat="48.19497" lon="-1.57962">
        <ele>96</ele>
        <time>2022-05-21T11:55:40Z</time>
      </trkpt>
      <trkpt lat="48.1951" lon="-1.57938">
        <ele>96</ele>
        <time>2022-05-21T11:55:44Z</time>
      </trkpt>
      <trkpt lat="48.19512" lon="-1.57924">
        <ele>97</ele>
        <time>2022-05-21T11:55:46Z</time>
      </trkpt>
      <trkpt lat="48.19508" lon="-1.57911">
        <ele>99</ele>
        <time>2022-05-21T11:55:48Z</time>
      </trkpt>
      <trkpt lat="48.19487" lon="-1.57766">
        <ele>98</ele>
        <time>2022-05-21T11:56:05Z</time>
      </trkpt>
      <trkpt lat="48.19455" lon="-1.57595">
        <ele>95</ele>
        <time>2022-05-21T11:56:26Z</time>
      </trkpt>
      <trkpt lat="48.19427" lon="-1.57469">
        <ele>95</ele>
        <time>2022-05-21T11:56:42Z</time>
      </trkpt>
      <trkpt lat="48.1942" lon="-1.57413">
        <ele>95</ele>
        <time>2022-05-21T11:56:49Z</time>
      </trkpt>
      <trkpt lat="48.19408" lon="-1.5734">
        <ele>95</ele>
        <time>2022-05-21T11:56:58Z</time>
      </trkpt>
      <trkpt lat="48.19392" lon="-1.57263">
        <ele>93</ele>
        <time>2022-05-21T11:57:07Z</time>
      </trkpt>
      <trkpt lat="48.19391" lon="-1.57247">
        <ele>92</ele>
        <time>2022-05-21T11:57:09Z</time>
      </trkpt>
      <trkpt lat="48.19361" lon="-1.57118">
        <ele>89</ele>
        <time>2022-05-21T11:57:25Z</time>
      </trkpt>
      <trkpt lat="48.19337" lon="-1.56989">
        <ele>88</ele>
        <time>2022-05-21T11:57:41Z</time>
      </trkpt>
      <trkpt lat="48.19324" lon="-1.56905">
        <ele>88</ele>
        <time>2022-05-21T11:57:51Z</time>
      </trkpt>
      <trkpt lat="48.19299" lon="-1.56794">
        <ele>86</ele>
        <time>2022-05-21T11:58:05Z</time>
      </trkpt>
      <trkpt lat="48.19296" lon="-1.56761">
        <ele>86</ele>
        <time>2022-05-21T11:58:09Z</time>
      </trkpt>
      <trkpt lat="48.1929" lon="-1.5673">
        <ele>87</ele>
        <time>2022-05-21T11:58:13Z</time>
      </trkpt>
      <trkpt lat="48.19279" lon="-1.56687">
        <ele>87</ele>
        <time>2022-05-21T11:58:19Z</time>
      </trkpt>
      <trkpt lat="48.19278" lon="-1.56674">
        <ele>88</ele>
        <time>2022-05-21T11:58:20Z</time>
      </trkpt>
      <trkpt lat="48.19251" lon="-1.56571">
        <ele>88</ele>
        <time>2022-05-21T11:58:33Z</time>
      </trkpt>
      <trkpt lat="48.19254" lon="-1.56523">
        <ele>90</ele>
        <time>2022-05-21T11:58:39Z</time>
      </trkpt>
      <trkpt lat="48.19259" lon="-1.56511">
        <ele>90</ele>
        <time>2022-05-21T11:58:41Z</time>
      </trkpt>
      <trkpt lat="48.19291" lon="-1.56469">
        <ele>90</ele>
        <time>2022-05-21T11:58:48Z</time>
      </trkpt>
      <trkpt lat="48.19335" lon="-1.56402">
        <ele>91</ele>
        <time>2022-05-21T11:58:59Z</time>
      </trkpt>
      <trkpt lat="48.19353" lon="-1.56383">
        <ele>92</ele>
        <time>2022-05-21T11:59:03Z</time>
      </trkpt>
      <trkpt lat="48.19369" lon="-1.56356">
        <ele>94</ele>
        <time>2022-05-21T11:59:08Z</time>
      </trkpt>
      <trkpt lat="48.19419" lon="-1.56297">
        <ele>97</ele>
        <time>2022-05-21T11:59:19Z</time>
      </trkpt>
      <trkpt lat="48.1946" lon="-1.5624">
        <ele>97</ele>
        <time>2022-05-21T11:59:29Z</time>
      </trkpt>
      <trkpt lat="48.19521" lon="-1.56166">
        <ele>97</ele>
        <time>2022-05-21T11:59:43Z</time>
      </trkpt>
      <trkpt lat="48.19565" lon="-1.56108">
        <ele>97</ele>
        <time>2022-05-21T11:59:53Z</time>
      </trkpt>
      <trkpt lat="48.19572" lon="-1.56095">
        <ele>97</ele>
        <time>2022-05-21T11:59:55Z</time>
      </trkpt>
      <trkpt lat="48.19589" lon="-1.56075">
        <ele>97</ele>
        <time>2022-05-21T11:59:59Z</time>
      </trkpt>
      <trkpt lat="48.19595" lon="-1.56063">
        <ele>96</ele>
        <time>2022-05-21T12:00:01Z</time>
      </trkpt>
      <trkpt lat="48.19669" lon="-1.55973">
        <ele>91</ele>
        <time>2022-05-21T12:00:18Z</time>
      </trkpt>
      <trkpt lat="48.19706" lon="-1.55922">
        <ele>89</ele>
        <time>2022-05-21T12:00:27Z</time>
      </trkpt>
      <trkpt lat="48.19796" lon="-1.55808">
        <ele>89</ele>
        <time>2022-05-21T12:00:48Z</time>
      </trkpt>
      <trkpt lat="48.19812" lon="-1.55781">
        <ele>89</ele>
        <time>2022-05-21T12:00:52Z</time>
      </trkpt>
      <trkpt lat="48.19831" lon="-1.55758">
        <ele>89</ele>
        <time>2022-05-21T12:00:56Z</time>
      </trkpt>
      <trkpt lat="48.19888" lon="-1.55676">
        <ele>86</ele>
        <time>2022-05-21T12:01:10Z</time>
      </trkpt>
      <trkpt lat="48.19894" lon="-1.55633">
        <ele>85</ele>
        <time>2022-05-21T12:01:16Z</time>
      </trkpt>
      <trkpt lat="48.19903" lon="-1.55617">
        <ele>84</ele>
        <time>2022-05-21T12:01:18Z</time>
      </trkpt>
      <trkpt lat="48.19929" lon="-1.55615">
        <ele>83</ele>
        <time>2022-05-21T12:01:23Z</time>
      </trkpt>
      <trkpt lat="48.19947" lon="-1.55596">
        <ele>82</ele>
        <time>2022-05-21T12:01:27Z</time>
      </trkpt>
      <trkpt lat="48.20078" lon="-1.55428">
        <ele>81</ele>
        <time>2022-05-21T12:01:57Z</time>
      </trkpt>
      <trkpt lat="48.20137" lon="-1.55348">
        <ele>81</ele>
        <time>2022-05-21T12:02:11Z</time>
      </trkpt>
      <trkpt lat="48.20153" lon="-1.55323">
        <ele>80</ele>
        <time>2022-05-21T12:02:16Z</time>
      </trkpt>
      <trkpt lat="48.20189" lon="-1.55282">
        <ele>80</ele>
        <time>2022-05-21T12:02:24Z</time>
      </trkpt>
      <trkpt lat="48.20211" lon="-1.55251">
        <ele>81</ele>
        <time>2022-05-21T12:02:29Z</time>
      </trkpt>
      <trkpt lat="48.20235" lon="-1.55223">
        <ele>81</ele>
        <time>2022-05-21T12:02:34Z</time>
      </trkpt>
      <trkpt lat="48.2027" lon="-1.55171">
        <ele>82</ele>
        <time>2022-05-21T12:02:43Z</time>
      </trkpt>
      <trkpt lat="48.20286" lon="-1.55154">
        <ele>83</ele>
        <time>2022-05-21T12:02:47Z</time>
      </trkpt>
      <trkpt lat="48.20313" lon="-1.55111">
        <ele>85</ele>
        <time>2022-05-21T12:02:54Z</time>
      </trkpt>
      <trkpt lat="48.20337" lon="-1.55086">
        <ele>86</ele>
        <time>2022-05-21T12:02:59Z</time>
      </trkpt>
      <trkpt lat="48.20373" lon="-1.55036">
        <ele>88</ele>
        <time>2022-05-21T12:03:08Z</time>
      </trkpt>
      <trkpt lat="48.20398" lon="-1.5501">
        <ele>88</ele>
        <time>2022-05-21T12:03:13Z</time>
      </trkpt>
      <trkpt lat="48.20389" lon="-1.54981">
        <ele>88</ele>
        <time>2022-05-21T12:03:17Z</time>
      </trkpt>
      <trkpt lat="48.20418" lon="-1.54941">
        <ele>88</ele>
        <time>2022-05-21T12:03:24Z</time>
      </trkpt>
      <trkpt lat="48.20428" lon="-1.54935">
        <ele>88</ele>
        <time>2022-05-21T12:03:26Z</time>
      </trkpt>
      <trkpt lat="48.20435" lon="-1.54922">
        <ele>88</ele>
        <time>2022-05-21T12:03:28Z</time>
      </trkpt>
      <trkpt lat="48.20465" lon="-1.54901">
        <ele>88</ele>
        <time>2022-05-21T12:03:34Z</time>
      </trkpt>
      <trkpt lat="48.20476" lon="-1.54897">
        <ele>88</ele>
        <time>2022-05-21T12:03:36Z</time>
      </trkpt>
      <trkpt lat="48.20495" lon="-1.54881">
        <ele>88</ele>
        <time>2022-05-21T12:03:39Z</time>
      </trkpt>
      <trkpt lat="48.20531" lon="-1.54831">
        <ele>88</ele>
        <time>2022-05-21T12:03:48Z</time>
      </trkpt>
      <trkpt lat="48.2055" lon="-1.54811">
        <ele>87</ele>
        <time>2022-05-21T12:03:52Z</time>
      </trkpt>
      <trkpt lat="48.20574" lon="-1.54778">
        <ele>86</ele>
        <time>2022-05-21T12:03:58Z</time>
      </trkpt>
      <trkpt lat="48.20591" lon="-1.54761">
        <ele>85</ele>
        <time>2022-05-21T12:04:02Z</time>
      </trkpt>
      <trkpt lat="48.2063" lon="-1.54705">
        <ele>85</ele>
        <time>2022-05-21T12:04:11Z</time>
      </trkpt>
      <trkpt lat="48.20666" lon="-1.54662">
        <ele>84</ele>
        <time>2022-05-21T12:04:19Z</time>
      </trkpt>
      <trkpt lat="48.20729" lon="-1.54569">
        <ele>86</ele>
        <time>2022-05-21T12:04:35Z</time>
      </trkpt>
      <trkpt lat="48.20749" lon="-1.54548">
        <ele>86</ele>
        <time>2022-05-21T12:04:40Z</time>
      </trkpt>
      <trkpt lat="48.20757" lon="-1.54533">
        <ele>86</ele>
        <time>2022-05-21T12:04:42Z</time>
      </trkpt>
      <trkpt lat="48.20756" lon="-1.54515">
        <ele>86</ele>
        <time>2022-05-21T12:04:44Z</time>
      </trkpt>
      <trkpt lat="48.20738" lon="-1.5447">
        <ele>88</ele>
        <time>2022-05-21T12:04:50Z</time>
      </trkpt>
      <trkpt lat="48.20735" lon="-1.54452">
        <ele>88</ele>
        <time>2022-05-21T12:04:52Z</time>
      </trkpt>
      <trkpt lat="48.20715" lon="-1.54404">
        <ele>90</ele>
        <time>2022-05-21T12:04:59Z</time>
      </trkpt>
      <trkpt lat="48.20695" lon="-1.54326">
        <ele>90</ele>
        <time>2022-05-21T12:05:09Z</time>
      </trkpt>
      <trkpt lat="48.20665" lon="-1.54236">
        <ele>90</ele>
        <time>2022-05-21T12:05:21Z</time>
      </trkpt>
      <trkpt lat="48.20659" lon="-1.54224">
        <ele>90</ele>
        <time>2022-05-21T12:05:23Z</time>
      </trkpt>
      <trkpt lat="48.2064" lon="-1.54151">
        <ele>90</ele>
        <time>2022-05-21T12:05:32Z</time>
      </trkpt>
      <trkpt lat="48.20593" lon="-1.54005">
        <ele>88</ele>
        <time>2022-05-21T12:05:51Z</time>
      </trkpt>
      <trkpt lat="48.2059" lon="-1.53989">
        <ele>88</ele>
        <time>2022-05-21T12:05:53Z</time>
      </trkpt>
      <trkpt lat="48.20537" lon="-1.53836">
        <ele>88</ele>
        <time>2022-05-21T12:06:14Z</time>
      </trkpt>
      <trkpt lat="48.20534" lon="-1.5382">
        <ele>88</ele>
        <time>2022-05-21T12:06:16Z</time>
      </trkpt>
      <trkpt lat="48.20491" lon="-1.53677">
        <ele>90</ele>
        <time>2022-05-21T12:06:34Z</time>
      </trkpt>
      <trkpt lat="48.2048" lon="-1.53646">
        <ele>91</ele>
        <time>2022-05-21T12:06:38Z</time>
      </trkpt>
      <trkpt lat="48.20458" lon="-1.53601">
        <ele>92</ele>
        <time>2022-05-21T12:06:45Z</time>
      </trkpt>
      <trkpt lat="48.2044" lon="-1.53535">
        <ele>92</ele>
        <time>2022-05-21T12:06:53Z</time>
      </trkpt>
      <trkpt lat="48.20428" lon="-1.53513">
        <ele>92</ele>
        <time>2022-05-21T12:06:57Z</time>
      </trkpt>
      <trkpt lat="48.20405" lon="-1.53457">
        <ele>91</ele>
        <time>2022-05-21T12:07:05Z</time>
      </trkpt>
      <trkpt lat="48.20401" lon="-1.53424">
        <ele>90</ele>
        <time>2022-05-21T12:07:09Z</time>
      </trkpt>
      <trkpt lat="48.20389" lon="-1.53383">
        <ele>90</ele>
        <time>2022-05-21T12:07:14Z</time>
      </trkpt>
      <trkpt lat="48.20386" lon="-1.53365">
        <ele>90</ele>
        <time>2022-05-21T12:07:16Z</time>
      </trkpt>
      <trkpt lat="48.20379" lon="-1.53347">
        <ele>90</ele>
        <time>2022-05-21T12:07:19Z</time>
      </trkpt>
      <trkpt lat="48.20365" lon="-1.53289">
        <ele>91</ele>
        <time>2022-05-21T12:07:26Z</time>
      </trkpt>
      <trkpt lat="48.20355" lon="-1.53258">
        <ele>91</ele>
        <time>2022-05-21T12:07:30Z</time>
      </trkpt>
      <trkpt lat="48.20349" lon="-1.53247">
        <ele>91</ele>
        <time>2022-05-21T12:07:32Z</time>
      </trkpt>
      <trkpt lat="48.2034" lon="-1.53205">
        <ele>93</ele>
        <time>2022-05-21T12:07:37Z</time>
      </trkpt>
      <trkpt lat="48.20279" lon="-1.53011">
        <ele>97</ele>
        <time>2022-05-21T12:08:02Z</time>
      </trkpt>
      <trkpt lat="48.20239" lon="-1.52906">
        <ele>99</ele>
        <time>2022-05-21T12:08:17Z</time>
      </trkpt>
      <trkpt lat="48.20224" lon="-1.5285">
        <ele>98</ele>
        <time>2022-05-21T12:08:24Z</time>
      </trkpt>
      <trkpt lat="48.2019" lon="-1.52752">
        <ele>98</ele>
        <time>2022-05-21T12:08:37Z</time>
      </trkpt>
      <trkpt lat="48.20186" lon="-1.52737">
        <ele>98</ele>
        <time>2022-05-21T12:08:39Z</time>
      </trkpt>
      <trkpt lat="48.20186" lon="-1.52722">
        <ele>98</ele>
        <time>2022-05-21T12:08:41Z</time>
      </trkpt>
      <trkpt lat="48.202" lon="-1.52705">
        <ele>97</ele>
        <time>2022-05-21T12:08:44Z</time>
      </trkpt>
      <trkpt lat="48.20196" lon="-1.5272">
        <ele>97</ele>
        <time>2022-05-21T12:08:46Z</time>
      </trkpt>
      <trkpt lat="48.20189" lon="-1.52733">
        <ele>98</ele>
        <time>2022-05-21T12:08:48Z</time>
      </trkpt>
      <trkpt lat="48.20198" lon="-1.52732">
        <ele>97</ele>
        <time>2022-05-21T12:08:49Z</time>
      </trkpt>
      <trkpt lat="48.20231" lon="-1.52689">
        <ele>96</ele>
        <time>2022-05-21T12:08:57Z</time>
      </trkpt>
      <trkpt lat="48.20252" lon="-1.52654">
        <ele>95</ele>
        <time>2022-05-21T12:09:03Z</time>
      </trkpt>
      <trkpt lat="48.2027" lon="-1.52616">
        <ele>95</ele>
        <time>2022-05-21T12:09:08Z</time>
      </trkpt>
      <trkpt lat="48.20279" lon="-1.52603">
        <ele>95</ele>
        <time>2022-05-21T12:09:11Z</time>
      </trkpt>
      <trkpt lat="48.20289" lon="-1.52592">
        <ele>95</ele>
        <time>2022-05-21T12:09:13Z</time>
      </trkpt>
      <trkpt lat="48.20298" lon="-1.52591">
        <ele>96</ele>
        <time>2022-05-21T12:09:14Z</time>
      </trkpt>
      <trkpt lat="48.20308" lon="-1.5258">
        <ele>96</ele>
        <time>2022-05-21T12:09:17Z</time>
      </trkpt>
      <trkpt lat="48.20314" lon="-1.52562">
        <ele>97</ele>
        <time>2022-05-21T12:09:19Z</time>
      </trkpt>
      <trkpt lat="48.20319" lon="-1.52533">
        <ele>97</ele>
        <time>2022-05-21T12:09:22Z</time>
      </trkpt>
      <trkpt lat="48.2033" lon="-1.5251">
        <ele>98</ele>
        <time>2022-05-21T12:09:26Z</time>
      </trkpt>
      <trkpt lat="48.20356" lon="-1.52479">
        <ele>99</ele>
        <time>2022-05-21T12:09:32Z</time>
      </trkpt>
      <trkpt lat="48.20363" lon="-1.52463">
        <ele>99</ele>
        <time>2022-05-21T12:09:34Z</time>
      </trkpt>
      <trkpt lat="48.20366" lon="-1.52449">
        <ele>99</ele>
        <time>2022-05-21T12:09:36Z</time>
      </trkpt>
      <trkpt lat="48.20377" lon="-1.52442">
        <ele>100</ele>
        <time>2022-05-21T12:09:38Z</time>
      </trkpt>
      <trkpt lat="48.20478" lon="-1.52291">
        <ele>102</ele>
        <time>2022-05-21T12:10:03Z</time>
      </trkpt>
      <trkpt lat="48.20571" lon="-1.52163">
        <ele>103</ele>
        <time>2022-05-21T12:10:26Z</time>
      </trkpt>
      <trkpt lat="48.20577" lon="-1.52148">
        <ele>103</ele>
        <time>2022-05-21T12:10:28Z</time>
      </trkpt>
      <trkpt lat="48.20575" lon="-1.5213">
        <ele>103</ele>
        <time>2022-05-21T12:10:30Z</time>
      </trkpt>
      <trkpt lat="48.20579" lon="-1.52113">
        <ele>104</ele>
        <time>2022-05-21T12:10:32Z</time>
      </trkpt>
      <trkpt lat="48.20589" lon="-1.52105">
        <ele>104</ele>
        <time>2022-05-21T12:10:34Z</time>
      </trkpt>
      <trkpt lat="48.206" lon="-1.52103">
        <ele>104</ele>
        <time>2022-05-21T12:10:36Z</time>
      </trkpt>
      <trkpt lat="48.2061" lon="-1.52108">
        <ele>104</ele>
        <time>2022-05-21T12:10:38Z</time>
      </trkpt>
      <trkpt lat="48.20725" lon="-1.51938">
        <ele>104</ele>
        <time>2022-05-21T12:11:07Z</time>
      </trkpt>
      <trkpt lat="48.20765" lon="-1.51861">
        <ele>103</ele>
        <time>2022-05-21T12:11:18Z</time>
      </trkpt>
      <trkpt lat="48.2084" lon="-1.51773">
        <ele>102</ele>
        <time>2022-05-21T12:11:35Z</time>
      </trkpt>
      <trkpt lat="48.20867" lon="-1.51731">
        <ele>101</ele>
        <time>2022-05-21T12:11:42Z</time>
      </trkpt>
      <trkpt lat="48.20879" lon="-1.51703">
        <ele>100</ele>
        <time>2022-05-21T12:11:46Z</time>
      </trkpt>
      <trkpt lat="48.20883" lon="-1.51673">
        <ele>99</ele>
        <time>2022-05-21T12:11:50Z</time>
      </trkpt>
      <trkpt lat="48.20912" lon="-1.51668">
        <ele>98</ele>
        <time>2022-05-21T12:11:55Z</time>
      </trkpt>
      <trkpt lat="48.20925" lon="-1.51645">
        <ele>98</ele>
        <time>2022-05-21T12:11:58Z</time>
      </trkpt>
      <trkpt lat="48.20966" lon="-1.51592">
        <ele>98</ele>
        <time>2022-05-21T12:12:08Z</time>
      </trkpt>
      <trkpt lat="48.21057" lon="-1.51461">
        <ele>97</ele>
        <time>2022-05-21T12:12:30Z</time>
      </trkpt>
      <trkpt lat="48.21104" lon="-1.51399">
        <ele>97</ele>
        <time>2022-05-21T12:12:42Z</time>
      </trkpt>
      <trkpt lat="48.21181" lon="-1.5128">
        <ele>99</ele>
        <time>2022-05-21T12:13:01Z</time>
      </trkpt>
      <trkpt lat="48.21245" lon="-1.51195">
        <ele>98</ele>
        <time>2022-05-21T12:13:17Z</time>
      </trkpt>
      <trkpt lat="48.21288" lon="-1.51132">
        <ele>98</ele>
        <time>2022-05-21T12:13:27Z</time>
      </trkpt>
      <trkpt lat="48.21306" lon="-1.51112">
        <ele>99</ele>
        <time>2022-05-21T12:13:31Z</time>
      </trkpt>
      <trkpt lat="48.21349" lon="-1.51039">
        <ele>100</ele>
        <time>2022-05-21T12:13:43Z</time>
      </trkpt>
      <trkpt lat="48.21372" lon="-1.5096">
        <ele>101</ele>
        <time>2022-05-21T12:13:53Z</time>
      </trkpt>
      <trkpt lat="48.21373" lon="-1.50946">
        <ele>101</ele>
        <time>2022-05-21T12:13:55Z</time>
      </trkpt>
      <trkpt lat="48.21381" lon="-1.50916">
        <ele>102</ele>
        <time>2022-05-21T12:13:58Z</time>
      </trkpt>
      <trkpt lat="48.2139" lon="-1.50856">
        <ele>103</ele>
        <time>2022-05-21T12:14:06Z</time>
      </trkpt>
      <trkpt lat="48.21396" lon="-1.50769">
        <ele>102</ele>
        <time>2022-05-21T12:14:16Z</time>
      </trkpt>
      <trkpt lat="48.21403" lon="-1.50735">
        <ele>102</ele>
        <time>2022-05-21T12:14:20Z</time>
      </trkpt>
      <trkpt lat="48.21412" lon="-1.50662">
        <ele>100</ele>
        <time>2022-05-21T12:14:29Z</time>
      </trkpt>
      <trkpt lat="48.21426" lon="-1.50577">
        <ele>98</ele>
        <time>2022-05-21T12:14:40Z</time>
      </trkpt>
      <trkpt lat="48.21431" lon="-1.50561">
        <ele>97</ele>
        <time>2022-05-21T12:14:42Z</time>
      </trkpt>
      <trkpt lat="48.2147" lon="-1.50456">
        <ele>93</ele>
        <time>2022-05-21T12:14:56Z</time>
      </trkpt>
      <trkpt lat="48.21508" lon="-1.50374">
        <ele>90</ele>
        <time>2022-05-21T12:15:08Z</time>
      </trkpt>
      <trkpt lat="48.21578" lon="-1.50205">
        <ele>84</ele>
        <time>2022-05-21T12:15:31Z</time>
      </trkpt>
      <trkpt lat="48.21586" lon="-1.50184">
        <ele>83</ele>
        <time>2022-05-21T12:15:34Z</time>
      </trkpt>
      <trkpt lat="48.21594" lon="-1.5015">
        <ele>83</ele>
        <time>2022-05-21T12:15:38Z</time>
      </trkpt>
      <trkpt lat="48.21603" lon="-1.50138">
        <ele>83</ele>
        <time>2022-05-21T12:15:41Z</time>
      </trkpt>
      <trkpt lat="48.21627" lon="-1.5007">
        <ele>81</ele>
        <time>2022-05-21T12:15:50Z</time>
      </trkpt>
      <trkpt lat="48.21664" lon="-1.5">
        <ele>81</ele>
        <time>2022-05-21T12:16:00Z</time>
      </trkpt>
      <trkpt lat="48.21687" lon="-1.49966">
        <ele>81</ele>
        <time>2022-05-21T12:16:06Z</time>
      </trkpt>
      <trkpt lat="48.2173" lon="-1.49893">
        <ele>83</ele>
        <time>2022-05-21T12:16:18Z</time>
      </trkpt>
      <trkpt lat="48.21734" lon="-1.49879">
        <ele>83</ele>
        <time>2022-05-21T12:16:19Z</time>
      </trkpt>
      <trkpt lat="48.21737" lon="-1.49848">
        <ele>84</ele>
        <time>2022-05-21T12:16:23Z</time>
      </trkpt>
      <trkpt lat="48.21747" lon="-1.49844">
        <ele>85</ele>
        <time>2022-05-21T12:16:25Z</time>
      </trkpt>
      <trkpt lat="48.21768" lon="-1.49811">
        <ele>87</ele>
        <time>2022-05-21T12:16:30Z</time>
      </trkpt>
      <trkpt lat="48.21777" lon="-1.49803">
        <ele>88</ele>
        <time>2022-05-21T12:16:32Z</time>
      </trkpt>
      <trkpt lat="48.21789" lon="-1.49783">
        <ele>89</ele>
        <time>2022-05-21T12:16:35Z</time>
      </trkpt>
      <trkpt lat="48.21805" lon="-1.49747">
        <ele>91</ele>
        <time>2022-05-21T12:16:41Z</time>
      </trkpt>
      <trkpt lat="48.21838" lon="-1.49688">
        <ele>94</ele>
        <time>2022-05-21T12:16:50Z</time>
      </trkpt>
      <trkpt lat="48.2188" lon="-1.49622">
        <ele>98</ele>
        <time>2022-05-21T12:17:01Z</time>
      </trkpt>
      <trkpt lat="48.21896" lon="-1.49602">
        <ele>100</ele>
        <time>2022-05-21T12:17:04Z</time>
      </trkpt>
      <trkpt lat="48.21913" lon="-1.49587">
        <ele>101</ele>
        <time>2022-05-21T12:17:08Z</time>
      </trkpt>
      <trkpt lat="48.2192" lon="-1.49559">
        <ele>102</ele>
        <time>2022-05-21T12:17:11Z</time>
      </trkpt>
      <trkpt lat="48.22041" lon="-1.49344">
        <ele>104</ele>
        <time>2022-05-21T12:17:45Z</time>
      </trkpt>
      <trkpt lat="48.22117" lon="-1.49216">
        <ele>105</ele>
        <time>2022-05-21T12:18:05Z</time>
      </trkpt>
      <trkpt lat="48.22128" lon="-1.49212">
        <ele>105</ele>
        <time>2022-05-21T12:18:07Z</time>
      </trkpt>
      <trkpt lat="48.22151" lon="-1.49172">
        <ele>105</ele>
        <time>2022-05-21T12:18:13Z</time>
      </trkpt>
      <trkpt lat="48.22179" lon="-1.49111">
        <ele>105</ele>
        <time>2022-05-21T12:18:22Z</time>
      </trkpt>
      <trkpt lat="48.22189" lon="-1.49057">
        <ele>106</ele>
        <time>2022-05-21T12:18:29Z</time>
      </trkpt>
      <trkpt lat="48.22195" lon="-1.49047">
        <ele>106</ele>
        <time>2022-05-21T12:18:30Z</time>
      </trkpt>
      <trkpt lat="48.22214" lon="-1.49036">
        <ele>105</ele>
        <time>2022-05-21T12:18:34Z</time>
      </trkpt>
      <trkpt lat="48.22223" lon="-1.49027">
        <ele>105</ele>
        <time>2022-05-21T12:18:36Z</time>
      </trkpt>
      <trkpt lat="48.22278" lon="-1.4893">
        <ele>105</ele>
        <time>2022-05-21T12:18:51Z</time>
      </trkpt>
      <trkpt lat="48.22295" lon="-1.48891">
        <ele>105</ele>
        <time>2022-05-21T12:18:56Z</time>
      </trkpt>
      <trkpt lat="48.22314" lon="-1.48867">
        <ele>105</ele>
        <time>2022-05-21T12:19:01Z</time>
      </trkpt>
      <trkpt lat="48.22482" lon="-1.48572">
        <ele>96</ele>
        <time>2022-05-21T12:19:47Z</time>
      </trkpt>
      <trkpt lat="48.22646" lon="-1.48296">
        <ele>96</ele>
        <time>2022-05-21T12:20:31Z</time>
      </trkpt>
      <trkpt lat="48.22724" lon="-1.48156">
        <ele>99</ele>
        <time>2022-05-21T12:20:52Z</time>
      </trkpt>
      <trkpt lat="48.22772" lon="-1.4808">
        <ele>103</ele>
        <time>2022-05-21T12:21:05Z</time>
      </trkpt>
      <trkpt lat="48.22806" lon="-1.48021">
        <ele>105</ele>
        <time>2022-05-21T12:21:14Z</time>
      </trkpt>
      <trkpt lat="48.22818" lon="-1.47998">
        <ele>106</ele>
        <time>2022-05-21T12:21:17Z</time>
      </trkpt>
      <trkpt lat="48.22822" lon="-1.47985">
        <ele>107</ele>
        <time>2022-05-21T12:21:19Z</time>
      </trkpt>
      <trkpt lat="48.2282" lon="-1.47971">
        <ele>107</ele>
        <time>2022-05-21T12:21:21Z</time>
      </trkpt>
      <trkpt lat="48.22835" lon="-1.47964">
        <ele>108</ele>
        <time>2022-05-21T12:21:24Z</time>
      </trkpt>
      <trkpt lat="48.22844" lon="-1.47952">
        <ele>108</ele>
        <time>2022-05-21T12:21:26Z</time>
      </trkpt>
      <trkpt lat="48.2285" lon="-1.47938">
        <ele>109</ele>
        <time>2022-05-21T12:21:28Z</time>
      </trkpt>
      <trkpt lat="48.22872" lon="-1.47902">
        <ele>110</ele>
        <time>2022-05-21T12:21:34Z</time>
      </trkpt>
      <trkpt lat="48.22893" lon="-1.47872">
        <ele>110</ele>
        <time>2022-05-21T12:21:39Z</time>
      </trkpt>
      <trkpt lat="48.23093" lon="-1.47522">
        <ele>91</ele>
        <time>2022-05-21T12:22:33Z</time>
      </trkpt>
      <trkpt lat="48.23128" lon="-1.47466">
        <ele>88</ele>
        <time>2022-05-21T12:22:42Z</time>
      </trkpt>
      <trkpt lat="48.23198" lon="-1.47341">
        <ele>81</ele>
        <time>2022-05-21T12:23:02Z</time>
      </trkpt>
      <trkpt lat="48.23267" lon="-1.47228">
        <ele>74</ele>
        <time>2022-05-21T12:23:20Z</time>
      </trkpt>
      <trkpt lat="48.23307" lon="-1.47157">
        <ele>72</ele>
        <time>2022-05-21T12:23:31Z</time>
      </trkpt>
      <trkpt lat="48.234" lon="-1.47007">
        <ele>69</ele>
        <time>2022-05-21T12:23:55Z</time>
      </trkpt>
      <trkpt lat="48.2346" lon="-1.46902">
        <ele>70</ele>
        <time>2022-05-21T12:24:12Z</time>
      </trkpt>
      <trkpt lat="48.23482" lon="-1.46869">
        <ele>68</ele>
        <time>2022-05-21T12:24:17Z</time>
      </trkpt>
      <trkpt lat="48.23697" lon="-1.46497">
        <ele>63</ele>
        <time>2022-05-21T12:25:16Z</time>
      </trkpt>
      <trkpt lat="48.23736" lon="-1.46447">
        <ele>63</ele>
        <time>2022-05-21T12:25:25Z</time>
      </trkpt>
      <trkpt lat="48.23819" lon="-1.46365">
        <ele>62</ele>
        <time>2022-05-21T12:25:42Z</time>
      </trkpt>
      <trkpt lat="48.23838" lon="-1.46342">
        <ele>62</ele>
        <time>2022-05-21T12:25:47Z</time>
      </trkpt>
      <trkpt lat="48.23949" lon="-1.46227">
        <ele>66</ele>
        <time>2022-05-21T12:26:11Z</time>
      </trkpt>
      <trkpt lat="48.23977" lon="-1.46202">
        <ele>68</ele>
        <time>2022-05-21T12:26:17Z</time>
      </trkpt>
      <trkpt lat="48.24049" lon="-1.46148">
        <ele>72</ele>
        <time>2022-05-21T12:26:31Z</time>
      </trkpt>
      <trkpt lat="48.24071" lon="-1.4614">
        <ele>72</ele>
        <time>2022-05-21T12:26:35Z</time>
      </trkpt>
      <trkpt lat="48.2409" lon="-1.46124">
        <ele>73</ele>
        <time>2022-05-21T12:26:39Z</time>
      </trkpt>
      <trkpt lat="48.24119" lon="-1.46111">
        <ele>73</ele>
        <time>2022-05-21T12:26:44Z</time>
      </trkpt>
      <trkpt lat="48.2415" lon="-1.46101">
        <ele>73</ele>
        <time>2022-05-21T12:26:50Z</time>
      </trkpt>
      <trkpt lat="48.24172" lon="-1.46096">
        <ele>73</ele>
        <time>2022-05-21T12:26:54Z</time>
      </trkpt>
      <trkpt lat="48.24251" lon="-1.46087">
        <ele>79</ele>
        <time>2022-05-21T12:27:08Z</time>
      </trkpt>
      <trkpt lat="48.24261" lon="-1.46082">
        <ele>80</ele>
        <time>2022-05-21T12:27:10Z</time>
      </trkpt>
      <trkpt lat="48.24341" lon="-1.46088">
        <ele>87</ele>
        <time>2022-05-21T12:27:24Z</time>
      </trkpt>
      <trkpt lat="48.24381" lon="-1.46095">
        <ele>90</ele>
        <time>2022-05-21T12:27:31Z</time>
      </trkpt>
      <trkpt lat="48.24409" lon="-1.46094">
        <ele>92</ele>
        <time>2022-05-21T12:27:36Z</time>
      </trkpt>
      <trkpt lat="48.24427" lon="-1.46101">
        <ele>94</ele>
        <time>2022-05-21T12:27:39Z</time>
      </trkpt>
      <trkpt lat="48.24437" lon="-1.46102">
        <ele>94</ele>
        <time>2022-05-21T12:27:41Z</time>
      </trkpt>
      <trkpt lat="48.24479" lon="-1.46101">
        <ele>95</ele>
        <time>2022-05-21T12:27:49Z</time>
      </trkpt>
      <trkpt lat="48.24502" lon="-1.46095">
        <ele>96</ele>
        <time>2022-05-21T12:27:53Z</time>
      </trkpt>
      <trkpt lat="48.24526" lon="-1.46081">
        <ele>96</ele>
        <time>2022-05-21T12:27:57Z</time>
      </trkpt>
      <trkpt lat="48.24554" lon="-1.46054">
        <ele>96</ele>
        <time>2022-05-21T12:28:03Z</time>
      </trkpt>
      <trkpt lat="48.24574" lon="-1.46022">
        <ele>96</ele>
        <time>2022-05-21T12:28:09Z</time>
      </trkpt>
      <trkpt lat="48.24594" lon="-1.45969">
        <ele>96</ele>
        <time>2022-05-21T12:28:16Z</time>
      </trkpt>
      <trkpt lat="48.24602" lon="-1.45931">
        <ele>96</ele>
        <time>2022-05-21T12:28:20Z</time>
      </trkpt>
      <trkpt lat="48.24605" lon="-1.45902">
        <ele>96</ele>
        <time>2022-05-21T12:28:24Z</time>
      </trkpt>
      <trkpt lat="48.24607" lon="-1.45872">
        <ele>96</ele>
        <time>2022-05-21T12:28:28Z</time>
      </trkpt>
      <trkpt lat="48.24605" lon="-1.4581">
        <ele>96</ele>
        <time>2022-05-21T12:28:35Z</time>
      </trkpt>
      <trkpt lat="48.24595" lon="-1.45682">
        <ele>96</ele>
        <time>2022-05-21T12:28:50Z</time>
      </trkpt>
      <trkpt lat="48.24595" lon="-1.45652">
        <ele>96</ele>
        <time>2022-05-21T12:28:54Z</time>
      </trkpt>
      <trkpt lat="48.24535" lon="-1.44941">
        <ele>97</ele>
        <time>2022-05-21T12:30:19Z</time>
      </trkpt>
      <trkpt lat="48.24534" lon="-1.44925">
        <ele>97</ele>
        <time>2022-05-21T12:30:21Z</time>
      </trkpt>
      <trkpt lat="48.24538" lon="-1.44876">
        <ele>97</ele>
        <time>2022-05-21T12:30:26Z</time>
      </trkpt>
      <trkpt lat="48.24561" lon="-1.4481">
        <ele>97</ele>
        <time>2022-05-21T12:30:35Z</time>
      </trkpt>
      <trkpt lat="48.24724" lon="-1.44411">
        <ele>97</ele>
        <time>2022-05-21T12:31:31Z</time>
      </trkpt>
      <trkpt lat="48.24762" lon="-1.44299">
        <ele>98</ele>
        <time>2022-05-21T12:31:46Z</time>
      </trkpt>
      <trkpt lat="48.24791" lon="-1.44201">
        <ele>100</ele>
        <time>2022-05-21T12:31:58Z</time>
      </trkpt>
      <trkpt lat="48.24847" lon="-1.44027">
        <ele>100</ele>
        <time>2022-05-21T12:32:21Z</time>
      </trkpt>
      <trkpt lat="48.24879" lon="-1.43896">
        <ele>98</ele>
        <time>2022-05-21T12:32:38Z</time>
      </trkpt>
      <trkpt lat="48.24969" lon="-1.43556">
        <ele>97</ele>
        <time>2022-05-21T12:33:21Z</time>
      </trkpt>
      <trkpt lat="48.24987" lon="-1.43498">
        <ele>96</ele>
        <time>2022-05-21T12:33:29Z</time>
      </trkpt>
      <trkpt lat="48.25048" lon="-1.43274">
        <ele>95</ele>
        <time>2022-05-21T12:33:57Z</time>
      </trkpt>
      <trkpt lat="48.25113" lon="-1.431">
        <ele>98</ele>
        <time>2022-05-21T12:34:21Z</time>
      </trkpt>
      <trkpt lat="48.25179" lon="-1.42951">
        <ele>101</ele>
        <time>2022-05-21T12:34:42Z</time>
      </trkpt>
      <trkpt lat="48.25214" lon="-1.42861">
        <ele>103</ele>
        <time>2022-05-21T12:34:54Z</time>
      </trkpt>
      <trkpt lat="48.25468" lon="-1.42139">
        <ele>104</ele>
        <time>2022-05-21T12:36:31Z</time>
      </trkpt>
      <trkpt lat="48.25517" lon="-1.41991">
        <ele>106</ele>
        <time>2022-05-21T12:36:51Z</time>
      </trkpt>
      <trkpt lat="48.25542" lon="-1.41926">
        <ele>107</ele>
        <time>2022-05-21T12:37:00Z</time>
      </trkpt>
      <trkpt lat="48.25576" lon="-1.41827">
        <ele>108</ele>
        <time>2022-05-21T12:37:13Z</time>
      </trkpt>
      <trkpt lat="48.25597" lon="-1.41776">
        <ele>108</ele>
        <time>2022-05-21T12:37:20Z</time>
      </trkpt>
      <trkpt lat="48.25657" lon="-1.41579">
        <ele>110</ele>
        <time>2022-05-21T12:37:46Z</time>
      </trkpt>
      <trkpt lat="48.2568" lon="-1.41527">
        <ele>110</ele>
        <time>2022-05-21T12:37:53Z</time>
      </trkpt>
      <trkpt lat="48.2571" lon="-1.41478">
        <ele>108</ele>
        <time>2022-05-21T12:38:01Z</time>
      </trkpt>
      <trkpt lat="48.25739" lon="-1.4144">
        <ele>107</ele>
        <time>2022-05-21T12:38:08Z</time>
      </trkpt>
      <trkpt lat="48.25786" lon="-1.41391">
        <ele>108</ele>
        <time>2022-05-21T12:38:18Z</time>
      </trkpt>
      <trkpt lat="48.25808" lon="-1.41358">
        <ele>109</ele>
        <time>2022-05-21T12:38:23Z</time>
      </trkpt>
      <trkpt lat="48.25819" lon="-1.41335">
        <ele>109</ele>
        <time>2022-05-21T12:38:27Z</time>
      </trkpt>
      <trkpt lat="48.25815" lon="-1.41297">
        <ele>109</ele>
        <time>2022-05-21T12:38:31Z</time>
      </trkpt>
      <trkpt lat="48.25816" lon="-1.41282">
        <ele>109</ele>
        <time>2022-05-21T12:38:33Z</time>
      </trkpt>
      <trkpt lat="48.2582" lon="-1.41268">
        <ele>109</ele>
        <time>2022-05-21T12:38:35Z</time>
      </trkpt>
      <trkpt lat="48.25838" lon="-1.41232">
        <ele>108</ele>
        <time>2022-05-21T12:38:40Z</time>
      </trkpt>
      <trkpt lat="48.25841" lon="-1.41215">
        <ele>108</ele>
        <time>2022-05-21T12:38:42Z</time>
      </trkpt>
      <trkpt lat="48.25845" lon="-1.41109">
        <ele>110</ele>
        <time>2022-05-21T12:38:55Z</time>
      </trkpt>
      <trkpt lat="48.25848" lon="-1.41089">
        <ele>110</ele>
        <time>2022-05-21T12:38:57Z</time>
      </trkpt>
      <trkpt lat="48.25873" lon="-1.41026">
        <ele>111</ele>
        <time>2022-05-21T12:39:06Z</time>
      </trkpt>
      <trkpt lat="48.25877" lon="-1.41009">
        <ele>111</ele>
        <time>2022-05-21T12:39:08Z</time>
      </trkpt>
      <trkpt lat="48.25879" lon="-1.4098">
        <ele>111</ele>
        <time>2022-05-21T12:39:12Z</time>
      </trkpt>
      <trkpt lat="48.25875" lon="-1.40966">
        <ele>111</ele>
        <time>2022-05-21T12:39:14Z</time>
      </trkpt>
      <trkpt lat="48.25884" lon="-1.40961">
        <ele>111</ele>
        <time>2022-05-21T12:39:15Z</time>
      </trkpt>
      <trkpt lat="48.2589" lon="-1.40948">
        <ele>111</ele>
        <time>2022-05-21T12:39:17Z</time>
      </trkpt>
      <trkpt lat="48.25904" lon="-1.40903">
        <ele>111</ele>
        <time>2022-05-21T12:39:23Z</time>
      </trkpt>
      <trkpt lat="48.25919" lon="-1.40818">
        <ele>111</ele>
        <time>2022-05-21T12:39:33Z</time>
      </trkpt>
      <trkpt lat="48.25966" lon="-1.40586">
        <ele>113</ele>
        <time>2022-05-21T12:40:02Z</time>
      </trkpt>
      <trkpt lat="48.25986" lon="-1.40536">
        <ele>113</ele>
        <time>2022-05-21T12:40:09Z</time>
      </trkpt>
      <trkpt lat="48.25996" lon="-1.40523">
        <ele>113</ele>
        <time>2022-05-21T12:40:11Z</time>
      </trkpt>
      <trkpt lat="48.26018" lon="-1.40502">
        <ele>113</ele>
        <time>2022-05-21T12:40:16Z</time>
      </trkpt>
      <trkpt lat="48.2605" lon="-1.40477">
        <ele>114</ele>
        <time>2022-05-21T12:40:22Z</time>
      </trkpt>
      <trkpt lat="48.26125" lon="-1.40425">
        <ele>118</ele>
        <time>2022-05-21T12:40:37Z</time>
      </trkpt>
      <trkpt lat="48.26131" lon="-1.40415">
        <ele>118</ele>
        <time>2022-05-21T12:40:39Z</time>
      </trkpt>
      <trkpt lat="48.26139" lon="-1.4034">
        <ele>118</ele>
        <time>2022-05-21T12:40:48Z</time>
      </trkpt>
      <trkpt lat="48.26148" lon="-1.40283">
        <ele>117</ele>
        <time>2022-05-21T12:40:55Z</time>
      </trkpt>
      <trkpt lat="48.26145" lon="-1.40237">
        <ele>117</ele>
        <time>2022-05-21T12:41:00Z</time>
      </trkpt>
      <trkpt lat="48.26146" lon="-1.40171">
        <ele>117</ele>
        <time>2022-05-21T12:41:08Z</time>
      </trkpt>
      <trkpt lat="48.26142" lon="-1.40095">
        <ele>115</ele>
        <time>2022-05-21T12:41:17Z</time>
      </trkpt>
      <trkpt lat="48.26144" lon="-1.40058">
        <ele>115</ele>
        <time>2022-05-21T12:41:21Z</time>
      </trkpt>
      <trkpt lat="48.26142" lon="-1.4002">
        <ele>115</ele>
        <time>2022-05-21T12:41:26Z</time>
      </trkpt>
      <trkpt lat="48.26155" lon="-1.40015">
        <ele>115</ele>
        <time>2022-05-21T12:41:28Z</time>
      </trkpt>
      <trkpt lat="48.26164" lon="-1.40007">
        <ele>115</ele>
        <time>2022-05-21T12:41:30Z</time>
      </trkpt>
      <trkpt lat="48.26197" lon="-1.39962">
        <ele>110</ele>
        <time>2022-05-21T12:41:38Z</time>
      </trkpt>
      <trkpt lat="48.26178" lon="-1.39893">
        <ele>112</ele>
        <time>2022-05-21T12:41:47Z</time>
      </trkpt>
      <trkpt lat="48.26169" lon="-1.39834">
        <ele>113</ele>
        <time>2022-05-21T12:41:54Z</time>
      </trkpt>
      <trkpt lat="48.26165" lon="-1.39712">
        <ele>110</ele>
        <time>2022-05-21T12:42:09Z</time>
      </trkpt>
      <trkpt lat="48.2616" lon="-1.39683">
        <ele>110</ele>
        <time>2022-05-21T12:42:12Z</time>
      </trkpt>
      <trkpt lat="48.2616" lon="-1.39667">
        <ele>109</ele>
        <time>2022-05-21T12:42:14Z</time>
      </trkpt>
      <trkpt lat="48.26162" lon="-1.3965">
        <ele>109</ele>
        <time>2022-05-21T12:42:16Z</time>
      </trkpt>
      <trkpt lat="48.26178" lon="-1.39623">
        <ele>107</ele>
        <time>2022-05-21T12:42:20Z</time>
      </trkpt>
      <trkpt lat="48.26186" lon="-1.39603">
        <ele>106</ele>
        <time>2022-05-21T12:42:23Z</time>
      </trkpt>
      <trkpt lat="48.26201" lon="-1.39529">
        <ele>102</ele>
        <time>2022-05-21T12:42:32Z</time>
      </trkpt>
      <trkpt lat="48.26212" lon="-1.39489">
        <ele>100</ele>
        <time>2022-05-21T12:42:37Z</time>
      </trkpt>
      <trkpt lat="48.26222" lon="-1.39397">
        <ele>96</ele>
        <time>2022-05-21T12:42:48Z</time>
      </trkpt>
      <trkpt lat="48.26216" lon="-1.39203">
        <ele>89</ele>
        <time>2022-05-21T12:43:11Z</time>
      </trkpt>
      <trkpt lat="48.26209" lon="-1.39102">
        <ele>87</ele>
        <time>2022-05-21T12:43:23Z</time>
      </trkpt>
      <trkpt lat="48.26196" lon="-1.38981">
        <ele>89</ele>
        <time>2022-05-21T12:43:38Z</time>
      </trkpt>
      <trkpt lat="48.26199" lon="-1.3892">
        <ele>89</ele>
        <time>2022-05-21T12:43:45Z</time>
      </trkpt>
      <trkpt lat="48.26202" lon="-1.38906">
        <ele>89</ele>
        <time>2022-05-21T12:43:47Z</time>
      </trkpt>
      <trkpt lat="48.26213" lon="-1.38784">
        <ele>89</ele>
        <time>2022-05-21T12:44:02Z</time>
      </trkpt>
      <trkpt lat="48.26211" lon="-1.38704">
        <ele>89</ele>
        <time>2022-05-21T12:44:11Z</time>
      </trkpt>
      <trkpt lat="48.26203" lon="-1.38626">
        <ele>90</ele>
        <time>2022-05-21T12:44:20Z</time>
      </trkpt>
      <trkpt lat="48.26204" lon="-1.38572">
        <ele>92</ele>
        <time>2022-05-21T12:44:27Z</time>
      </trkpt>
      <trkpt lat="48.2621" lon="-1.3851">
        <ele>93</ele>
        <time>2022-05-21T12:44:34Z</time>
      </trkpt>
      <trkpt lat="48.26214" lon="-1.3843">
        <ele>93</ele>
        <time>2022-05-21T12:44:44Z</time>
      </trkpt>
      <trkpt lat="48.26223" lon="-1.38362">
        <ele>93</ele>
        <time>2022-05-21T12:44:52Z</time>
      </trkpt>
      <trkpt lat="48.26266" lon="-1.38226">
        <ele>91</ele>
        <time>2022-05-21T12:45:10Z</time>
      </trkpt>
      <trkpt lat="48.2628" lon="-1.38153">
        <ele>91</ele>
        <time>2022-05-21T12:45:19Z</time>
      </trkpt>
      <trkpt lat="48.26288" lon="-1.38086">
        <ele>91</ele>
        <time>2022-05-21T12:45:27Z</time>
      </trkpt>
      <trkpt lat="48.26288" lon="-1.38052">
        <ele>91</ele>
        <time>2022-05-21T12:45:31Z</time>
      </trkpt>
      <trkpt lat="48.26271" lon="-1.37958">
        <ele>91</ele>
        <time>2022-05-21T12:45:42Z</time>
      </trkpt>
      <trkpt lat="48.26268" lon="-1.37927">
        <ele>91</ele>
        <time>2022-05-21T12:45:46Z</time>
      </trkpt>
      <trkpt lat="48.26273" lon="-1.37828">
        <ele>91</ele>
        <time>2022-05-21T12:45:58Z</time>
      </trkpt>
      <trkpt lat="48.26271" lon="-1.3776">
        <ele>91</ele>
        <time>2022-05-21T12:46:06Z</time>
      </trkpt>
      <trkpt lat="48.26237" lon="-1.37475">
        <ele>90</ele>
        <time>2022-05-21T12:46:40Z</time>
      </trkpt>
      <trkpt lat="48.26211" lon="-1.37304">
        <ele>91</ele>
        <time>2022-05-21T12:47:01Z</time>
      </trkpt>
      <trkpt lat="48.2622" lon="-1.3729">
        <ele>90</ele>
        <time>2022-05-21T12:47:03Z</time>
      </trkpt>
      <trkpt lat="48.26231" lon="-1.37288">
        <ele>90</ele>
        <time>2022-05-21T12:47:05Z</time>
      </trkpt>
      <trkpt lat="48.26334" lon="-1.37251">
        <ele>83</ele>
        <time>2022-05-21T12:47:24Z</time>
      </trkpt>
      <trkpt lat="48.26377" lon="-1.37239">
        <ele>83</ele>
        <time>2022-05-21T12:47:32Z</time>
      </trkpt>
      <trkpt lat="48.26391" lon="-1.37233">
        <ele>83</ele>
        <time>2022-05-21T12:47:34Z</time>
      </trkpt>
      <trkpt lat="48.26403" lon="-1.37226">
        <ele>83</ele>
        <time>2022-05-21T12:47:37Z</time>
      </trkpt>
      <trkpt lat="48.26405" lon="-1.3721">
        <ele>84</ele>
        <time>2022-05-21T12:47:39Z</time>
      </trkpt>
      <trkpt lat="48.26388" lon="-1.3715">
        <ele>84</ele>
        <time>2022-05-21T12:47:46Z</time>
      </trkpt>
      <trkpt lat="48.26351" lon="-1.36988">
        <ele>86</ele>
        <time>2022-05-21T12:48:07Z</time>
      </trkpt>
      <trkpt lat="48.26327" lon="-1.36894">
        <ele>85</ele>
        <time>2022-05-21T12:48:19Z</time>
      </trkpt>
      <trkpt lat="48.2632" lon="-1.36833">
        <ele>85</ele>
        <time>2022-05-21T12:48:26Z</time>
      </trkpt>
      <trkpt lat="48.26322" lon="-1.36424">
        <ele>81</ele>
        <time>2022-05-21T12:49:14Z</time>
      </trkpt>
      <trkpt lat="48.26339" lon="-1.36295">
        <ele>78</ele>
        <time>2022-05-21T12:49:30Z</time>
      </trkpt>
      <trkpt lat="48.26339" lon="-1.36281">
        <ele>78</ele>
        <time>2022-05-21T12:49:32Z</time>
      </trkpt>
      <trkpt lat="48.26321" lon="-1.36135">
        <ele>76</ele>
        <time>2022-05-21T12:49:49Z</time>
      </trkpt>
      <trkpt lat="48.26314" lon="-1.36101">
        <ele>75</ele>
        <time>2022-05-21T12:49:53Z</time>
      </trkpt>
      <trkpt lat="48.2629" lon="-1.36046">
        <ele>75</ele>
        <time>2022-05-21T12:50:01Z</time>
      </trkpt>
      <trkpt lat="48.26277" lon="-1.36005">
        <ele>75</ele>
        <time>2022-05-21T12:50:07Z</time>
      </trkpt>
      <trkpt lat="48.26228" lon="-1.3582">
        <ele>79</ele>
        <time>2022-05-21T12:50:30Z</time>
      </trkpt>
      <trkpt lat="48.26215" lon="-1.35764">
        <ele>82</ele>
        <time>2022-05-21T12:50:37Z</time>
      </trkpt>
      <trkpt lat="48.26215" lon="-1.35749">
        <ele>82</ele>
        <time>2022-05-21T12:50:39Z</time>
      </trkpt>
      <trkpt lat="48.26221" lon="-1.35737">
        <ele>82</ele>
        <time>2022-05-21T12:50:41Z</time>
      </trkpt>
      <trkpt lat="48.2623" lon="-1.35726">
        <ele>81</ele>
        <time>2022-05-21T12:50:43Z</time>
      </trkpt>
      <trkpt lat="48.26273" lon="-1.35696">
        <ele>78</ele>
        <time>2022-05-21T12:50:51Z</time>
      </trkpt>
      <trkpt lat="48.26294" lon="-1.35673">
        <ele>77</ele>
        <time>2022-05-21T12:50:56Z</time>
      </trkpt>
      <trkpt lat="48.26314" lon="-1.35644">
        <ele>75</ele>
        <time>2022-05-21T12:51:01Z</time>
      </trkpt>
      <trkpt lat="48.26341" lon="-1.35595">
        <ele>73</ele>
        <time>2022-05-21T12:51:08Z</time>
      </trkpt>
      <trkpt lat="48.26353" lon="-1.35558">
        <ele>74</ele>
        <time>2022-05-21T12:51:13Z</time>
      </trkpt>
      <trkpt lat="48.26386" lon="-1.35428">
        <ele>74</ele>
        <time>2022-05-21T12:51:30Z</time>
      </trkpt>
      <trkpt lat="48.26407" lon="-1.35331">
        <ele>71</ele>
        <time>2022-05-21T12:51:42Z</time>
      </trkpt>
      <trkpt lat="48.26473" lon="-1.34987">
        <ele>66</ele>
        <time>2022-05-21T12:52:24Z</time>
      </trkpt>
      <trkpt lat="48.26489" lon="-1.34938">
        <ele>65</ele>
        <time>2022-05-21T12:52:31Z</time>
      </trkpt>
      <trkpt lat="48.26615" lon="-1.34695">
        <ele>65</ele>
        <time>2022-05-21T12:53:07Z</time>
      </trkpt>
      <trkpt lat="48.26775" lon="-1.34408">
        <ele>63</ele>
        <time>2022-05-21T12:53:52Z</time>
      </trkpt>
      <trkpt lat="48.26827" lon="-1.34309">
        <ele>62</ele>
        <time>2022-05-21T12:54:06Z</time>
      </trkpt>
      <trkpt lat="48.26924" lon="-1.34074">
        <ele>64</ele>
        <time>2022-05-21T12:54:39Z</time>
      </trkpt>
      <trkpt lat="48.26985" lon="-1.33934">
        <ele>66</ele>
        <time>2022-05-21T12:54:59Z</time>
      </trkpt>
      <trkpt lat="48.27002" lon="-1.33908">
        <ele>66</ele>
        <time>2022-05-21T12:55:03Z</time>
      </trkpt>
      <trkpt lat="48.2703" lon="-1.33874">
        <ele>66</ele>
        <time>2022-05-21T12:55:10Z</time>
      </trkpt>
      <trkpt lat="48.27141" lon="-1.33763">
        <ele>66</ele>
        <time>2022-05-21T12:55:33Z</time>
      </trkpt>
      <trkpt lat="48.27217" lon="-1.3368">
        <ele>67</ele>
        <time>2022-05-21T12:55:50Z</time>
      </trkpt>
      <trkpt lat="48.27241" lon="-1.33645">
        <ele>66</ele>
        <time>2022-05-21T12:55:56Z</time>
      </trkpt>
      <trkpt lat="48.27377" lon="-1.33425">
        <ele>63</ele>
        <time>2022-05-21T12:56:32Z</time>
      </trkpt>
      <trkpt lat="48.27394" lon="-1.33391">
        <ele>63</ele>
        <time>2022-05-21T12:56:37Z</time>
      </trkpt>
      <trkpt lat="48.27406" lon="-1.33349">
        <ele>63</ele>
        <time>2022-05-21T12:56:42Z</time>
      </trkpt>
      <trkpt lat="48.27409" lon="-1.33327">
        <ele>63</ele>
        <time>2022-05-21T12:56:45Z</time>
      </trkpt>
      <trkpt lat="48.27413" lon="-1.33241">
        <ele>62</ele>
        <time>2022-05-21T12:56:55Z</time>
      </trkpt>
      <trkpt lat="48.27419" lon="-1.33223">
        <ele>61</ele>
        <time>2022-05-21T12:56:57Z</time>
      </trkpt>
      <trkpt lat="48.27433" lon="-1.33194">
        <ele>61</ele>
        <time>2022-05-21T12:57:02Z</time>
      </trkpt>
      <trkpt lat="48.2754" lon="-1.33016">
        <ele>64</ele>
        <time>2022-05-21T12:57:30Z</time>
      </trkpt>
      <trkpt lat="48.27555" lon="-1.32996">
        <ele>64</ele>
        <time>2022-05-21T12:57:34Z</time>
      </trkpt>
      <trkpt lat="48.27603" lon="-1.32945">
        <ele>65</ele>
        <time>2022-05-21T12:57:44Z</time>
      </trkpt>
      <trkpt lat="48.27645" lon="-1.32904">
        <ele>65</ele>
        <time>2022-05-21T12:57:53Z</time>
      </trkpt>
      <trkpt lat="48.2768" lon="-1.32876">
        <ele>67</ele>
        <time>2022-05-21T12:58:00Z</time>
      </trkpt>
      <trkpt lat="48.27744" lon="-1.32841">
        <ele>70</ele>
        <time>2022-05-21T12:58:12Z</time>
      </trkpt>
      <trkpt lat="48.27839" lon="-1.32796">
        <ele>72</ele>
        <time>2022-05-21T12:58:30Z</time>
      </trkpt>
      <trkpt lat="48.27849" lon="-1.32788">
        <ele>72</ele>
        <time>2022-05-21T12:58:32Z</time>
      </trkpt>
      <trkpt lat="48.27912" lon="-1.32759">
        <ele>74</ele>
        <time>2022-05-21T12:58:44Z</time>
      </trkpt>
      <trkpt lat="48.27935" lon="-1.32751">
        <ele>74</ele>
        <time>2022-05-21T12:58:48Z</time>
      </trkpt>
      <trkpt lat="48.27945" lon="-1.32753">
        <ele>74</ele>
        <time>2022-05-21T12:58:50Z</time>
      </trkpt>
      <trkpt lat="48.27954" lon="-1.32758">
        <ele>74</ele>
        <time>2022-05-21T12:58:51Z</time>
      </trkpt>
      <trkpt lat="48.27972" lon="-1.32775">
        <ele>73</ele>
        <time>2022-05-21T12:58:55Z</time>
      </trkpt>
      <trkpt lat="48.27994" lon="-1.32813">
        <ele>74</ele>
        <time>2022-05-21T12:59:01Z</time>
      </trkpt>
      <trkpt lat="48.28004" lon="-1.32817">
        <ele>74</ele>
        <time>2022-05-21T12:59:03Z</time>
      </trkpt>
      <trkpt lat="48.28014" lon="-1.32815">
        <ele>73</ele>
        <time>2022-05-21T12:59:05Z</time>
      </trkpt>
      <trkpt lat="48.28035" lon="-1.32804">
        <ele>73</ele>
        <time>2022-05-21T12:59:09Z</time>
      </trkpt>
      <trkpt lat="48.2807" lon="-1.32782">
        <ele>72</ele>
        <time>2022-05-21T12:59:15Z</time>
      </trkpt>
      <trkpt lat="48.28134" lon="-1.32747">
        <ele>71</ele>
        <time>2022-05-21T12:59:28Z</time>
      </trkpt>
      <trkpt lat="48.28175" lon="-1.32737">
        <ele>70</ele>
        <time>2022-05-21T12:59:35Z</time>
      </trkpt>
      <trkpt lat="48.28203" lon="-1.32722">
        <ele>69</ele>
        <time>2022-05-21T12:59:40Z</time>
      </trkpt>
      <trkpt lat="48.2834" lon="-1.32605">
        <ele>65</ele>
        <time>2022-05-21T13:00:08Z</time>
      </trkpt>
      <trkpt lat="48.28364" lon="-1.32577">
        <ele>65</ele>
        <time>2022-05-21T13:00:14Z</time>
      </trkpt>
      <trkpt lat="48.28375" lon="-1.32561">
        <ele>65</ele>
        <time>2022-05-21T13:00:16Z</time>
      </trkpt>
      <trkpt lat="48.28391" lon="-1.32522">
        <ele>64</ele>
        <time>2022-05-21T13:00:22Z</time>
      </trkpt>
      <trkpt lat="48.28401" lon="-1.32506">
        <ele>64</ele>
        <time>2022-05-21T13:00:24Z</time>
      </trkpt>
      <trkpt lat="48.28423" lon="-1.32479">
        <ele>64</ele>
        <time>2022-05-21T13:00:29Z</time>
      </trkpt>
      <trkpt lat="48.28448" lon="-1.32459">
        <ele>63</ele>
        <time>2022-05-21T13:00:34Z</time>
      </trkpt>
      <trkpt lat="48.28473" lon="-1.32433">
        <ele>62</ele>
        <time>2022-05-21T13:00:40Z</time>
      </trkpt>
      <trkpt lat="48.28485" lon="-1.32417">
        <ele>62</ele>
        <time>2022-05-21T13:00:43Z</time>
      </trkpt>
      <trkpt lat="48.28507" lon="-1.3238">
        <ele>62</ele>
        <time>2022-05-21T13:00:49Z</time>
      </trkpt>
      <trkpt lat="48.28531" lon="-1.32325">
        <ele>60</ele>
        <time>2022-05-21T13:00:56Z</time>
      </trkpt>
      <trkpt lat="48.28543" lon="-1.32304">
        <ele>59</ele>
        <time>2022-05-21T13:01:00Z</time>
      </trkpt>
      <trkpt lat="48.2855" lon="-1.32294">
        <ele>59</ele>
        <time>2022-05-21T13:01:01Z</time>
      </trkpt>
      <trkpt lat="48.28574" lon="-1.3227">
        <ele>57</ele>
        <time>2022-05-21T13:01:07Z</time>
      </trkpt>
      <trkpt lat="48.28611" lon="-1.32246">
        <ele>55</ele>
        <time>2022-05-21T13:01:14Z</time>
      </trkpt>
      <trkpt lat="48.2864" lon="-1.32233">
        <ele>54</ele>
        <time>2022-05-21T13:01:19Z</time>
      </trkpt>
      <trkpt lat="48.28936" lon="-1.32071">
        <ele>52</ele>
        <time>2022-05-21T13:02:15Z</time>
      </trkpt>
      <trkpt lat="48.29017" lon="-1.32024">
        <ele>53</ele>
        <time>2022-05-21T13:02:31Z</time>
      </trkpt>
      <trkpt lat="48.29054" lon="-1.32008">
        <ele>53</ele>
        <time>2022-05-21T13:02:37Z</time>
      </trkpt>
      <trkpt lat="48.29105" lon="-1.31978">
        <ele>53</ele>
        <time>2022-05-21T13:02:47Z</time>
      </trkpt>
      <trkpt lat="48.29159" lon="-1.31928">
        <ele>55</ele>
        <time>2022-05-21T13:02:58Z</time>
      </trkpt>
      <trkpt lat="48.29174" lon="-1.3191">
        <ele>55</ele>
        <time>2022-05-21T13:03:02Z</time>
      </trkpt>
      <trkpt lat="48.29264" lon="-1.31823">
        <ele>56</ele>
        <time>2022-05-21T13:03:21Z</time>
      </trkpt>
      <trkpt lat="48.29323" lon="-1.31753">
        <ele>55</ele>
        <time>2022-05-21T13:03:34Z</time>
      </trkpt>
      <trkpt lat="48.29347" lon="-1.31721">
        <ele>56</ele>
        <time>2022-05-21T13:03:40Z</time>
      </trkpt>
      <trkpt lat="48.294" lon="-1.31641">
        <ele>57</ele>
        <time>2022-05-21T13:03:53Z</time>
      </trkpt>
      <trkpt lat="48.2949" lon="-1.31518">
        <ele>59</ele>
        <time>2022-05-21T13:04:15Z</time>
      </trkpt>
      <trkpt lat="48.29546" lon="-1.31419">
        <ele>63</ele>
        <time>2022-05-21T13:04:30Z</time>
      </trkpt>
      <trkpt lat="48.29569" lon="-1.31372">
        <ele>66</ele>
        <time>2022-05-21T13:04:37Z</time>
      </trkpt>
      <trkpt lat="48.29573" lon="-1.31359">
        <ele>67</ele>
        <time>2022-05-21T13:04:39Z</time>
      </trkpt>
      <trkpt lat="48.29644" lon="-1.31252">
        <ele>70</ele>
        <time>2022-05-21T13:04:57Z</time>
      </trkpt>
      <trkpt lat="48.29664" lon="-1.31234">
        <ele>70</ele>
        <time>2022-05-21T13:05:01Z</time>
      </trkpt>
      <trkpt lat="48.29714" lon="-1.3122">
        <ele>68</ele>
        <time>2022-05-21T13:05:10Z</time>
      </trkpt>
      <trkpt lat="48.29811" lon="-1.31202">
        <ele>62</ele>
        <time>2022-05-21T13:05:27Z</time>
      </trkpt>
      <trkpt lat="48.29826" lon="-1.31196">
        <ele>61</ele>
        <time>2022-05-21T13:05:30Z</time>
      </trkpt>
      <trkpt lat="48.2984" lon="-1.31187">
        <ele>60</ele>
        <time>2022-05-21T13:05:33Z</time>
      </trkpt>
      <trkpt lat="48.2985" lon="-1.31171">
        <ele>61</ele>
        <time>2022-05-21T13:05:36Z</time>
      </trkpt>
      <trkpt lat="48.29874" lon="-1.31119">
        <ele>62</ele>
        <time>2022-05-21T13:05:43Z</time>
      </trkpt>
      <trkpt lat="48.29883" lon="-1.31106">
        <ele>62</ele>
        <time>2022-05-21T13:05:45Z</time>
      </trkpt>
      <trkpt lat="48.29903" lon="-1.31087">
        <ele>62</ele>
        <time>2022-05-21T13:05:49Z</time>
      </trkpt>
      <trkpt lat="48.29914" lon="-1.31083">
        <ele>62</ele>
        <time>2022-05-21T13:05:51Z</time>
      </trkpt>
      <trkpt lat="48.29947" lon="-1.31078">
        <ele>61</ele>
        <time>2022-05-21T13:05:57Z</time>
      </trkpt>
      <trkpt lat="48.29988" lon="-1.31064">
        <ele>60</ele>
        <time>2022-05-21T13:06:05Z</time>
      </trkpt>
      <trkpt lat="48.29998" lon="-1.31059">
        <ele>59</ele>
        <time>2022-05-21T13:06:07Z</time>
      </trkpt>
      <trkpt lat="48.30036" lon="-1.31026">
        <ele>58</ele>
        <time>2022-05-21T13:06:15Z</time>
      </trkpt>
      <trkpt lat="48.30064" lon="-1.31012">
        <ele>56</ele>
        <time>2022-05-21T13:06:20Z</time>
      </trkpt>
      <trkpt lat="48.30094" lon="-1.31007">
        <ele>55</ele>
        <time>2022-05-21T13:06:25Z</time>
      </trkpt>
      <trkpt lat="48.30149" lon="-1.31006">
        <ele>53</ele>
        <time>2022-05-21T13:06:35Z</time>
      </trkpt>
      <trkpt lat="48.30162" lon="-1.31002">
        <ele>52</ele>
        <time>2022-05-21T13:06:37Z</time>
      </trkpt>
      <trkpt lat="48.30185" lon="-1.30987">
        <ele>52</ele>
        <time>2022-05-21T13:06:42Z</time>
      </trkpt>
      <trkpt lat="48.30277" lon="-1.30894">
        <ele>53</ele>
        <time>2022-05-21T13:07:02Z</time>
      </trkpt>
      <trkpt lat="48.30307" lon="-1.30875">
        <ele>54</ele>
        <time>2022-05-21T13:07:07Z</time>
      </trkpt>
      <trkpt lat="48.30326" lon="-1.30866">
        <ele>54</ele>
        <time>2022-05-21T13:07:11Z</time>
      </trkpt>
      <trkpt lat="48.30417" lon="-1.30827">
        <ele>56</ele>
        <time>2022-05-21T13:07:28Z</time>
      </trkpt>
      <trkpt lat="48.30493" lon="-1.3081">
        <ele>58</ele>
        <time>2022-05-21T13:07:41Z</time>
      </trkpt>
      <trkpt lat="48.30605" lon="-1.30793">
        <ele>61</ele>
        <time>2022-05-21T13:08:01Z</time>
      </trkpt>
      <trkpt lat="48.30615" lon="-1.3079">
        <ele>61</ele>
        <time>2022-05-21T13:08:03Z</time>
      </trkpt>
      <trkpt lat="48.30624" lon="-1.30782">
        <ele>62</ele>
        <time>2022-05-21T13:08:05Z</time>
      </trkpt>
      <trkpt lat="48.30671" lon="-1.30612">
        <ele>62</ele>
        <time>2022-05-21T13:08:27Z</time>
      </trkpt>
      <trkpt lat="48.3071" lon="-1.30508">
        <ele>63</ele>
        <time>2022-05-21T13:08:41Z</time>
      </trkpt>
      <trkpt lat="48.30743" lon="-1.30405">
        <ele>62</ele>
        <time>2022-05-21T13:08:54Z</time>
      </trkpt>
      <trkpt lat="48.3081" lon="-1.30152">
        <ele>67</ele>
        <time>2022-05-21T13:09:27Z</time>
      </trkpt>
      <trkpt lat="48.3082" lon="-1.30105">
        <ele>67</ele>
        <time>2022-05-21T13:09:33Z</time>
      </trkpt>
      <trkpt lat="48.30858" lon="-1.29966">
        <ele>67</ele>
        <time>2022-05-21T13:09:50Z</time>
      </trkpt>
      <trkpt lat="48.30865" lon="-1.29931">
        <ele>67</ele>
        <time>2022-05-21T13:09:55Z</time>
      </trkpt>
      <trkpt lat="48.30876" lon="-1.29897">
        <ele>68</ele>
        <time>2022-05-21T13:09:59Z</time>
      </trkpt>
      <trkpt lat="48.3089" lon="-1.29865">
        <ele>69</ele>
        <time>2022-05-21T13:10:04Z</time>
      </trkpt>
      <trkpt lat="48.30905" lon="-1.29842">
        <ele>70</ele>
        <time>2022-05-21T13:10:07Z</time>
      </trkpt>
      <trkpt lat="48.30909" lon="-1.2983">
        <ele>71</ele>
        <time>2022-05-21T13:10:09Z</time>
      </trkpt>
      <trkpt lat="48.30972" lon="-1.2974">
        <ele>72</ele>
        <time>2022-05-21T13:10:25Z</time>
      </trkpt>
      <trkpt lat="48.31043" lon="-1.29653">
        <ele>74</ele>
        <time>2022-05-21T13:10:41Z</time>
      </trkpt>
      <trkpt lat="48.31112" lon="-1.29475">
        <ele>76</ele>
        <time>2022-05-21T13:11:05Z</time>
      </trkpt>
      <trkpt lat="48.31125" lon="-1.29428">
        <ele>75</ele>
        <time>2022-05-21T13:11:11Z</time>
      </trkpt>
      <trkpt lat="48.31127" lon="-1.29408">
        <ele>75</ele>
        <time>2022-05-21T13:11:14Z</time>
      </trkpt>
      <trkpt lat="48.31129" lon="-1.29376">
        <ele>74</ele>
        <time>2022-05-21T13:11:17Z</time>
      </trkpt>
      <trkpt lat="48.31124" lon="-1.2936">
        <ele>74</ele>
        <time>2022-05-21T13:11:20Z</time>
      </trkpt>
      <trkpt lat="48.31131" lon="-1.29214">
        <ele>71</ele>
        <time>2022-05-21T13:11:37Z</time>
      </trkpt>
      <trkpt lat="48.31138" lon="-1.29164">
        <ele>70</ele>
        <time>2022-05-21T13:11:43Z</time>
      </trkpt>
      <trkpt lat="48.31165" lon="-1.29098">
        <ele>69</ele>
        <time>2022-05-21T13:11:52Z</time>
      </trkpt>
      <trkpt lat="48.31186" lon="-1.29032">
        <ele>69</ele>
        <time>2022-05-21T13:12:01Z</time>
      </trkpt>
      <trkpt lat="48.31204" lon="-1.28996">
        <ele>68</ele>
        <time>2022-05-21T13:12:06Z</time>
      </trkpt>
      <trkpt lat="48.31234" lon="-1.28947">
        <ele>68</ele>
        <time>2022-05-21T13:12:14Z</time>
      </trkpt>
      <trkpt lat="48.31285" lon="-1.28811">
        <ele>70</ele>
        <time>2022-05-21T13:12:32Z</time>
      </trkpt>
      <trkpt lat="48.31339" lon="-1.28652">
        <ele>70</ele>
        <time>2022-05-21T13:12:54Z</time>
      </trkpt>
      <trkpt lat="48.31359" lon="-1.2861">
        <ele>69</ele>
        <time>2022-05-21T13:13:00Z</time>
      </trkpt>
      <trkpt lat="48.31461" lon="-1.2845">
        <ele>73</ele>
        <time>2022-05-21T13:13:26Z</time>
      </trkpt>
      <trkpt lat="48.3148" lon="-1.28402">
        <ele>76</ele>
        <time>2022-05-21T13:13:32Z</time>
      </trkpt>
      <trkpt lat="48.31493" lon="-1.28377">
        <ele>78</ele>
        <time>2022-05-21T13:13:36Z</time>
      </trkpt>
      <trkpt lat="48.31501" lon="-1.28352">
        <ele>79</ele>
        <time>2022-05-21T13:13:40Z</time>
      </trkpt>
      <trkpt lat="48.3152" lon="-1.28316">
        <ele>81</ele>
        <time>2022-05-21T13:13:45Z</time>
      </trkpt>
      <trkpt lat="48.31537" lon="-1.28296">
        <ele>82</ele>
        <time>2022-05-21T13:13:49Z</time>
      </trkpt>
      <trkpt lat="48.31574" lon="-1.28271">
        <ele>85</ele>
        <time>2022-05-21T13:13:56Z</time>
      </trkpt>
      <trkpt lat="48.31611" lon="-1.28237">
        <ele>87</ele>
        <time>2022-05-21T13:14:04Z</time>
      </trkpt>
      <trkpt lat="48.31648" lon="-1.28181">
        <ele>88</ele>
        <time>2022-05-21T13:14:13Z</time>
      </trkpt>
      <trkpt lat="48.31732" lon="-1.28035">
        <ele>87</ele>
        <time>2022-05-21T13:14:36Z</time>
      </trkpt>
      <trkpt lat="48.31769" lon="-1.2798">
        <ele>86</ele>
        <time>2022-05-21T13:14:45Z</time>
      </trkpt>
      <trkpt lat="48.3187" lon="-1.27855">
        <ele>83</ele>
        <time>2022-05-21T13:15:08Z</time>
      </trkpt>
      <trkpt lat="48.31952" lon="-1.27741">
        <ele>82</ele>
        <time>2022-05-21T13:15:28Z</time>
      </trkpt>
      <trkpt lat="48.32042" lon="-1.27602">
        <ele>83</ele>
        <time>2022-05-21T13:15:51Z</time>
      </trkpt>
      <trkpt lat="48.32062" lon="-1.27547">
        <ele>84</ele>
        <time>2022-05-21T13:15:59Z</time>
      </trkpt>
      <trkpt lat="48.32136" lon="-1.27305">
        <ele>84</ele>
        <time>2022-05-21T13:16:30Z</time>
      </trkpt>
      <trkpt lat="48.32164" lon="-1.27243">
        <ele>84</ele>
        <time>2022-05-21T13:16:39Z</time>
      </trkpt>
      <trkpt lat="48.32199" lon="-1.27182">
        <ele>84</ele>
        <time>2022-05-21T13:16:49Z</time>
      </trkpt>
      <trkpt lat="48.32205" lon="-1.27164">
        <ele>85</ele>
        <time>2022-05-21T13:16:51Z</time>
      </trkpt>
      <trkpt lat="48.32211" lon="-1.27131">
        <ele>86</ele>
        <time>2022-05-21T13:16:55Z</time>
      </trkpt>
      <trkpt lat="48.3221" lon="-1.27071">
        <ele>88</ele>
        <time>2022-05-21T13:17:02Z</time>
      </trkpt>
      <trkpt lat="48.32219" lon="-1.27061">
        <ele>88</ele>
        <time>2022-05-21T13:17:04Z</time>
      </trkpt>
      <trkpt lat="48.32287" lon="-1.27042">
        <ele>90</ele>
        <time>2022-05-21T13:17:16Z</time>
      </trkpt>
      <trkpt lat="48.32297" lon="-1.27038">
        <ele>91</ele>
        <time>2022-05-21T13:17:18Z</time>
      </trkpt>
      <trkpt lat="48.32307" lon="-1.27029">
        <ele>91</ele>
        <time>2022-05-21T13:17:20Z</time>
      </trkpt>
      <trkpt lat="48.32425" lon="-1.26853">
        <ele>94</ele>
        <time>2022-05-21T13:17:50Z</time>
      </trkpt>
      <trkpt lat="48.32469" lon="-1.26793">
        <ele>94</ele>
        <time>2022-05-21T13:18:00Z</time>
      </trkpt>
      <trkpt lat="48.32503" lon="-1.26753">
        <ele>92</ele>
        <time>2022-05-21T13:18:08Z</time>
      </trkpt>
      <trkpt lat="48.32594" lon="-1.26659">
        <ele>87</ele>
        <time>2022-05-21T13:18:28Z</time>
      </trkpt>
      <trkpt lat="48.32755" lon="-1.26478">
        <ele>90</ele>
        <time>2022-05-21T13:19:04Z</time>
      </trkpt>
      <trkpt lat="48.32772" lon="-1.26463">
        <ele>91</ele>
        <time>2022-05-21T13:19:07Z</time>
      </trkpt>
      <trkpt lat="48.32811" lon="-1.26419">
        <ele>94</ele>
        <time>2022-05-21T13:19:16Z</time>
      </trkpt>
      <trkpt lat="48.3282" lon="-1.26411">
        <ele>94</ele>
        <time>2022-05-21T13:19:18Z</time>
      </trkpt>
      <trkpt lat="48.32858" lon="-1.26387">
        <ele>96</ele>
        <time>2022-05-21T13:19:25Z</time>
      </trkpt>
      <trkpt lat="48.32895" lon="-1.26368">
        <ele>98</ele>
        <time>2022-05-21T13:19:32Z</time>
      </trkpt>
      <trkpt lat="48.32912" lon="-1.2635">
        <ele>99</ele>
        <time>2022-05-21T13:19:36Z</time>
      </trkpt>
      <trkpt lat="48.32953" lon="-1.26267">
        <ele>99</ele>
        <time>2022-05-21T13:19:48Z</time>
      </trkpt>
      <trkpt lat="48.3299" lon="-1.26212">
        <ele>100</ele>
        <time>2022-05-21T13:19:57Z</time>
      </trkpt>
      <trkpt lat="48.33065" lon="-1.26111">
        <ele>102</ele>
        <time>2022-05-21T13:20:15Z</time>
      </trkpt>
      <trkpt lat="48.3309" lon="-1.26069">
        <ele>103</ele>
        <time>2022-05-21T13:20:22Z</time>
      </trkpt>
      <trkpt lat="48.33108" lon="-1.26033">
        <ele>105</ele>
        <time>2022-05-21T13:20:27Z</time>
      </trkpt>
      <trkpt lat="48.33151" lon="-1.25914">
        <ele>108</ele>
        <time>2022-05-21T13:20:43Z</time>
      </trkpt>
      <trkpt lat="48.33188" lon="-1.25827">
        <ele>110</ele>
        <time>2022-05-21T13:20:55Z</time>
      </trkpt>
      <trkpt lat="48.33216" lon="-1.25753">
        <ele>108</ele>
        <time>2022-05-21T13:21:05Z</time>
      </trkpt>
      <trkpt lat="48.33232" lon="-1.25688">
        <ele>107</ele>
        <time>2022-05-21T13:21:14Z</time>
      </trkpt>
      <trkpt lat="48.3324" lon="-1.25627">
        <ele>105</ele>
        <time>2022-05-21T13:21:21Z</time>
      </trkpt>
      <trkpt lat="48.33243" lon="-1.25575">
        <ele>103</ele>
        <time>2022-05-21T13:21:27Z</time>
      </trkpt>
      <trkpt lat="48.33241" lon="-1.25515">
        <ele>101</ele>
        <time>2022-05-21T13:21:34Z</time>
      </trkpt>
      <trkpt lat="48.33245" lon="-1.25467">
        <ele>101</ele>
        <time>2022-05-21T13:21:40Z</time>
      </trkpt>
      <trkpt lat="48.33261" lon="-1.25348">
        <ele>103</ele>
        <time>2022-05-21T13:21:54Z</time>
      </trkpt>
      <trkpt lat="48.33279" lon="-1.25254">
        <ele>103</ele>
        <time>2022-05-21T13:22:06Z</time>
      </trkpt>
      <trkpt lat="48.33291" lon="-1.25216">
        <ele>103</ele>
        <time>2022-05-21T13:22:11Z</time>
      </trkpt>
      <trkpt lat="48.33318" lon="-1.25156">
        <ele>104</ele>
        <time>2022-05-21T13:22:19Z</time>
      </trkpt>
      <trkpt lat="48.33334" lon="-1.25113">
        <ele>105</ele>
        <time>2022-05-21T13:22:25Z</time>
      </trkpt>
      <trkpt lat="48.33384" lon="-1.25002">
        <ele>105</ele>
        <time>2022-05-21T13:22:41Z</time>
      </trkpt>
      <trkpt lat="48.33406" lon="-1.24928">
        <ele>107</ele>
        <time>2022-05-21T13:22:51Z</time>
      </trkpt>
      <trkpt lat="48.33422" lon="-1.24858">
        <ele>109</ele>
        <time>2022-05-21T13:22:59Z</time>
      </trkpt>
      <trkpt lat="48.33436" lon="-1.24785">
        <ele>111</ele>
        <time>2022-05-21T13:23:08Z</time>
      </trkpt>
      <trkpt lat="48.33438" lon="-1.24753">
        <ele>111</ele>
        <time>2022-05-21T13:23:12Z</time>
      </trkpt>
      <trkpt lat="48.33435" lon="-1.24667">
        <ele>109</ele>
        <time>2022-05-21T13:23:22Z</time>
      </trkpt>
      <trkpt lat="48.33428" lon="-1.24611">
        <ele>109</ele>
        <time>2022-05-21T13:23:29Z</time>
      </trkpt>
      <trkpt lat="48.33427" lon="-1.2453">
        <ele>108</ele>
        <time>2022-05-21T13:23:39Z</time>
      </trkpt>
      <trkpt lat="48.3343" lon="-1.24514">
        <ele>107</ele>
        <time>2022-05-21T13:23:41Z</time>
      </trkpt>
      <trkpt lat="48.33449" lon="-1.24481">
        <ele>105</ele>
        <time>2022-05-21T13:23:46Z</time>
      </trkpt>
      <trkpt lat="48.33479" lon="-1.24453">
        <ele>101</ele>
        <time>2022-05-21T13:23:52Z</time>
      </trkpt>
      <trkpt lat="48.33506" lon="-1.2444">
        <ele>98</ele>
        <time>2022-05-21T13:23:57Z</time>
      </trkpt>
      <trkpt lat="48.33561" lon="-1.24419">
        <ele>97</ele>
        <time>2022-05-21T13:24:07Z</time>
      </trkpt>
      <trkpt lat="48.33586" lon="-1.24402">
        <ele>97</ele>
        <time>2022-05-21T13:24:12Z</time>
      </trkpt>
      <trkpt lat="48.336" lon="-1.24383">
        <ele>98</ele>
        <time>2022-05-21T13:24:15Z</time>
      </trkpt>
      <trkpt lat="48.33614" lon="-1.24349">
        <ele>98</ele>
        <time>2022-05-21T13:24:20Z</time>
      </trkpt>
      <trkpt lat="48.33619" lon="-1.24323">
        <ele>98</ele>
        <time>2022-05-21T13:24:23Z</time>
      </trkpt>
      <trkpt lat="48.33635" lon="-1.24169">
        <ele>95</ele>
        <time>2022-05-21T13:24:42Z</time>
      </trkpt>
      <trkpt lat="48.33634" lon="-1.24116">
        <ele>93</ele>
        <time>2022-05-21T13:24:48Z</time>
      </trkpt>
      <trkpt lat="48.33628" lon="-1.24064">
        <ele>91</ele>
        <time>2022-05-21T13:24:54Z</time>
      </trkpt>
      <trkpt lat="48.3363" lon="-1.24014">
        <ele>90</ele>
        <time>2022-05-21T13:25:00Z</time>
      </trkpt>
      <trkpt lat="48.33628" lon="-1.23988">
        <ele>89</ele>
        <time>2022-05-21T13:25:03Z</time>
      </trkpt>
      <trkpt lat="48.3364" lon="-1.23883">
        <ele>88</ele>
        <time>2022-05-21T13:25:16Z</time>
      </trkpt>
      <trkpt lat="48.33641" lon="-1.23661">
        <ele>85</ele>
        <time>2022-05-21T13:25:42Z</time>
      </trkpt>
      <trkpt lat="48.3365" lon="-1.23555">
        <ele>84</ele>
        <time>2022-05-21T13:25:55Z</time>
      </trkpt>
      <trkpt lat="48.33671" lon="-1.23497">
        <ele>83</ele>
        <time>2022-05-21T13:26:03Z</time>
      </trkpt>
      <trkpt lat="48.33718" lon="-1.23387">
        <ele>82</ele>
        <time>2022-05-21T13:26:18Z</time>
      </trkpt>
      <trkpt lat="48.33724" lon="-1.23368">
        <ele>81</ele>
        <time>2022-05-21T13:26:21Z</time>
      </trkpt>
      <trkpt lat="48.33793" lon="-1.23226">
        <ele>80</ele>
        <time>2022-05-21T13:26:41Z</time>
      </trkpt>
      <trkpt lat="48.33804" lon="-1.23209">
        <ele>81</ele>
        <time>2022-05-21T13:26:44Z</time>
      </trkpt>
      <trkpt lat="48.33811" lon="-1.2319">
        <ele>81</ele>
        <time>2022-05-21T13:26:47Z</time>
      </trkpt>
      <trkpt lat="48.33857" lon="-1.23096">
        <ele>83</ele>
        <time>2022-05-21T13:27:01Z</time>
      </trkpt>
      <trkpt lat="48.33922" lon="-1.22947">
        <ele>87</ele>
        <time>2022-05-21T13:27:22Z</time>
      </trkpt>
      <trkpt lat="48.33978" lon="-1.22799">
        <ele>92</ele>
        <time>2022-05-21T13:27:42Z</time>
      </trkpt>
      <trkpt lat="48.34011" lon="-1.2273">
        <ele>93</ele>
        <time>2022-05-21T13:27:52Z</time>
      </trkpt>
      <trkpt lat="48.34076" lon="-1.22623">
        <ele>93</ele>
        <time>2022-05-21T13:28:09Z</time>
      </trkpt>
      <trkpt lat="48.34147" lon="-1.22497">
        <ele>88</ele>
        <time>2022-05-21T13:28:29Z</time>
      </trkpt>
      <trkpt lat="48.34157" lon="-1.22482">
        <ele>88</ele>
        <time>2022-05-21T13:28:31Z</time>
      </trkpt>
      <trkpt lat="48.34179" lon="-1.22459">
        <ele>87</ele>
        <time>2022-05-21T13:28:36Z</time>
      </trkpt>
      <trkpt lat="48.34218" lon="-1.22411">
        <ele>87</ele>
        <time>2022-05-21T13:28:45Z</time>
      </trkpt>
      <trkpt lat="48.34232" lon="-1.22382">
        <ele>87</ele>
        <time>2022-05-21T13:28:49Z</time>
      </trkpt>
      <trkpt lat="48.34263" lon="-1.22331">
        <ele>87</ele>
        <time>2022-05-21T13:28:57Z</time>
      </trkpt>
      <trkpt lat="48.34352" lon="-1.22146">
        <ele>91</ele>
        <time>2022-05-21T13:29:24Z</time>
      </trkpt>
      <trkpt lat="48.34459" lon="-1.21959">
        <ele>97</ele>
        <time>2022-05-21T13:29:53Z</time>
      </trkpt>
      <trkpt lat="48.34468" lon="-1.21948">
        <ele>97</ele>
        <time>2022-05-21T13:29:55Z</time>
      </trkpt>
      <trkpt lat="48.34497" lon="-1.21899">
        <ele>98</ele>
        <time>2022-05-21T13:30:03Z</time>
      </trkpt>
      <trkpt lat="48.34507" lon="-1.21888">
        <ele>97</ele>
        <time>2022-05-21T13:30:05Z</time>
      </trkpt>
      <trkpt lat="48.34541" lon="-1.21864">
        <ele>96</ele>
        <time>2022-05-21T13:30:12Z</time>
      </trkpt>
      <trkpt lat="48.34597" lon="-1.21834">
        <ele>95</ele>
        <time>2022-05-21T13:30:23Z</time>
      </trkpt>
      <trkpt lat="48.34619" lon="-1.21818">
        <ele>95</ele>
        <time>2022-05-21T13:30:27Z</time>
      </trkpt>
      <trkpt lat="48.34627" lon="-1.21808">
        <ele>96</ele>
        <time>2022-05-21T13:30:29Z</time>
      </trkpt>
      <trkpt lat="48.34646" lon="-1.21801">
        <ele>96</ele>
        <time>2022-05-21T13:30:32Z</time>
      </trkpt>
      <trkpt lat="48.34662" lon="-1.21787">
        <ele>97</ele>
        <time>2022-05-21T13:30:36Z</time>
      </trkpt>
      <trkpt lat="48.34706" lon="-1.21758">
        <ele>102</ele>
        <time>2022-05-21T13:30:44Z</time>
      </trkpt>
      <trkpt lat="48.34715" lon="-1.21764">
        <ele>102</ele>
        <time>2022-05-21T13:30:46Z</time>
      </trkpt>
      <trkpt lat="48.34759" lon="-1.21735">
        <ele>107</ele>
        <time>2022-05-21T13:30:55Z</time>
      </trkpt>
      <trkpt lat="48.34851" lon="-1.21701">
        <ele>116</ele>
        <time>2022-05-21T13:31:11Z</time>
      </trkpt>
      <trkpt lat="48.34898" lon="-1.21675">
        <ele>120</ele>
        <time>2022-05-21T13:31:20Z</time>
      </trkpt>
      <trkpt lat="48.34942" lon="-1.21646">
        <ele>122</ele>
        <time>2022-05-21T13:31:29Z</time>
      </trkpt>
      <trkpt lat="48.35031" lon="-1.21579">
        <ele>124</ele>
        <time>2022-05-21T13:31:47Z</time>
      </trkpt>
      <trkpt lat="48.35065" lon="-1.21547">
        <ele>125</ele>
        <time>2022-05-21T13:31:54Z</time>
      </trkpt>
      <trkpt lat="48.35084" lon="-1.21524">
        <ele>125</ele>
        <time>2022-05-21T13:31:58Z</time>
      </trkpt>
      <trkpt lat="48.35104" lon="-1.21494">
        <ele>125</ele>
        <time>2022-05-21T13:32:03Z</time>
      </trkpt>
      <trkpt lat="48.35136" lon="-1.21468">
        <ele>124</ele>
        <time>2022-05-21T13:32:10Z</time>
      </trkpt>
      <trkpt lat="48.35159" lon="-1.21443">
        <ele>124</ele>
        <time>2022-05-21T13:32:15Z</time>
      </trkpt>
      <trkpt lat="48.35224" lon="-1.21383">
        <ele>119</ele>
        <time>2022-05-21T13:32:28Z</time>
      </trkpt>
      <trkpt lat="48.35246" lon="-1.21367">
        <ele>117</ele>
        <time>2022-05-21T13:32:32Z</time>
      </trkpt>
      <trkpt lat="48.35267" lon="-1.21346">
        <ele>115</ele>
        <time>2022-05-21T13:32:37Z</time>
      </trkpt>
      <trkpt lat="48.35276" lon="-1.2134">
        <ele>114</ele>
        <time>2022-05-21T13:32:39Z</time>
      </trkpt>
      <trkpt lat="48.35283" lon="-1.21327">
        <ele>114</ele>
        <time>2022-05-21T13:32:41Z</time>
      </trkpt>
      <trkpt lat="48.35288" lon="-1.21298">
        <ele>113</ele>
        <time>2022-05-21T13:32:44Z</time>
      </trkpt>
      <trkpt lat="48.35295" lon="-1.21282">
        <ele>113</ele>
        <time>2022-05-21T13:32:47Z</time>
      </trkpt>
      <trkpt lat="48.35323" lon="-1.21243">
        <ele>107</ele>
        <time>2022-05-21T13:32:53Z</time>
      </trkpt>
      <trkpt lat="48.35349" lon="-1.21199">
        <ele>102</ele>
        <time>2022-05-21T13:33:00Z</time>
      </trkpt>
      <trkpt lat="48.35354" lon="-1.21183">
        <ele>101</ele>
        <time>2022-05-21T13:33:02Z</time>
      </trkpt>
      <trkpt lat="48.35356" lon="-1.21088">
        <ele>96</ele>
        <time>2022-05-21T13:33:14Z</time>
      </trkpt>
      <trkpt lat="48.35354" lon="-1.21071">
        <ele>97</ele>
        <time>2022-05-21T13:33:16Z</time>
      </trkpt>
      <trkpt lat="48.35324" lon="-1.21016">
        <ele>99</ele>
        <time>2022-05-21T13:33:24Z</time>
      </trkpt>
      <trkpt lat="48.35319" lon="-1.21002">
        <ele>99</ele>
        <time>2022-05-21T13:33:26Z</time>
      </trkpt>
      <trkpt lat="48.35314" lon="-1.20972">
        <ele>98</ele>
        <time>2022-05-21T13:33:30Z</time>
      </trkpt>
      <trkpt lat="48.35317" lon="-1.20939">
        <ele>96</ele>
        <time>2022-05-21T13:33:34Z</time>
      </trkpt>
      <trkpt lat="48.35326" lon="-1.20912">
        <ele>96</ele>
        <time>2022-05-21T13:33:37Z</time>
      </trkpt>
      <trkpt lat="48.35346" lon="-1.2088">
        <ele>96</ele>
        <time>2022-05-21T13:33:42Z</time>
      </trkpt>
      <trkpt lat="48.35345" lon="-1.20864">
        <ele>96</ele>
        <time>2022-05-21T13:33:44Z</time>
      </trkpt>
      <trkpt lat="48.35335" lon="-1.20838">
        <ele>95</ele>
        <time>2022-05-21T13:33:48Z</time>
      </trkpt>
      <trkpt lat="48.35309" lon="-1.20793">
        <ele>93</ele>
        <time>2022-05-21T13:33:55Z</time>
      </trkpt>
      <trkpt lat="48.35313" lon="-1.2078">
        <ele>93</ele>
        <time>2022-05-21T13:33:56Z</time>
      </trkpt>
      <trkpt lat="48.35339" lon="-1.20752">
        <ele>93</ele>
        <time>2022-05-21T13:34:02Z</time>
      </trkpt>
      <trkpt lat="48.3535" lon="-1.20727">
        <ele>94</ele>
        <time>2022-05-21T13:34:06Z</time>
      </trkpt>
      <trkpt lat="48.35368" lon="-1.20741">
        <ele>95</ele>
        <time>2022-05-21T13:34:09Z</time>
      </trkpt>
      <trkpt lat="48.35377" lon="-1.20768">
        <ele>95</ele>
        <time>2022-05-21T13:34:13Z</time>
      </trkpt>
      <trkpt lat="48.35387" lon="-1.20765">
        <ele>96</ele>
        <time>2022-05-21T13:34:15Z</time>
      </trkpt>
      <trkpt lat="48.35392" lon="-1.20737">
        <ele>96</ele>
        <time>2022-05-21T13:34:18Z</time>
      </trkpt>
      <trkpt lat="48.35386" lon="-1.20763">
        <ele>96</ele>
        <time>2022-05-21T13:34:21Z</time>
      </trkpt>
      <trkpt lat="48.35378" lon="-1.2077">
        <ele>96</ele>
        <time>2022-05-21T13:34:23Z</time>
      </trkpt>
      <trkpt lat="48.35377" lon="-1.20785">
        <ele>95</ele>
        <time>2022-05-21T13:34:25Z</time>
      </trkpt>
      <trkpt lat="48.35388" lon="-1.20811">
        <ele>95</ele>
        <time>2022-05-21T13:34:28Z</time>
      </trkpt>
      <trkpt lat="48.35406" lon="-1.208">
        <ele>96</ele>
        <time>2022-05-21T13:34:32Z</time>
      </trkpt>
      <trkpt lat="48.35412" lon="-1.20789">
        <ele>96</ele>
        <time>2022-05-21T13:34:34Z</time>
      </trkpt>
      <trkpt lat="48.35435" lon="-1.20766">
        <ele>99</ele>
        <time>2022-05-21T13:34:39Z</time>
      </trkpt>
      <trkpt lat="48.3546" lon="-1.20747">
        <ele>102</ele>
        <time>2022-05-21T13:34:43Z</time>
      </trkpt>
      <trkpt lat="48.35467" lon="-1.20737">
        <ele>102</ele>
        <time>2022-05-21T13:34:45Z</time>
      </trkpt>
      <trkpt lat="48.35446" lon="-1.20787">
        <ele>99</ele>
        <time>2022-05-21T13:34:52Z</time>
      </trkpt>
      <trkpt lat="48.35444" lon="-1.20802">
        <ele>99</ele>
        <time>2022-05-21T13:34:54Z</time>
      </trkpt>
      <trkpt lat="48.35454" lon="-1.20828">
        <ele>99</ele>
        <time>2022-05-21T13:34:58Z</time>
      </trkpt>
      <trkpt lat="48.35474" lon="-1.20861">
        <ele>101</ele>
        <time>2022-05-21T13:35:03Z</time>
      </trkpt>
      <trkpt lat="48.35489" lon="-1.20879">
        <ele>102</ele>
        <time>2022-05-21T13:35:06Z</time>
      </trkpt>
      <trkpt lat="48.35497" lon="-1.20872">
        <ele>103</ele>
        <time>2022-05-21T13:35:08Z</time>
      </trkpt>
      <trkpt lat="48.35504" lon="-1.2086">
        <ele>103</ele>
        <time>2022-05-21T13:35:10Z</time>
      </trkpt>
      <trkpt lat="48.3552" lon="-1.20841">
        <ele>105</ele>
        <time>2022-05-21T13:35:13Z</time>
      </trkpt>
      <trkpt lat="48.3557" lon="-1.20786">
        <ele>110</ele>
        <time>2022-05-21T13:35:24Z</time>
      </trkpt>
      <trkpt lat="48.35627" lon="-1.2069">
        <ele>117</ele>
        <time>2022-05-21T13:35:40Z</time>
      </trkpt>
      <trkpt lat="48.35635" lon="-1.20631">
        <ele>116</ele>
        <time>2022-05-21T13:35:47Z</time>
      </trkpt>
      <trkpt lat="48.3564" lon="-1.20566">
        <ele>115</ele>
        <time>2022-05-21T13:35:55Z</time>
      </trkpt>
      <trkpt lat="48.3566" lon="-1.20479">
        <ele>115</ele>
        <time>2022-05-21T13:36:05Z</time>
      </trkpt>
      <trkpt lat="48.35638" lon="-1.20438">
        <ele>110</ele>
        <time>2022-05-21T13:36:12Z</time>
      </trkpt>
      <trkpt lat="48.3563" lon="-1.20377">
        <ele>108</ele>
        <time>2022-05-21T13:36:19Z</time>
      </trkpt>
      <trkpt lat="48.3557" lon="-1.20271">
        <ele>115</ele>
        <time>2022-05-21T13:36:35Z</time>
      </trkpt>
      <trkpt lat="48.35536" lon="-1.20218">
        <ele>124</ele>
        <time>2022-05-21T13:36:44Z</time>
      </trkpt>
      <trkpt lat="48.35518" lon="-1.20185">
        <ele>127</ele>
        <time>2022-05-21T13:36:49Z</time>
      </trkpt>
      <trkpt lat="48.35508" lon="-1.2016">
        <ele>129</ele>
        <time>2022-05-21T13:36:53Z</time>
      </trkpt>
      <trkpt lat="48.35491" lon="-1.20144">
        <ele>130</ele>
        <time>2022-05-21T13:36:56Z</time>
      </trkpt>
      <trkpt lat="48.35471" lon="-1.20115">
        <ele>130</ele>
        <time>2022-05-21T13:37:01Z</time>
      </trkpt>
      <trkpt lat="48.35462" lon="-1.20118">
        <ele>130</ele>
        <time>2022-05-21T13:37:03Z</time>
      </trkpt>
      <trkpt lat="48.35446" lon="-1.20136">
        <ele>130</ele>
        <time>2022-05-21T13:37:06Z</time>
      </trkpt>
      <trkpt lat="48.35432" lon="-1.20174">
        <ele>131</ele>
        <time>2022-05-21T13:37:11Z</time>
      </trkpt>
      <trkpt lat="48.35454" lon="-1.202">
        <ele>132</ele>
        <time>2022-05-21T13:37:16Z</time>
      </trkpt>
      <trkpt lat="48.35459" lon="-1.20213">
        <ele>132</ele>
        <time>2022-05-21T13:37:18Z</time>
      </trkpt>
      <trkpt lat="48.35453" lon="-1.20239">
        <ele>134</ele>
        <time>2022-05-21T13:37:22Z</time>
      </trkpt>
      <trkpt lat="48.35462" lon="-1.20231">
        <ele>133</ele>
        <time>2022-05-21T13:37:23Z</time>
      </trkpt>
      <trkpt lat="48.35464" lon="-1.20217">
        <ele>132</ele>
        <time>2022-05-21T13:37:25Z</time>
      </trkpt>
      <trkpt lat="48.35462" lon="-1.20204">
        <ele>132</ele>
        <time>2022-05-21T13:37:27Z</time>
      </trkpt>
      <trkpt lat="48.35468" lon="-1.20167">
        <ele>130</ele>
        <time>2022-05-21T13:37:31Z</time>
      </trkpt>
      <trkpt lat="48.35466" lon="-1.20181">
        <ele>131</ele>
        <time>2022-05-21T13:37:33Z</time>
      </trkpt>
      <trkpt lat="48.35448" lon="-1.20178">
        <ele>131</ele>
        <time>2022-05-21T13:37:36Z</time>
      </trkpt>
      <trkpt lat="48.35439" lon="-1.20172">
        <ele>131</ele>
        <time>2022-05-21T13:37:38Z</time>
      </trkpt>
      <trkpt lat="48.35431" lon="-1.2018">
        <ele>132</ele>
        <time>2022-05-21T13:37:40Z</time>
      </trkpt>
      <trkpt lat="48.35443" lon="-1.20169">
        <ele>131</ele>
        <time>2022-05-21T13:37:42Z</time>
      </trkpt>
      <trkpt lat="48.35433" lon="-1.20175">
        <ele>131</ele>
        <time>2022-05-21T13:37:44Z</time>
      </trkpt>
      <trkpt lat="48.35422" lon="-1.20173">
        <ele>131</ele>
        <time>2022-05-21T13:37:46Z</time>
      </trkpt>
      <trkpt lat="48.35431" lon="-1.20176">
        <ele>131</ele>
        <time>2022-05-21T13:37:48Z</time>
      </trkpt>
      <trkpt lat="48.35426" lon="-1.20182">
        <ele>132</ele>
        <time>2022-05-21T13:37:49Z</time>
      </trkpt>
      <trkpt lat="48.35418" lon="-1.20165">
        <ele>131</ele>
        <time>2022-05-21T13:37:51Z</time>
      </trkpt>
      <trkpt lat="48.35441" lon="-1.20154">
        <ele>130</ele>
        <time>2022-05-21T13:37:55Z</time>
      </trkpt>
      <trkpt lat="48.35449" lon="-1.20145">
        <ele>130</ele>
        <time>2022-05-21T13:37:57Z</time>
      </trkpt>
      <trkpt lat="48.35448" lon="-1.20131">
        <ele>130</ele>
        <time>2022-05-21T13:37:59Z</time>
      </trkpt>
      <trkpt lat="48.35458" lon="-1.20128">
        <ele>130</ele>
        <time>2022-05-21T13:38:01Z</time>
      </trkpt>
      <trkpt lat="48.35467" lon="-1.20133">
        <ele>130</ele>
        <time>2022-05-21T13:38:02Z</time>
      </trkpt>
      <trkpt lat="48.35471" lon="-1.20145">
        <ele>130</ele>
        <time>2022-05-21T13:38:04Z</time>
      </trkpt>
      <trkpt lat="48.355" lon="-1.20165">
        <ele>130</ele>
        <time>2022-05-21T13:38:10Z</time>
      </trkpt>
      <trkpt lat="48.3552" lon="-1.20138">
        <ele>127</ele>
        <time>2022-05-21T13:38:14Z</time>
      </trkpt>
      <trkpt lat="48.3553" lon="-1.20129">
        <ele>127</ele>
        <time>2022-05-21T13:38:17Z</time>
      </trkpt>
      <trkpt lat="48.35541" lon="-1.20125">
        <ele>126</ele>
        <time>2022-05-21T13:38:19Z</time>
      </trkpt>
      <trkpt lat="48.35558" lon="-1.20109">
        <ele>125</ele>
        <time>2022-05-21T13:38:22Z</time>
      </trkpt>
      <trkpt lat="48.35571" lon="-1.20088">
        <ele>125</ele>
        <time>2022-05-21T13:38:25Z</time>
      </trkpt>
      <trkpt lat="48.35618" lon="-1.20034">
        <ele>126</ele>
        <time>2022-05-21T13:38:36Z</time>
      </trkpt>
      <trkpt lat="48.3563" lon="-1.20008">
        <ele>128</ele>
        <time>2022-05-21T13:38:40Z</time>
      </trkpt>
      <trkpt lat="48.35645" lon="-1.19989">
        <ele>129</ele>
        <time>2022-05-21T13:38:43Z</time>
      </trkpt>
      <trkpt lat="48.3565" lon="-1.19955">
        <ele>130</ele>
        <time>2022-05-21T13:38:47Z</time>
      </trkpt>
      <trkpt lat="48.35656" lon="-1.1994">
        <ele>130</ele>
        <time>2022-05-21T13:38:49Z</time>
      </trkpt>
      <trkpt lat="48.35667" lon="-1.19894">
        <ele>130</ele>
        <time>2022-05-21T13:38:55Z</time>
      </trkpt>
      <trkpt lat="48.35672" lon="-1.19883">
        <ele>130</ele>
        <time>2022-05-21T13:38:57Z</time>
      </trkpt>
      <trkpt lat="48.35674" lon="-1.19868">
        <ele>130</ele>
        <time>2022-05-21T13:38:59Z</time>
      </trkpt>
      <trkpt lat="48.35694" lon="-1.19812">
        <ele>131</ele>
        <time>2022-05-21T13:39:06Z</time>
      </trkpt>
      <trkpt lat="48.35691" lon="-1.1978">
        <ele>130</ele>
        <time>2022-05-21T13:39:10Z</time>
      </trkpt>
      <trkpt lat="48.35699" lon="-1.19772">
        <ele>130</ele>
        <time>2022-05-21T13:39:12Z</time>
      </trkpt>
      <trkpt lat="48.35704" lon="-1.19783">
        <ele>131</ele>
        <time>2022-05-21T13:39:13Z</time>
      </trkpt>
      <trkpt lat="48.3572" lon="-1.19796">
        <ele>133</ele>
        <time>2022-05-21T13:39:16Z</time>
      </trkpt>
      <trkpt lat="48.35763" lon="-1.19788">
        <ele>136</ele>
        <time>2022-05-21T13:39:24Z</time>
      </trkpt>
      <trkpt lat="48.35773" lon="-1.19781">
        <ele>137</ele>
        <time>2022-05-21T13:39:26Z</time>
      </trkpt>
      <trkpt lat="48.35799" lon="-1.19739">
        <ele>139</ele>
        <time>2022-05-21T13:39:33Z</time>
      </trkpt>
      <trkpt lat="48.35829" lon="-1.19683">
        <ele>142</ele>
        <time>2022-05-21T13:39:41Z</time>
      </trkpt>
      <trkpt lat="48.35856" lon="-1.1964">
        <ele>144</ele>
        <time>2022-05-21T13:39:48Z</time>
      </trkpt>
      <trkpt lat="48.35864" lon="-1.19632">
        <ele>144</ele>
        <time>2022-05-21T13:39:50Z</time>
      </trkpt>
      <trkpt lat="48.35888" lon="-1.19597">
        <ele>144</ele>
        <time>2022-05-21T13:39:56Z</time>
      </trkpt>
      <trkpt lat="48.35956" lon="-1.19526">
        <ele>144</ele>
        <time>2022-05-21T13:40:11Z</time>
      </trkpt>
      <trkpt lat="48.35974" lon="-1.19502">
        <ele>143</ele>
        <time>2022-05-21T13:40:15Z</time>
      </trkpt>
      <trkpt lat="48.36021" lon="-1.19448">
        <ele>140</ele>
        <time>2022-05-21T13:40:26Z</time>
      </trkpt>
      <trkpt lat="48.36133" lon="-1.19343">
        <ele>134</ele>
        <time>2022-05-21T13:40:49Z</time>
      </trkpt>
      <trkpt lat="48.36158" lon="-1.19327">
        <ele>133</ele>
        <time>2022-05-21T13:40:54Z</time>
      </trkpt>
      <trkpt lat="48.36186" lon="-1.19296">
        <ele>131</ele>
        <time>2022-05-21T13:41:00Z</time>
      </trkpt>
      <trkpt lat="48.36197" lon="-1.19292">
        <ele>131</ele>
        <time>2022-05-21T13:41:02Z</time>
      </trkpt>
      <trkpt lat="48.36216" lon="-1.19276">
        <ele>131</ele>
        <time>2022-05-21T13:41:06Z</time>
      </trkpt>
      <trkpt lat="48.36271" lon="-1.1924">
        <ele>132</ele>
        <time>2022-05-21T13:41:17Z</time>
      </trkpt>
      <trkpt lat="48.36296" lon="-1.19214">
        <ele>134</ele>
        <time>2022-05-21T13:41:22Z</time>
      </trkpt>
      <trkpt lat="48.36306" lon="-1.19207">
        <ele>135</ele>
        <time>2022-05-21T13:41:24Z</time>
      </trkpt>
      <trkpt lat="48.36315" lon="-1.19204">
        <ele>135</ele>
        <time>2022-05-21T13:41:26Z</time>
      </trkpt>
      <trkpt lat="48.36321" lon="-1.1919">
        <ele>136</ele>
        <time>2022-05-21T13:41:28Z</time>
      </trkpt>
      <trkpt lat="48.36322" lon="-1.1913">
        <ele>138</ele>
        <time>2022-05-21T13:41:35Z</time>
      </trkpt>
      <trkpt lat="48.36314" lon="-1.19058">
        <ele>141</ele>
        <time>2022-05-21T13:41:43Z</time>
      </trkpt>
      <trkpt lat="48.36319" lon="-1.19013">
        <ele>143</ele>
        <time>2022-05-21T13:41:49Z</time>
      </trkpt>
      <trkpt lat="48.36325" lon="-1.19">
        <ele>144</ele>
        <time>2022-05-21T13:41:51Z</time>
      </trkpt>
      <trkpt lat="48.36375" lon="-1.18945">
        <ele>145</ele>
        <time>2022-05-21T13:42:02Z</time>
      </trkpt>
      <trkpt lat="48.36416" lon="-1.18919">
        <ele>145</ele>
        <time>2022-05-21T13:42:10Z</time>
      </trkpt>
      <trkpt lat="48.36479" lon="-1.18848">
        <ele>145</ele>
        <time>2022-05-21T13:42:24Z</time>
      </trkpt>
      <trkpt lat="48.36532" lon="-1.18797">
        <ele>147</ele>
        <time>2022-05-21T13:42:35Z</time>
      </trkpt>
      <trkpt lat="48.36551" lon="-1.18785">
        <ele>147</ele>
        <time>2022-05-21T13:42:38Z</time>
      </trkpt>
      <trkpt lat="48.36572" lon="-1.18778">
        <ele>148</ele>
        <time>2022-05-21T13:42:42Z</time>
      </trkpt>
      <trkpt lat="48.36586" lon="-1.18753">
        <ele>149</ele>
        <time>2022-05-21T13:42:46Z</time>
      </trkpt>
      <trkpt lat="48.36603" lon="-1.18676">
        <ele>149</ele>
        <time>2022-05-21T13:42:56Z</time>
      </trkpt>
      <trkpt lat="48.36605" lon="-1.18645">
        <ele>149</ele>
        <time>2022-05-21T13:42:59Z</time>
      </trkpt>
      <trkpt lat="48.36599" lon="-1.18616">
        <ele>148</ele>
        <time>2022-05-21T13:43:03Z</time>
      </trkpt>
      <trkpt lat="48.36588" lon="-1.18587">
        <ele>147</ele>
        <time>2022-05-21T13:43:07Z</time>
      </trkpt>
      <trkpt lat="48.36572" lon="-1.18561">
        <ele>146</ele>
        <time>2022-05-21T13:43:11Z</time>
      </trkpt>
      <trkpt lat="48.36577" lon="-1.18544">
        <ele>146</ele>
        <time>2022-05-21T13:43:13Z</time>
      </trkpt>
      <trkpt lat="48.36598" lon="-1.18539">
        <ele>148</ele>
        <time>2022-05-21T13:43:17Z</time>
      </trkpt>
      <trkpt lat="48.36607" lon="-1.18532">
        <ele>149</ele>
        <time>2022-05-21T13:43:19Z</time>
      </trkpt>
      <trkpt lat="48.36622" lon="-1.18513">
        <ele>149</ele>
        <time>2022-05-21T13:43:22Z</time>
      </trkpt>
      <trkpt lat="48.36679" lon="-1.18452">
        <ele>153</ele>
        <time>2022-05-21T13:43:35Z</time>
      </trkpt>
      <trkpt lat="48.3674" lon="-1.18396">
        <ele>160</ele>
        <time>2022-05-21T13:43:48Z</time>
      </trkpt>
      <trkpt lat="48.36772" lon="-1.18359">
        <ele>164</ele>
        <time>2022-05-21T13:43:55Z</time>
      </trkpt>
      <trkpt lat="48.3682" lon="-1.1831">
        <ele>169</ele>
        <time>2022-05-21T13:44:05Z</time>
      </trkpt>
      <trkpt lat="48.36859" lon="-1.18265">
        <ele>170</ele>
        <time>2022-05-21T13:44:14Z</time>
      </trkpt>
      <trkpt lat="48.36964" lon="-1.18154">
        <ele>167</ele>
        <time>2022-05-21T13:44:37Z</time>
      </trkpt>
      <trkpt lat="48.37075" lon="-1.18028">
        <ele>165</ele>
        <time>2022-05-21T13:45:01Z</time>
      </trkpt>
      <trkpt lat="48.37126" lon="-1.17982">
        <ele>167</ele>
        <time>2022-05-21T13:45:12Z</time>
      </trkpt>
      <trkpt lat="48.37172" lon="-1.17947">
        <ele>169</ele>
        <time>2022-05-21T13:45:21Z</time>
      </trkpt>
      <trkpt lat="48.37202" lon="-1.17903">
        <ele>169</ele>
        <time>2022-05-21T13:45:29Z</time>
      </trkpt>
      <trkpt lat="48.37212" lon="-1.17896">
        <ele>169</ele>
        <time>2022-05-21T13:45:31Z</time>
      </trkpt>
      <trkpt lat="48.37209" lon="-1.17879">
        <ele>168</ele>
        <time>2022-05-21T13:45:33Z</time>
      </trkpt>
      <trkpt lat="48.37279" lon="-1.17757">
        <ele>169</ele>
        <time>2022-05-21T13:45:52Z</time>
      </trkpt>
      <trkpt lat="48.37336" lon="-1.17649">
        <ele>172</ele>
        <time>2022-05-21T13:46:08Z</time>
      </trkpt>
      <trkpt lat="48.37368" lon="-1.17597">
        <ele>170</ele>
        <time>2022-05-21T13:46:16Z</time>
      </trkpt>
      <trkpt lat="48.37409" lon="-1.17514">
        <ele>169</ele>
        <time>2022-05-21T13:46:29Z</time>
      </trkpt>
      <trkpt lat="48.37425" lon="-1.17457">
        <ele>169</ele>
        <time>2022-05-21T13:46:36Z</time>
      </trkpt>
      <trkpt lat="48.37462" lon="-1.17352">
        <ele>167</ele>
        <time>2022-05-21T13:46:50Z</time>
      </trkpt>
      <trkpt lat="48.3752" lon="-1.172">
        <ele>172</ele>
        <time>2022-05-21T13:47:11Z</time>
      </trkpt>
      <trkpt lat="48.37523" lon="-1.17187">
        <ele>173</ele>
        <time>2022-05-21T13:47:12Z</time>
      </trkpt>
      <trkpt lat="48.3754" lon="-1.17146">
        <ele>173</ele>
        <time>2022-05-21T13:47:18Z</time>
      </trkpt>
      <trkpt lat="48.37557" lon="-1.17092">
        <ele>173</ele>
        <time>2022-05-21T13:47:25Z</time>
      </trkpt>
      <trkpt lat="48.37575" lon="-1.17052">
        <ele>172</ele>
        <time>2022-05-21T13:47:31Z</time>
      </trkpt>
      <trkpt lat="48.37602" lon="-1.16978">
        <ele>175</ele>
        <time>2022-05-21T13:47:41Z</time>
      </trkpt>
      <trkpt lat="48.37617" lon="-1.1695">
        <ele>178</ele>
        <time>2022-05-21T13:47:45Z</time>
      </trkpt>
      <trkpt lat="48.37627" lon="-1.16953">
        <ele>179</ele>
        <time>2022-05-21T13:47:47Z</time>
      </trkpt>
      <trkpt lat="48.37656" lon="-1.16909">
        <ele>183</ele>
        <time>2022-05-21T13:47:54Z</time>
      </trkpt>
      <trkpt lat="48.37671" lon="-1.16889">
        <ele>185</ele>
        <time>2022-05-21T13:47:58Z</time>
      </trkpt>
      <trkpt lat="48.3768" lon="-1.16881">
        <ele>186</ele>
        <time>2022-05-21T13:48:00Z</time>
      </trkpt>
      <trkpt lat="48.37689" lon="-1.16879">
        <ele>187</ele>
        <time>2022-05-21T13:48:01Z</time>
      </trkpt>
      <trkpt lat="48.37706" lon="-1.16869">
        <ele>188</ele>
        <time>2022-05-21T13:48:04Z</time>
      </trkpt>
      <trkpt lat="48.37716" lon="-1.16867">
        <ele>189</ele>
        <time>2022-05-21T13:48:06Z</time>
      </trkpt>
      <trkpt lat="48.37735" lon="-1.16855">
        <ele>190</ele>
        <time>2022-05-21T13:48:10Z</time>
      </trkpt>
      <trkpt lat="48.37778" lon="-1.16818">
        <ele>190</ele>
        <time>2022-05-21T13:48:19Z</time>
      </trkpt>
      <trkpt lat="48.37825" lon="-1.16783">
        <ele>188</ele>
        <time>2022-05-21T13:48:28Z</time>
      </trkpt>
      <trkpt lat="48.37989" lon="-1.1665">
        <ele>180</ele>
        <time>2022-05-21T13:49:01Z</time>
      </trkpt>
      <trkpt lat="48.38111" lon="-1.16563">
        <ele>176</ele>
        <time>2022-05-21T13:49:25Z</time>
      </trkpt>
      <trkpt lat="48.38259" lon="-1.16451">
        <ele>167</ele>
        <time>2022-05-21T13:49:55Z</time>
      </trkpt>
      <trkpt lat="48.38318" lon="-1.16416">
        <ele>164</ele>
        <time>2022-05-21T13:50:06Z</time>
      </trkpt>
      <trkpt lat="48.3834" lon="-1.16389">
        <ele>163</ele>
        <time>2022-05-21T13:50:11Z</time>
      </trkpt>
      <trkpt lat="48.3835" lon="-1.16384">
        <ele>162</ele>
        <time>2022-05-21T13:50:13Z</time>
      </trkpt>
      <trkpt lat="48.38365" lon="-1.16366">
        <ele>161</ele>
        <time>2022-05-21T13:50:16Z</time>
      </trkpt>
      <trkpt lat="48.38399" lon="-1.16341">
        <ele>157</ele>
        <time>2022-05-21T13:50:23Z</time>
      </trkpt>
      <trkpt lat="48.38415" lon="-1.16323">
        <ele>156</ele>
        <time>2022-05-21T13:50:27Z</time>
      </trkpt>
      <trkpt lat="48.38424" lon="-1.1632">
        <ele>155</ele>
        <time>2022-05-21T13:50:28Z</time>
      </trkpt>
      <trkpt lat="48.38441" lon="-1.16301">
        <ele>156</ele>
        <time>2022-05-21T13:50:32Z</time>
      </trkpt>
      <trkpt lat="48.38454" lon="-1.1628">
        <ele>156</ele>
        <time>2022-05-21T13:50:35Z</time>
      </trkpt>
      <trkpt lat="48.38463" lon="-1.16274">
        <ele>156</ele>
        <time>2022-05-21T13:50:37Z</time>
      </trkpt>
      <trkpt lat="48.38473" lon="-1.16275">
        <ele>156</ele>
        <time>2022-05-21T13:50:39Z</time>
      </trkpt>
      <trkpt lat="48.38482" lon="-1.16272">
        <ele>155</ele>
        <time>2022-05-21T13:50:41Z</time>
      </trkpt>
      <trkpt lat="48.38492" lon="-1.16273">
        <ele>155</ele>
        <time>2022-05-21T13:50:42Z</time>
      </trkpt>
      <trkpt lat="48.38501" lon="-1.16271">
        <ele>155</ele>
        <time>2022-05-21T13:50:44Z</time>
      </trkpt>
      <trkpt lat="48.38519" lon="-1.16255">
        <ele>156</ele>
        <time>2022-05-21T13:50:48Z</time>
      </trkpt>
      <trkpt lat="48.38555" lon="-1.16233">
        <ele>156</ele>
        <time>2022-05-21T13:50:55Z</time>
      </trkpt>
      <trkpt lat="48.38578" lon="-1.16207">
        <ele>156</ele>
        <time>2022-05-21T13:51:00Z</time>
      </trkpt>
      <trkpt lat="48.38584" lon="-1.16193">
        <ele>155</ele>
        <time>2022-05-21T13:51:02Z</time>
      </trkpt>
      <trkpt lat="48.38591" lon="-1.16184">
        <ele>156</ele>
        <time>2022-05-21T13:51:03Z</time>
      </trkpt>
      <trkpt lat="48.38611" lon="-1.16134">
        <ele>157</ele>
        <time>2022-05-21T13:51:10Z</time>
      </trkpt>
      <trkpt lat="48.3862" lon="-1.16129">
        <ele>157</ele>
        <time>2022-05-21T13:51:12Z</time>
      </trkpt>
      <trkpt lat="48.38634" lon="-1.16147">
        <ele>159</ele>
        <time>2022-05-21T13:51:15Z</time>
      </trkpt>
      <trkpt lat="48.38643" lon="-1.16154">
        <ele>159</ele>
        <time>2022-05-21T13:51:17Z</time>
      </trkpt>
      <trkpt lat="48.38653" lon="-1.16155">
        <ele>160</ele>
        <time>2022-05-21T13:51:19Z</time>
      </trkpt>
      <trkpt lat="48.38912" lon="-1.15961">
        <ele>174</ele>
        <time>2022-05-21T13:52:10Z</time>
      </trkpt>
      <trkpt lat="48.38923" lon="-1.15954">
        <ele>175</ele>
        <time>2022-05-21T13:52:12Z</time>
      </trkpt>
      <trkpt lat="48.38934" lon="-1.15951">
        <ele>175</ele>
        <time>2022-05-21T13:52:14Z</time>
      </trkpt>
      <trkpt lat="48.38965" lon="-1.15949">
        <ele>173</ele>
        <time>2022-05-21T13:52:20Z</time>
      </trkpt>
      <trkpt lat="48.38974" lon="-1.15941">
        <ele>173</ele>
        <time>2022-05-21T13:52:22Z</time>
      </trkpt>
      <trkpt lat="48.38996" lon="-1.15908">
        <ele>174</ele>
        <time>2022-05-21T13:52:27Z</time>
      </trkpt>
      <trkpt lat="48.39057" lon="-1.15858">
        <ele>173</ele>
        <time>2022-05-21T13:52:40Z</time>
      </trkpt>
      <trkpt lat="48.39156" lon="-1.15782">
        <ele>179</ele>
        <time>2022-05-21T13:52:59Z</time>
      </trkpt>
      <trkpt lat="48.39166" lon="-1.15777">
        <ele>180</ele>
        <time>2022-05-21T13:53:01Z</time>
      </trkpt>
      <trkpt lat="48.39176" lon="-1.15779">
        <ele>180</ele>
        <time>2022-05-21T13:53:03Z</time>
      </trkpt>
      <trkpt lat="48.39182" lon="-1.15792">
        <ele>180</ele>
        <time>2022-05-21T13:53:05Z</time>
      </trkpt>
      <trkpt lat="48.39195" lon="-1.15839">
        <ele>179</ele>
        <time>2022-05-21T13:53:11Z</time>
      </trkpt>
      <trkpt lat="48.3924" lon="-1.15971">
        <ele>176</ele>
        <time>2022-05-21T13:53:28Z</time>
      </trkpt>
      <trkpt lat="48.39265" lon="-1.16062">
        <ele>173</ele>
        <time>2022-05-21T13:53:40Z</time>
      </trkpt>
      <trkpt lat="48.39311" lon="-1.16203">
        <ele>169</ele>
        <time>2022-05-21T13:53:59Z</time>
      </trkpt>
      <trkpt lat="48.39337" lon="-1.16308">
        <ele>168</ele>
        <time>2022-05-21T13:54:12Z</time>
      </trkpt>
      <trkpt lat="48.39356" lon="-1.16349">
        <ele>170</ele>
        <time>2022-05-21T13:54:18Z</time>
      </trkpt>
      <trkpt lat="48.39378" lon="-1.16374">
        <ele>171</ele>
        <time>2022-05-21T13:54:23Z</time>
      </trkpt>
      <trkpt lat="48.39391" lon="-1.16401">
        <ele>172</ele>
        <time>2022-05-21T13:54:27Z</time>
      </trkpt>
      <trkpt lat="48.39414" lon="-1.16433">
        <ele>173</ele>
        <time>2022-05-21T13:54:32Z</time>
      </trkpt>
      <trkpt lat="48.39432" lon="-1.16452">
        <ele>174</ele>
        <time>2022-05-21T13:54:36Z</time>
      </trkpt>
      <trkpt lat="48.39438" lon="-1.16464">
        <ele>174</ele>
        <time>2022-05-21T13:54:38Z</time>
      </trkpt>
      <trkpt lat="48.39455" lon="-1.16484">
        <ele>174</ele>
        <time>2022-05-21T13:54:42Z</time>
      </trkpt>
      <trkpt lat="48.39471" lon="-1.16509">
        <ele>174</ele>
        <time>2022-05-21T13:54:46Z</time>
      </trkpt>
      <trkpt lat="48.39511" lon="-1.16555">
        <ele>173</ele>
        <time>2022-05-21T13:54:55Z</time>
      </trkpt>
      <trkpt lat="48.3956" lon="-1.16624">
        <ele>171</ele>
        <time>2022-05-21T13:55:07Z</time>
      </trkpt>
      <trkpt lat="48.39584" lon="-1.16648">
        <ele>171</ele>
        <time>2022-05-21T13:55:12Z</time>
      </trkpt>
      <trkpt lat="48.39606" lon="-1.1668">
        <ele>171</ele>
        <time>2022-05-21T13:55:17Z</time>
      </trkpt>
      <trkpt lat="48.39639" lon="-1.16717">
        <ele>174</ele>
        <time>2022-05-21T13:55:25Z</time>
      </trkpt>
      <trkpt lat="48.39642" lon="-1.1673">
        <ele>173</ele>
        <time>2022-05-21T13:55:26Z</time>
      </trkpt>
      <trkpt lat="48.3964" lon="-1.16744">
        <ele>172</ele>
        <time>2022-05-21T13:55:28Z</time>
      </trkpt>
      <trkpt lat="48.3965" lon="-1.16746">
        <ele>173</ele>
        <time>2022-05-21T13:55:30Z</time>
      </trkpt>
      <trkpt lat="48.39641" lon="-1.16746">
        <ele>172</ele>
        <time>2022-05-21T13:55:31Z</time>
      </trkpt>
      <trkpt lat="48.39645" lon="-1.16733">
        <ele>174</ele>
        <time>2022-05-21T13:55:33Z</time>
      </trkpt>
      <trkpt lat="48.3965" lon="-1.16745">
        <ele>173</ele>
        <time>2022-05-21T13:55:35Z</time>
      </trkpt>
      <trkpt lat="48.39656" lon="-1.16734">
        <ele>175</ele>
        <time>2022-05-21T13:55:36Z</time>
      </trkpt>
      <trkpt lat="48.39648" lon="-1.16748">
        <ele>173</ele>
        <time>2022-05-21T13:55:39Z</time>
      </trkpt>
      <trkpt lat="48.39643" lon="-1.16736">
        <ele>173</ele>
        <time>2022-05-21T13:55:40Z</time>
      </trkpt>
      <trkpt lat="48.39636" lon="-1.16747">
        <ele>172</ele>
        <time>2022-05-21T13:55:42Z</time>
      </trkpt>
      <trkpt lat="48.39636" lon="-1.16761">
        <ele>172</ele>
        <time>2022-05-21T13:55:44Z</time>
      </trkpt>
      <trkpt lat="48.39645" lon="-1.16765">
        <ele>172</ele>
        <time>2022-05-21T13:55:45Z</time>
      </trkpt>
      <trkpt lat="48.39651" lon="-1.16753">
        <ele>173</ele>
        <time>2022-05-21T13:55:47Z</time>
      </trkpt>
      <trkpt lat="48.39643" lon="-1.16745">
        <ele>173</ele>
        <time>2022-05-21T13:55:49Z</time>
      </trkpt>
      <trkpt lat="48.39651" lon="-1.16751">
        <ele>173</ele>
        <time>2022-05-21T13:55:50Z</time>
      </trkpt>
      <trkpt lat="48.39683" lon="-1.16789">
        <ele>175</ele>
        <time>2022-05-21T13:55:58Z</time>
      </trkpt>
      <trkpt lat="48.39694" lon="-1.16799">
        <ele>175</ele>
        <time>2022-05-21T13:56:00Z</time>
      </trkpt>
      <trkpt lat="48.39745" lon="-1.16869">
        <ele>174</ele>
        <time>2022-05-21T13:56:12Z</time>
      </trkpt>
      <trkpt lat="48.3979" lon="-1.16919">
        <ele>172</ele>
        <time>2022-05-21T13:56:22Z</time>
      </trkpt>
      <trkpt lat="48.39807" lon="-1.16941">
        <ele>171</ele>
        <time>2022-05-21T13:56:26Z</time>
      </trkpt>
      <trkpt lat="48.39812" lon="-1.16951">
        <ele>171</ele>
        <time>2022-05-21T13:56:28Z</time>
      </trkpt>
      <trkpt lat="48.39836" lon="-1.16979">
        <ele>170</ele>
        <time>2022-05-21T13:56:33Z</time>
      </trkpt>
      <trkpt lat="48.39884" lon="-1.17044">
        <ele>168</ele>
        <time>2022-05-21T13:56:45Z</time>
      </trkpt>
      <trkpt lat="48.39946" lon="-1.17118">
        <ele>165</ele>
        <time>2022-05-21T13:56:59Z</time>
      </trkpt>
      <trkpt lat="48.39973" lon="-1.17158">
        <ele>164</ele>
        <time>2022-05-21T13:57:05Z</time>
      </trkpt>
      <trkpt lat="48.4005" lon="-1.17249">
        <ele>159</ele>
        <time>2022-05-21T13:57:23Z</time>
      </trkpt>
      <trkpt lat="48.40057" lon="-1.17262">
        <ele>158</ele>
        <time>2022-05-21T13:57:25Z</time>
      </trkpt>
      <trkpt lat="48.40058" lon="-1.17275">
        <ele>158</ele>
        <time>2022-05-21T13:57:26Z</time>
      </trkpt>
      <trkpt lat="48.40053" lon="-1.17287">
        <ele>158</ele>
        <time>2022-05-21T13:57:28Z</time>
      </trkpt>
      <trkpt lat="48.4006" lon="-1.17276">
        <ele>158</ele>
        <time>2022-05-21T13:57:30Z</time>
      </trkpt>
      <trkpt lat="48.40072" lon="-1.1728">
        <ele>158</ele>
        <time>2022-05-21T13:57:32Z</time>
      </trkpt>
      <trkpt lat="48.40087" lon="-1.17304">
        <ele>158</ele>
        <time>2022-05-21T13:57:36Z</time>
      </trkpt>
      <trkpt lat="48.40148" lon="-1.1738">
        <ele>157</ele>
        <time>2022-05-21T13:57:50Z</time>
      </trkpt>
      <trkpt lat="48.40215" lon="-1.1747">
        <ele>154</ele>
        <time>2022-05-21T13:58:06Z</time>
      </trkpt>
      <trkpt lat="48.40348" lon="-1.17637">
        <ele>151</ele>
        <time>2022-05-21T13:58:37Z</time>
      </trkpt>
      <trkpt lat="48.40358" lon="-1.17646">
        <ele>151</ele>
        <time>2022-05-21T13:58:39Z</time>
      </trkpt>
      <trkpt lat="48.40422" lon="-1.17731">
        <ele>149</ele>
        <time>2022-05-21T13:58:54Z</time>
      </trkpt>
      <trkpt lat="48.40439" lon="-1.17749">
        <ele>148</ele>
        <time>2022-05-21T13:58:58Z</time>
      </trkpt>
      <trkpt lat="48.40458" lon="-1.17772">
        <ele>146</ele>
        <time>2022-05-21T13:59:02Z</time>
      </trkpt>
      <trkpt lat="48.40465" lon="-1.17784">
        <ele>146</ele>
        <time>2022-05-21T13:59:04Z</time>
      </trkpt>
      <trkpt lat="48.40507" lon="-1.17833">
        <ele>142</ele>
        <time>2022-05-21T13:59:13Z</time>
      </trkpt>
      <trkpt lat="48.40531" lon="-1.17868">
        <ele>142</ele>
        <time>2022-05-21T13:59:19Z</time>
      </trkpt>
      <trkpt lat="48.40624" lon="-1.17983">
        <ele>144</ele>
        <time>2022-05-21T13:59:41Z</time>
      </trkpt>
      <trkpt lat="48.40631" lon="-1.17997">
        <ele>144</ele>
        <time>2022-05-21T13:59:43Z</time>
      </trkpt>
      <trkpt lat="48.40649" lon="-1.18021">
        <ele>144</ele>
        <time>2022-05-21T13:59:47Z</time>
      </trkpt>
      <trkpt lat="48.40688" lon="-1.18062">
        <ele>145</ele>
        <time>2022-05-21T13:59:56Z</time>
      </trkpt>
      <trkpt lat="48.40719" lon="-1.18104">
        <ele>144</ele>
        <time>2022-05-21T14:00:03Z</time>
      </trkpt>
      <trkpt lat="48.40729" lon="-1.18114">
        <ele>143</ele>
        <time>2022-05-21T14:00:05Z</time>
      </trkpt>
      <trkpt lat="48.40752" lon="-1.18148">
        <ele>142</ele>
        <time>2022-05-21T14:00:11Z</time>
      </trkpt>
      <trkpt lat="48.40794" lon="-1.18199">
        <ele>138</ele>
        <time>2022-05-21T14:00:20Z</time>
      </trkpt>
      <trkpt lat="48.40811" lon="-1.18225">
        <ele>136</ele>
        <time>2022-05-21T14:00:25Z</time>
      </trkpt>
      <trkpt lat="48.4082" lon="-1.18232">
        <ele>135</ele>
        <time>2022-05-21T14:00:27Z</time>
      </trkpt>
      <trkpt lat="48.40827" lon="-1.18243">
        <ele>135</ele>
        <time>2022-05-21T14:00:28Z</time>
      </trkpt>
      <trkpt lat="48.40837" lon="-1.18251">
        <ele>134</ele>
        <time>2022-05-21T14:00:30Z</time>
      </trkpt>
      <trkpt lat="48.40848" lon="-1.18256">
        <ele>133</ele>
        <time>2022-05-21T14:00:32Z</time>
      </trkpt>
      <trkpt lat="48.40861" lon="-1.18257">
        <ele>132</ele>
        <time>2022-05-21T14:00:35Z</time>
      </trkpt>
      <trkpt lat="48.40871" lon="-1.18254">
        <ele>131</ele>
        <time>2022-05-21T14:00:36Z</time>
      </trkpt>
      <trkpt lat="48.40895" lon="-1.18255">
        <ele>130</ele>
        <time>2022-05-21T14:00:41Z</time>
      </trkpt>
      <trkpt lat="48.40959" lon="-1.18238">
        <ele>130</ele>
        <time>2022-05-21T14:00:52Z</time>
      </trkpt>
      <trkpt lat="48.41001" lon="-1.18236">
        <ele>131</ele>
        <time>2022-05-21T14:01:00Z</time>
      </trkpt>
      <trkpt lat="48.4102" lon="-1.18238">
        <ele>132</ele>
        <time>2022-05-21T14:01:03Z</time>
      </trkpt>
      <trkpt lat="48.41049" lon="-1.18245">
        <ele>133</ele>
        <time>2022-05-21T14:01:08Z</time>
      </trkpt>
      <trkpt lat="48.41077" lon="-1.18258">
        <ele>134</ele>
        <time>2022-05-21T14:01:14Z</time>
      </trkpt>
      <trkpt lat="48.41143" lon="-1.18324">
        <ele>138</ele>
        <time>2022-05-21T14:01:28Z</time>
      </trkpt>
      <trkpt lat="48.41184" lon="-1.18372">
        <ele>140</ele>
        <time>2022-05-21T14:01:37Z</time>
      </trkpt>
      <trkpt lat="48.41193" lon="-1.18379">
        <ele>140</ele>
        <time>2022-05-21T14:01:39Z</time>
      </trkpt>
      <trkpt lat="48.41259" lon="-1.1845">
        <ele>143</ele>
        <time>2022-05-21T14:01:53Z</time>
      </trkpt>
      <trkpt lat="48.41331" lon="-1.18531">
        <ele>145</ele>
        <time>2022-05-21T14:02:09Z</time>
      </trkpt>
      <trkpt lat="48.41408" lon="-1.18613">
        <ele>146</ele>
        <time>2022-05-21T14:02:26Z</time>
      </trkpt>
      <trkpt lat="48.41508" lon="-1.18712">
        <ele>147</ele>
        <time>2022-05-21T14:02:47Z</time>
      </trkpt>
      <trkpt lat="48.41519" lon="-1.1872">
        <ele>148</ele>
        <time>2022-05-21T14:02:49Z</time>
      </trkpt>
      <trkpt lat="48.4154" lon="-1.1873">
        <ele>148</ele>
        <time>2022-05-21T14:02:53Z</time>
      </trkpt>
      <trkpt lat="48.41582" lon="-1.18737">
        <ele>150</ele>
        <time>2022-05-21T14:03:01Z</time>
      </trkpt>
      <trkpt lat="48.41605" lon="-1.18734">
        <ele>150</ele>
        <time>2022-05-21T14:03:05Z</time>
      </trkpt>
      <trkpt lat="48.41683" lon="-1.18736">
        <ele>151</ele>
        <time>2022-05-21T14:03:19Z</time>
      </trkpt>
      <trkpt lat="48.41708" lon="-1.18746">
        <ele>151</ele>
        <time>2022-05-21T14:03:23Z</time>
      </trkpt>
      <trkpt lat="48.41758" lon="-1.1878">
        <ele>153</ele>
        <time>2022-05-21T14:03:33Z</time>
      </trkpt>
      <trkpt lat="48.41767" lon="-1.18784">
        <ele>153</ele>
        <time>2022-05-21T14:03:35Z</time>
      </trkpt>
      <trkpt lat="48.41795" lon="-1.1881">
        <ele>155</ele>
        <time>2022-05-21T14:03:41Z</time>
      </trkpt>
      <trkpt lat="48.41834" lon="-1.18855">
        <ele>156</ele>
        <time>2022-05-21T14:03:49Z</time>
      </trkpt>
      <trkpt lat="48.41946" lon="-1.19">
        <ele>157</ele>
        <time>2022-05-21T14:04:16Z</time>
      </trkpt>
      <trkpt lat="48.41979" lon="-1.19048">
        <ele>157</ele>
        <time>2022-05-21T14:04:24Z</time>
      </trkpt>
      <trkpt lat="48.42005" lon="-1.19077">
        <ele>156</ele>
        <time>2022-05-21T14:04:30Z</time>
      </trkpt>
      <trkpt lat="48.42097" lon="-1.19158">
        <ele>157</ele>
        <time>2022-05-21T14:04:49Z</time>
      </trkpt>
      <trkpt lat="48.42164" lon="-1.19204">
        <ele>157</ele>
        <time>2022-05-21T14:05:02Z</time>
      </trkpt>
      <trkpt lat="48.42203" lon="-1.19237">
        <ele>156</ele>
        <time>2022-05-21T14:05:10Z</time>
      </trkpt>
      <trkpt lat="48.42247" lon="-1.19279">
        <ele>156</ele>
        <time>2022-05-21T14:05:19Z</time>
      </trkpt>
      <trkpt lat="48.42257" lon="-1.19284">
        <ele>156</ele>
        <time>2022-05-21T14:05:21Z</time>
      </trkpt>
      <trkpt lat="48.42266" lon="-1.19292">
        <ele>156</ele>
        <time>2022-05-21T14:05:23Z</time>
      </trkpt>
      <trkpt lat="48.42269" lon="-1.19304">
        <ele>156</ele>
        <time>2022-05-21T14:05:24Z</time>
      </trkpt>
      <trkpt lat="48.42276" lon="-1.19318">
        <ele>156</ele>
        <time>2022-05-21T14:05:26Z</time>
      </trkpt>
      <trkpt lat="48.42291" lon="-1.19315">
        <ele>156</ele>
        <time>2022-05-21T14:05:29Z</time>
      </trkpt>
      <trkpt lat="48.42328" lon="-1.19346">
        <ele>157</ele>
        <time>2022-05-21T14:05:36Z</time>
      </trkpt>
      <trkpt lat="48.42345" lon="-1.19356">
        <ele>157</ele>
        <time>2022-05-21T14:05:40Z</time>
      </trkpt>
      <trkpt lat="48.42365" lon="-1.19362">
        <ele>158</ele>
        <time>2022-05-21T14:05:43Z</time>
      </trkpt>
      <trkpt lat="48.42376" lon="-1.19368">
        <ele>158</ele>
        <time>2022-05-21T14:05:45Z</time>
      </trkpt>
      <trkpt lat="48.42387" lon="-1.19369">
        <ele>159</ele>
        <time>2022-05-21T14:05:47Z</time>
      </trkpt>
      <trkpt lat="48.42418" lon="-1.19378">
        <ele>161</ele>
        <time>2022-05-21T14:05:53Z</time>
      </trkpt>
      <trkpt lat="48.42436" lon="-1.19378">
        <ele>161</ele>
        <time>2022-05-21T14:05:56Z</time>
      </trkpt>
      <trkpt lat="48.42458" lon="-1.19383">
        <ele>162</ele>
        <time>2022-05-21T14:06:00Z</time>
      </trkpt>
      <trkpt lat="48.42469" lon="-1.19382">
        <ele>162</ele>
        <time>2022-05-21T14:06:02Z</time>
      </trkpt>
      <trkpt lat="48.4254" lon="-1.19399">
        <ele>163</ele>
        <time>2022-05-21T14:06:15Z</time>
      </trkpt>
      <trkpt lat="48.42572" lon="-1.19402">
        <ele>163</ele>
        <time>2022-05-21T14:06:21Z</time>
      </trkpt>
      <trkpt lat="48.42592" lon="-1.19397">
        <ele>163</ele>
        <time>2022-05-21T14:06:24Z</time>
      </trkpt>
      <trkpt lat="48.42613" lon="-1.19382">
        <ele>163</ele>
        <time>2022-05-21T14:06:28Z</time>
      </trkpt>
      <trkpt lat="48.42624" lon="-1.19381">
        <ele>163</ele>
        <time>2022-05-21T14:06:30Z</time>
      </trkpt>
      <trkpt lat="48.42672" lon="-1.19348">
        <ele>163</ele>
        <time>2022-05-21T14:06:40Z</time>
      </trkpt>
      <trkpt lat="48.4268" lon="-1.19335">
        <ele>163</ele>
        <time>2022-05-21T14:06:42Z</time>
      </trkpt>
      <trkpt lat="48.42716" lon="-1.19312">
        <ele>161</ele>
        <time>2022-05-21T14:06:49Z</time>
      </trkpt>
      <trkpt lat="48.42737" lon="-1.19292">
        <ele>160</ele>
        <time>2022-05-21T14:06:53Z</time>
      </trkpt>
      <trkpt lat="48.42803" lon="-1.19149">
        <ele>156</ele>
        <time>2022-05-21T14:07:14Z</time>
      </trkpt>
      <trkpt lat="48.4283" lon="-1.19069">
        <ele>157</ele>
        <time>2022-05-21T14:07:24Z</time>
      </trkpt>
      <trkpt lat="48.42838" lon="-1.19056">
        <ele>157</ele>
        <time>2022-05-21T14:07:26Z</time>
      </trkpt>
      <trkpt lat="48.42856" lon="-1.19049">
        <ele>156</ele>
        <time>2022-05-21T14:07:30Z</time>
      </trkpt>
      <trkpt lat="48.42848" lon="-1.19058">
        <ele>157</ele>
        <time>2022-05-21T14:07:32Z</time>
      </trkpt>
      <trkpt lat="48.42839" lon="-1.1906">
        <ele>157</ele>
        <time>2022-05-21T14:07:33Z</time>
      </trkpt>
      <trkpt lat="48.42781" lon="-1.1919">
        <ele>157</ele>
        <time>2022-05-21T14:07:52Z</time>
      </trkpt>
      <trkpt lat="48.42768" lon="-1.19209">
        <ele>157</ele>
        <time>2022-05-21T14:07:55Z</time>
      </trkpt>
      <trkpt lat="48.42775" lon="-1.19199">
        <ele>157</ele>
        <time>2022-05-21T14:07:57Z</time>
      </trkpt>
      <trkpt lat="48.42743" lon="-1.19168">
        <ele>157</ele>
        <time>2022-05-21T14:08:03Z</time>
      </trkpt>
      <trkpt lat="48.42739" lon="-1.19156">
        <ele>157</ele>
        <time>2022-05-21T14:08:05Z</time>
      </trkpt>
      <trkpt lat="48.42741" lon="-1.19128">
        <ele>157</ele>
        <time>2022-05-21T14:08:08Z</time>
      </trkpt>
      <trkpt lat="48.4275" lon="-1.19071">
        <ele>156</ele>
        <time>2022-05-21T14:08:15Z</time>
      </trkpt>
      <trkpt lat="48.42749" lon="-1.19056">
        <ele>156</ele>
        <time>2022-05-21T14:08:17Z</time>
      </trkpt>
      <trkpt lat="48.42741" lon="-1.19046">
        <ele>156</ele>
        <time>2022-05-21T14:08:19Z</time>
      </trkpt>
      <trkpt lat="48.42733" lon="-1.19029">
        <ele>156</ele>
        <time>2022-05-21T14:08:21Z</time>
      </trkpt>
      <trkpt lat="48.42746" lon="-1.19053">
        <ele>156</ele>
        <time>2022-05-21T14:08:25Z</time>
      </trkpt>
      <trkpt lat="48.42757" lon="-1.19113">
        <ele>156</ele>
        <time>2022-05-21T14:08:32Z</time>
      </trkpt>
      <trkpt lat="48.42756" lon="-1.19127">
        <ele>156</ele>
        <time>2022-05-21T14:08:34Z</time>
      </trkpt>
      <trkpt lat="48.4276" lon="-1.19155">
        <ele>157</ele>
        <time>2022-05-21T14:08:37Z</time>
      </trkpt>
      <trkpt lat="48.42755" lon="-1.19167">
        <ele>157</ele>
        <time>2022-05-21T14:08:39Z</time>
      </trkpt>
      <trkpt lat="48.42747" lon="-1.19177">
        <ele>157</ele>
        <time>2022-05-21T14:08:41Z</time>
      </trkpt>
      <trkpt lat="48.42753" lon="-1.19192">
        <ele>158</ele>
        <time>2022-05-21T14:08:43Z</time>
      </trkpt>
      <trkpt lat="48.42749" lon="-1.19179">
        <ele>157</ele>
        <time>2022-05-21T14:08:45Z</time>
      </trkpt>
      <trkpt lat="48.42755" lon="-1.19168">
        <ele>157</ele>
        <time>2022-05-21T14:08:46Z</time>
      </trkpt>
      <trkpt lat="48.42771" lon="-1.19153">
        <ele>156</ele>
        <time>2022-05-21T14:08:50Z</time>
      </trkpt>
      <trkpt lat="48.42755" lon="-1.19171">
        <ele>157</ele>
        <time>2022-05-21T14:08:53Z</time>
      </trkpt>
      <trkpt lat="48.4275" lon="-1.19184">
        <ele>157</ele>
        <time>2022-05-21T14:08:55Z</time>
      </trkpt>
      <trkpt lat="48.42757" lon="-1.19194">
        <ele>157</ele>
        <time>2022-05-21T14:08:57Z</time>
      </trkpt>
      <trkpt lat="48.42755" lon="-1.19179">
        <ele>157</ele>
        <time>2022-05-21T14:08:59Z</time>
      </trkpt>
      <trkpt lat="48.42765" lon="-1.1918">
        <ele>157</ele>
        <time>2022-05-21T14:09:00Z</time>
      </trkpt>
      <trkpt lat="48.42772" lon="-1.19189">
        <ele>157</ele>
        <time>2022-05-21T14:09:02Z</time>
      </trkpt>
      <trkpt lat="48.42774" lon="-1.19202">
        <ele>157</ele>
        <time>2022-05-21T14:09:04Z</time>
      </trkpt>
      <trkpt lat="48.42748" lon="-1.19269">
        <ele>159</ele>
        <time>2022-05-21T14:09:13Z</time>
      </trkpt>
      <trkpt lat="48.42735" lon="-1.19293">
        <ele>160</ele>
        <time>2022-05-21T14:09:16Z</time>
      </trkpt>
      <trkpt lat="48.42708" lon="-1.19318">
        <ele>161</ele>
        <time>2022-05-21T14:09:22Z</time>
      </trkpt>
      <trkpt lat="48.42687" lon="-1.19329">
        <ele>162</ele>
        <time>2022-05-21T14:09:26Z</time>
      </trkpt>
      <trkpt lat="48.4265" lon="-1.19355">
        <ele>163</ele>
        <time>2022-05-21T14:09:33Z</time>
      </trkpt>
      <trkpt lat="48.42642" lon="-1.19362">
        <ele>163</ele>
        <time>2022-05-21T14:09:35Z</time>
      </trkpt>
      <trkpt lat="48.42635" lon="-1.19374">
        <ele>163</ele>
        <time>2022-05-21T14:09:37Z</time>
      </trkpt>
      <trkpt lat="48.4264" lon="-1.19466">
        <ele>163</ele>
        <time>2022-05-21T14:09:48Z</time>
      </trkpt>
      <trkpt lat="48.42636" lon="-1.19514">
        <ele>163</ele>
        <time>2022-05-21T14:09:53Z</time>
      </trkpt>
      <trkpt lat="48.42632" lon="-1.19526">
        <ele>163</ele>
        <time>2022-05-21T14:09:55Z</time>
      </trkpt>
      <trkpt lat="48.42638" lon="-1.19497">
        <ele>164</ele>
        <time>2022-05-21T14:09:59Z</time>
      </trkpt>
      <trkpt lat="48.42641" lon="-1.19466">
        <ele>163</ele>
        <time>2022-05-21T14:10:02Z</time>
      </trkpt>
      <trkpt lat="48.42646" lon="-1.19453">
        <ele>163</ele>
        <time>2022-05-21T14:10:04Z</time>
      </trkpt>
      <trkpt lat="48.42666" lon="-1.19443">
        <ele>163</ele>
        <time>2022-05-21T14:10:08Z</time>
      </trkpt>
      <trkpt lat="48.42685" lon="-1.19439">
        <ele>163</ele>
        <time>2022-05-21T14:10:11Z</time>
      </trkpt>
      <trkpt lat="48.42694" lon="-1.19434">
        <ele>163</ele>
        <time>2022-05-21T14:10:13Z</time>
      </trkpt>
      <trkpt lat="48.427" lon="-1.19447">
        <ele>163</ele>
        <time>2022-05-21T14:10:15Z</time>
      </trkpt>
      <trkpt lat="48.42705" lon="-1.19491">
        <ele>163</ele>
        <time>2022-05-21T14:10:20Z</time>
      </trkpt>
      <trkpt lat="48.42712" lon="-1.195">
        <ele>163</ele>
        <time>2022-05-21T14:10:22Z</time>
      </trkpt>
      <trkpt lat="48.42756" lon="-1.19504">
        <ele>163</ele>
        <time>2022-05-21T14:10:29Z</time>
      </trkpt>
      <trkpt lat="48.42789" lon="-1.195">
        <ele>162</ele>
        <time>2022-05-21T14:10:35Z</time>
      </trkpt>
      <trkpt lat="48.42796" lon="-1.19512">
        <ele>162</ele>
        <time>2022-05-21T14:10:37Z</time>
      </trkpt>
      <trkpt lat="48.42802" lon="-1.19562">
        <ele>162</ele>
        <time>2022-05-21T14:10:43Z</time>
      </trkpt>
      <trkpt lat="48.42814" lon="-1.19628">
        <ele>162</ele>
        <time>2022-05-21T14:10:51Z</time>
      </trkpt>
      <trkpt lat="48.42821" lon="-1.19637">
        <ele>162</ele>
        <time>2022-05-21T14:10:53Z</time>
      </trkpt>
      <trkpt lat="48.42843" lon="-1.19636">
        <ele>162</ele>
        <time>2022-05-21T14:10:57Z</time>
      </trkpt>
      <trkpt lat="48.42863" lon="-1.19645">
        <ele>162</ele>
        <time>2022-05-21T14:11:01Z</time>
      </trkpt>
      <trkpt lat="48.42874" lon="-1.19638">
        <ele>162</ele>
        <time>2022-05-21T14:11:03Z</time>
      </trkpt>
      <trkpt lat="48.4289" lon="-1.19622">
        <ele>162</ele>
        <time>2022-05-21T14:11:06Z</time>
      </trkpt>
      <trkpt lat="48.42977" lon="-1.19754">
        <ele>160</ele>
        <time>2022-05-21T14:11:28Z</time>
      </trkpt>
      <trkpt lat="48.42991" lon="-1.19784">
        <ele>160</ele>
        <time>2022-05-21T14:11:32Z</time>
      </trkpt>
      <trkpt lat="48.43004" lon="-1.19832">
        <ele>160</ele>
        <time>2022-05-21T14:11:39Z</time>
      </trkpt>
      <trkpt lat="48.43006" lon="-1.19847">
        <ele>160</ele>
        <time>2022-05-21T14:11:40Z</time>
      </trkpt>
      <trkpt lat="48.43029" lon="-1.19923">
        <ele>160</ele>
        <time>2022-05-21T14:11:50Z</time>
      </trkpt>
      <trkpt lat="48.43051" lon="-1.20019">
        <ele>160</ele>
        <time>2022-05-21T14:12:02Z</time>
      </trkpt>
      <trkpt lat="48.43069" lon="-1.20039">
        <ele>159</ele>
        <time>2022-05-21T14:12:06Z</time>
      </trkpt>
      <trkpt lat="48.43079" lon="-1.20044">
        <ele>159</ele>
        <time>2022-05-21T14:12:08Z</time>
      </trkpt>
      <trkpt lat="48.43202" lon="-1.20073">
        <ele>156</ele>
        <time>2022-05-21T14:12:30Z</time>
      </trkpt>
      <trkpt lat="48.43233" lon="-1.20076">
        <ele>155</ele>
        <time>2022-05-21T14:12:36Z</time>
      </trkpt>
      <trkpt lat="48.433" lon="-1.20089">
        <ele>153</ele>
        <time>2022-05-21T14:12:48Z</time>
      </trkpt>
      <trkpt lat="48.43412" lon="-1.20124">
        <ele>153</ele>
        <time>2022-05-21T14:13:08Z</time>
      </trkpt>
      <trkpt lat="48.43447" lon="-1.20138">
        <ele>154</ele>
        <time>2022-05-21T14:13:15Z</time>
      </trkpt>
      <trkpt lat="48.43466" lon="-1.20151">
        <ele>154</ele>
        <time>2022-05-21T14:13:18Z</time>
      </trkpt>
      <trkpt lat="48.4349" lon="-1.20151">
        <ele>155</ele>
        <time>2022-05-21T14:13:23Z</time>
      </trkpt>
      <trkpt lat="48.435" lon="-1.20156">
        <ele>155</ele>
        <time>2022-05-21T14:13:24Z</time>
      </trkpt>
      <trkpt lat="48.43511" lon="-1.20157">
        <ele>155</ele>
        <time>2022-05-21T14:13:26Z</time>
      </trkpt>
      <trkpt lat="48.43544" lon="-1.20168">
        <ele>154</ele>
        <time>2022-05-21T14:13:32Z</time>
      </trkpt>
      <trkpt lat="48.43574" lon="-1.20174">
        <ele>154</ele>
        <time>2022-05-21T14:13:38Z</time>
      </trkpt>
      <trkpt lat="48.4361" lon="-1.20175">
        <ele>153</ele>
        <time>2022-05-21T14:13:44Z</time>
      </trkpt>
      <trkpt lat="48.43707" lon="-1.20159">
        <ele>152</ele>
        <time>2022-05-21T14:14:02Z</time>
      </trkpt>
      <trkpt lat="48.43742" lon="-1.20156">
        <ele>152</ele>
        <time>2022-05-21T14:14:08Z</time>
      </trkpt>
      <trkpt lat="48.43792" lon="-1.20144">
        <ele>152</ele>
        <time>2022-05-21T14:14:17Z</time>
      </trkpt>
      <trkpt lat="48.43865" lon="-1.20121">
        <ele>151</ele>
        <time>2022-05-21T14:14:30Z</time>
      </trkpt>
      <trkpt lat="48.43912" lon="-1.20115">
        <ele>150</ele>
        <time>2022-05-21T14:14:38Z</time>
      </trkpt>
      <trkpt lat="48.43968" lon="-1.20118">
        <ele>150</ele>
        <time>2022-05-21T14:14:48Z</time>
      </trkpt>
      <trkpt lat="48.43977" lon="-1.20122">
        <ele>150</ele>
        <time>2022-05-21T14:14:50Z</time>
      </trkpt>
      <trkpt lat="48.4399" lon="-1.2018">
        <ele>150</ele>
        <time>2022-05-21T14:14:57Z</time>
      </trkpt>
      <trkpt lat="48.44001" lon="-1.20185">
        <ele>150</ele>
        <time>2022-05-21T14:14:59Z</time>
      </trkpt>
      <trkpt lat="48.44088" lon="-1.20159">
        <ele>149</ele>
        <time>2022-05-21T14:15:15Z</time>
      </trkpt>
      <trkpt lat="48.44215" lon="-1.20114">
        <ele>149</ele>
        <time>2022-05-21T14:15:38Z</time>
      </trkpt>
      <trkpt lat="48.44258" lon="-1.20095">
        <ele>149</ele>
        <time>2022-05-21T14:15:46Z</time>
      </trkpt>
      <trkpt lat="48.44271" lon="-1.20092">
        <ele>149</ele>
        <time>2022-05-21T14:15:49Z</time>
      </trkpt>
      <trkpt lat="48.44289" lon="-1.20082">
        <ele>149</ele>
        <time>2022-05-21T14:15:52Z</time>
      </trkpt>
      <trkpt lat="48.44308" lon="-1.20077">
        <ele>150</ele>
        <time>2022-05-21T14:15:56Z</time>
      </trkpt>
      <trkpt lat="48.44337" lon="-1.20063">
        <ele>150</ele>
        <time>2022-05-21T14:16:01Z</time>
      </trkpt>
      <trkpt lat="48.44365" lon="-1.20053">
        <ele>150</ele>
        <time>2022-05-21T14:16:06Z</time>
      </trkpt>
      <trkpt lat="48.44452" lon="-1.20008">
        <ele>150</ele>
        <time>2022-05-21T14:16:22Z</time>
      </trkpt>
      <trkpt lat="48.44481" lon="-1.1999">
        <ele>151</ele>
        <time>2022-05-21T14:16:28Z</time>
      </trkpt>
      <trkpt lat="48.44531" lon="-1.19954">
        <ele>151</ele>
        <time>2022-05-21T14:16:38Z</time>
      </trkpt>
      <trkpt lat="48.44541" lon="-1.1995">
        <ele>151</ele>
        <time>2022-05-21T14:16:40Z</time>
      </trkpt>
      <trkpt lat="48.44562" lon="-1.19936">
        <ele>152</ele>
        <time>2022-05-21T14:16:44Z</time>
      </trkpt>
      <trkpt lat="48.4465" lon="-1.19863">
        <ele>154</ele>
        <time>2022-05-21T14:17:02Z</time>
      </trkpt>
      <trkpt lat="48.44688" lon="-1.19824">
        <ele>155</ele>
        <time>2022-05-21T14:17:10Z</time>
      </trkpt>
      <trkpt lat="48.44713" lon="-1.19794">
        <ele>156</ele>
        <time>2022-05-21T14:17:16Z</time>
      </trkpt>
      <trkpt lat="48.44744" lon="-1.19767">
        <ele>157</ele>
        <time>2022-05-21T14:17:22Z</time>
      </trkpt>
      <trkpt lat="48.44781" lon="-1.19725">
        <ele>157</ele>
        <time>2022-05-21T14:17:30Z</time>
      </trkpt>
      <trkpt lat="48.44804" lon="-1.19697">
        <ele>158</ele>
        <time>2022-05-21T14:17:35Z</time>
      </trkpt>
      <trkpt lat="48.44832" lon="-1.19657">
        <ele>158</ele>
        <time>2022-05-21T14:17:42Z</time>
      </trkpt>
      <trkpt lat="48.4487" lon="-1.19613">
        <ele>156</ele>
        <time>2022-05-21T14:17:51Z</time>
      </trkpt>
      <trkpt lat="48.44908" lon="-1.19555">
        <ele>153</ele>
        <time>2022-05-21T14:18:00Z</time>
      </trkpt>
      <trkpt lat="48.44937" lon="-1.19521">
        <ele>151</ele>
        <time>2022-05-21T14:18:07Z</time>
      </trkpt>
      <trkpt lat="48.44966" lon="-1.19474">
        <ele>150</ele>
        <time>2022-05-21T14:18:15Z</time>
      </trkpt>
      <trkpt lat="48.44982" lon="-1.19455">
        <ele>150</ele>
        <time>2022-05-21T14:18:18Z</time>
      </trkpt>
      <trkpt lat="48.45005" lon="-1.1942">
        <ele>150</ele>
        <time>2022-05-21T14:18:24Z</time>
      </trkpt>
      <trkpt lat="48.45134" lon="-1.19249">
        <ele>154</ele>
        <time>2022-05-21T14:18:55Z</time>
      </trkpt>
      <trkpt lat="48.45177" lon="-1.19198">
        <ele>153</ele>
        <time>2022-05-21T14:19:04Z</time>
      </trkpt>
      <trkpt lat="48.45305" lon="-1.19058">
        <ele>154</ele>
        <time>2022-05-21T14:19:32Z</time>
      </trkpt>
      <trkpt lat="48.45313" lon="-1.19046">
        <ele>154</ele>
        <time>2022-05-21T14:19:34Z</time>
      </trkpt>
      <trkpt lat="48.4533" lon="-1.19032">
        <ele>154</ele>
        <time>2022-05-21T14:19:38Z</time>
      </trkpt>
      <trkpt lat="48.45365" lon="-1.18994">
        <ele>154</ele>
        <time>2022-05-21T14:19:46Z</time>
      </trkpt>
      <trkpt lat="48.45398" lon="-1.18965">
        <ele>154</ele>
        <time>2022-05-21T14:19:52Z</time>
      </trkpt>
      <trkpt lat="48.45474" lon="-1.18903">
        <ele>155</ele>
        <time>2022-05-21T14:20:08Z</time>
      </trkpt>
      <trkpt lat="48.45495" lon="-1.18889">
        <ele>155</ele>
        <time>2022-05-21T14:20:12Z</time>
      </trkpt>
      <trkpt lat="48.45502" lon="-1.1888">
        <ele>155</ele>
        <time>2022-05-21T14:20:13Z</time>
      </trkpt>
      <trkpt lat="48.45531" lon="-1.18855">
        <ele>156</ele>
        <time>2022-05-21T14:20:19Z</time>
      </trkpt>
      <trkpt lat="48.45559" lon="-1.18835">
        <ele>156</ele>
        <time>2022-05-21T14:20:25Z</time>
      </trkpt>
      <trkpt lat="48.45594" lon="-1.18803">
        <ele>156</ele>
        <time>2022-05-21T14:20:32Z</time>
      </trkpt>
      <trkpt lat="48.45678" lon="-1.18735">
        <ele>156</ele>
        <time>2022-05-21T14:20:49Z</time>
      </trkpt>
      <trkpt lat="48.45726" lon="-1.18693">
        <ele>154</ele>
        <time>2022-05-21T14:20:59Z</time>
      </trkpt>
      <trkpt lat="48.45764" lon="-1.18666">
        <ele>153</ele>
        <time>2022-05-21T14:21:06Z</time>
      </trkpt>
      <trkpt lat="48.45865" lon="-1.18581">
        <ele>157</ele>
        <time>2022-05-21T14:21:27Z</time>
      </trkpt>
      <trkpt lat="48.45891" lon="-1.18556">
        <ele>158</ele>
        <time>2022-05-21T14:21:33Z</time>
      </trkpt>
      <trkpt lat="48.45985" lon="-1.18479">
        <ele>161</ele>
        <time>2022-05-21T14:21:52Z</time>
      </trkpt>
      <trkpt lat="48.46064" lon="-1.18406">
        <ele>162</ele>
        <time>2022-05-21T14:22:08Z</time>
      </trkpt>
      <trkpt lat="48.46226" lon="-1.18272">
        <ele>163</ele>
        <time>2022-05-21T14:22:41Z</time>
      </trkpt>
      <trkpt lat="48.46284" lon="-1.18216">
        <ele>164</ele>
        <time>2022-05-21T14:22:53Z</time>
      </trkpt>
      <trkpt lat="48.46319" lon="-1.1816">
        <ele>165</ele>
        <time>2022-05-21T14:23:02Z</time>
      </trkpt>
      <trkpt lat="48.46341" lon="-1.18133">
        <ele>164</ele>
        <time>2022-05-21T14:23:07Z</time>
      </trkpt>
      <trkpt lat="48.4636" lon="-1.18146">
        <ele>163</ele>
        <time>2022-05-21T14:23:11Z</time>
      </trkpt>
      <trkpt lat="48.4637" lon="-1.18145">
        <ele>163</ele>
        <time>2022-05-21T14:23:13Z</time>
      </trkpt>
      <trkpt lat="48.46379" lon="-1.18149">
        <ele>162</ele>
        <time>2022-05-21T14:23:14Z</time>
      </trkpt>
      <trkpt lat="48.46406" lon="-1.18169">
        <ele>160</ele>
        <time>2022-05-21T14:23:20Z</time>
      </trkpt>
      <trkpt lat="48.46419" lon="-1.18174">
        <ele>159</ele>
        <time>2022-05-21T14:23:22Z</time>
      </trkpt>
      <trkpt lat="48.46441" lon="-1.18188">
        <ele>158</ele>
        <time>2022-05-21T14:23:26Z</time>
      </trkpt>
      <trkpt lat="48.46471" lon="-1.18217">
        <ele>157</ele>
        <time>2022-05-21T14:23:33Z</time>
      </trkpt>
      <trkpt lat="48.46493" lon="-1.18243">
        <ele>156</ele>
        <time>2022-05-21T14:23:38Z</time>
      </trkpt>
      <trkpt lat="48.46533" lon="-1.18274">
        <ele>154</ele>
        <time>2022-05-21T14:23:46Z</time>
      </trkpt>
      <trkpt lat="48.46614" lon="-1.18307">
        <ele>153</ele>
        <time>2022-05-21T14:24:01Z</time>
      </trkpt>
      <trkpt lat="48.46654" lon="-1.18326">
        <ele>154</ele>
        <time>2022-05-21T14:24:08Z</time>
      </trkpt>
      <trkpt lat="48.46693" lon="-1.18351">
        <ele>155</ele>
        <time>2022-05-21T14:24:16Z</time>
      </trkpt>
      <trkpt lat="48.46705" lon="-1.18356">
        <ele>155</ele>
        <time>2022-05-21T14:24:18Z</time>
      </trkpt>
      <trkpt lat="48.46742" lon="-1.18381">
        <ele>157</ele>
        <time>2022-05-21T14:24:25Z</time>
      </trkpt>
      <trkpt lat="48.46778" lon="-1.18401">
        <ele>158</ele>
        <time>2022-05-21T14:24:32Z</time>
      </trkpt>
      <trkpt lat="48.46856" lon="-1.18458">
        <ele>161</ele>
        <time>2022-05-21T14:24:47Z</time>
      </trkpt>
      <trkpt lat="48.46866" lon="-1.18463">
        <ele>161</ele>
        <time>2022-05-21T14:24:49Z</time>
      </trkpt>
      <trkpt lat="48.4692" lon="-1.18502">
        <ele>162</ele>
        <time>2022-05-21T14:25:00Z</time>
      </trkpt>
      <trkpt lat="48.46953" lon="-1.18529">
        <ele>163</ele>
        <time>2022-05-21T14:25:07Z</time>
      </trkpt>
      <trkpt lat="48.46969" lon="-1.18547">
        <ele>164</ele>
        <time>2022-05-21T14:25:10Z</time>
      </trkpt>
      <trkpt lat="48.46996" lon="-1.1859">
        <ele>165</ele>
        <time>2022-05-21T14:25:17Z</time>
      </trkpt>
      <trkpt lat="48.47008" lon="-1.18614">
        <ele>165</ele>
        <time>2022-05-21T14:25:21Z</time>
      </trkpt>
      <trkpt lat="48.47075" lon="-1.18776">
        <ele>165</ele>
        <time>2022-05-21T14:25:43Z</time>
      </trkpt>
      <trkpt lat="48.47083" lon="-1.18803">
        <ele>164</ele>
        <time>2022-05-21T14:25:47Z</time>
      </trkpt>
      <trkpt lat="48.4709" lon="-1.18851">
        <ele>164</ele>
        <time>2022-05-21T14:25:52Z</time>
      </trkpt>
      <trkpt lat="48.4709" lon="-1.18897">
        <ele>164</ele>
        <time>2022-05-21T14:25:58Z</time>
      </trkpt>
      <trkpt lat="48.47093" lon="-1.18926">
        <ele>164</ele>
        <time>2022-05-21T14:26:01Z</time>
      </trkpt>
      <trkpt lat="48.47102" lon="-1.18974">
        <ele>165</ele>
        <time>2022-05-21T14:26:07Z</time>
      </trkpt>
      <trkpt lat="48.47114" lon="-1.19016">
        <ele>166</ele>
        <time>2022-05-21T14:26:13Z</time>
      </trkpt>
      <trkpt lat="48.47138" lon="-1.19066">
        <ele>167</ele>
        <time>2022-05-21T14:26:20Z</time>
      </trkpt>
      <trkpt lat="48.47174" lon="-1.19122">
        <ele>168</ele>
        <time>2022-05-21T14:26:29Z</time>
      </trkpt>
      <trkpt lat="48.4721" lon="-1.1917">
        <ele>168</ele>
        <time>2022-05-21T14:26:38Z</time>
      </trkpt>
      <trkpt lat="48.472" lon="-1.19164">
        <ele>168</ele>
        <time>2022-05-21T14:26:40Z</time>
      </trkpt>
      <trkpt lat="48.47192" lon="-1.19176">
        <ele>168</ele>
        <time>2022-05-21T14:26:42Z</time>
      </trkpt>
      <trkpt lat="48.47166" lon="-1.19281">
        <ele>170</ele>
        <time>2022-05-21T14:26:55Z</time>
      </trkpt>
      <trkpt lat="48.47165" lon="-1.19298">
        <ele>171</ele>
        <time>2022-05-21T14:26:57Z</time>
      </trkpt>
      <trkpt lat="48.47167" lon="-1.19312">
        <ele>172</ele>
        <time>2022-05-21T14:26:59Z</time>
      </trkpt>
      <trkpt lat="48.47173" lon="-1.19326">
        <ele>172</ele>
        <time>2022-05-21T14:27:00Z</time>
      </trkpt>
      <trkpt lat="48.47188" lon="-1.1934">
        <ele>171</ele>
        <time>2022-05-21T14:27:04Z</time>
      </trkpt>
      <trkpt lat="48.47218" lon="-1.19398">
        <ele>171</ele>
        <time>2022-05-21T14:27:12Z</time>
      </trkpt>
      <trkpt lat="48.47249" lon="-1.19491">
        <ele>174</ele>
        <time>2022-05-21T14:27:25Z</time>
      </trkpt>
      <trkpt lat="48.47253" lon="-1.19536">
        <ele>175</ele>
        <time>2022-05-21T14:27:30Z</time>
      </trkpt>
      <trkpt lat="48.47252" lon="-1.19551">
        <ele>176</ele>
        <time>2022-05-21T14:27:32Z</time>
      </trkpt>
      <trkpt lat="48.4723" lon="-1.19655">
        <ele>176</ele>
        <time>2022-05-21T14:27:45Z</time>
      </trkpt>
      <trkpt lat="48.47227" lon="-1.19686">
        <ele>175</ele>
        <time>2022-05-21T14:27:48Z</time>
      </trkpt>
      <trkpt lat="48.4723" lon="-1.1972">
        <ele>173</ele>
        <time>2022-05-21T14:27:52Z</time>
      </trkpt>
      <trkpt lat="48.47253" lon="-1.19858">
        <ele>165</ele>
        <time>2022-05-21T14:28:09Z</time>
      </trkpt>
      <trkpt lat="48.47285" lon="-1.20102">
        <ele>172</ele>
        <time>2022-05-21T14:28:38Z</time>
      </trkpt>
      <trkpt lat="48.47297" lon="-1.20174">
        <ele>174</ele>
        <time>2022-05-21T14:28:47Z</time>
      </trkpt>
      <trkpt lat="48.47312" lon="-1.20218">
        <ele>172</ele>
        <time>2022-05-21T14:28:53Z</time>
      </trkpt>
      <trkpt lat="48.47337" lon="-1.20273">
        <ele>169</ele>
        <time>2022-05-21T14:29:01Z</time>
      </trkpt>
      <trkpt lat="48.47346" lon="-1.20292">
        <ele>168</ele>
        <time>2022-05-21T14:29:04Z</time>
      </trkpt>
      <trkpt lat="48.47369" lon="-1.20327">
        <ele>167</ele>
        <time>2022-05-21T14:29:09Z</time>
      </trkpt>
      <trkpt lat="48.47398" lon="-1.2036">
        <ele>166</ele>
        <time>2022-05-21T14:29:16Z</time>
      </trkpt>
      <trkpt lat="48.47447" lon="-1.20398">
        <ele>166</ele>
        <time>2022-05-21T14:29:26Z</time>
      </trkpt>
      <trkpt lat="48.47465" lon="-1.20415">
        <ele>167</ele>
        <time>2022-05-21T14:29:30Z</time>
      </trkpt>
      <trkpt lat="48.47498" lon="-1.20452">
        <ele>166</ele>
        <time>2022-05-21T14:29:37Z</time>
      </trkpt>
      <trkpt lat="48.47563" lon="-1.20493">
        <ele>163</ele>
        <time>2022-05-21T14:29:49Z</time>
      </trkpt>
      <trkpt lat="48.47574" lon="-1.20505">
        <ele>163</ele>
        <time>2022-05-21T14:29:52Z</time>
      </trkpt>
      <trkpt lat="48.4758" lon="-1.20517">
        <ele>162</ele>
        <time>2022-05-21T14:29:54Z</time>
      </trkpt>
      <trkpt lat="48.47589" lon="-1.20571">
        <ele>158</ele>
        <time>2022-05-21T14:30:00Z</time>
      </trkpt>
      <trkpt lat="48.47609" lon="-1.20585">
        <ele>158</ele>
        <time>2022-05-21T14:30:04Z</time>
      </trkpt>
      <trkpt lat="48.47741" lon="-1.20624">
        <ele>158</ele>
        <time>2022-05-21T14:30:28Z</time>
      </trkpt>
      <trkpt lat="48.47766" lon="-1.20628">
        <ele>156</ele>
        <time>2022-05-21T14:30:32Z</time>
      </trkpt>
      <trkpt lat="48.47784" lon="-1.20635">
        <ele>155</ele>
        <time>2022-05-21T14:30:36Z</time>
      </trkpt>
      <trkpt lat="48.47816" lon="-1.2064">
        <ele>153</ele>
        <time>2022-05-21T14:30:42Z</time>
      </trkpt>
      <trkpt lat="48.47859" lon="-1.20653">
        <ele>150</ele>
        <time>2022-05-21T14:30:49Z</time>
      </trkpt>
      <trkpt lat="48.47881" lon="-1.20662">
        <ele>148</ele>
        <time>2022-05-21T14:30:53Z</time>
      </trkpt>
      <trkpt lat="48.47901" lon="-1.20674">
        <ele>147</ele>
        <time>2022-05-21T14:30:57Z</time>
      </trkpt>
      <trkpt lat="48.47943" lon="-1.20678">
        <ele>145</ele>
        <time>2022-05-21T14:31:05Z</time>
      </trkpt>
      <trkpt lat="48.47953" lon="-1.20684">
        <ele>145</ele>
        <time>2022-05-21T14:31:07Z</time>
      </trkpt>
      <trkpt lat="48.47963" lon="-1.20685">
        <ele>145</ele>
        <time>2022-05-21T14:31:08Z</time>
      </trkpt>
      <trkpt lat="48.48018" lon="-1.20663">
        <ele>145</ele>
        <time>2022-05-21T14:31:19Z</time>
      </trkpt>
      <trkpt lat="48.48032" lon="-1.20643">
        <ele>146</ele>
        <time>2022-05-21T14:31:22Z</time>
      </trkpt>
      <trkpt lat="48.48034" lon="-1.2063">
        <ele>146</ele>
        <time>2022-05-21T14:31:24Z</time>
      </trkpt>
      <trkpt lat="48.48047" lon="-1.20608">
        <ele>147</ele>
        <time>2022-05-21T14:31:27Z</time>
      </trkpt>
      <trkpt lat="48.48121" lon="-1.20528">
        <ele>147</ele>
        <time>2022-05-21T14:31:43Z</time>
      </trkpt>
      <trkpt lat="48.48199" lon="-1.20454">
        <ele>150</ele>
        <time>2022-05-21T14:32:00Z</time>
      </trkpt>
      <trkpt lat="48.48226" lon="-1.20445">
        <ele>153</ele>
        <time>2022-05-21T14:32:04Z</time>
      </trkpt>
      <trkpt lat="48.48277" lon="-1.2044">
        <ele>157</ele>
        <time>2022-05-21T14:32:14Z</time>
      </trkpt>
      <trkpt lat="48.48296" lon="-1.20432">
        <ele>159</ele>
        <time>2022-05-21T14:32:17Z</time>
      </trkpt>
      <trkpt lat="48.48374" lon="-1.20412">
        <ele>164</ele>
        <time>2022-05-21T14:32:31Z</time>
      </trkpt>
      <trkpt lat="48.48485" lon="-1.20392">
        <ele>169</ele>
        <time>2022-05-21T14:32:51Z</time>
      </trkpt>
      <trkpt lat="48.48504" lon="-1.20386">
        <ele>169</ele>
        <time>2022-05-21T14:32:55Z</time>
      </trkpt>
      <trkpt lat="48.48534" lon="-1.20382">
        <ele>169</ele>
        <time>2022-05-21T14:33:00Z</time>
      </trkpt>
      <trkpt lat="48.48554" lon="-1.20376">
        <ele>169</ele>
        <time>2022-05-21T14:33:04Z</time>
      </trkpt>
      <trkpt lat="48.48562" lon="-1.20394">
        <ele>168</ele>
        <time>2022-05-21T14:33:06Z</time>
      </trkpt>
      <trkpt lat="48.48565" lon="-1.20411">
        <ele>168</ele>
        <time>2022-05-21T14:33:08Z</time>
      </trkpt>
      <trkpt lat="48.48566" lon="-1.20509">
        <ele>168</ele>
        <time>2022-05-21T14:33:20Z</time>
      </trkpt>
      <trkpt lat="48.48575" lon="-1.20724">
        <ele>167</ele>
        <time>2022-05-21T14:33:45Z</time>
      </trkpt>
      <trkpt lat="48.48574" lon="-1.20795">
        <ele>167</ele>
        <time>2022-05-21T14:33:53Z</time>
      </trkpt>
      <trkpt lat="48.48564" lon="-1.2091">
        <ele>167</ele>
        <time>2022-05-21T14:34:07Z</time>
      </trkpt>
      <trkpt lat="48.48559" lon="-1.20925">
        <ele>166</ele>
        <time>2022-05-21T14:34:09Z</time>
      </trkpt>
      <trkpt lat="48.48551" lon="-1.20935">
        <ele>166</ele>
        <time>2022-05-21T14:34:11Z</time>
      </trkpt>
      <trkpt lat="48.48444" lon="-1.20951">
        <ele>166</ele>
        <time>2022-05-21T14:34:30Z</time>
      </trkpt>
      <trkpt lat="48.48394" lon="-1.20963">
        <ele>165</ele>
        <time>2022-05-21T14:34:39Z</time>
      </trkpt>
      <trkpt lat="48.48349" lon="-1.20969">
        <ele>163</ele>
        <time>2022-05-21T14:34:47Z</time>
      </trkpt>
      <trkpt lat="48.48329" lon="-1.20977">
        <ele>162</ele>
        <time>2022-05-21T14:34:51Z</time>
      </trkpt>
      <trkpt lat="48.48318" lon="-1.20974">
        <ele>161</ele>
        <time>2022-05-21T14:34:53Z</time>
      </trkpt>
      <trkpt lat="48.48315" lon="-1.20957">
        <ele>161</ele>
        <time>2022-05-21T14:34:55Z</time>
      </trkpt>
      <trkpt lat="48.48308" lon="-1.20948">
        <ele>161</ele>
        <time>2022-05-21T14:34:57Z</time>
      </trkpt>
      <trkpt lat="48.48308" lon="-1.2095">
        <ele>161</ele>
        <time>2022-05-21T14:34:57Z</time>
      </trkpt>
      <trkpt lat="48.48316" lon="-1.20977">
        <ele>161</ele>
        <time>2022-05-21T14:35:00Z</time>
      </trkpt>
      <trkpt lat="48.48325" lon="-1.20981">
        <ele>162</ele>
        <time>2022-05-21T14:35:02Z</time>
      </trkpt>
      <trkpt lat="48.48353" lon="-1.20971">
        <ele>163</ele>
        <time>2022-05-21T14:35:07Z</time>
      </trkpt>
      <trkpt lat="48.48383" lon="-1.2097">
        <ele>164</ele>
        <time>2022-05-21T14:35:12Z</time>
      </trkpt>
      <trkpt lat="48.48443" lon="-1.20954">
        <ele>166</ele>
        <time>2022-05-21T14:35:23Z</time>
      </trkpt>
      <trkpt lat="48.48474" lon="-1.20951">
        <ele>167</ele>
        <time>2022-05-21T14:35:29Z</time>
      </trkpt>
      <trkpt lat="48.48495" lon="-1.20945">
        <ele>167</ele>
        <time>2022-05-21T14:35:33Z</time>
      </trkpt>
      <trkpt lat="48.48539" lon="-1.20939">
        <ele>167</ele>
        <time>2022-05-21T14:35:40Z</time>
      </trkpt>
      <trkpt lat="48.48549" lon="-1.20931">
        <ele>166</ele>
        <time>2022-05-21T14:35:42Z</time>
      </trkpt>
      <trkpt lat="48.48555" lon="-1.2092">
        <ele>167</ele>
        <time>2022-05-21T14:35:44Z</time>
      </trkpt>
      <trkpt lat="48.48566" lon="-1.20841">
        <ele>167</ele>
        <time>2022-05-21T14:35:54Z</time>
      </trkpt>
      <trkpt lat="48.4857" lon="-1.20769">
        <ele>167</ele>
        <time>2022-05-21T14:36:02Z</time>
      </trkpt>
      <trkpt lat="48.4857" lon="-1.20736">
        <ele>167</ele>
        <time>2022-05-21T14:36:06Z</time>
      </trkpt>
      <trkpt lat="48.48562" lon="-1.20628">
        <ele>166</ele>
        <time>2022-05-21T14:36:19Z</time>
      </trkpt>
      <trkpt lat="48.48561" lon="-1.20568">
        <ele>167</ele>
        <time>2022-05-21T14:36:26Z</time>
      </trkpt>
      <trkpt lat="48.48556" lon="-1.2049">
        <ele>168</ele>
        <time>2022-05-21T14:36:35Z</time>
      </trkpt>
      <trkpt lat="48.48555" lon="-1.20192">
        <ele>167</ele>
        <time>2022-05-21T14:37:10Z</time>
      </trkpt>
      <trkpt lat="48.48567" lon="-1.20048">
        <ele>167</ele>
        <time>2022-05-21T14:37:27Z</time>
      </trkpt>
      <trkpt lat="48.48569" lon="-1.19912">
        <ele>169</ele>
        <time>2022-05-21T14:37:43Z</time>
      </trkpt>
      <trkpt lat="48.48581" lon="-1.19765">
        <ele>168</ele>
        <time>2022-05-21T14:38:01Z</time>
      </trkpt>
      <trkpt lat="48.48588" lon="-1.19615">
        <ele>169</ele>
        <time>2022-05-21T14:38:19Z</time>
      </trkpt>
      <trkpt lat="48.48588" lon="-1.19599">
        <ele>170</ele>
        <time>2022-05-21T14:38:21Z</time>
      </trkpt>
      <trkpt lat="48.48585" lon="-1.19586">
        <ele>170</ele>
        <time>2022-05-21T14:38:22Z</time>
      </trkpt>
      <trkpt lat="48.48578" lon="-1.19577">
        <ele>170</ele>
        <time>2022-05-21T14:38:24Z</time>
      </trkpt>
      <trkpt lat="48.48589" lon="-1.19581">
        <ele>170</ele>
        <time>2022-05-21T14:38:26Z</time>
      </trkpt>
      <trkpt lat="48.48592" lon="-1.19566">
        <ele>171</ele>
        <time>2022-05-21T14:38:28Z</time>
      </trkpt>
      <trkpt lat="48.48591" lon="-1.19523">
        <ele>172</ele>
        <time>2022-05-21T14:38:33Z</time>
      </trkpt>
      <trkpt lat="48.48596" lon="-1.19477">
        <ele>173</ele>
        <time>2022-05-21T14:38:38Z</time>
      </trkpt>
      <trkpt lat="48.48599" lon="-1.19416">
        <ele>174</ele>
        <time>2022-05-21T14:38:45Z</time>
      </trkpt>
      <trkpt lat="48.48603" lon="-1.19402">
        <ele>174</ele>
        <time>2022-05-21T14:38:47Z</time>
      </trkpt>
      <trkpt lat="48.486" lon="-1.19387">
        <ele>174</ele>
        <time>2022-05-21T14:38:49Z</time>
      </trkpt>
      <trkpt lat="48.48604" lon="-1.19357">
        <ele>175</ele>
        <time>2022-05-21T14:38:53Z</time>
      </trkpt>
      <trkpt lat="48.48615" lon="-1.19331">
        <ele>176</ele>
        <time>2022-05-21T14:38:56Z</time>
      </trkpt>
      <trkpt lat="48.48654" lon="-1.19259">
        <ele>179</ele>
        <time>2022-05-21T14:39:07Z</time>
      </trkpt>
      <trkpt lat="48.48662" lon="-1.19217">
        <ele>181</ele>
        <time>2022-05-21T14:39:12Z</time>
      </trkpt>
      <trkpt lat="48.48662" lon="-1.19202">
        <ele>181</ele>
        <time>2022-05-21T14:39:14Z</time>
      </trkpt>
      <trkpt lat="48.48667" lon="-1.19189">
        <ele>181</ele>
        <time>2022-05-21T14:39:16Z</time>
      </trkpt>
      <trkpt lat="48.48677" lon="-1.19145">
        <ele>183</ele>
        <time>2022-05-21T14:39:22Z</time>
      </trkpt>
      <trkpt lat="48.48689" lon="-1.19118">
        <ele>183</ele>
        <time>2022-05-21T14:39:25Z</time>
      </trkpt>
      <trkpt lat="48.48692" lon="-1.19103">
        <ele>184</ele>
        <time>2022-05-21T14:39:27Z</time>
      </trkpt>
      <trkpt lat="48.48706" lon="-1.19078">
        <ele>184</ele>
        <time>2022-05-21T14:39:31Z</time>
      </trkpt>
      <trkpt lat="48.4871" lon="-1.19066">
        <ele>184</ele>
        <time>2022-05-21T14:39:33Z</time>
      </trkpt>
      <trkpt lat="48.48717" lon="-1.19034">
        <ele>185</ele>
        <time>2022-05-21T14:39:37Z</time>
      </trkpt>
      <trkpt lat="48.48715" lon="-1.19003">
        <ele>184</ele>
        <time>2022-05-21T14:39:40Z</time>
      </trkpt>
      <trkpt lat="48.48719" lon="-1.19017">
        <ele>185</ele>
        <time>2022-05-21T14:39:42Z</time>
      </trkpt>
      <trkpt lat="48.48718" lon="-1.19045">
        <ele>185</ele>
        <time>2022-05-21T14:39:45Z</time>
      </trkpt>
      <trkpt lat="48.48722" lon="-1.19057">
        <ele>185</ele>
        <time>2022-05-21T14:39:47Z</time>
      </trkpt>
      <trkpt lat="48.48733" lon="-1.19058">
        <ele>186</ele>
        <time>2022-05-21T14:39:49Z</time>
      </trkpt>
      <trkpt lat="48.48784" lon="-1.19076">
        <ele>187</ele>
        <time>2022-05-21T14:39:58Z</time>
      </trkpt>
      <trkpt lat="48.48812" lon="-1.1906">
        <ele>189</ele>
        <time>2022-05-21T14:40:04Z</time>
      </trkpt>
      <trkpt lat="48.48832" lon="-1.19052">
        <ele>189</ele>
        <time>2022-05-21T14:40:07Z</time>
      </trkpt>
      <trkpt lat="48.48867" lon="-1.1903">
        <ele>188</ele>
        <time>2022-05-21T14:40:14Z</time>
      </trkpt>
      <trkpt lat="48.4887" lon="-1.19016">
        <ele>188</ele>
        <time>2022-05-21T14:40:16Z</time>
      </trkpt>
      <trkpt lat="48.48863" lon="-1.1897">
        <ele>189</ele>
        <time>2022-05-21T14:40:21Z</time>
      </trkpt>
      <trkpt lat="48.48876" lon="-1.18965">
        <ele>188</ele>
        <time>2022-05-21T14:40:24Z</time>
      </trkpt>
      <trkpt lat="48.48916" lon="-1.19027">
        <ele>185</ele>
        <time>2022-05-21T14:40:34Z</time>
      </trkpt>
      <trkpt lat="48.48934" lon="-1.1905">
        <ele>184</ele>
        <time>2022-05-21T14:40:38Z</time>
      </trkpt>
      <trkpt lat="48.4897" lon="-1.19108">
        <ele>182</ele>
        <time>2022-05-21T14:40:47Z</time>
      </trkpt>
      <trkpt lat="48.48998" lon="-1.19145">
        <ele>181</ele>
        <time>2022-05-21T14:40:54Z</time>
      </trkpt>
      <trkpt lat="48.49041" lon="-1.19195">
        <ele>180</ele>
        <time>2022-05-21T14:41:04Z</time>
      </trkpt>
      <trkpt lat="48.49048" lon="-1.19207">
        <ele>180</ele>
        <time>2022-05-21T14:41:06Z</time>
      </trkpt>
      <trkpt lat="48.49072" lon="-1.19235">
        <ele>180</ele>
        <time>2022-05-21T14:41:11Z</time>
      </trkpt>
      <trkpt lat="48.49153" lon="-1.19342">
        <ele>181</ele>
        <time>2022-05-21T14:41:30Z</time>
      </trkpt>
      <trkpt lat="48.49172" lon="-1.19362">
        <ele>181</ele>
        <time>2022-05-21T14:41:34Z</time>
      </trkpt>
      <trkpt lat="48.49212" lon="-1.19395">
        <ele>180</ele>
        <time>2022-05-21T14:41:42Z</time>
      </trkpt>
      <trkpt lat="48.49224" lon="-1.19394">
        <ele>180</ele>
        <time>2022-05-21T14:41:45Z</time>
      </trkpt>
      <trkpt lat="48.49234" lon="-1.19388">
        <ele>180</ele>
        <time>2022-05-21T14:41:46Z</time>
      </trkpt>
      <trkpt lat="48.49325" lon="-1.19325">
        <ele>177</ele>
        <time>2022-05-21T14:42:04Z</time>
      </trkpt>
      <trkpt lat="48.49381" lon="-1.19275">
        <ele>179</ele>
        <time>2022-05-21T14:42:16Z</time>
      </trkpt>
      <trkpt lat="48.49445" lon="-1.19209">
        <ele>180</ele>
        <time>2022-05-21T14:42:30Z</time>
      </trkpt>
      <trkpt lat="48.49467" lon="-1.19193">
        <ele>181</ele>
        <time>2022-05-21T14:42:34Z</time>
      </trkpt>
      <trkpt lat="48.49504" lon="-1.19172">
        <ele>181</ele>
        <time>2022-05-21T14:42:41Z</time>
      </trkpt>
      <trkpt lat="48.49546" lon="-1.1915">
        <ele>180</ele>
        <time>2022-05-21T14:42:49Z</time>
      </trkpt>
      <trkpt lat="48.49575" lon="-1.19138">
        <ele>180</ele>
        <time>2022-05-21T14:42:54Z</time>
      </trkpt>
      <trkpt lat="48.49632" lon="-1.19106">
        <ele>179</ele>
        <time>2022-05-21T14:43:05Z</time>
      </trkpt>
      <trkpt lat="48.49678" lon="-1.19086">
        <ele>178</ele>
        <time>2022-05-21T14:43:14Z</time>
      </trkpt>
      <trkpt lat="48.4969" lon="-1.19084">
        <ele>177</ele>
        <time>2022-05-21T14:43:16Z</time>
      </trkpt>
      <trkpt lat="48.49713" lon="-1.19085">
        <ele>177</ele>
        <time>2022-05-21T14:43:20Z</time>
      </trkpt>
      <trkpt lat="48.49745" lon="-1.19082">
        <ele>176</ele>
        <time>2022-05-21T14:43:26Z</time>
      </trkpt>
      <trkpt lat="48.49805" lon="-1.19081">
        <ele>175</ele>
        <time>2022-05-21T14:43:36Z</time>
      </trkpt>
      <trkpt lat="48.49827" lon="-1.19073">
        <ele>175</ele>
        <time>2022-05-21T14:43:40Z</time>
      </trkpt>
      <trkpt lat="48.49855" lon="-1.19052">
        <ele>175</ele>
        <time>2022-05-21T14:43:46Z</time>
      </trkpt>
      <trkpt lat="48.49898" lon="-1.19012">
        <ele>176</ele>
        <time>2022-05-21T14:43:55Z</time>
      </trkpt>
      <trkpt lat="48.5007" lon="-1.18937">
        <ele>173</ele>
        <time>2022-05-21T14:44:27Z</time>
      </trkpt>
      <trkpt lat="48.50183" lon="-1.18885">
        <ele>172</ele>
        <time>2022-05-21T14:44:48Z</time>
      </trkpt>
      <trkpt lat="48.50211" lon="-1.18867">
        <ele>172</ele>
        <time>2022-05-21T14:44:53Z</time>
      </trkpt>
      <trkpt lat="48.50268" lon="-1.18815">
        <ele>172</ele>
        <time>2022-05-21T14:45:05Z</time>
      </trkpt>
      <trkpt lat="48.50352" lon="-1.18744">
        <ele>169</ele>
        <time>2022-05-21T14:45:22Z</time>
      </trkpt>
      <trkpt lat="48.50472" lon="-1.18647">
        <ele>161</ele>
        <time>2022-05-21T14:45:46Z</time>
      </trkpt>
      <trkpt lat="48.50582" lon="-1.18579">
        <ele>160</ele>
        <time>2022-05-21T14:46:07Z</time>
      </trkpt>
      <trkpt lat="48.50716" lon="-1.18519">
        <ele>155</ele>
        <time>2022-05-21T14:46:32Z</time>
      </trkpt>
      <trkpt lat="48.50753" lon="-1.18498">
        <ele>155</ele>
        <time>2022-05-21T14:46:39Z</time>
      </trkpt>
      <trkpt lat="48.50818" lon="-1.18439">
        <ele>152</ele>
        <time>2022-05-21T14:46:53Z</time>
      </trkpt>
      <trkpt lat="48.50955" lon="-1.183">
        <ele>156</ele>
        <time>2022-05-21T14:47:22Z</time>
      </trkpt>
      <trkpt lat="48.50982" lon="-1.18283">
        <ele>157</ele>
        <time>2022-05-21T14:47:27Z</time>
      </trkpt>
      <trkpt lat="48.51008" lon="-1.18261">
        <ele>157</ele>
        <time>2022-05-21T14:47:33Z</time>
      </trkpt>
      <trkpt lat="48.51032" lon="-1.18236">
        <ele>158</ele>
        <time>2022-05-21T14:47:38Z</time>
      </trkpt>
      <trkpt lat="48.51077" lon="-1.18174">
        <ele>160</ele>
        <time>2022-05-21T14:47:49Z</time>
      </trkpt>
      <trkpt lat="48.51105" lon="-1.18125">
        <ele>160</ele>
        <time>2022-05-21T14:47:56Z</time>
      </trkpt>
      <trkpt lat="48.51104" lon="-1.1811">
        <ele>160</ele>
        <time>2022-05-21T14:47:58Z</time>
      </trkpt>
      <trkpt lat="48.51108" lon="-1.18092">
        <ele>160</ele>
        <time>2022-05-21T14:48:00Z</time>
      </trkpt>
      <trkpt lat="48.51114" lon="-1.18082">
        <ele>160</ele>
        <time>2022-05-21T14:48:02Z</time>
      </trkpt>
      <trkpt lat="48.51118" lon="-1.18068">
        <ele>160</ele>
        <time>2022-05-21T14:48:04Z</time>
      </trkpt>
      <trkpt lat="48.51121" lon="-1.18015">
        <ele>158</ele>
        <time>2022-05-21T14:48:10Z</time>
      </trkpt>
      <trkpt lat="48.51126" lon="-1.17995">
        <ele>157</ele>
        <time>2022-05-21T14:48:13Z</time>
      </trkpt>
      <trkpt lat="48.51136" lon="-1.17977">
        <ele>156</ele>
        <time>2022-05-21T14:48:15Z</time>
      </trkpt>
      <trkpt lat="48.5121" lon="-1.17756">
        <ele>147</ele>
        <time>2022-05-21T14:48:45Z</time>
      </trkpt>
      <trkpt lat="48.5123" lon="-1.17719">
        <ele>146</ele>
        <time>2022-05-21T14:48:50Z</time>
      </trkpt>
      <trkpt lat="48.5136" lon="-1.17535">
        <ele>142</ele>
        <time>2022-05-21T14:49:22Z</time>
      </trkpt>
      <trkpt lat="48.51382" lon="-1.17508">
        <ele>141</ele>
        <time>2022-05-21T14:49:27Z</time>
      </trkpt>
      <trkpt lat="48.51458" lon="-1.17432">
        <ele>138</ele>
        <time>2022-05-21T14:49:43Z</time>
      </trkpt>
      <trkpt lat="48.51594" lon="-1.17311">
        <ele>135</ele>
        <time>2022-05-21T14:50:11Z</time>
      </trkpt>
      <trkpt lat="48.51632" lon="-1.17272">
        <ele>134</ele>
        <time>2022-05-21T14:50:19Z</time>
      </trkpt>
      <trkpt lat="48.51671" lon="-1.17237">
        <ele>134</ele>
        <time>2022-05-21T14:50:28Z</time>
      </trkpt>
      <trkpt lat="48.51766" lon="-1.17139">
        <ele>135</ele>
        <time>2022-05-21T14:50:48Z</time>
      </trkpt>
      <trkpt lat="48.51795" lon="-1.17115">
        <ele>135</ele>
        <time>2022-05-21T14:50:54Z</time>
      </trkpt>
      <trkpt lat="48.51953" lon="-1.1693">
        <ele>133</ele>
        <time>2022-05-21T14:51:29Z</time>
      </trkpt>
      <trkpt lat="48.51963" lon="-1.16917">
        <ele>133</ele>
        <time>2022-05-21T14:51:32Z</time>
      </trkpt>
      <trkpt lat="48.51985" lon="-1.16877">
        <ele>134</ele>
        <time>2022-05-21T14:51:38Z</time>
      </trkpt>
      <trkpt lat="48.52011" lon="-1.16809">
        <ele>135</ele>
        <time>2022-05-21T14:51:47Z</time>
      </trkpt>
      <trkpt lat="48.52042" lon="-1.1674">
        <ele>136</ele>
        <time>2022-05-21T14:51:57Z</time>
      </trkpt>
      <trkpt lat="48.52065" lon="-1.16706">
        <ele>136</ele>
        <time>2022-05-21T14:52:03Z</time>
      </trkpt>
      <trkpt lat="48.52096" lon="-1.16676">
        <ele>135</ele>
        <time>2022-05-21T14:52:09Z</time>
      </trkpt>
      <trkpt lat="48.52405" lon="-1.16436">
        <ele>130</ele>
        <time>2022-05-21T14:53:11Z</time>
      </trkpt>
      <trkpt lat="48.52448" lon="-1.16413">
        <ele>129</ele>
        <time>2022-05-21T14:53:19Z</time>
      </trkpt>
      <trkpt lat="48.52472" lon="-1.16408">
        <ele>129</ele>
        <time>2022-05-21T14:53:24Z</time>
      </trkpt>
      <trkpt lat="48.52534" lon="-1.16406">
        <ele>127</ele>
        <time>2022-05-21T14:53:35Z</time>
      </trkpt>
      <trkpt lat="48.52578" lon="-1.16415">
        <ele>125</ele>
        <time>2022-05-21T14:53:42Z</time>
      </trkpt>
      <trkpt lat="48.526" lon="-1.16423">
        <ele>125</ele>
        <time>2022-05-21T14:53:47Z</time>
      </trkpt>
      <trkpt lat="48.52656" lon="-1.16435">
        <ele>124</ele>
        <time>2022-05-21T14:53:57Z</time>
      </trkpt>
      <trkpt lat="48.52681" lon="-1.16444">
        <ele>123</ele>
        <time>2022-05-21T14:54:01Z</time>
      </trkpt>
      <trkpt lat="48.52816" lon="-1.16476">
        <ele>122</ele>
        <time>2022-05-21T14:54:25Z</time>
      </trkpt>
      <trkpt lat="48.5289" lon="-1.16499">
        <ele>121</ele>
        <time>2022-05-21T14:54:39Z</time>
      </trkpt>
      <trkpt lat="48.52938" lon="-1.16508">
        <ele>121</ele>
        <time>2022-05-21T14:54:48Z</time>
      </trkpt>
      <trkpt lat="48.53056" lon="-1.16541">
        <ele>121</ele>
        <time>2022-05-21T14:55:09Z</time>
      </trkpt>
      <trkpt lat="48.53068" lon="-1.16539">
        <ele>121</ele>
        <time>2022-05-21T14:55:11Z</time>
      </trkpt>
      <trkpt lat="48.53078" lon="-1.1653">
        <ele>121</ele>
        <time>2022-05-21T14:55:13Z</time>
      </trkpt>
      <trkpt lat="48.53112" lon="-1.16484">
        <ele>122</ele>
        <time>2022-05-21T14:55:21Z</time>
      </trkpt>
      <trkpt lat="48.53132" lon="-1.16445">
        <ele>124</ele>
        <time>2022-05-21T14:55:27Z</time>
      </trkpt>
      <trkpt lat="48.53168" lon="-1.1634">
        <ele>128</ele>
        <time>2022-05-21T14:55:41Z</time>
      </trkpt>
      <trkpt lat="48.53191" lon="-1.16234">
        <ele>131</ele>
        <time>2022-05-21T14:55:54Z</time>
      </trkpt>
      <trkpt lat="48.5321" lon="-1.1616">
        <ele>133</ele>
        <time>2022-05-21T14:56:03Z</time>
      </trkpt>
      <trkpt lat="48.53224" lon="-1.16122">
        <ele>134</ele>
        <time>2022-05-21T14:56:09Z</time>
      </trkpt>
      <trkpt lat="48.53271" lon="-1.16024">
        <ele>135</ele>
        <time>2022-05-21T14:56:23Z</time>
      </trkpt>
      <trkpt lat="48.5328" lon="-1.15998">
        <ele>136</ele>
        <time>2022-05-21T14:56:26Z</time>
      </trkpt>
      <trkpt lat="48.53324" lon="-1.1583">
        <ele>138</ele>
        <time>2022-05-21T14:56:48Z</time>
      </trkpt>
      <trkpt lat="48.53358" lon="-1.15723">
        <ele>141</ele>
        <time>2022-05-21T14:57:02Z</time>
      </trkpt>
      <trkpt lat="48.53377" lon="-1.15675">
        <ele>144</ele>
        <time>2022-05-21T14:57:08Z</time>
      </trkpt>
      <trkpt lat="48.53413" lon="-1.15606">
        <ele>147</ele>
        <time>2022-05-21T14:57:18Z</time>
      </trkpt>
      <trkpt lat="48.53447" lon="-1.15551">
        <ele>150</ele>
        <time>2022-05-21T14:57:27Z</time>
      </trkpt>
      <trkpt lat="48.53458" lon="-1.15509">
        <ele>152</ele>
        <time>2022-05-21T14:57:33Z</time>
      </trkpt>
      <trkpt lat="48.53453" lon="-1.15481">
        <ele>154</ele>
        <time>2022-05-21T14:57:36Z</time>
      </trkpt>
      <trkpt lat="48.53431" lon="-1.1545">
        <ele>155</ele>
        <time>2022-05-21T14:57:41Z</time>
      </trkpt>
      <trkpt lat="48.53422" lon="-1.15442">
        <ele>156</ele>
        <time>2022-05-21T14:57:43Z</time>
      </trkpt>
      <trkpt lat="48.53362" lon="-1.15366">
        <ele>161</ele>
        <time>2022-05-21T14:57:57Z</time>
      </trkpt>
      <trkpt lat="48.53332" lon="-1.15326">
        <ele>165</ele>
        <time>2022-05-21T14:58:04Z</time>
      </trkpt>
      <trkpt lat="48.53312" lon="-1.15293">
        <ele>165</ele>
        <time>2022-05-21T14:58:10Z</time>
      </trkpt>
      <trkpt lat="48.53289" lon="-1.15266">
        <ele>163</ele>
        <time>2022-05-21T14:58:15Z</time>
      </trkpt>
      <trkpt lat="48.53289" lon="-1.15251">
        <ele>165</ele>
        <time>2022-05-21T14:58:17Z</time>
      </trkpt>
      <trkpt lat="48.53313" lon="-1.15229">
        <ele>169</ele>
        <time>2022-05-21T14:58:22Z</time>
      </trkpt>
      <trkpt lat="48.53356" lon="-1.15198">
        <ele>174</ele>
        <time>2022-05-21T14:58:30Z</time>
      </trkpt>
      <trkpt lat="48.53373" lon="-1.15181">
        <ele>176</ele>
        <time>2022-05-21T14:58:34Z</time>
      </trkpt>
      <trkpt lat="48.53408" lon="-1.15156">
        <ele>180</ele>
        <time>2022-05-21T14:58:41Z</time>
      </trkpt>
      <trkpt lat="48.53465" lon="-1.15098">
        <ele>183</ele>
        <time>2022-05-21T14:58:53Z</time>
      </trkpt>
      <trkpt lat="48.53472" lon="-1.15088">
        <ele>184</ele>
        <time>2022-05-21T14:58:55Z</time>
      </trkpt>
      <trkpt lat="48.53494" lon="-1.1502">
        <ele>186</ele>
        <time>2022-05-21T14:59:03Z</time>
      </trkpt>
      <trkpt lat="48.53523" lon="-1.14955">
        <ele>185</ele>
        <time>2022-05-21T14:59:13Z</time>
      </trkpt>
      <trkpt lat="48.53546" lon="-1.14836">
        <ele>180</ele>
        <time>2022-05-21T14:59:27Z</time>
      </trkpt>
      <trkpt lat="48.53589" lon="-1.14729">
        <ele>175</ele>
        <time>2022-05-21T14:59:42Z</time>
      </trkpt>
      <trkpt lat="48.53633" lon="-1.14584">
        <ele>175</ele>
        <time>2022-05-21T15:00:01Z</time>
      </trkpt>
      <trkpt lat="48.53642" lon="-1.14559">
        <ele>176</ele>
        <time>2022-05-21T15:00:04Z</time>
      </trkpt>
      <trkpt lat="48.5365" lon="-1.14545">
        <ele>176</ele>
        <time>2022-05-21T15:00:06Z</time>
      </trkpt>
      <trkpt lat="48.53669" lon="-1.14527">
        <ele>177</ele>
        <time>2022-05-21T15:00:10Z</time>
      </trkpt>
      <trkpt lat="48.53787" lon="-1.14477">
        <ele>181</ele>
        <time>2022-05-21T15:00:32Z</time>
      </trkpt>
      <trkpt lat="48.53834" lon="-1.14434">
        <ele>183</ele>
        <time>2022-05-21T15:00:42Z</time>
      </trkpt>
      <trkpt lat="48.53912" lon="-1.14347">
        <ele>185</ele>
        <time>2022-05-21T15:00:59Z</time>
      </trkpt>
      <trkpt lat="48.53944" lon="-1.14317">
        <ele>186</ele>
        <time>2022-05-21T15:01:06Z</time>
      </trkpt>
      <trkpt lat="48.54017" lon="-1.14256">
        <ele>187</ele>
        <time>2022-05-21T15:01:21Z</time>
      </trkpt>
      <trkpt lat="48.54058" lon="-1.14205">
        <ele>188</ele>
        <time>2022-05-21T15:01:30Z</time>
      </trkpt>
      <trkpt lat="48.54069" lon="-1.14182">
        <ele>189</ele>
        <time>2022-05-21T15:01:33Z</time>
      </trkpt>
      <trkpt lat="48.54078" lon="-1.14172">
        <ele>189</ele>
        <time>2022-05-21T15:01:35Z</time>
      </trkpt>
      <trkpt lat="48.5411" lon="-1.14122">
        <ele>189</ele>
        <time>2022-05-21T15:01:44Z</time>
      </trkpt>
      <trkpt lat="48.54145" lon="-1.14081">
        <ele>191</ele>
        <time>2022-05-21T15:01:52Z</time>
      </trkpt>
      <trkpt lat="48.54189" lon="-1.14023">
        <ele>193</ele>
        <time>2022-05-21T15:02:02Z</time>
      </trkpt>
      <trkpt lat="48.5422" lon="-1.1394">
        <ele>193</ele>
        <time>2022-05-21T15:02:13Z</time>
      </trkpt>
      <trkpt lat="48.54227" lon="-1.13927">
        <ele>193</ele>
        <time>2022-05-21T15:02:15Z</time>
      </trkpt>
      <trkpt lat="48.54237" lon="-1.13915">
        <ele>193</ele>
        <time>2022-05-21T15:02:17Z</time>
      </trkpt>
      <trkpt lat="48.54243" lon="-1.13901">
        <ele>193</ele>
        <time>2022-05-21T15:02:19Z</time>
      </trkpt>
      <trkpt lat="48.54275" lon="-1.13859">
        <ele>191</ele>
        <time>2022-05-21T15:02:27Z</time>
      </trkpt>
      <trkpt lat="48.54291" lon="-1.13831">
        <ele>190</ele>
        <time>2022-05-21T15:02:31Z</time>
      </trkpt>
      <trkpt lat="48.5433" lon="-1.13776">
        <ele>190</ele>
        <time>2022-05-21T15:02:41Z</time>
      </trkpt>
      <trkpt lat="48.54358" lon="-1.13742">
        <ele>188</ele>
        <time>2022-05-21T15:02:47Z</time>
      </trkpt>
      <trkpt lat="48.54401" lon="-1.13695">
        <ele>185</ele>
        <time>2022-05-21T15:02:57Z</time>
      </trkpt>
      <trkpt lat="48.54413" lon="-1.13685">
        <ele>184</ele>
        <time>2022-05-21T15:02:59Z</time>
      </trkpt>
      <trkpt lat="48.54433" lon="-1.13659">
        <ele>183</ele>
        <time>2022-05-21T15:03:04Z</time>
      </trkpt>
      <trkpt lat="48.54447" lon="-1.13636">
        <ele>182</ele>
        <time>2022-05-21T15:03:07Z</time>
      </trkpt>
      <trkpt lat="48.54453" lon="-1.13624">
        <ele>182</ele>
        <time>2022-05-21T15:03:09Z</time>
      </trkpt>
      <trkpt lat="48.54468" lon="-1.13578">
        <ele>181</ele>
        <time>2022-05-21T15:03:15Z</time>
      </trkpt>
      <trkpt lat="48.54516" lon="-1.13335">
        <ele>173</ele>
        <time>2022-05-21T15:03:45Z</time>
      </trkpt>
      <trkpt lat="48.54526" lon="-1.13311">
        <ele>172</ele>
        <time>2022-05-21T15:03:48Z</time>
      </trkpt>
      <trkpt lat="48.54538" lon="-1.1329">
        <ele>171</ele>
        <time>2022-05-21T15:03:52Z</time>
      </trkpt>
      <trkpt lat="48.54547" lon="-1.13266">
        <ele>171</ele>
        <time>2022-05-21T15:03:55Z</time>
      </trkpt>
      <trkpt lat="48.54598" lon="-1.13166">
        <ele>168</ele>
        <time>2022-05-21T15:04:10Z</time>
      </trkpt>
      <trkpt lat="48.54684" lon="-1.12987">
        <ele>165</ele>
        <time>2022-05-21T15:04:36Z</time>
      </trkpt>
      <trkpt lat="48.54718" lon="-1.12874">
        <ele>162</ele>
        <time>2022-05-21T15:04:51Z</time>
      </trkpt>
      <trkpt lat="48.54746" lon="-1.12797">
        <ele>161</ele>
        <time>2022-05-21T15:05:01Z</time>
      </trkpt>
      <trkpt lat="48.54793" lon="-1.12726">
        <ele>160</ele>
        <time>2022-05-21T15:05:13Z</time>
      </trkpt>
      <trkpt lat="48.54816" lon="-1.12685">
        <ele>161</ele>
        <time>2022-05-21T15:05:19Z</time>
      </trkpt>
      <trkpt lat="48.54822" lon="-1.1267">
        <ele>161</ele>
        <time>2022-05-21T15:05:21Z</time>
      </trkpt>
      <trkpt lat="48.54833" lon="-1.12618">
        <ele>160</ele>
        <time>2022-05-21T15:05:28Z</time>
      </trkpt>
      <trkpt lat="48.54842" lon="-1.12512">
        <ele>158</ele>
        <time>2022-05-21T15:05:40Z</time>
      </trkpt>
      <trkpt lat="48.54853" lon="-1.12466">
        <ele>155</ele>
        <time>2022-05-21T15:05:46Z</time>
      </trkpt>
      <trkpt lat="48.54861" lon="-1.1241">
        <ele>152</ele>
        <time>2022-05-21T15:05:53Z</time>
      </trkpt>
      <trkpt lat="48.54859" lon="-1.1239">
        <ele>151</ele>
        <time>2022-05-21T15:05:55Z</time>
      </trkpt>
      <trkpt lat="48.54841" lon="-1.12328">
        <ele>152</ele>
        <time>2022-05-21T15:06:03Z</time>
      </trkpt>
      <trkpt lat="48.54841" lon="-1.12303">
        <ele>151</ele>
        <time>2022-05-21T15:06:06Z</time>
      </trkpt>
      <trkpt lat="48.54844" lon="-1.12281">
        <ele>150</ele>
        <time>2022-05-21T15:06:09Z</time>
      </trkpt>
      <trkpt lat="48.5485" lon="-1.12261">
        <ele>149</ele>
        <time>2022-05-21T15:06:11Z</time>
      </trkpt>
      <trkpt lat="48.5486" lon="-1.12243">
        <ele>148</ele>
        <time>2022-05-21T15:06:14Z</time>
      </trkpt>
      <trkpt lat="48.54875" lon="-1.12229">
        <ele>146</ele>
        <time>2022-05-21T15:06:17Z</time>
      </trkpt>
      <trkpt lat="48.54891" lon="-1.12222">
        <ele>145</ele>
        <time>2022-05-21T15:06:20Z</time>
      </trkpt>
      <trkpt lat="48.54921" lon="-1.12201">
        <ele>143</ele>
        <time>2022-05-21T15:06:26Z</time>
      </trkpt>
      <trkpt lat="48.54947" lon="-1.12174">
        <ele>141</ele>
        <time>2022-05-21T15:06:32Z</time>
      </trkpt>
      <trkpt lat="48.54978" lon="-1.12129">
        <ele>139</ele>
        <time>2022-05-21T15:06:39Z</time>
      </trkpt>
      <trkpt lat="48.5505" lon="-1.12003">
        <ele>134</ele>
        <time>2022-05-21T15:06:59Z</time>
      </trkpt>
      <trkpt lat="48.5507" lon="-1.11973">
        <ele>132</ele>
        <time>2022-05-21T15:07:04Z</time>
      </trkpt>
      <trkpt lat="48.55092" lon="-1.1195">
        <ele>129</ele>
        <time>2022-05-21T15:07:09Z</time>
      </trkpt>
      <trkpt lat="48.55122" lon="-1.11911">
        <ele>125</ele>
        <time>2022-05-21T15:07:16Z</time>
      </trkpt>
      <trkpt lat="48.55158" lon="-1.11886">
        <ele>120</ele>
        <time>2022-05-21T15:07:23Z</time>
      </trkpt>
      <trkpt lat="48.55168" lon="-1.11888">
        <ele>119</ele>
        <time>2022-05-21T15:07:24Z</time>
      </trkpt>
      <trkpt lat="48.55199" lon="-1.11885">
        <ele>117</ele>
        <time>2022-05-21T15:07:30Z</time>
      </trkpt>
      <trkpt lat="48.55259" lon="-1.11884">
        <ele>114</ele>
        <time>2022-05-21T15:07:41Z</time>
      </trkpt>
      <trkpt lat="48.55291" lon="-1.11878">
        <ele>116</ele>
        <time>2022-05-21T15:07:46Z</time>
      </trkpt>
      <trkpt lat="48.55323" lon="-1.11867">
        <ele>118</ele>
        <time>2022-05-21T15:07:52Z</time>
      </trkpt>
      <trkpt lat="48.55354" lon="-1.11862">
        <ele>120</ele>
        <time>2022-05-21T15:07:58Z</time>
      </trkpt>
      <trkpt lat="48.55363" lon="-1.11858">
        <ele>121</ele>
        <time>2022-05-21T15:07:59Z</time>
      </trkpt>
      <trkpt lat="48.55374" lon="-1.11858">
        <ele>122</ele>
        <time>2022-05-21T15:08:01Z</time>
      </trkpt>
      <trkpt lat="48.55393" lon="-1.11865">
        <ele>124</ele>
        <time>2022-05-21T15:08:05Z</time>
      </trkpt>
      <trkpt lat="48.55413" lon="-1.11869">
        <ele>126</ele>
        <time>2022-05-21T15:08:08Z</time>
      </trkpt>
      <trkpt lat="48.55421" lon="-1.11874">
        <ele>127</ele>
        <time>2022-05-21T15:08:10Z</time>
      </trkpt>
      <trkpt lat="48.55459" lon="-1.11884">
        <ele>130</ele>
        <time>2022-05-21T15:08:17Z</time>
      </trkpt>
      <trkpt lat="48.55507" lon="-1.11902">
        <ele>134</ele>
        <time>2022-05-21T15:08:26Z</time>
      </trkpt>
      <trkpt lat="48.55516" lon="-1.11902">
        <ele>134</ele>
        <time>2022-05-21T15:08:27Z</time>
      </trkpt>
      <trkpt lat="48.55524" lon="-1.11879">
        <ele>133</ele>
        <time>2022-05-21T15:08:30Z</time>
      </trkpt>
      <trkpt lat="48.55567" lon="-1.11602">
        <ele>126</ele>
        <time>2022-05-21T15:09:04Z</time>
      </trkpt>
      <trkpt lat="48.55602" lon="-1.11494">
        <ele>124</ele>
        <time>2022-05-21T15:09:18Z</time>
      </trkpt>
      <trkpt lat="48.55604" lon="-1.11481">
        <ele>124</ele>
        <time>2022-05-21T15:09:20Z</time>
      </trkpt>
      <trkpt lat="48.55628" lon="-1.11418">
        <ele>121</ele>
        <time>2022-05-21T15:09:28Z</time>
      </trkpt>
      <trkpt lat="48.55631" lon="-1.11403">
        <ele>121</ele>
        <time>2022-05-21T15:09:30Z</time>
      </trkpt>
      <trkpt lat="48.55711" lon="-1.11173">
        <ele>109</ele>
        <time>2022-05-21T15:10:01Z</time>
      </trkpt>
      <trkpt lat="48.55743" lon="-1.11048">
        <ele>99</ele>
        <time>2022-05-21T15:10:16Z</time>
      </trkpt>
      <trkpt lat="48.55753" lon="-1.10949">
        <ele>97</ele>
        <time>2022-05-21T15:10:28Z</time>
      </trkpt>
      <trkpt lat="48.55753" lon="-1.10914">
        <ele>96</ele>
        <time>2022-05-21T15:10:32Z</time>
      </trkpt>
      <trkpt lat="48.55746" lon="-1.10799">
        <ele>95</ele>
        <time>2022-05-21T15:10:46Z</time>
      </trkpt>
      <trkpt lat="48.55747" lon="-1.1076">
        <ele>97</ele>
        <time>2022-05-21T15:10:50Z</time>
      </trkpt>
      <trkpt lat="48.55777" lon="-1.10638">
        <ele>105</ele>
        <time>2022-05-21T15:11:06Z</time>
      </trkpt>
      <trkpt lat="48.5579" lon="-1.10602">
        <ele>105</ele>
        <time>2022-05-21T15:11:11Z</time>
      </trkpt>
      <trkpt lat="48.55803" lon="-1.1058">
        <ele>105</ele>
        <time>2022-05-21T15:11:14Z</time>
      </trkpt>
      <trkpt lat="48.5581" lon="-1.1057">
        <ele>106</ele>
        <time>2022-05-21T15:11:16Z</time>
      </trkpt>
      <trkpt lat="48.55834" lon="-1.10549">
        <ele>105</ele>
        <time>2022-05-21T15:11:21Z</time>
      </trkpt>
      <trkpt lat="48.55852" lon="-1.1054">
        <ele>106</ele>
        <time>2022-05-21T15:11:24Z</time>
      </trkpt>
      <trkpt lat="48.55873" lon="-1.10537">
        <ele>107</ele>
        <time>2022-05-21T15:11:28Z</time>
      </trkpt>
      <trkpt lat="48.55882" lon="-1.10537">
        <ele>108</ele>
        <time>2022-05-21T15:11:29Z</time>
      </trkpt>
      <trkpt lat="48.5594" lon="-1.10549">
        <ele>110</ele>
        <time>2022-05-21T15:11:40Z</time>
      </trkpt>
      <trkpt lat="48.55948" lon="-1.1056">
        <ele>110</ele>
        <time>2022-05-21T15:11:42Z</time>
      </trkpt>
      <trkpt lat="48.55958" lon="-1.10558">
        <ele>110</ele>
        <time>2022-05-21T15:11:44Z</time>
      </trkpt>
      <trkpt lat="48.55995" lon="-1.10527">
        <ele>112</ele>
        <time>2022-05-21T15:11:51Z</time>
      </trkpt>
      <trkpt lat="48.56033" lon="-1.10476">
        <ele>111</ele>
        <time>2022-05-21T15:12:00Z</time>
      </trkpt>
      <trkpt lat="48.56073" lon="-1.1043">
        <ele>110</ele>
        <time>2022-05-21T15:12:09Z</time>
      </trkpt>
      <trkpt lat="48.56109" lon="-1.10401">
        <ele>109</ele>
        <time>2022-05-21T15:12:16Z</time>
      </trkpt>
      <trkpt lat="48.56119" lon="-1.1039">
        <ele>108</ele>
        <time>2022-05-21T15:12:19Z</time>
      </trkpt>
      <trkpt lat="48.5613" lon="-1.10386">
        <ele>108</ele>
        <time>2022-05-21T15:12:21Z</time>
      </trkpt>
      <trkpt lat="48.56153" lon="-1.10372">
        <ele>107</ele>
        <time>2022-05-21T15:12:25Z</time>
      </trkpt>
      <trkpt lat="48.56178" lon="-1.10362">
        <ele>106</ele>
        <time>2022-05-21T15:12:30Z</time>
      </trkpt>
      <trkpt lat="48.56192" lon="-1.10362">
        <ele>105</ele>
        <time>2022-05-21T15:12:32Z</time>
      </trkpt>
      <trkpt lat="48.56268" lon="-1.10332">
        <ele>101</ele>
        <time>2022-05-21T15:12:46Z</time>
      </trkpt>
      <trkpt lat="48.56283" lon="-1.1032">
        <ele>101</ele>
        <time>2022-05-21T15:12:49Z</time>
      </trkpt>
      <trkpt lat="48.56326" lon="-1.10302">
        <ele>101</ele>
        <time>2022-05-21T15:12:57Z</time>
      </trkpt>
      <trkpt lat="48.56359" lon="-1.1028">
        <ele>99</ele>
        <time>2022-05-21T15:13:03Z</time>
      </trkpt>
      <trkpt lat="48.56433" lon="-1.1024">
        <ele>94</ele>
        <time>2022-05-21T15:13:17Z</time>
      </trkpt>
      <trkpt lat="48.56447" lon="-1.10228">
        <ele>93</ele>
        <time>2022-05-21T15:13:20Z</time>
      </trkpt>
      <trkpt lat="48.56526" lon="-1.1018">
        <ele>88</ele>
        <time>2022-05-21T15:13:35Z</time>
      </trkpt>
      <trkpt lat="48.56587" lon="-1.10164">
        <ele>85</ele>
        <time>2022-05-21T15:13:46Z</time>
      </trkpt>
      <trkpt lat="48.56645" lon="-1.10156">
        <ele>81</ele>
        <time>2022-05-21T15:13:57Z</time>
      </trkpt>
      <trkpt lat="48.56665" lon="-1.10151">
        <ele>80</ele>
        <time>2022-05-21T15:14:00Z</time>
      </trkpt>
      <trkpt lat="48.56693" lon="-1.1014">
        <ele>77</ele>
        <time>2022-05-21T15:14:06Z</time>
      </trkpt>
      <trkpt lat="48.56717" lon="-1.10121">
        <ele>75</ele>
        <time>2022-05-21T15:14:10Z</time>
      </trkpt>
      <trkpt lat="48.56744" lon="-1.10088">
        <ele>73</ele>
        <time>2022-05-21T15:14:17Z</time>
      </trkpt>
      <trkpt lat="48.56754" lon="-1.10068">
        <ele>72</ele>
        <time>2022-05-21T15:14:20Z</time>
      </trkpt>
      <trkpt lat="48.56787" lon="-1.09996">
        <ele>72</ele>
        <time>2022-05-21T15:14:30Z</time>
      </trkpt>
      <trkpt lat="48.56793" lon="-1.09976">
        <ele>73</ele>
        <time>2022-05-21T15:14:32Z</time>
      </trkpt>
      <trkpt lat="48.56833" lon="-1.09876">
        <ele>72</ele>
        <time>2022-05-21T15:14:46Z</time>
      </trkpt>
      <trkpt lat="48.56892" lon="-1.09742">
        <ele>71</ele>
        <time>2022-05-21T15:15:05Z</time>
      </trkpt>
      <trkpt lat="48.56949" lon="-1.0968">
        <ele>70</ele>
        <time>2022-05-21T15:15:18Z</time>
      </trkpt>
      <trkpt lat="48.56979" lon="-1.0964">
        <ele>71</ele>
        <time>2022-05-21T15:15:25Z</time>
      </trkpt>
      <trkpt lat="48.57014" lon="-1.09613">
        <ele>71</ele>
        <time>2022-05-21T15:15:32Z</time>
      </trkpt>
      <trkpt lat="48.5703" lon="-1.09596">
        <ele>70</ele>
        <time>2022-05-21T15:15:35Z</time>
      </trkpt>
      <trkpt lat="48.57048" lon="-1.09536">
        <ele>70</ele>
        <time>2022-05-21T15:15:43Z</time>
      </trkpt>
      <trkpt lat="48.57071" lon="-1.09547">
        <ele>69</ele>
        <time>2022-05-21T15:15:47Z</time>
      </trkpt>
      <trkpt lat="48.57078" lon="-1.09558">
        <ele>69</ele>
        <time>2022-05-21T15:15:49Z</time>
      </trkpt>
      <trkpt lat="48.5711" lon="-1.09544">
        <ele>69</ele>
        <time>2022-05-21T15:15:55Z</time>
      </trkpt>
      <trkpt lat="48.57133" lon="-1.09539">
        <ele>69</ele>
        <time>2022-05-21T15:15:59Z</time>
      </trkpt>
      <trkpt lat="48.57143" lon="-1.09533">
        <ele>69</ele>
        <time>2022-05-21T15:16:01Z</time>
      </trkpt>
      <trkpt lat="48.57166" lon="-1.09527">
        <ele>68</ele>
        <time>2022-05-21T15:16:05Z</time>
      </trkpt>
      <trkpt lat="48.57173" lon="-1.0952">
        <ele>68</ele>
        <time>2022-05-21T15:16:07Z</time>
      </trkpt>
      <trkpt lat="48.57182" lon="-1.09516">
        <ele>68</ele>
        <time>2022-05-21T15:16:08Z</time>
      </trkpt>
      <trkpt lat="48.57285" lon="-1.09479">
        <ele>69</ele>
        <time>2022-05-21T15:16:27Z</time>
      </trkpt>
      <trkpt lat="48.57434" lon="-1.0943">
        <ele>70</ele>
        <time>2022-05-21T15:16:54Z</time>
      </trkpt>
      <trkpt lat="48.57447" lon="-1.09429">
        <ele>70</ele>
        <time>2022-05-21T15:16:57Z</time>
      </trkpt>
      <trkpt lat="48.57481" lon="-1.09413">
        <ele>72</ele>
        <time>2022-05-21T15:17:03Z</time>
      </trkpt>
      <trkpt lat="48.57598" lon="-1.09377">
        <ele>78</ele>
        <time>2022-05-21T15:17:24Z</time>
      </trkpt>
      <trkpt lat="48.57609" lon="-1.09376">
        <ele>78</ele>
        <time>2022-05-21T15:17:26Z</time>
      </trkpt>
      <trkpt lat="48.57628" lon="-1.09366">
        <ele>80</ele>
        <time>2022-05-21T15:17:30Z</time>
      </trkpt>
      <trkpt lat="48.57635" lon="-1.09356">
        <ele>80</ele>
        <time>2022-05-21T15:17:31Z</time>
      </trkpt>
      <trkpt lat="48.57654" lon="-1.09355">
        <ele>81</ele>
        <time>2022-05-21T15:17:35Z</time>
      </trkpt>
      <trkpt lat="48.57672" lon="-1.09348">
        <ele>82</ele>
        <time>2022-05-21T15:17:38Z</time>
      </trkpt>
      <trkpt lat="48.57691" lon="-1.09345">
        <ele>83</ele>
        <time>2022-05-21T15:17:42Z</time>
      </trkpt>
      <trkpt lat="48.57722" lon="-1.09353">
        <ele>83</ele>
        <time>2022-05-21T15:17:47Z</time>
      </trkpt>
      <trkpt lat="48.57741" lon="-1.09351">
        <ele>83</ele>
        <time>2022-05-21T15:17:51Z</time>
      </trkpt>
      <trkpt lat="48.57759" lon="-1.0934">
        <ele>83</ele>
        <time>2022-05-21T15:17:54Z</time>
      </trkpt>
      <trkpt lat="48.57805" lon="-1.09305">
        <ele>83</ele>
        <time>2022-05-21T15:18:03Z</time>
      </trkpt>
      <trkpt lat="48.57812" lon="-1.09296">
        <ele>83</ele>
        <time>2022-05-21T15:18:05Z</time>
      </trkpt>
      <trkpt lat="48.57819" lon="-1.09276">
        <ele>83</ele>
        <time>2022-05-21T15:18:07Z</time>
      </trkpt>
      <trkpt lat="48.57814" lon="-1.09313">
        <ele>82</ele>
        <time>2022-05-21T15:18:12Z</time>
      </trkpt>
      <trkpt lat="48.57825" lon="-1.09306">
        <ele>82</ele>
        <time>2022-05-21T15:18:14Z</time>
      </trkpt>
      <trkpt lat="48.57846" lon="-1.09301">
        <ele>82</ele>
        <time>2022-05-21T15:18:18Z</time>
      </trkpt>
      <trkpt lat="48.57903" lon="-1.09276">
        <ele>80</ele>
        <time>2022-05-21T15:18:28Z</time>
      </trkpt>
      <trkpt lat="48.57947" lon="-1.0926">
        <ele>78</ele>
        <time>2022-05-21T15:18:36Z</time>
      </trkpt>
      <trkpt lat="48.57971" lon="-1.09255">
        <ele>77</ele>
        <time>2022-05-21T15:18:41Z</time>
      </trkpt>
      <trkpt lat="48.57984" lon="-1.09248">
        <ele>77</ele>
        <time>2022-05-21T15:18:43Z</time>
      </trkpt>
      <trkpt lat="48.57997" lon="-1.09246">
        <ele>76</ele>
        <time>2022-05-21T15:18:46Z</time>
      </trkpt>
      <trkpt lat="48.58009" lon="-1.0924">
        <ele>75</ele>
        <time>2022-05-21T15:18:48Z</time>
      </trkpt>
      <trkpt lat="48.58024" lon="-1.09237">
        <ele>74</ele>
        <time>2022-05-21T15:18:50Z</time>
      </trkpt>
      <trkpt lat="48.58074" lon="-1.09212">
        <ele>71</ele>
        <time>2022-05-21T15:19:00Z</time>
      </trkpt>
      <trkpt lat="48.58155" lon="-1.09185">
        <ele>66</ele>
        <time>2022-05-21T15:19:15Z</time>
      </trkpt>
      <trkpt lat="48.58241" lon="-1.09151">
        <ele>65</ele>
        <time>2022-05-21T15:19:30Z</time>
      </trkpt>
      <trkpt lat="48.58248" lon="-1.09135">
        <ele>65</ele>
        <time>2022-05-21T15:19:33Z</time>
      </trkpt>
      <trkpt lat="48.58248" lon="-1.0912">
        <ele>65</ele>
        <time>2022-05-21T15:19:34Z</time>
      </trkpt>
      <trkpt lat="48.58235" lon="-1.09023">
        <ele>65</ele>
        <time>2022-05-21T15:19:46Z</time>
      </trkpt>
      <trkpt lat="48.58223" lon="-1.0896">
        <ele>65</ele>
        <time>2022-05-21T15:19:54Z</time>
      </trkpt>
      <trkpt lat="48.58214" lon="-1.08864">
        <ele>65</ele>
        <time>2022-05-21T15:20:05Z</time>
      </trkpt>
      <trkpt lat="48.58222" lon="-1.08856">
        <ele>65</ele>
        <time>2022-05-21T15:20:07Z</time>
      </trkpt>
      <trkpt lat="48.58275" lon="-1.08847">
        <ele>66</ele>
        <time>2022-05-21T15:20:16Z</time>
      </trkpt>
      <trkpt lat="48.58325" lon="-1.08847">
        <ele>67</ele>
        <time>2022-05-21T15:20:25Z</time>
      </trkpt>
      <trkpt lat="48.58357" lon="-1.08855">
        <ele>68</ele>
        <time>2022-05-21T15:20:31Z</time>
      </trkpt>
      <trkpt lat="48.58367" lon="-1.08854">
        <ele>68</ele>
        <time>2022-05-21T15:20:33Z</time>
      </trkpt>
      <trkpt lat="48.58376" lon="-1.08848">
        <ele>69</ele>
        <time>2022-05-21T15:20:35Z</time>
      </trkpt>
      <trkpt lat="48.58378" lon="-1.08831">
        <ele>69</ele>
        <time>2022-05-21T15:20:37Z</time>
      </trkpt>
      <trkpt lat="48.58376" lon="-1.08817">
        <ele>68</ele>
        <time>2022-05-21T15:20:38Z</time>
      </trkpt>
      <trkpt lat="48.58376" lon="-1.08752">
        <ele>68</ele>
        <time>2022-05-21T15:20:46Z</time>
      </trkpt>
      <trkpt lat="48.58366" lon="-1.08624">
        <ele>68</ele>
        <time>2022-05-21T15:21:01Z</time>
      </trkpt>
      <trkpt lat="48.58369" lon="-1.08608">
        <ele>68</ele>
        <time>2022-05-21T15:21:03Z</time>
      </trkpt>
      <trkpt lat="48.58422" lon="-1.08576">
        <ele>69</ele>
        <time>2022-05-21T15:21:13Z</time>
      </trkpt>
      <trkpt lat="48.58457" lon="-1.0855">
        <ele>71</ele>
        <time>2022-05-21T15:21:20Z</time>
      </trkpt>
      <trkpt lat="48.58477" lon="-1.08521">
        <ele>72</ele>
        <time>2022-05-21T15:21:25Z</time>
      </trkpt>
      <trkpt lat="48.58495" lon="-1.08484">
        <ele>73</ele>
        <time>2022-05-21T15:21:31Z</time>
      </trkpt>
      <trkpt lat="48.58521" lon="-1.08439">
        <ele>73</ele>
        <time>2022-05-21T15:21:38Z</time>
      </trkpt>
      <trkpt lat="48.58523" lon="-1.08423">
        <ele>73</ele>
        <time>2022-05-21T15:21:39Z</time>
      </trkpt>
      <trkpt lat="48.58519" lon="-1.08391">
        <ele>73</ele>
        <time>2022-05-21T15:21:43Z</time>
      </trkpt>
      <trkpt lat="48.58518" lon="-1.08315">
        <ele>74</ele>
        <time>2022-05-21T15:21:52Z</time>
      </trkpt>
      <trkpt lat="48.58522" lon="-1.08234">
        <ele>75</ele>
        <time>2022-05-21T15:22:02Z</time>
      </trkpt>
      <trkpt lat="48.58526" lon="-1.08201">
        <ele>75</ele>
        <time>2022-05-21T15:22:06Z</time>
      </trkpt>
      <trkpt lat="48.5853" lon="-1.08188">
        <ele>75</ele>
        <time>2022-05-21T15:22:07Z</time>
      </trkpt>
      <trkpt lat="48.58531" lon="-1.08156">
        <ele>75</ele>
        <time>2022-05-21T15:22:11Z</time>
      </trkpt>
      <trkpt lat="48.58553" lon="-1.08063">
        <ele>74</ele>
        <time>2022-05-21T15:22:23Z</time>
      </trkpt>
      <trkpt lat="48.58567" lon="-1.08018">
        <ele>75</ele>
        <time>2022-05-21T15:22:29Z</time>
      </trkpt>
      <trkpt lat="48.58606" lon="-1.07923">
        <ele>74</ele>
        <time>2022-05-21T15:22:42Z</time>
      </trkpt>
      <trkpt lat="48.58658" lon="-1.07826">
        <ele>73</ele>
        <time>2022-05-21T15:22:57Z</time>
      </trkpt>
      <trkpt lat="48.58719" lon="-1.07722">
        <ele>71</ele>
        <time>2022-05-21T15:23:13Z</time>
      </trkpt>
      <trkpt lat="48.58737" lon="-1.07684">
        <ele>73</ele>
        <time>2022-05-21T15:23:18Z</time>
      </trkpt>
      <trkpt lat="48.58742" lon="-1.07668">
        <ele>74</ele>
        <time>2022-05-21T15:23:21Z</time>
      </trkpt>
      <trkpt lat="48.58766" lon="-1.07626">
        <ele>74</ele>
        <time>2022-05-21T15:23:27Z</time>
      </trkpt>
      <trkpt lat="48.58826" lon="-1.07503">
        <ele>81</ele>
        <time>2022-05-21T15:23:45Z</time>
      </trkpt>
      <trkpt lat="48.58841" lon="-1.07476">
        <ele>82</ele>
        <time>2022-05-21T15:23:49Z</time>
      </trkpt>
      <trkpt lat="48.5885" lon="-1.07466">
        <ele>82</ele>
        <time>2022-05-21T15:23:51Z</time>
      </trkpt>
      <trkpt lat="48.58866" lon="-1.07423">
        <ele>84</ele>
        <time>2022-05-21T15:23:57Z</time>
      </trkpt>
      <trkpt lat="48.58875" lon="-1.07411">
        <ele>85</ele>
        <time>2022-05-21T15:23:59Z</time>
      </trkpt>
      <trkpt lat="48.58899" lon="-1.07363">
        <ele>87</ele>
        <time>2022-05-21T15:24:06Z</time>
      </trkpt>
      <trkpt lat="48.58927" lon="-1.07318">
        <ele>88</ele>
        <time>2022-05-21T15:24:13Z</time>
      </trkpt>
      <trkpt lat="48.58988" lon="-1.07208">
        <ele>90</ele>
        <time>2022-05-21T15:24:30Z</time>
      </trkpt>
      <trkpt lat="48.58998" lon="-1.07182">
        <ele>90</ele>
        <time>2022-05-21T15:24:34Z</time>
      </trkpt>
      <trkpt lat="48.59032" lon="-1.07122">
        <ele>91</ele>
        <time>2022-05-21T15:24:43Z</time>
      </trkpt>
      <trkpt lat="48.59043" lon="-1.07096">
        <ele>92</ele>
        <time>2022-05-21T15:24:47Z</time>
      </trkpt>
      <trkpt lat="48.59071" lon="-1.07047">
        <ele>92</ele>
        <time>2022-05-21T15:24:54Z</time>
      </trkpt>
      <trkpt lat="48.59088" lon="-1.07011">
        <ele>93</ele>
        <time>2022-05-21T15:25:00Z</time>
      </trkpt>
      <trkpt lat="48.59114" lon="-1.06966">
        <ele>92</ele>
        <time>2022-05-21T15:25:07Z</time>
      </trkpt>
      <trkpt lat="48.59139" lon="-1.06909">
        <ele>92</ele>
        <time>2022-05-21T15:25:15Z</time>
      </trkpt>
      <trkpt lat="48.59164" lon="-1.06869">
        <ele>92</ele>
        <time>2022-05-21T15:25:21Z</time>
      </trkpt>
      <trkpt lat="48.59177" lon="-1.06837">
        <ele>92</ele>
        <time>2022-05-21T15:25:26Z</time>
      </trkpt>
      <trkpt lat="48.59185" lon="-1.06825">
        <ele>92</ele>
        <time>2022-05-21T15:25:28Z</time>
      </trkpt>
      <trkpt lat="48.59195" lon="-1.06798">
        <ele>92</ele>
        <time>2022-05-21T15:25:31Z</time>
      </trkpt>
      <trkpt lat="48.59203" lon="-1.06787">
        <ele>92</ele>
        <time>2022-05-21T15:25:33Z</time>
      </trkpt>
      <trkpt lat="48.5921" lon="-1.06766">
        <ele>92</ele>
        <time>2022-05-21T15:25:36Z</time>
      </trkpt>
      <trkpt lat="48.59283" lon="-1.06646">
        <ele>94</ele>
        <time>2022-05-21T15:25:55Z</time>
      </trkpt>
      <trkpt lat="48.593" lon="-1.06606">
        <ele>94</ele>
        <time>2022-05-21T15:26:01Z</time>
      </trkpt>
      <trkpt lat="48.59325" lon="-1.06565">
        <ele>95</ele>
        <time>2022-05-21T15:26:07Z</time>
      </trkpt>
      <trkpt lat="48.59351" lon="-1.06507">
        <ele>95</ele>
        <time>2022-05-21T15:26:16Z</time>
      </trkpt>
      <trkpt lat="48.5936" lon="-1.06495">
        <ele>95</ele>
        <time>2022-05-21T15:26:18Z</time>
      </trkpt>
      <trkpt lat="48.59366" lon="-1.06479">
        <ele>96</ele>
        <time>2022-05-21T15:26:20Z</time>
      </trkpt>
      <trkpt lat="48.59416" lon="-1.06381">
        <ele>96</ele>
        <time>2022-05-21T15:26:34Z</time>
      </trkpt>
      <trkpt lat="48.59472" lon="-1.06278">
        <ele>95</ele>
        <time>2022-05-21T15:26:50Z</time>
      </trkpt>
      <trkpt lat="48.59481" lon="-1.06253">
        <ele>95</ele>
        <time>2022-05-21T15:26:53Z</time>
      </trkpt>
      <trkpt lat="48.59554" lon="-1.06133">
        <ele>91</ele>
        <time>2022-05-21T15:27:13Z</time>
      </trkpt>
      <trkpt lat="48.59568" lon="-1.0609">
        <ele>90</ele>
        <time>2022-05-21T15:27:18Z</time>
      </trkpt>
      <trkpt lat="48.59598" lon="-1.06035">
        <ele>88</ele>
        <time>2022-05-21T15:27:27Z</time>
      </trkpt>
      <trkpt lat="48.59608" lon="-1.0601">
        <ele>87</ele>
        <time>2022-05-21T15:27:30Z</time>
      </trkpt>
      <trkpt lat="48.5965" lon="-1.05937">
        <ele>88</ele>
        <time>2022-05-21T15:27:41Z</time>
      </trkpt>
      <trkpt lat="48.59655" lon="-1.05923">
        <ele>88</ele>
        <time>2022-05-21T15:27:43Z</time>
      </trkpt>
      <trkpt lat="48.59734" lon="-1.05781">
        <ele>88</ele>
        <time>2022-05-21T15:28:05Z</time>
      </trkpt>
      <trkpt lat="48.59787" lon="-1.0567">
        <ele>92</ele>
        <time>2022-05-21T15:28:21Z</time>
      </trkpt>
      <trkpt lat="48.59823" lon="-1.05609">
        <ele>96</ele>
        <time>2022-05-21T15:28:31Z</time>
      </trkpt>
      <trkpt lat="48.59874" lon="-1.0551">
        <ele>101</ele>
        <time>2022-05-21T15:28:46Z</time>
      </trkpt>
      <trkpt lat="48.59889" lon="-1.05486">
        <ele>100</ele>
        <time>2022-05-21T15:28:50Z</time>
      </trkpt>
      <trkpt lat="48.59914" lon="-1.05434">
        <ele>98</ele>
        <time>2022-05-21T15:28:57Z</time>
      </trkpt>
      <trkpt lat="48.59938" lon="-1.05394">
        <ele>99</ele>
        <time>2022-05-21T15:29:04Z</time>
      </trkpt>
      <trkpt lat="48.59961" lon="-1.05333">
        <ele>99</ele>
        <time>2022-05-21T15:29:12Z</time>
      </trkpt>
      <trkpt lat="48.59978" lon="-1.05299">
        <ele>98</ele>
        <time>2022-05-21T15:29:17Z</time>
      </trkpt>
      <trkpt lat="48.60066" lon="-1.05148">
        <ele>94</ele>
        <time>2022-05-21T15:29:40Z</time>
      </trkpt>
      <trkpt lat="48.60194" lon="-1.04899">
        <ele>89</ele>
        <time>2022-05-21T15:30:18Z</time>
      </trkpt>
      <trkpt lat="48.60239" lon="-1.04819">
        <ele>89</ele>
        <time>2022-05-21T15:30:30Z</time>
      </trkpt>
      <trkpt lat="48.60249" lon="-1.04788">
        <ele>90</ele>
        <time>2022-05-21T15:30:34Z</time>
      </trkpt>
      <trkpt lat="48.6026" lon="-1.04766">
        <ele>90</ele>
        <time>2022-05-21T15:30:37Z</time>
      </trkpt>
      <trkpt lat="48.60291" lon="-1.04708">
        <ele>91</ele>
        <time>2022-05-21T15:30:46Z</time>
      </trkpt>
      <trkpt lat="48.60314" lon="-1.04673">
        <ele>92</ele>
        <time>2022-05-21T15:30:52Z</time>
      </trkpt>
      <trkpt lat="48.60318" lon="-1.04661">
        <ele>92</ele>
        <time>2022-05-21T15:30:53Z</time>
      </trkpt>
      <trkpt lat="48.6036" lon="-1.04578">
        <ele>91</ele>
        <time>2022-05-21T15:31:06Z</time>
      </trkpt>
      <trkpt lat="48.604" lon="-1.04478">
        <ele>88</ele>
        <time>2022-05-21T15:31:19Z</time>
      </trkpt>
      <trkpt lat="48.60429" lon="-1.04389">
        <ele>86</ele>
        <time>2022-05-21T15:31:31Z</time>
      </trkpt>
      <trkpt lat="48.60447" lon="-1.04325">
        <ele>84</ele>
        <time>2022-05-21T15:31:39Z</time>
      </trkpt>
      <trkpt lat="48.60468" lon="-1.04236">
        <ele>84</ele>
        <time>2022-05-21T15:31:50Z</time>
      </trkpt>
      <trkpt lat="48.60497" lon="-1.04076">
        <ele>91</ele>
        <time>2022-05-21T15:32:10Z</time>
      </trkpt>
      <trkpt lat="48.60506" lon="-1.03979">
        <ele>96</ele>
        <time>2022-05-21T15:32:21Z</time>
      </trkpt>
      <trkpt lat="48.60539" lon="-1.03707">
        <ele>100</ele>
        <time>2022-05-21T15:32:54Z</time>
      </trkpt>
      <trkpt lat="48.6056" lon="-1.03602">
        <ele>101</ele>
        <time>2022-05-21T15:33:07Z</time>
      </trkpt>
      <trkpt lat="48.60587" lon="-1.03505">
        <ele>102</ele>
        <time>2022-05-21T15:33:19Z</time>
      </trkpt>
      <trkpt lat="48.60624" lon="-1.03412">
        <ele>104</ele>
        <time>2022-05-21T15:33:32Z</time>
      </trkpt>
      <trkpt lat="48.60649" lon="-1.03356">
        <ele>104</ele>
        <time>2022-05-21T15:33:40Z</time>
      </trkpt>
      <trkpt lat="48.60665" lon="-1.03312">
        <ele>105</ele>
        <time>2022-05-21T15:33:46Z</time>
      </trkpt>
      <trkpt lat="48.60774" lon="-1.03061">
        <ele>110</ele>
        <time>2022-05-21T15:34:21Z</time>
      </trkpt>
      <trkpt lat="48.60782" lon="-1.03047">
        <ele>111</ele>
        <time>2022-05-21T15:34:23Z</time>
      </trkpt>
      <trkpt lat="48.60814" lon="-1.02959">
        <ele>114</ele>
        <time>2022-05-21T15:34:35Z</time>
      </trkpt>
      <trkpt lat="48.60855" lon="-1.02873">
        <ele>116</ele>
        <time>2022-05-21T15:34:48Z</time>
      </trkpt>
      <trkpt lat="48.60922" lon="-1.02718">
        <ele>115</ele>
        <time>2022-05-21T15:35:09Z</time>
      </trkpt>
      <trkpt lat="48.60973" lon="-1.02588">
        <ele>112</ele>
        <time>2022-05-21T15:35:27Z</time>
      </trkpt>
      <trkpt lat="48.61022" lon="-1.0247">
        <ele>108</ele>
        <time>2022-05-21T15:35:44Z</time>
      </trkpt>
      <trkpt lat="48.61042" lon="-1.02429">
        <ele>107</ele>
        <time>2022-05-21T15:35:50Z</time>
      </trkpt>
      <trkpt lat="48.61117" lon="-1.02242">
        <ele>102</ele>
        <time>2022-05-21T15:36:15Z</time>
      </trkpt>
      <trkpt lat="48.61152" lon="-1.0214">
        <ele>101</ele>
        <time>2022-05-21T15:36:29Z</time>
      </trkpt>
      <trkpt lat="48.61171" lon="-1.02063">
        <ele>102</ele>
        <time>2022-05-21T15:36:39Z</time>
      </trkpt>
      <trkpt lat="48.61206" lon="-1.01904">
        <ele>103</ele>
        <time>2022-05-21T15:36:58Z</time>
      </trkpt>
      <trkpt lat="48.61213" lon="-1.01858">
        <ele>102</ele>
        <time>2022-05-21T15:37:04Z</time>
      </trkpt>
      <trkpt lat="48.61218" lon="-1.01843">
        <ele>102</ele>
        <time>2022-05-21T15:37:06Z</time>
      </trkpt>
      <trkpt lat="48.61224" lon="-1.01759">
        <ele>102</ele>
        <time>2022-05-21T15:37:16Z</time>
      </trkpt>
      <trkpt lat="48.61221" lon="-1.01677">
        <ele>101</ele>
        <time>2022-05-21T15:37:25Z</time>
      </trkpt>
      <trkpt lat="48.61223" lon="-1.01659">
        <ele>101</ele>
        <time>2022-05-21T15:37:28Z</time>
      </trkpt>
      <trkpt lat="48.61222" lon="-1.01625">
        <ele>100</ele>
        <time>2022-05-21T15:37:32Z</time>
      </trkpt>
      <trkpt lat="48.61238" lon="-1.01391">
        <ele>101</ele>
        <time>2022-05-21T15:37:59Z</time>
      </trkpt>
      <trkpt lat="48.61242" lon="-1.01373">
        <ele>101</ele>
        <time>2022-05-21T15:38:01Z</time>
      </trkpt>
      <trkpt lat="48.61244" lon="-1.01339">
        <ele>102</ele>
        <time>2022-05-21T15:38:05Z</time>
      </trkpt>
      <trkpt lat="48.6127" lon="-1.01195">
        <ele>98</ele>
        <time>2022-05-21T15:38:23Z</time>
      </trkpt>
      <trkpt lat="48.61305" lon="-1.01071">
        <ele>95</ele>
        <time>2022-05-21T15:38:39Z</time>
      </trkpt>
      <trkpt lat="48.61347" lon="-1.00966">
        <ele>90</ele>
        <time>2022-05-21T15:38:53Z</time>
      </trkpt>
      <trkpt lat="48.61356" lon="-1.00951">
        <ele>89</ele>
        <time>2022-05-21T15:38:56Z</time>
      </trkpt>
      <trkpt lat="48.61389" lon="-1.00876">
        <ele>87</ele>
        <time>2022-05-21T15:39:06Z</time>
      </trkpt>
      <trkpt lat="48.61413" lon="-1.00835">
        <ele>88</ele>
        <time>2022-05-21T15:39:13Z</time>
      </trkpt>
      <trkpt lat="48.6146" lon="-1.00763">
        <ele>87</ele>
        <time>2022-05-21T15:39:25Z</time>
      </trkpt>
      <trkpt lat="48.61511" lon="-1.00694">
        <ele>90</ele>
        <time>2022-05-21T15:39:37Z</time>
      </trkpt>
      <trkpt lat="48.61558" lon="-1.00621">
        <ele>90</ele>
        <time>2022-05-21T15:39:49Z</time>
      </trkpt>
      <trkpt lat="48.61668" lon="-1.00463">
        <ele>88</ele>
        <time>2022-05-21T15:40:16Z</time>
      </trkpt>
      <trkpt lat="48.61699" lon="-1.00414">
        <ele>90</ele>
        <time>2022-05-21T15:40:24Z</time>
      </trkpt>
      <trkpt lat="48.61705" lon="-1.00401">
        <ele>91</ele>
        <time>2022-05-21T15:40:26Z</time>
      </trkpt>
      <trkpt lat="48.61721" lon="-1.00381">
        <ele>91</ele>
        <time>2022-05-21T15:40:29Z</time>
      </trkpt>
      <trkpt lat="48.61737" lon="-1.00353">
        <ele>91</ele>
        <time>2022-05-21T15:40:34Z</time>
      </trkpt>
      <trkpt lat="48.61746" lon="-1.00346">
        <ele>91</ele>
        <time>2022-05-21T15:40:36Z</time>
      </trkpt>
      <trkpt lat="48.61777" lon="-1.00303">
        <ele>91</ele>
        <time>2022-05-21T15:40:43Z</time>
      </trkpt>
      <trkpt lat="48.61787" lon="-1.00293">
        <ele>91</ele>
        <time>2022-05-21T15:40:45Z</time>
      </trkpt>
      <trkpt lat="48.61804" lon="-1.00267">
        <ele>91</ele>
        <time>2022-05-21T15:40:49Z</time>
      </trkpt>
      <trkpt lat="48.61825" lon="-1.00233">
        <ele>91</ele>
        <time>2022-05-21T15:40:55Z</time>
      </trkpt>
      <trkpt lat="48.61873" lon="-1.00143">
        <ele>94</ele>
        <time>2022-05-21T15:41:09Z</time>
      </trkpt>
      <trkpt lat="48.61887" lon="-1.00099">
        <ele>95</ele>
        <time>2022-05-21T15:41:14Z</time>
      </trkpt>
      <trkpt lat="48.61937" lon="-0.99869">
        <ele>93</ele>
        <time>2022-05-21T15:41:43Z</time>
      </trkpt>
      <trkpt lat="48.61941" lon="-0.99837">
        <ele>94</ele>
        <time>2022-05-21T15:41:47Z</time>
      </trkpt>
      <trkpt lat="48.61958" lon="-0.99749">
        <ele>97</ele>
        <time>2022-05-21T15:41:57Z</time>
      </trkpt>
      <trkpt lat="48.6197" lon="-0.99703">
        <ele>95</ele>
        <time>2022-05-21T15:42:03Z</time>
      </trkpt>
      <trkpt lat="48.61996" lon="-0.99489">
        <ele>93</ele>
        <time>2022-05-21T15:42:29Z</time>
      </trkpt>
      <trkpt lat="48.62007" lon="-0.99446">
        <ele>94</ele>
        <time>2022-05-21T15:42:34Z</time>
      </trkpt>
      <trkpt lat="48.62014" lon="-0.99403">
        <ele>95</ele>
        <time>2022-05-21T15:42:39Z</time>
      </trkpt>
      <trkpt lat="48.62032" lon="-0.99267">
        <ele>97</ele>
        <time>2022-05-21T15:42:56Z</time>
      </trkpt>
      <trkpt lat="48.62034" lon="-0.99236">
        <ele>97</ele>
        <time>2022-05-21T15:42:59Z</time>
      </trkpt>
      <trkpt lat="48.62038" lon="-0.99221">
        <ele>97</ele>
        <time>2022-05-21T15:43:01Z</time>
      </trkpt>
      <trkpt lat="48.62042" lon="-0.99178">
        <ele>97</ele>
        <time>2022-05-21T15:43:06Z</time>
      </trkpt>
      <trkpt lat="48.62051" lon="-0.9913">
        <ele>96</ele>
        <time>2022-05-21T15:43:12Z</time>
      </trkpt>
      <trkpt lat="48.62067" lon="-0.98997">
        <ele>96</ele>
        <time>2022-05-21T15:43:28Z</time>
      </trkpt>
      <trkpt lat="48.62084" lon="-0.9888">
        <ele>98</ele>
        <time>2022-05-21T15:43:42Z</time>
      </trkpt>
      <trkpt lat="48.6214" lon="-0.98514">
        <ele>104</ele>
        <time>2022-05-21T15:44:26Z</time>
      </trkpt>
      <trkpt lat="48.62156" lon="-0.98392">
        <ele>107</ele>
        <time>2022-05-21T15:44:41Z</time>
      </trkpt>
      <trkpt lat="48.62184" lon="-0.98242">
        <ele>109</ele>
        <time>2022-05-21T15:44:59Z</time>
      </trkpt>
      <trkpt lat="48.62213" lon="-0.98125">
        <ele>108</ele>
        <time>2022-05-21T15:45:14Z</time>
      </trkpt>
      <trkpt lat="48.62225" lon="-0.98099">
        <ele>108</ele>
        <time>2022-05-21T15:45:18Z</time>
      </trkpt>
      <trkpt lat="48.62233" lon="-0.98071">
        <ele>108</ele>
        <time>2022-05-21T15:45:21Z</time>
      </trkpt>
      <trkpt lat="48.62275" lon="-0.97956">
        <ele>111</ele>
        <time>2022-05-21T15:45:37Z</time>
      </trkpt>
      <trkpt lat="48.62313" lon="-0.97866">
        <ele>112</ele>
        <time>2022-05-21T15:45:49Z</time>
      </trkpt>
      <trkpt lat="48.62359" lon="-0.97748">
        <ele>114</ele>
        <time>2022-05-21T15:46:06Z</time>
      </trkpt>
      <trkpt lat="48.62366" lon="-0.97736">
        <ele>114</ele>
        <time>2022-05-21T15:46:07Z</time>
      </trkpt>
      <trkpt lat="48.62377" lon="-0.97704">
        <ele>114</ele>
        <time>2022-05-21T15:46:12Z</time>
      </trkpt>
      <trkpt lat="48.62424" lon="-0.97601">
        <ele>111</ele>
        <time>2022-05-21T15:46:26Z</time>
      </trkpt>
      <trkpt lat="48.62443" lon="-0.97543">
        <ele>111</ele>
        <time>2022-05-21T15:46:34Z</time>
      </trkpt>
      <trkpt lat="48.62454" lon="-0.975">
        <ele>112</ele>
        <time>2022-05-21T15:46:39Z</time>
      </trkpt>
      <trkpt lat="48.62471" lon="-0.97455">
        <ele>112</ele>
        <time>2022-05-21T15:46:45Z</time>
      </trkpt>
      <trkpt lat="48.62487" lon="-0.97393">
        <ele>112</ele>
        <time>2022-05-21T15:46:53Z</time>
      </trkpt>
      <trkpt lat="48.62506" lon="-0.97285">
        <ele>113</ele>
        <time>2022-05-21T15:47:06Z</time>
      </trkpt>
      <trkpt lat="48.62511" lon="-0.97239">
        <ele>115</ele>
        <time>2022-05-21T15:47:12Z</time>
      </trkpt>
      <trkpt lat="48.62532" lon="-0.97106">
        <ele>119</ele>
        <time>2022-05-21T15:47:28Z</time>
      </trkpt>
      <trkpt lat="48.62531" lon="-0.97089">
        <ele>119</ele>
        <time>2022-05-21T15:47:30Z</time>
      </trkpt>
      <trkpt lat="48.62535" lon="-0.97027">
        <ele>121</ele>
        <time>2022-05-21T15:47:37Z</time>
      </trkpt>
      <trkpt lat="48.62546" lon="-0.96964">
        <ele>123</ele>
        <time>2022-05-21T15:47:45Z</time>
      </trkpt>
      <trkpt lat="48.62545" lon="-0.9695">
        <ele>123</ele>
        <time>2022-05-21T15:47:47Z</time>
      </trkpt>
      <trkpt lat="48.62549" lon="-0.96904">
        <ele>125</ele>
        <time>2022-05-21T15:47:52Z</time>
      </trkpt>
      <trkpt lat="48.62585" lon="-0.96538">
        <ele>129</ele>
        <time>2022-05-21T15:48:36Z</time>
      </trkpt>
      <trkpt lat="48.62588" lon="-0.96479">
        <ele>129</ele>
        <time>2022-05-21T15:48:43Z</time>
      </trkpt>
      <trkpt lat="48.62601" lon="-0.96361">
        <ele>128</ele>
        <time>2022-05-21T15:48:57Z</time>
      </trkpt>
      <trkpt lat="48.62603" lon="-0.96314">
        <ele>127</ele>
        <time>2022-05-21T15:49:02Z</time>
      </trkpt>
      <trkpt lat="48.62623" lon="-0.96132">
        <ele>126</ele>
        <time>2022-05-21T15:49:24Z</time>
      </trkpt>
      <trkpt lat="48.62634" lon="-0.96056">
        <ele>126</ele>
        <time>2022-05-21T15:49:33Z</time>
      </trkpt>
      <trkpt lat="48.62653" lon="-0.95967">
        <ele>125</ele>
        <time>2022-05-21T15:49:44Z</time>
      </trkpt>
      <trkpt lat="48.62672" lon="-0.95897">
        <ele>125</ele>
        <time>2022-05-21T15:49:53Z</time>
      </trkpt>
      <trkpt lat="48.62693" lon="-0.95834">
        <ele>125</ele>
        <time>2022-05-21T15:50:01Z</time>
      </trkpt>
      <trkpt lat="48.62714" lon="-0.95782">
        <ele>125</ele>
        <time>2022-05-21T15:50:08Z</time>
      </trkpt>
      <trkpt lat="48.62722" lon="-0.95771">
        <ele>125</ele>
        <time>2022-05-21T15:50:10Z</time>
      </trkpt>
      <trkpt lat="48.62762" lon="-0.95695">
        <ele>125</ele>
        <time>2022-05-21T15:50:22Z</time>
      </trkpt>
      <trkpt lat="48.62841" lon="-0.95577">
        <ele>125</ele>
        <time>2022-05-21T15:50:42Z</time>
      </trkpt>
      <trkpt lat="48.62851" lon="-0.95566">
        <ele>125</ele>
        <time>2022-05-21T15:50:44Z</time>
      </trkpt>
      <trkpt lat="48.62923" lon="-0.95463">
        <ele>126</ele>
        <time>2022-05-21T15:51:01Z</time>
      </trkpt>
      <trkpt lat="48.6293" lon="-0.9545">
        <ele>126</ele>
        <time>2022-05-21T15:51:03Z</time>
      </trkpt>
      <trkpt lat="48.62938" lon="-0.95442">
        <ele>126</ele>
        <time>2022-05-21T15:51:05Z</time>
      </trkpt>
      <trkpt lat="48.62976" lon="-0.95385">
        <ele>125</ele>
        <time>2022-05-21T15:51:15Z</time>
      </trkpt>
      <trkpt lat="48.63017" lon="-0.95332">
        <ele>123</ele>
        <time>2022-05-21T15:51:24Z</time>
      </trkpt>
      <trkpt lat="48.63119" lon="-0.95186">
        <ele>126</ele>
        <time>2022-05-21T15:51:49Z</time>
      </trkpt>
      <trkpt lat="48.63172" lon="-0.951">
        <ele>128</ele>
        <time>2022-05-21T15:52:03Z</time>
      </trkpt>
      <trkpt lat="48.63181" lon="-0.95089">
        <ele>128</ele>
        <time>2022-05-21T15:52:05Z</time>
      </trkpt>
      <trkpt lat="48.63187" lon="-0.95076">
        <ele>127</ele>
        <time>2022-05-21T15:52:07Z</time>
      </trkpt>
      <trkpt lat="48.63248" lon="-0.94985">
        <ele>123</ele>
        <time>2022-05-21T15:52:22Z</time>
      </trkpt>
      <trkpt lat="48.63285" lon="-0.94914">
        <ele>120</ele>
        <time>2022-05-21T15:52:33Z</time>
      </trkpt>
      <trkpt lat="48.63313" lon="-0.94845">
        <ele>119</ele>
        <time>2022-05-21T15:52:42Z</time>
      </trkpt>
      <trkpt lat="48.63333" lon="-0.94783">
        <ele>119</ele>
        <time>2022-05-21T15:52:50Z</time>
      </trkpt>
      <trkpt lat="48.63344" lon="-0.94732">
        <ele>119</ele>
        <time>2022-05-21T15:52:57Z</time>
      </trkpt>
      <trkpt lat="48.63346" lon="-0.94713">
        <ele>119</ele>
        <time>2022-05-21T15:52:59Z</time>
      </trkpt>
      <trkpt lat="48.63351" lon="-0.94698">
        <ele>119</ele>
        <time>2022-05-21T15:53:01Z</time>
      </trkpt>
      <trkpt lat="48.63355" lon="-0.94649">
        <ele>120</ele>
        <time>2022-05-21T15:53:07Z</time>
      </trkpt>
      <trkpt lat="48.63358" lon="-0.94636">
        <ele>120</ele>
        <time>2022-05-21T15:53:08Z</time>
      </trkpt>
      <trkpt lat="48.63364" lon="-0.94541">
        <ele>120</ele>
        <time>2022-05-21T15:53:20Z</time>
      </trkpt>
      <trkpt lat="48.6336" lon="-0.94471">
        <ele>121</ele>
        <time>2022-05-21T15:53:28Z</time>
      </trkpt>
      <trkpt lat="48.63349" lon="-0.94381">
        <ele>124</ele>
        <time>2022-05-21T15:53:39Z</time>
      </trkpt>
      <trkpt lat="48.63348" lon="-0.94343">
        <ele>125</ele>
        <time>2022-05-21T15:53:43Z</time>
      </trkpt>
      <trkpt lat="48.63331" lon="-0.94281">
        <ele>124</ele>
        <time>2022-05-21T15:53:51Z</time>
      </trkpt>
      <trkpt lat="48.63291" lon="-0.9416">
        <ele>122</ele>
        <time>2022-05-21T15:54:07Z</time>
      </trkpt>
      <trkpt lat="48.63289" lon="-0.94145">
        <ele>122</ele>
        <time>2022-05-21T15:54:09Z</time>
      </trkpt>
      <trkpt lat="48.6326" lon="-0.94038">
        <ele>122</ele>
        <time>2022-05-21T15:54:22Z</time>
      </trkpt>
      <trkpt lat="48.63194" lon="-0.93847">
        <ele>121</ele>
        <time>2022-05-21T15:54:48Z</time>
      </trkpt>
      <trkpt lat="48.63128" lon="-0.93677">
        <ele>120</ele>
        <time>2022-05-21T15:55:11Z</time>
      </trkpt>
      <trkpt lat="48.63125" lon="-0.93663">
        <ele>120</ele>
        <time>2022-05-21T15:55:13Z</time>
      </trkpt>
      <trkpt lat="48.63103" lon="-0.93608">
        <ele>122</ele>
        <time>2022-05-21T15:55:20Z</time>
      </trkpt>
      <trkpt lat="48.63078" lon="-0.93534">
        <ele>124</ele>
        <time>2022-05-21T15:55:30Z</time>
      </trkpt>
      <trkpt lat="48.6305" lon="-0.93471">
        <ele>124</ele>
        <time>2022-05-21T15:55:39Z</time>
      </trkpt>
      <trkpt lat="48.63047" lon="-0.93456">
        <ele>124</ele>
        <time>2022-05-21T15:55:41Z</time>
      </trkpt>
      <trkpt lat="48.63032" lon="-0.93413">
        <ele>124</ele>
        <time>2022-05-21T15:55:46Z</time>
      </trkpt>
      <trkpt lat="48.6302" lon="-0.93386">
        <ele>124</ele>
        <time>2022-05-21T15:55:50Z</time>
      </trkpt>
      <trkpt lat="48.63018" lon="-0.93372">
        <ele>124</ele>
        <time>2022-05-21T15:55:52Z</time>
      </trkpt>
      <trkpt lat="48.62969" lon="-0.93238">
        <ele>121</ele>
        <time>2022-05-21T15:56:10Z</time>
      </trkpt>
      <trkpt lat="48.62966" lon="-0.93221">
        <ele>121</ele>
        <time>2022-05-21T15:56:12Z</time>
      </trkpt>
      <trkpt lat="48.62951" lon="-0.93179">
        <ele>121</ele>
        <time>2022-05-21T15:56:18Z</time>
      </trkpt>
      <trkpt lat="48.62943" lon="-0.93164">
        <ele>121</ele>
        <time>2022-05-21T15:56:20Z</time>
      </trkpt>
      <trkpt lat="48.62935" lon="-0.93135">
        <ele>120</ele>
        <time>2022-05-21T15:56:24Z</time>
      </trkpt>
      <trkpt lat="48.62927" lon="-0.93123">
        <ele>120</ele>
        <time>2022-05-21T15:56:26Z</time>
      </trkpt>
      <trkpt lat="48.62883" lon="-0.92983">
        <ele>120</ele>
        <time>2022-05-21T15:56:44Z</time>
      </trkpt>
      <trkpt lat="48.62813" lon="-0.92785">
        <ele>123</ele>
        <time>2022-05-21T15:57:10Z</time>
      </trkpt>
      <trkpt lat="48.62788" lon="-0.92703">
        <ele>121</ele>
        <time>2022-05-21T15:57:21Z</time>
      </trkpt>
      <trkpt lat="48.62755" lon="-0.92617">
        <ele>120</ele>
        <time>2022-05-21T15:57:32Z</time>
      </trkpt>
      <trkpt lat="48.62681" lon="-0.92405">
        <ele>126</ele>
        <time>2022-05-21T15:58:01Z</time>
      </trkpt>
      <trkpt lat="48.62655" lon="-0.92349">
        <ele>128</ele>
        <time>2022-05-21T15:58:09Z</time>
      </trkpt>
      <trkpt lat="48.62613" lon="-0.9227">
        <ele>129</ele>
        <time>2022-05-21T15:58:21Z</time>
      </trkpt>
      <trkpt lat="48.62591" lon="-0.92235">
        <ele>128</ele>
        <time>2022-05-21T15:58:26Z</time>
      </trkpt>
      <trkpt lat="48.62554" lon="-0.92184">
        <ele>127</ele>
        <time>2022-05-21T15:58:35Z</time>
      </trkpt>
      <trkpt lat="48.62514" lon="-0.92135">
        <ele>124</ele>
        <time>2022-05-21T15:58:44Z</time>
      </trkpt>
      <trkpt lat="48.6246" lon="-0.92075">
        <ele>121</ele>
        <time>2022-05-21T15:58:56Z</time>
      </trkpt>
      <trkpt lat="48.62412" lon="-0.92031">
        <ele>119</ele>
        <time>2022-05-21T15:59:06Z</time>
      </trkpt>
      <trkpt lat="48.62374" lon="-0.92002">
        <ele>117</ele>
        <time>2022-05-21T15:59:14Z</time>
      </trkpt>
      <trkpt lat="48.62311" lon="-0.91963">
        <ele>116</ele>
        <time>2022-05-21T15:59:26Z</time>
      </trkpt>
      <trkpt lat="48.62236" lon="-0.91926">
        <ele>117</ele>
        <time>2022-05-21T15:59:40Z</time>
      </trkpt>
      <trkpt lat="48.62183" lon="-0.91895">
        <ele>117</ele>
        <time>2022-05-21T15:59:50Z</time>
      </trkpt>
      <trkpt lat="48.6211" lon="-0.91863">
        <ele>119</ele>
        <time>2022-05-21T16:00:04Z</time>
      </trkpt>
      <trkpt lat="48.62019" lon="-0.91812">
        <ele>122</ele>
        <time>2022-05-21T16:00:21Z</time>
      </trkpt>
      <trkpt lat="48.61918" lon="-0.91763">
        <ele>122</ele>
        <time>2022-05-21T16:00:40Z</time>
      </trkpt>
      <trkpt lat="48.6185" lon="-0.91709">
        <ele>121</ele>
        <time>2022-05-21T16:00:53Z</time>
      </trkpt>
      <trkpt lat="48.61808" lon="-0.91666">
        <ele>119</ele>
        <time>2022-05-21T16:01:02Z</time>
      </trkpt>
      <trkpt lat="48.6179" lon="-0.91643">
        <ele>118</ele>
        <time>2022-05-21T16:01:07Z</time>
      </trkpt>
      <trkpt lat="48.61772" lon="-0.91618">
        <ele>118</ele>
        <time>2022-05-21T16:01:11Z</time>
      </trkpt>
      <trkpt lat="48.61746" lon="-0.91575">
        <ele>118</ele>
        <time>2022-05-21T16:01:18Z</time>
      </trkpt>
      <trkpt lat="48.61705" lon="-0.91493">
        <ele>117</ele>
        <time>2022-05-21T16:01:30Z</time>
      </trkpt>
      <trkpt lat="48.61674" lon="-0.91421">
        <ele>117</ele>
        <time>2022-05-21T16:01:40Z</time>
      </trkpt>
      <trkpt lat="48.61654" lon="-0.91381">
        <ele>117</ele>
        <time>2022-05-21T16:01:46Z</time>
      </trkpt>
      <trkpt lat="48.61642" lon="-0.9135">
        <ele>117</ele>
        <time>2022-05-21T16:01:50Z</time>
      </trkpt>
      <trkpt lat="48.61634" lon="-0.91336">
        <ele>117</ele>
        <time>2022-05-21T16:01:52Z</time>
      </trkpt>
      <trkpt lat="48.61448" lon="-0.90907">
        <ele>112</ele>
        <time>2022-05-21T16:02:53Z</time>
      </trkpt>
      <trkpt lat="48.61442" lon="-0.90889">
        <ele>112</ele>
        <time>2022-05-21T16:02:55Z</time>
      </trkpt>
      <trkpt lat="48.61352" lon="-0.90691">
        <ele>117</ele>
        <time>2022-05-21T16:03:23Z</time>
      </trkpt>
      <trkpt lat="48.61286" lon="-0.90538">
        <ele>117</ele>
        <time>2022-05-21T16:03:45Z</time>
      </trkpt>
      <trkpt lat="48.61234" lon="-0.90402">
        <ele>120</ele>
        <time>2022-05-21T16:04:03Z</time>
      </trkpt>
      <trkpt lat="48.61232" lon="-0.90388">
        <ele>120</ele>
        <time>2022-05-21T16:04:05Z</time>
      </trkpt>
      <trkpt lat="48.61206" lon="-0.90292">
        <ele>121</ele>
        <time>2022-05-21T16:04:17Z</time>
      </trkpt>
      <trkpt lat="48.6118" lon="-0.90166">
        <ele>122</ele>
        <time>2022-05-21T16:04:33Z</time>
      </trkpt>
      <trkpt lat="48.61173" lon="-0.90125">
        <ele>122</ele>
        <time>2022-05-21T16:04:38Z</time>
      </trkpt>
      <trkpt lat="48.61171" lon="-0.90096">
        <ele>122</ele>
        <time>2022-05-21T16:04:41Z</time>
      </trkpt>
      <trkpt lat="48.61159" lon="-0.90037">
        <ele>122</ele>
        <time>2022-05-21T16:04:48Z</time>
      </trkpt>
      <trkpt lat="48.61142" lon="-0.89918">
        <ele>120</ele>
        <time>2022-05-21T16:05:03Z</time>
      </trkpt>
      <trkpt lat="48.61119" lon="-0.89784">
        <ele>119</ele>
        <time>2022-05-21T16:05:19Z</time>
      </trkpt>
      <trkpt lat="48.61121" lon="-0.8977">
        <ele>120</ele>
        <time>2022-05-21T16:05:21Z</time>
      </trkpt>
      <trkpt lat="48.61101" lon="-0.89655">
        <ele>119</ele>
        <time>2022-05-21T16:05:35Z</time>
      </trkpt>
      <trkpt lat="48.6109" lon="-0.89565">
        <ele>117</ele>
        <time>2022-05-21T16:05:45Z</time>
      </trkpt>
      <trkpt lat="48.61059" lon="-0.89369">
        <ele>115</ele>
        <time>2022-05-21T16:06:09Z</time>
      </trkpt>
      <trkpt lat="48.61023" lon="-0.89094">
        <ele>118</ele>
        <time>2022-05-21T16:06:42Z</time>
      </trkpt>
      <trkpt lat="48.61011" lon="-0.89031">
        <ele>119</ele>
        <time>2022-05-21T16:06:50Z</time>
      </trkpt>
      <trkpt lat="48.60968" lon="-0.8887">
        <ele>120</ele>
        <time>2022-05-21T16:07:10Z</time>
      </trkpt>
      <trkpt lat="48.60947" lon="-0.8881">
        <ele>120</ele>
        <time>2022-05-21T16:07:18Z</time>
      </trkpt>
      <trkpt lat="48.60936" lon="-0.88769">
        <ele>120</ele>
        <time>2022-05-21T16:07:24Z</time>
      </trkpt>
      <trkpt lat="48.60882" lon="-0.88626">
        <ele>120</ele>
        <time>2022-05-21T16:07:43Z</time>
      </trkpt>
      <trkpt lat="48.60841" lon="-0.88507">
        <ele>118</ele>
        <time>2022-05-21T16:07:59Z</time>
      </trkpt>
      <trkpt lat="48.60834" lon="-0.88493">
        <ele>118</ele>
        <time>2022-05-21T16:08:01Z</time>
      </trkpt>
      <trkpt lat="48.6082" lon="-0.88448">
        <ele>118</ele>
        <time>2022-05-21T16:08:07Z</time>
      </trkpt>
      <trkpt lat="48.60801" lon="-0.88405">
        <ele>117</ele>
        <time>2022-05-21T16:08:13Z</time>
      </trkpt>
      <trkpt lat="48.6075" lon="-0.88261">
        <ele>116</ele>
        <time>2022-05-21T16:08:32Z</time>
      </trkpt>
      <trkpt lat="48.60704" lon="-0.88162">
        <ele>116</ele>
        <time>2022-05-21T16:08:46Z</time>
      </trkpt>
      <trkpt lat="48.60654" lon="-0.88078">
        <ele>112</ele>
        <time>2022-05-21T16:08:59Z</time>
      </trkpt>
      <trkpt lat="48.60615" lon="-0.88025">
        <ele>113</ele>
        <time>2022-05-21T16:09:09Z</time>
      </trkpt>
      <trkpt lat="48.60611" lon="-0.8801">
        <ele>113</ele>
        <time>2022-05-21T16:09:11Z</time>
      </trkpt>
      <trkpt lat="48.60592" lon="-0.87992">
        <ele>113</ele>
        <time>2022-05-21T16:09:15Z</time>
      </trkpt>
      <trkpt lat="48.60585" lon="-0.87981">
        <ele>113</ele>
        <time>2022-05-21T16:09:16Z</time>
      </trkpt>
      <trkpt lat="48.60549" lon="-0.87943">
        <ele>112</ele>
        <time>2022-05-21T16:09:24Z</time>
      </trkpt>
      <trkpt lat="48.60557" lon="-0.8795">
        <ele>112</ele>
        <time>2022-05-21T16:09:26Z</time>
      </trkpt>
      <trkpt lat="48.60548" lon="-0.87947">
        <ele>112</ele>
        <time>2022-05-21T16:09:28Z</time>
      </trkpt>
      <trkpt lat="48.6054" lon="-0.8794">
        <ele>112</ele>
        <time>2022-05-21T16:09:29Z</time>
      </trkpt>
      <trkpt lat="48.60507" lon="-0.87906">
        <ele>111</ele>
        <time>2022-05-21T16:09:36Z</time>
      </trkpt>
      <trkpt lat="48.60473" lon="-0.8788">
        <ele>109</ele>
        <time>2022-05-21T16:09:43Z</time>
      </trkpt>
      <trkpt lat="48.60465" lon="-0.87869">
        <ele>108</ele>
        <time>2022-05-21T16:09:45Z</time>
      </trkpt>
      <trkpt lat="48.60407" lon="-0.87829">
        <ele>107</ele>
        <time>2022-05-21T16:09:56Z</time>
      </trkpt>
      <trkpt lat="48.60374" lon="-0.87809">
        <ele>106</ele>
        <time>2022-05-21T16:10:03Z</time>
      </trkpt>
      <trkpt lat="48.60353" lon="-0.87802">
        <ele>106</ele>
        <time>2022-05-21T16:10:06Z</time>
      </trkpt>
      <trkpt lat="48.6033" lon="-0.87786">
        <ele>107</ele>
        <time>2022-05-21T16:10:11Z</time>
      </trkpt>
      <trkpt lat="48.60321" lon="-0.87777">
        <ele>108</ele>
        <time>2022-05-21T16:10:13Z</time>
      </trkpt>
      <trkpt lat="48.60298" lon="-0.87769">
        <ele>110</ele>
        <time>2022-05-21T16:10:17Z</time>
      </trkpt>
      <trkpt lat="48.60239" lon="-0.87735">
        <ele>114</ele>
        <time>2022-05-21T16:10:28Z</time>
      </trkpt>
      <trkpt lat="48.60198" lon="-0.87715">
        <ele>116</ele>
        <time>2022-05-21T16:10:36Z</time>
      </trkpt>
      <trkpt lat="48.60186" lon="-0.87712">
        <ele>117</ele>
        <time>2022-05-21T16:10:38Z</time>
      </trkpt>
      <trkpt lat="48.60175" lon="-0.87705">
        <ele>117</ele>
        <time>2022-05-21T16:10:40Z</time>
      </trkpt>
      <trkpt lat="48.60164" lon="-0.87703">
        <ele>118</ele>
        <time>2022-05-21T16:10:42Z</time>
      </trkpt>
      <trkpt lat="48.60107" lon="-0.87672">
        <ele>117</ele>
        <time>2022-05-21T16:10:53Z</time>
      </trkpt>
      <trkpt lat="48.60098" lon="-0.87665">
        <ele>117</ele>
        <time>2022-05-21T16:10:55Z</time>
      </trkpt>
      <trkpt lat="48.60078" lon="-0.87657">
        <ele>117</ele>
        <time>2022-05-21T16:10:59Z</time>
      </trkpt>
      <trkpt lat="48.59961" lon="-0.87587">
        <ele>112</ele>
        <time>2022-05-21T16:11:21Z</time>
      </trkpt>
      <trkpt lat="48.59899" lon="-0.87561">
        <ele>111</ele>
        <time>2022-05-21T16:11:32Z</time>
      </trkpt>
      <trkpt lat="48.59732" lon="-0.87529">
        <ele>107</ele>
        <time>2022-05-21T16:12:02Z</time>
      </trkpt>
      <trkpt lat="48.59711" lon="-0.87521">
        <ele>106</ele>
        <time>2022-05-21T16:12:06Z</time>
      </trkpt>
      <trkpt lat="48.59672" lon="-0.87519">
        <ele>104</ele>
        <time>2022-05-21T16:12:13Z</time>
      </trkpt>
      <trkpt lat="48.5966" lon="-0.87514">
        <ele>103</ele>
        <time>2022-05-21T16:12:15Z</time>
      </trkpt>
      <trkpt lat="48.59637" lon="-0.87509">
        <ele>102</ele>
        <time>2022-05-21T16:12:19Z</time>
      </trkpt>
      <trkpt lat="48.5959" lon="-0.8749">
        <ele>101</ele>
        <time>2022-05-21T16:12:28Z</time>
      </trkpt>
      <trkpt lat="48.59525" lon="-0.8745">
        <ele>101</ele>
        <time>2022-05-21T16:12:41Z</time>
      </trkpt>
      <trkpt lat="48.595" lon="-0.8743">
        <ele>102</ele>
        <time>2022-05-21T16:12:46Z</time>
      </trkpt>
      <trkpt lat="48.59458" lon="-0.87387">
        <ele>103</ele>
        <time>2022-05-21T16:12:55Z</time>
      </trkpt>
      <trkpt lat="48.59413" lon="-0.87324">
        <ele>104</ele>
        <time>2022-05-21T16:13:06Z</time>
      </trkpt>
      <trkpt lat="48.59364" lon="-0.87233">
        <ele>101</ele>
        <time>2022-05-21T16:13:19Z</time>
      </trkpt>
      <trkpt lat="48.59332" lon="-0.87153">
        <ele>99</ele>
        <time>2022-05-21T16:13:30Z</time>
      </trkpt>
      <trkpt lat="48.59314" lon="-0.8709">
        <ele>99</ele>
        <time>2022-05-21T16:13:38Z</time>
      </trkpt>
      <trkpt lat="48.59292" lon="-0.86957">
        <ele>96</ele>
        <time>2022-05-21T16:13:55Z</time>
      </trkpt>
      <trkpt lat="48.59266" lon="-0.86766">
        <ele>95</ele>
        <time>2022-05-21T16:14:18Z</time>
      </trkpt>
      <trkpt lat="48.59253" lon="-0.86622">
        <ele>96</ele>
        <time>2022-05-21T16:14:35Z</time>
      </trkpt>
      <trkpt lat="48.59249" lon="-0.86548">
        <ele>96</ele>
        <time>2022-05-21T16:14:43Z</time>
      </trkpt>
      <trkpt lat="48.59251" lon="-0.86478">
        <ele>97</ele>
        <time>2022-05-21T16:14:52Z</time>
      </trkpt>
      <trkpt lat="48.59249" lon="-0.86459">
        <ele>96</ele>
        <time>2022-05-21T16:14:54Z</time>
      </trkpt>
      <trkpt lat="48.5925" lon="-0.864">
        <ele>95</ele>
        <time>2022-05-21T16:15:01Z</time>
      </trkpt>
      <trkpt lat="48.59259" lon="-0.86198">
        <ele>96</ele>
        <time>2022-05-21T16:15:25Z</time>
      </trkpt>
      <trkpt lat="48.59267" lon="-0.861">
        <ele>96</ele>
        <time>2022-05-21T16:15:36Z</time>
      </trkpt>
      <trkpt lat="48.59268" lon="-0.86055">
        <ele>97</ele>
        <time>2022-05-21T16:15:42Z</time>
      </trkpt>
      <trkpt lat="48.59267" lon="-0.86006">
        <ele>97</ele>
        <time>2022-05-21T16:15:47Z</time>
      </trkpt>
      <trkpt lat="48.59262" lon="-0.85976">
        <ele>96</ele>
        <time>2022-05-21T16:15:51Z</time>
      </trkpt>
      <trkpt lat="48.5926" lon="-0.85945">
        <ele>96</ele>
        <time>2022-05-21T16:15:55Z</time>
      </trkpt>
      <trkpt lat="48.59261" lon="-0.85914">
        <ele>96</ele>
        <time>2022-05-21T16:15:58Z</time>
      </trkpt>
      <trkpt lat="48.59249" lon="-0.85848">
        <ele>97</ele>
        <time>2022-05-21T16:16:06Z</time>
      </trkpt>
      <trkpt lat="48.59226" lon="-0.85759">
        <ele>97</ele>
        <time>2022-05-21T16:16:18Z</time>
      </trkpt>
      <trkpt lat="48.59195" lon="-0.85674">
        <ele>98</ele>
        <time>2022-05-21T16:16:29Z</time>
      </trkpt>
      <trkpt lat="48.59177" lon="-0.85637">
        <ele>99</ele>
        <time>2022-05-21T16:16:34Z</time>
      </trkpt>
      <trkpt lat="48.59167" lon="-0.85609">
        <ele>99</ele>
        <time>2022-05-21T16:16:38Z</time>
      </trkpt>
      <trkpt lat="48.59135" lon="-0.85555">
        <ele>102</ele>
        <time>2022-05-21T16:16:47Z</time>
      </trkpt>
      <trkpt lat="48.59126" lon="-0.85545">
        <ele>102</ele>
        <time>2022-05-21T16:16:49Z</time>
      </trkpt>
      <trkpt lat="48.59106" lon="-0.85508">
        <ele>103</ele>
        <time>2022-05-21T16:16:54Z</time>
      </trkpt>
      <trkpt lat="48.59058" lon="-0.85436">
        <ele>102</ele>
        <time>2022-05-21T16:17:06Z</time>
      </trkpt>
      <trkpt lat="48.59039" lon="-0.85412">
        <ele>101</ele>
        <time>2022-05-21T16:17:11Z</time>
      </trkpt>
      <trkpt lat="48.58982" lon="-0.85322">
        <ele>99</ele>
        <time>2022-05-21T16:17:25Z</time>
      </trkpt>
      <trkpt lat="48.58946" lon="-0.85272">
        <ele>101</ele>
        <time>2022-05-21T16:17:34Z</time>
      </trkpt>
      <trkpt lat="48.58908" lon="-0.85208">
        <ele>102</ele>
        <time>2022-05-21T16:17:44Z</time>
      </trkpt>
      <trkpt lat="48.58903" lon="-0.85196">
        <ele>102</ele>
        <time>2022-05-21T16:17:46Z</time>
      </trkpt>
      <trkpt lat="48.58895" lon="-0.85187">
        <ele>102</ele>
        <time>2022-05-21T16:17:48Z</time>
      </trkpt>
      <trkpt lat="48.58889" lon="-0.85173">
        <ele>102</ele>
        <time>2022-05-21T16:17:50Z</time>
      </trkpt>
      <trkpt lat="48.58865" lon="-0.8514">
        <ele>101</ele>
        <time>2022-05-21T16:17:55Z</time>
      </trkpt>
      <trkpt lat="48.58844" lon="-0.85105">
        <ele>99</ele>
        <time>2022-05-21T16:18:01Z</time>
      </trkpt>
      <trkpt lat="48.58827" lon="-0.85083">
        <ele>98</ele>
        <time>2022-05-21T16:18:05Z</time>
      </trkpt>
      <trkpt lat="48.58758" lon="-0.84972">
        <ele>99</ele>
        <time>2022-05-21T16:18:23Z</time>
      </trkpt>
      <trkpt lat="48.58742" lon="-0.84951">
        <ele>99</ele>
        <time>2022-05-21T16:18:27Z</time>
      </trkpt>
      <trkpt lat="48.58721" lon="-0.84914">
        <ele>99</ele>
        <time>2022-05-21T16:18:32Z</time>
      </trkpt>
      <trkpt lat="48.58711" lon="-0.84902">
        <ele>99</ele>
        <time>2022-05-21T16:18:35Z</time>
      </trkpt>
      <trkpt lat="48.58666" lon="-0.84825">
        <ele>99</ele>
        <time>2022-05-21T16:18:47Z</time>
      </trkpt>
      <trkpt lat="48.58653" lon="-0.84796">
        <ele>100</ele>
        <time>2022-05-21T16:18:51Z</time>
      </trkpt>
      <trkpt lat="48.58613" lon="-0.8473">
        <ele>102</ele>
        <time>2022-05-21T16:19:01Z</time>
      </trkpt>
      <trkpt lat="48.58595" lon="-0.84688">
        <ele>102</ele>
        <time>2022-05-21T16:19:07Z</time>
      </trkpt>
      <trkpt lat="48.58569" lon="-0.8464">
        <ele>102</ele>
        <time>2022-05-21T16:19:15Z</time>
      </trkpt>
      <trkpt lat="48.58558" lon="-0.8463">
        <ele>103</ele>
        <time>2022-05-21T16:19:17Z</time>
      </trkpt>
      <trkpt lat="48.58534" lon="-0.84596">
        <ele>103</ele>
        <time>2022-05-21T16:19:23Z</time>
      </trkpt>
      <trkpt lat="48.58516" lon="-0.84576">
        <ele>103</ele>
        <time>2022-05-21T16:19:27Z</time>
      </trkpt>
      <trkpt lat="48.585" lon="-0.84549">
        <ele>103</ele>
        <time>2022-05-21T16:19:31Z</time>
      </trkpt>
      <trkpt lat="48.58444" lon="-0.84484">
        <ele>103</ele>
        <time>2022-05-21T16:19:44Z</time>
      </trkpt>
      <trkpt lat="48.58372" lon="-0.84419">
        <ele>103</ele>
        <time>2022-05-21T16:19:58Z</time>
      </trkpt>
      <trkpt lat="48.5833" lon="-0.84389">
        <ele>103</ele>
        <time>2022-05-21T16:20:07Z</time>
      </trkpt>
      <trkpt lat="48.58302" lon="-0.84372">
        <ele>103</ele>
        <time>2022-05-21T16:20:12Z</time>
      </trkpt>
      <trkpt lat="48.58279" lon="-0.84362">
        <ele>103</ele>
        <time>2022-05-21T16:20:16Z</time>
      </trkpt>
      <trkpt lat="48.58247" lon="-0.84344">
        <ele>102</ele>
        <time>2022-05-21T16:20:22Z</time>
      </trkpt>
      <trkpt lat="48.5824" lon="-0.84337">
        <ele>102</ele>
        <time>2022-05-21T16:20:24Z</time>
      </trkpt>
      <trkpt lat="48.58196" lon="-0.84307">
        <ele>102</ele>
        <time>2022-05-21T16:20:33Z</time>
      </trkpt>
      <trkpt lat="48.58174" lon="-0.84293">
        <ele>102</ele>
        <time>2022-05-21T16:20:37Z</time>
      </trkpt>
      <trkpt lat="48.58163" lon="-0.84289">
        <ele>102</ele>
        <time>2022-05-21T16:20:39Z</time>
      </trkpt>
      <trkpt lat="48.58153" lon="-0.8428">
        <ele>102</ele>
        <time>2022-05-21T16:20:41Z</time>
      </trkpt>
      <trkpt lat="48.58109" lon="-0.84255">
        <ele>103</ele>
        <time>2022-05-21T16:20:49Z</time>
      </trkpt>
      <trkpt lat="48.5809" lon="-0.84241">
        <ele>103</ele>
        <time>2022-05-21T16:20:53Z</time>
      </trkpt>
      <trkpt lat="48.57994" lon="-0.84193">
        <ele>104</ele>
        <time>2022-05-21T16:21:11Z</time>
      </trkpt>
      <trkpt lat="48.57977" lon="-0.84179">
        <ele>103</ele>
        <time>2022-05-21T16:21:14Z</time>
      </trkpt>
      <trkpt lat="48.57937" lon="-0.8416">
        <ele>104</ele>
        <time>2022-05-21T16:21:22Z</time>
      </trkpt>
      <trkpt lat="48.57927" lon="-0.84152">
        <ele>104</ele>
        <time>2022-05-21T16:21:24Z</time>
      </trkpt>
      <trkpt lat="48.57884" lon="-0.84131">
        <ele>103</ele>
        <time>2022-05-21T16:21:32Z</time>
      </trkpt>
      <trkpt lat="48.57858" lon="-0.84113">
        <ele>103</ele>
        <time>2022-05-21T16:21:37Z</time>
      </trkpt>
      <trkpt lat="48.57847" lon="-0.84109">
        <ele>103</ele>
        <time>2022-05-21T16:21:39Z</time>
      </trkpt>
      <trkpt lat="48.5775" lon="-0.84039">
        <ele>105</ele>
        <time>2022-05-21T16:21:58Z</time>
      </trkpt>
      <trkpt lat="48.57693" lon="-0.83985">
        <ele>105</ele>
        <time>2022-05-21T16:22:10Z</time>
      </trkpt>
      <trkpt lat="48.57674" lon="-0.83963">
        <ele>105</ele>
        <time>2022-05-21T16:22:14Z</time>
      </trkpt>
      <trkpt lat="48.57629" lon="-0.8389">
        <ele>105</ele>
        <time>2022-05-21T16:22:26Z</time>
      </trkpt>
      <trkpt lat="48.57604" lon="-0.83835">
        <ele>106</ele>
        <time>2022-05-21T16:22:34Z</time>
      </trkpt>
      <trkpt lat="48.57557" lon="-0.83713">
        <ele>106</ele>
        <time>2022-05-21T16:22:51Z</time>
      </trkpt>
      <trkpt lat="48.57494" lon="-0.83564">
        <ele>106</ele>
        <time>2022-05-21T16:23:11Z</time>
      </trkpt>
      <trkpt lat="48.57424" lon="-0.83382">
        <ele>107</ele>
        <time>2022-05-21T16:23:36Z</time>
      </trkpt>
      <trkpt lat="48.57351" lon="-0.83205">
        <ele>107</ele>
        <time>2022-05-21T16:24:01Z</time>
      </trkpt>
      <trkpt lat="48.57326" lon="-0.83136">
        <ele>108</ele>
        <time>2022-05-21T16:24:10Z</time>
      </trkpt>
      <trkpt lat="48.57319" lon="-0.83126">
        <ele>109</ele>
        <time>2022-05-21T16:24:12Z</time>
      </trkpt>
      <trkpt lat="48.57293" lon="-0.83061">
        <ele>111</ele>
        <time>2022-05-21T16:24:21Z</time>
      </trkpt>
      <trkpt lat="48.57279" lon="-0.83015">
        <ele>112</ele>
        <time>2022-05-21T16:24:27Z</time>
      </trkpt>
      <trkpt lat="48.57251" lon="-0.82946">
        <ele>112</ele>
        <time>2022-05-21T16:24:36Z</time>
      </trkpt>
      <trkpt lat="48.57236" lon="-0.82884">
        <ele>115</ele>
        <time>2022-05-21T16:24:44Z</time>
      </trkpt>
      <trkpt lat="48.5723" lon="-0.82835">
        <ele>119</ele>
        <time>2022-05-21T16:24:50Z</time>
      </trkpt>
      <trkpt lat="48.57225" lon="-0.8282">
        <ele>119</ele>
        <time>2022-05-21T16:24:52Z</time>
      </trkpt>
      <trkpt lat="48.57216" lon="-0.82773">
        <ele>120</ele>
        <time>2022-05-21T16:24:58Z</time>
      </trkpt>
      <trkpt lat="48.57214" lon="-0.82736">
        <ele>120</ele>
        <time>2022-05-21T16:25:02Z</time>
      </trkpt>
      <trkpt lat="48.57215" lon="-0.8266">
        <ele>119</ele>
        <time>2022-05-21T16:25:11Z</time>
      </trkpt>
      <trkpt lat="48.57221" lon="-0.82577">
        <ele>116</ele>
        <time>2022-05-21T16:25:21Z</time>
      </trkpt>
      <trkpt lat="48.57226" lon="-0.82545">
        <ele>115</ele>
        <time>2022-05-21T16:25:25Z</time>
      </trkpt>
      <trkpt lat="48.57241" lon="-0.825">
        <ele>114</ele>
        <time>2022-05-21T16:25:31Z</time>
      </trkpt>
      <trkpt lat="48.57254" lon="-0.82423">
        <ele>113</ele>
        <time>2022-05-21T16:25:40Z</time>
      </trkpt>
      <trkpt lat="48.57269" lon="-0.82376">
        <ele>113</ele>
        <time>2022-05-21T16:25:46Z</time>
      </trkpt>
      <trkpt lat="48.5728" lon="-0.82325">
        <ele>113</ele>
        <time>2022-05-21T16:25:52Z</time>
      </trkpt>
      <trkpt lat="48.57286" lon="-0.82309">
        <ele>112</ele>
        <time>2022-05-21T16:25:54Z</time>
      </trkpt>
      <trkpt lat="48.573" lon="-0.82241">
        <ele>112</ele>
        <time>2022-05-21T16:26:03Z</time>
      </trkpt>
      <trkpt lat="48.57321" lon="-0.82164">
        <ele>113</ele>
        <time>2022-05-21T16:26:13Z</time>
      </trkpt>
      <trkpt lat="48.57341" lon="-0.82054">
        <ele>116</ele>
        <time>2022-05-21T16:26:26Z</time>
      </trkpt>
      <trkpt lat="48.57345" lon="-0.82007">
        <ele>117</ele>
        <time>2022-05-21T16:26:32Z</time>
      </trkpt>
      <trkpt lat="48.57352" lon="-0.81991">
        <ele>118</ele>
        <time>2022-05-21T16:26:34Z</time>
      </trkpt>
      <trkpt lat="48.57357" lon="-0.81944">
        <ele>118</ele>
        <time>2022-05-21T16:26:40Z</time>
      </trkpt>
      <trkpt lat="48.57355" lon="-0.81926">
        <ele>117</ele>
        <time>2022-05-21T16:26:42Z</time>
      </trkpt>
      <trkpt lat="48.57368" lon="-0.81862">
        <ele>117</ele>
        <time>2022-05-21T16:26:50Z</time>
      </trkpt>
      <trkpt lat="48.57369" lon="-0.81767">
        <ele>113</ele>
        <time>2022-05-21T16:27:01Z</time>
      </trkpt>
      <trkpt lat="48.57367" lon="-0.81753">
        <ele>113</ele>
        <time>2022-05-21T16:27:02Z</time>
      </trkpt>
      <trkpt lat="48.57369" lon="-0.81739">
        <ele>113</ele>
        <time>2022-05-21T16:27:04Z</time>
      </trkpt>
      <trkpt lat="48.57361" lon="-0.81632">
        <ele>113</ele>
        <time>2022-05-21T16:27:17Z</time>
      </trkpt>
      <trkpt lat="48.57353" lon="-0.81567">
        <ele>113</ele>
        <time>2022-05-21T16:27:25Z</time>
      </trkpt>
      <trkpt lat="48.57344" lon="-0.81522">
        <ele>114</ele>
        <time>2022-05-21T16:27:30Z</time>
      </trkpt>
      <trkpt lat="48.57344" lon="-0.81507">
        <ele>115</ele>
        <time>2022-05-21T16:27:32Z</time>
      </trkpt>
      <trkpt lat="48.57323" lon="-0.814">
        <ele>116</ele>
        <time>2022-05-21T16:27:45Z</time>
      </trkpt>
      <trkpt lat="48.57309" lon="-0.81303">
        <ele>117</ele>
        <time>2022-05-21T16:27:57Z</time>
      </trkpt>
      <trkpt lat="48.57296" lon="-0.8118">
        <ele>123</ele>
        <time>2022-05-21T16:28:11Z</time>
      </trkpt>
      <trkpt lat="48.57295" lon="-0.81134">
        <ele>122</ele>
        <time>2022-05-21T16:28:17Z</time>
      </trkpt>
      <trkpt lat="48.57299" lon="-0.81089">
        <ele>122</ele>
        <time>2022-05-21T16:28:22Z</time>
      </trkpt>
      <trkpt lat="48.57303" lon="-0.80981">
        <ele>119</ele>
        <time>2022-05-21T16:28:35Z</time>
      </trkpt>
      <trkpt lat="48.57309" lon="-0.80933">
        <ele>118</ele>
        <time>2022-05-21T16:28:41Z</time>
      </trkpt>
      <trkpt lat="48.57319" lon="-0.80887">
        <ele>118</ele>
        <time>2022-05-21T16:28:46Z</time>
      </trkpt>
      <trkpt lat="48.57322" lon="-0.80855">
        <ele>118</ele>
        <time>2022-05-21T16:28:50Z</time>
      </trkpt>
      <trkpt lat="48.57342" lon="-0.80768">
        <ele>118</ele>
        <time>2022-05-21T16:29:01Z</time>
      </trkpt>
      <trkpt lat="48.57346" lon="-0.80741">
        <ele>118</ele>
        <time>2022-05-21T16:29:04Z</time>
      </trkpt>
      <trkpt lat="48.57369" lon="-0.80654">
        <ele>119</ele>
        <time>2022-05-21T16:29:15Z</time>
      </trkpt>
      <trkpt lat="48.57394" lon="-0.80545">
        <ele>120</ele>
        <time>2022-05-21T16:29:29Z</time>
      </trkpt>
      <trkpt lat="48.57396" lon="-0.80527">
        <ele>120</ele>
        <time>2022-05-21T16:29:31Z</time>
      </trkpt>
      <trkpt lat="48.57422" lon="-0.80444">
        <ele>122</ele>
        <time>2022-05-21T16:29:42Z</time>
      </trkpt>
      <trkpt lat="48.57428" lon="-0.8041">
        <ele>123</ele>
        <time>2022-05-21T16:29:46Z</time>
      </trkpt>
      <trkpt lat="48.57426" lon="-0.80381">
        <ele>125</ele>
        <time>2022-05-21T16:29:49Z</time>
      </trkpt>
      <trkpt lat="48.57443" lon="-0.80322">
        <ele>126</ele>
        <time>2022-05-21T16:29:57Z</time>
      </trkpt>
      <trkpt lat="48.57449" lon="-0.80289">
        <ele>127</ele>
        <time>2022-05-21T16:30:01Z</time>
      </trkpt>
      <trkpt lat="48.57451" lon="-0.80256">
        <ele>128</ele>
        <time>2022-05-21T16:30:05Z</time>
      </trkpt>
      <trkpt lat="48.57455" lon="-0.80244">
        <ele>128</ele>
        <time>2022-05-21T16:30:06Z</time>
      </trkpt>
      <trkpt lat="48.57452" lon="-0.80212">
        <ele>129</ele>
        <time>2022-05-21T16:30:10Z</time>
      </trkpt>
      <trkpt lat="48.57466" lon="-0.80107">
        <ele>131</ele>
        <time>2022-05-21T16:30:23Z</time>
      </trkpt>
      <trkpt lat="48.57463" lon="-0.80078">
        <ele>131</ele>
        <time>2022-05-21T16:30:26Z</time>
      </trkpt>
      <trkpt lat="48.57466" lon="-0.80049">
        <ele>131</ele>
        <time>2022-05-21T16:30:30Z</time>
      </trkpt>
      <trkpt lat="48.57466" lon="-0.80001">
        <ele>131</ele>
        <time>2022-05-21T16:30:35Z</time>
      </trkpt>
      <trkpt lat="48.57459" lon="-0.79919">
        <ele>131</ele>
        <time>2022-05-21T16:30:45Z</time>
      </trkpt>
      <trkpt lat="48.57449" lon="-0.79871">
        <ele>131</ele>
        <time>2022-05-21T16:30:51Z</time>
      </trkpt>
      <trkpt lat="48.57436" lon="-0.79778">
        <ele>133</ele>
        <time>2022-05-21T16:31:02Z</time>
      </trkpt>
      <trkpt lat="48.57431" lon="-0.79718">
        <ele>134</ele>
        <time>2022-05-21T16:31:09Z</time>
      </trkpt>
      <trkpt lat="48.57424" lon="-0.79685">
        <ele>135</ele>
        <time>2022-05-21T16:31:13Z</time>
      </trkpt>
      <trkpt lat="48.5742" lon="-0.7964">
        <ele>135</ele>
        <time>2022-05-21T16:31:19Z</time>
      </trkpt>
      <trkpt lat="48.57398" lon="-0.79496">
        <ele>136</ele>
        <time>2022-05-21T16:31:36Z</time>
      </trkpt>
      <trkpt lat="48.57398" lon="-0.7948">
        <ele>136</ele>
        <time>2022-05-21T16:31:38Z</time>
      </trkpt>
      <trkpt lat="48.57384" lon="-0.79377">
        <ele>136</ele>
        <time>2022-05-21T16:31:51Z</time>
      </trkpt>
      <trkpt lat="48.57375" lon="-0.79327">
        <ele>135</ele>
        <time>2022-05-21T16:31:57Z</time>
      </trkpt>
      <trkpt lat="48.57373" lon="-0.79291">
        <ele>134</ele>
        <time>2022-05-21T16:32:01Z</time>
      </trkpt>
      <trkpt lat="48.57348" lon="-0.79161">
        <ele>133</ele>
        <time>2022-05-21T16:32:17Z</time>
      </trkpt>
      <trkpt lat="48.57346" lon="-0.79128">
        <ele>133</ele>
        <time>2022-05-21T16:32:21Z</time>
      </trkpt>
      <trkpt lat="48.5733" lon="-0.79036">
        <ele>132</ele>
        <time>2022-05-21T16:32:32Z</time>
      </trkpt>
      <trkpt lat="48.57314" lon="-0.78878">
        <ele>136</ele>
        <time>2022-05-21T16:32:51Z</time>
      </trkpt>
      <trkpt lat="48.57301" lon="-0.78821">
        <ele>139</ele>
        <time>2022-05-21T16:32:58Z</time>
      </trkpt>
      <trkpt lat="48.57279" lon="-0.78695">
        <ele>142</ele>
        <time>2022-05-21T16:33:13Z</time>
      </trkpt>
      <trkpt lat="48.57271" lon="-0.78606">
        <ele>142</ele>
        <time>2022-05-21T16:33:24Z</time>
      </trkpt>
      <trkpt lat="48.57253" lon="-0.78506">
        <ele>141</ele>
        <time>2022-05-21T16:33:36Z</time>
      </trkpt>
      <trkpt lat="48.57241" lon="-0.78413">
        <ele>142</ele>
        <time>2022-05-21T16:33:47Z</time>
      </trkpt>
      <trkpt lat="48.57233" lon="-0.78301">
        <ele>142</ele>
        <time>2022-05-21T16:34:00Z</time>
      </trkpt>
      <trkpt lat="48.57235" lon="-0.78193">
        <ele>144</ele>
        <time>2022-05-21T16:34:13Z</time>
      </trkpt>
      <trkpt lat="48.57258" lon="-0.78027">
        <ele>145</ele>
        <time>2022-05-21T16:34:33Z</time>
      </trkpt>
      <trkpt lat="48.57263" lon="-0.78013">
        <ele>145</ele>
        <time>2022-05-21T16:34:35Z</time>
      </trkpt>
      <trkpt lat="48.57269" lon="-0.77968">
        <ele>146</ele>
        <time>2022-05-21T16:34:40Z</time>
      </trkpt>
      <trkpt lat="48.57276" lon="-0.77956">
        <ele>146</ele>
        <time>2022-05-21T16:34:42Z</time>
      </trkpt>
      <trkpt lat="48.57284" lon="-0.77926">
        <ele>147</ele>
        <time>2022-05-21T16:34:46Z</time>
      </trkpt>
      <trkpt lat="48.57315" lon="-0.77835">
        <ele>147</ele>
        <time>2022-05-21T16:34:58Z</time>
      </trkpt>
      <trkpt lat="48.57343" lon="-0.77771">
        <ele>147</ele>
        <time>2022-05-21T16:35:07Z</time>
      </trkpt>
      <trkpt lat="48.57364" lon="-0.77713">
        <ele>148</ele>
        <time>2022-05-21T16:35:15Z</time>
      </trkpt>
      <trkpt lat="48.57392" lon="-0.77646">
        <ele>150</ele>
        <time>2022-05-21T16:35:24Z</time>
      </trkpt>
      <trkpt lat="48.57411" lon="-0.77608">
        <ele>151</ele>
        <time>2022-05-21T16:35:30Z</time>
      </trkpt>
      <trkpt lat="48.57427" lon="-0.77566">
        <ele>152</ele>
        <time>2022-05-21T16:35:36Z</time>
      </trkpt>
      <trkpt lat="48.57437" lon="-0.77536">
        <ele>152</ele>
        <time>2022-05-21T16:35:39Z</time>
      </trkpt>
      <trkpt lat="48.57439" lon="-0.7752">
        <ele>152</ele>
        <time>2022-05-21T16:35:41Z</time>
      </trkpt>
      <trkpt lat="48.57455" lon="-0.77461">
        <ele>153</ele>
        <time>2022-05-21T16:35:49Z</time>
      </trkpt>
      <trkpt lat="48.5746" lon="-0.77431">
        <ele>153</ele>
        <time>2022-05-21T16:35:53Z</time>
      </trkpt>
      <trkpt lat="48.57473" lon="-0.77388">
        <ele>154</ele>
        <time>2022-05-21T16:35:58Z</time>
      </trkpt>
      <trkpt lat="48.57478" lon="-0.77356">
        <ele>154</ele>
        <time>2022-05-21T16:36:02Z</time>
      </trkpt>
      <trkpt lat="48.57484" lon="-0.77344">
        <ele>154</ele>
        <time>2022-05-21T16:36:04Z</time>
      </trkpt>
      <trkpt lat="48.57487" lon="-0.7733">
        <ele>154</ele>
        <time>2022-05-21T16:36:05Z</time>
      </trkpt>
      <trkpt lat="48.57491" lon="-0.77268">
        <ele>154</ele>
        <time>2022-05-21T16:36:13Z</time>
      </trkpt>
      <trkpt lat="48.5749" lon="-0.77248">
        <ele>154</ele>
        <time>2022-05-21T16:36:15Z</time>
      </trkpt>
      <trkpt lat="48.57483" lon="-0.77213">
        <ele>154</ele>
        <time>2022-05-21T16:36:19Z</time>
      </trkpt>
      <trkpt lat="48.57485" lon="-0.77163">
        <ele>154</ele>
        <time>2022-05-21T16:36:25Z</time>
      </trkpt>
      <trkpt lat="48.57483" lon="-0.77144">
        <ele>154</ele>
        <time>2022-05-21T16:36:28Z</time>
      </trkpt>
      <trkpt lat="48.57487" lon="-0.77109">
        <ele>154</ele>
        <time>2022-05-21T16:36:32Z</time>
      </trkpt>
      <trkpt lat="48.57473" lon="-0.77013">
        <ele>154</ele>
        <time>2022-05-21T16:36:43Z</time>
      </trkpt>
      <trkpt lat="48.57473" lon="-0.76999">
        <ele>154</ele>
        <time>2022-05-21T16:36:45Z</time>
      </trkpt>
      <trkpt lat="48.57466" lon="-0.76952">
        <ele>152</ele>
        <time>2022-05-21T16:36:51Z</time>
      </trkpt>
      <trkpt lat="48.57467" lon="-0.76936">
        <ele>152</ele>
        <time>2022-05-21T16:36:53Z</time>
      </trkpt>
      <trkpt lat="48.57456" lon="-0.76845">
        <ele>151</ele>
        <time>2022-05-21T16:37:03Z</time>
      </trkpt>
      <trkpt lat="48.57448" lon="-0.76805">
        <ele>151</ele>
        <time>2022-05-21T16:37:08Z</time>
      </trkpt>
      <trkpt lat="48.57414" lon="-0.76686">
        <ele>152</ele>
        <time>2022-05-21T16:37:24Z</time>
      </trkpt>
      <trkpt lat="48.57386" lon="-0.76606">
        <ele>153</ele>
        <time>2022-05-21T16:37:34Z</time>
      </trkpt>
      <trkpt lat="48.57359" lon="-0.76548">
        <ele>153</ele>
        <time>2022-05-21T16:37:43Z</time>
      </trkpt>
      <trkpt lat="48.57329" lon="-0.76499">
        <ele>153</ele>
        <time>2022-05-21T16:37:51Z</time>
      </trkpt>
      <trkpt lat="48.57289" lon="-0.76447">
        <ele>154</ele>
        <time>2022-05-21T16:38:00Z</time>
      </trkpt>
      <trkpt lat="48.57283" lon="-0.76436">
        <ele>154</ele>
        <time>2022-05-21T16:38:02Z</time>
      </trkpt>
      <trkpt lat="48.57238" lon="-0.76385">
        <ele>155</ele>
        <time>2022-05-21T16:38:12Z</time>
      </trkpt>
      <trkpt lat="48.57158" lon="-0.76284">
        <ele>154</ele>
        <time>2022-05-21T16:38:30Z</time>
      </trkpt>
      <trkpt lat="48.57131" lon="-0.76244">
        <ele>153</ele>
        <time>2022-05-21T16:38:37Z</time>
      </trkpt>
      <trkpt lat="48.57087" lon="-0.76186">
        <ele>151</ele>
        <time>2022-05-21T16:38:47Z</time>
      </trkpt>
      <trkpt lat="48.57056" lon="-0.76136">
        <ele>148</ele>
        <time>2022-05-21T16:38:55Z</time>
      </trkpt>
      <trkpt lat="48.57027" lon="-0.76084">
        <ele>147</ele>
        <time>2022-05-21T16:39:03Z</time>
      </trkpt>
      <trkpt lat="48.57015" lon="-0.76056">
        <ele>147</ele>
        <time>2022-05-21T16:39:07Z</time>
      </trkpt>
      <trkpt lat="48.56978" lon="-0.75922">
        <ele>145</ele>
        <time>2022-05-21T16:39:24Z</time>
      </trkpt>
      <trkpt lat="48.56971" lon="-0.7587">
        <ele>146</ele>
        <time>2022-05-21T16:39:31Z</time>
      </trkpt>
      <trkpt lat="48.56962" lon="-0.7573">
        <ele>147</ele>
        <time>2022-05-21T16:39:47Z</time>
      </trkpt>
      <trkpt lat="48.56962" lon="-0.7568">
        <ele>146</ele>
        <time>2022-05-21T16:39:53Z</time>
      </trkpt>
      <trkpt lat="48.56957" lon="-0.75571">
        <ele>146</ele>
        <time>2022-05-21T16:40:06Z</time>
      </trkpt>
      <trkpt lat="48.56957" lon="-0.7546">
        <ele>144</ele>
        <time>2022-05-21T16:40:19Z</time>
      </trkpt>
      <trkpt lat="48.56952" lon="-0.75368">
        <ele>142</ele>
        <time>2022-05-21T16:40:30Z</time>
      </trkpt>
      <trkpt lat="48.56942" lon="-0.74975">
        <ele>142</ele>
        <time>2022-05-21T16:41:16Z</time>
      </trkpt>
      <trkpt lat="48.56937" lon="-0.74909">
        <ele>142</ele>
        <time>2022-05-21T16:41:24Z</time>
      </trkpt>
      <trkpt lat="48.56939" lon="-0.74881">
        <ele>142</ele>
        <time>2022-05-21T16:41:27Z</time>
      </trkpt>
      <trkpt lat="48.56935" lon="-0.74853">
        <ele>142</ele>
        <time>2022-05-21T16:41:31Z</time>
      </trkpt>
      <trkpt lat="48.56932" lon="-0.74796">
        <ele>141</ele>
        <time>2022-05-21T16:41:37Z</time>
      </trkpt>
      <trkpt lat="48.56934" lon="-0.74779">
        <ele>141</ele>
        <time>2022-05-21T16:41:39Z</time>
      </trkpt>
      <trkpt lat="48.56931" lon="-0.74684">
        <ele>138</ele>
        <time>2022-05-21T16:41:51Z</time>
      </trkpt>
      <trkpt lat="48.56932" lon="-0.74649">
        <ele>138</ele>
        <time>2022-05-21T16:41:55Z</time>
      </trkpt>
      <trkpt lat="48.56928" lon="-0.74587">
        <ele>137</ele>
        <time>2022-05-21T16:42:02Z</time>
      </trkpt>
      <trkpt lat="48.56927" lon="-0.74488">
        <ele>136</ele>
        <time>2022-05-21T16:42:14Z</time>
      </trkpt>
      <trkpt lat="48.56924" lon="-0.74457">
        <ele>136</ele>
        <time>2022-05-21T16:42:17Z</time>
      </trkpt>
      <trkpt lat="48.56926" lon="-0.7442">
        <ele>136</ele>
        <time>2022-05-21T16:42:22Z</time>
      </trkpt>
      <trkpt lat="48.56924" lon="-0.74374">
        <ele>135</ele>
        <time>2022-05-21T16:42:27Z</time>
      </trkpt>
      <trkpt lat="48.56926" lon="-0.74357">
        <ele>135</ele>
        <time>2022-05-21T16:42:29Z</time>
      </trkpt>
      <trkpt lat="48.56927" lon="-0.74255">
        <ele>134</ele>
        <time>2022-05-21T16:42:41Z</time>
      </trkpt>
      <trkpt lat="48.56937" lon="-0.7417">
        <ele>134</ele>
        <time>2022-05-21T16:42:51Z</time>
      </trkpt>
      <trkpt lat="48.56943" lon="-0.74137">
        <ele>133</ele>
        <time>2022-05-21T16:42:55Z</time>
      </trkpt>
      <trkpt lat="48.56943" lon="-0.74122">
        <ele>133</ele>
        <time>2022-05-21T16:42:57Z</time>
      </trkpt>
      <trkpt lat="48.56961" lon="-0.74022">
        <ele>132</ele>
        <time>2022-05-21T16:43:09Z</time>
      </trkpt>
      <trkpt lat="48.56966" lon="-0.7401">
        <ele>132</ele>
        <time>2022-05-21T16:43:11Z</time>
      </trkpt>
      <trkpt lat="48.56969" lon="-0.73991">
        <ele>132</ele>
        <time>2022-05-21T16:43:13Z</time>
      </trkpt>
      <trkpt lat="48.57018" lon="-0.73806">
        <ele>132</ele>
        <time>2022-05-21T16:43:37Z</time>
      </trkpt>
      <trkpt lat="48.57027" lon="-0.73781">
        <ele>131</ele>
        <time>2022-05-21T16:43:40Z</time>
      </trkpt>
      <trkpt lat="48.57029" lon="-0.73767">
        <ele>131</ele>
        <time>2022-05-21T16:43:42Z</time>
      </trkpt>
      <trkpt lat="48.57055" lon="-0.73689">
        <ele>131</ele>
        <time>2022-05-21T16:43:52Z</time>
      </trkpt>
      <trkpt lat="48.57102" lon="-0.73518">
        <ele>133</ele>
        <time>2022-05-21T16:44:14Z</time>
      </trkpt>
      <trkpt lat="48.57113" lon="-0.73492">
        <ele>132</ele>
        <time>2022-05-21T16:44:18Z</time>
      </trkpt>
      <trkpt lat="48.57121" lon="-0.73464">
        <ele>131</ele>
        <time>2022-05-21T16:44:21Z</time>
      </trkpt>
      <trkpt lat="48.57134" lon="-0.73407">
        <ele>130</ele>
        <time>2022-05-21T16:44:28Z</time>
      </trkpt>
      <trkpt lat="48.57145" lon="-0.73379">
        <ele>129</ele>
        <time>2022-05-21T16:44:32Z</time>
      </trkpt>
      <trkpt lat="48.57145" lon="-0.73316">
        <ele>129</ele>
        <time>2022-05-21T16:44:40Z</time>
      </trkpt>
      <trkpt lat="48.5715" lon="-0.73303">
        <ele>129</ele>
        <time>2022-05-21T16:44:41Z</time>
      </trkpt>
      <trkpt lat="48.5716" lon="-0.73293">
        <ele>129</ele>
        <time>2022-05-21T16:44:43Z</time>
      </trkpt>
      <trkpt lat="48.57169" lon="-0.73279">
        <ele>129</ele>
        <time>2022-05-21T16:44:46Z</time>
      </trkpt>
      <trkpt lat="48.57173" lon="-0.73263">
        <ele>129</ele>
        <time>2022-05-21T16:44:48Z</time>
      </trkpt>
      <trkpt lat="48.57179" lon="-0.73252">
        <ele>129</ele>
        <time>2022-05-21T16:44:49Z</time>
      </trkpt>
      <trkpt lat="48.57177" lon="-0.73266">
        <ele>129</ele>
        <time>2022-05-21T16:44:51Z</time>
      </trkpt>
      <trkpt lat="48.57184" lon="-0.73255">
        <ele>129</ele>
        <time>2022-05-21T16:44:53Z</time>
      </trkpt>
      <trkpt lat="48.57179" lon="-0.73267">
        <ele>129</ele>
        <time>2022-05-21T16:44:55Z</time>
      </trkpt>
      <trkpt lat="48.57218" lon="-0.73129">
        <ele>128</ele>
        <time>2022-05-21T16:45:12Z</time>
      </trkpt>
      <trkpt lat="48.57221" lon="-0.7311">
        <ele>128</ele>
        <time>2022-05-21T16:45:15Z</time>
      </trkpt>
      <trkpt lat="48.57236" lon="-0.73071">
        <ele>128</ele>
        <time>2022-05-21T16:45:20Z</time>
      </trkpt>
      <trkpt lat="48.57261" lon="-0.72988">
        <ele>128</ele>
        <time>2022-05-21T16:45:31Z</time>
      </trkpt>
      <trkpt lat="48.57278" lon="-0.72922">
        <ele>128</ele>
        <time>2022-05-21T16:45:39Z</time>
      </trkpt>
      <trkpt lat="48.57288" lon="-0.72895">
        <ele>128</ele>
        <time>2022-05-21T16:45:43Z</time>
      </trkpt>
      <trkpt lat="48.57325" lon="-0.72737">
        <ele>128</ele>
        <time>2022-05-21T16:46:02Z</time>
      </trkpt>
      <trkpt lat="48.57344" lon="-0.72619">
        <ele>128</ele>
        <time>2022-05-21T16:46:17Z</time>
      </trkpt>
      <trkpt lat="48.57353" lon="-0.72539">
        <ele>128</ele>
        <time>2022-05-21T16:46:26Z</time>
      </trkpt>
      <trkpt lat="48.5736" lon="-0.72419">
        <ele>127</ele>
        <time>2022-05-21T16:46:40Z</time>
      </trkpt>
      <trkpt lat="48.5736" lon="-0.72361">
        <ele>126</ele>
        <time>2022-05-21T16:46:47Z</time>
      </trkpt>
      <trkpt lat="48.57368" lon="-0.72219">
        <ele>125</ele>
        <time>2022-05-21T16:47:04Z</time>
      </trkpt>
      <trkpt lat="48.57377" lon="-0.71941">
        <ele>124</ele>
        <time>2022-05-21T16:47:37Z</time>
      </trkpt>
      <trkpt lat="48.5739" lon="-0.71679">
        <ele>122</ele>
        <time>2022-05-21T16:48:08Z</time>
      </trkpt>
      <trkpt lat="48.57391" lon="-0.71603">
        <ele>122</ele>
        <time>2022-05-21T16:48:17Z</time>
      </trkpt>
      <trkpt lat="48.57404" lon="-0.71299">
        <ele>120</ele>
        <time>2022-05-21T16:48:52Z</time>
      </trkpt>
      <trkpt lat="48.57403" lon="-0.71285">
        <ele>119</ele>
        <time>2022-05-21T16:48:54Z</time>
      </trkpt>
      <trkpt lat="48.57421" lon="-0.70882">
        <ele>117</ele>
        <time>2022-05-21T16:49:42Z</time>
      </trkpt>
      <trkpt lat="48.57428" lon="-0.7064">
        <ele>118</ele>
        <time>2022-05-21T16:50:10Z</time>
      </trkpt>
      <trkpt lat="48.57445" lon="-0.70303">
        <ele>120</ele>
        <time>2022-05-21T16:50:50Z</time>
      </trkpt>
      <trkpt lat="48.57448" lon="-0.7017">
        <ele>124</ele>
        <time>2022-05-21T16:51:06Z</time>
      </trkpt>
      <trkpt lat="48.57451" lon="-0.70138">
        <ele>124</ele>
        <time>2022-05-21T16:51:09Z</time>
      </trkpt>
      <trkpt lat="48.57462" lon="-0.69804">
        <ele>125</ele>
        <time>2022-05-21T16:51:49Z</time>
      </trkpt>
      <trkpt lat="48.57466" lon="-0.69706">
        <ele>126</ele>
        <time>2022-05-21T16:52:00Z</time>
      </trkpt>
      <trkpt lat="48.57469" lon="-0.69692">
        <ele>126</ele>
        <time>2022-05-21T16:52:02Z</time>
      </trkpt>
      <trkpt lat="48.57465" lon="-0.69618">
        <ele>127</ele>
        <time>2022-05-21T16:52:11Z</time>
      </trkpt>
      <trkpt lat="48.5746" lon="-0.69577">
        <ele>128</ele>
        <time>2022-05-21T16:52:16Z</time>
      </trkpt>
      <trkpt lat="48.57454" lon="-0.6953">
        <ele>128</ele>
        <time>2022-05-21T16:52:21Z</time>
      </trkpt>
      <trkpt lat="48.57437" lon="-0.6944">
        <ele>127</ele>
        <time>2022-05-21T16:52:32Z</time>
      </trkpt>
      <trkpt lat="48.57389" lon="-0.69249">
        <ele>128</ele>
        <time>2022-05-21T16:52:56Z</time>
      </trkpt>
      <trkpt lat="48.57371" lon="-0.69194">
        <ele>129</ele>
        <time>2022-05-21T16:53:04Z</time>
      </trkpt>
      <trkpt lat="48.57361" lon="-0.69148">
        <ele>129</ele>
        <time>2022-05-21T16:53:09Z</time>
      </trkpt>
      <trkpt lat="48.57335" lon="-0.69054">
        <ele>131</ele>
        <time>2022-05-21T16:53:21Z</time>
      </trkpt>
      <trkpt lat="48.57325" lon="-0.68971">
        <ele>132</ele>
        <time>2022-05-21T16:53:31Z</time>
      </trkpt>
      <trkpt lat="48.57325" lon="-0.68872">
        <ele>129</ele>
        <time>2022-05-21T16:53:43Z</time>
      </trkpt>
      <trkpt lat="48.57342" lon="-0.68753">
        <ele>126</ele>
        <time>2022-05-21T16:53:57Z</time>
      </trkpt>
      <trkpt lat="48.57357" lon="-0.68693">
        <ele>127</ele>
        <time>2022-05-21T16:54:05Z</time>
      </trkpt>
      <trkpt lat="48.5737" lon="-0.68652">
        <ele>128</ele>
        <time>2022-05-21T16:54:10Z</time>
      </trkpt>
      <trkpt lat="48.57386" lon="-0.68613">
        <ele>129</ele>
        <time>2022-05-21T16:54:16Z</time>
      </trkpt>
      <trkpt lat="48.57449" lon="-0.6849">
        <ele>130</ele>
        <time>2022-05-21T16:54:34Z</time>
      </trkpt>
      <trkpt lat="48.57469" lon="-0.68457">
        <ele>130</ele>
        <time>2022-05-21T16:54:39Z</time>
      </trkpt>
      <trkpt lat="48.57558" lon="-0.68287">
        <ele>130</ele>
        <time>2022-05-21T16:55:05Z</time>
      </trkpt>
      <trkpt lat="48.57571" lon="-0.68268">
        <ele>130</ele>
        <time>2022-05-21T16:55:08Z</time>
      </trkpt>
      <trkpt lat="48.57589" lon="-0.6823">
        <ele>130</ele>
        <time>2022-05-21T16:55:13Z</time>
      </trkpt>
      <trkpt lat="48.57668" lon="-0.68084">
        <ele>130</ele>
        <time>2022-05-21T16:55:36Z</time>
      </trkpt>
      <trkpt lat="48.5768" lon="-0.68057">
        <ele>130</ele>
        <time>2022-05-21T16:55:39Z</time>
      </trkpt>
      <trkpt lat="48.57711" lon="-0.68001">
        <ele>130</ele>
        <time>2022-05-21T16:55:48Z</time>
      </trkpt>
      <trkpt lat="48.57715" lon="-0.67987">
        <ele>130</ele>
        <time>2022-05-21T16:55:50Z</time>
      </trkpt>
      <trkpt lat="48.57746" lon="-0.67936">
        <ele>130</ele>
        <time>2022-05-21T16:55:58Z</time>
      </trkpt>
      <trkpt lat="48.57839" lon="-0.67756">
        <ele>133</ele>
        <time>2022-05-21T16:56:25Z</time>
      </trkpt>
      <trkpt lat="48.57866" lon="-0.67712">
        <ele>132</ele>
        <time>2022-05-21T16:56:32Z</time>
      </trkpt>
      <trkpt lat="48.57921" lon="-0.67611">
        <ele>133</ele>
        <time>2022-05-21T16:56:47Z</time>
      </trkpt>
      <trkpt lat="48.57927" lon="-0.67598">
        <ele>133</ele>
        <time>2022-05-21T16:56:49Z</time>
      </trkpt>
      <trkpt lat="48.57932" lon="-0.67568">
        <ele>134</ele>
        <time>2022-05-21T16:56:53Z</time>
      </trkpt>
      <trkpt lat="48.5796" lon="-0.67546">
        <ele>134</ele>
        <time>2022-05-21T16:56:59Z</time>
      </trkpt>
      <trkpt lat="48.57976" lon="-0.67527">
        <ele>134</ele>
        <time>2022-05-21T16:57:02Z</time>
      </trkpt>
      <trkpt lat="48.57981" lon="-0.67512">
        <ele>134</ele>
        <time>2022-05-21T16:57:04Z</time>
      </trkpt>
      <trkpt lat="48.58001" lon="-0.67478">
        <ele>133</ele>
        <time>2022-05-21T16:57:09Z</time>
      </trkpt>
      <trkpt lat="48.5801" lon="-0.67467">
        <ele>133</ele>
        <time>2022-05-21T16:57:12Z</time>
      </trkpt>
      <trkpt lat="48.58015" lon="-0.67456">
        <ele>133</ele>
        <time>2022-05-21T16:57:13Z</time>
      </trkpt>
      <trkpt lat="48.58066" lon="-0.67376">
        <ele>133</ele>
        <time>2022-05-21T16:57:26Z</time>
      </trkpt>
      <trkpt lat="48.58091" lon="-0.67343">
        <ele>132</ele>
        <time>2022-05-21T16:57:32Z</time>
      </trkpt>
      <trkpt lat="48.58106" lon="-0.67319">
        <ele>132</ele>
        <time>2022-05-21T16:57:36Z</time>
      </trkpt>
      <trkpt lat="48.58177" lon="-0.67225">
        <ele>131</ele>
        <time>2022-05-21T16:57:53Z</time>
      </trkpt>
      <trkpt lat="48.58269" lon="-0.67109">
        <ele>136</ele>
        <time>2022-05-21T16:58:14Z</time>
      </trkpt>
      <trkpt lat="48.58304" lon="-0.67072">
        <ele>137</ele>
        <time>2022-05-21T16:58:22Z</time>
      </trkpt>
      <trkpt lat="48.58329" lon="-0.67041">
        <ele>137</ele>
        <time>2022-05-21T16:58:27Z</time>
      </trkpt>
      <trkpt lat="48.58347" lon="-0.67025">
        <ele>136</ele>
        <time>2022-05-21T16:58:31Z</time>
      </trkpt>
      <trkpt lat="48.58373" lon="-0.66995">
        <ele>136</ele>
        <time>2022-05-21T16:58:37Z</time>
      </trkpt>
      <trkpt lat="48.58382" lon="-0.66989">
        <ele>136</ele>
        <time>2022-05-21T16:58:39Z</time>
      </trkpt>
      <trkpt lat="48.58399" lon="-0.6697">
        <ele>135</ele>
        <time>2022-05-21T16:58:42Z</time>
      </trkpt>
      <trkpt lat="48.58445" lon="-0.66928">
        <ele>136</ele>
        <time>2022-05-21T16:58:52Z</time>
      </trkpt>
      <trkpt lat="48.58543" lon="-0.66846">
        <ele>136</ele>
        <time>2022-05-21T16:59:12Z</time>
      </trkpt>
      <trkpt lat="48.58591" lon="-0.66793">
        <ele>136</ele>
        <time>2022-05-21T16:59:23Z</time>
      </trkpt>
      <trkpt lat="48.58605" lon="-0.66767">
        <ele>135</ele>
        <time>2022-05-21T16:59:26Z</time>
      </trkpt>
      <trkpt lat="48.58614" lon="-0.66738">
        <ele>134</ele>
        <time>2022-05-21T16:59:30Z</time>
      </trkpt>
      <trkpt lat="48.58627" lon="-0.66717">
        <ele>133</ele>
        <time>2022-05-21T16:59:34Z</time>
      </trkpt>
      <trkpt lat="48.58677" lon="-0.6662">
        <ele>130</ele>
        <time>2022-05-21T16:59:48Z</time>
      </trkpt>
      <trkpt lat="48.58751" lon="-0.66456">
        <ele>130</ele>
        <time>2022-05-21T17:00:11Z</time>
      </trkpt>
      <trkpt lat="48.58848" lon="-0.66274">
        <ele>132</ele>
        <time>2022-05-21T17:00:39Z</time>
      </trkpt>
      <trkpt lat="48.58853" lon="-0.66261">
        <ele>132</ele>
        <time>2022-05-21T17:00:41Z</time>
      </trkpt>
      <trkpt lat="48.58896" lon="-0.66188">
        <ele>132</ele>
        <time>2022-05-21T17:00:52Z</time>
      </trkpt>
      <trkpt lat="48.58922" lon="-0.66127">
        <ele>132</ele>
        <time>2022-05-21T17:01:01Z</time>
      </trkpt>
      <trkpt lat="48.58933" lon="-0.66126">
        <ele>132</ele>
        <time>2022-05-21T17:01:03Z</time>
      </trkpt>
      <trkpt lat="48.58951" lon="-0.6611">
        <ele>133</ele>
        <time>2022-05-21T17:01:06Z</time>
      </trkpt>
      <trkpt lat="48.58956" lon="-0.6608">
        <ele>132</ele>
        <time>2022-05-21T17:01:10Z</time>
      </trkpt>
      <trkpt lat="48.58973" lon="-0.66043">
        <ele>133</ele>
        <time>2022-05-21T17:01:15Z</time>
      </trkpt>
      <trkpt lat="48.5898" lon="-0.65997">
        <ele>132</ele>
        <time>2022-05-21T17:01:21Z</time>
      </trkpt>
      <trkpt lat="48.59004" lon="-0.65953">
        <ele>133</ele>
        <time>2022-05-21T17:01:28Z</time>
      </trkpt>
      <trkpt lat="48.59025" lon="-0.65895">
        <ele>134</ele>
        <time>2022-05-21T17:01:35Z</time>
      </trkpt>
      <trkpt lat="48.59066" lon="-0.65802">
        <ele>134</ele>
        <time>2022-05-21T17:01:49Z</time>
      </trkpt>
      <trkpt lat="48.59072" lon="-0.65784">
        <ele>134</ele>
        <time>2022-05-21T17:01:51Z</time>
      </trkpt>
      <trkpt lat="48.59076" lon="-0.65737">
        <ele>134</ele>
        <time>2022-05-21T17:01:57Z</time>
      </trkpt>
      <trkpt lat="48.59072" lon="-0.65627">
        <ele>137</ele>
        <time>2022-05-21T17:02:10Z</time>
      </trkpt>
      <trkpt lat="48.59068" lon="-0.65598">
        <ele>138</ele>
        <time>2022-05-21T17:02:13Z</time>
      </trkpt>
      <trkpt lat="48.59063" lon="-0.65585">
        <ele>139</ele>
        <time>2022-05-21T17:02:15Z</time>
      </trkpt>
      <trkpt lat="48.59054" lon="-0.65577">
        <ele>140</ele>
        <time>2022-05-21T17:02:17Z</time>
      </trkpt>
      <trkpt lat="48.59035" lon="-0.6557">
        <ele>141</ele>
        <time>2022-05-21T17:02:20Z</time>
      </trkpt>
      <trkpt lat="48.59025" lon="-0.65569">
        <ele>142</ele>
        <time>2022-05-21T17:02:22Z</time>
      </trkpt>
      <trkpt lat="48.59036" lon="-0.65566">
        <ele>142</ele>
        <time>2022-05-21T17:02:24Z</time>
      </trkpt>
      <trkpt lat="48.59049" lon="-0.6557">
        <ele>141</ele>
        <time>2022-05-21T17:02:26Z</time>
      </trkpt>
      <trkpt lat="48.59061" lon="-0.65578">
        <ele>140</ele>
        <time>2022-05-21T17:02:29Z</time>
      </trkpt>
      <trkpt lat="48.59073" lon="-0.65581">
        <ele>139</ele>
        <time>2022-05-21T17:02:31Z</time>
      </trkpt>
      <trkpt lat="48.59109" lon="-0.65551">
        <ele>143</ele>
        <time>2022-05-21T17:02:38Z</time>
      </trkpt>
      <trkpt lat="48.59151" lon="-0.65521">
        <ele>146</ele>
        <time>2022-05-21T17:02:46Z</time>
      </trkpt>
      <trkpt lat="48.59167" lon="-0.65506">
        <ele>148</ele>
        <time>2022-05-21T17:02:50Z</time>
      </trkpt>
      <trkpt lat="48.59199" lon="-0.65474">
        <ele>151</ele>
        <time>2022-05-21T17:02:57Z</time>
      </trkpt>
      <trkpt lat="48.59205" lon="-0.65463">
        <ele>152</ele>
        <time>2022-05-21T17:02:58Z</time>
      </trkpt>
      <trkpt lat="48.59221" lon="-0.65446">
        <ele>154</ele>
        <time>2022-05-21T17:03:02Z</time>
      </trkpt>
      <trkpt lat="48.59234" lon="-0.65424">
        <ele>157</ele>
        <time>2022-05-21T17:03:05Z</time>
      </trkpt>
      <trkpt lat="48.59256" lon="-0.65395">
        <ele>161</ele>
        <time>2022-05-21T17:03:10Z</time>
      </trkpt>
      <trkpt lat="48.59271" lon="-0.6536">
        <ele>166</ele>
        <time>2022-05-21T17:03:15Z</time>
      </trkpt>
      <trkpt lat="48.59279" lon="-0.65335">
        <ele>170</ele>
        <time>2022-05-21T17:03:19Z</time>
      </trkpt>
      <trkpt lat="48.59281" lon="-0.65321">
        <ele>172</ele>
        <time>2022-05-21T17:03:20Z</time>
      </trkpt>
      <trkpt lat="48.59281" lon="-0.65293">
        <ele>175</ele>
        <time>2022-05-21T17:03:23Z</time>
      </trkpt>
      <trkpt lat="48.59274" lon="-0.65236">
        <ele>181</ele>
        <time>2022-05-21T17:03:30Z</time>
      </trkpt>
      <trkpt lat="48.59269" lon="-0.65224">
        <ele>181</ele>
        <time>2022-05-21T17:03:32Z</time>
      </trkpt>
      <trkpt lat="48.59268" lon="-0.65208">
        <ele>182</ele>
        <time>2022-05-21T17:03:34Z</time>
      </trkpt>
      <trkpt lat="48.5926" lon="-0.65181">
        <ele>184</ele>
        <time>2022-05-21T17:03:37Z</time>
      </trkpt>
      <trkpt lat="48.59247" lon="-0.65106">
        <ele>189</ele>
        <time>2022-05-21T17:03:46Z</time>
      </trkpt>
      <trkpt lat="48.59237" lon="-0.6508">
        <ele>190</ele>
        <time>2022-05-21T17:03:50Z</time>
      </trkpt>
      <trkpt lat="48.59222" lon="-0.65019">
        <ele>192</ele>
        <time>2022-05-21T17:03:58Z</time>
      </trkpt>
      <trkpt lat="48.59199" lon="-0.64947">
        <ele>193</ele>
        <time>2022-05-21T17:04:07Z</time>
      </trkpt>
      <trkpt lat="48.59192" lon="-0.64937">
        <ele>193</ele>
        <time>2022-05-21T17:04:09Z</time>
      </trkpt>
      <trkpt lat="48.59183" lon="-0.64931">
        <ele>192</ele>
        <time>2022-05-21T17:04:11Z</time>
      </trkpt>
      <trkpt lat="48.59162" lon="-0.64829">
        <ele>193</ele>
        <time>2022-05-21T17:04:23Z</time>
      </trkpt>
      <trkpt lat="48.59157" lon="-0.64779">
        <ele>193</ele>
        <time>2022-05-21T17:04:29Z</time>
      </trkpt>
      <trkpt lat="48.59156" lon="-0.64718">
        <ele>195</ele>
        <time>2022-05-21T17:04:36Z</time>
      </trkpt>
      <trkpt lat="48.59143" lon="-0.64725">
        <ele>193</ele>
        <time>2022-05-21T17:04:39Z</time>
      </trkpt>
      <trkpt lat="48.59145" lon="-0.64691">
        <ele>195</ele>
        <time>2022-05-21T17:04:43Z</time>
      </trkpt>
      <trkpt lat="48.59142" lon="-0.64662">
        <ele>195</ele>
        <time>2022-05-21T17:04:46Z</time>
      </trkpt>
      <trkpt lat="48.59144" lon="-0.64647">
        <ele>195</ele>
        <time>2022-05-21T17:04:48Z</time>
      </trkpt>
      <trkpt lat="48.59151" lon="-0.64635">
        <ele>196</ele>
        <time>2022-05-21T17:04:50Z</time>
      </trkpt>
      <trkpt lat="48.59163" lon="-0.64596">
        <ele>198</ele>
        <time>2022-05-21T17:04:55Z</time>
      </trkpt>
      <trkpt lat="48.59177" lon="-0.64575">
        <ele>200</ele>
        <time>2022-05-21T17:04:58Z</time>
      </trkpt>
      <trkpt lat="48.59186" lon="-0.6458">
        <ele>200</ele>
        <time>2022-05-21T17:05:00Z</time>
      </trkpt>
      <trkpt lat="48.59195" lon="-0.6458">
        <ele>201</ele>
        <time>2022-05-21T17:05:02Z</time>
      </trkpt>
      <trkpt lat="48.59208" lon="-0.64555">
        <ele>204</ele>
        <time>2022-05-21T17:05:05Z</time>
      </trkpt>
      <trkpt lat="48.59209" lon="-0.64534">
        <ele>205</ele>
        <time>2022-05-21T17:05:08Z</time>
      </trkpt>
      <trkpt lat="48.59219" lon="-0.64528">
        <ele>206</ele>
        <time>2022-05-21T17:05:10Z</time>
      </trkpt>
      <trkpt lat="48.59203" lon="-0.64544">
        <ele>204</ele>
        <time>2022-05-21T17:05:13Z</time>
      </trkpt>
      <trkpt lat="48.59192" lon="-0.64518">
        <ele>204</ele>
        <time>2022-05-21T17:05:17Z</time>
      </trkpt>
      <trkpt lat="48.59188" lon="-0.64489">
        <ele>204</ele>
        <time>2022-05-21T17:05:20Z</time>
      </trkpt>
      <trkpt lat="48.59154" lon="-0.64357">
        <ele>202</ele>
        <time>2022-05-21T17:05:37Z</time>
      </trkpt>
      <trkpt lat="48.5915" lon="-0.64324">
        <ele>202</ele>
        <time>2022-05-21T17:05:41Z</time>
      </trkpt>
      <trkpt lat="48.59151" lon="-0.64293">
        <ele>202</ele>
        <time>2022-05-21T17:05:45Z</time>
      </trkpt>
      <trkpt lat="48.59149" lon="-0.64278">
        <ele>202</ele>
        <time>2022-05-21T17:05:46Z</time>
      </trkpt>
      <trkpt lat="48.59152" lon="-0.64264">
        <ele>203</ele>
        <time>2022-05-21T17:05:48Z</time>
      </trkpt>
      <trkpt lat="48.59149" lon="-0.6422">
        <ele>203</ele>
        <time>2022-05-21T17:05:53Z</time>
      </trkpt>
      <trkpt lat="48.59155" lon="-0.64193">
        <ele>204</ele>
        <time>2022-05-21T17:05:57Z</time>
      </trkpt>
      <trkpt lat="48.59152" lon="-0.6413">
        <ele>204</ele>
        <time>2022-05-21T17:06:04Z</time>
      </trkpt>
      <trkpt lat="48.59155" lon="-0.64083">
        <ele>205</ele>
        <time>2022-05-21T17:06:10Z</time>
      </trkpt>
      <trkpt lat="48.5915" lon="-0.6405">
        <ele>205</ele>
        <time>2022-05-21T17:06:14Z</time>
      </trkpt>
      <trkpt lat="48.59146" lon="-0.63984">
        <ele>205</ele>
        <time>2022-05-21T17:06:22Z</time>
      </trkpt>
      <trkpt lat="48.59147" lon="-0.63936">
        <ele>205</ele>
        <time>2022-05-21T17:06:27Z</time>
      </trkpt>
      <trkpt lat="48.59143" lon="-0.63792">
        <ele>208</ele>
        <time>2022-05-21T17:06:44Z</time>
      </trkpt>
      <trkpt lat="48.59136" lon="-0.63723">
        <ele>210</ele>
        <time>2022-05-21T17:06:52Z</time>
      </trkpt>
      <trkpt lat="48.59117" lon="-0.63605">
        <ele>211</ele>
        <time>2022-05-21T17:07:07Z</time>
      </trkpt>
      <trkpt lat="48.59113" lon="-0.63559">
        <ele>211</ele>
        <time>2022-05-21T17:07:12Z</time>
      </trkpt>
      <trkpt lat="48.59115" lon="-0.63466">
        <ele>211</ele>
        <time>2022-05-21T17:07:23Z</time>
      </trkpt>
      <trkpt lat="48.5912" lon="-0.63418">
        <ele>211</ele>
        <time>2022-05-21T17:07:29Z</time>
      </trkpt>
      <trkpt lat="48.59124" lon="-0.6331">
        <ele>211</ele>
        <time>2022-05-21T17:07:42Z</time>
      </trkpt>
      <trkpt lat="48.59105" lon="-0.63098">
        <ele>213</ele>
        <time>2022-05-21T17:08:07Z</time>
      </trkpt>
      <trkpt lat="48.59107" lon="-0.63022">
        <ele>215</ele>
        <time>2022-05-21T17:08:16Z</time>
      </trkpt>
      <trkpt lat="48.59116" lon="-0.62964">
        <ele>216</ele>
        <time>2022-05-21T17:08:23Z</time>
      </trkpt>
      <trkpt lat="48.59143" lon="-0.62869">
        <ele>217</ele>
        <time>2022-05-21T17:08:35Z</time>
      </trkpt>
      <trkpt lat="48.59134" lon="-0.62866">
        <ele>217</ele>
        <time>2022-05-21T17:08:36Z</time>
      </trkpt>
      <trkpt lat="48.59125" lon="-0.62875">
        <ele>217</ele>
        <time>2022-05-21T17:08:38Z</time>
      </trkpt>
      <trkpt lat="48.59072" lon="-0.62954">
        <ele>215</ele>
        <time>2022-05-21T17:08:52Z</time>
      </trkpt>
      <trkpt lat="48.59063" lon="-0.62963">
        <ele>213</ele>
        <time>2022-05-21T17:08:54Z</time>
      </trkpt>
      <trkpt lat="48.59053" lon="-0.62963">
        <ele>212</ele>
        <time>2022-05-21T17:08:55Z</time>
      </trkpt>
      <trkpt lat="48.59017" lon="-0.62933">
        <ele>209</ele>
        <time>2022-05-21T17:09:03Z</time>
      </trkpt>
      <trkpt lat="48.58999" lon="-0.62908">
        <ele>208</ele>
        <time>2022-05-21T17:09:07Z</time>
      </trkpt>
      <trkpt lat="48.58978" lon="-0.62839">
        <ele>208</ele>
        <time>2022-05-21T17:09:16Z</time>
      </trkpt>
      <trkpt lat="48.58964" lon="-0.628">
        <ele>208</ele>
        <time>2022-05-21T17:09:21Z</time>
      </trkpt>
      <trkpt lat="48.58955" lon="-0.62784">
        <ele>207</ele>
        <time>2022-05-21T17:09:24Z</time>
      </trkpt>
      <trkpt lat="48.58946" lon="-0.62775">
        <ele>206</ele>
        <time>2022-05-21T17:09:26Z</time>
      </trkpt>
      <trkpt lat="48.58927" lon="-0.62766">
        <ele>203</ele>
        <time>2022-05-21T17:09:29Z</time>
      </trkpt>
      <trkpt lat="48.58919" lon="-0.62759">
        <ele>202</ele>
        <time>2022-05-21T17:09:31Z</time>
      </trkpt>
      <trkpt lat="48.58888" lon="-0.62741">
        <ele>198</ele>
        <time>2022-05-21T17:09:37Z</time>
      </trkpt>
      <trkpt lat="48.58846" lon="-0.62707">
        <ele>193</ele>
        <time>2022-05-21T17:09:45Z</time>
      </trkpt>
      <trkpt lat="48.58814" lon="-0.62675">
        <ele>191</ele>
        <time>2022-05-21T17:09:52Z</time>
      </trkpt>
      <trkpt lat="48.58805" lon="-0.62663">
        <ele>190</ele>
        <time>2022-05-21T17:09:54Z</time>
      </trkpt>
      <trkpt lat="48.58777" lon="-0.62637">
        <ele>188</ele>
        <time>2022-05-21T17:10:00Z</time>
      </trkpt>
      <trkpt lat="48.58771" lon="-0.62623">
        <ele>188</ele>
        <time>2022-05-21T17:10:02Z</time>
      </trkpt>
      <trkpt lat="48.58772" lon="-0.62592">
        <ele>188</ele>
        <time>2022-05-21T17:10:06Z</time>
      </trkpt>
      <trkpt lat="48.58759" lon="-0.62496">
        <ele>188</ele>
        <time>2022-05-21T17:10:17Z</time>
      </trkpt>
      <trkpt lat="48.58748" lon="-0.62372">
        <ele>188</ele>
        <time>2022-05-21T17:10:32Z</time>
      </trkpt>
      <trkpt lat="48.58743" lon="-0.62291">
        <ele>189</ele>
        <time>2022-05-21T17:10:41Z</time>
      </trkpt>
      <trkpt lat="48.58741" lon="-0.62191">
        <ele>190</ele>
        <time>2022-05-21T17:10:53Z</time>
      </trkpt>
      <trkpt lat="48.58736" lon="-0.62143">
        <ele>190</ele>
        <time>2022-05-21T17:10:59Z</time>
      </trkpt>
      <trkpt lat="48.58729" lon="-0.62017">
        <ele>190</ele>
        <time>2022-05-21T17:11:14Z</time>
      </trkpt>
      <trkpt lat="48.58731" lon="-0.61869">
        <ele>188</ele>
        <time>2022-05-21T17:11:31Z</time>
      </trkpt>
      <trkpt lat="48.58733" lon="-0.61839">
        <ele>188</ele>
        <time>2022-05-21T17:11:35Z</time>
      </trkpt>
      <trkpt lat="48.58742" lon="-0.61777">
        <ele>187</ele>
        <time>2022-05-21T17:11:42Z</time>
      </trkpt>
      <trkpt lat="48.58743" lon="-0.61739">
        <ele>186</ele>
        <time>2022-05-21T17:11:47Z</time>
      </trkpt>
      <trkpt lat="48.58737" lon="-0.61701">
        <ele>184</ele>
        <time>2022-05-21T17:11:51Z</time>
      </trkpt>
      <trkpt lat="48.58723" lon="-0.61666">
        <ele>182</ele>
        <time>2022-05-21T17:11:56Z</time>
      </trkpt>
      <trkpt lat="48.58714" lon="-0.61614">
        <ele>181</ele>
        <time>2022-05-21T17:12:02Z</time>
      </trkpt>
      <trkpt lat="48.58711" lon="-0.61566">
        <ele>182</ele>
        <time>2022-05-21T17:12:08Z</time>
      </trkpt>
      <trkpt lat="48.58711" lon="-0.61444">
        <ele>187</ele>
        <time>2022-05-21T17:12:22Z</time>
      </trkpt>
      <trkpt lat="48.58706" lon="-0.61395">
        <ele>189</ele>
        <time>2022-05-21T17:12:28Z</time>
      </trkpt>
      <trkpt lat="48.58695" lon="-0.61337">
        <ele>191</ele>
        <time>2022-05-21T17:12:35Z</time>
      </trkpt>
      <trkpt lat="48.58648" lon="-0.61152">
        <ele>194</ele>
        <time>2022-05-21T17:12:59Z</time>
      </trkpt>
      <trkpt lat="48.58639" lon="-0.61124">
        <ele>194</ele>
        <time>2022-05-21T17:13:02Z</time>
      </trkpt>
      <trkpt lat="48.58572" lon="-0.60852">
        <ele>194</ele>
        <time>2022-05-21T17:13:37Z</time>
      </trkpt>
      <trkpt lat="48.58522" lon="-0.60632">
        <ele>194</ele>
        <time>2022-05-21T17:14:04Z</time>
      </trkpt>
      <trkpt lat="48.58513" lon="-0.60601">
        <ele>194</ele>
        <time>2022-05-21T17:14:08Z</time>
      </trkpt>
      <trkpt lat="48.58483" lon="-0.60462">
        <ele>194</ele>
        <time>2022-05-21T17:14:25Z</time>
      </trkpt>
      <trkpt lat="48.58455" lon="-0.60386">
        <ele>195</ele>
        <time>2022-05-21T17:14:35Z</time>
      </trkpt>
      <trkpt lat="48.5843" lon="-0.60331">
        <ele>195</ele>
        <time>2022-05-21T17:14:43Z</time>
      </trkpt>
      <trkpt lat="48.58353" lon="-0.60214">
        <ele>196</ele>
        <time>2022-05-21T17:15:03Z</time>
      </trkpt>
      <trkpt lat="48.58342" lon="-0.60192">
        <ele>196</ele>
        <time>2022-05-21T17:15:06Z</time>
      </trkpt>
      <trkpt lat="48.58324" lon="-0.60131">
        <ele>195</ele>
        <time>2022-05-21T17:15:14Z</time>
      </trkpt>
      <trkpt lat="48.58305" lon="-0.60029">
        <ele>192</ele>
        <time>2022-05-21T17:15:26Z</time>
      </trkpt>
      <trkpt lat="48.58284" lon="-0.5998">
        <ele>190</ele>
        <time>2022-05-21T17:15:33Z</time>
      </trkpt>
      <trkpt lat="48.58278" lon="-0.5996">
        <ele>189</ele>
        <time>2022-05-21T17:15:36Z</time>
      </trkpt>
      <trkpt lat="48.58246" lon="-0.59891">
        <ele>186</ele>
        <time>2022-05-21T17:15:46Z</time>
      </trkpt>
      <trkpt lat="48.58232" lon="-0.59853">
        <ele>185</ele>
        <time>2022-05-21T17:15:51Z</time>
      </trkpt>
      <trkpt lat="48.58215" lon="-0.59789">
        <ele>184</ele>
        <time>2022-05-21T17:15:59Z</time>
      </trkpt>
      <trkpt lat="48.58196" lon="-0.59678">
        <ele>187</ele>
        <time>2022-05-21T17:16:12Z</time>
      </trkpt>
      <trkpt lat="48.58194" lon="-0.59618">
        <ele>188</ele>
        <time>2022-05-21T17:16:19Z</time>
      </trkpt>
      <trkpt lat="48.58197" lon="-0.59553">
        <ele>188</ele>
        <time>2022-05-21T17:16:27Z</time>
      </trkpt>
      <trkpt lat="48.58194" lon="-0.59438">
        <ele>188</ele>
        <time>2022-05-21T17:16:41Z</time>
      </trkpt>
      <trkpt lat="48.5819" lon="-0.59385">
        <ele>187</ele>
        <time>2022-05-21T17:16:47Z</time>
      </trkpt>
      <trkpt lat="48.5815" lon="-0.5908">
        <ele>188</ele>
        <time>2022-05-21T17:17:23Z</time>
      </trkpt>
      <trkpt lat="48.58135" lon="-0.59003">
        <ele>191</ele>
        <time>2022-05-21T17:17:33Z</time>
      </trkpt>
      <trkpt lat="48.58114" lon="-0.58846">
        <ele>195</ele>
        <time>2022-05-21T17:17:52Z</time>
      </trkpt>
      <trkpt lat="48.58104" lon="-0.58804">
        <ele>197</ele>
        <time>2022-05-21T17:17:57Z</time>
      </trkpt>
      <trkpt lat="48.58099" lon="-0.58792">
        <ele>197</ele>
        <time>2022-05-21T17:17:59Z</time>
      </trkpt>
      <trkpt lat="48.58085" lon="-0.58771">
        <ele>197</ele>
        <time>2022-05-21T17:18:02Z</time>
      </trkpt>
      <trkpt lat="48.58076" lon="-0.58743">
        <ele>198</ele>
        <time>2022-05-21T17:18:06Z</time>
      </trkpt>
      <trkpt lat="48.58067" lon="-0.58652">
        <ele>197</ele>
        <time>2022-05-21T17:18:17Z</time>
      </trkpt>
      <trkpt lat="48.58062" lon="-0.58568">
        <ele>196</ele>
        <time>2022-05-21T17:18:27Z</time>
      </trkpt>
      <trkpt lat="48.58053" lon="-0.58512">
        <ele>195</ele>
        <time>2022-05-21T17:18:33Z</time>
      </trkpt>
      <trkpt lat="48.58031" lon="-0.58445">
        <ele>193</ele>
        <time>2022-05-21T17:18:42Z</time>
      </trkpt>
      <trkpt lat="48.5802" lon="-0.58384">
        <ele>193</ele>
        <time>2022-05-21T17:18:50Z</time>
      </trkpt>
      <trkpt lat="48.58018" lon="-0.58364">
        <ele>193</ele>
        <time>2022-05-21T17:18:52Z</time>
      </trkpt>
      <trkpt lat="48.58019" lon="-0.58287">
        <ele>194</ele>
        <time>2022-05-21T17:19:01Z</time>
      </trkpt>
      <trkpt lat="48.58016" lon="-0.5825">
        <ele>194</ele>
        <time>2022-05-21T17:19:06Z</time>
      </trkpt>
      <trkpt lat="48.58002" lon="-0.58184">
        <ele>195</ele>
        <time>2022-05-21T17:19:14Z</time>
      </trkpt>
      <trkpt lat="48.5798" lon="-0.58109">
        <ele>197</ele>
        <time>2022-05-21T17:19:23Z</time>
      </trkpt>
      <trkpt lat="48.5796" lon="-0.58024">
        <ele>199</ele>
        <time>2022-05-21T17:19:34Z</time>
      </trkpt>
      <trkpt lat="48.57955" lon="-0.57979">
        <ele>200</ele>
        <time>2022-05-21T17:19:39Z</time>
      </trkpt>
      <trkpt lat="48.5794" lon="-0.57891">
        <ele>202</ele>
        <time>2022-05-21T17:19:50Z</time>
      </trkpt>
      <trkpt lat="48.57935" lon="-0.57829">
        <ele>203</ele>
        <time>2022-05-21T17:19:57Z</time>
      </trkpt>
      <trkpt lat="48.5793" lon="-0.578">
        <ele>204</ele>
        <time>2022-05-21T17:20:01Z</time>
      </trkpt>
      <trkpt lat="48.57904" lon="-0.57725">
        <ele>203</ele>
        <time>2022-05-21T17:20:11Z</time>
      </trkpt>
      <trkpt lat="48.5789" lon="-0.57676">
        <ele>203</ele>
        <time>2022-05-21T17:20:17Z</time>
      </trkpt>
      <trkpt lat="48.57867" lon="-0.57559">
        <ele>204</ele>
        <time>2022-05-21T17:20:32Z</time>
      </trkpt>
      <trkpt lat="48.57855" lon="-0.57449">
        <ele>206</ele>
        <time>2022-05-21T17:20:45Z</time>
      </trkpt>
      <trkpt lat="48.57838" lon="-0.57249">
        <ele>208</ele>
        <time>2022-05-21T17:21:08Z</time>
      </trkpt>
      <trkpt lat="48.57834" lon="-0.57229">
        <ele>208</ele>
        <time>2022-05-21T17:21:11Z</time>
      </trkpt>
      <trkpt lat="48.57823" lon="-0.57202">
        <ele>207</ele>
        <time>2022-05-21T17:21:15Z</time>
      </trkpt>
      <trkpt lat="48.57816" lon="-0.57171">
        <ele>206</ele>
        <time>2022-05-21T17:21:18Z</time>
      </trkpt>
      <trkpt lat="48.57814" lon="-0.5714">
        <ele>205</ele>
        <time>2022-05-21T17:21:22Z</time>
      </trkpt>
      <trkpt lat="48.57815" lon="-0.56972">
        <ele>206</ele>
        <time>2022-05-21T17:21:42Z</time>
      </trkpt>
      <trkpt lat="48.57811" lon="-0.56937">
        <ele>207</ele>
        <time>2022-05-21T17:21:46Z</time>
      </trkpt>
      <trkpt lat="48.57796" lon="-0.5688">
        <ele>208</ele>
        <time>2022-05-21T17:21:53Z</time>
      </trkpt>
      <trkpt lat="48.57769" lon="-0.56755">
        <ele>211</ele>
        <time>2022-05-21T17:22:09Z</time>
      </trkpt>
      <trkpt lat="48.57756" lon="-0.56717">
        <ele>210</ele>
        <time>2022-05-21T17:22:14Z</time>
      </trkpt>
      <trkpt lat="48.57743" lon="-0.56694">
        <ele>210</ele>
        <time>2022-05-21T17:22:17Z</time>
      </trkpt>
      <trkpt lat="48.57705" lon="-0.56655">
        <ele>207</ele>
        <time>2022-05-21T17:22:26Z</time>
      </trkpt>
      <trkpt lat="48.57698" lon="-0.56644">
        <ele>207</ele>
        <time>2022-05-21T17:22:27Z</time>
      </trkpt>
      <trkpt lat="48.57682" lon="-0.56602">
        <ele>207</ele>
        <time>2022-05-21T17:22:33Z</time>
      </trkpt>
      <trkpt lat="48.57661" lon="-0.56534">
        <ele>207</ele>
        <time>2022-05-21T17:22:42Z</time>
      </trkpt>
      <trkpt lat="48.57639" lon="-0.56495">
        <ele>207</ele>
        <time>2022-05-21T17:22:48Z</time>
      </trkpt>
      <trkpt lat="48.57541" lon="-0.56396">
        <ele>205</ele>
        <time>2022-05-21T17:23:09Z</time>
      </trkpt>
      <trkpt lat="48.5751" lon="-0.5636">
        <ele>206</ele>
        <time>2022-05-21T17:23:16Z</time>
      </trkpt>
      <trkpt lat="48.57504" lon="-0.56349">
        <ele>206</ele>
        <time>2022-05-21T17:23:17Z</time>
      </trkpt>
      <trkpt lat="48.57491" lon="-0.56315">
        <ele>206</ele>
        <time>2022-05-21T17:23:22Z</time>
      </trkpt>
      <trkpt lat="48.57465" lon="-0.56191">
        <ele>205</ele>
        <time>2022-05-21T17:23:37Z</time>
      </trkpt>
      <trkpt lat="48.57446" lon="-0.56147">
        <ele>205</ele>
        <time>2022-05-21T17:23:44Z</time>
      </trkpt>
      <trkpt lat="48.57429" lon="-0.56126">
        <ele>204</ele>
        <time>2022-05-21T17:23:48Z</time>
      </trkpt>
      <trkpt lat="48.5742" lon="-0.5612">
        <ele>204</ele>
        <time>2022-05-21T17:23:49Z</time>
      </trkpt>
      <trkpt lat="48.57323" lon="-0.56067">
        <ele>207</ele>
        <time>2022-05-21T17:24:08Z</time>
      </trkpt>
      <trkpt lat="48.57236" lon="-0.56009">
        <ele>209</ele>
        <time>2022-05-21T17:24:25Z</time>
      </trkpt>
      <trkpt lat="48.57206" lon="-0.55981">
        <ele>209</ele>
        <time>2022-05-21T17:24:31Z</time>
      </trkpt>
      <trkpt lat="48.57205" lon="-0.55964">
        <ele>209</ele>
        <time>2022-05-21T17:24:33Z</time>
      </trkpt>
      <trkpt lat="48.57209" lon="-0.5595">
        <ele>210</ele>
        <time>2022-05-21T17:24:35Z</time>
      </trkpt>
      <trkpt lat="48.57238" lon="-0.55908">
        <ele>210</ele>
        <time>2022-05-21T17:24:42Z</time>
      </trkpt>
      <trkpt lat="48.57261" lon="-0.55862">
        <ele>211</ele>
        <time>2022-05-21T17:24:49Z</time>
      </trkpt>
      <trkpt lat="48.57269" lon="-0.55853">
        <ele>211</ele>
        <time>2022-05-21T17:24:50Z</time>
      </trkpt>
      <trkpt lat="48.57278" lon="-0.55849">
        <ele>211</ele>
        <time>2022-05-21T17:24:52Z</time>
      </trkpt>
      <trkpt lat="48.5728" lon="-0.5583">
        <ele>211</ele>
        <time>2022-05-21T17:24:54Z</time>
      </trkpt>
      <trkpt lat="48.57319" lon="-0.55761">
        <ele>212</ele>
        <time>2022-05-21T17:25:05Z</time>
      </trkpt>
      <trkpt lat="48.5735" lon="-0.55697">
        <ele>214</ele>
        <time>2022-05-21T17:25:14Z</time>
      </trkpt>
      <trkpt lat="48.57353" lon="-0.55685">
        <ele>215</ele>
        <time>2022-05-21T17:25:16Z</time>
      </trkpt>
      <trkpt lat="48.57365" lon="-0.55659">
        <ele>215</ele>
        <time>2022-05-21T17:25:20Z</time>
      </trkpt>
      <trkpt lat="48.57406" lon="-0.55576">
        <ele>219</ele>
        <time>2022-05-21T17:25:32Z</time>
      </trkpt>
      <trkpt lat="48.57427" lon="-0.55545">
        <ele>220</ele>
        <time>2022-05-21T17:25:37Z</time>
      </trkpt>
      <trkpt lat="48.57479" lon="-0.55502">
        <ele>222</ele>
        <time>2022-05-21T17:25:47Z</time>
      </trkpt>
      <trkpt lat="48.57537" lon="-0.5544">
        <ele>227</ele>
        <time>2022-05-21T17:26:00Z</time>
      </trkpt>
      <trkpt lat="48.57551" lon="-0.5542">
        <ele>229</ele>
        <time>2022-05-21T17:26:04Z</time>
      </trkpt>
      <trkpt lat="48.5759" lon="-0.55336">
        <ele>232</ele>
        <time>2022-05-21T17:26:16Z</time>
      </trkpt>
      <trkpt lat="48.57594" lon="-0.55323">
        <ele>233</ele>
        <time>2022-05-21T17:26:17Z</time>
      </trkpt>
      <trkpt lat="48.57613" lon="-0.55287">
        <ele>235</ele>
        <time>2022-05-21T17:26:23Z</time>
      </trkpt>
      <trkpt lat="48.57627" lon="-0.55249">
        <ele>237</ele>
        <time>2022-05-21T17:26:28Z</time>
      </trkpt>
      <trkpt lat="48.57632" lon="-0.55221">
        <ele>237</ele>
        <time>2022-05-21T17:26:31Z</time>
      </trkpt>
      <trkpt lat="48.5763" lon="-0.55193">
        <ele>238</ele>
        <time>2022-05-21T17:26:35Z</time>
      </trkpt>
      <trkpt lat="48.57602" lon="-0.551">
        <ele>240</ele>
        <time>2022-05-21T17:26:47Z</time>
      </trkpt>
      <trkpt lat="48.57596" lon="-0.55073">
        <ele>240</ele>
        <time>2022-05-21T17:26:50Z</time>
      </trkpt>
      <trkpt lat="48.57585" lon="-0.54982">
        <ele>243</ele>
        <time>2022-05-21T17:27:01Z</time>
      </trkpt>
      <trkpt lat="48.57588" lon="-0.54906">
        <ele>246</ele>
        <time>2022-05-21T17:27:10Z</time>
      </trkpt>
      <trkpt lat="48.57597" lon="-0.54836">
        <ele>247</ele>
        <time>2022-05-21T17:27:18Z</time>
      </trkpt>
      <trkpt lat="48.57595" lon="-0.54822">
        <ele>248</ele>
        <time>2022-05-21T17:27:20Z</time>
      </trkpt>
      <trkpt lat="48.57596" lon="-0.54729">
        <ele>251</ele>
        <time>2022-05-21T17:27:31Z</time>
      </trkpt>
      <trkpt lat="48.5759" lon="-0.5461">
        <ele>253</ele>
        <time>2022-05-21T17:27:45Z</time>
      </trkpt>
      <trkpt lat="48.57603" lon="-0.54419">
        <ele>258</ele>
        <time>2022-05-21T17:28:08Z</time>
      </trkpt>
      <trkpt lat="48.57618" lon="-0.54346">
        <ele>260</ele>
        <time>2022-05-21T17:28:17Z</time>
      </trkpt>
      <trkpt lat="48.57633" lon="-0.5429">
        <ele>263</ele>
        <time>2022-05-21T17:28:24Z</time>
      </trkpt>
      <trkpt lat="48.57638" lon="-0.54278">
        <ele>264</ele>
        <time>2022-05-21T17:28:25Z</time>
      </trkpt>
      <trkpt lat="48.5764" lon="-0.54264">
        <ele>264</ele>
        <time>2022-05-21T17:28:27Z</time>
      </trkpt>
      <trkpt lat="48.57647" lon="-0.54255">
        <ele>265</ele>
        <time>2022-05-21T17:28:29Z</time>
      </trkpt>
      <trkpt lat="48.57681" lon="-0.54284">
        <ele>270</ele>
        <time>2022-05-21T17:28:36Z</time>
      </trkpt>
      <trkpt lat="48.57699" lon="-0.54293">
        <ele>271</ele>
        <time>2022-05-21T17:28:39Z</time>
      </trkpt>
      <trkpt lat="48.57709" lon="-0.54302">
        <ele>272</ele>
        <time>2022-05-21T17:28:41Z</time>
      </trkpt>
      <trkpt lat="48.57719" lon="-0.54305">
        <ele>272</ele>
        <time>2022-05-21T17:28:43Z</time>
      </trkpt>
      <trkpt lat="48.57728" lon="-0.54298">
        <ele>273</ele>
        <time>2022-05-21T17:28:45Z</time>
      </trkpt>
      <trkpt lat="48.57733" lon="-0.54285">
        <ele>273</ele>
        <time>2022-05-21T17:28:46Z</time>
      </trkpt>
      <trkpt lat="48.57742" lon="-0.54258">
        <ele>273</ele>
        <time>2022-05-21T17:28:50Z</time>
      </trkpt>
      <trkpt lat="48.57747" lon="-0.54231">
        <ele>273</ele>
        <time>2022-05-21T17:28:53Z</time>
      </trkpt>
      <trkpt lat="48.57759" lon="-0.5423">
        <ele>272</ele>
        <time>2022-05-21T17:28:55Z</time>
      </trkpt>
      <trkpt lat="48.57751" lon="-0.54203">
        <ele>272</ele>
        <time>2022-05-21T17:28:59Z</time>
      </trkpt>
      <trkpt lat="48.57745" lon="-0.54193">
        <ele>272</ele>
        <time>2022-05-21T17:29:00Z</time>
      </trkpt>
      <trkpt lat="48.57753" lon="-0.54186">
        <ele>272</ele>
        <time>2022-05-21T17:29:02Z</time>
      </trkpt>
      <trkpt lat="48.57746" lon="-0.54196">
        <ele>272</ele>
        <time>2022-05-21T17:29:04Z</time>
      </trkpt>
      <trkpt lat="48.57747" lon="-0.5421">
        <ele>272</ele>
        <time>2022-05-21T17:29:05Z</time>
      </trkpt>
      <trkpt lat="48.57742" lon="-0.54224">
        <ele>272</ele>
        <time>2022-05-21T17:29:07Z</time>
      </trkpt>
      <trkpt lat="48.57739" lon="-0.54209">
        <ele>272</ele>
        <time>2022-05-21T17:29:09Z</time>
      </trkpt>
      <trkpt lat="48.57749" lon="-0.54208">
        <ele>272</ele>
        <time>2022-05-21T17:29:11Z</time>
      </trkpt>
      <trkpt lat="48.57761" lon="-0.54143">
        <ele>271</ele>
        <time>2022-05-21T17:29:19Z</time>
      </trkpt>
      <trkpt lat="48.57766" lon="-0.54129">
        <ele>270</ele>
        <time>2022-05-21T17:29:21Z</time>
      </trkpt>
      <trkpt lat="48.57771" lon="-0.54094">
        <ele>269</ele>
        <time>2022-05-21T17:29:25Z</time>
      </trkpt>
      <trkpt lat="48.57777" lon="-0.54073">
        <ele>268</ele>
        <time>2022-05-21T17:29:28Z</time>
      </trkpt>
      <trkpt lat="48.57796" lon="-0.53962">
        <ele>266</ele>
        <time>2022-05-21T17:29:41Z</time>
      </trkpt>
      <trkpt lat="48.57809" lon="-0.53915">
        <ele>265</ele>
        <time>2022-05-21T17:29:47Z</time>
      </trkpt>
      <trkpt lat="48.57801" lon="-0.53896">
        <ele>265</ele>
        <time>2022-05-21T17:29:50Z</time>
      </trkpt>
      <trkpt lat="48.57808" lon="-0.53858">
        <ele>264</ele>
        <time>2022-05-21T17:29:54Z</time>
      </trkpt>
      <trkpt lat="48.57891" lon="-0.53447">
        <ele>251</ele>
        <time>2022-05-21T17:30:45Z</time>
      </trkpt>
      <trkpt lat="48.579" lon="-0.53389">
        <ele>250</ele>
        <time>2022-05-21T17:30:52Z</time>
      </trkpt>
      <trkpt lat="48.57936" lon="-0.53223">
        <ele>242</ele>
        <time>2022-05-21T17:31:13Z</time>
      </trkpt>
      <trkpt lat="48.57941" lon="-0.53182">
        <ele>242</ele>
        <time>2022-05-21T17:31:18Z</time>
      </trkpt>
      <trkpt lat="48.57972" lon="-0.53036">
        <ele>237</ele>
        <time>2022-05-21T17:31:36Z</time>
      </trkpt>
      <trkpt lat="48.57996" lon="-0.529">
        <ele>237</ele>
        <time>2022-05-21T17:31:52Z</time>
      </trkpt>
      <trkpt lat="48.58004" lon="-0.52869">
        <ele>237</ele>
        <time>2022-05-21T17:31:56Z</time>
      </trkpt>
      <trkpt lat="48.58057" lon="-0.52591">
        <ele>239</ele>
        <time>2022-05-21T17:32:30Z</time>
      </trkpt>
      <trkpt lat="48.58069" lon="-0.52586">
        <ele>240</ele>
        <time>2022-05-21T17:32:32Z</time>
      </trkpt>
      <trkpt lat="48.58078" lon="-0.52558">
        <ele>240</ele>
        <time>2022-05-21T17:32:36Z</time>
      </trkpt>
      <trkpt lat="48.5808" lon="-0.52542">
        <ele>239</ele>
        <time>2022-05-21T17:32:38Z</time>
      </trkpt>
      <trkpt lat="48.58089" lon="-0.52514">
        <ele>239</ele>
        <time>2022-05-21T17:32:42Z</time>
      </trkpt>
      <trkpt lat="48.58108" lon="-0.52433">
        <ele>235</ele>
        <time>2022-05-21T17:32:52Z</time>
      </trkpt>
      <trkpt lat="48.58112" lon="-0.5242">
        <ele>235</ele>
        <time>2022-05-21T17:32:53Z</time>
      </trkpt>
      <trkpt lat="48.58121" lon="-0.52408">
        <ele>235</ele>
        <time>2022-05-21T17:32:56Z</time>
      </trkpt>
      <trkpt lat="48.58133" lon="-0.5238">
        <ele>237</ele>
        <time>2022-05-21T17:32:59Z</time>
      </trkpt>
      <trkpt lat="48.58139" lon="-0.52364">
        <ele>237</ele>
        <time>2022-05-21T17:33:02Z</time>
      </trkpt>
      <trkpt lat="48.58141" lon="-0.52347">
        <ele>238</ele>
        <time>2022-05-21T17:33:04Z</time>
      </trkpt>
      <trkpt lat="48.5813" lon="-0.52373">
        <ele>237</ele>
        <time>2022-05-21T17:33:07Z</time>
      </trkpt>
      <trkpt lat="48.58108" lon="-0.52409">
        <ele>235</ele>
        <time>2022-05-21T17:33:13Z</time>
      </trkpt>
      <trkpt lat="48.58099" lon="-0.52434">
        <ele>235</ele>
        <time>2022-05-21T17:33:16Z</time>
      </trkpt>
      <trkpt lat="48.58092" lon="-0.52444">
        <ele>235</ele>
        <time>2022-05-21T17:33:18Z</time>
      </trkpt>
      <trkpt lat="48.58098" lon="-0.52468">
        <ele>237</ele>
        <time>2022-05-21T17:33:21Z</time>
      </trkpt>
      <trkpt lat="48.58102" lon="-0.52446">
        <ele>236</ele>
        <time>2022-05-21T17:33:24Z</time>
      </trkpt>
      <trkpt lat="48.58114" lon="-0.52415">
        <ele>235</ele>
        <time>2022-05-21T17:33:28Z</time>
      </trkpt>
      <trkpt lat="48.58142" lon="-0.52359">
        <ele>237</ele>
        <time>2022-05-21T17:33:36Z</time>
      </trkpt>
      <trkpt lat="48.58141" lon="-0.52345">
        <ele>238</ele>
        <time>2022-05-21T17:33:38Z</time>
      </trkpt>
      <trkpt lat="48.58145" lon="-0.52331">
        <ele>238</ele>
        <time>2022-05-21T17:33:40Z</time>
      </trkpt>
      <trkpt lat="48.5815" lon="-0.52286">
        <ele>240</ele>
        <time>2022-05-21T17:33:45Z</time>
      </trkpt>
      <trkpt lat="48.58157" lon="-0.52277">
        <ele>240</ele>
        <time>2022-05-21T17:33:47Z</time>
      </trkpt>
      <trkpt lat="48.58156" lon="-0.52263">
        <ele>241</ele>
        <time>2022-05-21T17:33:48Z</time>
      </trkpt>
      <trkpt lat="48.58151" lon="-0.52251">
        <ele>242</ele>
        <time>2022-05-21T17:33:50Z</time>
      </trkpt>
      <trkpt lat="48.5815" lon="-0.52221">
        <ele>243</ele>
        <time>2022-05-21T17:33:54Z</time>
      </trkpt>
      <trkpt lat="48.58146" lon="-0.52208">
        <ele>244</ele>
        <time>2022-05-21T17:33:55Z</time>
      </trkpt>
      <trkpt lat="48.58165" lon="-0.52105">
        <ele>249</ele>
        <time>2022-05-21T17:34:08Z</time>
      </trkpt>
      <trkpt lat="48.58192" lon="-0.51997">
        <ele>254</ele>
        <time>2022-05-21T17:34:22Z</time>
      </trkpt>
      <trkpt lat="48.58197" lon="-0.51951">
        <ele>255</ele>
        <time>2022-05-21T17:34:27Z</time>
      </trkpt>
      <trkpt lat="48.5821" lon="-0.51896">
        <ele>257</ele>
        <time>2022-05-21T17:34:34Z</time>
      </trkpt>
      <trkpt lat="48.58215" lon="-0.51851">
        <ele>258</ele>
        <time>2022-05-21T17:34:39Z</time>
      </trkpt>
      <trkpt lat="48.58226" lon="-0.51823">
        <ele>259</ele>
        <time>2022-05-21T17:34:43Z</time>
      </trkpt>
      <trkpt lat="48.58233" lon="-0.51778">
        <ele>259</ele>
        <time>2022-05-21T17:34:49Z</time>
      </trkpt>
      <trkpt lat="48.58259" lon="-0.51668">
        <ele>258</ele>
        <time>2022-05-21T17:35:02Z</time>
      </trkpt>
      <trkpt lat="48.5826" lon="-0.51651">
        <ele>258</ele>
        <time>2022-05-21T17:35:04Z</time>
      </trkpt>
      <trkpt lat="48.58274" lon="-0.5159">
        <ele>257</ele>
        <time>2022-05-21T17:35:12Z</time>
      </trkpt>
      <trkpt lat="48.58273" lon="-0.51575">
        <ele>257</ele>
        <time>2022-05-21T17:35:14Z</time>
      </trkpt>
      <trkpt lat="48.58298" lon="-0.51467">
        <ele>256</ele>
        <time>2022-05-21T17:35:27Z</time>
      </trkpt>
      <trkpt lat="48.5831" lon="-0.51375">
        <ele>255</ele>
        <time>2022-05-21T17:35:38Z</time>
      </trkpt>
      <trkpt lat="48.58316" lon="-0.51346">
        <ele>255</ele>
        <time>2022-05-21T17:35:42Z</time>
      </trkpt>
      <trkpt lat="48.58347" lon="-0.5121">
        <ele>254</ele>
        <time>2022-05-21T17:35:59Z</time>
      </trkpt>
      <trkpt lat="48.58364" lon="-0.51152">
        <ele>254</ele>
        <time>2022-05-21T17:36:06Z</time>
      </trkpt>
      <trkpt lat="48.58364" lon="-0.5111">
        <ele>255</ele>
        <time>2022-05-21T17:36:11Z</time>
      </trkpt>
      <trkpt lat="48.5842" lon="-0.50811">
        <ele>258</ele>
        <time>2022-05-21T17:36:48Z</time>
      </trkpt>
      <trkpt lat="48.58432" lon="-0.50755">
        <ele>258</ele>
        <time>2022-05-21T17:36:55Z</time>
      </trkpt>
      <trkpt lat="48.58442" lon="-0.50724">
        <ele>257</ele>
        <time>2022-05-21T17:36:59Z</time>
      </trkpt>
      <trkpt lat="48.58533" lon="-0.50267">
        <ele>252</ele>
        <time>2022-05-21T17:37:55Z</time>
      </trkpt>
      <trkpt lat="48.58575" lon="-0.50077">
        <ele>256</ele>
        <time>2022-05-21T17:38:18Z</time>
      </trkpt>
      <trkpt lat="48.58584" lon="-0.50033">
        <ele>257</ele>
        <time>2022-05-21T17:38:24Z</time>
      </trkpt>
      <trkpt lat="48.58585" lon="-0.50017">
        <ele>258</ele>
        <time>2022-05-21T17:38:26Z</time>
      </trkpt>
      <trkpt lat="48.58608" lon="-0.49925">
        <ele>256</ele>
        <time>2022-05-21T17:38:37Z</time>
      </trkpt>
      <trkpt lat="48.58634" lon="-0.49775">
        <ele>257</ele>
        <time>2022-05-21T17:38:56Z</time>
      </trkpt>
      <trkpt lat="48.58646" lon="-0.49728">
        <ele>257</ele>
        <time>2022-05-21T17:39:01Z</time>
      </trkpt>
      <trkpt lat="48.5866" lon="-0.49649">
        <ele>256</ele>
        <time>2022-05-21T17:39:11Z</time>
      </trkpt>
      <trkpt lat="48.58679" lon="-0.49573">
        <ele>258</ele>
        <time>2022-05-21T17:39:21Z</time>
      </trkpt>
      <trkpt lat="48.58686" lon="-0.49526">
        <ele>259</ele>
        <time>2022-05-21T17:39:26Z</time>
      </trkpt>
      <trkpt lat="48.58717" lon="-0.49392">
        <ele>262</ele>
        <time>2022-05-21T17:39:43Z</time>
      </trkpt>
      <trkpt lat="48.58728" lon="-0.49318">
        <ele>263</ele>
        <time>2022-05-21T17:39:52Z</time>
      </trkpt>
      <trkpt lat="48.58737" lon="-0.49288">
        <ele>263</ele>
        <time>2022-05-21T17:39:56Z</time>
      </trkpt>
      <trkpt lat="48.58738" lon="-0.49275">
        <ele>263</ele>
        <time>2022-05-21T17:39:57Z</time>
      </trkpt>
      <trkpt lat="48.58748" lon="-0.49235">
        <ele>264</ele>
        <time>2022-05-21T17:40:02Z</time>
      </trkpt>
      <trkpt lat="48.5876" lon="-0.4915">
        <ele>265</ele>
        <time>2022-05-21T17:40:13Z</time>
      </trkpt>
      <trkpt lat="48.58769" lon="-0.49107">
        <ele>265</ele>
        <time>2022-05-21T17:40:18Z</time>
      </trkpt>
      <trkpt lat="48.58777" lon="-0.49081">
        <ele>265</ele>
        <time>2022-05-21T17:40:21Z</time>
      </trkpt>
      <trkpt lat="48.58776" lon="-0.49064">
        <ele>265</ele>
        <time>2022-05-21T17:40:23Z</time>
      </trkpt>
      <trkpt lat="48.5877" lon="-0.49052">
        <ele>265</ele>
        <time>2022-05-21T17:40:25Z</time>
      </trkpt>
      <trkpt lat="48.58763" lon="-0.49044">
        <ele>265</ele>
        <time>2022-05-21T17:40:27Z</time>
      </trkpt>
      <trkpt lat="48.58758" lon="-0.49031">
        <ele>265</ele>
        <time>2022-05-21T17:40:28Z</time>
      </trkpt>
      <trkpt lat="48.58759" lon="-0.49016">
        <ele>265</ele>
        <time>2022-05-21T17:40:30Z</time>
      </trkpt>
      <trkpt lat="48.5875" lon="-0.49011">
        <ele>264</ele>
        <time>2022-05-21T17:40:32Z</time>
      </trkpt>
      <trkpt lat="48.58753" lon="-0.48998">
        <ele>264</ele>
        <time>2022-05-21T17:40:34Z</time>
      </trkpt>
      <trkpt lat="48.58753" lon="-0.48982">
        <ele>264</ele>
        <time>2022-05-21T17:40:35Z</time>
      </trkpt>
      <trkpt lat="48.58743" lon="-0.48953">
        <ele>263</ele>
        <time>2022-05-21T17:40:39Z</time>
      </trkpt>
      <trkpt lat="48.58737" lon="-0.48899">
        <ele>262</ele>
        <time>2022-05-21T17:40:46Z</time>
      </trkpt>
      <trkpt lat="48.58725" lon="-0.48857">
        <ele>261</ele>
        <time>2022-05-21T17:40:51Z</time>
      </trkpt>
      <trkpt lat="48.58599" lon="-0.48565">
        <ele>262</ele>
        <time>2022-05-21T17:41:32Z</time>
      </trkpt>
      <trkpt lat="48.5848" lon="-0.48271">
        <ele>250</ele>
        <time>2022-05-21T17:42:13Z</time>
      </trkpt>
      <trkpt lat="48.58448" lon="-0.48201">
        <ele>253</ele>
        <time>2022-05-21T17:42:23Z</time>
      </trkpt>
      <trkpt lat="48.58403" lon="-0.48087">
        <ele>244</ele>
        <time>2022-05-21T17:42:38Z</time>
      </trkpt>
      <trkpt lat="48.58405" lon="-0.48072">
        <ele>243</ele>
        <time>2022-05-21T17:42:40Z</time>
      </trkpt>
      <trkpt lat="48.58447" lon="-0.48015">
        <ele>246</ele>
        <time>2022-05-21T17:42:50Z</time>
      </trkpt>
      <trkpt lat="48.58457" lon="-0.48009">
        <ele>247</ele>
        <time>2022-05-21T17:42:52Z</time>
      </trkpt>
      <trkpt lat="48.58466" lon="-0.48015">
        <ele>249</ele>
        <time>2022-05-21T17:42:54Z</time>
      </trkpt>
      <trkpt lat="48.58476" lon="-0.48014">
        <ele>250</ele>
        <time>2022-05-21T17:42:56Z</time>
      </trkpt>
      <trkpt lat="48.58466" lon="-0.48009">
        <ele>248</ele>
        <time>2022-05-21T17:42:58Z</time>
      </trkpt>
      <trkpt lat="48.58465" lon="-0.48023">
        <ele>249</ele>
        <time>2022-05-21T17:42:59Z</time>
      </trkpt>
      <trkpt lat="48.58474" lon="-0.48021">
        <ele>251</ele>
        <time>2022-05-21T17:43:01Z</time>
      </trkpt>
      <trkpt lat="48.58459" lon="-0.48029">
        <ele>249</ele>
        <time>2022-05-21T17:43:04Z</time>
      </trkpt>
      <trkpt lat="48.58453" lon="-0.47993">
        <ele>245</ele>
        <time>2022-05-21T17:43:08Z</time>
      </trkpt>
      <trkpt lat="48.58464" lon="-0.4799">
        <ele>247</ele>
        <time>2022-05-21T17:43:10Z</time>
      </trkpt>
      <trkpt lat="48.58462" lon="-0.48004">
        <ele>247</ele>
        <time>2022-05-21T17:43:12Z</time>
      </trkpt>
      <trkpt lat="48.58455" lon="-0.48014">
        <ele>247</ele>
        <time>2022-05-21T17:43:13Z</time>
      </trkpt>
      <trkpt lat="48.58461" lon="-0.47997">
        <ele>247</ele>
        <time>2022-05-21T17:43:16Z</time>
      </trkpt>
      <trkpt lat="48.58449" lon="-0.48025">
        <ele>247</ele>
        <time>2022-05-21T17:43:20Z</time>
      </trkpt>
      <trkpt lat="48.58426" lon="-0.48048">
        <ele>244</ele>
        <time>2022-05-21T17:43:24Z</time>
      </trkpt>
      <trkpt lat="48.58418" lon="-0.48042">
        <ele>243</ele>
        <time>2022-05-21T17:43:26Z</time>
      </trkpt>
      <trkpt lat="48.58426" lon="-0.48037">
        <ele>244</ele>
        <time>2022-05-21T17:43:28Z</time>
      </trkpt>
      <trkpt lat="48.58418" lon="-0.48031">
        <ele>242</ele>
        <time>2022-05-21T17:43:29Z</time>
      </trkpt>
      <trkpt lat="48.58421" lon="-0.48043">
        <ele>243</ele>
        <time>2022-05-21T17:43:31Z</time>
      </trkpt>
      <trkpt lat="48.58415" lon="-0.48055">
        <ele>243</ele>
        <time>2022-05-21T17:43:32Z</time>
      </trkpt>
      <trkpt lat="48.58399" lon="-0.48067">
        <ele>242</ele>
        <time>2022-05-21T17:43:36Z</time>
      </trkpt>
      <trkpt lat="48.58399" lon="-0.48081">
        <ele>243</ele>
        <time>2022-05-21T17:43:37Z</time>
      </trkpt>
      <trkpt lat="48.58391" lon="-0.48054">
        <ele>241</ele>
        <time>2022-05-21T17:43:41Z</time>
      </trkpt>
      <trkpt lat="48.58384" lon="-0.4804">
        <ele>239</ele>
        <time>2022-05-21T17:43:43Z</time>
      </trkpt>
      <trkpt lat="48.58356" lon="-0.4796">
        <ele>235</ele>
        <time>2022-05-21T17:43:54Z</time>
      </trkpt>
      <trkpt lat="48.5834" lon="-0.47929">
        <ele>234</ele>
        <time>2022-05-21T17:43:58Z</time>
      </trkpt>
      <trkpt lat="48.5833" lon="-0.479">
        <ele>234</ele>
        <time>2022-05-21T17:44:02Z</time>
      </trkpt>
      <trkpt lat="48.58299" lon="-0.4783">
        <ele>233</ele>
        <time>2022-05-21T17:44:12Z</time>
      </trkpt>
      <trkpt lat="48.58287" lon="-0.47808">
        <ele>233</ele>
        <time>2022-05-21T17:44:15Z</time>
      </trkpt>
      <trkpt lat="48.58277" lon="-0.47777">
        <ele>233</ele>
        <time>2022-05-21T17:44:19Z</time>
      </trkpt>
      <trkpt lat="48.58145" lon="-0.47468">
        <ele>234</ele>
        <time>2022-05-21T17:45:03Z</time>
      </trkpt>
      <trkpt lat="48.58092" lon="-0.47331">
        <ele>234</ele>
        <time>2022-05-21T17:45:21Z</time>
      </trkpt>
      <trkpt lat="48.5801" lon="-0.47146">
        <ele>248</ele>
        <time>2022-05-21T17:45:48Z</time>
      </trkpt>
      <trkpt lat="48.57956" lon="-0.47003">
        <ele>256</ele>
        <time>2022-05-21T17:46:07Z</time>
      </trkpt>
      <trkpt lat="48.57935" lon="-0.46955">
        <ele>257</ele>
        <time>2022-05-21T17:46:14Z</time>
      </trkpt>
      <trkpt lat="48.57912" lon="-0.46888">
        <ele>257</ele>
        <time>2022-05-21T17:46:23Z</time>
      </trkpt>
      <trkpt lat="48.57886" lon="-0.46835">
        <ele>257</ele>
        <time>2022-05-21T17:46:30Z</time>
      </trkpt>
      <trkpt lat="48.57868" lon="-0.46791">
        <ele>257</ele>
        <time>2022-05-21T17:46:36Z</time>
      </trkpt>
      <trkpt lat="48.5786" lon="-0.46779">
        <ele>257</ele>
        <time>2022-05-21T17:46:38Z</time>
      </trkpt>
      <trkpt lat="48.57819" lon="-0.46677">
        <ele>257</ele>
        <time>2022-05-21T17:46:52Z</time>
      </trkpt>
      <trkpt lat="48.57773" lon="-0.46574">
        <ele>258</ele>
        <time>2022-05-21T17:47:07Z</time>
      </trkpt>
      <trkpt lat="48.57722" lon="-0.46451">
        <ele>259</ele>
        <time>2022-05-21T17:47:24Z</time>
      </trkpt>
      <trkpt lat="48.57704" lon="-0.46396">
        <ele>259</ele>
        <time>2022-05-21T17:47:31Z</time>
      </trkpt>
      <trkpt lat="48.57687" lon="-0.46354">
        <ele>259</ele>
        <time>2022-05-21T17:47:37Z</time>
      </trkpt>
      <trkpt lat="48.57633" lon="-0.46236">
        <ele>261</ele>
        <time>2022-05-21T17:47:54Z</time>
      </trkpt>
      <trkpt lat="48.57583" lon="-0.46103">
        <ele>261</ele>
        <time>2022-05-21T17:48:12Z</time>
      </trkpt>
      <trkpt lat="48.57536" lon="-0.45999">
        <ele>256</ele>
        <time>2022-05-21T17:48:27Z</time>
      </trkpt>
      <trkpt lat="48.57521" lon="-0.45957">
        <ele>254</ele>
        <time>2022-05-21T17:48:33Z</time>
      </trkpt>
      <trkpt lat="48.57443" lon="-0.45773">
        <ele>250</ele>
        <time>2022-05-21T17:48:58Z</time>
      </trkpt>
      <trkpt lat="48.57425" lon="-0.45719">
        <ele>251</ele>
        <time>2022-05-21T17:49:05Z</time>
      </trkpt>
      <trkpt lat="48.57412" lon="-0.45693">
        <ele>251</ele>
        <time>2022-05-21T17:49:09Z</time>
      </trkpt>
      <trkpt lat="48.57386" lon="-0.45627">
        <ele>253</ele>
        <time>2022-05-21T17:49:18Z</time>
      </trkpt>
      <trkpt lat="48.57373" lon="-0.456">
        <ele>253</ele>
        <time>2022-05-21T17:49:22Z</time>
      </trkpt>
      <trkpt lat="48.57359" lon="-0.45559">
        <ele>254</ele>
        <time>2022-05-21T17:49:28Z</time>
      </trkpt>
      <trkpt lat="48.57345" lon="-0.45534">
        <ele>253</ele>
        <time>2022-05-21T17:49:31Z</time>
      </trkpt>
      <trkpt lat="48.57327" lon="-0.45493">
        <ele>253</ele>
        <time>2022-05-21T17:49:37Z</time>
      </trkpt>
      <trkpt lat="48.57309" lon="-0.45435">
        <ele>253</ele>
        <time>2022-05-21T17:49:45Z</time>
      </trkpt>
      <trkpt lat="48.57307" lon="-0.45421">
        <ele>254</ele>
        <time>2022-05-21T17:49:47Z</time>
      </trkpt>
      <trkpt lat="48.5731" lon="-0.45408">
        <ele>254</ele>
        <time>2022-05-21T17:49:48Z</time>
      </trkpt>
      <trkpt lat="48.57324" lon="-0.45388">
        <ele>256</ele>
        <time>2022-05-21T17:49:52Z</time>
      </trkpt>
      <trkpt lat="48.57322" lon="-0.45375">
        <ele>256</ele>
        <time>2022-05-21T17:49:53Z</time>
      </trkpt>
      <trkpt lat="48.57318" lon="-0.45373">
        <ele>255</ele>
        <time>2022-05-21T17:49:54Z</time>
      </trkpt>
      <trkpt lat="48.57315" lon="-0.4539">
        <ele>255</ele>
        <time>2022-05-21T17:49:56Z</time>
      </trkpt>
      <trkpt lat="48.57295" lon="-0.45407">
        <ele>253</ele>
        <time>2022-05-21T17:50:00Z</time>
      </trkpt>
      <trkpt lat="48.57287" lon="-0.45398">
        <ele>252</ele>
        <time>2022-05-21T17:50:02Z</time>
      </trkpt>
      <trkpt lat="48.57268" lon="-0.45355">
        <ele>251</ele>
        <time>2022-05-21T17:50:08Z</time>
      </trkpt>
      <trkpt lat="48.57263" lon="-0.45337">
        <ele>251</ele>
        <time>2022-05-21T17:50:10Z</time>
      </trkpt>
      <trkpt lat="48.5725" lon="-0.45307">
        <ele>251</ele>
        <time>2022-05-21T17:50:14Z</time>
      </trkpt>
      <trkpt lat="48.57247" lon="-0.45292">
        <ele>251</ele>
        <time>2022-05-21T17:50:16Z</time>
      </trkpt>
      <trkpt lat="48.57238" lon="-0.45276">
        <ele>250</ele>
        <time>2022-05-21T17:50:19Z</time>
      </trkpt>
      <trkpt lat="48.57162" lon="-0.45098">
        <ele>240</ele>
        <time>2022-05-21T17:50:44Z</time>
      </trkpt>
      <trkpt lat="48.57126" lon="-0.45008">
        <ele>237</ele>
        <time>2022-05-21T17:50:56Z</time>
      </trkpt>
      <trkpt lat="48.57099" lon="-0.44952">
        <ele>233</ele>
        <time>2022-05-21T17:51:04Z</time>
      </trkpt>
      <trkpt lat="48.57089" lon="-0.44922">
        <ele>232</ele>
        <time>2022-05-21T17:51:08Z</time>
      </trkpt>
      <trkpt lat="48.57042" lon="-0.44806">
        <ele>220</ele>
        <time>2022-05-21T17:51:24Z</time>
      </trkpt>
      <trkpt lat="48.56886" lon="-0.44447">
        <ele>218</ele>
        <time>2022-05-21T17:52:15Z</time>
      </trkpt>
      <trkpt lat="48.56862" lon="-0.44381">
        <ele>218</ele>
        <time>2022-05-21T17:52:24Z</time>
      </trkpt>
      <trkpt lat="48.56787" lon="-0.44199">
        <ele>220</ele>
        <time>2022-05-21T17:52:49Z</time>
      </trkpt>
      <trkpt lat="48.5677" lon="-0.44149">
        <ele>220</ele>
        <time>2022-05-21T17:52:55Z</time>
      </trkpt>
      <trkpt lat="48.56735" lon="-0.44076">
        <ele>220</ele>
        <time>2022-05-21T17:53:06Z</time>
      </trkpt>
      <trkpt lat="48.56724" lon="-0.44043">
        <ele>219</ele>
        <time>2022-05-21T17:53:10Z</time>
      </trkpt>
      <trkpt lat="48.56703" lon="-0.43997">
        <ele>217</ele>
        <time>2022-05-21T17:53:17Z</time>
      </trkpt>
      <trkpt lat="48.56683" lon="-0.43943">
        <ele>212</ele>
        <time>2022-05-21T17:53:24Z</time>
      </trkpt>
      <trkpt lat="48.56657" lon="-0.43891">
        <ele>207</ele>
        <time>2022-05-21T17:53:32Z</time>
      </trkpt>
      <trkpt lat="48.56596" lon="-0.43737">
        <ele>201</ele>
        <time>2022-05-21T17:53:53Z</time>
      </trkpt>
      <trkpt lat="48.5656" lon="-0.43657">
        <ele>196</ele>
        <time>2022-05-21T17:54:04Z</time>
      </trkpt>
      <trkpt lat="48.56544" lon="-0.43615">
        <ele>195</ele>
        <time>2022-05-21T17:54:10Z</time>
      </trkpt>
      <trkpt lat="48.56482" lon="-0.43483">
        <ele>197</ele>
        <time>2022-05-21T17:54:29Z</time>
      </trkpt>
      <trkpt lat="48.56451" lon="-0.43409">
        <ele>196</ele>
        <time>2022-05-21T17:54:40Z</time>
      </trkpt>
      <trkpt lat="48.564" lon="-0.43274">
        <ele>194</ele>
        <time>2022-05-21T17:54:58Z</time>
      </trkpt>
      <trkpt lat="48.56344" lon="-0.43138">
        <ele>194</ele>
        <time>2022-05-21T17:55:17Z</time>
      </trkpt>
      <trkpt lat="48.5634" lon="-0.43123">
        <ele>194</ele>
        <time>2022-05-21T17:55:19Z</time>
      </trkpt>
      <trkpt lat="48.56315" lon="-0.43071">
        <ele>194</ele>
        <time>2022-05-21T17:55:26Z</time>
      </trkpt>
      <trkpt lat="48.56294" lon="-0.43012">
        <ele>196</ele>
        <time>2022-05-21T17:55:34Z</time>
      </trkpt>
      <trkpt lat="48.56261" lon="-0.4294">
        <ele>197</ele>
        <time>2022-05-21T17:55:44Z</time>
      </trkpt>
      <trkpt lat="48.56218" lon="-0.42834">
        <ele>202</ele>
        <time>2022-05-21T17:55:59Z</time>
      </trkpt>
      <trkpt lat="48.56198" lon="-0.42803">
        <ele>203</ele>
        <time>2022-05-21T17:56:04Z</time>
      </trkpt>
      <trkpt lat="48.56172" lon="-0.42718">
        <ele>206</ele>
        <time>2022-05-21T17:56:15Z</time>
      </trkpt>
      <trkpt lat="48.5616" lon="-0.4269">
        <ele>206</ele>
        <time>2022-05-21T17:56:19Z</time>
      </trkpt>
      <trkpt lat="48.56131" lon="-0.42641">
        <ele>205</ele>
        <time>2022-05-21T17:56:27Z</time>
      </trkpt>
      <trkpt lat="48.56114" lon="-0.42625">
        <ele>205</ele>
        <time>2022-05-21T17:56:30Z</time>
      </trkpt>
      <trkpt lat="48.56109" lon="-0.4261">
        <ele>204</ele>
        <time>2022-05-21T17:56:32Z</time>
      </trkpt>
      <trkpt lat="48.56107" lon="-0.42591">
        <ele>203</ele>
        <time>2022-05-21T17:56:35Z</time>
      </trkpt>
      <trkpt lat="48.56097" lon="-0.4256">
        <ele>202</ele>
        <time>2022-05-21T17:56:39Z</time>
      </trkpt>
      <trkpt lat="48.5608" lon="-0.42532">
        <ele>202</ele>
        <time>2022-05-21T17:56:43Z</time>
      </trkpt>
      <trkpt lat="48.56037" lon="-0.42444">
        <ele>203</ele>
        <time>2022-05-21T17:56:56Z</time>
      </trkpt>
      <trkpt lat="48.55906" lon="-0.42147">
        <ele>196</ele>
        <time>2022-05-21T17:57:38Z</time>
      </trkpt>
      <trkpt lat="48.55839" lon="-0.42008">
        <ele>194</ele>
        <time>2022-05-21T17:57:58Z</time>
      </trkpt>
      <trkpt lat="48.55753" lon="-0.41815">
        <ele>186</ele>
        <time>2022-05-21T17:58:26Z</time>
      </trkpt>
      <trkpt lat="48.55732" lon="-0.41779">
        <ele>185</ele>
        <time>2022-05-21T17:58:31Z</time>
      </trkpt>
      <trkpt lat="48.55716" lon="-0.41764">
        <ele>184</ele>
        <time>2022-05-21T17:58:35Z</time>
      </trkpt>
      <trkpt lat="48.55697" lon="-0.41751">
        <ele>184</ele>
        <time>2022-05-21T17:58:38Z</time>
      </trkpt>
      <trkpt lat="48.55691" lon="-0.41737">
        <ele>184</ele>
        <time>2022-05-21T17:58:40Z</time>
      </trkpt>
      <trkpt lat="48.55693" lon="-0.41721">
        <ele>184</ele>
        <time>2022-05-21T17:58:42Z</time>
      </trkpt>
      <trkpt lat="48.55687" lon="-0.41673">
        <ele>186</ele>
        <time>2022-05-21T17:58:48Z</time>
      </trkpt>
      <trkpt lat="48.55689" lon="-0.41622">
        <ele>188</ele>
        <time>2022-05-21T17:58:54Z</time>
      </trkpt>
      <trkpt lat="48.55716" lon="-0.41532">
        <ele>189</ele>
        <time>2022-05-21T17:59:06Z</time>
      </trkpt>
      <trkpt lat="48.55724" lon="-0.41498">
        <ele>190</ele>
        <time>2022-05-21T17:59:10Z</time>
      </trkpt>
      <trkpt lat="48.55728" lon="-0.41467">
        <ele>190</ele>
        <time>2022-05-21T17:59:14Z</time>
      </trkpt>
      <trkpt lat="48.55725" lon="-0.41453">
        <ele>191</ele>
        <time>2022-05-21T17:59:15Z</time>
      </trkpt>
      <trkpt lat="48.55731" lon="-0.41422">
        <ele>192</ele>
        <time>2022-05-21T17:59:19Z</time>
      </trkpt>
      <trkpt lat="48.55731" lon="-0.41407">
        <ele>192</ele>
        <time>2022-05-21T17:59:21Z</time>
      </trkpt>
      <trkpt lat="48.55729" lon="-0.4139">
        <ele>192</ele>
        <time>2022-05-21T17:59:23Z</time>
      </trkpt>
      <trkpt lat="48.55717" lon="-0.41367">
        <ele>193</ele>
        <time>2022-05-21T17:59:27Z</time>
      </trkpt>
      <trkpt lat="48.55726" lon="-0.41366">
        <ele>192</ele>
        <time>2022-05-21T17:59:28Z</time>
      </trkpt>
      <trkpt lat="48.55736" lon="-0.41373">
        <ele>192</ele>
        <time>2022-05-21T17:59:30Z</time>
      </trkpt>
      <trkpt lat="48.55765" lon="-0.41381">
        <ele>192</ele>
        <time>2022-05-21T17:59:35Z</time>
      </trkpt>
      <trkpt lat="48.55798" lon="-0.41412">
        <ele>192</ele>
        <time>2022-05-21T17:59:42Z</time>
      </trkpt>
      <trkpt lat="48.55817" lon="-0.41423">
        <ele>192</ele>
        <time>2022-05-21T17:59:46Z</time>
      </trkpt>
      <trkpt lat="48.55835" lon="-0.41438">
        <ele>192</ele>
        <time>2022-05-21T17:59:50Z</time>
      </trkpt>
      <trkpt lat="48.55859" lon="-0.41468">
        <ele>192</ele>
        <time>2022-05-21T17:59:55Z</time>
      </trkpt>
      <trkpt lat="48.55864" lon="-0.41481">
        <ele>191</ele>
        <time>2022-05-21T17:59:57Z</time>
      </trkpt>
      <trkpt lat="48.55842" lon="-0.41442">
        <ele>192</ele>
        <time>2022-05-21T18:00:03Z</time>
      </trkpt>
      <trkpt lat="48.55807" lon="-0.41401">
        <ele>192</ele>
        <time>2022-05-21T18:00:11Z</time>
      </trkpt>
      <trkpt lat="48.55762" lon="-0.41368">
        <ele>192</ele>
        <time>2022-05-21T18:00:20Z</time>
      </trkpt>
      <trkpt lat="48.55751" lon="-0.41363">
        <ele>192</ele>
        <time>2022-05-21T18:00:22Z</time>
      </trkpt>
      <trkpt lat="48.55731" lon="-0.41358">
        <ele>192</ele>
        <time>2022-05-21T18:00:25Z</time>
      </trkpt>
      <trkpt lat="48.55723" lon="-0.41366">
        <ele>192</ele>
        <time>2022-05-21T18:00:27Z</time>
      </trkpt>
      <trkpt lat="48.55712" lon="-0.41361">
        <ele>193</ele>
        <time>2022-05-21T18:00:29Z</time>
      </trkpt>
      <trkpt lat="48.55714" lon="-0.41348">
        <ele>193</ele>
        <time>2022-05-21T18:00:31Z</time>
      </trkpt>
      <trkpt lat="48.55709" lon="-0.41276">
        <ele>193</ele>
        <time>2022-05-21T18:00:39Z</time>
      </trkpt>
      <trkpt lat="48.55695" lon="-0.41218">
        <ele>194</ele>
        <time>2022-05-21T18:00:46Z</time>
      </trkpt>
      <trkpt lat="48.55694" lon="-0.41186">
        <ele>195</ele>
        <time>2022-05-21T18:00:50Z</time>
      </trkpt>
      <trkpt lat="48.55684" lon="-0.41125">
        <ele>195</ele>
        <time>2022-05-21T18:00:58Z</time>
      </trkpt>
      <trkpt lat="48.55677" lon="-0.4106">
        <ele>196</ele>
        <time>2022-05-21T18:01:05Z</time>
      </trkpt>
      <trkpt lat="48.55687" lon="-0.41063">
        <ele>196</ele>
        <time>2022-05-21T18:01:07Z</time>
      </trkpt>
      <trkpt lat="48.55719" lon="-0.41104">
        <ele>198</ele>
        <time>2022-05-21T18:01:15Z</time>
      </trkpt>
      <trkpt lat="48.5573" lon="-0.41126">
        <ele>199</ele>
        <time>2022-05-21T18:01:18Z</time>
      </trkpt>
      <trkpt lat="48.55728" lon="-0.4114">
        <ele>198</ele>
        <time>2022-05-21T18:01:20Z</time>
      </trkpt>
      <trkpt lat="48.5574" lon="-0.41164">
        <ele>198</ele>
        <time>2022-05-21T18:01:23Z</time>
      </trkpt>
      <trkpt lat="48.55727" lon="-0.41157">
        <ele>198</ele>
        <time>2022-05-21T18:01:26Z</time>
      </trkpt>
      <trkpt lat="48.55724" lon="-0.41141">
        <ele>198</ele>
        <time>2022-05-21T18:01:28Z</time>
      </trkpt>
      <trkpt lat="48.55725" lon="-0.41111">
        <ele>198</ele>
        <time>2022-05-21T18:01:31Z</time>
      </trkpt>
      <trkpt lat="48.55723" lon="-0.41096">
        <ele>199</ele>
        <time>2022-05-21T18:01:33Z</time>
      </trkpt>
      <trkpt lat="48.55696" lon="-0.41072">
        <ele>197</ele>
        <time>2022-05-21T18:01:38Z</time>
      </trkpt>
      <trkpt lat="48.55691" lon="-0.41042">
        <ele>197</ele>
        <time>2022-05-21T18:01:42Z</time>
      </trkpt>
      <trkpt lat="48.55684" lon="-0.41031">
        <ele>197</ele>
        <time>2022-05-21T18:01:44Z</time>
      </trkpt>
      <trkpt lat="48.55673" lon="-0.40984">
        <ele>198</ele>
        <time>2022-05-21T18:01:50Z</time>
      </trkpt>
      <trkpt lat="48.55658" lon="-0.40891">
        <ele>203</ele>
        <time>2022-05-21T18:02:01Z</time>
      </trkpt>
      <trkpt lat="48.55658" lon="-0.40849">
        <ele>204</ele>
        <time>2022-05-21T18:02:06Z</time>
      </trkpt>
      <trkpt lat="48.55654" lon="-0.40816">
        <ele>205</ele>
        <time>2022-05-21T18:02:10Z</time>
      </trkpt>
      <trkpt lat="48.55654" lon="-0.40726">
        <ele>207</ele>
        <time>2022-05-21T18:02:20Z</time>
      </trkpt>
      <trkpt lat="48.55678" lon="-0.4059">
        <ele>210</ele>
        <time>2022-05-21T18:02:37Z</time>
      </trkpt>
      <trkpt lat="48.55688" lon="-0.40547">
        <ele>210</ele>
        <time>2022-05-21T18:02:42Z</time>
      </trkpt>
      <trkpt lat="48.55716" lon="-0.40451">
        <ele>209</ele>
        <time>2022-05-21T18:02:55Z</time>
      </trkpt>
      <trkpt lat="48.55852" lon="-0.40045">
        <ele>212</ele>
        <time>2022-05-21T18:03:48Z</time>
      </trkpt>
      <trkpt lat="48.55858" lon="-0.40035">
        <ele>211</ele>
        <time>2022-05-21T18:03:50Z</time>
      </trkpt>
      <trkpt lat="48.55868" lon="-0.40034">
        <ele>212</ele>
        <time>2022-05-21T18:03:52Z</time>
      </trkpt>
      <trkpt lat="48.55881" lon="-0.40027">
        <ele>211</ele>
        <time>2022-05-21T18:03:54Z</time>
      </trkpt>
      <trkpt lat="48.55892" lon="-0.40017">
        <ele>211</ele>
        <time>2022-05-21T18:03:56Z</time>
      </trkpt>
      <trkpt lat="48.55926" lon="-0.3994">
        <ele>206</ele>
        <time>2022-05-21T18:04:07Z</time>
      </trkpt>
      <trkpt lat="48.55951" lon="-0.39873">
        <ele>205</ele>
        <time>2022-05-21T18:04:16Z</time>
      </trkpt>
      <trkpt lat="48.55966" lon="-0.39845">
        <ele>205</ele>
        <time>2022-05-21T18:04:21Z</time>
      </trkpt>
      <trkpt lat="48.55974" lon="-0.39836">
        <ele>205</ele>
        <time>2022-05-21T18:04:22Z</time>
      </trkpt>
      <trkpt lat="48.56009" lon="-0.39822">
        <ele>206</ele>
        <time>2022-05-21T18:04:29Z</time>
      </trkpt>
      <trkpt lat="48.56066" lon="-0.39792">
        <ele>204</ele>
        <time>2022-05-21T18:04:40Z</time>
      </trkpt>
      <trkpt lat="48.561" lon="-0.39762">
        <ele>203</ele>
        <time>2022-05-21T18:04:47Z</time>
      </trkpt>
      <trkpt lat="48.5611" lon="-0.39747">
        <ele>203</ele>
        <time>2022-05-21T18:04:49Z</time>
      </trkpt>
      <trkpt lat="48.56146" lon="-0.39626">
        <ele>199</ele>
        <time>2022-05-21T18:05:05Z</time>
      </trkpt>
      <trkpt lat="48.56148" lon="-0.39592">
        <ele>199</ele>
        <time>2022-05-21T18:05:09Z</time>
      </trkpt>
      <trkpt lat="48.56142" lon="-0.39582">
        <ele>199</ele>
        <time>2022-05-21T18:05:10Z</time>
      </trkpt>
      <trkpt lat="48.56139" lon="-0.3953">
        <ele>202</ele>
        <time>2022-05-21T18:05:17Z</time>
      </trkpt>
      <trkpt lat="48.5613" lon="-0.39518">
        <ele>204</ele>
        <time>2022-05-21T18:05:19Z</time>
      </trkpt>
      <trkpt lat="48.56106" lon="-0.39465">
        <ele>207</ele>
        <time>2022-05-21T18:05:26Z</time>
      </trkpt>
      <trkpt lat="48.56081" lon="-0.39418">
        <ele>209</ele>
        <time>2022-05-21T18:05:33Z</time>
      </trkpt>
      <trkpt lat="48.56059" lon="-0.39383">
        <ele>210</ele>
        <time>2022-05-21T18:05:39Z</time>
      </trkpt>
      <trkpt lat="48.56054" lon="-0.39368">
        <ele>211</ele>
        <time>2022-05-21T18:05:41Z</time>
      </trkpt>
      <trkpt lat="48.56003" lon="-0.39274">
        <ele>213</ele>
        <time>2022-05-21T18:05:55Z</time>
      </trkpt>
      <trkpt lat="48.55986" lon="-0.39237">
        <ele>213</ele>
        <time>2022-05-21T18:06:01Z</time>
      </trkpt>
      <trkpt lat="48.55966" lon="-0.39204">
        <ele>214</ele>
        <time>2022-05-21T18:06:06Z</time>
      </trkpt>
      <trkpt lat="48.55962" lon="-0.39192">
        <ele>214</ele>
        <time>2022-05-21T18:06:07Z</time>
      </trkpt>
      <trkpt lat="48.55953" lon="-0.3918">
        <ele>215</ele>
        <time>2022-05-21T18:06:10Z</time>
      </trkpt>
      <trkpt lat="48.5589" lon="-0.3907">
        <ele>220</ele>
        <time>2022-05-21T18:06:27Z</time>
      </trkpt>
      <trkpt lat="48.55872" lon="-0.39031">
        <ele>221</ele>
        <time>2022-05-21T18:06:32Z</time>
      </trkpt>
      <trkpt lat="48.55864" lon="-0.39021">
        <ele>221</ele>
        <time>2022-05-21T18:06:34Z</time>
      </trkpt>
      <trkpt lat="48.55833" lon="-0.38961">
        <ele>221</ele>
        <time>2022-05-21T18:06:43Z</time>
      </trkpt>
      <trkpt lat="48.5582" lon="-0.3893">
        <ele>220</ele>
        <time>2022-05-21T18:06:47Z</time>
      </trkpt>
      <trkpt lat="48.55811" lon="-0.38918">
        <ele>220</ele>
        <time>2022-05-21T18:06:50Z</time>
      </trkpt>
      <trkpt lat="48.55807" lon="-0.38906">
        <ele>220</ele>
        <time>2022-05-21T18:06:51Z</time>
      </trkpt>
      <trkpt lat="48.5579" lon="-0.38882">
        <ele>219</ele>
        <time>2022-05-21T18:06:55Z</time>
      </trkpt>
      <trkpt lat="48.55738" lon="-0.3879">
        <ele>221</ele>
        <time>2022-05-21T18:07:10Z</time>
      </trkpt>
      <trkpt lat="48.55707" lon="-0.38724">
        <ele>221</ele>
        <time>2022-05-21T18:07:19Z</time>
      </trkpt>
      <trkpt lat="48.55677" lon="-0.3867">
        <ele>222</ele>
        <time>2022-05-21T18:07:27Z</time>
      </trkpt>
      <trkpt lat="48.55664" lon="-0.38651">
        <ele>222</ele>
        <time>2022-05-21T18:07:31Z</time>
      </trkpt>
      <trkpt lat="48.55652" lon="-0.38622">
        <ele>221</ele>
        <time>2022-05-21T18:07:35Z</time>
      </trkpt>
      <trkpt lat="48.55625" lon="-0.38587">
        <ele>222</ele>
        <time>2022-05-21T18:07:41Z</time>
      </trkpt>
      <trkpt lat="48.55606" lon="-0.38557">
        <ele>223</ele>
        <time>2022-05-21T18:07:46Z</time>
      </trkpt>
      <trkpt lat="48.55543" lon="-0.38438">
        <ele>221</ele>
        <time>2022-05-21T18:08:04Z</time>
      </trkpt>
      <trkpt lat="48.55512" lon="-0.38382">
        <ele>219</ele>
        <time>2022-05-21T18:08:12Z</time>
      </trkpt>
      <trkpt lat="48.55503" lon="-0.38372">
        <ele>219</ele>
        <time>2022-05-21T18:08:14Z</time>
      </trkpt>
      <trkpt lat="48.55467" lon="-0.383">
        <ele>218</ele>
        <time>2022-05-21T18:08:25Z</time>
      </trkpt>
      <trkpt lat="48.55432" lon="-0.3824">
        <ele>217</ele>
        <time>2022-05-21T18:08:34Z</time>
      </trkpt>
      <trkpt lat="48.55381" lon="-0.38137">
        <ele>216</ele>
        <time>2022-05-21T18:08:50Z</time>
      </trkpt>
      <trkpt lat="48.55363" lon="-0.3811">
        <ele>215</ele>
        <time>2022-05-21T18:08:54Z</time>
      </trkpt>
      <trkpt lat="48.55333" lon="-0.38049">
        <ele>216</ele>
        <time>2022-05-21T18:09:03Z</time>
      </trkpt>
      <trkpt lat="48.55298" lon="-0.3799">
        <ele>217</ele>
        <time>2022-05-21T18:09:12Z</time>
      </trkpt>
      <trkpt lat="48.55248" lon="-0.37898">
        <ele>216</ele>
        <time>2022-05-21T18:09:26Z</time>
      </trkpt>
      <trkpt lat="48.55227" lon="-0.37865">
        <ele>216</ele>
        <time>2022-05-21T18:09:32Z</time>
      </trkpt>
      <trkpt lat="48.55214" lon="-0.37835">
        <ele>216</ele>
        <time>2022-05-21T18:09:36Z</time>
      </trkpt>
      <trkpt lat="48.55196" lon="-0.37808">
        <ele>215</ele>
        <time>2022-05-21T18:09:41Z</time>
      </trkpt>
      <trkpt lat="48.55175" lon="-0.37763">
        <ele>216</ele>
        <time>2022-05-21T18:09:47Z</time>
      </trkpt>
      <trkpt lat="48.55136" lon="-0.3769">
        <ele>214</ele>
        <time>2022-05-21T18:09:58Z</time>
      </trkpt>
      <trkpt lat="48.55127" lon="-0.37677">
        <ele>214</ele>
        <time>2022-05-21T18:10:00Z</time>
      </trkpt>
      <trkpt lat="48.55111" lon="-0.37644">
        <ele>212</ele>
        <time>2022-05-21T18:10:05Z</time>
      </trkpt>
      <trkpt lat="48.55082" lon="-0.37595">
        <ele>209</ele>
        <time>2022-05-21T18:10:13Z</time>
      </trkpt>
      <trkpt lat="48.55071" lon="-0.37583">
        <ele>208</ele>
        <time>2022-05-21T18:10:15Z</time>
      </trkpt>
      <trkpt lat="48.55053" lon="-0.37552">
        <ele>206</ele>
        <time>2022-05-21T18:10:20Z</time>
      </trkpt>
      <trkpt lat="48.55012" lon="-0.37467">
        <ele>204</ele>
        <time>2022-05-21T18:10:33Z</time>
      </trkpt>
      <trkpt lat="48.54985" lon="-0.37391">
        <ele>204</ele>
        <time>2022-05-21T18:10:43Z</time>
      </trkpt>
      <trkpt lat="48.54969" lon="-0.37342">
        <ele>205</ele>
        <time>2022-05-21T18:10:49Z</time>
      </trkpt>
      <trkpt lat="48.54944" lon="-0.37222">
        <ele>206</ele>
        <time>2022-05-21T18:11:04Z</time>
      </trkpt>
      <trkpt lat="48.54937" lon="-0.37208">
        <ele>206</ele>
        <time>2022-05-21T18:11:06Z</time>
      </trkpt>
      <trkpt lat="48.54933" lon="-0.37192">
        <ele>207</ele>
        <time>2022-05-21T18:11:08Z</time>
      </trkpt>
      <trkpt lat="48.54921" lon="-0.37126">
        <ele>208</ele>
        <time>2022-05-21T18:11:16Z</time>
      </trkpt>
      <trkpt lat="48.54875" lon="-0.36953">
        <ele>210</ele>
        <time>2022-05-21T18:11:38Z</time>
      </trkpt>
      <trkpt lat="48.54867" lon="-0.36906">
        <ele>211</ele>
        <time>2022-05-21T18:11:44Z</time>
      </trkpt>
      <trkpt lat="48.54858" lon="-0.36874">
        <ele>211</ele>
        <time>2022-05-21T18:11:48Z</time>
      </trkpt>
      <trkpt lat="48.54848" lon="-0.36794">
        <ele>211</ele>
        <time>2022-05-21T18:11:57Z</time>
      </trkpt>
      <trkpt lat="48.54836" lon="-0.3675">
        <ele>211</ele>
        <time>2022-05-21T18:12:03Z</time>
      </trkpt>
      <trkpt lat="48.54833" lon="-0.36714">
        <ele>211</ele>
        <time>2022-05-21T18:12:07Z</time>
      </trkpt>
      <trkpt lat="48.54803" lon="-0.36639">
        <ele>210</ele>
        <time>2022-05-21T18:12:18Z</time>
      </trkpt>
      <trkpt lat="48.5479" lon="-0.36596">
        <ele>210</ele>
        <time>2022-05-21T18:12:23Z</time>
      </trkpt>
      <trkpt lat="48.54734" lon="-0.36361">
        <ele>201</ele>
        <time>2022-05-21T18:12:53Z</time>
      </trkpt>
      <trkpt lat="48.5472" lon="-0.36312">
        <ele>200</ele>
        <time>2022-05-21T18:12:59Z</time>
      </trkpt>
      <trkpt lat="48.54696" lon="-0.36205">
        <ele>196</ele>
        <time>2022-05-21T18:13:12Z</time>
      </trkpt>
      <trkpt lat="48.54672" lon="-0.36118">
        <ele>191</ele>
        <time>2022-05-21T18:13:23Z</time>
      </trkpt>
      <trkpt lat="48.54655" lon="-0.36037">
        <ele>188</ele>
        <time>2022-05-21T18:13:33Z</time>
      </trkpt>
      <trkpt lat="48.5463" lon="-0.3594">
        <ele>186</ele>
        <time>2022-05-21T18:13:46Z</time>
      </trkpt>
      <trkpt lat="48.54592" lon="-0.35774">
        <ele>181</ele>
        <time>2022-05-21T18:14:06Z</time>
      </trkpt>
      <trkpt lat="48.54549" lon="-0.3561">
        <ele>183</ele>
        <time>2022-05-21T18:14:27Z</time>
      </trkpt>
      <trkpt lat="48.5454" lon="-0.35603">
        <ele>184</ele>
        <time>2022-05-21T18:14:29Z</time>
      </trkpt>
      <trkpt lat="48.54544" lon="-0.35556">
        <ele>186</ele>
        <time>2022-05-21T18:14:34Z</time>
      </trkpt>
      <trkpt lat="48.54539" lon="-0.35529">
        <ele>188</ele>
        <time>2022-05-21T18:14:38Z</time>
      </trkpt>
      <trkpt lat="48.54533" lon="-0.35516">
        <ele>188</ele>
        <time>2022-05-21T18:14:40Z</time>
      </trkpt>
      <trkpt lat="48.54524" lon="-0.35474">
        <ele>191</ele>
        <time>2022-05-21T18:14:45Z</time>
      </trkpt>
      <trkpt lat="48.54493" lon="-0.35369">
        <ele>198</ele>
        <time>2022-05-21T18:14:58Z</time>
      </trkpt>
      <trkpt lat="48.54463" lon="-0.35244">
        <ele>199</ele>
        <time>2022-05-21T18:15:14Z</time>
      </trkpt>
      <trkpt lat="48.54457" lon="-0.3523">
        <ele>199</ele>
        <time>2022-05-21T18:15:16Z</time>
      </trkpt>
      <trkpt lat="48.54451" lon="-0.35185">
        <ele>200</ele>
        <time>2022-05-21T18:15:21Z</time>
      </trkpt>
      <trkpt lat="48.54433" lon="-0.35111">
        <ele>203</ele>
        <time>2022-05-21T18:15:31Z</time>
      </trkpt>
      <trkpt lat="48.54428" lon="-0.35081">
        <ele>203</ele>
        <time>2022-05-21T18:15:34Z</time>
      </trkpt>
      <trkpt lat="48.54389" lon="-0.3494">
        <ele>206</ele>
        <time>2022-05-21T18:15:52Z</time>
      </trkpt>
      <trkpt lat="48.54378" lon="-0.34884">
        <ele>208</ele>
        <time>2022-05-21T18:15:59Z</time>
      </trkpt>
      <trkpt lat="48.54364" lon="-0.34842">
        <ele>210</ele>
        <time>2022-05-21T18:16:05Z</time>
      </trkpt>
      <trkpt lat="48.54334" lon="-0.3471">
        <ele>213</ele>
        <time>2022-05-21T18:16:21Z</time>
      </trkpt>
      <trkpt lat="48.54318" lon="-0.34656">
        <ele>215</ele>
        <time>2022-05-21T18:16:28Z</time>
      </trkpt>
      <trkpt lat="48.54318" lon="-0.3464">
        <ele>216</ele>
        <time>2022-05-21T18:16:30Z</time>
      </trkpt>
      <trkpt lat="48.54315" lon="-0.34625">
        <ele>216</ele>
        <time>2022-05-21T18:16:32Z</time>
      </trkpt>
      <trkpt lat="48.54308" lon="-0.34615">
        <ele>217</ele>
        <time>2022-05-21T18:16:34Z</time>
      </trkpt>
      <trkpt lat="48.54286" lon="-0.34504">
        <ele>220</ele>
        <time>2022-05-21T18:16:47Z</time>
      </trkpt>
      <trkpt lat="48.54276" lon="-0.34476">
        <ele>221</ele>
        <time>2022-05-21T18:16:51Z</time>
      </trkpt>
      <trkpt lat="48.54263" lon="-0.3441">
        <ele>222</ele>
        <time>2022-05-21T18:16:59Z</time>
      </trkpt>
      <trkpt lat="48.54253" lon="-0.34382">
        <ele>223</ele>
        <time>2022-05-21T18:17:03Z</time>
      </trkpt>
      <trkpt lat="48.54243" lon="-0.34338">
        <ele>224</ele>
        <time>2022-05-21T18:17:08Z</time>
      </trkpt>
      <trkpt lat="48.54227" lon="-0.34246">
        <ele>224</ele>
        <time>2022-05-21T18:17:20Z</time>
      </trkpt>
      <trkpt lat="48.54209" lon="-0.3418">
        <ele>224</ele>
        <time>2022-05-21T18:17:28Z</time>
      </trkpt>
      <trkpt lat="48.54204" lon="-0.34152">
        <ele>224</ele>
        <time>2022-05-21T18:17:31Z</time>
      </trkpt>
      <trkpt lat="48.54197" lon="-0.34134">
        <ele>224</ele>
        <time>2022-05-21T18:17:34Z</time>
      </trkpt>
      <trkpt lat="48.54186" lon="-0.34087">
        <ele>223</ele>
        <time>2022-05-21T18:17:40Z</time>
      </trkpt>
      <trkpt lat="48.54177" lon="-0.3406">
        <ele>222</ele>
        <time>2022-05-21T18:17:43Z</time>
      </trkpt>
      <trkpt lat="48.54145" lon="-0.33922">
        <ele>223</ele>
        <time>2022-05-21T18:18:00Z</time>
      </trkpt>
      <trkpt lat="48.54133" lon="-0.33879">
        <ele>225</ele>
        <time>2022-05-21T18:18:06Z</time>
      </trkpt>
      <trkpt lat="48.54121" lon="-0.33819">
        <ele>226</ele>
        <time>2022-05-21T18:18:13Z</time>
      </trkpt>
      <trkpt lat="48.54097" lon="-0.33734">
        <ele>226</ele>
        <time>2022-05-21T18:18:24Z</time>
      </trkpt>
      <trkpt lat="48.54088" lon="-0.33676">
        <ele>224</ele>
        <time>2022-05-21T18:18:31Z</time>
      </trkpt>
      <trkpt lat="48.54067" lon="-0.33605">
        <ele>224</ele>
        <time>2022-05-21T18:18:40Z</time>
      </trkpt>
      <trkpt lat="48.54056" lon="-0.3354">
        <ele>223</ele>
        <time>2022-05-21T18:18:48Z</time>
      </trkpt>
      <trkpt lat="48.54034" lon="-0.33462">
        <ele>222</ele>
        <time>2022-05-21T18:18:58Z</time>
      </trkpt>
      <trkpt lat="48.54028" lon="-0.33449">
        <ele>222</ele>
        <time>2022-05-21T18:19:00Z</time>
      </trkpt>
      <trkpt lat="48.54022" lon="-0.33414">
        <ele>222</ele>
        <time>2022-05-21T18:19:04Z</time>
      </trkpt>
      <trkpt lat="48.54017" lon="-0.33401">
        <ele>222</ele>
        <time>2022-05-21T18:19:06Z</time>
      </trkpt>
      <trkpt lat="48.54006" lon="-0.33328">
        <ele>224</ele>
        <time>2022-05-21T18:19:15Z</time>
      </trkpt>
      <trkpt lat="48.5399" lon="-0.33278">
        <ele>223</ele>
        <time>2022-05-21T18:19:22Z</time>
      </trkpt>
      <trkpt lat="48.53985" lon="-0.33247">
        <ele>223</ele>
        <time>2022-05-21T18:19:25Z</time>
      </trkpt>
      <trkpt lat="48.53969" lon="-0.33189">
        <ele>222</ele>
        <time>2022-05-21T18:19:33Z</time>
      </trkpt>
      <trkpt lat="48.53933" lon="-0.33038">
        <ele>215</ele>
        <time>2022-05-21T18:19:52Z</time>
      </trkpt>
      <trkpt lat="48.539" lon="-0.32924">
        <ele>212</ele>
        <time>2022-05-21T18:20:06Z</time>
      </trkpt>
      <trkpt lat="48.53887" lon="-0.32851">
        <ele>211</ele>
        <time>2022-05-21T18:20:15Z</time>
      </trkpt>
      <trkpt lat="48.53872" lon="-0.32799">
        <ele>211</ele>
        <time>2022-05-21T18:20:22Z</time>
      </trkpt>
      <trkpt lat="48.53864" lon="-0.32784">
        <ele>211</ele>
        <time>2022-05-21T18:20:24Z</time>
      </trkpt>
      <trkpt lat="48.53848" lon="-0.32722">
        <ele>209</ele>
        <time>2022-05-21T18:20:32Z</time>
      </trkpt>
      <trkpt lat="48.53846" lon="-0.32706">
        <ele>208</ele>
        <time>2022-05-21T18:20:34Z</time>
      </trkpt>
      <trkpt lat="48.53812" lon="-0.3256">
        <ele>208</ele>
        <time>2022-05-21T18:20:52Z</time>
      </trkpt>
      <trkpt lat="48.53794" lon="-0.32498">
        <ele>208</ele>
        <time>2022-05-21T18:21:00Z</time>
      </trkpt>
      <trkpt lat="48.53781" lon="-0.32437">
        <ele>205</ele>
        <time>2022-05-21T18:21:08Z</time>
      </trkpt>
      <trkpt lat="48.5378" lon="-0.32423">
        <ele>205</ele>
        <time>2022-05-21T18:21:09Z</time>
      </trkpt>
      <trkpt lat="48.53774" lon="-0.32411">
        <ele>204</ele>
        <time>2022-05-21T18:21:11Z</time>
      </trkpt>
      <trkpt lat="48.53768" lon="-0.32379">
        <ele>203</ele>
        <time>2022-05-21T18:21:15Z</time>
      </trkpt>
      <trkpt lat="48.5375" lon="-0.32316">
        <ele>200</ele>
        <time>2022-05-21T18:21:23Z</time>
      </trkpt>
      <trkpt lat="48.53748" lon="-0.32299">
        <ele>200</ele>
        <time>2022-05-21T18:21:25Z</time>
      </trkpt>
      <trkpt lat="48.53742" lon="-0.32283">
        <ele>199</ele>
        <time>2022-05-21T18:21:27Z</time>
      </trkpt>
      <trkpt lat="48.53681" lon="-0.3203">
        <ele>195</ele>
        <time>2022-05-21T18:21:59Z</time>
      </trkpt>
      <trkpt lat="48.5366" lon="-0.31965">
        <ele>192</ele>
        <time>2022-05-21T18:22:08Z</time>
      </trkpt>
      <trkpt lat="48.5365" lon="-0.31925">
        <ele>190</ele>
        <time>2022-05-21T18:22:13Z</time>
      </trkpt>
      <trkpt lat="48.53648" lon="-0.31903">
        <ele>190</ele>
        <time>2022-05-21T18:22:15Z</time>
      </trkpt>
      <trkpt lat="48.5365" lon="-0.31882">
        <ele>189</ele>
        <time>2022-05-21T18:22:18Z</time>
      </trkpt>
      <trkpt lat="48.53689" lon="-0.3171">
        <ele>184</ele>
        <time>2022-05-21T18:22:39Z</time>
      </trkpt>
      <trkpt lat="48.53694" lon="-0.31672">
        <ele>183</ele>
        <time>2022-05-21T18:22:44Z</time>
      </trkpt>
      <trkpt lat="48.537" lon="-0.31655">
        <ele>183</ele>
        <time>2022-05-21T18:22:46Z</time>
      </trkpt>
      <trkpt lat="48.53712" lon="-0.31631">
        <ele>182</ele>
        <time>2022-05-21T18:22:49Z</time>
      </trkpt>
      <trkpt lat="48.53753" lon="-0.31576">
        <ele>181</ele>
        <time>2022-05-21T18:22:59Z</time>
      </trkpt>
      <trkpt lat="48.53787" lon="-0.31524">
        <ele>181</ele>
        <time>2022-05-21T18:23:08Z</time>
      </trkpt>
      <trkpt lat="48.53832" lon="-0.31448">
        <ele>181</ele>
        <time>2022-05-21T18:23:20Z</time>
      </trkpt>
      <trkpt lat="48.53874" lon="-0.31387">
        <ele>183</ele>
        <time>2022-05-21T18:23:30Z</time>
      </trkpt>
      <trkpt lat="48.5389" lon="-0.31345">
        <ele>184</ele>
        <time>2022-05-21T18:23:36Z</time>
      </trkpt>
      <trkpt lat="48.53896" lon="-0.31315">
        <ele>184</ele>
        <time>2022-05-21T18:23:40Z</time>
      </trkpt>
      <trkpt lat="48.53917" lon="-0.31241">
        <ele>184</ele>
        <time>2022-05-21T18:23:49Z</time>
      </trkpt>
      <trkpt lat="48.53924" lon="-0.31183">
        <ele>185</ele>
        <time>2022-05-21T18:23:56Z</time>
      </trkpt>
      <trkpt lat="48.53951" lon="-0.31098">
        <ele>188</ele>
        <time>2022-05-21T18:24:07Z</time>
      </trkpt>
      <trkpt lat="48.53959" lon="-0.31066">
        <ele>189</ele>
        <time>2022-05-21T18:24:11Z</time>
      </trkpt>
      <trkpt lat="48.53961" lon="-0.31052">
        <ele>189</ele>
        <time>2022-05-21T18:24:13Z</time>
      </trkpt>
      <trkpt lat="48.53959" lon="-0.31004">
        <ele>189</ele>
        <time>2022-05-21T18:24:19Z</time>
      </trkpt>
      <trkpt lat="48.53962" lon="-0.3095">
        <ele>188</ele>
        <time>2022-05-21T18:24:25Z</time>
      </trkpt>
      <trkpt lat="48.5397" lon="-0.30907">
        <ele>188</ele>
        <time>2022-05-21T18:24:30Z</time>
      </trkpt>
      <trkpt lat="48.53975" lon="-0.30892">
        <ele>188</ele>
        <time>2022-05-21T18:24:32Z</time>
      </trkpt>
      <trkpt lat="48.53981" lon="-0.30877">
        <ele>188</ele>
        <time>2022-05-21T18:24:34Z</time>
      </trkpt>
      <trkpt lat="48.53998" lon="-0.30853">
        <ele>187</ele>
        <time>2022-05-21T18:24:38Z</time>
      </trkpt>
      <trkpt lat="48.54044" lon="-0.30806">
        <ele>189</ele>
        <time>2022-05-21T18:24:48Z</time>
      </trkpt>
      <trkpt lat="48.54101" lon="-0.30741">
        <ele>189</ele>
        <time>2022-05-21T18:25:01Z</time>
      </trkpt>
      <trkpt lat="48.54107" lon="-0.30728">
        <ele>189</ele>
        <time>2022-05-21T18:25:03Z</time>
      </trkpt>
      <trkpt lat="48.5411" lon="-0.30711">
        <ele>188</ele>
        <time>2022-05-21T18:25:05Z</time>
      </trkpt>
      <trkpt lat="48.54111" lon="-0.30641">
        <ele>186</ele>
        <time>2022-05-21T18:25:13Z</time>
      </trkpt>
      <trkpt lat="48.54113" lon="-0.30621">
        <ele>186</ele>
        <time>2022-05-21T18:25:16Z</time>
      </trkpt>
      <trkpt lat="48.54122" lon="-0.30588">
        <ele>186</ele>
        <time>2022-05-21T18:25:20Z</time>
      </trkpt>
      <trkpt lat="48.54142" lon="-0.30546">
        <ele>185</ele>
        <time>2022-05-21T18:25:26Z</time>
      </trkpt>
      <trkpt lat="48.54203" lon="-0.30467">
        <ele>184</ele>
        <time>2022-05-21T18:25:40Z</time>
      </trkpt>
      <trkpt lat="48.54213" lon="-0.30442">
        <ele>184</ele>
        <time>2022-05-21T18:25:44Z</time>
      </trkpt>
      <trkpt lat="48.54213" lon="-0.30408">
        <ele>184</ele>
        <time>2022-05-21T18:25:48Z</time>
      </trkpt>
      <trkpt lat="48.54198" lon="-0.30318">
        <ele>186</ele>
        <time>2022-05-21T18:25:59Z</time>
      </trkpt>
      <trkpt lat="48.54192" lon="-0.30254">
        <ele>189</ele>
        <time>2022-05-21T18:26:06Z</time>
      </trkpt>
      <trkpt lat="48.54193" lon="-0.30207">
        <ele>190</ele>
        <time>2022-05-21T18:26:12Z</time>
      </trkpt>
      <trkpt lat="48.54189" lon="-0.30193">
        <ele>190</ele>
        <time>2022-05-21T18:26:13Z</time>
      </trkpt>
      <trkpt lat="48.54173" lon="-0.30174">
        <ele>191</ele>
        <time>2022-05-21T18:26:17Z</time>
      </trkpt>
      <trkpt lat="48.54152" lon="-0.30135">
        <ele>190</ele>
        <time>2022-05-21T18:26:23Z</time>
      </trkpt>
      <trkpt lat="48.54132" lon="-0.30114">
        <ele>189</ele>
        <time>2022-05-21T18:26:27Z</time>
      </trkpt>
      <trkpt lat="48.5412" lon="-0.30104">
        <ele>188</ele>
        <time>2022-05-21T18:26:30Z</time>
      </trkpt>
      <trkpt lat="48.54102" lon="-0.30106">
        <ele>187</ele>
        <time>2022-05-21T18:26:33Z</time>
      </trkpt>
      <trkpt lat="48.54032" lon="-0.30039">
        <ele>188</ele>
        <time>2022-05-21T18:26:48Z</time>
      </trkpt>
      <trkpt lat="48.54023" lon="-0.30022">
        <ele>189</ele>
        <time>2022-05-21T18:26:50Z</time>
      </trkpt>
      <trkpt lat="48.54019" lon="-0.29992">
        <ele>189</ele>
        <time>2022-05-21T18:26:54Z</time>
      </trkpt>
      <trkpt lat="48.5403" lon="-0.29978">
        <ele>189</ele>
        <time>2022-05-21T18:26:56Z</time>
      </trkpt>
      <trkpt lat="48.54029" lon="-0.29942">
        <ele>190</ele>
        <time>2022-05-21T18:27:01Z</time>
      </trkpt>
      <trkpt lat="48.54024" lon="-0.2991">
        <ele>190</ele>
        <time>2022-05-21T18:27:05Z</time>
      </trkpt>
      <trkpt lat="48.54017" lon="-0.29896">
        <ele>191</ele>
        <time>2022-05-21T18:27:07Z</time>
      </trkpt>
      <trkpt lat="48.54014" lon="-0.2988">
        <ele>192</ele>
        <time>2022-05-21T18:27:09Z</time>
      </trkpt>
      <trkpt lat="48.54003" lon="-0.29852">
        <ele>193</ele>
        <time>2022-05-21T18:27:12Z</time>
      </trkpt>
      <trkpt lat="48.53977" lon="-0.29805">
        <ele>195</ele>
        <time>2022-05-21T18:27:20Z</time>
      </trkpt>
      <trkpt lat="48.53926" lon="-0.29727">
        <ele>196</ele>
        <time>2022-05-21T18:27:33Z</time>
      </trkpt>
      <trkpt lat="48.53901" lon="-0.29675">
        <ele>197</ele>
        <time>2022-05-21T18:27:40Z</time>
      </trkpt>
      <trkpt lat="48.53892" lon="-0.29645">
        <ele>197</ele>
        <time>2022-05-21T18:27:44Z</time>
      </trkpt>
      <trkpt lat="48.5388" lon="-0.29567">
        <ele>197</ele>
        <time>2022-05-21T18:27:53Z</time>
      </trkpt>
      <trkpt lat="48.53872" lon="-0.29537">
        <ele>198</ele>
        <time>2022-05-21T18:27:57Z</time>
      </trkpt>
      <trkpt lat="48.53871" lon="-0.29521">
        <ele>198</ele>
        <time>2022-05-21T18:27:59Z</time>
      </trkpt>
      <trkpt lat="48.53864" lon="-0.2949">
        <ele>198</ele>
        <time>2022-05-21T18:28:03Z</time>
      </trkpt>
      <trkpt lat="48.53842" lon="-0.29332">
        <ele>198</ele>
        <time>2022-05-21T18:28:22Z</time>
      </trkpt>
      <trkpt lat="48.53837" lon="-0.29269">
        <ele>200</ele>
        <time>2022-05-21T18:28:30Z</time>
      </trkpt>
      <trkpt lat="48.53849" lon="-0.29183">
        <ele>201</ele>
        <time>2022-05-21T18:28:40Z</time>
      </trkpt>
      <trkpt lat="48.53851" lon="-0.29116">
        <ele>202</ele>
        <time>2022-05-21T18:28:48Z</time>
      </trkpt>
      <trkpt lat="48.53848" lon="-0.29033">
        <ele>204</ele>
        <time>2022-05-21T18:28:58Z</time>
      </trkpt>
      <trkpt lat="48.53833" lon="-0.28936">
        <ele>207</ele>
        <time>2022-05-21T18:29:09Z</time>
      </trkpt>
      <trkpt lat="48.53808" lon="-0.28848">
        <ele>208</ele>
        <time>2022-05-21T18:29:21Z</time>
      </trkpt>
      <trkpt lat="48.53767" lon="-0.28731">
        <ele>211</ele>
        <time>2022-05-21T18:29:36Z</time>
      </trkpt>
      <trkpt lat="48.5376" lon="-0.28705">
        <ele>212</ele>
        <time>2022-05-21T18:29:39Z</time>
      </trkpt>
      <trkpt lat="48.5373" lon="-0.28626">
        <ele>216</ele>
        <time>2022-05-21T18:29:50Z</time>
      </trkpt>
      <trkpt lat="48.53704" lon="-0.28566">
        <ele>221</ele>
        <time>2022-05-21T18:29:59Z</time>
      </trkpt>
      <trkpt lat="48.5369" lon="-0.28509">
        <ele>225</ele>
        <time>2022-05-21T18:30:06Z</time>
      </trkpt>
      <trkpt lat="48.5368" lon="-0.28404">
        <ele>227</ele>
        <time>2022-05-21T18:30:18Z</time>
      </trkpt>
      <trkpt lat="48.53669" lon="-0.28348">
        <ele>226</ele>
        <time>2022-05-21T18:30:25Z</time>
      </trkpt>
      <trkpt lat="48.53649" lon="-0.28286">
        <ele>227</ele>
        <time>2022-05-21T18:30:33Z</time>
      </trkpt>
      <trkpt lat="48.53641" lon="-0.28271">
        <ele>227</ele>
        <time>2022-05-21T18:30:36Z</time>
      </trkpt>
      <trkpt lat="48.53631" lon="-0.28241">
        <ele>228</ele>
        <time>2022-05-21T18:30:40Z</time>
      </trkpt>
      <trkpt lat="48.53609" lon="-0.2817">
        <ele>231</ele>
        <time>2022-05-21T18:30:49Z</time>
      </trkpt>
      <trkpt lat="48.53603" lon="-0.28141">
        <ele>232</ele>
        <time>2022-05-21T18:30:52Z</time>
      </trkpt>
      <trkpt lat="48.53574" lon="-0.28071">
        <ele>236</ele>
        <time>2022-05-21T18:31:02Z</time>
      </trkpt>
      <trkpt lat="48.53508" lon="-0.27889">
        <ele>239</ele>
        <time>2022-05-21T18:31:27Z</time>
      </trkpt>
      <trkpt lat="48.5347" lon="-0.27803">
        <ele>235</ele>
        <time>2022-05-21T18:31:39Z</time>
      </trkpt>
      <trkpt lat="48.53466" lon="-0.27787">
        <ele>235</ele>
        <time>2022-05-21T18:31:41Z</time>
      </trkpt>
      <trkpt lat="48.53424" lon="-0.27675">
        <ele>235</ele>
        <time>2022-05-21T18:31:56Z</time>
      </trkpt>
      <trkpt lat="48.53407" lon="-0.27616">
        <ele>233</ele>
        <time>2022-05-21T18:32:03Z</time>
      </trkpt>
      <trkpt lat="48.53385" lon="-0.27565">
        <ele>231</ele>
        <time>2022-05-21T18:32:11Z</time>
      </trkpt>
      <trkpt lat="48.53366" lon="-0.27508">
        <ele>231</ele>
        <time>2022-05-21T18:32:18Z</time>
      </trkpt>
      <trkpt lat="48.53342" lon="-0.27451">
        <ele>232</ele>
        <time>2022-05-21T18:32:26Z</time>
      </trkpt>
      <trkpt lat="48.53313" lon="-0.27365">
        <ele>234</ele>
        <time>2022-05-21T18:32:38Z</time>
      </trkpt>
      <trkpt lat="48.53299" lon="-0.2723">
        <ele>236</ele>
        <time>2022-05-21T18:32:54Z</time>
      </trkpt>
      <trkpt lat="48.533" lon="-0.27158">
        <ele>238</ele>
        <time>2022-05-21T18:33:02Z</time>
      </trkpt>
      <trkpt lat="48.53297" lon="-0.27145">
        <ele>238</ele>
        <time>2022-05-21T18:33:04Z</time>
      </trkpt>
      <trkpt lat="48.53295" lon="-0.27114">
        <ele>239</ele>
        <time>2022-05-21T18:33:07Z</time>
      </trkpt>
      <trkpt lat="48.53292" lon="-0.27008">
        <ele>240</ele>
        <time>2022-05-21T18:33:20Z</time>
      </trkpt>
      <trkpt lat="48.53287" lon="-0.26944">
        <ele>241</ele>
        <time>2022-05-21T18:33:27Z</time>
      </trkpt>
      <trkpt lat="48.5328" lon="-0.26894">
        <ele>241</ele>
        <time>2022-05-21T18:33:33Z</time>
      </trkpt>
      <trkpt lat="48.53271" lon="-0.26753">
        <ele>243</ele>
        <time>2022-05-21T18:33:50Z</time>
      </trkpt>
      <trkpt lat="48.53266" lon="-0.2672">
        <ele>243</ele>
        <time>2022-05-21T18:33:54Z</time>
      </trkpt>
      <trkpt lat="48.53252" lon="-0.26557">
        <ele>240</ele>
        <time>2022-05-21T18:34:14Z</time>
      </trkpt>
      <trkpt lat="48.53245" lon="-0.26379">
        <ele>237</ele>
        <time>2022-05-21T18:34:35Z</time>
      </trkpt>
      <trkpt lat="48.53245" lon="-0.26289">
        <ele>238</ele>
        <time>2022-05-21T18:34:45Z</time>
      </trkpt>
      <trkpt lat="48.5325" lon="-0.26255">
        <ele>239</ele>
        <time>2022-05-21T18:34:49Z</time>
      </trkpt>
      <trkpt lat="48.53278" lon="-0.26177">
        <ele>238</ele>
        <time>2022-05-21T18:35:00Z</time>
      </trkpt>
      <trkpt lat="48.53304" lon="-0.26125">
        <ele>238</ele>
        <time>2022-05-21T18:35:07Z</time>
      </trkpt>
      <trkpt lat="48.53316" lon="-0.26091">
        <ele>239</ele>
        <time>2022-05-21T18:35:12Z</time>
      </trkpt>
      <trkpt lat="48.53339" lon="-0.26044">
        <ele>239</ele>
        <time>2022-05-21T18:35:19Z</time>
      </trkpt>
      <trkpt lat="48.53379" lon="-0.25943">
        <ele>239</ele>
        <time>2022-05-21T18:35:33Z</time>
      </trkpt>
      <trkpt lat="48.53409" lon="-0.25858">
        <ele>239</ele>
        <time>2022-05-21T18:35:44Z</time>
      </trkpt>
      <trkpt lat="48.5342" lon="-0.25836">
        <ele>239</ele>
        <time>2022-05-21T18:35:47Z</time>
      </trkpt>
      <trkpt lat="48.53436" lon="-0.25782">
        <ele>239</ele>
        <time>2022-05-21T18:35:54Z</time>
      </trkpt>
      <trkpt lat="48.53464" lon="-0.25706">
        <ele>239</ele>
        <time>2022-05-21T18:36:04Z</time>
      </trkpt>
      <trkpt lat="48.53487" lon="-0.25626">
        <ele>239</ele>
        <time>2022-05-21T18:36:15Z</time>
      </trkpt>
      <trkpt lat="48.53563" lon="-0.2542">
        <ele>242</ele>
        <time>2022-05-21T18:36:43Z</time>
      </trkpt>
      <trkpt lat="48.53613" lon="-0.25231">
        <ele>238</ele>
        <time>2022-05-21T18:37:07Z</time>
      </trkpt>
      <trkpt lat="48.53643" lon="-0.25066">
        <ele>233</ele>
        <time>2022-05-21T18:37:27Z</time>
      </trkpt>
      <trkpt lat="48.53644" lon="-0.25044">
        <ele>233</ele>
        <time>2022-05-21T18:37:29Z</time>
      </trkpt>
      <trkpt lat="48.5364" lon="-0.25003">
        <ele>233</ele>
        <time>2022-05-21T18:37:34Z</time>
      </trkpt>
      <trkpt lat="48.53643" lon="-0.24982">
        <ele>233</ele>
        <time>2022-05-21T18:37:37Z</time>
      </trkpt>
      <trkpt lat="48.5367" lon="-0.24883">
        <ele>231</ele>
        <time>2022-05-21T18:37:49Z</time>
      </trkpt>
      <trkpt lat="48.53738" lon="-0.24767">
        <ele>233</ele>
        <time>2022-05-21T18:38:08Z</time>
      </trkpt>
      <trkpt lat="48.53771" lon="-0.24716">
        <ele>234</ele>
        <time>2022-05-21T18:38:16Z</time>
      </trkpt>
      <trkpt lat="48.53799" lon="-0.24656">
        <ele>235</ele>
        <time>2022-05-21T18:38:25Z</time>
      </trkpt>
      <trkpt lat="48.5386" lon="-0.24436">
        <ele>239</ele>
        <time>2022-05-21T18:38:53Z</time>
      </trkpt>
      <trkpt lat="48.53918" lon="-0.24312">
        <ele>244</ele>
        <time>2022-05-21T18:39:11Z</time>
      </trkpt>
      <trkpt lat="48.53926" lon="-0.24302">
        <ele>244</ele>
        <time>2022-05-21T18:39:12Z</time>
      </trkpt>
      <trkpt lat="48.5394" lon="-0.24263">
        <ele>245</ele>
        <time>2022-05-21T18:39:18Z</time>
      </trkpt>
      <trkpt lat="48.53942" lon="-0.24248">
        <ele>245</ele>
        <time>2022-05-21T18:39:19Z</time>
      </trkpt>
      <trkpt lat="48.53951" lon="-0.24225">
        <ele>245</ele>
        <time>2022-05-21T18:39:23Z</time>
      </trkpt>
      <trkpt lat="48.5398" lon="-0.24127">
        <ele>247</ele>
        <time>2022-05-21T18:39:35Z</time>
      </trkpt>
      <trkpt lat="48.53995" lon="-0.24087">
        <ele>250</ele>
        <time>2022-05-21T18:39:41Z</time>
      </trkpt>
      <trkpt lat="48.54012" lon="-0.24052">
        <ele>251</ele>
        <time>2022-05-21T18:39:46Z</time>
      </trkpt>
      <trkpt lat="48.54033" lon="-0.24024">
        <ele>252</ele>
        <time>2022-05-21T18:39:51Z</time>
      </trkpt>
      <trkpt lat="48.54083" lon="-0.23974">
        <ele>253</ele>
        <time>2022-05-21T18:40:01Z</time>
      </trkpt>
      <trkpt lat="48.54118" lon="-0.23943">
        <ele>255</ele>
        <time>2022-05-21T18:40:09Z</time>
      </trkpt>
      <trkpt lat="48.54141" lon="-0.23915">
        <ele>256</ele>
        <time>2022-05-21T18:40:14Z</time>
      </trkpt>
      <trkpt lat="48.54177" lon="-0.23883">
        <ele>258</ele>
        <time>2022-05-21T18:40:21Z</time>
      </trkpt>
      <trkpt lat="48.54192" lon="-0.23862">
        <ele>259</ele>
        <time>2022-05-21T18:40:25Z</time>
      </trkpt>
      <trkpt lat="48.54233" lon="-0.23816">
        <ele>261</ele>
        <time>2022-05-21T18:40:34Z</time>
      </trkpt>
      <trkpt lat="48.54271" lon="-0.23766">
        <ele>264</ele>
        <time>2022-05-21T18:40:43Z</time>
      </trkpt>
      <trkpt lat="48.54317" lon="-0.23713">
        <ele>268</ele>
        <time>2022-05-21T18:40:53Z</time>
      </trkpt>
      <trkpt lat="48.54365" lon="-0.23664">
        <ele>272</ele>
        <time>2022-05-21T18:41:04Z</time>
      </trkpt>
      <trkpt lat="48.54397" lon="-0.23627">
        <ele>275</ele>
        <time>2022-05-21T18:41:11Z</time>
      </trkpt>
      <trkpt lat="48.54404" lon="-0.23615">
        <ele>275</ele>
        <time>2022-05-21T18:41:13Z</time>
      </trkpt>
      <trkpt lat="48.54407" lon="-0.23599">
        <ele>275</ele>
        <time>2022-05-21T18:41:15Z</time>
      </trkpt>
      <trkpt lat="48.54405" lon="-0.23563">
        <ele>275</ele>
        <time>2022-05-21T18:41:19Z</time>
      </trkpt>
      <trkpt lat="48.5439" lon="-0.23505">
        <ele>274</ele>
        <time>2022-05-21T18:41:26Z</time>
      </trkpt>
      <trkpt lat="48.54389" lon="-0.23491">
        <ele>274</ele>
        <time>2022-05-21T18:41:28Z</time>
      </trkpt>
      <trkpt lat="48.54376" lon="-0.2343">
        <ele>273</ele>
        <time>2022-05-21T18:41:35Z</time>
      </trkpt>
      <trkpt lat="48.54375" lon="-0.23414">
        <ele>273</ele>
        <time>2022-05-21T18:41:37Z</time>
      </trkpt>
      <trkpt lat="48.54362" lon="-0.23366">
        <ele>271</ele>
        <time>2022-05-21T18:41:43Z</time>
      </trkpt>
      <trkpt lat="48.54362" lon="-0.23345">
        <ele>270</ele>
        <time>2022-05-21T18:41:46Z</time>
      </trkpt>
      <trkpt lat="48.54369" lon="-0.23322">
        <ele>270</ele>
        <time>2022-05-21T18:41:49Z</time>
      </trkpt>
      <trkpt lat="48.54416" lon="-0.23277">
        <ele>269</ele>
        <time>2022-05-21T18:41:59Z</time>
      </trkpt>
      <trkpt lat="48.54491" lon="-0.23222">
        <ele>266</ele>
        <time>2022-05-21T18:42:14Z</time>
      </trkpt>
      <trkpt lat="48.54536" lon="-0.23184">
        <ele>264</ele>
        <time>2022-05-21T18:42:23Z</time>
      </trkpt>
      <trkpt lat="48.54548" lon="-0.23171">
        <ele>263</ele>
        <time>2022-05-21T18:42:25Z</time>
      </trkpt>
      <trkpt lat="48.54557" lon="-0.23154">
        <ele>263</ele>
        <time>2022-05-21T18:42:28Z</time>
      </trkpt>
      <trkpt lat="48.54568" lon="-0.23116">
        <ele>262</ele>
        <time>2022-05-21T18:42:33Z</time>
      </trkpt>
      <trkpt lat="48.54569" lon="-0.23067">
        <ele>262</ele>
        <time>2022-05-21T18:42:39Z</time>
      </trkpt>
      <trkpt lat="48.54567" lon="-0.23029">
        <ele>262</ele>
        <time>2022-05-21T18:42:43Z</time>
      </trkpt>
      <trkpt lat="48.54564" lon="-0.23013">
        <ele>262</ele>
        <time>2022-05-21T18:42:45Z</time>
      </trkpt>
      <trkpt lat="48.54549" lon="-0.22971">
        <ele>263</ele>
        <time>2022-05-21T18:42:51Z</time>
      </trkpt>
      <trkpt lat="48.54518" lon="-0.22897">
        <ele>265</ele>
        <time>2022-05-21T18:43:01Z</time>
      </trkpt>
      <trkpt lat="48.54496" lon="-0.22863">
        <ele>265</ele>
        <time>2022-05-21T18:43:07Z</time>
      </trkpt>
      <trkpt lat="48.54448" lon="-0.22798">
        <ele>265</ele>
        <time>2022-05-21T18:43:18Z</time>
      </trkpt>
      <trkpt lat="48.54429" lon="-0.22763">
        <ele>265</ele>
        <time>2022-05-21T18:43:23Z</time>
      </trkpt>
      <trkpt lat="48.54392" lon="-0.22644">
        <ele>263</ele>
        <time>2022-05-21T18:43:39Z</time>
      </trkpt>
      <trkpt lat="48.54345" lon="-0.22546">
        <ele>259</ele>
        <time>2022-05-21T18:43:53Z</time>
      </trkpt>
      <trkpt lat="48.54339" lon="-0.22528">
        <ele>259</ele>
        <time>2022-05-21T18:43:56Z</time>
      </trkpt>
      <trkpt lat="48.54334" lon="-0.22508">
        <ele>259</ele>
        <time>2022-05-21T18:43:58Z</time>
      </trkpt>
      <trkpt lat="48.54326" lon="-0.22446">
        <ele>259</ele>
        <time>2022-05-21T18:44:06Z</time>
      </trkpt>
      <trkpt lat="48.54308" lon="-0.22387">
        <ele>258</ele>
        <time>2022-05-21T18:44:13Z</time>
      </trkpt>
      <trkpt lat="48.54299" lon="-0.22371">
        <ele>257</ele>
        <time>2022-05-21T18:44:16Z</time>
      </trkpt>
      <trkpt lat="48.54268" lon="-0.22328">
        <ele>255</ele>
        <time>2022-05-21T18:44:23Z</time>
      </trkpt>
      <trkpt lat="48.54238" lon="-0.22258">
        <ele>256</ele>
        <time>2022-05-21T18:44:33Z</time>
      </trkpt>
      <trkpt lat="48.54193" lon="-0.22187">
        <ele>258</ele>
        <time>2022-05-21T18:44:45Z</time>
      </trkpt>
      <trkpt lat="48.54177" lon="-0.22145">
        <ele>260</ele>
        <time>2022-05-21T18:44:50Z</time>
      </trkpt>
      <trkpt lat="48.54169" lon="-0.22103">
        <ele>262</ele>
        <time>2022-05-21T18:44:55Z</time>
      </trkpt>
      <trkpt lat="48.54165" lon="-0.2203">
        <ele>265</ele>
        <time>2022-05-21T18:45:04Z</time>
      </trkpt>
      <trkpt lat="48.54167" lon="-0.21985">
        <ele>266</ele>
        <time>2022-05-21T18:45:09Z</time>
      </trkpt>
      <trkpt lat="48.54164" lon="-0.21969">
        <ele>266</ele>
        <time>2022-05-21T18:45:11Z</time>
      </trkpt>
      <trkpt lat="48.54165" lon="-0.21922">
        <ele>267</ele>
        <time>2022-05-21T18:45:17Z</time>
      </trkpt>
      <trkpt lat="48.54169" lon="-0.21881">
        <ele>267</ele>
        <time>2022-05-21T18:45:22Z</time>
      </trkpt>
      <trkpt lat="48.54171" lon="-0.21785">
        <ele>267</ele>
        <time>2022-05-21T18:45:33Z</time>
      </trkpt>
      <trkpt lat="48.54169" lon="-0.21754">
        <ele>267</ele>
        <time>2022-05-21T18:45:37Z</time>
      </trkpt>
      <trkpt lat="48.54152" lon="-0.21686">
        <ele>270</ele>
        <time>2022-05-21T18:45:45Z</time>
      </trkpt>
      <trkpt lat="48.54146" lon="-0.21645">
        <ele>272</ele>
        <time>2022-05-21T18:45:50Z</time>
      </trkpt>
      <trkpt lat="48.54146" lon="-0.21612">
        <ele>274</ele>
        <time>2022-05-21T18:45:54Z</time>
      </trkpt>
      <trkpt lat="48.54179" lon="-0.21366">
        <ele>278</ele>
        <time>2022-05-21T18:46:24Z</time>
      </trkpt>
      <trkpt lat="48.54178" lon="-0.21349">
        <ele>279</ele>
        <time>2022-05-21T18:46:26Z</time>
      </trkpt>
      <trkpt lat="48.54172" lon="-0.21334">
        <ele>279</ele>
        <time>2022-05-21T18:46:28Z</time>
      </trkpt>
      <trkpt lat="48.54147" lon="-0.21301">
        <ele>280</ele>
        <time>2022-05-21T18:46:34Z</time>
      </trkpt>
      <trkpt lat="48.54131" lon="-0.21285">
        <ele>280</ele>
        <time>2022-05-21T18:46:37Z</time>
      </trkpt>
      <trkpt lat="48.54126" lon="-0.21272">
        <ele>280</ele>
        <time>2022-05-21T18:46:39Z</time>
      </trkpt>
      <trkpt lat="48.5416" lon="-0.21209">
        <ele>282</ele>
        <time>2022-05-21T18:46:48Z</time>
      </trkpt>
      <trkpt lat="48.54171" lon="-0.21179">
        <ele>283</ele>
        <time>2022-05-21T18:46:52Z</time>
      </trkpt>
      <trkpt lat="48.54178" lon="-0.21147">
        <ele>282</ele>
        <time>2022-05-21T18:46:56Z</time>
      </trkpt>
      <trkpt lat="48.54195" lon="-0.21042">
        <ele>282</ele>
        <time>2022-05-21T18:47:09Z</time>
      </trkpt>
      <trkpt lat="48.54213" lon="-0.20909">
        <ele>282</ele>
        <time>2022-05-21T18:47:25Z</time>
      </trkpt>
      <trkpt lat="48.54217" lon="-0.20896">
        <ele>282</ele>
        <time>2022-05-21T18:47:27Z</time>
      </trkpt>
      <trkpt lat="48.54222" lon="-0.2084">
        <ele>283</ele>
        <time>2022-05-21T18:47:34Z</time>
      </trkpt>
      <trkpt lat="48.54236" lon="-0.20768">
        <ele>283</ele>
        <time>2022-05-21T18:47:42Z</time>
      </trkpt>
      <trkpt lat="48.54237" lon="-0.20749">
        <ele>283</ele>
        <time>2022-05-21T18:47:45Z</time>
      </trkpt>
      <trkpt lat="48.54246" lon="-0.20694">
        <ele>284</ele>
        <time>2022-05-21T18:47:51Z</time>
      </trkpt>
      <trkpt lat="48.54246" lon="-0.2068">
        <ele>284</ele>
        <time>2022-05-21T18:47:53Z</time>
      </trkpt>
      <trkpt lat="48.54239" lon="-0.2067">
        <ele>284</ele>
        <time>2022-05-21T18:47:55Z</time>
      </trkpt>
      <trkpt lat="48.5421" lon="-0.20645">
        <ele>282</ele>
        <time>2022-05-21T18:48:01Z</time>
      </trkpt>
      <trkpt lat="48.54202" lon="-0.20631">
        <ele>282</ele>
        <time>2022-05-21T18:48:03Z</time>
      </trkpt>
      <trkpt lat="48.54198" lon="-0.20614">
        <ele>281</ele>
        <time>2022-05-21T18:48:05Z</time>
      </trkpt>
      <trkpt lat="48.54202" lon="-0.20553">
        <ele>280</ele>
        <time>2022-05-21T18:48:12Z</time>
      </trkpt>
      <trkpt lat="48.54201" lon="-0.20493">
        <ele>279</ele>
        <time>2022-05-21T18:48:19Z</time>
      </trkpt>
      <trkpt lat="48.54205" lon="-0.20448">
        <ele>279</ele>
        <time>2022-05-21T18:48:25Z</time>
      </trkpt>
      <trkpt lat="48.54206" lon="-0.20371">
        <ele>279</ele>
        <time>2022-05-21T18:48:34Z</time>
      </trkpt>
      <trkpt lat="48.54216" lon="-0.20253">
        <ele>278</ele>
        <time>2022-05-21T18:48:48Z</time>
      </trkpt>
      <trkpt lat="48.54232" lon="-0.19891">
        <ele>275</ele>
        <time>2022-05-21T18:49:30Z</time>
      </trkpt>
      <trkpt lat="48.54246" lon="-0.19707">
        <ele>273</ele>
        <time>2022-05-21T18:49:52Z</time>
      </trkpt>
      <trkpt lat="48.54248" lon="-0.19632">
        <ele>274</ele>
        <time>2022-05-21T18:50:01Z</time>
      </trkpt>
      <trkpt lat="48.54259" lon="-0.19477">
        <ele>279</ele>
        <time>2022-05-21T18:50:19Z</time>
      </trkpt>
      <trkpt lat="48.54269" lon="-0.19267">
        <ele>283</ele>
        <time>2022-05-21T18:50:44Z</time>
      </trkpt>
      <trkpt lat="48.54276" lon="-0.19179">
        <ele>285</ele>
        <time>2022-05-21T18:50:55Z</time>
      </trkpt>
      <trkpt lat="48.54289" lon="-0.18941">
        <ele>297</ele>
        <time>2022-05-21T18:51:23Z</time>
      </trkpt>
      <trkpt lat="48.54292" lon="-0.18821">
        <ele>299</ele>
        <time>2022-05-21T18:51:37Z</time>
      </trkpt>
      <trkpt lat="48.54286" lon="-0.18761">
        <ele>299</ele>
        <time>2022-05-21T18:51:44Z</time>
      </trkpt>
      <trkpt lat="48.54271" lon="-0.18699">
        <ele>298</ele>
        <time>2022-05-21T18:51:52Z</time>
      </trkpt>
      <trkpt lat="48.54248" lon="-0.18631">
        <ele>296</ele>
        <time>2022-05-21T18:52:01Z</time>
      </trkpt>
      <trkpt lat="48.5423" lon="-0.18598">
        <ele>295</ele>
        <time>2022-05-21T18:52:06Z</time>
      </trkpt>
      <trkpt lat="48.54216" lon="-0.1856">
        <ele>293</ele>
        <time>2022-05-21T18:52:11Z</time>
      </trkpt>
      <trkpt lat="48.54208" lon="-0.18439">
        <ele>288</ele>
        <time>2022-05-21T18:52:25Z</time>
      </trkpt>
      <trkpt lat="48.54199" lon="-0.18365">
        <ele>287</ele>
        <time>2022-05-21T18:52:34Z</time>
      </trkpt>
      <trkpt lat="48.54195" lon="-0.18308">
        <ele>288</ele>
        <time>2022-05-21T18:52:41Z</time>
      </trkpt>
      <trkpt lat="48.542" lon="-0.18246">
        <ele>291</ele>
        <time>2022-05-21T18:52:48Z</time>
      </trkpt>
      <trkpt lat="48.54198" lon="-0.18228">
        <ele>292</ele>
        <time>2022-05-21T18:52:50Z</time>
      </trkpt>
      <trkpt lat="48.54193" lon="-0.18211">
        <ele>293</ele>
        <time>2022-05-21T18:52:53Z</time>
      </trkpt>
      <trkpt lat="48.54172" lon="-0.18176">
        <ele>293</ele>
        <time>2022-05-21T18:52:58Z</time>
      </trkpt>
      <trkpt lat="48.54155" lon="-0.18137">
        <ele>294</ele>
        <time>2022-05-21T18:53:04Z</time>
      </trkpt>
      <trkpt lat="48.54148" lon="-0.18091">
        <ele>296</ele>
        <time>2022-05-21T18:53:09Z</time>
      </trkpt>
      <trkpt lat="48.54146" lon="-0.18061">
        <ele>297</ele>
        <time>2022-05-21T18:53:13Z</time>
      </trkpt>
      <trkpt lat="48.54145" lon="-0.1803">
        <ele>297</ele>
        <time>2022-05-21T18:53:16Z</time>
      </trkpt>
      <trkpt lat="48.54149" lon="-0.17967">
        <ele>297</ele>
        <time>2022-05-21T18:53:24Z</time>
      </trkpt>
      <trkpt lat="48.54161" lon="-0.1789">
        <ele>295</ele>
        <time>2022-05-21T18:53:33Z</time>
      </trkpt>
      <trkpt lat="48.54186" lon="-0.17793">
        <ele>291</ele>
        <time>2022-05-21T18:53:45Z</time>
      </trkpt>
      <trkpt lat="48.54213" lon="-0.17715">
        <ele>290</ele>
        <time>2022-05-21T18:53:56Z</time>
      </trkpt>
      <trkpt lat="48.5425" lon="-0.17621">
        <ele>287</ele>
        <time>2022-05-21T18:54:09Z</time>
      </trkpt>
      <trkpt lat="48.54293" lon="-0.17533">
        <ele>285</ele>
        <time>2022-05-21T18:54:22Z</time>
      </trkpt>
      <trkpt lat="48.54351" lon="-0.17433">
        <ele>284</ele>
        <time>2022-05-21T18:54:37Z</time>
      </trkpt>
      <trkpt lat="48.5442" lon="-0.17335">
        <ele>282</ele>
        <time>2022-05-21T18:54:54Z</time>
      </trkpt>
      <trkpt lat="48.54463" lon="-0.17289">
        <ele>285</ele>
        <time>2022-05-21T18:55:04Z</time>
      </trkpt>
      <trkpt lat="48.54487" lon="-0.17258">
        <ele>287</ele>
        <time>2022-05-21T18:55:09Z</time>
      </trkpt>
      <trkpt lat="48.54498" lon="-0.1725">
        <ele>287</ele>
        <time>2022-05-21T18:55:11Z</time>
      </trkpt>
      <trkpt lat="48.54505" lon="-0.17238">
        <ele>287</ele>
        <time>2022-05-21T18:55:13Z</time>
      </trkpt>
      <trkpt lat="48.54514" lon="-0.17231">
        <ele>288</ele>
        <time>2022-05-21T18:55:15Z</time>
      </trkpt>
      <trkpt lat="48.54553" lon="-0.17186">
        <ele>289</ele>
        <time>2022-05-21T18:55:24Z</time>
      </trkpt>
      <trkpt lat="48.54629" lon="-0.17112">
        <ele>289</ele>
        <time>2022-05-21T18:55:40Z</time>
      </trkpt>
      <trkpt lat="48.54726" lon="-0.17041">
        <ele>289</ele>
        <time>2022-05-21T18:55:59Z</time>
      </trkpt>
      <trkpt lat="48.54848" lon="-0.16969">
        <ele>286</ele>
        <time>2022-05-21T18:56:22Z</time>
      </trkpt>
      <trkpt lat="48.54946" lon="-0.16908">
        <ele>281</ele>
        <time>2022-05-21T18:56:41Z</time>
      </trkpt>
      <trkpt lat="48.55011" lon="-0.16871">
        <ele>279</ele>
        <time>2022-05-21T18:56:54Z</time>
      </trkpt>
      <trkpt lat="48.5502" lon="-0.16864">
        <ele>279</ele>
        <time>2022-05-21T18:56:55Z</time>
      </trkpt>
      <trkpt lat="48.55025" lon="-0.16851">
        <ele>278</ele>
        <time>2022-05-21T18:56:57Z</time>
      </trkpt>
      <trkpt lat="48.55023" lon="-0.16836">
        <ele>278</ele>
        <time>2022-05-21T18:56:59Z</time>
      </trkpt>
      <trkpt lat="48.54989" lon="-0.16738">
        <ele>281</ele>
        <time>2022-05-21T18:57:12Z</time>
      </trkpt>
      <trkpt lat="48.54964" lon="-0.16653">
        <ele>284</ele>
        <time>2022-05-21T18:57:23Z</time>
      </trkpt>
      <trkpt lat="48.54951" lon="-0.16577">
        <ele>282</ele>
        <time>2022-05-21T18:57:32Z</time>
      </trkpt>
      <trkpt lat="48.54949" lon="-0.16543">
        <ele>281</ele>
        <time>2022-05-21T18:57:36Z</time>
      </trkpt>
      <trkpt lat="48.54951" lon="-0.16454">
        <ele>279</ele>
        <time>2022-05-21T18:57:47Z</time>
      </trkpt>
      <trkpt lat="48.5495" lon="-0.16349">
        <ele>277</ele>
        <time>2022-05-21T18:57:59Z</time>
      </trkpt>
      <trkpt lat="48.5497" lon="-0.16153">
        <ele>274</ele>
        <time>2022-05-21T18:58:22Z</time>
      </trkpt>
      <trkpt lat="48.54973" lon="-0.16084">
        <ele>275</ele>
        <time>2022-05-21T18:58:30Z</time>
      </trkpt>
      <trkpt lat="48.54971" lon="-0.15926">
        <ele>278</ele>
        <time>2022-05-21T18:58:49Z</time>
      </trkpt>
      <trkpt lat="48.54973" lon="-0.15898">
        <ele>279</ele>
        <time>2022-05-21T18:58:52Z</time>
      </trkpt>
      <trkpt lat="48.54981" lon="-0.15849">
        <ele>281</ele>
        <time>2022-05-21T18:58:58Z</time>
      </trkpt>
      <trkpt lat="48.54987" lon="-0.15772">
        <ele>283</ele>
        <time>2022-05-21T18:59:07Z</time>
      </trkpt>
      <trkpt lat="48.54987" lon="-0.15681">
        <ele>285</ele>
        <time>2022-05-21T18:59:18Z</time>
      </trkpt>
      <trkpt lat="48.54976" lon="-0.15511">
        <ele>287</ele>
        <time>2022-05-21T18:59:38Z</time>
      </trkpt>
      <trkpt lat="48.54977" lon="-0.15424">
        <ele>287</ele>
        <time>2022-05-21T18:59:49Z</time>
      </trkpt>
      <trkpt lat="48.54975" lon="-0.15355">
        <ele>287</ele>
        <time>2022-05-21T18:59:57Z</time>
      </trkpt>
      <trkpt lat="48.54967" lon="-0.15303">
        <ele>287</ele>
        <time>2022-05-21T19:00:03Z</time>
      </trkpt>
      <trkpt lat="48.54963" lon="-0.1529">
        <ele>287</ele>
        <time>2022-05-21T19:00:05Z</time>
      </trkpt>
      <trkpt lat="48.54882" lon="-0.15099">
        <ele>285</ele>
        <time>2022-05-21T19:00:31Z</time>
      </trkpt>
      <trkpt lat="48.54862" lon="-0.15043">
        <ele>285</ele>
        <time>2022-05-21T19:00:39Z</time>
      </trkpt>
      <trkpt lat="48.54851" lon="-0.15">
        <ele>285</ele>
        <time>2022-05-21T19:00:44Z</time>
      </trkpt>
      <trkpt lat="48.54841" lon="-0.14997">
        <ele>285</ele>
        <time>2022-05-21T19:00:46Z</time>
      </trkpt>
      <trkpt lat="48.54837" lon="-0.14983">
        <ele>285</ele>
        <time>2022-05-21T19:00:48Z</time>
      </trkpt>
      <trkpt lat="48.54803" lon="-0.14805">
        <ele>289</ele>
        <time>2022-05-21T19:01:10Z</time>
      </trkpt>
      <trkpt lat="48.54802" lon="-0.14788">
        <ele>289</ele>
        <time>2022-05-21T19:01:12Z</time>
      </trkpt>
      <trkpt lat="48.54773" lon="-0.14682">
        <ele>290</ele>
        <time>2022-05-21T19:01:25Z</time>
      </trkpt>
      <trkpt lat="48.54742" lon="-0.14542">
        <ele>290</ele>
        <time>2022-05-21T19:01:43Z</time>
      </trkpt>
      <trkpt lat="48.54738" lon="-0.14465">
        <ele>289</ele>
        <time>2022-05-21T19:01:52Z</time>
      </trkpt>
      <trkpt lat="48.54729" lon="-0.14396">
        <ele>289</ele>
        <time>2022-05-21T19:02:00Z</time>
      </trkpt>
      <trkpt lat="48.54683" lon="-0.14203">
        <ele>286</ele>
        <time>2022-05-21T19:02:24Z</time>
      </trkpt>
      <trkpt lat="48.54678" lon="-0.14191">
        <ele>286</ele>
        <time>2022-05-21T19:02:26Z</time>
      </trkpt>
      <trkpt lat="48.54658" lon="-0.14113">
        <ele>286</ele>
        <time>2022-05-21T19:02:36Z</time>
      </trkpt>
      <trkpt lat="48.54657" lon="-0.14065">
        <ele>286</ele>
        <time>2022-05-21T19:02:41Z</time>
      </trkpt>
      <trkpt lat="48.54659" lon="-0.14037">
        <ele>286</ele>
        <time>2022-05-21T19:02:45Z</time>
      </trkpt>
      <trkpt lat="48.54674" lon="-0.13948">
        <ele>287</ele>
        <time>2022-05-21T19:02:56Z</time>
      </trkpt>
      <trkpt lat="48.54685" lon="-0.13903">
        <ele>286</ele>
        <time>2022-05-21T19:03:01Z</time>
      </trkpt>
      <trkpt lat="48.54712" lon="-0.13854">
        <ele>286</ele>
        <time>2022-05-21T19:03:09Z</time>
      </trkpt>
      <trkpt lat="48.54728" lon="-0.13815">
        <ele>286</ele>
        <time>2022-05-21T19:03:14Z</time>
      </trkpt>
      <trkpt lat="48.54731" lon="-0.13801">
        <ele>286</ele>
        <time>2022-05-21T19:03:16Z</time>
      </trkpt>
      <trkpt lat="48.54729" lon="-0.13768">
        <ele>287</ele>
        <time>2022-05-21T19:03:20Z</time>
      </trkpt>
      <trkpt lat="48.54724" lon="-0.13738">
        <ele>288</ele>
        <time>2022-05-21T19:03:23Z</time>
      </trkpt>
      <trkpt lat="48.54695" lon="-0.13733">
        <ele>289</ele>
        <time>2022-05-21T19:03:29Z</time>
      </trkpt>
      <trkpt lat="48.54685" lon="-0.13734">
        <ele>289</ele>
        <time>2022-05-21T19:03:30Z</time>
      </trkpt>
      <trkpt lat="48.54594" lon="-0.13709">
        <ele>293</ele>
        <time>2022-05-21T19:03:47Z</time>
      </trkpt>
      <trkpt lat="48.5457" lon="-0.13705">
        <ele>293</ele>
        <time>2022-05-21T19:03:51Z</time>
      </trkpt>
      <trkpt lat="48.54543" lon="-0.13696">
        <ele>293</ele>
        <time>2022-05-21T19:03:56Z</time>
      </trkpt>
      <trkpt lat="48.54545" lon="-0.13682">
        <ele>293</ele>
        <time>2022-05-21T19:03:58Z</time>
      </trkpt>
      <trkpt lat="48.54517" lon="-0.13561">
        <ele>297</ele>
        <time>2022-05-21T19:04:13Z</time>
      </trkpt>
      <trkpt lat="48.54504" lon="-0.13449">
        <ele>299</ele>
        <time>2022-05-21T19:04:26Z</time>
      </trkpt>
      <trkpt lat="48.54511" lon="-0.13429">
        <ele>299</ele>
        <time>2022-05-21T19:04:29Z</time>
      </trkpt>
      <trkpt lat="48.54513" lon="-0.13387">
        <ele>299</ele>
        <time>2022-05-21T19:04:34Z</time>
      </trkpt>
      <trkpt lat="48.54512" lon="-0.13256">
        <ele>302</ele>
        <time>2022-05-21T19:04:49Z</time>
      </trkpt>
      <trkpt lat="48.5449" lon="-0.13104">
        <ele>302</ele>
        <time>2022-05-21T19:05:08Z</time>
      </trkpt>
      <trkpt lat="48.5449" lon="-0.13066">
        <ele>302</ele>
        <time>2022-05-21T19:05:12Z</time>
      </trkpt>
      <trkpt lat="48.54482" lon="-0.12997">
        <ele>306</ele>
        <time>2022-05-21T19:05:20Z</time>
      </trkpt>
      <trkpt lat="48.54478" lon="-0.12979">
        <ele>306</ele>
        <time>2022-05-21T19:05:23Z</time>
      </trkpt>
      <trkpt lat="48.54478" lon="-0.12962">
        <ele>306</ele>
        <time>2022-05-21T19:05:25Z</time>
      </trkpt>
      <trkpt lat="48.54474" lon="-0.12945">
        <ele>306</ele>
        <time>2022-05-21T19:05:27Z</time>
      </trkpt>
      <trkpt lat="48.54474" lon="-0.12927">
        <ele>307</ele>
        <time>2022-05-21T19:05:29Z</time>
      </trkpt>
      <trkpt lat="48.54469" lon="-0.12901">
        <ele>306</ele>
        <time>2022-05-21T19:05:32Z</time>
      </trkpt>
      <trkpt lat="48.54472" lon="-0.12862">
        <ele>305</ele>
        <time>2022-05-21T19:05:37Z</time>
      </trkpt>
      <trkpt lat="48.54477" lon="-0.12845">
        <ele>304</ele>
        <time>2022-05-21T19:05:39Z</time>
      </trkpt>
      <trkpt lat="48.54488" lon="-0.12821">
        <ele>304</ele>
        <time>2022-05-21T19:05:42Z</time>
      </trkpt>
      <trkpt lat="48.5446" lon="-0.12798">
        <ele>304</ele>
        <time>2022-05-21T19:05:48Z</time>
      </trkpt>
      <trkpt lat="48.54444" lon="-0.1278">
        <ele>304</ele>
        <time>2022-05-21T19:05:51Z</time>
      </trkpt>
      <trkpt lat="48.54427" lon="-0.12769">
        <ele>304</ele>
        <time>2022-05-21T19:05:55Z</time>
      </trkpt>
      <trkpt lat="48.54418" lon="-0.1277">
        <ele>304</ele>
        <time>2022-05-21T19:05:56Z</time>
      </trkpt>
      <trkpt lat="48.5438" lon="-0.12746">
        <ele>303</ele>
        <time>2022-05-21T19:06:04Z</time>
      </trkpt>
      <trkpt lat="48.54283" lon="-0.12718">
        <ele>298</ele>
        <time>2022-05-21T19:06:21Z</time>
      </trkpt>
      <trkpt lat="48.54274" lon="-0.12713">
        <ele>298</ele>
        <time>2022-05-21T19:06:23Z</time>
      </trkpt>
      <trkpt lat="48.54269" lon="-0.12695">
        <ele>297</ele>
        <time>2022-05-21T19:06:25Z</time>
      </trkpt>
      <trkpt lat="48.54298" lon="-0.12608">
        <ele>297</ele>
        <time>2022-05-21T19:06:37Z</time>
      </trkpt>
      <trkpt lat="48.54307" lon="-0.12572">
        <ele>298</ele>
        <time>2022-05-21T19:06:41Z</time>
      </trkpt>
      <trkpt lat="48.54326" lon="-0.12513">
        <ele>297</ele>
        <time>2022-05-21T19:06:49Z</time>
      </trkpt>
      <trkpt lat="48.54338" lon="-0.12486">
        <ele>297</ele>
        <time>2022-05-21T19:06:53Z</time>
      </trkpt>
      <trkpt lat="48.54357" lon="-0.12452">
        <ele>299</ele>
        <time>2022-05-21T19:06:58Z</time>
      </trkpt>
      <trkpt lat="48.54369" lon="-0.12416">
        <ele>300</ele>
        <time>2022-05-21T19:07:03Z</time>
      </trkpt>
      <trkpt lat="48.54374" lon="-0.12383">
        <ele>300</ele>
        <time>2022-05-21T19:07:07Z</time>
      </trkpt>
      <trkpt lat="48.54381" lon="-0.12122">
        <ele>297</ele>
        <time>2022-05-21T19:07:38Z</time>
      </trkpt>
      <trkpt lat="48.54382" lon="-0.11985">
        <ele>298</ele>
        <time>2022-05-21T19:07:54Z</time>
      </trkpt>
      <trkpt lat="48.54377" lon="-0.11862">
        <ele>297</ele>
        <time>2022-05-21T19:08:08Z</time>
      </trkpt>
      <trkpt lat="48.54379" lon="-0.11843">
        <ele>297</ele>
        <time>2022-05-21T19:08:11Z</time>
      </trkpt>
      <trkpt lat="48.54378" lon="-0.11754">
        <ele>297</ele>
        <time>2022-05-21T19:08:21Z</time>
      </trkpt>
      <trkpt lat="48.54381" lon="-0.1169">
        <ele>296</ele>
        <time>2022-05-21T19:08:29Z</time>
      </trkpt>
      <trkpt lat="48.5441" lon="-0.11529">
        <ele>297</ele>
        <time>2022-05-21T19:08:48Z</time>
      </trkpt>
      <trkpt lat="48.54418" lon="-0.11497">
        <ele>297</ele>
        <time>2022-05-21T19:08:52Z</time>
      </trkpt>
      <trkpt lat="48.54465" lon="-0.1138">
        <ele>298</ele>
        <time>2022-05-21T19:09:08Z</time>
      </trkpt>
      <trkpt lat="48.54486" lon="-0.11314">
        <ele>298</ele>
        <time>2022-05-21T19:09:17Z</time>
      </trkpt>
      <trkpt lat="48.54496" lon="-0.1124">
        <ele>296</ele>
        <time>2022-05-21T19:09:26Z</time>
      </trkpt>
      <trkpt lat="48.54503" lon="-0.11123">
        <ele>293</ele>
        <time>2022-05-21T19:09:40Z</time>
      </trkpt>
      <trkpt lat="48.54519" lon="-0.10993">
        <ele>288</ele>
        <time>2022-05-21T19:09:55Z</time>
      </trkpt>
      <trkpt lat="48.54527" lon="-0.10887">
        <ele>283</ele>
        <time>2022-05-21T19:10:08Z</time>
      </trkpt>
      <trkpt lat="48.5453" lon="-0.10802">
        <ele>280</ele>
        <time>2022-05-21T19:10:18Z</time>
      </trkpt>
      <trkpt lat="48.54529" lon="-0.10687">
        <ele>278</ele>
        <time>2022-05-21T19:10:31Z</time>
      </trkpt>
      <trkpt lat="48.54536" lon="-0.10647">
        <ele>277</ele>
        <time>2022-05-21T19:10:36Z</time>
      </trkpt>
      <trkpt lat="48.54542" lon="-0.10629">
        <ele>276</ele>
        <time>2022-05-21T19:10:39Z</time>
      </trkpt>
      <trkpt lat="48.54513" lon="-0.10573">
        <ele>275</ele>
        <time>2022-05-21T19:10:47Z</time>
      </trkpt>
      <trkpt lat="48.54476" lon="-0.10519">
        <ele>274</ele>
        <time>2022-05-21T19:10:56Z</time>
      </trkpt>
      <trkpt lat="48.54498" lon="-0.10481">
        <ele>272</ele>
        <time>2022-05-21T19:11:02Z</time>
      </trkpt>
      <trkpt lat="48.54529" lon="-0.10454">
        <ele>273</ele>
        <time>2022-05-21T19:11:09Z</time>
      </trkpt>
      <trkpt lat="48.54561" lon="-0.10419">
        <ele>274</ele>
        <time>2022-05-21T19:11:16Z</time>
      </trkpt>
      <trkpt lat="48.54581" lon="-0.10385">
        <ele>276</ele>
        <time>2022-05-21T19:11:21Z</time>
      </trkpt>
      <trkpt lat="48.54583" lon="-0.10371">
        <ele>277</ele>
        <time>2022-05-21T19:11:23Z</time>
      </trkpt>
      <trkpt lat="48.54591" lon="-0.10361">
        <ele>277</ele>
        <time>2022-05-21T19:11:24Z</time>
      </trkpt>
      <trkpt lat="48.54625" lon="-0.10328">
        <ele>279</ele>
        <time>2022-05-21T19:11:32Z</time>
      </trkpt>
      <trkpt lat="48.54632" lon="-0.10315">
        <ele>279</ele>
        <time>2022-05-21T19:11:34Z</time>
      </trkpt>
      <trkpt lat="48.54647" lon="-0.10298">
        <ele>280</ele>
        <time>2022-05-21T19:11:37Z</time>
      </trkpt>
      <trkpt lat="48.54675" lon="-0.10274">
        <ele>281</ele>
        <time>2022-05-21T19:11:43Z</time>
      </trkpt>
      <trkpt lat="48.54694" lon="-0.10241">
        <ele>283</ele>
        <time>2022-05-21T19:11:48Z</time>
      </trkpt>
      <trkpt lat="48.54703" lon="-0.10196">
        <ele>285</ele>
        <time>2022-05-21T19:11:53Z</time>
      </trkpt>
      <trkpt lat="48.54708" lon="-0.10055">
        <ele>286</ele>
        <time>2022-05-21T19:12:10Z</time>
      </trkpt>
      <trkpt lat="48.54713" lon="-0.10024">
        <ele>287</ele>
        <time>2022-05-21T19:12:14Z</time>
      </trkpt>
      <trkpt lat="48.54711" lon="-0.09997">
        <ele>287</ele>
        <time>2022-05-21T19:12:17Z</time>
      </trkpt>
      <trkpt lat="48.54713" lon="-0.09948">
        <ele>286</ele>
        <time>2022-05-21T19:12:23Z</time>
      </trkpt>
      <trkpt lat="48.54734" lon="-0.09778">
        <ele>283</ele>
        <time>2022-05-21T19:12:43Z</time>
      </trkpt>
      <trkpt lat="48.54734" lon="-0.09719">
        <ele>282</ele>
        <time>2022-05-21T19:12:50Z</time>
      </trkpt>
      <trkpt lat="48.54729" lon="-0.0969">
        <ele>281</ele>
        <time>2022-05-21T19:12:54Z</time>
      </trkpt>
      <trkpt lat="48.54738" lon="-0.09606">
        <ele>280</ele>
        <time>2022-05-21T19:13:04Z</time>
      </trkpt>
      <trkpt lat="48.54755" lon="-0.09484">
        <ele>281</ele>
        <time>2022-05-21T19:13:18Z</time>
      </trkpt>
      <trkpt lat="48.54762" lon="-0.09399">
        <ele>282</ele>
        <time>2022-05-21T19:13:28Z</time>
      </trkpt>
      <trkpt lat="48.54761" lon="-0.09314">
        <ele>283</ele>
        <time>2022-05-21T19:13:38Z</time>
      </trkpt>
      <trkpt lat="48.54755" lon="-0.09241">
        <ele>283</ele>
        <time>2022-05-21T19:13:47Z</time>
      </trkpt>
      <trkpt lat="48.54755" lon="-0.09185">
        <ele>284</ele>
        <time>2022-05-21T19:13:54Z</time>
      </trkpt>
      <trkpt lat="48.54766" lon="-0.0912">
        <ele>284</ele>
        <time>2022-05-21T19:14:02Z</time>
      </trkpt>
      <trkpt lat="48.54788" lon="-0.09014">
        <ele>282</ele>
        <time>2022-05-21T19:14:15Z</time>
      </trkpt>
      <trkpt lat="48.54802" lon="-0.0889">
        <ele>280</ele>
        <time>2022-05-21T19:14:29Z</time>
      </trkpt>
      <trkpt lat="48.54809" lon="-0.08772">
        <ele>279</ele>
        <time>2022-05-21T19:14:43Z</time>
      </trkpt>
      <trkpt lat="48.54814" lon="-0.08742">
        <ele>279</ele>
        <time>2022-05-21T19:14:47Z</time>
      </trkpt>
      <trkpt lat="48.54799" lon="-0.08659">
        <ele>278</ele>
        <time>2022-05-21T19:14:57Z</time>
      </trkpt>
      <trkpt lat="48.5477" lon="-0.0856">
        <ele>275</ele>
        <time>2022-05-21T19:15:10Z</time>
      </trkpt>
      <trkpt lat="48.54775" lon="-0.08543">
        <ele>275</ele>
        <time>2022-05-21T19:15:12Z</time>
      </trkpt>
      <trkpt lat="48.54799" lon="-0.08505">
        <ele>275</ele>
        <time>2022-05-21T19:15:18Z</time>
      </trkpt>
      <trkpt lat="48.54835" lon="-0.08503">
        <ele>277</ele>
        <time>2022-05-21T19:15:25Z</time>
      </trkpt>
      <trkpt lat="48.54859" lon="-0.08498">
        <ele>278</ele>
        <time>2022-05-21T19:15:29Z</time>
      </trkpt>
      <trkpt lat="48.54896" lon="-0.08474">
        <ele>280</ele>
        <time>2022-05-21T19:15:36Z</time>
      </trkpt>
      <trkpt lat="48.54906" lon="-0.08462">
        <ele>280</ele>
        <time>2022-05-21T19:15:38Z</time>
      </trkpt>
      <trkpt lat="48.54914" lon="-0.08448">
        <ele>280</ele>
        <time>2022-05-21T19:15:41Z</time>
      </trkpt>
      <trkpt lat="48.54925" lon="-0.08373">
        <ele>282</ele>
        <time>2022-05-21T19:15:50Z</time>
      </trkpt>
      <trkpt lat="48.54933" lon="-0.08345">
        <ele>283</ele>
        <time>2022-05-21T19:15:53Z</time>
      </trkpt>
      <trkpt lat="48.54938" lon="-0.08332">
        <ele>283</ele>
        <time>2022-05-21T19:15:55Z</time>
      </trkpt>
      <trkpt lat="48.54964" lon="-0.08287">
        <ele>286</ele>
        <time>2022-05-21T19:16:02Z</time>
      </trkpt>
      <trkpt lat="48.54968" lon="-0.08259">
        <ele>287</ele>
        <time>2022-05-21T19:16:05Z</time>
      </trkpt>
      <trkpt lat="48.54974" lon="-0.08247">
        <ele>287</ele>
        <time>2022-05-21T19:16:07Z</time>
      </trkpt>
      <trkpt lat="48.54983" lon="-0.08241">
        <ele>288</ele>
        <time>2022-05-21T19:16:09Z</time>
      </trkpt>
      <trkpt lat="48.55001" lon="-0.08234">
        <ele>289</ele>
        <time>2022-05-21T19:16:12Z</time>
      </trkpt>
      <trkpt lat="48.55042" lon="-0.08227">
        <ele>290</ele>
        <time>2022-05-21T19:16:20Z</time>
      </trkpt>
      <trkpt lat="48.55062" lon="-0.08219">
        <ele>291</ele>
        <time>2022-05-21T19:16:23Z</time>
      </trkpt>
      <trkpt lat="48.551" lon="-0.08211">
        <ele>293</ele>
        <time>2022-05-21T19:16:30Z</time>
      </trkpt>
      <trkpt lat="48.5513" lon="-0.08201">
        <ele>295</ele>
        <time>2022-05-21T19:16:36Z</time>
      </trkpt>
      <trkpt lat="48.5515" lon="-0.08198">
        <ele>296</ele>
        <time>2022-05-21T19:16:39Z</time>
      </trkpt>
      <trkpt lat="48.55168" lon="-0.08188">
        <ele>297</ele>
        <time>2022-05-21T19:16:43Z</time>
      </trkpt>
      <trkpt lat="48.55185" lon="-0.08173">
        <ele>298</ele>
        <time>2022-05-21T19:16:46Z</time>
      </trkpt>
      <trkpt lat="48.5519" lon="-0.08161">
        <ele>299</ele>
        <time>2022-05-21T19:16:48Z</time>
      </trkpt>
      <trkpt lat="48.5519" lon="-0.08132">
        <ele>300</ele>
        <time>2022-05-21T19:16:51Z</time>
      </trkpt>
      <trkpt lat="48.5518" lon="-0.08037">
        <ele>300</ele>
        <time>2022-05-21T19:17:03Z</time>
      </trkpt>
      <trkpt lat="48.55175" lon="-0.07937">
        <ele>298</ele>
        <time>2022-05-21T19:17:14Z</time>
      </trkpt>
      <trkpt lat="48.55179" lon="-0.07894">
        <ele>299</ele>
        <time>2022-05-21T19:17:19Z</time>
      </trkpt>
      <trkpt lat="48.55191" lon="-0.07824">
        <ele>301</ele>
        <time>2022-05-21T19:17:28Z</time>
      </trkpt>
      <trkpt lat="48.55189" lon="-0.07782">
        <ele>301</ele>
        <time>2022-05-21T19:17:33Z</time>
      </trkpt>
      <trkpt lat="48.55182" lon="-0.0774">
        <ele>300</ele>
        <time>2022-05-21T19:17:38Z</time>
      </trkpt>
      <trkpt lat="48.55183" lon="-0.07685">
        <ele>302</ele>
        <time>2022-05-21T19:17:45Z</time>
      </trkpt>
      <trkpt lat="48.55181" lon="-0.0767">
        <ele>302</ele>
        <time>2022-05-21T19:17:46Z</time>
      </trkpt>
      <trkpt lat="48.55175" lon="-0.07659">
        <ele>301</ele>
        <time>2022-05-21T19:17:48Z</time>
      </trkpt>
      <trkpt lat="48.55166" lon="-0.07656">
        <ele>300</ele>
        <time>2022-05-21T19:17:50Z</time>
      </trkpt>
      <trkpt lat="48.55157" lon="-0.07659">
        <ele>300</ele>
        <time>2022-05-21T19:17:51Z</time>
      </trkpt>
      <trkpt lat="48.5513" lon="-0.07674">
        <ele>298</ele>
        <time>2022-05-21T19:17:56Z</time>
      </trkpt>
      <trkpt lat="48.55122" lon="-0.07681">
        <ele>297</ele>
        <time>2022-05-21T19:17:58Z</time>
      </trkpt>
      <trkpt lat="48.55118" lon="-0.07693">
        <ele>297</ele>
        <time>2022-05-21T19:18:00Z</time>
      </trkpt>
      <trkpt lat="48.55178" lon="-0.07639">
        <ele>303</ele>
        <time>2022-05-21T19:18:12Z</time>
      </trkpt>
      <trkpt lat="48.55174" lon="-0.07595">
        <ele>304</ele>
        <time>2022-05-21T19:18:17Z</time>
      </trkpt>
      <trkpt lat="48.55169" lon="-0.0758">
        <ele>304</ele>
        <time>2022-05-21T19:18:19Z</time>
      </trkpt>
      <trkpt lat="48.55171" lon="-0.07563">
        <ele>305</ele>
        <time>2022-05-21T19:18:21Z</time>
      </trkpt>
      <trkpt lat="48.55192" lon="-0.07425">
        <ele>310</ele>
        <time>2022-05-21T19:18:38Z</time>
      </trkpt>
      <trkpt lat="48.55214" lon="-0.07352">
        <ele>313</ele>
        <time>2022-05-21T19:18:47Z</time>
      </trkpt>
      <trkpt lat="48.55216" lon="-0.07337">
        <ele>313</ele>
        <time>2022-05-21T19:18:49Z</time>
      </trkpt>
      <trkpt lat="48.55215" lon="-0.0732">
        <ele>314</ele>
        <time>2022-05-21T19:18:51Z</time>
      </trkpt>
      <trkpt lat="48.55196" lon="-0.0728">
        <ele>313</ele>
        <time>2022-05-21T19:18:57Z</time>
      </trkpt>
      <trkpt lat="48.55189" lon="-0.07191">
        <ele>317</ele>
        <time>2022-05-21T19:19:08Z</time>
      </trkpt>
      <trkpt lat="48.55191" lon="-0.07061">
        <ele>324</ele>
        <time>2022-05-21T19:19:23Z</time>
      </trkpt>
      <trkpt lat="48.55187" lon="-0.07032">
        <ele>324</ele>
        <time>2022-05-21T19:19:26Z</time>
      </trkpt>
      <trkpt lat="48.5519" lon="-0.07002">
        <ele>326</ele>
        <time>2022-05-21T19:19:30Z</time>
      </trkpt>
      <trkpt lat="48.55189" lon="-0.06916">
        <ele>326</ele>
        <time>2022-05-21T19:19:40Z</time>
      </trkpt>
      <trkpt lat="48.55192" lon="-0.06852">
        <ele>326</ele>
        <time>2022-05-21T19:19:48Z</time>
      </trkpt>
      <trkpt lat="48.55187" lon="-0.06786">
        <ele>324</ele>
        <time>2022-05-21T19:19:55Z</time>
      </trkpt>
      <trkpt lat="48.55186" lon="-0.0672">
        <ele>322</ele>
        <time>2022-05-21T19:20:03Z</time>
      </trkpt>
      <trkpt lat="48.55175" lon="-0.06606">
        <ele>321</ele>
        <time>2022-05-21T19:20:17Z</time>
      </trkpt>
      <trkpt lat="48.55177" lon="-0.06592">
        <ele>322</ele>
        <time>2022-05-21T19:20:19Z</time>
      </trkpt>
      <trkpt lat="48.55172" lon="-0.06526">
        <ele>322</ele>
        <time>2022-05-21T19:20:26Z</time>
      </trkpt>
      <trkpt lat="48.55175" lon="-0.06464">
        <ele>323</ele>
        <time>2022-05-21T19:20:34Z</time>
      </trkpt>
      <trkpt lat="48.55161" lon="-0.06199">
        <ele>321</ele>
        <time>2022-05-21T19:21:05Z</time>
      </trkpt>
      <trkpt lat="48.5516" lon="-0.06136">
        <ele>322</ele>
        <time>2022-05-21T19:21:12Z</time>
      </trkpt>
      <trkpt lat="48.55162" lon="-0.0612">
        <ele>322</ele>
        <time>2022-05-21T19:21:14Z</time>
      </trkpt>
      <trkpt lat="48.55161" lon="-0.06091">
        <ele>323</ele>
        <time>2022-05-21T19:21:18Z</time>
      </trkpt>
      <trkpt lat="48.55158" lon="-0.06076">
        <ele>323</ele>
        <time>2022-05-21T19:21:20Z</time>
      </trkpt>
      <trkpt lat="48.55159" lon="-0.06027">
        <ele>324</ele>
        <time>2022-05-21T19:21:25Z</time>
      </trkpt>
      <trkpt lat="48.55154" lon="-0.05973">
        <ele>324</ele>
        <time>2022-05-21T19:21:32Z</time>
      </trkpt>
      <trkpt lat="48.55145" lon="-0.05807">
        <ele>325</ele>
        <time>2022-05-21T19:21:51Z</time>
      </trkpt>
      <trkpt lat="48.55144" lon="-0.05771">
        <ele>325</ele>
        <time>2022-05-21T19:21:56Z</time>
      </trkpt>
      <trkpt lat="48.55147" lon="-0.05741">
        <ele>325</ele>
        <time>2022-05-21T19:21:59Z</time>
      </trkpt>
      <trkpt lat="48.55142" lon="-0.05676">
        <ele>325</ele>
        <time>2022-05-21T19:22:07Z</time>
      </trkpt>
      <trkpt lat="48.55142" lon="-0.05644">
        <ele>326</ele>
        <time>2022-05-21T19:22:11Z</time>
      </trkpt>
      <trkpt lat="48.55138" lon="-0.0563">
        <ele>326</ele>
        <time>2022-05-21T19:22:12Z</time>
      </trkpt>
      <trkpt lat="48.55135" lon="-0.05377">
        <ele>321</ele>
        <time>2022-05-21T19:22:42Z</time>
      </trkpt>
      <trkpt lat="48.55132" lon="-0.05357">
        <ele>320</ele>
        <time>2022-05-21T19:22:45Z</time>
      </trkpt>
      <trkpt lat="48.5512" lon="-0.05169">
        <ele>321</ele>
        <time>2022-05-21T19:23:07Z</time>
      </trkpt>
      <trkpt lat="48.55122" lon="-0.05049">
        <ele>319</ele>
        <time>2022-05-21T19:23:21Z</time>
      </trkpt>
      <trkpt lat="48.55117" lon="-0.04999">
        <ele>318</ele>
        <time>2022-05-21T19:23:27Z</time>
      </trkpt>
      <trkpt lat="48.55115" lon="-0.04912">
        <ele>320</ele>
        <time>2022-05-21T19:23:37Z</time>
      </trkpt>
      <trkpt lat="48.55117" lon="-0.04865">
        <ele>322</ele>
        <time>2022-05-21T19:23:43Z</time>
      </trkpt>
      <trkpt lat="48.55111" lon="-0.04789">
        <ele>322</ele>
        <time>2022-05-21T19:23:52Z</time>
      </trkpt>
      <trkpt lat="48.55112" lon="-0.04713">
        <ele>322</ele>
        <time>2022-05-21T19:24:01Z</time>
      </trkpt>
      <trkpt lat="48.55108" lon="-0.04686">
        <ele>322</ele>
        <time>2022-05-21T19:24:04Z</time>
      </trkpt>
      <trkpt lat="48.55106" lon="-0.04536">
        <ele>329</ele>
        <time>2022-05-21T19:24:22Z</time>
      </trkpt>
      <trkpt lat="48.55102" lon="-0.04494">
        <ele>331</ele>
        <time>2022-05-21T19:24:27Z</time>
      </trkpt>
      <trkpt lat="48.55102" lon="-0.04438">
        <ele>332</ele>
        <time>2022-05-21T19:24:33Z</time>
      </trkpt>
      <trkpt lat="48.55099" lon="-0.04425">
        <ele>332</ele>
        <time>2022-05-21T19:24:35Z</time>
      </trkpt>
      <trkpt lat="48.551" lon="-0.04409">
        <ele>332</ele>
        <time>2022-05-21T19:24:37Z</time>
      </trkpt>
      <trkpt lat="48.55097" lon="-0.04381">
        <ele>332</ele>
        <time>2022-05-21T19:24:40Z</time>
      </trkpt>
      <trkpt lat="48.55098" lon="-0.04263">
        <ele>336</ele>
        <time>2022-05-21T19:24:54Z</time>
      </trkpt>
      <trkpt lat="48.55094" lon="-0.04217">
        <ele>336</ele>
        <time>2022-05-21T19:25:00Z</time>
      </trkpt>
      <trkpt lat="48.55096" lon="-0.04187">
        <ele>337</ele>
        <time>2022-05-21T19:25:03Z</time>
      </trkpt>
      <trkpt lat="48.55094" lon="-0.04143">
        <ele>337</ele>
        <time>2022-05-21T19:25:08Z</time>
      </trkpt>
      <trkpt lat="48.5509" lon="-0.0413">
        <ele>337</ele>
        <time>2022-05-21T19:25:10Z</time>
      </trkpt>
      <trkpt lat="48.55092" lon="-0.04102">
        <ele>338</ele>
        <time>2022-05-21T19:25:13Z</time>
      </trkpt>
      <trkpt lat="48.5509" lon="-0.04056">
        <ele>337</ele>
        <time>2022-05-21T19:25:19Z</time>
      </trkpt>
      <trkpt lat="48.55082" lon="-0.03965">
        <ele>336</ele>
        <time>2022-05-21T19:25:30Z</time>
      </trkpt>
      <trkpt lat="48.55085" lon="-0.0372">
        <ele>342</ele>
        <time>2022-05-21T19:25:58Z</time>
      </trkpt>
      <trkpt lat="48.55081" lon="-0.03596">
        <ele>343</ele>
        <time>2022-05-21T19:26:13Z</time>
      </trkpt>
      <trkpt lat="48.55078" lon="-0.03565">
        <ele>343</ele>
        <time>2022-05-21T19:26:17Z</time>
      </trkpt>
      <trkpt lat="48.55081" lon="-0.03504">
        <ele>344</ele>
        <time>2022-05-21T19:26:24Z</time>
      </trkpt>
      <trkpt lat="48.5508" lon="-0.03437">
        <ele>341</ele>
        <time>2022-05-21T19:26:32Z</time>
      </trkpt>
      <trkpt lat="48.55068" lon="-0.03272">
        <ele>340</ele>
        <time>2022-05-21T19:26:51Z</time>
      </trkpt>
      <trkpt lat="48.55065" lon="-0.03241">
        <ele>340</ele>
        <time>2022-05-21T19:26:55Z</time>
      </trkpt>
      <trkpt lat="48.5506" lon="-0.03228">
        <ele>339</ele>
        <time>2022-05-21T19:26:57Z</time>
      </trkpt>
      <trkpt lat="48.55056" lon="-0.03169">
        <ele>339</ele>
        <time>2022-05-21T19:27:04Z</time>
      </trkpt>
      <trkpt lat="48.55055" lon="-0.03097">
        <ele>339</ele>
        <time>2022-05-21T19:27:12Z</time>
      </trkpt>
      <trkpt lat="48.55046" lon="-0.03095">
        <ele>338</ele>
        <time>2022-05-21T19:27:14Z</time>
      </trkpt>
      <trkpt lat="48.55045" lon="-0.03079">
        <ele>338</ele>
        <time>2022-05-21T19:27:16Z</time>
      </trkpt>
      <trkpt lat="48.55049" lon="-0.03048">
        <ele>339</ele>
        <time>2022-05-21T19:27:20Z</time>
      </trkpt>
      <trkpt lat="48.55046" lon="-0.03035">
        <ele>339</ele>
        <time>2022-05-21T19:27:21Z</time>
      </trkpt>
      <trkpt lat="48.55053" lon="-0.02976">
        <ele>340</ele>
        <time>2022-05-21T19:27:28Z</time>
      </trkpt>
      <trkpt lat="48.55048" lon="-0.02887">
        <ele>340</ele>
        <time>2022-05-21T19:27:39Z</time>
      </trkpt>
      <trkpt lat="48.5505" lon="-0.02827">
        <ele>340</ele>
        <time>2022-05-21T19:27:46Z</time>
      </trkpt>
      <trkpt lat="48.55045" lon="-0.02799">
        <ele>340</ele>
        <time>2022-05-21T19:27:49Z</time>
      </trkpt>
      <trkpt lat="48.55047" lon="-0.02736">
        <ele>341</ele>
        <time>2022-05-21T19:27:57Z</time>
      </trkpt>
      <trkpt lat="48.55046" lon="-0.02643">
        <ele>342</ele>
        <time>2022-05-21T19:28:08Z</time>
      </trkpt>
      <trkpt lat="48.55032" lon="-0.02385">
        <ele>344</ele>
        <time>2022-05-21T19:28:38Z</time>
      </trkpt>
      <trkpt lat="48.55034" lon="-0.02368">
        <ele>345</ele>
        <time>2022-05-21T19:28:40Z</time>
      </trkpt>
      <trkpt lat="48.55028" lon="-0.02271">
        <ele>343</ele>
        <time>2022-05-21T19:28:52Z</time>
      </trkpt>
      <trkpt lat="48.55024" lon="-0.02082">
        <ele>347</ele>
        <time>2022-05-21T19:29:14Z</time>
      </trkpt>
      <trkpt lat="48.55018" lon="-0.02053">
        <ele>348</ele>
        <time>2022-05-21T19:29:17Z</time>
      </trkpt>
      <trkpt lat="48.55018" lon="-0.01991">
        <ele>352</ele>
        <time>2022-05-21T19:29:25Z</time>
      </trkpt>
      <trkpt lat="48.55011" lon="-0.01832">
        <ele>356</ele>
        <time>2022-05-21T19:29:44Z</time>
      </trkpt>
      <trkpt lat="48.55006" lon="-0.01773">
        <ele>357</ele>
        <time>2022-05-21T19:29:51Z</time>
      </trkpt>
      <trkpt lat="48.55016" lon="-0.01773">
        <ele>358</ele>
        <time>2022-05-21T19:29:52Z</time>
      </trkpt>
      <trkpt lat="48.55001" lon="-0.01773">
        <ele>356</ele>
        <time>2022-05-21T19:29:55Z</time>
      </trkpt>
      <trkpt lat="48.54998" lon="-0.01793">
        <ele>355</ele>
        <time>2022-05-21T19:29:57Z</time>
      </trkpt>
      <trkpt lat="48.55002" lon="-0.01779">
        <ele>356</ele>
        <time>2022-05-21T19:29:59Z</time>
      </trkpt>
      <trkpt lat="48.5501" lon="-0.0177">
        <ele>357</ele>
        <time>2022-05-21T19:30:01Z</time>
      </trkpt>
      <trkpt lat="48.55057" lon="-0.01696">
        <ele>364</ele>
        <time>2022-05-21T19:30:13Z</time>
      </trkpt>
      <trkpt lat="48.55131" lon="-0.01569">
        <ele>372</ele>
        <time>2022-05-21T19:30:33Z</time>
      </trkpt>
      <trkpt lat="48.55161" lon="-0.01524">
        <ele>376</ele>
        <time>2022-05-21T19:30:40Z</time>
      </trkpt>
      <trkpt lat="48.55218" lon="-0.01423">
        <ele>385</ele>
        <time>2022-05-21T19:30:56Z</time>
      </trkpt>
      <trkpt lat="48.55232" lon="-0.01404">
        <ele>387</ele>
        <time>2022-05-21T19:30:59Z</time>
      </trkpt>
      <trkpt lat="48.55302" lon="-0.01287">
        <ele>399</ele>
        <time>2022-05-21T19:31:18Z</time>
      </trkpt>
      <trkpt lat="48.55326" lon="-0.0124">
        <ele>401</ele>
        <time>2022-05-21T19:31:25Z</time>
      </trkpt>
      <trkpt lat="48.55368" lon="-0.01174">
        <ele>403</ele>
        <time>2022-05-21T19:31:36Z</time>
      </trkpt>
      <trkpt lat="48.55401" lon="-0.0113">
        <ele>404</ele>
        <time>2022-05-21T19:31:44Z</time>
      </trkpt>
      <trkpt lat="48.55406" lon="-0.0108">
        <ele>402</ele>
        <time>2022-05-21T19:31:50Z</time>
      </trkpt>
      <trkpt lat="48.554" lon="-0.01005">
        <ele>401</ele>
        <time>2022-05-21T19:31:58Z</time>
      </trkpt>
      <trkpt lat="48.554" lon="-0.00961">
        <ele>401</ele>
        <time>2022-05-21T19:32:04Z</time>
      </trkpt>
      <trkpt lat="48.55392" lon="-0.00861">
        <ele>401</ele>
        <time>2022-05-21T19:32:16Z</time>
      </trkpt>
      <trkpt lat="48.55394" lon="-0.0084">
        <ele>401</ele>
        <time>2022-05-21T19:32:18Z</time>
      </trkpt>
      <trkpt lat="48.55391" lon="-0.00809">
        <ele>401</ele>
        <time>2022-05-21T19:32:22Z</time>
      </trkpt>
      <trkpt lat="48.55392" lon="-0.00787">
        <ele>401</ele>
        <time>2022-05-21T19:32:24Z</time>
      </trkpt>
      <trkpt lat="48.55388" lon="-0.00756">
        <ele>401</ele>
        <time>2022-05-21T19:32:28Z</time>
      </trkpt>
      <trkpt lat="48.5539" lon="-0.00737">
        <ele>401</ele>
        <time>2022-05-21T19:32:30Z</time>
      </trkpt>
      <trkpt lat="48.5538" lon="-0.00639">
        <ele>403</ele>
        <time>2022-05-21T19:32:42Z</time>
      </trkpt>
      <trkpt lat="48.55379" lon="-0.00577">
        <ele>402</ele>
        <time>2022-05-21T19:32:49Z</time>
      </trkpt>
      <trkpt lat="48.55374" lon="-0.00543">
        <ele>403</ele>
        <time>2022-05-21T19:32:53Z</time>
      </trkpt>
      <trkpt lat="48.55366" lon="-0.00437">
        <ele>404</ele>
        <time>2022-05-21T19:33:06Z</time>
      </trkpt>
      <trkpt lat="48.55365" lon="-0.00384">
        <ele>403</ele>
        <time>2022-05-21T19:33:12Z</time>
      </trkpt>
      <trkpt lat="48.55355" lon="-0.00237">
        <ele>399</ele>
        <time>2022-05-21T19:33:30Z</time>
      </trkpt>
      <trkpt lat="48.55356" lon="-0.00219">
        <ele>397</ele>
        <time>2022-05-21T19:33:32Z</time>
      </trkpt>
      <trkpt lat="48.5535" lon="-0.00164">
        <ele>395</ele>
        <time>2022-05-21T19:33:38Z</time>
      </trkpt>
      <trkpt lat="48.55349" lon="-0.00128">
        <ele>395</ele>
        <time>2022-05-21T19:33:43Z</time>
      </trkpt>
      <trkpt lat="48.55341" lon="-0.00085">
        <ele>397</ele>
        <time>2022-05-21T19:33:48Z</time>
      </trkpt>
      <trkpt lat="48.55339" lon="0.00039">
        <ele>397</ele>
        <time>2022-05-21T19:34:02Z</time>
      </trkpt>
      <trkpt lat="48.55333" lon="0.00089">
        <ele>396</ele>
        <time>2022-05-21T19:34:08Z</time>
      </trkpt>
      <trkpt lat="48.55331" lon="0.00138">
        <ele>395</ele>
        <time>2022-05-21T19:34:14Z</time>
      </trkpt>
      <trkpt lat="48.55323" lon="0.00186">
        <ele>395</ele>
        <time>2022-05-21T19:34:20Z</time>
      </trkpt>
      <trkpt lat="48.55324" lon="0.00235">
        <ele>395</ele>
        <time>2022-05-21T19:34:26Z</time>
      </trkpt>
      <trkpt lat="48.55316" lon="0.00366">
        <ele>395</ele>
        <time>2022-05-21T19:34:41Z</time>
      </trkpt>
      <trkpt lat="48.55313" lon="0.00385">
        <ele>395</ele>
        <time>2022-05-21T19:34:44Z</time>
      </trkpt>
      <trkpt lat="48.55313" lon="0.0045">
        <ele>395</ele>
        <time>2022-05-21T19:34:51Z</time>
      </trkpt>
      <trkpt lat="48.55304" lon="0.00545">
        <ele>395</ele>
        <time>2022-05-21T19:35:03Z</time>
      </trkpt>
      <trkpt lat="48.55302" lon="0.00599">
        <ele>395</ele>
        <time>2022-05-21T19:35:09Z</time>
      </trkpt>
      <trkpt lat="48.55292" lon="0.00725">
        <ele>396</ele>
        <time>2022-05-21T19:35:24Z</time>
      </trkpt>
      <trkpt lat="48.55287" lon="0.00758">
        <ele>396</ele>
        <time>2022-05-21T19:35:28Z</time>
      </trkpt>
      <trkpt lat="48.55288" lon="0.00776">
        <ele>396</ele>
        <time>2022-05-21T19:35:30Z</time>
      </trkpt>
      <trkpt lat="48.55283" lon="0.00829">
        <ele>396</ele>
        <time>2022-05-21T19:35:36Z</time>
      </trkpt>
      <trkpt lat="48.55284" lon="0.00845">
        <ele>397</ele>
        <time>2022-05-21T19:35:38Z</time>
      </trkpt>
      <trkpt lat="48.55277" lon="0.00891">
        <ele>397</ele>
        <time>2022-05-21T19:35:44Z</time>
      </trkpt>
      <trkpt lat="48.55275" lon="0.01056">
        <ele>401</ele>
        <time>2022-05-21T19:36:03Z</time>
      </trkpt>
      <trkpt lat="48.5527" lon="0.01104">
        <ele>401</ele>
        <time>2022-05-21T19:36:09Z</time>
      </trkpt>
      <trkpt lat="48.55273" lon="0.01169">
        <ele>402</ele>
        <time>2022-05-21T19:36:17Z</time>
      </trkpt>
      <trkpt lat="48.55266" lon="0.0123">
        <ele>402</ele>
        <time>2022-05-21T19:36:24Z</time>
      </trkpt>
      <trkpt lat="48.55264" lon="0.01278">
        <ele>402</ele>
        <time>2022-05-21T19:36:30Z</time>
      </trkpt>
      <trkpt lat="48.55257" lon="0.0133">
        <ele>401</ele>
        <time>2022-05-21T19:36:36Z</time>
      </trkpt>
      <trkpt lat="48.55259" lon="0.01363">
        <ele>401</ele>
        <time>2022-05-21T19:36:40Z</time>
      </trkpt>
      <trkpt lat="48.55254" lon="0.01381">
        <ele>401</ele>
        <time>2022-05-21T19:36:42Z</time>
      </trkpt>
      <trkpt lat="48.5525" lon="0.0145">
        <ele>401</ele>
        <time>2022-05-21T19:36:50Z</time>
      </trkpt>
      <trkpt lat="48.55242" lon="0.01505">
        <ele>400</ele>
        <time>2022-05-21T19:36:57Z</time>
      </trkpt>
      <trkpt lat="48.55238" lon="0.0158">
        <ele>401</ele>
        <time>2022-05-21T19:37:06Z</time>
      </trkpt>
      <trkpt lat="48.5523" lon="0.01612">
        <ele>401</ele>
        <time>2022-05-21T19:37:10Z</time>
      </trkpt>
      <trkpt lat="48.55229" lon="0.01663">
        <ele>402</ele>
        <time>2022-05-21T19:37:16Z</time>
      </trkpt>
      <trkpt lat="48.55221" lon="0.01731">
        <ele>402</ele>
        <time>2022-05-21T19:37:24Z</time>
      </trkpt>
      <trkpt lat="48.55219" lon="0.01801">
        <ele>401</ele>
        <time>2022-05-21T19:37:32Z</time>
      </trkpt>
      <trkpt lat="48.55216" lon="0.01816">
        <ele>401</ele>
        <time>2022-05-21T19:37:34Z</time>
      </trkpt>
      <trkpt lat="48.55218" lon="0.01863">
        <ele>401</ele>
        <time>2022-05-21T19:37:39Z</time>
      </trkpt>
      <trkpt lat="48.55212" lon="0.01975">
        <ele>402</ele>
        <time>2022-05-21T19:37:53Z</time>
      </trkpt>
      <trkpt lat="48.55204" lon="0.02026">
        <ele>402</ele>
        <time>2022-05-21T19:37:59Z</time>
      </trkpt>
      <trkpt lat="48.55189" lon="0.02179">
        <ele>403</ele>
        <time>2022-05-21T19:38:17Z</time>
      </trkpt>
      <trkpt lat="48.55182" lon="0.02311">
        <ele>403</ele>
        <time>2022-05-21T19:38:33Z</time>
      </trkpt>
      <trkpt lat="48.5517" lon="0.02458">
        <ele>402</ele>
        <time>2022-05-21T19:38:50Z</time>
      </trkpt>
      <trkpt lat="48.55171" lon="0.02527">
        <ele>401</ele>
        <time>2022-05-21T19:38:58Z</time>
      </trkpt>
      <trkpt lat="48.55167" lon="0.02574">
        <ele>400</ele>
        <time>2022-05-21T19:39:04Z</time>
      </trkpt>
      <trkpt lat="48.55169" lon="0.0259">
        <ele>400</ele>
        <time>2022-05-21T19:39:06Z</time>
      </trkpt>
      <trkpt lat="48.55167" lon="0.02622">
        <ele>400</ele>
        <time>2022-05-21T19:39:10Z</time>
      </trkpt>
      <trkpt lat="48.5516" lon="0.02704">
        <ele>401</ele>
        <time>2022-05-21T19:39:19Z</time>
      </trkpt>
      <trkpt lat="48.55149" lon="0.02784">
        <ele>401</ele>
        <time>2022-05-21T19:39:29Z</time>
      </trkpt>
      <trkpt lat="48.55149" lon="0.02818">
        <ele>400</ele>
        <time>2022-05-21T19:39:33Z</time>
      </trkpt>
      <trkpt lat="48.55145" lon="0.02846">
        <ele>400</ele>
        <time>2022-05-21T19:39:36Z</time>
      </trkpt>
      <trkpt lat="48.5514" lon="0.0295">
        <ele>401</ele>
        <time>2022-05-21T19:39:49Z</time>
      </trkpt>
      <trkpt lat="48.55119" lon="0.0322">
        <ele>407</ele>
        <time>2022-05-21T19:40:21Z</time>
      </trkpt>
      <trkpt lat="48.55103" lon="0.03477">
        <ele>409</ele>
        <time>2022-05-21T19:40:51Z</time>
      </trkpt>
      <trkpt lat="48.55098" lon="0.03522">
        <ele>408</ele>
        <time>2022-05-21T19:40:56Z</time>
      </trkpt>
      <trkpt lat="48.55083" lon="0.03804">
        <ele>406</ele>
        <time>2022-05-21T19:41:30Z</time>
      </trkpt>
      <trkpt lat="48.55081" lon="0.03958">
        <ele>397</ele>
        <time>2022-05-21T19:41:48Z</time>
      </trkpt>
      <trkpt lat="48.55075" lon="0.04107">
        <ele>391</ele>
        <time>2022-05-21T19:42:05Z</time>
      </trkpt>
      <trkpt lat="48.5507" lon="0.04153">
        <ele>390</ele>
        <time>2022-05-21T19:42:11Z</time>
      </trkpt>
      <trkpt lat="48.5506" lon="0.04166">
        <ele>390</ele>
        <time>2022-05-21T19:42:13Z</time>
      </trkpt>
      <trkpt lat="48.5505" lon="0.04387">
        <ele>392</ele>
        <time>2022-05-21T19:42:39Z</time>
      </trkpt>
      <trkpt lat="48.55052" lon="0.04408">
        <ele>392</ele>
        <time>2022-05-21T19:42:42Z</time>
      </trkpt>
      <trkpt lat="48.55052" lon="0.04527">
        <ele>396</ele>
        <time>2022-05-21T19:42:56Z</time>
      </trkpt>
      <trkpt lat="48.55056" lon="0.04576">
        <ele>397</ele>
        <time>2022-05-21T19:43:02Z</time>
      </trkpt>
      <trkpt lat="48.55056" lon="0.0464">
        <ele>398</ele>
        <time>2022-05-21T19:43:09Z</time>
      </trkpt>
      <trkpt lat="48.55052" lon="0.04671">
        <ele>399</ele>
        <time>2022-05-21T19:43:13Z</time>
      </trkpt>
      <trkpt lat="48.55048" lon="0.04754">
        <ele>400</ele>
        <time>2022-05-21T19:43:23Z</time>
      </trkpt>
      <trkpt lat="48.55043" lon="0.04782">
        <ele>400</ele>
        <time>2022-05-21T19:43:26Z</time>
      </trkpt>
      <trkpt lat="48.55039" lon="0.04797">
        <ele>400</ele>
        <time>2022-05-21T19:43:28Z</time>
      </trkpt>
      <trkpt lat="48.55024" lon="0.04818">
        <ele>400</ele>
        <time>2022-05-21T19:43:32Z</time>
      </trkpt>
      <trkpt lat="48.55018" lon="0.04834">
        <ele>400</ele>
        <time>2022-05-21T19:43:34Z</time>
      </trkpt>
      <trkpt lat="48.55019" lon="0.04848">
        <ele>400</ele>
        <time>2022-05-21T19:43:35Z</time>
      </trkpt>
      <trkpt lat="48.55029" lon="0.04856">
        <ele>400</ele>
        <time>2022-05-21T19:43:37Z</time>
      </trkpt>
      <trkpt lat="48.55036" lon="0.04866">
        <ele>400</ele>
        <time>2022-05-21T19:43:39Z</time>
      </trkpt>
      <trkpt lat="48.55041" lon="0.0488">
        <ele>400</ele>
        <time>2022-05-21T19:43:41Z</time>
      </trkpt>
      <trkpt lat="48.55031" lon="0.04886">
        <ele>401</ele>
        <time>2022-05-21T19:43:43Z</time>
      </trkpt>
      <trkpt lat="48.55024" lon="0.04939">
        <ele>402</ele>
        <time>2022-05-21T19:43:49Z</time>
      </trkpt>
      <trkpt lat="48.55018" lon="0.05048">
        <ele>401</ele>
        <time>2022-05-21T19:44:02Z</time>
      </trkpt>
      <trkpt lat="48.55019" lon="0.05082">
        <ele>400</ele>
        <time>2022-05-21T19:44:06Z</time>
      </trkpt>
      <trkpt lat="48.55014" lon="0.05132">
        <ele>399</ele>
        <time>2022-05-21T19:44:12Z</time>
      </trkpt>
      <trkpt lat="48.55016" lon="0.05151">
        <ele>399</ele>
        <time>2022-05-21T19:44:14Z</time>
      </trkpt>
      <trkpt lat="48.55013" lon="0.05182">
        <ele>398</ele>
        <time>2022-05-21T19:44:18Z</time>
      </trkpt>
      <trkpt lat="48.55013" lon="0.05224">
        <ele>397</ele>
        <time>2022-05-21T19:44:23Z</time>
      </trkpt>
      <trkpt lat="48.55003" lon="0.05361">
        <ele>392</ele>
        <time>2022-05-21T19:44:39Z</time>
      </trkpt>
      <trkpt lat="48.55002" lon="0.05418">
        <ele>389</ele>
        <time>2022-05-21T19:44:46Z</time>
      </trkpt>
      <trkpt lat="48.54996" lon="0.05459">
        <ele>388</ele>
        <time>2022-05-21T19:44:51Z</time>
      </trkpt>
      <trkpt lat="48.54992" lon="0.0555">
        <ele>383</ele>
        <time>2022-05-21T19:45:02Z</time>
      </trkpt>
      <trkpt lat="48.54998" lon="0.05605">
        <ele>379</ele>
        <time>2022-05-21T19:45:08Z</time>
      </trkpt>
      <trkpt lat="48.55014" lon="0.05662">
        <ele>375</ele>
        <time>2022-05-21T19:45:16Z</time>
      </trkpt>
      <trkpt lat="48.5502" lon="0.05709">
        <ele>370</ele>
        <time>2022-05-21T19:45:21Z</time>
      </trkpt>
      <trkpt lat="48.55015" lon="0.05741">
        <ele>367</ele>
        <time>2022-05-21T19:45:25Z</time>
      </trkpt>
      <trkpt lat="48.54981" lon="0.058">
        <ele>362</ele>
        <time>2022-05-21T19:45:34Z</time>
      </trkpt>
      <trkpt lat="48.54974" lon="0.0584">
        <ele>360</ele>
        <time>2022-05-21T19:45:39Z</time>
      </trkpt>
      <trkpt lat="48.54971" lon="0.0594">
        <ele>356</ele>
        <time>2022-05-21T19:45:51Z</time>
      </trkpt>
      <trkpt lat="48.54974" lon="0.05963">
        <ele>354</ele>
        <time>2022-05-21T19:45:54Z</time>
      </trkpt>
      <trkpt lat="48.55017" lon="0.06076">
        <ele>352</ele>
        <time>2022-05-21T19:46:09Z</time>
      </trkpt>
      <trkpt lat="48.55021" lon="0.06107">
        <ele>352</ele>
        <time>2022-05-21T19:46:13Z</time>
      </trkpt>
      <trkpt lat="48.55012" lon="0.06138">
        <ele>348</ele>
        <time>2022-05-21T19:46:17Z</time>
      </trkpt>
      <trkpt lat="48.5496" lon="0.06191">
        <ele>337</ele>
        <time>2022-05-21T19:46:28Z</time>
      </trkpt>
      <trkpt lat="48.54951" lon="0.06207">
        <ele>336</ele>
        <time>2022-05-21T19:46:30Z</time>
      </trkpt>
      <trkpt lat="48.54947" lon="0.06227">
        <ele>335</ele>
        <time>2022-05-21T19:46:33Z</time>
      </trkpt>
      <trkpt lat="48.54949" lon="0.06261">
        <ele>335</ele>
        <time>2022-05-21T19:46:37Z</time>
      </trkpt>
      <trkpt lat="48.54935" lon="0.06524">
        <ele>331</ele>
        <time>2022-05-21T19:47:08Z</time>
      </trkpt>
      <trkpt lat="48.54929" lon="0.06712">
        <ele>339</ele>
        <time>2022-05-21T19:47:30Z</time>
      </trkpt>
      <trkpt lat="48.54911" lon="0.06972">
        <ele>349</ele>
        <time>2022-05-21T19:48:01Z</time>
      </trkpt>
      <trkpt lat="48.54904" lon="0.07148">
        <ele>348</ele>
        <time>2022-05-21T19:48:22Z</time>
      </trkpt>
      <trkpt lat="48.54894" lon="0.07298">
        <ele>352</ele>
        <time>2022-05-21T19:48:39Z</time>
      </trkpt>
      <trkpt lat="48.5489" lon="0.07422">
        <ele>355</ele>
        <time>2022-05-21T19:48:54Z</time>
      </trkpt>
      <trkpt lat="48.54886" lon="0.07451">
        <ele>357</ele>
        <time>2022-05-21T19:48:58Z</time>
      </trkpt>
      <trkpt lat="48.54884" lon="0.07513">
        <ele>361</ele>
        <time>2022-05-21T19:49:05Z</time>
      </trkpt>
      <trkpt lat="48.54875" lon="0.07594">
        <ele>363</ele>
        <time>2022-05-21T19:49:15Z</time>
      </trkpt>
      <trkpt lat="48.54876" lon="0.07614">
        <ele>363</ele>
        <time>2022-05-21T19:49:17Z</time>
      </trkpt>
      <trkpt lat="48.54867" lon="0.07772">
        <ele>361</ele>
        <time>2022-05-21T19:49:36Z</time>
      </trkpt>
      <trkpt lat="48.54868" lon="0.07792">
        <ele>361</ele>
        <time>2022-05-21T19:49:38Z</time>
      </trkpt>
      <trkpt lat="48.54861" lon="0.07869">
        <ele>361</ele>
        <time>2022-05-21T19:49:47Z</time>
      </trkpt>
      <trkpt lat="48.54859" lon="0.07919">
        <ele>361</ele>
        <time>2022-05-21T19:49:53Z</time>
      </trkpt>
      <trkpt lat="48.54861" lon="0.07934">
        <ele>362</ele>
        <time>2022-05-21T19:49:55Z</time>
      </trkpt>
      <trkpt lat="48.54857" lon="0.07947">
        <ele>361</ele>
        <time>2022-05-21T19:49:57Z</time>
      </trkpt>
      <trkpt lat="48.54854" lon="0.07993">
        <ele>362</ele>
        <time>2022-05-21T19:50:02Z</time>
      </trkpt>
      <trkpt lat="48.54856" lon="0.08007">
        <ele>362</ele>
        <time>2022-05-21T19:50:04Z</time>
      </trkpt>
      <trkpt lat="48.54851" lon="0.08037">
        <ele>361</ele>
        <time>2022-05-21T19:50:07Z</time>
      </trkpt>
      <trkpt lat="48.5485" lon="0.08069">
        <ele>360</ele>
        <time>2022-05-21T19:50:11Z</time>
      </trkpt>
      <trkpt lat="48.54844" lon="0.08081">
        <ele>360</ele>
        <time>2022-05-21T19:50:13Z</time>
      </trkpt>
      <trkpt lat="48.54844" lon="0.08171">
        <ele>362</ele>
        <time>2022-05-21T19:50:23Z</time>
      </trkpt>
      <trkpt lat="48.54838" lon="0.08283">
        <ele>363</ele>
        <time>2022-05-21T19:50:37Z</time>
      </trkpt>
      <trkpt lat="48.54829" lon="0.08388">
        <ele>363</ele>
        <time>2022-05-21T19:50:49Z</time>
      </trkpt>
      <trkpt lat="48.54826" lon="0.08494">
        <ele>363</ele>
        <time>2022-05-21T19:51:02Z</time>
      </trkpt>
      <trkpt lat="48.54807" lon="0.08777">
        <ele>360</ele>
        <time>2022-05-21T19:51:35Z</time>
      </trkpt>
      <trkpt lat="48.5481" lon="0.08827">
        <ele>360</ele>
        <time>2022-05-21T19:51:41Z</time>
      </trkpt>
      <trkpt lat="48.54803" lon="0.08907">
        <ele>360</ele>
        <time>2022-05-21T19:51:51Z</time>
      </trkpt>
      <trkpt lat="48.54802" lon="0.08955">
        <ele>361</ele>
        <time>2022-05-21T19:51:56Z</time>
      </trkpt>
      <trkpt lat="48.54792" lon="0.09057">
        <ele>362</ele>
        <time>2022-05-21T19:52:08Z</time>
      </trkpt>
      <trkpt lat="48.54777" lon="0.09378">
        <ele>367</ele>
        <time>2022-05-21T19:52:46Z</time>
      </trkpt>
      <trkpt lat="48.54762" lon="0.09554">
        <ele>365</ele>
        <time>2022-05-21T19:53:07Z</time>
      </trkpt>
      <trkpt lat="48.54762" lon="0.09615">
        <ele>365</ele>
        <time>2022-05-21T19:53:14Z</time>
      </trkpt>
      <trkpt lat="48.54749" lon="0.09827">
        <ele>362</ele>
        <time>2022-05-21T19:53:39Z</time>
      </trkpt>
      <trkpt lat="48.54749" lon="0.09861">
        <ele>361</ele>
        <time>2022-05-21T19:53:43Z</time>
      </trkpt>
      <trkpt lat="48.54718" lon="0.10263">
        <ele>347</ele>
        <time>2022-05-21T19:54:31Z</time>
      </trkpt>
      <trkpt lat="48.54717" lon="0.10323">
        <ele>344</ele>
        <time>2022-05-21T19:54:38Z</time>
      </trkpt>
      <trkpt lat="48.54713" lon="0.10354">
        <ele>341</ele>
        <time>2022-05-21T19:54:42Z</time>
      </trkpt>
      <trkpt lat="48.54714" lon="0.10375">
        <ele>340</ele>
        <time>2022-05-21T19:54:44Z</time>
      </trkpt>
      <trkpt lat="48.54716" lon="0.10392">
        <ele>339</ele>
        <time>2022-05-21T19:54:46Z</time>
      </trkpt>
      <trkpt lat="48.5479" lon="0.10687">
        <ele>333</ele>
        <time>2022-05-21T19:55:24Z</time>
      </trkpt>
      <trkpt lat="48.54797" lon="0.10728">
        <ele>334</ele>
        <time>2022-05-21T19:55:29Z</time>
      </trkpt>
      <trkpt lat="48.54823" lon="0.1082">
        <ele>332</ele>
        <time>2022-05-21T19:55:40Z</time>
      </trkpt>
      <trkpt lat="48.54823" lon="0.10837">
        <ele>332</ele>
        <time>2022-05-21T19:55:42Z</time>
      </trkpt>
      <trkpt lat="48.5483" lon="0.10865">
        <ele>331</ele>
        <time>2022-05-21T19:55:46Z</time>
      </trkpt>
      <trkpt lat="48.54836" lon="0.10877">
        <ele>330</ele>
        <time>2022-05-21T19:55:48Z</time>
      </trkpt>
      <trkpt lat="48.54845" lon="0.10939">
        <ele>328</ele>
        <time>2022-05-21T19:55:55Z</time>
      </trkpt>
      <trkpt lat="48.54874" lon="0.10972">
        <ele>326</ele>
        <time>2022-05-21T19:56:02Z</time>
      </trkpt>
      <trkpt lat="48.54895" lon="0.10991">
        <ele>325</ele>
        <time>2022-05-21T19:56:06Z</time>
      </trkpt>
      <trkpt lat="48.54904" lon="0.11008">
        <ele>324</ele>
        <time>2022-05-21T19:56:09Z</time>
      </trkpt>
      <trkpt lat="48.55007" lon="0.11114">
        <ele>311</ele>
        <time>2022-05-21T19:56:31Z</time>
      </trkpt>
      <trkpt lat="48.55014" lon="0.11126">
        <ele>310</ele>
        <time>2022-05-21T19:56:33Z</time>
      </trkpt>
      <trkpt lat="48.55048" lon="0.11153">
        <ele>306</ele>
        <time>2022-05-21T19:56:39Z</time>
      </trkpt>
      <trkpt lat="48.55098" lon="0.11185">
        <ele>301</ele>
        <time>2022-05-21T19:56:49Z</time>
      </trkpt>
      <trkpt lat="48.55117" lon="0.112">
        <ele>301</ele>
        <time>2022-05-21T19:56:53Z</time>
      </trkpt>
      <trkpt lat="48.55135" lon="0.11218">
        <ele>300</ele>
        <time>2022-05-21T19:56:57Z</time>
      </trkpt>
      <trkpt lat="48.55167" lon="0.11266">
        <ele>300</ele>
        <time>2022-05-21T19:57:05Z</time>
      </trkpt>
      <trkpt lat="48.55177" lon="0.11277">
        <ele>300</ele>
        <time>2022-05-21T19:57:07Z</time>
      </trkpt>
      <trkpt lat="48.55207" lon="0.11299">
        <ele>297</ele>
        <time>2022-05-21T19:57:13Z</time>
      </trkpt>
      <trkpt lat="48.55218" lon="0.11303">
        <ele>295</ele>
        <time>2022-05-21T19:57:15Z</time>
      </trkpt>
      <trkpt lat="48.55321" lon="0.11315">
        <ele>287</ele>
        <time>2022-05-21T19:57:33Z</time>
      </trkpt>
      <trkpt lat="48.55355" lon="0.11308">
        <ele>286</ele>
        <time>2022-05-21T19:57:39Z</time>
      </trkpt>
      <trkpt lat="48.55374" lon="0.113">
        <ele>286</ele>
        <time>2022-05-21T19:57:43Z</time>
      </trkpt>
      <trkpt lat="48.55442" lon="0.1125">
        <ele>283</ele>
        <time>2022-05-21T19:57:56Z</time>
      </trkpt>
      <trkpt lat="48.55481" lon="0.11218">
        <ele>279</ele>
        <time>2022-05-21T19:58:04Z</time>
      </trkpt>
      <trkpt lat="48.55488" lon="0.11209">
        <ele>279</ele>
        <time>2022-05-21T19:58:06Z</time>
      </trkpt>
      <trkpt lat="48.55525" lon="0.11181">
        <ele>273</ele>
        <time>2022-05-21T19:58:13Z</time>
      </trkpt>
      <trkpt lat="48.55595" lon="0.11146">
        <ele>264</ele>
        <time>2022-05-21T19:58:26Z</time>
      </trkpt>
      <trkpt lat="48.55604" lon="0.11139">
        <ele>264</ele>
        <time>2022-05-21T19:58:28Z</time>
      </trkpt>
      <trkpt lat="48.55661" lon="0.11112">
        <ele>260</ele>
        <time>2022-05-21T19:58:39Z</time>
      </trkpt>
      <trkpt lat="48.55714" lon="0.1108">
        <ele>258</ele>
        <time>2022-05-21T19:58:49Z</time>
      </trkpt>
      <trkpt lat="48.55748" lon="0.11031">
        <ele>256</ele>
        <time>2022-05-21T19:58:57Z</time>
      </trkpt>
      <trkpt lat="48.55771" lon="0.10989">
        <ele>256</ele>
        <time>2022-05-21T19:59:04Z</time>
      </trkpt>
      <trkpt lat="48.55786" lon="0.10972">
        <ele>255</ele>
        <time>2022-05-21T19:59:07Z</time>
      </trkpt>
      <trkpt lat="48.55801" lon="0.10963">
        <ele>255</ele>
        <time>2022-05-21T19:59:10Z</time>
      </trkpt>
      <trkpt lat="48.5587" lon="0.10964">
        <ele>257</ele>
        <time>2022-05-21T19:59:22Z</time>
      </trkpt>
      <trkpt lat="48.5591" lon="0.10968">
        <ele>260</ele>
        <time>2022-05-21T19:59:29Z</time>
      </trkpt>
      <trkpt lat="48.55929" lon="0.1096">
        <ele>261</ele>
        <time>2022-05-21T19:59:33Z</time>
      </trkpt>
      <trkpt lat="48.55964" lon="0.10908">
        <ele>264</ele>
        <time>2022-05-21T19:59:42Z</time>
      </trkpt>
      <trkpt lat="48.56006" lon="0.10868">
        <ele>266</ele>
        <time>2022-05-21T19:59:50Z</time>
      </trkpt>
      <trkpt lat="48.56026" lon="0.10854">
        <ele>267</ele>
        <time>2022-05-21T19:59:54Z</time>
      </trkpt>
      <trkpt lat="48.5604" lon="0.10835">
        <ele>267</ele>
        <time>2022-05-21T19:59:58Z</time>
      </trkpt>
      <trkpt lat="48.56058" lon="0.1082">
        <ele>268</ele>
        <time>2022-05-21T20:00:01Z</time>
      </trkpt>
      <trkpt lat="48.56066" lon="0.10809">
        <ele>268</ele>
        <time>2022-05-21T20:00:03Z</time>
      </trkpt>
      <trkpt lat="48.56095" lon="0.10787">
        <ele>268</ele>
        <time>2022-05-21T20:00:09Z</time>
      </trkpt>
      <trkpt lat="48.56115" lon="0.10775">
        <ele>267</ele>
        <time>2022-05-21T20:00:13Z</time>
      </trkpt>
      <trkpt lat="48.56127" lon="0.10772">
        <ele>266</ele>
        <time>2022-05-21T20:00:15Z</time>
      </trkpt>
      <trkpt lat="48.5614" lon="0.10781">
        <ele>266</ele>
        <time>2022-05-21T20:00:18Z</time>
      </trkpt>
      <trkpt lat="48.56147" lon="0.10817">
        <ele>266</ele>
        <time>2022-05-21T20:00:22Z</time>
      </trkpt>
      <trkpt lat="48.56174" lon="0.10911">
        <ele>264</ele>
        <time>2022-05-21T20:00:34Z</time>
      </trkpt>
      <trkpt lat="48.56196" lon="0.1096">
        <ele>263</ele>
        <time>2022-05-21T20:00:41Z</time>
      </trkpt>
      <trkpt lat="48.56223" lon="0.11011">
        <ele>263</ele>
        <time>2022-05-21T20:00:49Z</time>
      </trkpt>
      <trkpt lat="48.56238" lon="0.11068">
        <ele>264</ele>
        <time>2022-05-21T20:00:56Z</time>
      </trkpt>
      <trkpt lat="48.56247" lon="0.11152">
        <ele>262</ele>
        <time>2022-05-21T20:01:06Z</time>
      </trkpt>
      <trkpt lat="48.56263" lon="0.11232">
        <ele>259</ele>
        <time>2022-05-21T20:01:16Z</time>
      </trkpt>
      <trkpt lat="48.56277" lon="0.11358">
        <ele>255</ele>
        <time>2022-05-21T20:01:31Z</time>
      </trkpt>
      <trkpt lat="48.56289" lon="0.11417">
        <ele>253</ele>
        <time>2022-05-21T20:01:38Z</time>
      </trkpt>
      <trkpt lat="48.56292" lon="0.11458">
        <ele>252</ele>
        <time>2022-05-21T20:01:43Z</time>
      </trkpt>
      <trkpt lat="48.56298" lon="0.11681">
        <ele>248</ele>
        <time>2022-05-21T20:02:09Z</time>
      </trkpt>
      <trkpt lat="48.56304" lon="0.11747">
        <ele>245</ele>
        <time>2022-05-21T20:02:17Z</time>
      </trkpt>
      <trkpt lat="48.56318" lon="0.11854">
        <ele>242</ele>
        <time>2022-05-21T20:02:30Z</time>
      </trkpt>
      <trkpt lat="48.56381" lon="0.12111">
        <ele>235</ele>
        <time>2022-05-21T20:03:02Z</time>
      </trkpt>
      <trkpt lat="48.56408" lon="0.12185">
        <ele>232</ele>
        <time>2022-05-21T20:03:12Z</time>
      </trkpt>
      <trkpt lat="48.56419" lon="0.12273">
        <ele>232</ele>
        <time>2022-05-21T20:03:23Z</time>
      </trkpt>
      <trkpt lat="48.56418" lon="0.12291">
        <ele>231</ele>
        <time>2022-05-21T20:03:25Z</time>
      </trkpt>
      <trkpt lat="48.56423" lon="0.12312">
        <ele>231</ele>
        <time>2022-05-21T20:03:27Z</time>
      </trkpt>
      <trkpt lat="48.56456" lon="0.12425">
        <ele>228</ele>
        <time>2022-05-21T20:03:42Z</time>
      </trkpt>
      <trkpt lat="48.56466" lon="0.12451">
        <ele>227</ele>
        <time>2022-05-21T20:03:46Z</time>
      </trkpt>
      <trkpt lat="48.56478" lon="0.1243">
        <ele>227</ele>
        <time>2022-05-21T20:03:49Z</time>
      </trkpt>
      <trkpt lat="48.56502" lon="0.12422">
        <ele>226</ele>
        <time>2022-05-21T20:03:53Z</time>
      </trkpt>
      <trkpt lat="48.56533" lon="0.12405">
        <ele>224</ele>
        <time>2022-05-21T20:03:59Z</time>
      </trkpt>
      <trkpt lat="48.56543" lon="0.1239">
        <ele>223</ele>
        <time>2022-05-21T20:04:02Z</time>
      </trkpt>
      <trkpt lat="48.56564" lon="0.1237">
        <ele>222</ele>
        <time>2022-05-21T20:04:06Z</time>
      </trkpt>
      <trkpt lat="48.566" lon="0.1236">
        <ele>220</ele>
        <time>2022-05-21T20:04:12Z</time>
      </trkpt>
      <trkpt lat="48.56627" lon="0.12346">
        <ele>220</ele>
        <time>2022-05-21T20:04:18Z</time>
      </trkpt>
      <trkpt lat="48.56703" lon="0.12281">
        <ele>223</ele>
        <time>2022-05-21T20:04:33Z</time>
      </trkpt>
      <trkpt lat="48.56716" lon="0.1228">
        <ele>223</ele>
        <time>2022-05-21T20:04:35Z</time>
      </trkpt>
      <trkpt lat="48.56724" lon="0.12286">
        <ele>223</ele>
        <time>2022-05-21T20:04:37Z</time>
      </trkpt>
      <trkpt lat="48.56732" lon="0.12307">
        <ele>222</ele>
        <time>2022-05-21T20:04:40Z</time>
      </trkpt>
      <trkpt lat="48.56744" lon="0.12305">
        <ele>222</ele>
        <time>2022-05-21T20:04:42Z</time>
      </trkpt>
      <trkpt lat="48.56755" lon="0.12297">
        <ele>223</ele>
        <time>2022-05-21T20:04:44Z</time>
      </trkpt>
      <trkpt lat="48.56801" lon="0.12234">
        <ele>226</ele>
        <time>2022-05-21T20:04:55Z</time>
      </trkpt>
      <trkpt lat="48.56815" lon="0.1221">
        <ele>226</ele>
        <time>2022-05-21T20:04:59Z</time>
      </trkpt>
      <trkpt lat="48.56823" lon="0.12202">
        <ele>226</ele>
        <time>2022-05-21T20:05:01Z</time>
      </trkpt>
      <trkpt lat="48.56831" lon="0.12198">
        <ele>226</ele>
        <time>2022-05-21T20:05:02Z</time>
      </trkpt>
      <trkpt lat="48.56932" lon="0.12231">
        <ele>225</ele>
        <time>2022-05-21T20:05:21Z</time>
      </trkpt>
      <trkpt lat="48.56944" lon="0.12239">
        <ele>225</ele>
        <time>2022-05-21T20:05:23Z</time>
      </trkpt>
      <trkpt lat="48.5695" lon="0.12252">
        <ele>225</ele>
        <time>2022-05-21T20:05:25Z</time>
      </trkpt>
      <trkpt lat="48.56958" lon="0.12299">
        <ele>226</ele>
        <time>2022-05-21T20:05:31Z</time>
      </trkpt>
      <trkpt lat="48.56952" lon="0.12312">
        <ele>226</ele>
        <time>2022-05-21T20:05:32Z</time>
      </trkpt>
      <trkpt lat="48.56944" lon="0.12318">
        <ele>226</ele>
        <time>2022-05-21T20:05:34Z</time>
      </trkpt>
      <trkpt lat="48.56954" lon="0.1231">
        <ele>226</ele>
        <time>2022-05-21T20:05:36Z</time>
      </trkpt>
      <trkpt lat="48.56958" lon="0.12297">
        <ele>226</ele>
        <time>2022-05-21T20:05:38Z</time>
      </trkpt>
      <trkpt lat="48.56945" lon="0.12318">
        <ele>226</ele>
        <time>2022-05-21T20:05:41Z</time>
      </trkpt>
      <trkpt lat="48.56952" lon="0.12307">
        <ele>226</ele>
        <time>2022-05-21T20:05:43Z</time>
      </trkpt>
      <trkpt lat="48.56956" lon="0.12294">
        <ele>226</ele>
        <time>2022-05-21T20:05:45Z</time>
      </trkpt>
      <trkpt lat="48.56954" lon="0.12307">
        <ele>226</ele>
        <time>2022-05-21T20:05:46Z</time>
      </trkpt>
      <trkpt lat="48.56947" lon="0.12318">
        <ele>226</ele>
        <time>2022-05-21T20:05:48Z</time>
      </trkpt>
      <trkpt lat="48.56959" lon="0.12317">
        <ele>227</ele>
        <time>2022-05-21T20:05:50Z</time>
      </trkpt>
      <trkpt lat="48.56958" lon="0.12332">
        <ele>227</ele>
        <time>2022-05-21T20:05:52Z</time>
      </trkpt>
      <trkpt lat="48.56938" lon="0.12327">
        <ele>225</ele>
        <time>2022-05-21T20:05:55Z</time>
      </trkpt>
      <trkpt lat="48.56943" lon="0.12313">
        <ele>226</ele>
        <time>2022-05-21T20:05:57Z</time>
      </trkpt>
      <trkpt lat="48.56932" lon="0.12305">
        <ele>225</ele>
        <time>2022-05-21T20:05:59Z</time>
      </trkpt>
      <trkpt lat="48.56935" lon="0.12289">
        <ele>225</ele>
        <time>2022-05-21T20:06:01Z</time>
      </trkpt>
      <trkpt lat="48.56943" lon="0.12276">
        <ele>225</ele>
        <time>2022-05-21T20:06:04Z</time>
      </trkpt>
      <trkpt lat="48.56946" lon="0.12261">
        <ele>225</ele>
        <time>2022-05-21T20:06:05Z</time>
      </trkpt>
      <trkpt lat="48.56942" lon="0.12245">
        <ele>225</ele>
        <time>2022-05-21T20:06:07Z</time>
      </trkpt>
      <trkpt lat="48.56933" lon="0.12237">
        <ele>225</ele>
        <time>2022-05-21T20:06:09Z</time>
      </trkpt>
      <trkpt lat="48.56922" lon="0.12233">
        <ele>225</ele>
        <time>2022-05-21T20:06:11Z</time>
      </trkpt>
      <trkpt lat="48.56901" lon="0.12228">
        <ele>225</ele>
        <time>2022-05-21T20:06:15Z</time>
      </trkpt>
      <trkpt lat="48.56836" lon="0.12204">
        <ele>226</ele>
        <time>2022-05-21T20:06:27Z</time>
      </trkpt>
      <trkpt lat="48.56826" lon="0.12204">
        <ele>226</ele>
        <time>2022-05-21T20:06:29Z</time>
      </trkpt>
      <trkpt lat="48.56816" lon="0.1221">
        <ele>226</ele>
        <time>2022-05-21T20:06:31Z</time>
      </trkpt>
      <trkpt lat="48.56779" lon="0.12267">
        <ele>224</ele>
        <time>2022-05-21T20:06:40Z</time>
      </trkpt>
      <trkpt lat="48.56754" lon="0.12299">
        <ele>223</ele>
        <time>2022-05-21T20:06:46Z</time>
      </trkpt>
      <trkpt lat="48.56745" lon="0.12306">
        <ele>222</ele>
        <time>2022-05-21T20:06:48Z</time>
      </trkpt>
      <trkpt lat="48.56735" lon="0.12308">
        <ele>222</ele>
        <time>2022-05-21T20:06:49Z</time>
      </trkpt>
      <trkpt lat="48.56722" lon="0.12305">
        <ele>222</ele>
        <time>2022-05-21T20:06:52Z</time>
      </trkpt>
      <trkpt lat="48.56699" lon="0.12312">
        <ele>222</ele>
        <time>2022-05-21T20:06:56Z</time>
      </trkpt>
      <trkpt lat="48.56619" lon="0.12371">
        <ele>220</ele>
        <time>2022-05-21T20:07:12Z</time>
      </trkpt>
      <trkpt lat="48.566" lon="0.12383">
        <ele>220</ele>
        <time>2022-05-21T20:07:15Z</time>
      </trkpt>
      <trkpt lat="48.56577" lon="0.12392">
        <ele>221</ele>
        <time>2022-05-21T20:07:20Z</time>
      </trkpt>
      <trkpt lat="48.56556" lon="0.12405">
        <ele>223</ele>
        <time>2022-05-21T20:07:24Z</time>
      </trkpt>
      <trkpt lat="48.5652" lon="0.12437">
        <ele>225</ele>
        <time>2022-05-21T20:07:31Z</time>
      </trkpt>
      <trkpt lat="48.56502" lon="0.12447">
        <ele>227</ele>
        <time>2022-05-21T20:07:35Z</time>
      </trkpt>
      <trkpt lat="48.5647" lon="0.12458">
        <ele>227</ele>
        <time>2022-05-21T20:07:40Z</time>
      </trkpt>
      <trkpt lat="48.56467" lon="0.12471">
        <ele>227</ele>
        <time>2022-05-21T20:07:42Z</time>
      </trkpt>
      <trkpt lat="48.56481" lon="0.12509">
        <ele>228</ele>
        <time>2022-05-21T20:07:47Z</time>
      </trkpt>
      <trkpt lat="48.56529" lon="0.12619">
        <ele>225</ele>
        <time>2022-05-21T20:08:03Z</time>
      </trkpt>
      <trkpt lat="48.56558" lon="0.12716">
        <ele>223</ele>
        <time>2022-05-21T20:08:15Z</time>
      </trkpt>
      <trkpt lat="48.56584" lon="0.12779">
        <ele>221</ele>
        <time>2022-05-21T20:08:24Z</time>
      </trkpt>
      <trkpt lat="48.56596" lon="0.12816">
        <ele>220</ele>
        <time>2022-05-21T20:08:29Z</time>
      </trkpt>
      <trkpt lat="48.566" lon="0.12861">
        <ele>219</ele>
        <time>2022-05-21T20:08:34Z</time>
      </trkpt>
      <trkpt lat="48.56593" lon="0.12899">
        <ele>219</ele>
        <time>2022-05-21T20:08:39Z</time>
      </trkpt>
      <trkpt lat="48.56579" lon="0.12943">
        <ele>219</ele>
        <time>2022-05-21T20:08:45Z</time>
      </trkpt>
      <trkpt lat="48.56576" lon="0.12964">
        <ele>219</ele>
        <time>2022-05-21T20:08:47Z</time>
      </trkpt>
      <trkpt lat="48.56577" lon="0.12986">
        <ele>218</ele>
        <time>2022-05-21T20:08:50Z</time>
      </trkpt>
      <trkpt lat="48.56592" lon="0.13023">
        <ele>218</ele>
        <time>2022-05-21T20:08:55Z</time>
      </trkpt>
      <trkpt lat="48.5662" lon="0.13073">
        <ele>217</ele>
        <time>2022-05-21T20:09:02Z</time>
      </trkpt>
      <trkpt lat="48.56636" lon="0.13112">
        <ele>216</ele>
        <time>2022-05-21T20:09:08Z</time>
      </trkpt>
      <trkpt lat="48.56639" lon="0.13131">
        <ele>216</ele>
        <time>2022-05-21T20:09:10Z</time>
      </trkpt>
      <trkpt lat="48.56633" lon="0.13145">
        <ele>216</ele>
        <time>2022-05-21T20:09:12Z</time>
      </trkpt>
      <trkpt lat="48.56602" lon="0.13168">
        <ele>216</ele>
        <time>2022-05-21T20:09:18Z</time>
      </trkpt>
      <trkpt lat="48.56594" lon="0.13177">
        <ele>216</ele>
        <time>2022-05-21T20:09:20Z</time>
      </trkpt>
      <trkpt lat="48.56579" lon="0.13203">
        <ele>217</ele>
        <time>2022-05-21T20:09:24Z</time>
      </trkpt>
      <trkpt lat="48.5657" lon="0.13234">
        <ele>218</ele>
        <time>2022-05-21T20:09:28Z</time>
      </trkpt>
      <trkpt lat="48.56561" lon="0.13322">
        <ele>221</ele>
        <time>2022-05-21T20:09:39Z</time>
      </trkpt>
      <trkpt lat="48.56561" lon="0.13343">
        <ele>222</ele>
        <time>2022-05-21T20:09:41Z</time>
      </trkpt>
      <trkpt lat="48.56568" lon="0.13407">
        <ele>224</ele>
        <time>2022-05-21T20:09:49Z</time>
      </trkpt>
      <trkpt lat="48.5661" lon="0.13641">
        <ele>223</ele>
        <time>2022-05-21T20:10:17Z</time>
      </trkpt>
      <trkpt lat="48.56629" lon="0.13731">
        <ele>221</ele>
        <time>2022-05-21T20:10:28Z</time>
      </trkpt>
      <trkpt lat="48.56649" lon="0.13799">
        <ele>221</ele>
        <time>2022-05-21T20:10:37Z</time>
      </trkpt>
      <trkpt lat="48.56663" lon="0.13858">
        <ele>222</ele>
        <time>2022-05-21T20:10:45Z</time>
      </trkpt>
      <trkpt lat="48.56674" lon="0.1394">
        <ele>224</ele>
        <time>2022-05-21T20:10:54Z</time>
      </trkpt>
      <trkpt lat="48.56678" lon="0.13955">
        <ele>224</ele>
        <time>2022-05-21T20:10:56Z</time>
      </trkpt>
      <trkpt lat="48.56694" lon="0.13992">
        <ele>225</ele>
        <time>2022-05-21T20:11:01Z</time>
      </trkpt>
      <trkpt lat="48.56721" lon="0.14028">
        <ele>224</ele>
        <time>2022-05-21T20:11:08Z</time>
      </trkpt>
      <trkpt lat="48.56746" lon="0.14052">
        <ele>224</ele>
        <time>2022-05-21T20:11:13Z</time>
      </trkpt>
      <trkpt lat="48.56773" lon="0.14073">
        <ele>221</ele>
        <time>2022-05-21T20:11:19Z</time>
      </trkpt>
      <trkpt lat="48.56791" lon="0.14092">
        <ele>220</ele>
        <time>2022-05-21T20:11:22Z</time>
      </trkpt>
      <trkpt lat="48.56813" lon="0.14109">
        <ele>217</ele>
        <time>2022-05-21T20:11:27Z</time>
      </trkpt>
      <trkpt lat="48.56831" lon="0.14128">
        <ele>215</ele>
        <time>2022-05-21T20:11:31Z</time>
      </trkpt>
      <trkpt lat="48.5688" lon="0.14224">
        <ele>211</ele>
        <time>2022-05-21T20:11:45Z</time>
      </trkpt>
      <trkpt lat="48.56901" lon="0.14271">
        <ele>208</ele>
        <time>2022-05-21T20:11:52Z</time>
      </trkpt>
      <trkpt lat="48.56915" lon="0.14309">
        <ele>206</ele>
        <time>2022-05-21T20:11:57Z</time>
      </trkpt>
      <trkpt lat="48.56923" lon="0.14347">
        <ele>205</ele>
        <time>2022-05-21T20:12:02Z</time>
      </trkpt>
      <trkpt lat="48.56935" lon="0.14451">
        <ele>208</ele>
        <time>2022-05-21T20:12:14Z</time>
      </trkpt>
      <trkpt lat="48.56955" lon="0.1458">
        <ele>209</ele>
        <time>2022-05-21T20:12:30Z</time>
      </trkpt>
      <trkpt lat="48.56981" lon="0.14689">
        <ele>208</ele>
        <time>2022-05-21T20:12:43Z</time>
      </trkpt>
      <trkpt lat="48.56985" lon="0.14785">
        <ele>209</ele>
        <time>2022-05-21T20:12:55Z</time>
      </trkpt>
      <trkpt lat="48.56958" lon="0.14786">
        <ele>211</ele>
        <time>2022-05-21T20:12:59Z</time>
      </trkpt>
      <trkpt lat="48.56948" lon="0.14791">
        <ele>212</ele>
        <time>2022-05-21T20:13:01Z</time>
      </trkpt>
      <trkpt lat="48.56921" lon="0.14794">
        <ele>214</ele>
        <time>2022-05-21T20:13:06Z</time>
      </trkpt>
      <trkpt lat="48.5695" lon="0.14784">
        <ele>212</ele>
        <time>2022-05-21T20:13:11Z</time>
      </trkpt>
      <trkpt lat="48.56959" lon="0.14785">
        <ele>211</ele>
        <time>2022-05-21T20:13:13Z</time>
      </trkpt>
      <trkpt lat="48.56979" lon="0.14782">
        <ele>210</ele>
        <time>2022-05-21T20:13:17Z</time>
      </trkpt>
      <trkpt lat="48.56987" lon="0.14794">
        <ele>210</ele>
        <time>2022-05-21T20:13:19Z</time>
      </trkpt>
      <trkpt lat="48.57004" lon="0.14887">
        <ele>211</ele>
        <time>2022-05-21T20:13:30Z</time>
      </trkpt>
      <trkpt lat="48.57008" lon="0.14921">
        <ele>211</ele>
        <time>2022-05-21T20:13:34Z</time>
      </trkpt>
      <trkpt lat="48.57017" lon="0.14969">
        <ele>209</ele>
        <time>2022-05-21T20:13:40Z</time>
      </trkpt>
      <trkpt lat="48.57022" lon="0.14981">
        <ele>209</ele>
        <time>2022-05-21T20:13:41Z</time>
      </trkpt>
      <trkpt lat="48.57024" lon="0.15034">
        <ele>207</ele>
        <time>2022-05-21T20:13:48Z</time>
      </trkpt>
      <trkpt lat="48.57016" lon="0.15178">
        <ele>202</ele>
        <time>2022-05-21T20:14:05Z</time>
      </trkpt>
      <trkpt lat="48.5702" lon="0.15243">
        <ele>202</ele>
        <time>2022-05-21T20:14:12Z</time>
      </trkpt>
      <trkpt lat="48.5702" lon="0.15326">
        <ele>201</ele>
        <time>2022-05-21T20:14:22Z</time>
      </trkpt>
      <trkpt lat="48.57024" lon="0.15405">
        <ele>199</ele>
        <time>2022-05-21T20:14:32Z</time>
      </trkpt>
      <trkpt lat="48.57034" lon="0.15504">
        <ele>199</ele>
        <time>2022-05-21T20:14:43Z</time>
      </trkpt>
      <trkpt lat="48.57031" lon="0.15539">
        <ele>198</ele>
        <time>2022-05-21T20:14:47Z</time>
      </trkpt>
      <trkpt lat="48.57025" lon="0.15573">
        <ele>198</ele>
        <time>2022-05-21T20:14:52Z</time>
      </trkpt>
      <trkpt lat="48.57014" lon="0.15614">
        <ele>199</ele>
        <time>2022-05-21T20:14:57Z</time>
      </trkpt>
      <trkpt lat="48.57011" lon="0.1565">
        <ele>199</ele>
        <time>2022-05-21T20:15:01Z</time>
      </trkpt>
      <trkpt lat="48.57015" lon="0.15751">
        <ele>196</ele>
        <time>2022-05-21T20:15:13Z</time>
      </trkpt>
      <trkpt lat="48.57011" lon="0.15827">
        <ele>195</ele>
        <time>2022-05-21T20:15:22Z</time>
      </trkpt>
      <trkpt lat="48.57003" lon="0.15908">
        <ele>197</ele>
        <time>2022-05-21T20:15:32Z</time>
      </trkpt>
      <trkpt lat="48.57003" lon="0.15945">
        <ele>197</ele>
        <time>2022-05-21T20:15:36Z</time>
      </trkpt>
      <trkpt lat="48.57004" lon="0.15976">
        <ele>198</ele>
        <time>2022-05-21T20:15:40Z</time>
      </trkpt>
      <trkpt lat="48.57012" lon="0.1602">
        <ele>199</ele>
        <time>2022-05-21T20:15:45Z</time>
      </trkpt>
      <trkpt lat="48.5703" lon="0.16064">
        <ele>200</ele>
        <time>2022-05-21T20:15:51Z</time>
      </trkpt>
      <trkpt lat="48.57039" lon="0.16094">
        <ele>200</ele>
        <time>2022-05-21T20:15:55Z</time>
      </trkpt>
      <trkpt lat="48.57034" lon="0.16109">
        <ele>200</ele>
        <time>2022-05-21T20:15:57Z</time>
      </trkpt>
      <trkpt lat="48.5702" lon="0.1613">
        <ele>199</ele>
        <time>2022-05-21T20:16:00Z</time>
      </trkpt>
      <trkpt lat="48.57011" lon="0.16157">
        <ele>199</ele>
        <time>2022-05-21T20:16:04Z</time>
      </trkpt>
      <trkpt lat="48.56993" lon="0.16226">
        <ele>201</ele>
        <time>2022-05-21T20:16:13Z</time>
      </trkpt>
      <trkpt lat="48.56986" lon="0.16297">
        <ele>203</ele>
        <time>2022-05-21T20:16:21Z</time>
      </trkpt>
      <trkpt lat="48.56981" lon="0.16325">
        <ele>203</ele>
        <time>2022-05-21T20:16:25Z</time>
      </trkpt>
      <trkpt lat="48.56964" lon="0.16365">
        <ele>204</ele>
        <time>2022-05-21T20:16:30Z</time>
      </trkpt>
      <trkpt lat="48.56944" lon="0.16399">
        <ele>205</ele>
        <time>2022-05-21T20:16:36Z</time>
      </trkpt>
      <trkpt lat="48.56936" lon="0.1643">
        <ele>206</ele>
        <time>2022-05-21T20:16:40Z</time>
      </trkpt>
      <trkpt lat="48.56934" lon="0.16462">
        <ele>206</ele>
        <time>2022-05-21T20:16:43Z</time>
      </trkpt>
      <trkpt lat="48.5695" lon="0.16692">
        <ele>205</ele>
        <time>2022-05-21T20:17:11Z</time>
      </trkpt>
      <trkpt lat="48.56968" lon="0.16881">
        <ele>205</ele>
        <time>2022-05-21T20:17:33Z</time>
      </trkpt>
      <trkpt lat="48.56968" lon="0.1693">
        <ele>206</ele>
        <time>2022-05-21T20:17:39Z</time>
      </trkpt>
      <trkpt lat="48.56974" lon="0.16962">
        <ele>205</ele>
        <time>2022-05-21T20:17:43Z</time>
      </trkpt>
      <trkpt lat="48.56992" lon="0.16984">
        <ele>205</ele>
        <time>2022-05-21T20:17:47Z</time>
      </trkpt>
      <trkpt lat="48.57002" lon="0.17031">
        <ele>205</ele>
        <time>2022-05-21T20:17:53Z</time>
      </trkpt>
      <trkpt lat="48.57015" lon="0.17179">
        <ele>204</ele>
        <time>2022-05-21T20:18:10Z</time>
      </trkpt>
      <trkpt lat="48.57037" lon="0.17307">
        <ele>204</ele>
        <time>2022-05-21T20:18:26Z</time>
      </trkpt>
      <trkpt lat="48.5703" lon="0.17319">
        <ele>204</ele>
        <time>2022-05-21T20:18:28Z</time>
      </trkpt>
      <trkpt lat="48.5702" lon="0.17323">
        <ele>204</ele>
        <time>2022-05-21T20:18:29Z</time>
      </trkpt>
      <trkpt lat="48.56967" lon="0.17334">
        <ele>204</ele>
        <time>2022-05-21T20:18:39Z</time>
      </trkpt>
      <trkpt lat="48.5686" lon="0.17362">
        <ele>205</ele>
        <time>2022-05-21T20:18:58Z</time>
      </trkpt>
      <trkpt lat="48.56815" lon="0.17371">
        <ele>206</ele>
        <time>2022-05-21T20:19:06Z</time>
      </trkpt>
      <trkpt lat="48.56632" lon="0.17416">
        <ele>205</ele>
        <time>2022-05-21T20:19:39Z</time>
      </trkpt>
      <trkpt lat="48.56542" lon="0.17434">
        <ele>206</ele>
        <time>2022-05-21T20:19:56Z</time>
      </trkpt>
      <trkpt lat="48.56533" lon="0.17434">
        <ele>206</ele>
        <time>2022-05-21T20:19:57Z</time>
      </trkpt>
      <trkpt lat="48.56493" lon="0.17447">
        <ele>206</ele>
        <time>2022-05-21T20:20:04Z</time>
      </trkpt>
      <trkpt lat="48.56403" lon="0.17466">
        <ele>204</ele>
        <time>2022-05-21T20:20:21Z</time>
      </trkpt>
      <trkpt lat="48.56393" lon="0.17467">
        <ele>204</ele>
        <time>2022-05-21T20:20:22Z</time>
      </trkpt>
      <trkpt lat="48.56384" lon="0.17464">
        <ele>204</ele>
        <time>2022-05-21T20:20:24Z</time>
      </trkpt>
      <trkpt lat="48.56351" lon="0.17423">
        <ele>203</ele>
        <time>2022-05-21T20:20:32Z</time>
      </trkpt>
      <trkpt lat="48.56339" lon="0.17417">
        <ele>203</ele>
        <time>2022-05-21T20:20:34Z</time>
      </trkpt>
      <trkpt lat="48.56332" lon="0.17428">
        <ele>203</ele>
        <time>2022-05-21T20:20:36Z</time>
      </trkpt>
      <trkpt lat="48.56338" lon="0.17461">
        <ele>203</ele>
        <time>2022-05-21T20:20:40Z</time>
      </trkpt>
      <trkpt lat="48.5634" lon="0.1751">
        <ele>203</ele>
        <time>2022-05-21T20:20:45Z</time>
      </trkpt>
      <trkpt lat="48.56329" lon="0.17609">
        <ele>205</ele>
        <time>2022-05-21T20:20:57Z</time>
      </trkpt>
      <trkpt lat="48.56279" lon="0.17822">
        <ele>202</ele>
        <time>2022-05-21T20:21:24Z</time>
      </trkpt>
      <trkpt lat="48.5628" lon="0.17859">
        <ele>202</ele>
        <time>2022-05-21T20:21:28Z</time>
      </trkpt>
      <trkpt lat="48.56301" lon="0.17886">
        <ele>202</ele>
        <time>2022-05-21T20:21:33Z</time>
      </trkpt>
      <trkpt lat="48.56319" lon="0.17896">
        <ele>201</ele>
        <time>2022-05-21T20:21:37Z</time>
      </trkpt>
      <trkpt lat="48.56351" lon="0.17904">
        <ele>201</ele>
        <time>2022-05-21T20:21:42Z</time>
      </trkpt>
      <trkpt lat="48.56362" lon="0.1791">
        <ele>201</ele>
        <time>2022-05-21T20:21:44Z</time>
      </trkpt>
      <trkpt lat="48.56365" lon="0.17923">
        <ele>201</ele>
        <time>2022-05-21T20:21:46Z</time>
      </trkpt>
      <trkpt lat="48.56355" lon="0.17972">
        <ele>201</ele>
        <time>2022-05-21T20:21:52Z</time>
      </trkpt>
      <trkpt lat="48.56338" lon="0.18103">
        <ele>200</ele>
        <time>2022-05-21T20:22:08Z</time>
      </trkpt>
      <trkpt lat="48.56332" lon="0.18121">
        <ele>200</ele>
        <time>2022-05-21T20:22:10Z</time>
      </trkpt>
      <trkpt lat="48.56322" lon="0.18132">
        <ele>200</ele>
        <time>2022-05-21T20:22:12Z</time>
      </trkpt>
      <trkpt lat="48.56251" lon="0.18169">
        <ele>202</ele>
        <time>2022-05-21T20:22:26Z</time>
      </trkpt>
      <trkpt lat="48.56232" lon="0.18187">
        <ele>201</ele>
        <time>2022-05-21T20:22:30Z</time>
      </trkpt>
      <trkpt lat="48.56078" lon="0.18403">
        <ele>199</ele>
        <time>2022-05-21T20:23:07Z</time>
      </trkpt>
      <trkpt lat="48.55983" lon="0.18575">
        <ele>198</ele>
        <time>2022-05-21T20:23:34Z</time>
      </trkpt>
      <trkpt lat="48.55962" lon="0.18609">
        <ele>197</ele>
        <time>2022-05-21T20:23:39Z</time>
      </trkpt>
      <trkpt lat="48.55883" lon="0.18719">
        <ele>197</ele>
        <time>2022-05-21T20:23:58Z</time>
      </trkpt>
      <trkpt lat="48.55872" lon="0.18731">
        <ele>197</ele>
        <time>2022-05-21T20:24:01Z</time>
      </trkpt>
      <trkpt lat="48.55853" lon="0.18743">
        <ele>197</ele>
        <time>2022-05-21T20:24:04Z</time>
      </trkpt>
      <trkpt lat="48.55808" lon="0.1876">
        <ele>198</ele>
        <time>2022-05-21T20:24:12Z</time>
      </trkpt>
      <trkpt lat="48.55788" lon="0.18765">
        <ele>197</ele>
        <time>2022-05-21T20:24:16Z</time>
      </trkpt>
      <trkpt lat="48.55774" lon="0.18773">
        <ele>197</ele>
        <time>2022-05-21T20:24:19Z</time>
      </trkpt>
      <trkpt lat="48.55755" lon="0.18777">
        <ele>197</ele>
        <time>2022-05-21T20:24:22Z</time>
      </trkpt>
      <trkpt lat="48.55741" lon="0.18785">
        <ele>197</ele>
        <time>2022-05-21T20:24:25Z</time>
      </trkpt>
      <trkpt lat="48.5572" lon="0.18791">
        <ele>198</ele>
        <time>2022-05-21T20:24:29Z</time>
      </trkpt>
      <trkpt lat="48.55692" lon="0.18807">
        <ele>199</ele>
        <time>2022-05-21T20:24:34Z</time>
      </trkpt>
      <trkpt lat="48.55674" lon="0.18825">
        <ele>200</ele>
        <time>2022-05-21T20:24:38Z</time>
      </trkpt>
      <trkpt lat="48.55665" lon="0.18838">
        <ele>201</ele>
        <time>2022-05-21T20:24:40Z</time>
      </trkpt>
      <trkpt lat="48.55635" lon="0.189">
        <ele>205</ele>
        <time>2022-05-21T20:24:49Z</time>
      </trkpt>
      <trkpt lat="48.55626" lon="0.18909">
        <ele>205</ele>
        <time>2022-05-21T20:24:51Z</time>
      </trkpt>
      <trkpt lat="48.55618" lon="0.18903">
        <ele>206</ele>
        <time>2022-05-21T20:24:53Z</time>
      </trkpt>
      <trkpt lat="48.55605" lon="0.18878">
        <ele>206</ele>
        <time>2022-05-21T20:24:56Z</time>
      </trkpt>
      <trkpt lat="48.55604" lon="0.18834">
        <ele>206</ele>
        <time>2022-05-21T20:25:01Z</time>
      </trkpt>
      <trkpt lat="48.55585" lon="0.18833">
        <ele>207</ele>
        <time>2022-05-21T20:25:05Z</time>
      </trkpt>
      <trkpt lat="48.55576" lon="0.18835">
        <ele>207</ele>
        <time>2022-05-21T20:25:06Z</time>
      </trkpt>
      <trkpt lat="48.55567" lon="0.18828">
        <ele>207</ele>
        <time>2022-05-21T20:25:08Z</time>
      </trkpt>
      <trkpt lat="48.55565" lon="0.18812">
        <ele>207</ele>
        <time>2022-05-21T20:25:10Z</time>
      </trkpt>
      <trkpt lat="48.55574" lon="0.18807">
        <ele>207</ele>
        <time>2022-05-21T20:25:12Z</time>
      </trkpt>
      <trkpt lat="48.55583" lon="0.18813">
        <ele>207</ele>
        <time>2022-05-21T20:25:14Z</time>
      </trkpt>
      <trkpt lat="48.55593" lon="0.18812">
        <ele>206</ele>
        <time>2022-05-21T20:25:15Z</time>
      </trkpt>
      <trkpt lat="48.55602" lon="0.18808">
        <ele>205</ele>
        <time>2022-05-21T20:25:17Z</time>
      </trkpt>
      <trkpt lat="48.55608" lon="0.18819">
        <ele>205</ele>
        <time>2022-05-21T20:25:19Z</time>
      </trkpt>
      <trkpt lat="48.55599" lon="0.18772">
        <ele>205</ele>
        <time>2022-05-21T20:25:25Z</time>
      </trkpt>
      <trkpt lat="48.5559" lon="0.18685">
        <ele>206</ele>
        <time>2022-05-21T20:25:35Z</time>
      </trkpt>
      <trkpt lat="48.55591" lon="0.18669">
        <ele>206</ele>
        <time>2022-05-21T20:25:37Z</time>
      </trkpt>
      <trkpt lat="48.55581" lon="0.18598">
        <ele>202</ele>
        <time>2022-05-21T20:25:45Z</time>
      </trkpt>
      <trkpt lat="48.55572" lon="0.18564">
        <ele>201</ele>
        <time>2022-05-21T20:25:50Z</time>
      </trkpt>
      <trkpt lat="48.55562" lon="0.18535">
        <ele>201</ele>
        <time>2022-05-21T20:25:54Z</time>
      </trkpt>
      <trkpt lat="48.55555" lon="0.18522">
        <ele>201</ele>
        <time>2022-05-21T20:25:55Z</time>
      </trkpt>
      <trkpt lat="48.55552" lon="0.18504">
        <ele>200</ele>
        <time>2022-05-21T20:25:58Z</time>
      </trkpt>
      <trkpt lat="48.55534" lon="0.18449">
        <ele>201</ele>
        <time>2022-05-21T20:26:05Z</time>
      </trkpt>
      <trkpt lat="48.55525" lon="0.18404">
        <ele>202</ele>
        <time>2022-05-21T20:26:10Z</time>
      </trkpt>
      <trkpt lat="48.55514" lon="0.18364">
        <ele>202</ele>
        <time>2022-05-21T20:26:16Z</time>
      </trkpt>
      <trkpt lat="48.55523" lon="0.18359">
        <ele>201</ele>
        <time>2022-05-21T20:26:17Z</time>
      </trkpt>
      <trkpt lat="48.55526" lon="0.18346">
        <ele>200</ele>
        <time>2022-05-21T20:26:19Z</time>
      </trkpt>
      <trkpt lat="48.55533" lon="0.18336">
        <ele>200</ele>
        <time>2022-05-21T20:26:21Z</time>
      </trkpt>
      <trkpt lat="48.55537" lon="0.18324">
        <ele>199</ele>
        <time>2022-05-21T20:26:22Z</time>
      </trkpt>
      <trkpt lat="48.55532" lon="0.18337">
        <ele>200</ele>
        <time>2022-05-21T20:26:24Z</time>
      </trkpt>
      <trkpt lat="48.55525" lon="0.18347">
        <ele>201</ele>
        <time>2022-05-21T20:26:26Z</time>
      </trkpt>
      <trkpt lat="48.55513" lon="0.18358">
        <ele>202</ele>
        <time>2022-05-21T20:26:28Z</time>
      </trkpt>
      <trkpt lat="48.55515" lon="0.18372">
        <ele>202</ele>
        <time>2022-05-21T20:26:30Z</time>
      </trkpt>
      <trkpt lat="48.55524" lon="0.18367">
        <ele>201</ele>
        <time>2022-05-21T20:26:32Z</time>
      </trkpt>
      <trkpt lat="48.55509" lon="0.18353">
        <ele>203</ele>
        <time>2022-05-21T20:26:35Z</time>
      </trkpt>
      <trkpt lat="48.55514" lon="0.18365">
        <ele>202</ele>
        <time>2022-05-21T20:26:36Z</time>
      </trkpt>
      <trkpt lat="48.5552" lon="0.18352">
        <ele>201</ele>
        <time>2022-05-21T20:26:38Z</time>
      </trkpt>
      <trkpt lat="48.5551" lon="0.18361">
        <ele>203</ele>
        <time>2022-05-21T20:26:40Z</time>
      </trkpt>
      <trkpt lat="48.55522" lon="0.18361">
        <ele>201</ele>
        <time>2022-05-21T20:26:42Z</time>
      </trkpt>
      <trkpt lat="48.55513" lon="0.18381">
        <ele>203</ele>
        <time>2022-05-21T20:26:45Z</time>
      </trkpt>
      <trkpt lat="48.55515" lon="0.18394">
        <ele>203</ele>
        <time>2022-05-21T20:26:47Z</time>
      </trkpt>
      <trkpt lat="48.55523" lon="0.18411">
        <ele>202</ele>
        <time>2022-05-21T20:26:49Z</time>
      </trkpt>
      <trkpt lat="48.55533" lon="0.18407">
        <ele>201</ele>
        <time>2022-05-21T20:26:51Z</time>
      </trkpt>
      <trkpt lat="48.55522" lon="0.18401">
        <ele>202</ele>
        <time>2022-05-21T20:26:53Z</time>
      </trkpt>
      <trkpt lat="48.55517" lon="0.18389">
        <ele>203</ele>
        <time>2022-05-21T20:26:55Z</time>
      </trkpt>
      <trkpt lat="48.55509" lon="0.18363">
        <ele>203</ele>
        <time>2022-05-21T20:26:58Z</time>
      </trkpt>
      <trkpt lat="48.5551" lon="0.18348">
        <ele>202</ele>
        <time>2022-05-21T20:27:00Z</time>
      </trkpt>
      <trkpt lat="48.55523" lon="0.18374">
        <ele>201</ele>
        <time>2022-05-21T20:27:04Z</time>
      </trkpt>
      <trkpt lat="48.55515" lon="0.18366">
        <ele>202</ele>
        <time>2022-05-21T20:27:06Z</time>
      </trkpt>
      <trkpt lat="48.55537" lon="0.18442">
        <ele>201</ele>
        <time>2022-05-21T20:27:15Z</time>
      </trkpt>
      <trkpt lat="48.55559" lon="0.185">
        <ele>200</ele>
        <time>2022-05-21T20:27:23Z</time>
      </trkpt>
      <trkpt lat="48.55579" lon="0.18563">
        <ele>201</ele>
        <time>2022-05-21T20:27:31Z</time>
      </trkpt>
      <trkpt lat="48.55582" lon="0.18581">
        <ele>201</ele>
        <time>2022-05-21T20:27:34Z</time>
      </trkpt>
      <trkpt lat="48.55594" lon="0.18621">
        <ele>203</ele>
        <time>2022-05-21T20:27:39Z</time>
      </trkpt>
      <trkpt lat="48.55614" lon="0.18818">
        <ele>205</ele>
        <time>2022-05-21T20:28:02Z</time>
      </trkpt>
      <trkpt lat="48.55615" lon="0.18852">
        <ele>205</ele>
        <time>2022-05-21T20:28:06Z</time>
      </trkpt>
      <trkpt lat="48.5562" lon="0.18899">
        <ele>205</ele>
        <time>2022-05-21T20:28:12Z</time>
      </trkpt>
      <trkpt lat="48.55617" lon="0.18915">
        <ele>206</ele>
        <time>2022-05-21T20:28:14Z</time>
      </trkpt>
      <trkpt lat="48.55605" lon="0.18944">
        <ele>206</ele>
        <time>2022-05-21T20:28:18Z</time>
      </trkpt>
      <trkpt lat="48.55563" lon="0.19025">
        <ele>206</ele>
        <time>2022-05-21T20:28:30Z</time>
      </trkpt>
      <trkpt lat="48.55539" lon="0.19063">
        <ele>206</ele>
        <time>2022-05-21T20:28:36Z</time>
      </trkpt>
      <trkpt lat="48.55533" lon="0.19077">
        <ele>206</ele>
        <time>2022-05-21T20:28:38Z</time>
      </trkpt>
      <trkpt lat="48.55524" lon="0.19087">
        <ele>206</ele>
        <time>2022-05-21T20:28:40Z</time>
      </trkpt>
      <trkpt lat="48.55482" lon="0.19152">
        <ele>205</ele>
        <time>2022-05-21T20:28:51Z</time>
      </trkpt>
      <trkpt lat="48.55444" lon="0.19223">
        <ele>201</ele>
        <time>2022-05-21T20:29:02Z</time>
      </trkpt>
      <trkpt lat="48.55436" lon="0.19232">
        <ele>200</ele>
        <time>2022-05-21T20:29:03Z</time>
      </trkpt>
      <trkpt lat="48.55431" lon="0.19244">
        <ele>199</ele>
        <time>2022-05-21T20:29:05Z</time>
      </trkpt>
      <trkpt lat="48.5539" lon="0.19311">
        <ele>197</ele>
        <time>2022-05-21T20:29:16Z</time>
      </trkpt>
      <trkpt lat="48.55333" lon="0.19383">
        <ele>194</ele>
        <time>2022-05-21T20:29:29Z</time>
      </trkpt>
      <trkpt lat="48.55314" lon="0.194">
        <ele>193</ele>
        <time>2022-05-21T20:29:33Z</time>
      </trkpt>
      <trkpt lat="48.55279" lon="0.19442">
        <ele>191</ele>
        <time>2022-05-21T20:29:41Z</time>
      </trkpt>
      <trkpt lat="48.55262" lon="0.19468">
        <ele>190</ele>
        <time>2022-05-21T20:29:45Z</time>
      </trkpt>
      <trkpt lat="48.55246" lon="0.19501">
        <ele>189</ele>
        <time>2022-05-21T20:29:50Z</time>
      </trkpt>
      <trkpt lat="48.55208" lon="0.19642">
        <ele>184</ele>
        <time>2022-05-21T20:30:08Z</time>
      </trkpt>
      <trkpt lat="48.55172" lon="0.19756">
        <ele>182</ele>
        <time>2022-05-21T20:30:23Z</time>
      </trkpt>
      <trkpt lat="48.55129" lon="0.19873">
        <ele>180</ele>
        <time>2022-05-21T20:30:39Z</time>
      </trkpt>
      <trkpt lat="48.55086" lon="0.19955">
        <ele>178</ele>
        <time>2022-05-21T20:30:51Z</time>
      </trkpt>
      <trkpt lat="48.55001" lon="0.20051">
        <ele>174</ele>
        <time>2022-05-21T20:31:10Z</time>
      </trkpt>
      <trkpt lat="48.54939" lon="0.20094">
        <ele>172</ele>
        <time>2022-05-21T20:31:22Z</time>
      </trkpt>
      <trkpt lat="48.54924" lon="0.20102">
        <ele>171</ele>
        <time>2022-05-21T20:31:25Z</time>
      </trkpt>
      <trkpt lat="48.5491" lon="0.20114">
        <ele>170</ele>
        <time>2022-05-21T20:31:28Z</time>
      </trkpt>
      <trkpt lat="48.54875" lon="0.20155">
        <ele>170</ele>
        <time>2022-05-21T20:31:35Z</time>
      </trkpt>
      <trkpt lat="48.54851" lon="0.20175">
        <ele>170</ele>
        <time>2022-05-21T20:31:40Z</time>
      </trkpt>
      <trkpt lat="48.54826" lon="0.20204">
        <ele>170</ele>
        <time>2022-05-21T20:31:46Z</time>
      </trkpt>
      <trkpt lat="48.54805" lon="0.20221">
        <ele>170</ele>
        <time>2022-05-21T20:31:50Z</time>
      </trkpt>
      <trkpt lat="48.54765" lon="0.20278">
        <ele>173</ele>
        <time>2022-05-21T20:32:00Z</time>
      </trkpt>
      <trkpt lat="48.54747" lon="0.20287">
        <ele>174</ele>
        <time>2022-05-21T20:32:03Z</time>
      </trkpt>
      <trkpt lat="48.54756" lon="0.20284">
        <ele>174</ele>
        <time>2022-05-21T20:32:05Z</time>
      </trkpt>
      <trkpt lat="48.54761" lon="0.20272">
        <ele>173</ele>
        <time>2022-05-21T20:32:07Z</time>
      </trkpt>
      <trkpt lat="48.54771" lon="0.20274">
        <ele>173</ele>
        <time>2022-05-21T20:32:08Z</time>
      </trkpt>
      <trkpt lat="48.5479" lon="0.20282">
        <ele>174</ele>
        <time>2022-05-21T20:32:12Z</time>
      </trkpt>
      <trkpt lat="48.54798" lon="0.20293">
        <ele>175</ele>
        <time>2022-05-21T20:32:14Z</time>
      </trkpt>
      <trkpt lat="48.54815" lon="0.20306">
        <ele>177</ele>
        <time>2022-05-21T20:32:17Z</time>
      </trkpt>
      <trkpt lat="48.54844" lon="0.2032">
        <ele>177</ele>
        <time>2022-05-21T20:32:23Z</time>
      </trkpt>
      <trkpt lat="48.54857" lon="0.20341">
        <ele>178</ele>
        <time>2022-05-21T20:32:26Z</time>
      </trkpt>
      <trkpt lat="48.54873" lon="0.20357">
        <ele>179</ele>
        <time>2022-05-21T20:32:30Z</time>
      </trkpt>
      <trkpt lat="48.5488" lon="0.20369">
        <ele>179</ele>
        <time>2022-05-21T20:32:31Z</time>
      </trkpt>
      <trkpt lat="48.54889" lon="0.20399">
        <ele>181</ele>
        <time>2022-05-21T20:32:35Z</time>
      </trkpt>
      <trkpt lat="48.54892" lon="0.20427">
        <ele>182</ele>
        <time>2022-05-21T20:32:39Z</time>
      </trkpt>
      <trkpt lat="48.54891" lon="0.20472">
        <ele>181</ele>
        <time>2022-05-21T20:32:44Z</time>
      </trkpt>
      <trkpt lat="48.54899" lon="0.20535">
        <ele>181</ele>
        <time>2022-05-21T20:32:51Z</time>
      </trkpt>
      <trkpt lat="48.54895" lon="0.20581">
        <ele>182</ele>
        <time>2022-05-21T20:32:57Z</time>
      </trkpt>
      <trkpt lat="48.54853" lon="0.20736">
        <ele>186</ele>
        <time>2022-05-21T20:33:17Z</time>
      </trkpt>
      <trkpt lat="48.54841" lon="0.20798">
        <ele>187</ele>
        <time>2022-05-21T20:33:24Z</time>
      </trkpt>
      <trkpt lat="48.54833" lon="0.20809">
        <ele>188</ele>
        <time>2022-05-21T20:33:26Z</time>
      </trkpt>
      <trkpt lat="48.54823" lon="0.20814">
        <ele>188</ele>
        <time>2022-05-21T20:33:28Z</time>
      </trkpt>
      <trkpt lat="48.54787" lon="0.20841">
        <ele>187</ele>
        <time>2022-05-21T20:33:35Z</time>
      </trkpt>
      <trkpt lat="48.5471" lon="0.20877">
        <ele>187</ele>
        <time>2022-05-21T20:33:50Z</time>
      </trkpt>
      <trkpt lat="48.547" lon="0.20885">
        <ele>187</ele>
        <time>2022-05-21T20:33:52Z</time>
      </trkpt>
      <trkpt lat="48.5467" lon="0.20894">
        <ele>187</ele>
        <time>2022-05-21T20:33:57Z</time>
      </trkpt>
      <trkpt lat="48.54609" lon="0.20918">
        <ele>188</ele>
        <time>2022-05-21T20:34:08Z</time>
      </trkpt>
      <trkpt lat="48.54578" lon="0.20927">
        <ele>187</ele>
        <time>2022-05-21T20:34:14Z</time>
      </trkpt>
      <trkpt lat="48.54556" lon="0.20938">
        <ele>186</ele>
        <time>2022-05-21T20:34:18Z</time>
      </trkpt>
      <trkpt lat="48.5451" lon="0.20969">
        <ele>184</ele>
        <time>2022-05-21T20:34:27Z</time>
      </trkpt>
      <trkpt lat="48.54491" lon="0.20973">
        <ele>183</ele>
        <time>2022-05-21T20:34:30Z</time>
      </trkpt>
      <trkpt lat="48.54472" lon="0.20973">
        <ele>182</ele>
        <time>2022-05-21T20:34:34Z</time>
      </trkpt>
      <trkpt lat="48.54433" lon="0.20953">
        <ele>182</ele>
        <time>2022-05-21T20:34:41Z</time>
      </trkpt>
      <trkpt lat="48.5442" lon="0.20943">
        <ele>182</ele>
        <time>2022-05-21T20:34:44Z</time>
      </trkpt>
      <trkpt lat="48.54388" lon="0.20932">
        <ele>181</ele>
        <time>2022-05-21T20:34:50Z</time>
      </trkpt>
      <trkpt lat="48.54354" lon="0.20927">
        <ele>180</ele>
        <time>2022-05-21T20:34:56Z</time>
      </trkpt>
      <trkpt lat="48.54304" lon="0.20945">
        <ele>174</ele>
        <time>2022-05-21T20:35:05Z</time>
      </trkpt>
      <trkpt lat="48.54272" lon="0.2096">
        <ele>171</ele>
        <time>2022-05-21T20:35:11Z</time>
      </trkpt>
      <trkpt lat="48.54116" lon="0.21013">
        <ele>164</ele>
        <time>2022-05-21T20:35:39Z</time>
      </trkpt>
      <trkpt lat="48.5409" lon="0.21027">
        <ele>164</ele>
        <time>2022-05-21T20:35:44Z</time>
      </trkpt>
      <trkpt lat="48.5405" lon="0.21056">
        <ele>164</ele>
        <time>2022-05-21T20:35:52Z</time>
      </trkpt>
      <trkpt lat="48.54041" lon="0.21055">
        <ele>164</ele>
        <time>2022-05-21T20:35:54Z</time>
      </trkpt>
      <trkpt lat="48.5403" lon="0.21058">
        <ele>164</ele>
        <time>2022-05-21T20:35:56Z</time>
      </trkpt>
      <trkpt lat="48.5402" lon="0.21065">
        <ele>164</ele>
        <time>2022-05-21T20:35:57Z</time>
      </trkpt>
      <trkpt lat="48.5399" lon="0.21092">
        <ele>163</ele>
        <time>2022-05-21T20:36:04Z</time>
      </trkpt>
      <trkpt lat="48.53964" lon="0.21109">
        <ele>161</ele>
        <time>2022-05-21T20:36:09Z</time>
      </trkpt>
      <trkpt lat="48.53946" lon="0.21124">
        <ele>160</ele>
        <time>2022-05-21T20:36:12Z</time>
      </trkpt>
      <trkpt lat="48.53902" lon="0.21166">
        <ele>158</ele>
        <time>2022-05-21T20:36:22Z</time>
      </trkpt>
      <trkpt lat="48.53882" lon="0.21177">
        <ele>157</ele>
        <time>2022-05-21T20:36:25Z</time>
      </trkpt>
      <trkpt lat="48.53811" lon="0.21202">
        <ele>156</ele>
        <time>2022-05-21T20:36:38Z</time>
      </trkpt>
      <trkpt lat="48.53798" lon="0.21209">
        <ele>155</ele>
        <time>2022-05-21T20:36:41Z</time>
      </trkpt>
      <trkpt lat="48.53788" lon="0.21219">
        <ele>155</ele>
        <time>2022-05-21T20:36:43Z</time>
      </trkpt>
      <trkpt lat="48.5378" lon="0.21232">
        <ele>155</ele>
        <time>2022-05-21T20:36:45Z</time>
      </trkpt>
      <trkpt lat="48.53765" lon="0.21277">
        <ele>154</ele>
        <time>2022-05-21T20:36:51Z</time>
      </trkpt>
      <trkpt lat="48.53743" lon="0.21359">
        <ele>154</ele>
        <time>2022-05-21T20:37:01Z</time>
      </trkpt>
      <trkpt lat="48.53683" lon="0.21557">
        <ele>154</ele>
        <time>2022-05-21T20:37:27Z</time>
      </trkpt>
      <trkpt lat="48.53639" lon="0.21646">
        <ele>154</ele>
        <time>2022-05-21T20:37:40Z</time>
      </trkpt>
      <trkpt lat="48.53625" lon="0.21669">
        <ele>154</ele>
        <time>2022-05-21T20:37:44Z</time>
      </trkpt>
      <trkpt lat="48.53605" lon="0.2172">
        <ele>154</ele>
        <time>2022-05-21T20:37:51Z</time>
      </trkpt>
      <trkpt lat="48.53593" lon="0.21782">
        <ele>154</ele>
        <time>2022-05-21T20:37:58Z</time>
      </trkpt>
      <trkpt lat="48.53588" lon="0.21857">
        <ele>154</ele>
        <time>2022-05-21T20:38:07Z</time>
      </trkpt>
      <trkpt lat="48.53577" lon="0.2193">
        <ele>154</ele>
        <time>2022-05-21T20:38:16Z</time>
      </trkpt>
      <trkpt lat="48.53571" lon="0.21945">
        <ele>154</ele>
        <time>2022-05-21T20:38:18Z</time>
      </trkpt>
      <trkpt lat="48.53562" lon="0.21952">
        <ele>153</ele>
        <time>2022-05-21T20:38:20Z</time>
      </trkpt>
      <trkpt lat="48.53572" lon="0.21934">
        <ele>154</ele>
        <time>2022-05-21T20:38:23Z</time>
      </trkpt>
      <trkpt lat="48.53576" lon="0.21905">
        <ele>155</ele>
        <time>2022-05-21T20:38:26Z</time>
      </trkpt>
      <trkpt lat="48.53578" lon="0.2192">
        <ele>155</ele>
        <time>2022-05-21T20:38:28Z</time>
      </trkpt>
      <trkpt lat="48.53568" lon="0.2195">
        <ele>154</ele>
        <time>2022-05-21T20:38:32Z</time>
      </trkpt>
      <trkpt lat="48.53554" lon="0.21976">
        <ele>153</ele>
        <time>2022-05-21T20:38:36Z</time>
      </trkpt>
      <trkpt lat="48.53525" lon="0.22013">
        <ele>151</ele>
        <time>2022-05-21T20:38:43Z</time>
      </trkpt>
      <trkpt lat="48.5349" lon="0.22053">
        <ele>150</ele>
        <time>2022-05-21T20:38:51Z</time>
      </trkpt>
      <trkpt lat="48.53438" lon="0.22098">
        <ele>150</ele>
        <time>2022-05-21T20:39:01Z</time>
      </trkpt>
      <trkpt lat="48.53415" lon="0.22111">
        <ele>151</ele>
        <time>2022-05-21T20:39:06Z</time>
      </trkpt>
      <trkpt lat="48.53285" lon="0.22142">
        <ele>151</ele>
        <time>2022-05-21T20:39:29Z</time>
      </trkpt>
      <trkpt lat="48.53274" lon="0.22142">
        <ele>151</ele>
        <time>2022-05-21T20:39:31Z</time>
      </trkpt>
      <trkpt lat="48.53244" lon="0.2213">
        <ele>151</ele>
        <time>2022-05-21T20:39:37Z</time>
      </trkpt>
      <trkpt lat="48.53232" lon="0.22129">
        <ele>151</ele>
        <time>2022-05-21T20:39:39Z</time>
      </trkpt>
      <trkpt lat="48.53222" lon="0.22131">
        <ele>151</ele>
        <time>2022-05-21T20:39:40Z</time>
      </trkpt>
      <trkpt lat="48.53214" lon="0.2214">
        <ele>151</ele>
        <time>2022-05-21T20:39:42Z</time>
      </trkpt>
      <trkpt lat="48.53202" lon="0.22188">
        <ele>150</ele>
        <time>2022-05-21T20:39:48Z</time>
      </trkpt>
      <trkpt lat="48.53187" lon="0.22219">
        <ele>150</ele>
        <time>2022-05-21T20:39:53Z</time>
      </trkpt>
      <trkpt lat="48.53178" lon="0.22233">
        <ele>150</ele>
        <time>2022-05-21T20:39:55Z</time>
      </trkpt>
      <trkpt lat="48.53154" lon="0.22258">
        <ele>150</ele>
        <time>2022-05-21T20:40:00Z</time>
      </trkpt>
      <trkpt lat="48.53127" lon="0.22278">
        <ele>150</ele>
        <time>2022-05-21T20:40:06Z</time>
      </trkpt>
      <trkpt lat="48.53095" lon="0.22289">
        <ele>149</ele>
        <time>2022-05-21T20:40:11Z</time>
      </trkpt>
      <trkpt lat="48.53064" lon="0.2231">
        <ele>149</ele>
        <time>2022-05-21T20:40:18Z</time>
      </trkpt>
      <trkpt lat="48.52941" lon="0.22428">
        <ele>147</ele>
        <time>2022-05-21T20:40:43Z</time>
      </trkpt>
      <trkpt lat="48.52929" lon="0.22434">
        <ele>147</ele>
        <time>2022-05-21T20:40:46Z</time>
      </trkpt>
      <trkpt lat="48.52882" lon="0.22476">
        <ele>148</ele>
        <time>2022-05-21T20:40:55Z</time>
      </trkpt>
      <trkpt lat="48.52854" lon="0.22496">
        <ele>148</ele>
        <time>2022-05-21T20:41:01Z</time>
      </trkpt>
      <trkpt lat="48.52799" lon="0.22541">
        <ele>150</ele>
        <time>2022-05-21T20:41:12Z</time>
      </trkpt>
      <trkpt lat="48.52742" lon="0.22595">
        <ele>151</ele>
        <time>2022-05-21T20:41:24Z</time>
      </trkpt>
      <trkpt lat="48.52734" lon="0.22605">
        <ele>151</ele>
        <time>2022-05-21T20:41:26Z</time>
      </trkpt>
      <trkpt lat="48.52715" lon="0.2264">
        <ele>151</ele>
        <time>2022-05-21T20:41:31Z</time>
      </trkpt>
      <trkpt lat="48.52615" lon="0.22741">
        <ele>151</ele>
        <time>2022-05-21T20:41:53Z</time>
      </trkpt>
      <trkpt lat="48.52603" lon="0.22747">
        <ele>151</ele>
        <time>2022-05-21T20:41:55Z</time>
      </trkpt>
      <trkpt lat="48.52551" lon="0.22785">
        <ele>150</ele>
        <time>2022-05-21T20:42:05Z</time>
      </trkpt>
      <trkpt lat="48.52494" lon="0.22831">
        <ele>150</ele>
        <time>2022-05-21T20:42:17Z</time>
      </trkpt>
      <trkpt lat="48.52466" lon="0.22857">
        <ele>150</ele>
        <time>2022-05-21T20:42:22Z</time>
      </trkpt>
      <trkpt lat="48.5244" lon="0.22876">
        <ele>149</ele>
        <time>2022-05-21T20:42:28Z</time>
      </trkpt>
      <trkpt lat="48.52409" lon="0.22907">
        <ele>149</ele>
        <time>2022-05-21T20:42:34Z</time>
      </trkpt>
      <trkpt lat="48.52346" lon="0.22953">
        <ele>148</ele>
        <time>2022-05-21T20:42:47Z</time>
      </trkpt>
      <trkpt lat="48.52293" lon="0.22978">
        <ele>148</ele>
        <time>2022-05-21T20:42:57Z</time>
      </trkpt>
      <trkpt lat="48.5228" lon="0.22978">
        <ele>148</ele>
        <time>2022-05-21T20:42:59Z</time>
      </trkpt>
      <trkpt lat="48.5226" lon="0.22972">
        <ele>148</ele>
        <time>2022-05-21T20:43:03Z</time>
      </trkpt>
      <trkpt lat="48.52243" lon="0.22959">
        <ele>148</ele>
        <time>2022-05-21T20:43:06Z</time>
      </trkpt>
      <trkpt lat="48.5211" lon="0.22836">
        <ele>146</ele>
        <time>2022-05-21T20:43:34Z</time>
      </trkpt>
      <trkpt lat="48.52058" lon="0.22797">
        <ele>145</ele>
        <time>2022-05-21T20:43:44Z</time>
      </trkpt>
      <trkpt lat="48.52038" lon="0.22787">
        <ele>145</ele>
        <time>2022-05-21T20:43:48Z</time>
      </trkpt>
      <trkpt lat="48.52015" lon="0.22783">
        <ele>145</ele>
        <time>2022-05-21T20:43:52Z</time>
      </trkpt>
      <trkpt lat="48.51946" lon="0.22789">
        <ele>145</ele>
        <time>2022-05-21T20:44:04Z</time>
      </trkpt>
      <trkpt lat="48.51916" lon="0.22789">
        <ele>145</ele>
        <time>2022-05-21T20:44:09Z</time>
      </trkpt>
      <trkpt lat="48.51878" lon="0.22783">
        <ele>144</ele>
        <time>2022-05-21T20:44:16Z</time>
      </trkpt>
      <trkpt lat="48.51827" lon="0.22773">
        <ele>143</ele>
        <time>2022-05-21T20:44:25Z</time>
      </trkpt>
      <trkpt lat="48.51807" lon="0.22763">
        <ele>143</ele>
        <time>2022-05-21T20:44:29Z</time>
      </trkpt>
      <trkpt lat="48.51796" lon="0.22761">
        <ele>144</ele>
        <time>2022-05-21T20:44:31Z</time>
      </trkpt>
      <trkpt lat="48.51787" lon="0.22755">
        <ele>144</ele>
        <time>2022-05-21T20:44:33Z</time>
      </trkpt>
      <trkpt lat="48.51735" lon="0.22743">
        <ele>144</ele>
        <time>2022-05-21T20:44:42Z</time>
      </trkpt>
      <trkpt lat="48.51701" lon="0.22732">
        <ele>143</ele>
        <time>2022-05-21T20:44:48Z</time>
      </trkpt>
      <trkpt lat="48.51662" lon="0.22724">
        <ele>143</ele>
        <time>2022-05-21T20:44:55Z</time>
      </trkpt>
      <trkpt lat="48.51653" lon="0.22719">
        <ele>144</ele>
        <time>2022-05-21T20:44:57Z</time>
      </trkpt>
      <trkpt lat="48.51596" lon="0.22711">
        <ele>144</ele>
        <time>2022-05-21T20:45:07Z</time>
      </trkpt>
      <trkpt lat="48.51528" lon="0.2269">
        <ele>145</ele>
        <time>2022-05-21T20:45:20Z</time>
      </trkpt>
      <trkpt lat="48.51474" lon="0.22679">
        <ele>145</ele>
        <time>2022-05-21T20:45:29Z</time>
      </trkpt>
      <trkpt lat="48.51466" lon="0.22721">
        <ele>145</ele>
        <time>2022-05-21T20:45:35Z</time>
      </trkpt>
      <trkpt lat="48.51463" lon="0.2277">
        <ele>145</ele>
        <time>2022-05-21T20:45:40Z</time>
      </trkpt>
      <trkpt lat="48.51443" lon="0.22892">
        <ele>143</ele>
        <time>2022-05-21T20:45:55Z</time>
      </trkpt>
      <trkpt lat="48.51427" lon="0.22968">
        <ele>143</ele>
        <time>2022-05-21T20:46:05Z</time>
      </trkpt>
      <trkpt lat="48.51417" lon="0.23029">
        <ele>144</ele>
        <time>2022-05-21T20:46:12Z</time>
      </trkpt>
      <trkpt lat="48.51412" lon="0.2312">
        <ele>144</ele>
        <time>2022-05-21T20:46:23Z</time>
      </trkpt>
      <trkpt lat="48.51403" lon="0.23147">
        <ele>144</ele>
        <time>2022-05-21T20:46:26Z</time>
      </trkpt>
      <trkpt lat="48.51397" lon="0.23158">
        <ele>144</ele>
        <time>2022-05-21T20:46:28Z</time>
      </trkpt>
      <trkpt lat="48.51373" lon="0.23191">
        <ele>144</ele>
        <time>2022-05-21T20:46:34Z</time>
      </trkpt>
      <trkpt lat="48.51296" lon="0.23317">
        <ele>144</ele>
        <time>2022-05-21T20:46:54Z</time>
      </trkpt>
      <trkpt lat="48.51278" lon="0.23357">
        <ele>144</ele>
        <time>2022-05-21T20:47:00Z</time>
      </trkpt>
      <trkpt lat="48.51271" lon="0.23384">
        <ele>144</ele>
        <time>2022-05-21T20:47:03Z</time>
      </trkpt>
      <trkpt lat="48.51255" lon="0.23503">
        <ele>142</ele>
        <time>2022-05-21T20:47:17Z</time>
      </trkpt>
      <trkpt lat="48.51253" lon="0.23533">
        <ele>142</ele>
        <time>2022-05-21T20:47:21Z</time>
      </trkpt>
      <trkpt lat="48.51241" lon="0.23593">
        <ele>142</ele>
        <time>2022-05-21T20:47:28Z</time>
      </trkpt>
      <trkpt lat="48.51212" lon="0.23676">
        <ele>142</ele>
        <time>2022-05-21T20:47:39Z</time>
      </trkpt>
      <trkpt lat="48.51187" lon="0.23758">
        <ele>142</ele>
        <time>2022-05-21T20:47:50Z</time>
      </trkpt>
      <trkpt lat="48.51151" lon="0.23896">
        <ele>141</ele>
        <time>2022-05-21T20:48:08Z</time>
      </trkpt>
      <trkpt lat="48.51127" lon="0.23976">
        <ele>142</ele>
        <time>2022-05-21T20:48:18Z</time>
      </trkpt>
      <trkpt lat="48.51107" lon="0.24036">
        <ele>142</ele>
        <time>2022-05-21T20:48:26Z</time>
      </trkpt>
      <trkpt lat="48.51081" lon="0.24103">
        <ele>142</ele>
        <time>2022-05-21T20:48:35Z</time>
      </trkpt>
      <trkpt lat="48.51067" lon="0.24156">
        <ele>142</ele>
        <time>2022-05-21T20:48:42Z</time>
      </trkpt>
      <trkpt lat="48.51058" lon="0.24234">
        <ele>143</ele>
        <time>2022-05-21T20:48:51Z</time>
      </trkpt>
      <trkpt lat="48.51057" lon="0.24262">
        <ele>143</ele>
        <time>2022-05-21T20:48:54Z</time>
      </trkpt>
      <trkpt lat="48.5105" lon="0.24309">
        <ele>144</ele>
        <time>2022-05-21T20:49:00Z</time>
      </trkpt>
      <trkpt lat="48.51053" lon="0.2434">
        <ele>145</ele>
        <time>2022-05-21T20:49:04Z</time>
      </trkpt>
      <trkpt lat="48.51046" lon="0.24466">
        <ele>145</ele>
        <time>2022-05-21T20:49:19Z</time>
      </trkpt>
      <trkpt lat="48.51039" lon="0.24509">
        <ele>146</ele>
        <time>2022-05-21T20:49:24Z</time>
      </trkpt>
      <trkpt lat="48.51024" lon="0.2466">
        <ele>149</ele>
        <time>2022-05-21T20:49:42Z</time>
      </trkpt>
      <trkpt lat="48.51021" lon="0.24675">
        <ele>150</ele>
        <time>2022-05-21T20:49:44Z</time>
      </trkpt>
      <trkpt lat="48.51015" lon="0.24688">
        <ele>151</ele>
        <time>2022-05-21T20:49:45Z</time>
      </trkpt>
      <trkpt lat="48.51005" lon="0.24685">
        <ele>151</ele>
        <time>2022-05-21T20:49:47Z</time>
      </trkpt>
      <trkpt lat="48.5094" lon="0.24683">
        <ele>153</ele>
        <time>2022-05-21T20:49:59Z</time>
      </trkpt>
      <trkpt lat="48.50893" lon="0.24676">
        <ele>154</ele>
        <time>2022-05-21T20:50:07Z</time>
      </trkpt>
      <trkpt lat="48.50882" lon="0.24671">
        <ele>154</ele>
        <time>2022-05-21T20:50:09Z</time>
      </trkpt>
      <trkpt lat="48.50781" lon="0.24648">
        <ele>154</ele>
        <time>2022-05-21T20:50:27Z</time>
      </trkpt>
      <trkpt lat="48.5074" lon="0.24635">
        <ele>153</ele>
        <time>2022-05-21T20:50:35Z</time>
      </trkpt>
      <trkpt lat="48.50708" lon="0.2463">
        <ele>153</ele>
        <time>2022-05-21T20:50:41Z</time>
      </trkpt>
      <trkpt lat="48.50663" lon="0.24618">
        <ele>152</ele>
        <time>2022-05-21T20:50:49Z</time>
      </trkpt>
      <trkpt lat="48.50653" lon="0.24618">
        <ele>152</ele>
        <time>2022-05-21T20:50:51Z</time>
      </trkpt>
      <trkpt lat="48.50646" lon="0.24629">
        <ele>153</ele>
        <time>2022-05-21T20:50:52Z</time>
      </trkpt>
      <trkpt lat="48.50641" lon="0.2467">
        <ele>157</ele>
        <time>2022-05-21T20:50:57Z</time>
      </trkpt>
      <trkpt lat="48.50631" lon="0.24666">
        <ele>157</ele>
        <time>2022-05-21T20:50:59Z</time>
      </trkpt>
      <trkpt lat="48.50644" lon="0.24656">
        <ele>156</ele>
        <time>2022-05-21T20:51:02Z</time>
      </trkpt>
      <trkpt lat="48.50635" lon="0.24672">
        <ele>157</ele>
        <time>2022-05-21T20:51:04Z</time>
      </trkpt>
      <trkpt lat="48.50641" lon="0.24655">
        <ele>156</ele>
        <time>2022-05-21T20:51:06Z</time>
      </trkpt>
      <trkpt lat="48.50645" lon="0.24609">
        <ele>151</ele>
        <time>2022-05-21T20:51:12Z</time>
      </trkpt>
      <trkpt lat="48.5064" lon="0.24597">
        <ele>151</ele>
        <time>2022-05-21T20:51:14Z</time>
      </trkpt>
      <trkpt lat="48.50575" lon="0.24589">
        <ele>151</ele>
        <time>2022-05-21T20:51:25Z</time>
      </trkpt>
      <trkpt lat="48.50498" lon="0.2457">
        <ele>151</ele>
        <time>2022-05-21T20:51:39Z</time>
      </trkpt>
      <trkpt lat="48.50457" lon="0.24563">
        <ele>152</ele>
        <time>2022-05-21T20:51:46Z</time>
      </trkpt>
      <trkpt lat="48.50391" lon="0.24544">
        <ele>151</ele>
        <time>2022-05-21T20:51:58Z</time>
      </trkpt>
      <trkpt lat="48.50282" lon="0.24519">
        <ele>150</ele>
        <time>2022-05-21T20:52:18Z</time>
      </trkpt>
      <trkpt lat="48.50243" lon="0.24502">
        <ele>151</ele>
        <time>2022-05-21T20:52:25Z</time>
      </trkpt>
      <trkpt lat="48.50157" lon="0.24485">
        <ele>158</ele>
        <time>2022-05-21T20:52:41Z</time>
      </trkpt>
      <trkpt lat="48.50124" lon="0.24475">
        <ele>159</ele>
        <time>2022-05-21T20:52:47Z</time>
      </trkpt>
      <trkpt lat="48.50066" lon="0.24463">
        <ele>160</ele>
        <time>2022-05-21T20:52:57Z</time>
      </trkpt>
      <trkpt lat="48.50031" lon="0.24454">
        <ele>160</ele>
        <time>2022-05-21T20:53:03Z</time>
      </trkpt>
      <trkpt lat="48.49996" lon="0.24441">
        <ele>160</ele>
        <time>2022-05-21T20:53:10Z</time>
      </trkpt>
      <trkpt lat="48.50005" lon="0.24445">
        <ele>160</ele>
        <time>2022-05-21T20:53:11Z</time>
      </trkpt>
      <trkpt lat="48.50024" lon="0.24443">
        <ele>160</ele>
        <time>2022-05-21T20:53:15Z</time>
      </trkpt>
      <trkpt lat="48.50073" lon="0.24452">
        <ele>160</ele>
        <time>2022-05-21T20:53:24Z</time>
      </trkpt>
      <trkpt lat="48.50042" lon="0.24458">
        <ele>160</ele>
        <time>2022-05-21T20:53:29Z</time>
      </trkpt>
      <trkpt lat="48.50032" lon="0.24457">
        <ele>160</ele>
        <time>2022-05-21T20:53:31Z</time>
      </trkpt>
      <trkpt lat="48.49961" lon="0.24437">
        <ele>160</ele>
        <time>2022-05-21T20:53:44Z</time>
      </trkpt>
      <trkpt lat="48.49948" lon="0.24437">
        <ele>160</ele>
        <time>2022-05-21T20:53:46Z</time>
      </trkpt>
      <trkpt lat="48.49925" lon="0.24431">
        <ele>159</ele>
        <time>2022-05-21T20:53:50Z</time>
      </trkpt>
      <trkpt lat="48.49913" lon="0.24425">
        <ele>159</ele>
        <time>2022-05-21T20:53:53Z</time>
      </trkpt>
      <trkpt lat="48.49871" lon="0.24418">
        <ele>156</ele>
        <time>2022-05-21T20:54:00Z</time>
      </trkpt>
      <trkpt lat="48.4986" lon="0.24413">
        <ele>156</ele>
        <time>2022-05-21T20:54:02Z</time>
      </trkpt>
      <trkpt lat="48.49825" lon="0.24406">
        <ele>153</ele>
        <time>2022-05-21T20:54:08Z</time>
      </trkpt>
      <trkpt lat="48.49802" lon="0.24397">
        <ele>151</ele>
        <time>2022-05-21T20:54:13Z</time>
      </trkpt>
      <trkpt lat="48.49788" lon="0.24395">
        <ele>150</ele>
        <time>2022-05-21T20:54:15Z</time>
      </trkpt>
      <trkpt lat="48.49747" lon="0.24364">
        <ele>147</ele>
        <time>2022-05-21T20:54:23Z</time>
      </trkpt>
      <trkpt lat="48.49721" lon="0.24334">
        <ele>147</ele>
        <time>2022-05-21T20:54:29Z</time>
      </trkpt>
      <trkpt lat="48.49711" lon="0.24333">
        <ele>147</ele>
        <time>2022-05-21T20:54:31Z</time>
      </trkpt>
      <trkpt lat="48.49718" lon="0.24363">
        <ele>147</ele>
        <time>2022-05-21T20:54:35Z</time>
      </trkpt>
      <trkpt lat="48.49731" lon="0.24453">
        <ele>146</ele>
        <time>2022-05-21T20:54:46Z</time>
      </trkpt>
      <trkpt lat="48.49737" lon="0.24469">
        <ele>145</ele>
        <time>2022-05-21T20:54:48Z</time>
      </trkpt>
      <trkpt lat="48.4975" lon="0.24532">
        <ele>145</ele>
        <time>2022-05-21T20:54:55Z</time>
      </trkpt>
      <trkpt lat="48.49768" lon="0.2464">
        <ele>147</ele>
        <time>2022-05-21T20:55:09Z</time>
      </trkpt>
      <trkpt lat="48.49768" lon="0.24658">
        <ele>146</ele>
        <time>2022-05-21T20:55:11Z</time>
      </trkpt>
      <trkpt lat="48.49782" lon="0.24708">
        <ele>148</ele>
        <time>2022-05-21T20:55:17Z</time>
      </trkpt>
      <trkpt lat="48.49787" lon="0.24753">
        <ele>148</ele>
        <time>2022-05-21T20:55:22Z</time>
      </trkpt>
      <trkpt lat="48.49798" lon="0.24801">
        <ele>148</ele>
        <time>2022-05-21T20:55:28Z</time>
      </trkpt>
      <trkpt lat="48.49802" lon="0.24849">
        <ele>148</ele>
        <time>2022-05-21T20:55:34Z</time>
      </trkpt>
      <trkpt lat="48.49811" lon="0.24894">
        <ele>147</ele>
        <time>2022-05-21T20:55:40Z</time>
      </trkpt>
      <trkpt lat="48.49822" lon="0.24981">
        <ele>147</ele>
        <time>2022-05-21T20:55:50Z</time>
      </trkpt>
      <trkpt lat="48.49825" lon="0.25028">
        <ele>147</ele>
        <time>2022-05-21T20:55:56Z</time>
      </trkpt>
      <trkpt lat="48.49842" lon="0.25125">
        <ele>148</ele>
        <time>2022-05-21T20:56:08Z</time>
      </trkpt>
      <trkpt lat="48.49843" lon="0.25173">
        <ele>147</ele>
        <time>2022-05-21T20:56:13Z</time>
      </trkpt>
      <trkpt lat="48.49862" lon="0.25297">
        <ele>145</ele>
        <time>2022-05-21T20:56:28Z</time>
      </trkpt>
      <trkpt lat="48.49863" lon="0.25315">
        <ele>144</ele>
        <time>2022-05-21T20:56:30Z</time>
      </trkpt>
      <trkpt lat="48.4986" lon="0.25332">
        <ele>143</ele>
        <time>2022-05-21T20:56:32Z</time>
      </trkpt>
      <trkpt lat="48.49815" lon="0.25464">
        <ele>141</ele>
        <time>2022-05-21T20:56:50Z</time>
      </trkpt>
      <trkpt lat="48.49799" lon="0.25502">
        <ele>144</ele>
        <time>2022-05-21T20:56:55Z</time>
      </trkpt>
      <trkpt lat="48.49787" lon="0.25572">
        <ele>147</ele>
        <time>2022-05-21T20:57:04Z</time>
      </trkpt>
      <trkpt lat="48.49776" lon="0.25668">
        <ele>149</ele>
        <time>2022-05-21T20:57:15Z</time>
      </trkpt>
      <trkpt lat="48.49761" lon="0.25714">
        <ele>149</ele>
        <time>2022-05-21T20:57:21Z</time>
      </trkpt>
      <trkpt lat="48.49745" lon="0.2574">
        <ele>149</ele>
        <time>2022-05-21T20:57:25Z</time>
      </trkpt>
      <trkpt lat="48.49736" lon="0.25749">
        <ele>149</ele>
        <time>2022-05-21T20:57:27Z</time>
      </trkpt>
      <trkpt lat="48.49704" lon="0.25771">
        <ele>149</ele>
        <time>2022-05-21T20:57:34Z</time>
      </trkpt>
      <trkpt lat="48.49684" lon="0.25779">
        <ele>150</ele>
        <time>2022-05-21T20:57:37Z</time>
      </trkpt>
      <trkpt lat="48.49661" lon="0.25783">
        <ele>151</ele>
        <time>2022-05-21T20:57:41Z</time>
      </trkpt>
      <trkpt lat="48.49589" lon="0.25806">
        <ele>154</ele>
        <time>2022-05-21T20:57:55Z</time>
      </trkpt>
      <trkpt lat="48.49571" lon="0.25823">
        <ele>154</ele>
        <time>2022-05-21T20:57:58Z</time>
      </trkpt>
      <trkpt lat="48.49551" lon="0.25865">
        <ele>154</ele>
        <time>2022-05-21T20:58:04Z</time>
      </trkpt>
      <trkpt lat="48.49503" lon="0.26044">
        <ele>157</ele>
        <time>2022-05-21T20:58:27Z</time>
      </trkpt>
      <trkpt lat="48.49461" lon="0.26175">
        <ele>161</ele>
        <time>2022-05-21T20:58:44Z</time>
      </trkpt>
      <trkpt lat="48.4945" lon="0.26201">
        <ele>162</ele>
        <time>2022-05-21T20:58:48Z</time>
      </trkpt>
      <trkpt lat="48.49437" lon="0.26225">
        <ele>163</ele>
        <time>2022-05-21T20:58:52Z</time>
      </trkpt>
      <trkpt lat="48.49382" lon="0.2629">
        <ele>166</ele>
        <time>2022-05-21T20:59:04Z</time>
      </trkpt>
      <trkpt lat="48.49368" lon="0.2631">
        <ele>166</ele>
        <time>2022-05-21T20:59:08Z</time>
      </trkpt>
      <trkpt lat="48.49358" lon="0.26318">
        <ele>167</ele>
        <time>2022-05-21T20:59:10Z</time>
      </trkpt>
      <trkpt lat="48.49333" lon="0.26347">
        <ele>168</ele>
        <time>2022-05-21T20:59:15Z</time>
      </trkpt>
      <trkpt lat="48.49324" lon="0.26348">
        <ele>169</ele>
        <time>2022-05-21T20:59:17Z</time>
      </trkpt>
      <trkpt lat="48.49316" lon="0.26352">
        <ele>169</ele>
        <time>2022-05-21T20:59:18Z</time>
      </trkpt>
      <trkpt lat="48.4931" lon="0.2634">
        <ele>170</ele>
        <time>2022-05-21T20:59:20Z</time>
      </trkpt>
      <trkpt lat="48.49287" lon="0.26311">
        <ele>172</ele>
        <time>2022-05-21T20:59:25Z</time>
      </trkpt>
      <trkpt lat="48.49281" lon="0.26298">
        <ele>172</ele>
        <time>2022-05-21T20:59:27Z</time>
      </trkpt>
      <trkpt lat="48.49272" lon="0.26292">
        <ele>173</ele>
        <time>2022-05-21T20:59:29Z</time>
      </trkpt>
      <trkpt lat="48.49258" lon="0.26273">
        <ele>173</ele>
        <time>2022-05-21T20:59:32Z</time>
      </trkpt>
      <trkpt lat="48.49244" lon="0.26249">
        <ele>173</ele>
        <time>2022-05-21T20:59:36Z</time>
      </trkpt>
      <trkpt lat="48.49196" lon="0.26181">
        <ele>173</ele>
        <time>2022-05-21T20:59:48Z</time>
      </trkpt>
      <trkpt lat="48.49156" lon="0.26114">
        <ele>171</ele>
        <time>2022-05-21T20:59:58Z</time>
      </trkpt>
      <trkpt lat="48.49131" lon="0.26079">
        <ele>169</ele>
        <time>2022-05-21T21:00:05Z</time>
      </trkpt>
      <trkpt lat="48.49046" lon="0.25943">
        <ele>163</ele>
        <time>2022-05-21T21:00:27Z</time>
      </trkpt>
      <trkpt lat="48.48936" lon="0.25782">
        <ele>159</ele>
        <time>2022-05-21T21:00:54Z</time>
      </trkpt>
      <trkpt lat="48.48904" lon="0.25726">
        <ele>159</ele>
        <time>2022-05-21T21:01:03Z</time>
      </trkpt>
      <trkpt lat="48.48885" lon="0.257">
        <ele>158</ele>
        <time>2022-05-21T21:01:07Z</time>
      </trkpt>
      <trkpt lat="48.4883" lon="0.25616">
        <ele>158</ele>
        <time>2022-05-21T21:01:21Z</time>
      </trkpt>
      <trkpt lat="48.48801" lon="0.25566">
        <ele>159</ele>
        <time>2022-05-21T21:01:29Z</time>
      </trkpt>
      <trkpt lat="48.48791" lon="0.25554">
        <ele>158</ele>
        <time>2022-05-21T21:01:31Z</time>
      </trkpt>
      <trkpt lat="48.48744" lon="0.25482">
        <ele>159</ele>
        <time>2022-05-21T21:01:43Z</time>
      </trkpt>
      <trkpt lat="48.48666" lon="0.25355">
        <ele>158</ele>
        <time>2022-05-21T21:02:03Z</time>
      </trkpt>
      <trkpt lat="48.48594" lon="0.25248">
        <ele>156</ele>
        <time>2022-05-21T21:02:21Z</time>
      </trkpt>
      <trkpt lat="48.48567" lon="0.25213">
        <ele>155</ele>
        <time>2022-05-21T21:02:28Z</time>
      </trkpt>
      <trkpt lat="48.48522" lon="0.25143">
        <ele>155</ele>
        <time>2022-05-21T21:02:39Z</time>
      </trkpt>
      <trkpt lat="48.48461" lon="0.25061">
        <ele>153</ele>
        <time>2022-05-21T21:02:54Z</time>
      </trkpt>
      <trkpt lat="48.48447" lon="0.25034">
        <ele>153</ele>
        <time>2022-05-21T21:02:58Z</time>
      </trkpt>
      <trkpt lat="48.48381" lon="0.24933">
        <ele>150</ele>
        <time>2022-05-21T21:03:15Z</time>
      </trkpt>
      <trkpt lat="48.48315" lon="0.24815">
        <ele>146</ele>
        <time>2022-05-21T21:03:33Z</time>
      </trkpt>
      <trkpt lat="48.48292" lon="0.2478">
        <ele>144</ele>
        <time>2022-05-21T21:03:39Z</time>
      </trkpt>
      <trkpt lat="48.48283" lon="0.24773">
        <ele>143</ele>
        <time>2022-05-21T21:03:40Z</time>
      </trkpt>
      <trkpt lat="48.48274" lon="0.24777">
        <ele>143</ele>
        <time>2022-05-21T21:03:42Z</time>
      </trkpt>
      <trkpt lat="48.48283" lon="0.2484">
        <ele>144</ele>
        <time>2022-05-21T21:03:50Z</time>
      </trkpt>
      <trkpt lat="48.48286" lon="0.24825">
        <ele>144</ele>
        <time>2022-05-21T21:03:52Z</time>
      </trkpt>
      <trkpt lat="48.48269" lon="0.24708">
        <ele>142</ele>
        <time>2022-05-21T21:04:06Z</time>
      </trkpt>
      <trkpt lat="48.48261" lon="0.24611">
        <ele>142</ele>
        <time>2022-05-21T21:04:17Z</time>
      </trkpt>
      <trkpt lat="48.48251" lon="0.2461">
        <ele>141</ele>
        <time>2022-05-21T21:04:19Z</time>
      </trkpt>
      <trkpt lat="48.48244" lon="0.24621">
        <ele>141</ele>
        <time>2022-05-21T21:04:21Z</time>
      </trkpt>
      <trkpt lat="48.48173" lon="0.24634">
        <ele>140</ele>
        <time>2022-05-21T21:04:34Z</time>
      </trkpt>
      <trkpt lat="48.48138" lon="0.24646">
        <ele>139</ele>
        <time>2022-05-21T21:04:40Z</time>
      </trkpt>
      <trkpt lat="48.48126" lon="0.24648">
        <ele>138</ele>
        <time>2022-05-21T21:04:42Z</time>
      </trkpt>
      <trkpt lat="48.47975" lon="0.24714">
        <ele>137</ele>
        <time>2022-05-21T21:05:10Z</time>
      </trkpt>
      <trkpt lat="48.47926" lon="0.2473">
        <ele>138</ele>
        <time>2022-05-21T21:05:19Z</time>
      </trkpt>
      <trkpt lat="48.47895" lon="0.24732">
        <ele>139</ele>
        <time>2022-05-21T21:05:24Z</time>
      </trkpt>
      <trkpt lat="48.47787" lon="0.24729">
        <ele>138</ele>
        <time>2022-05-21T21:05:44Z</time>
      </trkpt>
      <trkpt lat="48.47679" lon="0.24716">
        <ele>136</ele>
        <time>2022-05-21T21:06:03Z</time>
      </trkpt>
      <trkpt lat="48.47646" lon="0.24723">
        <ele>136</ele>
        <time>2022-05-21T21:06:09Z</time>
      </trkpt>
      <trkpt lat="48.47552" lon="0.24737">
        <ele>136</ele>
        <time>2022-05-21T21:06:26Z</time>
      </trkpt>
      <trkpt lat="48.47436" lon="0.24741">
        <ele>137</ele>
        <time>2022-05-21T21:06:46Z</time>
      </trkpt>
      <trkpt lat="48.4739" lon="0.2474">
        <ele>136</ele>
        <time>2022-05-21T21:06:55Z</time>
      </trkpt>
      <trkpt lat="48.47361" lon="0.24743">
        <ele>136</ele>
        <time>2022-05-21T21:07:00Z</time>
      </trkpt>
      <trkpt lat="48.47334" lon="0.24754">
        <ele>135</ele>
        <time>2022-05-21T21:07:05Z</time>
      </trkpt>
      <trkpt lat="48.47309" lon="0.24776">
        <ele>135</ele>
        <time>2022-05-21T21:07:10Z</time>
      </trkpt>
      <trkpt lat="48.47295" lon="0.248">
        <ele>135</ele>
        <time>2022-05-21T21:07:14Z</time>
      </trkpt>
      <trkpt lat="48.47254" lon="0.24897">
        <ele>136</ele>
        <time>2022-05-21T21:07:27Z</time>
      </trkpt>
      <trkpt lat="48.47232" lon="0.24925">
        <ele>137</ele>
        <time>2022-05-21T21:07:32Z</time>
      </trkpt>
      <trkpt lat="48.47209" lon="0.2494">
        <ele>137</ele>
        <time>2022-05-21T21:07:37Z</time>
      </trkpt>
      <trkpt lat="48.47068" lon="0.25011">
        <ele>142</ele>
        <time>2022-05-21T21:08:03Z</time>
      </trkpt>
      <trkpt lat="48.47011" lon="0.25034">
        <ele>144</ele>
        <time>2022-05-21T21:08:14Z</time>
      </trkpt>
      <trkpt lat="48.4696" lon="0.25049">
        <ele>145</ele>
        <time>2022-05-21T21:08:23Z</time>
      </trkpt>
      <trkpt lat="48.4675" lon="0.25094">
        <ele>147</ele>
        <time>2022-05-21T21:09:01Z</time>
      </trkpt>
      <trkpt lat="48.4673" lon="0.25097">
        <ele>146</ele>
        <time>2022-05-21T21:09:04Z</time>
      </trkpt>
      <trkpt lat="48.46708" lon="0.25097">
        <ele>145</ele>
        <time>2022-05-21T21:09:08Z</time>
      </trkpt>
      <trkpt lat="48.46675" lon="0.2509">
        <ele>143</ele>
        <time>2022-05-21T21:09:14Z</time>
      </trkpt>
      <trkpt lat="48.4657" lon="0.25051">
        <ele>144</ele>
        <time>2022-05-21T21:09:33Z</time>
      </trkpt>
      <trkpt lat="48.46545" lon="0.25044">
        <ele>145</ele>
        <time>2022-05-21T21:09:38Z</time>
      </trkpt>
      <trkpt lat="48.46505" lon="0.25024">
        <ele>147</ele>
        <time>2022-05-21T21:09:45Z</time>
      </trkpt>
      <trkpt lat="48.46452" lon="0.25003">
        <ele>148</ele>
        <time>2022-05-21T21:09:55Z</time>
      </trkpt>
      <trkpt lat="48.46398" lon="0.24987">
        <ele>148</ele>
        <time>2022-05-21T21:10:05Z</time>
      </trkpt>
      <trkpt lat="48.4634" lon="0.24977">
        <ele>147</ele>
        <time>2022-05-21T21:10:15Z</time>
      </trkpt>
      <trkpt lat="48.46217" lon="0.24978">
        <ele>146</ele>
        <time>2022-05-21T21:10:37Z</time>
      </trkpt>
      <trkpt lat="48.46184" lon="0.24981">
        <ele>147</ele>
        <time>2022-05-21T21:10:43Z</time>
      </trkpt>
      <trkpt lat="48.4615" lon="0.24979">
        <ele>148</ele>
        <time>2022-05-21T21:10:49Z</time>
      </trkpt>
      <trkpt lat="48.46044" lon="0.24983">
        <ele>149</ele>
        <time>2022-05-21T21:11:08Z</time>
      </trkpt>
      <trkpt lat="48.45965" lon="0.24982">
        <ele>150</ele>
        <time>2022-05-21T21:11:22Z</time>
      </trkpt>
      <trkpt lat="48.45954" lon="0.2498">
        <ele>150</ele>
        <time>2022-05-21T21:11:24Z</time>
      </trkpt>
      <trkpt lat="48.45803" lon="0.24994">
        <ele>153</ele>
        <time>2022-05-21T21:11:51Z</time>
      </trkpt>
      <trkpt lat="48.45677" lon="0.25029">
        <ele>153</ele>
        <time>2022-05-21T21:12:14Z</time>
      </trkpt>
      <trkpt lat="48.4553" lon="0.25076">
        <ele>154</ele>
        <time>2022-05-21T21:12:40Z</time>
      </trkpt>
      <trkpt lat="48.45493" lon="0.25091">
        <ele>155</ele>
        <time>2022-05-21T21:12:47Z</time>
      </trkpt>
      <trkpt lat="48.45475" lon="0.25102">
        <ele>154</ele>
        <time>2022-05-21T21:12:51Z</time>
      </trkpt>
      <trkpt lat="48.45462" lon="0.25106">
        <ele>154</ele>
        <time>2022-05-21T21:12:53Z</time>
      </trkpt>
      <trkpt lat="48.45403" lon="0.25137">
        <ele>153</ele>
        <time>2022-05-21T21:13:04Z</time>
      </trkpt>
      <trkpt lat="48.45355" lon="0.25158">
        <ele>154</ele>
        <time>2022-05-21T21:13:13Z</time>
      </trkpt>
      <trkpt lat="48.45314" lon="0.25171">
        <ele>155</ele>
        <time>2022-05-21T21:13:21Z</time>
      </trkpt>
      <trkpt lat="48.45158" lon="0.2523">
        <ele>156</ele>
        <time>2022-05-21T21:13:49Z</time>
      </trkpt>
      <trkpt lat="48.45137" lon="0.25242">
        <ele>156</ele>
        <time>2022-05-21T21:13:53Z</time>
      </trkpt>
      <trkpt lat="48.45105" lon="0.25268">
        <ele>157</ele>
        <time>2022-05-21T21:14:00Z</time>
      </trkpt>
      <trkpt lat="48.45085" lon="0.25292">
        <ele>157</ele>
        <time>2022-05-21T21:14:04Z</time>
      </trkpt>
      <trkpt lat="48.45063" lon="0.25313">
        <ele>157</ele>
        <time>2022-05-21T21:14:09Z</time>
      </trkpt>
      <trkpt lat="48.45046" lon="0.25325">
        <ele>158</ele>
        <time>2022-05-21T21:14:12Z</time>
      </trkpt>
      <trkpt lat="48.44919" lon="0.25366">
        <ele>159</ele>
        <time>2022-05-21T21:14:35Z</time>
      </trkpt>
      <trkpt lat="48.44792" lon="0.25376">
        <ele>162</ele>
        <time>2022-05-21T21:14:58Z</time>
      </trkpt>
      <trkpt lat="48.44783" lon="0.25374">
        <ele>162</ele>
        <time>2022-05-21T21:15:00Z</time>
      </trkpt>
      <trkpt lat="48.44779" lon="0.2539">
        <ele>162</ele>
        <time>2022-05-21T21:15:02Z</time>
      </trkpt>
      <trkpt lat="48.44776" lon="0.25421">
        <ele>163</ele>
        <time>2022-05-21T21:15:05Z</time>
      </trkpt>
      <trkpt lat="48.44765" lon="0.25451">
        <ele>163</ele>
        <time>2022-05-21T21:15:09Z</time>
      </trkpt>
      <trkpt lat="48.44773" lon="0.25443">
        <ele>162</ele>
        <time>2022-05-21T21:15:11Z</time>
      </trkpt>
      <trkpt lat="48.44763" lon="0.25439">
        <ele>163</ele>
        <time>2022-05-21T21:15:13Z</time>
      </trkpt>
      <trkpt lat="48.44744" lon="0.25452">
        <ele>163</ele>
        <time>2022-05-21T21:15:17Z</time>
      </trkpt>
      <trkpt lat="48.44751" lon="0.2544">
        <ele>163</ele>
        <time>2022-05-21T21:15:18Z</time>
      </trkpt>
      <trkpt lat="48.4475" lon="0.25456">
        <ele>163</ele>
        <time>2022-05-21T21:15:20Z</time>
      </trkpt>
      <trkpt lat="48.44728" lon="0.25456">
        <ele>163</ele>
        <time>2022-05-21T21:15:24Z</time>
      </trkpt>
      <trkpt lat="48.44689" lon="0.25469">
        <ele>163</ele>
        <time>2022-05-21T21:15:31Z</time>
      </trkpt>
      <trkpt lat="48.4465" lon="0.25496">
        <ele>163</ele>
        <time>2022-05-21T21:15:39Z</time>
      </trkpt>
      <trkpt lat="48.4462" lon="0.25511">
        <ele>164</ele>
        <time>2022-05-21T21:15:45Z</time>
      </trkpt>
      <trkpt lat="48.44564" lon="0.25545">
        <ele>166</ele>
        <time>2022-05-21T21:15:55Z</time>
      </trkpt>
      <trkpt lat="48.44506" lon="0.2559">
        <ele>168</ele>
        <time>2022-05-21T21:16:07Z</time>
      </trkpt>
      <trkpt lat="48.44489" lon="0.25607">
        <ele>168</ele>
        <time>2022-05-21T21:16:11Z</time>
      </trkpt>
      <trkpt lat="48.44461" lon="0.25628">
        <ele>168</ele>
        <time>2022-05-21T21:16:16Z</time>
      </trkpt>
      <trkpt lat="48.44442" lon="0.25638">
        <ele>168</ele>
        <time>2022-05-21T21:16:20Z</time>
      </trkpt>
      <trkpt lat="48.44418" lon="0.25663">
        <ele>168</ele>
        <time>2022-05-21T21:16:25Z</time>
      </trkpt>
      <trkpt lat="48.44392" lon="0.25682">
        <ele>169</ele>
        <time>2022-05-21T21:16:30Z</time>
      </trkpt>
      <trkpt lat="48.44359" lon="0.25711">
        <ele>170</ele>
        <time>2022-05-21T21:16:37Z</time>
      </trkpt>
      <trkpt lat="48.4431" lon="0.25743">
        <ele>171</ele>
        <time>2022-05-21T21:16:46Z</time>
      </trkpt>
      <trkpt lat="48.44294" lon="0.25756">
        <ele>171</ele>
        <time>2022-05-21T21:16:50Z</time>
      </trkpt>
      <trkpt lat="48.44205" lon="0.25802">
        <ele>172</ele>
        <time>2022-05-21T21:17:06Z</time>
      </trkpt>
      <trkpt lat="48.44177" lon="0.25819">
        <ele>172</ele>
        <time>2022-05-21T21:17:12Z</time>
      </trkpt>
      <trkpt lat="48.44168" lon="0.25828">
        <ele>172</ele>
        <time>2022-05-21T21:17:14Z</time>
      </trkpt>
      <trkpt lat="48.44146" lon="0.25843">
        <ele>173</ele>
        <time>2022-05-21T21:17:18Z</time>
      </trkpt>
      <trkpt lat="48.44103" lon="0.25884">
        <ele>174</ele>
        <time>2022-05-21T21:17:27Z</time>
      </trkpt>
      <trkpt lat="48.44056" lon="0.25922">
        <ele>175</ele>
        <time>2022-05-21T21:17:36Z</time>
      </trkpt>
      <trkpt lat="48.43962" lon="0.25987">
        <ele>179</ele>
        <time>2022-05-21T21:17:55Z</time>
      </trkpt>
      <trkpt lat="48.43934" lon="0.26013">
        <ele>180</ele>
        <time>2022-05-21T21:18:01Z</time>
      </trkpt>
      <trkpt lat="48.4391" lon="0.26043">
        <ele>180</ele>
        <time>2022-05-21T21:18:06Z</time>
      </trkpt>
      <trkpt lat="48.43903" lon="0.26054">
        <ele>181</ele>
        <time>2022-05-21T21:18:08Z</time>
      </trkpt>
      <trkpt lat="48.43873" lon="0.26125">
        <ele>180</ele>
        <time>2022-05-21T21:18:18Z</time>
      </trkpt>
      <trkpt lat="48.43852" lon="0.26159">
        <ele>181</ele>
        <time>2022-05-21T21:18:23Z</time>
      </trkpt>
      <trkpt lat="48.43835" lon="0.26179">
        <ele>181</ele>
        <time>2022-05-21T21:18:27Z</time>
      </trkpt>
      <trkpt lat="48.43826" lon="0.26188">
        <ele>181</ele>
        <time>2022-05-21T21:18:29Z</time>
      </trkpt>
      <trkpt lat="48.43807" lon="0.26201">
        <ele>181</ele>
        <time>2022-05-21T21:18:33Z</time>
      </trkpt>
      <trkpt lat="48.43765" lon="0.2622">
        <ele>182</ele>
        <time>2022-05-21T21:18:41Z</time>
      </trkpt>
      <trkpt lat="48.43729" lon="0.26244">
        <ele>182</ele>
        <time>2022-05-21T21:18:48Z</time>
      </trkpt>
      <trkpt lat="48.43718" lon="0.26247">
        <ele>183</ele>
        <time>2022-05-21T21:18:50Z</time>
      </trkpt>
      <trkpt lat="48.437" lon="0.26244">
        <ele>184</ele>
        <time>2022-05-21T21:18:53Z</time>
      </trkpt>
      <trkpt lat="48.43672" lon="0.26224">
        <ele>186</ele>
        <time>2022-05-21T21:18:58Z</time>
      </trkpt>
      <trkpt lat="48.43656" lon="0.26209">
        <ele>187</ele>
        <time>2022-05-21T21:19:02Z</time>
      </trkpt>
      <trkpt lat="48.43585" lon="0.26166">
        <ele>195</ele>
        <time>2022-05-21T21:19:15Z</time>
      </trkpt>
      <trkpt lat="48.43565" lon="0.26155">
        <ele>196</ele>
        <time>2022-05-21T21:19:19Z</time>
      </trkpt>
      <trkpt lat="48.43556" lon="0.26153">
        <ele>196</ele>
        <time>2022-05-21T21:19:21Z</time>
      </trkpt>
      <trkpt lat="48.4354" lon="0.26134">
        <ele>197</ele>
        <time>2022-05-21T21:19:24Z</time>
      </trkpt>
      <trkpt lat="48.43527" lon="0.26112">
        <ele>198</ele>
        <time>2022-05-21T21:19:28Z</time>
      </trkpt>
      <trkpt lat="48.43519" lon="0.26103">
        <ele>199</ele>
        <time>2022-05-21T21:19:30Z</time>
      </trkpt>
      <trkpt lat="48.43509" lon="0.26075">
        <ele>201</ele>
        <time>2022-05-21T21:19:33Z</time>
      </trkpt>
      <trkpt lat="48.43484" lon="0.25981">
        <ele>206</ele>
        <time>2022-05-21T21:19:45Z</time>
      </trkpt>
      <trkpt lat="48.43475" lon="0.25975">
        <ele>207</ele>
        <time>2022-05-21T21:19:47Z</time>
      </trkpt>
      <trkpt lat="48.43466" lon="0.25979">
        <ele>209</ele>
        <time>2022-05-21T21:19:49Z</time>
      </trkpt>
      <trkpt lat="48.43457" lon="0.25959">
        <ele>211</ele>
        <time>2022-05-21T21:19:52Z</time>
      </trkpt>
      <trkpt lat="48.43413" lon="0.25903">
        <ele>219</ele>
        <time>2022-05-21T21:20:02Z</time>
      </trkpt>
      <trkpt lat="48.43386" lon="0.25888">
        <ele>222</ele>
        <time>2022-05-21T21:20:07Z</time>
      </trkpt>
      <trkpt lat="48.43376" lon="0.2589">
        <ele>223</ele>
        <time>2022-05-21T21:20:09Z</time>
      </trkpt>
      <trkpt lat="48.4337" lon="0.25917">
        <ele>223</ele>
        <time>2022-05-21T21:20:12Z</time>
      </trkpt>
      <trkpt lat="48.43354" lon="0.25933">
        <ele>224</ele>
        <time>2022-05-21T21:20:16Z</time>
      </trkpt>
      <trkpt lat="48.4334" lon="0.25953">
        <ele>225</ele>
        <time>2022-05-21T21:20:19Z</time>
      </trkpt>
      <trkpt lat="48.43322" lon="0.25961">
        <ele>226</ele>
        <time>2022-05-21T21:20:22Z</time>
      </trkpt>
      <trkpt lat="48.43326" lon="0.25979">
        <ele>225</ele>
        <time>2022-05-21T21:20:25Z</time>
      </trkpt>
      <trkpt lat="48.43323" lon="0.25995">
        <ele>225</ele>
        <time>2022-05-21T21:20:27Z</time>
      </trkpt>
      <trkpt lat="48.43291" lon="0.26049">
        <ele>224</ele>
        <time>2022-05-21T21:20:35Z</time>
      </trkpt>
      <trkpt lat="48.43281" lon="0.26053">
        <ele>225</ele>
        <time>2022-05-21T21:20:37Z</time>
      </trkpt>
      <trkpt lat="48.43276" lon="0.26067">
        <ele>225</ele>
        <time>2022-05-21T21:20:39Z</time>
      </trkpt>
      <trkpt lat="48.43286" lon="0.2607">
        <ele>223</ele>
        <time>2022-05-21T21:20:41Z</time>
      </trkpt>
      <trkpt lat="48.43296" lon="0.26058">
        <ele>222</ele>
        <time>2022-05-21T21:20:43Z</time>
      </trkpt>
      <trkpt lat="48.43287" lon="0.26053">
        <ele>224</ele>
        <time>2022-05-21T21:20:45Z</time>
      </trkpt>
      <trkpt lat="48.4328" lon="0.26063">
        <ele>225</ele>
        <time>2022-05-21T21:20:46Z</time>
      </trkpt>
      <trkpt lat="48.43269" lon="0.26072">
        <ele>226</ele>
        <time>2022-05-21T21:20:49Z</time>
      </trkpt>
      <trkpt lat="48.43272" lon="0.26087">
        <ele>224</ele>
        <time>2022-05-21T21:20:50Z</time>
      </trkpt>
      <trkpt lat="48.4328" lon="0.26094">
        <ele>222</ele>
        <time>2022-05-21T21:20:52Z</time>
      </trkpt>
      <trkpt lat="48.43271" lon="0.26102">
        <ele>223</ele>
        <time>2022-05-21T21:20:54Z</time>
      </trkpt>
      <trkpt lat="48.43267" lon="0.26114">
        <ele>223</ele>
        <time>2022-05-21T21:20:56Z</time>
      </trkpt>
      <trkpt lat="48.43248" lon="0.26207">
        <ele>220</ele>
        <time>2022-05-21T21:21:07Z</time>
      </trkpt>
      <trkpt lat="48.43229" lon="0.26266">
        <ele>220</ele>
        <time>2022-05-21T21:21:15Z</time>
      </trkpt>
      <trkpt lat="48.43223" lon="0.26276">
        <ele>221</ele>
        <time>2022-05-21T21:21:16Z</time>
      </trkpt>
      <trkpt lat="48.43222" lon="0.2629">
        <ele>221</ele>
        <time>2022-05-21T21:21:18Z</time>
      </trkpt>
      <trkpt lat="48.43208" lon="0.26343">
        <ele>221</ele>
        <time>2022-05-21T21:21:25Z</time>
      </trkpt>
      <trkpt lat="48.43153" lon="0.26412">
        <ele>226</ele>
        <time>2022-05-21T21:21:38Z</time>
      </trkpt>
      <trkpt lat="48.43136" lon="0.26424">
        <ele>229</ele>
        <time>2022-05-21T21:21:41Z</time>
      </trkpt>
      <trkpt lat="48.43087" lon="0.26453">
        <ele>236</ele>
        <time>2022-05-21T21:21:50Z</time>
      </trkpt>
      <trkpt lat="48.43006" lon="0.26482">
        <ele>237</ele>
        <time>2022-05-21T21:22:05Z</time>
      </trkpt>
      <trkpt lat="48.42988" lon="0.26492">
        <ele>238</ele>
        <time>2022-05-21T21:22:08Z</time>
      </trkpt>
      <trkpt lat="48.4297" lon="0.26508">
        <ele>241</ele>
        <time>2022-05-21T21:22:12Z</time>
      </trkpt>
      <trkpt lat="48.42955" lon="0.26526">
        <ele>243</ele>
        <time>2022-05-21T21:22:16Z</time>
      </trkpt>
      <trkpt lat="48.42948" lon="0.26539">
        <ele>243</ele>
        <time>2022-05-21T21:22:18Z</time>
      </trkpt>
      <trkpt lat="48.42916" lon="0.26622">
        <ele>241</ele>
        <time>2022-05-21T21:22:29Z</time>
      </trkpt>
      <trkpt lat="48.42903" lon="0.26646">
        <ele>242</ele>
        <time>2022-05-21T21:22:33Z</time>
      </trkpt>
      <trkpt lat="48.42881" lon="0.26675">
        <ele>244</ele>
        <time>2022-05-21T21:22:38Z</time>
      </trkpt>
      <trkpt lat="48.42839" lon="0.26716">
        <ele>248</ele>
        <time>2022-05-21T21:22:47Z</time>
      </trkpt>
      <trkpt lat="48.42775" lon="0.26787">
        <ele>254</ele>
        <time>2022-05-21T21:23:01Z</time>
      </trkpt>
      <trkpt lat="48.42746" lon="0.26829">
        <ele>252</ele>
        <time>2022-05-21T21:23:08Z</time>
      </trkpt>
      <trkpt lat="48.42721" lon="0.26875">
        <ele>258</ele>
        <time>2022-05-21T21:23:15Z</time>
      </trkpt>
      <trkpt lat="48.42715" lon="0.2689">
        <ele>259</ele>
        <time>2022-05-21T21:23:17Z</time>
      </trkpt>
      <trkpt lat="48.42708" lon="0.26919">
        <ele>260</ele>
        <time>2022-05-21T21:23:21Z</time>
      </trkpt>
      <trkpt lat="48.42703" lon="0.26966">
        <ele>261</ele>
        <time>2022-05-21T21:23:26Z</time>
      </trkpt>
      <trkpt lat="48.42704" lon="0.26996">
        <ele>262</ele>
        <time>2022-05-21T21:23:30Z</time>
      </trkpt>
      <trkpt lat="48.427" lon="0.27071">
        <ele>261</ele>
        <time>2022-05-21T21:23:39Z</time>
      </trkpt>
      <trkpt lat="48.42687" lon="0.27113">
        <ele>261</ele>
        <time>2022-05-21T21:23:44Z</time>
      </trkpt>
      <trkpt lat="48.4267" lon="0.27152">
        <ele>259</ele>
        <time>2022-05-21T21:23:50Z</time>
      </trkpt>
      <trkpt lat="48.42638" lon="0.27246">
        <ele>266</ele>
        <time>2022-05-21T21:24:02Z</time>
      </trkpt>
      <trkpt lat="48.42619" lon="0.27284">
        <ele>270</ele>
        <time>2022-05-21T21:24:08Z</time>
      </trkpt>
      <trkpt lat="48.42554" lon="0.27377">
        <ele>278</ele>
        <time>2022-05-21T21:24:24Z</time>
      </trkpt>
      <trkpt lat="48.42522" lon="0.27435">
        <ele>279</ele>
        <time>2022-05-21T21:24:33Z</time>
      </trkpt>
      <trkpt lat="48.4246" lon="0.27583">
        <ele>284</ele>
        <time>2022-05-21T21:24:53Z</time>
      </trkpt>
      <trkpt lat="48.42431" lon="0.27644">
        <ele>287</ele>
        <time>2022-05-21T21:25:02Z</time>
      </trkpt>
      <trkpt lat="48.42415" lon="0.27686">
        <ele>287</ele>
        <time>2022-05-21T21:25:08Z</time>
      </trkpt>
      <trkpt lat="48.42399" lon="0.27754">
        <ele>292</ele>
        <time>2022-05-21T21:25:16Z</time>
      </trkpt>
      <trkpt lat="48.42396" lon="0.27796">
        <ele>293</ele>
        <time>2022-05-21T21:25:21Z</time>
      </trkpt>
      <trkpt lat="48.42398" lon="0.27915">
        <ele>295</ele>
        <time>2022-05-21T21:25:35Z</time>
      </trkpt>
      <trkpt lat="48.42392" lon="0.27926">
        <ele>296</ele>
        <time>2022-05-21T21:25:37Z</time>
      </trkpt>
      <trkpt lat="48.42379" lon="0.27965">
        <ele>299</ele>
        <time>2022-05-21T21:25:42Z</time>
      </trkpt>
      <trkpt lat="48.42366" lon="0.28017">
        <ele>303</ele>
        <time>2022-05-21T21:25:49Z</time>
      </trkpt>
      <trkpt lat="48.42346" lon="0.28066">
        <ele>307</ele>
        <time>2022-05-21T21:25:56Z</time>
      </trkpt>
      <trkpt lat="48.42312" lon="0.28117">
        <ele>309</ele>
        <time>2022-05-21T21:26:04Z</time>
      </trkpt>
      <trkpt lat="48.42266" lon="0.28172">
        <ele>312</ele>
        <time>2022-05-21T21:26:15Z</time>
      </trkpt>
      <trkpt lat="48.42216" lon="0.28224">
        <ele>317</ele>
        <time>2022-05-21T21:26:25Z</time>
      </trkpt>
      <trkpt lat="48.42189" lon="0.28243">
        <ele>319</ele>
        <time>2022-05-21T21:26:31Z</time>
      </trkpt>
      <trkpt lat="48.4214" lon="0.28288">
        <ele>323</ele>
        <time>2022-05-21T21:26:41Z</time>
      </trkpt>
      <trkpt lat="48.42111" lon="0.28325">
        <ele>326</ele>
        <time>2022-05-21T21:26:48Z</time>
      </trkpt>
      <trkpt lat="48.42056" lon="0.2841">
        <ele>333</ele>
        <time>2022-05-21T21:27:02Z</time>
      </trkpt>
      <trkpt lat="48.42006" lon="0.28504">
        <ele>341</ele>
        <time>2022-05-21T21:27:16Z</time>
      </trkpt>
      <trkpt lat="48.42001" lon="0.28518">
        <ele>342</ele>
        <time>2022-05-21T21:27:18Z</time>
      </trkpt>
      <trkpt lat="48.4198" lon="0.28553">
        <ele>342</ele>
        <time>2022-05-21T21:27:23Z</time>
      </trkpt>
      <trkpt lat="48.41957" lon="0.28601">
        <ele>343</ele>
        <time>2022-05-21T21:27:30Z</time>
      </trkpt>
      <trkpt lat="48.41962" lon="0.28613">
        <ele>342</ele>
        <time>2022-05-21T21:27:32Z</time>
      </trkpt>
      <trkpt lat="48.41956" lon="0.28602">
        <ele>343</ele>
        <time>2022-05-21T21:27:34Z</time>
      </trkpt>
      <trkpt lat="48.41947" lon="0.28595">
        <ele>343</ele>
        <time>2022-05-21T21:27:36Z</time>
      </trkpt>
      <trkpt lat="48.41937" lon="0.28554">
        <ele>344</ele>
        <time>2022-05-21T21:27:41Z</time>
      </trkpt>
      <trkpt lat="48.41936" lon="0.28539">
        <ele>344</ele>
        <time>2022-05-21T21:27:42Z</time>
      </trkpt>
      <trkpt lat="48.41923" lon="0.28517">
        <ele>345</ele>
        <time>2022-05-21T21:27:46Z</time>
      </trkpt>
      <trkpt lat="48.41899" lon="0.28422">
        <ele>345</ele>
        <time>2022-05-21T21:27:58Z</time>
      </trkpt>
      <trkpt lat="48.41892" lon="0.28411">
        <ele>345</ele>
        <time>2022-05-21T21:28:00Z</time>
      </trkpt>
      <trkpt lat="48.41882" lon="0.28385">
        <ele>344</ele>
        <time>2022-05-21T21:28:03Z</time>
      </trkpt>
      <trkpt lat="48.41874" lon="0.28376">
        <ele>343</ele>
        <time>2022-05-21T21:28:05Z</time>
      </trkpt>
      <trkpt lat="48.41855" lon="0.2834">
        <ele>339</ele>
        <time>2022-05-21T21:28:11Z</time>
      </trkpt>
      <trkpt lat="48.41844" lon="0.28343">
        <ele>339</ele>
        <time>2022-05-21T21:28:13Z</time>
      </trkpt>
      <trkpt lat="48.41837" lon="0.28352">
        <ele>340</ele>
        <time>2022-05-21T21:28:14Z</time>
      </trkpt>
      <trkpt lat="48.41822" lon="0.28389">
        <ele>344</ele>
        <time>2022-05-21T21:28:19Z</time>
      </trkpt>
      <trkpt lat="48.41812" lon="0.28389">
        <ele>345</ele>
        <time>2022-05-21T21:28:21Z</time>
      </trkpt>
      <trkpt lat="48.41803" lon="0.28384">
        <ele>344</ele>
        <time>2022-05-21T21:28:23Z</time>
      </trkpt>
      <trkpt lat="48.4181" lon="0.28395">
        <ele>345</ele>
        <time>2022-05-21T21:28:25Z</time>
      </trkpt>
      <trkpt lat="48.41817" lon="0.28415">
        <ele>347</ele>
        <time>2022-05-21T21:28:27Z</time>
      </trkpt>
      <trkpt lat="48.41834" lon="0.284">
        <ele>345</ele>
        <time>2022-05-21T21:28:31Z</time>
      </trkpt>
      <trkpt lat="48.41828" lon="0.28409">
        <ele>346</ele>
        <time>2022-05-21T21:28:32Z</time>
      </trkpt>
      <trkpt lat="48.41818" lon="0.28403">
        <ele>346</ele>
        <time>2022-05-21T21:28:34Z</time>
      </trkpt>
      <trkpt lat="48.41817" lon="0.28418">
        <ele>348</ele>
        <time>2022-05-21T21:28:36Z</time>
      </trkpt>
      <trkpt lat="48.41806" lon="0.28442">
        <ele>349</ele>
        <time>2022-05-21T21:28:39Z</time>
      </trkpt>
      <trkpt lat="48.41794" lon="0.28465">
        <ele>350</ele>
        <time>2022-05-21T21:28:43Z</time>
      </trkpt>
      <trkpt lat="48.41784" lon="0.28471">
        <ele>350</ele>
        <time>2022-05-21T21:28:45Z</time>
      </trkpt>
      <trkpt lat="48.41793" lon="0.2847">
        <ele>350</ele>
        <time>2022-05-21T21:28:46Z</time>
      </trkpt>
      <trkpt lat="48.41801" lon="0.28444">
        <ele>349</ele>
        <time>2022-05-21T21:28:50Z</time>
      </trkpt>
      <trkpt lat="48.41793" lon="0.28451">
        <ele>349</ele>
        <time>2022-05-21T21:28:51Z</time>
      </trkpt>
      <trkpt lat="48.41804" lon="0.28451">
        <ele>349</ele>
        <time>2022-05-21T21:28:53Z</time>
      </trkpt>
      <trkpt lat="48.41795" lon="0.2845">
        <ele>349</ele>
        <time>2022-05-21T21:28:55Z</time>
      </trkpt>
      <trkpt lat="48.41804" lon="0.28443">
        <ele>349</ele>
        <time>2022-05-21T21:28:57Z</time>
      </trkpt>
      <trkpt lat="48.41815" lon="0.2842">
        <ele>348</ele>
        <time>2022-05-21T21:29:00Z</time>
      </trkpt>
      <trkpt lat="48.41818" lon="0.28405">
        <ele>346</ele>
        <time>2022-05-21T21:29:02Z</time>
      </trkpt>
      <trkpt lat="48.41812" lon="0.28394">
        <ele>345</ele>
        <time>2022-05-21T21:29:04Z</time>
      </trkpt>
      <trkpt lat="48.41767" lon="0.28361">
        <ele>342</ele>
        <time>2022-05-21T21:29:13Z</time>
      </trkpt>
      <trkpt lat="48.41759" lon="0.28358">
        <ele>341</ele>
        <time>2022-05-21T21:29:14Z</time>
      </trkpt>
      <trkpt lat="48.41742" lon="0.28342">
        <ele>340</ele>
        <time>2022-05-21T21:29:18Z</time>
      </trkpt>
      <trkpt lat="48.41736" lon="0.28353">
        <ele>342</ele>
        <time>2022-05-21T21:29:19Z</time>
      </trkpt>
      <trkpt lat="48.41737" lon="0.28369">
        <ele>344</ele>
        <time>2022-05-21T21:29:21Z</time>
      </trkpt>
      <trkpt lat="48.41727" lon="0.28371">
        <ele>345</ele>
        <time>2022-05-21T21:29:23Z</time>
      </trkpt>
      <trkpt lat="48.41736" lon="0.28369">
        <ele>344</ele>
        <time>2022-05-21T21:29:25Z</time>
      </trkpt>
      <trkpt lat="48.41745" lon="0.28343">
        <ele>340</ele>
        <time>2022-05-21T21:29:28Z</time>
      </trkpt>
      <trkpt lat="48.41752" lon="0.28354">
        <ele>341</ele>
        <time>2022-05-21T21:29:30Z</time>
      </trkpt>
      <trkpt lat="48.41761" lon="0.28358">
        <ele>341</ele>
        <time>2022-05-21T21:29:31Z</time>
      </trkpt>
      <trkpt lat="48.41775" lon="0.28374">
        <ele>343</ele>
        <time>2022-05-21T21:29:35Z</time>
      </trkpt>
      <trkpt lat="48.41803" lon="0.28393">
        <ele>345</ele>
        <time>2022-05-21T21:29:40Z</time>
      </trkpt>
      <trkpt lat="48.41813" lon="0.28393">
        <ele>345</ele>
        <time>2022-05-21T21:29:42Z</time>
      </trkpt>
      <trkpt lat="48.41821" lon="0.28383">
        <ele>344</ele>
        <time>2022-05-21T21:29:44Z</time>
      </trkpt>
      <trkpt lat="48.41833" lon="0.28355">
        <ele>340</ele>
        <time>2022-05-21T21:29:48Z</time>
      </trkpt>
      <trkpt lat="48.41836" lon="0.28341">
        <ele>339</ele>
        <time>2022-05-21T21:29:49Z</time>
      </trkpt>
      <trkpt lat="48.41843" lon="0.28327">
        <ele>338</ele>
        <time>2022-05-21T21:29:51Z</time>
      </trkpt>
      <trkpt lat="48.41853" lon="0.28296">
        <ele>336</ele>
        <time>2022-05-21T21:29:56Z</time>
      </trkpt>
      <trkpt lat="48.41832" lon="0.28262">
        <ele>331</ele>
        <time>2022-05-21T21:30:01Z</time>
      </trkpt>
      <trkpt lat="48.41784" lon="0.28221">
        <ele>326</ele>
        <time>2022-05-21T21:30:11Z</time>
      </trkpt>
      <trkpt lat="48.41775" lon="0.2821">
        <ele>325</ele>
        <time>2022-05-21T21:30:13Z</time>
      </trkpt>
      <trkpt lat="48.41754" lon="0.28173">
        <ele>320</ele>
        <time>2022-05-21T21:30:19Z</time>
      </trkpt>
      <trkpt lat="48.41741" lon="0.28139">
        <ele>317</ele>
        <time>2022-05-21T21:30:23Z</time>
      </trkpt>
      <trkpt lat="48.41714" lon="0.28083">
        <ele>313</ele>
        <time>2022-05-21T21:30:31Z</time>
      </trkpt>
      <trkpt lat="48.41703" lon="0.28078">
        <ele>312</ele>
        <time>2022-05-21T21:30:33Z</time>
      </trkpt>
      <trkpt lat="48.4169" lon="0.28078">
        <ele>312</ele>
        <time>2022-05-21T21:30:36Z</time>
      </trkpt>
      <trkpt lat="48.41681" lon="0.28075">
        <ele>312</ele>
        <time>2022-05-21T21:30:37Z</time>
      </trkpt>
      <trkpt lat="48.41676" lon="0.28063">
        <ele>312</ele>
        <time>2022-05-21T21:30:39Z</time>
      </trkpt>
      <trkpt lat="48.41708" lon="0.27912">
        <ele>305</ele>
        <time>2022-05-21T21:30:58Z</time>
      </trkpt>
      <trkpt lat="48.41709" lon="0.27885">
        <ele>303</ele>
        <time>2022-05-21T21:31:01Z</time>
      </trkpt>
      <trkpt lat="48.41703" lon="0.27859">
        <ele>300</ele>
        <time>2022-05-21T21:31:04Z</time>
      </trkpt>
      <trkpt lat="48.41694" lon="0.27834">
        <ele>298</ele>
        <time>2022-05-21T21:31:08Z</time>
      </trkpt>
      <trkpt lat="48.41683" lon="0.27815">
        <ele>296</ele>
        <time>2022-05-21T21:31:11Z</time>
      </trkpt>
      <trkpt lat="48.41668" lon="0.278">
        <ele>295</ele>
        <time>2022-05-21T21:31:14Z</time>
      </trkpt>
      <trkpt lat="48.41623" lon="0.27765">
        <ele>293</ele>
        <time>2022-05-21T21:31:23Z</time>
      </trkpt>
      <trkpt lat="48.41581" lon="0.27726">
        <ele>291</ele>
        <time>2022-05-21T21:31:32Z</time>
      </trkpt>
      <trkpt lat="48.41571" lon="0.27711">
        <ele>292</ele>
        <time>2022-05-21T21:31:34Z</time>
      </trkpt>
      <trkpt lat="48.41565" lon="0.27695">
        <ele>292</ele>
        <time>2022-05-21T21:31:36Z</time>
      </trkpt>
      <trkpt lat="48.41563" lon="0.27682">
        <ele>291</ele>
        <time>2022-05-21T21:31:38Z</time>
      </trkpt>
      <trkpt lat="48.4157" lon="0.27674">
        <ele>290</ele>
        <time>2022-05-21T21:31:39Z</time>
      </trkpt>
      <trkpt lat="48.41561" lon="0.27675">
        <ele>291</ele>
        <time>2022-05-21T21:31:41Z</time>
      </trkpt>
      <trkpt lat="48.41553" lon="0.27681">
        <ele>293</ele>
        <time>2022-05-21T21:31:43Z</time>
      </trkpt>
      <trkpt lat="48.41559" lon="0.2767">
        <ele>292</ele>
        <time>2022-05-21T21:31:44Z</time>
      </trkpt>
      <trkpt lat="48.41567" lon="0.27678">
        <ele>291</ele>
        <time>2022-05-21T21:31:46Z</time>
      </trkpt>
      <trkpt lat="48.41576" lon="0.27676">
        <ele>289</ele>
        <time>2022-05-21T21:31:48Z</time>
      </trkpt>
      <trkpt lat="48.41572" lon="0.27663">
        <ele>289</ele>
        <time>2022-05-21T21:31:49Z</time>
      </trkpt>
      <trkpt lat="48.41563" lon="0.27669">
        <ele>291</ele>
        <time>2022-05-21T21:31:51Z</time>
      </trkpt>
      <trkpt lat="48.41556" lon="0.27649">
        <ele>291</ele>
        <time>2022-05-21T21:31:54Z</time>
      </trkpt>
      <trkpt lat="48.4154" lon="0.27627">
        <ele>292</ele>
        <time>2022-05-21T21:31:58Z</time>
      </trkpt>
      <trkpt lat="48.4151" lon="0.27533">
        <ele>284</ele>
        <time>2022-05-21T21:32:10Z</time>
      </trkpt>
      <trkpt lat="48.41469" lon="0.27441">
        <ele>279</ele>
        <time>2022-05-21T21:32:23Z</time>
      </trkpt>
      <trkpt lat="48.41463" lon="0.27412">
        <ele>277</ele>
        <time>2022-05-21T21:32:27Z</time>
      </trkpt>
      <trkpt lat="48.4146" lon="0.27348">
        <ele>274</ele>
        <time>2022-05-21T21:32:34Z</time>
      </trkpt>
      <trkpt lat="48.41452" lon="0.27325">
        <ele>274</ele>
        <time>2022-05-21T21:32:37Z</time>
      </trkpt>
      <trkpt lat="48.41411" lon="0.2727">
        <ele>274</ele>
        <time>2022-05-21T21:32:47Z</time>
      </trkpt>
      <trkpt lat="48.41397" lon="0.27259">
        <ele>273</ele>
        <time>2022-05-21T21:32:50Z</time>
      </trkpt>
      <trkpt lat="48.41362" lon="0.27219">
        <ele>273</ele>
        <time>2022-05-21T21:32:58Z</time>
      </trkpt>
      <trkpt lat="48.41347" lon="0.27206">
        <ele>272</ele>
        <time>2022-05-21T21:33:01Z</time>
      </trkpt>
      <trkpt lat="48.41289" lon="0.27161">
        <ele>266</ele>
        <time>2022-05-21T21:33:12Z</time>
      </trkpt>
      <trkpt lat="48.41267" lon="0.27147">
        <ele>264</ele>
        <time>2022-05-21T21:33:17Z</time>
      </trkpt>
      <trkpt lat="48.41233" lon="0.27135">
        <ele>261</ele>
        <time>2022-05-21T21:33:23Z</time>
      </trkpt>
      <trkpt lat="48.41203" lon="0.27128">
        <ele>259</ele>
        <time>2022-05-21T21:33:28Z</time>
      </trkpt>
      <trkpt lat="48.41193" lon="0.27128">
        <ele>259</ele>
        <time>2022-05-21T21:33:30Z</time>
      </trkpt>
      <trkpt lat="48.4116" lon="0.27116">
        <ele>257</ele>
        <time>2022-05-21T21:33:36Z</time>
      </trkpt>
      <trkpt lat="48.41141" lon="0.27092">
        <ele>257</ele>
        <time>2022-05-21T21:33:40Z</time>
      </trkpt>
      <trkpt lat="48.41126" lon="0.27064">
        <ele>257</ele>
        <time>2022-05-21T21:33:45Z</time>
      </trkpt>
      <trkpt lat="48.41122" lon="0.27047">
        <ele>257</ele>
        <time>2022-05-21T21:33:47Z</time>
      </trkpt>
      <trkpt lat="48.41119" lon="0.27011">
        <ele>256</ele>
        <time>2022-05-21T21:33:51Z</time>
      </trkpt>
      <trkpt lat="48.41126" lon="0.2693">
        <ele>255</ele>
        <time>2022-05-21T21:34:01Z</time>
      </trkpt>
      <trkpt lat="48.41126" lon="0.26875">
        <ele>255</ele>
        <time>2022-05-21T21:34:07Z</time>
      </trkpt>
      <trkpt lat="48.4112" lon="0.26815">
        <ele>256</ele>
        <time>2022-05-21T21:34:14Z</time>
      </trkpt>
      <trkpt lat="48.4112" lon="0.26777">
        <ele>256</ele>
        <time>2022-05-21T21:34:19Z</time>
      </trkpt>
      <trkpt lat="48.41123" lon="0.26746">
        <ele>255</ele>
        <time>2022-05-21T21:34:23Z</time>
      </trkpt>
      <trkpt lat="48.41143" lon="0.26633">
        <ele>245</ele>
        <time>2022-05-21T21:34:36Z</time>
      </trkpt>
      <trkpt lat="48.41141" lon="0.26616">
        <ele>244</ele>
        <time>2022-05-21T21:34:38Z</time>
      </trkpt>
      <trkpt lat="48.41133" lon="0.26588">
        <ele>243</ele>
        <time>2022-05-21T21:34:42Z</time>
      </trkpt>
      <trkpt lat="48.41123" lon="0.26565">
        <ele>242</ele>
        <time>2022-05-21T21:34:45Z</time>
      </trkpt>
      <trkpt lat="48.41104" lon="0.26542">
        <ele>240</ele>
        <time>2022-05-21T21:34:50Z</time>
      </trkpt>
      <trkpt lat="48.41083" lon="0.26531">
        <ele>238</ele>
        <time>2022-05-21T21:34:54Z</time>
      </trkpt>
      <trkpt lat="48.41045" lon="0.26531">
        <ele>237</ele>
        <time>2022-05-21T21:35:00Z</time>
      </trkpt>
      <trkpt lat="48.41022" lon="0.26536">
        <ele>237</ele>
        <time>2022-05-21T21:35:04Z</time>
      </trkpt>
      <trkpt lat="48.41011" lon="0.26535">
        <ele>237</ele>
        <time>2022-05-21T21:35:06Z</time>
      </trkpt>
      <trkpt lat="48.4099" lon="0.26539">
        <ele>236</ele>
        <time>2022-05-21T21:35:10Z</time>
      </trkpt>
      <trkpt lat="48.40966" lon="0.26538">
        <ele>235</ele>
        <time>2022-05-21T21:35:14Z</time>
      </trkpt>
      <trkpt lat="48.4093" lon="0.26532">
        <ele>232</ele>
        <time>2022-05-21T21:35:21Z</time>
      </trkpt>
      <trkpt lat="48.4092" lon="0.26534">
        <ele>231</ele>
        <time>2022-05-21T21:35:23Z</time>
      </trkpt>
      <trkpt lat="48.40876" lon="0.2652">
        <ele>228</ele>
        <time>2022-05-21T21:35:31Z</time>
      </trkpt>
      <trkpt lat="48.40854" lon="0.26506">
        <ele>226</ele>
        <time>2022-05-21T21:35:35Z</time>
      </trkpt>
      <trkpt lat="48.40838" lon="0.26489">
        <ele>225</ele>
        <time>2022-05-21T21:35:38Z</time>
      </trkpt>
      <trkpt lat="48.40824" lon="0.26467">
        <ele>227</ele>
        <time>2022-05-21T21:35:42Z</time>
      </trkpt>
      <trkpt lat="48.40815" lon="0.26437">
        <ele>228</ele>
        <time>2022-05-21T21:35:46Z</time>
      </trkpt>
      <trkpt lat="48.40804" lon="0.26386">
        <ele>230</ele>
        <time>2022-05-21T21:35:52Z</time>
      </trkpt>
      <trkpt lat="48.40789" lon="0.26337">
        <ele>230</ele>
        <time>2022-05-21T21:35:59Z</time>
      </trkpt>
      <trkpt lat="48.40766" lon="0.26283">
        <ele>228</ele>
        <time>2022-05-21T21:36:06Z</time>
      </trkpt>
      <trkpt lat="48.40753" lon="0.26236">
        <ele>225</ele>
        <time>2022-05-21T21:36:12Z</time>
      </trkpt>
      <trkpt lat="48.40746" lon="0.26225">
        <ele>225</ele>
        <time>2022-05-21T21:36:14Z</time>
      </trkpt>
      <trkpt lat="48.40716" lon="0.26151">
        <ele>227</ele>
        <time>2022-05-21T21:36:24Z</time>
      </trkpt>
      <trkpt lat="48.40703" lon="0.26128">
        <ele>227</ele>
        <time>2022-05-21T21:36:28Z</time>
      </trkpt>
      <trkpt lat="48.40684" lon="0.26103">
        <ele>225</ele>
        <time>2022-05-21T21:36:32Z</time>
      </trkpt>
      <trkpt lat="48.40654" lon="0.26079">
        <ele>221</ele>
        <time>2022-05-21T21:36:38Z</time>
      </trkpt>
      <trkpt lat="48.406" lon="0.26057">
        <ele>221</ele>
        <time>2022-05-21T21:36:48Z</time>
      </trkpt>
      <trkpt lat="48.40564" lon="0.26038">
        <ele>220</ele>
        <time>2022-05-21T21:36:55Z</time>
      </trkpt>
      <trkpt lat="48.40541" lon="0.26023">
        <ele>220</ele>
        <time>2022-05-21T21:37:00Z</time>
      </trkpt>
      <trkpt lat="48.40529" lon="0.26019">
        <ele>220</ele>
        <time>2022-05-21T21:37:02Z</time>
      </trkpt>
      <trkpt lat="48.40511" lon="0.26003">
        <ele>218</ele>
        <time>2022-05-21T21:37:05Z</time>
      </trkpt>
      <trkpt lat="48.405" lon="0.25988">
        <ele>218</ele>
        <time>2022-05-21T21:37:08Z</time>
      </trkpt>
      <trkpt lat="48.4049" lon="0.25983">
        <ele>218</ele>
        <time>2022-05-21T21:37:10Z</time>
      </trkpt>
      <trkpt lat="48.40471" lon="0.25966">
        <ele>219</ele>
        <time>2022-05-21T21:37:14Z</time>
      </trkpt>
      <trkpt lat="48.40443" lon="0.25935">
        <ele>217</ele>
        <time>2022-05-21T21:37:20Z</time>
      </trkpt>
      <trkpt lat="48.40437" lon="0.25924">
        <ele>216</ele>
        <time>2022-05-21T21:37:22Z</time>
      </trkpt>
      <trkpt lat="48.40419" lon="0.25906">
        <ele>215</ele>
        <time>2022-05-21T21:37:26Z</time>
      </trkpt>
      <trkpt lat="48.40383" lon="0.25876">
        <ele>215</ele>
        <time>2022-05-21T21:37:33Z</time>
      </trkpt>
      <trkpt lat="48.40362" lon="0.25865">
        <ele>214</ele>
        <time>2022-05-21T21:37:37Z</time>
      </trkpt>
      <trkpt lat="48.40343" lon="0.25859">
        <ele>213</ele>
        <time>2022-05-21T21:37:40Z</time>
      </trkpt>
      <trkpt lat="48.40296" lon="0.25834">
        <ele>216</ele>
        <time>2022-05-21T21:37:49Z</time>
      </trkpt>
      <trkpt lat="48.40271" lon="0.25807">
        <ele>218</ele>
        <time>2022-05-21T21:37:55Z</time>
      </trkpt>
      <trkpt lat="48.40231" lon="0.25692">
        <ele>210</ele>
        <time>2022-05-21T21:38:10Z</time>
      </trkpt>
      <trkpt lat="48.40211" lon="0.25653">
        <ele>208</ele>
        <time>2022-05-21T21:38:16Z</time>
      </trkpt>
      <trkpt lat="48.40194" lon="0.25637">
        <ele>206</ele>
        <time>2022-05-21T21:38:19Z</time>
      </trkpt>
      <trkpt lat="48.40159" lon="0.25622">
        <ele>203</ele>
        <time>2022-05-21T21:38:26Z</time>
      </trkpt>
      <trkpt lat="48.40139" lon="0.25624">
        <ele>203</ele>
        <time>2022-05-21T21:38:29Z</time>
      </trkpt>
      <trkpt lat="48.40108" lon="0.25623">
        <ele>203</ele>
        <time>2022-05-21T21:38:35Z</time>
      </trkpt>
      <trkpt lat="48.40068" lon="0.25612">
        <ele>202</ele>
        <time>2022-05-21T21:38:42Z</time>
      </trkpt>
      <trkpt lat="48.40047" lon="0.25597">
        <ele>200</ele>
        <time>2022-05-21T21:38:46Z</time>
      </trkpt>
      <trkpt lat="48.40033" lon="0.25579">
        <ele>198</ele>
        <time>2022-05-21T21:38:50Z</time>
      </trkpt>
      <trkpt lat="48.40023" lon="0.25574">
        <ele>198</ele>
        <time>2022-05-21T21:38:52Z</time>
      </trkpt>
      <trkpt lat="48.40016" lon="0.25562">
        <ele>198</ele>
        <time>2022-05-21T21:38:53Z</time>
      </trkpt>
      <trkpt lat="48.40008" lon="0.25554">
        <ele>197</ele>
        <time>2022-05-21T21:38:55Z</time>
      </trkpt>
      <trkpt lat="48.39969" lon="0.2553">
        <ele>195</ele>
        <time>2022-05-21T21:39:03Z</time>
      </trkpt>
      <trkpt lat="48.39916" lon="0.25508">
        <ele>191</ele>
        <time>2022-05-21T21:39:12Z</time>
      </trkpt>
      <trkpt lat="48.39887" lon="0.25489">
        <ele>190</ele>
        <time>2022-05-21T21:39:18Z</time>
      </trkpt>
      <trkpt lat="48.39856" lon="0.25456">
        <ele>186</ele>
        <time>2022-05-21T21:39:25Z</time>
      </trkpt>
      <trkpt lat="48.39832" lon="0.25418">
        <ele>181</ele>
        <time>2022-05-21T21:39:31Z</time>
      </trkpt>
      <trkpt lat="48.39813" lon="0.25394">
        <ele>178</ele>
        <time>2022-05-21T21:39:35Z</time>
      </trkpt>
      <trkpt lat="48.39808" lon="0.25381">
        <ele>177</ele>
        <time>2022-05-21T21:39:37Z</time>
      </trkpt>
      <trkpt lat="48.39809" lon="0.25366">
        <ele>176</ele>
        <time>2022-05-21T21:39:39Z</time>
      </trkpt>
      <trkpt lat="48.39801" lon="0.25348">
        <ele>175</ele>
        <time>2022-05-21T21:39:41Z</time>
      </trkpt>
      <trkpt lat="48.3979" lon="0.2535">
        <ele>174</ele>
        <time>2022-05-21T21:39:43Z</time>
      </trkpt>
      <trkpt lat="48.39781" lon="0.25355">
        <ele>174</ele>
        <time>2022-05-21T21:39:45Z</time>
      </trkpt>
      <trkpt lat="48.39783" lon="0.25369">
        <ele>175</ele>
        <time>2022-05-21T21:39:47Z</time>
      </trkpt>
      <trkpt lat="48.39799" lon="0.25367">
        <ele>176</ele>
        <time>2022-05-21T21:39:50Z</time>
      </trkpt>
      <trkpt lat="48.39808" lon="0.25361">
        <ele>176</ele>
        <time>2022-05-21T21:39:51Z</time>
      </trkpt>
      <trkpt lat="48.39798" lon="0.25345">
        <ele>174</ele>
        <time>2022-05-21T21:39:54Z</time>
      </trkpt>
      <trkpt lat="48.39777" lon="0.2535">
        <ele>173</ele>
        <time>2022-05-21T21:39:58Z</time>
      </trkpt>
      <trkpt lat="48.39746" lon="0.25344">
        <ele>171</ele>
        <time>2022-05-21T21:40:03Z</time>
      </trkpt>
      <trkpt lat="48.39735" lon="0.25344">
        <ele>171</ele>
        <time>2022-05-21T21:40:05Z</time>
      </trkpt>
      <trkpt lat="48.39713" lon="0.25346">
        <ele>172</ele>
        <time>2022-05-21T21:40:09Z</time>
      </trkpt>
      <trkpt lat="48.39704" lon="0.2535">
        <ele>172</ele>
        <time>2022-05-21T21:40:11Z</time>
      </trkpt>
      <trkpt lat="48.39693" lon="0.25351">
        <ele>172</ele>
        <time>2022-05-21T21:40:13Z</time>
      </trkpt>
      <trkpt lat="48.39654" lon="0.25374">
        <ele>171</ele>
        <time>2022-05-21T21:40:20Z</time>
      </trkpt>
      <trkpt lat="48.39616" lon="0.25403">
        <ele>170</ele>
        <time>2022-05-21T21:40:28Z</time>
      </trkpt>
      <trkpt lat="48.39518" lon="0.25496">
        <ele>169</ele>
        <time>2022-05-21T21:40:49Z</time>
      </trkpt>
      <trkpt lat="48.39498" lon="0.2551">
        <ele>169</ele>
        <time>2022-05-21T21:40:52Z</time>
      </trkpt>
      <trkpt lat="48.39471" lon="0.25523">
        <ele>170</ele>
        <time>2022-05-21T21:40:58Z</time>
      </trkpt>
      <trkpt lat="48.39459" lon="0.25525">
        <ele>170</ele>
        <time>2022-05-21T21:41:00Z</time>
      </trkpt>
      <trkpt lat="48.39448" lon="0.2553">
        <ele>170</ele>
        <time>2022-05-21T21:41:02Z</time>
      </trkpt>
      <trkpt lat="48.39415" lon="0.25532">
        <ele>171</ele>
        <time>2022-05-21T21:41:08Z</time>
      </trkpt>
      <trkpt lat="48.3937" lon="0.25529">
        <ele>172</ele>
        <time>2022-05-21T21:41:16Z</time>
      </trkpt>
      <trkpt lat="48.39358" lon="0.25532">
        <ele>172</ele>
        <time>2022-05-21T21:41:18Z</time>
      </trkpt>
      <trkpt lat="48.39335" lon="0.25543">
        <ele>170</ele>
        <time>2022-05-21T21:41:22Z</time>
      </trkpt>
      <trkpt lat="48.39313" lon="0.2555">
        <ele>172</ele>
        <time>2022-05-21T21:41:26Z</time>
      </trkpt>
      <trkpt lat="48.39282" lon="0.25554">
        <ele>174</ele>
        <time>2022-05-21T21:41:32Z</time>
      </trkpt>
      <trkpt lat="48.39274" lon="0.25559">
        <ele>174</ele>
        <time>2022-05-21T21:41:33Z</time>
      </trkpt>
      <trkpt lat="48.39265" lon="0.25561">
        <ele>175</ele>
        <time>2022-05-21T21:41:35Z</time>
      </trkpt>
      <trkpt lat="48.39233" lon="0.25586">
        <ele>173</ele>
        <time>2022-05-21T21:41:41Z</time>
      </trkpt>
      <trkpt lat="48.39184" lon="0.25635">
        <ele>170</ele>
        <time>2022-05-21T21:41:52Z</time>
      </trkpt>
      <trkpt lat="48.39176" lon="0.25648">
        <ele>169</ele>
        <time>2022-05-21T21:41:54Z</time>
      </trkpt>
      <trkpt lat="48.39172" lon="0.25662">
        <ele>168</ele>
        <time>2022-05-21T21:41:56Z</time>
      </trkpt>
      <trkpt lat="48.39132" lon="0.25737">
        <ele>167</ele>
        <time>2022-05-21T21:42:07Z</time>
      </trkpt>
      <trkpt lat="48.39075" lon="0.25814">
        <ele>169</ele>
        <time>2022-05-21T21:42:21Z</time>
      </trkpt>
      <trkpt lat="48.39067" lon="0.25826">
        <ele>169</ele>
        <time>2022-05-21T21:42:23Z</time>
      </trkpt>
      <trkpt lat="48.39049" lon="0.25867">
        <ele>168</ele>
        <time>2022-05-21T21:42:28Z</time>
      </trkpt>
      <trkpt lat="48.39026" lon="0.25895">
        <ele>168</ele>
        <time>2022-05-21T21:42:34Z</time>
      </trkpt>
      <trkpt lat="48.39009" lon="0.25938">
        <ele>165</ele>
        <time>2022-05-21T21:42:40Z</time>
      </trkpt>
      <trkpt lat="48.38996" lon="0.26026">
        <ele>159</ele>
        <time>2022-05-21T21:42:50Z</time>
      </trkpt>
      <trkpt lat="48.3897" lon="0.26021">
        <ele>159</ele>
        <time>2022-05-21T21:42:55Z</time>
      </trkpt>
      <trkpt lat="48.38959" lon="0.26025">
        <ele>158</ele>
        <time>2022-05-21T21:42:57Z</time>
      </trkpt>
      <trkpt lat="48.38949" lon="0.26022">
        <ele>158</ele>
        <time>2022-05-21T21:42:59Z</time>
      </trkpt>
      <trkpt lat="48.38929" lon="0.26024">
        <ele>158</ele>
        <time>2022-05-21T21:43:02Z</time>
      </trkpt>
      <trkpt lat="48.38893" lon="0.26051">
        <ele>158</ele>
        <time>2022-05-21T21:43:09Z</time>
      </trkpt>
      <trkpt lat="48.38856" lon="0.26086">
        <ele>158</ele>
        <time>2022-05-21T21:43:17Z</time>
      </trkpt>
      <trkpt lat="48.38852" lon="0.261">
        <ele>158</ele>
        <time>2022-05-21T21:43:19Z</time>
      </trkpt>
      <trkpt lat="48.38861" lon="0.26144">
        <ele>157</ele>
        <time>2022-05-21T21:43:24Z</time>
      </trkpt>
      <trkpt lat="48.38866" lon="0.26133">
        <ele>157</ele>
        <time>2022-05-21T21:43:26Z</time>
      </trkpt>
      <trkpt lat="48.38856" lon="0.2613">
        <ele>158</ele>
        <time>2022-05-21T21:43:28Z</time>
      </trkpt>
      <trkpt lat="48.38859" lon="0.26147">
        <ele>157</ele>
        <time>2022-05-21T21:43:30Z</time>
      </trkpt>
      <trkpt lat="48.38872" lon="0.26165">
        <ele>157</ele>
        <time>2022-05-21T21:43:33Z</time>
      </trkpt>
      <trkpt lat="48.3889" lon="0.262">
        <ele>159</ele>
        <time>2022-05-21T21:43:38Z</time>
      </trkpt>
      <trkpt lat="48.3891" lon="0.26248">
        <ele>163</ele>
        <time>2022-05-21T21:43:45Z</time>
      </trkpt>
      <trkpt lat="48.38932" lon="0.26332">
        <ele>167</ele>
        <time>2022-05-21T21:43:56Z</time>
      </trkpt>
      <trkpt lat="48.38942" lon="0.26388">
        <ele>169</ele>
        <time>2022-05-21T21:44:02Z</time>
      </trkpt>
      <trkpt lat="48.38947" lon="0.26401">
        <ele>169</ele>
        <time>2022-05-21T21:44:04Z</time>
      </trkpt>
      <trkpt lat="48.38954" lon="0.26411">
        <ele>169</ele>
        <time>2022-05-21T21:44:06Z</time>
      </trkpt>
      <trkpt lat="48.38964" lon="0.2641">
        <ele>169</ele>
        <time>2022-05-21T21:44:08Z</time>
      </trkpt>
      <trkpt lat="48.38956" lon="0.26419">
        <ele>170</ele>
        <time>2022-05-21T21:44:10Z</time>
      </trkpt>
      <trkpt lat="48.38998" lon="0.26471">
        <ele>171</ele>
        <time>2022-05-21T21:44:19Z</time>
      </trkpt>
      <trkpt lat="48.39054" lon="0.26524">
        <ele>174</ele>
        <time>2022-05-21T21:44:31Z</time>
      </trkpt>
      <trkpt lat="48.39063" lon="0.26535">
        <ele>175</ele>
        <time>2022-05-21T21:44:33Z</time>
      </trkpt>
      <trkpt lat="48.39082" lon="0.26568">
        <ele>178</ele>
        <time>2022-05-21T21:44:38Z</time>
      </trkpt>
      <trkpt lat="48.39082" lon="0.26598">
        <ele>181</ele>
        <time>2022-05-21T21:44:42Z</time>
      </trkpt>
      <trkpt lat="48.39076" lon="0.26627">
        <ele>184</ele>
        <time>2022-05-21T21:44:45Z</time>
      </trkpt>
      <trkpt lat="48.39059" lon="0.26679">
        <ele>188</ele>
        <time>2022-05-21T21:44:52Z</time>
      </trkpt>
      <trkpt lat="48.39036" lon="0.26734">
        <ele>190</ele>
        <time>2022-05-21T21:45:00Z</time>
      </trkpt>
      <trkpt lat="48.38998" lon="0.26853">
        <ele>186</ele>
        <time>2022-05-21T21:45:15Z</time>
      </trkpt>
      <trkpt lat="48.38944" lon="0.27065">
        <ele>188</ele>
        <time>2022-05-21T21:45:42Z</time>
      </trkpt>
      <trkpt lat="48.38883" lon="0.27234">
        <ele>187</ele>
        <time>2022-05-21T21:46:05Z</time>
      </trkpt>
      <trkpt lat="48.38879" lon="0.27298">
        <ele>190</ele>
        <time>2022-05-21T21:46:13Z</time>
      </trkpt>
      <trkpt lat="48.38872" lon="0.27333">
        <ele>191</ele>
        <time>2022-05-21T21:46:17Z</time>
      </trkpt>
      <trkpt lat="48.38869" lon="0.27367">
        <ele>191</ele>
        <time>2022-05-21T21:46:21Z</time>
      </trkpt>
      <trkpt lat="48.3887" lon="0.27416">
        <ele>191</ele>
        <time>2022-05-21T21:46:27Z</time>
      </trkpt>
      <trkpt lat="48.3889" lon="0.27494">
        <ele>194</ele>
        <time>2022-05-21T21:46:37Z</time>
      </trkpt>
      <trkpt lat="48.38893" lon="0.2753">
        <ele>193</ele>
        <time>2022-05-21T21:46:41Z</time>
      </trkpt>
      <trkpt lat="48.38897" lon="0.27546">
        <ele>193</ele>
        <time>2022-05-21T21:46:43Z</time>
      </trkpt>
      <trkpt lat="48.38904" lon="0.27557">
        <ele>194</ele>
        <time>2022-05-21T21:46:45Z</time>
      </trkpt>
      <trkpt lat="48.38932" lon="0.27589">
        <ele>196</ele>
        <time>2022-05-21T21:46:51Z</time>
      </trkpt>
      <trkpt lat="48.38945" lon="0.27596">
        <ele>197</ele>
        <time>2022-05-21T21:46:53Z</time>
      </trkpt>
      <trkpt lat="48.38989" lon="0.27642">
        <ele>198</ele>
        <time>2022-05-21T21:47:03Z</time>
      </trkpt>
      <trkpt lat="48.38998" lon="0.27643">
        <ele>199</ele>
        <time>2022-05-21T21:47:05Z</time>
      </trkpt>
      <trkpt lat="48.39007" lon="0.27638">
        <ele>200</ele>
        <time>2022-05-21T21:47:06Z</time>
      </trkpt>
      <trkpt lat="48.39012" lon="0.27622">
        <ele>201</ele>
        <time>2022-05-21T21:47:08Z</time>
      </trkpt>
      <trkpt lat="48.39026" lon="0.27631">
        <ele>201</ele>
        <time>2022-05-21T21:47:11Z</time>
      </trkpt>
      <trkpt lat="48.39011" lon="0.27649">
        <ele>199</ele>
        <time>2022-05-21T21:47:14Z</time>
      </trkpt>
      <trkpt lat="48.39006" lon="0.27665">
        <ele>197</ele>
        <time>2022-05-21T21:47:17Z</time>
      </trkpt>
      <trkpt lat="48.38988" lon="0.2768">
        <ele>196</ele>
        <time>2022-05-21T21:47:20Z</time>
      </trkpt>
      <trkpt lat="48.38956" lon="0.27699">
        <ele>194</ele>
        <time>2022-05-21T21:47:26Z</time>
      </trkpt>
      <trkpt lat="48.38946" lon="0.277">
        <ele>192</ele>
        <time>2022-05-21T21:47:28Z</time>
      </trkpt>
      <trkpt lat="48.38916" lon="0.27711">
        <ele>189</ele>
        <time>2022-05-21T21:47:34Z</time>
      </trkpt>
      <trkpt lat="48.38886" lon="0.27729">
        <ele>188</ele>
        <time>2022-05-21T21:47:39Z</time>
      </trkpt>
      <trkpt lat="48.38878" lon="0.27736">
        <ele>188</ele>
        <time>2022-05-21T21:47:41Z</time>
      </trkpt>
      <trkpt lat="48.38872" lon="0.27748">
        <ele>189</ele>
        <time>2022-05-21T21:47:43Z</time>
      </trkpt>
      <trkpt lat="48.38855" lon="0.27768">
        <ele>190</ele>
        <time>2022-05-21T21:47:47Z</time>
      </trkpt>
      <trkpt lat="48.38847" lon="0.27774">
        <ele>191</ele>
        <time>2022-05-21T21:47:48Z</time>
      </trkpt>
      <trkpt lat="48.38831" lon="0.27813">
        <ele>196</ele>
        <time>2022-05-21T21:47:54Z</time>
      </trkpt>
      <trkpt lat="48.38822" lon="0.27844">
        <ele>198</ele>
        <time>2022-05-21T21:47:58Z</time>
      </trkpt>
      <trkpt lat="48.38806" lon="0.27936">
        <ele>200</ele>
        <time>2022-05-21T21:48:09Z</time>
      </trkpt>
      <trkpt lat="48.38796" lon="0.27963">
        <ele>198</ele>
        <time>2022-05-21T21:48:13Z</time>
      </trkpt>
      <trkpt lat="48.38783" lon="0.28009">
        <ele>196</ele>
        <time>2022-05-21T21:48:18Z</time>
      </trkpt>
      <trkpt lat="48.38781" lon="0.28024">
        <ele>196</ele>
        <time>2022-05-21T21:48:20Z</time>
      </trkpt>
      <trkpt lat="48.38773" lon="0.2801">
        <ele>196</ele>
        <time>2022-05-21T21:48:22Z</time>
      </trkpt>
      <trkpt lat="48.38755" lon="0.27998">
        <ele>195</ele>
        <time>2022-05-21T21:48:26Z</time>
      </trkpt>
      <trkpt lat="48.38713" lon="0.27983">
        <ele>194</ele>
        <time>2022-05-21T21:48:34Z</time>
      </trkpt>
      <trkpt lat="48.38705" lon="0.27977">
        <ele>194</ele>
        <time>2022-05-21T21:48:35Z</time>
      </trkpt>
      <trkpt lat="48.38664" lon="0.27958">
        <ele>193</ele>
        <time>2022-05-21T21:48:43Z</time>
      </trkpt>
      <trkpt lat="48.38563" lon="0.27919">
        <ele>181</ele>
        <time>2022-05-21T21:49:01Z</time>
      </trkpt>
      <trkpt lat="48.3854" lon="0.27914">
        <ele>178</ele>
        <time>2022-05-21T21:49:06Z</time>
      </trkpt>
      <trkpt lat="48.38431" lon="0.27881">
        <ele>166</ele>
        <time>2022-05-21T21:49:25Z</time>
      </trkpt>
      <trkpt lat="48.38385" lon="0.27876">
        <ele>164</ele>
        <time>2022-05-21T21:49:34Z</time>
      </trkpt>
      <trkpt lat="48.38351" lon="0.27867">
        <ele>162</ele>
        <time>2022-05-21T21:49:40Z</time>
      </trkpt>
      <trkpt lat="48.38309" lon="0.27848">
        <ele>160</ele>
        <time>2022-05-21T21:49:47Z</time>
      </trkpt>
      <trkpt lat="48.38274" lon="0.27839">
        <ele>158</ele>
        <time>2022-05-21T21:49:54Z</time>
      </trkpt>
      <trkpt lat="48.3825" lon="0.27839">
        <ele>157</ele>
        <time>2022-05-21T21:49:58Z</time>
      </trkpt>
      <trkpt lat="48.38226" lon="0.27843">
        <ele>157</ele>
        <time>2022-05-21T21:50:02Z</time>
      </trkpt>
      <trkpt lat="48.38204" lon="0.2785">
        <ele>157</ele>
        <time>2022-05-21T21:50:06Z</time>
      </trkpt>
      <trkpt lat="48.38173" lon="0.27866">
        <ele>156</ele>
        <time>2022-05-21T21:50:12Z</time>
      </trkpt>
      <trkpt lat="48.38146" lon="0.27893">
        <ele>157</ele>
        <time>2022-05-21T21:50:18Z</time>
      </trkpt>
      <trkpt lat="48.38084" lon="0.27974">
        <ele>157</ele>
        <time>2022-05-21T21:50:33Z</time>
      </trkpt>
      <trkpt lat="48.3808" lon="0.27986">
        <ele>157</ele>
        <time>2022-05-21T21:50:34Z</time>
      </trkpt>
      <trkpt lat="48.38083" lon="0.28017">
        <ele>157</ele>
        <time>2022-05-21T21:50:38Z</time>
      </trkpt>
      <trkpt lat="48.381" lon="0.28088">
        <ele>157</ele>
        <time>2022-05-21T21:50:47Z</time>
      </trkpt>
      <trkpt lat="48.38127" lon="0.28284">
        <ele>159</ele>
        <time>2022-05-21T21:51:10Z</time>
      </trkpt>
      <trkpt lat="48.38128" lon="0.28349">
        <ele>159</ele>
        <time>2022-05-21T21:51:18Z</time>
      </trkpt>
      <trkpt lat="48.38132" lon="0.28365">
        <ele>160</ele>
        <time>2022-05-21T21:51:20Z</time>
      </trkpt>
      <trkpt lat="48.38155" lon="0.28416">
        <ele>161</ele>
        <time>2022-05-21T21:51:27Z</time>
      </trkpt>
      <trkpt lat="48.3818" lon="0.28482">
        <ele>162</ele>
        <time>2022-05-21T21:51:36Z</time>
      </trkpt>
      <trkpt lat="48.38199" lon="0.28542">
        <ele>163</ele>
        <time>2022-05-21T21:51:44Z</time>
      </trkpt>
      <trkpt lat="48.38206" lon="0.28597">
        <ele>163</ele>
        <time>2022-05-21T21:51:51Z</time>
      </trkpt>
      <trkpt lat="48.38205" lon="0.28658">
        <ele>161</ele>
        <time>2022-05-21T21:51:58Z</time>
      </trkpt>
      <trkpt lat="48.382" lon="0.2873">
        <ele>160</ele>
        <time>2022-05-21T21:52:07Z</time>
      </trkpt>
      <trkpt lat="48.38217" lon="0.2881">
        <ele>161</ele>
        <time>2022-05-21T21:52:17Z</time>
      </trkpt>
      <trkpt lat="48.38237" lon="0.28872">
        <ele>161</ele>
        <time>2022-05-21T21:52:25Z</time>
      </trkpt>
      <trkpt lat="48.38233" lon="0.28886">
        <ele>160</ele>
        <time>2022-05-21T21:52:27Z</time>
      </trkpt>
      <trkpt lat="48.38224" lon="0.28895">
        <ele>160</ele>
        <time>2022-05-21T21:52:28Z</time>
      </trkpt>
      <trkpt lat="48.38114" lon="0.28953">
        <ele>155</ele>
        <time>2022-05-21T21:52:49Z</time>
      </trkpt>
      <trkpt lat="48.38055" lon="0.2898">
        <ele>152</ele>
        <time>2022-05-21T21:53:00Z</time>
      </trkpt>
      <trkpt lat="48.37977" lon="0.29004">
        <ele>151</ele>
        <time>2022-05-21T21:53:14Z</time>
      </trkpt>
      <trkpt lat="48.37924" lon="0.29023">
        <ele>150</ele>
        <time>2022-05-21T21:53:24Z</time>
      </trkpt>
      <trkpt lat="48.37893" lon="0.29041">
        <ele>151</ele>
        <time>2022-05-21T21:53:30Z</time>
      </trkpt>
      <trkpt lat="48.37875" lon="0.29059">
        <ele>152</ele>
        <time>2022-05-21T21:53:34Z</time>
      </trkpt>
      <trkpt lat="48.37862" lon="0.29078">
        <ele>153</ele>
        <time>2022-05-21T21:53:37Z</time>
      </trkpt>
      <trkpt lat="48.37829" lon="0.29157">
        <ele>155</ele>
        <time>2022-05-21T21:53:48Z</time>
      </trkpt>
      <trkpt lat="48.37826" lon="0.29171">
        <ele>155</ele>
        <time>2022-05-21T21:53:50Z</time>
      </trkpt>
      <trkpt lat="48.37827" lon="0.29188">
        <ele>155</ele>
        <time>2022-05-21T21:53:52Z</time>
      </trkpt>
      <trkpt lat="48.37847" lon="0.29275">
        <ele>155</ele>
        <time>2022-05-21T21:54:03Z</time>
      </trkpt>
      <trkpt lat="48.37866" lon="0.29318">
        <ele>155</ele>
        <time>2022-05-21T21:54:09Z</time>
      </trkpt>
      <trkpt lat="48.37881" lon="0.29342">
        <ele>156</ele>
        <time>2022-05-21T21:54:13Z</time>
      </trkpt>
      <trkpt lat="48.37915" lon="0.29407">
        <ele>156</ele>
        <time>2022-05-21T21:54:22Z</time>
      </trkpt>
      <trkpt lat="48.37926" lon="0.29436">
        <ele>156</ele>
        <time>2022-05-21T21:54:26Z</time>
      </trkpt>
      <trkpt lat="48.37939" lon="0.29481">
        <ele>157</ele>
        <time>2022-05-21T21:54:32Z</time>
      </trkpt>
      <trkpt lat="48.37942" lon="0.29496">
        <ele>157</ele>
        <time>2022-05-21T21:54:34Z</time>
      </trkpt>
      <trkpt lat="48.37943" lon="0.29525">
        <ele>158</ele>
        <time>2022-05-21T21:54:37Z</time>
      </trkpt>
      <trkpt lat="48.37933" lon="0.29584">
        <ele>161</ele>
        <time>2022-05-21T21:54:45Z</time>
      </trkpt>
      <trkpt lat="48.37923" lon="0.29611">
        <ele>162</ele>
        <time>2022-05-21T21:54:48Z</time>
      </trkpt>
      <trkpt lat="48.37872" lon="0.29696">
        <ele>168</ele>
        <time>2022-05-21T21:55:02Z</time>
      </trkpt>
      <trkpt lat="48.37846" lon="0.29721">
        <ele>171</ele>
        <time>2022-05-21T21:55:07Z</time>
      </trkpt>
      <trkpt lat="48.37836" lon="0.29724">
        <ele>171</ele>
        <time>2022-05-21T21:55:09Z</time>
      </trkpt>
      <trkpt lat="48.37726" lon="0.29789">
        <ele>182</ele>
        <time>2022-05-21T21:55:30Z</time>
      </trkpt>
      <trkpt lat="48.37694" lon="0.29843">
        <ele>189</ele>
        <time>2022-05-21T21:55:39Z</time>
      </trkpt>
      <trkpt lat="48.37677" lon="0.29856">
        <ele>191</ele>
        <time>2022-05-21T21:55:42Z</time>
      </trkpt>
      <trkpt lat="48.37653" lon="0.29881">
        <ele>193</ele>
        <time>2022-05-21T21:55:47Z</time>
      </trkpt>
      <trkpt lat="48.37649" lon="0.29893">
        <ele>194</ele>
        <time>2022-05-21T21:55:49Z</time>
      </trkpt>
      <trkpt lat="48.37648" lon="0.29906">
        <ele>196</ele>
        <time>2022-05-21T21:55:50Z</time>
      </trkpt>
      <trkpt lat="48.37642" lon="0.29917">
        <ele>197</ele>
        <time>2022-05-21T21:55:52Z</time>
      </trkpt>
      <trkpt lat="48.37653" lon="0.2992">
        <ele>197</ele>
        <time>2022-05-21T21:55:54Z</time>
      </trkpt>
      <trkpt lat="48.37663" lon="0.29914">
        <ele>196</ele>
        <time>2022-05-21T21:55:56Z</time>
      </trkpt>
      <trkpt lat="48.37682" lon="0.29912">
        <ele>195</ele>
        <time>2022-05-21T21:55:59Z</time>
      </trkpt>
      <trkpt lat="48.37712" lon="0.29915">
        <ele>195</ele>
        <time>2022-05-21T21:56:05Z</time>
      </trkpt>
      <trkpt lat="48.3772" lon="0.29909">
        <ele>194</ele>
        <time>2022-05-21T21:56:06Z</time>
      </trkpt>
      <trkpt lat="48.37696" lon="0.29908">
        <ele>195</ele>
        <time>2022-05-21T21:56:11Z</time>
      </trkpt>
      <trkpt lat="48.37693" lon="0.29895">
        <ele>193</ele>
        <time>2022-05-21T21:56:12Z</time>
      </trkpt>
      <trkpt lat="48.37708" lon="0.29916">
        <ele>195</ele>
        <time>2022-05-21T21:56:16Z</time>
      </trkpt>
      <trkpt lat="48.37715" lon="0.29908">
        <ele>194</ele>
        <time>2022-05-21T21:56:17Z</time>
      </trkpt>
      <trkpt lat="48.3771" lon="0.29896">
        <ele>193</ele>
        <time>2022-05-21T21:56:19Z</time>
      </trkpt>
      <trkpt lat="48.37716" lon="0.29907">
        <ele>194</ele>
        <time>2022-05-21T21:56:21Z</time>
      </trkpt>
      <trkpt lat="48.37706" lon="0.29884">
        <ele>192</ele>
        <time>2022-05-21T21:56:24Z</time>
      </trkpt>
      <trkpt lat="48.37713" lon="0.29912">
        <ele>194</ele>
        <time>2022-05-21T21:56:28Z</time>
      </trkpt>
      <trkpt lat="48.37713" lon="0.29899">
        <ele>193</ele>
        <time>2022-05-21T21:56:29Z</time>
      </trkpt>
      <trkpt lat="48.37711" lon="0.29912">
        <ele>195</ele>
        <time>2022-05-21T21:56:31Z</time>
      </trkpt>
      <trkpt lat="48.37721" lon="0.29913">
        <ele>194</ele>
        <time>2022-05-21T21:56:32Z</time>
      </trkpt>
      <trkpt lat="48.3773" lon="0.29917">
        <ele>195</ele>
        <time>2022-05-21T21:56:34Z</time>
      </trkpt>
      <trkpt lat="48.37738" lon="0.29925">
        <ele>195</ele>
        <time>2022-05-21T21:56:36Z</time>
      </trkpt>
      <trkpt lat="48.37749" lon="0.29925">
        <ele>195</ele>
        <time>2022-05-21T21:56:38Z</time>
      </trkpt>
      <trkpt lat="48.37729" lon="0.29916">
        <ele>194</ele>
        <time>2022-05-21T21:56:42Z</time>
      </trkpt>
      <trkpt lat="48.3771" lon="0.29912">
        <ele>195</ele>
        <time>2022-05-21T21:56:45Z</time>
      </trkpt>
      <trkpt lat="48.37654" lon="0.2992">
        <ele>197</ele>
        <time>2022-05-21T21:56:55Z</time>
      </trkpt>
      <trkpt lat="48.37634" lon="0.29918">
        <ele>197</ele>
        <time>2022-05-21T21:56:59Z</time>
      </trkpt>
      <trkpt lat="48.37614" lon="0.29925">
        <ele>198</ele>
        <time>2022-05-21T21:57:02Z</time>
      </trkpt>
      <trkpt lat="48.37593" lon="0.29925">
        <ele>198</ele>
        <time>2022-05-21T21:57:06Z</time>
      </trkpt>
      <trkpt lat="48.37574" lon="0.29933">
        <ele>199</ele>
        <time>2022-05-21T21:57:09Z</time>
      </trkpt>
      <trkpt lat="48.37575" lon="0.29953">
        <ele>200</ele>
        <time>2022-05-21T21:57:12Z</time>
      </trkpt>
      <trkpt lat="48.37617" lon="0.30003">
        <ele>203</ele>
        <time>2022-05-21T21:57:21Z</time>
      </trkpt>
      <trkpt lat="48.37717" lon="0.30085">
        <ele>208</ele>
        <time>2022-05-21T21:57:42Z</time>
      </trkpt>
      <trkpt lat="48.37733" lon="0.30101">
        <ele>209</ele>
        <time>2022-05-21T21:57:45Z</time>
      </trkpt>
      <trkpt lat="48.37752" lon="0.3011">
        <ele>209</ele>
        <time>2022-05-21T21:57:49Z</time>
      </trkpt>
      <trkpt lat="48.37784" lon="0.30111">
        <ele>209</ele>
        <time>2022-05-21T21:57:54Z</time>
      </trkpt>
      <trkpt lat="48.37804" lon="0.30119">
        <ele>209</ele>
        <time>2022-05-21T21:57:58Z</time>
      </trkpt>
      <trkpt lat="48.37831" lon="0.30139">
        <ele>210</ele>
        <time>2022-05-21T21:58:03Z</time>
      </trkpt>
      <trkpt lat="48.37847" lon="0.30157">
        <ele>210</ele>
        <time>2022-05-21T21:58:07Z</time>
      </trkpt>
      <trkpt lat="48.37862" lon="0.30181">
        <ele>211</ele>
        <time>2022-05-21T21:58:11Z</time>
      </trkpt>
      <trkpt lat="48.37879" lon="0.3022">
        <ele>212</ele>
        <time>2022-05-21T21:58:16Z</time>
      </trkpt>
      <trkpt lat="48.37883" lon="0.30236">
        <ele>213</ele>
        <time>2022-05-21T21:58:18Z</time>
      </trkpt>
      <trkpt lat="48.37904" lon="0.30288">
        <ele>215</ele>
        <time>2022-05-21T21:58:25Z</time>
      </trkpt>
      <trkpt lat="48.37924" lon="0.30359">
        <ele>217</ele>
        <time>2022-05-21T21:58:35Z</time>
      </trkpt>
      <trkpt lat="48.37955" lon="0.30442">
        <ele>217</ele>
        <time>2022-05-21T21:58:46Z</time>
      </trkpt>
      <trkpt lat="48.37966" lon="0.30439">
        <ele>217</ele>
        <time>2022-05-21T21:58:48Z</time>
      </trkpt>
      <trkpt lat="48.37956" lon="0.30393">
        <ele>216</ele>
        <time>2022-05-21T21:58:54Z</time>
      </trkpt>
      <trkpt lat="48.3795" lon="0.30349">
        <ele>216</ele>
        <time>2022-05-21T21:58:59Z</time>
      </trkpt>
      <trkpt lat="48.3795" lon="0.30334">
        <ele>215</ele>
        <time>2022-05-21T21:59:01Z</time>
      </trkpt>
      <trkpt lat="48.37965" lon="0.30351">
        <ele>215</ele>
        <time>2022-05-21T21:59:04Z</time>
      </trkpt>
      <trkpt lat="48.37972" lon="0.30343">
        <ele>215</ele>
        <time>2022-05-21T21:59:06Z</time>
      </trkpt>
      <trkpt lat="48.37966" lon="0.30353">
        <ele>215</ele>
        <time>2022-05-21T21:59:07Z</time>
      </trkpt>
      <trkpt lat="48.37963" lon="0.30367">
        <ele>215</ele>
        <time>2022-05-21T21:59:09Z</time>
      </trkpt>
      <trkpt lat="48.37953" lon="0.30366">
        <ele>216</ele>
        <time>2022-05-21T21:59:11Z</time>
      </trkpt>
      <trkpt lat="48.37949" lon="0.30353">
        <ele>216</ele>
        <time>2022-05-21T21:59:12Z</time>
      </trkpt>
      <trkpt lat="48.37948" lon="0.30339">
        <ele>216</ele>
        <time>2022-05-21T21:59:14Z</time>
      </trkpt>
      <trkpt lat="48.37948" lon="0.30367">
        <ele>216</ele>
        <time>2022-05-21T21:59:17Z</time>
      </trkpt>
      <trkpt lat="48.37953" lon="0.30398">
        <ele>216</ele>
        <time>2022-05-21T21:59:21Z</time>
      </trkpt>
      <trkpt lat="48.37962" lon="0.30426">
        <ele>217</ele>
        <time>2022-05-21T21:59:25Z</time>
      </trkpt>
      <trkpt lat="48.37961" lon="0.30443">
        <ele>217</ele>
        <time>2022-05-21T21:59:27Z</time>
      </trkpt>
      <trkpt lat="48.37954" lon="0.30452">
        <ele>217</ele>
        <time>2022-05-21T21:59:28Z</time>
      </trkpt>
      <trkpt lat="48.37976" lon="0.30532">
        <ele>216</ele>
        <time>2022-05-21T21:59:39Z</time>
      </trkpt>
      <trkpt lat="48.38002" lon="0.30603">
        <ele>213</ele>
        <time>2022-05-21T21:59:48Z</time>
      </trkpt>
      <trkpt lat="48.38032" lon="0.30706">
        <ele>210</ele>
        <time>2022-05-21T22:00:02Z</time>
      </trkpt>
      <trkpt lat="48.38039" lon="0.30744">
        <ele>209</ele>
        <time>2022-05-21T22:00:06Z</time>
      </trkpt>
      <trkpt lat="48.38055" lon="0.30873">
        <ele>209</ele>
        <time>2022-05-21T22:00:22Z</time>
      </trkpt>
      <trkpt lat="48.38109" lon="0.31096">
        <ele>201</ele>
        <time>2022-05-21T22:00:50Z</time>
      </trkpt>
      <trkpt lat="48.38129" lon="0.31226">
        <ele>196</ele>
        <time>2022-05-21T22:01:05Z</time>
      </trkpt>
      <trkpt lat="48.38133" lon="0.31239">
        <ele>195</ele>
        <time>2022-05-21T22:01:07Z</time>
      </trkpt>
      <trkpt lat="48.38143" lon="0.3126">
        <ele>194</ele>
        <time>2022-05-21T22:01:10Z</time>
      </trkpt>
      <trkpt lat="48.38156" lon="0.31277">
        <ele>194</ele>
        <time>2022-05-21T22:01:13Z</time>
      </trkpt>
      <trkpt lat="48.38305" lon="0.31425">
        <ele>190</ele>
        <time>2022-05-21T22:01:45Z</time>
      </trkpt>
      <trkpt lat="48.38421" lon="0.31552">
        <ele>189</ele>
        <time>2022-05-21T22:02:11Z</time>
      </trkpt>
      <trkpt lat="48.38444" lon="0.31572">
        <ele>189</ele>
        <time>2022-05-21T22:02:15Z</time>
      </trkpt>
      <trkpt lat="48.38493" lon="0.31599">
        <ele>190</ele>
        <time>2022-05-21T22:02:25Z</time>
      </trkpt>
      <trkpt lat="48.38558" lon="0.31624">
        <ele>191</ele>
        <time>2022-05-21T22:02:37Z</time>
      </trkpt>
      <trkpt lat="48.38586" lon="0.31616">
        <ele>192</ele>
        <time>2022-05-21T22:02:42Z</time>
      </trkpt>
      <trkpt lat="48.38606" lon="0.31602">
        <ele>192</ele>
        <time>2022-05-21T22:02:46Z</time>
      </trkpt>
      <trkpt lat="48.38618" lon="0.31602">
        <ele>192</ele>
        <time>2022-05-21T22:02:48Z</time>
      </trkpt>
      <trkpt lat="48.38652" lon="0.31631">
        <ele>192</ele>
        <time>2022-05-21T22:02:55Z</time>
      </trkpt>
      <trkpt lat="48.38662" lon="0.31637">
        <ele>193</ele>
        <time>2022-05-21T22:02:57Z</time>
      </trkpt>
      <trkpt lat="48.38673" lon="0.3164">
        <ele>194</ele>
        <time>2022-05-21T22:02:59Z</time>
      </trkpt>
      <trkpt lat="48.38713" lon="0.31641">
        <ele>197</ele>
        <time>2022-05-21T22:03:06Z</time>
      </trkpt>
      <trkpt lat="48.38731" lon="0.31646">
        <ele>198</ele>
        <time>2022-05-21T22:03:09Z</time>
      </trkpt>
      <trkpt lat="48.38758" lon="0.31664">
        <ele>201</ele>
        <time>2022-05-21T22:03:14Z</time>
      </trkpt>
      <trkpt lat="48.38833" lon="0.31757">
        <ele>200</ele>
        <time>2022-05-21T22:03:31Z</time>
      </trkpt>
      <trkpt lat="48.38851" lon="0.31773">
        <ele>201</ele>
        <time>2022-05-21T22:03:35Z</time>
      </trkpt>
      <trkpt lat="48.38872" lon="0.31782">
        <ele>201</ele>
        <time>2022-05-21T22:03:39Z</time>
      </trkpt>
      <trkpt lat="48.38908" lon="0.31782">
        <ele>201</ele>
        <time>2022-05-21T22:03:45Z</time>
      </trkpt>
      <trkpt lat="48.39007" lon="0.31763">
        <ele>206</ele>
        <time>2022-05-21T22:04:03Z</time>
      </trkpt>
      <trkpt lat="48.39027" lon="0.31756">
        <ele>208</ele>
        <time>2022-05-21T22:04:07Z</time>
      </trkpt>
      <trkpt lat="48.39037" lon="0.31757">
        <ele>209</ele>
        <time>2022-05-21T22:04:09Z</time>
      </trkpt>
      <trkpt lat="48.39075" lon="0.3175">
        <ele>213</ele>
        <time>2022-05-21T22:04:15Z</time>
      </trkpt>
      <trkpt lat="48.39124" lon="0.31754">
        <ele>219</ele>
        <time>2022-05-21T22:04:24Z</time>
      </trkpt>
      <trkpt lat="48.39144" lon="0.31761">
        <ele>221</ele>
        <time>2022-05-21T22:04:28Z</time>
      </trkpt>
      <trkpt lat="48.39181" lon="0.31786">
        <ele>224</ele>
        <time>2022-05-21T22:04:35Z</time>
      </trkpt>
      <trkpt lat="48.39266" lon="0.31877">
        <ele>228</ele>
        <time>2022-05-21T22:04:54Z</time>
      </trkpt>
      <trkpt lat="48.39301" lon="0.31904">
        <ele>228</ele>
        <time>2022-05-21T22:05:01Z</time>
      </trkpt>
      <trkpt lat="48.39449" lon="0.31992">
        <ele>222</ele>
        <time>2022-05-21T22:05:29Z</time>
      </trkpt>
      <trkpt lat="48.39502" lon="0.32016">
        <ele>217</ele>
        <time>2022-05-21T22:05:39Z</time>
      </trkpt>
      <trkpt lat="48.39541" lon="0.32024">
        <ele>215</ele>
        <time>2022-05-21T22:05:46Z</time>
      </trkpt>
      <trkpt lat="48.39561" lon="0.32025">
        <ele>214</ele>
        <time>2022-05-21T22:05:49Z</time>
      </trkpt>
      <trkpt lat="48.39589" lon="0.32025">
        <ele>213</ele>
        <time>2022-05-21T22:05:54Z</time>
      </trkpt>
      <trkpt lat="48.39618" lon="0.32017">
        <ele>212</ele>
        <time>2022-05-21T22:06:00Z</time>
      </trkpt>
      <trkpt lat="48.39637" lon="0.32015">
        <ele>211</ele>
        <time>2022-05-21T22:06:03Z</time>
      </trkpt>
      <trkpt lat="48.39669" lon="0.32018">
        <ele>211</ele>
        <time>2022-05-21T22:06:09Z</time>
      </trkpt>
      <trkpt lat="48.39706" lon="0.32032">
        <ele>211</ele>
        <time>2022-05-21T22:06:15Z</time>
      </trkpt>
      <trkpt lat="48.39717" lon="0.32039">
        <ele>211</ele>
        <time>2022-05-21T22:06:18Z</time>
      </trkpt>
      <trkpt lat="48.39758" lon="0.32057">
        <ele>212</ele>
        <time>2022-05-21T22:06:25Z</time>
      </trkpt>
      <trkpt lat="48.39807" lon="0.32077">
        <ele>215</ele>
        <time>2022-05-21T22:06:34Z</time>
      </trkpt>
      <trkpt lat="48.39818" lon="0.32079">
        <ele>215</ele>
        <time>2022-05-21T22:06:36Z</time>
      </trkpt>
      <trkpt lat="48.39836" lon="0.32088">
        <ele>216</ele>
        <time>2022-05-21T22:06:40Z</time>
      </trkpt>
      <trkpt lat="48.39855" lon="0.3209">
        <ele>218</ele>
        <time>2022-05-21T22:06:43Z</time>
      </trkpt>
      <trkpt lat="48.39876" lon="0.32089">
        <ele>220</ele>
        <time>2022-05-21T22:06:47Z</time>
      </trkpt>
      <trkpt lat="48.39905" lon="0.32098">
        <ele>223</ele>
        <time>2022-05-21T22:06:52Z</time>
      </trkpt>
      <trkpt lat="48.39936" lon="0.32104">
        <ele>225</ele>
        <time>2022-05-21T22:06:57Z</time>
      </trkpt>
      <trkpt lat="48.39983" lon="0.3209">
        <ele>230</ele>
        <time>2022-05-21T22:07:06Z</time>
      </trkpt>
      <trkpt lat="48.40003" lon="0.32098">
        <ele>231</ele>
        <time>2022-05-21T22:07:10Z</time>
      </trkpt>
      <trkpt lat="48.4006" lon="0.32089">
        <ele>235</ele>
        <time>2022-05-21T22:07:20Z</time>
      </trkpt>
      <trkpt lat="48.40124" lon="0.32061">
        <ele>241</ele>
        <time>2022-05-21T22:07:32Z</time>
      </trkpt>
      <trkpt lat="48.40154" lon="0.32058">
        <ele>243</ele>
        <time>2022-05-21T22:07:37Z</time>
      </trkpt>
      <trkpt lat="48.40183" lon="0.32051">
        <ele>246</ele>
        <time>2022-05-21T22:07:42Z</time>
      </trkpt>
      <trkpt lat="48.40193" lon="0.3205">
        <ele>247</ele>
        <time>2022-05-21T22:07:44Z</time>
      </trkpt>
      <trkpt lat="48.40222" lon="0.32056">
        <ele>251</ele>
        <time>2022-05-21T22:07:49Z</time>
      </trkpt>
      <trkpt lat="48.40249" lon="0.32068">
        <ele>254</ele>
        <time>2022-05-21T22:07:54Z</time>
      </trkpt>
      <trkpt lat="48.40258" lon="0.32067">
        <ele>255</ele>
        <time>2022-05-21T22:07:56Z</time>
      </trkpt>
      <trkpt lat="48.40276" lon="0.32077">
        <ele>256</ele>
        <time>2022-05-21T22:07:59Z</time>
      </trkpt>
      <trkpt lat="48.40294" lon="0.32091">
        <ele>258</ele>
        <time>2022-05-21T22:08:03Z</time>
      </trkpt>
      <trkpt lat="48.40311" lon="0.32109">
        <ele>258</ele>
        <time>2022-05-21T22:08:07Z</time>
      </trkpt>
      <trkpt lat="48.40334" lon="0.32139">
        <ele>257</ele>
        <time>2022-05-21T22:08:12Z</time>
      </trkpt>
      <trkpt lat="48.40353" lon="0.32155">
        <ele>257</ele>
        <time>2022-05-21T22:08:16Z</time>
      </trkpt>
      <trkpt lat="48.4039" lon="0.32183">
        <ele>258</ele>
        <time>2022-05-21T22:08:23Z</time>
      </trkpt>
      <trkpt lat="48.40409" lon="0.32194">
        <ele>258</ele>
        <time>2022-05-21T22:08:27Z</time>
      </trkpt>
      <trkpt lat="48.40434" lon="0.32248">
        <ele>258</ele>
        <time>2022-05-21T22:08:35Z</time>
      </trkpt>
      <trkpt lat="48.40437" lon="0.32261">
        <ele>258</ele>
        <time>2022-05-21T22:08:36Z</time>
      </trkpt>
      <trkpt lat="48.40447" lon="0.32271">
        <ele>259</ele>
        <time>2022-05-21T22:08:38Z</time>
      </trkpt>
      <trkpt lat="48.40457" lon="0.32286">
        <ele>260</ele>
        <time>2022-05-21T22:08:41Z</time>
      </trkpt>
      <trkpt lat="48.40507" lon="0.32336">
        <ele>263</ele>
        <time>2022-05-21T22:08:52Z</time>
      </trkpt>
      <trkpt lat="48.4053" lon="0.32367">
        <ele>263</ele>
        <time>2022-05-21T22:08:57Z</time>
      </trkpt>
      <trkpt lat="48.40559" lon="0.32415">
        <ele>263</ele>
        <time>2022-05-21T22:09:05Z</time>
      </trkpt>
      <trkpt lat="48.40557" lon="0.32434">
        <ele>262</ele>
        <time>2022-05-21T22:09:07Z</time>
      </trkpt>
      <trkpt lat="48.4049" lon="0.32563">
        <ele>252</ele>
        <time>2022-05-21T22:09:26Z</time>
      </trkpt>
      <trkpt lat="48.40431" lon="0.32653">
        <ele>246</ele>
        <time>2022-05-21T22:09:41Z</time>
      </trkpt>
      <trkpt lat="48.40429" lon="0.32667">
        <ele>246</ele>
        <time>2022-05-21T22:09:43Z</time>
      </trkpt>
      <trkpt lat="48.40436" lon="0.32676">
        <ele>246</ele>
        <time>2022-05-21T22:09:45Z</time>
      </trkpt>
      <trkpt lat="48.40427" lon="0.32676">
        <ele>245</ele>
        <time>2022-05-21T22:09:46Z</time>
      </trkpt>
      <trkpt lat="48.40421" lon="0.3269">
        <ele>245</ele>
        <time>2022-05-21T22:09:48Z</time>
      </trkpt>
      <trkpt lat="48.40423" lon="0.3272">
        <ele>244</ele>
        <time>2022-05-21T22:09:52Z</time>
      </trkpt>
      <trkpt lat="48.40427" lon="0.32736">
        <ele>244</ele>
        <time>2022-05-21T22:09:54Z</time>
      </trkpt>
      <trkpt lat="48.40426" lon="0.32809">
        <ele>242</ele>
        <time>2022-05-21T22:10:02Z</time>
      </trkpt>
      <trkpt lat="48.40431" lon="0.32881">
        <ele>238</ele>
        <time>2022-05-21T22:10:11Z</time>
      </trkpt>
      <trkpt lat="48.4043" lon="0.32915">
        <ele>236</ele>
        <time>2022-05-21T22:10:15Z</time>
      </trkpt>
      <trkpt lat="48.40432" lon="0.32936">
        <ele>235</ele>
        <time>2022-05-21T22:10:18Z</time>
      </trkpt>
      <trkpt lat="48.4043" lon="0.32959">
        <ele>234</ele>
        <time>2022-05-21T22:10:20Z</time>
      </trkpt>
      <trkpt lat="48.40433" lon="0.32982">
        <ele>234</ele>
        <time>2022-05-21T22:10:23Z</time>
      </trkpt>
      <trkpt lat="48.40432" lon="0.33018">
        <ele>232</ele>
        <time>2022-05-21T22:10:27Z</time>
      </trkpt>
      <trkpt lat="48.40428" lon="0.33053">
        <ele>230</ele>
        <time>2022-05-21T22:10:32Z</time>
      </trkpt>
      <trkpt lat="48.40404" lon="0.3315">
        <ele>224</ele>
        <time>2022-05-21T22:10:44Z</time>
      </trkpt>
      <trkpt lat="48.40384" lon="0.3322">
        <ele>221</ele>
        <time>2022-05-21T22:10:53Z</time>
      </trkpt>
      <trkpt lat="48.40369" lon="0.33236">
        <ele>219</ele>
        <time>2022-05-21T22:10:56Z</time>
      </trkpt>
      <trkpt lat="48.40373" lon="0.33251">
        <ele>219</ele>
        <time>2022-05-21T22:10:58Z</time>
      </trkpt>
      <trkpt lat="48.40364" lon="0.33274">
        <ele>218</ele>
        <time>2022-05-21T22:11:01Z</time>
      </trkpt>
      <trkpt lat="48.40354" lon="0.33311">
        <ele>216</ele>
        <time>2022-05-21T22:11:06Z</time>
      </trkpt>
      <trkpt lat="48.40345" lon="0.3332">
        <ele>216</ele>
        <time>2022-05-21T22:11:08Z</time>
      </trkpt>
      <trkpt lat="48.40289" lon="0.33509">
        <ele>209</ele>
        <time>2022-05-21T22:11:32Z</time>
      </trkpt>
      <trkpt lat="48.40248" lon="0.33673">
        <ele>203</ele>
        <time>2022-05-21T22:11:53Z</time>
      </trkpt>
      <trkpt lat="48.40237" lon="0.33733">
        <ele>204</ele>
        <time>2022-05-21T22:12:00Z</time>
      </trkpt>
      <trkpt lat="48.40236" lon="0.33753">
        <ele>204</ele>
        <time>2022-05-21T22:12:03Z</time>
      </trkpt>
      <trkpt lat="48.40241" lon="0.33807">
        <ele>203</ele>
        <time>2022-05-21T22:12:09Z</time>
      </trkpt>
      <trkpt lat="48.40263" lon="0.3385">
        <ele>202</ele>
        <time>2022-05-21T22:12:15Z</time>
      </trkpt>
      <trkpt lat="48.40286" lon="0.33882">
        <ele>202</ele>
        <time>2022-05-21T22:12:21Z</time>
      </trkpt>
      <trkpt lat="48.40294" lon="0.33897">
        <ele>202</ele>
        <time>2022-05-21T22:12:23Z</time>
      </trkpt>
      <trkpt lat="48.40303" lon="0.33924">
        <ele>201</ele>
        <time>2022-05-21T22:12:27Z</time>
      </trkpt>
      <trkpt lat="48.40312" lon="0.33968">
        <ele>202</ele>
        <time>2022-05-21T22:12:32Z</time>
      </trkpt>
      <trkpt lat="48.40321" lon="0.33979">
        <ele>202</ele>
        <time>2022-05-21T22:12:34Z</time>
      </trkpt>
      <trkpt lat="48.40332" lon="0.34037">
        <ele>204</ele>
        <time>2022-05-21T22:12:41Z</time>
      </trkpt>
      <trkpt lat="48.40337" lon="0.34066">
        <ele>205</ele>
        <time>2022-05-21T22:12:45Z</time>
      </trkpt>
      <trkpt lat="48.40337" lon="0.34097">
        <ele>205</ele>
        <time>2022-05-21T22:12:49Z</time>
      </trkpt>
      <trkpt lat="48.40321" lon="0.34173">
        <ele>207</ele>
        <time>2022-05-21T22:12:58Z</time>
      </trkpt>
      <trkpt lat="48.40317" lon="0.34204">
        <ele>207</ele>
        <time>2022-05-21T22:13:02Z</time>
      </trkpt>
      <trkpt lat="48.40316" lon="0.34242">
        <ele>208</ele>
        <time>2022-05-21T22:13:06Z</time>
      </trkpt>
      <trkpt lat="48.40325" lon="0.34307">
        <ele>207</ele>
        <time>2022-05-21T22:13:14Z</time>
      </trkpt>
      <trkpt lat="48.40342" lon="0.34376">
        <ele>204</ele>
        <time>2022-05-21T22:13:23Z</time>
      </trkpt>
      <trkpt lat="48.40376" lon="0.34538">
        <ele>200</ele>
        <time>2022-05-21T22:13:43Z</time>
      </trkpt>
      <trkpt lat="48.40379" lon="0.34618">
        <ele>204</ele>
        <time>2022-05-21T22:13:52Z</time>
      </trkpt>
      <trkpt lat="48.40371" lon="0.34714">
        <ele>208</ele>
        <time>2022-05-21T22:14:04Z</time>
      </trkpt>
      <trkpt lat="48.40366" lon="0.34875">
        <ele>203</ele>
        <time>2022-05-21T22:14:23Z</time>
      </trkpt>
      <trkpt lat="48.4037" lon="0.34965">
        <ele>197</ele>
        <time>2022-05-21T22:14:34Z</time>
      </trkpt>
      <trkpt lat="48.40392" lon="0.35248">
        <ele>185</ele>
        <time>2022-05-21T22:15:07Z</time>
      </trkpt>
      <trkpt lat="48.40394" lon="0.35311">
        <ele>183</ele>
        <time>2022-05-21T22:15:15Z</time>
      </trkpt>
      <trkpt lat="48.40381" lon="0.3554">
        <ele>180</ele>
        <time>2022-05-21T22:15:42Z</time>
      </trkpt>
      <trkpt lat="48.40381" lon="0.35605">
        <ele>177</ele>
        <time>2022-05-21T22:15:49Z</time>
      </trkpt>
      <trkpt lat="48.40385" lon="0.35651">
        <ele>175</ele>
        <time>2022-05-21T22:15:55Z</time>
      </trkpt>
      <trkpt lat="48.40384" lon="0.35695">
        <ele>175</ele>
        <time>2022-05-21T22:16:00Z</time>
      </trkpt>
      <trkpt lat="48.40345" lon="0.35871">
        <ele>178</ele>
        <time>2022-05-21T22:16:22Z</time>
      </trkpt>
      <trkpt lat="48.40286" lon="0.36167">
        <ele>175</ele>
        <time>2022-05-21T22:16:59Z</time>
      </trkpt>
      <trkpt lat="48.4028" lon="0.36214">
        <ele>173</ele>
        <time>2022-05-21T22:17:04Z</time>
      </trkpt>
      <trkpt lat="48.40273" lon="0.36315">
        <ele>168</ele>
        <time>2022-05-21T22:17:16Z</time>
      </trkpt>
      <trkpt lat="48.40265" lon="0.3639">
        <ele>168</ele>
        <time>2022-05-21T22:17:25Z</time>
      </trkpt>
      <trkpt lat="48.40265" lon="0.36408">
        <ele>169</ele>
        <time>2022-05-21T22:17:27Z</time>
      </trkpt>
      <trkpt lat="48.40261" lon="0.36423">
        <ele>169</ele>
        <time>2022-05-21T22:17:29Z</time>
      </trkpt>
      <trkpt lat="48.40256" lon="0.36496">
        <ele>174</ele>
        <time>2022-05-21T22:17:38Z</time>
      </trkpt>
      <trkpt lat="48.40247" lon="0.36538">
        <ele>177</ele>
        <time>2022-05-21T22:17:43Z</time>
      </trkpt>
      <trkpt lat="48.40226" lon="0.36574">
        <ele>180</ele>
        <time>2022-05-21T22:17:49Z</time>
      </trkpt>
      <trkpt lat="48.4021" lon="0.36591">
        <ele>180</ele>
        <time>2022-05-21T22:17:52Z</time>
      </trkpt>
      <trkpt lat="48.40186" lon="0.36622">
        <ele>180</ele>
        <time>2022-05-21T22:17:58Z</time>
      </trkpt>
      <trkpt lat="48.40178" lon="0.36636">
        <ele>180</ele>
        <time>2022-05-21T22:18:00Z</time>
      </trkpt>
      <trkpt lat="48.40092" lon="0.36878">
        <ele>180</ele>
        <time>2022-05-21T22:18:32Z</time>
      </trkpt>
      <trkpt lat="48.40088" lon="0.36908">
        <ele>180</ele>
        <time>2022-05-21T22:18:36Z</time>
      </trkpt>
      <trkpt lat="48.40089" lon="0.36926">
        <ele>180</ele>
        <time>2022-05-21T22:18:38Z</time>
      </trkpt>
      <trkpt lat="48.40103" lon="0.37021">
        <ele>179</ele>
        <time>2022-05-21T22:18:50Z</time>
      </trkpt>
      <trkpt lat="48.4009" lon="0.37037">
        <ele>178</ele>
        <time>2022-05-21T22:18:53Z</time>
      </trkpt>
      <trkpt lat="48.4008" lon="0.37042">
        <ele>177</ele>
        <time>2022-05-21T22:18:55Z</time>
      </trkpt>
      <trkpt lat="48.40075" lon="0.3706">
        <ele>176</ele>
        <time>2022-05-21T22:18:57Z</time>
      </trkpt>
      <trkpt lat="48.40082" lon="0.37194">
        <ele>172</ele>
        <time>2022-05-21T22:19:13Z</time>
      </trkpt>
      <trkpt lat="48.40084" lon="0.37325">
        <ele>164</ele>
        <time>2022-05-21T22:19:28Z</time>
      </trkpt>
      <trkpt lat="48.40076" lon="0.37371">
        <ele>162</ele>
        <time>2022-05-21T22:19:34Z</time>
      </trkpt>
      <trkpt lat="48.40046" lon="0.37476">
        <ele>160</ele>
        <time>2022-05-21T22:19:47Z</time>
      </trkpt>
      <trkpt lat="48.40028" lon="0.37555">
        <ele>159</ele>
        <time>2022-05-21T22:19:57Z</time>
      </trkpt>
      <trkpt lat="48.40021" lon="0.37617">
        <ele>161</ele>
        <time>2022-05-21T22:20:05Z</time>
      </trkpt>
      <trkpt lat="48.40023" lon="0.37676">
        <ele>165</ele>
        <time>2022-05-21T22:20:12Z</time>
      </trkpt>
      <trkpt lat="48.40031" lon="0.37716">
        <ele>168</ele>
        <time>2022-05-21T22:20:17Z</time>
      </trkpt>
      <trkpt lat="48.40036" lon="0.3773">
        <ele>168</ele>
        <time>2022-05-21T22:20:18Z</time>
      </trkpt>
      <trkpt lat="48.40049" lon="0.37752">
        <ele>169</ele>
        <time>2022-05-21T22:20:22Z</time>
      </trkpt>
      <trkpt lat="48.40108" lon="0.37835">
        <ele>174</ele>
        <time>2022-05-21T22:20:36Z</time>
      </trkpt>
      <trkpt lat="48.40134" lon="0.37878">
        <ele>176</ele>
        <time>2022-05-21T22:20:43Z</time>
      </trkpt>
      <trkpt lat="48.40146" lon="0.37919">
        <ele>178</ele>
        <time>2022-05-21T22:20:48Z</time>
      </trkpt>
      <trkpt lat="48.4018" lon="0.38068">
        <ele>187</ele>
        <time>2022-05-21T22:21:07Z</time>
      </trkpt>
      <trkpt lat="48.40196" lon="0.38121">
        <ele>190</ele>
        <time>2022-05-21T22:21:14Z</time>
      </trkpt>
      <trkpt lat="48.40288" lon="0.38348">
        <ele>193</ele>
        <time>2022-05-21T22:21:45Z</time>
      </trkpt>
      <trkpt lat="48.40331" lon="0.38444">
        <ele>195</ele>
        <time>2022-05-21T22:21:59Z</time>
      </trkpt>
      <trkpt lat="48.40345" lon="0.3849">
        <ele>195</ele>
        <time>2022-05-21T22:22:05Z</time>
      </trkpt>
      <trkpt lat="48.4035" lon="0.38546">
        <ele>194</ele>
        <time>2022-05-21T22:22:12Z</time>
      </trkpt>
      <trkpt lat="48.40348" lon="0.38589">
        <ele>193</ele>
        <time>2022-05-21T22:22:17Z</time>
      </trkpt>
      <trkpt lat="48.40333" lon="0.38696">
        <ele>192</ele>
        <time>2022-05-21T22:22:30Z</time>
      </trkpt>
      <trkpt lat="48.40329" lon="0.38742">
        <ele>189</ele>
        <time>2022-05-21T22:22:35Z</time>
      </trkpt>
      <trkpt lat="48.40325" lon="0.38757">
        <ele>189</ele>
        <time>2022-05-21T22:22:37Z</time>
      </trkpt>
      <trkpt lat="48.40324" lon="0.38789">
        <ele>188</ele>
        <time>2022-05-21T22:22:41Z</time>
      </trkpt>
      <trkpt lat="48.40315" lon="0.38852">
        <ele>186</ele>
        <time>2022-05-21T22:22:48Z</time>
      </trkpt>
      <trkpt lat="48.40313" lon="0.38922">
        <ele>185</ele>
        <time>2022-05-21T22:22:57Z</time>
      </trkpt>
      <trkpt lat="48.40316" lon="0.39022">
        <ele>181</ele>
        <time>2022-05-21T22:23:09Z</time>
      </trkpt>
      <trkpt lat="48.40311" lon="0.39091">
        <ele>178</ele>
        <time>2022-05-21T22:23:17Z</time>
      </trkpt>
      <trkpt lat="48.40304" lon="0.39139">
        <ele>175</ele>
        <time>2022-05-21T22:23:23Z</time>
      </trkpt>
      <trkpt lat="48.40291" lon="0.39181">
        <ele>172</ele>
        <time>2022-05-21T22:23:28Z</time>
      </trkpt>
      <trkpt lat="48.40288" lon="0.39218">
        <ele>171</ele>
        <time>2022-05-21T22:23:32Z</time>
      </trkpt>
      <trkpt lat="48.40256" lon="0.39372">
        <ele>161</ele>
        <time>2022-05-21T22:23:52Z</time>
      </trkpt>
      <trkpt lat="48.40249" lon="0.39436">
        <ele>158</ele>
        <time>2022-05-21T22:23:59Z</time>
      </trkpt>
      <trkpt lat="48.40246" lon="0.3948">
        <ele>155</ele>
        <time>2022-05-21T22:24:04Z</time>
      </trkpt>
      <trkpt lat="48.40248" lon="0.3952">
        <ele>153</ele>
        <time>2022-05-21T22:24:09Z</time>
      </trkpt>
      <trkpt lat="48.40256" lon="0.39584">
        <ele>149</ele>
        <time>2022-05-21T22:24:17Z</time>
      </trkpt>
      <trkpt lat="48.4025" lon="0.39598">
        <ele>148</ele>
        <time>2022-05-21T22:24:19Z</time>
      </trkpt>
      <trkpt lat="48.40191" lon="0.39631">
        <ele>149</ele>
        <time>2022-05-21T22:24:30Z</time>
      </trkpt>
      <trkpt lat="48.40172" lon="0.3965">
        <ele>148</ele>
        <time>2022-05-21T22:24:34Z</time>
      </trkpt>
      <trkpt lat="48.40141" lon="0.39713">
        <ele>148</ele>
        <time>2022-05-21T22:24:43Z</time>
      </trkpt>
      <trkpt lat="48.40127" lon="0.39734">
        <ele>148</ele>
        <time>2022-05-21T22:24:47Z</time>
      </trkpt>
      <trkpt lat="48.40103" lon="0.39757">
        <ele>148</ele>
        <time>2022-05-21T22:24:52Z</time>
      </trkpt>
      <trkpt lat="48.40065" lon="0.39782">
        <ele>149</ele>
        <time>2022-05-21T22:24:59Z</time>
      </trkpt>
      <trkpt lat="48.4003" lon="0.39825">
        <ele>148</ele>
        <time>2022-05-21T22:25:07Z</time>
      </trkpt>
      <trkpt lat="48.39999" lon="0.39874">
        <ele>148</ele>
        <time>2022-05-21T22:25:15Z</time>
      </trkpt>
      <trkpt lat="48.39978" lon="0.39916">
        <ele>147</ele>
        <time>2022-05-21T22:25:22Z</time>
      </trkpt>
      <trkpt lat="48.39962" lon="0.39942">
        <ele>147</ele>
        <time>2022-05-21T22:25:26Z</time>
      </trkpt>
      <trkpt lat="48.3993" lon="0.39984">
        <ele>148</ele>
        <time>2022-05-21T22:25:33Z</time>
      </trkpt>
      <trkpt lat="48.39907" lon="0.40038">
        <ele>147</ele>
        <time>2022-05-21T22:25:41Z</time>
      </trkpt>
      <trkpt lat="48.39892" lon="0.40064">
        <ele>147</ele>
        <time>2022-05-21T22:25:45Z</time>
      </trkpt>
      <trkpt lat="48.39839" lon="0.40113">
        <ele>149</ele>
        <time>2022-05-21T22:25:56Z</time>
      </trkpt>
      <trkpt lat="48.39811" lon="0.40145">
        <ele>148</ele>
        <time>2022-05-21T22:26:02Z</time>
      </trkpt>
      <trkpt lat="48.39751" lon="0.40205">
        <ele>148</ele>
        <time>2022-05-21T22:26:15Z</time>
      </trkpt>
      <trkpt lat="48.39732" lon="0.40221">
        <ele>148</ele>
        <time>2022-05-21T22:26:19Z</time>
      </trkpt>
      <trkpt lat="48.39663" lon="0.40294">
        <ele>146</ele>
        <time>2022-05-21T22:26:34Z</time>
      </trkpt>
      <trkpt lat="48.39673" lon="0.40289">
        <ele>146</ele>
        <time>2022-05-21T22:26:36Z</time>
      </trkpt>
      <trkpt lat="48.39683" lon="0.4028">
        <ele>146</ele>
        <time>2022-05-21T22:26:38Z</time>
      </trkpt>
      <trkpt lat="48.3969" lon="0.40271">
        <ele>147</ele>
        <time>2022-05-21T22:26:40Z</time>
      </trkpt>
      <trkpt lat="48.39681" lon="0.40274">
        <ele>147</ele>
        <time>2022-05-21T22:26:41Z</time>
      </trkpt>
      <trkpt lat="48.39653" lon="0.403">
        <ele>146</ele>
        <time>2022-05-21T22:26:47Z</time>
      </trkpt>
      <trkpt lat="48.39619" lon="0.40322">
        <ele>145</ele>
        <time>2022-05-21T22:26:54Z</time>
      </trkpt>
      <trkpt lat="48.39555" lon="0.40354">
        <ele>145</ele>
        <time>2022-05-21T22:27:06Z</time>
      </trkpt>
      <trkpt lat="48.39531" lon="0.40362">
        <ele>145</ele>
        <time>2022-05-21T22:27:10Z</time>
      </trkpt>
      <trkpt lat="48.39474" lon="0.40394">
        <ele>146</ele>
        <time>2022-05-21T22:27:21Z</time>
      </trkpt>
      <trkpt lat="48.39464" lon="0.40397">
        <ele>146</ele>
        <time>2022-05-21T22:27:23Z</time>
      </trkpt>
      <trkpt lat="48.39479" lon="0.40387">
        <ele>146</ele>
        <time>2022-05-21T22:27:26Z</time>
      </trkpt>
      <trkpt lat="48.3949" lon="0.40385">
        <ele>145</ele>
        <time>2022-05-21T22:27:27Z</time>
      </trkpt>
      <trkpt lat="48.39486" lon="0.40401">
        <ele>144</ele>
        <time>2022-05-21T22:27:30Z</time>
      </trkpt>
      <trkpt lat="48.39487" lon="0.40416">
        <ele>142</ele>
        <time>2022-05-21T22:27:31Z</time>
      </trkpt>
      <trkpt lat="48.3953" lon="0.40527">
        <ele>137</ele>
        <time>2022-05-21T22:27:46Z</time>
      </trkpt>
      <trkpt lat="48.39536" lon="0.40575">
        <ele>137</ele>
        <time>2022-05-21T22:27:52Z</time>
      </trkpt>
      <trkpt lat="48.39551" lon="0.40651">
        <ele>139</ele>
        <time>2022-05-21T22:28:02Z</time>
      </trkpt>
      <trkpt lat="48.39559" lon="0.40709">
        <ele>140</ele>
        <time>2022-05-21T22:28:09Z</time>
      </trkpt>
      <trkpt lat="48.39562" lon="0.40752">
        <ele>141</ele>
        <time>2022-05-21T22:28:14Z</time>
      </trkpt>
      <trkpt lat="48.39562" lon="0.40797">
        <ele>143</ele>
        <time>2022-05-21T22:28:19Z</time>
      </trkpt>
      <trkpt lat="48.39574" lon="0.40898">
        <ele>147</ele>
        <time>2022-05-21T22:28:31Z</time>
      </trkpt>
      <trkpt lat="48.39581" lon="0.40986">
        <ele>150</ele>
        <time>2022-05-21T22:28:42Z</time>
      </trkpt>
      <trkpt lat="48.39576" lon="0.41108">
        <ele>158</ele>
        <time>2022-05-21T22:28:56Z</time>
      </trkpt>
      <trkpt lat="48.39582" lon="0.41207">
        <ele>163</ele>
        <time>2022-05-21T22:29:08Z</time>
      </trkpt>
      <trkpt lat="48.39573" lon="0.41204">
        <ele>162</ele>
        <time>2022-05-21T22:29:09Z</time>
      </trkpt>
      <trkpt lat="48.39579" lon="0.4123">
        <ele>163</ele>
        <time>2022-05-21T22:29:13Z</time>
      </trkpt>
      <trkpt lat="48.39584" lon="0.41289">
        <ele>165</ele>
        <time>2022-05-21T22:29:20Z</time>
      </trkpt>
      <trkpt lat="48.39572" lon="0.41363">
        <ele>164</ele>
        <time>2022-05-21T22:29:29Z</time>
      </trkpt>
      <trkpt lat="48.39563" lon="0.41393">
        <ele>164</ele>
        <time>2022-05-21T22:29:33Z</time>
      </trkpt>
      <trkpt lat="48.39504" lon="0.41502">
        <ele>162</ele>
        <time>2022-05-21T22:29:49Z</time>
      </trkpt>
      <trkpt lat="48.39485" lon="0.4152">
        <ele>161</ele>
        <time>2022-05-21T22:29:53Z</time>
      </trkpt>
      <trkpt lat="48.39453" lon="0.41536">
        <ele>160</ele>
        <time>2022-05-21T22:29:59Z</time>
      </trkpt>
      <trkpt lat="48.39441" lon="0.41536">
        <ele>160</ele>
        <time>2022-05-21T22:30:01Z</time>
      </trkpt>
      <trkpt lat="48.39418" lon="0.4153">
        <ele>160</ele>
        <time>2022-05-21T22:30:06Z</time>
      </trkpt>
      <trkpt lat="48.39405" lon="0.4153">
        <ele>159</ele>
        <time>2022-05-21T22:30:08Z</time>
      </trkpt>
      <trkpt lat="48.39393" lon="0.41534">
        <ele>159</ele>
        <time>2022-05-21T22:30:10Z</time>
      </trkpt>
      <trkpt lat="48.3938" lon="0.41544">
        <ele>158</ele>
        <time>2022-05-21T22:30:13Z</time>
      </trkpt>
      <trkpt lat="48.39357" lon="0.41573">
        <ele>158</ele>
        <time>2022-05-21T22:30:18Z</time>
      </trkpt>
      <trkpt lat="48.39344" lon="0.41605">
        <ele>157</ele>
        <time>2022-05-21T22:30:22Z</time>
      </trkpt>
      <trkpt lat="48.3931" lon="0.41646">
        <ele>158</ele>
        <time>2022-05-21T22:30:30Z</time>
      </trkpt>
      <trkpt lat="48.39282" lon="0.41688">
        <ele>161</ele>
        <time>2022-05-21T22:30:37Z</time>
      </trkpt>
      <trkpt lat="48.39266" lon="0.41707">
        <ele>162</ele>
        <time>2022-05-21T22:30:41Z</time>
      </trkpt>
      <trkpt lat="48.39246" lon="0.41742">
        <ele>165</ele>
        <time>2022-05-21T22:30:46Z</time>
      </trkpt>
      <trkpt lat="48.39226" lon="0.41822">
        <ele>168</ele>
        <time>2022-05-21T22:30:56Z</time>
      </trkpt>
      <trkpt lat="48.39219" lon="0.41839">
        <ele>168</ele>
        <time>2022-05-21T22:30:59Z</time>
      </trkpt>
      <trkpt lat="48.39214" lon="0.41962">
        <ele>170</ele>
        <time>2022-05-21T22:31:13Z</time>
      </trkpt>
      <trkpt lat="48.39205" lon="0.4197">
        <ele>170</ele>
        <time>2022-05-21T22:31:15Z</time>
      </trkpt>
      <trkpt lat="48.39173" lon="0.42056">
        <ele>168</ele>
        <time>2022-05-21T22:31:27Z</time>
      </trkpt>
      <trkpt lat="48.39163" lon="0.42087">
        <ele>167</ele>
        <time>2022-05-21T22:31:31Z</time>
      </trkpt>
      <trkpt lat="48.39154" lon="0.42135">
        <ele>167</ele>
        <time>2022-05-21T22:31:37Z</time>
      </trkpt>
      <trkpt lat="48.39142" lon="0.42168">
        <ele>167</ele>
        <time>2022-05-21T22:31:41Z</time>
      </trkpt>
      <trkpt lat="48.39132" lon="0.42192">
        <ele>167</ele>
        <time>2022-05-21T22:31:45Z</time>
      </trkpt>
      <trkpt lat="48.39098" lon="0.42252">
        <ele>168</ele>
        <time>2022-05-21T22:31:54Z</time>
      </trkpt>
      <trkpt lat="48.39082" lon="0.4229">
        <ele>167</ele>
        <time>2022-05-21T22:31:59Z</time>
      </trkpt>
      <trkpt lat="48.3905" lon="0.42406">
        <ele>166</ele>
        <time>2022-05-21T22:32:14Z</time>
      </trkpt>
      <trkpt lat="48.39028" lon="0.42548">
        <ele>164</ele>
        <time>2022-05-21T22:32:31Z</time>
      </trkpt>
      <trkpt lat="48.39018" lon="0.42639">
        <ele>163</ele>
        <time>2022-05-21T22:32:42Z</time>
      </trkpt>
      <trkpt lat="48.39012" lon="0.42667">
        <ele>163</ele>
        <time>2022-05-21T22:32:46Z</time>
      </trkpt>
      <trkpt lat="48.39002" lon="0.42696">
        <ele>162</ele>
        <time>2022-05-21T22:32:49Z</time>
      </trkpt>
      <trkpt lat="48.38996" lon="0.42727">
        <ele>162</ele>
        <time>2022-05-21T22:32:53Z</time>
      </trkpt>
      <trkpt lat="48.38991" lon="0.42775">
        <ele>162</ele>
        <time>2022-05-21T22:32:59Z</time>
      </trkpt>
      <trkpt lat="48.38995" lon="0.42826">
        <ele>161</ele>
        <time>2022-05-21T22:33:05Z</time>
      </trkpt>
      <trkpt lat="48.39001" lon="0.42838">
        <ele>161</ele>
        <time>2022-05-21T22:33:07Z</time>
      </trkpt>
      <trkpt lat="48.3901" lon="0.42847">
        <ele>161</ele>
        <time>2022-05-21T22:33:09Z</time>
      </trkpt>
      <trkpt lat="48.39017" lon="0.42877">
        <ele>160</ele>
        <time>2022-05-21T22:33:13Z</time>
      </trkpt>
      <trkpt lat="48.39032" lon="0.42902">
        <ele>159</ele>
        <time>2022-05-21T22:33:17Z</time>
      </trkpt>
      <trkpt lat="48.39058" lon="0.42996">
        <ele>152</ele>
        <time>2022-05-21T22:33:29Z</time>
      </trkpt>
      <trkpt lat="48.39064" lon="0.43032">
        <ele>149</ele>
        <time>2022-05-21T22:33:33Z</time>
      </trkpt>
      <trkpt lat="48.39085" lon="0.43109">
        <ele>145</ele>
        <time>2022-05-21T22:33:43Z</time>
      </trkpt>
      <trkpt lat="48.39116" lon="0.4322">
        <ele>144</ele>
        <time>2022-05-21T22:33:57Z</time>
      </trkpt>
      <trkpt lat="48.3913" lon="0.43255">
        <ele>145</ele>
        <time>2022-05-21T22:34:02Z</time>
      </trkpt>
      <trkpt lat="48.39133" lon="0.4327">
        <ele>145</ele>
        <time>2022-05-21T22:34:04Z</time>
      </trkpt>
      <trkpt lat="48.39113" lon="0.43322">
        <ele>144</ele>
        <time>2022-05-21T22:34:11Z</time>
      </trkpt>
      <trkpt lat="48.3911" lon="0.43337">
        <ele>144</ele>
        <time>2022-05-21T22:34:13Z</time>
      </trkpt>
      <trkpt lat="48.39114" lon="0.43368">
        <ele>143</ele>
        <time>2022-05-21T22:34:16Z</time>
      </trkpt>
      <trkpt lat="48.39122" lon="0.43396">
        <ele>143</ele>
        <time>2022-05-21T22:34:20Z</time>
      </trkpt>
      <trkpt lat="48.39139" lon="0.43434">
        <ele>144</ele>
        <time>2022-05-21T22:34:25Z</time>
      </trkpt>
      <trkpt lat="48.39156" lon="0.43484">
        <ele>146</ele>
        <time>2022-05-21T22:34:32Z</time>
      </trkpt>
      <trkpt lat="48.39162" lon="0.43495">
        <ele>147</ele>
        <time>2022-05-21T22:34:34Z</time>
      </trkpt>
      <trkpt lat="48.39169" lon="0.43523">
        <ele>149</ele>
        <time>2022-05-21T22:34:37Z</time>
      </trkpt>
      <trkpt lat="48.39204" lon="0.43625">
        <ele>156</ele>
        <time>2022-05-21T22:34:51Z</time>
      </trkpt>
      <trkpt lat="48.39219" lon="0.4366">
        <ele>157</ele>
        <time>2022-05-21T22:34:56Z</time>
      </trkpt>
      <trkpt lat="48.39241" lon="0.43733">
        <ele>160</ele>
        <time>2022-05-21T22:35:05Z</time>
      </trkpt>
      <trkpt lat="48.39243" lon="0.4376">
        <ele>161</ele>
        <time>2022-05-21T22:35:08Z</time>
      </trkpt>
      <trkpt lat="48.39238" lon="0.4379">
        <ele>163</ele>
        <time>2022-05-21T22:35:12Z</time>
      </trkpt>
      <trkpt lat="48.3923" lon="0.43817">
        <ele>166</ele>
        <time>2022-05-21T22:35:16Z</time>
      </trkpt>
      <trkpt lat="48.39215" lon="0.43859">
        <ele>169</ele>
        <time>2022-05-21T22:35:21Z</time>
      </trkpt>
      <trkpt lat="48.39209" lon="0.4387">
        <ele>170</ele>
        <time>2022-05-21T22:35:23Z</time>
      </trkpt>
      <trkpt lat="48.39136" lon="0.43916">
        <ele>179</ele>
        <time>2022-05-21T22:35:37Z</time>
      </trkpt>
      <trkpt lat="48.39128" lon="0.43924">
        <ele>180</ele>
        <time>2022-05-21T22:35:39Z</time>
      </trkpt>
      <trkpt lat="48.39114" lon="0.43946">
        <ele>183</ele>
        <time>2022-05-21T22:35:42Z</time>
      </trkpt>
      <trkpt lat="48.39086" lon="0.44025">
        <ele>188</ele>
        <time>2022-05-21T22:35:53Z</time>
      </trkpt>
      <trkpt lat="48.39083" lon="0.44055">
        <ele>188</ele>
        <time>2022-05-21T22:35:56Z</time>
      </trkpt>
      <trkpt lat="48.39069" lon="0.44135">
        <ele>188</ele>
        <time>2022-05-21T22:36:06Z</time>
      </trkpt>
      <trkpt lat="48.39054" lon="0.44184">
        <ele>187</ele>
        <time>2022-05-21T22:36:13Z</time>
      </trkpt>
      <trkpt lat="48.39042" lon="0.44211">
        <ele>187</ele>
        <time>2022-05-21T22:36:16Z</time>
      </trkpt>
      <trkpt lat="48.39013" lon="0.4425">
        <ele>189</ele>
        <time>2022-05-21T22:36:23Z</time>
      </trkpt>
      <trkpt lat="48.38993" lon="0.4425">
        <ele>190</ele>
        <time>2022-05-21T22:36:27Z</time>
      </trkpt>
      <trkpt lat="48.38975" lon="0.44244">
        <ele>189</ele>
        <time>2022-05-21T22:36:30Z</time>
      </trkpt>
      <trkpt lat="48.38954" lon="0.44246">
        <ele>187</ele>
        <time>2022-05-21T22:36:34Z</time>
      </trkpt>
      <trkpt lat="48.38945" lon="0.44241">
        <ele>187</ele>
        <time>2022-05-21T22:36:36Z</time>
      </trkpt>
      <trkpt lat="48.38939" lon="0.44183">
        <ele>189</ele>
        <time>2022-05-21T22:36:43Z</time>
      </trkpt>
      <trkpt lat="48.38938" lon="0.44227">
        <ele>187</ele>
        <time>2022-05-21T22:36:48Z</time>
      </trkpt>
      <trkpt lat="48.38925" lon="0.44247">
        <ele>186</ele>
        <time>2022-05-21T22:36:51Z</time>
      </trkpt>
      <trkpt lat="48.38924" lon="0.44242">
        <ele>186</ele>
        <time>2022-05-21T22:36:52Z</time>
      </trkpt>
      <trkpt lat="48.38933" lon="0.44238">
        <ele>187</ele>
        <time>2022-05-21T22:36:53Z</time>
      </trkpt>
      <trkpt lat="48.38943" lon="0.44239">
        <ele>187</ele>
        <time>2022-05-21T22:36:55Z</time>
      </trkpt>
      <trkpt lat="48.3895" lon="0.44269">
        <ele>187</ele>
        <time>2022-05-21T22:36:59Z</time>
      </trkpt>
      <trkpt lat="48.38968" lon="0.44302">
        <ele>188</ele>
        <time>2022-05-21T22:37:04Z</time>
      </trkpt>
      <trkpt lat="48.38991" lon="0.44334">
        <ele>189</ele>
        <time>2022-05-21T22:37:10Z</time>
      </trkpt>
      <trkpt lat="48.39015" lon="0.44358">
        <ele>191</ele>
        <time>2022-05-21T22:37:15Z</time>
      </trkpt>
      <trkpt lat="48.3903" lon="0.44377">
        <ele>191</ele>
        <time>2022-05-21T22:37:18Z</time>
      </trkpt>
      <trkpt lat="48.39041" lon="0.44402">
        <ele>192</ele>
        <time>2022-05-21T22:37:22Z</time>
      </trkpt>
      <trkpt lat="48.39104" lon="0.44609">
        <ele>197</ele>
        <time>2022-05-21T22:37:49Z</time>
      </trkpt>
      <trkpt lat="48.39127" lon="0.44727">
        <ele>198</ele>
        <time>2022-05-21T22:38:03Z</time>
      </trkpt>
      <trkpt lat="48.39151" lon="0.44796">
        <ele>198</ele>
        <time>2022-05-21T22:38:12Z</time>
      </trkpt>
      <trkpt lat="48.39158" lon="0.44808">
        <ele>198</ele>
        <time>2022-05-21T22:38:14Z</time>
      </trkpt>
      <trkpt lat="48.39174" lon="0.44849">
        <ele>197</ele>
        <time>2022-05-21T22:38:20Z</time>
      </trkpt>
      <trkpt lat="48.392" lon="0.4493">
        <ele>195</ele>
        <time>2022-05-21T22:38:30Z</time>
      </trkpt>
      <trkpt lat="48.39182" lon="0.45003">
        <ele>200</ele>
        <time>2022-05-21T22:38:40Z</time>
      </trkpt>
      <trkpt lat="48.39182" lon="0.45023">
        <ele>201</ele>
        <time>2022-05-21T22:38:42Z</time>
      </trkpt>
      <trkpt lat="48.39179" lon="0.45037">
        <ele>202</ele>
        <time>2022-05-21T22:38:44Z</time>
      </trkpt>
      <trkpt lat="48.39184" lon="0.45078">
        <ele>203</ele>
        <time>2022-05-21T22:38:49Z</time>
      </trkpt>
      <trkpt lat="48.392" lon="0.45147">
        <ele>209</ele>
        <time>2022-05-21T22:38:57Z</time>
      </trkpt>
      <trkpt lat="48.39204" lon="0.45175">
        <ele>212</ele>
        <time>2022-05-21T22:39:01Z</time>
      </trkpt>
      <trkpt lat="48.39206" lon="0.45234">
        <ele>219</ele>
        <time>2022-05-21T22:39:08Z</time>
      </trkpt>
      <trkpt lat="48.39204" lon="0.45249">
        <ele>220</ele>
        <time>2022-05-21T22:39:09Z</time>
      </trkpt>
      <trkpt lat="48.39203" lon="0.45368">
        <ele>226</ele>
        <time>2022-05-21T22:39:24Z</time>
      </trkpt>
      <trkpt lat="48.39196" lon="0.45457">
        <ele>229</ele>
        <time>2022-05-21T22:39:34Z</time>
      </trkpt>
      <trkpt lat="48.39196" lon="0.45521">
        <ele>231</ele>
        <time>2022-05-21T22:39:42Z</time>
      </trkpt>
      <trkpt lat="48.39191" lon="0.45587">
        <ele>232</ele>
        <time>2022-05-21T22:39:50Z</time>
      </trkpt>
      <trkpt lat="48.39192" lon="0.45629">
        <ele>232</ele>
        <time>2022-05-21T22:39:55Z</time>
      </trkpt>
      <trkpt lat="48.39189" lon="0.45657">
        <ele>232</ele>
        <time>2022-05-21T22:39:58Z</time>
      </trkpt>
      <trkpt lat="48.3919" lon="0.45757">
        <ele>228</ele>
        <time>2022-05-21T22:40:10Z</time>
      </trkpt>
      <trkpt lat="48.39184" lon="0.45829">
        <ele>227</ele>
        <time>2022-05-21T22:40:18Z</time>
      </trkpt>
      <trkpt lat="48.39185" lon="0.45867">
        <ele>227</ele>
        <time>2022-05-21T22:40:23Z</time>
      </trkpt>
      <trkpt lat="48.39174" lon="0.46135">
        <ele>228</ele>
        <time>2022-05-21T22:40:54Z</time>
      </trkpt>
      <trkpt lat="48.39173" lon="0.46259">
        <ele>232</ele>
        <time>2022-05-21T22:41:09Z</time>
      </trkpt>
      <trkpt lat="48.39175" lon="0.46303">
        <ele>233</ele>
        <time>2022-05-21T22:41:14Z</time>
      </trkpt>
      <trkpt lat="48.39168" lon="0.46378">
        <ele>233</ele>
        <time>2022-05-21T22:41:23Z</time>
      </trkpt>
      <trkpt lat="48.39167" lon="0.46406">
        <ele>234</ele>
        <time>2022-05-21T22:41:27Z</time>
      </trkpt>
      <trkpt lat="48.39172" lon="0.46434">
        <ele>235</ele>
        <time>2022-05-21T22:41:30Z</time>
      </trkpt>
      <trkpt lat="48.39169" lon="0.46447">
        <ele>235</ele>
        <time>2022-05-21T22:41:32Z</time>
      </trkpt>
      <trkpt lat="48.39175" lon="0.46438">
        <ele>235</ele>
        <time>2022-05-21T22:41:33Z</time>
      </trkpt>
      <trkpt lat="48.39168" lon="0.4643">
        <ele>234</ele>
        <time>2022-05-21T22:41:35Z</time>
      </trkpt>
      <trkpt lat="48.39158" lon="0.46437">
        <ele>233</ele>
        <time>2022-05-21T22:41:37Z</time>
      </trkpt>
      <trkpt lat="48.39148" lon="0.46438">
        <ele>231</ele>
        <time>2022-05-21T22:41:38Z</time>
      </trkpt>
      <trkpt lat="48.39087" lon="0.46435">
        <ele>221</ele>
        <time>2022-05-21T22:41:49Z</time>
      </trkpt>
      <trkpt lat="48.39051" lon="0.4644">
        <ele>216</ele>
        <time>2022-05-21T22:41:56Z</time>
      </trkpt>
      <trkpt lat="48.39" lon="0.4644">
        <ele>209</ele>
        <time>2022-05-21T22:42:05Z</time>
      </trkpt>
      <trkpt lat="48.38917" lon="0.46445">
        <ele>202</ele>
        <time>2022-05-21T22:42:20Z</time>
      </trkpt>
      <trkpt lat="48.38898" lon="0.46444">
        <ele>201</ele>
        <time>2022-05-21T22:42:23Z</time>
      </trkpt>
      <trkpt lat="48.38882" lon="0.4644">
        <ele>200</ele>
        <time>2022-05-21T22:42:26Z</time>
      </trkpt>
      <trkpt lat="48.38779" lon="0.46448">
        <ele>198</ele>
        <time>2022-05-21T22:42:44Z</time>
      </trkpt>
      <trkpt lat="48.38686" lon="0.46445">
        <ele>190</ele>
        <time>2022-05-21T22:43:01Z</time>
      </trkpt>
      <trkpt lat="48.38624" lon="0.46449">
        <ele>187</ele>
        <time>2022-05-21T22:43:12Z</time>
      </trkpt>
      <trkpt lat="48.38612" lon="0.46446">
        <ele>187</ele>
        <time>2022-05-21T22:43:14Z</time>
      </trkpt>
      <trkpt lat="48.38602" lon="0.46447">
        <ele>187</ele>
        <time>2022-05-21T22:43:16Z</time>
      </trkpt>
      <trkpt lat="48.38595" lon="0.46457">
        <ele>187</ele>
        <time>2022-05-21T22:43:17Z</time>
      </trkpt>
      <trkpt lat="48.38596" lon="0.46473">
        <ele>187</ele>
        <time>2022-05-21T22:43:19Z</time>
      </trkpt>
      <trkpt lat="48.38583" lon="0.46485">
        <ele>187</ele>
        <time>2022-05-21T22:43:22Z</time>
      </trkpt>
      <trkpt lat="48.38584" lon="0.46468">
        <ele>187</ele>
        <time>2022-05-21T22:43:24Z</time>
      </trkpt>
      <trkpt lat="48.38591" lon="0.46458">
        <ele>187</ele>
        <time>2022-05-21T22:43:26Z</time>
      </trkpt>
      <trkpt lat="48.38599" lon="0.46455">
        <ele>187</ele>
        <time>2022-05-21T22:43:27Z</time>
      </trkpt>
      <trkpt lat="48.38648" lon="0.46446">
        <ele>188</ele>
        <time>2022-05-21T22:43:36Z</time>
      </trkpt>
      <trkpt lat="48.38667" lon="0.46449">
        <ele>188</ele>
        <time>2022-05-21T22:43:39Z</time>
      </trkpt>
      <trkpt lat="48.38733" lon="0.46449">
        <ele>196</ele>
        <time>2022-05-21T22:43:51Z</time>
      </trkpt>
      <trkpt lat="48.38751" lon="0.46451">
        <ele>198</ele>
        <time>2022-05-21T22:43:54Z</time>
      </trkpt>
      <trkpt lat="48.3878" lon="0.46446">
        <ele>198</ele>
        <time>2022-05-21T22:44:00Z</time>
      </trkpt>
      <trkpt lat="48.38831" lon="0.46447">
        <ele>200</ele>
        <time>2022-05-21T22:44:09Z</time>
      </trkpt>
      <trkpt lat="48.3884" lon="0.46443">
        <ele>199</ele>
        <time>2022-05-21T22:44:10Z</time>
      </trkpt>
      <trkpt lat="48.38869" lon="0.46445">
        <ele>201</ele>
        <time>2022-05-21T22:44:16Z</time>
      </trkpt>
      <trkpt lat="48.38879" lon="0.46448">
        <ele>201</ele>
        <time>2022-05-21T22:44:17Z</time>
      </trkpt>
      <trkpt lat="48.38919" lon="0.46444">
        <ele>202</ele>
        <time>2022-05-21T22:44:24Z</time>
      </trkpt>
      <trkpt lat="48.3899" lon="0.46445">
        <ele>209</ele>
        <time>2022-05-21T22:44:37Z</time>
      </trkpt>
      <trkpt lat="48.3903" lon="0.46443">
        <ele>214</ele>
        <time>2022-05-21T22:44:44Z</time>
      </trkpt>
      <trkpt lat="48.3906" lon="0.46438">
        <ele>218</ele>
        <time>2022-05-21T22:44:50Z</time>
      </trkpt>
      <trkpt lat="48.3907" lon="0.4644">
        <ele>219</ele>
        <time>2022-05-21T22:44:51Z</time>
      </trkpt>
      <trkpt lat="48.3908" lon="0.46438">
        <ele>220</ele>
        <time>2022-05-21T22:44:53Z</time>
      </trkpt>
      <trkpt lat="48.39098" lon="0.46442">
        <ele>224</ele>
        <time>2022-05-21T22:44:56Z</time>
      </trkpt>
      <trkpt lat="48.39117" lon="0.46441">
        <ele>227</ele>
        <time>2022-05-21T22:45:00Z</time>
      </trkpt>
      <trkpt lat="48.39126" lon="0.46437">
        <ele>228</ele>
        <time>2022-05-21T22:45:01Z</time>
      </trkpt>
      <trkpt lat="48.39137" lon="0.46437">
        <ele>230</ele>
        <time>2022-05-21T22:45:03Z</time>
      </trkpt>
      <trkpt lat="48.39146" lon="0.4644">
        <ele>231</ele>
        <time>2022-05-21T22:45:05Z</time>
      </trkpt>
      <trkpt lat="48.39155" lon="0.4645">
        <ele>233</ele>
        <time>2022-05-21T22:45:07Z</time>
      </trkpt>
      <trkpt lat="48.39157" lon="0.46463">
        <ele>234</ele>
        <time>2022-05-21T22:45:09Z</time>
      </trkpt>
      <trkpt lat="48.39153" lon="0.46475">
        <ele>234</ele>
        <time>2022-05-21T22:45:10Z</time>
      </trkpt>
      <trkpt lat="48.39151" lon="0.46498">
        <ele>234</ele>
        <time>2022-05-21T22:45:13Z</time>
      </trkpt>
      <trkpt lat="48.39153" lon="0.46514">
        <ele>235</ele>
        <time>2022-05-21T22:45:15Z</time>
      </trkpt>
      <trkpt lat="48.3915" lon="0.46549">
        <ele>235</ele>
        <time>2022-05-21T22:45:19Z</time>
      </trkpt>
      <trkpt lat="48.39152" lon="0.46595">
        <ele>236</ele>
        <time>2022-05-21T22:45:25Z</time>
      </trkpt>
      <trkpt lat="48.39151" lon="0.46723">
        <ele>237</ele>
        <time>2022-05-21T22:45:40Z</time>
      </trkpt>
      <trkpt lat="48.39144" lon="0.46802">
        <ele>236</ele>
        <time>2022-05-21T22:45:49Z</time>
      </trkpt>
      <trkpt lat="48.39141" lon="0.46978">
        <ele>234</ele>
        <time>2022-05-21T22:46:10Z</time>
      </trkpt>
      <trkpt lat="48.39134" lon="0.47077">
        <ele>235</ele>
        <time>2022-05-21T22:46:22Z</time>
      </trkpt>
      <trkpt lat="48.39135" lon="0.47126">
        <ele>235</ele>
        <time>2022-05-21T22:46:27Z</time>
      </trkpt>
      <trkpt lat="48.39131" lon="0.4717">
        <ele>236</ele>
        <time>2022-05-21T22:46:33Z</time>
      </trkpt>
      <trkpt lat="48.39132" lon="0.47187">
        <ele>236</ele>
        <time>2022-05-21T22:46:35Z</time>
      </trkpt>
      <trkpt lat="48.39127" lon="0.47235">
        <ele>237</ele>
        <time>2022-05-21T22:46:40Z</time>
      </trkpt>
      <trkpt lat="48.39131" lon="0.47349">
        <ele>238</ele>
        <time>2022-05-21T22:46:54Z</time>
      </trkpt>
      <trkpt lat="48.39124" lon="0.47422">
        <ele>239</ele>
        <time>2022-05-21T22:47:03Z</time>
      </trkpt>
      <trkpt lat="48.39125" lon="0.4747">
        <ele>241</ele>
        <time>2022-05-21T22:47:08Z</time>
      </trkpt>
      <trkpt lat="48.39117" lon="0.47689">
        <ele>242</ele>
        <time>2022-05-21T22:47:34Z</time>
      </trkpt>
      <trkpt lat="48.39119" lon="0.47721">
        <ele>242</ele>
        <time>2022-05-21T22:47:38Z</time>
      </trkpt>
      <trkpt lat="48.39113" lon="0.47828">
        <ele>238</ele>
        <time>2022-05-21T22:47:51Z</time>
      </trkpt>
      <trkpt lat="48.39115" lon="0.47842">
        <ele>238</ele>
        <time>2022-05-21T22:47:52Z</time>
      </trkpt>
      <trkpt lat="48.39114" lon="0.47894">
        <ele>238</ele>
        <time>2022-05-21T22:47:59Z</time>
      </trkpt>
      <trkpt lat="48.39105" lon="0.47958">
        <ele>239</ele>
        <time>2022-05-21T22:48:06Z</time>
      </trkpt>
      <trkpt lat="48.391" lon="0.48076">
        <ele>241</ele>
        <time>2022-05-21T22:48:20Z</time>
      </trkpt>
      <trkpt lat="48.39101" lon="0.4809">
        <ele>241</ele>
        <time>2022-05-21T22:48:22Z</time>
      </trkpt>
      <trkpt lat="48.3912" lon="0.48126">
        <ele>242</ele>
        <time>2022-05-21T22:48:27Z</time>
      </trkpt>
      <trkpt lat="48.39113" lon="0.48118">
        <ele>242</ele>
        <time>2022-05-21T22:48:29Z</time>
      </trkpt>
      <trkpt lat="48.39098" lon="0.48117">
        <ele>241</ele>
        <time>2022-05-21T22:48:32Z</time>
      </trkpt>
      <trkpt lat="48.39103" lon="0.48176">
        <ele>241</ele>
        <time>2022-05-21T22:48:39Z</time>
      </trkpt>
      <trkpt lat="48.39103" lon="0.48207">
        <ele>241</ele>
        <time>2022-05-21T22:48:42Z</time>
      </trkpt>
      <trkpt lat="48.39098" lon="0.48273">
        <ele>239</ele>
        <time>2022-05-21T22:48:50Z</time>
      </trkpt>
      <trkpt lat="48.39099" lon="0.48336">
        <ele>237</ele>
        <time>2022-05-21T22:48:58Z</time>
      </trkpt>
      <trkpt lat="48.39095" lon="0.48369">
        <ele>237</ele>
        <time>2022-05-21T22:49:02Z</time>
      </trkpt>
      <trkpt lat="48.39096" lon="0.484">
        <ele>237</ele>
        <time>2022-05-21T22:49:05Z</time>
      </trkpt>
      <trkpt lat="48.39091" lon="0.4851">
        <ele>235</ele>
        <time>2022-05-21T22:49:18Z</time>
      </trkpt>
      <trkpt lat="48.39092" lon="0.48543">
        <ele>235</ele>
        <time>2022-05-21T22:49:22Z</time>
      </trkpt>
      <trkpt lat="48.39084" lon="0.48681">
        <ele>236</ele>
        <time>2022-05-21T22:49:38Z</time>
      </trkpt>
      <trkpt lat="48.39084" lon="0.48745">
        <ele>236</ele>
        <time>2022-05-21T22:49:46Z</time>
      </trkpt>
      <trkpt lat="48.3908" lon="0.4878">
        <ele>235</ele>
        <time>2022-05-21T22:49:50Z</time>
      </trkpt>
      <trkpt lat="48.39077" lon="0.48886">
        <ele>233</ele>
        <time>2022-05-21T22:50:03Z</time>
      </trkpt>
      <trkpt lat="48.39071" lon="0.48954">
        <ele>231</ele>
        <time>2022-05-21T22:50:11Z</time>
      </trkpt>
      <trkpt lat="48.39069" lon="0.49041">
        <ele>227</ele>
        <time>2022-05-21T22:50:21Z</time>
      </trkpt>
      <trkpt lat="48.39065" lon="0.49016">
        <ele>228</ele>
        <time>2022-05-21T22:50:24Z</time>
      </trkpt>
      <trkpt lat="48.39061" lon="0.49052">
        <ele>226</ele>
        <time>2022-05-21T22:50:29Z</time>
      </trkpt>
      <trkpt lat="48.39057" lon="0.49064">
        <ele>225</ele>
        <time>2022-05-21T22:50:30Z</time>
      </trkpt>
      <trkpt lat="48.39057" lon="0.49108">
        <ele>224</ele>
        <time>2022-05-21T22:50:35Z</time>
      </trkpt>
      <trkpt lat="48.39052" lon="0.49158">
        <ele>222</ele>
        <time>2022-05-21T22:50:41Z</time>
      </trkpt>
      <trkpt lat="48.39058" lon="0.49216">
        <ele>222</ele>
        <time>2022-05-21T22:50:48Z</time>
      </trkpt>
      <trkpt lat="48.39061" lon="0.49326">
        <ele>221</ele>
        <time>2022-05-21T22:51:01Z</time>
      </trkpt>
      <trkpt lat="48.39054" lon="0.49431">
        <ele>227</ele>
        <time>2022-05-21T22:51:14Z</time>
      </trkpt>
      <trkpt lat="48.39054" lon="0.49489">
        <ele>227</ele>
        <time>2022-05-21T22:51:21Z</time>
      </trkpt>
      <trkpt lat="48.39051" lon="0.4952">
        <ele>228</ele>
        <time>2022-05-21T22:51:24Z</time>
      </trkpt>
      <trkpt lat="48.39053" lon="0.49535">
        <ele>228</ele>
        <time>2022-05-21T22:51:26Z</time>
      </trkpt>
      <trkpt lat="48.39046" lon="0.49647">
        <ele>235</ele>
        <time>2022-05-21T22:51:39Z</time>
      </trkpt>
      <trkpt lat="48.39048" lon="0.49706">
        <ele>240</ele>
        <time>2022-05-21T22:51:46Z</time>
      </trkpt>
      <trkpt lat="48.39043" lon="0.49801">
        <ele>243</ele>
        <time>2022-05-21T22:51:58Z</time>
      </trkpt>
      <trkpt lat="48.39042" lon="0.4987">
        <ele>241</ele>
        <time>2022-05-21T22:52:06Z</time>
      </trkpt>
      <trkpt lat="48.39045" lon="0.49888">
        <ele>241</ele>
        <time>2022-05-21T22:52:08Z</time>
      </trkpt>
      <trkpt lat="48.39047" lon="0.4992">
        <ele>240</ele>
        <time>2022-05-21T22:52:12Z</time>
      </trkpt>
      <trkpt lat="48.39046" lon="0.49957">
        <ele>240</ele>
        <time>2022-05-21T22:52:16Z</time>
      </trkpt>
      <trkpt lat="48.3905" lon="0.49993">
        <ele>240</ele>
        <time>2022-05-21T22:52:20Z</time>
      </trkpt>
      <trkpt lat="48.39046" lon="0.50076">
        <ele>239</ele>
        <time>2022-05-21T22:52:30Z</time>
      </trkpt>
      <trkpt lat="48.39048" lon="0.50095">
        <ele>239</ele>
        <time>2022-05-21T22:52:33Z</time>
      </trkpt>
      <trkpt lat="48.39039" lon="0.5016">
        <ele>238</ele>
        <time>2022-05-21T22:52:40Z</time>
      </trkpt>
      <trkpt lat="48.39035" lon="0.50173">
        <ele>238</ele>
        <time>2022-05-21T22:52:42Z</time>
      </trkpt>
      <trkpt lat="48.39034" lon="0.50251">
        <ele>237</ele>
        <time>2022-05-21T22:52:51Z</time>
      </trkpt>
      <trkpt lat="48.39034" lon="0.50283">
        <ele>236</ele>
        <time>2022-05-21T22:52:55Z</time>
      </trkpt>
      <trkpt lat="48.39049" lon="0.50329">
        <ele>234</ele>
        <time>2022-05-21T22:53:01Z</time>
      </trkpt>
      <trkpt lat="48.39068" lon="0.50358">
        <ele>232</ele>
        <time>2022-05-21T22:53:06Z</time>
      </trkpt>
      <trkpt lat="48.3908" lon="0.5037">
        <ele>232</ele>
        <time>2022-05-21T22:53:08Z</time>
      </trkpt>
      <trkpt lat="48.39084" lon="0.50386">
        <ele>231</ele>
        <time>2022-05-21T22:53:10Z</time>
      </trkpt>
      <trkpt lat="48.39096" lon="0.50392">
        <ele>230</ele>
        <time>2022-05-21T22:53:13Z</time>
      </trkpt>
      <trkpt lat="48.39108" lon="0.50402">
        <ele>229</ele>
        <time>2022-05-21T22:53:15Z</time>
      </trkpt>
      <trkpt lat="48.39128" lon="0.50453">
        <ele>227</ele>
        <time>2022-05-21T22:53:22Z</time>
      </trkpt>
      <trkpt lat="48.39127" lon="0.50475">
        <ele>225</ele>
        <time>2022-05-21T22:53:25Z</time>
      </trkpt>
      <trkpt lat="48.39119" lon="0.50487">
        <ele>225</ele>
        <time>2022-05-21T22:53:27Z</time>
      </trkpt>
      <trkpt lat="48.39071" lon="0.50504">
        <ele>222</ele>
        <time>2022-05-21T22:53:36Z</time>
      </trkpt>
      <trkpt lat="48.39048" lon="0.50519">
        <ele>221</ele>
        <time>2022-05-21T22:53:40Z</time>
      </trkpt>
      <trkpt lat="48.39038" lon="0.50531">
        <ele>220</ele>
        <time>2022-05-21T22:53:42Z</time>
      </trkpt>
      <trkpt lat="48.3903" lon="0.50542">
        <ele>219</ele>
        <time>2022-05-21T22:53:44Z</time>
      </trkpt>
      <trkpt lat="48.39025" lon="0.50565">
        <ele>218</ele>
        <time>2022-05-21T22:53:47Z</time>
      </trkpt>
      <trkpt lat="48.3902" lon="0.50612">
        <ele>217</ele>
        <time>2022-05-21T22:53:53Z</time>
      </trkpt>
      <trkpt lat="48.39014" lon="0.50625">
        <ele>216</ele>
        <time>2022-05-21T22:53:55Z</time>
      </trkpt>
      <trkpt lat="48.39005" lon="0.50632">
        <ele>216</ele>
        <time>2022-05-21T22:53:56Z</time>
      </trkpt>
      <trkpt lat="48.39003" lon="0.50649">
        <ele>216</ele>
        <time>2022-05-21T22:53:58Z</time>
      </trkpt>
      <trkpt lat="48.38992" lon="0.50647">
        <ele>217</ele>
        <time>2022-05-21T22:54:00Z</time>
      </trkpt>
      <trkpt lat="48.38987" lon="0.50658">
        <ele>217</ele>
        <time>2022-05-21T22:54:02Z</time>
      </trkpt>
      <trkpt lat="48.38933" lon="0.50696">
        <ele>222</ele>
        <time>2022-05-21T22:54:13Z</time>
      </trkpt>
      <trkpt lat="48.38926" lon="0.50722">
        <ele>223</ele>
        <time>2022-05-21T22:54:16Z</time>
      </trkpt>
      <trkpt lat="48.3892" lon="0.50732">
        <ele>223</ele>
        <time>2022-05-21T22:54:17Z</time>
      </trkpt>
      <trkpt lat="48.38921" lon="0.50694">
        <ele>223</ele>
        <time>2022-05-21T22:54:22Z</time>
      </trkpt>
      <trkpt lat="48.38924" lon="0.50707">
        <ele>223</ele>
        <time>2022-05-21T22:54:24Z</time>
      </trkpt>
      <trkpt lat="48.38926" lon="0.50738">
        <ele>223</ele>
        <time>2022-05-21T22:54:27Z</time>
      </trkpt>
      <trkpt lat="48.38936" lon="0.50741">
        <ele>222</ele>
        <time>2022-05-21T22:54:29Z</time>
      </trkpt>
      <trkpt lat="48.38955" lon="0.50739">
        <ele>222</ele>
        <time>2022-05-21T22:54:32Z</time>
      </trkpt>
      <trkpt lat="48.38975" lon="0.50741">
        <ele>221</ele>
        <time>2022-05-21T22:54:36Z</time>
      </trkpt>
      <trkpt lat="48.39015" lon="0.50754">
        <ele>221</ele>
        <time>2022-05-21T22:54:43Z</time>
      </trkpt>
      <trkpt lat="48.39059" lon="0.50787">
        <ele>224</ele>
        <time>2022-05-21T22:54:52Z</time>
      </trkpt>
      <trkpt lat="48.39074" lon="0.50806">
        <ele>226</ele>
        <time>2022-05-21T22:54:56Z</time>
      </trkpt>
      <trkpt lat="48.39086" lon="0.50828">
        <ele>228</ele>
        <time>2022-05-21T22:54:59Z</time>
      </trkpt>
      <trkpt lat="48.39087" lon="0.50842">
        <ele>229</ele>
        <time>2022-05-21T22:55:01Z</time>
      </trkpt>
      <trkpt lat="48.39084" lon="0.50857">
        <ele>230</ele>
        <time>2022-05-21T22:55:02Z</time>
      </trkpt>
      <trkpt lat="48.39074" lon="0.50864">
        <ele>230</ele>
        <time>2022-05-21T22:55:04Z</time>
      </trkpt>
      <trkpt lat="48.39065" lon="0.50867">
        <ele>230</ele>
        <time>2022-05-21T22:55:06Z</time>
      </trkpt>
      <trkpt lat="48.39034" lon="0.50866">
        <ele>229</ele>
        <time>2022-05-21T22:55:12Z</time>
      </trkpt>
      <trkpt lat="48.39023" lon="0.50869">
        <ele>229</ele>
        <time>2022-05-21T22:55:14Z</time>
      </trkpt>
      <trkpt lat="48.39016" lon="0.50877">
        <ele>229</ele>
        <time>2022-05-21T22:55:15Z</time>
      </trkpt>
      <trkpt lat="48.39011" lon="0.5089">
        <ele>230</ele>
        <time>2022-05-21T22:55:17Z</time>
      </trkpt>
      <trkpt lat="48.39001" lon="0.50947">
        <ele>231</ele>
        <time>2022-05-21T22:55:24Z</time>
      </trkpt>
      <trkpt lat="48.38997" lon="0.50996">
        <ele>232</ele>
        <time>2022-05-21T22:55:30Z</time>
      </trkpt>
      <trkpt lat="48.38998" lon="0.51031">
        <ele>233</ele>
        <time>2022-05-21T22:55:34Z</time>
      </trkpt>
      <trkpt lat="48.38995" lon="0.51123">
        <ele>236</ele>
        <time>2022-05-21T22:55:45Z</time>
      </trkpt>
      <trkpt lat="48.38989" lon="0.51166">
        <ele>237</ele>
        <time>2022-05-21T22:55:50Z</time>
      </trkpt>
      <trkpt lat="48.3899" lon="0.5123">
        <ele>238</ele>
        <time>2022-05-21T22:55:57Z</time>
      </trkpt>
      <trkpt lat="48.38988" lon="0.5128">
        <ele>239</ele>
        <time>2022-05-21T22:56:03Z</time>
      </trkpt>
      <trkpt lat="48.38979" lon="0.51397">
        <ele>239</ele>
        <time>2022-05-21T22:56:17Z</time>
      </trkpt>
      <trkpt lat="48.38983" lon="0.51465">
        <ele>239</ele>
        <time>2022-05-21T22:56:25Z</time>
      </trkpt>
      <trkpt lat="48.38977" lon="0.51516">
        <ele>238</ele>
        <time>2022-05-21T22:56:32Z</time>
      </trkpt>
      <trkpt lat="48.38975" lon="0.51579">
        <ele>237</ele>
        <time>2022-05-21T22:56:39Z</time>
      </trkpt>
      <trkpt lat="48.38977" lon="0.51628">
        <ele>238</ele>
        <time>2022-05-21T22:56:45Z</time>
      </trkpt>
      <trkpt lat="48.38975" lon="0.51678">
        <ele>238</ele>
        <time>2022-05-21T22:56:51Z</time>
      </trkpt>
      <trkpt lat="48.38971" lon="0.51712">
        <ele>239</ele>
        <time>2022-05-21T22:56:55Z</time>
      </trkpt>
      <trkpt lat="48.38972" lon="0.5176">
        <ele>240</ele>
        <time>2022-05-21T22:57:00Z</time>
      </trkpt>
      <trkpt lat="48.38966" lon="0.51809">
        <ele>239</ele>
        <time>2022-05-21T22:57:06Z</time>
      </trkpt>
      <trkpt lat="48.38965" lon="0.51843">
        <ele>239</ele>
        <time>2022-05-21T22:57:10Z</time>
      </trkpt>
      <trkpt lat="48.3897" lon="0.51892">
        <ele>238</ele>
        <time>2022-05-21T22:57:16Z</time>
      </trkpt>
      <trkpt lat="48.38971" lon="0.51942">
        <ele>237</ele>
        <time>2022-05-21T22:57:22Z</time>
      </trkpt>
      <trkpt lat="48.38975" lon="0.51955">
        <ele>236</ele>
        <time>2022-05-21T22:57:24Z</time>
      </trkpt>
      <trkpt lat="48.38984" lon="0.52023">
        <ele>235</ele>
        <time>2022-05-21T22:57:32Z</time>
      </trkpt>
      <trkpt lat="48.38995" lon="0.52076">
        <ele>233</ele>
        <time>2022-05-21T22:57:39Z</time>
      </trkpt>
      <trkpt lat="48.38999" lon="0.52112">
        <ele>233</ele>
        <time>2022-05-21T22:57:43Z</time>
      </trkpt>
      <trkpt lat="48.39012" lon="0.52162">
        <ele>234</ele>
        <time>2022-05-21T22:57:49Z</time>
      </trkpt>
      <trkpt lat="48.39014" lon="0.5219">
        <ele>235</ele>
        <time>2022-05-21T22:57:53Z</time>
      </trkpt>
      <trkpt lat="48.39031" lon="0.52266">
        <ele>235</ele>
        <time>2022-05-21T22:58:02Z</time>
      </trkpt>
      <trkpt lat="48.39026" lon="0.52312">
        <ele>233</ele>
        <time>2022-05-21T22:58:08Z</time>
      </trkpt>
      <trkpt lat="48.39007" lon="0.52346">
        <ele>233</ele>
        <time>2022-05-21T22:58:13Z</time>
      </trkpt>
      <trkpt lat="48.39002" lon="0.52374">
        <ele>232</ele>
        <time>2022-05-21T22:58:16Z</time>
      </trkpt>
      <trkpt lat="48.39006" lon="0.52397">
        <ele>230</ele>
        <time>2022-05-21T22:58:19Z</time>
      </trkpt>
      <trkpt lat="48.39012" lon="0.5241">
        <ele>229</ele>
        <time>2022-05-21T22:58:21Z</time>
      </trkpt>
      <trkpt lat="48.3902" lon="0.5242">
        <ele>228</ele>
        <time>2022-05-21T22:58:23Z</time>
      </trkpt>
      <trkpt lat="48.39055" lon="0.52453">
        <ele>226</ele>
        <time>2022-05-21T22:58:30Z</time>
      </trkpt>
      <trkpt lat="48.39069" lon="0.52481">
        <ele>225</ele>
        <time>2022-05-21T22:58:34Z</time>
      </trkpt>
      <trkpt lat="48.39073" lon="0.52499">
        <ele>226</ele>
        <time>2022-05-21T22:58:36Z</time>
      </trkpt>
      <trkpt lat="48.39074" lon="0.52529">
        <ele>227</ele>
        <time>2022-05-21T22:58:40Z</time>
      </trkpt>
      <trkpt lat="48.39084" lon="0.52575">
        <ele>229</ele>
        <time>2022-05-21T22:58:46Z</time>
      </trkpt>
      <trkpt lat="48.39104" lon="0.52708">
        <ele>232</ele>
        <time>2022-05-21T22:59:02Z</time>
      </trkpt>
      <trkpt lat="48.39128" lon="0.52823">
        <ele>234</ele>
        <time>2022-05-21T22:59:16Z</time>
      </trkpt>
      <trkpt lat="48.39146" lon="0.52936">
        <ele>238</ele>
        <time>2022-05-21T22:59:30Z</time>
      </trkpt>
      <trkpt lat="48.39168" lon="0.53037">
        <ele>240</ele>
        <time>2022-05-21T22:59:42Z</time>
      </trkpt>
      <trkpt lat="48.39172" lon="0.53068">
        <ele>241</ele>
        <time>2022-05-21T22:59:46Z</time>
      </trkpt>
      <trkpt lat="48.39197" lon="0.53195">
        <ele>245</ele>
        <time>2022-05-21T23:00:02Z</time>
      </trkpt>
      <trkpt lat="48.39201" lon="0.53242">
        <ele>246</ele>
        <time>2022-05-21T23:00:07Z</time>
      </trkpt>
      <trkpt lat="48.39207" lon="0.53291">
        <ele>247</ele>
        <time>2022-05-21T23:00:13Z</time>
      </trkpt>
      <trkpt lat="48.39214" lon="0.53324">
        <ele>248</ele>
        <time>2022-05-21T23:00:17Z</time>
      </trkpt>
      <trkpt lat="48.39215" lon="0.53343">
        <ele>248</ele>
        <time>2022-05-21T23:00:20Z</time>
      </trkpt>
      <trkpt lat="48.3925" lon="0.53501">
        <ele>246</ele>
        <time>2022-05-21T23:00:39Z</time>
      </trkpt>
      <trkpt lat="48.39259" lon="0.53566">
        <ele>246</ele>
        <time>2022-05-21T23:00:47Z</time>
      </trkpt>
      <trkpt lat="48.39264" lon="0.53581">
        <ele>246</ele>
        <time>2022-05-21T23:00:49Z</time>
      </trkpt>
      <trkpt lat="48.39278" lon="0.53664">
        <ele>245</ele>
        <time>2022-05-21T23:00:59Z</time>
      </trkpt>
      <trkpt lat="48.39292" lon="0.53726">
        <ele>241</ele>
        <time>2022-05-21T23:01:07Z</time>
      </trkpt>
      <trkpt lat="48.39295" lon="0.53755">
        <ele>239</ele>
        <time>2022-05-21T23:01:10Z</time>
      </trkpt>
      <trkpt lat="48.39291" lon="0.5378">
        <ele>239</ele>
        <time>2022-05-21T23:01:13Z</time>
      </trkpt>
      <trkpt lat="48.39286" lon="0.53792">
        <ele>239</ele>
        <time>2022-05-21T23:01:15Z</time>
      </trkpt>
      <trkpt lat="48.39276" lon="0.53794">
        <ele>240</ele>
        <time>2022-05-21T23:01:17Z</time>
      </trkpt>
      <trkpt lat="48.3926" lon="0.53812">
        <ele>241</ele>
        <time>2022-05-21T23:01:20Z</time>
      </trkpt>
      <trkpt lat="48.39242" lon="0.53839">
        <ele>241</ele>
        <time>2022-05-21T23:01:25Z</time>
      </trkpt>
      <trkpt lat="48.39215" lon="0.5387">
        <ele>241</ele>
        <time>2022-05-21T23:01:31Z</time>
      </trkpt>
      <trkpt lat="48.39168" lon="0.53937">
        <ele>239</ele>
        <time>2022-05-21T23:01:43Z</time>
      </trkpt>
      <trkpt lat="48.39133" lon="0.53982">
        <ele>237</ele>
        <time>2022-05-21T23:01:51Z</time>
      </trkpt>
      <trkpt lat="48.39092" lon="0.54047">
        <ele>234</ele>
        <time>2022-05-21T23:02:01Z</time>
      </trkpt>
      <trkpt lat="48.39068" lon="0.54076">
        <ele>233</ele>
        <time>2022-05-21T23:02:07Z</time>
      </trkpt>
      <trkpt lat="48.38956" lon="0.54145">
        <ele>231</ele>
        <time>2022-05-21T23:02:28Z</time>
      </trkpt>
      <trkpt lat="48.38892" lon="0.54179">
        <ele>231</ele>
        <time>2022-05-21T23:02:40Z</time>
      </trkpt>
      <trkpt lat="48.38872" lon="0.54193">
        <ele>229</ele>
        <time>2022-05-21T23:02:44Z</time>
      </trkpt>
      <trkpt lat="48.38862" lon="0.54205">
        <ele>229</ele>
        <time>2022-05-21T23:02:47Z</time>
      </trkpt>
      <trkpt lat="48.38847" lon="0.54235">
        <ele>227</ele>
        <time>2022-05-21T23:02:51Z</time>
      </trkpt>
      <trkpt lat="48.38831" lon="0.5429">
        <ele>226</ele>
        <time>2022-05-21T23:02:58Z</time>
      </trkpt>
      <trkpt lat="48.38817" lon="0.54324">
        <ele>223</ele>
        <time>2022-05-21T23:03:03Z</time>
      </trkpt>
      <trkpt lat="48.38788" lon="0.54433">
        <ele>218</ele>
        <time>2022-05-21T23:03:17Z</time>
      </trkpt>
      <trkpt lat="48.38777" lon="0.54461">
        <ele>215</ele>
        <time>2022-05-21T23:03:21Z</time>
      </trkpt>
      <trkpt lat="48.38762" lon="0.5449">
        <ele>213</ele>
        <time>2022-05-21T23:03:25Z</time>
      </trkpt>
      <trkpt lat="48.38721" lon="0.5455">
        <ele>203</ele>
        <time>2022-05-21T23:03:35Z</time>
      </trkpt>
      <trkpt lat="48.38629" lon="0.54647">
        <ele>186</ele>
        <time>2022-05-21T23:03:55Z</time>
      </trkpt>
      <trkpt lat="48.38573" lon="0.5469">
        <ele>181</ele>
        <time>2022-05-21T23:04:06Z</time>
      </trkpt>
      <trkpt lat="48.38529" lon="0.54729">
        <ele>179</ele>
        <time>2022-05-21T23:04:15Z</time>
      </trkpt>
      <trkpt lat="48.38507" lon="0.54743">
        <ele>178</ele>
        <time>2022-05-21T23:04:20Z</time>
      </trkpt>
      <trkpt lat="48.38489" lon="0.5476">
        <ele>177</ele>
        <time>2022-05-21T23:04:23Z</time>
      </trkpt>
      <trkpt lat="48.38469" lon="0.5478">
        <ele>176</ele>
        <time>2022-05-21T23:04:28Z</time>
      </trkpt>
      <trkpt lat="48.38449" lon="0.54819">
        <ele>174</ele>
        <time>2022-05-21T23:04:33Z</time>
      </trkpt>
      <trkpt lat="48.38433" lon="0.54843">
        <ele>173</ele>
        <time>2022-05-21T23:04:37Z</time>
      </trkpt>
      <trkpt lat="48.384" lon="0.54868">
        <ele>171</ele>
        <time>2022-05-21T23:04:44Z</time>
      </trkpt>
      <trkpt lat="48.38321" lon="0.54945">
        <ele>164</ele>
        <time>2022-05-21T23:05:01Z</time>
      </trkpt>
      <trkpt lat="48.3829" lon="0.54979">
        <ele>160</ele>
        <time>2022-05-21T23:05:08Z</time>
      </trkpt>
      <trkpt lat="48.38272" lon="0.54995">
        <ele>158</ele>
        <time>2022-05-21T23:05:11Z</time>
      </trkpt>
      <trkpt lat="48.38254" lon="0.55006">
        <ele>157</ele>
        <time>2022-05-21T23:05:15Z</time>
      </trkpt>
      <trkpt lat="48.38218" lon="0.55015">
        <ele>156</ele>
        <time>2022-05-21T23:05:21Z</time>
      </trkpt>
      <trkpt lat="48.38204" lon="0.55025">
        <ele>156</ele>
        <time>2022-05-21T23:05:24Z</time>
      </trkpt>
      <trkpt lat="48.38183" lon="0.55054">
        <ele>155</ele>
        <time>2022-05-21T23:05:29Z</time>
      </trkpt>
      <trkpt lat="48.38144" lon="0.55116">
        <ele>157</ele>
        <time>2022-05-21T23:05:39Z</time>
      </trkpt>
      <trkpt lat="48.38132" lon="0.55139">
        <ele>159</ele>
        <time>2022-05-21T23:05:43Z</time>
      </trkpt>
      <trkpt lat="48.38126" lon="0.55168">
        <ele>161</ele>
        <time>2022-05-21T23:05:46Z</time>
      </trkpt>
      <trkpt lat="48.38129" lon="0.55197">
        <ele>162</ele>
        <time>2022-05-21T23:05:50Z</time>
      </trkpt>
      <trkpt lat="48.38134" lon="0.5521">
        <ele>162</ele>
        <time>2022-05-21T23:05:52Z</time>
      </trkpt>
      <trkpt lat="48.38139" lon="0.55236">
        <ele>163</ele>
        <time>2022-05-21T23:05:55Z</time>
      </trkpt>
      <trkpt lat="48.38136" lon="0.55252">
        <ele>164</ele>
        <time>2022-05-21T23:05:57Z</time>
      </trkpt>
      <trkpt lat="48.38128" lon="0.55259">
        <ele>165</ele>
        <time>2022-05-21T23:05:58Z</time>
      </trkpt>
      <trkpt lat="48.38119" lon="0.55261">
        <ele>166</ele>
        <time>2022-05-21T23:06:00Z</time>
      </trkpt>
      <trkpt lat="48.38087" lon="0.55225">
        <ele>167</ele>
        <time>2022-05-21T23:06:07Z</time>
      </trkpt>
      <trkpt lat="48.38078" lon="0.55224">
        <ele>168</ele>
        <time>2022-05-21T23:06:09Z</time>
      </trkpt>
      <trkpt lat="48.38037" lon="0.55268">
        <ele>173</ele>
        <time>2022-05-21T23:06:18Z</time>
      </trkpt>
      <trkpt lat="48.37994" lon="0.55349">
        <ele>176</ele>
        <time>2022-05-21T23:06:30Z</time>
      </trkpt>
      <trkpt lat="48.37942" lon="0.55438">
        <ele>181</ele>
        <time>2022-05-21T23:06:44Z</time>
      </trkpt>
      <trkpt lat="48.37924" lon="0.55474">
        <ele>183</ele>
        <time>2022-05-21T23:06:49Z</time>
      </trkpt>
      <trkpt lat="48.37851" lon="0.55516">
        <ele>190</ele>
        <time>2022-05-21T23:07:03Z</time>
      </trkpt>
      <trkpt lat="48.37806" lon="0.55546">
        <ele>194</ele>
        <time>2022-05-21T23:07:12Z</time>
      </trkpt>
      <trkpt lat="48.3776" lon="0.55573">
        <ele>199</ele>
        <time>2022-05-21T23:07:21Z</time>
      </trkpt>
      <trkpt lat="48.37698" lon="0.55615">
        <ele>200</ele>
        <time>2022-05-21T23:07:33Z</time>
      </trkpt>
      <trkpt lat="48.3769" lon="0.55618">
        <ele>200</ele>
        <time>2022-05-21T23:07:34Z</time>
      </trkpt>
      <trkpt lat="48.37679" lon="0.55618">
        <ele>200</ele>
        <time>2022-05-21T23:07:36Z</time>
      </trkpt>
      <trkpt lat="48.37674" lon="0.55606">
        <ele>200</ele>
        <time>2022-05-21T23:07:38Z</time>
      </trkpt>
      <trkpt lat="48.37664" lon="0.55606">
        <ele>199</ele>
        <time>2022-05-21T23:07:40Z</time>
      </trkpt>
      <trkpt lat="48.37654" lon="0.55617">
        <ele>199</ele>
        <time>2022-05-21T23:07:42Z</time>
      </trkpt>
      <trkpt lat="48.37653" lon="0.55635">
        <ele>200</ele>
        <time>2022-05-21T23:07:44Z</time>
      </trkpt>
      <trkpt lat="48.37669" lon="0.55659">
        <ele>201</ele>
        <time>2022-05-21T23:07:48Z</time>
      </trkpt>
      <trkpt lat="48.37667" lon="0.55675">
        <ele>201</ele>
        <time>2022-05-21T23:07:50Z</time>
      </trkpt>
      <trkpt lat="48.37669" lon="0.55708">
        <ele>202</ele>
        <time>2022-05-21T23:07:54Z</time>
      </trkpt>
      <trkpt lat="48.37666" lon="0.55737">
        <ele>204</ele>
        <time>2022-05-21T23:07:57Z</time>
      </trkpt>
      <trkpt lat="48.37668" lon="0.55752">
        <ele>204</ele>
        <time>2022-05-21T23:07:59Z</time>
      </trkpt>
      <trkpt lat="48.37665" lon="0.55767">
        <ele>204</ele>
        <time>2022-05-21T23:08:01Z</time>
      </trkpt>
      <trkpt lat="48.37667" lon="0.55835">
        <ele>206</ele>
        <time>2022-05-21T23:08:09Z</time>
      </trkpt>
      <trkpt lat="48.37663" lon="0.55863">
        <ele>208</ele>
        <time>2022-05-21T23:08:12Z</time>
      </trkpt>
      <trkpt lat="48.37669" lon="0.5594">
        <ele>212</ele>
        <time>2022-05-21T23:08:22Z</time>
      </trkpt>
      <trkpt lat="48.37668" lon="0.55969">
        <ele>213</ele>
        <time>2022-05-21T23:08:25Z</time>
      </trkpt>
      <trkpt lat="48.37671" lon="0.56">
        <ele>214</ele>
        <time>2022-05-21T23:08:29Z</time>
      </trkpt>
      <trkpt lat="48.37642" lon="0.56016">
        <ele>216</ele>
        <time>2022-05-21T23:08:34Z</time>
      </trkpt>
      <trkpt lat="48.37636" lon="0.56026">
        <ele>216</ele>
        <time>2022-05-21T23:08:36Z</time>
      </trkpt>
      <trkpt lat="48.37625" lon="0.56027">
        <ele>216</ele>
        <time>2022-05-21T23:08:38Z</time>
      </trkpt>
      <trkpt lat="48.37608" lon="0.56035">
        <ele>217</ele>
        <time>2022-05-21T23:08:41Z</time>
      </trkpt>
      <trkpt lat="48.37613" lon="0.56024">
        <ele>216</ele>
        <time>2022-05-21T23:08:42Z</time>
      </trkpt>
      <trkpt lat="48.37624" lon="0.56023">
        <ele>216</ele>
        <time>2022-05-21T23:08:44Z</time>
      </trkpt>
      <trkpt lat="48.37633" lon="0.56031">
        <ele>216</ele>
        <time>2022-05-21T23:08:46Z</time>
      </trkpt>
      <trkpt lat="48.37639" lon="0.56043">
        <ele>217</ele>
        <time>2022-05-21T23:08:48Z</time>
      </trkpt>
      <trkpt lat="48.37638" lon="0.56058">
        <ele>217</ele>
        <time>2022-05-21T23:08:50Z</time>
      </trkpt>
      <trkpt lat="48.37642" lon="0.56087">
        <ele>218</ele>
        <time>2022-05-21T23:08:53Z</time>
      </trkpt>
      <trkpt lat="48.37653" lon="0.56081">
        <ele>218</ele>
        <time>2022-05-21T23:08:55Z</time>
      </trkpt>
      <trkpt lat="48.37652" lon="0.56068">
        <ele>218</ele>
        <time>2022-05-21T23:08:57Z</time>
      </trkpt>
      <trkpt lat="48.37654" lon="0.56082">
        <ele>218</ele>
        <time>2022-05-21T23:08:59Z</time>
      </trkpt>
      <trkpt lat="48.37647" lon="0.56109">
        <ele>219</ele>
        <time>2022-05-21T23:09:02Z</time>
      </trkpt>
      <trkpt lat="48.3765" lon="0.56138">
        <ele>221</ele>
        <time>2022-05-21T23:09:06Z</time>
      </trkpt>
      <trkpt lat="48.37651" lon="0.56107">
        <ele>219</ele>
        <time>2022-05-21T23:09:09Z</time>
      </trkpt>
      <trkpt lat="48.37658" lon="0.56098">
        <ele>219</ele>
        <time>2022-05-21T23:09:11Z</time>
      </trkpt>
      <trkpt lat="48.37666" lon="0.56106">
        <ele>219</ele>
        <time>2022-05-21T23:09:13Z</time>
      </trkpt>
      <trkpt lat="48.37673" lon="0.56134">
        <ele>219</ele>
        <time>2022-05-21T23:09:16Z</time>
      </trkpt>
      <trkpt lat="48.37673" lon="0.5615">
        <ele>220</ele>
        <time>2022-05-21T23:09:18Z</time>
      </trkpt>
      <trkpt lat="48.37682" lon="0.56176">
        <ele>219</ele>
        <time>2022-05-21T23:09:21Z</time>
      </trkpt>
      <trkpt lat="48.37688" lon="0.56204">
        <ele>218</ele>
        <time>2022-05-21T23:09:25Z</time>
      </trkpt>
      <trkpt lat="48.37692" lon="0.56243">
        <ele>217</ele>
        <time>2022-05-21T23:09:30Z</time>
      </trkpt>
      <trkpt lat="48.37689" lon="0.56277">
        <ele>217</ele>
        <time>2022-05-21T23:09:34Z</time>
      </trkpt>
      <trkpt lat="48.37684" lon="0.56291">
        <ele>217</ele>
        <time>2022-05-21T23:09:36Z</time>
      </trkpt>
      <trkpt lat="48.3767" lon="0.56314">
        <ele>218</ele>
        <time>2022-05-21T23:09:39Z</time>
      </trkpt>
      <trkpt lat="48.37652" lon="0.56331">
        <ele>219</ele>
        <time>2022-05-21T23:09:43Z</time>
      </trkpt>
      <trkpt lat="48.37643" lon="0.56342">
        <ele>219</ele>
        <time>2022-05-21T23:09:45Z</time>
      </trkpt>
      <trkpt lat="48.37638" lon="0.56354">
        <ele>219</ele>
        <time>2022-05-21T23:09:47Z</time>
      </trkpt>
      <trkpt lat="48.3763" lon="0.56359">
        <ele>219</ele>
        <time>2022-05-21T23:09:48Z</time>
      </trkpt>
      <trkpt lat="48.37613" lon="0.56379">
        <ele>218</ele>
        <time>2022-05-21T23:09:52Z</time>
      </trkpt>
      <trkpt lat="48.37572" lon="0.56397">
        <ele>218</ele>
        <time>2022-05-21T23:10:00Z</time>
      </trkpt>
      <trkpt lat="48.37552" lon="0.56395">
        <ele>218</ele>
        <time>2022-05-21T23:10:03Z</time>
      </trkpt>
      <trkpt lat="48.37544" lon="0.56386">
        <ele>218</ele>
        <time>2022-05-21T23:10:05Z</time>
      </trkpt>
      <trkpt lat="48.37535" lon="0.56389">
        <ele>218</ele>
        <time>2022-05-21T23:10:07Z</time>
      </trkpt>
      <trkpt lat="48.37509" lon="0.56445">
        <ele>217</ele>
        <time>2022-05-21T23:10:15Z</time>
      </trkpt>
      <trkpt lat="48.37502" lon="0.56454">
        <ele>217</ele>
        <time>2022-05-21T23:10:16Z</time>
      </trkpt>
      <trkpt lat="48.37497" lon="0.56468">
        <ele>217</ele>
        <time>2022-05-21T23:10:18Z</time>
      </trkpt>
      <trkpt lat="48.37496" lon="0.56482">
        <ele>217</ele>
        <time>2022-05-21T23:10:20Z</time>
      </trkpt>
      <trkpt lat="48.37481" lon="0.56528">
        <ele>217</ele>
        <time>2022-05-21T23:10:26Z</time>
      </trkpt>
      <trkpt lat="48.37476" lon="0.56576">
        <ele>217</ele>
        <time>2022-05-21T23:10:32Z</time>
      </trkpt>
      <trkpt lat="48.37471" lon="0.56589">
        <ele>216</ele>
        <time>2022-05-21T23:10:34Z</time>
      </trkpt>
      <trkpt lat="48.37469" lon="0.5662">
        <ele>216</ele>
        <time>2022-05-21T23:10:37Z</time>
      </trkpt>
      <trkpt lat="48.37461" lon="0.56629">
        <ele>215</ele>
        <time>2022-05-21T23:10:39Z</time>
      </trkpt>
      <trkpt lat="48.37468" lon="0.56618">
        <ele>216</ele>
        <time>2022-05-21T23:10:41Z</time>
      </trkpt>
      <trkpt lat="48.37457" lon="0.56431">
        <ele>216</ele>
        <time>2022-05-21T23:11:03Z</time>
      </trkpt>
      <trkpt lat="48.37463" lon="0.56473">
        <ele>216</ele>
        <time>2022-05-21T23:11:08Z</time>
      </trkpt>
      <trkpt lat="48.37472" lon="0.56486">
        <ele>217</ele>
        <time>2022-05-21T23:11:10Z</time>
      </trkpt>
      <trkpt lat="48.37463" lon="0.56531">
        <ele>217</ele>
        <time>2022-05-21T23:11:16Z</time>
      </trkpt>
      <trkpt lat="48.37467" lon="0.56574">
        <ele>217</ele>
        <time>2022-05-21T23:11:21Z</time>
      </trkpt>
      <trkpt lat="48.37466" lon="0.56605">
        <ele>216</ele>
        <time>2022-05-21T23:11:25Z</time>
      </trkpt>
      <trkpt lat="48.37461" lon="0.56633">
        <ele>215</ele>
        <time>2022-05-21T23:11:28Z</time>
      </trkpt>
      <trkpt lat="48.3746" lon="0.56677">
        <ele>215</ele>
        <time>2022-05-21T23:11:33Z</time>
      </trkpt>
      <trkpt lat="48.37456" lon="0.56708">
        <ele>215</ele>
        <time>2022-05-21T23:11:37Z</time>
      </trkpt>
      <trkpt lat="48.37449" lon="0.56735">
        <ele>215</ele>
        <time>2022-05-21T23:11:40Z</time>
      </trkpt>
      <trkpt lat="48.37447" lon="0.56764">
        <ele>216</ele>
        <time>2022-05-21T23:11:44Z</time>
      </trkpt>
      <trkpt lat="48.37457" lon="0.56769">
        <ele>215</ele>
        <time>2022-05-21T23:11:46Z</time>
      </trkpt>
      <trkpt lat="48.37465" lon="0.56763">
        <ele>215</ele>
        <time>2022-05-21T23:11:47Z</time>
      </trkpt>
      <trkpt lat="48.37463" lon="0.56747">
        <ele>215</ele>
        <time>2022-05-21T23:11:49Z</time>
      </trkpt>
      <trkpt lat="48.37464" lon="0.56702">
        <ele>215</ele>
        <time>2022-05-21T23:11:55Z</time>
      </trkpt>
      <trkpt lat="48.3747" lon="0.56655">
        <ele>215</ele>
        <time>2022-05-21T23:12:00Z</time>
      </trkpt>
      <trkpt lat="48.3747" lon="0.56639">
        <ele>215</ele>
        <time>2022-05-21T23:12:02Z</time>
      </trkpt>
      <trkpt lat="48.37475" lon="0.5661">
        <ele>216</ele>
        <time>2022-05-21T23:12:06Z</time>
      </trkpt>
      <trkpt lat="48.37475" lon="0.56595">
        <ele>216</ele>
        <time>2022-05-21T23:12:07Z</time>
      </trkpt>
      <trkpt lat="48.37483" lon="0.56562">
        <ele>217</ele>
        <time>2022-05-21T23:12:12Z</time>
      </trkpt>
      <trkpt lat="48.37495" lon="0.5649">
        <ele>217</ele>
        <time>2022-05-21T23:12:20Z</time>
      </trkpt>
      <trkpt lat="48.37516" lon="0.56426">
        <ele>217</ele>
        <time>2022-05-21T23:12:29Z</time>
      </trkpt>
      <trkpt lat="48.37529" lon="0.56395">
        <ele>217</ele>
        <time>2022-05-21T23:12:33Z</time>
      </trkpt>
      <trkpt lat="48.37541" lon="0.56375">
        <ele>218</ele>
        <time>2022-05-21T23:12:36Z</time>
      </trkpt>
      <trkpt lat="48.37504" lon="0.56457">
        <ele>217</ele>
        <time>2022-05-21T23:12:48Z</time>
      </trkpt>
      <trkpt lat="48.37491" lon="0.56503">
        <ele>217</ele>
        <time>2022-05-21T23:12:54Z</time>
      </trkpt>
      <trkpt lat="48.37487" lon="0.56537">
        <ele>217</ele>
        <time>2022-05-21T23:12:58Z</time>
      </trkpt>
      <trkpt lat="48.37475" lon="0.56585">
        <ele>217</ele>
        <time>2022-05-21T23:13:04Z</time>
      </trkpt>
      <trkpt lat="48.3745" lon="0.56751">
        <ele>215</ele>
        <time>2022-05-21T23:13:24Z</time>
      </trkpt>
      <trkpt lat="48.37451" lon="0.56767">
        <ele>215</ele>
        <time>2022-05-21T23:13:26Z</time>
      </trkpt>
      <trkpt lat="48.37461" lon="0.56773">
        <ele>215</ele>
        <time>2022-05-21T23:13:28Z</time>
      </trkpt>
      <trkpt lat="48.37465" lon="0.56789">
        <ele>216</ele>
        <time>2022-05-21T23:13:30Z</time>
      </trkpt>
      <trkpt lat="48.37467" lon="0.56911">
        <ele>217</ele>
        <time>2022-05-21T23:13:44Z</time>
      </trkpt>
      <trkpt lat="48.37463" lon="0.56942">
        <ele>217</ele>
        <time>2022-05-21T23:13:48Z</time>
      </trkpt>
      <trkpt lat="48.37468" lon="0.56973">
        <ele>217</ele>
        <time>2022-05-21T23:13:52Z</time>
      </trkpt>
      <trkpt lat="48.37468" lon="0.56988">
        <ele>217</ele>
        <time>2022-05-21T23:13:54Z</time>
      </trkpt>
      <trkpt lat="48.37475" lon="0.57019">
        <ele>217</ele>
        <time>2022-05-21T23:13:58Z</time>
      </trkpt>
      <trkpt lat="48.3748" lon="0.57066">
        <ele>218</ele>
        <time>2022-05-21T23:14:03Z</time>
      </trkpt>
      <trkpt lat="48.37494" lon="0.57129">
        <ele>219</ele>
        <time>2022-05-21T23:14:11Z</time>
      </trkpt>
      <trkpt lat="48.37518" lon="0.57218">
        <ele>221</ele>
        <time>2022-05-21T23:14:22Z</time>
      </trkpt>
      <trkpt lat="48.37527" lon="0.57247">
        <ele>222</ele>
        <time>2022-05-21T23:14:26Z</time>
      </trkpt>
      <trkpt lat="48.37534" lon="0.57261">
        <ele>223</ele>
        <time>2022-05-21T23:14:28Z</time>
      </trkpt>
      <trkpt lat="48.37537" lon="0.57277">
        <ele>223</ele>
        <time>2022-05-21T23:14:30Z</time>
      </trkpt>
      <trkpt lat="48.37546" lon="0.57303">
        <ele>224</ele>
        <time>2022-05-21T23:14:34Z</time>
      </trkpt>
      <trkpt lat="48.37543" lon="0.57375">
        <ele>225</ele>
        <time>2022-05-21T23:14:42Z</time>
      </trkpt>
      <trkpt lat="48.37544" lon="0.57361">
        <ele>225</ele>
        <time>2022-05-21T23:14:44Z</time>
      </trkpt>
      <trkpt lat="48.37541" lon="0.57348">
        <ele>225</ele>
        <time>2022-05-21T23:14:46Z</time>
      </trkpt>
      <trkpt lat="48.37544" lon="0.57333">
        <ele>225</ele>
        <time>2022-05-21T23:14:47Z</time>
      </trkpt>
      <trkpt lat="48.37537" lon="0.57343">
        <ele>225</ele>
        <time>2022-05-21T23:14:49Z</time>
      </trkpt>
      <trkpt lat="48.37552" lon="0.57316">
        <ele>224</ele>
        <time>2022-05-21T23:14:53Z</time>
      </trkpt>
      <trkpt lat="48.37545" lon="0.57288">
        <ele>223</ele>
        <time>2022-05-21T23:14:57Z</time>
      </trkpt>
      <trkpt lat="48.37516" lon="0.5721">
        <ele>221</ele>
        <time>2022-05-21T23:15:07Z</time>
      </trkpt>
      <trkpt lat="48.37486" lon="0.57099">
        <ele>218</ele>
        <time>2022-05-21T23:15:22Z</time>
      </trkpt>
      <trkpt lat="48.37478" lon="0.57058">
        <ele>218</ele>
        <time>2022-05-21T23:15:27Z</time>
      </trkpt>
      <trkpt lat="48.37476" lon="0.57026">
        <ele>217</ele>
        <time>2022-05-21T23:15:30Z</time>
      </trkpt>
      <trkpt lat="48.37466" lon="0.56958">
        <ele>217</ele>
        <time>2022-05-21T23:15:39Z</time>
      </trkpt>
      <trkpt lat="48.37468" lon="0.5689">
        <ele>216</ele>
        <time>2022-05-21T23:15:47Z</time>
      </trkpt>
      <trkpt lat="48.37484" lon="0.56782">
        <ele>215</ele>
        <time>2022-05-21T23:16:00Z</time>
      </trkpt>
      <trkpt lat="48.37478" lon="0.56769">
        <ele>215</ele>
        <time>2022-05-21T23:16:02Z</time>
      </trkpt>
      <trkpt lat="48.37469" lon="0.5677">
        <ele>215</ele>
        <time>2022-05-21T23:16:03Z</time>
      </trkpt>
      <trkpt lat="48.37461" lon="0.56761">
        <ele>215</ele>
        <time>2022-05-21T23:16:05Z</time>
      </trkpt>
      <trkpt lat="48.37461" lon="0.56668">
        <ele>214</ele>
        <time>2022-05-21T23:16:16Z</time>
      </trkpt>
      <trkpt lat="48.37469" lon="0.56607">
        <ele>216</ele>
        <time>2022-05-21T23:16:23Z</time>
      </trkpt>
      <trkpt lat="48.37468" lon="0.56591">
        <ele>216</ele>
        <time>2022-05-21T23:16:25Z</time>
      </trkpt>
      <trkpt lat="48.37493" lon="0.56485">
        <ele>217</ele>
        <time>2022-05-21T23:16:39Z</time>
      </trkpt>
      <trkpt lat="48.37533" lon="0.56393">
        <ele>217</ele>
        <time>2022-05-21T23:16:52Z</time>
      </trkpt>
      <trkpt lat="48.37537" lon="0.56378">
        <ele>218</ele>
        <time>2022-05-21T23:16:53Z</time>
      </trkpt>
      <trkpt lat="48.37537" lon="0.56362">
        <ele>219</ele>
        <time>2022-05-21T23:16:55Z</time>
      </trkpt>
      <trkpt lat="48.37529" lon="0.56349">
        <ele>218</ele>
        <time>2022-05-21T23:16:57Z</time>
      </trkpt>
      <trkpt lat="48.37503" lon="0.56269">
        <ele>217</ele>
        <time>2022-05-21T23:17:08Z</time>
      </trkpt>
      <trkpt lat="48.37494" lon="0.56217">
        <ele>215</ele>
        <time>2022-05-21T23:17:14Z</time>
      </trkpt>
      <trkpt lat="48.37496" lon="0.56181">
        <ele>214</ele>
        <time>2022-05-21T23:17:19Z</time>
      </trkpt>
      <trkpt lat="48.37514" lon="0.56114">
        <ele>212</ele>
        <time>2022-05-21T23:17:27Z</time>
      </trkpt>
      <trkpt lat="48.37522" lon="0.561">
        <ele>212</ele>
        <time>2022-05-21T23:17:29Z</time>
      </trkpt>
      <trkpt lat="48.37533" lon="0.56067">
        <ele>212</ele>
        <time>2022-05-21T23:17:34Z</time>
      </trkpt>
      <trkpt lat="48.37534" lon="0.56046">
        <ele>211</ele>
        <time>2022-05-21T23:17:36Z</time>
      </trkpt>
      <trkpt lat="48.37544" lon="0.55986">
        <ele>211</ele>
        <time>2022-05-21T23:17:43Z</time>
      </trkpt>
      <trkpt lat="48.37557" lon="0.55926">
        <ele>209</ele>
        <time>2022-05-21T23:17:51Z</time>
      </trkpt>
      <trkpt lat="48.37595" lon="0.55708">
        <ele>199</ele>
        <time>2022-05-21T23:18:18Z</time>
      </trkpt>
      <trkpt lat="48.37601" lon="0.55688">
        <ele>199</ele>
        <time>2022-05-21T23:18:20Z</time>
      </trkpt>
      <trkpt lat="48.37609" lon="0.55672">
        <ele>199</ele>
        <time>2022-05-21T23:18:23Z</time>
      </trkpt>
      <trkpt lat="48.3762" lon="0.55659">
        <ele>199</ele>
        <time>2022-05-21T23:18:25Z</time>
      </trkpt>
      <trkpt lat="48.37632" lon="0.55648">
        <ele>199</ele>
        <time>2022-05-21T23:18:27Z</time>
      </trkpt>
      <trkpt lat="48.37646" lon="0.5564">
        <ele>200</ele>
        <time>2022-05-21T23:18:30Z</time>
      </trkpt>
      <trkpt lat="48.37661" lon="0.55636">
        <ele>200</ele>
        <time>2022-05-21T23:18:33Z</time>
      </trkpt>
      <trkpt lat="48.37669" lon="0.55625">
        <ele>200</ele>
        <time>2022-05-21T23:18:35Z</time>
      </trkpt>
      <trkpt lat="48.37669" lon="0.55553">
        <ele>199</ele>
        <time>2022-05-21T23:18:43Z</time>
      </trkpt>
      <trkpt lat="48.37665" lon="0.55438">
        <ele>198</ele>
        <time>2022-05-21T23:18:57Z</time>
      </trkpt>
      <trkpt lat="48.37655" lon="0.55273">
        <ele>191</ele>
        <time>2022-05-21T23:19:17Z</time>
      </trkpt>
      <trkpt lat="48.37652" lon="0.55258">
        <ele>190</ele>
        <time>2022-05-21T23:19:18Z</time>
      </trkpt>
      <trkpt lat="48.37625" lon="0.55255">
        <ele>189</ele>
        <time>2022-05-21T23:19:23Z</time>
      </trkpt>
      <trkpt lat="48.37612" lon="0.5526">
        <ele>188</ele>
        <time>2022-05-21T23:19:26Z</time>
      </trkpt>
      <trkpt lat="48.37604" lon="0.55268">
        <ele>188</ele>
        <time>2022-05-21T23:19:27Z</time>
      </trkpt>
      <trkpt lat="48.37593" lon="0.5526">
        <ele>188</ele>
        <time>2022-05-21T23:19:29Z</time>
      </trkpt>
      <trkpt lat="48.37578" lon="0.55217">
        <ele>185</ele>
        <time>2022-05-21T23:19:35Z</time>
      </trkpt>
      <trkpt lat="48.37569" lon="0.55203">
        <ele>184</ele>
        <time>2022-05-21T23:19:37Z</time>
      </trkpt>
      <trkpt lat="48.37558" lon="0.55193">
        <ele>183</ele>
        <time>2022-05-21T23:19:40Z</time>
      </trkpt>
      <trkpt lat="48.37512" lon="0.55172">
        <ele>181</ele>
        <time>2022-05-21T23:19:48Z</time>
      </trkpt>
      <trkpt lat="48.37521" lon="0.5516">
        <ele>181</ele>
        <time>2022-05-21T23:19:50Z</time>
      </trkpt>
      <trkpt lat="48.37511" lon="0.55158">
        <ele>180</ele>
        <time>2022-05-21T23:19:52Z</time>
      </trkpt>
      <trkpt lat="48.37512" lon="0.5518">
        <ele>181</ele>
        <time>2022-05-21T23:19:55Z</time>
      </trkpt>
      <trkpt lat="48.37494" lon="0.55143">
        <ele>179</ele>
        <time>2022-05-21T23:20:00Z</time>
      </trkpt>
      <trkpt lat="48.37489" lon="0.55113">
        <ele>178</ele>
        <time>2022-05-21T23:20:04Z</time>
      </trkpt>
      <trkpt lat="48.37506" lon="0.5511">
        <ele>179</ele>
        <time>2022-05-21T23:20:07Z</time>
      </trkpt>
      <trkpt lat="48.37509" lon="0.55097">
        <ele>179</ele>
        <time>2022-05-21T23:20:09Z</time>
      </trkpt>
      <trkpt lat="48.37495" lon="0.55122">
        <ele>179</ele>
        <time>2022-05-21T23:20:12Z</time>
      </trkpt>
      <trkpt lat="48.37495" lon="0.55027">
        <ele>176</ele>
        <time>2022-05-21T23:20:24Z</time>
      </trkpt>
      <trkpt lat="48.37491" lon="0.55009">
        <ele>175</ele>
        <time>2022-05-21T23:20:26Z</time>
      </trkpt>
      <trkpt lat="48.37491" lon="0.54993">
        <ele>174</ele>
        <time>2022-05-21T23:20:28Z</time>
      </trkpt>
      <trkpt lat="48.37481" lon="0.54904">
        <ele>169</ele>
        <time>2022-05-21T23:20:39Z</time>
      </trkpt>
      <trkpt lat="48.37478" lon="0.54888">
        <ele>168</ele>
        <time>2022-05-21T23:20:40Z</time>
      </trkpt>
      <trkpt lat="48.3747" lon="0.54877">
        <ele>167</ele>
        <time>2022-05-21T23:20:42Z</time>
      </trkpt>
      <trkpt lat="48.37457" lon="0.54868">
        <ele>166</ele>
        <time>2022-05-21T23:20:45Z</time>
      </trkpt>
      <trkpt lat="48.37376" lon="0.54872">
        <ele>161</ele>
        <time>2022-05-21T23:20:59Z</time>
      </trkpt>
      <trkpt lat="48.37369" lon="0.54857">
        <ele>160</ele>
        <time>2022-05-21T23:21:02Z</time>
      </trkpt>
      <trkpt lat="48.37367" lon="0.54825">
        <ele>159</ele>
        <time>2022-05-21T23:21:05Z</time>
      </trkpt>
      <trkpt lat="48.37355" lon="0.54795">
        <ele>157</ele>
        <time>2022-05-21T23:21:09Z</time>
      </trkpt>
      <trkpt lat="48.37345" lon="0.54809">
        <ele>157</ele>
        <time>2022-05-21T23:21:12Z</time>
      </trkpt>
      <trkpt lat="48.37321" lon="0.54809">
        <ele>156</ele>
        <time>2022-05-21T23:21:16Z</time>
      </trkpt>
      <trkpt lat="48.37296" lon="0.54805">
        <ele>155</ele>
        <time>2022-05-21T23:21:21Z</time>
      </trkpt>
      <trkpt lat="48.37273" lon="0.54814">
        <ele>154</ele>
        <time>2022-05-21T23:21:25Z</time>
      </trkpt>
      <trkpt lat="48.3726" lon="0.54822">
        <ele>153</ele>
        <time>2022-05-21T23:21:27Z</time>
      </trkpt>
      <trkpt lat="48.37237" lon="0.54809">
        <ele>152</ele>
        <time>2022-05-21T23:21:32Z</time>
      </trkpt>
      <trkpt lat="48.37212" lon="0.54779">
        <ele>152</ele>
        <time>2022-05-21T23:21:37Z</time>
      </trkpt>
      <trkpt lat="48.37179" lon="0.54753">
        <ele>154</ele>
        <time>2022-05-21T23:21:44Z</time>
      </trkpt>
      <trkpt lat="48.37164" lon="0.54733">
        <ele>155</ele>
        <time>2022-05-21T23:21:48Z</time>
      </trkpt>
      <trkpt lat="48.37155" lon="0.54706">
        <ele>155</ele>
        <time>2022-05-21T23:21:51Z</time>
      </trkpt>
      <trkpt lat="48.37147" lon="0.547">
        <ele>156</ele>
        <time>2022-05-21T23:21:53Z</time>
      </trkpt>
      <trkpt lat="48.3713" lon="0.54661">
        <ele>157</ele>
        <time>2022-05-21T23:21:58Z</time>
      </trkpt>
      <trkpt lat="48.37057" lon="0.54549">
        <ele>157</ele>
        <time>2022-05-21T23:22:17Z</time>
      </trkpt>
      <trkpt lat="48.37037" lon="0.5451">
        <ele>156</ele>
        <time>2022-05-21T23:22:23Z</time>
      </trkpt>
      <trkpt lat="48.37016" lon="0.5449">
        <ele>157</ele>
        <time>2022-05-21T23:22:27Z</time>
      </trkpt>
      <trkpt lat="48.37007" lon="0.54474">
        <ele>157</ele>
        <time>2022-05-21T23:22:30Z</time>
      </trkpt>
      <trkpt lat="48.37004" lon="0.54434">
        <ele>154</ele>
        <time>2022-05-21T23:22:34Z</time>
      </trkpt>
      <trkpt lat="48.36994" lon="0.5442">
        <ele>154</ele>
        <time>2022-05-21T23:22:37Z</time>
      </trkpt>
      <trkpt lat="48.36986" lon="0.54425">
        <ele>155</ele>
        <time>2022-05-21T23:22:38Z</time>
      </trkpt>
      <trkpt lat="48.36956" lon="0.54429">
        <ele>158</ele>
        <time>2022-05-21T23:22:44Z</time>
      </trkpt>
      <trkpt lat="48.36936" lon="0.54413">
        <ele>159</ele>
        <time>2022-05-21T23:22:48Z</time>
      </trkpt>
      <trkpt lat="48.36905" lon="0.54367">
        <ele>159</ele>
        <time>2022-05-21T23:22:55Z</time>
      </trkpt>
      <trkpt lat="48.36871" lon="0.54282">
        <ele>157</ele>
        <time>2022-05-21T23:23:07Z</time>
      </trkpt>
      <trkpt lat="48.36843" lon="0.54236">
        <ele>158</ele>
        <time>2022-05-21T23:23:15Z</time>
      </trkpt>
      <trkpt lat="48.36827" lon="0.54218">
        <ele>158</ele>
        <time>2022-05-21T23:23:18Z</time>
      </trkpt>
      <trkpt lat="48.36818" lon="0.54204">
        <ele>158</ele>
        <time>2022-05-21T23:23:20Z</time>
      </trkpt>
      <trkpt lat="48.36747" lon="0.54131">
        <ele>156</ele>
        <time>2022-05-21T23:23:36Z</time>
      </trkpt>
      <trkpt lat="48.36708" lon="0.5408">
        <ele>154</ele>
        <time>2022-05-21T23:23:45Z</time>
      </trkpt>
      <trkpt lat="48.36703" lon="0.54069">
        <ele>153</ele>
        <time>2022-05-21T23:23:46Z</time>
      </trkpt>
      <trkpt lat="48.36671" lon="0.5402">
        <ele>149</ele>
        <time>2022-05-21T23:23:55Z</time>
      </trkpt>
      <trkpt lat="48.36672" lon="0.53999">
        <ele>147</ele>
        <time>2022-05-21T23:23:57Z</time>
      </trkpt>
      <trkpt lat="48.36645" lon="0.53955">
        <ele>144</ele>
        <time>2022-05-21T23:24:04Z</time>
      </trkpt>
      <trkpt lat="48.36625" lon="0.53916">
        <ele>143</ele>
        <time>2022-05-21T23:24:10Z</time>
      </trkpt>
      <trkpt lat="48.36617" lon="0.53895">
        <ele>143</ele>
        <time>2022-05-21T23:24:13Z</time>
      </trkpt>
      <trkpt lat="48.36591" lon="0.53793">
        <ele>145</ele>
        <time>2022-05-21T23:24:26Z</time>
      </trkpt>
      <trkpt lat="48.36576" lon="0.53707">
        <ele>144</ele>
        <time>2022-05-21T23:24:36Z</time>
      </trkpt>
      <trkpt lat="48.36543" lon="0.53551">
        <ele>145</ele>
        <time>2022-05-21T23:24:56Z</time>
      </trkpt>
      <trkpt lat="48.36514" lon="0.53474">
        <ele>144</ele>
        <time>2022-05-21T23:25:06Z</time>
      </trkpt>
      <trkpt lat="48.36488" lon="0.53425">
        <ele>143</ele>
        <time>2022-05-21T23:25:13Z</time>
      </trkpt>
      <trkpt lat="48.36465" lon="0.5339">
        <ele>142</ele>
        <time>2022-05-21T23:25:19Z</time>
      </trkpt>
      <trkpt lat="48.36442" lon="0.53361">
        <ele>142</ele>
        <time>2022-05-21T23:25:25Z</time>
      </trkpt>
      <trkpt lat="48.36415" lon="0.53342">
        <ele>142</ele>
        <time>2022-05-21T23:25:30Z</time>
      </trkpt>
      <trkpt lat="48.36354" lon="0.53282">
        <ele>141</ele>
        <time>2022-05-21T23:25:43Z</time>
      </trkpt>
      <trkpt lat="48.36257" lon="0.53146">
        <ele>138</ele>
        <time>2022-05-21T23:26:06Z</time>
      </trkpt>
      <trkpt lat="48.36229" lon="0.53118">
        <ele>138</ele>
        <time>2022-05-21T23:26:12Z</time>
      </trkpt>
      <trkpt lat="48.36198" lon="0.53101">
        <ele>139</ele>
        <time>2022-05-21T23:26:18Z</time>
      </trkpt>
      <trkpt lat="48.36185" lon="0.53091">
        <ele>139</ele>
        <time>2022-05-21T23:26:21Z</time>
      </trkpt>
      <trkpt lat="48.36161" lon="0.53062">
        <ele>139</ele>
        <time>2022-05-21T23:26:26Z</time>
      </trkpt>
      <trkpt lat="48.36125" lon="0.53009">
        <ele>143</ele>
        <time>2022-05-21T23:26:35Z</time>
      </trkpt>
      <trkpt lat="48.36116" lon="0.53004">
        <ele>144</ele>
        <time>2022-05-21T23:26:37Z</time>
      </trkpt>
      <trkpt lat="48.36056" lon="0.52931">
        <ele>148</ele>
        <time>2022-05-21T23:26:51Z</time>
      </trkpt>
      <trkpt lat="48.36015" lon="0.52889">
        <ele>151</ele>
        <time>2022-05-21T23:27:00Z</time>
      </trkpt>
      <trkpt lat="48.35981" lon="0.52861">
        <ele>153</ele>
        <time>2022-05-21T23:27:07Z</time>
      </trkpt>
      <trkpt lat="48.35962" lon="0.5285">
        <ele>154</ele>
        <time>2022-05-21T23:27:10Z</time>
      </trkpt>
      <trkpt lat="48.35888" lon="0.52797">
        <ele>159</ele>
        <time>2022-05-21T23:27:25Z</time>
      </trkpt>
      <trkpt lat="48.35862" lon="0.52782">
        <ele>161</ele>
        <time>2022-05-21T23:27:30Z</time>
      </trkpt>
      <trkpt lat="48.35833" lon="0.52771">
        <ele>164</ele>
        <time>2022-05-21T23:27:35Z</time>
      </trkpt>
      <trkpt lat="48.35803" lon="0.52756">
        <ele>165</ele>
        <time>2022-05-21T23:27:41Z</time>
      </trkpt>
      <trkpt lat="48.35785" lon="0.52745">
        <ele>165</ele>
        <time>2022-05-21T23:27:44Z</time>
      </trkpt>
      <trkpt lat="48.35741" lon="0.5271">
        <ele>166</ele>
        <time>2022-05-21T23:27:53Z</time>
      </trkpt>
      <trkpt lat="48.35721" lon="0.52697">
        <ele>166</ele>
        <time>2022-05-21T23:27:57Z</time>
      </trkpt>
      <trkpt lat="48.35712" lon="0.52694">
        <ele>166</ele>
        <time>2022-05-21T23:27:58Z</time>
      </trkpt>
      <trkpt lat="48.3568" lon="0.52674">
        <ele>167</ele>
        <time>2022-05-21T23:28:05Z</time>
      </trkpt>
      <trkpt lat="48.35635" lon="0.52654">
        <ele>166</ele>
        <time>2022-05-21T23:28:13Z</time>
      </trkpt>
      <trkpt lat="48.35604" lon="0.52637">
        <ele>165</ele>
        <time>2022-05-21T23:28:19Z</time>
      </trkpt>
      <trkpt lat="48.35513" lon="0.52568">
        <ele>157</ele>
        <time>2022-05-21T23:28:37Z</time>
      </trkpt>
      <trkpt lat="48.35498" lon="0.52548">
        <ele>157</ele>
        <time>2022-05-21T23:28:41Z</time>
      </trkpt>
      <trkpt lat="48.35472" lon="0.5253">
        <ele>155</ele>
        <time>2022-05-21T23:28:46Z</time>
      </trkpt>
      <trkpt lat="48.35412" lon="0.52478">
        <ele>150</ele>
        <time>2022-05-21T23:28:58Z</time>
      </trkpt>
      <trkpt lat="48.35388" lon="0.5245">
        <ele>149</ele>
        <time>2022-05-21T23:29:03Z</time>
      </trkpt>
      <trkpt lat="48.35364" lon="0.52416">
        <ele>147</ele>
        <time>2022-05-21T23:29:09Z</time>
      </trkpt>
      <trkpt lat="48.3531" lon="0.52293">
        <ele>142</ele>
        <time>2022-05-21T23:29:27Z</time>
      </trkpt>
      <trkpt lat="48.35282" lon="0.52237">
        <ele>141</ele>
        <time>2022-05-21T23:29:35Z</time>
      </trkpt>
      <trkpt lat="48.35273" lon="0.52224">
        <ele>141</ele>
        <time>2022-05-21T23:29:37Z</time>
      </trkpt>
      <trkpt lat="48.35254" lon="0.52204">
        <ele>140</ele>
        <time>2022-05-21T23:29:41Z</time>
      </trkpt>
      <trkpt lat="48.35234" lon="0.52195">
        <ele>141</ele>
        <time>2022-05-21T23:29:45Z</time>
      </trkpt>
      <trkpt lat="48.35123" lon="0.52108">
        <ele>137</ele>
        <time>2022-05-21T23:30:07Z</time>
      </trkpt>
      <trkpt lat="48.35063" lon="0.52047">
        <ele>133</ele>
        <time>2022-05-21T23:30:20Z</time>
      </trkpt>
      <trkpt lat="48.35037" lon="0.52024">
        <ele>132</ele>
        <time>2022-05-21T23:30:26Z</time>
      </trkpt>
      <trkpt lat="48.34935" lon="0.51907">
        <ele>130</ele>
        <time>2022-05-21T23:30:48Z</time>
      </trkpt>
      <trkpt lat="48.34881" lon="0.5185">
        <ele>129</ele>
        <time>2022-05-21T23:31:00Z</time>
      </trkpt>
      <trkpt lat="48.34871" lon="0.51843">
        <ele>129</ele>
        <time>2022-05-21T23:31:02Z</time>
      </trkpt>
      <trkpt lat="48.34863" lon="0.51832">
        <ele>129</ele>
        <time>2022-05-21T23:31:04Z</time>
      </trkpt>
      <trkpt lat="48.34832" lon="0.51807">
        <ele>129</ele>
        <time>2022-05-21T23:31:10Z</time>
      </trkpt>
      <trkpt lat="48.34803" lon="0.51791">
        <ele>129</ele>
        <time>2022-05-21T23:31:16Z</time>
      </trkpt>
      <trkpt lat="48.3476" lon="0.51774">
        <ele>128</ele>
        <time>2022-05-21T23:31:24Z</time>
      </trkpt>
      <trkpt lat="48.34735" lon="0.51769">
        <ele>128</ele>
        <time>2022-05-21T23:31:28Z</time>
      </trkpt>
      <trkpt lat="48.34631" lon="0.51766">
        <ele>128</ele>
        <time>2022-05-21T23:31:47Z</time>
      </trkpt>
      <trkpt lat="48.34541" lon="0.51773">
        <ele>127</ele>
        <time>2022-05-21T23:32:03Z</time>
      </trkpt>
      <trkpt lat="48.34519" lon="0.51782">
        <ele>127</ele>
        <time>2022-05-21T23:32:07Z</time>
      </trkpt>
      <trkpt lat="48.34497" lon="0.51796">
        <ele>127</ele>
        <time>2022-05-21T23:32:11Z</time>
      </trkpt>
      <trkpt lat="48.34484" lon="0.51799">
        <ele>126</ele>
        <time>2022-05-21T23:32:13Z</time>
      </trkpt>
      <trkpt lat="48.34444" lon="0.51825">
        <ele>126</ele>
        <time>2022-05-21T23:32:21Z</time>
      </trkpt>
      <trkpt lat="48.34432" lon="0.51827">
        <ele>126</ele>
        <time>2022-05-21T23:32:23Z</time>
      </trkpt>
      <trkpt lat="48.34421" lon="0.51833">
        <ele>126</ele>
        <time>2022-05-21T23:32:25Z</time>
      </trkpt>
      <trkpt lat="48.34403" lon="0.51852">
        <ele>127</ele>
        <time>2022-05-21T23:32:29Z</time>
      </trkpt>
      <trkpt lat="48.34398" lon="0.51866">
        <ele>127</ele>
        <time>2022-05-21T23:32:31Z</time>
      </trkpt>
      <trkpt lat="48.34396" lon="0.51894">
        <ele>128</ele>
        <time>2022-05-21T23:32:34Z</time>
      </trkpt>
      <trkpt lat="48.34387" lon="0.51939">
        <ele>131</ele>
        <time>2022-05-21T23:32:40Z</time>
      </trkpt>
      <trkpt lat="48.34379" lon="0.51951">
        <ele>131</ele>
        <time>2022-05-21T23:32:42Z</time>
      </trkpt>
      <trkpt lat="48.3436" lon="0.51966">
        <ele>132</ele>
        <time>2022-05-21T23:32:46Z</time>
      </trkpt>
      <trkpt lat="48.34313" lon="0.51978">
        <ele>134</ele>
        <time>2022-05-21T23:32:54Z</time>
      </trkpt>
      <trkpt lat="48.34284" lon="0.51996">
        <ele>136</ele>
        <time>2022-05-21T23:33:00Z</time>
      </trkpt>
      <trkpt lat="48.34263" lon="0.52003">
        <ele>138</ele>
        <time>2022-05-21T23:33:04Z</time>
      </trkpt>
      <trkpt lat="48.34217" lon="0.51999">
        <ele>139</ele>
        <time>2022-05-21T23:33:12Z</time>
      </trkpt>
      <trkpt lat="48.34188" lon="0.52001">
        <ele>140</ele>
        <time>2022-05-21T23:33:17Z</time>
      </trkpt>
      <trkpt lat="48.3418" lon="0.52014">
        <ele>142</ele>
        <time>2022-05-21T23:33:19Z</time>
      </trkpt>
      <trkpt lat="48.34161" lon="0.52031">
        <ele>143</ele>
        <time>2022-05-21T23:33:23Z</time>
      </trkpt>
      <trkpt lat="48.34124" lon="0.52056">
        <ele>144</ele>
        <time>2022-05-21T23:33:30Z</time>
      </trkpt>
      <trkpt lat="48.34113" lon="0.52055">
        <ele>144</ele>
        <time>2022-05-21T23:33:32Z</time>
      </trkpt>
      <trkpt lat="48.34068" lon="0.52043">
        <ele>142</ele>
        <time>2022-05-21T23:33:40Z</time>
      </trkpt>
      <trkpt lat="48.34059" lon="0.52023">
        <ele>140</ele>
        <time>2022-05-21T23:33:43Z</time>
      </trkpt>
      <trkpt lat="48.34041" lon="0.52036">
        <ele>140</ele>
        <time>2022-05-21T23:33:47Z</time>
      </trkpt>
      <trkpt lat="48.34027" lon="0.52029">
        <ele>139</ele>
        <time>2022-05-21T23:33:49Z</time>
      </trkpt>
      <trkpt lat="48.33984" lon="0.52016">
        <ele>137</ele>
        <time>2022-05-21T23:33:57Z</time>
      </trkpt>
      <trkpt lat="48.33946" lon="0.52015">
        <ele>137</ele>
        <time>2022-05-21T23:34:04Z</time>
      </trkpt>
      <trkpt lat="48.33921" lon="0.52019">
        <ele>137</ele>
        <time>2022-05-21T23:34:08Z</time>
      </trkpt>
      <trkpt lat="48.33889" lon="0.52035">
        <ele>137</ele>
        <time>2022-05-21T23:34:14Z</time>
      </trkpt>
      <trkpt lat="48.33759" lon="0.52136">
        <ele>137</ele>
        <time>2022-05-21T23:34:41Z</time>
      </trkpt>
      <trkpt lat="48.33747" lon="0.52143">
        <ele>137</ele>
        <time>2022-05-21T23:34:43Z</time>
      </trkpt>
      <trkpt lat="48.33737" lon="0.52143">
        <ele>136</ele>
        <time>2022-05-21T23:34:45Z</time>
      </trkpt>
      <trkpt lat="48.33728" lon="0.52114">
        <ele>134</ele>
        <time>2022-05-21T23:34:48Z</time>
      </trkpt>
      <trkpt lat="48.33723" lon="0.52086">
        <ele>133</ele>
        <time>2022-05-21T23:34:52Z</time>
      </trkpt>
      <trkpt lat="48.3375" lon="0.52137">
        <ele>137</ele>
        <time>2022-05-21T23:35:00Z</time>
      </trkpt>
      <trkpt lat="48.33742" lon="0.52145">
        <ele>136</ele>
        <time>2022-05-21T23:35:01Z</time>
      </trkpt>
      <trkpt lat="48.33752" lon="0.5214">
        <ele>137</ele>
        <time>2022-05-21T23:35:03Z</time>
      </trkpt>
      <trkpt lat="48.33783" lon="0.52115">
        <ele>137</ele>
        <time>2022-05-21T23:35:09Z</time>
      </trkpt>
      <trkpt lat="48.33792" lon="0.52111">
        <ele>138</ele>
        <time>2022-05-21T23:35:11Z</time>
      </trkpt>
      <trkpt lat="48.3388" lon="0.52042">
        <ele>137</ele>
        <time>2022-05-21T23:35:29Z</time>
      </trkpt>
      <trkpt lat="48.33901" lon="0.52029">
        <ele>137</ele>
        <time>2022-05-21T23:35:33Z</time>
      </trkpt>
      <trkpt lat="48.33923" lon="0.52021">
        <ele>137</ele>
        <time>2022-05-21T23:35:37Z</time>
      </trkpt>
      <trkpt lat="48.33954" lon="0.52016">
        <ele>137</ele>
        <time>2022-05-21T23:35:42Z</time>
      </trkpt>
      <trkpt lat="48.33986" lon="0.52018">
        <ele>137</ele>
        <time>2022-05-21T23:35:48Z</time>
      </trkpt>
      <trkpt lat="48.34058" lon="0.5204">
        <ele>141</ele>
        <time>2022-05-21T23:36:01Z</time>
      </trkpt>
      <trkpt lat="48.34089" lon="0.52045">
        <ele>143</ele>
        <time>2022-05-21T23:36:07Z</time>
      </trkpt>
      <trkpt lat="48.34099" lon="0.52053">
        <ele>144</ele>
        <time>2022-05-21T23:36:09Z</time>
      </trkpt>
      <trkpt lat="48.3412" lon="0.52054">
        <ele>144</ele>
        <time>2022-05-21T23:36:12Z</time>
      </trkpt>
      <trkpt lat="48.34132" lon="0.52051">
        <ele>144</ele>
        <time>2022-05-21T23:36:15Z</time>
      </trkpt>
      <trkpt lat="48.34169" lon="0.5202">
        <ele>142</ele>
        <time>2022-05-21T23:36:22Z</time>
      </trkpt>
      <trkpt lat="48.34198" lon="0.52006">
        <ele>140</ele>
        <time>2022-05-21T23:36:27Z</time>
      </trkpt>
      <trkpt lat="48.34219" lon="0.5201">
        <ele>140</ele>
        <time>2022-05-21T23:36:31Z</time>
      </trkpt>
      <trkpt lat="48.34263" lon="0.52012">
        <ele>139</ele>
        <time>2022-05-21T23:36:39Z</time>
      </trkpt>
      <trkpt lat="48.34276" lon="0.52008">
        <ele>138</ele>
        <time>2022-05-21T23:36:41Z</time>
      </trkpt>
      <trkpt lat="48.34315" lon="0.51984">
        <ele>134</ele>
        <time>2022-05-21T23:36:49Z</time>
      </trkpt>
      <trkpt lat="48.34333" lon="0.51978">
        <ele>133</ele>
        <time>2022-05-21T23:36:52Z</time>
      </trkpt>
      <trkpt lat="48.34353" lon="0.51978">
        <ele>133</ele>
        <time>2022-05-21T23:36:56Z</time>
      </trkpt>
      <trkpt lat="48.34371" lon="0.51969">
        <ele>133</ele>
        <time>2022-05-21T23:36:59Z</time>
      </trkpt>
      <trkpt lat="48.34379" lon="0.51961">
        <ele>132</ele>
        <time>2022-05-21T23:37:01Z</time>
      </trkpt>
      <trkpt lat="48.34386" lon="0.51949">
        <ele>131</ele>
        <time>2022-05-21T23:37:03Z</time>
      </trkpt>
      <trkpt lat="48.34403" lon="0.51869">
        <ele>127</ele>
        <time>2022-05-21T23:37:13Z</time>
      </trkpt>
      <trkpt lat="48.34412" lon="0.51847">
        <ele>126</ele>
        <time>2022-05-21T23:37:16Z</time>
      </trkpt>
      <trkpt lat="48.34426" lon="0.51835">
        <ele>126</ele>
        <time>2022-05-21T23:37:19Z</time>
      </trkpt>
      <trkpt lat="48.34452" lon="0.51825">
        <ele>126</ele>
        <time>2022-05-21T23:37:23Z</time>
      </trkpt>
      <trkpt lat="48.34471" lon="0.51809">
        <ele>126</ele>
        <time>2022-05-21T23:37:27Z</time>
      </trkpt>
      <trkpt lat="48.34492" lon="0.51797">
        <ele>126</ele>
        <time>2022-05-21T23:37:31Z</time>
      </trkpt>
      <trkpt lat="48.34586" lon="0.5178">
        <ele>128</ele>
        <time>2022-05-21T23:37:48Z</time>
      </trkpt>
      <trkpt lat="48.34607" lon="0.51784">
        <ele>128</ele>
        <time>2022-05-21T23:37:52Z</time>
      </trkpt>
      <trkpt lat="48.34617" lon="0.5178">
        <ele>128</ele>
        <time>2022-05-21T23:37:54Z</time>
      </trkpt>
      <trkpt lat="48.34701" lon="0.51781">
        <ele>129</ele>
        <time>2022-05-21T23:38:09Z</time>
      </trkpt>
      <trkpt lat="48.34714" lon="0.51784">
        <ele>129</ele>
        <time>2022-05-21T23:38:11Z</time>
      </trkpt>
      <trkpt lat="48.34751" lon="0.51785">
        <ele>129</ele>
        <time>2022-05-21T23:38:18Z</time>
      </trkpt>
      <trkpt lat="48.34763" lon="0.51788">
        <ele>129</ele>
        <time>2022-05-21T23:38:20Z</time>
      </trkpt>
      <trkpt lat="48.34815" lon="0.51811">
        <ele>129</ele>
        <time>2022-05-21T23:38:29Z</time>
      </trkpt>
      <trkpt lat="48.34827" lon="0.51819">
        <ele>129</ele>
        <time>2022-05-21T23:38:32Z</time>
      </trkpt>
      <trkpt lat="48.34863" lon="0.51849">
        <ele>130</ele>
        <time>2022-05-21T23:38:39Z</time>
      </trkpt>
      <trkpt lat="48.34899" lon="0.51888">
        <ele>130</ele>
        <time>2022-05-21T23:38:47Z</time>
      </trkpt>
      <trkpt lat="48.3491" lon="0.51897">
        <ele>130</ele>
        <time>2022-05-21T23:38:49Z</time>
      </trkpt>
      <trkpt lat="48.35033" lon="0.52037">
        <ele>133</ele>
        <time>2022-05-21T23:39:17Z</time>
      </trkpt>
      <trkpt lat="48.35074" lon="0.52074">
        <ele>135</ele>
        <time>2022-05-21T23:39:25Z</time>
      </trkpt>
      <trkpt lat="48.35098" lon="0.52101">
        <ele>136</ele>
        <time>2022-05-21T23:39:30Z</time>
      </trkpt>
      <trkpt lat="48.35174" lon="0.52168">
        <ele>142</ele>
        <time>2022-05-21T23:39:46Z</time>
      </trkpt>
      <trkpt lat="48.35184" lon="0.52171">
        <ele>141</ele>
        <time>2022-05-21T23:39:48Z</time>
      </trkpt>
      <trkpt lat="48.35194" lon="0.52179">
        <ele>141</ele>
        <time>2022-05-21T23:39:50Z</time>
      </trkpt>
      <trkpt lat="48.35212" lon="0.52182">
        <ele>141</ele>
        <time>2022-05-21T23:39:53Z</time>
      </trkpt>
      <trkpt lat="48.35211" lon="0.52196">
        <ele>141</ele>
        <time>2022-05-21T23:39:55Z</time>
      </trkpt>
      <trkpt lat="48.35199" lon="0.52216">
        <ele>142</ele>
        <time>2022-05-21T23:39:58Z</time>
      </trkpt>
      <trkpt lat="48.35207" lon="0.52204">
        <ele>142</ele>
        <time>2022-05-21T23:40:00Z</time>
      </trkpt>
      <trkpt lat="48.35211" lon="0.52187">
        <ele>141</ele>
        <time>2022-05-21T23:40:02Z</time>
      </trkpt>
      <trkpt lat="48.3525" lon="0.52204">
        <ele>140</ele>
        <time>2022-05-21T23:40:09Z</time>
      </trkpt>
      <trkpt lat="48.35259" lon="0.52213">
        <ele>140</ele>
        <time>2022-05-21T23:40:11Z</time>
      </trkpt>
      <trkpt lat="48.35277" lon="0.52239">
        <ele>141</ele>
        <time>2022-05-21T23:40:16Z</time>
      </trkpt>
      <trkpt lat="48.35312" lon="0.52307">
        <ele>142</ele>
        <time>2022-05-21T23:40:26Z</time>
      </trkpt>
      <trkpt lat="48.35362" lon="0.52426">
        <ele>147</ele>
        <time>2022-05-21T23:40:43Z</time>
      </trkpt>
      <trkpt lat="48.35377" lon="0.52449">
        <ele>148</ele>
        <time>2022-05-21T23:40:46Z</time>
      </trkpt>
      <trkpt lat="48.35417" lon="0.52493">
        <ele>150</ele>
        <time>2022-05-21T23:40:55Z</time>
      </trkpt>
      <trkpt lat="48.35604" lon="0.52639">
        <ele>165</ele>
        <time>2022-05-21T23:41:33Z</time>
      </trkpt>
      <trkpt lat="48.35722" lon="0.52703">
        <ele>166</ele>
        <time>2022-05-21T23:41:55Z</time>
      </trkpt>
      <trkpt lat="48.35751" lon="0.52721">
        <ele>166</ele>
        <time>2022-05-21T23:42:01Z</time>
      </trkpt>
      <trkpt lat="48.35795" lon="0.52754">
        <ele>165</ele>
        <time>2022-05-21T23:42:09Z</time>
      </trkpt>
      <trkpt lat="48.35879" lon="0.52793">
        <ele>159</ele>
        <time>2022-05-21T23:42:25Z</time>
      </trkpt>
      <trkpt lat="48.36005" lon="0.52879">
        <ele>151</ele>
        <time>2022-05-21T23:42:50Z</time>
      </trkpt>
      <trkpt lat="48.36038" lon="0.52909">
        <ele>149</ele>
        <time>2022-05-21T23:42:56Z</time>
      </trkpt>
      <trkpt lat="48.36079" lon="0.52955">
        <ele>146</ele>
        <time>2022-05-21T23:43:06Z</time>
      </trkpt>
      <trkpt lat="48.36121" lon="0.5301">
        <ele>143</ele>
        <time>2022-05-21T23:43:15Z</time>
      </trkpt>
      <trkpt lat="48.36173" lon="0.53089">
        <ele>139</ele>
        <time>2022-05-21T23:43:29Z</time>
      </trkpt>
      <trkpt lat="48.36201" lon="0.53116">
        <ele>139</ele>
        <time>2022-05-21T23:43:35Z</time>
      </trkpt>
      <trkpt lat="48.36216" lon="0.53124">
        <ele>139</ele>
        <time>2022-05-21T23:43:37Z</time>
      </trkpt>
      <trkpt lat="48.36228" lon="0.53134">
        <ele>139</ele>
        <time>2022-05-21T23:43:40Z</time>
      </trkpt>
      <trkpt lat="48.36278" lon="0.53183">
        <ele>140</ele>
        <time>2022-05-21T23:43:50Z</time>
      </trkpt>
      <trkpt lat="48.36322" lon="0.53252">
        <ele>141</ele>
        <time>2022-05-21T23:44:02Z</time>
      </trkpt>
      <trkpt lat="48.36348" lon="0.53284">
        <ele>141</ele>
        <time>2022-05-21T23:44:08Z</time>
      </trkpt>
      <trkpt lat="48.36391" lon="0.53321">
        <ele>142</ele>
        <time>2022-05-21T23:44:16Z</time>
      </trkpt>
      <trkpt lat="48.36417" lon="0.5334">
        <ele>142</ele>
        <time>2022-05-21T23:44:22Z</time>
      </trkpt>
      <trkpt lat="48.36446" lon="0.53367">
        <ele>142</ele>
        <time>2022-05-21T23:44:28Z</time>
      </trkpt>
      <trkpt lat="48.36492" lon="0.53441">
        <ele>143</ele>
        <time>2022-05-21T23:44:40Z</time>
      </trkpt>
      <trkpt lat="48.36503" lon="0.53467">
        <ele>144</ele>
        <time>2022-05-21T23:44:43Z</time>
      </trkpt>
      <trkpt lat="48.36538" lon="0.53569">
        <ele>146</ele>
        <time>2022-05-21T23:44:57Z</time>
      </trkpt>
      <trkpt lat="48.36561" lon="0.53658">
        <ele>144</ele>
        <time>2022-05-21T23:45:08Z</time>
      </trkpt>
      <trkpt lat="48.36611" lon="0.53898">
        <ele>144</ele>
        <time>2022-05-21T23:45:38Z</time>
      </trkpt>
      <trkpt lat="48.36627" lon="0.53944">
        <ele>144</ele>
        <time>2022-05-21T23:45:44Z</time>
      </trkpt>
      <trkpt lat="48.36653" lon="0.5399">
        <ele>146</ele>
        <time>2022-05-21T23:45:51Z</time>
      </trkpt>
      <trkpt lat="48.36669" lon="0.54008">
        <ele>148</ele>
        <time>2022-05-21T23:45:55Z</time>
      </trkpt>
      <trkpt lat="48.36732" lon="0.54107">
        <ele>155</ele>
        <time>2022-05-21T23:46:11Z</time>
      </trkpt>
      <trkpt lat="48.36799" lon="0.54173">
        <ele>156</ele>
        <time>2022-05-21T23:46:25Z</time>
      </trkpt>
      <trkpt lat="48.3683" lon="0.54212">
        <ele>158</ele>
        <time>2022-05-21T23:46:32Z</time>
      </trkpt>
      <trkpt lat="48.36873" lon="0.54287">
        <ele>157</ele>
        <time>2022-05-21T23:46:44Z</time>
      </trkpt>
      <trkpt lat="48.36899" lon="0.54351">
        <ele>158</ele>
        <time>2022-05-21T23:46:53Z</time>
      </trkpt>
      <trkpt lat="48.3693" lon="0.54403">
        <ele>159</ele>
        <time>2022-05-21T23:47:01Z</time>
      </trkpt>
      <trkpt lat="48.3694" lon="0.54416">
        <ele>159</ele>
        <time>2022-05-21T23:47:04Z</time>
      </trkpt>
      <trkpt lat="48.36959" lon="0.54429">
        <ele>158</ele>
        <time>2022-05-21T23:47:07Z</time>
      </trkpt>
      <trkpt lat="48.3699" lon="0.54423">
        <ele>154</ele>
        <time>2022-05-21T23:47:13Z</time>
      </trkpt>
      <trkpt lat="48.36999" lon="0.5443">
        <ele>154</ele>
        <time>2022-05-21T23:47:15Z</time>
      </trkpt>
      <trkpt lat="48.37011" lon="0.54481">
        <ele>157</ele>
        <time>2022-05-21T23:47:21Z</time>
      </trkpt>
      <trkpt lat="48.37018" lon="0.54491">
        <ele>157</ele>
        <time>2022-05-21T23:47:23Z</time>
      </trkpt>
      <trkpt lat="48.37036" lon="0.54508">
        <ele>156</ele>
        <time>2022-05-21T23:47:27Z</time>
      </trkpt>
      <trkpt lat="48.37117" lon="0.54629">
        <ele>156</ele>
        <time>2022-05-21T23:47:47Z</time>
      </trkpt>
      <trkpt lat="48.37146" lon="0.54689">
        <ele>156</ele>
        <time>2022-05-21T23:47:56Z</time>
      </trkpt>
      <trkpt lat="48.3716" lon="0.54738">
        <ele>155</ele>
        <time>2022-05-21T23:48:02Z</time>
      </trkpt>
      <trkpt lat="48.3717" lon="0.54761">
        <ele>154</ele>
        <time>2022-05-21T23:48:05Z</time>
      </trkpt>
      <trkpt lat="48.37184" lon="0.54776">
        <ele>153</ele>
        <time>2022-05-21T23:48:08Z</time>
      </trkpt>
      <trkpt lat="48.37213" lon="0.54796">
        <ele>152</ele>
        <time>2022-05-21T23:48:14Z</time>
      </trkpt>
      <trkpt lat="48.37251" lon="0.54837">
        <ele>153</ele>
        <time>2022-05-21T23:48:22Z</time>
      </trkpt>
      <trkpt lat="48.3726" lon="0.54839">
        <ele>154</ele>
        <time>2022-05-21T23:48:24Z</time>
      </trkpt>
      <trkpt lat="48.37269" lon="0.54836">
        <ele>154</ele>
        <time>2022-05-21T23:48:25Z</time>
      </trkpt>
      <trkpt lat="48.37278" lon="0.54827">
        <ele>154</ele>
        <time>2022-05-21T23:48:27Z</time>
      </trkpt>
      <trkpt lat="48.37295" lon="0.54816">
        <ele>155</ele>
        <time>2022-05-21T23:48:31Z</time>
      </trkpt>
      <trkpt lat="48.37344" lon="0.54821">
        <ele>158</ele>
        <time>2022-05-21T23:48:39Z</time>
      </trkpt>
      <trkpt lat="48.37383" lon="0.54802">
        <ele>158</ele>
        <time>2022-05-21T23:48:47Z</time>
      </trkpt>
      <trkpt lat="48.37403" lon="0.54799">
        <ele>159</ele>
        <time>2022-05-21T23:48:50Z</time>
      </trkpt>
      <trkpt lat="48.37467" lon="0.54798">
        <ele>162</ele>
        <time>2022-05-21T23:49:02Z</time>
      </trkpt>
      <trkpt lat="48.37496" lon="0.54801">
        <ele>163</ele>
        <time>2022-05-21T23:49:07Z</time>
      </trkpt>
      <trkpt lat="48.37527" lon="0.54799">
        <ele>164</ele>
        <time>2022-05-21T23:49:12Z</time>
      </trkpt>
      <trkpt lat="48.37537" lon="0.54801">
        <ele>164</ele>
        <time>2022-05-21T23:49:14Z</time>
      </trkpt>
      <trkpt lat="48.37579" lon="0.54797">
        <ele>164</ele>
        <time>2022-05-21T23:49:22Z</time>
      </trkpt>
      <trkpt lat="48.37619" lon="0.54801">
        <ele>166</ele>
        <time>2022-05-21T23:49:29Z</time>
      </trkpt>
      <trkpt lat="48.37625" lon="0.54812">
        <ele>167</ele>
        <time>2022-05-21T23:49:30Z</time>
      </trkpt>
      <trkpt lat="48.37626" lon="0.5487">
        <ele>170</ele>
        <time>2022-05-21T23:49:37Z</time>
      </trkpt>
      <trkpt lat="48.37642" lon="0.55041">
        <ele>179</ele>
        <time>2022-05-21T23:49:58Z</time>
      </trkpt>
      <trkpt lat="48.37644" lon="0.55158">
        <ele>183</ele>
        <time>2022-05-21T23:50:12Z</time>
      </trkpt>
      <trkpt lat="48.37647" lon="0.55172">
        <ele>184</ele>
        <time>2022-05-21T23:50:13Z</time>
      </trkpt>
      <trkpt lat="48.37653" lon="0.55245">
        <ele>189</ele>
        <time>2022-05-21T23:50:22Z</time>
      </trkpt>
      <trkpt lat="48.3765" lon="0.55273">
        <ele>191</ele>
        <time>2022-05-21T23:50:25Z</time>
      </trkpt>
      <trkpt lat="48.37651" lon="0.55319">
        <ele>193</ele>
        <time>2022-05-21T23:50:31Z</time>
      </trkpt>
      <trkpt lat="48.37663" lon="0.55457">
        <ele>198</ele>
        <time>2022-05-21T23:50:47Z</time>
      </trkpt>
      <trkpt lat="48.37667" lon="0.55581">
        <ele>199</ele>
        <time>2022-05-21T23:51:02Z</time>
      </trkpt>
      <trkpt lat="48.37664" lon="0.55596">
        <ele>199</ele>
        <time>2022-05-21T23:51:04Z</time>
      </trkpt>
      <trkpt lat="48.37646" lon="0.55629">
        <ele>199</ele>
        <time>2022-05-21T23:51:09Z</time>
      </trkpt>
      <trkpt lat="48.37617" lon="0.55655">
        <ele>199</ele>
        <time>2022-05-21T23:51:15Z</time>
      </trkpt>
      <trkpt lat="48.3761" lon="0.55666">
        <ele>199</ele>
        <time>2022-05-21T23:51:17Z</time>
      </trkpt>
      <trkpt lat="48.37599" lon="0.55695">
        <ele>199</ele>
        <time>2022-05-21T23:51:21Z</time>
      </trkpt>
      <trkpt lat="48.37591" lon="0.55754">
        <ele>201</ele>
        <time>2022-05-21T23:51:28Z</time>
      </trkpt>
      <trkpt lat="48.37568" lon="0.55859">
        <ele>204</ele>
        <time>2022-05-21T23:51:41Z</time>
      </trkpt>
      <trkpt lat="48.37549" lon="0.55981">
        <ele>211</ele>
        <time>2022-05-21T23:51:56Z</time>
      </trkpt>
      <trkpt lat="48.37535" lon="0.56039">
        <ele>211</ele>
        <time>2022-05-21T23:52:03Z</time>
      </trkpt>
      <trkpt lat="48.37532" lon="0.56069">
        <ele>212</ele>
        <time>2022-05-21T23:52:06Z</time>
      </trkpt>
      <trkpt lat="48.3751" lon="0.56122">
        <ele>212</ele>
        <time>2022-05-21T23:52:14Z</time>
      </trkpt>
      <trkpt lat="48.37499" lon="0.56163">
        <ele>214</ele>
        <time>2022-05-21T23:52:19Z</time>
      </trkpt>
      <trkpt lat="48.37496" lon="0.56192">
        <ele>214</ele>
        <time>2022-05-21T23:52:23Z</time>
      </trkpt>
      <trkpt lat="48.37502" lon="0.56252">
        <ele>217</ele>
        <time>2022-05-21T23:52:30Z</time>
      </trkpt>
      <trkpt lat="48.37513" lon="0.56292">
        <ele>218</ele>
        <time>2022-05-21T23:52:35Z</time>
      </trkpt>
      <trkpt lat="48.37521" lon="0.56305">
        <ele>219</ele>
        <time>2022-05-21T23:52:37Z</time>
      </trkpt>
      <trkpt lat="48.37536" lon="0.56343">
        <ele>219</ele>
        <time>2022-05-21T23:52:42Z</time>
      </trkpt>
      <trkpt lat="48.37543" lon="0.5637">
        <ele>219</ele>
        <time>2022-05-21T23:52:46Z</time>
      </trkpt>
      <trkpt lat="48.37539" lon="0.56387">
        <ele>218</ele>
        <time>2022-05-21T23:52:48Z</time>
      </trkpt>
      <trkpt lat="48.37511" lon="0.56443">
        <ele>217</ele>
        <time>2022-05-21T23:52:56Z</time>
      </trkpt>
      <trkpt lat="48.37501" lon="0.56469">
        <ele>217</ele>
        <time>2022-05-21T23:53:00Z</time>
      </trkpt>
      <trkpt lat="48.37484" lon="0.56564">
        <ele>217</ele>
        <time>2022-05-21T23:53:11Z</time>
      </trkpt>
      <trkpt lat="48.37472" lon="0.56608">
        <ele>216</ele>
        <time>2022-05-21T23:53:17Z</time>
      </trkpt>
      <trkpt lat="48.37463" lon="0.56685">
        <ele>215</ele>
        <time>2022-05-21T23:53:26Z</time>
      </trkpt>
      <trkpt lat="48.37457" lon="0.56717">
        <ele>215</ele>
        <time>2022-05-21T23:53:30Z</time>
      </trkpt>
      <trkpt lat="48.37452" lon="0.56763">
        <ele>215</ele>
        <time>2022-05-21T23:53:35Z</time>
      </trkpt>
      <trkpt lat="48.37472" lon="0.56772">
        <ele>215</ele>
        <time>2022-05-21T23:53:39Z</time>
      </trkpt>
      <trkpt lat="48.37477" lon="0.56785">
        <ele>215</ele>
        <time>2022-05-21T23:53:41Z</time>
      </trkpt>
      <trkpt lat="48.37485" lon="0.56792">
        <ele>215</ele>
        <time>2022-05-21T23:53:43Z</time>
      </trkpt>
      <trkpt lat="48.37486" lon="0.56777">
        <ele>215</ele>
        <time>2022-05-21T23:53:44Z</time>
      </trkpt>
      <trkpt lat="48.37488" lon="0.56791">
        <ele>215</ele>
        <time>2022-05-21T23:53:46Z</time>
      </trkpt>
      <trkpt lat="48.37482" lon="0.56778">
        <ele>215</ele>
        <time>2022-05-21T23:53:48Z</time>
      </trkpt>
      <trkpt lat="48.37496" lon="0.56767">
        <ele>214</ele>
        <time>2022-05-21T23:53:51Z</time>
      </trkpt>
      <trkpt lat="48.37484" lon="0.56776">
        <ele>215</ele>
        <time>2022-05-21T23:53:53Z</time>
      </trkpt>
      <trkpt lat="48.37474" lon="0.56772">
        <ele>215</ele>
        <time>2022-05-21T23:53:55Z</time>
      </trkpt>
      <trkpt lat="48.37466" lon="0.56762">
        <ele>215</ele>
        <time>2022-05-21T23:53:57Z</time>
      </trkpt>
      <trkpt lat="48.37464" lon="0.56749">
        <ele>215</ele>
        <time>2022-05-21T23:53:58Z</time>
      </trkpt>
      <trkpt lat="48.37461" lon="0.56702">
        <ele>215</ele>
        <time>2022-05-21T23:54:04Z</time>
      </trkpt>
      <trkpt lat="48.37462" lon="0.56668">
        <ele>214</ele>
        <time>2022-05-21T23:54:08Z</time>
      </trkpt>
      <trkpt lat="48.37465" lon="0.56653">
        <ele>215</ele>
        <time>2022-05-21T23:54:10Z</time>
      </trkpt>
      <trkpt lat="48.37465" lon="0.56606">
        <ele>216</ele>
        <time>2022-05-21T23:54:15Z</time>
      </trkpt>
      <trkpt lat="48.37494" lon="0.56483">
        <ele>217</ele>
        <time>2022-05-21T23:54:31Z</time>
      </trkpt>
      <trkpt lat="48.37522" lon="0.56434">
        <ele>216</ele>
        <time>2022-05-21T23:54:38Z</time>
      </trkpt>
      <trkpt lat="48.37526" lon="0.56419">
        <ele>217</ele>
        <time>2022-05-21T23:54:40Z</time>
      </trkpt>
      <trkpt lat="48.37544" lon="0.56379">
        <ele>218</ele>
        <time>2022-05-21T23:54:46Z</time>
      </trkpt>
      <trkpt lat="48.37544" lon="0.56365">
        <ele>219</ele>
        <time>2022-05-21T23:54:48Z</time>
      </trkpt>
      <trkpt lat="48.37524" lon="0.56333">
        <ele>218</ele>
        <time>2022-05-21T23:54:53Z</time>
      </trkpt>
      <trkpt lat="48.37505" lon="0.56276">
        <ele>217</ele>
        <time>2022-05-21T23:55:00Z</time>
      </trkpt>
      <trkpt lat="48.37498" lon="0.5624">
        <ele>216</ele>
        <time>2022-05-21T23:55:05Z</time>
      </trkpt>
      <trkpt lat="48.37496" lon="0.5619">
        <ele>214</ele>
        <time>2022-05-21T23:55:11Z</time>
      </trkpt>
      <trkpt lat="48.37507" lon="0.56138">
        <ele>213</ele>
        <time>2022-05-21T23:55:17Z</time>
      </trkpt>
      <trkpt lat="48.37535" lon="0.56073">
        <ele>212</ele>
        <time>2022-05-21T23:55:26Z</time>
      </trkpt>
      <trkpt lat="48.37535" lon="0.56038">
        <ele>211</ele>
        <time>2022-05-21T23:55:31Z</time>
      </trkpt>
      <trkpt lat="48.37544" lon="0.56003">
        <ele>211</ele>
        <time>2022-05-21T23:55:35Z</time>
      </trkpt>
      <trkpt lat="48.37549" lon="0.55965">
        <ele>210</ele>
        <time>2022-05-21T23:55:40Z</time>
      </trkpt>
      <trkpt lat="48.37567" lon="0.55869">
        <ele>204</ele>
        <time>2022-05-21T23:55:51Z</time>
      </trkpt>
      <trkpt lat="48.37604" lon="0.55689">
        <ele>199</ele>
        <time>2022-05-21T23:56:14Z</time>
      </trkpt>
      <trkpt lat="48.37614" lon="0.55673">
        <ele>199</ele>
        <time>2022-05-21T23:56:16Z</time>
      </trkpt>
      <trkpt lat="48.37626" lon="0.55661">
        <ele>199</ele>
        <time>2022-05-21T23:56:19Z</time>
      </trkpt>
      <trkpt lat="48.37649" lon="0.55643">
        <ele>200</ele>
        <time>2022-05-21T23:56:23Z</time>
      </trkpt>
      <trkpt lat="48.37671" lon="0.55636">
        <ele>200</ele>
        <time>2022-05-21T23:56:27Z</time>
      </trkpt>
      <trkpt lat="48.37886" lon="0.55499">
        <ele>187</ele>
        <time>2022-05-21T23:57:09Z</time>
      </trkpt>
      <trkpt lat="48.37919" lon="0.55482">
        <ele>183</ele>
        <time>2022-05-21T23:57:15Z</time>
      </trkpt>
      <trkpt lat="48.37941" lon="0.55473">
        <ele>182</ele>
        <time>2022-05-21T23:57:19Z</time>
      </trkpt>
      <trkpt lat="48.37952" lon="0.55471">
        <ele>181</ele>
        <time>2022-05-21T23:57:21Z</time>
      </trkpt>
      <trkpt lat="48.37986" lon="0.55472">
        <ele>179</ele>
        <time>2022-05-21T23:57:27Z</time>
      </trkpt>
      <trkpt lat="48.38009" lon="0.55481">
        <ele>178</ele>
        <time>2022-05-21T23:57:31Z</time>
      </trkpt>
      <trkpt lat="48.38016" lon="0.55496">
        <ele>178</ele>
        <time>2022-05-21T23:57:34Z</time>
      </trkpt>
      <trkpt lat="48.38041" lon="0.55525">
        <ele>177</ele>
        <time>2022-05-21T23:57:39Z</time>
      </trkpt>
      <trkpt lat="48.38051" lon="0.55532">
        <ele>176</ele>
        <time>2022-05-21T23:57:41Z</time>
      </trkpt>
      <trkpt lat="48.38058" lon="0.55544">
        <ele>176</ele>
        <time>2022-05-21T23:57:43Z</time>
      </trkpt>
      <trkpt lat="48.38077" lon="0.55566">
        <ele>174</ele>
        <time>2022-05-21T23:57:47Z</time>
      </trkpt>
      <trkpt lat="48.38102" lon="0.55601">
        <ele>172</ele>
        <time>2022-05-21T23:57:53Z</time>
      </trkpt>
      <trkpt lat="48.3813" lon="0.55633">
        <ele>171</ele>
        <time>2022-05-21T23:58:00Z</time>
      </trkpt>
      <trkpt lat="48.38142" lon="0.5564">
        <ele>171</ele>
        <time>2022-05-21T23:58:02Z</time>
      </trkpt>
      <trkpt lat="48.38166" lon="0.55638">
        <ele>170</ele>
        <time>2022-05-21T23:58:06Z</time>
      </trkpt>
      <trkpt lat="48.38177" lon="0.55637">
        <ele>169</ele>
        <time>2022-05-21T23:58:08Z</time>
      </trkpt>
      <trkpt lat="48.382" lon="0.55627">
        <ele>168</ele>
        <time>2022-05-21T23:58:12Z</time>
      </trkpt>
      <trkpt lat="48.38229" lon="0.55601">
        <ele>165</ele>
        <time>2022-05-21T23:58:18Z</time>
      </trkpt>
      <trkpt lat="48.38255" lon="0.55571">
        <ele>163</ele>
        <time>2022-05-21T23:58:24Z</time>
      </trkpt>
      <trkpt lat="48.38263" lon="0.5556">
        <ele>163</ele>
        <time>2022-05-21T23:58:26Z</time>
      </trkpt>
      <trkpt lat="48.38274" lon="0.55533">
        <ele>162</ele>
        <time>2022-05-21T23:58:30Z</time>
      </trkpt>
      <trkpt lat="48.38289" lon="0.55476">
        <ele>161</ele>
        <time>2022-05-21T23:58:37Z</time>
      </trkpt>
      <trkpt lat="48.38301" lon="0.55364">
        <ele>160</ele>
        <time>2022-05-21T23:58:51Z</time>
      </trkpt>
      <trkpt lat="48.38306" lon="0.55344">
        <ele>160</ele>
        <time>2022-05-21T23:58:53Z</time>
      </trkpt>
      <trkpt lat="48.38312" lon="0.55326">
        <ele>160</ele>
        <time>2022-05-21T23:58:56Z</time>
      </trkpt>
      <trkpt lat="48.38326" lon="0.55299">
        <ele>160</ele>
        <time>2022-05-21T23:59:00Z</time>
      </trkpt>
      <trkpt lat="48.38341" lon="0.5528">
        <ele>161</ele>
        <time>2022-05-21T23:59:03Z</time>
      </trkpt>
      <trkpt lat="48.38362" lon="0.55265">
        <ele>162</ele>
        <time>2022-05-21T23:59:07Z</time>
      </trkpt>
      <trkpt lat="48.38474" lon="0.55209">
        <ele>166</ele>
        <time>2022-05-21T23:59:28Z</time>
      </trkpt>
      <trkpt lat="48.38522" lon="0.55182">
        <ele>168</ele>
        <time>2022-05-21T23:59:37Z</time>
      </trkpt>
      <trkpt lat="48.38564" lon="0.55163">
        <ele>170</ele>
        <time>2022-05-21T23:59:45Z</time>
      </trkpt>
      <trkpt lat="48.38591" lon="0.55154">
        <ele>172</ele>
        <time>2022-05-21T23:59:50Z</time>
      </trkpt>
      <trkpt lat="48.38621" lon="0.55153">
        <ele>175</ele>
        <time>2022-05-21T23:59:55Z</time>
      </trkpt>
      <trkpt lat="48.38641" lon="0.55159">
        <ele>177</ele>
        <time>2022-05-21T23:59:59Z</time>
      </trkpt>
      <trkpt lat="48.38669" lon="0.55173">
        <ele>180</ele>
        <time>2022-05-22T00:00:04Z</time>
      </trkpt>
      <trkpt lat="48.38678" lon="0.5518">
        <ele>182</ele>
        <time>2022-05-22T00:00:06Z</time>
      </trkpt>
      <trkpt lat="48.38702" lon="0.55206">
        <ele>187</ele>
        <time>2022-05-22T00:00:11Z</time>
      </trkpt>
      <trkpt lat="48.38721" lon="0.55236">
        <ele>191</ele>
        <time>2022-05-22T00:00:16Z</time>
      </trkpt>
      <trkpt lat="48.38794" lon="0.55336">
        <ele>198</ele>
        <time>2022-05-22T00:00:34Z</time>
      </trkpt>
      <trkpt lat="48.38842" lon="0.55387">
        <ele>204</ele>
        <time>2022-05-22T00:00:44Z</time>
      </trkpt>
      <trkpt lat="48.38886" lon="0.55423">
        <ele>207</ele>
        <time>2022-05-22T00:00:53Z</time>
      </trkpt>
      <trkpt lat="48.38895" lon="0.55429">
        <ele>208</ele>
        <time>2022-05-22T00:00:55Z</time>
      </trkpt>
      <trkpt lat="48.38914" lon="0.55433">
        <ele>211</ele>
        <time>2022-05-22T00:00:58Z</time>
      </trkpt>
      <trkpt lat="48.38932" lon="0.55443">
        <ele>214</ele>
        <time>2022-05-22T00:01:02Z</time>
      </trkpt>
      <trkpt lat="48.38944" lon="0.55443">
        <ele>216</ele>
        <time>2022-05-22T00:01:04Z</time>
      </trkpt>
      <trkpt lat="48.38953" lon="0.55448">
        <ele>217</ele>
        <time>2022-05-22T00:01:06Z</time>
      </trkpt>
      <trkpt lat="48.38962" lon="0.55448">
        <ele>218</ele>
        <time>2022-05-22T00:01:07Z</time>
      </trkpt>
      <trkpt lat="48.38991" lon="0.5546">
        <ele>222</ele>
        <time>2022-05-22T00:01:13Z</time>
      </trkpt>
      <trkpt lat="48.39031" lon="0.55459">
        <ele>226</ele>
        <time>2022-05-22T00:01:20Z</time>
      </trkpt>
      <trkpt lat="48.39036" lon="0.55471">
        <ele>225</ele>
        <time>2022-05-22T00:01:21Z</time>
      </trkpt>
      <trkpt lat="48.39032" lon="0.55484">
        <ele>223</ele>
        <time>2022-05-22T00:01:23Z</time>
      </trkpt>
      <trkpt lat="48.39034" lon="0.55498">
        <ele>222</ele>
        <time>2022-05-22T00:01:25Z</time>
      </trkpt>
      <trkpt lat="48.39039" lon="0.5551">
        <ele>222</ele>
        <time>2022-05-22T00:01:26Z</time>
      </trkpt>
      <trkpt lat="48.3909" lon="0.5555">
        <ele>227</ele>
        <time>2022-05-22T00:01:37Z</time>
      </trkpt>
      <trkpt lat="48.391" lon="0.55555">
        <ele>228</ele>
        <time>2022-05-22T00:01:38Z</time>
      </trkpt>
      <trkpt lat="48.39106" lon="0.55568">
        <ele>229</ele>
        <time>2022-05-22T00:01:40Z</time>
      </trkpt>
      <trkpt lat="48.39105" lon="0.55587">
        <ele>229</ele>
        <time>2022-05-22T00:01:43Z</time>
      </trkpt>
      <trkpt lat="48.39115" lon="0.55632">
        <ele>231</ele>
        <time>2022-05-22T00:01:48Z</time>
      </trkpt>
      <trkpt lat="48.39152" lon="0.55722">
        <ele>235</ele>
        <time>2022-05-22T00:02:01Z</time>
      </trkpt>
      <trkpt lat="48.39153" lon="0.55753">
        <ele>234</ele>
        <time>2022-05-22T00:02:04Z</time>
      </trkpt>
      <trkpt lat="48.3915" lon="0.55767">
        <ele>234</ele>
        <time>2022-05-22T00:02:06Z</time>
      </trkpt>
      <trkpt lat="48.39135" lon="0.55785">
        <ele>234</ele>
        <time>2022-05-22T00:02:10Z</time>
      </trkpt>
      <trkpt lat="48.3913" lon="0.55812">
        <ele>234</ele>
        <time>2022-05-22T00:02:13Z</time>
      </trkpt>
      <trkpt lat="48.39121" lon="0.55819">
        <ele>234</ele>
        <time>2022-05-22T00:02:15Z</time>
      </trkpt>
      <trkpt lat="48.39125" lon="0.55847">
        <ele>235</ele>
        <time>2022-05-22T00:02:18Z</time>
      </trkpt>
      <trkpt lat="48.39134" lon="0.55872">
        <ele>236</ele>
        <time>2022-05-22T00:02:21Z</time>
      </trkpt>
      <trkpt lat="48.39153" lon="0.55907">
        <ele>238</ele>
        <time>2022-05-22T00:02:27Z</time>
      </trkpt>
      <trkpt lat="48.39193" lon="0.55971">
        <ele>242</ele>
        <time>2022-05-22T00:02:37Z</time>
      </trkpt>
      <trkpt lat="48.39197" lon="0.55986">
        <ele>243</ele>
        <time>2022-05-22T00:02:39Z</time>
      </trkpt>
      <trkpt lat="48.39206" lon="0.55996">
        <ele>243</ele>
        <time>2022-05-22T00:02:41Z</time>
      </trkpt>
      <trkpt lat="48.39211" lon="0.5601">
        <ele>244</ele>
        <time>2022-05-22T00:02:43Z</time>
      </trkpt>
      <trkpt lat="48.39219" lon="0.56019">
        <ele>244</ele>
        <time>2022-05-22T00:02:45Z</time>
      </trkpt>
      <trkpt lat="48.39265" lon="0.56102">
        <ele>242</ele>
        <time>2022-05-22T00:02:57Z</time>
      </trkpt>
      <trkpt lat="48.39282" lon="0.56126">
        <ele>240</ele>
        <time>2022-05-22T00:03:02Z</time>
      </trkpt>
      <trkpt lat="48.39324" lon="0.56202">
        <ele>236</ele>
        <time>2022-05-22T00:03:13Z</time>
      </trkpt>
      <trkpt lat="48.39333" lon="0.5621">
        <ele>237</ele>
        <time>2022-05-22T00:03:15Z</time>
      </trkpt>
      <trkpt lat="48.39378" lon="0.56282">
        <ele>239</ele>
        <time>2022-05-22T00:03:27Z</time>
      </trkpt>
      <trkpt lat="48.39397" lon="0.56317">
        <ele>241</ele>
        <time>2022-05-22T00:03:32Z</time>
      </trkpt>
      <trkpt lat="48.39406" lon="0.56343">
        <ele>243</ele>
        <time>2022-05-22T00:03:36Z</time>
      </trkpt>
      <trkpt lat="48.39429" lon="0.56372">
        <ele>247</ele>
        <time>2022-05-22T00:03:41Z</time>
      </trkpt>
      <trkpt lat="48.39434" lon="0.56384">
        <ele>247</ele>
        <time>2022-05-22T00:03:43Z</time>
      </trkpt>
      <trkpt lat="48.39469" lon="0.56439">
        <ele>250</ele>
        <time>2022-05-22T00:03:52Z</time>
      </trkpt>
      <trkpt lat="48.39534" lon="0.56556">
        <ele>252</ele>
        <time>2022-05-22T00:04:10Z</time>
      </trkpt>
      <trkpt lat="48.39616" lon="0.56688">
        <ele>255</ele>
        <time>2022-05-22T00:04:31Z</time>
      </trkpt>
      <trkpt lat="48.39729" lon="0.56891">
        <ele>257</ele>
        <time>2022-05-22T00:05:02Z</time>
      </trkpt>
      <trkpt lat="48.39804" lon="0.5701">
        <ele>258</ele>
        <time>2022-05-22T00:05:22Z</time>
      </trkpt>
      <trkpt lat="48.39802" lon="0.57031">
        <ele>256</ele>
        <time>2022-05-22T00:05:24Z</time>
      </trkpt>
      <trkpt lat="48.39827" lon="0.57062">
        <ele>256</ele>
        <time>2022-05-22T00:05:30Z</time>
      </trkpt>
      <trkpt lat="48.39856" lon="0.57105">
        <ele>253</ele>
        <time>2022-05-22T00:05:37Z</time>
      </trkpt>
      <trkpt lat="48.3989" lon="0.57162">
        <ele>251</ele>
        <time>2022-05-22T00:05:46Z</time>
      </trkpt>
      <trkpt lat="48.3988" lon="0.57154">
        <ele>251</ele>
        <time>2022-05-22T00:05:48Z</time>
      </trkpt>
      <trkpt lat="48.39795" lon="0.57024">
        <ele>257</ele>
        <time>2022-05-22T00:06:10Z</time>
      </trkpt>
      <trkpt lat="48.39767" lon="0.56972">
        <ele>258</ele>
        <time>2022-05-22T00:06:18Z</time>
      </trkpt>
      <trkpt lat="48.39699" lon="0.56871">
        <ele>256</ele>
        <time>2022-05-22T00:06:35Z</time>
      </trkpt>
      <trkpt lat="48.39686" lon="0.56843">
        <ele>255</ele>
        <time>2022-05-22T00:06:39Z</time>
      </trkpt>
      <trkpt lat="48.39698" lon="0.56831">
        <ele>255</ele>
        <time>2022-05-22T00:06:41Z</time>
      </trkpt>
      <trkpt lat="48.39804" lon="0.57013">
        <ele>257</ele>
        <time>2022-05-22T00:07:10Z</time>
      </trkpt>
      <trkpt lat="48.39816" lon="0.57039">
        <ele>256</ele>
        <time>2022-05-22T00:07:14Z</time>
      </trkpt>
      <trkpt lat="48.39831" lon="0.5706">
        <ele>256</ele>
        <time>2022-05-22T00:07:17Z</time>
      </trkpt>
      <trkpt lat="48.3986" lon="0.57114">
        <ele>252</ele>
        <time>2022-05-22T00:07:26Z</time>
      </trkpt>
      <trkpt lat="48.39891" lon="0.57162">
        <ele>251</ele>
        <time>2022-05-22T00:07:33Z</time>
      </trkpt>
      <trkpt lat="48.39912" lon="0.572">
        <ele>251</ele>
        <time>2022-05-22T00:07:39Z</time>
      </trkpt>
      <trkpt lat="48.3992" lon="0.57207">
        <ele>251</ele>
        <time>2022-05-22T00:07:41Z</time>
      </trkpt>
      <trkpt lat="48.39936" lon="0.57246">
        <ele>249</ele>
        <time>2022-05-22T00:07:46Z</time>
      </trkpt>
      <trkpt lat="48.39977" lon="0.57423">
        <ele>252</ele>
        <time>2022-05-22T00:08:08Z</time>
      </trkpt>
      <trkpt lat="48.39986" lon="0.57486">
        <ele>253</ele>
        <time>2022-05-22T00:08:16Z</time>
      </trkpt>
      <trkpt lat="48.4" lon="0.57555">
        <ele>255</ele>
        <time>2022-05-22T00:08:25Z</time>
      </trkpt>
      <trkpt lat="48.40008" lon="0.57614">
        <ele>256</ele>
        <time>2022-05-22T00:08:32Z</time>
      </trkpt>
      <trkpt lat="48.40018" lon="0.57655">
        <ele>256</ele>
        <time>2022-05-22T00:08:37Z</time>
      </trkpt>
      <trkpt lat="48.40019" lon="0.57677">
        <ele>256</ele>
        <time>2022-05-22T00:08:39Z</time>
      </trkpt>
      <trkpt lat="48.4003" lon="0.57723">
        <ele>255</ele>
        <time>2022-05-22T00:08:45Z</time>
      </trkpt>
      <trkpt lat="48.40035" lon="0.57767">
        <ele>253</ele>
        <time>2022-05-22T00:08:51Z</time>
      </trkpt>
      <trkpt lat="48.40029" lon="0.57822">
        <ele>252</ele>
        <time>2022-05-22T00:08:57Z</time>
      </trkpt>
      <trkpt lat="48.4002" lon="0.57864">
        <ele>251</ele>
        <time>2022-05-22T00:09:02Z</time>
      </trkpt>
      <trkpt lat="48.40005" lon="0.57899">
        <ele>252</ele>
        <time>2022-05-22T00:09:07Z</time>
      </trkpt>
      <trkpt lat="48.39996" lon="0.57911">
        <ele>253</ele>
        <time>2022-05-22T00:09:09Z</time>
      </trkpt>
      <trkpt lat="48.39981" lon="0.57945">
        <ele>252</ele>
        <time>2022-05-22T00:09:14Z</time>
      </trkpt>
      <trkpt lat="48.39965" lon="0.57989">
        <ele>250</ele>
        <time>2022-05-22T00:09:20Z</time>
      </trkpt>
      <trkpt lat="48.3991" lon="0.58161">
        <ele>247</ele>
        <time>2022-05-22T00:09:43Z</time>
      </trkpt>
      <trkpt lat="48.39896" lon="0.58194">
        <ele>247</ele>
        <time>2022-05-22T00:09:47Z</time>
      </trkpt>
      <trkpt lat="48.39895" lon="0.58209">
        <ele>246</ele>
        <time>2022-05-22T00:09:49Z</time>
      </trkpt>
      <trkpt lat="48.39915" lon="0.58206">
        <ele>245</ele>
        <time>2022-05-22T00:09:53Z</time>
      </trkpt>
      <trkpt lat="48.40006" lon="0.58095">
        <ele>238</ele>
        <time>2022-05-22T00:10:14Z</time>
      </trkpt>
      <trkpt lat="48.40047" lon="0.58056">
        <ele>234</ele>
        <time>2022-05-22T00:10:22Z</time>
      </trkpt>
      <trkpt lat="48.40059" lon="0.58047">
        <ele>233</ele>
        <time>2022-05-22T00:10:25Z</time>
      </trkpt>
      <trkpt lat="48.40087" lon="0.58034">
        <ele>231</ele>
        <time>2022-05-22T00:10:30Z</time>
      </trkpt>
      <trkpt lat="48.40118" lon="0.5803">
        <ele>228</ele>
        <time>2022-05-22T00:10:35Z</time>
      </trkpt>
      <trkpt lat="48.40154" lon="0.58031">
        <ele>226</ele>
        <time>2022-05-22T00:10:42Z</time>
      </trkpt>
      <trkpt lat="48.40338" lon="0.58042">
        <ele>225</ele>
        <time>2022-05-22T00:11:14Z</time>
      </trkpt>
      <trkpt lat="48.40532" lon="0.58043">
        <ele>221</ele>
        <time>2022-05-22T00:11:49Z</time>
      </trkpt>
      <trkpt lat="48.40571" lon="0.58048">
        <ele>220</ele>
        <time>2022-05-22T00:11:56Z</time>
      </trkpt>
      <trkpt lat="48.40586" lon="0.58053">
        <ele>220</ele>
        <time>2022-05-22T00:11:59Z</time>
      </trkpt>
      <trkpt lat="48.4061" lon="0.58069">
        <ele>219</ele>
        <time>2022-05-22T00:12:03Z</time>
      </trkpt>
      <trkpt lat="48.407" lon="0.58136">
        <ele>216</ele>
        <time>2022-05-22T00:12:21Z</time>
      </trkpt>
      <trkpt lat="48.4078" lon="0.58202">
        <ele>212</ele>
        <time>2022-05-22T00:12:37Z</time>
      </trkpt>
      <trkpt lat="48.40835" lon="0.58241">
        <ele>204</ele>
        <time>2022-05-22T00:12:48Z</time>
      </trkpt>
      <trkpt lat="48.4097" lon="0.58353">
        <ele>191</ele>
        <time>2022-05-22T00:13:16Z</time>
      </trkpt>
      <trkpt lat="48.41094" lon="0.58446">
        <ele>186</ele>
        <time>2022-05-22T00:13:40Z</time>
      </trkpt>
      <trkpt lat="48.41133" lon="0.5848">
        <ele>184</ele>
        <time>2022-05-22T00:13:48Z</time>
      </trkpt>
      <trkpt lat="48.41195" lon="0.58541">
        <ele>181</ele>
        <time>2022-05-22T00:14:02Z</time>
      </trkpt>
      <trkpt lat="48.41234" lon="0.58566">
        <ele>180</ele>
        <time>2022-05-22T00:14:09Z</time>
      </trkpt>
      <trkpt lat="48.41245" lon="0.58576">
        <ele>179</ele>
        <time>2022-05-22T00:14:11Z</time>
      </trkpt>
      <trkpt lat="48.41255" lon="0.58589">
        <ele>179</ele>
        <time>2022-05-22T00:14:14Z</time>
      </trkpt>
      <trkpt lat="48.41271" lon="0.58618">
        <ele>179</ele>
        <time>2022-05-22T00:14:18Z</time>
      </trkpt>
      <trkpt lat="48.41298" lon="0.58702">
        <ele>180</ele>
        <time>2022-05-22T00:14:29Z</time>
      </trkpt>
      <trkpt lat="48.41311" lon="0.58729">
        <ele>180</ele>
        <time>2022-05-22T00:14:33Z</time>
      </trkpt>
      <trkpt lat="48.4132" lon="0.58737">
        <ele>180</ele>
        <time>2022-05-22T00:14:35Z</time>
      </trkpt>
      <trkpt lat="48.41329" lon="0.58741">
        <ele>180</ele>
        <time>2022-05-22T00:14:37Z</time>
      </trkpt>
      <trkpt lat="48.41358" lon="0.58743">
        <ele>179</ele>
        <time>2022-05-22T00:14:42Z</time>
      </trkpt>
      <trkpt lat="48.41377" lon="0.58753">
        <ele>179</ele>
        <time>2022-05-22T00:14:45Z</time>
      </trkpt>
      <trkpt lat="48.41418" lon="0.58788">
        <ele>178</ele>
        <time>2022-05-22T00:14:54Z</time>
      </trkpt>
      <trkpt lat="48.41478" lon="0.5883">
        <ele>176</ele>
        <time>2022-05-22T00:15:06Z</time>
      </trkpt>
      <trkpt lat="48.41516" lon="0.58869">
        <ele>173</ele>
        <time>2022-05-22T00:15:14Z</time>
      </trkpt>
      <trkpt lat="48.41527" lon="0.58886">
        <ele>173</ele>
        <time>2022-05-22T00:15:17Z</time>
      </trkpt>
      <trkpt lat="48.41547" lon="0.58926">
        <ele>171</ele>
        <time>2022-05-22T00:15:22Z</time>
      </trkpt>
      <trkpt lat="48.41592" lon="0.59022">
        <ele>172</ele>
        <time>2022-05-22T00:15:36Z</time>
      </trkpt>
      <trkpt lat="48.41629" lon="0.59086">
        <ele>175</ele>
        <time>2022-05-22T00:15:46Z</time>
      </trkpt>
      <trkpt lat="48.41693" lon="0.59182">
        <ele>182</ele>
        <time>2022-05-22T00:16:02Z</time>
      </trkpt>
      <trkpt lat="48.41817" lon="0.5931">
        <ele>184</ele>
        <time>2022-05-22T00:16:29Z</time>
      </trkpt>
      <trkpt lat="48.41941" lon="0.59444">
        <ele>182</ele>
        <time>2022-05-22T00:16:56Z</time>
      </trkpt>
      <trkpt lat="48.41983" lon="0.595">
        <ele>182</ele>
        <time>2022-05-22T00:17:06Z</time>
      </trkpt>
      <trkpt lat="48.42082" lon="0.59642">
        <ele>180</ele>
        <time>2022-05-22T00:17:31Z</time>
      </trkpt>
      <trkpt lat="48.42133" lon="0.59695">
        <ele>177</ele>
        <time>2022-05-22T00:17:42Z</time>
      </trkpt>
      <trkpt lat="48.4216" lon="0.59727">
        <ele>175</ele>
        <time>2022-05-22T00:17:48Z</time>
      </trkpt>
      <trkpt lat="48.42183" lon="0.59763">
        <ele>175</ele>
        <time>2022-05-22T00:17:54Z</time>
      </trkpt>
      <trkpt lat="48.42227" lon="0.59847">
        <ele>176</ele>
        <time>2022-05-22T00:18:06Z</time>
      </trkpt>
      <trkpt lat="48.42358" lon="0.60079">
        <ele>174</ele>
        <time>2022-05-22T00:18:42Z</time>
      </trkpt>
      <trkpt lat="48.4243" lon="0.60195">
        <ele>172</ele>
        <time>2022-05-22T00:19:01Z</time>
      </trkpt>
      <trkpt lat="48.42454" lon="0.6023">
        <ele>174</ele>
        <time>2022-05-22T00:19:07Z</time>
      </trkpt>
      <trkpt lat="48.42471" lon="0.60249">
        <ele>175</ele>
        <time>2022-05-22T00:19:11Z</time>
      </trkpt>
      <trkpt lat="48.42496" lon="0.60274">
        <ele>177</ele>
        <time>2022-05-22T00:19:16Z</time>
      </trkpt>
      <trkpt lat="48.42522" lon="0.60294">
        <ele>178</ele>
        <time>2022-05-22T00:19:21Z</time>
      </trkpt>
      <trkpt lat="48.42562" lon="0.60317">
        <ele>179</ele>
        <time>2022-05-22T00:19:29Z</time>
      </trkpt>
      <trkpt lat="48.42604" lon="0.60337">
        <ele>179</ele>
        <time>2022-05-22T00:19:37Z</time>
      </trkpt>
      <trkpt lat="48.42624" lon="0.6035">
        <ele>178</ele>
        <time>2022-05-22T00:19:41Z</time>
      </trkpt>
      <trkpt lat="48.42693" lon="0.6041">
        <ele>175</ele>
        <time>2022-05-22T00:19:55Z</time>
      </trkpt>
      <trkpt lat="48.42704" lon="0.60423">
        <ele>175</ele>
        <time>2022-05-22T00:19:57Z</time>
      </trkpt>
      <trkpt lat="48.42792" lon="0.60507">
        <ele>170</ele>
        <time>2022-05-22T00:20:16Z</time>
      </trkpt>
      <trkpt lat="48.42805" lon="0.60517">
        <ele>170</ele>
        <time>2022-05-22T00:20:18Z</time>
      </trkpt>
      <trkpt lat="48.42904" lon="0.60577">
        <ele>171</ele>
        <time>2022-05-22T00:20:37Z</time>
      </trkpt>
      <trkpt lat="48.42948" lon="0.60612">
        <ele>171</ele>
        <time>2022-05-22T00:20:46Z</time>
      </trkpt>
      <trkpt lat="48.42982" lon="0.60648">
        <ele>170</ele>
        <time>2022-05-22T00:20:54Z</time>
      </trkpt>
      <trkpt lat="48.43017" lon="0.60691">
        <ele>169</ele>
        <time>2022-05-22T00:21:02Z</time>
      </trkpt>
      <trkpt lat="48.43083" lon="0.60781">
        <ele>168</ele>
        <time>2022-05-22T00:21:17Z</time>
      </trkpt>
      <trkpt lat="48.43146" lon="0.60847">
        <ele>169</ele>
        <time>2022-05-22T00:21:31Z</time>
      </trkpt>
      <trkpt lat="48.43155" lon="0.60852">
        <ele>169</ele>
        <time>2022-05-22T00:21:33Z</time>
      </trkpt>
      <trkpt lat="48.43169" lon="0.60869">
        <ele>169</ele>
        <time>2022-05-22T00:21:36Z</time>
      </trkpt>
      <trkpt lat="48.43197" lon="0.60891">
        <ele>170</ele>
        <time>2022-05-22T00:21:42Z</time>
      </trkpt>
      <trkpt lat="48.43224" lon="0.60908">
        <ele>171</ele>
        <time>2022-05-22T00:21:47Z</time>
      </trkpt>
      <trkpt lat="48.4327" lon="0.60933">
        <ele>170</ele>
        <time>2022-05-22T00:21:56Z</time>
      </trkpt>
      <trkpt lat="48.43358" lon="0.60972">
        <ele>169</ele>
        <time>2022-05-22T00:22:12Z</time>
      </trkpt>
      <trkpt lat="48.43482" lon="0.61041">
        <ele>166</ele>
        <time>2022-05-22T00:22:35Z</time>
      </trkpt>
      <trkpt lat="48.43533" lon="0.61072">
        <ele>165</ele>
        <time>2022-05-22T00:22:45Z</time>
      </trkpt>
      <trkpt lat="48.43557" lon="0.6109">
        <ele>164</ele>
        <time>2022-05-22T00:22:50Z</time>
      </trkpt>
      <trkpt lat="48.43608" lon="0.61144">
        <ele>163</ele>
        <time>2022-05-22T00:23:01Z</time>
      </trkpt>
      <trkpt lat="48.4367" lon="0.61197">
        <ele>161</ele>
        <time>2022-05-22T00:23:14Z</time>
      </trkpt>
      <trkpt lat="48.4376" lon="0.61281">
        <ele>158</ele>
        <time>2022-05-22T00:23:33Z</time>
      </trkpt>
      <trkpt lat="48.43793" lon="0.61326">
        <ele>157</ele>
        <time>2022-05-22T00:23:40Z</time>
      </trkpt>
      <trkpt lat="48.43829" lon="0.61368">
        <ele>155</ele>
        <time>2022-05-22T00:23:49Z</time>
      </trkpt>
      <trkpt lat="48.43839" lon="0.61384">
        <ele>155</ele>
        <time>2022-05-22T00:23:51Z</time>
      </trkpt>
      <trkpt lat="48.43902" lon="0.61533">
        <ele>151</ele>
        <time>2022-05-22T00:24:12Z</time>
      </trkpt>
      <trkpt lat="48.43993" lon="0.61679">
        <ele>148</ele>
        <time>2022-05-22T00:24:36Z</time>
      </trkpt>
      <trkpt lat="48.44069" lon="0.61813">
        <ele>145</ele>
        <time>2022-05-22T00:24:56Z</time>
      </trkpt>
      <trkpt lat="48.44117" lon="0.61908">
        <ele>143</ele>
        <time>2022-05-22T00:25:11Z</time>
      </trkpt>
      <trkpt lat="48.44154" lon="0.61963">
        <ele>141</ele>
        <time>2022-05-22T00:25:20Z</time>
      </trkpt>
      <trkpt lat="48.44165" lon="0.62011">
        <ele>140</ele>
        <time>2022-05-22T00:25:26Z</time>
      </trkpt>
      <trkpt lat="48.44184" lon="0.62023">
        <ele>140</ele>
        <time>2022-05-22T00:25:29Z</time>
      </trkpt>
      <trkpt lat="48.44192" lon="0.62031">
        <ele>140</ele>
        <time>2022-05-22T00:25:31Z</time>
      </trkpt>
      <trkpt lat="48.44211" lon="0.62073">
        <ele>139</ele>
        <time>2022-05-22T00:25:37Z</time>
      </trkpt>
      <trkpt lat="48.44235" lon="0.62143">
        <ele>138</ele>
        <time>2022-05-22T00:25:46Z</time>
      </trkpt>
      <trkpt lat="48.44242" lon="0.62155">
        <ele>138</ele>
        <time>2022-05-22T00:25:48Z</time>
      </trkpt>
      <trkpt lat="48.44259" lon="0.62197">
        <ele>138</ele>
        <time>2022-05-22T00:25:54Z</time>
      </trkpt>
      <trkpt lat="48.44273" lon="0.62217">
        <ele>138</ele>
        <time>2022-05-22T00:25:58Z</time>
      </trkpt>
      <trkpt lat="48.44312" lon="0.62242">
        <ele>138</ele>
        <time>2022-05-22T00:26:05Z</time>
      </trkpt>
      <trkpt lat="48.44326" lon="0.62245">
        <ele>138</ele>
        <time>2022-05-22T00:26:08Z</time>
      </trkpt>
      <trkpt lat="48.44348" lon="0.62241">
        <ele>139</ele>
        <time>2022-05-22T00:26:12Z</time>
      </trkpt>
      <trkpt lat="48.44406" lon="0.62213">
        <ele>141</ele>
        <time>2022-05-22T00:26:22Z</time>
      </trkpt>
      <trkpt lat="48.44434" lon="0.62194">
        <ele>142</ele>
        <time>2022-05-22T00:26:28Z</time>
      </trkpt>
      <trkpt lat="48.44463" lon="0.62186">
        <ele>142</ele>
        <time>2022-05-22T00:26:33Z</time>
      </trkpt>
      <trkpt lat="48.44502" lon="0.62169">
        <ele>142</ele>
        <time>2022-05-22T00:26:40Z</time>
      </trkpt>
      <trkpt lat="48.4452" lon="0.62158">
        <ele>142</ele>
        <time>2022-05-22T00:26:44Z</time>
      </trkpt>
      <trkpt lat="48.4453" lon="0.62156">
        <ele>142</ele>
        <time>2022-05-22T00:26:46Z</time>
      </trkpt>
      <trkpt lat="48.44558" lon="0.62142">
        <ele>143</ele>
        <time>2022-05-22T00:26:51Z</time>
      </trkpt>
      <trkpt lat="48.44587" lon="0.62131">
        <ele>143</ele>
        <time>2022-05-22T00:26:56Z</time>
      </trkpt>
      <trkpt lat="48.44685" lon="0.62104">
        <ele>145</ele>
        <time>2022-05-22T00:27:14Z</time>
      </trkpt>
      <trkpt lat="48.44705" lon="0.62105">
        <ele>146</ele>
        <time>2022-05-22T00:27:17Z</time>
      </trkpt>
      <trkpt lat="48.44716" lon="0.62103">
        <ele>147</ele>
        <time>2022-05-22T00:27:19Z</time>
      </trkpt>
      <trkpt lat="48.44786" lon="0.62081">
        <ele>150</ele>
        <time>2022-05-22T00:27:32Z</time>
      </trkpt>
      <trkpt lat="48.44826" lon="0.62084">
        <ele>151</ele>
        <time>2022-05-22T00:27:39Z</time>
      </trkpt>
      <trkpt lat="48.44857" lon="0.62078">
        <ele>152</ele>
        <time>2022-05-22T00:27:45Z</time>
      </trkpt>
      <trkpt lat="48.44946" lon="0.62076">
        <ele>155</ele>
        <time>2022-05-22T00:28:01Z</time>
      </trkpt>
      <trkpt lat="48.44988" lon="0.62068">
        <ele>156</ele>
        <time>2022-05-22T00:28:08Z</time>
      </trkpt>
      <trkpt lat="48.44998" lon="0.62068">
        <ele>156</ele>
        <time>2022-05-22T00:28:10Z</time>
      </trkpt>
      <trkpt lat="48.45019" lon="0.62074">
        <ele>156</ele>
        <time>2022-05-22T00:28:14Z</time>
      </trkpt>
      <trkpt lat="48.45009" lon="0.62075">
        <ele>156</ele>
        <time>2022-05-22T00:28:16Z</time>
      </trkpt>
      <trkpt lat="48.45015" lon="0.6209">
        <ele>156</ele>
        <time>2022-05-22T00:28:18Z</time>
      </trkpt>
      <trkpt lat="48.45034" lon="0.62089">
        <ele>156</ele>
        <time>2022-05-22T00:28:21Z</time>
      </trkpt>
      <trkpt lat="48.45066" lon="0.62104">
        <ele>156</ele>
        <time>2022-05-22T00:28:27Z</time>
      </trkpt>
      <trkpt lat="48.45078" lon="0.62115">
        <ele>155</ele>
        <time>2022-05-22T00:28:30Z</time>
      </trkpt>
      <trkpt lat="48.45294" lon="0.62469">
        <ele>142</ele>
        <time>2022-05-22T00:29:26Z</time>
      </trkpt>
      <trkpt lat="48.45316" lon="0.62494">
        <ele>142</ele>
        <time>2022-05-22T00:29:31Z</time>
      </trkpt>
      <trkpt lat="48.45389" lon="0.62554">
        <ele>145</ele>
        <time>2022-05-22T00:29:46Z</time>
      </trkpt>
      <trkpt lat="48.45403" lon="0.62576">
        <ele>147</ele>
        <time>2022-05-22T00:29:50Z</time>
      </trkpt>
      <trkpt lat="48.45429" lon="0.62687">
        <ele>153</ele>
        <time>2022-05-22T00:30:03Z</time>
      </trkpt>
      <trkpt lat="48.4544" lon="0.6271">
        <ele>155</ele>
        <time>2022-05-22T00:30:07Z</time>
      </trkpt>
      <trkpt lat="48.45479" lon="0.62772">
        <ele>159</ele>
        <time>2022-05-22T00:30:17Z</time>
      </trkpt>
      <trkpt lat="48.45497" lon="0.62808">
        <ele>161</ele>
        <time>2022-05-22T00:30:22Z</time>
      </trkpt>
      <trkpt lat="48.45522" lon="0.62891">
        <ele>162</ele>
        <time>2022-05-22T00:30:33Z</time>
      </trkpt>
      <trkpt lat="48.4554" lon="0.62942">
        <ele>163</ele>
        <time>2022-05-22T00:30:40Z</time>
      </trkpt>
      <trkpt lat="48.45542" lon="0.62956">
        <ele>163</ele>
        <time>2022-05-22T00:30:41Z</time>
      </trkpt>
      <trkpt lat="48.45559" lon="0.63015">
        <ele>163</ele>
        <time>2022-05-22T00:30:49Z</time>
      </trkpt>
      <trkpt lat="48.45611" lon="0.63301">
        <ele>156</ele>
        <time>2022-05-22T00:31:24Z</time>
      </trkpt>
      <trkpt lat="48.45621" lon="0.63344">
        <ele>155</ele>
        <time>2022-05-22T00:31:29Z</time>
      </trkpt>
      <trkpt lat="48.45699" lon="0.63635">
        <ele>146</ele>
        <time>2022-05-22T00:32:06Z</time>
      </trkpt>
      <trkpt lat="48.45753" lon="0.63847">
        <ele>144</ele>
        <time>2022-05-22T00:32:33Z</time>
      </trkpt>
      <trkpt lat="48.45764" lon="0.63882">
        <ele>144</ele>
        <time>2022-05-22T00:32:38Z</time>
      </trkpt>
      <trkpt lat="48.45777" lon="0.63913">
        <ele>144</ele>
        <time>2022-05-22T00:32:42Z</time>
      </trkpt>
      <trkpt lat="48.45791" lon="0.63939">
        <ele>144</ele>
        <time>2022-05-22T00:32:46Z</time>
      </trkpt>
      <trkpt lat="48.45815" lon="0.63972">
        <ele>145</ele>
        <time>2022-05-22T00:32:52Z</time>
      </trkpt>
      <trkpt lat="48.45843" lon="0.64">
        <ele>146</ele>
        <time>2022-05-22T00:32:58Z</time>
      </trkpt>
      <trkpt lat="48.45936" lon="0.6407">
        <ele>147</ele>
        <time>2022-05-22T00:33:16Z</time>
      </trkpt>
      <trkpt lat="48.46156" lon="0.64227">
        <ele>145</ele>
        <time>2022-05-22T00:34:00Z</time>
      </trkpt>
      <trkpt lat="48.4621" lon="0.64269">
        <ele>145</ele>
        <time>2022-05-22T00:34:10Z</time>
      </trkpt>
      <trkpt lat="48.46229" lon="0.64279">
        <ele>145</ele>
        <time>2022-05-22T00:34:14Z</time>
      </trkpt>
      <trkpt lat="48.46276" lon="0.64314">
        <ele>144</ele>
        <time>2022-05-22T00:34:23Z</time>
      </trkpt>
      <trkpt lat="48.46332" lon="0.64351">
        <ele>142</ele>
        <time>2022-05-22T00:34:34Z</time>
      </trkpt>
      <trkpt lat="48.46369" lon="0.64372">
        <ele>142</ele>
        <time>2022-05-22T00:34:41Z</time>
      </trkpt>
      <trkpt lat="48.46417" lon="0.64393">
        <ele>142</ele>
        <time>2022-05-22T00:34:50Z</time>
      </trkpt>
      <trkpt lat="48.46464" lon="0.64402">
        <ele>142</ele>
        <time>2022-05-22T00:34:59Z</time>
      </trkpt>
      <trkpt lat="48.46487" lon="0.6441">
        <ele>141</ele>
        <time>2022-05-22T00:35:03Z</time>
      </trkpt>
      <trkpt lat="48.46552" lon="0.64425">
        <ele>142</ele>
        <time>2022-05-22T00:35:15Z</time>
      </trkpt>
      <trkpt lat="48.46633" lon="0.64441">
        <ele>144</ele>
        <time>2022-05-22T00:35:29Z</time>
      </trkpt>
      <trkpt lat="48.46745" lon="0.6447">
        <ele>145</ele>
        <time>2022-05-22T00:35:49Z</time>
      </trkpt>
      <trkpt lat="48.46872" lon="0.64496">
        <ele>146</ele>
        <time>2022-05-22T00:36:12Z</time>
      </trkpt>
      <trkpt lat="48.46882" lon="0.645">
        <ele>146</ele>
        <time>2022-05-22T00:36:14Z</time>
      </trkpt>
      <trkpt lat="48.46912" lon="0.64505">
        <ele>146</ele>
        <time>2022-05-22T00:36:19Z</time>
      </trkpt>
      <trkpt lat="48.46966" lon="0.64519">
        <ele>145</ele>
        <time>2022-05-22T00:36:29Z</time>
      </trkpt>
      <trkpt lat="48.47032" lon="0.64531">
        <ele>145</ele>
        <time>2022-05-22T00:36:41Z</time>
      </trkpt>
      <trkpt lat="48.47054" lon="0.64539">
        <ele>145</ele>
        <time>2022-05-22T00:36:45Z</time>
      </trkpt>
      <trkpt lat="48.47074" lon="0.64557">
        <ele>145</ele>
        <time>2022-05-22T00:36:49Z</time>
      </trkpt>
      <trkpt lat="48.47083" lon="0.64558">
        <ele>145</ele>
        <time>2022-05-22T00:36:51Z</time>
      </trkpt>
      <trkpt lat="48.47095" lon="0.64553">
        <ele>146</ele>
        <time>2022-05-22T00:36:53Z</time>
      </trkpt>
      <trkpt lat="48.47122" lon="0.6455">
        <ele>146</ele>
        <time>2022-05-22T00:36:58Z</time>
      </trkpt>
      <trkpt lat="48.47214" lon="0.64558">
        <ele>147</ele>
        <time>2022-05-22T00:37:14Z</time>
      </trkpt>
      <trkpt lat="48.47286" lon="0.6456">
        <ele>147</ele>
        <time>2022-05-22T00:37:27Z</time>
      </trkpt>
      <trkpt lat="48.47335" lon="0.64568">
        <ele>147</ele>
        <time>2022-05-22T00:37:36Z</time>
      </trkpt>
      <trkpt lat="48.47395" lon="0.64569">
        <ele>148</ele>
        <time>2022-05-22T00:37:46Z</time>
      </trkpt>
      <trkpt lat="48.47425" lon="0.64567">
        <ele>148</ele>
        <time>2022-05-22T00:37:52Z</time>
      </trkpt>
      <trkpt lat="48.47463" lon="0.64555">
        <ele>148</ele>
        <time>2022-05-22T00:37:59Z</time>
      </trkpt>
      <trkpt lat="48.47553" lon="0.64536">
        <ele>148</ele>
        <time>2022-05-22T00:38:15Z</time>
      </trkpt>
      <trkpt lat="48.47606" lon="0.64532">
        <ele>148</ele>
        <time>2022-05-22T00:38:24Z</time>
      </trkpt>
      <trkpt lat="48.47651" lon="0.64534">
        <ele>147</ele>
        <time>2022-05-22T00:38:32Z</time>
      </trkpt>
      <trkpt lat="48.47672" lon="0.64538">
        <ele>147</ele>
        <time>2022-05-22T00:38:36Z</time>
      </trkpt>
      <trkpt lat="48.47775" lon="0.64571">
        <ele>148</ele>
        <time>2022-05-22T00:38:55Z</time>
      </trkpt>
      <trkpt lat="48.4782" lon="0.64589">
        <ele>148</ele>
        <time>2022-05-22T00:39:03Z</time>
      </trkpt>
      <trkpt lat="48.48008" lon="0.6464">
        <ele>151</ele>
        <time>2022-05-22T00:39:37Z</time>
      </trkpt>
      <trkpt lat="48.48033" lon="0.64649">
        <ele>151</ele>
        <time>2022-05-22T00:39:42Z</time>
      </trkpt>
      <trkpt lat="48.48057" lon="0.64653">
        <ele>151</ele>
        <time>2022-05-22T00:39:46Z</time>
      </trkpt>
      <trkpt lat="48.48067" lon="0.64659">
        <ele>151</ele>
        <time>2022-05-22T00:39:48Z</time>
      </trkpt>
      <trkpt lat="48.48174" lon="0.64684">
        <ele>154</ele>
        <time>2022-05-22T00:40:07Z</time>
      </trkpt>
      <trkpt lat="48.48222" lon="0.647">
        <ele>155</ele>
        <time>2022-05-22T00:40:16Z</time>
      </trkpt>
      <trkpt lat="48.48232" lon="0.64707">
        <ele>155</ele>
        <time>2022-05-22T00:40:18Z</time>
      </trkpt>
      <trkpt lat="48.4824" lon="0.64717">
        <ele>155</ele>
        <time>2022-05-22T00:40:20Z</time>
      </trkpt>
      <trkpt lat="48.48235" lon="0.64731">
        <ele>155</ele>
        <time>2022-05-22T00:40:21Z</time>
      </trkpt>
      <trkpt lat="48.48234" lon="0.64778">
        <ele>155</ele>
        <time>2022-05-22T00:40:27Z</time>
      </trkpt>
      <trkpt lat="48.48238" lon="0.64838">
        <ele>154</ele>
        <time>2022-05-22T00:40:34Z</time>
      </trkpt>
      <trkpt lat="48.48253" lon="0.64914">
        <ele>154</ele>
        <time>2022-05-22T00:40:43Z</time>
      </trkpt>
      <trkpt lat="48.48268" lon="0.65025">
        <ele>151</ele>
        <time>2022-05-22T00:40:57Z</time>
      </trkpt>
      <trkpt lat="48.48295" lon="0.65168">
        <ele>149</ele>
        <time>2022-05-22T00:41:14Z</time>
      </trkpt>
      <trkpt lat="48.4831" lon="0.6521">
        <ele>150</ele>
        <time>2022-05-22T00:41:20Z</time>
      </trkpt>
      <trkpt lat="48.48355" lon="0.65291">
        <ele>153</ele>
        <time>2022-05-22T00:41:32Z</time>
      </trkpt>
      <trkpt lat="48.48379" lon="0.65342">
        <ele>155</ele>
        <time>2022-05-22T00:41:40Z</time>
      </trkpt>
      <trkpt lat="48.48391" lon="0.65398">
        <ele>158</ele>
        <time>2022-05-22T00:41:47Z</time>
      </trkpt>
      <trkpt lat="48.48389" lon="0.65412">
        <ele>159</ele>
        <time>2022-05-22T00:41:48Z</time>
      </trkpt>
      <trkpt lat="48.48392" lon="0.65494">
        <ele>166</ele>
        <time>2022-05-22T00:41:58Z</time>
      </trkpt>
      <trkpt lat="48.48401" lon="0.65496">
        <ele>166</ele>
        <time>2022-05-22T00:42:00Z</time>
      </trkpt>
      <trkpt lat="48.48414" lon="0.65505">
        <ele>166</ele>
        <time>2022-05-22T00:42:02Z</time>
      </trkpt>
      <trkpt lat="48.4842" lon="0.65517">
        <ele>167</ele>
        <time>2022-05-22T00:42:04Z</time>
      </trkpt>
      <trkpt lat="48.48436" lon="0.65536">
        <ele>169</ele>
        <time>2022-05-22T00:42:08Z</time>
      </trkpt>
      <trkpt lat="48.4847" lon="0.65564">
        <ele>172</ele>
        <time>2022-05-22T00:42:15Z</time>
      </trkpt>
      <trkpt lat="48.48496" lon="0.6558">
        <ele>174</ele>
        <time>2022-05-22T00:42:20Z</time>
      </trkpt>
      <trkpt lat="48.48522" lon="0.656">
        <ele>175</ele>
        <time>2022-05-22T00:42:25Z</time>
      </trkpt>
      <trkpt lat="48.4853" lon="0.65609">
        <ele>176</ele>
        <time>2022-05-22T00:42:27Z</time>
      </trkpt>
      <trkpt lat="48.48549" lon="0.65622">
        <ele>176</ele>
        <time>2022-05-22T00:42:30Z</time>
      </trkpt>
      <trkpt lat="48.4859" lon="0.65672">
        <ele>178</ele>
        <time>2022-05-22T00:42:40Z</time>
      </trkpt>
      <trkpt lat="48.48625" lon="0.65756">
        <ele>180</ele>
        <time>2022-05-22T00:42:51Z</time>
      </trkpt>
      <trkpt lat="48.48631" lon="0.65789">
        <ele>181</ele>
        <time>2022-05-22T00:42:55Z</time>
      </trkpt>
      <trkpt lat="48.48641" lon="0.65887">
        <ele>186</ele>
        <time>2022-05-22T00:43:07Z</time>
      </trkpt>
      <trkpt lat="48.4865" lon="0.65942">
        <ele>188</ele>
        <time>2022-05-22T00:43:14Z</time>
      </trkpt>
      <trkpt lat="48.48654" lon="0.65958">
        <ele>188</ele>
        <time>2022-05-22T00:43:16Z</time>
      </trkpt>
      <trkpt lat="48.48665" lon="0.65983">
        <ele>187</ele>
        <time>2022-05-22T00:43:19Z</time>
      </trkpt>
      <trkpt lat="48.48714" lon="0.66075">
        <ele>193</ele>
        <time>2022-05-22T00:43:33Z</time>
      </trkpt>
      <trkpt lat="48.48722" lon="0.66086">
        <ele>193</ele>
        <time>2022-05-22T00:43:35Z</time>
      </trkpt>
      <trkpt lat="48.48741" lon="0.66102">
        <ele>194</ele>
        <time>2022-05-22T00:43:39Z</time>
      </trkpt>
      <trkpt lat="48.48749" lon="0.66107">
        <ele>194</ele>
        <time>2022-05-22T00:43:41Z</time>
      </trkpt>
      <trkpt lat="48.48758" lon="0.66109">
        <ele>194</ele>
        <time>2022-05-22T00:43:42Z</time>
      </trkpt>
      <trkpt lat="48.48793" lon="0.66135">
        <ele>196</ele>
        <time>2022-05-22T00:43:49Z</time>
      </trkpt>
      <trkpt lat="48.48835" lon="0.66195">
        <ele>205</ele>
        <time>2022-05-22T00:43:59Z</time>
      </trkpt>
      <trkpt lat="48.48874" lon="0.66234">
        <ele>215</ele>
        <time>2022-05-22T00:44:08Z</time>
      </trkpt>
      <trkpt lat="48.48884" lon="0.66238">
        <ele>216</ele>
        <time>2022-05-22T00:44:10Z</time>
      </trkpt>
      <trkpt lat="48.48943" lon="0.66249">
        <ele>221</ele>
        <time>2022-05-22T00:44:20Z</time>
      </trkpt>
      <trkpt lat="48.48952" lon="0.66248">
        <ele>221</ele>
        <time>2022-05-22T00:44:22Z</time>
      </trkpt>
      <trkpt lat="48.4904" lon="0.66255">
        <ele>226</ele>
        <time>2022-05-22T00:44:37Z</time>
      </trkpt>
      <trkpt lat="48.49061" lon="0.66254">
        <ele>228</ele>
        <time>2022-05-22T00:44:41Z</time>
      </trkpt>
      <trkpt lat="48.49093" lon="0.6626">
        <ele>229</ele>
        <time>2022-05-22T00:44:47Z</time>
      </trkpt>
      <trkpt lat="48.49103" lon="0.66263">
        <ele>229</ele>
        <time>2022-05-22T00:44:49Z</time>
      </trkpt>
      <trkpt lat="48.4917" lon="0.66299">
        <ele>230</ele>
        <time>2022-05-22T00:45:01Z</time>
      </trkpt>
      <trkpt lat="48.49221" lon="0.66339">
        <ele>228</ele>
        <time>2022-05-22T00:45:12Z</time>
      </trkpt>
      <trkpt lat="48.49257" lon="0.66373">
        <ele>226</ele>
        <time>2022-05-22T00:45:19Z</time>
      </trkpt>
      <trkpt lat="48.49274" lon="0.66386">
        <ele>227</ele>
        <time>2022-05-22T00:45:23Z</time>
      </trkpt>
      <trkpt lat="48.49353" lon="0.66462">
        <ele>227</ele>
        <time>2022-05-22T00:45:39Z</time>
      </trkpt>
      <trkpt lat="48.49376" lon="0.66488">
        <ele>228</ele>
        <time>2022-05-22T00:45:44Z</time>
      </trkpt>
      <trkpt lat="48.49432" lon="0.66536">
        <ele>233</ele>
        <time>2022-05-22T00:45:56Z</time>
      </trkpt>
      <trkpt lat="48.49459" lon="0.66563">
        <ele>236</ele>
        <time>2022-05-22T00:46:02Z</time>
      </trkpt>
      <trkpt lat="48.49493" lon="0.66589">
        <ele>240</ele>
        <time>2022-05-22T00:46:08Z</time>
      </trkpt>
      <trkpt lat="48.49534" lon="0.66635">
        <ele>242</ele>
        <time>2022-05-22T00:46:17Z</time>
      </trkpt>
      <trkpt lat="48.49611" lon="0.66702">
        <ele>244</ele>
        <time>2022-05-22T00:46:33Z</time>
      </trkpt>
      <trkpt lat="48.49639" lon="0.66721">
        <ele>244</ele>
        <time>2022-05-22T00:46:39Z</time>
      </trkpt>
      <trkpt lat="48.4968" lon="0.66731">
        <ele>244</ele>
        <time>2022-05-22T00:46:46Z</time>
      </trkpt>
      <trkpt lat="48.49718" lon="0.66749">
        <ele>243</ele>
        <time>2022-05-22T00:46:53Z</time>
      </trkpt>
      <trkpt lat="48.49729" lon="0.6675">
        <ele>243</ele>
        <time>2022-05-22T00:46:55Z</time>
      </trkpt>
      <trkpt lat="48.49804" lon="0.66781">
        <ele>244</ele>
        <time>2022-05-22T00:47:09Z</time>
      </trkpt>
      <trkpt lat="48.49918" lon="0.66813">
        <ele>248</ele>
        <time>2022-05-22T00:47:30Z</time>
      </trkpt>
      <trkpt lat="48.49975" lon="0.66839">
        <ele>249</ele>
        <time>2022-05-22T00:47:40Z</time>
      </trkpt>
      <trkpt lat="48.50053" lon="0.66863">
        <ele>250</ele>
        <time>2022-05-22T00:47:54Z</time>
      </trkpt>
      <trkpt lat="48.50099" lon="0.66884">
        <ele>251</ele>
        <time>2022-05-22T00:48:03Z</time>
      </trkpt>
      <trkpt lat="48.50124" lon="0.66892">
        <ele>250</ele>
        <time>2022-05-22T00:48:08Z</time>
      </trkpt>
      <trkpt lat="48.50158" lon="0.66908">
        <ele>249</ele>
        <time>2022-05-22T00:48:14Z</time>
      </trkpt>
      <trkpt lat="48.50206" lon="0.66926">
        <ele>246</ele>
        <time>2022-05-22T00:48:23Z</time>
      </trkpt>
      <trkpt lat="48.50246" lon="0.66935">
        <ele>244</ele>
        <time>2022-05-22T00:48:30Z</time>
      </trkpt>
      <trkpt lat="48.50269" lon="0.66944">
        <ele>244</ele>
        <time>2022-05-22T00:48:34Z</time>
      </trkpt>
      <trkpt lat="48.50305" lon="0.66953">
        <ele>245</ele>
        <time>2022-05-22T00:48:41Z</time>
      </trkpt>
      <trkpt lat="48.50323" lon="0.66963">
        <ele>244</ele>
        <time>2022-05-22T00:48:44Z</time>
      </trkpt>
      <trkpt lat="48.50345" lon="0.66968">
        <ele>244</ele>
        <time>2022-05-22T00:48:48Z</time>
      </trkpt>
      <trkpt lat="48.50397" lon="0.66989">
        <ele>243</ele>
        <time>2022-05-22T00:48:58Z</time>
      </trkpt>
      <trkpt lat="48.50408" lon="0.66989">
        <ele>243</ele>
        <time>2022-05-22T00:48:59Z</time>
      </trkpt>
      <trkpt lat="48.50432" lon="0.66998">
        <ele>243</ele>
        <time>2022-05-22T00:49:04Z</time>
      </trkpt>
      <trkpt lat="48.50457" lon="0.67001">
        <ele>244</ele>
        <time>2022-05-22T00:49:08Z</time>
      </trkpt>
      <trkpt lat="48.50495" lon="0.67014">
        <ele>245</ele>
        <time>2022-05-22T00:49:15Z</time>
      </trkpt>
      <trkpt lat="48.50526" lon="0.67021">
        <ele>246</ele>
        <time>2022-05-22T00:49:21Z</time>
      </trkpt>
      <trkpt lat="48.50536" lon="0.67027">
        <ele>246</ele>
        <time>2022-05-22T00:49:23Z</time>
      </trkpt>
      <trkpt lat="48.50549" lon="0.67029">
        <ele>246</ele>
        <time>2022-05-22T00:49:25Z</time>
      </trkpt>
      <trkpt lat="48.5056" lon="0.67036">
        <ele>246</ele>
        <time>2022-05-22T00:49:27Z</time>
      </trkpt>
      <trkpt lat="48.50609" lon="0.67058">
        <ele>247</ele>
        <time>2022-05-22T00:49:36Z</time>
      </trkpt>
      <trkpt lat="48.50655" lon="0.67086">
        <ele>248</ele>
        <time>2022-05-22T00:49:45Z</time>
      </trkpt>
      <trkpt lat="48.50759" lon="0.67123">
        <ele>249</ele>
        <time>2022-05-22T00:50:04Z</time>
      </trkpt>
      <trkpt lat="48.50794" lon="0.67128">
        <ele>251</ele>
        <time>2022-05-22T00:50:10Z</time>
      </trkpt>
      <trkpt lat="48.50813" lon="0.67135">
        <ele>252</ele>
        <time>2022-05-22T00:50:14Z</time>
      </trkpt>
      <trkpt lat="48.50857" lon="0.67144">
        <ele>252</ele>
        <time>2022-05-22T00:50:22Z</time>
      </trkpt>
      <trkpt lat="48.50876" lon="0.67156">
        <ele>251</ele>
        <time>2022-05-22T00:50:25Z</time>
      </trkpt>
      <trkpt lat="48.50954" lon="0.67186">
        <ele>251</ele>
        <time>2022-05-22T00:50:40Z</time>
      </trkpt>
      <trkpt lat="48.50967" lon="0.67194">
        <ele>251</ele>
        <time>2022-05-22T00:50:42Z</time>
      </trkpt>
      <trkpt lat="48.50994" lon="0.67204">
        <ele>251</ele>
        <time>2022-05-22T00:50:47Z</time>
      </trkpt>
      <trkpt lat="48.51018" lon="0.67209">
        <ele>251</ele>
        <time>2022-05-22T00:50:52Z</time>
      </trkpt>
      <trkpt lat="48.51066" lon="0.67227">
        <ele>249</ele>
        <time>2022-05-22T00:51:00Z</time>
      </trkpt>
      <trkpt lat="48.51089" lon="0.6723">
        <ele>248</ele>
        <time>2022-05-22T00:51:04Z</time>
      </trkpt>
      <trkpt lat="48.51186" lon="0.67268">
        <ele>245</ele>
        <time>2022-05-22T00:51:22Z</time>
      </trkpt>
      <trkpt lat="48.51252" lon="0.67285">
        <ele>247</ele>
        <time>2022-05-22T00:51:34Z</time>
      </trkpt>
      <trkpt lat="48.51319" lon="0.67309">
        <ele>248</ele>
        <time>2022-05-22T00:51:46Z</time>
      </trkpt>
      <trkpt lat="48.51352" lon="0.67315">
        <ele>248</ele>
        <time>2022-05-22T00:51:52Z</time>
      </trkpt>
      <trkpt lat="48.51417" lon="0.67334">
        <ele>249</ele>
        <time>2022-05-22T00:52:04Z</time>
      </trkpt>
      <trkpt lat="48.51467" lon="0.6736">
        <ele>255</ele>
        <time>2022-05-22T00:52:14Z</time>
      </trkpt>
      <trkpt lat="48.51541" lon="0.67386">
        <ele>258</ele>
        <time>2022-05-22T00:52:27Z</time>
      </trkpt>
      <trkpt lat="48.51596" lon="0.67414">
        <ele>257</ele>
        <time>2022-05-22T00:52:37Z</time>
      </trkpt>
      <trkpt lat="48.51608" lon="0.67419">
        <ele>257</ele>
        <time>2022-05-22T00:52:40Z</time>
      </trkpt>
      <trkpt lat="48.51621" lon="0.6742">
        <ele>257</ele>
        <time>2022-05-22T00:52:42Z</time>
      </trkpt>
      <trkpt lat="48.51632" lon="0.67426">
        <ele>257</ele>
        <time>2022-05-22T00:52:44Z</time>
      </trkpt>
      <trkpt lat="48.51655" lon="0.67433">
        <ele>256</ele>
        <time>2022-05-22T00:52:48Z</time>
      </trkpt>
      <trkpt lat="48.51707" lon="0.67457">
        <ele>254</ele>
        <time>2022-05-22T00:52:58Z</time>
      </trkpt>
      <trkpt lat="48.51795" lon="0.67481">
        <ele>254</ele>
        <time>2022-05-22T00:53:14Z</time>
      </trkpt>
      <trkpt lat="48.51843" lon="0.67491">
        <ele>253</ele>
        <time>2022-05-22T00:53:22Z</time>
      </trkpt>
      <trkpt lat="48.51854" lon="0.67497">
        <ele>253</ele>
        <time>2022-05-22T00:53:24Z</time>
      </trkpt>
      <trkpt lat="48.51887" lon="0.67506">
        <ele>251</ele>
        <time>2022-05-22T00:53:30Z</time>
      </trkpt>
      <trkpt lat="48.51906" lon="0.67521">
        <ele>250</ele>
        <time>2022-05-22T00:53:34Z</time>
      </trkpt>
      <trkpt lat="48.51918" lon="0.67521">
        <ele>249</ele>
        <time>2022-05-22T00:53:36Z</time>
      </trkpt>
      <trkpt lat="48.51927" lon="0.67518">
        <ele>249</ele>
        <time>2022-05-22T00:53:38Z</time>
      </trkpt>
      <trkpt lat="48.51936" lon="0.67522">
        <ele>249</ele>
        <time>2022-05-22T00:53:40Z</time>
      </trkpt>
      <trkpt lat="48.51946" lon="0.67531">
        <ele>249</ele>
        <time>2022-05-22T00:53:42Z</time>
      </trkpt>
      <trkpt lat="48.5197" lon="0.6754">
        <ele>249</ele>
        <time>2022-05-22T00:53:46Z</time>
      </trkpt>
      <trkpt lat="48.5203" lon="0.67556">
        <ele>248</ele>
        <time>2022-05-22T00:53:57Z</time>
      </trkpt>
      <trkpt lat="48.5205" lon="0.67559">
        <ele>247</ele>
        <time>2022-05-22T00:54:01Z</time>
      </trkpt>
      <trkpt lat="48.52071" lon="0.67569">
        <ele>245</ele>
        <time>2022-05-22T00:54:04Z</time>
      </trkpt>
      <trkpt lat="48.52132" lon="0.67589">
        <ele>239</ele>
        <time>2022-05-22T00:54:16Z</time>
      </trkpt>
      <trkpt lat="48.52203" lon="0.67628">
        <ele>240</ele>
        <time>2022-05-22T00:54:29Z</time>
      </trkpt>
      <trkpt lat="48.52214" lon="0.67631">
        <ele>241</ele>
        <time>2022-05-22T00:54:31Z</time>
      </trkpt>
      <trkpt lat="48.52225" lon="0.67639">
        <ele>242</ele>
        <time>2022-05-22T00:54:33Z</time>
      </trkpt>
      <trkpt lat="48.52244" lon="0.67645">
        <ele>243</ele>
        <time>2022-05-22T00:54:37Z</time>
      </trkpt>
      <trkpt lat="48.52253" lon="0.67641">
        <ele>243</ele>
        <time>2022-05-22T00:54:38Z</time>
      </trkpt>
      <trkpt lat="48.52294" lon="0.67639">
        <ele>246</ele>
        <time>2022-05-22T00:54:46Z</time>
      </trkpt>
      <trkpt lat="48.52314" lon="0.67632">
        <ele>247</ele>
        <time>2022-05-22T00:54:49Z</time>
      </trkpt>
      <trkpt lat="48.52348" lon="0.67625">
        <ele>248</ele>
        <time>2022-05-22T00:54:55Z</time>
      </trkpt>
      <trkpt lat="48.52468" lon="0.6761">
        <ele>251</ele>
        <time>2022-05-22T00:55:17Z</time>
      </trkpt>
      <trkpt lat="48.5249" lon="0.67604">
        <ele>251</ele>
        <time>2022-05-22T00:55:21Z</time>
      </trkpt>
      <trkpt lat="48.52573" lon="0.67596">
        <ele>250</ele>
        <time>2022-05-22T00:55:36Z</time>
      </trkpt>
      <trkpt lat="48.52596" lon="0.67596">
        <ele>249</ele>
        <time>2022-05-22T00:55:40Z</time>
      </trkpt>
      <trkpt lat="48.52628" lon="0.67578">
        <ele>247</ele>
        <time>2022-05-22T00:55:46Z</time>
      </trkpt>
      <trkpt lat="48.52667" lon="0.67576">
        <ele>245</ele>
        <time>2022-05-22T00:55:53Z</time>
      </trkpt>
      <trkpt lat="48.52691" lon="0.67572">
        <ele>245</ele>
        <time>2022-05-22T00:55:57Z</time>
      </trkpt>
      <trkpt lat="48.52701" lon="0.67568">
        <ele>245</ele>
        <time>2022-05-22T00:55:59Z</time>
      </trkpt>
      <trkpt lat="48.5273" lon="0.67569">
        <ele>244</ele>
        <time>2022-05-22T00:56:04Z</time>
      </trkpt>
      <trkpt lat="48.52772" lon="0.67564">
        <ele>244</ele>
        <time>2022-05-22T00:56:11Z</time>
      </trkpt>
      <trkpt lat="48.52793" lon="0.67559">
        <ele>244</ele>
        <time>2022-05-22T00:56:15Z</time>
      </trkpt>
      <trkpt lat="48.52827" lon="0.67558">
        <ele>245</ele>
        <time>2022-05-22T00:56:21Z</time>
      </trkpt>
      <trkpt lat="48.52847" lon="0.67552">
        <ele>245</ele>
        <time>2022-05-22T00:56:25Z</time>
      </trkpt>
      <trkpt lat="48.52858" lon="0.67552">
        <ele>245</ele>
        <time>2022-05-22T00:56:27Z</time>
      </trkpt>
      <trkpt lat="48.52878" lon="0.67547">
        <ele>246</ele>
        <time>2022-05-22T00:56:30Z</time>
      </trkpt>
      <trkpt lat="48.52886" lon="0.67539">
        <ele>246</ele>
        <time>2022-05-22T00:56:32Z</time>
      </trkpt>
      <trkpt lat="48.52891" lon="0.67528">
        <ele>247</ele>
        <time>2022-05-22T00:56:34Z</time>
      </trkpt>
      <trkpt lat="48.52889" lon="0.67481">
        <ele>248</ele>
        <time>2022-05-22T00:56:39Z</time>
      </trkpt>
      <trkpt lat="48.5288" lon="0.67429">
        <ele>247</ele>
        <time>2022-05-22T00:56:46Z</time>
      </trkpt>
      <trkpt lat="48.5288" lon="0.67415">
        <ele>247</ele>
        <time>2022-05-22T00:56:47Z</time>
      </trkpt>
      <trkpt lat="48.52871" lon="0.6735">
        <ele>246</ele>
        <time>2022-05-22T00:56:55Z</time>
      </trkpt>
      <trkpt lat="48.52862" lon="0.67306">
        <ele>245</ele>
        <time>2022-05-22T00:57:01Z</time>
      </trkpt>
      <trkpt lat="48.52854" lon="0.67241">
        <ele>245</ele>
        <time>2022-05-22T00:57:08Z</time>
      </trkpt>
      <trkpt lat="48.52854" lon="0.67222">
        <ele>245</ele>
        <time>2022-05-22T00:57:11Z</time>
      </trkpt>
      <trkpt lat="48.52848" lon="0.67192">
        <ele>245</ele>
        <time>2022-05-22T00:57:14Z</time>
      </trkpt>
      <trkpt lat="48.52839" lon="0.67108">
        <ele>246</ele>
        <time>2022-05-22T00:57:24Z</time>
      </trkpt>
      <trkpt lat="48.5282" lon="0.67">
        <ele>250</ele>
        <time>2022-05-22T00:57:37Z</time>
      </trkpt>
      <trkpt lat="48.52819" lon="0.66984">
        <ele>251</ele>
        <time>2022-05-22T00:57:39Z</time>
      </trkpt>
      <trkpt lat="48.52814" lon="0.6697">
        <ele>251</ele>
        <time>2022-05-22T00:57:41Z</time>
      </trkpt>
      <trkpt lat="48.52799" lon="0.66824">
        <ele>255</ele>
        <time>2022-05-22T00:57:59Z</time>
      </trkpt>
      <trkpt lat="48.52782" lon="0.6672">
        <ele>257</ele>
        <time>2022-05-22T00:58:11Z</time>
      </trkpt>
      <trkpt lat="48.52763" lon="0.6657">
        <ele>255</ele>
        <time>2022-05-22T00:58:29Z</time>
      </trkpt>
      <trkpt lat="48.52759" lon="0.66556">
        <ele>256</ele>
        <time>2022-05-22T00:58:31Z</time>
      </trkpt>
      <trkpt lat="48.5275" lon="0.66485">
        <ele>257</ele>
        <time>2022-05-22T00:58:40Z</time>
      </trkpt>
      <trkpt lat="48.52739" lon="0.66421">
        <ele>257</ele>
        <time>2022-05-22T00:58:47Z</time>
      </trkpt>
      <trkpt lat="48.52734" lon="0.66373">
        <ele>257</ele>
        <time>2022-05-22T00:58:53Z</time>
      </trkpt>
      <trkpt lat="48.5273" lon="0.66359">
        <ele>257</ele>
        <time>2022-05-22T00:58:55Z</time>
      </trkpt>
      <trkpt lat="48.52723" lon="0.66294">
        <ele>256</ele>
        <time>2022-05-22T00:59:03Z</time>
      </trkpt>
      <trkpt lat="48.52723" lon="0.66263">
        <ele>256</ele>
        <time>2022-05-22T00:59:06Z</time>
      </trkpt>
      <trkpt lat="48.52713" lon="0.66255">
        <ele>255</ele>
        <time>2022-05-22T00:59:08Z</time>
      </trkpt>
      <trkpt lat="48.52709" lon="0.6627">
        <ele>254</ele>
        <time>2022-05-22T00:59:10Z</time>
      </trkpt>
      <trkpt lat="48.52727" lon="0.66264">
        <ele>256</ele>
        <time>2022-05-22T00:59:14Z</time>
      </trkpt>
      <trkpt lat="48.52717" lon="0.66264">
        <ele>255</ele>
        <time>2022-05-22T00:59:15Z</time>
      </trkpt>
      <trkpt lat="48.52708" lon="0.66249">
        <ele>254</ele>
        <time>2022-05-22T00:59:18Z</time>
      </trkpt>
      <trkpt lat="48.5269" lon="0.66259">
        <ele>252</ele>
        <time>2022-05-22T00:59:21Z</time>
      </trkpt>
      <trkpt lat="48.52668" lon="0.66265">
        <ele>250</ele>
        <time>2022-05-22T00:59:25Z</time>
      </trkpt>
      <trkpt lat="48.52661" lon="0.66255">
        <ele>250</ele>
        <time>2022-05-22T00:59:27Z</time>
      </trkpt>
      <trkpt lat="48.5266" lon="0.66236">
        <ele>250</ele>
        <time>2022-05-22T00:59:29Z</time>
      </trkpt>
      <trkpt lat="48.52671" lon="0.66237">
        <ele>250</ele>
        <time>2022-05-22T00:59:31Z</time>
      </trkpt>
      <trkpt lat="48.52658" lon="0.66213">
        <ele>249</ele>
        <time>2022-05-22T00:59:35Z</time>
      </trkpt>
      <trkpt lat="48.5265" lon="0.66205">
        <ele>249</ele>
        <time>2022-05-22T00:59:36Z</time>
      </trkpt>
      <trkpt lat="48.52654" lon="0.66221">
        <ele>249</ele>
        <time>2022-05-22T00:59:38Z</time>
      </trkpt>
      <trkpt lat="48.52653" lon="0.66249">
        <ele>249</ele>
        <time>2022-05-22T00:59:42Z</time>
      </trkpt>
      <trkpt lat="48.52659" lon="0.66239">
        <ele>249</ele>
        <time>2022-05-22T00:59:43Z</time>
      </trkpt>
      <trkpt lat="48.52652" lon="0.66181">
        <ele>248</ele>
        <time>2022-05-22T00:59:50Z</time>
      </trkpt>
      <trkpt lat="48.52648" lon="0.66165">
        <ele>248</ele>
        <time>2022-05-22T00:59:52Z</time>
      </trkpt>
      <trkpt lat="48.52635" lon="0.6614">
        <ele>248</ele>
        <time>2022-05-22T00:59:56Z</time>
      </trkpt>
      <trkpt lat="48.52627" lon="0.66131">
        <ele>248</ele>
        <time>2022-05-22T00:59:58Z</time>
      </trkpt>
      <trkpt lat="48.52598" lon="0.66116">
        <ele>247</ele>
        <time>2022-05-22T01:00:03Z</time>
      </trkpt>
      <trkpt lat="48.52576" lon="0.66114">
        <ele>246</ele>
        <time>2022-05-22T01:00:07Z</time>
      </trkpt>
      <trkpt lat="48.52537" lon="0.6612">
        <ele>246</ele>
        <time>2022-05-22T01:00:14Z</time>
      </trkpt>
      <trkpt lat="48.52524" lon="0.66141">
        <ele>246</ele>
        <time>2022-05-22T01:00:17Z</time>
      </trkpt>
      <trkpt lat="48.52521" lon="0.66128">
        <ele>246</ele>
        <time>2022-05-22T01:00:19Z</time>
      </trkpt>
      <trkpt lat="48.52525" lon="0.66115">
        <ele>247</ele>
        <time>2022-05-22T01:00:21Z</time>
      </trkpt>
      <trkpt lat="48.52521" lon="0.66085">
        <ele>247</ele>
        <time>2022-05-22T01:00:24Z</time>
      </trkpt>
      <trkpt lat="48.52529" lon="0.66059">
        <ele>247</ele>
        <time>2022-05-22T01:00:28Z</time>
      </trkpt>
      <trkpt lat="48.5252" lon="0.66071">
        <ele>247</ele>
        <time>2022-05-22T01:00:30Z</time>
      </trkpt>
      <trkpt lat="48.52527" lon="0.66044">
        <ele>247</ele>
        <time>2022-05-22T01:00:33Z</time>
      </trkpt>
      <trkpt lat="48.52516" lon="0.66038">
        <ele>247</ele>
        <time>2022-05-22T01:00:35Z</time>
      </trkpt>
      <trkpt lat="48.52498" lon="0.66041">
        <ele>246</ele>
        <time>2022-05-22T01:00:39Z</time>
      </trkpt>
      <trkpt lat="48.52509" lon="0.6601">
        <ele>246</ele>
        <time>2022-05-22T01:00:43Z</time>
      </trkpt>
      <trkpt lat="48.52507" lon="0.66024">
        <ele>246</ele>
        <time>2022-05-22T01:00:44Z</time>
      </trkpt>
      <trkpt lat="48.52517" lon="0.66033">
        <ele>247</ele>
        <time>2022-05-22T01:00:47Z</time>
      </trkpt>
      <trkpt lat="48.52514" lon="0.66013">
        <ele>247</ele>
        <time>2022-05-22T01:00:49Z</time>
      </trkpt>
      <trkpt lat="48.52513" lon="0.66031">
        <ele>247</ele>
        <time>2022-05-22T01:00:51Z</time>
      </trkpt>
      <trkpt lat="48.52506" lon="0.66039">
        <ele>247</ele>
        <time>2022-05-22T01:00:53Z</time>
      </trkpt>
      <trkpt lat="48.525" lon="0.66051">
        <ele>247</ele>
        <time>2022-05-22T01:00:54Z</time>
      </trkpt>
      <trkpt lat="48.52511" lon="0.66053">
        <ele>247</ele>
        <time>2022-05-22T01:00:56Z</time>
      </trkpt>
      <trkpt lat="48.52499" lon="0.66323">
        <ele>242</ele>
        <time>2022-05-22T01:01:28Z</time>
      </trkpt>
      <trkpt lat="48.52505" lon="0.66312">
        <ele>243</ele>
        <time>2022-05-22T01:01:30Z</time>
      </trkpt>
      <trkpt lat="48.52498" lon="0.6632">
        <ele>243</ele>
        <time>2022-05-22T01:01:32Z</time>
      </trkpt>
      <trkpt lat="48.52505" lon="0.66328">
        <ele>242</ele>
        <time>2022-05-22T01:01:33Z</time>
      </trkpt>
      <trkpt lat="48.52515" lon="0.66321">
        <ele>243</ele>
        <time>2022-05-22T01:01:35Z</time>
      </trkpt>
      <trkpt lat="48.52525" lon="0.6632">
        <ele>243</ele>
        <time>2022-05-22T01:01:37Z</time>
      </trkpt>
      <trkpt lat="48.52553" lon="0.66306">
        <ele>244</ele>
        <time>2022-05-22T01:01:42Z</time>
      </trkpt>
      <trkpt lat="48.52601" lon="0.66291">
        <ele>247</ele>
        <time>2022-05-22T01:01:51Z</time>
      </trkpt>
      <trkpt lat="48.5264" lon="0.66274">
        <ele>249</ele>
        <time>2022-05-22T01:01:58Z</time>
      </trkpt>
      <trkpt lat="48.52709" lon="0.66253">
        <ele>254</ele>
        <time>2022-05-22T01:02:11Z</time>
      </trkpt>
      <trkpt lat="48.52718" lon="0.66268">
        <ele>255</ele>
        <time>2022-05-22T01:02:13Z</time>
      </trkpt>
      <trkpt lat="48.5273" lon="0.66312">
        <ele>257</ele>
        <time>2022-05-22T01:02:19Z</time>
      </trkpt>
      <trkpt lat="48.52737" lon="0.66372">
        <ele>257</ele>
        <time>2022-05-22T01:02:26Z</time>
      </trkpt>
      <trkpt lat="48.52744" lon="0.66403">
        <ele>258</ele>
        <time>2022-05-22T01:02:30Z</time>
      </trkpt>
      <trkpt lat="48.52755" lon="0.66488">
        <ele>257</ele>
        <time>2022-05-22T01:02:40Z</time>
      </trkpt>
      <trkpt lat="48.52762" lon="0.66522">
        <ele>257</ele>
        <time>2022-05-22T01:02:44Z</time>
      </trkpt>
      <trkpt lat="48.52767" lon="0.66571">
        <ele>256</ele>
        <time>2022-05-22T01:02:50Z</time>
      </trkpt>
      <trkpt lat="48.52775" lon="0.66601">
        <ele>256</ele>
        <time>2022-05-22T01:02:54Z</time>
      </trkpt>
      <trkpt lat="48.52785" lon="0.66663">
        <ele>257</ele>
        <time>2022-05-22T01:03:01Z</time>
      </trkpt>
      <trkpt lat="48.52792" lon="0.66739">
        <ele>257</ele>
        <time>2022-05-22T01:03:10Z</time>
      </trkpt>
      <trkpt lat="48.52798" lon="0.66785">
        <ele>256</ele>
        <time>2022-05-22T01:03:16Z</time>
      </trkpt>
      <trkpt lat="48.52803" lon="0.66805">
        <ele>256</ele>
        <time>2022-05-22T01:03:18Z</time>
      </trkpt>
      <trkpt lat="48.52805" lon="0.66839">
        <ele>255</ele>
        <time>2022-05-22T01:03:22Z</time>
      </trkpt>
      <trkpt lat="48.52812" lon="0.66873">
        <ele>254</ele>
        <time>2022-05-22T01:03:26Z</time>
      </trkpt>
      <trkpt lat="48.52827" lon="0.66986">
        <ele>251</ele>
        <time>2022-05-22T01:03:40Z</time>
      </trkpt>
      <trkpt lat="48.52842" lon="0.6713">
        <ele>246</ele>
        <time>2022-05-22T01:03:57Z</time>
      </trkpt>
      <trkpt lat="48.52854" lon="0.67211">
        <ele>245</ele>
        <time>2022-05-22T01:04:07Z</time>
      </trkpt>
      <trkpt lat="48.52859" lon="0.67224">
        <ele>245</ele>
        <time>2022-05-22T01:04:09Z</time>
      </trkpt>
      <trkpt lat="48.52861" lon="0.67239">
        <ele>245</ele>
        <time>2022-05-22T01:04:11Z</time>
      </trkpt>
      <trkpt lat="48.52871" lon="0.67353">
        <ele>246</ele>
        <time>2022-05-22T01:04:24Z</time>
      </trkpt>
      <trkpt lat="48.52881" lon="0.67416">
        <ele>247</ele>
        <time>2022-05-22T01:04:32Z</time>
      </trkpt>
      <trkpt lat="48.52885" lon="0.67465">
        <ele>248</ele>
        <time>2022-05-22T01:04:38Z</time>
      </trkpt>
      <trkpt lat="48.52891" lon="0.67494">
        <ele>248</ele>
        <time>2022-05-22T01:04:41Z</time>
      </trkpt>
      <trkpt lat="48.52901" lon="0.67591">
        <ele>245</ele>
        <time>2022-05-22T01:04:53Z</time>
      </trkpt>
      <trkpt lat="48.52913" lon="0.67681">
        <ele>243</ele>
        <time>2022-05-22T01:05:04Z</time>
      </trkpt>
      <trkpt lat="48.5292" lon="0.67713">
        <ele>243</ele>
        <time>2022-05-22T01:05:07Z</time>
      </trkpt>
      <trkpt lat="48.52922" lon="0.67744">
        <ele>243</ele>
        <time>2022-05-22T01:05:11Z</time>
      </trkpt>
      <trkpt lat="48.52931" lon="0.67796">
        <ele>243</ele>
        <time>2022-05-22T01:05:17Z</time>
      </trkpt>
      <trkpt lat="48.52938" lon="0.67864">
        <ele>243</ele>
        <time>2022-05-22T01:05:26Z</time>
      </trkpt>
      <trkpt lat="48.52942" lon="0.67878">
        <ele>243</ele>
        <time>2022-05-22T01:05:27Z</time>
      </trkpt>
      <trkpt lat="48.52953" lon="0.67955">
        <ele>244</ele>
        <time>2022-05-22T01:05:37Z</time>
      </trkpt>
      <trkpt lat="48.52966" lon="0.68073">
        <ele>252</ele>
        <time>2022-05-22T01:05:51Z</time>
      </trkpt>
      <trkpt lat="48.52977" lon="0.68125">
        <ele>253</ele>
        <time>2022-05-22T01:05:57Z</time>
      </trkpt>
      <trkpt lat="48.52987" lon="0.68197">
        <ele>253</ele>
        <time>2022-05-22T01:06:06Z</time>
      </trkpt>
      <trkpt lat="48.52989" lon="0.68227">
        <ele>252</ele>
        <time>2022-05-22T01:06:09Z</time>
      </trkpt>
      <trkpt lat="48.53002" lon="0.68312">
        <ele>249</ele>
        <time>2022-05-22T01:06:20Z</time>
      </trkpt>
      <trkpt lat="48.53007" lon="0.68384">
        <ele>246</ele>
        <time>2022-05-22T01:06:28Z</time>
      </trkpt>
      <trkpt lat="48.53013" lon="0.68408">
        <ele>246</ele>
        <time>2022-05-22T01:06:31Z</time>
      </trkpt>
      <trkpt lat="48.53025" lon="0.68514">
        <ele>240</ele>
        <time>2022-05-22T01:06:44Z</time>
      </trkpt>
      <trkpt lat="48.53047" lon="0.68644">
        <ele>234</ele>
        <time>2022-05-22T01:07:00Z</time>
      </trkpt>
      <trkpt lat="48.53064" lon="0.68774">
        <ele>226</ele>
        <time>2022-05-22T01:07:15Z</time>
      </trkpt>
      <trkpt lat="48.53064" lon="0.6879">
        <ele>224</ele>
        <time>2022-05-22T01:07:17Z</time>
      </trkpt>
      <trkpt lat="48.53077" lon="0.68828">
        <ele>219</ele>
        <time>2022-05-22T01:07:22Z</time>
      </trkpt>
      <trkpt lat="48.53139" lon="0.68943">
        <ele>212</ele>
        <time>2022-05-22T01:07:40Z</time>
      </trkpt>
      <trkpt lat="48.53179" lon="0.69029">
        <ele>208</ele>
        <time>2022-05-22T01:07:52Z</time>
      </trkpt>
      <trkpt lat="48.53189" lon="0.69058">
        <ele>208</ele>
        <time>2022-05-22T01:07:56Z</time>
      </trkpt>
      <trkpt lat="48.53199" lon="0.69156">
        <ele>201</ele>
        <time>2022-05-22T01:08:08Z</time>
      </trkpt>
      <trkpt lat="48.53207" lon="0.69168">
        <ele>200</ele>
        <time>2022-05-22T01:08:10Z</time>
      </trkpt>
      <trkpt lat="48.53216" lon="0.69174">
        <ele>200</ele>
        <time>2022-05-22T01:08:11Z</time>
      </trkpt>
      <trkpt lat="48.533" lon="0.69218">
        <ele>204</ele>
        <time>2022-05-22T01:08:27Z</time>
      </trkpt>
      <trkpt lat="48.53366" lon="0.69284">
        <ele>206</ele>
        <time>2022-05-22T01:08:41Z</time>
      </trkpt>
      <trkpt lat="48.53393" lon="0.69302">
        <ele>206</ele>
        <time>2022-05-22T01:08:47Z</time>
      </trkpt>
      <trkpt lat="48.53414" lon="0.69307">
        <ele>206</ele>
        <time>2022-05-22T01:08:50Z</time>
      </trkpt>
      <trkpt lat="48.53425" lon="0.69307">
        <ele>206</ele>
        <time>2022-05-22T01:08:52Z</time>
      </trkpt>
      <trkpt lat="48.53436" lon="0.69306">
        <ele>205</ele>
        <time>2022-05-22T01:08:54Z</time>
      </trkpt>
      <trkpt lat="48.53456" lon="0.69297">
        <ele>204</ele>
        <time>2022-05-22T01:08:58Z</time>
      </trkpt>
      <trkpt lat="48.53476" lon="0.6928">
        <ele>205</ele>
        <time>2022-05-22T01:09:02Z</time>
      </trkpt>
      <trkpt lat="48.53531" lon="0.69208">
        <ele>209</ele>
        <time>2022-05-22T01:09:15Z</time>
      </trkpt>
      <trkpt lat="48.5354" lon="0.692">
        <ele>209</ele>
        <time>2022-05-22T01:09:17Z</time>
      </trkpt>
      <trkpt lat="48.5357" lon="0.69163">
        <ele>208</ele>
        <time>2022-05-22T01:09:24Z</time>
      </trkpt>
      <trkpt lat="48.53583" lon="0.69143">
        <ele>209</ele>
        <time>2022-05-22T01:09:27Z</time>
      </trkpt>
      <trkpt lat="48.53609" lon="0.69115">
        <ele>210</ele>
        <time>2022-05-22T01:09:33Z</time>
      </trkpt>
      <trkpt lat="48.53618" lon="0.691">
        <ele>211</ele>
        <time>2022-05-22T01:09:35Z</time>
      </trkpt>
      <trkpt lat="48.53694" lon="0.69011">
        <ele>210</ele>
        <time>2022-05-22T01:09:52Z</time>
      </trkpt>
      <trkpt lat="48.53726" lon="0.68989">
        <ele>206</ele>
        <time>2022-05-22T01:09:59Z</time>
      </trkpt>
      <trkpt lat="48.53758" lon="0.68963">
        <ele>204</ele>
        <time>2022-05-22T01:10:05Z</time>
      </trkpt>
      <trkpt lat="48.5379" lon="0.68926">
        <ele>204</ele>
        <time>2022-05-22T01:10:12Z</time>
      </trkpt>
      <trkpt lat="48.53848" lon="0.68851">
        <ele>205</ele>
        <time>2022-05-22T01:10:26Z</time>
      </trkpt>
      <trkpt lat="48.5387" lon="0.68831">
        <ele>204</ele>
        <time>2022-05-22T01:10:30Z</time>
      </trkpt>
      <trkpt lat="48.53876" lon="0.6882">
        <ele>205</ele>
        <time>2022-05-22T01:10:32Z</time>
      </trkpt>
      <trkpt lat="48.53911" lon="0.68778">
        <ele>207</ele>
        <time>2022-05-22T01:10:40Z</time>
      </trkpt>
      <trkpt lat="48.53952" lon="0.68734">
        <ele>207</ele>
        <time>2022-05-22T01:10:49Z</time>
      </trkpt>
      <trkpt lat="48.53989" lon="0.68703">
        <ele>206</ele>
        <time>2022-05-22T01:10:56Z</time>
      </trkpt>
      <trkpt lat="48.54007" lon="0.68681">
        <ele>206</ele>
        <time>2022-05-22T01:11:01Z</time>
      </trkpt>
      <trkpt lat="48.54016" lon="0.6869">
        <ele>203</ele>
        <time>2022-05-22T01:11:02Z</time>
      </trkpt>
      <trkpt lat="48.5403" lon="0.68788">
        <ele>191</ele>
        <time>2022-05-22T01:11:14Z</time>
      </trkpt>
      <trkpt lat="48.54078" lon="0.69003">
        <ele>177</ele>
        <time>2022-05-22T01:11:41Z</time>
      </trkpt>
      <trkpt lat="48.54074" lon="0.69018">
        <ele>176</ele>
        <time>2022-05-22T01:11:43Z</time>
      </trkpt>
      <trkpt lat="48.54049" lon="0.6906">
        <ele>174</ele>
        <time>2022-05-22T01:11:50Z</time>
      </trkpt>
      <trkpt lat="48.54031" lon="0.69098">
        <ele>173</ele>
        <time>2022-05-22T01:11:55Z</time>
      </trkpt>
      <trkpt lat="48.54029" lon="0.69119">
        <ele>172</ele>
        <time>2022-05-22T01:11:58Z</time>
      </trkpt>
      <trkpt lat="48.54044" lon="0.69183">
        <ele>172</ele>
        <time>2022-05-22T01:12:06Z</time>
      </trkpt>
      <trkpt lat="48.54061" lon="0.69231">
        <ele>174</ele>
        <time>2022-05-22T01:12:12Z</time>
      </trkpt>
      <trkpt lat="48.54063" lon="0.69246">
        <ele>174</ele>
        <time>2022-05-22T01:12:14Z</time>
      </trkpt>
      <trkpt lat="48.54061" lon="0.69263">
        <ele>176</ele>
        <time>2022-05-22T01:12:16Z</time>
      </trkpt>
      <trkpt lat="48.54045" lon="0.69304">
        <ele>178</ele>
        <time>2022-05-22T01:12:21Z</time>
      </trkpt>
      <trkpt lat="48.54038" lon="0.69333">
        <ele>180</ele>
        <time>2022-05-22T01:12:25Z</time>
      </trkpt>
      <trkpt lat="48.54029" lon="0.69357">
        <ele>181</ele>
        <time>2022-05-22T01:12:28Z</time>
      </trkpt>
      <trkpt lat="48.53981" lon="0.69458">
        <ele>185</ele>
        <time>2022-05-22T01:12:43Z</time>
      </trkpt>
      <trkpt lat="48.53967" lon="0.69483">
        <ele>185</ele>
        <time>2022-05-22T01:12:47Z</time>
      </trkpt>
      <trkpt lat="48.53912" lon="0.69562">
        <ele>185</ele>
        <time>2022-05-22T01:13:00Z</time>
      </trkpt>
      <trkpt lat="48.53892" lon="0.69595">
        <ele>185</ele>
        <time>2022-05-22T01:13:06Z</time>
      </trkpt>
      <trkpt lat="48.53859" lon="0.69662">
        <ele>186</ele>
        <time>2022-05-22T01:13:15Z</time>
      </trkpt>
      <trkpt lat="48.53848" lon="0.69689">
        <ele>186</ele>
        <time>2022-05-22T01:13:19Z</time>
      </trkpt>
      <trkpt lat="48.53802" lon="0.69828">
        <ele>201</ele>
        <time>2022-05-22T01:13:37Z</time>
      </trkpt>
      <trkpt lat="48.53782" lon="0.69858">
        <ele>202</ele>
        <time>2022-05-22T01:13:42Z</time>
      </trkpt>
      <trkpt lat="48.53764" lon="0.6987">
        <ele>202</ele>
        <time>2022-05-22T01:13:46Z</time>
      </trkpt>
      <trkpt lat="48.5374" lon="0.69894">
        <ele>203</ele>
        <time>2022-05-22T01:13:51Z</time>
      </trkpt>
      <trkpt lat="48.53725" lon="0.69914">
        <ele>203</ele>
        <time>2022-05-22T01:13:55Z</time>
      </trkpt>
      <trkpt lat="48.53716" lon="0.69921">
        <ele>203</ele>
        <time>2022-05-22T01:13:56Z</time>
      </trkpt>
      <trkpt lat="48.53694" lon="0.69949">
        <ele>202</ele>
        <time>2022-05-22T01:14:02Z</time>
      </trkpt>
      <trkpt lat="48.53682" lon="0.69973">
        <ele>203</ele>
        <time>2022-05-22T01:14:05Z</time>
      </trkpt>
      <trkpt lat="48.53663" lon="0.70056">
        <ele>208</ele>
        <time>2022-05-22T01:14:15Z</time>
      </trkpt>
      <trkpt lat="48.53655" lon="0.70126">
        <ele>211</ele>
        <time>2022-05-22T01:14:24Z</time>
      </trkpt>
      <trkpt lat="48.53656" lon="0.70184">
        <ele>215</ele>
        <time>2022-05-22T01:14:31Z</time>
      </trkpt>
      <trkpt lat="48.53665" lon="0.70272">
        <ele>222</ele>
        <time>2022-05-22T01:14:41Z</time>
      </trkpt>
      <trkpt lat="48.5366" lon="0.70362">
        <ele>225</ele>
        <time>2022-05-22T01:14:52Z</time>
      </trkpt>
      <trkpt lat="48.53652" lon="0.7039">
        <ele>227</ele>
        <time>2022-05-22T01:14:55Z</time>
      </trkpt>
      <trkpt lat="48.53617" lon="0.70477">
        <ele>230</ele>
        <time>2022-05-22T01:15:07Z</time>
      </trkpt>
      <trkpt lat="48.536" lon="0.70548">
        <ele>231</ele>
        <time>2022-05-22T01:15:16Z</time>
      </trkpt>
      <trkpt lat="48.53599" lon="0.7064">
        <ele>231</ele>
        <time>2022-05-22T01:15:27Z</time>
      </trkpt>
      <trkpt lat="48.53626" lon="0.709">
        <ele>232</ele>
        <time>2022-05-22T01:15:58Z</time>
      </trkpt>
      <trkpt lat="48.53635" lon="0.70964">
        <ele>231</ele>
        <time>2022-05-22T01:16:06Z</time>
      </trkpt>
      <trkpt lat="48.53635" lon="0.70981">
        <ele>231</ele>
        <time>2022-05-22T01:16:08Z</time>
      </trkpt>
      <trkpt lat="48.53643" lon="0.7103">
        <ele>231</ele>
        <time>2022-05-22T01:16:14Z</time>
      </trkpt>
      <trkpt lat="48.53662" lon="0.71199">
        <ele>231</ele>
        <time>2022-05-22T01:16:34Z</time>
      </trkpt>
      <trkpt lat="48.53666" lon="0.71273">
        <ele>231</ele>
        <time>2022-05-22T01:16:43Z</time>
      </trkpt>
      <trkpt lat="48.53634" lon="0.7186">
        <ele>230</ele>
        <time>2022-05-22T01:17:52Z</time>
      </trkpt>
      <trkpt lat="48.53572" lon="0.72386">
        <ele>225</ele>
        <time>2022-05-22T01:18:55Z</time>
      </trkpt>
      <trkpt lat="48.53548" lon="0.72485">
        <ele>222</ele>
        <time>2022-05-22T01:19:07Z</time>
      </trkpt>
      <trkpt lat="48.53489" lon="0.72665">
        <ele>220</ele>
        <time>2022-05-22T01:19:31Z</time>
      </trkpt>
      <trkpt lat="48.53312" lon="0.73227">
        <ele>223</ele>
        <time>2022-05-22T01:20:44Z</time>
      </trkpt>
      <trkpt lat="48.53289" lon="0.7328">
        <ele>224</ele>
        <time>2022-05-22T01:20:52Z</time>
      </trkpt>
      <trkpt lat="48.5325" lon="0.73356">
        <ele>223</ele>
        <time>2022-05-22T01:21:03Z</time>
      </trkpt>
      <trkpt lat="48.53241" lon="0.73382">
        <ele>223</ele>
        <time>2022-05-22T01:21:07Z</time>
      </trkpt>
      <trkpt lat="48.53228" lon="0.73409">
        <ele>222</ele>
        <time>2022-05-22T01:21:11Z</time>
      </trkpt>
      <trkpt lat="48.53211" lon="0.73459">
        <ele>221</ele>
        <time>2022-05-22T01:21:17Z</time>
      </trkpt>
      <trkpt lat="48.53122" lon="0.73765">
        <ele>216</ele>
        <time>2022-05-22T01:21:57Z</time>
      </trkpt>
      <trkpt lat="48.53106" lon="0.73825">
        <ele>217</ele>
        <time>2022-05-22T01:22:04Z</time>
      </trkpt>
      <trkpt lat="48.53101" lon="0.73857">
        <ele>217</ele>
        <time>2022-05-22T01:22:08Z</time>
      </trkpt>
      <trkpt lat="48.53056" lon="0.74025">
        <ele>219</ele>
        <time>2022-05-22T01:22:30Z</time>
      </trkpt>
      <trkpt lat="48.53054" lon="0.74041">
        <ele>219</ele>
        <time>2022-05-22T01:22:31Z</time>
      </trkpt>
      <trkpt lat="48.53044" lon="0.74065">
        <ele>219</ele>
        <time>2022-05-22T01:22:35Z</time>
      </trkpt>
      <trkpt lat="48.53035" lon="0.7407">
        <ele>219</ele>
        <time>2022-05-22T01:22:36Z</time>
      </trkpt>
      <trkpt lat="48.53044" lon="0.74168">
        <ele>219</ele>
        <time>2022-05-22T01:22:48Z</time>
      </trkpt>
      <trkpt lat="48.53057" lon="0.74234">
        <ele>218</ele>
        <time>2022-05-22T01:22:56Z</time>
      </trkpt>
      <trkpt lat="48.53055" lon="0.74252">
        <ele>218</ele>
        <time>2022-05-22T01:22:58Z</time>
      </trkpt>
      <trkpt lat="48.53057" lon="0.74271">
        <ele>217</ele>
        <time>2022-05-22T01:23:01Z</time>
      </trkpt>
      <trkpt lat="48.53065" lon="0.74279">
        <ele>216</ele>
        <time>2022-05-22T01:23:02Z</time>
      </trkpt>
      <trkpt lat="48.53068" lon="0.74301">
        <ele>215</ele>
        <time>2022-05-22T01:23:05Z</time>
      </trkpt>
      <trkpt lat="48.53071" lon="0.74326">
        <ele>213</ele>
        <time>2022-05-22T01:23:08Z</time>
      </trkpt>
      <trkpt lat="48.53072" lon="0.7437">
        <ele>210</ele>
        <time>2022-05-22T01:23:13Z</time>
      </trkpt>
      <trkpt lat="48.53064" lon="0.74489">
        <ele>202</ele>
        <time>2022-05-22T01:23:27Z</time>
      </trkpt>
      <trkpt lat="48.53033" lon="0.74599">
        <ele>197</ele>
        <time>2022-05-22T01:23:41Z</time>
      </trkpt>
      <trkpt lat="48.53006" lon="0.74712">
        <ele>192</ele>
        <time>2022-05-22T01:23:56Z</time>
      </trkpt>
      <trkpt lat="48.53007" lon="0.74747">
        <ele>189</ele>
        <time>2022-05-22T01:24:00Z</time>
      </trkpt>
      <trkpt lat="48.53021" lon="0.74823">
        <ele>184</ele>
        <time>2022-05-22T01:24:09Z</time>
      </trkpt>
      <trkpt lat="48.53025" lon="0.7486">
        <ele>182</ele>
        <time>2022-05-22T01:24:13Z</time>
      </trkpt>
      <trkpt lat="48.53024" lon="0.74878">
        <ele>181</ele>
        <time>2022-05-22T01:24:16Z</time>
      </trkpt>
      <trkpt lat="48.53005" lon="0.74965">
        <ele>176</ele>
        <time>2022-05-22T01:24:26Z</time>
      </trkpt>
      <trkpt lat="48.52998" lon="0.74979">
        <ele>175</ele>
        <time>2022-05-22T01:24:28Z</time>
      </trkpt>
      <trkpt lat="48.52973" lon="0.74995">
        <ele>174</ele>
        <time>2022-05-22T01:24:33Z</time>
      </trkpt>
      <trkpt lat="48.52954" lon="0.75024">
        <ele>172</ele>
        <time>2022-05-22T01:24:38Z</time>
      </trkpt>
      <trkpt lat="48.52937" lon="0.75056">
        <ele>171</ele>
        <time>2022-05-22T01:24:43Z</time>
      </trkpt>
      <trkpt lat="48.52906" lon="0.75129">
        <ele>169</ele>
        <time>2022-05-22T01:24:53Z</time>
      </trkpt>
      <trkpt lat="48.5291" lon="0.75151">
        <ele>168</ele>
        <time>2022-05-22T01:24:56Z</time>
      </trkpt>
      <trkpt lat="48.52927" lon="0.75168">
        <ele>168</ele>
        <time>2022-05-22T01:24:59Z</time>
      </trkpt>
      <trkpt lat="48.52921" lon="0.7518">
        <ele>168</ele>
        <time>2022-05-22T01:25:01Z</time>
      </trkpt>
      <trkpt lat="48.52903" lon="0.75258">
        <ele>166</ele>
        <time>2022-05-22T01:25:11Z</time>
      </trkpt>
      <trkpt lat="48.52857" lon="0.7549">
        <ele>166</ele>
        <time>2022-05-22T01:25:39Z</time>
      </trkpt>
      <trkpt lat="48.52846" lon="0.75495">
        <ele>166</ele>
        <time>2022-05-22T01:25:41Z</time>
      </trkpt>
      <trkpt lat="48.52834" lon="0.75535">
        <ele>167</ele>
        <time>2022-05-22T01:25:47Z</time>
      </trkpt>
      <trkpt lat="48.52818" lon="0.7557">
        <ele>169</ele>
        <time>2022-05-22T01:25:52Z</time>
      </trkpt>
      <trkpt lat="48.52819" lon="0.75585">
        <ele>170</ele>
        <time>2022-05-22T01:25:53Z</time>
      </trkpt>
      <trkpt lat="48.52814" lon="0.75648">
        <ele>172</ele>
        <time>2022-05-22T01:26:01Z</time>
      </trkpt>
      <trkpt lat="48.52815" lon="0.75668">
        <ele>172</ele>
        <time>2022-05-22T01:26:03Z</time>
      </trkpt>
      <trkpt lat="48.52808" lon="0.75737">
        <ele>173</ele>
        <time>2022-05-22T01:26:11Z</time>
      </trkpt>
      <trkpt lat="48.5281" lon="0.75788">
        <ele>174</ele>
        <time>2022-05-22T01:26:18Z</time>
      </trkpt>
      <trkpt lat="48.52806" lon="0.75821">
        <ele>175</ele>
        <time>2022-05-22T01:26:21Z</time>
      </trkpt>
      <trkpt lat="48.52806" lon="0.75885">
        <ele>176</ele>
        <time>2022-05-22T01:26:29Z</time>
      </trkpt>
      <trkpt lat="48.52813" lon="0.76029">
        <ele>177</ele>
        <time>2022-05-22T01:26:46Z</time>
      </trkpt>
      <trkpt lat="48.52812" lon="0.76043">
        <ele>178</ele>
        <time>2022-05-22T01:26:48Z</time>
      </trkpt>
      <trkpt lat="48.52816" lon="0.76073">
        <ele>178</ele>
        <time>2022-05-22T01:26:51Z</time>
      </trkpt>
      <trkpt lat="48.52811" lon="0.76086">
        <ele>178</ele>
        <time>2022-05-22T01:26:53Z</time>
      </trkpt>
      <trkpt lat="48.52807" lon="0.76113">
        <ele>179</ele>
        <time>2022-05-22T01:26:56Z</time>
      </trkpt>
      <trkpt lat="48.52794" lon="0.76153">
        <ele>179</ele>
        <time>2022-05-22T01:27:02Z</time>
      </trkpt>
      <trkpt lat="48.52779" lon="0.76224">
        <ele>179</ele>
        <time>2022-05-22T01:27:10Z</time>
      </trkpt>
      <trkpt lat="48.52766" lon="0.76359">
        <ele>180</ele>
        <time>2022-05-22T01:27:26Z</time>
      </trkpt>
      <trkpt lat="48.5276" lon="0.76375">
        <ele>179</ele>
        <time>2022-05-22T01:27:29Z</time>
      </trkpt>
      <trkpt lat="48.52758" lon="0.76392">
        <ele>179</ele>
        <time>2022-05-22T01:27:31Z</time>
      </trkpt>
      <trkpt lat="48.52749" lon="0.76424">
        <ele>178</ele>
        <time>2022-05-22T01:27:35Z</time>
      </trkpt>
      <trkpt lat="48.52732" lon="0.76474">
        <ele>181</ele>
        <time>2022-05-22T01:27:41Z</time>
      </trkpt>
      <trkpt lat="48.52699" lon="0.76548">
        <ele>183</ele>
        <time>2022-05-22T01:27:52Z</time>
      </trkpt>
      <trkpt lat="48.52663" lon="0.76658">
        <ele>184</ele>
        <time>2022-05-22T01:28:06Z</time>
      </trkpt>
      <trkpt lat="48.52608" lon="0.76809">
        <ele>185</ele>
        <time>2022-05-22T01:28:27Z</time>
      </trkpt>
      <trkpt lat="48.52588" lon="0.76871">
        <ele>185</ele>
        <time>2022-05-22T01:28:35Z</time>
      </trkpt>
      <trkpt lat="48.52563" lon="0.76984">
        <ele>186</ele>
        <time>2022-05-22T01:28:49Z</time>
      </trkpt>
      <trkpt lat="48.52538" lon="0.77118">
        <ele>186</ele>
        <time>2022-05-22T01:29:05Z</time>
      </trkpt>
      <trkpt lat="48.52522" lon="0.77168">
        <ele>186</ele>
        <time>2022-05-22T01:29:12Z</time>
      </trkpt>
      <trkpt lat="48.52504" lon="0.77214">
        <ele>183</ele>
        <time>2022-05-22T01:29:18Z</time>
      </trkpt>
      <trkpt lat="48.52451" lon="0.77301">
        <ele>180</ele>
        <time>2022-05-22T01:29:32Z</time>
      </trkpt>
      <trkpt lat="48.52369" lon="0.77395">
        <ele>182</ele>
        <time>2022-05-22T01:29:50Z</time>
      </trkpt>
      <trkpt lat="48.52328" lon="0.77447">
        <ele>184</ele>
        <time>2022-05-22T01:30:00Z</time>
      </trkpt>
      <trkpt lat="48.5227" lon="0.77511">
        <ele>189</ele>
        <time>2022-05-22T01:30:13Z</time>
      </trkpt>
      <trkpt lat="48.52224" lon="0.77571">
        <ele>195</ele>
        <time>2022-05-22T01:30:23Z</time>
      </trkpt>
      <trkpt lat="48.52191" lon="0.77623">
        <ele>202</ele>
        <time>2022-05-22T01:30:32Z</time>
      </trkpt>
      <trkpt lat="48.52167" lon="0.77684">
        <ele>206</ele>
        <time>2022-05-22T01:30:40Z</time>
      </trkpt>
      <trkpt lat="48.52152" lon="0.7774">
        <ele>206</ele>
        <time>2022-05-22T01:30:47Z</time>
      </trkpt>
      <trkpt lat="48.52129" lon="0.77871">
        <ele>207</ele>
        <time>2022-05-22T01:31:03Z</time>
      </trkpt>
      <trkpt lat="48.52112" lon="0.78021">
        <ele>213</ele>
        <time>2022-05-22T01:31:21Z</time>
      </trkpt>
      <trkpt lat="48.52112" lon="0.7805">
        <ele>214</ele>
        <time>2022-05-22T01:31:25Z</time>
      </trkpt>
      <trkpt lat="48.52121" lon="0.78105">
        <ele>215</ele>
        <time>2022-05-22T01:31:31Z</time>
      </trkpt>
      <trkpt lat="48.52126" lon="0.78153">
        <ele>216</ele>
        <time>2022-05-22T01:31:37Z</time>
      </trkpt>
      <trkpt lat="48.52135" lon="0.78305">
        <ele>215</ele>
        <time>2022-05-22T01:31:55Z</time>
      </trkpt>
      <trkpt lat="48.52135" lon="0.78387">
        <ele>217</ele>
        <time>2022-05-22T01:32:05Z</time>
      </trkpt>
      <trkpt lat="48.52124" lon="0.78461">
        <ele>221</ele>
        <time>2022-05-22T01:32:14Z</time>
      </trkpt>
      <trkpt lat="48.52116" lon="0.78489">
        <ele>222</ele>
        <time>2022-05-22T01:32:17Z</time>
      </trkpt>
      <trkpt lat="48.52094" lon="0.78539">
        <ele>223</ele>
        <time>2022-05-22T01:32:24Z</time>
      </trkpt>
      <trkpt lat="48.52039" lon="0.7864">
        <ele>219</ele>
        <time>2022-05-22T01:32:40Z</time>
      </trkpt>
      <trkpt lat="48.52002" lon="0.78701">
        <ele>215</ele>
        <time>2022-05-22T01:32:50Z</time>
      </trkpt>
      <trkpt lat="48.51919" lon="0.78854">
        <ele>209</ele>
        <time>2022-05-22T01:33:13Z</time>
      </trkpt>
      <trkpt lat="48.51909" lon="0.78868">
        <ele>209</ele>
        <time>2022-05-22T01:33:15Z</time>
      </trkpt>
      <trkpt lat="48.51887" lon="0.78913">
        <ele>206</ele>
        <time>2022-05-22T01:33:22Z</time>
      </trkpt>
      <trkpt lat="48.51887" lon="0.78932">
        <ele>206</ele>
        <time>2022-05-22T01:33:24Z</time>
      </trkpt>
      <trkpt lat="48.51895" lon="0.78965">
        <ele>205</ele>
        <time>2022-05-22T01:33:28Z</time>
      </trkpt>
      <trkpt lat="48.51865" lon="0.79188">
        <ele>200</ele>
        <time>2022-05-22T01:33:55Z</time>
      </trkpt>
      <trkpt lat="48.51863" lon="0.79247">
        <ele>199</ele>
        <time>2022-05-22T01:34:02Z</time>
      </trkpt>
      <trkpt lat="48.51865" lon="0.79319">
        <ele>199</ele>
        <time>2022-05-22T01:34:10Z</time>
      </trkpt>
      <trkpt lat="48.51875" lon="0.79572">
        <ele>199</ele>
        <time>2022-05-22T01:34:40Z</time>
      </trkpt>
      <trkpt lat="48.51881" lon="0.79647">
        <ele>198</ele>
        <time>2022-05-22T01:34:49Z</time>
      </trkpt>
      <trkpt lat="48.51902" lon="0.79757">
        <ele>199</ele>
        <time>2022-05-22T01:35:03Z</time>
      </trkpt>
      <trkpt lat="48.51922" lon="0.79826">
        <ele>199</ele>
        <time>2022-05-22T01:35:12Z</time>
      </trkpt>
      <trkpt lat="48.5193" lon="0.79885">
        <ele>201</ele>
        <time>2022-05-22T01:35:19Z</time>
      </trkpt>
      <trkpt lat="48.51932" lon="0.79932">
        <ele>202</ele>
        <time>2022-05-22T01:35:24Z</time>
      </trkpt>
      <trkpt lat="48.5193" lon="0.79981">
        <ele>202</ele>
        <time>2022-05-22T01:35:30Z</time>
      </trkpt>
      <trkpt lat="48.51933" lon="0.79998">
        <ele>203</ele>
        <time>2022-05-22T01:35:32Z</time>
      </trkpt>
      <trkpt lat="48.51933" lon="0.80016">
        <ele>203</ele>
        <time>2022-05-22T01:35:34Z</time>
      </trkpt>
      <trkpt lat="48.51922" lon="0.80102">
        <ele>203</ele>
        <time>2022-05-22T01:35:45Z</time>
      </trkpt>
      <trkpt lat="48.51921" lon="0.80134">
        <ele>203</ele>
        <time>2022-05-22T01:35:48Z</time>
      </trkpt>
      <trkpt lat="48.51925" lon="0.80191">
        <ele>205</ele>
        <time>2022-05-22T01:35:55Z</time>
      </trkpt>
      <trkpt lat="48.51932" lon="0.80236">
        <ele>207</ele>
        <time>2022-05-22T01:36:01Z</time>
      </trkpt>
      <trkpt lat="48.51972" lon="0.80356">
        <ele>212</ele>
        <time>2022-05-22T01:36:16Z</time>
      </trkpt>
      <trkpt lat="48.51986" lon="0.80411">
        <ele>215</ele>
        <time>2022-05-22T01:36:23Z</time>
      </trkpt>
      <trkpt lat="48.51983" lon="0.80471">
        <ele>220</ele>
        <time>2022-05-22T01:36:30Z</time>
      </trkpt>
      <trkpt lat="48.51976" lon="0.80529">
        <ele>224</ele>
        <time>2022-05-22T01:36:37Z</time>
      </trkpt>
      <trkpt lat="48.51974" lon="0.80589">
        <ele>228</ele>
        <time>2022-05-22T01:36:44Z</time>
      </trkpt>
      <trkpt lat="48.51976" lon="0.80604">
        <ele>229</ele>
        <time>2022-05-22T01:36:46Z</time>
      </trkpt>
      <trkpt lat="48.51987" lon="0.80643">
        <ele>231</ele>
        <time>2022-05-22T01:36:51Z</time>
      </trkpt>
      <trkpt lat="48.52013" lon="0.80704">
        <ele>235</ele>
        <time>2022-05-22T01:37:00Z</time>
      </trkpt>
      <trkpt lat="48.52036" lon="0.80733">
        <ele>238</ele>
        <time>2022-05-22T01:37:05Z</time>
      </trkpt>
      <trkpt lat="48.52103" lon="0.80843">
        <ele>246</ele>
        <time>2022-05-22T01:37:23Z</time>
      </trkpt>
      <trkpt lat="48.52119" lon="0.80884">
        <ele>247</ele>
        <time>2022-05-22T01:37:28Z</time>
      </trkpt>
      <trkpt lat="48.52133" lon="0.80911">
        <ele>247</ele>
        <time>2022-05-22T01:37:32Z</time>
      </trkpt>
      <trkpt lat="48.52236" lon="0.81186">
        <ele>248</ele>
        <time>2022-05-22T01:38:10Z</time>
      </trkpt>
      <trkpt lat="48.52242" lon="0.81216">
        <ele>248</ele>
        <time>2022-05-22T01:38:13Z</time>
      </trkpt>
      <trkpt lat="48.52267" lon="0.8129">
        <ele>248</ele>
        <time>2022-05-22T01:38:23Z</time>
      </trkpt>
      <trkpt lat="48.52284" lon="0.81329">
        <ele>248</ele>
        <time>2022-05-22T01:38:29Z</time>
      </trkpt>
      <trkpt lat="48.52332" lon="0.81483">
        <ele>246</ele>
        <time>2022-05-22T01:38:49Z</time>
      </trkpt>
      <trkpt lat="48.52353" lon="0.81535">
        <ele>246</ele>
        <time>2022-05-22T01:38:56Z</time>
      </trkpt>
      <trkpt lat="48.5236" lon="0.81569">
        <ele>245</ele>
        <time>2022-05-22T01:39:00Z</time>
      </trkpt>
      <trkpt lat="48.52384" lon="0.81634">
        <ele>244</ele>
        <time>2022-05-22T01:39:09Z</time>
      </trkpt>
      <trkpt lat="48.52396" lon="0.81683">
        <ele>243</ele>
        <time>2022-05-22T01:39:15Z</time>
      </trkpt>
      <trkpt lat="48.52402" lon="0.81696">
        <ele>243</ele>
        <time>2022-05-22T01:39:17Z</time>
      </trkpt>
      <trkpt lat="48.5241" lon="0.81726">
        <ele>244</ele>
        <time>2022-05-22T01:39:21Z</time>
      </trkpt>
      <trkpt lat="48.52433" lon="0.81778">
        <ele>243</ele>
        <time>2022-05-22T01:39:28Z</time>
      </trkpt>
      <trkpt lat="48.52455" lon="0.81812">
        <ele>243</ele>
        <time>2022-05-22T01:39:34Z</time>
      </trkpt>
      <trkpt lat="48.52471" lon="0.81853">
        <ele>242</ele>
        <time>2022-05-22T01:39:39Z</time>
      </trkpt>
      <trkpt lat="48.52478" lon="0.81862">
        <ele>242</ele>
        <time>2022-05-22T01:39:41Z</time>
      </trkpt>
      <trkpt lat="48.52467" lon="0.8186">
        <ele>242</ele>
        <time>2022-05-22T01:39:43Z</time>
      </trkpt>
      <trkpt lat="48.52504" lon="0.81898">
        <ele>241</ele>
        <time>2022-05-22T01:39:51Z</time>
      </trkpt>
      <trkpt lat="48.52532" lon="0.81953">
        <ele>240</ele>
        <time>2022-05-22T01:39:59Z</time>
      </trkpt>
      <trkpt lat="48.52556" lon="0.82025">
        <ele>242</ele>
        <time>2022-05-22T01:40:08Z</time>
      </trkpt>
      <trkpt lat="48.52587" lon="0.821">
        <ele>244</ele>
        <time>2022-05-22T01:40:19Z</time>
      </trkpt>
      <trkpt lat="48.5261" lon="0.82171">
        <ele>246</ele>
        <time>2022-05-22T01:40:28Z</time>
      </trkpt>
      <trkpt lat="48.52621" lon="0.82221">
        <ele>247</ele>
        <time>2022-05-22T01:40:34Z</time>
      </trkpt>
      <trkpt lat="48.52631" lon="0.82252">
        <ele>247</ele>
        <time>2022-05-22T01:40:38Z</time>
      </trkpt>
      <trkpt lat="48.5265" lon="0.82296">
        <ele>246</ele>
        <time>2022-05-22T01:40:45Z</time>
      </trkpt>
      <trkpt lat="48.5266" lon="0.8233">
        <ele>245</ele>
        <time>2022-05-22T01:40:49Z</time>
      </trkpt>
      <trkpt lat="48.52699" lon="0.82478">
        <ele>243</ele>
        <time>2022-05-22T01:41:08Z</time>
      </trkpt>
      <trkpt lat="48.52709" lon="0.82503">
        <ele>244</ele>
        <time>2022-05-22T01:41:11Z</time>
      </trkpt>
      <trkpt lat="48.52711" lon="0.82517">
        <ele>244</ele>
        <time>2022-05-22T01:41:13Z</time>
      </trkpt>
      <trkpt lat="48.52731" lon="0.82589">
        <ele>245</ele>
        <time>2022-05-22T01:41:22Z</time>
      </trkpt>
      <trkpt lat="48.52742" lon="0.8262">
        <ele>245</ele>
        <time>2022-05-22T01:41:26Z</time>
      </trkpt>
      <trkpt lat="48.52759" lon="0.82687">
        <ele>242</ele>
        <time>2022-05-22T01:41:35Z</time>
      </trkpt>
      <trkpt lat="48.52772" lon="0.82719">
        <ele>241</ele>
        <time>2022-05-22T01:41:39Z</time>
      </trkpt>
      <trkpt lat="48.52795" lon="0.82803">
        <ele>239</ele>
        <time>2022-05-22T01:41:50Z</time>
      </trkpt>
      <trkpt lat="48.52806" lon="0.82854">
        <ele>240</ele>
        <time>2022-05-22T01:41:56Z</time>
      </trkpt>
      <trkpt lat="48.52842" lon="0.82971">
        <ele>243</ele>
        <time>2022-05-22T01:42:11Z</time>
      </trkpt>
      <trkpt lat="48.52856" lon="0.83004">
        <ele>243</ele>
        <time>2022-05-22T01:42:16Z</time>
      </trkpt>
      <trkpt lat="48.52874" lon="0.83034">
        <ele>244</ele>
        <time>2022-05-22T01:42:21Z</time>
      </trkpt>
      <trkpt lat="48.52937" lon="0.83124">
        <ele>244</ele>
        <time>2022-05-22T01:42:36Z</time>
      </trkpt>
      <trkpt lat="48.52958" lon="0.83161">
        <ele>245</ele>
        <time>2022-05-22T01:42:42Z</time>
      </trkpt>
      <trkpt lat="48.52995" lon="0.83208">
        <ele>246</ele>
        <time>2022-05-22T01:42:51Z</time>
      </trkpt>
      <trkpt lat="48.53026" lon="0.83257">
        <ele>248</ele>
        <time>2022-05-22T01:42:59Z</time>
      </trkpt>
      <trkpt lat="48.53051" lon="0.8329">
        <ele>249</ele>
        <time>2022-05-22T01:43:04Z</time>
      </trkpt>
      <trkpt lat="48.53079" lon="0.83348">
        <ele>248</ele>
        <time>2022-05-22T01:43:13Z</time>
      </trkpt>
      <trkpt lat="48.53102" lon="0.8338">
        <ele>247</ele>
        <time>2022-05-22T01:43:18Z</time>
      </trkpt>
      <trkpt lat="48.53112" lon="0.83404">
        <ele>246</ele>
        <time>2022-05-22T01:43:22Z</time>
      </trkpt>
      <trkpt lat="48.53127" lon="0.83424">
        <ele>246</ele>
        <time>2022-05-22T01:43:25Z</time>
      </trkpt>
      <trkpt lat="48.53139" lon="0.83447">
        <ele>245</ele>
        <time>2022-05-22T01:43:29Z</time>
      </trkpt>
      <trkpt lat="48.53201" lon="0.83599">
        <ele>240</ele>
        <time>2022-05-22T01:43:50Z</time>
      </trkpt>
      <trkpt lat="48.53247" lon="0.83769">
        <ele>237</ele>
        <time>2022-05-22T01:44:11Z</time>
      </trkpt>
      <trkpt lat="48.53276" lon="0.83899">
        <ele>237</ele>
        <time>2022-05-22T01:44:28Z</time>
      </trkpt>
      <trkpt lat="48.53287" lon="0.83928">
        <ele>237</ele>
        <time>2022-05-22T01:44:32Z</time>
      </trkpt>
      <trkpt lat="48.533" lon="0.83976">
        <ele>236</ele>
        <time>2022-05-22T01:44:38Z</time>
      </trkpt>
      <trkpt lat="48.5332" lon="0.84022">
        <ele>236</ele>
        <time>2022-05-22T01:44:44Z</time>
      </trkpt>
      <trkpt lat="48.53343" lon="0.84057">
        <ele>236</ele>
        <time>2022-05-22T01:44:50Z</time>
      </trkpt>
      <trkpt lat="48.53369" lon="0.84085">
        <ele>235</ele>
        <time>2022-05-22T01:44:56Z</time>
      </trkpt>
      <trkpt lat="48.5339" lon="0.84099">
        <ele>233</ele>
        <time>2022-05-22T01:45:00Z</time>
      </trkpt>
      <trkpt lat="48.53418" lon="0.84125">
        <ele>232</ele>
        <time>2022-05-22T01:45:06Z</time>
      </trkpt>
      <trkpt lat="48.53536" lon="0.84207">
        <ele>233</ele>
        <time>2022-05-22T01:45:29Z</time>
      </trkpt>
      <trkpt lat="48.53555" lon="0.84226">
        <ele>233</ele>
        <time>2022-05-22T01:45:33Z</time>
      </trkpt>
      <trkpt lat="48.5357" lon="0.84253">
        <ele>233</ele>
        <time>2022-05-22T01:45:37Z</time>
      </trkpt>
      <trkpt lat="48.53577" lon="0.84271">
        <ele>233</ele>
        <time>2022-05-22T01:45:39Z</time>
      </trkpt>
      <trkpt lat="48.53589" lon="0.84329">
        <ele>234</ele>
        <time>2022-05-22T01:45:47Z</time>
      </trkpt>
      <trkpt lat="48.5359" lon="0.84349">
        <ele>234</ele>
        <time>2022-05-22T01:45:49Z</time>
      </trkpt>
      <trkpt lat="48.53651" lon="0.84736">
        <ele>233</ele>
        <time>2022-05-22T01:46:36Z</time>
      </trkpt>
      <trkpt lat="48.5369" lon="0.85019">
        <ele>234</ele>
        <time>2022-05-22T01:47:10Z</time>
      </trkpt>
      <trkpt lat="48.53763" lon="0.85495">
        <ele>235</ele>
        <time>2022-05-22T01:48:07Z</time>
      </trkpt>
      <trkpt lat="48.53778" lon="0.85623">
        <ele>234</ele>
        <time>2022-05-22T01:48:23Z</time>
      </trkpt>
      <trkpt lat="48.53779" lon="0.85652">
        <ele>233</ele>
        <time>2022-05-22T01:48:26Z</time>
      </trkpt>
      <trkpt lat="48.53795" lon="0.85796">
        <ele>233</ele>
        <time>2022-05-22T01:48:43Z</time>
      </trkpt>
      <trkpt lat="48.53799" lon="0.85854">
        <ele>233</ele>
        <time>2022-05-22T01:48:50Z</time>
      </trkpt>
      <trkpt lat="48.53834" lon="0.86188">
        <ele>232</ele>
        <time>2022-05-22T01:49:30Z</time>
      </trkpt>
      <trkpt lat="48.53859" lon="0.86373">
        <ele>230</ele>
        <time>2022-05-22T01:49:52Z</time>
      </trkpt>
      <trkpt lat="48.53917" lon="0.86764">
        <ele>228</ele>
        <time>2022-05-22T01:50:39Z</time>
      </trkpt>
      <trkpt lat="48.53931" lon="0.87008">
        <ele>226</ele>
        <time>2022-05-22T01:51:08Z</time>
      </trkpt>
      <trkpt lat="48.53945" lon="0.87313">
        <ele>224</ele>
        <time>2022-05-22T01:51:44Z</time>
      </trkpt>
      <trkpt lat="48.53947" lon="0.87399">
        <ele>223</ele>
        <time>2022-05-22T01:51:55Z</time>
      </trkpt>
      <trkpt lat="48.53946" lon="0.87553">
        <ele>221</ele>
        <time>2022-05-22T01:52:13Z</time>
      </trkpt>
      <trkpt lat="48.53953" lon="0.87673">
        <ele>220</ele>
        <time>2022-05-22T01:52:27Z</time>
      </trkpt>
      <trkpt lat="48.53961" lon="0.87748">
        <ele>220</ele>
        <time>2022-05-22T01:52:36Z</time>
      </trkpt>
      <trkpt lat="48.54059" lon="0.88387">
        <ele>221</ele>
        <time>2022-05-22T01:53:53Z</time>
      </trkpt>
      <trkpt lat="48.54073" lon="0.88452">
        <ele>221</ele>
        <time>2022-05-22T01:54:01Z</time>
      </trkpt>
      <trkpt lat="48.54105" lon="0.88567">
        <ele>218</ele>
        <time>2022-05-22T01:54:16Z</time>
      </trkpt>
      <trkpt lat="48.54172" lon="0.88789">
        <ele>217</ele>
        <time>2022-05-22T01:54:45Z</time>
      </trkpt>
      <trkpt lat="48.54187" lon="0.88829">
        <ele>218</ele>
        <time>2022-05-22T01:54:50Z</time>
      </trkpt>
      <trkpt lat="48.54204" lon="0.88906">
        <ele>221</ele>
        <time>2022-05-22T01:55:00Z</time>
      </trkpt>
      <trkpt lat="48.54209" lon="0.88939">
        <ele>221</ele>
        <time>2022-05-22T01:55:04Z</time>
      </trkpt>
      <trkpt lat="48.54212" lon="0.88973">
        <ele>222</ele>
        <time>2022-05-22T01:55:08Z</time>
      </trkpt>
      <trkpt lat="48.54212" lon="0.89112">
        <ele>222</ele>
        <time>2022-05-22T01:55:24Z</time>
      </trkpt>
      <trkpt lat="48.5421" lon="0.89129">
        <ele>222</ele>
        <time>2022-05-22T01:55:26Z</time>
      </trkpt>
      <trkpt lat="48.54211" lon="0.89479">
        <ele>220</ele>
        <time>2022-05-22T01:56:07Z</time>
      </trkpt>
      <trkpt lat="48.54208" lon="0.89634">
        <ele>218</ele>
        <time>2022-05-22T01:56:25Z</time>
      </trkpt>
      <trkpt lat="48.54194" lon="0.89899">
        <ele>216</ele>
        <time>2022-05-22T01:56:57Z</time>
      </trkpt>
      <trkpt lat="48.54193" lon="0.89956">
        <ele>216</ele>
        <time>2022-05-22T01:57:03Z</time>
      </trkpt>
      <trkpt lat="48.54171" lon="0.90352">
        <ele>217</ele>
        <time>2022-05-22T01:57:50Z</time>
      </trkpt>
      <trkpt lat="48.54164" lon="0.90414">
        <ele>218</ele>
        <time>2022-05-22T01:57:58Z</time>
      </trkpt>
      <trkpt lat="48.54147" lon="0.90505">
        <ele>215</ele>
        <time>2022-05-22T01:58:09Z</time>
      </trkpt>
      <trkpt lat="48.54118" lon="0.90616">
        <ele>214</ele>
        <time>2022-05-22T01:58:23Z</time>
      </trkpt>
      <trkpt lat="48.54058" lon="0.90823">
        <ele>211</ele>
        <time>2022-05-22T01:58:50Z</time>
      </trkpt>
      <trkpt lat="48.54033" lon="0.90951">
        <ele>211</ele>
        <time>2022-05-22T01:59:05Z</time>
      </trkpt>
      <trkpt lat="48.54027" lon="0.91">
        <ele>212</ele>
        <time>2022-05-22T01:59:11Z</time>
      </trkpt>
      <trkpt lat="48.54022" lon="0.91119">
        <ele>213</ele>
        <time>2022-05-22T01:59:25Z</time>
      </trkpt>
      <trkpt lat="48.54017" lon="0.91175">
        <ele>214</ele>
        <time>2022-05-22T01:59:32Z</time>
      </trkpt>
      <trkpt lat="48.5395" lon="0.91481">
        <ele>212</ele>
        <time>2022-05-22T02:00:10Z</time>
      </trkpt>
      <trkpt lat="48.53872" lon="0.92032">
        <ele>212</ele>
        <time>2022-05-22T02:01:16Z</time>
      </trkpt>
      <trkpt lat="48.53856" lon="0.92103">
        <ele>211</ele>
        <time>2022-05-22T02:01:25Z</time>
      </trkpt>
      <trkpt lat="48.53773" lon="0.924">
        <ele>212</ele>
        <time>2022-05-22T02:02:03Z</time>
      </trkpt>
      <trkpt lat="48.53759" lon="0.92435">
        <ele>212</ele>
        <time>2022-05-22T02:02:08Z</time>
      </trkpt>
      <trkpt lat="48.53728" lon="0.925">
        <ele>213</ele>
        <time>2022-05-22T02:02:17Z</time>
      </trkpt>
      <trkpt lat="48.53608" lon="0.92733">
        <ele>212</ele>
        <time>2022-05-22T02:02:52Z</time>
      </trkpt>
      <trkpt lat="48.53583" lon="0.92793">
        <ele>211</ele>
        <time>2022-05-22T02:03:00Z</time>
      </trkpt>
      <trkpt lat="48.53554" lon="0.9292">
        <ele>211</ele>
        <time>2022-05-22T02:03:16Z</time>
      </trkpt>
      <trkpt lat="48.5355" lon="0.92948">
        <ele>211</ele>
        <time>2022-05-22T02:03:20Z</time>
      </trkpt>
      <trkpt lat="48.53523" lon="0.9304">
        <ele>209</ele>
        <time>2022-05-22T02:03:31Z</time>
      </trkpt>
      <trkpt lat="48.53507" lon="0.93084">
        <ele>207</ele>
        <time>2022-05-22T02:03:37Z</time>
      </trkpt>
      <trkpt lat="48.53463" lon="0.93186">
        <ele>207</ele>
        <time>2022-05-22T02:03:52Z</time>
      </trkpt>
      <trkpt lat="48.53363" lon="0.93432">
        <ele>210</ele>
        <time>2022-05-22T02:04:26Z</time>
      </trkpt>
      <trkpt lat="48.53356" lon="0.93461">
        <ele>210</ele>
        <time>2022-05-22T02:04:29Z</time>
      </trkpt>
      <trkpt lat="48.5335" lon="0.93504">
        <ele>210</ele>
        <time>2022-05-22T02:04:35Z</time>
      </trkpt>
      <trkpt lat="48.53352" lon="0.93534">
        <ele>210</ele>
        <time>2022-05-22T02:04:38Z</time>
      </trkpt>
      <trkpt lat="48.53378" lon="0.93588">
        <ele>210</ele>
        <time>2022-05-22T02:04:46Z</time>
      </trkpt>
      <trkpt lat="48.53386" lon="0.93598">
        <ele>210</ele>
        <time>2022-05-22T02:04:48Z</time>
      </trkpt>
      <trkpt lat="48.53399" lon="0.93624">
        <ele>211</ele>
        <time>2022-05-22T02:04:52Z</time>
      </trkpt>
      <trkpt lat="48.53444" lon="0.937">
        <ele>212</ele>
        <time>2022-05-22T02:05:04Z</time>
      </trkpt>
      <trkpt lat="48.53609" lon="0.93972">
        <ele>219</ele>
        <time>2022-05-22T02:05:47Z</time>
      </trkpt>
      <trkpt lat="48.53748" lon="0.94208">
        <ele>224</ele>
        <time>2022-05-22T02:06:24Z</time>
      </trkpt>
      <trkpt lat="48.53775" lon="0.94259">
        <ele>225</ele>
        <time>2022-05-22T02:06:32Z</time>
      </trkpt>
      <trkpt lat="48.53808" lon="0.94347">
        <ele>227</ele>
        <time>2022-05-22T02:06:44Z</time>
      </trkpt>
      <trkpt lat="48.53865" lon="0.94536">
        <ele>227</ele>
        <time>2022-05-22T02:07:08Z</time>
      </trkpt>
      <trkpt lat="48.53876" lon="0.9456">
        <ele>228</ele>
        <time>2022-05-22T02:07:12Z</time>
      </trkpt>
      <trkpt lat="48.53904" lon="0.94638">
        <ele>229</ele>
        <time>2022-05-22T02:07:22Z</time>
      </trkpt>
      <trkpt lat="48.5392" lon="0.94705">
        <ele>230</ele>
        <time>2022-05-22T02:07:31Z</time>
      </trkpt>
      <trkpt lat="48.53929" lon="0.9473">
        <ele>230</ele>
        <time>2022-05-22T02:07:34Z</time>
      </trkpt>
      <trkpt lat="48.53959" lon="0.94841">
        <ele>233</ele>
        <time>2022-05-22T02:07:48Z</time>
      </trkpt>
      <trkpt lat="48.5401" lon="0.95006">
        <ele>242</ele>
        <time>2022-05-22T02:08:10Z</time>
      </trkpt>
      <trkpt lat="48.5406" lon="0.95156">
        <ele>245</ele>
        <time>2022-05-22T02:08:29Z</time>
      </trkpt>
      <trkpt lat="48.54071" lon="0.9518">
        <ele>246</ele>
        <time>2022-05-22T02:08:33Z</time>
      </trkpt>
      <trkpt lat="48.54091" lon="0.95214">
        <ele>248</ele>
        <time>2022-05-22T02:08:38Z</time>
      </trkpt>
      <trkpt lat="48.54187" lon="0.95355">
        <ele>257</ele>
        <time>2022-05-22T02:09:02Z</time>
      </trkpt>
      <trkpt lat="48.54218" lon="0.95395">
        <ele>258</ele>
        <time>2022-05-22T02:09:09Z</time>
      </trkpt>
      <trkpt lat="48.54316" lon="0.95544">
        <ele>262</ele>
        <time>2022-05-22T02:09:34Z</time>
      </trkpt>
      <trkpt lat="48.54366" lon="0.95612">
        <ele>265</ele>
        <time>2022-05-22T02:09:46Z</time>
      </trkpt>
      <trkpt lat="48.54414" lon="0.95689">
        <ele>268</ele>
        <time>2022-05-22T02:09:58Z</time>
      </trkpt>
      <trkpt lat="48.54433" lon="0.95745">
        <ele>269</ele>
        <time>2022-05-22T02:10:06Z</time>
      </trkpt>
      <trkpt lat="48.54456" lon="0.95801">
        <ele>268</ele>
        <time>2022-05-22T02:10:14Z</time>
      </trkpt>
      <trkpt lat="48.54504" lon="0.95942">
        <ele>266</ele>
        <time>2022-05-22T02:10:32Z</time>
      </trkpt>
      <trkpt lat="48.5451" lon="0.95954">
        <ele>266</ele>
        <time>2022-05-22T02:10:34Z</time>
      </trkpt>
      <trkpt lat="48.54573" lon="0.96146">
        <ele>266</ele>
        <time>2022-05-22T02:10:59Z</time>
      </trkpt>
      <trkpt lat="48.54574" lon="0.96161">
        <ele>266</ele>
        <time>2022-05-22T02:11:01Z</time>
      </trkpt>
      <trkpt lat="48.54566" lon="0.9617">
        <ele>266</ele>
        <time>2022-05-22T02:11:03Z</time>
      </trkpt>
      <trkpt lat="48.5453" lon="0.9626">
        <ele>265</ele>
        <time>2022-05-22T02:11:15Z</time>
      </trkpt>
      <trkpt lat="48.54489" lon="0.96348">
        <ele>265</ele>
        <time>2022-05-22T02:11:28Z</time>
      </trkpt>
      <trkpt lat="48.5446" lon="0.96431">
        <ele>265</ele>
        <time>2022-05-22T02:11:39Z</time>
      </trkpt>
      <trkpt lat="48.54405" lon="0.96555">
        <ele>264</ele>
        <time>2022-05-22T02:11:57Z</time>
      </trkpt>
      <trkpt lat="48.5433" lon="0.9677">
        <ele>264</ele>
        <time>2022-05-22T02:12:25Z</time>
      </trkpt>
      <trkpt lat="48.54318" lon="0.96814">
        <ele>264</ele>
        <time>2022-05-22T02:12:31Z</time>
      </trkpt>
      <trkpt lat="48.54306" lon="0.96841">
        <ele>264</ele>
        <time>2022-05-22T02:12:35Z</time>
      </trkpt>
      <trkpt lat="48.54283" lon="0.96867">
        <ele>264</ele>
        <time>2022-05-22T02:12:40Z</time>
      </trkpt>
      <trkpt lat="48.54275" lon="0.96883">
        <ele>264</ele>
        <time>2022-05-22T02:12:42Z</time>
      </trkpt>
      <trkpt lat="48.54248" lon="0.97013">
        <ele>264</ele>
        <time>2022-05-22T02:12:58Z</time>
      </trkpt>
      <trkpt lat="48.54231" lon="0.97108">
        <ele>264</ele>
        <time>2022-05-22T02:13:10Z</time>
      </trkpt>
      <trkpt lat="48.54216" lon="0.97171">
        <ele>263</ele>
        <time>2022-05-22T02:13:18Z</time>
      </trkpt>
      <trkpt lat="48.54197" lon="0.97283">
        <ele>263</ele>
        <time>2022-05-22T02:13:31Z</time>
      </trkpt>
      <trkpt lat="48.54174" lon="0.97361">
        <ele>262</ele>
        <time>2022-05-22T02:13:41Z</time>
      </trkpt>
      <trkpt lat="48.54154" lon="0.97418">
        <ele>261</ele>
        <time>2022-05-22T02:13:49Z</time>
      </trkpt>
      <trkpt lat="48.5415" lon="0.97448">
        <ele>261</ele>
        <time>2022-05-22T02:13:52Z</time>
      </trkpt>
      <trkpt lat="48.5415" lon="0.97479">
        <ele>261</ele>
        <time>2022-05-22T02:13:56Z</time>
      </trkpt>
      <trkpt lat="48.54146" lon="0.97493">
        <ele>261</ele>
        <time>2022-05-22T02:13:58Z</time>
      </trkpt>
      <trkpt lat="48.54109" lon="0.97574">
        <ele>261</ele>
        <time>2022-05-22T02:14:10Z</time>
      </trkpt>
      <trkpt lat="48.54092" lon="0.97598">
        <ele>261</ele>
        <time>2022-05-22T02:14:14Z</time>
      </trkpt>
      <trkpt lat="48.54083" lon="0.97608">
        <ele>260</ele>
        <time>2022-05-22T02:14:16Z</time>
      </trkpt>
      <trkpt lat="48.53961" lon="0.97698">
        <ele>259</ele>
        <time>2022-05-22T02:14:40Z</time>
      </trkpt>
      <trkpt lat="48.53956" lon="0.97715">
        <ele>258</ele>
        <time>2022-05-22T02:14:42Z</time>
      </trkpt>
      <trkpt lat="48.54021" lon="0.97888">
        <ele>258</ele>
        <time>2022-05-22T02:15:05Z</time>
      </trkpt>
      <trkpt lat="48.54112" lon="0.9818">
        <ele>262</ele>
        <time>2022-05-22T02:15:43Z</time>
      </trkpt>
      <trkpt lat="48.54133" lon="0.98237">
        <ele>265</ele>
        <time>2022-05-22T02:15:51Z</time>
      </trkpt>
      <trkpt lat="48.54167" lon="0.98291">
        <ele>270</ele>
        <time>2022-05-22T02:16:00Z</time>
      </trkpt>
      <trkpt lat="48.54204" lon="0.98364">
        <ele>273</ele>
        <time>2022-05-22T02:16:11Z</time>
      </trkpt>
      <trkpt lat="48.54212" lon="0.98389">
        <ele>274</ele>
        <time>2022-05-22T02:16:14Z</time>
      </trkpt>
      <trkpt lat="48.54224" lon="0.9841">
        <ele>274</ele>
        <time>2022-05-22T02:16:17Z</time>
      </trkpt>
      <trkpt lat="48.54233" lon="0.98437">
        <ele>273</ele>
        <time>2022-05-22T02:16:21Z</time>
      </trkpt>
      <trkpt lat="48.5424" lon="0.98447">
        <ele>272</ele>
        <time>2022-05-22T02:16:23Z</time>
      </trkpt>
      <trkpt lat="48.5426" lon="0.98499">
        <ele>270</ele>
        <time>2022-05-22T02:16:30Z</time>
      </trkpt>
      <trkpt lat="48.54286" lon="0.98555">
        <ele>267</ele>
        <time>2022-05-22T02:16:38Z</time>
      </trkpt>
      <trkpt lat="48.54291" lon="0.98586">
        <ele>267</ele>
        <time>2022-05-22T02:16:41Z</time>
      </trkpt>
      <trkpt lat="48.543" lon="0.98594">
        <ele>266</ele>
        <time>2022-05-22T02:16:43Z</time>
      </trkpt>
      <trkpt lat="48.54315" lon="0.98618">
        <ele>266</ele>
        <time>2022-05-22T02:16:47Z</time>
      </trkpt>
      <trkpt lat="48.5435" lon="0.98688">
        <ele>266</ele>
        <time>2022-05-22T02:16:58Z</time>
      </trkpt>
      <trkpt lat="48.54359" lon="0.98714">
        <ele>266</ele>
        <time>2022-05-22T02:17:01Z</time>
      </trkpt>
      <trkpt lat="48.54393" lon="0.98782">
        <ele>267</ele>
        <time>2022-05-22T02:17:11Z</time>
      </trkpt>
      <trkpt lat="48.54409" lon="0.98825">
        <ele>266</ele>
        <time>2022-05-22T02:17:17Z</time>
      </trkpt>
      <trkpt lat="48.54456" lon="0.98921">
        <ele>267</ele>
        <time>2022-05-22T02:17:31Z</time>
      </trkpt>
      <trkpt lat="48.5449" lon="0.98999">
        <ele>265</ele>
        <time>2022-05-22T02:17:42Z</time>
      </trkpt>
      <trkpt lat="48.54528" lon="0.99077">
        <ele>266</ele>
        <time>2022-05-22T02:17:53Z</time>
      </trkpt>
      <trkpt lat="48.54539" lon="0.99107">
        <ele>266</ele>
        <time>2022-05-22T02:17:57Z</time>
      </trkpt>
      <trkpt lat="48.54547" lon="0.99119">
        <ele>266</ele>
        <time>2022-05-22T02:17:59Z</time>
      </trkpt>
      <trkpt lat="48.54552" lon="0.99136">
        <ele>266</ele>
        <time>2022-05-22T02:18:02Z</time>
      </trkpt>
      <trkpt lat="48.54566" lon="0.99161">
        <ele>266</ele>
        <time>2022-05-22T02:18:05Z</time>
      </trkpt>
      <trkpt lat="48.54628" lon="0.99297">
        <ele>268</ele>
        <time>2022-05-22T02:18:25Z</time>
      </trkpt>
      <trkpt lat="48.5467" lon="0.9938">
        <ele>268</ele>
        <time>2022-05-22T02:18:37Z</time>
      </trkpt>
      <trkpt lat="48.54691" lon="0.9943">
        <ele>268</ele>
        <time>2022-05-22T02:18:44Z</time>
      </trkpt>
      <trkpt lat="48.54738" lon="0.9952">
        <ele>267</ele>
        <time>2022-05-22T02:18:58Z</time>
      </trkpt>
      <trkpt lat="48.54743" lon="0.99535">
        <ele>268</ele>
        <time>2022-05-22T02:19:00Z</time>
      </trkpt>
      <trkpt lat="48.54803" lon="0.99659">
        <ele>267</ele>
        <time>2022-05-22T02:19:18Z</time>
      </trkpt>
      <trkpt lat="48.54808" lon="0.99674">
        <ele>267</ele>
        <time>2022-05-22T02:19:20Z</time>
      </trkpt>
      <trkpt lat="48.54829" lon="0.99712">
        <ele>266</ele>
        <time>2022-05-22T02:19:26Z</time>
      </trkpt>
      <trkpt lat="48.54833" lon="0.99725">
        <ele>266</ele>
        <time>2022-05-22T02:19:27Z</time>
      </trkpt>
      <trkpt lat="48.54855" lon="0.99761">
        <ele>264</ele>
        <time>2022-05-22T02:19:33Z</time>
      </trkpt>
      <trkpt lat="48.54859" lon="0.99776">
        <ele>264</ele>
        <time>2022-05-22T02:19:35Z</time>
      </trkpt>
      <trkpt lat="48.54872" lon="0.99805">
        <ele>262</ele>
        <time>2022-05-22T02:19:39Z</time>
      </trkpt>
      <trkpt lat="48.54878" lon="0.99837">
        <ele>261</ele>
        <time>2022-05-22T02:19:43Z</time>
      </trkpt>
      <trkpt lat="48.54877" lon="0.99889">
        <ele>261</ele>
        <time>2022-05-22T02:19:49Z</time>
      </trkpt>
      <trkpt lat="48.54882" lon="0.99957">
        <ele>258</ele>
        <time>2022-05-22T02:19:57Z</time>
      </trkpt>
      <trkpt lat="48.549" lon="1.00035">
        <ele>255</ele>
        <time>2022-05-22T02:20:07Z</time>
      </trkpt>
      <trkpt lat="48.55018" lon="1.00482">
        <ele>252</ele>
        <time>2022-05-22T02:21:04Z</time>
      </trkpt>
      <trkpt lat="48.55103" lon="1.00773">
        <ele>248</ele>
        <time>2022-05-22T02:21:41Z</time>
      </trkpt>
      <trkpt lat="48.55119" lon="1.00857">
        <ele>248</ele>
        <time>2022-05-22T02:21:51Z</time>
      </trkpt>
      <trkpt lat="48.55125" lon="1.00874">
        <ele>248</ele>
        <time>2022-05-22T02:21:54Z</time>
      </trkpt>
      <trkpt lat="48.55143" lon="1.00952">
        <ele>247</ele>
        <time>2022-05-22T02:22:03Z</time>
      </trkpt>
      <trkpt lat="48.55164" lon="1.0102">
        <ele>246</ele>
        <time>2022-05-22T02:22:12Z</time>
      </trkpt>
      <trkpt lat="48.55225" lon="1.01187">
        <ele>244</ele>
        <time>2022-05-22T02:22:35Z</time>
      </trkpt>
      <trkpt lat="48.55314" lon="1.01477">
        <ele>240</ele>
        <time>2022-05-22T02:23:12Z</time>
      </trkpt>
      <trkpt lat="48.55407" lon="1.01767">
        <ele>239</ele>
        <time>2022-05-22T02:23:50Z</time>
      </trkpt>
      <trkpt lat="48.55425" lon="1.01832">
        <ele>241</ele>
        <time>2022-05-22T02:23:58Z</time>
      </trkpt>
      <trkpt lat="48.55497" lon="1.02055">
        <ele>238</ele>
        <time>2022-05-22T02:24:28Z</time>
      </trkpt>
      <trkpt lat="48.55594" lon="1.02332">
        <ele>235</ele>
        <time>2022-05-22T02:25:05Z</time>
      </trkpt>
      <trkpt lat="48.55621" lon="1.02398">
        <ele>233</ele>
        <time>2022-05-22T02:25:14Z</time>
      </trkpt>
      <trkpt lat="48.55668" lon="1.025">
        <ele>229</ele>
        <time>2022-05-22T02:25:28Z</time>
      </trkpt>
      <trkpt lat="48.55699" lon="1.02555">
        <ele>228</ele>
        <time>2022-05-22T02:25:37Z</time>
      </trkpt>
      <trkpt lat="48.55764" lon="1.02705">
        <ele>224</ele>
        <time>2022-05-22T02:25:58Z</time>
      </trkpt>
      <trkpt lat="48.55789" lon="1.02745">
        <ele>224</ele>
        <time>2022-05-22T02:26:04Z</time>
      </trkpt>
      <trkpt lat="48.55819" lon="1.02812">
        <ele>223</ele>
        <time>2022-05-22T02:26:14Z</time>
      </trkpt>
      <trkpt lat="48.55838" lon="1.02847">
        <ele>222</ele>
        <time>2022-05-22T02:26:19Z</time>
      </trkpt>
      <trkpt lat="48.55852" lon="1.02865">
        <ele>222</ele>
        <time>2022-05-22T02:26:23Z</time>
      </trkpt>
      <trkpt lat="48.55886" lon="1.029">
        <ele>223</ele>
        <time>2022-05-22T02:26:30Z</time>
      </trkpt>
      <trkpt lat="48.55908" lon="1.0293">
        <ele>223</ele>
        <time>2022-05-22T02:26:35Z</time>
      </trkpt>
      <trkpt lat="48.55915" lon="1.02944">
        <ele>223</ele>
        <time>2022-05-22T02:26:37Z</time>
      </trkpt>
      <trkpt lat="48.55917" lon="1.02958">
        <ele>222</ele>
        <time>2022-05-22T02:26:39Z</time>
      </trkpt>
      <trkpt lat="48.55909" lon="1.02965">
        <ele>222</ele>
        <time>2022-05-22T02:26:41Z</time>
      </trkpt>
      <trkpt lat="48.55867" lon="1.02966">
        <ele>222</ele>
        <time>2022-05-22T02:26:48Z</time>
      </trkpt>
      <trkpt lat="48.55804" lon="1.02972">
        <ele>222</ele>
        <time>2022-05-22T02:26:59Z</time>
      </trkpt>
      <trkpt lat="48.55792" lon="1.02971">
        <ele>223</ele>
        <time>2022-05-22T02:27:01Z</time>
      </trkpt>
      <trkpt lat="48.55783" lon="1.02973">
        <ele>223</ele>
        <time>2022-05-22T02:27:03Z</time>
      </trkpt>
      <trkpt lat="48.55776" lon="1.02984">
        <ele>223</ele>
        <time>2022-05-22T02:27:05Z</time>
      </trkpt>
      <trkpt lat="48.55786" lon="1.03185">
        <ele>224</ele>
        <time>2022-05-22T02:27:29Z</time>
      </trkpt>
      <trkpt lat="48.55806" lon="1.03205">
        <ele>223</ele>
        <time>2022-05-22T02:27:33Z</time>
      </trkpt>
      <trkpt lat="48.55842" lon="1.03248">
        <ele>222</ele>
        <time>2022-05-22T02:27:41Z</time>
      </trkpt>
      <trkpt lat="48.5589" lon="1.03317">
        <ele>219</ele>
        <time>2022-05-22T02:27:53Z</time>
      </trkpt>
      <trkpt lat="48.55921" lon="1.03352">
        <ele>218</ele>
        <time>2022-05-22T02:28:00Z</time>
      </trkpt>
      <trkpt lat="48.55963" lon="1.03383">
        <ele>218</ele>
        <time>2022-05-22T02:28:08Z</time>
      </trkpt>
      <trkpt lat="48.55973" lon="1.03387">
        <ele>218</ele>
        <time>2022-05-22T02:28:10Z</time>
      </trkpt>
      <trkpt lat="48.55984" lon="1.03386">
        <ele>218</ele>
        <time>2022-05-22T02:28:12Z</time>
      </trkpt>
      <trkpt lat="48.56022" lon="1.03398">
        <ele>218</ele>
        <time>2022-05-22T02:28:19Z</time>
      </trkpt>
      <trkpt lat="48.56032" lon="1.03395">
        <ele>218</ele>
        <time>2022-05-22T02:28:21Z</time>
      </trkpt>
      <trkpt lat="48.5605" lon="1.03326">
        <ele>218</ele>
        <time>2022-05-22T02:28:29Z</time>
      </trkpt>
      <trkpt lat="48.56069" lon="1.03274">
        <ele>219</ele>
        <time>2022-05-22T02:28:36Z</time>
      </trkpt>
      <trkpt lat="48.56091" lon="1.03202">
        <ele>221</ele>
        <time>2022-05-22T02:28:46Z</time>
      </trkpt>
      <trkpt lat="48.56081" lon="1.03201">
        <ele>221</ele>
        <time>2022-05-22T02:28:47Z</time>
      </trkpt>
      <trkpt lat="48.56088" lon="1.03211">
        <ele>220</ele>
        <time>2022-05-22T02:28:49Z</time>
      </trkpt>
      <trkpt lat="48.56073" lon="1.03268">
        <ele>219</ele>
        <time>2022-05-22T02:28:56Z</time>
      </trkpt>
      <trkpt lat="48.56055" lon="1.03319">
        <ele>219</ele>
        <time>2022-05-22T02:29:03Z</time>
      </trkpt>
      <trkpt lat="48.56036" lon="1.03395">
        <ele>218</ele>
        <time>2022-05-22T02:29:13Z</time>
      </trkpt>
      <trkpt lat="48.56021" lon="1.0344">
        <ele>218</ele>
        <time>2022-05-22T02:29:19Z</time>
      </trkpt>
      <trkpt lat="48.56018" lon="1.03474">
        <ele>219</ele>
        <time>2022-05-22T02:29:23Z</time>
      </trkpt>
      <trkpt lat="48.56019" lon="1.03508">
        <ele>219</ele>
        <time>2022-05-22T02:29:27Z</time>
      </trkpt>
      <trkpt lat="48.56027" lon="1.03515">
        <ele>219</ele>
        <time>2022-05-22T02:29:28Z</time>
      </trkpt>
      <trkpt lat="48.56017" lon="1.03524">
        <ele>219</ele>
        <time>2022-05-22T02:29:30Z</time>
      </trkpt>
      <trkpt lat="48.5602" lon="1.03572">
        <ele>220</ele>
        <time>2022-05-22T02:29:36Z</time>
      </trkpt>
      <trkpt lat="48.56016" lon="1.0362">
        <ele>220</ele>
        <time>2022-05-22T02:29:42Z</time>
      </trkpt>
      <trkpt lat="48.56023" lon="1.03645">
        <ele>220</ele>
        <time>2022-05-22T02:29:45Z</time>
      </trkpt>
      <trkpt lat="48.56015" lon="1.03709">
        <ele>220</ele>
        <time>2022-05-22T02:29:53Z</time>
      </trkpt>
      <trkpt lat="48.56011" lon="1.03769">
        <ele>219</ele>
        <time>2022-05-22T02:30:00Z</time>
      </trkpt>
      <trkpt lat="48.56008" lon="1.03782">
        <ele>219</ele>
        <time>2022-05-22T02:30:01Z</time>
      </trkpt>
      <trkpt lat="48.56003" lon="1.03797">
        <ele>219</ele>
        <time>2022-05-22T02:30:03Z</time>
      </trkpt>
      <trkpt lat="48.55964" lon="1.03869">
        <ele>217</ele>
        <time>2022-05-22T02:30:14Z</time>
      </trkpt>
      <trkpt lat="48.55934" lon="1.03858">
        <ele>217</ele>
        <time>2022-05-22T02:30:20Z</time>
      </trkpt>
      <trkpt lat="48.55927" lon="1.03873">
        <ele>216</ele>
        <time>2022-05-22T02:30:22Z</time>
      </trkpt>
      <trkpt lat="48.55881" lon="1.03944">
        <ele>215</ele>
        <time>2022-05-22T02:30:34Z</time>
      </trkpt>
      <trkpt lat="48.55867" lon="1.0397">
        <ele>215</ele>
        <time>2022-05-22T02:30:38Z</time>
      </trkpt>
      <trkpt lat="48.55844" lon="1.04005">
        <ele>215</ele>
        <time>2022-05-22T02:30:43Z</time>
      </trkpt>
      <trkpt lat="48.55835" lon="1.04015">
        <ele>215</ele>
        <time>2022-05-22T02:30:45Z</time>
      </trkpt>
      <trkpt lat="48.55822" lon="1.04037">
        <ele>216</ele>
        <time>2022-05-22T02:30:49Z</time>
      </trkpt>
      <trkpt lat="48.55817" lon="1.04052">
        <ele>217</ele>
        <time>2022-05-22T02:30:51Z</time>
      </trkpt>
      <trkpt lat="48.55818" lon="1.0408">
        <ele>217</ele>
        <time>2022-05-22T02:30:54Z</time>
      </trkpt>
      <trkpt lat="48.55821" lon="1.04094">
        <ele>218</ele>
        <time>2022-05-22T02:30:56Z</time>
      </trkpt>
      <trkpt lat="48.55849" lon="1.04191">
        <ele>221</ele>
        <time>2022-05-22T02:31:08Z</time>
      </trkpt>
      <trkpt lat="48.55889" lon="1.04301">
        <ele>223</ele>
        <time>2022-05-22T02:31:23Z</time>
      </trkpt>
      <trkpt lat="48.55901" lon="1.04328">
        <ele>223</ele>
        <time>2022-05-22T02:31:27Z</time>
      </trkpt>
      <trkpt lat="48.55938" lon="1.04435">
        <ele>223</ele>
        <time>2022-05-22T02:31:41Z</time>
      </trkpt>
      <trkpt lat="48.55949" lon="1.04481">
        <ele>223</ele>
        <time>2022-05-22T02:31:47Z</time>
      </trkpt>
      <trkpt lat="48.55958" lon="1.04554">
        <ele>223</ele>
        <time>2022-05-22T02:31:56Z</time>
      </trkpt>
      <trkpt lat="48.55955" lon="1.04597">
        <ele>223</ele>
        <time>2022-05-22T02:32:01Z</time>
      </trkpt>
      <trkpt lat="48.5595" lon="1.04612">
        <ele>223</ele>
        <time>2022-05-22T02:32:03Z</time>
      </trkpt>
      <trkpt lat="48.55933" lon="1.04633">
        <ele>224</ele>
        <time>2022-05-22T02:32:07Z</time>
      </trkpt>
      <trkpt lat="48.55929" lon="1.04646">
        <ele>224</ele>
        <time>2022-05-22T02:32:08Z</time>
      </trkpt>
      <trkpt lat="48.55935" lon="1.04661">
        <ele>224</ele>
        <time>2022-05-22T02:32:10Z</time>
      </trkpt>
      <trkpt lat="48.55943" lon="1.04671">
        <ele>224</ele>
        <time>2022-05-22T02:32:12Z</time>
      </trkpt>
      <trkpt lat="48.55947" lon="1.04686">
        <ele>224</ele>
        <time>2022-05-22T02:32:14Z</time>
      </trkpt>
      <trkpt lat="48.55969" lon="1.04865">
        <ele>223</ele>
        <time>2022-05-22T02:32:36Z</time>
      </trkpt>
      <trkpt lat="48.5598" lon="1.04908">
        <ele>224</ele>
        <time>2022-05-22T02:32:41Z</time>
      </trkpt>
      <trkpt lat="48.56" lon="1.0497">
        <ele>224</ele>
        <time>2022-05-22T02:32:49Z</time>
      </trkpt>
      <trkpt lat="48.5613" lon="1.05349">
        <ele>224</ele>
        <time>2022-05-22T02:33:39Z</time>
      </trkpt>
      <trkpt lat="48.56196" lon="1.05614">
        <ele>225</ele>
        <time>2022-05-22T02:34:13Z</time>
      </trkpt>
      <trkpt lat="48.56295" lon="1.05887">
        <ele>224</ele>
        <time>2022-05-22T02:34:49Z</time>
      </trkpt>
      <trkpt lat="48.56335" lon="1.05989">
        <ele>223</ele>
        <time>2022-05-22T02:35:03Z</time>
      </trkpt>
      <trkpt lat="48.56352" lon="1.06041">
        <ele>223</ele>
        <time>2022-05-22T02:35:10Z</time>
      </trkpt>
      <trkpt lat="48.56362" lon="1.06088">
        <ele>223</ele>
        <time>2022-05-22T02:35:16Z</time>
      </trkpt>
      <trkpt lat="48.56365" lon="1.0612">
        <ele>223</ele>
        <time>2022-05-22T02:35:20Z</time>
      </trkpt>
      <trkpt lat="48.56377" lon="1.0617">
        <ele>223</ele>
        <time>2022-05-22T02:35:26Z</time>
      </trkpt>
      <trkpt lat="48.56421" lon="1.06283">
        <ele>221</ele>
        <time>2022-05-22T02:35:42Z</time>
      </trkpt>
      <trkpt lat="48.56437" lon="1.06341">
        <ele>221</ele>
        <time>2022-05-22T02:35:49Z</time>
      </trkpt>
      <trkpt lat="48.56477" lon="1.06535">
        <ele>221</ele>
        <time>2022-05-22T02:36:13Z</time>
      </trkpt>
      <trkpt lat="48.56518" lon="1.06719">
        <ele>220</ele>
        <time>2022-05-22T02:36:36Z</time>
      </trkpt>
      <trkpt lat="48.56535" lon="1.06842">
        <ele>220</ele>
        <time>2022-05-22T02:36:51Z</time>
      </trkpt>
      <trkpt lat="48.56561" lon="1.06929">
        <ele>218</ele>
        <time>2022-05-22T02:37:02Z</time>
      </trkpt>
      <trkpt lat="48.56669" lon="1.07268">
        <ele>214</ele>
        <time>2022-05-22T02:37:46Z</time>
      </trkpt>
      <trkpt lat="48.56706" lon="1.07391">
        <ele>212</ele>
        <time>2022-05-22T02:38:02Z</time>
      </trkpt>
      <trkpt lat="48.56728" lon="1.07454">
        <ele>211</ele>
        <time>2022-05-22T02:38:10Z</time>
      </trkpt>
      <trkpt lat="48.568" lon="1.07692">
        <ele>208</ele>
        <time>2022-05-22T02:38:41Z</time>
      </trkpt>
      <trkpt lat="48.56862" lon="1.0788">
        <ele>209</ele>
        <time>2022-05-22T02:39:06Z</time>
      </trkpt>
      <trkpt lat="48.56895" lon="1.07987">
        <ele>212</ele>
        <time>2022-05-22T02:39:20Z</time>
      </trkpt>
      <trkpt lat="48.56915" lon="1.08061">
        <ele>213</ele>
        <time>2022-05-22T02:39:29Z</time>
      </trkpt>
      <trkpt lat="48.56971" lon="1.08208">
        <ele>212</ele>
        <time>2022-05-22T02:39:49Z</time>
      </trkpt>
      <trkpt lat="48.56988" lon="1.0827">
        <ele>210</ele>
        <time>2022-05-22T02:39:57Z</time>
      </trkpt>
      <trkpt lat="48.57013" lon="1.08341">
        <ele>210</ele>
        <time>2022-05-22T02:40:07Z</time>
      </trkpt>
      <trkpt lat="48.57038" lon="1.08403">
        <ele>210</ele>
        <time>2022-05-22T02:40:15Z</time>
      </trkpt>
      <trkpt lat="48.57056" lon="1.08465">
        <ele>209</ele>
        <time>2022-05-22T02:40:23Z</time>
      </trkpt>
      <trkpt lat="48.57061" lon="1.08494">
        <ele>209</ele>
        <time>2022-05-22T02:40:27Z</time>
      </trkpt>
      <trkpt lat="48.57073" lon="1.08523">
        <ele>208</ele>
        <time>2022-05-22T02:40:31Z</time>
      </trkpt>
      <trkpt lat="48.57089" lon="1.08583">
        <ele>207</ele>
        <time>2022-05-22T02:40:38Z</time>
      </trkpt>
      <trkpt lat="48.57106" lon="1.08625">
        <ele>207</ele>
        <time>2022-05-22T02:40:44Z</time>
      </trkpt>
      <trkpt lat="48.57111" lon="1.08652">
        <ele>207</ele>
        <time>2022-05-22T02:40:47Z</time>
      </trkpt>
      <trkpt lat="48.57143" lon="1.08751">
        <ele>208</ele>
        <time>2022-05-22T02:41:00Z</time>
      </trkpt>
      <trkpt lat="48.57153" lon="1.08792">
        <ele>207</ele>
        <time>2022-05-22T02:41:05Z</time>
      </trkpt>
      <trkpt lat="48.5716" lon="1.08806">
        <ele>207</ele>
        <time>2022-05-22T02:41:08Z</time>
      </trkpt>
      <trkpt lat="48.57223" lon="1.09005">
        <ele>203</ele>
        <time>2022-05-22T02:41:33Z</time>
      </trkpt>
      <trkpt lat="48.57249" lon="1.09106">
        <ele>204</ele>
        <time>2022-05-22T02:41:46Z</time>
      </trkpt>
      <trkpt lat="48.57283" lon="1.09201">
        <ele>208</ele>
        <time>2022-05-22T02:41:59Z</time>
      </trkpt>
      <trkpt lat="48.57317" lon="1.09322">
        <ele>211</ele>
        <time>2022-05-22T02:42:14Z</time>
      </trkpt>
      <trkpt lat="48.57362" lon="1.09451">
        <ele>207</ele>
        <time>2022-05-22T02:42:32Z</time>
      </trkpt>
      <trkpt lat="48.57377" lon="1.09476">
        <ele>206</ele>
        <time>2022-05-22T02:42:36Z</time>
      </trkpt>
      <trkpt lat="48.574" lon="1.09527">
        <ele>205</ele>
        <time>2022-05-22T02:42:43Z</time>
      </trkpt>
      <trkpt lat="48.57424" lon="1.09564">
        <ele>205</ele>
        <time>2022-05-22T02:42:49Z</time>
      </trkpt>
      <trkpt lat="48.57437" lon="1.09591">
        <ele>204</ele>
        <time>2022-05-22T02:42:53Z</time>
      </trkpt>
      <trkpt lat="48.57462" lon="1.09662">
        <ele>204</ele>
        <time>2022-05-22T02:43:02Z</time>
      </trkpt>
      <trkpt lat="48.57486" lon="1.09741">
        <ele>204</ele>
        <time>2022-05-22T02:43:13Z</time>
      </trkpt>
      <trkpt lat="48.57501" lon="1.09809">
        <ele>202</ele>
        <time>2022-05-22T02:43:21Z</time>
      </trkpt>
      <trkpt lat="48.57512" lon="1.09876">
        <ele>201</ele>
        <time>2022-05-22T02:43:29Z</time>
      </trkpt>
      <trkpt lat="48.5752" lon="1.09901">
        <ele>201</ele>
        <time>2022-05-22T02:43:32Z</time>
      </trkpt>
      <trkpt lat="48.57523" lon="1.09921">
        <ele>201</ele>
        <time>2022-05-22T02:43:35Z</time>
      </trkpt>
      <trkpt lat="48.57559" lon="1.1003">
        <ele>199</ele>
        <time>2022-05-22T02:43:49Z</time>
      </trkpt>
      <trkpt lat="48.57581" lon="1.10079">
        <ele>197</ele>
        <time>2022-05-22T02:43:56Z</time>
      </trkpt>
      <trkpt lat="48.57591" lon="1.10107">
        <ele>198</ele>
        <time>2022-05-22T02:44:00Z</time>
      </trkpt>
      <trkpt lat="48.57617" lon="1.1021">
        <ele>200</ele>
        <time>2022-05-22T02:44:13Z</time>
      </trkpt>
      <trkpt lat="48.57658" lon="1.10404">
        <ele>199</ele>
        <time>2022-05-22T02:44:37Z</time>
      </trkpt>
      <trkpt lat="48.57675" lon="1.10472">
        <ele>200</ele>
        <time>2022-05-22T02:44:45Z</time>
      </trkpt>
      <trkpt lat="48.57701" lon="1.10548">
        <ele>201</ele>
        <time>2022-05-22T02:44:55Z</time>
      </trkpt>
      <trkpt lat="48.57715" lon="1.10618">
        <ele>201</ele>
        <time>2022-05-22T02:45:04Z</time>
      </trkpt>
      <trkpt lat="48.57741" lon="1.10833">
        <ele>197</ele>
        <time>2022-05-22T02:45:30Z</time>
      </trkpt>
      <trkpt lat="48.57787" lon="1.11097">
        <ele>195</ele>
        <time>2022-05-22T02:46:02Z</time>
      </trkpt>
      <trkpt lat="48.57798" lon="1.112">
        <ele>196</ele>
        <time>2022-05-22T02:46:14Z</time>
      </trkpt>
      <trkpt lat="48.57794" lon="1.11257">
        <ele>198</ele>
        <time>2022-05-22T02:46:21Z</time>
      </trkpt>
      <trkpt lat="48.57781" lon="1.11322">
        <ele>199</ele>
        <time>2022-05-22T02:46:29Z</time>
      </trkpt>
      <trkpt lat="48.57766" lon="1.11378">
        <ele>198</ele>
        <time>2022-05-22T02:46:36Z</time>
      </trkpt>
      <trkpt lat="48.57744" lon="1.1144">
        <ele>198</ele>
        <time>2022-05-22T02:46:44Z</time>
      </trkpt>
      <trkpt lat="48.57736" lon="1.11447">
        <ele>197</ele>
        <time>2022-05-22T02:46:46Z</time>
      </trkpt>
      <trkpt lat="48.57737" lon="1.11467">
        <ele>197</ele>
        <time>2022-05-22T02:46:48Z</time>
      </trkpt>
      <trkpt lat="48.57731" lon="1.11496">
        <ele>197</ele>
        <time>2022-05-22T02:46:52Z</time>
      </trkpt>
      <trkpt lat="48.57729" lon="1.11533">
        <ele>197</ele>
        <time>2022-05-22T02:46:56Z</time>
      </trkpt>
      <trkpt lat="48.57731" lon="1.1157">
        <ele>197</ele>
        <time>2022-05-22T02:47:01Z</time>
      </trkpt>
      <trkpt lat="48.57748" lon="1.11699">
        <ele>196</ele>
        <time>2022-05-22T02:47:16Z</time>
      </trkpt>
      <trkpt lat="48.57758" lon="1.11887">
        <ele>191</ele>
        <time>2022-05-22T02:47:38Z</time>
      </trkpt>
      <trkpt lat="48.57772" lon="1.1196">
        <ele>190</ele>
        <time>2022-05-22T02:47:47Z</time>
      </trkpt>
      <trkpt lat="48.57778" lon="1.12012">
        <ele>189</ele>
        <time>2022-05-22T02:47:54Z</time>
      </trkpt>
      <trkpt lat="48.57788" lon="1.12069">
        <ele>189</ele>
        <time>2022-05-22T02:48:00Z</time>
      </trkpt>
      <trkpt lat="48.57795" lon="1.12138">
        <ele>189</ele>
        <time>2022-05-22T02:48:09Z</time>
      </trkpt>
      <trkpt lat="48.57805" lon="1.12404">
        <ele>183</ele>
        <time>2022-05-22T02:48:40Z</time>
      </trkpt>
      <trkpt lat="48.57798" lon="1.12414">
        <ele>183</ele>
        <time>2022-05-22T02:48:42Z</time>
      </trkpt>
      <trkpt lat="48.57804" lon="1.12431">
        <ele>183</ele>
        <time>2022-05-22T02:48:44Z</time>
      </trkpt>
      <trkpt lat="48.57815" lon="1.12434">
        <ele>183</ele>
        <time>2022-05-22T02:48:46Z</time>
      </trkpt>
      <trkpt lat="48.57817" lon="1.1245">
        <ele>182</ele>
        <time>2022-05-22T02:48:48Z</time>
      </trkpt>
      <trkpt lat="48.57815" lon="1.12488">
        <ele>181</ele>
        <time>2022-05-22T02:48:52Z</time>
      </trkpt>
      <trkpt lat="48.57818" lon="1.12517">
        <ele>181</ele>
        <time>2022-05-22T02:48:56Z</time>
      </trkpt>
      <trkpt lat="48.57819" lon="1.12576">
        <ele>180</ele>
        <time>2022-05-22T02:49:03Z</time>
      </trkpt>
      <trkpt lat="48.57811" lon="1.1262">
        <ele>179</ele>
        <time>2022-05-22T02:49:08Z</time>
      </trkpt>
      <trkpt lat="48.57799" lon="1.12661">
        <ele>178</ele>
        <time>2022-05-22T02:49:13Z</time>
      </trkpt>
      <trkpt lat="48.57772" lon="1.12715">
        <ele>176</ele>
        <time>2022-05-22T02:49:21Z</time>
      </trkpt>
      <trkpt lat="48.57675" lon="1.12853">
        <ele>178</ele>
        <time>2022-05-22T02:49:45Z</time>
      </trkpt>
      <trkpt lat="48.57657" lon="1.12867">
        <ele>179</ele>
        <time>2022-05-22T02:49:49Z</time>
      </trkpt>
      <trkpt lat="48.5762" lon="1.12889">
        <ele>180</ele>
        <time>2022-05-22T02:49:56Z</time>
      </trkpt>
      <trkpt lat="48.57611" lon="1.12899">
        <ele>181</ele>
        <time>2022-05-22T02:49:58Z</time>
      </trkpt>
      <trkpt lat="48.57606" lon="1.12912">
        <ele>181</ele>
        <time>2022-05-22T02:50:00Z</time>
      </trkpt>
      <trkpt lat="48.576" lon="1.12941">
        <ele>182</ele>
        <time>2022-05-22T02:50:03Z</time>
      </trkpt>
      <trkpt lat="48.57594" lon="1.12954">
        <ele>182</ele>
        <time>2022-05-22T02:50:05Z</time>
      </trkpt>
      <trkpt lat="48.57593" lon="1.13014">
        <ele>183</ele>
        <time>2022-05-22T02:50:12Z</time>
      </trkpt>
      <trkpt lat="48.57604" lon="1.13131">
        <ele>180</ele>
        <time>2022-05-22T02:50:26Z</time>
      </trkpt>
      <trkpt lat="48.57626" lon="1.13257">
        <ele>179</ele>
        <time>2022-05-22T02:50:41Z</time>
      </trkpt>
      <trkpt lat="48.57632" lon="1.13351">
        <ele>186</ele>
        <time>2022-05-22T02:50:52Z</time>
      </trkpt>
      <trkpt lat="48.57628" lon="1.13365">
        <ele>188</ele>
        <time>2022-05-22T02:50:54Z</time>
      </trkpt>
      <trkpt lat="48.57602" lon="1.13387">
        <ele>191</ele>
        <time>2022-05-22T02:51:00Z</time>
      </trkpt>
      <trkpt lat="48.5757" lon="1.13409">
        <ele>194</ele>
        <time>2022-05-22T02:51:06Z</time>
      </trkpt>
      <trkpt lat="48.57487" lon="1.13461">
        <ele>198</ele>
        <time>2022-05-22T02:51:22Z</time>
      </trkpt>
      <trkpt lat="48.57451" lon="1.13482">
        <ele>199</ele>
        <time>2022-05-22T02:51:29Z</time>
      </trkpt>
      <trkpt lat="48.5743" lon="1.13491">
        <ele>199</ele>
        <time>2022-05-22T02:51:33Z</time>
      </trkpt>
      <trkpt lat="48.57412" lon="1.13505">
        <ele>199</ele>
        <time>2022-05-22T02:51:36Z</time>
      </trkpt>
      <trkpt lat="48.57403" lon="1.13508">
        <ele>199</ele>
        <time>2022-05-22T02:51:38Z</time>
      </trkpt>
      <trkpt lat="48.57306" lon="1.13569">
        <ele>201</ele>
        <time>2022-05-22T02:51:56Z</time>
      </trkpt>
      <trkpt lat="48.57277" lon="1.13584">
        <ele>202</ele>
        <time>2022-05-22T02:52:02Z</time>
      </trkpt>
      <trkpt lat="48.57267" lon="1.13592">
        <ele>203</ele>
        <time>2022-05-22T02:52:04Z</time>
      </trkpt>
      <trkpt lat="48.5721" lon="1.13624">
        <ele>203</ele>
        <time>2022-05-22T02:52:15Z</time>
      </trkpt>
      <trkpt lat="48.57192" lon="1.13637">
        <ele>203</ele>
        <time>2022-05-22T02:52:18Z</time>
      </trkpt>
      <trkpt lat="48.5717" lon="1.13647">
        <ele>203</ele>
        <time>2022-05-22T02:52:22Z</time>
      </trkpt>
      <trkpt lat="48.57085" lon="1.13702">
        <ele>205</ele>
        <time>2022-05-22T02:52:39Z</time>
      </trkpt>
      <trkpt lat="48.57076" lon="1.13705">
        <ele>205</ele>
        <time>2022-05-22T02:52:40Z</time>
      </trkpt>
      <trkpt lat="48.57048" lon="1.13723">
        <ele>206</ele>
        <time>2022-05-22T02:52:46Z</time>
      </trkpt>
      <trkpt lat="48.57031" lon="1.13728">
        <ele>207</ele>
        <time>2022-05-22T02:52:49Z</time>
      </trkpt>
      <trkpt lat="48.57024" lon="1.13737">
        <ele>207</ele>
        <time>2022-05-22T02:52:51Z</time>
      </trkpt>
      <trkpt lat="48.56995" lon="1.13753">
        <ele>208</ele>
        <time>2022-05-22T02:52:56Z</time>
      </trkpt>
      <trkpt lat="48.56967" lon="1.13774">
        <ele>209</ele>
        <time>2022-05-22T02:53:02Z</time>
      </trkpt>
      <trkpt lat="48.56946" lon="1.13783">
        <ele>209</ele>
        <time>2022-05-22T02:53:06Z</time>
      </trkpt>
      <trkpt lat="48.56915" lon="1.13801">
        <ele>210</ele>
        <time>2022-05-22T02:53:11Z</time>
      </trkpt>
      <trkpt lat="48.56785" lon="1.13883">
        <ele>212</ele>
        <time>2022-05-22T02:53:37Z</time>
      </trkpt>
      <trkpt lat="48.56746" lon="1.13901">
        <ele>213</ele>
        <time>2022-05-22T02:53:44Z</time>
      </trkpt>
      <trkpt lat="48.56688" lon="1.13941">
        <ele>214</ele>
        <time>2022-05-22T02:53:55Z</time>
      </trkpt>
      <trkpt lat="48.56656" lon="1.13956">
        <ele>214</ele>
        <time>2022-05-22T02:54:01Z</time>
      </trkpt>
      <trkpt lat="48.56599" lon="1.13991">
        <ele>214</ele>
        <time>2022-05-22T02:54:12Z</time>
      </trkpt>
      <trkpt lat="48.56579" lon="1.14006">
        <ele>214</ele>
        <time>2022-05-22T02:54:16Z</time>
      </trkpt>
      <trkpt lat="48.56572" lon="1.14016">
        <ele>214</ele>
        <time>2022-05-22T02:54:18Z</time>
      </trkpt>
      <trkpt lat="48.56556" lon="1.14052">
        <ele>214</ele>
        <time>2022-05-22T02:54:23Z</time>
      </trkpt>
      <trkpt lat="48.56505" lon="1.142">
        <ele>215</ele>
        <time>2022-05-22T02:54:42Z</time>
      </trkpt>
      <trkpt lat="48.56465" lon="1.14307">
        <ele>216</ele>
        <time>2022-05-22T02:54:57Z</time>
      </trkpt>
      <trkpt lat="48.56458" lon="1.14334">
        <ele>217</ele>
        <time>2022-05-22T02:55:00Z</time>
      </trkpt>
      <trkpt lat="48.56402" lon="1.14484">
        <ele>219</ele>
        <time>2022-05-22T02:55:21Z</time>
      </trkpt>
      <trkpt lat="48.56389" lon="1.14525">
        <ele>219</ele>
        <time>2022-05-22T02:55:26Z</time>
      </trkpt>
      <trkpt lat="48.56392" lon="1.14537">
        <ele>219</ele>
        <time>2022-05-22T02:55:28Z</time>
      </trkpt>
      <trkpt lat="48.56388" lon="1.14558">
        <ele>219</ele>
        <time>2022-05-22T02:55:30Z</time>
      </trkpt>
      <trkpt lat="48.56407" lon="1.14569">
        <ele>219</ele>
        <time>2022-05-22T02:55:34Z</time>
      </trkpt>
      <trkpt lat="48.56425" lon="1.14587">
        <ele>219</ele>
        <time>2022-05-22T02:55:38Z</time>
      </trkpt>
      <trkpt lat="48.56487" lon="1.14639">
        <ele>220</ele>
        <time>2022-05-22T02:55:50Z</time>
      </trkpt>
      <trkpt lat="48.56531" lon="1.14685">
        <ele>220</ele>
        <time>2022-05-22T02:56:00Z</time>
      </trkpt>
      <trkpt lat="48.5655" lon="1.147">
        <ele>219</ele>
        <time>2022-05-22T02:56:04Z</time>
      </trkpt>
      <trkpt lat="48.56597" lon="1.14745">
        <ele>218</ele>
        <time>2022-05-22T02:56:13Z</time>
      </trkpt>
      <trkpt lat="48.56607" lon="1.14747">
        <ele>218</ele>
        <time>2022-05-22T02:56:15Z</time>
      </trkpt>
      <trkpt lat="48.56618" lon="1.14745">
        <ele>218</ele>
        <time>2022-05-22T02:56:17Z</time>
      </trkpt>
      <trkpt lat="48.5663" lon="1.14746">
        <ele>218</ele>
        <time>2022-05-22T02:56:19Z</time>
      </trkpt>
      <trkpt lat="48.5666" lon="1.14741">
        <ele>218</ele>
        <time>2022-05-22T02:56:25Z</time>
      </trkpt>
      <trkpt lat="48.5669" lon="1.14742">
        <ele>218</ele>
        <time>2022-05-22T02:56:30Z</time>
      </trkpt>
      <trkpt lat="48.56701" lon="1.14741">
        <ele>217</ele>
        <time>2022-05-22T02:56:32Z</time>
      </trkpt>
      <trkpt lat="48.56709" lon="1.14735">
        <ele>217</ele>
        <time>2022-05-22T02:56:34Z</time>
      </trkpt>
      <trkpt lat="48.56708" lon="1.14692">
        <ele>218</ele>
        <time>2022-05-22T02:56:39Z</time>
      </trkpt>
      <trkpt lat="48.56735" lon="1.14634">
        <ele>217</ele>
        <time>2022-05-22T02:56:47Z</time>
      </trkpt>
      <trkpt lat="48.56725" lon="1.14647">
        <ele>217</ele>
        <time>2022-05-22T02:56:49Z</time>
      </trkpt>
      <trkpt lat="48.56732" lon="1.14633">
        <ele>217</ele>
        <time>2022-05-22T02:56:51Z</time>
      </trkpt>
      <trkpt lat="48.5673" lon="1.14647">
        <ele>217</ele>
        <time>2022-05-22T02:56:53Z</time>
      </trkpt>
      <trkpt lat="48.56729" lon="1.14633">
        <ele>217</ele>
        <time>2022-05-22T02:56:55Z</time>
      </trkpt>
      <trkpt lat="48.56726" lon="1.14647">
        <ele>217</ele>
        <time>2022-05-22T02:56:56Z</time>
      </trkpt>
      <trkpt lat="48.56733" lon="1.14638">
        <ele>217</ele>
        <time>2022-05-22T02:56:58Z</time>
      </trkpt>
      <trkpt lat="48.56723" lon="1.14643">
        <ele>217</ele>
        <time>2022-05-22T02:57:00Z</time>
      </trkpt>
      <trkpt lat="48.56723" lon="1.14664">
        <ele>217</ele>
        <time>2022-05-22T02:57:02Z</time>
      </trkpt>
      <trkpt lat="48.56712" lon="1.14688">
        <ele>218</ele>
        <time>2022-05-22T02:57:06Z</time>
      </trkpt>
      <trkpt lat="48.56712" lon="1.14702">
        <ele>217</ele>
        <time>2022-05-22T02:57:08Z</time>
      </trkpt>
      <trkpt lat="48.56717" lon="1.1473">
        <ele>217</ele>
        <time>2022-05-22T02:57:11Z</time>
      </trkpt>
      <trkpt lat="48.56711" lon="1.14745">
        <ele>217</ele>
        <time>2022-05-22T02:57:13Z</time>
      </trkpt>
      <trkpt lat="48.56674" lon="1.14752">
        <ele>218</ele>
        <time>2022-05-22T02:57:20Z</time>
      </trkpt>
      <trkpt lat="48.56658" lon="1.1475">
        <ele>218</ele>
        <time>2022-05-22T02:57:23Z</time>
      </trkpt>
      <trkpt lat="48.56609" lon="1.14761">
        <ele>218</ele>
        <time>2022-05-22T02:57:31Z</time>
      </trkpt>
      <trkpt lat="48.56622" lon="1.14765">
        <ele>218</ele>
        <time>2022-05-22T02:57:34Z</time>
      </trkpt>
      <trkpt lat="48.56629" lon="1.14775">
        <ele>218</ele>
        <time>2022-05-22T02:57:35Z</time>
      </trkpt>
      <trkpt lat="48.56664" lon="1.14808">
        <ele>217</ele>
        <time>2022-05-22T02:57:43Z</time>
      </trkpt>
      <trkpt lat="48.56691" lon="1.1484">
        <ele>216</ele>
        <time>2022-05-22T02:57:49Z</time>
      </trkpt>
      <trkpt lat="48.56749" lon="1.14893">
        <ele>217</ele>
        <time>2022-05-22T02:58:01Z</time>
      </trkpt>
      <trkpt lat="48.5676" lon="1.14907">
        <ele>217</ele>
        <time>2022-05-22T02:58:03Z</time>
      </trkpt>
      <trkpt lat="48.5679" lon="1.14936">
        <ele>217</ele>
        <time>2022-05-22T02:58:10Z</time>
      </trkpt>
      <trkpt lat="48.56887" lon="1.15025">
        <ele>217</ele>
        <time>2022-05-22T02:58:30Z</time>
      </trkpt>
      <trkpt lat="48.56921" lon="1.15062">
        <ele>218</ele>
        <time>2022-05-22T02:58:37Z</time>
      </trkpt>
      <trkpt lat="48.57007" lon="1.1514">
        <ele>216</ele>
        <time>2022-05-22T02:58:55Z</time>
      </trkpt>
      <trkpt lat="48.57067" lon="1.15202">
        <ele>215</ele>
        <time>2022-05-22T02:59:08Z</time>
      </trkpt>
      <trkpt lat="48.5714" lon="1.15267">
        <ele>213</ele>
        <time>2022-05-22T02:59:23Z</time>
      </trkpt>
      <trkpt lat="48.57192" lon="1.15318">
        <ele>212</ele>
        <time>2022-05-22T02:59:34Z</time>
      </trkpt>
      <trkpt lat="48.5721" lon="1.15333">
        <ele>211</ele>
        <time>2022-05-22T02:59:38Z</time>
      </trkpt>
      <trkpt lat="48.5722" lon="1.15338">
        <ele>211</ele>
        <time>2022-05-22T02:59:40Z</time>
      </trkpt>
      <trkpt lat="48.57224" lon="1.15354">
        <ele>210</ele>
        <time>2022-05-22T02:59:42Z</time>
      </trkpt>
      <trkpt lat="48.57215" lon="1.15406">
        <ele>208</ele>
        <time>2022-05-22T02:59:48Z</time>
      </trkpt>
      <trkpt lat="48.57192" lon="1.1565">
        <ele>208</ele>
        <time>2022-05-22T03:00:17Z</time>
      </trkpt>
      <trkpt lat="48.57159" lon="1.1581">
        <ele>208</ele>
        <time>2022-05-22T03:00:37Z</time>
      </trkpt>
      <trkpt lat="48.57161" lon="1.15896">
        <ele>207</ele>
        <time>2022-05-22T03:00:47Z</time>
      </trkpt>
      <trkpt lat="48.57132" lon="1.16111">
        <ele>204</ele>
        <time>2022-05-22T03:01:13Z</time>
      </trkpt>
      <trkpt lat="48.57126" lon="1.16179">
        <ele>203</ele>
        <time>2022-05-22T03:01:21Z</time>
      </trkpt>
      <trkpt lat="48.57139" lon="1.16337">
        <ele>202</ele>
        <time>2022-05-22T03:01:40Z</time>
      </trkpt>
      <trkpt lat="48.57179" lon="1.16477">
        <ele>200</ele>
        <time>2022-05-22T03:01:58Z</time>
      </trkpt>
      <trkpt lat="48.57257" lon="1.16698">
        <ele>199</ele>
        <time>2022-05-22T03:02:27Z</time>
      </trkpt>
      <trkpt lat="48.57263" lon="1.16731">
        <ele>199</ele>
        <time>2022-05-22T03:02:31Z</time>
      </trkpt>
      <trkpt lat="48.57263" lon="1.16842">
        <ele>197</ele>
        <time>2022-05-22T03:02:44Z</time>
      </trkpt>
      <trkpt lat="48.57259" lon="1.16913">
        <ele>196</ele>
        <time>2022-05-22T03:02:53Z</time>
      </trkpt>
      <trkpt lat="48.57243" lon="1.17042">
        <ele>195</ele>
        <time>2022-05-22T03:03:08Z</time>
      </trkpt>
      <trkpt lat="48.57226" lon="1.17117">
        <ele>194</ele>
        <time>2022-05-22T03:03:17Z</time>
      </trkpt>
      <trkpt lat="48.57219" lon="1.17167">
        <ele>192</ele>
        <time>2022-05-22T03:03:23Z</time>
      </trkpt>
      <trkpt lat="48.57216" lon="1.17222">
        <ele>193</ele>
        <time>2022-05-22T03:03:30Z</time>
      </trkpt>
      <trkpt lat="48.57203" lon="1.17346">
        <ele>194</ele>
        <time>2022-05-22T03:03:45Z</time>
      </trkpt>
      <trkpt lat="48.572" lon="1.17395">
        <ele>195</ele>
        <time>2022-05-22T03:03:51Z</time>
      </trkpt>
      <trkpt lat="48.57201" lon="1.17438">
        <ele>196</ele>
        <time>2022-05-22T03:03:56Z</time>
      </trkpt>
      <trkpt lat="48.57204" lon="1.17466">
        <ele>196</ele>
        <time>2022-05-22T03:03:59Z</time>
      </trkpt>
      <trkpt lat="48.5721" lon="1.1748">
        <ele>197</ele>
        <time>2022-05-22T03:04:01Z</time>
      </trkpt>
      <trkpt lat="48.57233" lon="1.17505">
        <ele>197</ele>
        <time>2022-05-22T03:04:06Z</time>
      </trkpt>
      <trkpt lat="48.57285" lon="1.17554">
        <ele>198</ele>
        <time>2022-05-22T03:04:17Z</time>
      </trkpt>
      <trkpt lat="48.57288" lon="1.17568">
        <ele>199</ele>
        <time>2022-05-22T03:04:19Z</time>
      </trkpt>
      <trkpt lat="48.57256" lon="1.17708">
        <ele>202</ele>
        <time>2022-05-22T03:04:36Z</time>
      </trkpt>
      <trkpt lat="48.57249" lon="1.17756">
        <ele>203</ele>
        <time>2022-05-22T03:04:42Z</time>
      </trkpt>
      <trkpt lat="48.57274" lon="1.1798">
        <ele>211</ele>
        <time>2022-05-22T03:05:09Z</time>
      </trkpt>
      <trkpt lat="48.57294" lon="1.18129">
        <ele>218</ele>
        <time>2022-05-22T03:05:26Z</time>
      </trkpt>
      <trkpt lat="48.57305" lon="1.18248">
        <ele>221</ele>
        <time>2022-05-22T03:05:41Z</time>
      </trkpt>
      <trkpt lat="48.57314" lon="1.18311">
        <ele>221</ele>
        <time>2022-05-22T03:05:48Z</time>
      </trkpt>
      <trkpt lat="48.57314" lon="1.18329">
        <ele>221</ele>
        <time>2022-05-22T03:05:50Z</time>
      </trkpt>
      <trkpt lat="48.57322" lon="1.18382">
        <ele>222</ele>
        <time>2022-05-22T03:05:57Z</time>
      </trkpt>
      <trkpt lat="48.57332" lon="1.18487">
        <ele>222</ele>
        <time>2022-05-22T03:06:09Z</time>
      </trkpt>
      <trkpt lat="48.5735" lon="1.18626">
        <ele>223</ele>
        <time>2022-05-22T03:06:26Z</time>
      </trkpt>
      <trkpt lat="48.57352" lon="1.18675">
        <ele>223</ele>
        <time>2022-05-22T03:06:32Z</time>
      </trkpt>
      <trkpt lat="48.57356" lon="1.18689">
        <ele>223</ele>
        <time>2022-05-22T03:06:33Z</time>
      </trkpt>
      <trkpt lat="48.5737" lon="1.1883">
        <ele>226</ele>
        <time>2022-05-22T03:06:50Z</time>
      </trkpt>
      <trkpt lat="48.57377" lon="1.18878">
        <ele>227</ele>
        <time>2022-05-22T03:06:56Z</time>
      </trkpt>
      <trkpt lat="48.57383" lon="1.18959">
        <ele>228</ele>
        <time>2022-05-22T03:07:06Z</time>
      </trkpt>
      <trkpt lat="48.57398" lon="1.19052">
        <ele>228</ele>
        <time>2022-05-22T03:07:17Z</time>
      </trkpt>
      <trkpt lat="48.57401" lon="1.19102">
        <ele>228</ele>
        <time>2022-05-22T03:07:23Z</time>
      </trkpt>
      <trkpt lat="48.57405" lon="1.1912">
        <ele>228</ele>
        <time>2022-05-22T03:07:25Z</time>
      </trkpt>
      <trkpt lat="48.57409" lon="1.19193">
        <ele>228</ele>
        <time>2022-05-22T03:07:34Z</time>
      </trkpt>
      <trkpt lat="48.57423" lon="1.19326">
        <ele>228</ele>
        <time>2022-05-22T03:07:50Z</time>
      </trkpt>
      <trkpt lat="48.57434" lon="1.1941">
        <ele>229</ele>
        <time>2022-05-22T03:08:00Z</time>
      </trkpt>
      <trkpt lat="48.57436" lon="1.19446">
        <ele>229</ele>
        <time>2022-05-22T03:08:04Z</time>
      </trkpt>
      <trkpt lat="48.57454" lon="1.19574">
        <ele>224</ele>
        <time>2022-05-22T03:08:19Z</time>
      </trkpt>
      <trkpt lat="48.57455" lon="1.19606">
        <ele>224</ele>
        <time>2022-05-22T03:08:23Z</time>
      </trkpt>
      <trkpt lat="48.57465" lon="1.19689">
        <ele>225</ele>
        <time>2022-05-22T03:08:33Z</time>
      </trkpt>
      <trkpt lat="48.57466" lon="1.19724">
        <ele>226</ele>
        <time>2022-05-22T03:08:37Z</time>
      </trkpt>
      <trkpt lat="48.57489" lon="1.19903">
        <ele>222</ele>
        <time>2022-05-22T03:08:59Z</time>
      </trkpt>
      <trkpt lat="48.57492" lon="1.19956">
        <ele>222</ele>
        <time>2022-05-22T03:09:05Z</time>
      </trkpt>
      <trkpt lat="48.57504" lon="1.2006">
        <ele>222</ele>
        <time>2022-05-22T03:09:17Z</time>
      </trkpt>
      <trkpt lat="48.57504" lon="1.20076">
        <ele>222</ele>
        <time>2022-05-22T03:09:19Z</time>
      </trkpt>
      <trkpt lat="48.57519" lon="1.20191">
        <ele>222</ele>
        <time>2022-05-22T03:09:33Z</time>
      </trkpt>
      <trkpt lat="48.57527" lon="1.20295">
        <ele>221</ele>
        <time>2022-05-22T03:09:45Z</time>
      </trkpt>
      <trkpt lat="48.57532" lon="1.20328">
        <ele>220</ele>
        <time>2022-05-22T03:09:49Z</time>
      </trkpt>
      <trkpt lat="48.57538" lon="1.20425">
        <ele>221</ele>
        <time>2022-05-22T03:10:01Z</time>
      </trkpt>
      <trkpt lat="48.5756" lon="1.20587">
        <ele>221</ele>
        <time>2022-05-22T03:10:20Z</time>
      </trkpt>
      <trkpt lat="48.57565" lon="1.2064">
        <ele>221</ele>
        <time>2022-05-22T03:10:26Z</time>
      </trkpt>
      <trkpt lat="48.57579" lon="1.20683">
        <ele>220</ele>
        <time>2022-05-22T03:10:32Z</time>
      </trkpt>
      <trkpt lat="48.5759" lon="1.20743">
        <ele>219</ele>
        <time>2022-05-22T03:10:39Z</time>
      </trkpt>
      <trkpt lat="48.5762" lon="1.20829">
        <ele>222</ele>
        <time>2022-05-22T03:10:51Z</time>
      </trkpt>
      <trkpt lat="48.57644" lon="1.20882">
        <ele>223</ele>
        <time>2022-05-22T03:10:58Z</time>
      </trkpt>
      <trkpt lat="48.57679" lon="1.20975">
        <ele>227</ele>
        <time>2022-05-22T03:11:11Z</time>
      </trkpt>
      <trkpt lat="48.57808" lon="1.21287">
        <ele>229</ele>
        <time>2022-05-22T03:11:54Z</time>
      </trkpt>
      <trkpt lat="48.57827" lon="1.21343">
        <ele>229</ele>
        <time>2022-05-22T03:12:02Z</time>
      </trkpt>
      <trkpt lat="48.57834" lon="1.21352">
        <ele>229</ele>
        <time>2022-05-22T03:12:03Z</time>
      </trkpt>
      <trkpt lat="48.5784" lon="1.2137">
        <ele>229</ele>
        <time>2022-05-22T03:12:06Z</time>
      </trkpt>
      <trkpt lat="48.57871" lon="1.21438">
        <ele>228</ele>
        <time>2022-05-22T03:12:15Z</time>
      </trkpt>
      <trkpt lat="48.57886" lon="1.21484">
        <ele>228</ele>
        <time>2022-05-22T03:12:22Z</time>
      </trkpt>
      <trkpt lat="48.57933" lon="1.21588">
        <ele>224</ele>
        <time>2022-05-22T03:12:36Z</time>
      </trkpt>
      <trkpt lat="48.57966" lon="1.21678">
        <ele>224</ele>
        <time>2022-05-22T03:12:48Z</time>
      </trkpt>
      <trkpt lat="48.58036" lon="1.21845">
        <ele>223</ele>
        <time>2022-05-22T03:13:12Z</time>
      </trkpt>
      <trkpt lat="48.58062" lon="1.2192">
        <ele>225</ele>
        <time>2022-05-22T03:13:22Z</time>
      </trkpt>
      <trkpt lat="48.58076" lon="1.21946">
        <ele>224</ele>
        <time>2022-05-22T03:13:26Z</time>
      </trkpt>
      <trkpt lat="48.58112" lon="1.22049">
        <ele>221</ele>
        <time>2022-05-22T03:13:39Z</time>
      </trkpt>
      <trkpt lat="48.58124" lon="1.22075">
        <ele>221</ele>
        <time>2022-05-22T03:13:43Z</time>
      </trkpt>
      <trkpt lat="48.58139" lon="1.22117">
        <ele>220</ele>
        <time>2022-05-22T03:13:49Z</time>
      </trkpt>
      <trkpt lat="48.58141" lon="1.22133">
        <ele>221</ele>
        <time>2022-05-22T03:13:51Z</time>
      </trkpt>
      <trkpt lat="48.58142" lon="1.22192">
        <ele>222</ele>
        <time>2022-05-22T03:13:58Z</time>
      </trkpt>
      <trkpt lat="48.58136" lon="1.22342">
        <ele>225</ele>
        <time>2022-05-22T03:14:15Z</time>
      </trkpt>
      <trkpt lat="48.58136" lon="1.22414">
        <ele>225</ele>
        <time>2022-05-22T03:14:24Z</time>
      </trkpt>
      <trkpt lat="48.58132" lon="1.22486">
        <ele>225</ele>
        <time>2022-05-22T03:14:32Z</time>
      </trkpt>
      <trkpt lat="48.58125" lon="1.22539">
        <ele>224</ele>
        <time>2022-05-22T03:14:39Z</time>
      </trkpt>
      <trkpt lat="48.58117" lon="1.22555">
        <ele>224</ele>
        <time>2022-05-22T03:14:41Z</time>
      </trkpt>
      <trkpt lat="48.58092" lon="1.22634">
        <ele>220</ele>
        <time>2022-05-22T03:14:51Z</time>
      </trkpt>
      <trkpt lat="48.5804" lon="1.22747">
        <ele>217</ele>
        <time>2022-05-22T03:15:07Z</time>
      </trkpt>
      <trkpt lat="48.58005" lon="1.22859">
        <ele>217</ele>
        <time>2022-05-22T03:15:22Z</time>
      </trkpt>
      <trkpt lat="48.57962" lon="1.22945">
        <ele>219</ele>
        <time>2022-05-22T03:15:35Z</time>
      </trkpt>
      <trkpt lat="48.57945" lon="1.22984">
        <ele>218</ele>
        <time>2022-05-22T03:15:40Z</time>
      </trkpt>
      <trkpt lat="48.57934" lon="1.23026">
        <ele>217</ele>
        <time>2022-05-22T03:15:46Z</time>
      </trkpt>
      <trkpt lat="48.57911" lon="1.23087">
        <ele>214</ele>
        <time>2022-05-22T03:15:54Z</time>
      </trkpt>
      <trkpt lat="48.57903" lon="1.2312">
        <ele>214</ele>
        <time>2022-05-22T03:15:58Z</time>
      </trkpt>
      <trkpt lat="48.57892" lon="1.23227">
        <ele>214</ele>
        <time>2022-05-22T03:16:11Z</time>
      </trkpt>
      <trkpt lat="48.57878" lon="1.23432">
        <ele>216</ele>
        <time>2022-05-22T03:16:35Z</time>
      </trkpt>
      <trkpt lat="48.57872" lon="1.23477">
        <ele>217</ele>
        <time>2022-05-22T03:16:40Z</time>
      </trkpt>
      <trkpt lat="48.57852" lon="1.23579">
        <ele>218</ele>
        <time>2022-05-22T03:16:53Z</time>
      </trkpt>
      <trkpt lat="48.57851" lon="1.2361">
        <ele>218</ele>
        <time>2022-05-22T03:16:57Z</time>
      </trkpt>
      <trkpt lat="48.57854" lon="1.23641">
        <ele>218</ele>
        <time>2022-05-22T03:17:00Z</time>
      </trkpt>
      <trkpt lat="48.5787" lon="1.23683">
        <ele>217</ele>
        <time>2022-05-22T03:17:06Z</time>
      </trkpt>
      <trkpt lat="48.57879" lon="1.23714">
        <ele>218</ele>
        <time>2022-05-22T03:17:10Z</time>
      </trkpt>
      <trkpt lat="48.57885" lon="1.23746">
        <ele>218</ele>
        <time>2022-05-22T03:17:14Z</time>
      </trkpt>
      <trkpt lat="48.57886" lon="1.23774">
        <ele>218</ele>
        <time>2022-05-22T03:17:17Z</time>
      </trkpt>
      <trkpt lat="48.57891" lon="1.23803">
        <ele>218</ele>
        <time>2022-05-22T03:17:21Z</time>
      </trkpt>
      <trkpt lat="48.57893" lon="1.23854">
        <ele>218</ele>
        <time>2022-05-22T03:17:27Z</time>
      </trkpt>
      <trkpt lat="48.57882" lon="1.2393">
        <ele>217</ele>
        <time>2022-05-22T03:17:36Z</time>
      </trkpt>
      <trkpt lat="48.57889" lon="1.24016">
        <ele>216</ele>
        <time>2022-05-22T03:17:46Z</time>
      </trkpt>
      <trkpt lat="48.57889" lon="1.2403">
        <ele>216</ele>
        <time>2022-05-22T03:17:48Z</time>
      </trkpt>
      <trkpt lat="48.57883" lon="1.24068">
        <ele>215</ele>
        <time>2022-05-22T03:17:52Z</time>
      </trkpt>
      <trkpt lat="48.57867" lon="1.24111">
        <ele>214</ele>
        <time>2022-05-22T03:17:58Z</time>
      </trkpt>
      <trkpt lat="48.57859" lon="1.24122">
        <ele>213</ele>
        <time>2022-05-22T03:18:00Z</time>
      </trkpt>
      <trkpt lat="48.57849" lon="1.2413">
        <ele>213</ele>
        <time>2022-05-22T03:18:02Z</time>
      </trkpt>
      <trkpt lat="48.57844" lon="1.2414">
        <ele>213</ele>
        <time>2022-05-22T03:18:04Z</time>
      </trkpt>
      <trkpt lat="48.57834" lon="1.2415">
        <ele>212</ele>
        <time>2022-05-22T03:18:06Z</time>
      </trkpt>
      <trkpt lat="48.57816" lon="1.24175">
        <ele>212</ele>
        <time>2022-05-22T03:18:10Z</time>
      </trkpt>
      <trkpt lat="48.57777" lon="1.24219">
        <ele>213</ele>
        <time>2022-05-22T03:18:19Z</time>
      </trkpt>
      <trkpt lat="48.5777" lon="1.24232">
        <ele>213</ele>
        <time>2022-05-22T03:18:21Z</time>
      </trkpt>
      <trkpt lat="48.57763" lon="1.24258">
        <ele>213</ele>
        <time>2022-05-22T03:18:24Z</time>
      </trkpt>
      <trkpt lat="48.57766" lon="1.24272">
        <ele>213</ele>
        <time>2022-05-22T03:18:26Z</time>
      </trkpt>
      <trkpt lat="48.57755" lon="1.24267">
        <ele>213</ele>
        <time>2022-05-22T03:18:28Z</time>
      </trkpt>
      <trkpt lat="48.57744" lon="1.24266">
        <ele>213</ele>
        <time>2022-05-22T03:18:30Z</time>
      </trkpt>
      <trkpt lat="48.57739" lon="1.24278">
        <ele>213</ele>
        <time>2022-05-22T03:18:31Z</time>
      </trkpt>
      <trkpt lat="48.57743" lon="1.24254">
        <ele>213</ele>
        <time>2022-05-22T03:18:34Z</time>
      </trkpt>
      <trkpt lat="48.57745" lon="1.24268">
        <ele>213</ele>
        <time>2022-05-22T03:18:36Z</time>
      </trkpt>
      <trkpt lat="48.57737" lon="1.24256">
        <ele>213</ele>
        <time>2022-05-22T03:18:38Z</time>
      </trkpt>
      <trkpt lat="48.57741" lon="1.24276">
        <ele>213</ele>
        <time>2022-05-22T03:18:40Z</time>
      </trkpt>
      <trkpt lat="48.57749" lon="1.24264">
        <ele>213</ele>
        <time>2022-05-22T03:18:42Z</time>
      </trkpt>
      <trkpt lat="48.5776" lon="1.24286">
        <ele>213</ele>
        <time>2022-05-22T03:18:46Z</time>
      </trkpt>
      <trkpt lat="48.57778" lon="1.24361">
        <ele>212</ele>
        <time>2022-05-22T03:18:55Z</time>
      </trkpt>
      <trkpt lat="48.57796" lon="1.24413">
        <ele>211</ele>
        <time>2022-05-22T03:19:02Z</time>
      </trkpt>
      <trkpt lat="48.57807" lon="1.24465">
        <ele>211</ele>
        <time>2022-05-22T03:19:08Z</time>
      </trkpt>
      <trkpt lat="48.57798" lon="1.24472">
        <ele>211</ele>
        <time>2022-05-22T03:19:10Z</time>
      </trkpt>
      <trkpt lat="48.57819" lon="1.24468">
        <ele>211</ele>
        <time>2022-05-22T03:19:14Z</time>
      </trkpt>
      <trkpt lat="48.5784" lon="1.2446">
        <ele>210</ele>
        <time>2022-05-22T03:19:18Z</time>
      </trkpt>
      <trkpt lat="48.57861" lon="1.24448">
        <ele>210</ele>
        <time>2022-05-22T03:19:22Z</time>
      </trkpt>
      <trkpt lat="48.57889" lon="1.24427">
        <ele>211</ele>
        <time>2022-05-22T03:19:27Z</time>
      </trkpt>
      <trkpt lat="48.57896" lon="1.24419">
        <ele>211</ele>
        <time>2022-05-22T03:19:29Z</time>
      </trkpt>
      <trkpt lat="48.57916" lon="1.24411">
        <ele>211</ele>
        <time>2022-05-22T03:19:33Z</time>
      </trkpt>
      <trkpt lat="48.57927" lon="1.24412">
        <ele>211</ele>
        <time>2022-05-22T03:19:35Z</time>
      </trkpt>
      <trkpt lat="48.57932" lon="1.24424">
        <ele>211</ele>
        <time>2022-05-22T03:19:36Z</time>
      </trkpt>
      <trkpt lat="48.5793" lon="1.24442">
        <ele>210</ele>
        <time>2022-05-22T03:19:38Z</time>
      </trkpt>
      <trkpt lat="48.57921" lon="1.24491">
        <ele>208</ele>
        <time>2022-05-22T03:19:44Z</time>
      </trkpt>
      <trkpt lat="48.57908" lon="1.24523">
        <ele>208</ele>
        <time>2022-05-22T03:19:49Z</time>
      </trkpt>
      <trkpt lat="48.57897" lon="1.24538">
        <ele>208</ele>
        <time>2022-05-22T03:19:51Z</time>
      </trkpt>
      <trkpt lat="48.57886" lon="1.24567">
        <ele>208</ele>
        <time>2022-05-22T03:19:55Z</time>
      </trkpt>
      <trkpt lat="48.57882" lon="1.24587">
        <ele>208</ele>
        <time>2022-05-22T03:19:58Z</time>
      </trkpt>
      <trkpt lat="48.57879" lon="1.24607">
        <ele>208</ele>
        <time>2022-05-22T03:20:00Z</time>
      </trkpt>
      <trkpt lat="48.5788" lon="1.24697">
        <ele>207</ele>
        <time>2022-05-22T03:20:11Z</time>
      </trkpt>
      <trkpt lat="48.57878" lon="1.24727">
        <ele>206</ele>
        <time>2022-05-22T03:20:14Z</time>
      </trkpt>
      <trkpt lat="48.57874" lon="1.24759">
        <ele>205</ele>
        <time>2022-05-22T03:20:18Z</time>
      </trkpt>
      <trkpt lat="48.57865" lon="1.24791">
        <ele>204</ele>
        <time>2022-05-22T03:20:22Z</time>
      </trkpt>
      <trkpt lat="48.57831" lon="1.24869">
        <ele>203</ele>
        <time>2022-05-22T03:20:33Z</time>
      </trkpt>
      <trkpt lat="48.57728" lon="1.25089">
        <ele>206</ele>
        <time>2022-05-22T03:21:05Z</time>
      </trkpt>
      <trkpt lat="48.57721" lon="1.251">
        <ele>207</ele>
        <time>2022-05-22T03:21:07Z</time>
      </trkpt>
      <trkpt lat="48.5771" lon="1.25127">
        <ele>207</ele>
        <time>2022-05-22T03:21:11Z</time>
      </trkpt>
      <trkpt lat="48.57696" lon="1.25172">
        <ele>208</ele>
        <time>2022-05-22T03:21:16Z</time>
      </trkpt>
      <trkpt lat="48.57689" lon="1.25223">
        <ele>208</ele>
        <time>2022-05-22T03:21:23Z</time>
      </trkpt>
      <trkpt lat="48.5767" lon="1.25454">
        <ele>207</ele>
        <time>2022-05-22T03:21:50Z</time>
      </trkpt>
      <trkpt lat="48.57657" lon="1.25526">
        <ele>207</ele>
        <time>2022-05-22T03:21:59Z</time>
      </trkpt>
      <trkpt lat="48.57644" lon="1.25565">
        <ele>208</ele>
        <time>2022-05-22T03:22:04Z</time>
      </trkpt>
      <trkpt lat="48.57494" lon="1.25938">
        <ele>202</ele>
        <time>2022-05-22T03:22:55Z</time>
      </trkpt>
      <trkpt lat="48.57407" lon="1.26164">
        <ele>207</ele>
        <time>2022-05-22T03:23:26Z</time>
      </trkpt>
      <trkpt lat="48.57391" lon="1.2625">
        <ele>208</ele>
        <time>2022-05-22T03:23:37Z</time>
      </trkpt>
      <trkpt lat="48.57388" lon="1.26296">
        <ele>209</ele>
        <time>2022-05-22T03:23:42Z</time>
      </trkpt>
      <trkpt lat="48.57334" lon="1.26758">
        <ele>208</ele>
        <time>2022-05-22T03:24:37Z</time>
      </trkpt>
      <trkpt lat="48.57324" lon="1.26855">
        <ele>206</ele>
        <time>2022-05-22T03:24:49Z</time>
      </trkpt>
      <trkpt lat="48.57324" lon="1.26892">
        <ele>205</ele>
        <time>2022-05-22T03:24:53Z</time>
      </trkpt>
      <trkpt lat="48.57327" lon="1.26927">
        <ele>204</ele>
        <time>2022-05-22T03:24:57Z</time>
      </trkpt>
      <trkpt lat="48.57352" lon="1.27057">
        <ele>203</ele>
        <time>2022-05-22T03:25:13Z</time>
      </trkpt>
      <trkpt lat="48.5746" lon="1.27587">
        <ele>198</ele>
        <time>2022-05-22T03:26:19Z</time>
      </trkpt>
      <trkpt lat="48.57489" lon="1.27848">
        <ele>204</ele>
        <time>2022-05-22T03:26:50Z</time>
      </trkpt>
      <trkpt lat="48.57503" lon="1.28017">
        <ele>205</ele>
        <time>2022-05-22T03:27:10Z</time>
      </trkpt>
      <trkpt lat="48.57521" lon="1.28164">
        <ele>205</ele>
        <time>2022-05-22T03:27:27Z</time>
      </trkpt>
      <trkpt lat="48.57543" lon="1.28253">
        <ele>203</ele>
        <time>2022-05-22T03:27:39Z</time>
      </trkpt>
      <trkpt lat="48.57572" lon="1.28351">
        <ele>201</ele>
        <time>2022-05-22T03:27:51Z</time>
      </trkpt>
      <trkpt lat="48.57589" lon="1.28423">
        <ele>201</ele>
        <time>2022-05-22T03:28:00Z</time>
      </trkpt>
      <trkpt lat="48.5762" lon="1.28603">
        <ele>199</ele>
        <time>2022-05-22T03:28:22Z</time>
      </trkpt>
      <trkpt lat="48.5763" lon="1.28676">
        <ele>200</ele>
        <time>2022-05-22T03:28:31Z</time>
      </trkpt>
      <trkpt lat="48.57631" lon="1.28716">
        <ele>200</ele>
        <time>2022-05-22T03:28:36Z</time>
      </trkpt>
      <trkpt lat="48.57627" lon="1.28762">
        <ele>200</ele>
        <time>2022-05-22T03:28:41Z</time>
      </trkpt>
      <trkpt lat="48.57573" lon="1.29152">
        <ele>201</ele>
        <time>2022-05-22T03:29:28Z</time>
      </trkpt>
      <trkpt lat="48.57562" lon="1.29258">
        <ele>201</ele>
        <time>2022-05-22T03:29:41Z</time>
      </trkpt>
      <trkpt lat="48.57562" lon="1.2939">
        <ele>199</ele>
        <time>2022-05-22T03:29:56Z</time>
      </trkpt>
      <trkpt lat="48.57567" lon="1.29448">
        <ele>198</ele>
        <time>2022-05-22T03:30:03Z</time>
      </trkpt>
      <trkpt lat="48.57577" lon="1.29511">
        <ele>195</ele>
        <time>2022-05-22T03:30:11Z</time>
      </trkpt>
      <trkpt lat="48.57631" lon="1.29763">
        <ele>194</ele>
        <time>2022-05-22T03:30:42Z</time>
      </trkpt>
      <trkpt lat="48.5767" lon="1.29903">
        <ele>198</ele>
        <time>2022-05-22T03:31:00Z</time>
      </trkpt>
      <trkpt lat="48.57767" lon="1.30232">
        <ele>199</ele>
        <time>2022-05-22T03:31:42Z</time>
      </trkpt>
      <trkpt lat="48.5778" lon="1.30283">
        <ele>199</ele>
        <time>2022-05-22T03:31:48Z</time>
      </trkpt>
      <trkpt lat="48.57832" lon="1.30451">
        <ele>198</ele>
        <time>2022-05-22T03:32:10Z</time>
      </trkpt>
      <trkpt lat="48.57971" lon="1.30931">
        <ele>198</ele>
        <time>2022-05-22T03:33:12Z</time>
      </trkpt>
      <trkpt lat="48.58006" lon="1.31093">
        <ele>198</ele>
        <time>2022-05-22T03:33:32Z</time>
      </trkpt>
      <trkpt lat="48.58048" lon="1.3139">
        <ele>197</ele>
        <time>2022-05-22T03:34:08Z</time>
      </trkpt>
      <trkpt lat="48.5805" lon="1.31443">
        <ele>197</ele>
        <time>2022-05-22T03:34:14Z</time>
      </trkpt>
      <trkpt lat="48.58043" lon="1.31546">
        <ele>196</ele>
        <time>2022-05-22T03:34:26Z</time>
      </trkpt>
      <trkpt lat="48.58041" lon="1.31706">
        <ele>196</ele>
        <time>2022-05-22T03:34:45Z</time>
      </trkpt>
      <trkpt lat="48.58036" lon="1.31791">
        <ele>194</ele>
        <time>2022-05-22T03:34:55Z</time>
      </trkpt>
      <trkpt lat="48.58043" lon="1.31875">
        <ele>194</ele>
        <time>2022-05-22T03:35:05Z</time>
      </trkpt>
      <trkpt lat="48.58054" lon="1.31941">
        <ele>193</ele>
        <time>2022-05-22T03:35:13Z</time>
      </trkpt>
      <trkpt lat="48.58068" lon="1.3205">
        <ele>191</ele>
        <time>2022-05-22T03:35:26Z</time>
      </trkpt>
      <trkpt lat="48.58084" lon="1.32256">
        <ele>191</ele>
        <time>2022-05-22T03:35:51Z</time>
      </trkpt>
      <trkpt lat="48.58081" lon="1.32287">
        <ele>191</ele>
        <time>2022-05-22T03:35:54Z</time>
      </trkpt>
      <trkpt lat="48.58059" lon="1.32402">
        <ele>190</ele>
        <time>2022-05-22T03:36:08Z</time>
      </trkpt>
      <trkpt lat="48.58038" lon="1.32582">
        <ele>193</ele>
        <time>2022-05-22T03:36:30Z</time>
      </trkpt>
      <trkpt lat="48.58038" lon="1.32597">
        <ele>193</ele>
        <time>2022-05-22T03:36:32Z</time>
      </trkpt>
      <trkpt lat="48.58034" lon="1.32612">
        <ele>193</ele>
        <time>2022-05-22T03:36:34Z</time>
      </trkpt>
      <trkpt lat="48.58024" lon="1.32736">
        <ele>195</ele>
        <time>2022-05-22T03:36:48Z</time>
      </trkpt>
      <trkpt lat="48.58024" lon="1.32859">
        <ele>196</ele>
        <time>2022-05-22T03:37:03Z</time>
      </trkpt>
      <trkpt lat="48.58029" lon="1.32887">
        <ele>196</ele>
        <time>2022-05-22T03:37:06Z</time>
      </trkpt>
      <trkpt lat="48.58079" lon="1.33003">
        <ele>196</ele>
        <time>2022-05-22T03:37:22Z</time>
      </trkpt>
      <trkpt lat="48.58099" lon="1.33065">
        <ele>196</ele>
        <time>2022-05-22T03:37:31Z</time>
      </trkpt>
      <trkpt lat="48.58107" lon="1.33091">
        <ele>196</ele>
        <time>2022-05-22T03:37:34Z</time>
      </trkpt>
      <trkpt lat="48.58132" lon="1.33208">
        <ele>197</ele>
        <time>2022-05-22T03:37:48Z</time>
      </trkpt>
      <trkpt lat="48.58153" lon="1.33277">
        <ele>198</ele>
        <time>2022-05-22T03:37:57Z</time>
      </trkpt>
      <trkpt lat="48.58155" lon="1.3333">
        <ele>198</ele>
        <time>2022-05-22T03:38:04Z</time>
      </trkpt>
      <trkpt lat="48.58159" lon="1.33367">
        <ele>198</ele>
        <time>2022-05-22T03:38:08Z</time>
      </trkpt>
      <trkpt lat="48.58159" lon="1.33447">
        <ele>197</ele>
        <time>2022-05-22T03:38:17Z</time>
      </trkpt>
      <trkpt lat="48.58167" lon="1.33568">
        <ele>199</ele>
        <time>2022-05-22T03:38:32Z</time>
      </trkpt>
      <trkpt lat="48.58204" lon="1.3399">
        <ele>197</ele>
        <time>2022-05-22T03:39:22Z</time>
      </trkpt>
      <trkpt lat="48.5821" lon="1.34086">
        <ele>197</ele>
        <time>2022-05-22T03:39:33Z</time>
      </trkpt>
      <trkpt lat="48.58214" lon="1.34198">
        <ele>198</ele>
        <time>2022-05-22T03:39:46Z</time>
      </trkpt>
      <trkpt lat="48.58232" lon="1.35124">
        <ele>188</ele>
        <time>2022-05-22T03:41:35Z</time>
      </trkpt>
      <trkpt lat="48.58237" lon="1.35256">
        <ele>187</ele>
        <time>2022-05-22T03:41:51Z</time>
      </trkpt>
      <trkpt lat="48.58231" lon="1.35575">
        <ele>190</ele>
        <time>2022-05-22T03:42:29Z</time>
      </trkpt>
      <trkpt lat="48.58219" lon="1.35671">
        <ele>191</ele>
        <time>2022-05-22T03:42:40Z</time>
      </trkpt>
      <trkpt lat="48.58191" lon="1.3582">
        <ele>195</ele>
        <time>2022-05-22T03:42:58Z</time>
      </trkpt>
      <trkpt lat="48.58188" lon="1.35851">
        <ele>196</ele>
        <time>2022-05-22T03:43:02Z</time>
      </trkpt>
      <trkpt lat="48.58182" lon="1.35884">
        <ele>198</ele>
        <time>2022-05-22T03:43:06Z</time>
      </trkpt>
      <trkpt lat="48.58164" lon="1.35946">
        <ele>201</ele>
        <time>2022-05-22T03:43:14Z</time>
      </trkpt>
      <trkpt lat="48.58159" lon="1.35989">
        <ele>203</ele>
        <time>2022-05-22T03:43:19Z</time>
      </trkpt>
      <trkpt lat="48.58152" lon="1.36019">
        <ele>203</ele>
        <time>2022-05-22T03:43:23Z</time>
      </trkpt>
      <trkpt lat="48.58144" lon="1.36101">
        <ele>205</ele>
        <time>2022-05-22T03:43:33Z</time>
      </trkpt>
      <trkpt lat="48.58137" lon="1.3613">
        <ele>205</ele>
        <time>2022-05-22T03:43:36Z</time>
      </trkpt>
      <trkpt lat="48.58134" lon="1.36159">
        <ele>205</ele>
        <time>2022-05-22T03:43:40Z</time>
      </trkpt>
      <trkpt lat="48.58085" lon="1.36377">
        <ele>204</ele>
        <time>2022-05-22T03:44:07Z</time>
      </trkpt>
      <trkpt lat="48.58072" lon="1.36475">
        <ele>202</ele>
        <time>2022-05-22T03:44:19Z</time>
      </trkpt>
      <trkpt lat="48.58051" lon="1.36584">
        <ele>203</ele>
        <time>2022-05-22T03:44:32Z</time>
      </trkpt>
      <trkpt lat="48.58015" lon="1.3672">
        <ele>203</ele>
        <time>2022-05-22T03:44:49Z</time>
      </trkpt>
      <trkpt lat="48.58002" lon="1.36808">
        <ele>204</ele>
        <time>2022-05-22T03:45:00Z</time>
      </trkpt>
      <trkpt lat="48.57995" lon="1.36879">
        <ele>205</ele>
        <time>2022-05-22T03:45:08Z</time>
      </trkpt>
      <trkpt lat="48.57988" lon="1.36989">
        <ele>206</ele>
        <time>2022-05-22T03:45:21Z</time>
      </trkpt>
      <trkpt lat="48.57989" lon="1.37033">
        <ele>206</ele>
        <time>2022-05-22T03:45:26Z</time>
      </trkpt>
      <trkpt lat="48.57994" lon="1.37044">
        <ele>207</ele>
        <time>2022-05-22T03:45:28Z</time>
      </trkpt>
      <trkpt lat="48.57995" lon="1.37031">
        <ele>206</ele>
        <time>2022-05-22T03:45:30Z</time>
      </trkpt>
      <trkpt lat="48.57988" lon="1.37053">
        <ele>207</ele>
        <time>2022-05-22T03:45:32Z</time>
      </trkpt>
      <trkpt lat="48.58006" lon="1.37136">
        <ele>207</ele>
        <time>2022-05-22T03:45:43Z</time>
      </trkpt>
      <trkpt lat="48.58029" lon="1.37204">
        <ele>207</ele>
        <time>2022-05-22T03:45:52Z</time>
      </trkpt>
      <trkpt lat="48.58064" lon="1.37296">
        <ele>208</ele>
        <time>2022-05-22T03:46:04Z</time>
      </trkpt>
      <trkpt lat="48.58085" lon="1.37391">
        <ele>207</ele>
        <time>2022-05-22T03:46:16Z</time>
      </trkpt>
      <trkpt lat="48.58091" lon="1.37407">
        <ele>207</ele>
        <time>2022-05-22T03:46:18Z</time>
      </trkpt>
      <trkpt lat="48.58099" lon="1.37455">
        <ele>207</ele>
        <time>2022-05-22T03:46:24Z</time>
      </trkpt>
      <trkpt lat="48.58099" lon="1.3747">
        <ele>207</ele>
        <time>2022-05-22T03:46:26Z</time>
      </trkpt>
      <trkpt lat="48.58078" lon="1.37545">
        <ele>207</ele>
        <time>2022-05-22T03:46:35Z</time>
      </trkpt>
      <trkpt lat="48.58053" lon="1.37652">
        <ele>206</ele>
        <time>2022-05-22T03:46:49Z</time>
      </trkpt>
      <trkpt lat="48.58037" lon="1.37683">
        <ele>206</ele>
        <time>2022-05-22T03:46:53Z</time>
      </trkpt>
      <trkpt lat="48.58012" lon="1.37718">
        <ele>205</ele>
        <time>2022-05-22T03:46:59Z</time>
      </trkpt>
      <trkpt lat="48.58003" lon="1.37746">
        <ele>205</ele>
        <time>2022-05-22T03:47:03Z</time>
      </trkpt>
      <trkpt lat="48.58001" lon="1.37776">
        <ele>204</ele>
        <time>2022-05-22T03:47:07Z</time>
      </trkpt>
      <trkpt lat="48.58003" lon="1.37791">
        <ele>204</ele>
        <time>2022-05-22T03:47:08Z</time>
      </trkpt>
      <trkpt lat="48.58011" lon="1.37816">
        <ele>203</ele>
        <time>2022-05-22T03:47:12Z</time>
      </trkpt>
      <trkpt lat="48.58052" lon="1.37902">
        <ele>202</ele>
        <time>2022-05-22T03:47:24Z</time>
      </trkpt>
      <trkpt lat="48.58072" lon="1.37959">
        <ele>202</ele>
        <time>2022-05-22T03:47:32Z</time>
      </trkpt>
      <trkpt lat="48.58236" lon="1.3859">
        <ele>200</ele>
        <time>2022-05-22T03:48:52Z</time>
      </trkpt>
      <trkpt lat="48.58262" lon="1.38697">
        <ele>198</ele>
        <time>2022-05-22T03:49:05Z</time>
      </trkpt>
      <trkpt lat="48.58273" lon="1.38753">
        <ele>198</ele>
        <time>2022-05-22T03:49:12Z</time>
      </trkpt>
      <trkpt lat="48.5828" lon="1.38826">
        <ele>197</ele>
        <time>2022-05-22T03:49:21Z</time>
      </trkpt>
      <trkpt lat="48.58311" lon="1.3935">
        <ele>195</ele>
        <time>2022-05-22T03:50:22Z</time>
      </trkpt>
      <trkpt lat="48.58322" lon="1.39499">
        <ele>195</ele>
        <time>2022-05-22T03:50:40Z</time>
      </trkpt>
      <trkpt lat="48.58325" lon="1.39514">
        <ele>195</ele>
        <time>2022-05-22T03:50:42Z</time>
      </trkpt>
      <trkpt lat="48.58341" lon="1.39745">
        <ele>196</ele>
        <time>2022-05-22T03:51:09Z</time>
      </trkpt>
      <trkpt lat="48.58347" lon="1.39947">
        <ele>196</ele>
        <time>2022-05-22T03:51:33Z</time>
      </trkpt>
      <trkpt lat="48.58355" lon="1.40026">
        <ele>195</ele>
        <time>2022-05-22T03:51:42Z</time>
      </trkpt>
      <trkpt lat="48.58361" lon="1.40058">
        <ele>195</ele>
        <time>2022-05-22T03:51:46Z</time>
      </trkpt>
      <trkpt lat="48.5837" lon="1.40162">
        <ele>194</ele>
        <time>2022-05-22T03:51:59Z</time>
      </trkpt>
      <trkpt lat="48.58381" lon="1.40362">
        <ele>193</ele>
        <time>2022-05-22T03:52:22Z</time>
      </trkpt>
      <trkpt lat="48.58384" lon="1.40462">
        <ele>192</ele>
        <time>2022-05-22T03:52:34Z</time>
      </trkpt>
      <trkpt lat="48.58375" lon="1.40533">
        <ele>192</ele>
        <time>2022-05-22T03:52:43Z</time>
      </trkpt>
      <trkpt lat="48.58358" lon="1.40606">
        <ele>191</ele>
        <time>2022-05-22T03:52:52Z</time>
      </trkpt>
      <trkpt lat="48.58299" lon="1.40814">
        <ele>187</ele>
        <time>2022-05-22T03:53:18Z</time>
      </trkpt>
      <trkpt lat="48.58284" lon="1.40857">
        <ele>187</ele>
        <time>2022-05-22T03:53:24Z</time>
      </trkpt>
      <trkpt lat="48.58197" lon="1.41063">
        <ele>183</ele>
        <time>2022-05-22T03:53:53Z</time>
      </trkpt>
      <trkpt lat="48.5815" lon="1.41188">
        <ele>182</ele>
        <time>2022-05-22T03:54:10Z</time>
      </trkpt>
      <trkpt lat="48.58144" lon="1.41235">
        <ele>183</ele>
        <time>2022-05-22T03:54:15Z</time>
      </trkpt>
      <trkpt lat="48.58155" lon="1.4134">
        <ele>183</ele>
        <time>2022-05-22T03:54:28Z</time>
      </trkpt>
      <trkpt lat="48.5815" lon="1.41294">
        <ele>183</ele>
        <time>2022-05-22T03:54:33Z</time>
      </trkpt>
      <trkpt lat="48.58152" lon="1.4128">
        <ele>183</ele>
        <time>2022-05-22T03:54:35Z</time>
      </trkpt>
      <trkpt lat="48.5816" lon="1.41287">
        <ele>183</ele>
        <time>2022-05-22T03:54:37Z</time>
      </trkpt>
      <trkpt lat="48.58151" lon="1.41282">
        <ele>183</ele>
        <time>2022-05-22T03:54:38Z</time>
      </trkpt>
      <trkpt lat="48.58159" lon="1.41287">
        <ele>183</ele>
        <time>2022-05-22T03:54:40Z</time>
      </trkpt>
      <trkpt lat="48.58155" lon="1.41299">
        <ele>183</ele>
        <time>2022-05-22T03:54:42Z</time>
      </trkpt>
      <trkpt lat="48.58158" lon="1.41283">
        <ele>183</ele>
        <time>2022-05-22T03:54:44Z</time>
      </trkpt>
      <trkpt lat="48.5815" lon="1.41253">
        <ele>183</ele>
        <time>2022-05-22T03:54:47Z</time>
      </trkpt>
      <trkpt lat="48.58149" lon="1.41221">
        <ele>182</ele>
        <time>2022-05-22T03:54:51Z</time>
      </trkpt>
      <trkpt lat="48.58156" lon="1.41184">
        <ele>182</ele>
        <time>2022-05-22T03:54:56Z</time>
      </trkpt>
      <trkpt lat="48.58155" lon="1.41167">
        <ele>182</ele>
        <time>2022-05-22T03:54:58Z</time>
      </trkpt>
      <trkpt lat="48.58149" lon="1.41153">
        <ele>182</ele>
        <time>2022-05-22T03:55:00Z</time>
      </trkpt>
      <trkpt lat="48.58122" lon="1.41135">
        <ele>181</ele>
        <time>2022-05-22T03:55:05Z</time>
      </trkpt>
      <trkpt lat="48.58105" lon="1.41119">
        <ele>181</ele>
        <time>2022-05-22T03:55:08Z</time>
      </trkpt>
      <trkpt lat="48.58118" lon="1.41137">
        <ele>181</ele>
        <time>2022-05-22T03:55:12Z</time>
      </trkpt>
      <trkpt lat="48.58129" lon="1.41141">
        <ele>182</ele>
        <time>2022-05-22T03:55:14Z</time>
      </trkpt>
      <trkpt lat="48.58146" lon="1.41158">
        <ele>182</ele>
        <time>2022-05-22T03:55:17Z</time>
      </trkpt>
      <trkpt lat="48.58153" lon="1.41169">
        <ele>182</ele>
        <time>2022-05-22T03:55:19Z</time>
      </trkpt>
      <trkpt lat="48.5815" lon="1.41202">
        <ele>182</ele>
        <time>2022-05-22T03:55:23Z</time>
      </trkpt>
      <trkpt lat="48.58146" lon="1.4122">
        <ele>182</ele>
        <time>2022-05-22T03:55:25Z</time>
      </trkpt>
      <trkpt lat="48.58147" lon="1.41275">
        <ele>183</ele>
        <time>2022-05-22T03:55:32Z</time>
      </trkpt>
      <trkpt lat="48.58165" lon="1.41423">
        <ele>183</ele>
        <time>2022-05-22T03:55:49Z</time>
      </trkpt>
      <trkpt lat="48.58166" lon="1.4147">
        <ele>182</ele>
        <time>2022-05-22T03:55:55Z</time>
      </trkpt>
      <trkpt lat="48.5819" lon="1.41644">
        <ele>182</ele>
        <time>2022-05-22T03:56:16Z</time>
      </trkpt>
      <trkpt lat="48.58202" lon="1.41684">
        <ele>181</ele>
        <time>2022-05-22T03:56:21Z</time>
      </trkpt>
      <trkpt lat="48.58221" lon="1.41735">
        <ele>179</ele>
        <time>2022-05-22T03:56:28Z</time>
      </trkpt>
      <trkpt lat="48.5828" lon="1.41875">
        <ele>176</ele>
        <time>2022-05-22T03:56:47Z</time>
      </trkpt>
      <trkpt lat="48.58297" lon="1.41926">
        <ele>176</ele>
        <time>2022-05-22T03:56:54Z</time>
      </trkpt>
      <trkpt lat="48.58301" lon="1.41955">
        <ele>176</ele>
        <time>2022-05-22T03:56:58Z</time>
      </trkpt>
      <trkpt lat="48.58303" lon="1.42008">
        <ele>177</ele>
        <time>2022-05-22T03:57:04Z</time>
      </trkpt>
      <trkpt lat="48.58301" lon="1.42186">
        <ele>176</ele>
        <time>2022-05-22T03:57:25Z</time>
      </trkpt>
      <trkpt lat="48.58326" lon="1.42437">
        <ele>175</ele>
        <time>2022-05-22T03:57:55Z</time>
      </trkpt>
      <trkpt lat="48.58355" lon="1.42682">
        <ele>171</ele>
        <time>2022-05-22T03:58:24Z</time>
      </trkpt>
      <trkpt lat="48.58371" lon="1.42849">
        <ele>171</ele>
        <time>2022-05-22T03:58:44Z</time>
      </trkpt>
      <trkpt lat="48.58377" lon="1.42941">
        <ele>172</ele>
        <time>2022-05-22T03:58:55Z</time>
      </trkpt>
      <trkpt lat="48.58378" lon="1.43068">
        <ele>175</ele>
        <time>2022-05-22T03:59:10Z</time>
      </trkpt>
      <trkpt lat="48.58349" lon="1.43092">
        <ele>175</ele>
        <time>2022-05-22T03:59:16Z</time>
      </trkpt>
      <trkpt lat="48.58343" lon="1.43106">
        <ele>175</ele>
        <time>2022-05-22T03:59:18Z</time>
      </trkpt>
      <trkpt lat="48.58341" lon="1.4312">
        <ele>175</ele>
        <time>2022-05-22T03:59:19Z</time>
      </trkpt>
      <trkpt lat="48.58345" lon="1.43169">
        <ele>174</ele>
        <time>2022-05-22T03:59:25Z</time>
      </trkpt>
      <trkpt lat="48.58349" lon="1.43186">
        <ele>174</ele>
        <time>2022-05-22T03:59:27Z</time>
      </trkpt>
      <trkpt lat="48.58374" lon="1.43248">
        <ele>174</ele>
        <time>2022-05-22T03:59:36Z</time>
      </trkpt>
      <trkpt lat="48.58383" lon="1.43296">
        <ele>173</ele>
        <time>2022-05-22T03:59:42Z</time>
      </trkpt>
      <trkpt lat="48.58385" lon="1.43347">
        <ele>172</ele>
        <time>2022-05-22T03:59:48Z</time>
      </trkpt>
      <trkpt lat="48.58373" lon="1.43462">
        <ele>172</ele>
        <time>2022-05-22T04:00:01Z</time>
      </trkpt>
      <trkpt lat="48.58376" lon="1.43492">
        <ele>172</ele>
        <time>2022-05-22T04:00:05Z</time>
      </trkpt>
      <trkpt lat="48.58391" lon="1.43534">
        <ele>172</ele>
        <time>2022-05-22T04:00:10Z</time>
      </trkpt>
      <trkpt lat="48.58433" lon="1.4361">
        <ele>170</ele>
        <time>2022-05-22T04:00:22Z</time>
      </trkpt>
      <trkpt lat="48.5845" lon="1.43657">
        <ele>169</ele>
        <time>2022-05-22T04:00:28Z</time>
      </trkpt>
      <trkpt lat="48.58459" lon="1.43782">
        <ele>167</ele>
        <time>2022-05-22T04:00:43Z</time>
      </trkpt>
      <trkpt lat="48.58461" lon="1.43845">
        <ele>166</ele>
        <time>2022-05-22T04:00:51Z</time>
      </trkpt>
      <trkpt lat="48.58459" lon="1.43861">
        <ele>166</ele>
        <time>2022-05-22T04:00:53Z</time>
      </trkpt>
      <trkpt lat="48.58441" lon="1.43933">
        <ele>165</ele>
        <time>2022-05-22T04:01:02Z</time>
      </trkpt>
      <trkpt lat="48.58437" lon="1.43967">
        <ele>165</ele>
        <time>2022-05-22T04:01:06Z</time>
      </trkpt>
      <trkpt lat="48.58438" lon="1.43986">
        <ele>165</ele>
        <time>2022-05-22T04:01:08Z</time>
      </trkpt>
      <trkpt lat="48.58442" lon="1.44004">
        <ele>165</ele>
        <time>2022-05-22T04:01:10Z</time>
      </trkpt>
      <trkpt lat="48.58457" lon="1.44054">
        <ele>164</ele>
        <time>2022-05-22T04:01:17Z</time>
      </trkpt>
      <trkpt lat="48.58487" lon="1.44124">
        <ele>163</ele>
        <time>2022-05-22T04:01:26Z</time>
      </trkpt>
      <trkpt lat="48.58514" lon="1.44174">
        <ele>162</ele>
        <time>2022-05-22T04:01:34Z</time>
      </trkpt>
      <trkpt lat="48.58573" lon="1.44268">
        <ele>165</ele>
        <time>2022-05-22T04:01:49Z</time>
      </trkpt>
      <trkpt lat="48.58616" lon="1.44356">
        <ele>166</ele>
        <time>2022-05-22T04:02:02Z</time>
      </trkpt>
      <trkpt lat="48.58635" lon="1.44386">
        <ele>166</ele>
        <time>2022-05-22T04:02:07Z</time>
      </trkpt>
      <trkpt lat="48.58659" lon="1.44407">
        <ele>165</ele>
        <time>2022-05-22T04:02:12Z</time>
      </trkpt>
      <trkpt lat="48.58749" lon="1.44466">
        <ele>165</ele>
        <time>2022-05-22T04:02:29Z</time>
      </trkpt>
      <trkpt lat="48.58781" lon="1.44484">
        <ele>165</ele>
        <time>2022-05-22T04:02:36Z</time>
      </trkpt>
      <trkpt lat="48.58861" lon="1.44522">
        <ele>165</ele>
        <time>2022-05-22T04:02:50Z</time>
      </trkpt>
      <trkpt lat="48.58924" lon="1.44562">
        <ele>164</ele>
        <time>2022-05-22T04:03:03Z</time>
      </trkpt>
      <trkpt lat="48.59021" lon="1.44632">
        <ele>162</ele>
        <time>2022-05-22T04:03:22Z</time>
      </trkpt>
      <trkpt lat="48.59137" lon="1.44735">
        <ele>160</ele>
        <time>2022-05-22T04:03:46Z</time>
      </trkpt>
      <trkpt lat="48.59205" lon="1.4477">
        <ele>160</ele>
        <time>2022-05-22T04:03:58Z</time>
      </trkpt>
      <trkpt lat="48.59233" lon="1.4479">
        <ele>161</ele>
        <time>2022-05-22T04:04:04Z</time>
      </trkpt>
      <trkpt lat="48.59259" lon="1.44817">
        <ele>161</ele>
        <time>2022-05-22T04:04:10Z</time>
      </trkpt>
      <trkpt lat="48.59295" lon="1.4487">
        <ele>161</ele>
        <time>2022-05-22T04:04:19Z</time>
      </trkpt>
      <trkpt lat="48.59362" lon="1.44958">
        <ele>164</ele>
        <time>2022-05-22T04:04:34Z</time>
      </trkpt>
      <trkpt lat="48.59368" lon="1.44969">
        <ele>165</ele>
        <time>2022-05-22T04:04:36Z</time>
      </trkpt>
      <trkpt lat="48.59367" lon="1.44982">
        <ele>165</ele>
        <time>2022-05-22T04:04:38Z</time>
      </trkpt>
      <trkpt lat="48.59357" lon="1.44989">
        <ele>164</ele>
        <time>2022-05-22T04:04:40Z</time>
      </trkpt>
      <trkpt lat="48.59314" lon="1.45033">
        <ele>163</ele>
        <time>2022-05-22T04:04:49Z</time>
      </trkpt>
      <trkpt lat="48.59297" lon="1.45055">
        <ele>163</ele>
        <time>2022-05-22T04:04:53Z</time>
      </trkpt>
      <trkpt lat="48.59277" lon="1.45089">
        <ele>162</ele>
        <time>2022-05-22T04:04:58Z</time>
      </trkpt>
      <trkpt lat="48.5926" lon="1.45138">
        <ele>162</ele>
        <time>2022-05-22T04:05:05Z</time>
      </trkpt>
      <trkpt lat="48.59195" lon="1.45382">
        <ele>162</ele>
        <time>2022-05-22T04:05:36Z</time>
      </trkpt>
      <trkpt lat="48.59173" lon="1.45502">
        <ele>160</ele>
        <time>2022-05-22T04:05:50Z</time>
      </trkpt>
      <trkpt lat="48.59166" lon="1.4558">
        <ele>160</ele>
        <time>2022-05-22T04:05:59Z</time>
      </trkpt>
      <trkpt lat="48.59166" lon="1.45629">
        <ele>159</ele>
        <time>2022-05-22T04:06:05Z</time>
      </trkpt>
      <trkpt lat="48.59174" lon="1.45793">
        <ele>157</ele>
        <time>2022-05-22T04:06:25Z</time>
      </trkpt>
      <trkpt lat="48.59173" lon="1.45866">
        <ele>156</ele>
        <time>2022-05-22T04:06:33Z</time>
      </trkpt>
      <trkpt lat="48.59164" lon="1.45975">
        <ele>154</ele>
        <time>2022-05-22T04:06:46Z</time>
      </trkpt>
      <trkpt lat="48.5915" lon="1.46078">
        <ele>154</ele>
        <time>2022-05-22T04:06:58Z</time>
      </trkpt>
      <trkpt lat="48.59138" lon="1.46126">
        <ele>154</ele>
        <time>2022-05-22T04:07:05Z</time>
      </trkpt>
      <trkpt lat="48.59086" lon="1.46292">
        <ele>155</ele>
        <time>2022-05-22T04:07:26Z</time>
      </trkpt>
      <trkpt lat="48.59065" lon="1.46367">
        <ele>155</ele>
        <time>2022-05-22T04:07:36Z</time>
      </trkpt>
      <trkpt lat="48.59044" lon="1.4646">
        <ele>156</ele>
        <time>2022-05-22T04:07:47Z</time>
      </trkpt>
      <trkpt lat="48.59027" lon="1.4657">
        <ele>157</ele>
        <time>2022-05-22T04:08:01Z</time>
      </trkpt>
      <trkpt lat="48.59019" lon="1.46605">
        <ele>157</ele>
        <time>2022-05-22T04:08:05Z</time>
      </trkpt>
      <trkpt lat="48.59007" lon="1.4664">
        <ele>158</ele>
        <time>2022-05-22T04:08:10Z</time>
      </trkpt>
      <trkpt lat="48.58991" lon="1.46671">
        <ele>158</ele>
        <time>2022-05-22T04:08:14Z</time>
      </trkpt>
      <trkpt lat="48.58954" lon="1.4672">
        <ele>158</ele>
        <time>2022-05-22T04:08:23Z</time>
      </trkpt>
      <trkpt lat="48.58949" lon="1.46736">
        <ele>158</ele>
        <time>2022-05-22T04:08:25Z</time>
      </trkpt>
      <trkpt lat="48.58947" lon="1.46754">
        <ele>158</ele>
        <time>2022-05-22T04:08:27Z</time>
      </trkpt>
      <trkpt lat="48.58967" lon="1.46868">
        <ele>157</ele>
        <time>2022-05-22T04:08:41Z</time>
      </trkpt>
      <trkpt lat="48.58976" lon="1.4695">
        <ele>157</ele>
        <time>2022-05-22T04:08:51Z</time>
      </trkpt>
      <trkpt lat="48.59023" lon="1.47242">
        <ele>156</ele>
        <time>2022-05-22T04:09:26Z</time>
      </trkpt>
      <trkpt lat="48.59035" lon="1.47355">
        <ele>155</ele>
        <time>2022-05-22T04:09:40Z</time>
      </trkpt>
      <trkpt lat="48.59044" lon="1.47485">
        <ele>153</ele>
        <time>2022-05-22T04:09:55Z</time>
      </trkpt>
      <trkpt lat="48.59046" lon="1.47556">
        <ele>153</ele>
        <time>2022-05-22T04:10:03Z</time>
      </trkpt>
      <trkpt lat="48.59036" lon="1.47886">
        <ele>155</ele>
        <time>2022-05-22T04:10:42Z</time>
      </trkpt>
      <trkpt lat="48.59037" lon="1.48179">
        <ele>154</ele>
        <time>2022-05-22T04:11:17Z</time>
      </trkpt>
      <trkpt lat="48.5905" lon="1.4827">
        <ele>154</ele>
        <time>2022-05-22T04:11:28Z</time>
      </trkpt>
      <trkpt lat="48.59077" lon="1.48393">
        <ele>153</ele>
        <time>2022-05-22T04:11:43Z</time>
      </trkpt>
      <trkpt lat="48.59092" lon="1.48625">
        <ele>148</ele>
        <time>2022-05-22T04:12:10Z</time>
      </trkpt>
      <trkpt lat="48.5911" lon="1.48815">
        <ele>146</ele>
        <time>2022-05-22T04:12:33Z</time>
      </trkpt>
      <trkpt lat="48.59105" lon="1.48913">
        <ele>146</ele>
        <time>2022-05-22T04:12:45Z</time>
      </trkpt>
      <trkpt lat="48.59093" lon="1.48996">
        <ele>145</ele>
        <time>2022-05-22T04:12:55Z</time>
      </trkpt>
      <trkpt lat="48.59089" lon="1.49035">
        <ele>145</ele>
        <time>2022-05-22T04:12:59Z</time>
      </trkpt>
      <trkpt lat="48.5909" lon="1.49049">
        <ele>144</ele>
        <time>2022-05-22T04:13:01Z</time>
      </trkpt>
      <trkpt lat="48.59106" lon="1.49097">
        <ele>143</ele>
        <time>2022-05-22T04:13:07Z</time>
      </trkpt>
      <trkpt lat="48.59114" lon="1.49129">
        <ele>142</ele>
        <time>2022-05-22T04:13:11Z</time>
      </trkpt>
      <trkpt lat="48.59127" lon="1.49248">
        <ele>139</ele>
        <time>2022-05-22T04:13:25Z</time>
      </trkpt>
      <trkpt lat="48.59148" lon="1.49344">
        <ele>137</ele>
        <time>2022-05-22T04:13:37Z</time>
      </trkpt>
      <trkpt lat="48.59229" lon="1.49651">
        <ele>134</ele>
        <time>2022-05-22T04:14:16Z</time>
      </trkpt>
      <trkpt lat="48.59287" lon="1.4983">
        <ele>130</ele>
        <time>2022-05-22T04:14:40Z</time>
      </trkpt>
      <trkpt lat="48.59312" lon="1.49915">
        <ele>128</ele>
        <time>2022-05-22T04:14:51Z</time>
      </trkpt>
      <trkpt lat="48.59324" lon="1.49984">
        <ele>128</ele>
        <time>2022-05-22T04:14:59Z</time>
      </trkpt>
      <trkpt lat="48.5934" lon="1.50045">
        <ele>126</ele>
        <time>2022-05-22T04:15:07Z</time>
      </trkpt>
      <trkpt lat="48.59351" lon="1.50077">
        <ele>125</ele>
        <time>2022-05-22T04:15:11Z</time>
      </trkpt>
      <trkpt lat="48.59397" lon="1.50187">
        <ele>123</ele>
        <time>2022-05-22T04:15:26Z</time>
      </trkpt>
      <trkpt lat="48.59435" lon="1.50266">
        <ele>120</ele>
        <time>2022-05-22T04:15:38Z</time>
      </trkpt>
      <trkpt lat="48.59476" lon="1.50344">
        <ele>118</ele>
        <time>2022-05-22T04:15:50Z</time>
      </trkpt>
      <trkpt lat="48.59496" lon="1.5039">
        <ele>116</ele>
        <time>2022-05-22T04:15:56Z</time>
      </trkpt>
      <trkpt lat="48.59551" lon="1.50536">
        <ele>116</ele>
        <time>2022-05-22T04:16:16Z</time>
      </trkpt>
      <trkpt lat="48.59591" lon="1.50689">
        <ele>114</ele>
        <time>2022-05-22T04:16:35Z</time>
      </trkpt>
      <trkpt lat="48.59603" lon="1.50721">
        <ele>113</ele>
        <time>2022-05-22T04:16:39Z</time>
      </trkpt>
      <trkpt lat="48.59619" lon="1.5075">
        <ele>112</ele>
        <time>2022-05-22T04:16:44Z</time>
      </trkpt>
      <trkpt lat="48.59647" lon="1.5079">
        <ele>113</ele>
        <time>2022-05-22T04:16:51Z</time>
      </trkpt>
      <trkpt lat="48.59808" lon="1.50952">
        <ele>115</ele>
        <time>2022-05-22T04:17:25Z</time>
      </trkpt>
      <trkpt lat="48.5986" lon="1.51018">
        <ele>113</ele>
        <time>2022-05-22T04:17:37Z</time>
      </trkpt>
      <trkpt lat="48.5988" lon="1.5105">
        <ele>111</ele>
        <time>2022-05-22T04:17:42Z</time>
      </trkpt>
      <trkpt lat="48.59924" lon="1.51133">
        <ele>111</ele>
        <time>2022-05-22T04:17:55Z</time>
      </trkpt>
      <trkpt lat="48.59948" lon="1.51187">
        <ele>112</ele>
        <time>2022-05-22T04:18:03Z</time>
      </trkpt>
      <trkpt lat="48.59966" lon="1.51219">
        <ele>112</ele>
        <time>2022-05-22T04:18:08Z</time>
      </trkpt>
      <trkpt lat="48.59985" lon="1.51248">
        <ele>112</ele>
        <time>2022-05-22T04:18:12Z</time>
      </trkpt>
      <trkpt lat="48.59995" lon="1.51259">
        <ele>112</ele>
        <time>2022-05-22T04:18:15Z</time>
      </trkpt>
      <trkpt lat="48.6" lon="1.51273">
        <ele>112</ele>
        <time>2022-05-22T04:18:16Z</time>
      </trkpt>
      <trkpt lat="48.60008" lon="1.51284">
        <ele>112</ele>
        <time>2022-05-22T04:18:18Z</time>
      </trkpt>
      <trkpt lat="48.60017" lon="1.51284">
        <ele>112</ele>
        <time>2022-05-22T04:18:20Z</time>
      </trkpt>
      <trkpt lat="48.60043" lon="1.51308">
        <ele>112</ele>
        <time>2022-05-22T04:18:25Z</time>
      </trkpt>
      <trkpt lat="48.60063" lon="1.51316">
        <ele>113</ele>
        <time>2022-05-22T04:18:29Z</time>
      </trkpt>
      <trkpt lat="48.60096" lon="1.51324">
        <ele>113</ele>
        <time>2022-05-22T04:18:35Z</time>
      </trkpt>
      <trkpt lat="48.60106" lon="1.51329">
        <ele>113</ele>
        <time>2022-05-22T04:18:37Z</time>
      </trkpt>
      <trkpt lat="48.60143" lon="1.5136">
        <ele>113</ele>
        <time>2022-05-22T04:18:44Z</time>
      </trkpt>
      <trkpt lat="48.60153" lon="1.51365">
        <ele>113</ele>
        <time>2022-05-22T04:18:46Z</time>
      </trkpt>
      <trkpt lat="48.60152" lon="1.5135">
        <ele>113</ele>
        <time>2022-05-22T04:18:48Z</time>
      </trkpt>
      <trkpt lat="48.60155" lon="1.5137">
        <ele>113</ele>
        <time>2022-05-22T04:18:50Z</time>
      </trkpt>
      <trkpt lat="48.60173" lon="1.51386">
        <ele>113</ele>
        <time>2022-05-22T04:18:54Z</time>
      </trkpt>
      <trkpt lat="48.60193" lon="1.51424">
        <ele>112</ele>
        <time>2022-05-22T04:19:00Z</time>
      </trkpt>
      <trkpt lat="48.60214" lon="1.51456">
        <ele>111</ele>
        <time>2022-05-22T04:19:05Z</time>
      </trkpt>
      <trkpt lat="48.60295" lon="1.5151">
        <ele>111</ele>
        <time>2022-05-22T04:19:21Z</time>
      </trkpt>
      <trkpt lat="48.60307" lon="1.51514">
        <ele>111</ele>
        <time>2022-05-22T04:19:23Z</time>
      </trkpt>
      <trkpt lat="48.60316" lon="1.51523">
        <ele>111</ele>
        <time>2022-05-22T04:19:25Z</time>
      </trkpt>
      <trkpt lat="48.60328" lon="1.51525">
        <ele>111</ele>
        <time>2022-05-22T04:19:27Z</time>
      </trkpt>
      <trkpt lat="48.60336" lon="1.51535">
        <ele>111</ele>
        <time>2022-05-22T04:19:29Z</time>
      </trkpt>
      <trkpt lat="48.60384" lon="1.51564">
        <ele>111</ele>
        <time>2022-05-22T04:19:38Z</time>
      </trkpt>
      <trkpt lat="48.60392" lon="1.51574">
        <ele>110</ele>
        <time>2022-05-22T04:19:40Z</time>
      </trkpt>
      <trkpt lat="48.60389" lon="1.51626">
        <ele>109</ele>
        <time>2022-05-22T04:19:46Z</time>
      </trkpt>
      <trkpt lat="48.60382" lon="1.51676">
        <ele>109</ele>
        <time>2022-05-22T04:19:52Z</time>
      </trkpt>
      <trkpt lat="48.60348" lon="1.51813">
        <ele>110</ele>
        <time>2022-05-22T04:20:09Z</time>
      </trkpt>
      <trkpt lat="48.60356" lon="1.51827">
        <ele>110</ele>
        <time>2022-05-22T04:20:12Z</time>
      </trkpt>
      <trkpt lat="48.60366" lon="1.51837">
        <ele>110</ele>
        <time>2022-05-22T04:20:14Z</time>
      </trkpt>
      <trkpt lat="48.60506" lon="1.51952">
        <ele>111</ele>
        <time>2022-05-22T04:20:42Z</time>
      </trkpt>
      <trkpt lat="48.60531" lon="1.51992">
        <ele>112</ele>
        <time>2022-05-22T04:20:49Z</time>
      </trkpt>
      <trkpt lat="48.60548" lon="1.52064">
        <ele>113</ele>
        <time>2022-05-22T04:20:58Z</time>
      </trkpt>
      <trkpt lat="48.60565" lon="1.5212">
        <ele>115</ele>
        <time>2022-05-22T04:21:05Z</time>
      </trkpt>
      <trkpt lat="48.60594" lon="1.52241">
        <ele>121</ele>
        <time>2022-05-22T04:21:20Z</time>
      </trkpt>
      <trkpt lat="48.60636" lon="1.52374">
        <ele>126</ele>
        <time>2022-05-22T04:21:37Z</time>
      </trkpt>
      <trkpt lat="48.60663" lon="1.52436">
        <ele>129</ele>
        <time>2022-05-22T04:21:46Z</time>
      </trkpt>
      <trkpt lat="48.60723" lon="1.52526">
        <ele>129</ele>
        <time>2022-05-22T04:22:01Z</time>
      </trkpt>
      <trkpt lat="48.60732" lon="1.52536">
        <ele>129</ele>
        <time>2022-05-22T04:22:03Z</time>
      </trkpt>
      <trkpt lat="48.60809" lon="1.52648">
        <ele>132</ele>
        <time>2022-05-22T04:22:22Z</time>
      </trkpt>
      <trkpt lat="48.60855" lon="1.5271">
        <ele>133</ele>
        <time>2022-05-22T04:22:33Z</time>
      </trkpt>
      <trkpt lat="48.60873" lon="1.52721">
        <ele>132</ele>
        <time>2022-05-22T04:22:37Z</time>
      </trkpt>
      <trkpt lat="48.6088" lon="1.52732">
        <ele>133</ele>
        <time>2022-05-22T04:22:38Z</time>
      </trkpt>
      <trkpt lat="48.60883" lon="1.52746">
        <ele>133</ele>
        <time>2022-05-22T04:22:40Z</time>
      </trkpt>
      <trkpt lat="48.60889" lon="1.52758">
        <ele>133</ele>
        <time>2022-05-22T04:22:42Z</time>
      </trkpt>
      <trkpt lat="48.60941" lon="1.52828">
        <ele>135</ele>
        <time>2022-05-22T04:22:54Z</time>
      </trkpt>
      <trkpt lat="48.60947" lon="1.52841">
        <ele>135</ele>
        <time>2022-05-22T04:22:56Z</time>
      </trkpt>
      <trkpt lat="48.60999" lon="1.52889">
        <ele>136</ele>
        <time>2022-05-22T04:23:07Z</time>
      </trkpt>
      <trkpt lat="48.61033" lon="1.52913">
        <ele>135</ele>
        <time>2022-05-22T04:23:14Z</time>
      </trkpt>
      <trkpt lat="48.6106" lon="1.52937">
        <ele>135</ele>
        <time>2022-05-22T04:23:19Z</time>
      </trkpt>
      <trkpt lat="48.61082" lon="1.52968">
        <ele>134</ele>
        <time>2022-05-22T04:23:25Z</time>
      </trkpt>
      <trkpt lat="48.61087" lon="1.52981">
        <ele>134</ele>
        <time>2022-05-22T04:23:26Z</time>
      </trkpt>
      <trkpt lat="48.61183" lon="1.53335">
        <ele>135</ele>
        <time>2022-05-22T04:24:11Z</time>
      </trkpt>
      <trkpt lat="48.61308" lon="1.53876">
        <ele>135</ele>
        <time>2022-05-22T04:25:19Z</time>
      </trkpt>
      <trkpt lat="48.61378" lon="1.54145">
        <ele>134</ele>
        <time>2022-05-22T04:25:53Z</time>
      </trkpt>
      <trkpt lat="48.61425" lon="1.54342">
        <ele>133</ele>
        <time>2022-05-22T04:26:17Z</time>
      </trkpt>
      <trkpt lat="48.61462" lon="1.54467">
        <ele>131</ele>
        <time>2022-05-22T04:26:33Z</time>
      </trkpt>
      <trkpt lat="48.61481" lon="1.54513">
        <ele>131</ele>
        <time>2022-05-22T04:26:40Z</time>
      </trkpt>
      <trkpt lat="48.61494" lon="1.54534">
        <ele>131</ele>
        <time>2022-05-22T04:26:43Z</time>
      </trkpt>
      <trkpt lat="48.61519" lon="1.54557">
        <ele>131</ele>
        <time>2022-05-22T04:26:48Z</time>
      </trkpt>
      <trkpt lat="48.61586" lon="1.54606">
        <ele>130</ele>
        <time>2022-05-22T04:27:02Z</time>
      </trkpt>
      <trkpt lat="48.61597" lon="1.54611">
        <ele>130</ele>
        <time>2022-05-22T04:27:04Z</time>
      </trkpt>
      <trkpt lat="48.61619" lon="1.5463">
        <ele>130</ele>
        <time>2022-05-22T04:27:08Z</time>
      </trkpt>
      <trkpt lat="48.61681" lon="1.547">
        <ele>124</ele>
        <time>2022-05-22T04:27:22Z</time>
      </trkpt>
      <trkpt lat="48.61702" lon="1.54722">
        <ele>121</ele>
        <time>2022-05-22T04:27:27Z</time>
      </trkpt>
      <trkpt lat="48.61718" lon="1.54734">
        <ele>120</ele>
        <time>2022-05-22T04:27:30Z</time>
      </trkpt>
      <trkpt lat="48.61735" lon="1.54742">
        <ele>120</ele>
        <time>2022-05-22T04:27:33Z</time>
      </trkpt>
      <trkpt lat="48.61753" lon="1.54747">
        <ele>119</ele>
        <time>2022-05-22T04:27:36Z</time>
      </trkpt>
      <trkpt lat="48.61779" lon="1.5475">
        <ele>118</ele>
        <time>2022-05-22T04:27:41Z</time>
      </trkpt>
      <trkpt lat="48.61831" lon="1.54749">
        <ele>117</ele>
        <time>2022-05-22T04:27:50Z</time>
      </trkpt>
      <trkpt lat="48.61883" lon="1.54754">
        <ele>115</ele>
        <time>2022-05-22T04:27:59Z</time>
      </trkpt>
      <trkpt lat="48.61909" lon="1.54754">
        <ele>114</ele>
        <time>2022-05-22T04:28:04Z</time>
      </trkpt>
      <trkpt lat="48.62003" lon="1.54769">
        <ele>112</ele>
        <time>2022-05-22T04:28:21Z</time>
      </trkpt>
      <trkpt lat="48.62029" lon="1.5477">
        <ele>111</ele>
        <time>2022-05-22T04:28:25Z</time>
      </trkpt>
      <trkpt lat="48.62038" lon="1.54772">
        <ele>110</ele>
        <time>2022-05-22T04:28:27Z</time>
      </trkpt>
      <trkpt lat="48.62047" lon="1.54781">
        <ele>109</ele>
        <time>2022-05-22T04:28:29Z</time>
      </trkpt>
      <trkpt lat="48.62055" lon="1.5481">
        <ele>104</ele>
        <time>2022-05-22T04:28:33Z</time>
      </trkpt>
      <trkpt lat="48.62057" lon="1.54825">
        <ele>102</ele>
        <time>2022-05-22T04:28:34Z</time>
      </trkpt>
      <trkpt lat="48.62056" lon="1.54858">
        <ele>100</ele>
        <time>2022-05-22T04:28:38Z</time>
      </trkpt>
      <trkpt lat="48.6206" lon="1.54896">
        <ele>99</ele>
        <time>2022-05-22T04:28:43Z</time>
      </trkpt>
      <trkpt lat="48.62069" lon="1.54937">
        <ele>98</ele>
        <time>2022-05-22T04:28:48Z</time>
      </trkpt>
      <trkpt lat="48.62097" lon="1.55025">
        <ele>98</ele>
        <time>2022-05-22T04:28:59Z</time>
      </trkpt>
      <trkpt lat="48.62114" lon="1.55091">
        <ele>100</ele>
        <time>2022-05-22T04:29:08Z</time>
      </trkpt>
      <trkpt lat="48.62158" lon="1.55237">
        <ele>98</ele>
        <time>2022-05-22T04:29:27Z</time>
      </trkpt>
      <trkpt lat="48.62214" lon="1.5544">
        <ele>96</ele>
        <time>2022-05-22T04:29:52Z</time>
      </trkpt>
      <trkpt lat="48.62237" lon="1.5551">
        <ele>97</ele>
        <time>2022-05-22T04:30:02Z</time>
      </trkpt>
      <trkpt lat="48.62261" lon="1.55604">
        <ele>97</ele>
        <time>2022-05-22T04:30:14Z</time>
      </trkpt>
      <trkpt lat="48.62305" lon="1.55751">
        <ele>98</ele>
        <time>2022-05-22T04:30:32Z</time>
      </trkpt>
      <trkpt lat="48.62311" lon="1.55782">
        <ele>98</ele>
        <time>2022-05-22T04:30:36Z</time>
      </trkpt>
      <trkpt lat="48.62311" lon="1.55816">
        <ele>98</ele>
        <time>2022-05-22T04:30:40Z</time>
      </trkpt>
      <trkpt lat="48.62304" lon="1.55841">
        <ele>98</ele>
        <time>2022-05-22T04:30:43Z</time>
      </trkpt>
      <trkpt lat="48.62217" lon="1.56">
        <ele>98</ele>
        <time>2022-05-22T04:31:08Z</time>
      </trkpt>
      <trkpt lat="48.62189" lon="1.56061">
        <ele>98</ele>
        <time>2022-05-22T04:31:16Z</time>
      </trkpt>
      <trkpt lat="48.62154" lon="1.56106">
        <ele>99</ele>
        <time>2022-05-22T04:31:25Z</time>
      </trkpt>
      <trkpt lat="48.62139" lon="1.56131">
        <ele>100</ele>
        <time>2022-05-22T04:31:29Z</time>
      </trkpt>
      <trkpt lat="48.62084" lon="1.56267">
        <ele>102</ele>
        <time>2022-05-22T04:31:47Z</time>
      </trkpt>
      <trkpt lat="48.6205" lon="1.56337">
        <ele>102</ele>
        <time>2022-05-22T04:31:58Z</time>
      </trkpt>
      <trkpt lat="48.62027" lon="1.56373">
        <ele>103</ele>
        <time>2022-05-22T04:32:03Z</time>
      </trkpt>
      <trkpt lat="48.62016" lon="1.56397">
        <ele>104</ele>
        <time>2022-05-22T04:32:07Z</time>
      </trkpt>
      <trkpt lat="48.62008" lon="1.56445">
        <ele>105</ele>
        <time>2022-05-22T04:32:13Z</time>
      </trkpt>
      <trkpt lat="48.61994" lon="1.565">
        <ele>106</ele>
        <time>2022-05-22T04:32:20Z</time>
      </trkpt>
      <trkpt lat="48.61952" lon="1.56612">
        <ele>109</ele>
        <time>2022-05-22T04:32:35Z</time>
      </trkpt>
      <trkpt lat="48.61927" lon="1.56717">
        <ele>106</ele>
        <time>2022-05-22T04:32:48Z</time>
      </trkpt>
      <trkpt lat="48.61909" lon="1.56818">
        <ele>103</ele>
        <time>2022-05-22T04:33:00Z</time>
      </trkpt>
      <trkpt lat="48.61904" lon="1.56924">
        <ele>103</ele>
        <time>2022-05-22T04:33:13Z</time>
      </trkpt>
      <trkpt lat="48.61906" lon="1.56975">
        <ele>101</ele>
        <time>2022-05-22T04:33:19Z</time>
      </trkpt>
      <trkpt lat="48.61914" lon="1.57022">
        <ele>100</ele>
        <time>2022-05-22T04:33:24Z</time>
      </trkpt>
      <trkpt lat="48.61924" lon="1.57063">
        <ele>100</ele>
        <time>2022-05-22T04:33:30Z</time>
      </trkpt>
      <trkpt lat="48.61961" lon="1.57159">
        <ele>99</ele>
        <time>2022-05-22T04:33:43Z</time>
      </trkpt>
      <trkpt lat="48.61969" lon="1.57195">
        <ele>99</ele>
        <time>2022-05-22T04:33:47Z</time>
      </trkpt>
      <trkpt lat="48.61975" lon="1.57211">
        <ele>99</ele>
        <time>2022-05-22T04:33:49Z</time>
      </trkpt>
      <trkpt lat="48.61984" lon="1.5731">
        <ele>101</ele>
        <time>2022-05-22T04:34:01Z</time>
      </trkpt>
      <trkpt lat="48.61981" lon="1.57367">
        <ele>102</ele>
        <time>2022-05-22T04:34:08Z</time>
      </trkpt>
      <trkpt lat="48.61978" lon="1.57383">
        <ele>102</ele>
        <time>2022-05-22T04:34:10Z</time>
      </trkpt>
      <trkpt lat="48.6194" lon="1.57433">
        <ele>104</ele>
        <time>2022-05-22T04:34:19Z</time>
      </trkpt>
      <trkpt lat="48.61921" lon="1.57467">
        <ele>104</ele>
        <time>2022-05-22T04:34:24Z</time>
      </trkpt>
      <trkpt lat="48.61896" lon="1.57541">
        <ele>104</ele>
        <time>2022-05-22T04:34:34Z</time>
      </trkpt>
      <trkpt lat="48.61891" lon="1.57567">
        <ele>103</ele>
        <time>2022-05-22T04:34:37Z</time>
      </trkpt>
      <trkpt lat="48.61863" lon="1.57651">
        <ele>104</ele>
        <time>2022-05-22T04:34:48Z</time>
      </trkpt>
      <trkpt lat="48.61831" lon="1.57764">
        <ele>104</ele>
        <time>2022-05-22T04:35:02Z</time>
      </trkpt>
      <trkpt lat="48.61821" lon="1.57836">
        <ele>104</ele>
        <time>2022-05-22T04:35:11Z</time>
      </trkpt>
      <trkpt lat="48.61814" lon="1.57921">
        <ele>103</ele>
        <time>2022-05-22T04:35:21Z</time>
      </trkpt>
      <trkpt lat="48.61791" lon="1.58112">
        <ele>103</ele>
        <time>2022-05-22T04:35:44Z</time>
      </trkpt>
      <trkpt lat="48.61787" lon="1.58174">
        <ele>104</ele>
        <time>2022-05-22T04:35:51Z</time>
      </trkpt>
      <trkpt lat="48.61786" lon="1.58277">
        <ele>104</ele>
        <time>2022-05-22T04:36:03Z</time>
      </trkpt>
      <trkpt lat="48.61781" lon="1.58336">
        <ele>104</ele>
        <time>2022-05-22T04:36:10Z</time>
      </trkpt>
      <trkpt lat="48.61741" lon="1.58493">
        <ele>101</ele>
        <time>2022-05-22T04:36:30Z</time>
      </trkpt>
      <trkpt lat="48.6171" lon="1.58587">
        <ele>103</ele>
        <time>2022-05-22T04:36:43Z</time>
      </trkpt>
      <trkpt lat="48.61674" lon="1.5867">
        <ele>103</ele>
        <time>2022-05-22T04:36:54Z</time>
      </trkpt>
      <trkpt lat="48.61624" lon="1.58748">
        <ele>104</ele>
        <time>2022-05-22T04:37:07Z</time>
      </trkpt>
      <trkpt lat="48.61618" lon="1.58762">
        <ele>104</ele>
        <time>2022-05-22T04:37:09Z</time>
      </trkpt>
      <trkpt lat="48.61592" lon="1.58795">
        <ele>105</ele>
        <time>2022-05-22T04:37:15Z</time>
      </trkpt>
      <trkpt lat="48.61581" lon="1.58804">
        <ele>105</ele>
        <time>2022-05-22T04:37:17Z</time>
      </trkpt>
      <trkpt lat="48.61576" lon="1.58819">
        <ele>105</ele>
        <time>2022-05-22T04:37:19Z</time>
      </trkpt>
      <trkpt lat="48.61547" lon="1.58834">
        <ele>106</ele>
        <time>2022-05-22T04:37:25Z</time>
      </trkpt>
      <trkpt lat="48.61534" lon="1.58853">
        <ele>105</ele>
        <time>2022-05-22T04:37:28Z</time>
      </trkpt>
      <trkpt lat="48.61516" lon="1.5887">
        <ele>105</ele>
        <time>2022-05-22T04:37:32Z</time>
      </trkpt>
      <trkpt lat="48.61507" lon="1.58886">
        <ele>104</ele>
        <time>2022-05-22T04:37:34Z</time>
      </trkpt>
      <trkpt lat="48.61489" lon="1.58908">
        <ele>104</ele>
        <time>2022-05-22T04:37:38Z</time>
      </trkpt>
      <trkpt lat="48.6146" lon="1.5897">
        <ele>107</ele>
        <time>2022-05-22T04:37:47Z</time>
      </trkpt>
      <trkpt lat="48.61445" lon="1.59008">
        <ele>107</ele>
        <time>2022-05-22T04:37:52Z</time>
      </trkpt>
      <trkpt lat="48.61446" lon="1.5904">
        <ele>107</ele>
        <time>2022-05-22T04:37:56Z</time>
      </trkpt>
      <trkpt lat="48.61435" lon="1.59047">
        <ele>107</ele>
        <time>2022-05-22T04:37:58Z</time>
      </trkpt>
      <trkpt lat="48.61428" lon="1.59058">
        <ele>108</ele>
        <time>2022-05-22T04:38:00Z</time>
      </trkpt>
      <trkpt lat="48.61416" lon="1.59063">
        <ele>108</ele>
        <time>2022-05-22T04:38:02Z</time>
      </trkpt>
      <trkpt lat="48.61407" lon="1.59072">
        <ele>108</ele>
        <time>2022-05-22T04:38:04Z</time>
      </trkpt>
      <trkpt lat="48.6141" lon="1.59085">
        <ele>108</ele>
        <time>2022-05-22T04:38:06Z</time>
      </trkpt>
      <trkpt lat="48.61409" lon="1.59103">
        <ele>108</ele>
        <time>2022-05-22T04:38:08Z</time>
      </trkpt>
      <trkpt lat="48.61405" lon="1.59116">
        <ele>108</ele>
        <time>2022-05-22T04:38:10Z</time>
      </trkpt>
      <trkpt lat="48.61395" lon="1.59114">
        <ele>109</ele>
        <time>2022-05-22T04:38:11Z</time>
      </trkpt>
      <trkpt lat="48.6141" lon="1.59137">
        <ele>107</ele>
        <time>2022-05-22T04:38:15Z</time>
      </trkpt>
      <trkpt lat="48.61419" lon="1.59142">
        <ele>106</ele>
        <time>2022-05-22T04:38:17Z</time>
      </trkpt>
      <trkpt lat="48.6143" lon="1.59165">
        <ele>106</ele>
        <time>2022-05-22T04:38:20Z</time>
      </trkpt>
      <trkpt lat="48.61443" lon="1.59238">
        <ele>107</ele>
        <time>2022-05-22T04:38:29Z</time>
      </trkpt>
      <trkpt lat="48.61446" lon="1.59283">
        <ele>106</ele>
        <time>2022-05-22T04:38:35Z</time>
      </trkpt>
      <trkpt lat="48.61455" lon="1.59348">
        <ele>105</ele>
        <time>2022-05-22T04:38:42Z</time>
      </trkpt>
      <trkpt lat="48.61462" lon="1.59451">
        <ele>104</ele>
        <time>2022-05-22T04:38:55Z</time>
      </trkpt>
      <trkpt lat="48.61454" lon="1.59569">
        <ele>105</ele>
        <time>2022-05-22T04:39:08Z</time>
      </trkpt>
      <trkpt lat="48.61442" lon="1.5964">
        <ele>105</ele>
        <time>2022-05-22T04:39:17Z</time>
      </trkpt>
      <trkpt lat="48.6141" lon="1.59768">
        <ele>108</ele>
        <time>2022-05-22T04:39:33Z</time>
      </trkpt>
      <trkpt lat="48.61388" lon="1.59832">
        <ele>109</ele>
        <time>2022-05-22T04:39:42Z</time>
      </trkpt>
      <trkpt lat="48.61369" lon="1.59876">
        <ele>111</ele>
        <time>2022-05-22T04:39:48Z</time>
      </trkpt>
      <trkpt lat="48.61351" lon="1.5993">
        <ele>111</ele>
        <time>2022-05-22T04:39:55Z</time>
      </trkpt>
      <trkpt lat="48.61334" lon="1.59994">
        <ele>111</ele>
        <time>2022-05-22T04:40:03Z</time>
      </trkpt>
      <trkpt lat="48.61311" lon="1.6011">
        <ele>111</ele>
        <time>2022-05-22T04:40:17Z</time>
      </trkpt>
      <trkpt lat="48.61279" lon="1.60299">
        <ele>112</ele>
        <time>2022-05-22T04:40:40Z</time>
      </trkpt>
      <trkpt lat="48.61257" lon="1.60411">
        <ele>112</ele>
        <time>2022-05-22T04:40:54Z</time>
      </trkpt>
      <trkpt lat="48.61248" lon="1.60473">
        <ele>112</ele>
        <time>2022-05-22T04:41:01Z</time>
      </trkpt>
      <trkpt lat="48.61226" lon="1.60732">
        <ele>111</ele>
        <time>2022-05-22T04:41:32Z</time>
      </trkpt>
      <trkpt lat="48.6122" lon="1.60845">
        <ele>112</ele>
        <time>2022-05-22T04:41:46Z</time>
      </trkpt>
      <trkpt lat="48.61208" lon="1.60887">
        <ele>112</ele>
        <time>2022-05-22T04:41:51Z</time>
      </trkpt>
      <trkpt lat="48.6121" lon="1.60903">
        <ele>112</ele>
        <time>2022-05-22T04:41:53Z</time>
      </trkpt>
      <trkpt lat="48.6126" lon="1.6093">
        <ele>110</ele>
        <time>2022-05-22T04:42:02Z</time>
      </trkpt>
      <trkpt lat="48.61327" lon="1.60961">
        <ele>106</ele>
        <time>2022-05-22T04:42:15Z</time>
      </trkpt>
      <trkpt lat="48.61385" lon="1.60979">
        <ele>106</ele>
        <time>2022-05-22T04:42:25Z</time>
      </trkpt>
      <trkpt lat="48.61396" lon="1.60986">
        <ele>107</ele>
        <time>2022-05-22T04:42:27Z</time>
      </trkpt>
      <trkpt lat="48.61406" lon="1.60998">
        <ele>107</ele>
        <time>2022-05-22T04:42:30Z</time>
      </trkpt>
      <trkpt lat="48.61414" lon="1.61013">
        <ele>107</ele>
        <time>2022-05-22T04:42:32Z</time>
      </trkpt>
      <trkpt lat="48.61434" lon="1.61064">
        <ele>110</ele>
        <time>2022-05-22T04:42:39Z</time>
      </trkpt>
      <trkpt lat="48.61437" lon="1.61078">
        <ele>111</ele>
        <time>2022-05-22T04:42:41Z</time>
      </trkpt>
      <trkpt lat="48.61437" lon="1.61171">
        <ele>112</ele>
        <time>2022-05-22T04:42:52Z</time>
      </trkpt>
      <trkpt lat="48.61465" lon="1.61319">
        <ele>113</ele>
        <time>2022-05-22T04:43:10Z</time>
      </trkpt>
      <trkpt lat="48.61486" lon="1.61384">
        <ele>112</ele>
        <time>2022-05-22T04:43:18Z</time>
      </trkpt>
      <trkpt lat="48.61532" lon="1.61494">
        <ele>109</ele>
        <time>2022-05-22T04:43:34Z</time>
      </trkpt>
      <trkpt lat="48.61539" lon="1.61508">
        <ele>109</ele>
        <time>2022-05-22T04:43:36Z</time>
      </trkpt>
      <trkpt lat="48.61548" lon="1.61518">
        <ele>109</ele>
        <time>2022-05-22T04:43:38Z</time>
      </trkpt>
      <trkpt lat="48.61569" lon="1.61526">
        <ele>110</ele>
        <time>2022-05-22T04:43:41Z</time>
      </trkpt>
      <trkpt lat="48.6159" lon="1.61538">
        <ele>111</ele>
        <time>2022-05-22T04:43:45Z</time>
      </trkpt>
      <trkpt lat="48.61682" lon="1.61624">
        <ele>111</ele>
        <time>2022-05-22T04:44:05Z</time>
      </trkpt>
      <trkpt lat="48.61727" lon="1.61686">
        <ele>109</ele>
        <time>2022-05-22T04:44:16Z</time>
      </trkpt>
      <trkpt lat="48.61763" lon="1.61757">
        <ele>109</ele>
        <time>2022-05-22T04:44:26Z</time>
      </trkpt>
      <trkpt lat="48.61774" lon="1.61799">
        <ele>109</ele>
        <time>2022-05-22T04:44:31Z</time>
      </trkpt>
      <trkpt lat="48.61776" lon="1.61828">
        <ele>108</ele>
        <time>2022-05-22T04:44:35Z</time>
      </trkpt>
      <trkpt lat="48.61777" lon="1.61939">
        <ele>108</ele>
        <time>2022-05-22T04:44:48Z</time>
      </trkpt>
      <trkpt lat="48.61769" lon="1.61945">
        <ele>108</ele>
        <time>2022-05-22T04:44:49Z</time>
      </trkpt>
      <trkpt lat="48.61777" lon="1.61951">
        <ele>108</ele>
        <time>2022-05-22T04:44:51Z</time>
      </trkpt>
      <trkpt lat="48.61784" lon="1.62014">
        <ele>109</ele>
        <time>2022-05-22T04:44:59Z</time>
      </trkpt>
      <trkpt lat="48.61801" lon="1.62102">
        <ele>110</ele>
        <time>2022-05-22T04:45:09Z</time>
      </trkpt>
      <trkpt lat="48.61802" lon="1.6212">
        <ele>110</ele>
        <time>2022-05-22T04:45:11Z</time>
      </trkpt>
      <trkpt lat="48.61792" lon="1.62146">
        <ele>110</ele>
        <time>2022-05-22T04:45:15Z</time>
      </trkpt>
      <trkpt lat="48.61777" lon="1.62174">
        <ele>109</ele>
        <time>2022-05-22T04:45:19Z</time>
      </trkpt>
      <trkpt lat="48.61716" lon="1.62277">
        <ele>108</ele>
        <time>2022-05-22T04:45:35Z</time>
      </trkpt>
      <trkpt lat="48.61688" lon="1.62344">
        <ele>109</ele>
        <time>2022-05-22T04:45:45Z</time>
      </trkpt>
      <trkpt lat="48.61674" lon="1.624">
        <ele>111</ele>
        <time>2022-05-22T04:45:52Z</time>
      </trkpt>
      <trkpt lat="48.61658" lon="1.62537">
        <ele>113</ele>
        <time>2022-05-22T04:46:08Z</time>
      </trkpt>
      <trkpt lat="48.6162" lon="1.6271">
        <ele>113</ele>
        <time>2022-05-22T04:46:30Z</time>
      </trkpt>
      <trkpt lat="48.61597" lon="1.62767">
        <ele>114</ele>
        <time>2022-05-22T04:46:38Z</time>
      </trkpt>
      <trkpt lat="48.61584" lon="1.62791">
        <ele>115</ele>
        <time>2022-05-22T04:46:41Z</time>
      </trkpt>
      <trkpt lat="48.61568" lon="1.62813">
        <ele>116</ele>
        <time>2022-05-22T04:46:45Z</time>
      </trkpt>
      <trkpt lat="48.6156" lon="1.6282">
        <ele>117</ele>
        <time>2022-05-22T04:46:47Z</time>
      </trkpt>
      <trkpt lat="48.61532" lon="1.62836">
        <ele>118</ele>
        <time>2022-05-22T04:46:52Z</time>
      </trkpt>
      <trkpt lat="48.61526" lon="1.62848">
        <ele>118</ele>
        <time>2022-05-22T04:46:54Z</time>
      </trkpt>
      <trkpt lat="48.61517" lon="1.62857">
        <ele>118</ele>
        <time>2022-05-22T04:46:56Z</time>
      </trkpt>
      <trkpt lat="48.61495" lon="1.62889">
        <ele>119</ele>
        <time>2022-05-22T04:47:01Z</time>
      </trkpt>
      <trkpt lat="48.61451" lon="1.62941">
        <ele>118</ele>
        <time>2022-05-22T04:47:11Z</time>
      </trkpt>
      <trkpt lat="48.614" lon="1.63009">
        <ele>119</ele>
        <time>2022-05-22T04:47:23Z</time>
      </trkpt>
      <trkpt lat="48.61366" lon="1.63064">
        <ele>118</ele>
        <time>2022-05-22T04:47:32Z</time>
      </trkpt>
      <trkpt lat="48.61273" lon="1.63251">
        <ele>118</ele>
        <time>2022-05-22T04:48:00Z</time>
      </trkpt>
      <trkpt lat="48.61225" lon="1.63339">
        <ele>118</ele>
        <time>2022-05-22T04:48:13Z</time>
      </trkpt>
      <trkpt lat="48.61192" lon="1.63382">
        <ele>117</ele>
        <time>2022-05-22T04:48:21Z</time>
      </trkpt>
      <trkpt lat="48.61153" lon="1.63416">
        <ele>116</ele>
        <time>2022-05-22T04:48:29Z</time>
      </trkpt>
      <trkpt lat="48.61112" lon="1.63436">
        <ele>116</ele>
        <time>2022-05-22T04:48:36Z</time>
      </trkpt>
      <trkpt lat="48.6109" lon="1.63444">
        <ele>116</ele>
        <time>2022-05-22T04:48:40Z</time>
      </trkpt>
      <trkpt lat="48.61058" lon="1.63461">
        <ele>116</ele>
        <time>2022-05-22T04:48:46Z</time>
      </trkpt>
      <trkpt lat="48.61026" lon="1.63482">
        <ele>117</ele>
        <time>2022-05-22T04:48:53Z</time>
      </trkpt>
      <trkpt lat="48.61001" lon="1.63502">
        <ele>117</ele>
        <time>2022-05-22T04:48:58Z</time>
      </trkpt>
      <trkpt lat="48.60963" lon="1.63525">
        <ele>117</ele>
        <time>2022-05-22T04:49:05Z</time>
      </trkpt>
      <trkpt lat="48.60924" lon="1.63559">
        <ele>118</ele>
        <time>2022-05-22T04:49:13Z</time>
      </trkpt>
      <trkpt lat="48.60888" lon="1.63621">
        <ele>119</ele>
        <time>2022-05-22T04:49:23Z</time>
      </trkpt>
      <trkpt lat="48.60878" lon="1.63645">
        <ele>119</ele>
        <time>2022-05-22T04:49:26Z</time>
      </trkpt>
      <trkpt lat="48.60841" lon="1.63708">
        <ele>119</ele>
        <time>2022-05-22T04:49:36Z</time>
      </trkpt>
      <trkpt lat="48.60808" lon="1.63751">
        <ele>118</ele>
        <time>2022-05-22T04:49:44Z</time>
      </trkpt>
      <trkpt lat="48.60757" lon="1.63836">
        <ele>116</ele>
        <time>2022-05-22T04:49:57Z</time>
      </trkpt>
      <trkpt lat="48.60733" lon="1.63911">
        <ele>115</ele>
        <time>2022-05-22T04:50:07Z</time>
      </trkpt>
      <trkpt lat="48.60721" lon="1.63944">
        <ele>115</ele>
        <time>2022-05-22T04:50:11Z</time>
      </trkpt>
      <trkpt lat="48.60714" lon="1.63956">
        <ele>115</ele>
        <time>2022-05-22T04:50:13Z</time>
      </trkpt>
      <trkpt lat="48.60638" lon="1.6404">
        <ele>116</ele>
        <time>2022-05-22T04:50:30Z</time>
      </trkpt>
      <trkpt lat="48.60623" lon="1.6406">
        <ele>117</ele>
        <time>2022-05-22T04:50:34Z</time>
      </trkpt>
      <trkpt lat="48.60613" lon="1.64058">
        <ele>116</ele>
        <time>2022-05-22T04:50:35Z</time>
      </trkpt>
      <trkpt lat="48.60594" lon="1.64029">
        <ele>114</ele>
        <time>2022-05-22T04:50:40Z</time>
      </trkpt>
      <trkpt lat="48.60575" lon="1.63987">
        <ele>112</ele>
        <time>2022-05-22T04:50:46Z</time>
      </trkpt>
      <trkpt lat="48.60559" lon="1.6392">
        <ele>110</ele>
        <time>2022-05-22T04:50:55Z</time>
      </trkpt>
      <trkpt lat="48.60536" lon="1.63851">
        <ele>109</ele>
        <time>2022-05-22T04:51:04Z</time>
      </trkpt>
      <trkpt lat="48.60526" lon="1.63833">
        <ele>108</ele>
        <time>2022-05-22T04:51:06Z</time>
      </trkpt>
      <trkpt lat="48.60488" lon="1.63778">
        <ele>109</ele>
        <time>2022-05-22T04:51:16Z</time>
      </trkpt>
      <trkpt lat="48.60467" lon="1.63761">
        <ele>109</ele>
        <time>2022-05-22T04:51:20Z</time>
      </trkpt>
      <trkpt lat="48.60446" lon="1.63749">
        <ele>109</ele>
        <time>2022-05-22T04:51:24Z</time>
      </trkpt>
      <trkpt lat="48.60363" lon="1.63716">
        <ele>111</ele>
        <time>2022-05-22T04:51:39Z</time>
      </trkpt>
      <trkpt lat="48.60353" lon="1.63721">
        <ele>112</ele>
        <time>2022-05-22T04:51:41Z</time>
      </trkpt>
      <trkpt lat="48.60342" lon="1.63731">
        <ele>112</ele>
        <time>2022-05-22T04:51:43Z</time>
      </trkpt>
      <trkpt lat="48.60302" lon="1.63774">
        <ele>112</ele>
        <time>2022-05-22T04:51:52Z</time>
      </trkpt>
      <trkpt lat="48.60293" lon="1.63788">
        <ele>113</ele>
        <time>2022-05-22T04:51:54Z</time>
      </trkpt>
      <trkpt lat="48.60277" lon="1.6383">
        <ele>112</ele>
        <time>2022-05-22T04:52:00Z</time>
      </trkpt>
      <trkpt lat="48.60252" lon="1.63885">
        <ele>113</ele>
        <time>2022-05-22T04:52:08Z</time>
      </trkpt>
      <trkpt lat="48.60214" lon="1.63942">
        <ele>114</ele>
        <time>2022-05-22T04:52:18Z</time>
      </trkpt>
      <trkpt lat="48.60192" lon="1.63989">
        <ele>114</ele>
        <time>2022-05-22T04:52:24Z</time>
      </trkpt>
      <trkpt lat="48.60158" lon="1.64074">
        <ele>115</ele>
        <time>2022-05-22T04:52:36Z</time>
      </trkpt>
      <trkpt lat="48.6014" lon="1.64113">
        <ele>115</ele>
        <time>2022-05-22T04:52:42Z</time>
      </trkpt>
      <trkpt lat="48.60113" lon="1.64193">
        <ele>114</ele>
        <time>2022-05-22T04:52:52Z</time>
      </trkpt>
      <trkpt lat="48.60083" lon="1.64255">
        <ele>113</ele>
        <time>2022-05-22T04:53:01Z</time>
      </trkpt>
      <trkpt lat="48.60066" lon="1.6428">
        <ele>113</ele>
        <time>2022-05-22T04:53:05Z</time>
      </trkpt>
      <trkpt lat="48.60058" lon="1.64284">
        <ele>113</ele>
        <time>2022-05-22T04:53:07Z</time>
      </trkpt>
      <trkpt lat="48.60047" lon="1.64285">
        <ele>113</ele>
        <time>2022-05-22T04:53:09Z</time>
      </trkpt>
      <trkpt lat="48.60047" lon="1.64303">
        <ele>113</ele>
        <time>2022-05-22T04:53:11Z</time>
      </trkpt>
      <trkpt lat="48.60046" lon="1.64289">
        <ele>113</ele>
        <time>2022-05-22T04:53:13Z</time>
      </trkpt>
      <trkpt lat="48.60034" lon="1.64302">
        <ele>114</ele>
        <time>2022-05-22T04:53:15Z</time>
      </trkpt>
      <trkpt lat="48.60029" lon="1.64315">
        <ele>113</ele>
        <time>2022-05-22T04:53:17Z</time>
      </trkpt>
      <trkpt lat="48.60002" lon="1.64361">
        <ele>113</ele>
        <time>2022-05-22T04:53:24Z</time>
      </trkpt>
      <trkpt lat="48.59988" lon="1.64377">
        <ele>113</ele>
        <time>2022-05-22T04:53:27Z</time>
      </trkpt>
      <trkpt lat="48.60008" lon="1.64339">
        <ele>114</ele>
        <time>2022-05-22T04:53:33Z</time>
      </trkpt>
      <trkpt lat="48.60023" lon="1.64318">
        <ele>114</ele>
        <time>2022-05-22T04:53:37Z</time>
      </trkpt>
      <trkpt lat="48.6003" lon="1.64304">
        <ele>114</ele>
        <time>2022-05-22T04:53:39Z</time>
      </trkpt>
      <trkpt lat="48.6004" lon="1.64293">
        <ele>114</ele>
        <time>2022-05-22T04:53:41Z</time>
      </trkpt>
      <trkpt lat="48.60047" lon="1.64278">
        <ele>114</ele>
        <time>2022-05-22T04:53:43Z</time>
      </trkpt>
      <trkpt lat="48.60035" lon="1.64302">
        <ele>113</ele>
        <time>2022-05-22T04:53:47Z</time>
      </trkpt>
      <trkpt lat="48.6002" lon="1.64321">
        <ele>114</ele>
        <time>2022-05-22T04:53:50Z</time>
      </trkpt>
      <trkpt lat="48.59992" lon="1.6437">
        <ele>113</ele>
        <time>2022-05-22T04:53:58Z</time>
      </trkpt>
      <trkpt lat="48.59983" lon="1.64381">
        <ele>113</ele>
        <time>2022-05-22T04:54:00Z</time>
      </trkpt>
      <trkpt lat="48.5994" lon="1.64452">
        <ele>113</ele>
        <time>2022-05-22T04:54:11Z</time>
      </trkpt>
      <trkpt lat="48.59874" lon="1.64547">
        <ele>114</ele>
        <time>2022-05-22T04:54:27Z</time>
      </trkpt>
      <trkpt lat="48.5983" lon="1.64628">
        <ele>116</ele>
        <time>2022-05-22T04:54:40Z</time>
      </trkpt>
      <trkpt lat="48.5982" lon="1.64637">
        <ele>117</ele>
        <time>2022-05-22T04:54:42Z</time>
      </trkpt>
      <trkpt lat="48.5981" lon="1.6464">
        <ele>118</ele>
        <time>2022-05-22T04:54:44Z</time>
      </trkpt>
      <trkpt lat="48.59787" lon="1.64633">
        <ele>119</ele>
        <time>2022-05-22T04:54:48Z</time>
      </trkpt>
      <trkpt lat="48.59769" lon="1.64635">
        <ele>120</ele>
        <time>2022-05-22T04:54:51Z</time>
      </trkpt>
      <trkpt lat="48.59759" lon="1.64639">
        <ele>120</ele>
        <time>2022-05-22T04:54:53Z</time>
      </trkpt>
      <trkpt lat="48.59744" lon="1.64656">
        <ele>121</ele>
        <time>2022-05-22T04:54:56Z</time>
      </trkpt>
      <trkpt lat="48.5973" lon="1.64695">
        <ele>121</ele>
        <time>2022-05-22T04:55:01Z</time>
      </trkpt>
      <trkpt lat="48.59726" lon="1.64726">
        <ele>120</ele>
        <time>2022-05-22T04:55:05Z</time>
      </trkpt>
      <trkpt lat="48.5973" lon="1.64741">
        <ele>120</ele>
        <time>2022-05-22T04:55:07Z</time>
      </trkpt>
      <trkpt lat="48.59752" lon="1.6478">
        <ele>119</ele>
        <time>2022-05-22T04:55:13Z</time>
      </trkpt>
      <trkpt lat="48.59755" lon="1.64797">
        <ele>119</ele>
        <time>2022-05-22T04:55:15Z</time>
      </trkpt>
      <trkpt lat="48.59749" lon="1.64831">
        <ele>120</ele>
        <time>2022-05-22T04:55:19Z</time>
      </trkpt>
      <trkpt lat="48.59654" lon="1.65141">
        <ele>118</ele>
        <time>2022-05-22T04:55:59Z</time>
      </trkpt>
      <trkpt lat="48.59647" lon="1.65157">
        <ele>118</ele>
        <time>2022-05-22T04:56:02Z</time>
      </trkpt>
      <trkpt lat="48.59629" lon="1.65185">
        <ele>118</ele>
        <time>2022-05-22T04:56:06Z</time>
      </trkpt>
      <trkpt lat="48.59609" lon="1.65207">
        <ele>118</ele>
        <time>2022-05-22T04:56:11Z</time>
      </trkpt>
      <trkpt lat="48.59594" lon="1.65235">
        <ele>118</ele>
        <time>2022-05-22T04:56:15Z</time>
      </trkpt>
      <trkpt lat="48.59585" lon="1.65269">
        <ele>118</ele>
        <time>2022-05-22T04:56:19Z</time>
      </trkpt>
      <trkpt lat="48.59577" lon="1.65339">
        <ele>119</ele>
        <time>2022-05-22T04:56:28Z</time>
      </trkpt>
      <trkpt lat="48.59568" lon="1.65391">
        <ele>121</ele>
        <time>2022-05-22T04:56:34Z</time>
      </trkpt>
      <trkpt lat="48.59536" lon="1.65484">
        <ele>123</ele>
        <time>2022-05-22T04:56:46Z</time>
      </trkpt>
      <trkpt lat="48.59526" lon="1.6553">
        <ele>122</ele>
        <time>2022-05-22T04:56:52Z</time>
      </trkpt>
      <trkpt lat="48.59507" lon="1.6559">
        <ele>122</ele>
        <time>2022-05-22T04:57:00Z</time>
      </trkpt>
      <trkpt lat="48.59505" lon="1.65636">
        <ele>119</ele>
        <time>2022-05-22T04:57:05Z</time>
      </trkpt>
      <trkpt lat="48.59522" lon="1.65726">
        <ele>118</ele>
        <time>2022-05-22T04:57:16Z</time>
      </trkpt>
      <trkpt lat="48.59528" lon="1.65777">
        <ele>117</ele>
        <time>2022-05-22T04:57:22Z</time>
      </trkpt>
      <trkpt lat="48.59544" lon="1.65872">
        <ele>115</ele>
        <time>2022-05-22T04:57:34Z</time>
      </trkpt>
      <trkpt lat="48.59545" lon="1.65891">
        <ele>116</ele>
        <time>2022-05-22T04:57:36Z</time>
      </trkpt>
      <trkpt lat="48.59544" lon="1.65928">
        <ele>116</ele>
        <time>2022-05-22T04:57:41Z</time>
      </trkpt>
      <trkpt lat="48.59531" lon="1.6604">
        <ele>115</ele>
        <time>2022-05-22T04:57:54Z</time>
      </trkpt>
      <trkpt lat="48.59507" lon="1.66189">
        <ele>115</ele>
        <time>2022-05-22T04:58:12Z</time>
      </trkpt>
      <trkpt lat="48.59497" lon="1.66218">
        <ele>116</ele>
        <time>2022-05-22T04:58:16Z</time>
      </trkpt>
      <trkpt lat="48.59494" lon="1.66237">
        <ele>115</ele>
        <time>2022-05-22T04:58:18Z</time>
      </trkpt>
      <trkpt lat="48.59493" lon="1.66251">
        <ele>115</ele>
        <time>2022-05-22T04:58:20Z</time>
      </trkpt>
      <trkpt lat="48.59499" lon="1.6631">
        <ele>116</ele>
        <time>2022-05-22T04:58:27Z</time>
      </trkpt>
      <trkpt lat="48.59509" lon="1.66351">
        <ele>116</ele>
        <time>2022-05-22T04:58:32Z</time>
      </trkpt>
      <trkpt lat="48.59519" lon="1.66378">
        <ele>116</ele>
        <time>2022-05-22T04:58:36Z</time>
      </trkpt>
      <trkpt lat="48.5953" lon="1.66419">
        <ele>116</ele>
        <time>2022-05-22T04:58:41Z</time>
      </trkpt>
      <trkpt lat="48.59548" lon="1.66505">
        <ele>116</ele>
        <time>2022-05-22T04:58:51Z</time>
      </trkpt>
      <trkpt lat="48.59566" lon="1.66549">
        <ele>116</ele>
        <time>2022-05-22T04:58:57Z</time>
      </trkpt>
      <trkpt lat="48.59596" lon="1.66611">
        <ele>115</ele>
        <time>2022-05-22T04:59:07Z</time>
      </trkpt>
      <trkpt lat="48.59604" lon="1.66643">
        <ele>115</ele>
        <time>2022-05-22T04:59:11Z</time>
      </trkpt>
      <trkpt lat="48.59633" lon="1.66714">
        <ele>115</ele>
        <time>2022-05-22T04:59:20Z</time>
      </trkpt>
      <trkpt lat="48.59665" lon="1.66812">
        <ele>114</ele>
        <time>2022-05-22T04:59:33Z</time>
      </trkpt>
      <trkpt lat="48.59673" lon="1.66828">
        <ele>114</ele>
        <time>2022-05-22T04:59:36Z</time>
      </trkpt>
      <trkpt lat="48.597" lon="1.66907">
        <ele>115</ele>
        <time>2022-05-22T04:59:46Z</time>
      </trkpt>
      <trkpt lat="48.59709" lon="1.66993">
        <ele>116</ele>
        <time>2022-05-22T04:59:56Z</time>
      </trkpt>
      <trkpt lat="48.59714" lon="1.67006">
        <ele>116</ele>
        <time>2022-05-22T04:59:58Z</time>
      </trkpt>
      <trkpt lat="48.59733" lon="1.67045">
        <ele>117</ele>
        <time>2022-05-22T05:00:04Z</time>
      </trkpt>
      <trkpt lat="48.59791" lon="1.67131">
        <ele>118</ele>
        <time>2022-05-22T05:00:18Z</time>
      </trkpt>
      <trkpt lat="48.5996" lon="1.67365">
        <ele>121</ele>
        <time>2022-05-22T05:00:59Z</time>
      </trkpt>
      <trkpt lat="48.60021" lon="1.67459">
        <ele>122</ele>
        <time>2022-05-22T05:01:14Z</time>
      </trkpt>
      <trkpt lat="48.6006" lon="1.67513">
        <ele>122</ele>
        <time>2022-05-22T05:01:24Z</time>
      </trkpt>
      <trkpt lat="48.60068" lon="1.67538">
        <ele>122</ele>
        <time>2022-05-22T05:01:27Z</time>
      </trkpt>
      <trkpt lat="48.60015" lon="1.67587">
        <ele>128</ele>
        <time>2022-05-22T05:01:38Z</time>
      </trkpt>
      <trkpt lat="48.60006" lon="1.67598">
        <ele>129</ele>
        <time>2022-05-22T05:01:40Z</time>
      </trkpt>
      <trkpt lat="48.60003" lon="1.67612">
        <ele>130</ele>
        <time>2022-05-22T05:01:42Z</time>
      </trkpt>
      <trkpt lat="48.60022" lon="1.67624">
        <ele>129</ele>
        <time>2022-05-22T05:01:46Z</time>
      </trkpt>
      <trkpt lat="48.60141" lon="1.67735">
        <ele>127</ele>
        <time>2022-05-22T05:02:11Z</time>
      </trkpt>
      <trkpt lat="48.60197" lon="1.67798">
        <ele>124</ele>
        <time>2022-05-22T05:02:23Z</time>
      </trkpt>
      <trkpt lat="48.60432" lon="1.68142">
        <ele>125</ele>
        <time>2022-05-22T05:03:21Z</time>
      </trkpt>
      <trkpt lat="48.60448" lon="1.68159">
        <ele>125</ele>
        <time>2022-05-22T05:03:25Z</time>
      </trkpt>
      <trkpt lat="48.60506" lon="1.68198">
        <ele>124</ele>
        <time>2022-05-22T05:03:36Z</time>
      </trkpt>
      <trkpt lat="48.60529" lon="1.68219">
        <ele>123</ele>
        <time>2022-05-22T05:03:41Z</time>
      </trkpt>
      <trkpt lat="48.60581" lon="1.68259">
        <ele>122</ele>
        <time>2022-05-22T05:03:51Z</time>
      </trkpt>
      <trkpt lat="48.60624" lon="1.68298">
        <ele>121</ele>
        <time>2022-05-22T05:04:00Z</time>
      </trkpt>
      <trkpt lat="48.60641" lon="1.68318">
        <ele>120</ele>
        <time>2022-05-22T05:04:04Z</time>
      </trkpt>
      <trkpt lat="48.60649" lon="1.68328">
        <ele>119</ele>
        <time>2022-05-22T05:04:06Z</time>
      </trkpt>
      <trkpt lat="48.60665" lon="1.68366">
        <ele>119</ele>
        <time>2022-05-22T05:04:11Z</time>
      </trkpt>
      <trkpt lat="48.60674" lon="1.68394">
        <ele>119</ele>
        <time>2022-05-22T05:04:15Z</time>
      </trkpt>
      <trkpt lat="48.60675" lon="1.6841">
        <ele>119</ele>
        <time>2022-05-22T05:04:17Z</time>
      </trkpt>
      <trkpt lat="48.60671" lon="1.68444">
        <ele>119</ele>
        <time>2022-05-22T05:04:21Z</time>
      </trkpt>
      <trkpt lat="48.60652" lon="1.6847">
        <ele>121</ele>
        <time>2022-05-22T05:04:25Z</time>
      </trkpt>
      <trkpt lat="48.60641" lon="1.68498">
        <ele>124</ele>
        <time>2022-05-22T05:04:29Z</time>
      </trkpt>
      <trkpt lat="48.60621" lon="1.68565">
        <ele>125</ele>
        <time>2022-05-22T05:04:38Z</time>
      </trkpt>
      <trkpt lat="48.60584" lon="1.6867">
        <ele>126</ele>
        <time>2022-05-22T05:04:52Z</time>
      </trkpt>
      <trkpt lat="48.60557" lon="1.68733">
        <ele>130</ele>
        <time>2022-05-22T05:05:00Z</time>
      </trkpt>
      <trkpt lat="48.60506" lon="1.68873">
        <ele>130</ele>
        <time>2022-05-22T05:05:19Z</time>
      </trkpt>
      <trkpt lat="48.60487" lon="1.68919">
        <ele>130</ele>
        <time>2022-05-22T05:05:26Z</time>
      </trkpt>
      <trkpt lat="48.60476" lon="1.68957">
        <ele>130</ele>
        <time>2022-05-22T05:05:31Z</time>
      </trkpt>
      <trkpt lat="48.60468" lon="1.68973">
        <ele>130</ele>
        <time>2022-05-22T05:05:33Z</time>
      </trkpt>
      <trkpt lat="48.6046" lon="1.68998">
        <ele>130</ele>
        <time>2022-05-22T05:05:36Z</time>
      </trkpt>
      <trkpt lat="48.60447" lon="1.69064">
        <ele>128</ele>
        <time>2022-05-22T05:05:44Z</time>
      </trkpt>
      <trkpt lat="48.60435" lon="1.6911">
        <ele>128</ele>
        <time>2022-05-22T05:05:50Z</time>
      </trkpt>
      <trkpt lat="48.60385" lon="1.69248">
        <ele>133</ele>
        <time>2022-05-22T05:06:09Z</time>
      </trkpt>
      <trkpt lat="48.6035" lon="1.69336">
        <ele>129</ele>
        <time>2022-05-22T05:06:21Z</time>
      </trkpt>
      <trkpt lat="48.60337" lon="1.69361">
        <ele>129</ele>
        <time>2022-05-22T05:06:24Z</time>
      </trkpt>
      <trkpt lat="48.60267" lon="1.69526">
        <ele>133</ele>
        <time>2022-05-22T05:06:47Z</time>
      </trkpt>
      <trkpt lat="48.60248" lon="1.69595">
        <ele>131</ele>
        <time>2022-05-22T05:06:56Z</time>
      </trkpt>
      <trkpt lat="48.60227" lon="1.69686">
        <ele>133</ele>
        <time>2022-05-22T05:07:08Z</time>
      </trkpt>
      <trkpt lat="48.60226" lon="1.69736">
        <ele>132</ele>
        <time>2022-05-22T05:07:14Z</time>
      </trkpt>
      <trkpt lat="48.60228" lon="1.69785">
        <ele>130</ele>
        <time>2022-05-22T05:07:19Z</time>
      </trkpt>
      <trkpt lat="48.60198" lon="1.69879">
        <ele>129</ele>
        <time>2022-05-22T05:07:32Z</time>
      </trkpt>
      <trkpt lat="48.60089" lon="1.70151">
        <ele>124</ele>
        <time>2022-05-22T05:08:09Z</time>
      </trkpt>
      <trkpt lat="48.6006" lon="1.70212">
        <ele>124</ele>
        <time>2022-05-22T05:08:18Z</time>
      </trkpt>
      <trkpt lat="48.60052" lon="1.70222">
        <ele>124</ele>
        <time>2022-05-22T05:08:20Z</time>
      </trkpt>
      <trkpt lat="48.60042" lon="1.70225">
        <ele>125</ele>
        <time>2022-05-22T05:08:21Z</time>
      </trkpt>
      <trkpt lat="48.59993" lon="1.70285">
        <ele>127</ele>
        <time>2022-05-22T05:08:33Z</time>
      </trkpt>
      <trkpt lat="48.59983" lon="1.70294">
        <ele>128</ele>
        <time>2022-05-22T05:08:35Z</time>
      </trkpt>
      <trkpt lat="48.5995" lon="1.70308">
        <ele>131</ele>
        <time>2022-05-22T05:08:41Z</time>
      </trkpt>
      <trkpt lat="48.59938" lon="1.70315">
        <ele>131</ele>
        <time>2022-05-22T05:08:43Z</time>
      </trkpt>
      <trkpt lat="48.59927" lon="1.70325">
        <ele>131</ele>
        <time>2022-05-22T05:08:45Z</time>
      </trkpt>
      <trkpt lat="48.59919" lon="1.70333">
        <ele>131</ele>
        <time>2022-05-22T05:08:47Z</time>
      </trkpt>
      <trkpt lat="48.59909" lon="1.70358">
        <ele>131</ele>
        <time>2022-05-22T05:08:51Z</time>
      </trkpt>
      <trkpt lat="48.59839" lon="1.70617">
        <ele>138</ele>
        <time>2022-05-22T05:09:24Z</time>
      </trkpt>
      <trkpt lat="48.59839" lon="1.70632">
        <ele>138</ele>
        <time>2022-05-22T05:09:25Z</time>
      </trkpt>
      <trkpt lat="48.59851" lon="1.70728">
        <ele>135</ele>
        <time>2022-05-22T05:09:37Z</time>
      </trkpt>
      <trkpt lat="48.59852" lon="1.70761">
        <ele>135</ele>
        <time>2022-05-22T05:09:41Z</time>
      </trkpt>
      <trkpt lat="48.59841" lon="1.70924">
        <ele>136</ele>
        <time>2022-05-22T05:10:00Z</time>
      </trkpt>
      <trkpt lat="48.59826" lon="1.70983">
        <ele>134</ele>
        <time>2022-05-22T05:10:07Z</time>
      </trkpt>
      <trkpt lat="48.59795" lon="1.7104">
        <ele>135</ele>
        <time>2022-05-22T05:10:16Z</time>
      </trkpt>
      <trkpt lat="48.59754" lon="1.71103">
        <ele>134</ele>
        <time>2022-05-22T05:10:26Z</time>
      </trkpt>
      <trkpt lat="48.59715" lon="1.71147">
        <ele>132</ele>
        <time>2022-05-22T05:10:35Z</time>
      </trkpt>
      <trkpt lat="48.59662" lon="1.71218">
        <ele>127</ele>
        <time>2022-05-22T05:10:48Z</time>
      </trkpt>
      <trkpt lat="48.59651" lon="1.7123">
        <ele>126</ele>
        <time>2022-05-22T05:10:50Z</time>
      </trkpt>
      <trkpt lat="48.59596" lon="1.71276">
        <ele>124</ele>
        <time>2022-05-22T05:11:01Z</time>
      </trkpt>
      <trkpt lat="48.59578" lon="1.71298">
        <ele>124</ele>
        <time>2022-05-22T05:11:05Z</time>
      </trkpt>
      <trkpt lat="48.5957" lon="1.71312">
        <ele>123</ele>
        <time>2022-05-22T05:11:08Z</time>
      </trkpt>
      <trkpt lat="48.59558" lon="1.71339">
        <ele>123</ele>
        <time>2022-05-22T05:11:11Z</time>
      </trkpt>
      <trkpt lat="48.59545" lon="1.71384">
        <ele>124</ele>
        <time>2022-05-22T05:11:17Z</time>
      </trkpt>
      <trkpt lat="48.59519" lon="1.71497">
        <ele>124</ele>
        <time>2022-05-22T05:11:31Z</time>
      </trkpt>
      <trkpt lat="48.59496" lon="1.71584">
        <ele>125</ele>
        <time>2022-05-22T05:11:42Z</time>
      </trkpt>
      <trkpt lat="48.59491" lon="1.71621">
        <ele>128</ele>
        <time>2022-05-22T05:11:47Z</time>
      </trkpt>
      <trkpt lat="48.59492" lon="1.71669">
        <ele>131</ele>
        <time>2022-05-22T05:11:52Z</time>
      </trkpt>
      <trkpt lat="48.59487" lon="1.71696">
        <ele>132</ele>
        <time>2022-05-22T05:11:56Z</time>
      </trkpt>
      <trkpt lat="48.59477" lon="1.71724">
        <ele>134</ele>
        <time>2022-05-22T05:11:59Z</time>
      </trkpt>
      <trkpt lat="48.59469" lon="1.71733">
        <ele>135</ele>
        <time>2022-05-22T05:12:01Z</time>
      </trkpt>
      <trkpt lat="48.59444" lon="1.71778">
        <ele>136</ele>
        <time>2022-05-22T05:12:08Z</time>
      </trkpt>
      <trkpt lat="48.5942" lon="1.71831">
        <ele>138</ele>
        <time>2022-05-22T05:12:16Z</time>
      </trkpt>
      <trkpt lat="48.59402" lon="1.71933">
        <ele>136</ele>
        <time>2022-05-22T05:12:28Z</time>
      </trkpt>
      <trkpt lat="48.59393" lon="1.71962">
        <ele>136</ele>
        <time>2022-05-22T05:12:32Z</time>
      </trkpt>
      <trkpt lat="48.59382" lon="1.71985">
        <ele>137</ele>
        <time>2022-05-22T05:12:35Z</time>
      </trkpt>
      <trkpt lat="48.59374" lon="1.71995">
        <ele>137</ele>
        <time>2022-05-22T05:12:37Z</time>
      </trkpt>
      <trkpt lat="48.59356" lon="1.72012">
        <ele>139</ele>
        <time>2022-05-22T05:12:41Z</time>
      </trkpt>
      <trkpt lat="48.59348" lon="1.72023">
        <ele>140</ele>
        <time>2022-05-22T05:12:43Z</time>
      </trkpt>
      <trkpt lat="48.5933" lon="1.72036">
        <ele>142</ele>
        <time>2022-05-22T05:12:46Z</time>
      </trkpt>
      <trkpt lat="48.593" lon="1.72069">
        <ele>144</ele>
        <time>2022-05-22T05:12:53Z</time>
      </trkpt>
      <trkpt lat="48.59287" lon="1.72091">
        <ele>145</ele>
        <time>2022-05-22T05:12:56Z</time>
      </trkpt>
      <trkpt lat="48.59274" lon="1.72133">
        <ele>145</ele>
        <time>2022-05-22T05:13:02Z</time>
      </trkpt>
      <trkpt lat="48.59258" lon="1.7221">
        <ele>146</ele>
        <time>2022-05-22T05:13:11Z</time>
      </trkpt>
      <trkpt lat="48.5925" lon="1.72275">
        <ele>147</ele>
        <time>2022-05-22T05:13:19Z</time>
      </trkpt>
      <trkpt lat="48.59231" lon="1.72344">
        <ele>146</ele>
        <time>2022-05-22T05:13:28Z</time>
      </trkpt>
      <trkpt lat="48.59196" lon="1.72433">
        <ele>144</ele>
        <time>2022-05-22T05:13:40Z</time>
      </trkpt>
      <trkpt lat="48.59179" lon="1.72521">
        <ele>143</ele>
        <time>2022-05-22T05:13:51Z</time>
      </trkpt>
      <trkpt lat="48.5917" lon="1.72552">
        <ele>143</ele>
        <time>2022-05-22T05:13:55Z</time>
      </trkpt>
      <trkpt lat="48.59137" lon="1.72635">
        <ele>143</ele>
        <time>2022-05-22T05:14:06Z</time>
      </trkpt>
      <trkpt lat="48.5909" lon="1.72788">
        <ele>144</ele>
        <time>2022-05-22T05:14:26Z</time>
      </trkpt>
      <trkpt lat="48.59028" lon="1.72931">
        <ele>144</ele>
        <time>2022-05-22T05:14:46Z</time>
      </trkpt>
      <trkpt lat="48.59026" lon="1.72944">
        <ele>143</ele>
        <time>2022-05-22T05:14:48Z</time>
      </trkpt>
      <trkpt lat="48.59049" lon="1.72985">
        <ele>141</ele>
        <time>2022-05-22T05:14:54Z</time>
      </trkpt>
      <trkpt lat="48.59054" lon="1.73007">
        <ele>140</ele>
        <time>2022-05-22T05:14:57Z</time>
      </trkpt>
      <trkpt lat="48.59053" lon="1.73029">
        <ele>139</ele>
        <time>2022-05-22T05:15:00Z</time>
      </trkpt>
      <trkpt lat="48.59048" lon="1.73046">
        <ele>138</ele>
        <time>2022-05-22T05:15:02Z</time>
      </trkpt>
      <trkpt lat="48.59035" lon="1.73068">
        <ele>138</ele>
        <time>2022-05-22T05:15:05Z</time>
      </trkpt>
      <trkpt lat="48.59026" lon="1.73065">
        <ele>139</ele>
        <time>2022-05-22T05:15:07Z</time>
      </trkpt>
      <trkpt lat="48.59049" lon="1.73069">
        <ele>138</ele>
        <time>2022-05-22T05:15:11Z</time>
      </trkpt>
      <trkpt lat="48.5907" lon="1.73082">
        <ele>136</ele>
        <time>2022-05-22T05:15:15Z</time>
      </trkpt>
      <trkpt lat="48.59089" lon="1.73102">
        <ele>134</ele>
        <time>2022-05-22T05:15:19Z</time>
      </trkpt>
      <trkpt lat="48.59102" lon="1.73107">
        <ele>134</ele>
        <time>2022-05-22T05:15:21Z</time>
      </trkpt>
      <trkpt lat="48.59177" lon="1.73111">
        <ele>133</ele>
        <time>2022-05-22T05:15:35Z</time>
      </trkpt>
      <trkpt lat="48.59206" lon="1.73106">
        <ele>136</ele>
        <time>2022-05-22T05:15:40Z</time>
      </trkpt>
      <trkpt lat="48.59219" lon="1.731">
        <ele>137</ele>
        <time>2022-05-22T05:15:42Z</time>
      </trkpt>
      <trkpt lat="48.59237" lon="1.73082">
        <ele>139</ele>
        <time>2022-05-22T05:15:46Z</time>
      </trkpt>
      <trkpt lat="48.59254" lon="1.7304">
        <ele>138</ele>
        <time>2022-05-22T05:15:52Z</time>
      </trkpt>
      <trkpt lat="48.59276" lon="1.72954">
        <ele>140</ele>
        <time>2022-05-22T05:16:03Z</time>
      </trkpt>
      <trkpt lat="48.5928" lon="1.72924">
        <ele>140</ele>
        <time>2022-05-22T05:16:07Z</time>
      </trkpt>
      <trkpt lat="48.59295" lon="1.72885">
        <ele>141</ele>
        <time>2022-05-22T05:16:12Z</time>
      </trkpt>
      <trkpt lat="48.5934" lon="1.72827">
        <ele>144</ele>
        <time>2022-05-22T05:16:22Z</time>
      </trkpt>
      <trkpt lat="48.59357" lon="1.72789">
        <ele>145</ele>
        <time>2022-05-22T05:16:28Z</time>
      </trkpt>
      <trkpt lat="48.59363" lon="1.72762">
        <ele>144</ele>
        <time>2022-05-22T05:16:31Z</time>
      </trkpt>
      <trkpt lat="48.59371" lon="1.7275">
        <ele>145</ele>
        <time>2022-05-22T05:16:33Z</time>
      </trkpt>
      <trkpt lat="48.59388" lon="1.72735">
        <ele>146</ele>
        <time>2022-05-22T05:16:37Z</time>
      </trkpt>
      <trkpt lat="48.59397" lon="1.72731">
        <ele>147</ele>
        <time>2022-05-22T05:16:38Z</time>
      </trkpt>
      <trkpt lat="48.59406" lon="1.7274">
        <ele>149</ele>
        <time>2022-05-22T05:16:40Z</time>
      </trkpt>
      <trkpt lat="48.59419" lon="1.72764">
        <ele>152</ele>
        <time>2022-05-22T05:16:44Z</time>
      </trkpt>
      <trkpt lat="48.59422" lon="1.72779">
        <ele>153</ele>
        <time>2022-05-22T05:16:46Z</time>
      </trkpt>
      <trkpt lat="48.59421" lon="1.72795">
        <ele>153</ele>
        <time>2022-05-22T05:16:48Z</time>
      </trkpt>
      <trkpt lat="48.5941" lon="1.7284">
        <ele>154</ele>
        <time>2022-05-22T05:16:53Z</time>
      </trkpt>
      <trkpt lat="48.5939" lon="1.7289">
        <ele>153</ele>
        <time>2022-05-22T05:17:00Z</time>
      </trkpt>
      <trkpt lat="48.59371" lon="1.72928">
        <ele>153</ele>
        <time>2022-05-22T05:17:06Z</time>
      </trkpt>
      <trkpt lat="48.59368" lon="1.72941">
        <ele>154</ele>
        <time>2022-05-22T05:17:07Z</time>
      </trkpt>
      <trkpt lat="48.59368" lon="1.72971">
        <ele>155</ele>
        <time>2022-05-22T05:17:11Z</time>
      </trkpt>
      <trkpt lat="48.59389" lon="1.73026">
        <ele>158</ele>
        <time>2022-05-22T05:17:18Z</time>
      </trkpt>
      <trkpt lat="48.59396" lon="1.73052">
        <ele>159</ele>
        <time>2022-05-22T05:17:22Z</time>
      </trkpt>
      <trkpt lat="48.59413" lon="1.73093">
        <ele>161</ele>
        <time>2022-05-22T05:17:27Z</time>
      </trkpt>
      <trkpt lat="48.59419" lon="1.73141">
        <ele>161</ele>
        <time>2022-05-22T05:17:33Z</time>
      </trkpt>
      <trkpt lat="48.59418" lon="1.7317">
        <ele>161</ele>
        <time>2022-05-22T05:17:37Z</time>
      </trkpt>
      <trkpt lat="48.59404" lon="1.73293">
        <ele>163</ele>
        <time>2022-05-22T05:17:51Z</time>
      </trkpt>
      <trkpt lat="48.59368" lon="1.7347">
        <ele>164</ele>
        <time>2022-05-22T05:18:13Z</time>
      </trkpt>
      <trkpt lat="48.59361" lon="1.73526">
        <ele>163</ele>
        <time>2022-05-22T05:18:20Z</time>
      </trkpt>
      <trkpt lat="48.59357" lon="1.73583">
        <ele>163</ele>
        <time>2022-05-22T05:18:26Z</time>
      </trkpt>
      <trkpt lat="48.59359" lon="1.73674">
        <ele>162</ele>
        <time>2022-05-22T05:18:37Z</time>
      </trkpt>
      <trkpt lat="48.59362" lon="1.73701">
        <ele>162</ele>
        <time>2022-05-22T05:18:40Z</time>
      </trkpt>
      <trkpt lat="48.59419" lon="1.73997">
        <ele>164</ele>
        <time>2022-05-22T05:19:17Z</time>
      </trkpt>
      <trkpt lat="48.59423" lon="1.74031">
        <ele>164</ele>
        <time>2022-05-22T05:19:21Z</time>
      </trkpt>
      <trkpt lat="48.59437" lon="1.74107">
        <ele>165</ele>
        <time>2022-05-22T05:19:30Z</time>
      </trkpt>
      <trkpt lat="48.59458" lon="1.74203">
        <ele>165</ele>
        <time>2022-05-22T05:19:42Z</time>
      </trkpt>
      <trkpt lat="48.59467" lon="1.74231">
        <ele>165</ele>
        <time>2022-05-22T05:19:46Z</time>
      </trkpt>
      <trkpt lat="48.59526" lon="1.74319">
        <ele>164</ele>
        <time>2022-05-22T05:20:00Z</time>
      </trkpt>
      <trkpt lat="48.59567" lon="1.74411">
        <ele>164</ele>
        <time>2022-05-22T05:20:13Z</time>
      </trkpt>
      <trkpt lat="48.59582" lon="1.74472">
        <ele>165</ele>
        <time>2022-05-22T05:20:21Z</time>
      </trkpt>
      <trkpt lat="48.59609" lon="1.74528">
        <ele>165</ele>
        <time>2022-05-22T05:20:29Z</time>
      </trkpt>
      <trkpt lat="48.59663" lon="1.74629">
        <ele>167</ele>
        <time>2022-05-22T05:20:44Z</time>
      </trkpt>
      <trkpt lat="48.59681" lon="1.74669">
        <ele>168</ele>
        <time>2022-05-22T05:20:50Z</time>
      </trkpt>
      <trkpt lat="48.5973" lon="1.74759">
        <ele>170</ele>
        <time>2022-05-22T05:21:04Z</time>
      </trkpt>
      <trkpt lat="48.59768" lon="1.74839">
        <ele>173</ele>
        <time>2022-05-22T05:21:15Z</time>
      </trkpt>
      <trkpt lat="48.59927" lon="1.75141">
        <ele>175</ele>
        <time>2022-05-22T05:22:01Z</time>
      </trkpt>
      <trkpt lat="48.59965" lon="1.75221">
        <ele>175</ele>
        <time>2022-05-22T05:22:12Z</time>
      </trkpt>
      <trkpt lat="48.6" lon="1.75284">
        <ele>176</ele>
        <time>2022-05-22T05:22:22Z</time>
      </trkpt>
      <trkpt lat="48.60011" lon="1.75312">
        <ele>177</ele>
        <time>2022-05-22T05:22:26Z</time>
      </trkpt>
      <trkpt lat="48.60022" lon="1.75315">
        <ele>177</ele>
        <time>2022-05-22T05:22:28Z</time>
      </trkpt>
      <trkpt lat="48.60054" lon="1.75317">
        <ele>175</ele>
        <time>2022-05-22T05:22:34Z</time>
      </trkpt>
      <trkpt lat="48.60065" lon="1.75322">
        <ele>175</ele>
        <time>2022-05-22T05:22:36Z</time>
      </trkpt>
      <trkpt lat="48.60087" lon="1.75357">
        <ele>174</ele>
        <time>2022-05-22T05:22:41Z</time>
      </trkpt>
      <trkpt lat="48.60139" lon="1.75453">
        <ele>173</ele>
        <time>2022-05-22T05:22:56Z</time>
      </trkpt>
      <trkpt lat="48.60158" lon="1.75473">
        <ele>172</ele>
        <time>2022-05-22T05:23:00Z</time>
      </trkpt>
      <trkpt lat="48.60207" lon="1.7551">
        <ele>172</ele>
        <time>2022-05-22T05:23:10Z</time>
      </trkpt>
      <trkpt lat="48.60235" lon="1.75538">
        <ele>172</ele>
        <time>2022-05-22T05:23:16Z</time>
      </trkpt>
      <trkpt lat="48.60327" lon="1.75599">
        <ele>173</ele>
        <time>2022-05-22T05:23:34Z</time>
      </trkpt>
      <trkpt lat="48.60363" lon="1.75617">
        <ele>174</ele>
        <time>2022-05-22T05:23:40Z</time>
      </trkpt>
      <trkpt lat="48.60428" lon="1.75661">
        <ele>175</ele>
        <time>2022-05-22T05:23:53Z</time>
      </trkpt>
      <trkpt lat="48.60457" lon="1.7569">
        <ele>175</ele>
        <time>2022-05-22T05:23:59Z</time>
      </trkpt>
      <trkpt lat="48.6051" lon="1.7575">
        <ele>174</ele>
        <time>2022-05-22T05:24:11Z</time>
      </trkpt>
      <trkpt lat="48.60528" lon="1.75763">
        <ele>175</ele>
        <time>2022-05-22T05:24:15Z</time>
      </trkpt>
      <trkpt lat="48.60539" lon="1.75768">
        <ele>175</ele>
        <time>2022-05-22T05:24:17Z</time>
      </trkpt>
      <trkpt lat="48.60551" lon="1.75779">
        <ele>175</ele>
        <time>2022-05-22T05:24:19Z</time>
      </trkpt>
      <trkpt lat="48.60561" lon="1.75781">
        <ele>175</ele>
        <time>2022-05-22T05:24:21Z</time>
      </trkpt>
      <trkpt lat="48.60603" lon="1.75813">
        <ele>176</ele>
        <time>2022-05-22T05:24:29Z</time>
      </trkpt>
      <trkpt lat="48.60636" lon="1.75833">
        <ele>176</ele>
        <time>2022-05-22T05:24:36Z</time>
      </trkpt>
      <trkpt lat="48.6067" lon="1.75849">
        <ele>176</ele>
        <time>2022-05-22T05:24:42Z</time>
      </trkpt>
      <trkpt lat="48.60689" lon="1.75862">
        <ele>175</ele>
        <time>2022-05-22T05:24:46Z</time>
      </trkpt>
      <trkpt lat="48.60721" lon="1.75874">
        <ele>174</ele>
        <time>2022-05-22T05:24:52Z</time>
      </trkpt>
      <trkpt lat="48.60803" lon="1.75875">
        <ele>170</ele>
        <time>2022-05-22T05:25:06Z</time>
      </trkpt>
      <trkpt lat="48.60839" lon="1.75878">
        <ele>168</ele>
        <time>2022-05-22T05:25:13Z</time>
      </trkpt>
      <trkpt lat="48.6085" lon="1.75876">
        <ele>168</ele>
        <time>2022-05-22T05:25:15Z</time>
      </trkpt>
      <trkpt lat="48.60886" lon="1.75878">
        <ele>168</ele>
        <time>2022-05-22T05:25:21Z</time>
      </trkpt>
      <trkpt lat="48.60898" lon="1.75876">
        <ele>167</ele>
        <time>2022-05-22T05:25:23Z</time>
      </trkpt>
      <trkpt lat="48.60941" lon="1.75882">
        <ele>167</ele>
        <time>2022-05-22T05:25:31Z</time>
      </trkpt>
      <trkpt lat="48.60969" lon="1.75883">
        <ele>167</ele>
        <time>2022-05-22T05:25:36Z</time>
      </trkpt>
      <trkpt lat="48.60995" lon="1.75882">
        <ele>168</ele>
        <time>2022-05-22T05:25:40Z</time>
      </trkpt>
      <trkpt lat="48.61021" lon="1.75876">
        <ele>168</ele>
        <time>2022-05-22T05:25:45Z</time>
      </trkpt>
      <trkpt lat="48.61084" lon="1.75873">
        <ele>168</ele>
        <time>2022-05-22T05:25:56Z</time>
      </trkpt>
      <trkpt lat="48.61118" lon="1.75883">
        <ele>171</ele>
        <time>2022-05-22T05:26:02Z</time>
      </trkpt>
      <trkpt lat="48.61137" lon="1.75896">
        <ele>172</ele>
        <time>2022-05-22T05:26:06Z</time>
      </trkpt>
      <trkpt lat="48.61188" lon="1.75946">
        <ele>175</ele>
        <time>2022-05-22T05:26:17Z</time>
      </trkpt>
      <trkpt lat="48.61233" lon="1.76">
        <ele>176</ele>
        <time>2022-05-22T05:26:27Z</time>
      </trkpt>
      <trkpt lat="48.61306" lon="1.7606">
        <ele>177</ele>
        <time>2022-05-22T05:26:42Z</time>
      </trkpt>
      <trkpt lat="48.61348" lon="1.76105">
        <ele>178</ele>
        <time>2022-05-22T05:26:51Z</time>
      </trkpt>
      <trkpt lat="48.61385" lon="1.76171">
        <ele>178</ele>
        <time>2022-05-22T05:27:01Z</time>
      </trkpt>
      <trkpt lat="48.61504" lon="1.76358">
        <ele>173</ele>
        <time>2022-05-22T05:27:32Z</time>
      </trkpt>
      <trkpt lat="48.61531" lon="1.76394">
        <ele>173</ele>
        <time>2022-05-22T05:27:38Z</time>
      </trkpt>
      <trkpt lat="48.61661" lon="1.76548">
        <ele>169</ele>
        <time>2022-05-22T05:28:08Z</time>
      </trkpt>
      <trkpt lat="48.61704" lon="1.76603">
        <ele>168</ele>
        <time>2022-05-22T05:28:18Z</time>
      </trkpt>
      <trkpt lat="48.61777" lon="1.76686">
        <ele>167</ele>
        <time>2022-05-22T05:28:34Z</time>
      </trkpt>
      <trkpt lat="48.61951" lon="1.76865">
        <ele>165</ele>
        <time>2022-05-22T05:29:11Z</time>
      </trkpt>
      <trkpt lat="48.62026" lon="1.76935">
        <ele>165</ele>
        <time>2022-05-22T05:29:27Z</time>
      </trkpt>
      <trkpt lat="48.62125" lon="1.77007">
        <ele>165</ele>
        <time>2022-05-22T05:29:47Z</time>
      </trkpt>
      <trkpt lat="48.62183" lon="1.77041">
        <ele>165</ele>
        <time>2022-05-22T05:29:58Z</time>
      </trkpt>
      <trkpt lat="48.62274" lon="1.77089">
        <ele>164</ele>
        <time>2022-05-22T05:30:15Z</time>
      </trkpt>
      <trkpt lat="48.62298" lon="1.77098">
        <ele>164</ele>
        <time>2022-05-22T05:30:19Z</time>
      </trkpt>
      <trkpt lat="48.62389" lon="1.77142">
        <ele>165</ele>
        <time>2022-05-22T05:30:36Z</time>
      </trkpt>
      <trkpt lat="48.62409" lon="1.7716">
        <ele>166</ele>
        <time>2022-05-22T05:30:40Z</time>
      </trkpt>
      <trkpt lat="48.62451" lon="1.77223">
        <ele>165</ele>
        <time>2022-05-22T05:30:51Z</time>
      </trkpt>
      <trkpt lat="48.62469" lon="1.77242">
        <ele>164</ele>
        <time>2022-05-22T05:30:55Z</time>
      </trkpt>
      <trkpt lat="48.62497" lon="1.77257">
        <ele>164</ele>
        <time>2022-05-22T05:31:00Z</time>
      </trkpt>
      <trkpt lat="48.62516" lon="1.77263">
        <ele>164</ele>
        <time>2022-05-22T05:31:04Z</time>
      </trkpt>
      <trkpt lat="48.62566" lon="1.77266">
        <ele>165</ele>
        <time>2022-05-22T05:31:12Z</time>
      </trkpt>
      <trkpt lat="48.62641" lon="1.7726">
        <ele>165</ele>
        <time>2022-05-22T05:31:26Z</time>
      </trkpt>
      <trkpt lat="48.62735" lon="1.77258">
        <ele>165</ele>
        <time>2022-05-22T05:31:43Z</time>
      </trkpt>
      <trkpt lat="48.62745" lon="1.77265">
        <ele>165</ele>
        <time>2022-05-22T05:31:44Z</time>
      </trkpt>
      <trkpt lat="48.6275" lon="1.77279">
        <ele>165</ele>
        <time>2022-05-22T05:31:46Z</time>
      </trkpt>
      <trkpt lat="48.62747" lon="1.77294">
        <ele>165</ele>
        <time>2022-05-22T05:31:48Z</time>
      </trkpt>
      <trkpt lat="48.62759" lon="1.77269">
        <ele>165</ele>
        <time>2022-05-22T05:31:52Z</time>
      </trkpt>
      <trkpt lat="48.62769" lon="1.77262">
        <ele>165</ele>
        <time>2022-05-22T05:31:54Z</time>
      </trkpt>
      <trkpt lat="48.62801" lon="1.7726">
        <ele>165</ele>
        <time>2022-05-22T05:31:59Z</time>
      </trkpt>
      <trkpt lat="48.62886" lon="1.77267">
        <ele>165</ele>
        <time>2022-05-22T05:32:15Z</time>
      </trkpt>
      <trkpt lat="48.62919" lon="1.77262">
        <ele>165</ele>
        <time>2022-05-22T05:32:21Z</time>
      </trkpt>
      <trkpt lat="48.62995" lon="1.77259">
        <ele>164</ele>
        <time>2022-05-22T05:32:34Z</time>
      </trkpt>
      <trkpt lat="48.63005" lon="1.77255">
        <ele>164</ele>
        <time>2022-05-22T05:32:36Z</time>
      </trkpt>
      <trkpt lat="48.63013" lon="1.77264">
        <ele>164</ele>
        <time>2022-05-22T05:32:38Z</time>
      </trkpt>
      <trkpt lat="48.63014" lon="1.77279">
        <ele>164</ele>
        <time>2022-05-22T05:32:39Z</time>
      </trkpt>
      <trkpt lat="48.63002" lon="1.77303">
        <ele>165</ele>
        <time>2022-05-22T05:32:43Z</time>
      </trkpt>
      <trkpt lat="48.62938" lon="1.77481">
        <ele>167</ele>
        <time>2022-05-22T05:33:07Z</time>
      </trkpt>
      <trkpt lat="48.6291" lon="1.77628">
        <ele>166</ele>
        <time>2022-05-22T05:33:25Z</time>
      </trkpt>
      <trkpt lat="48.62896" lon="1.77688">
        <ele>165</ele>
        <time>2022-05-22T05:33:32Z</time>
      </trkpt>
      <trkpt lat="48.62895" lon="1.7774">
        <ele>165</ele>
        <time>2022-05-22T05:33:38Z</time>
      </trkpt>
      <trkpt lat="48.62888" lon="1.77781">
        <ele>164</ele>
        <time>2022-05-22T05:33:43Z</time>
      </trkpt>
      <trkpt lat="48.62876" lon="1.77906">
        <ele>162</ele>
        <time>2022-05-22T05:33:58Z</time>
      </trkpt>
      <trkpt lat="48.62872" lon="1.77937">
        <ele>162</ele>
        <time>2022-05-22T05:34:02Z</time>
      </trkpt>
      <trkpt lat="48.62852" lon="1.7804">
        <ele>162</ele>
        <time>2022-05-22T05:34:15Z</time>
      </trkpt>
      <trkpt lat="48.62852" lon="1.78148">
        <ele>161</ele>
        <time>2022-05-22T05:34:27Z</time>
      </trkpt>
      <trkpt lat="48.62856" lon="1.78251">
        <ele>162</ele>
        <time>2022-05-22T05:34:39Z</time>
      </trkpt>
      <trkpt lat="48.6286" lon="1.78293">
        <ele>161</ele>
        <time>2022-05-22T05:34:44Z</time>
      </trkpt>
      <trkpt lat="48.62847" lon="1.7841">
        <ele>159</ele>
        <time>2022-05-22T05:34:58Z</time>
      </trkpt>
      <trkpt lat="48.62868" lon="1.78418">
        <ele>158</ele>
        <time>2022-05-22T05:35:02Z</time>
      </trkpt>
      <trkpt lat="48.62884" lon="1.78435">
        <ele>157</ele>
        <time>2022-05-22T05:35:06Z</time>
      </trkpt>
      <trkpt lat="48.62951" lon="1.78547">
        <ele>149</ele>
        <time>2022-05-22T05:35:23Z</time>
      </trkpt>
      <trkpt lat="48.62961" lon="1.78555">
        <ele>148</ele>
        <time>2022-05-22T05:35:25Z</time>
      </trkpt>
      <trkpt lat="48.63006" lon="1.78557">
        <ele>147</ele>
        <time>2022-05-22T05:35:33Z</time>
      </trkpt>
      <trkpt lat="48.63089" lon="1.7857">
        <ele>144</ele>
        <time>2022-05-22T05:35:48Z</time>
      </trkpt>
      <trkpt lat="48.63106" lon="1.78579">
        <ele>144</ele>
        <time>2022-05-22T05:35:52Z</time>
      </trkpt>
      <trkpt lat="48.63114" lon="1.78586">
        <ele>143</ele>
        <time>2022-05-22T05:35:53Z</time>
      </trkpt>
      <trkpt lat="48.63128" lon="1.78607">
        <ele>145</ele>
        <time>2022-05-22T05:35:57Z</time>
      </trkpt>
      <trkpt lat="48.63164" lon="1.78741">
        <ele>151</ele>
        <time>2022-05-22T05:36:14Z</time>
      </trkpt>
      <trkpt lat="48.63165" lon="1.78775">
        <ele>153</ele>
        <time>2022-05-22T05:36:18Z</time>
      </trkpt>
      <trkpt lat="48.63173" lon="1.78838">
        <ele>155</ele>
        <time>2022-05-22T05:36:25Z</time>
      </trkpt>
      <trkpt lat="48.63183" lon="1.78863">
        <ele>156</ele>
        <time>2022-05-22T05:36:29Z</time>
      </trkpt>
      <trkpt lat="48.63211" lon="1.7889">
        <ele>153</ele>
        <time>2022-05-22T05:36:35Z</time>
      </trkpt>
      <trkpt lat="48.63225" lon="1.78916">
        <ele>151</ele>
        <time>2022-05-22T05:36:39Z</time>
      </trkpt>
      <trkpt lat="48.6324" lon="1.78968">
        <ele>149</ele>
        <time>2022-05-22T05:36:45Z</time>
      </trkpt>
      <trkpt lat="48.63249" lon="1.7901">
        <ele>148</ele>
        <time>2022-05-22T05:36:50Z</time>
      </trkpt>
      <trkpt lat="48.63256" lon="1.79052">
        <ele>147</ele>
        <time>2022-05-22T05:36:55Z</time>
      </trkpt>
      <trkpt lat="48.63258" lon="1.79085">
        <ele>147</ele>
        <time>2022-05-22T05:36:59Z</time>
      </trkpt>
      <trkpt lat="48.63265" lon="1.79097">
        <ele>147</ele>
        <time>2022-05-22T05:37:01Z</time>
      </trkpt>
      <trkpt lat="48.63298" lon="1.7909">
        <ele>144</ele>
        <time>2022-05-22T05:37:07Z</time>
      </trkpt>
      <trkpt lat="48.63326" lon="1.79081">
        <ele>141</ele>
        <time>2022-05-22T05:37:12Z</time>
      </trkpt>
      <trkpt lat="48.63374" lon="1.7906">
        <ele>143</ele>
        <time>2022-05-22T05:37:21Z</time>
      </trkpt>
      <trkpt lat="48.63383" lon="1.79051">
        <ele>143</ele>
        <time>2022-05-22T05:37:23Z</time>
      </trkpt>
      <trkpt lat="48.63419" lon="1.78993">
        <ele>145</ele>
        <time>2022-05-22T05:37:32Z</time>
      </trkpt>
      <trkpt lat="48.63435" lon="1.78972">
        <ele>146</ele>
        <time>2022-05-22T05:37:36Z</time>
      </trkpt>
      <trkpt lat="48.63453" lon="1.78955">
        <ele>146</ele>
        <time>2022-05-22T05:37:40Z</time>
      </trkpt>
      <trkpt lat="48.63474" lon="1.78947">
        <ele>146</ele>
        <time>2022-05-22T05:37:44Z</time>
      </trkpt>
      <trkpt lat="48.63525" lon="1.78955">
        <ele>147</ele>
        <time>2022-05-22T05:37:53Z</time>
      </trkpt>
      <trkpt lat="48.63547" lon="1.7896">
        <ele>148</ele>
        <time>2022-05-22T05:37:57Z</time>
      </trkpt>
      <trkpt lat="48.63565" lon="1.78967">
        <ele>149</ele>
        <time>2022-05-22T05:38:00Z</time>
      </trkpt>
      <trkpt lat="48.63594" lon="1.78987">
        <ele>151</ele>
        <time>2022-05-22T05:38:06Z</time>
      </trkpt>
      <trkpt lat="48.63626" lon="1.79022">
        <ele>151</ele>
        <time>2022-05-22T05:38:13Z</time>
      </trkpt>
      <trkpt lat="48.6367" lon="1.79095">
        <ele>151</ele>
        <time>2022-05-22T05:38:25Z</time>
      </trkpt>
      <trkpt lat="48.63686" lon="1.79115">
        <ele>151</ele>
        <time>2022-05-22T05:38:28Z</time>
      </trkpt>
      <trkpt lat="48.63709" lon="1.79151">
        <ele>150</ele>
        <time>2022-05-22T05:38:34Z</time>
      </trkpt>
      <trkpt lat="48.6375" lon="1.79231">
        <ele>148</ele>
        <time>2022-05-22T05:38:46Z</time>
      </trkpt>
      <trkpt lat="48.63759" lon="1.79255">
        <ele>147</ele>
        <time>2022-05-22T05:38:49Z</time>
      </trkpt>
      <trkpt lat="48.63787" lon="1.79357">
        <ele>146</ele>
        <time>2022-05-22T05:39:02Z</time>
      </trkpt>
      <trkpt lat="48.63805" lon="1.79406">
        <ele>146</ele>
        <time>2022-05-22T05:39:09Z</time>
      </trkpt>
      <trkpt lat="48.63847" lon="1.79443">
        <ele>147</ele>
        <time>2022-05-22T05:39:17Z</time>
      </trkpt>
      <trkpt lat="48.63854" lon="1.79456">
        <ele>148</ele>
        <time>2022-05-22T05:39:19Z</time>
      </trkpt>
      <trkpt lat="48.6388" lon="1.79484">
        <ele>149</ele>
        <time>2022-05-22T05:39:25Z</time>
      </trkpt>
      <trkpt lat="48.639" lon="1.79516">
        <ele>150</ele>
        <time>2022-05-22T05:39:30Z</time>
      </trkpt>
      <trkpt lat="48.63917" lon="1.79537">
        <ele>151</ele>
        <time>2022-05-22T05:39:34Z</time>
      </trkpt>
      <trkpt lat="48.63928" lon="1.79544">
        <ele>151</ele>
        <time>2022-05-22T05:39:36Z</time>
      </trkpt>
      <trkpt lat="48.63937" lon="1.79558">
        <ele>151</ele>
        <time>2022-05-22T05:39:39Z</time>
      </trkpt>
      <trkpt lat="48.63942" lon="1.79571">
        <ele>151</ele>
        <time>2022-05-22T05:39:40Z</time>
      </trkpt>
      <trkpt lat="48.63971" lon="1.7962">
        <ele>150</ele>
        <time>2022-05-22T05:39:48Z</time>
      </trkpt>
      <trkpt lat="48.63976" lon="1.79635">
        <ele>150</ele>
        <time>2022-05-22T05:39:50Z</time>
      </trkpt>
      <trkpt lat="48.64007" lon="1.79686">
        <ele>149</ele>
        <time>2022-05-22T05:39:58Z</time>
      </trkpt>
      <trkpt lat="48.64103" lon="1.79881">
        <ele>150</ele>
        <time>2022-05-22T05:40:27Z</time>
      </trkpt>
      <trkpt lat="48.64183" lon="1.80022">
        <ele>151</ele>
        <time>2022-05-22T05:40:49Z</time>
      </trkpt>
      <trkpt lat="48.64227" lon="1.80129">
        <ele>147</ele>
        <time>2022-05-22T05:41:04Z</time>
      </trkpt>
      <trkpt lat="48.64271" lon="1.80249">
        <ele>149</ele>
        <time>2022-05-22T05:41:20Z</time>
      </trkpt>
      <trkpt lat="48.64278" lon="1.80261">
        <ele>149</ele>
        <time>2022-05-22T05:41:22Z</time>
      </trkpt>
      <trkpt lat="48.64312" lon="1.80347">
        <ele>149</ele>
        <time>2022-05-22T05:41:33Z</time>
      </trkpt>
      <trkpt lat="48.64329" lon="1.8038">
        <ele>150</ele>
        <time>2022-05-22T05:41:38Z</time>
      </trkpt>
      <trkpt lat="48.64373" lon="1.80494">
        <ele>149</ele>
        <time>2022-05-22T05:41:54Z</time>
      </trkpt>
      <trkpt lat="48.64427" lon="1.80611">
        <ele>149</ele>
        <time>2022-05-22T05:42:11Z</time>
      </trkpt>
      <trkpt lat="48.64471" lon="1.80725">
        <ele>151</ele>
        <time>2022-05-22T05:42:26Z</time>
      </trkpt>
      <trkpt lat="48.6448" lon="1.8073">
        <ele>151</ele>
        <time>2022-05-22T05:42:28Z</time>
      </trkpt>
      <trkpt lat="48.6449" lon="1.80726">
        <ele>152</ele>
        <time>2022-05-22T05:42:30Z</time>
      </trkpt>
      <trkpt lat="48.64481" lon="1.80733">
        <ele>151</ele>
        <time>2022-05-22T05:42:31Z</time>
      </trkpt>
      <trkpt lat="48.64476" lon="1.80746">
        <ele>151</ele>
        <time>2022-05-22T05:42:33Z</time>
      </trkpt>
      <trkpt lat="48.64477" lon="1.8076">
        <ele>151</ele>
        <time>2022-05-22T05:42:35Z</time>
      </trkpt>
      <trkpt lat="48.64481" lon="1.80773">
        <ele>151</ele>
        <time>2022-05-22T05:42:37Z</time>
      </trkpt>
      <trkpt lat="48.64461" lon="1.80781">
        <ele>150</ele>
        <time>2022-05-22T05:42:40Z</time>
      </trkpt>
      <trkpt lat="48.64451" lon="1.80776">
        <ele>149</ele>
        <time>2022-05-22T05:42:42Z</time>
      </trkpt>
      <trkpt lat="48.64441" lon="1.80785">
        <ele>149</ele>
        <time>2022-05-22T05:42:44Z</time>
      </trkpt>
      <trkpt lat="48.64388" lon="1.80885">
        <ele>148</ele>
        <time>2022-05-22T05:42:59Z</time>
      </trkpt>
      <trkpt lat="48.6437" lon="1.80928">
        <ele>149</ele>
        <time>2022-05-22T05:43:05Z</time>
      </trkpt>
      <trkpt lat="48.64321" lon="1.81031">
        <ele>149</ele>
        <time>2022-05-22T05:43:20Z</time>
      </trkpt>
      <trkpt lat="48.64309" lon="1.81062">
        <ele>148</ele>
        <time>2022-05-22T05:43:24Z</time>
      </trkpt>
      <trkpt lat="48.6431" lon="1.81077">
        <ele>148</ele>
        <time>2022-05-22T05:43:26Z</time>
      </trkpt>
      <trkpt lat="48.64304" lon="1.81108">
        <ele>147</ele>
        <time>2022-05-22T05:43:30Z</time>
      </trkpt>
      <trkpt lat="48.64294" lon="1.81136">
        <ele>147</ele>
        <time>2022-05-22T05:43:34Z</time>
      </trkpt>
      <trkpt lat="48.64259" lon="1.81219">
        <ele>147</ele>
        <time>2022-05-22T05:43:45Z</time>
      </trkpt>
      <trkpt lat="48.64225" lon="1.81289">
        <ele>148</ele>
        <time>2022-05-22T05:43:55Z</time>
      </trkpt>
      <trkpt lat="48.64209" lon="1.81317">
        <ele>148</ele>
        <time>2022-05-22T05:44:00Z</time>
      </trkpt>
      <trkpt lat="48.642" lon="1.81326">
        <ele>148</ele>
        <time>2022-05-22T05:44:02Z</time>
      </trkpt>
      <trkpt lat="48.64169" lon="1.81328">
        <ele>148</ele>
        <time>2022-05-22T05:44:07Z</time>
      </trkpt>
      <trkpt lat="48.64159" lon="1.81334">
        <ele>149</ele>
        <time>2022-05-22T05:44:09Z</time>
      </trkpt>
      <trkpt lat="48.64147" lon="1.81368">
        <ele>149</ele>
        <time>2022-05-22T05:44:14Z</time>
      </trkpt>
      <trkpt lat="48.64146" lon="1.81384">
        <ele>149</ele>
        <time>2022-05-22T05:44:16Z</time>
      </trkpt>
      <trkpt lat="48.64149" lon="1.81431">
        <ele>149</ele>
        <time>2022-05-22T05:44:21Z</time>
      </trkpt>
      <trkpt lat="48.64146" lon="1.81444">
        <ele>150</ele>
        <time>2022-05-22T05:44:23Z</time>
      </trkpt>
      <trkpt lat="48.64092" lon="1.81563">
        <ele>150</ele>
        <time>2022-05-22T05:44:40Z</time>
      </trkpt>
      <trkpt lat="48.64075" lon="1.81606">
        <ele>150</ele>
        <time>2022-05-22T05:44:46Z</time>
      </trkpt>
      <trkpt lat="48.64045" lon="1.81664">
        <ele>150</ele>
        <time>2022-05-22T05:44:54Z</time>
      </trkpt>
      <trkpt lat="48.64033" lon="1.81695">
        <ele>150</ele>
        <time>2022-05-22T05:44:59Z</time>
      </trkpt>
      <trkpt lat="48.64023" lon="1.8171">
        <ele>150</ele>
        <time>2022-05-22T05:45:01Z</time>
      </trkpt>
      <trkpt lat="48.63991" lon="1.81775">
        <ele>150</ele>
        <time>2022-05-22T05:45:11Z</time>
      </trkpt>
      <trkpt lat="48.63983" lon="1.81786">
        <ele>151</ele>
        <time>2022-05-22T05:45:12Z</time>
      </trkpt>
      <trkpt lat="48.63981" lon="1.818">
        <ele>151</ele>
        <time>2022-05-22T05:45:14Z</time>
      </trkpt>
      <trkpt lat="48.63972" lon="1.81802">
        <ele>151</ele>
        <time>2022-05-22T05:45:16Z</time>
      </trkpt>
      <trkpt lat="48.63968" lon="1.81814">
        <ele>151</ele>
        <time>2022-05-22T05:45:17Z</time>
      </trkpt>
      <trkpt lat="48.63968" lon="1.81829">
        <ele>151</ele>
        <time>2022-05-22T05:45:19Z</time>
      </trkpt>
      <trkpt lat="48.63956" lon="1.81834">
        <ele>151</ele>
        <time>2022-05-22T05:45:21Z</time>
      </trkpt>
      <trkpt lat="48.63965" lon="1.81859">
        <ele>151</ele>
        <time>2022-05-22T05:45:25Z</time>
      </trkpt>
      <trkpt lat="48.63983" lon="1.81877">
        <ele>151</ele>
        <time>2022-05-22T05:45:29Z</time>
      </trkpt>
      <trkpt lat="48.64012" lon="1.81926">
        <ele>150</ele>
        <time>2022-05-22T05:45:36Z</time>
      </trkpt>
      <trkpt lat="48.64031" lon="1.81945">
        <ele>150</ele>
        <time>2022-05-22T05:45:40Z</time>
      </trkpt>
      <trkpt lat="48.64058" lon="1.81985">
        <ele>150</ele>
        <time>2022-05-22T05:45:47Z</time>
      </trkpt>
      <trkpt lat="48.64069" lon="1.82018">
        <ele>150</ele>
        <time>2022-05-22T05:45:51Z</time>
      </trkpt>
      <trkpt lat="48.64073" lon="1.82036">
        <ele>150</ele>
        <time>2022-05-22T05:45:54Z</time>
      </trkpt>
      <trkpt lat="48.64084" lon="1.82248">
        <ele>151</ele>
        <time>2022-05-22T05:46:19Z</time>
      </trkpt>
      <trkpt lat="48.64089" lon="1.82287">
        <ele>151</ele>
        <time>2022-05-22T05:46:23Z</time>
      </trkpt>
      <trkpt lat="48.64092" lon="1.82331">
        <ele>152</ele>
        <time>2022-05-22T05:46:28Z</time>
      </trkpt>
      <trkpt lat="48.64091" lon="1.82362">
        <ele>152</ele>
        <time>2022-05-22T05:46:32Z</time>
      </trkpt>
      <trkpt lat="48.64096" lon="1.82412">
        <ele>151</ele>
        <time>2022-05-22T05:46:38Z</time>
      </trkpt>
      <trkpt lat="48.6411" lon="1.82471">
        <ele>151</ele>
        <time>2022-05-22T05:46:45Z</time>
      </trkpt>
      <trkpt lat="48.64128" lon="1.82515">
        <ele>151</ele>
        <time>2022-05-22T05:46:52Z</time>
      </trkpt>
      <trkpt lat="48.64141" lon="1.82535">
        <ele>151</ele>
        <time>2022-05-22T05:46:55Z</time>
      </trkpt>
      <trkpt lat="48.64152" lon="1.82558">
        <ele>152</ele>
        <time>2022-05-22T05:46:58Z</time>
      </trkpt>
      <trkpt lat="48.64164" lon="1.82569">
        <ele>152</ele>
        <time>2022-05-22T05:47:01Z</time>
      </trkpt>
      <trkpt lat="48.64194" lon="1.82561">
        <ele>152</ele>
        <time>2022-05-22T05:47:06Z</time>
      </trkpt>
      <trkpt lat="48.6425" lon="1.82562">
        <ele>152</ele>
        <time>2022-05-22T05:47:16Z</time>
      </trkpt>
      <trkpt lat="48.64271" lon="1.82564">
        <ele>152</ele>
        <time>2022-05-22T05:47:20Z</time>
      </trkpt>
      <trkpt lat="48.64282" lon="1.82568">
        <ele>152</ele>
        <time>2022-05-22T05:47:22Z</time>
      </trkpt>
      <trkpt lat="48.64299" lon="1.82592">
        <ele>153</ele>
        <time>2022-05-22T05:47:26Z</time>
      </trkpt>
      <trkpt lat="48.64318" lon="1.82607">
        <ele>154</ele>
        <time>2022-05-22T05:47:30Z</time>
      </trkpt>
      <trkpt lat="48.64339" lon="1.82619">
        <ele>155</ele>
        <time>2022-05-22T05:47:34Z</time>
      </trkpt>
      <trkpt lat="48.64355" lon="1.82641">
        <ele>157</ele>
        <time>2022-05-22T05:47:38Z</time>
      </trkpt>
      <trkpt lat="48.64364" lon="1.82649">
        <ele>158</ele>
        <time>2022-05-22T05:47:39Z</time>
      </trkpt>
      <trkpt lat="48.6437" lon="1.82661">
        <ele>158</ele>
        <time>2022-05-22T05:47:41Z</time>
      </trkpt>
      <trkpt lat="48.64373" lon="1.82678">
        <ele>159</ele>
        <time>2022-05-22T05:47:43Z</time>
      </trkpt>
      <trkpt lat="48.64358" lon="1.8274">
        <ele>161</ele>
        <time>2022-05-22T05:47:51Z</time>
      </trkpt>
      <trkpt lat="48.64339" lon="1.82799">
        <ele>162</ele>
        <time>2022-05-22T05:47:59Z</time>
      </trkpt>
      <trkpt lat="48.64329" lon="1.82848">
        <ele>162</ele>
        <time>2022-05-22T05:48:05Z</time>
      </trkpt>
      <trkpt lat="48.64333" lon="1.82894">
        <ele>159</ele>
        <time>2022-05-22T05:48:10Z</time>
      </trkpt>
      <trkpt lat="48.6433" lon="1.82941">
        <ele>158</ele>
        <time>2022-05-22T05:48:16Z</time>
      </trkpt>
      <trkpt lat="48.64333" lon="1.82956">
        <ele>158</ele>
        <time>2022-05-22T05:48:18Z</time>
      </trkpt>
      <trkpt lat="48.64348" lon="1.82976">
        <ele>159</ele>
        <time>2022-05-22T05:48:21Z</time>
      </trkpt>
      <trkpt lat="48.64353" lon="1.83002">
        <ele>160</ele>
        <time>2022-05-22T05:48:24Z</time>
      </trkpt>
      <trkpt lat="48.64341" lon="1.83009">
        <ele>159</ele>
        <time>2022-05-22T05:48:27Z</time>
      </trkpt>
      <trkpt lat="48.64331" lon="1.83011">
        <ele>159</ele>
        <time>2022-05-22T05:48:28Z</time>
      </trkpt>
      <trkpt lat="48.64321" lon="1.83019">
        <ele>159</ele>
        <time>2022-05-22T05:48:30Z</time>
      </trkpt>
      <trkpt lat="48.64311" lon="1.83016">
        <ele>159</ele>
        <time>2022-05-22T05:48:32Z</time>
      </trkpt>
      <trkpt lat="48.64294" lon="1.8302">
        <ele>159</ele>
        <time>2022-05-22T05:48:35Z</time>
      </trkpt>
      <trkpt lat="48.64278" lon="1.83016">
        <ele>158</ele>
        <time>2022-05-22T05:48:38Z</time>
      </trkpt>
      <trkpt lat="48.6427" lon="1.83021">
        <ele>158</ele>
        <time>2022-05-22T05:48:40Z</time>
      </trkpt>
      <trkpt lat="48.64247" lon="1.83026">
        <ele>158</ele>
        <time>2022-05-22T05:48:44Z</time>
      </trkpt>
      <trkpt lat="48.64251" lon="1.83006">
        <ele>157</ele>
        <time>2022-05-22T05:48:46Z</time>
      </trkpt>
      <trkpt lat="48.64262" lon="1.83014">
        <ele>158</ele>
        <time>2022-05-22T05:48:49Z</time>
      </trkpt>
      <trkpt lat="48.64285" lon="1.83114">
        <ele>160</ele>
        <time>2022-05-22T05:49:01Z</time>
      </trkpt>
      <trkpt lat="48.643" lon="1.83205">
        <ele>162</ele>
        <time>2022-05-22T05:49:12Z</time>
      </trkpt>
      <trkpt lat="48.64299" lon="1.8322">
        <ele>162</ele>
        <time>2022-05-22T05:49:14Z</time>
      </trkpt>
      <trkpt lat="48.64303" lon="1.83264">
        <ele>162</ele>
        <time>2022-05-22T05:49:19Z</time>
      </trkpt>
      <trkpt lat="48.64312" lon="1.83294">
        <ele>162</ele>
        <time>2022-05-22T05:49:23Z</time>
      </trkpt>
      <trkpt lat="48.64328" lon="1.83404">
        <ele>162</ele>
        <time>2022-05-22T05:49:36Z</time>
      </trkpt>
      <trkpt lat="48.64339" lon="1.8358">
        <ele>163</ele>
        <time>2022-05-22T05:49:57Z</time>
      </trkpt>
      <trkpt lat="48.64338" lon="1.83593">
        <ele>163</ele>
        <time>2022-05-22T05:49:58Z</time>
      </trkpt>
      <trkpt lat="48.64352" lon="1.83689">
        <ele>163</ele>
        <time>2022-05-22T05:50:10Z</time>
      </trkpt>
      <trkpt lat="48.64357" lon="1.83799">
        <ele>163</ele>
        <time>2022-05-22T05:50:23Z</time>
      </trkpt>
      <trkpt lat="48.64374" lon="1.83896">
        <ele>163</ele>
        <time>2022-05-22T05:50:35Z</time>
      </trkpt>
      <trkpt lat="48.64377" lon="1.83931">
        <ele>162</ele>
        <time>2022-05-22T05:50:39Z</time>
      </trkpt>
      <trkpt lat="48.64374" lon="1.83964">
        <ele>163</ele>
        <time>2022-05-22T05:50:43Z</time>
      </trkpt>
      <trkpt lat="48.64363" lon="1.83998">
        <ele>163</ele>
        <time>2022-05-22T05:50:47Z</time>
      </trkpt>
      <trkpt lat="48.64374" lon="1.84031">
        <ele>162</ele>
        <time>2022-05-22T05:50:52Z</time>
      </trkpt>
      <trkpt lat="48.64381" lon="1.84136">
        <ele>162</ele>
        <time>2022-05-22T05:51:04Z</time>
      </trkpt>
      <trkpt lat="48.6439" lon="1.84185">
        <ele>163</ele>
        <time>2022-05-22T05:51:10Z</time>
      </trkpt>
      <trkpt lat="48.64389" lon="1.84218">
        <ele>163</ele>
        <time>2022-05-22T05:51:14Z</time>
      </trkpt>
      <trkpt lat="48.64392" lon="1.84282">
        <ele>163</ele>
        <time>2022-05-22T05:51:21Z</time>
      </trkpt>
      <trkpt lat="48.64397" lon="1.84326">
        <ele>163</ele>
        <time>2022-05-22T05:51:27Z</time>
      </trkpt>
      <trkpt lat="48.64407" lon="1.84355">
        <ele>163</ele>
        <time>2022-05-22T05:51:31Z</time>
      </trkpt>
      <trkpt lat="48.64411" lon="1.84385">
        <ele>163</ele>
        <time>2022-05-22T05:51:34Z</time>
      </trkpt>
      <trkpt lat="48.64401" lon="1.84379">
        <ele>163</ele>
        <time>2022-05-22T05:51:36Z</time>
      </trkpt>
      <trkpt lat="48.6438" lon="1.84278">
        <ele>164</ele>
        <time>2022-05-22T05:51:48Z</time>
      </trkpt>
      <trkpt lat="48.64367" lon="1.8419">
        <ele>163</ele>
        <time>2022-05-22T05:51:59Z</time>
      </trkpt>
      <trkpt lat="48.64359" lon="1.84177">
        <ele>163</ele>
        <time>2022-05-22T05:52:01Z</time>
      </trkpt>
      <trkpt lat="48.64342" lon="1.84165">
        <ele>163</ele>
        <time>2022-05-22T05:52:05Z</time>
      </trkpt>
      <trkpt lat="48.64304" lon="1.84145">
        <ele>163</ele>
        <time>2022-05-22T05:52:12Z</time>
      </trkpt>
      <trkpt lat="48.64292" lon="1.84142">
        <ele>163</ele>
        <time>2022-05-22T05:52:14Z</time>
      </trkpt>
      <trkpt lat="48.64282" lon="1.84146">
        <ele>164</ele>
        <time>2022-05-22T05:52:16Z</time>
      </trkpt>
      <trkpt lat="48.64257" lon="1.84202">
        <ele>164</ele>
        <time>2022-05-22T05:52:24Z</time>
      </trkpt>
      <trkpt lat="48.64235" lon="1.84244">
        <ele>165</ele>
        <time>2022-05-22T05:52:30Z</time>
      </trkpt>
      <trkpt lat="48.64231" lon="1.84258">
        <ele>165</ele>
        <time>2022-05-22T05:52:32Z</time>
      </trkpt>
      <trkpt lat="48.64229" lon="1.84334">
        <ele>164</ele>
        <time>2022-05-22T05:52:41Z</time>
      </trkpt>
      <trkpt lat="48.64231" lon="1.84239">
        <ele>165</ele>
        <time>2022-05-22T05:52:52Z</time>
      </trkpt>
      <trkpt lat="48.64224" lon="1.84246">
        <ele>165</ele>
        <time>2022-05-22T05:52:53Z</time>
      </trkpt>
      <trkpt lat="48.64243" lon="1.8423">
        <ele>165</ele>
        <time>2022-05-22T05:52:57Z</time>
      </trkpt>
      <trkpt lat="48.64265" lon="1.84179">
        <ele>164</ele>
        <time>2022-05-22T05:53:04Z</time>
      </trkpt>
      <trkpt lat="48.64279" lon="1.84153">
        <ele>164</ele>
        <time>2022-05-22T05:53:08Z</time>
      </trkpt>
      <trkpt lat="48.64289" lon="1.84142">
        <ele>163</ele>
        <time>2022-05-22T05:53:10Z</time>
      </trkpt>
      <trkpt lat="48.64299" lon="1.8414">
        <ele>163</ele>
        <time>2022-05-22T05:53:12Z</time>
      </trkpt>
      <trkpt lat="48.64309" lon="1.84144">
        <ele>163</ele>
        <time>2022-05-22T05:53:14Z</time>
      </trkpt>
      <trkpt lat="48.6435" lon="1.84171">
        <ele>163</ele>
        <time>2022-05-22T05:53:22Z</time>
      </trkpt>
      <trkpt lat="48.64358" lon="1.84181">
        <ele>163</ele>
        <time>2022-05-22T05:53:24Z</time>
      </trkpt>
      <trkpt lat="48.64364" lon="1.84195">
        <ele>163</ele>
        <time>2022-05-22T05:53:26Z</time>
      </trkpt>
      <trkpt lat="48.64368" lon="1.84213">
        <ele>163</ele>
        <time>2022-05-22T05:53:28Z</time>
      </trkpt>
      <trkpt lat="48.6438" lon="1.84284">
        <ele>163</ele>
        <time>2022-05-22T05:53:37Z</time>
      </trkpt>
      <trkpt lat="48.64402" lon="1.84385">
        <ele>163</ele>
        <time>2022-05-22T05:53:49Z</time>
      </trkpt>
      <trkpt lat="48.64414" lon="1.84413">
        <ele>163</ele>
        <time>2022-05-22T05:53:53Z</time>
      </trkpt>
      <trkpt lat="48.64422" lon="1.84445">
        <ele>164</ele>
        <time>2022-05-22T05:53:57Z</time>
      </trkpt>
      <trkpt lat="48.64431" lon="1.84452">
        <ele>164</ele>
        <time>2022-05-22T05:53:59Z</time>
      </trkpt>
      <trkpt lat="48.64436" lon="1.84501">
        <ele>165</ele>
        <time>2022-05-22T05:54:05Z</time>
      </trkpt>
      <trkpt lat="48.64464" lon="1.84634">
        <ele>165</ele>
        <time>2022-05-22T05:54:21Z</time>
      </trkpt>
      <trkpt lat="48.64476" lon="1.84754">
        <ele>166</ele>
        <time>2022-05-22T05:54:35Z</time>
      </trkpt>
      <trkpt lat="48.64481" lon="1.84771">
        <ele>166</ele>
        <time>2022-05-22T05:54:38Z</time>
      </trkpt>
      <trkpt lat="48.64499" lon="1.84788">
        <ele>165</ele>
        <time>2022-05-22T05:54:41Z</time>
      </trkpt>
      <trkpt lat="48.64507" lon="1.84783">
        <ele>165</ele>
        <time>2022-05-22T05:54:43Z</time>
      </trkpt>
      <trkpt lat="48.64521" lon="1.84737">
        <ele>165</ele>
        <time>2022-05-22T05:54:49Z</time>
      </trkpt>
      <trkpt lat="48.64528" lon="1.84726">
        <ele>165</ele>
        <time>2022-05-22T05:54:51Z</time>
      </trkpt>
      <trkpt lat="48.64537" lon="1.84721">
        <ele>166</ele>
        <time>2022-05-22T05:54:52Z</time>
      </trkpt>
      <trkpt lat="48.6454" lon="1.84706">
        <ele>165</ele>
        <time>2022-05-22T05:54:54Z</time>
      </trkpt>
      <trkpt lat="48.64542" lon="1.84737">
        <ele>166</ele>
        <time>2022-05-22T05:54:58Z</time>
      </trkpt>
      <trkpt lat="48.64555" lon="1.84749">
        <ele>166</ele>
        <time>2022-05-22T05:55:01Z</time>
      </trkpt>
      <trkpt lat="48.64564" lon="1.8475">
        <ele>167</ele>
        <time>2022-05-22T05:55:02Z</time>
      </trkpt>
      <trkpt lat="48.64556" lon="1.84758">
        <ele>166</ele>
        <time>2022-05-22T05:55:04Z</time>
      </trkpt>
      <trkpt lat="48.64564" lon="1.84764">
        <ele>166</ele>
        <time>2022-05-22T05:55:06Z</time>
      </trkpt>
      <trkpt lat="48.64567" lon="1.84777">
        <ele>166</ele>
        <time>2022-05-22T05:55:07Z</time>
      </trkpt>
      <trkpt lat="48.64561" lon="1.84788">
        <ele>166</ele>
        <time>2022-05-22T05:55:09Z</time>
      </trkpt>
      <trkpt lat="48.64553" lon="1.84782">
        <ele>166</ele>
        <time>2022-05-22T05:55:10Z</time>
      </trkpt>
      <trkpt lat="48.64548" lon="1.84754">
        <ele>166</ele>
        <time>2022-05-22T05:55:14Z</time>
      </trkpt>
      <trkpt lat="48.64543" lon="1.84742">
        <ele>166</ele>
        <time>2022-05-22T05:55:16Z</time>
      </trkpt>
      <trkpt lat="48.64532" lon="1.84726">
        <ele>166</ele>
        <time>2022-05-22T05:55:18Z</time>
      </trkpt>
      <trkpt lat="48.64524" lon="1.84732">
        <ele>165</ele>
        <time>2022-05-22T05:55:20Z</time>
      </trkpt>
      <trkpt lat="48.64509" lon="1.84774">
        <ele>165</ele>
        <time>2022-05-22T05:55:25Z</time>
      </trkpt>
      <trkpt lat="48.64502" lon="1.84785">
        <ele>165</ele>
        <time>2022-05-22T05:55:27Z</time>
      </trkpt>
      <trkpt lat="48.64506" lon="1.84816">
        <ele>165</ele>
        <time>2022-05-22T05:55:31Z</time>
      </trkpt>
      <trkpt lat="48.64502" lon="1.84845">
        <ele>165</ele>
        <time>2022-05-22T05:55:34Z</time>
      </trkpt>
      <trkpt lat="48.64484" lon="1.84862">
        <ele>166</ele>
        <time>2022-05-22T05:55:38Z</time>
      </trkpt>
      <trkpt lat="48.6448" lon="1.84878">
        <ele>166</ele>
        <time>2022-05-22T05:55:40Z</time>
      </trkpt>
      <trkpt lat="48.64479" lon="1.84895">
        <ele>166</ele>
        <time>2022-05-22T05:55:42Z</time>
      </trkpt>
      <trkpt lat="48.64486" lon="1.85147">
        <ele>168</ele>
        <time>2022-05-22T05:56:12Z</time>
      </trkpt>
      <trkpt lat="48.64494" lon="1.85172">
        <ele>168</ele>
        <time>2022-05-22T05:56:15Z</time>
      </trkpt>
      <trkpt lat="48.64515" lon="1.85305">
        <ele>169</ele>
        <time>2022-05-22T05:56:31Z</time>
      </trkpt>
      <trkpt lat="48.64519" lon="1.85319">
        <ele>169</ele>
        <time>2022-05-22T05:56:33Z</time>
      </trkpt>
      <trkpt lat="48.64527" lon="1.85329">
        <ele>169</ele>
        <time>2022-05-22T05:56:35Z</time>
      </trkpt>
      <trkpt lat="48.64539" lon="1.85356">
        <ele>169</ele>
        <time>2022-05-22T05:56:39Z</time>
      </trkpt>
      <trkpt lat="48.64536" lon="1.85406">
        <ele>169</ele>
        <time>2022-05-22T05:56:45Z</time>
      </trkpt>
      <trkpt lat="48.64538" lon="1.85422">
        <ele>169</ele>
        <time>2022-05-22T05:56:47Z</time>
      </trkpt>
      <trkpt lat="48.64568" lon="1.85536">
        <ele>171</ele>
        <time>2022-05-22T05:57:01Z</time>
      </trkpt>
      <trkpt lat="48.64568" lon="1.85551">
        <ele>171</ele>
        <time>2022-05-22T05:57:03Z</time>
      </trkpt>
      <trkpt lat="48.64557" lon="1.85553">
        <ele>171</ele>
        <time>2022-05-22T05:57:05Z</time>
      </trkpt>
      <trkpt lat="48.64538" lon="1.8555">
        <ele>171</ele>
        <time>2022-05-22T05:57:08Z</time>
      </trkpt>
      <trkpt lat="48.64529" lon="1.85557">
        <ele>171</ele>
        <time>2022-05-22T05:57:10Z</time>
      </trkpt>
      <trkpt lat="48.64529" lon="1.85573">
        <ele>171</ele>
        <time>2022-05-22T05:57:12Z</time>
      </trkpt>
      <trkpt lat="48.64534" lon="1.85606">
        <ele>171</ele>
        <time>2022-05-22T05:57:16Z</time>
      </trkpt>
      <trkpt lat="48.64548" lon="1.85681">
        <ele>171</ele>
        <time>2022-05-22T05:57:25Z</time>
      </trkpt>
      <trkpt lat="48.64559" lon="1.85726">
        <ele>172</ele>
        <time>2022-05-22T05:57:31Z</time>
      </trkpt>
      <trkpt lat="48.64565" lon="1.85778">
        <ele>172</ele>
        <time>2022-05-22T05:57:37Z</time>
      </trkpt>
      <trkpt lat="48.64566" lon="1.85832">
        <ele>171</ele>
        <time>2022-05-22T05:57:43Z</time>
      </trkpt>
      <trkpt lat="48.6456" lon="1.85859">
        <ele>171</ele>
        <time>2022-05-22T05:57:46Z</time>
      </trkpt>
      <trkpt lat="48.64555" lon="1.85915">
        <ele>171</ele>
        <time>2022-05-22T05:57:53Z</time>
      </trkpt>
      <trkpt lat="48.64555" lon="1.85952">
        <ele>171</ele>
        <time>2022-05-22T05:57:57Z</time>
      </trkpt>
      <trkpt lat="48.64563" lon="1.85983">
        <ele>171</ele>
        <time>2022-05-22T05:58:01Z</time>
      </trkpt>
      <trkpt lat="48.64575" lon="1.86008">
        <ele>171</ele>
        <time>2022-05-22T05:58:05Z</time>
      </trkpt>
      <trkpt lat="48.64596" lon="1.86064">
        <ele>170</ele>
        <time>2022-05-22T05:58:13Z</time>
      </trkpt>
      <trkpt lat="48.64635" lon="1.86142">
        <ele>170</ele>
        <time>2022-05-22T05:58:24Z</time>
      </trkpt>
      <trkpt lat="48.64673" lon="1.86228">
        <ele>169</ele>
        <time>2022-05-22T05:58:36Z</time>
      </trkpt>
      <trkpt lat="48.64697" lon="1.86297">
        <ele>169</ele>
        <time>2022-05-22T05:58:45Z</time>
      </trkpt>
      <trkpt lat="48.64727" lon="1.86367">
        <ele>169</ele>
        <time>2022-05-22T05:58:55Z</time>
      </trkpt>
      <trkpt lat="48.64747" lon="1.86406">
        <ele>169</ele>
        <time>2022-05-22T05:59:01Z</time>
      </trkpt>
      <trkpt lat="48.64827" lon="1.86582">
        <ele>166</ele>
        <time>2022-05-22T05:59:26Z</time>
      </trkpt>
      <trkpt lat="48.64887" lon="1.86702">
        <ele>166</ele>
        <time>2022-05-22T05:59:44Z</time>
      </trkpt>
      <trkpt lat="48.64918" lon="1.86759">
        <ele>167</ele>
        <time>2022-05-22T05:59:52Z</time>
      </trkpt>
      <trkpt lat="48.64934" lon="1.86801">
        <ele>169</ele>
        <time>2022-05-22T05:59:58Z</time>
      </trkpt>
      <trkpt lat="48.64988" lon="1.86912">
        <ele>171</ele>
        <time>2022-05-22T06:00:14Z</time>
      </trkpt>
      <trkpt lat="48.65007" lon="1.86956">
        <ele>171</ele>
        <time>2022-05-22T06:00:21Z</time>
      </trkpt>
      <trkpt lat="48.65074" lon="1.87146">
        <ele>173</ele>
        <time>2022-05-22T06:00:46Z</time>
      </trkpt>
      <trkpt lat="48.65164" lon="1.87429">
        <ele>174</ele>
        <time>2022-05-22T06:01:23Z</time>
      </trkpt>
      <trkpt lat="48.65184" lon="1.87481">
        <ele>173</ele>
        <time>2022-05-22T06:01:30Z</time>
      </trkpt>
      <trkpt lat="48.65265" lon="1.8765">
        <ele>174</ele>
        <time>2022-05-22T06:01:54Z</time>
      </trkpt>
      <trkpt lat="48.65287" lon="1.87715">
        <ele>175</ele>
        <time>2022-05-22T06:02:03Z</time>
      </trkpt>
      <trkpt lat="48.65323" lon="1.87877">
        <ele>176</ele>
        <time>2022-05-22T06:02:23Z</time>
      </trkpt>
      <trkpt lat="48.65332" lon="1.87988">
        <ele>177</ele>
        <time>2022-05-22T06:02:36Z</time>
      </trkpt>
      <trkpt lat="48.65333" lon="1.88022">
        <ele>176</ele>
        <time>2022-05-22T06:02:40Z</time>
      </trkpt>
      <trkpt lat="48.65329" lon="1.8806">
        <ele>175</ele>
        <time>2022-05-22T06:02:45Z</time>
      </trkpt>
      <trkpt lat="48.65329" lon="1.881">
        <ele>174</ele>
        <time>2022-05-22T06:02:49Z</time>
      </trkpt>
      <trkpt lat="48.65321" lon="1.88213">
        <ele>171</ele>
        <time>2022-05-22T06:03:03Z</time>
      </trkpt>
      <trkpt lat="48.6532" lon="1.88286">
        <ele>170</ele>
        <time>2022-05-22T06:03:11Z</time>
      </trkpt>
      <trkpt lat="48.65317" lon="1.8834">
        <ele>169</ele>
        <time>2022-05-22T06:03:18Z</time>
      </trkpt>
      <trkpt lat="48.65312" lon="1.88376">
        <ele>169</ele>
        <time>2022-05-22T06:03:22Z</time>
      </trkpt>
      <trkpt lat="48.65311" lon="1.88463">
        <ele>171</ele>
        <time>2022-05-22T06:03:32Z</time>
      </trkpt>
      <trkpt lat="48.6532" lon="1.88577">
        <ele>174</ele>
        <time>2022-05-22T06:03:46Z</time>
      </trkpt>
      <trkpt lat="48.65334" lon="1.88652">
        <ele>175</ele>
        <time>2022-05-22T06:03:55Z</time>
      </trkpt>
      <trkpt lat="48.65358" lon="1.88764">
        <ele>175</ele>
        <time>2022-05-22T06:04:09Z</time>
      </trkpt>
      <trkpt lat="48.65369" lon="1.88803">
        <ele>175</ele>
        <time>2022-05-22T06:04:14Z</time>
      </trkpt>
      <trkpt lat="48.65396" lon="1.8894">
        <ele>174</ele>
        <time>2022-05-22T06:04:31Z</time>
      </trkpt>
      <trkpt lat="48.65404" lon="1.88967">
        <ele>174</ele>
        <time>2022-05-22T06:04:34Z</time>
      </trkpt>
      <trkpt lat="48.65422" lon="1.89055">
        <ele>174</ele>
        <time>2022-05-22T06:04:45Z</time>
      </trkpt>
      <trkpt lat="48.6544" lon="1.89127">
        <ele>174</ele>
        <time>2022-05-22T06:04:54Z</time>
      </trkpt>
      <trkpt lat="48.65458" lon="1.89171">
        <ele>174</ele>
        <time>2022-05-22T06:05:00Z</time>
      </trkpt>
      <trkpt lat="48.65478" lon="1.8923">
        <ele>175</ele>
        <time>2022-05-22T06:05:08Z</time>
      </trkpt>
      <trkpt lat="48.65516" lon="1.89321">
        <ele>175</ele>
        <time>2022-05-22T06:05:20Z</time>
      </trkpt>
      <trkpt lat="48.65563" lon="1.89515">
        <ele>177</ele>
        <time>2022-05-22T06:05:45Z</time>
      </trkpt>
      <trkpt lat="48.65584" lon="1.89579">
        <ele>178</ele>
        <time>2022-05-22T06:05:53Z</time>
      </trkpt>
      <trkpt lat="48.65608" lon="1.8964">
        <ele>180</ele>
        <time>2022-05-22T06:06:02Z</time>
      </trkpt>
      <trkpt lat="48.65627" lon="1.89679">
        <ele>180</ele>
        <time>2022-05-22T06:06:07Z</time>
      </trkpt>
      <trkpt lat="48.65665" lon="1.89745">
        <ele>180</ele>
        <time>2022-05-22T06:06:17Z</time>
      </trkpt>
      <trkpt lat="48.65687" lon="1.89795">
        <ele>180</ele>
        <time>2022-05-22T06:06:25Z</time>
      </trkpt>
      <trkpt lat="48.65715" lon="1.89887">
        <ele>179</ele>
        <time>2022-05-22T06:06:36Z</time>
      </trkpt>
      <trkpt lat="48.65717" lon="1.89901">
        <ele>180</ele>
        <time>2022-05-22T06:06:38Z</time>
      </trkpt>
      <trkpt lat="48.65759" lon="1.90054">
        <ele>180</ele>
        <time>2022-05-22T06:06:58Z</time>
      </trkpt>
      <trkpt lat="48.65802" lon="1.90197">
        <ele>180</ele>
        <time>2022-05-22T06:07:16Z</time>
      </trkpt>
      <trkpt lat="48.65807" lon="1.90226">
        <ele>180</ele>
        <time>2022-05-22T06:07:20Z</time>
      </trkpt>
      <trkpt lat="48.65809" lon="1.90301">
        <ele>180</ele>
        <time>2022-05-22T06:07:28Z</time>
      </trkpt>
      <trkpt lat="48.65804" lon="1.90429">
        <ele>180</ele>
        <time>2022-05-22T06:07:44Z</time>
      </trkpt>
      <trkpt lat="48.658" lon="1.90473">
        <ele>180</ele>
        <time>2022-05-22T06:07:49Z</time>
      </trkpt>
      <trkpt lat="48.65797" lon="1.90638">
        <ele>179</ele>
        <time>2022-05-22T06:08:08Z</time>
      </trkpt>
      <trkpt lat="48.65794" lon="1.90667">
        <ele>179</ele>
        <time>2022-05-22T06:08:12Z</time>
      </trkpt>
      <trkpt lat="48.65795" lon="1.90755">
        <ele>179</ele>
        <time>2022-05-22T06:08:22Z</time>
      </trkpt>
      <trkpt lat="48.65789" lon="1.90844">
        <ele>178</ele>
        <time>2022-05-22T06:08:32Z</time>
      </trkpt>
      <trkpt lat="48.6579" lon="1.90859">
        <ele>178</ele>
        <time>2022-05-22T06:08:34Z</time>
      </trkpt>
      <trkpt lat="48.65793" lon="1.90891">
        <ele>177</ele>
        <time>2022-05-22T06:08:38Z</time>
      </trkpt>
      <trkpt lat="48.65799" lon="1.90919">
        <ele>176</ele>
        <time>2022-05-22T06:08:41Z</time>
      </trkpt>
      <trkpt lat="48.65817" lon="1.90985">
        <ele>176</ele>
        <time>2022-05-22T06:08:50Z</time>
      </trkpt>
      <trkpt lat="48.65837" lon="1.91073">
        <ele>176</ele>
        <time>2022-05-22T06:09:01Z</time>
      </trkpt>
      <trkpt lat="48.65844" lon="1.91129">
        <ele>177</ele>
        <time>2022-05-22T06:09:07Z</time>
      </trkpt>
      <trkpt lat="48.65871" lon="1.91239">
        <ele>177</ele>
        <time>2022-05-22T06:09:21Z</time>
      </trkpt>
      <trkpt lat="48.65881" lon="1.91294">
        <ele>177</ele>
        <time>2022-05-22T06:09:28Z</time>
      </trkpt>
      <trkpt lat="48.65922" lon="1.91461">
        <ele>174</ele>
        <time>2022-05-22T06:09:49Z</time>
      </trkpt>
      <trkpt lat="48.65924" lon="1.91475">
        <ele>174</ele>
        <time>2022-05-22T06:09:51Z</time>
      </trkpt>
      <trkpt lat="48.65921" lon="1.91492">
        <ele>175</ele>
        <time>2022-05-22T06:09:53Z</time>
      </trkpt>
      <trkpt lat="48.65909" lon="1.91517">
        <ele>175</ele>
        <time>2022-05-22T06:09:56Z</time>
      </trkpt>
      <trkpt lat="48.65917" lon="1.91499">
        <ele>175</ele>
        <time>2022-05-22T06:09:59Z</time>
      </trkpt>
      <trkpt lat="48.65926" lon="1.91503">
        <ele>174</ele>
        <time>2022-05-22T06:10:01Z</time>
      </trkpt>
      <trkpt lat="48.65938" lon="1.91531">
        <ele>173</ele>
        <time>2022-05-22T06:10:04Z</time>
      </trkpt>
      <trkpt lat="48.66029" lon="1.91688">
        <ele>170</ele>
        <time>2022-05-22T06:10:29Z</time>
      </trkpt>
      <trkpt lat="48.66039" lon="1.91712">
        <ele>170</ele>
        <time>2022-05-22T06:10:32Z</time>
      </trkpt>
      <trkpt lat="48.66055" lon="1.9177">
        <ele>170</ele>
        <time>2022-05-22T06:10:40Z</time>
      </trkpt>
      <trkpt lat="48.66124" lon="1.92079">
        <ele>167</ele>
        <time>2022-05-22T06:11:18Z</time>
      </trkpt>
      <trkpt lat="48.66168" lon="1.92264">
        <ele>168</ele>
        <time>2022-05-22T06:11:41Z</time>
      </trkpt>
      <trkpt lat="48.66193" lon="1.92345">
        <ele>170</ele>
        <time>2022-05-22T06:11:52Z</time>
      </trkpt>
      <trkpt lat="48.66279" lon="1.92571">
        <ele>171</ele>
        <time>2022-05-22T06:12:22Z</time>
      </trkpt>
      <trkpt lat="48.66299" lon="1.92642">
        <ele>169</ele>
        <time>2022-05-22T06:12:31Z</time>
      </trkpt>
      <trkpt lat="48.66335" lon="1.928">
        <ele>169</ele>
        <time>2022-05-22T06:12:51Z</time>
      </trkpt>
      <trkpt lat="48.6637" lon="1.92935">
        <ele>170</ele>
        <time>2022-05-22T06:13:08Z</time>
      </trkpt>
      <trkpt lat="48.66378" lon="1.92971">
        <ele>171</ele>
        <time>2022-05-22T06:13:13Z</time>
      </trkpt>
      <trkpt lat="48.66387" lon="1.93062">
        <ele>174</ele>
        <time>2022-05-22T06:13:23Z</time>
      </trkpt>
      <trkpt lat="48.6639" lon="1.93177">
        <ele>175</ele>
        <time>2022-05-22T06:13:37Z</time>
      </trkpt>
      <trkpt lat="48.66401" lon="1.93235">
        <ele>174</ele>
        <time>2022-05-22T06:13:44Z</time>
      </trkpt>
      <trkpt lat="48.6642" lon="1.93289">
        <ele>174</ele>
        <time>2022-05-22T06:13:51Z</time>
      </trkpt>
      <trkpt lat="48.66434" lon="1.93347">
        <ele>174</ele>
        <time>2022-05-22T06:13:58Z</time>
      </trkpt>
      <trkpt lat="48.6645" lon="1.9339">
        <ele>175</ele>
        <time>2022-05-22T06:14:04Z</time>
      </trkpt>
      <trkpt lat="48.66477" lon="1.93477">
        <ele>174</ele>
        <time>2022-05-22T06:14:16Z</time>
      </trkpt>
      <trkpt lat="48.66537" lon="1.93684">
        <ele>172</ele>
        <time>2022-05-22T06:14:42Z</time>
      </trkpt>
      <trkpt lat="48.66577" lon="1.93772">
        <ele>172</ele>
        <time>2022-05-22T06:14:55Z</time>
      </trkpt>
      <trkpt lat="48.66649" lon="1.93878">
        <ele>169</ele>
        <time>2022-05-22T06:15:13Z</time>
      </trkpt>
      <trkpt lat="48.66674" lon="1.93921">
        <ele>168</ele>
        <time>2022-05-22T06:15:19Z</time>
      </trkpt>
      <trkpt lat="48.66691" lon="1.93958">
        <ele>166</ele>
        <time>2022-05-22T06:15:25Z</time>
      </trkpt>
      <trkpt lat="48.66722" lon="1.94043">
        <ele>165</ele>
        <time>2022-05-22T06:15:36Z</time>
      </trkpt>
      <trkpt lat="48.66747" lon="1.94134">
        <ele>165</ele>
        <time>2022-05-22T06:15:48Z</time>
      </trkpt>
      <trkpt lat="48.66784" lon="1.94255">
        <ele>164</ele>
        <time>2022-05-22T06:16:03Z</time>
      </trkpt>
      <trkpt lat="48.668" lon="1.94299">
        <ele>165</ele>
        <time>2022-05-22T06:16:09Z</time>
      </trkpt>
      <trkpt lat="48.66824" lon="1.94383">
        <ele>164</ele>
        <time>2022-05-22T06:16:20Z</time>
      </trkpt>
      <trkpt lat="48.66847" lon="1.94496">
        <ele>162</ele>
        <time>2022-05-22T06:16:34Z</time>
      </trkpt>
      <trkpt lat="48.6688" lon="1.94639">
        <ele>164</ele>
        <time>2022-05-22T06:16:52Z</time>
      </trkpt>
      <trkpt lat="48.66888" lon="1.94726">
        <ele>165</ele>
        <time>2022-05-22T06:17:02Z</time>
      </trkpt>
      <trkpt lat="48.66888" lon="1.94759">
        <ele>165</ele>
        <time>2022-05-22T06:17:06Z</time>
      </trkpt>
      <trkpt lat="48.6688" lon="1.94873">
        <ele>165</ele>
        <time>2022-05-22T06:17:19Z</time>
      </trkpt>
      <trkpt lat="48.66853" lon="1.95079">
        <ele>170</ele>
        <time>2022-05-22T06:17:44Z</time>
      </trkpt>
      <trkpt lat="48.66853" lon="1.95177">
        <ele>172</ele>
        <time>2022-05-22T06:17:55Z</time>
      </trkpt>
      <trkpt lat="48.66863" lon="1.95245">
        <ele>172</ele>
        <time>2022-05-22T06:18:04Z</time>
      </trkpt>
      <trkpt lat="48.66907" lon="1.95426">
        <ele>171</ele>
        <time>2022-05-22T06:18:26Z</time>
      </trkpt>
      <trkpt lat="48.66915" lon="1.95523">
        <ele>170</ele>
        <time>2022-05-22T06:18:38Z</time>
      </trkpt>
      <trkpt lat="48.66921" lon="1.95555">
        <ele>169</ele>
        <time>2022-05-22T06:18:42Z</time>
      </trkpt>
      <trkpt lat="48.66921" lon="1.9557">
        <ele>168</ele>
        <time>2022-05-22T06:18:43Z</time>
      </trkpt>
      <trkpt lat="48.66929" lon="1.95627">
        <ele>168</ele>
        <time>2022-05-22T06:18:50Z</time>
      </trkpt>
      <trkpt lat="48.66935" lon="1.95657">
        <ele>168</ele>
        <time>2022-05-22T06:18:54Z</time>
      </trkpt>
      <trkpt lat="48.66943" lon="1.95668">
        <ele>168</ele>
        <time>2022-05-22T06:18:56Z</time>
      </trkpt>
      <trkpt lat="48.66952" lon="1.95669">
        <ele>168</ele>
        <time>2022-05-22T06:18:57Z</time>
      </trkpt>
      <trkpt lat="48.66961" lon="1.95662">
        <ele>169</ele>
        <time>2022-05-22T06:18:59Z</time>
      </trkpt>
      <trkpt lat="48.66972" lon="1.95659">
        <ele>169</ele>
        <time>2022-05-22T06:19:01Z</time>
      </trkpt>
      <trkpt lat="48.67019" lon="1.95653">
        <ele>168</ele>
        <time>2022-05-22T06:19:10Z</time>
      </trkpt>
      <trkpt lat="48.67054" lon="1.95636">
        <ele>166</ele>
        <time>2022-05-22T06:19:16Z</time>
      </trkpt>
      <trkpt lat="48.67075" lon="1.95623">
        <ele>165</ele>
        <time>2022-05-22T06:19:20Z</time>
      </trkpt>
      <trkpt lat="48.6709" lon="1.95623">
        <ele>164</ele>
        <time>2022-05-22T06:19:23Z</time>
      </trkpt>
      <trkpt lat="48.67128" lon="1.95641">
        <ele>161</ele>
        <time>2022-05-22T06:19:30Z</time>
      </trkpt>
      <trkpt lat="48.67164" lon="1.95667">
        <ele>158</ele>
        <time>2022-05-22T06:19:37Z</time>
      </trkpt>
      <trkpt lat="48.67172" lon="1.95676">
        <ele>157</ele>
        <time>2022-05-22T06:19:39Z</time>
      </trkpt>
      <trkpt lat="48.67188" lon="1.95698">
        <ele>155</ele>
        <time>2022-05-22T06:19:43Z</time>
      </trkpt>
      <trkpt lat="48.67192" lon="1.95713">
        <ele>154</ele>
        <time>2022-05-22T06:19:45Z</time>
      </trkpt>
      <trkpt lat="48.67193" lon="1.95729">
        <ele>153</ele>
        <time>2022-05-22T06:19:46Z</time>
      </trkpt>
      <trkpt lat="48.67191" lon="1.95744">
        <ele>153</ele>
        <time>2022-05-22T06:19:48Z</time>
      </trkpt>
      <trkpt lat="48.67187" lon="1.95758">
        <ele>152</ele>
        <time>2022-05-22T06:19:50Z</time>
      </trkpt>
      <trkpt lat="48.67159" lon="1.9582">
        <ele>150</ele>
        <time>2022-05-22T06:19:59Z</time>
      </trkpt>
      <trkpt lat="48.67146" lon="1.95842">
        <ele>147</ele>
        <time>2022-05-22T06:20:02Z</time>
      </trkpt>
      <trkpt lat="48.67123" lon="1.95871">
        <ele>145</ele>
        <time>2022-05-22T06:20:08Z</time>
      </trkpt>
      <trkpt lat="48.67118" lon="1.95883">
        <ele>146</ele>
        <time>2022-05-22T06:20:09Z</time>
      </trkpt>
      <trkpt lat="48.67114" lon="1.95898">
        <ele>146</ele>
        <time>2022-05-22T06:20:11Z</time>
      </trkpt>
      <trkpt lat="48.67116" lon="1.95926">
        <ele>147</ele>
        <time>2022-05-22T06:20:15Z</time>
      </trkpt>
      <trkpt lat="48.6712" lon="1.95939">
        <ele>146</ele>
        <time>2022-05-22T06:20:16Z</time>
      </trkpt>
      <trkpt lat="48.67139" lon="1.95968">
        <ele>146</ele>
        <time>2022-05-22T06:20:21Z</time>
      </trkpt>
      <trkpt lat="48.67201" lon="1.96019">
        <ele>142</ele>
        <time>2022-05-22T06:20:34Z</time>
      </trkpt>
      <trkpt lat="48.67241" lon="1.96057">
        <ele>139</ele>
        <time>2022-05-22T06:20:42Z</time>
      </trkpt>
      <trkpt lat="48.67277" lon="1.96083">
        <ele>136</ele>
        <time>2022-05-22T06:20:49Z</time>
      </trkpt>
      <trkpt lat="48.67369" lon="1.96138">
        <ele>129</ele>
        <time>2022-05-22T06:21:07Z</time>
      </trkpt>
      <trkpt lat="48.674" lon="1.96154">
        <ele>127</ele>
        <time>2022-05-22T06:21:13Z</time>
      </trkpt>
      <trkpt lat="48.67436" lon="1.96181">
        <ele>126</ele>
        <time>2022-05-22T06:21:20Z</time>
      </trkpt>
      <trkpt lat="48.67446" lon="1.96185">
        <ele>126</ele>
        <time>2022-05-22T06:21:22Z</time>
      </trkpt>
      <trkpt lat="48.67457" lon="1.96185">
        <ele>126</ele>
        <time>2022-05-22T06:21:23Z</time>
      </trkpt>
      <trkpt lat="48.67464" lon="1.96174">
        <ele>126</ele>
        <time>2022-05-22T06:21:25Z</time>
      </trkpt>
      <trkpt lat="48.67474" lon="1.96176">
        <ele>126</ele>
        <time>2022-05-22T06:21:27Z</time>
      </trkpt>
      <trkpt lat="48.6749" lon="1.9619">
        <ele>127</ele>
        <time>2022-05-22T06:21:30Z</time>
      </trkpt>
      <trkpt lat="48.67502" lon="1.96194">
        <ele>127</ele>
        <time>2022-05-22T06:21:33Z</time>
      </trkpt>
      <trkpt lat="48.6751" lon="1.962">
        <ele>127</ele>
        <time>2022-05-22T06:21:34Z</time>
      </trkpt>
      <trkpt lat="48.67519" lon="1.96201">
        <ele>126</ele>
        <time>2022-05-22T06:21:36Z</time>
      </trkpt>
      <trkpt lat="48.67527" lon="1.96207">
        <ele>126</ele>
        <time>2022-05-22T06:21:37Z</time>
      </trkpt>
      <trkpt lat="48.67536" lon="1.96205">
        <ele>126</ele>
        <time>2022-05-22T06:21:39Z</time>
      </trkpt>
      <trkpt lat="48.67527" lon="1.96196">
        <ele>126</ele>
        <time>2022-05-22T06:21:41Z</time>
      </trkpt>
      <trkpt lat="48.67531" lon="1.96184">
        <ele>125</ele>
        <time>2022-05-22T06:21:42Z</time>
      </trkpt>
      <trkpt lat="48.67531" lon="1.9617">
        <ele>125</ele>
        <time>2022-05-22T06:21:44Z</time>
      </trkpt>
      <trkpt lat="48.67523" lon="1.96143">
        <ele>124</ele>
        <time>2022-05-22T06:21:48Z</time>
      </trkpt>
      <trkpt lat="48.67517" lon="1.96133">
        <ele>124</ele>
        <time>2022-05-22T06:21:49Z</time>
      </trkpt>
      <trkpt lat="48.6752" lon="1.96119">
        <ele>124</ele>
        <time>2022-05-22T06:21:51Z</time>
      </trkpt>
      <trkpt lat="48.67529" lon="1.96114">
        <ele>123</ele>
        <time>2022-05-22T06:21:53Z</time>
      </trkpt>
      <trkpt lat="48.67596" lon="1.96121">
        <ele>121</ele>
        <time>2022-05-22T06:22:05Z</time>
      </trkpt>
      <trkpt lat="48.67652" lon="1.96138">
        <ele>124</ele>
        <time>2022-05-22T06:22:15Z</time>
      </trkpt>
      <trkpt lat="48.6767" lon="1.96132">
        <ele>126</ele>
        <time>2022-05-22T06:22:18Z</time>
      </trkpt>
      <trkpt lat="48.67679" lon="1.96139">
        <ele>129</ele>
        <time>2022-05-22T06:22:20Z</time>
      </trkpt>
      <trkpt lat="48.67692" lon="1.96159">
        <ele>134</ele>
        <time>2022-05-22T06:22:23Z</time>
      </trkpt>
      <trkpt lat="48.67689" lon="1.96174">
        <ele>133</ele>
        <time>2022-05-22T06:22:25Z</time>
      </trkpt>
      <trkpt lat="48.6768" lon="1.96148">
        <ele>129</ele>
        <time>2022-05-22T06:22:28Z</time>
      </trkpt>
      <trkpt lat="48.67678" lon="1.96135">
        <ele>128</ele>
        <time>2022-05-22T06:22:30Z</time>
      </trkpt>
      <trkpt lat="48.67687" lon="1.96175">
        <ele>132</ele>
        <time>2022-05-22T06:22:35Z</time>
      </trkpt>
      <trkpt lat="48.67682" lon="1.96187">
        <ele>130</ele>
        <time>2022-05-22T06:22:37Z</time>
      </trkpt>
      <trkpt lat="48.67666" lon="1.96201">
        <ele>125</ele>
        <time>2022-05-22T06:22:40Z</time>
      </trkpt>
      <trkpt lat="48.6766" lon="1.96213">
        <ele>125</ele>
        <time>2022-05-22T06:22:42Z</time>
      </trkpt>
      <trkpt lat="48.67661" lon="1.96227">
        <ele>126</ele>
        <time>2022-05-22T06:22:43Z</time>
      </trkpt>
      <trkpt lat="48.6767" lon="1.96252">
        <ele>127</ele>
        <time>2022-05-22T06:22:47Z</time>
      </trkpt>
      <trkpt lat="48.67693" lon="1.96277">
        <ele>131</ele>
        <time>2022-05-22T06:22:52Z</time>
      </trkpt>
      <trkpt lat="48.67705" lon="1.96299">
        <ele>132</ele>
        <time>2022-05-22T06:22:55Z</time>
      </trkpt>
      <trkpt lat="48.67711" lon="1.96289">
        <ele>135</ele>
        <time>2022-05-22T06:22:57Z</time>
      </trkpt>
      <trkpt lat="48.67714" lon="1.96276">
        <ele>137</ele>
        <time>2022-05-22T06:22:58Z</time>
      </trkpt>
      <trkpt lat="48.67726" lon="1.96287">
        <ele>139</ele>
        <time>2022-05-22T06:23:01Z</time>
      </trkpt>
      <trkpt lat="48.67734" lon="1.96279">
        <ele>142</ele>
        <time>2022-05-22T06:23:02Z</time>
      </trkpt>
      <trkpt lat="48.67722" lon="1.96285">
        <ele>138</ele>
        <time>2022-05-22T06:23:05Z</time>
      </trkpt>
      <trkpt lat="48.67732" lon="1.96283">
        <ele>141</ele>
        <time>2022-05-22T06:23:06Z</time>
      </trkpt>
      <trkpt lat="48.67725" lon="1.96292">
        <ele>138</ele>
        <time>2022-05-22T06:23:08Z</time>
      </trkpt>
      <trkpt lat="48.67717" lon="1.96286">
        <ele>137</ele>
        <time>2022-05-22T06:23:10Z</time>
      </trkpt>
      <trkpt lat="48.67715" lon="1.96303">
        <ele>134</ele>
        <time>2022-05-22T06:23:12Z</time>
      </trkpt>
      <trkpt lat="48.67705" lon="1.96306">
        <ele>131</ele>
        <time>2022-05-22T06:23:14Z</time>
      </trkpt>
      <trkpt lat="48.67703" lon="1.9632">
        <ele>129</ele>
        <time>2022-05-22T06:23:15Z</time>
      </trkpt>
      <trkpt lat="48.6771" lon="1.96348">
        <ele>129</ele>
        <time>2022-05-22T06:23:19Z</time>
      </trkpt>
      <trkpt lat="48.67722" lon="1.96371">
        <ele>129</ele>
        <time>2022-05-22T06:23:22Z</time>
      </trkpt>
      <trkpt lat="48.6773" lon="1.96381">
        <ele>129</ele>
        <time>2022-05-22T06:23:24Z</time>
      </trkpt>
      <trkpt lat="48.67742" lon="1.96404">
        <ele>128</ele>
        <time>2022-05-22T06:23:27Z</time>
      </trkpt>
      <trkpt lat="48.6775" lon="1.96411">
        <ele>128</ele>
        <time>2022-05-22T06:23:29Z</time>
      </trkpt>
      <trkpt lat="48.67757" lon="1.96422">
        <ele>128</ele>
        <time>2022-05-22T06:23:31Z</time>
      </trkpt>
      <trkpt lat="48.67742" lon="1.96457">
        <ele>127</ele>
        <time>2022-05-22T06:23:36Z</time>
      </trkpt>
      <trkpt lat="48.67732" lon="1.96458">
        <ele>126</ele>
        <time>2022-05-22T06:23:38Z</time>
      </trkpt>
      <trkpt lat="48.67708" lon="1.96434">
        <ele>124</ele>
        <time>2022-05-22T06:23:43Z</time>
      </trkpt>
      <trkpt lat="48.67698" lon="1.96432">
        <ele>123</ele>
        <time>2022-05-22T06:23:45Z</time>
      </trkpt>
      <trkpt lat="48.67679" lon="1.96435">
        <ele>121</ele>
        <time>2022-05-22T06:23:48Z</time>
      </trkpt>
      <trkpt lat="48.67669" lon="1.9643">
        <ele>120</ele>
        <time>2022-05-22T06:23:50Z</time>
      </trkpt>
      <trkpt lat="48.67653" lon="1.96414">
        <ele>120</ele>
        <time>2022-05-22T06:23:53Z</time>
      </trkpt>
      <trkpt lat="48.67644" lon="1.96388">
        <ele>121</ele>
        <time>2022-05-22T06:23:57Z</time>
      </trkpt>
      <trkpt lat="48.67625" lon="1.96385">
        <ele>124</ele>
        <time>2022-05-22T06:24:00Z</time>
      </trkpt>
      <trkpt lat="48.67616" lon="1.9638">
        <ele>125</ele>
        <time>2022-05-22T06:24:02Z</time>
      </trkpt>
      <trkpt lat="48.67599" lon="1.9633">
        <ele>128</ele>
        <time>2022-05-22T06:24:08Z</time>
      </trkpt>
      <trkpt lat="48.67598" lon="1.96316">
        <ele>127</ele>
        <time>2022-05-22T06:24:10Z</time>
      </trkpt>
      <trkpt lat="48.67592" lon="1.96306">
        <ele>128</ele>
        <time>2022-05-22T06:24:12Z</time>
      </trkpt>
      <trkpt lat="48.67583" lon="1.96303">
        <ele>128</ele>
        <time>2022-05-22T06:24:13Z</time>
      </trkpt>
      <trkpt lat="48.67575" lon="1.96296">
        <ele>128</ele>
        <time>2022-05-22T06:24:15Z</time>
      </trkpt>
      <trkpt lat="48.67571" lon="1.96283">
        <ele>128</ele>
        <time>2022-05-22T06:24:17Z</time>
      </trkpt>
      <trkpt lat="48.67557" lon="1.9626">
        <ele>127</ele>
        <time>2022-05-22T06:24:20Z</time>
      </trkpt>
      <trkpt lat="48.67547" lon="1.96235">
        <ele>126</ele>
        <time>2022-05-22T06:24:24Z</time>
      </trkpt>
      <trkpt lat="48.6754" lon="1.96224">
        <ele>126</ele>
        <time>2022-05-22T06:24:25Z</time>
      </trkpt>
      <trkpt lat="48.6753" lon="1.96216">
        <ele>126</ele>
        <time>2022-05-22T06:24:27Z</time>
      </trkpt>
      <trkpt lat="48.67519" lon="1.96194">
        <ele>126</ele>
        <time>2022-05-22T06:24:31Z</time>
      </trkpt>
      <trkpt lat="48.67492" lon="1.96177">
        <ele>126</ele>
        <time>2022-05-22T06:24:36Z</time>
      </trkpt>
      <trkpt lat="48.67482" lon="1.96175">
        <ele>126</ele>
        <time>2022-05-22T06:24:38Z</time>
      </trkpt>
      <trkpt lat="48.67465" lon="1.96187">
        <ele>127</ele>
        <time>2022-05-22T06:24:41Z</time>
      </trkpt>
      <trkpt lat="48.67456" lon="1.96189">
        <ele>127</ele>
        <time>2022-05-22T06:24:43Z</time>
      </trkpt>
      <trkpt lat="48.67436" lon="1.96182">
        <ele>126</ele>
        <time>2022-05-22T06:24:46Z</time>
      </trkpt>
      <trkpt lat="48.67428" lon="1.96176">
        <ele>126</ele>
        <time>2022-05-22T06:24:48Z</time>
      </trkpt>
      <trkpt lat="48.67418" lon="1.96176">
        <ele>126</ele>
        <time>2022-05-22T06:24:50Z</time>
      </trkpt>
      <trkpt lat="48.67421" lon="1.9619">
        <ele>126</ele>
        <time>2022-05-22T06:24:51Z</time>
      </trkpt>
      <trkpt lat="48.67429" lon="1.96197">
        <ele>126</ele>
        <time>2022-05-22T06:24:53Z</time>
      </trkpt>
      <trkpt lat="48.67456" lon="1.9624">
        <ele>128</ele>
        <time>2022-05-22T06:25:00Z</time>
      </trkpt>
      <trkpt lat="48.67471" lon="1.96258">
        <ele>129</ele>
        <time>2022-05-22T06:25:03Z</time>
      </trkpt>
      <trkpt lat="48.67539" lon="1.96323">
        <ele>132</ele>
        <time>2022-05-22T06:25:18Z</time>
      </trkpt>
      <trkpt lat="48.67547" lon="1.96337">
        <ele>133</ele>
        <time>2022-05-22T06:25:20Z</time>
      </trkpt>
      <trkpt lat="48.67558" lon="1.96366">
        <ele>133</ele>
        <time>2022-05-22T06:25:24Z</time>
      </trkpt>
      <trkpt lat="48.6756" lon="1.9638">
        <ele>133</ele>
        <time>2022-05-22T06:25:26Z</time>
      </trkpt>
      <trkpt lat="48.67559" lon="1.96414">
        <ele>135</ele>
        <time>2022-05-22T06:25:30Z</time>
      </trkpt>
      <trkpt lat="48.67555" lon="1.96445">
        <ele>135</ele>
        <time>2022-05-22T06:25:33Z</time>
      </trkpt>
      <trkpt lat="48.67547" lon="1.96474">
        <ele>137</ele>
        <time>2022-05-22T06:25:37Z</time>
      </trkpt>
      <trkpt lat="48.67534" lon="1.96514">
        <ele>141</ele>
        <time>2022-05-22T06:25:42Z</time>
      </trkpt>
      <trkpt lat="48.67528" lon="1.96526">
        <ele>143</ele>
        <time>2022-05-22T06:25:44Z</time>
      </trkpt>
      <trkpt lat="48.67521" lon="1.96535">
        <ele>144</ele>
        <time>2022-05-22T06:25:46Z</time>
      </trkpt>
      <trkpt lat="48.67493" lon="1.96554">
        <ele>149</ele>
        <time>2022-05-22T06:25:51Z</time>
      </trkpt>
      <trkpt lat="48.67476" lon="1.96571">
        <ele>149</ele>
        <time>2022-05-22T06:25:55Z</time>
      </trkpt>
      <trkpt lat="48.67444" lon="1.96612">
        <ele>150</ele>
        <time>2022-05-22T06:26:02Z</time>
      </trkpt>
      <trkpt lat="48.67401" lon="1.96676">
        <ele>150</ele>
        <time>2022-05-22T06:26:13Z</time>
      </trkpt>
      <trkpt lat="48.67392" lon="1.96705">
        <ele>152</ele>
        <time>2022-05-22T06:26:17Z</time>
      </trkpt>
      <trkpt lat="48.67384" lon="1.96762">
        <ele>155</ele>
        <time>2022-05-22T06:26:23Z</time>
      </trkpt>
      <trkpt lat="48.67379" lon="1.96868">
        <ele>157</ele>
        <time>2022-05-22T06:26:36Z</time>
      </trkpt>
      <trkpt lat="48.67367" lon="1.96927">
        <ele>157</ele>
        <time>2022-05-22T06:26:43Z</time>
      </trkpt>
      <trkpt lat="48.67348" lon="1.96984">
        <ele>158</ele>
        <time>2022-05-22T06:26:51Z</time>
      </trkpt>
      <trkpt lat="48.67331" lon="1.97119">
        <ele>160</ele>
        <time>2022-05-22T06:27:07Z</time>
      </trkpt>
      <trkpt lat="48.67335" lon="1.97134">
        <ele>160</ele>
        <time>2022-05-22T06:27:09Z</time>
      </trkpt>
      <trkpt lat="48.67349" lon="1.97156">
        <ele>161</ele>
        <time>2022-05-22T06:27:12Z</time>
      </trkpt>
      <trkpt lat="48.67359" lon="1.9718">
        <ele>163</ele>
        <time>2022-05-22T06:27:16Z</time>
      </trkpt>
      <trkpt lat="48.67369" lon="1.97223">
        <ele>165</ele>
        <time>2022-05-22T06:27:21Z</time>
      </trkpt>
      <trkpt lat="48.6737" lon="1.97239">
        <ele>166</ele>
        <time>2022-05-22T06:27:23Z</time>
      </trkpt>
      <trkpt lat="48.67365" lon="1.97335">
        <ele>168</ele>
        <time>2022-05-22T06:27:34Z</time>
      </trkpt>
      <trkpt lat="48.67362" lon="1.97348">
        <ele>167</ele>
        <time>2022-05-22T06:27:36Z</time>
      </trkpt>
      <trkpt lat="48.67355" lon="1.97361">
        <ele>167</ele>
        <time>2022-05-22T06:27:38Z</time>
      </trkpt>
      <trkpt lat="48.67355" lon="1.97417">
        <ele>168</ele>
        <time>2022-05-22T06:27:44Z</time>
      </trkpt>
      <trkpt lat="48.67343" lon="1.97475">
        <ele>168</ele>
        <time>2022-05-22T06:27:52Z</time>
      </trkpt>
      <trkpt lat="48.67306" lon="1.97598">
        <ele>169</ele>
        <time>2022-05-22T06:28:07Z</time>
      </trkpt>
      <trkpt lat="48.67278" lon="1.97719">
        <ele>168</ele>
        <time>2022-05-22T06:28:22Z</time>
      </trkpt>
      <trkpt lat="48.67249" lon="1.97814">
        <ele>168</ele>
        <time>2022-05-22T06:28:35Z</time>
      </trkpt>
      <trkpt lat="48.67242" lon="1.97829">
        <ele>168</ele>
        <time>2022-05-22T06:28:37Z</time>
      </trkpt>
      <trkpt lat="48.67206" lon="1.97936">
        <ele>168</ele>
        <time>2022-05-22T06:28:51Z</time>
      </trkpt>
      <trkpt lat="48.67133" lon="1.98109">
        <ele>169</ele>
        <time>2022-05-22T06:29:15Z</time>
      </trkpt>
      <trkpt lat="48.67004" lon="1.98441">
        <ele>168</ele>
        <time>2022-05-22T06:30:00Z</time>
      </trkpt>
      <trkpt lat="48.66959" lon="1.98582">
        <ele>168</ele>
        <time>2022-05-22T06:30:19Z</time>
      </trkpt>
      <trkpt lat="48.66895" lon="1.9882">
        <ele>169</ele>
        <time>2022-05-22T06:30:49Z</time>
      </trkpt>
      <trkpt lat="48.6689" lon="1.98834">
        <ele>169</ele>
        <time>2022-05-22T06:30:51Z</time>
      </trkpt>
      <trkpt lat="48.66871" lon="1.98853">
        <ele>168</ele>
        <time>2022-05-22T06:30:55Z</time>
      </trkpt>
      <trkpt lat="48.66867" lon="1.98866">
        <ele>168</ele>
        <time>2022-05-22T06:30:57Z</time>
      </trkpt>
      <trkpt lat="48.66873" lon="1.98897">
        <ele>168</ele>
        <time>2022-05-22T06:31:00Z</time>
      </trkpt>
      <trkpt lat="48.66856" lon="1.98965">
        <ele>169</ele>
        <time>2022-05-22T06:31:09Z</time>
      </trkpt>
      <trkpt lat="48.66465" lon="2.00419">
        <ele>172</ele>
        <time>2022-05-22T06:34:13Z</time>
      </trkpt>
      <trkpt lat="48.66412" lon="2.00623">
        <ele>171</ele>
        <time>2022-05-22T06:34:39Z</time>
      </trkpt>
      <trkpt lat="48.66392" lon="2.0069">
        <ele>171</ele>
        <time>2022-05-22T06:34:48Z</time>
      </trkpt>
      <trkpt lat="48.6633" lon="2.00921">
        <ele>174</ele>
        <time>2022-05-22T06:35:17Z</time>
      </trkpt>
      <trkpt lat="48.66295" lon="2.0104">
        <ele>173</ele>
        <time>2022-05-22T06:35:32Z</time>
      </trkpt>
      <trkpt lat="48.66257" lon="2.01191">
        <ele>176</ele>
        <time>2022-05-22T06:35:51Z</time>
      </trkpt>
      <trkpt lat="48.66211" lon="2.01352">
        <ele>178</ele>
        <time>2022-05-22T06:36:12Z</time>
      </trkpt>
      <trkpt lat="48.66187" lon="2.01445">
        <ele>178</ele>
        <time>2022-05-22T06:36:24Z</time>
      </trkpt>
      <trkpt lat="48.66151" lon="2.01553">
        <ele>176</ele>
        <time>2022-05-22T06:36:38Z</time>
      </trkpt>
      <trkpt lat="48.66133" lon="2.01599">
        <ele>174</ele>
        <time>2022-05-22T06:36:44Z</time>
      </trkpt>
      <trkpt lat="48.66047" lon="2.01802">
        <ele>175</ele>
        <time>2022-05-22T06:37:13Z</time>
      </trkpt>
      <trkpt lat="48.65902" lon="2.02161">
        <ele>171</ele>
        <time>2022-05-22T06:38:02Z</time>
      </trkpt>
      <trkpt lat="48.65872" lon="2.02228">
        <ele>170</ele>
        <time>2022-05-22T06:38:12Z</time>
      </trkpt>
      <trkpt lat="48.65766" lon="2.02486">
        <ele>168</ele>
        <time>2022-05-22T06:38:47Z</time>
      </trkpt>
      <trkpt lat="48.65738" lon="2.02543">
        <ele>168</ele>
        <time>2022-05-22T06:38:56Z</time>
      </trkpt>
      <trkpt lat="48.65714" lon="2.02584">
        <ele>168</ele>
        <time>2022-05-22T06:39:02Z</time>
      </trkpt>
      <trkpt lat="48.65677" lon="2.02635">
        <ele>167</ele>
        <time>2022-05-22T06:39:11Z</time>
      </trkpt>
      <trkpt lat="48.65515" lon="2.02826">
        <ele>165</ele>
        <time>2022-05-22T06:39:48Z</time>
      </trkpt>
      <trkpt lat="48.65506" lon="2.02833">
        <ele>165</ele>
        <time>2022-05-22T06:39:49Z</time>
      </trkpt>
      <trkpt lat="48.65494" lon="2.02851">
        <ele>165</ele>
        <time>2022-05-22T06:39:52Z</time>
      </trkpt>
      <trkpt lat="48.65462" lon="2.02889">
        <ele>165</ele>
        <time>2022-05-22T06:40:00Z</time>
      </trkpt>
      <trkpt lat="48.65131" lon="2.03275">
        <ele>172</ele>
        <time>2022-05-22T06:41:14Z</time>
      </trkpt>
      <trkpt lat="48.65097" lon="2.0332">
        <ele>172</ele>
        <time>2022-05-22T06:41:22Z</time>
      </trkpt>
      <trkpt lat="48.65074" lon="2.03363">
        <ele>172</ele>
        <time>2022-05-22T06:41:28Z</time>
      </trkpt>
      <trkpt lat="48.6505" lon="2.03427">
        <ele>172</ele>
        <time>2022-05-22T06:41:37Z</time>
      </trkpt>
      <trkpt lat="48.64981" lon="2.0368">
        <ele>172</ele>
        <time>2022-05-22T06:42:09Z</time>
      </trkpt>
      <trkpt lat="48.64937" lon="2.0394">
        <ele>169</ele>
        <time>2022-05-22T06:42:41Z</time>
      </trkpt>
      <trkpt lat="48.64927" lon="2.03987">
        <ele>170</ele>
        <time>2022-05-22T06:42:47Z</time>
      </trkpt>
      <trkpt lat="48.64914" lon="2.04033">
        <ele>170</ele>
        <time>2022-05-22T06:42:53Z</time>
      </trkpt>
      <trkpt lat="48.64771" lon="2.0448">
        <ele>170</ele>
        <time>2022-05-22T06:43:51Z</time>
      </trkpt>
      <trkpt lat="48.6475" lon="2.04529">
        <ele>171</ele>
        <time>2022-05-22T06:43:58Z</time>
      </trkpt>
      <trkpt lat="48.64709" lon="2.04599">
        <ele>171</ele>
        <time>2022-05-22T06:44:09Z</time>
      </trkpt>
      <trkpt lat="48.64699" lon="2.04622">
        <ele>171</ele>
        <time>2022-05-22T06:44:12Z</time>
      </trkpt>
      <trkpt lat="48.64656" lon="2.048">
        <ele>172</ele>
        <time>2022-05-22T06:44:34Z</time>
      </trkpt>
      <trkpt lat="48.64651" lon="2.04834">
        <ele>172</ele>
        <time>2022-05-22T06:44:38Z</time>
      </trkpt>
      <trkpt lat="48.64586" lon="2.04955">
        <ele>173</ele>
        <time>2022-05-22T06:44:57Z</time>
      </trkpt>
      <trkpt lat="48.6456" lon="2.04998">
        <ele>173</ele>
        <time>2022-05-22T06:45:04Z</time>
      </trkpt>
      <trkpt lat="48.64545" lon="2.05017">
        <ele>173</ele>
        <time>2022-05-22T06:45:07Z</time>
      </trkpt>
      <trkpt lat="48.64505" lon="2.05085">
        <ele>173</ele>
        <time>2022-05-22T06:45:18Z</time>
      </trkpt>
      <trkpt lat="48.64488" lon="2.05107">
        <ele>173</ele>
        <time>2022-05-22T06:45:22Z</time>
      </trkpt>
      <trkpt lat="48.64475" lon="2.05135">
        <ele>172</ele>
        <time>2022-05-22T06:45:26Z</time>
      </trkpt>
      <trkpt lat="48.64464" lon="2.05141">
        <ele>172</ele>
        <time>2022-05-22T06:45:28Z</time>
      </trkpt>
      <trkpt lat="48.64445" lon="2.05161">
        <ele>172</ele>
        <time>2022-05-22T06:45:32Z</time>
      </trkpt>
      <trkpt lat="48.64385" lon="2.05233">
        <ele>173</ele>
        <time>2022-05-22T06:45:46Z</time>
      </trkpt>
      <trkpt lat="48.64366" lon="2.0526">
        <ele>174</ele>
        <time>2022-05-22T06:45:50Z</time>
      </trkpt>
      <trkpt lat="48.64351" lon="2.05288">
        <ele>174</ele>
        <time>2022-05-22T06:45:54Z</time>
      </trkpt>
      <trkpt lat="48.64271" lon="2.05485">
        <ele>173</ele>
        <time>2022-05-22T06:46:22Z</time>
      </trkpt>
      <trkpt lat="48.64255" lon="2.05517">
        <ele>173</ele>
        <time>2022-05-22T06:46:26Z</time>
      </trkpt>
      <trkpt lat="48.64156" lon="2.05692">
        <ele>173</ele>
        <time>2022-05-22T06:46:53Z</time>
      </trkpt>
      <trkpt lat="48.64132" lon="2.05744">
        <ele>173</ele>
        <time>2022-05-22T06:47:01Z</time>
      </trkpt>
      <trkpt lat="48.6411" lon="2.058">
        <ele>173</ele>
        <time>2022-05-22T06:47:09Z</time>
      </trkpt>
      <trkpt lat="48.64094" lon="2.05828">
        <ele>172</ele>
        <time>2022-05-22T06:47:13Z</time>
      </trkpt>
      <trkpt lat="48.64006" lon="2.05952">
        <ele>173</ele>
        <time>2022-05-22T06:47:34Z</time>
      </trkpt>
      <trkpt lat="48.63962" lon="2.06021">
        <ele>173</ele>
        <time>2022-05-22T06:47:46Z</time>
      </trkpt>
      <trkpt lat="48.63902" lon="2.06089">
        <ele>172</ele>
        <time>2022-05-22T06:47:59Z</time>
      </trkpt>
      <trkpt lat="48.63852" lon="2.06135">
        <ele>173</ele>
        <time>2022-05-22T06:48:09Z</time>
      </trkpt>
      <trkpt lat="48.63832" lon="2.0615">
        <ele>173</ele>
        <time>2022-05-22T06:48:13Z</time>
      </trkpt>
      <trkpt lat="48.63808" lon="2.06164">
        <ele>173</ele>
        <time>2022-05-22T06:48:18Z</time>
      </trkpt>
      <trkpt lat="48.63766" lon="2.06178">
        <ele>173</ele>
        <time>2022-05-22T06:48:26Z</time>
      </trkpt>
      <trkpt lat="48.63737" lon="2.06208">
        <ele>172</ele>
        <time>2022-05-22T06:48:32Z</time>
      </trkpt>
      <trkpt lat="48.63713" lon="2.06225">
        <ele>172</ele>
        <time>2022-05-22T06:48:37Z</time>
      </trkpt>
      <trkpt lat="48.6312" lon="2.06577">
        <ele>157</ele>
        <time>2022-05-22T06:50:30Z</time>
      </trkpt>
      <trkpt lat="48.63007" lon="2.06641">
        <ele>158</ele>
        <time>2022-05-22T06:50:51Z</time>
      </trkpt>
      <trkpt lat="48.62988" lon="2.06651">
        <ele>158</ele>
        <time>2022-05-22T06:50:55Z</time>
      </trkpt>
      <trkpt lat="48.62979" lon="2.06653">
        <ele>158</ele>
        <time>2022-05-22T06:50:57Z</time>
      </trkpt>
      <trkpt lat="48.62953" lon="2.0668">
        <ele>157</ele>
        <time>2022-05-22T06:51:02Z</time>
      </trkpt>
      <trkpt lat="48.62943" lon="2.06687">
        <ele>156</ele>
        <time>2022-05-22T06:51:04Z</time>
      </trkpt>
      <trkpt lat="48.62939" lon="2.06701">
        <ele>156</ele>
        <time>2022-05-22T06:51:06Z</time>
      </trkpt>
      <trkpt lat="48.62944" lon="2.06753">
        <ele>155</ele>
        <time>2022-05-22T06:51:12Z</time>
      </trkpt>
      <trkpt lat="48.62946" lon="2.06863">
        <ele>149</ele>
        <time>2022-05-22T06:51:25Z</time>
      </trkpt>
      <trkpt lat="48.62947" lon="2.07189">
        <ele>145</ele>
        <time>2022-05-22T06:52:03Z</time>
      </trkpt>
      <trkpt lat="48.6295" lon="2.07292">
        <ele>144</ele>
        <time>2022-05-22T06:52:15Z</time>
      </trkpt>
      <trkpt lat="48.62952" lon="2.07789">
        <ele>136</ele>
        <time>2022-05-22T06:53:14Z</time>
      </trkpt>
      <trkpt lat="48.62955" lon="2.07974">
        <ele>133</ele>
        <time>2022-05-22T06:53:36Z</time>
      </trkpt>
      <trkpt lat="48.62955" lon="2.08046">
        <ele>132</ele>
        <time>2022-05-22T06:53:44Z</time>
      </trkpt>
      <trkpt lat="48.62948" lon="2.08096">
        <ele>131</ele>
        <time>2022-05-22T06:53:50Z</time>
      </trkpt>
      <trkpt lat="48.62958" lon="2.08184">
        <ele>129</ele>
        <time>2022-05-22T06:54:01Z</time>
      </trkpt>
      <trkpt lat="48.62962" lon="2.08547">
        <ele>129</ele>
        <time>2022-05-22T06:54:43Z</time>
      </trkpt>
      <trkpt lat="48.62962" lon="2.08771">
        <ele>127</ele>
        <time>2022-05-22T06:55:10Z</time>
      </trkpt>
      <trkpt lat="48.62966" lon="2.08827">
        <ele>127</ele>
        <time>2022-05-22T06:55:16Z</time>
      </trkpt>
      <trkpt lat="48.62965" lon="2.0891">
        <ele>124</ele>
        <time>2022-05-22T06:55:26Z</time>
      </trkpt>
      <trkpt lat="48.62968" lon="2.08928">
        <ele>124</ele>
        <time>2022-05-22T06:55:28Z</time>
      </trkpt>
      <trkpt lat="48.62967" lon="2.09028">
        <ele>124</ele>
        <time>2022-05-22T06:55:40Z</time>
      </trkpt>
      <trkpt lat="48.62963" lon="2.09063">
        <ele>124</ele>
        <time>2022-05-22T06:55:44Z</time>
      </trkpt>
      <trkpt lat="48.62963" lon="2.0912">
        <ele>125</ele>
        <time>2022-05-22T06:55:51Z</time>
      </trkpt>
      <trkpt lat="48.62967" lon="2.09158">
        <ele>126</ele>
        <time>2022-05-22T06:55:55Z</time>
      </trkpt>
      <trkpt lat="48.62967" lon="2.09227">
        <ele>124</ele>
        <time>2022-05-22T06:56:04Z</time>
      </trkpt>
      <trkpt lat="48.62964" lon="2.09275">
        <ele>122</ele>
        <time>2022-05-22T06:56:09Z</time>
      </trkpt>
      <trkpt lat="48.6296" lon="2.09309">
        <ele>120</ele>
        <time>2022-05-22T06:56:13Z</time>
      </trkpt>
      <trkpt lat="48.62945" lon="2.09387">
        <ele>118</ele>
        <time>2022-05-22T06:56:23Z</time>
      </trkpt>
      <trkpt lat="48.62891" lon="2.09605">
        <ele>116</ele>
        <time>2022-05-22T06:56:50Z</time>
      </trkpt>
      <trkpt lat="48.62858" lon="2.09724">
        <ele>116</ele>
        <time>2022-05-22T06:57:05Z</time>
      </trkpt>
      <trkpt lat="48.62844" lon="2.09783">
        <ele>117</ele>
        <time>2022-05-22T06:57:13Z</time>
      </trkpt>
      <trkpt lat="48.62817" lon="2.09835">
        <ele>118</ele>
        <time>2022-05-22T06:57:21Z</time>
      </trkpt>
      <trkpt lat="48.6277" lon="2.09911">
        <ele>114</ele>
        <time>2022-05-22T06:57:33Z</time>
      </trkpt>
      <trkpt lat="48.62762" lon="2.09926">
        <ele>114</ele>
        <time>2022-05-22T06:57:35Z</time>
      </trkpt>
      <trkpt lat="48.62758" lon="2.09941">
        <ele>114</ele>
        <time>2022-05-22T06:57:37Z</time>
      </trkpt>
      <trkpt lat="48.62753" lon="2.10009">
        <ele>115</ele>
        <time>2022-05-22T06:57:45Z</time>
      </trkpt>
      <trkpt lat="48.62755" lon="2.10044">
        <ele>115</ele>
        <time>2022-05-22T06:57:49Z</time>
      </trkpt>
      <trkpt lat="48.62766" lon="2.10146">
        <ele>114</ele>
        <time>2022-05-22T06:58:01Z</time>
      </trkpt>
      <trkpt lat="48.62767" lon="2.10181">
        <ele>113</ele>
        <time>2022-05-22T06:58:05Z</time>
      </trkpt>
      <trkpt lat="48.62777" lon="2.10246">
        <ele>114</ele>
        <time>2022-05-22T06:58:13Z</time>
      </trkpt>
      <trkpt lat="48.62728" lon="2.10489">
        <ele>110</ele>
        <time>2022-05-22T06:58:43Z</time>
      </trkpt>
      <trkpt lat="48.62685" lon="2.10674">
        <ele>110</ele>
        <time>2022-05-22T06:59:06Z</time>
      </trkpt>
      <trkpt lat="48.62669" lon="2.10758">
        <ele>109</ele>
        <time>2022-05-22T06:59:16Z</time>
      </trkpt>
      <trkpt lat="48.62659" lon="2.10791">
        <ele>108</ele>
        <time>2022-05-22T06:59:21Z</time>
      </trkpt>
      <trkpt lat="48.62643" lon="2.10861">
        <ele>105</ele>
        <time>2022-05-22T06:59:29Z</time>
      </trkpt>
      <trkpt lat="48.62568" lon="2.11221">
        <ele>101</ele>
        <time>2022-05-22T07:00:14Z</time>
      </trkpt>
      <trkpt lat="48.62566" lon="2.11236">
        <ele>101</ele>
        <time>2022-05-22T07:00:16Z</time>
      </trkpt>
      <trkpt lat="48.6257" lon="2.11249">
        <ele>101</ele>
        <time>2022-05-22T07:00:17Z</time>
      </trkpt>
      <trkpt lat="48.625" lon="2.11557">
        <ele>97</ele>
        <time>2022-05-22T07:00:56Z</time>
      </trkpt>
      <trkpt lat="48.62485" lon="2.11641">
        <ele>96</ele>
        <time>2022-05-22T07:01:06Z</time>
      </trkpt>
      <trkpt lat="48.62476" lon="2.11651">
        <ele>96</ele>
        <time>2022-05-22T07:01:08Z</time>
      </trkpt>
      <trkpt lat="48.62461" lon="2.11676">
        <ele>95</ele>
        <time>2022-05-22T07:01:12Z</time>
      </trkpt>
      <trkpt lat="48.62453" lon="2.11684">
        <ele>95</ele>
        <time>2022-05-22T07:01:14Z</time>
      </trkpt>
      <trkpt lat="48.62442" lon="2.11685">
        <ele>94</ele>
        <time>2022-05-22T07:01:15Z</time>
      </trkpt>
      <trkpt lat="48.6243" lon="2.11682">
        <ele>94</ele>
        <time>2022-05-22T07:01:18Z</time>
      </trkpt>
      <trkpt lat="48.62392" lon="2.11668">
        <ele>93</ele>
        <time>2022-05-22T07:01:25Z</time>
      </trkpt>
      <trkpt lat="48.62361" lon="2.1166">
        <ele>93</ele>
        <time>2022-05-22T07:01:30Z</time>
      </trkpt>
      <trkpt lat="48.62312" lon="2.11654">
        <ele>92</ele>
        <time>2022-05-22T07:01:39Z</time>
      </trkpt>
      <trkpt lat="48.62291" lon="2.11654">
        <ele>92</ele>
        <time>2022-05-22T07:01:43Z</time>
      </trkpt>
      <trkpt lat="48.62218" lon="2.11663">
        <ele>92</ele>
        <time>2022-05-22T07:01:56Z</time>
      </trkpt>
      <trkpt lat="48.62001" lon="2.11722">
        <ele>92</ele>
        <time>2022-05-22T07:02:35Z</time>
      </trkpt>
      <trkpt lat="48.6195" lon="2.11728">
        <ele>92</ele>
        <time>2022-05-22T07:02:44Z</time>
      </trkpt>
      <trkpt lat="48.61877" lon="2.11732">
        <ele>92</ele>
        <time>2022-05-22T07:02:57Z</time>
      </trkpt>
      <trkpt lat="48.61838" lon="2.11738">
        <ele>91</ele>
        <time>2022-05-22T07:03:04Z</time>
      </trkpt>
      <trkpt lat="48.61799" lon="2.11753">
        <ele>91</ele>
        <time>2022-05-22T07:03:11Z</time>
      </trkpt>
      <trkpt lat="48.61775" lon="2.11767">
        <ele>91</ele>
        <time>2022-05-22T07:03:16Z</time>
      </trkpt>
      <trkpt lat="48.61741" lon="2.11793">
        <ele>91</ele>
        <time>2022-05-22T07:03:23Z</time>
      </trkpt>
      <trkpt lat="48.6171" lon="2.11825">
        <ele>90</ele>
        <time>2022-05-22T07:03:29Z</time>
      </trkpt>
      <trkpt lat="48.61676" lon="2.11875">
        <ele>89</ele>
        <time>2022-05-22T07:03:38Z</time>
      </trkpt>
      <trkpt lat="48.61658" lon="2.11911">
        <ele>90</ele>
        <time>2022-05-22T07:03:43Z</time>
      </trkpt>
      <trkpt lat="48.61647" lon="2.11942">
        <ele>90</ele>
        <time>2022-05-22T07:03:47Z</time>
      </trkpt>
      <trkpt lat="48.61618" lon="2.12055">
        <ele>95</ele>
        <time>2022-05-22T07:04:01Z</time>
      </trkpt>
      <trkpt lat="48.61612" lon="2.12131">
        <ele>102</ele>
        <time>2022-05-22T07:04:10Z</time>
      </trkpt>
      <trkpt lat="48.61612" lon="2.12176">
        <ele>105</ele>
        <time>2022-05-22T07:04:16Z</time>
      </trkpt>
      <trkpt lat="48.61618" lon="2.12232">
        <ele>108</ele>
        <time>2022-05-22T07:04:22Z</time>
      </trkpt>
      <trkpt lat="48.61632" lon="2.12315">
        <ele>108</ele>
        <time>2022-05-22T07:04:32Z</time>
      </trkpt>
      <trkpt lat="48.61641" lon="2.12359">
        <ele>108</ele>
        <time>2022-05-22T07:04:38Z</time>
      </trkpt>
      <trkpt lat="48.61649" lon="2.12385">
        <ele>107</ele>
        <time>2022-05-22T07:04:41Z</time>
      </trkpt>
      <trkpt lat="48.61658" lon="2.12412">
        <ele>107</ele>
        <time>2022-05-22T07:04:45Z</time>
      </trkpt>
      <trkpt lat="48.61697" lon="2.12484">
        <ele>108</ele>
        <time>2022-05-22T07:04:56Z</time>
      </trkpt>
      <trkpt lat="48.61745" lon="2.12587">
        <ele>111</ele>
        <time>2022-05-22T07:05:11Z</time>
      </trkpt>
      <trkpt lat="48.61746" lon="2.12601">
        <ele>111</ele>
        <time>2022-05-22T07:05:12Z</time>
      </trkpt>
      <trkpt lat="48.61741" lon="2.12625">
        <ele>111</ele>
        <time>2022-05-22T07:05:15Z</time>
      </trkpt>
      <trkpt lat="48.61735" lon="2.12636">
        <ele>111</ele>
        <time>2022-05-22T07:05:17Z</time>
      </trkpt>
      <trkpt lat="48.61674" lon="2.12651">
        <ele>108</ele>
        <time>2022-05-22T07:05:28Z</time>
      </trkpt>
      <trkpt lat="48.61652" lon="2.12661">
        <ele>108</ele>
        <time>2022-05-22T07:05:32Z</time>
      </trkpt>
      <trkpt lat="48.6162" lon="2.12669">
        <ele>109</ele>
        <time>2022-05-22T07:05:38Z</time>
      </trkpt>
      <trkpt lat="48.6161" lon="2.12675">
        <ele>109</ele>
        <time>2022-05-22T07:05:40Z</time>
      </trkpt>
      <trkpt lat="48.61599" lon="2.12678">
        <ele>110</ele>
        <time>2022-05-22T07:05:42Z</time>
      </trkpt>
      <trkpt lat="48.61605" lon="2.12667">
        <ele>109</ele>
        <time>2022-05-22T07:05:43Z</time>
      </trkpt>
      <trkpt lat="48.61586" lon="2.1267">
        <ele>110</ele>
        <time>2022-05-22T07:05:47Z</time>
      </trkpt>
      <trkpt lat="48.61566" lon="2.12662">
        <ele>109</ele>
        <time>2022-05-22T07:05:50Z</time>
      </trkpt>
      <trkpt lat="48.61555" lon="2.1267">
        <ele>109</ele>
        <time>2022-05-22T07:05:53Z</time>
      </trkpt>
      <trkpt lat="48.61548" lon="2.12686">
        <ele>109</ele>
        <time>2022-05-22T07:05:55Z</time>
      </trkpt>
      <trkpt lat="48.61548" lon="2.12705">
        <ele>109</ele>
        <time>2022-05-22T07:05:57Z</time>
      </trkpt>
      <trkpt lat="48.61542" lon="2.12715">
        <ele>109</ele>
        <time>2022-05-22T07:05:59Z</time>
      </trkpt>
      <trkpt lat="48.61498" lon="2.12733">
        <ele>106</ele>
        <time>2022-05-22T07:06:07Z</time>
      </trkpt>
      <trkpt lat="48.61473" lon="2.12748">
        <ele>106</ele>
        <time>2022-05-22T07:06:11Z</time>
      </trkpt>
      <trkpt lat="48.61392" lon="2.12786">
        <ele>105</ele>
        <time>2022-05-22T07:06:27Z</time>
      </trkpt>
      <trkpt lat="48.61369" lon="2.12801">
        <ele>105</ele>
        <time>2022-05-22T07:06:31Z</time>
      </trkpt>
      <trkpt lat="48.61348" lon="2.12819">
        <ele>104</ele>
        <time>2022-05-22T07:06:35Z</time>
      </trkpt>
      <trkpt lat="48.6122" lon="2.12959">
        <ele>102</ele>
        <time>2022-05-22T07:07:03Z</time>
      </trkpt>
      <trkpt lat="48.61191" lon="2.12994">
        <ele>102</ele>
        <time>2022-05-22T07:07:10Z</time>
      </trkpt>
      <trkpt lat="48.60701" lon="2.13608">
        <ele>93</ele>
        <time>2022-05-22T07:09:03Z</time>
      </trkpt>
      <trkpt lat="48.60455" lon="2.13854">
        <ele>97</ele>
        <time>2022-05-22T07:09:56Z</time>
      </trkpt>
      <trkpt lat="48.60439" lon="2.13878">
        <ele>98</ele>
        <time>2022-05-22T07:10:00Z</time>
      </trkpt>
      <trkpt lat="48.60416" lon="2.13934">
        <ele>99</ele>
        <time>2022-05-22T07:10:07Z</time>
      </trkpt>
      <trkpt lat="48.60407" lon="2.13947">
        <ele>99</ele>
        <time>2022-05-22T07:10:10Z</time>
      </trkpt>
      <trkpt lat="48.60411" lon="2.13963">
        <ele>99</ele>
        <time>2022-05-22T07:10:12Z</time>
      </trkpt>
      <trkpt lat="48.60422" lon="2.13962">
        <ele>98</ele>
        <time>2022-05-22T07:10:14Z</time>
      </trkpt>
      <trkpt lat="48.60425" lon="2.13948">
        <ele>98</ele>
        <time>2022-05-22T07:10:15Z</time>
      </trkpt>
      <trkpt lat="48.60417" lon="2.13938">
        <ele>99</ele>
        <time>2022-05-22T07:10:17Z</time>
      </trkpt>
      <trkpt lat="48.60407" lon="2.13943">
        <ele>99</ele>
        <time>2022-05-22T07:10:19Z</time>
      </trkpt>
      <trkpt lat="48.60406" lon="2.13958">
        <ele>99</ele>
        <time>2022-05-22T07:10:21Z</time>
      </trkpt>
      <trkpt lat="48.60409" lon="2.1399">
        <ele>98</ele>
        <time>2022-05-22T07:10:25Z</time>
      </trkpt>
      <trkpt lat="48.60408" lon="2.14091">
        <ele>96</ele>
        <time>2022-05-22T07:10:37Z</time>
      </trkpt>
      <trkpt lat="48.6041" lon="2.14125">
        <ele>96</ele>
        <time>2022-05-22T07:10:41Z</time>
      </trkpt>
      <trkpt lat="48.60412" lon="2.14514">
        <ele>96</ele>
        <time>2022-05-22T07:11:26Z</time>
      </trkpt>
      <trkpt lat="48.60407" lon="2.14567">
        <ele>95</ele>
        <time>2022-05-22T07:11:33Z</time>
      </trkpt>
      <trkpt lat="48.60392" lon="2.14634">
        <ele>95</ele>
        <time>2022-05-22T07:11:41Z</time>
      </trkpt>
      <trkpt lat="48.60325" lon="2.14828">
        <ele>93</ele>
        <time>2022-05-22T07:12:07Z</time>
      </trkpt>
      <trkpt lat="48.60297" lon="2.14917">
        <ele>93</ele>
        <time>2022-05-22T07:12:18Z</time>
      </trkpt>
      <trkpt lat="48.60236" lon="2.15085">
        <ele>91</ele>
        <time>2022-05-22T07:12:41Z</time>
      </trkpt>
      <trkpt lat="48.60226" lon="2.15094">
        <ele>91</ele>
        <time>2022-05-22T07:12:43Z</time>
      </trkpt>
      <trkpt lat="48.60194" lon="2.15092">
        <ele>91</ele>
        <time>2022-05-22T07:12:49Z</time>
      </trkpt>
      <trkpt lat="48.60203" lon="2.15093">
        <ele>91</ele>
        <time>2022-05-22T07:12:50Z</time>
      </trkpt>
      <trkpt lat="48.6021" lon="2.15083">
        <ele>91</ele>
        <time>2022-05-22T07:12:52Z</time>
      </trkpt>
      <trkpt lat="48.60216" lon="2.15094">
        <ele>91</ele>
        <time>2022-05-22T07:12:54Z</time>
      </trkpt>
      <trkpt lat="48.60228" lon="2.15097">
        <ele>91</ele>
        <time>2022-05-22T07:12:56Z</time>
      </trkpt>
      <trkpt lat="48.6023" lon="2.15112">
        <ele>91</ele>
        <time>2022-05-22T07:12:58Z</time>
      </trkpt>
      <trkpt lat="48.60185" lon="2.1528">
        <ele>89</ele>
        <time>2022-05-22T07:13:19Z</time>
      </trkpt>
      <trkpt lat="48.60142" lon="2.15456">
        <ele>89</ele>
        <time>2022-05-22T07:13:41Z</time>
      </trkpt>
      <trkpt lat="48.60081" lon="2.15677">
        <ele>85</ele>
        <time>2022-05-22T07:14:09Z</time>
      </trkpt>
      <trkpt lat="48.60063" lon="2.15751">
        <ele>85</ele>
        <time>2022-05-22T07:14:18Z</time>
      </trkpt>
      <trkpt lat="48.60052" lon="2.15779">
        <ele>85</ele>
        <time>2022-05-22T07:14:22Z</time>
      </trkpt>
      <trkpt lat="48.60044" lon="2.15793">
        <ele>85</ele>
        <time>2022-05-22T07:14:24Z</time>
      </trkpt>
      <trkpt lat="48.5998" lon="2.15892">
        <ele>83</ele>
        <time>2022-05-22T07:14:41Z</time>
      </trkpt>
      <trkpt lat="48.59964" lon="2.15949">
        <ele>83</ele>
        <time>2022-05-22T07:14:48Z</time>
      </trkpt>
      <trkpt lat="48.59931" lon="2.16023">
        <ele>83</ele>
        <time>2022-05-22T07:14:59Z</time>
      </trkpt>
      <trkpt lat="48.5991" lon="2.16078">
        <ele>84</ele>
        <time>2022-05-22T07:15:06Z</time>
      </trkpt>
      <trkpt lat="48.59824" lon="2.16279">
        <ele>85</ele>
        <time>2022-05-22T07:15:34Z</time>
      </trkpt>
      <trkpt lat="48.5979" lon="2.16365">
        <ele>85</ele>
        <time>2022-05-22T07:15:46Z</time>
      </trkpt>
      <trkpt lat="48.5977" lon="2.16398">
        <ele>86</ele>
        <time>2022-05-22T07:15:51Z</time>
      </trkpt>
      <trkpt lat="48.59709" lon="2.1646">
        <ele>89</ele>
        <time>2022-05-22T07:16:04Z</time>
      </trkpt>
      <trkpt lat="48.59686" lon="2.16492">
        <ele>90</ele>
        <time>2022-05-22T07:16:10Z</time>
      </trkpt>
      <trkpt lat="48.5965" lon="2.16555">
        <ele>93</ele>
        <time>2022-05-22T07:16:20Z</time>
      </trkpt>
      <trkpt lat="48.59616" lon="2.16644">
        <ele>95</ele>
        <time>2022-05-22T07:16:32Z</time>
      </trkpt>
      <trkpt lat="48.59566" lon="2.16834">
        <ele>100</ele>
        <time>2022-05-22T07:16:56Z</time>
      </trkpt>
      <trkpt lat="48.59558" lon="2.16893">
        <ele>101</ele>
        <time>2022-05-22T07:17:03Z</time>
      </trkpt>
      <trkpt lat="48.59562" lon="2.16973">
        <ele>102</ele>
        <time>2022-05-22T07:17:12Z</time>
      </trkpt>
      <trkpt lat="48.59571" lon="2.1705">
        <ele>103</ele>
        <time>2022-05-22T07:17:22Z</time>
      </trkpt>
      <trkpt lat="48.5962" lon="2.17312">
        <ele>102</ele>
        <time>2022-05-22T07:17:54Z</time>
      </trkpt>
      <trkpt lat="48.59623" lon="2.17353">
        <ele>102</ele>
        <time>2022-05-22T07:17:58Z</time>
      </trkpt>
      <trkpt lat="48.59621" lon="2.17456">
        <ele>101</ele>
        <time>2022-05-22T07:18:11Z</time>
      </trkpt>
      <trkpt lat="48.59613" lon="2.17486">
        <ele>100</ele>
        <time>2022-05-22T07:18:14Z</time>
      </trkpt>
      <trkpt lat="48.59605" lon="2.17501">
        <ele>100</ele>
        <time>2022-05-22T07:18:17Z</time>
      </trkpt>
      <trkpt lat="48.59596" lon="2.17512">
        <ele>99</ele>
        <time>2022-05-22T07:18:19Z</time>
      </trkpt>
      <trkpt lat="48.59562" lon="2.17543">
        <ele>97</ele>
        <time>2022-05-22T07:18:26Z</time>
      </trkpt>
      <trkpt lat="48.59539" lon="2.1757">
        <ele>96</ele>
        <time>2022-05-22T07:18:31Z</time>
      </trkpt>
      <trkpt lat="48.5953" lon="2.17587">
        <ele>96</ele>
        <time>2022-05-22T07:18:34Z</time>
      </trkpt>
      <trkpt lat="48.59525" lon="2.17608">
        <ele>95</ele>
        <time>2022-05-22T07:18:36Z</time>
      </trkpt>
      <trkpt lat="48.59526" lon="2.17629">
        <ele>95</ele>
        <time>2022-05-22T07:18:39Z</time>
      </trkpt>
      <trkpt lat="48.59542" lon="2.17676">
        <ele>94</ele>
        <time>2022-05-22T07:18:45Z</time>
      </trkpt>
      <trkpt lat="48.59548" lon="2.17706">
        <ele>94</ele>
        <time>2022-05-22T07:18:49Z</time>
      </trkpt>
      <trkpt lat="48.59548" lon="2.17744">
        <ele>93</ele>
        <time>2022-05-22T07:18:53Z</time>
      </trkpt>
      <trkpt lat="48.5954" lon="2.17796">
        <ele>94</ele>
        <time>2022-05-22T07:18:59Z</time>
      </trkpt>
      <trkpt lat="48.59536" lon="2.17851">
        <ele>95</ele>
        <time>2022-05-22T07:19:06Z</time>
      </trkpt>
      <trkpt lat="48.59536" lon="2.17898">
        <ele>99</ele>
        <time>2022-05-22T07:19:11Z</time>
      </trkpt>
      <trkpt lat="48.59547" lon="2.18038">
        <ele>109</ele>
        <time>2022-05-22T07:19:28Z</time>
      </trkpt>
      <trkpt lat="48.59543" lon="2.18085">
        <ele>110</ele>
        <time>2022-05-22T07:19:34Z</time>
      </trkpt>
      <trkpt lat="48.59537" lon="2.18133">
        <ele>111</ele>
        <time>2022-05-22T07:19:39Z</time>
      </trkpt>
      <trkpt lat="48.59519" lon="2.18232">
        <ele>112</ele>
        <time>2022-05-22T07:19:51Z</time>
      </trkpt>
      <trkpt lat="48.595" lon="2.18303">
        <ele>110</ele>
        <time>2022-05-22T07:20:00Z</time>
      </trkpt>
      <trkpt lat="48.59485" lon="2.18348">
        <ele>109</ele>
        <time>2022-05-22T07:20:06Z</time>
      </trkpt>
      <trkpt lat="48.59477" lon="2.18364">
        <ele>109</ele>
        <time>2022-05-22T07:20:09Z</time>
      </trkpt>
      <trkpt lat="48.59476" lon="2.18383">
        <ele>109</ele>
        <time>2022-05-22T07:20:11Z</time>
      </trkpt>
      <trkpt lat="48.59468" lon="2.18426">
        <ele>108</ele>
        <time>2022-05-22T07:20:16Z</time>
      </trkpt>
      <trkpt lat="48.59429" lon="2.18584">
        <ele>102</ele>
        <time>2022-05-22T07:20:36Z</time>
      </trkpt>
      <trkpt lat="48.59401" lon="2.18632">
        <ele>101</ele>
        <time>2022-05-22T07:20:44Z</time>
      </trkpt>
      <trkpt lat="48.59404" lon="2.1865">
        <ele>101</ele>
        <time>2022-05-22T07:20:46Z</time>
      </trkpt>
      <trkpt lat="48.5943" lon="2.18737">
        <ele>101</ele>
        <time>2022-05-22T07:20:57Z</time>
      </trkpt>
      <trkpt lat="48.59431" lon="2.18753">
        <ele>101</ele>
        <time>2022-05-22T07:20:59Z</time>
      </trkpt>
      <trkpt lat="48.59464" lon="2.18878">
        <ele>101</ele>
        <time>2022-05-22T07:21:15Z</time>
      </trkpt>
      <trkpt lat="48.59477" lon="2.18944">
        <ele>99</ele>
        <time>2022-05-22T07:21:23Z</time>
      </trkpt>
      <trkpt lat="48.59488" lon="2.18967">
        <ele>98</ele>
        <time>2022-05-22T07:21:26Z</time>
      </trkpt>
      <trkpt lat="48.59509" lon="2.19032">
        <ele>98</ele>
        <time>2022-05-22T07:21:35Z</time>
      </trkpt>
      <trkpt lat="48.59523" lon="2.19057">
        <ele>99</ele>
        <time>2022-05-22T07:21:39Z</time>
      </trkpt>
      <trkpt lat="48.5953" lon="2.19083">
        <ele>100</ele>
        <time>2022-05-22T07:21:42Z</time>
      </trkpt>
      <trkpt lat="48.59536" lon="2.19094">
        <ele>100</ele>
        <time>2022-05-22T07:21:43Z</time>
      </trkpt>
      <trkpt lat="48.59545" lon="2.19122">
        <ele>101</ele>
        <time>2022-05-22T07:21:47Z</time>
      </trkpt>
      <trkpt lat="48.59544" lon="2.19136">
        <ele>101</ele>
        <time>2022-05-22T07:21:49Z</time>
      </trkpt>
      <trkpt lat="48.59532" lon="2.1916">
        <ele>102</ele>
        <time>2022-05-22T07:21:52Z</time>
      </trkpt>
      <trkpt lat="48.59518" lon="2.19181">
        <ele>103</ele>
        <time>2022-05-22T07:21:56Z</time>
      </trkpt>
      <trkpt lat="48.59492" lon="2.19208">
        <ele>105</ele>
        <time>2022-05-22T07:22:01Z</time>
      </trkpt>
      <trkpt lat="48.59476" lon="2.19269">
        <ele>106</ele>
        <time>2022-05-22T07:22:09Z</time>
      </trkpt>
      <trkpt lat="48.59487" lon="2.19309">
        <ele>109</ele>
        <time>2022-05-22T07:22:14Z</time>
      </trkpt>
      <trkpt lat="48.59494" lon="2.1932">
        <ele>110</ele>
        <time>2022-05-22T07:22:16Z</time>
      </trkpt>
      <trkpt lat="48.59498" lon="2.19334">
        <ele>111</ele>
        <time>2022-05-22T07:22:18Z</time>
      </trkpt>
      <trkpt lat="48.59494" lon="2.1935">
        <ele>109</ele>
        <time>2022-05-22T07:22:20Z</time>
      </trkpt>
      <trkpt lat="48.59471" lon="2.19377">
        <ele>106</ele>
        <time>2022-05-22T07:22:25Z</time>
      </trkpt>
      <trkpt lat="48.59464" lon="2.19405">
        <ele>105</ele>
        <time>2022-05-22T07:22:29Z</time>
      </trkpt>
      <trkpt lat="48.59439" lon="2.19444">
        <ele>103</ele>
        <time>2022-05-22T07:22:35Z</time>
      </trkpt>
      <trkpt lat="48.59434" lon="2.19458">
        <ele>102</ele>
        <time>2022-05-22T07:22:37Z</time>
      </trkpt>
      <trkpt lat="48.59428" lon="2.19492">
        <ele>102</ele>
        <time>2022-05-22T07:22:41Z</time>
      </trkpt>
      <trkpt lat="48.59426" lon="2.19526">
        <ele>101</ele>
        <time>2022-05-22T07:22:45Z</time>
      </trkpt>
      <trkpt lat="48.59413" lon="2.19604">
        <ele>100</ele>
        <time>2022-05-22T07:22:54Z</time>
      </trkpt>
      <trkpt lat="48.59362" lon="2.19856">
        <ele>90</ele>
        <time>2022-05-22T07:23:25Z</time>
      </trkpt>
      <trkpt lat="48.59357" lon="2.19871">
        <ele>89</ele>
        <time>2022-05-22T07:23:27Z</time>
      </trkpt>
      <trkpt lat="48.59347" lon="2.19941">
        <ele>88</ele>
        <time>2022-05-22T07:23:36Z</time>
      </trkpt>
      <trkpt lat="48.5933" lon="2.2002">
        <ele>85</ele>
        <time>2022-05-22T07:23:46Z</time>
      </trkpt>
      <trkpt lat="48.59318" lon="2.20098">
        <ele>84</ele>
        <time>2022-05-22T07:23:55Z</time>
      </trkpt>
      <trkpt lat="48.59291" lon="2.20212">
        <ele>85</ele>
        <time>2022-05-22T07:24:09Z</time>
      </trkpt>
      <trkpt lat="48.59243" lon="2.2047">
        <ele>91</ele>
        <time>2022-05-22T07:24:41Z</time>
      </trkpt>
      <trkpt lat="48.59226" lon="2.20574">
        <ele>92</ele>
        <time>2022-05-22T07:24:54Z</time>
      </trkpt>
      <trkpt lat="48.59218" lon="2.20662">
        <ele>92</ele>
        <time>2022-05-22T07:25:04Z</time>
      </trkpt>
      <trkpt lat="48.59218" lon="2.20731">
        <ele>93</ele>
        <time>2022-05-22T07:25:12Z</time>
      </trkpt>
      <trkpt lat="48.59225" lon="2.20798">
        <ele>94</ele>
        <time>2022-05-22T07:25:20Z</time>
      </trkpt>
      <trkpt lat="48.59265" lon="2.20909">
        <ele>95</ele>
        <time>2022-05-22T07:25:35Z</time>
      </trkpt>
      <trkpt lat="48.59277" lon="2.20958">
        <ele>94</ele>
        <time>2022-05-22T07:25:41Z</time>
      </trkpt>
      <trkpt lat="48.59288" lon="2.20988">
        <ele>94</ele>
        <time>2022-05-22T07:25:45Z</time>
      </trkpt>
      <trkpt lat="48.59341" lon="2.21118">
        <ele>93</ele>
        <time>2022-05-22T07:26:03Z</time>
      </trkpt>
      <trkpt lat="48.59373" lon="2.21174">
        <ele>93</ele>
        <time>2022-05-22T07:26:12Z</time>
      </trkpt>
      <trkpt lat="48.59391" lon="2.21222">
        <ele>94</ele>
        <time>2022-05-22T07:26:18Z</time>
      </trkpt>
      <trkpt lat="48.59399" lon="2.21236">
        <ele>94</ele>
        <time>2022-05-22T07:26:20Z</time>
      </trkpt>
      <trkpt lat="48.59404" lon="2.21254">
        <ele>94</ele>
        <time>2022-05-22T07:26:23Z</time>
      </trkpt>
      <trkpt lat="48.59448" lon="2.21366">
        <ele>94</ele>
        <time>2022-05-22T07:26:38Z</time>
      </trkpt>
      <trkpt lat="48.59477" lon="2.21457">
        <ele>94</ele>
        <time>2022-05-22T07:26:50Z</time>
      </trkpt>
      <trkpt lat="48.59506" lon="2.21576">
        <ele>92</ele>
        <time>2022-05-22T07:27:05Z</time>
      </trkpt>
      <trkpt lat="48.59515" lon="2.21623">
        <ele>92</ele>
        <time>2022-05-22T07:27:11Z</time>
      </trkpt>
      <trkpt lat="48.59503" lon="2.21628">
        <ele>92</ele>
        <time>2022-05-22T07:27:13Z</time>
      </trkpt>
      <trkpt lat="48.59493" lon="2.21628">
        <ele>92</ele>
        <time>2022-05-22T07:27:15Z</time>
      </trkpt>
      <trkpt lat="48.59492" lon="2.21644">
        <ele>92</ele>
        <time>2022-05-22T07:27:17Z</time>
      </trkpt>
      <trkpt lat="48.59498" lon="2.21658">
        <ele>92</ele>
        <time>2022-05-22T07:27:19Z</time>
      </trkpt>
      <trkpt lat="48.59513" lon="2.21852">
        <ele>90</ele>
        <time>2022-05-22T07:27:41Z</time>
      </trkpt>
      <trkpt lat="48.59528" lon="2.22122">
        <ele>90</ele>
        <time>2022-05-22T07:28:13Z</time>
      </trkpt>
      <trkpt lat="48.59529" lon="2.22157">
        <ele>90</ele>
        <time>2022-05-22T07:28:18Z</time>
      </trkpt>
      <trkpt lat="48.59526" lon="2.2221">
        <ele>89</ele>
        <time>2022-05-22T07:28:24Z</time>
      </trkpt>
      <trkpt lat="48.5952" lon="2.22243">
        <ele>89</ele>
        <time>2022-05-22T07:28:28Z</time>
      </trkpt>
      <trkpt lat="48.59506" lon="2.22291">
        <ele>87</ele>
        <time>2022-05-22T07:28:34Z</time>
      </trkpt>
      <trkpt lat="48.5947" lon="2.22396">
        <ele>85</ele>
        <time>2022-05-22T07:28:48Z</time>
      </trkpt>
      <trkpt lat="48.59456" lon="2.22462">
        <ele>85</ele>
        <time>2022-05-22T07:28:56Z</time>
      </trkpt>
      <trkpt lat="48.5947" lon="2.22487">
        <ele>84</ele>
        <time>2022-05-22T07:29:00Z</time>
      </trkpt>
      <trkpt lat="48.59475" lon="2.22504">
        <ele>84</ele>
        <time>2022-05-22T07:29:02Z</time>
      </trkpt>
      <trkpt lat="48.59482" lon="2.22517">
        <ele>83</ele>
        <time>2022-05-22T07:29:04Z</time>
      </trkpt>
      <trkpt lat="48.59491" lon="2.22548">
        <ele>83</ele>
        <time>2022-05-22T07:29:08Z</time>
      </trkpt>
      <trkpt lat="48.59498" lon="2.22584">
        <ele>82</ele>
        <time>2022-05-22T07:29:12Z</time>
      </trkpt>
      <trkpt lat="48.59514" lon="2.22637">
        <ele>82</ele>
        <time>2022-05-22T07:29:19Z</time>
      </trkpt>
      <trkpt lat="48.59548" lon="2.22733">
        <ele>83</ele>
        <time>2022-05-22T07:29:32Z</time>
      </trkpt>
      <trkpt lat="48.59557" lon="2.22776">
        <ele>83</ele>
        <time>2022-05-22T07:29:37Z</time>
      </trkpt>
      <trkpt lat="48.59614" lon="2.22937">
        <ele>84</ele>
        <time>2022-05-22T07:29:59Z</time>
      </trkpt>
      <trkpt lat="48.59634" lon="2.23014">
        <ele>85</ele>
        <time>2022-05-22T07:30:09Z</time>
      </trkpt>
      <trkpt lat="48.59657" lon="2.23138">
        <ele>85</ele>
        <time>2022-05-22T07:30:24Z</time>
      </trkpt>
      <trkpt lat="48.59658" lon="2.23156">
        <ele>85</ele>
        <time>2022-05-22T07:30:26Z</time>
      </trkpt>
      <trkpt lat="48.59652" lon="2.23189">
        <ele>84</ele>
        <time>2022-05-22T07:30:30Z</time>
      </trkpt>
      <trkpt lat="48.59644" lon="2.23216">
        <ele>82</ele>
        <time>2022-05-22T07:30:33Z</time>
      </trkpt>
      <trkpt lat="48.5963" lon="2.23238">
        <ele>81</ele>
        <time>2022-05-22T07:30:37Z</time>
      </trkpt>
      <trkpt lat="48.59629" lon="2.23253">
        <ele>81</ele>
        <time>2022-05-22T07:30:39Z</time>
      </trkpt>
      <trkpt lat="48.59638" lon="2.23262">
        <ele>81</ele>
        <time>2022-05-22T07:30:41Z</time>
      </trkpt>
      <trkpt lat="48.59647" lon="2.2326">
        <ele>81</ele>
        <time>2022-05-22T07:30:42Z</time>
      </trkpt>
      <trkpt lat="48.59701" lon="2.2323">
        <ele>83</ele>
        <time>2022-05-22T07:30:53Z</time>
      </trkpt>
      <trkpt lat="48.59708" lon="2.23243">
        <ele>83</ele>
        <time>2022-05-22T07:30:55Z</time>
      </trkpt>
      <trkpt lat="48.59702" lon="2.23229">
        <ele>83</ele>
        <time>2022-05-22T07:30:57Z</time>
      </trkpt>
      <trkpt lat="48.59692" lon="2.23232">
        <ele>83</ele>
        <time>2022-05-22T07:30:58Z</time>
      </trkpt>
      <trkpt lat="48.59673" lon="2.23245">
        <ele>81</ele>
        <time>2022-05-22T07:31:02Z</time>
      </trkpt>
      <trkpt lat="48.59633" lon="2.23265">
        <ele>81</ele>
        <time>2022-05-22T07:31:10Z</time>
      </trkpt>
      <trkpt lat="48.59623" lon="2.23259">
        <ele>81</ele>
        <time>2022-05-22T07:31:11Z</time>
      </trkpt>
      <trkpt lat="48.59612" lon="2.23257">
        <ele>81</ele>
        <time>2022-05-22T07:31:13Z</time>
      </trkpt>
      <trkpt lat="48.59601" lon="2.23262">
        <ele>81</ele>
        <time>2022-05-22T07:31:15Z</time>
      </trkpt>
      <trkpt lat="48.59581" lon="2.23277">
        <ele>80</ele>
        <time>2022-05-22T07:31:19Z</time>
      </trkpt>
      <trkpt lat="48.5948" lon="2.23376">
        <ele>76</ele>
        <time>2022-05-22T07:31:41Z</time>
      </trkpt>
      <trkpt lat="48.59465" lon="2.23385">
        <ele>75</ele>
        <time>2022-05-22T07:31:44Z</time>
      </trkpt>
      <trkpt lat="48.59416" lon="2.23424">
        <ele>72</ele>
        <time>2022-05-22T07:31:54Z</time>
      </trkpt>
      <trkpt lat="48.59379" lon="2.23465">
        <ele>70</ele>
        <time>2022-05-22T07:32:02Z</time>
      </trkpt>
      <trkpt lat="48.59355" lon="2.23479">
        <ele>68</ele>
        <time>2022-05-22T07:32:06Z</time>
      </trkpt>
      <trkpt lat="48.59296" lon="2.23467">
        <ele>65</ele>
        <time>2022-05-22T07:32:17Z</time>
      </trkpt>
      <trkpt lat="48.59266" lon="2.23469">
        <ele>63</ele>
        <time>2022-05-22T07:32:22Z</time>
      </trkpt>
      <trkpt lat="48.59227" lon="2.23479">
        <ele>61</ele>
        <time>2022-05-22T07:32:29Z</time>
      </trkpt>
      <trkpt lat="48.59143" lon="2.23528">
        <ele>58</ele>
        <time>2022-05-22T07:32:45Z</time>
      </trkpt>
      <trkpt lat="48.59101" lon="2.23538">
        <ele>57</ele>
        <time>2022-05-22T07:32:53Z</time>
      </trkpt>
      <trkpt lat="48.5909" lon="2.23546">
        <ele>56</ele>
        <time>2022-05-22T07:32:55Z</time>
      </trkpt>
      <trkpt lat="48.59088" lon="2.23579">
        <ele>54</ele>
        <time>2022-05-22T07:32:59Z</time>
      </trkpt>
      <trkpt lat="48.59091" lon="2.23631">
        <ele>53</ele>
        <time>2022-05-22T07:33:05Z</time>
      </trkpt>
      <trkpt lat="48.59102" lon="2.23724">
        <ele>51</ele>
        <time>2022-05-22T07:33:16Z</time>
      </trkpt>
      <trkpt lat="48.59121" lon="2.23839">
        <ele>52</ele>
        <time>2022-05-22T07:33:30Z</time>
      </trkpt>
      <trkpt lat="48.59116" lon="2.23888">
        <ele>53</ele>
        <time>2022-05-22T07:33:36Z</time>
      </trkpt>
      <trkpt lat="48.59118" lon="2.23905">
        <ele>53</ele>
        <time>2022-05-22T07:33:38Z</time>
      </trkpt>
      <trkpt lat="48.59111" lon="2.23943">
        <ele>53</ele>
        <time>2022-05-22T07:33:43Z</time>
      </trkpt>
      <trkpt lat="48.59109" lon="2.24003">
        <ele>54</ele>
        <time>2022-05-22T07:33:50Z</time>
      </trkpt>
      <trkpt lat="48.59109" lon="2.24121">
        <ele>52</ele>
        <time>2022-05-22T07:34:04Z</time>
      </trkpt>
      <trkpt lat="48.59113" lon="2.24174">
        <ele>51</ele>
        <time>2022-05-22T07:34:10Z</time>
      </trkpt>
      <trkpt lat="48.59118" lon="2.24212">
        <ele>51</ele>
        <time>2022-05-22T07:34:14Z</time>
      </trkpt>
      <trkpt lat="48.59139" lon="2.24319">
        <ele>52</ele>
        <time>2022-05-22T07:34:28Z</time>
      </trkpt>
      <trkpt lat="48.59145" lon="2.24388">
        <ele>53</ele>
        <time>2022-05-22T07:34:36Z</time>
      </trkpt>
      <trkpt lat="48.59155" lon="2.24436">
        <ele>53</ele>
        <time>2022-05-22T07:34:42Z</time>
      </trkpt>
      <trkpt lat="48.5916" lon="2.24523">
        <ele>52</ele>
        <time>2022-05-22T07:34:52Z</time>
      </trkpt>
      <trkpt lat="48.59171" lon="2.24584">
        <ele>51</ele>
        <time>2022-05-22T07:34:59Z</time>
      </trkpt>
      <trkpt lat="48.59183" lon="2.24633">
        <ele>53</ele>
        <time>2022-05-22T07:35:06Z</time>
      </trkpt>
      <trkpt lat="48.59185" lon="2.24649">
        <ele>53</ele>
        <time>2022-05-22T07:35:08Z</time>
      </trkpt>
      <trkpt lat="48.59183" lon="2.24666">
        <ele>53</ele>
        <time>2022-05-22T07:35:10Z</time>
      </trkpt>
      <trkpt lat="48.59185" lon="2.247">
        <ele>54</ele>
        <time>2022-05-22T07:35:14Z</time>
      </trkpt>
      <trkpt lat="48.59194" lon="2.24746">
        <ele>54</ele>
        <time>2022-05-22T07:35:19Z</time>
      </trkpt>
      <trkpt lat="48.59186" lon="2.24754">
        <ele>54</ele>
        <time>2022-05-22T07:35:21Z</time>
      </trkpt>
      <trkpt lat="48.59168" lon="2.24759">
        <ele>53</ele>
        <time>2022-05-22T07:35:24Z</time>
      </trkpt>
      <trkpt lat="48.59138" lon="2.24777">
        <ele>52</ele>
        <time>2022-05-22T07:35:30Z</time>
      </trkpt>
      <trkpt lat="48.59118" lon="2.2478">
        <ele>51</ele>
        <time>2022-05-22T07:35:33Z</time>
      </trkpt>
      <trkpt lat="48.59091" lon="2.24802">
        <ele>50</ele>
        <time>2022-05-22T07:35:39Z</time>
      </trkpt>
      <trkpt lat="48.59063" lon="2.24819">
        <ele>50</ele>
        <time>2022-05-22T07:35:44Z</time>
      </trkpt>
      <trkpt lat="48.59034" lon="2.24841">
        <ele>50</ele>
        <time>2022-05-22T07:35:50Z</time>
      </trkpt>
      <trkpt lat="48.59011" lon="2.2485">
        <ele>50</ele>
        <time>2022-05-22T07:35:54Z</time>
      </trkpt>
      <trkpt lat="48.58985" lon="2.24864">
        <ele>51</ele>
        <time>2022-05-22T07:35:59Z</time>
      </trkpt>
      <trkpt lat="48.58965" lon="2.24868">
        <ele>52</ele>
        <time>2022-05-22T07:36:03Z</time>
      </trkpt>
      <trkpt lat="48.58955" lon="2.24867">
        <ele>52</ele>
        <time>2022-05-22T07:36:05Z</time>
      </trkpt>
      <trkpt lat="48.58944" lon="2.24864">
        <ele>52</ele>
        <time>2022-05-22T07:36:07Z</time>
      </trkpt>
      <trkpt lat="48.58917" lon="2.24849">
        <ele>53</ele>
        <time>2022-05-22T07:36:12Z</time>
      </trkpt>
      <trkpt lat="48.58907" lon="2.24846">
        <ele>54</ele>
        <time>2022-05-22T07:36:14Z</time>
      </trkpt>
      <trkpt lat="48.58896" lon="2.24846">
        <ele>54</ele>
        <time>2022-05-22T07:36:15Z</time>
      </trkpt>
      <trkpt lat="48.58879" lon="2.24834">
        <ele>55</ele>
        <time>2022-05-22T07:36:19Z</time>
      </trkpt>
      <trkpt lat="48.58847" lon="2.24839">
        <ele>56</ele>
        <time>2022-05-22T07:36:25Z</time>
      </trkpt>
      <trkpt lat="48.58834" lon="2.24844">
        <ele>57</ele>
        <time>2022-05-22T07:36:27Z</time>
      </trkpt>
      <trkpt lat="48.58817" lon="2.24827">
        <ele>57</ele>
        <time>2022-05-22T07:36:31Z</time>
      </trkpt>
      <trkpt lat="48.58809" lon="2.24815">
        <ele>57</ele>
        <time>2022-05-22T07:36:33Z</time>
      </trkpt>
      <trkpt lat="48.58793" lon="2.24759">
        <ele>57</ele>
        <time>2022-05-22T07:36:40Z</time>
      </trkpt>
      <trkpt lat="48.58784" lon="2.24715">
        <ele>56</ele>
        <time>2022-05-22T07:36:45Z</time>
      </trkpt>
      <trkpt lat="48.58778" lon="2.24702">
        <ele>56</ele>
        <time>2022-05-22T07:36:47Z</time>
      </trkpt>
      <trkpt lat="48.58755" lon="2.24671">
        <ele>57</ele>
        <time>2022-05-22T07:36:53Z</time>
      </trkpt>
      <trkpt lat="48.58707" lon="2.24652">
        <ele>59</ele>
        <time>2022-05-22T07:37:01Z</time>
      </trkpt>
      <trkpt lat="48.58697" lon="2.24654">
        <ele>59</ele>
        <time>2022-05-22T07:37:03Z</time>
      </trkpt>
      <trkpt lat="48.587" lon="2.24677">
        <ele>59</ele>
        <time>2022-05-22T07:37:06Z</time>
      </trkpt>
      <trkpt lat="48.58705" lon="2.24694">
        <ele>58</ele>
        <time>2022-05-22T07:37:08Z</time>
      </trkpt>
      <trkpt lat="48.58715" lon="2.24778">
        <ele>58</ele>
        <time>2022-05-22T07:37:18Z</time>
      </trkpt>
      <trkpt lat="48.58722" lon="2.24813">
        <ele>58</ele>
        <time>2022-05-22T07:37:22Z</time>
      </trkpt>
      <trkpt lat="48.58725" lon="2.24867">
        <ele>58</ele>
        <time>2022-05-22T07:37:29Z</time>
      </trkpt>
      <trkpt lat="48.58733" lon="2.24905">
        <ele>58</ele>
        <time>2022-05-22T07:37:33Z</time>
      </trkpt>
      <trkpt lat="48.58744" lon="2.25054">
        <ele>57</ele>
        <time>2022-05-22T07:37:51Z</time>
      </trkpt>
      <trkpt lat="48.5875" lon="2.25086">
        <ele>57</ele>
        <time>2022-05-22T07:37:55Z</time>
      </trkpt>
      <trkpt lat="48.58755" lon="2.25162">
        <ele>59</ele>
        <time>2022-05-22T07:38:04Z</time>
      </trkpt>
      <trkpt lat="48.58737" lon="2.25178">
        <ele>60</ele>
        <time>2022-05-22T07:38:08Z</time>
      </trkpt>
      <trkpt lat="48.58698" lon="2.25225">
        <ele>64</ele>
        <time>2022-05-22T07:38:17Z</time>
      </trkpt>
      <trkpt lat="48.5868" lon="2.25238">
        <ele>65</ele>
        <time>2022-05-22T07:38:20Z</time>
      </trkpt>
      <trkpt lat="48.58656" lon="2.25263">
        <ele>67</ele>
        <time>2022-05-22T07:38:25Z</time>
      </trkpt>
      <trkpt lat="48.58637" lon="2.25273">
        <ele>68</ele>
        <time>2022-05-22T07:38:29Z</time>
      </trkpt>
      <trkpt lat="48.58423" lon="2.25477">
        <ele>85</ele>
        <time>2022-05-22T07:39:14Z</time>
      </trkpt>
      <trkpt lat="48.58415" lon="2.25484">
        <ele>85</ele>
        <time>2022-05-22T07:39:16Z</time>
      </trkpt>
      <trkpt lat="48.58405" lon="2.25488">
        <ele>86</ele>
        <time>2022-05-22T07:39:17Z</time>
      </trkpt>
      <trkpt lat="48.58377" lon="2.25514">
        <ele>86</ele>
        <time>2022-05-22T07:39:23Z</time>
      </trkpt>
      <trkpt lat="48.58302" lon="2.25576">
        <ele>87</ele>
        <time>2022-05-22T07:39:39Z</time>
      </trkpt>
      <trkpt lat="48.58281" lon="2.25587">
        <ele>87</ele>
        <time>2022-05-22T07:39:42Z</time>
      </trkpt>
      <trkpt lat="48.58259" lon="2.25594">
        <ele>87</ele>
        <time>2022-05-22T07:39:46Z</time>
      </trkpt>
      <trkpt lat="48.58206" lon="2.25622">
        <ele>88</ele>
        <time>2022-05-22T07:39:56Z</time>
      </trkpt>
      <trkpt lat="48.58197" lon="2.25623">
        <ele>88</ele>
        <time>2022-05-22T07:39:58Z</time>
      </trkpt>
      <trkpt lat="48.58188" lon="2.25633">
        <ele>88</ele>
        <time>2022-05-22T07:40:00Z</time>
      </trkpt>
      <trkpt lat="48.5817" lon="2.25642">
        <ele>88</ele>
        <time>2022-05-22T07:40:03Z</time>
      </trkpt>
      <trkpt lat="48.58136" lon="2.25651">
        <ele>89</ele>
        <time>2022-05-22T07:40:10Z</time>
      </trkpt>
      <trkpt lat="48.58085" lon="2.25657">
        <ele>90</ele>
        <time>2022-05-22T07:40:19Z</time>
      </trkpt>
      <trkpt lat="48.5806" lon="2.25666">
        <ele>90</ele>
        <time>2022-05-22T07:40:23Z</time>
      </trkpt>
      <trkpt lat="48.58018" lon="2.25701">
        <ele>90</ele>
        <time>2022-05-22T07:40:32Z</time>
      </trkpt>
      <trkpt lat="48.57981" lon="2.25718">
        <ele>89</ele>
        <time>2022-05-22T07:40:39Z</time>
      </trkpt>
      <trkpt lat="48.57873" lon="2.25733">
        <ele>88</ele>
        <time>2022-05-22T07:40:58Z</time>
      </trkpt>
      <trkpt lat="48.57854" lon="2.25748">
        <ele>88</ele>
        <time>2022-05-22T07:41:02Z</time>
      </trkpt>
      <trkpt lat="48.57844" lon="2.25779">
        <ele>88</ele>
        <time>2022-05-22T07:41:06Z</time>
      </trkpt>
      <trkpt lat="48.57747" lon="2.25934">
        <ele>88</ele>
        <time>2022-05-22T07:41:31Z</time>
      </trkpt>
      <trkpt lat="48.57729" lon="2.25969">
        <ele>87</ele>
        <time>2022-05-22T07:41:36Z</time>
      </trkpt>
      <trkpt lat="48.57698" lon="2.26016">
        <ele>87</ele>
        <time>2022-05-22T07:41:44Z</time>
      </trkpt>
      <trkpt lat="48.57684" lon="2.26044">
        <ele>87</ele>
        <time>2022-05-22T07:41:48Z</time>
      </trkpt>
      <trkpt lat="48.57662" lon="2.26077">
        <ele>88</ele>
        <time>2022-05-22T07:41:54Z</time>
      </trkpt>
      <trkpt lat="48.57602" lon="2.26178">
        <ele>88</ele>
        <time>2022-05-22T07:42:10Z</time>
      </trkpt>
      <trkpt lat="48.57575" lon="2.26219">
        <ele>87</ele>
        <time>2022-05-22T07:42:16Z</time>
      </trkpt>
      <trkpt lat="48.57557" lon="2.2624">
        <ele>87</ele>
        <time>2022-05-22T07:42:20Z</time>
      </trkpt>
      <trkpt lat="48.57505" lon="2.26313">
        <ele>87</ele>
        <time>2022-05-22T07:42:33Z</time>
      </trkpt>
      <trkpt lat="48.57472" lon="2.26382">
        <ele>87</ele>
        <time>2022-05-22T07:42:43Z</time>
      </trkpt>
      <trkpt lat="48.57469" lon="2.26396">
        <ele>87</ele>
        <time>2022-05-22T07:42:45Z</time>
      </trkpt>
      <trkpt lat="48.57477" lon="2.26403">
        <ele>87</ele>
        <time>2022-05-22T07:42:46Z</time>
      </trkpt>
      <trkpt lat="48.57509" lon="2.2639">
        <ele>87</ele>
        <time>2022-05-22T07:42:52Z</time>
      </trkpt>
      <trkpt lat="48.57521" lon="2.2639">
        <ele>87</ele>
        <time>2022-05-22T07:42:55Z</time>
      </trkpt>
      <trkpt lat="48.57531" lon="2.26398">
        <ele>87</ele>
        <time>2022-05-22T07:42:57Z</time>
      </trkpt>
      <trkpt lat="48.57539" lon="2.26412">
        <ele>87</ele>
        <time>2022-05-22T07:42:59Z</time>
      </trkpt>
      <trkpt lat="48.57561" lon="2.26463">
        <ele>87</ele>
        <time>2022-05-22T07:43:06Z</time>
      </trkpt>
      <trkpt lat="48.5759" lon="2.26552">
        <ele>88</ele>
        <time>2022-05-22T07:43:18Z</time>
      </trkpt>
      <trkpt lat="48.57598" lon="2.26595">
        <ele>88</ele>
        <time>2022-05-22T07:43:23Z</time>
      </trkpt>
      <trkpt lat="48.57606" lon="2.26664">
        <ele>89</ele>
        <time>2022-05-22T07:43:31Z</time>
      </trkpt>
      <trkpt lat="48.57609" lon="2.26738">
        <ele>88</ele>
        <time>2022-05-22T07:43:40Z</time>
      </trkpt>
      <trkpt lat="48.57603" lon="2.26829">
        <ele>87</ele>
        <time>2022-05-22T07:43:51Z</time>
      </trkpt>
      <trkpt lat="48.57567" lon="2.27008">
        <ele>87</ele>
        <time>2022-05-22T07:44:13Z</time>
      </trkpt>
      <trkpt lat="48.5755" lon="2.27128">
        <ele>85</ele>
        <time>2022-05-22T07:44:27Z</time>
      </trkpt>
      <trkpt lat="48.57542" lon="2.27273">
        <ele>86</ele>
        <time>2022-05-22T07:44:44Z</time>
      </trkpt>
      <trkpt lat="48.57546" lon="2.27424">
        <ele>87</ele>
        <time>2022-05-22T07:45:02Z</time>
      </trkpt>
      <trkpt lat="48.57558" lon="2.27528">
        <ele>87</ele>
        <time>2022-05-22T07:45:14Z</time>
      </trkpt>
      <trkpt lat="48.57601" lon="2.27747">
        <ele>85</ele>
        <time>2022-05-22T07:45:41Z</time>
      </trkpt>
      <trkpt lat="48.57604" lon="2.27779">
        <ele>84</ele>
        <time>2022-05-22T07:45:45Z</time>
      </trkpt>
      <trkpt lat="48.57666" lon="2.28123">
        <ele>83</ele>
        <time>2022-05-22T07:46:27Z</time>
      </trkpt>
      <trkpt lat="48.57686" lon="2.2827">
        <ele>84</ele>
        <time>2022-05-22T07:46:45Z</time>
      </trkpt>
      <trkpt lat="48.57694" lon="2.28392">
        <ele>83</ele>
        <time>2022-05-22T07:46:59Z</time>
      </trkpt>
      <trkpt lat="48.57694" lon="2.2849">
        <ele>84</ele>
        <time>2022-05-22T07:47:11Z</time>
      </trkpt>
      <trkpt lat="48.57686" lon="2.28515">
        <ele>84</ele>
        <time>2022-05-22T07:47:14Z</time>
      </trkpt>
      <trkpt lat="48.57656" lon="2.28561">
        <ele>83</ele>
        <time>2022-05-22T07:47:22Z</time>
      </trkpt>
      <trkpt lat="48.5765" lon="2.28597">
        <ele>83</ele>
        <time>2022-05-22T07:47:26Z</time>
      </trkpt>
      <trkpt lat="48.57649" lon="2.28651">
        <ele>82</ele>
        <time>2022-05-22T07:47:32Z</time>
      </trkpt>
      <trkpt lat="48.57657" lon="2.28901">
        <ele>86</ele>
        <time>2022-05-22T07:48:02Z</time>
      </trkpt>
      <trkpt lat="48.57662" lon="2.28937">
        <ele>86</ele>
        <time>2022-05-22T07:48:06Z</time>
      </trkpt>
      <trkpt lat="48.57668" lon="2.2895">
        <ele>86</ele>
        <time>2022-05-22T07:48:08Z</time>
      </trkpt>
      <trkpt lat="48.57677" lon="2.28952">
        <ele>86</ele>
        <time>2022-05-22T07:48:10Z</time>
      </trkpt>
      <trkpt lat="48.57687" lon="2.28949">
        <ele>86</ele>
        <time>2022-05-22T07:48:11Z</time>
      </trkpt>
      <trkpt lat="48.5771" lon="2.28954">
        <ele>86</ele>
        <time>2022-05-22T07:48:15Z</time>
      </trkpt>
      <trkpt lat="48.57746" lon="2.28951">
        <ele>86</ele>
        <time>2022-05-22T07:48:22Z</time>
      </trkpt>
      <trkpt lat="48.57755" lon="2.28944">
        <ele>86</ele>
        <time>2022-05-22T07:48:24Z</time>
      </trkpt>
      <trkpt lat="48.57744" lon="2.28947">
        <ele>86</ele>
        <time>2022-05-22T07:48:26Z</time>
      </trkpt>
      <trkpt lat="48.577" lon="2.28945">
        <ele>86</ele>
        <time>2022-05-22T07:48:34Z</time>
      </trkpt>
      <trkpt lat="48.57691" lon="2.28938">
        <ele>86</ele>
        <time>2022-05-22T07:48:35Z</time>
      </trkpt>
      <trkpt lat="48.57682" lon="2.28912">
        <ele>86</ele>
        <time>2022-05-22T07:48:39Z</time>
      </trkpt>
      <trkpt lat="48.57671" lon="2.28905">
        <ele>86</ele>
        <time>2022-05-22T07:48:41Z</time>
      </trkpt>
      <trkpt lat="48.57661" lon="2.2891">
        <ele>86</ele>
        <time>2022-05-22T07:48:43Z</time>
      </trkpt>
      <trkpt lat="48.57653" lon="2.28903">
        <ele>86</ele>
        <time>2022-05-22T07:48:44Z</time>
      </trkpt>
      <trkpt lat="48.57655" lon="2.28888">
        <ele>86</ele>
        <time>2022-05-22T07:48:46Z</time>
      </trkpt>
      <trkpt lat="48.57655" lon="2.28784">
        <ele>84</ele>
        <time>2022-05-22T07:48:58Z</time>
      </trkpt>
      <trkpt lat="48.5765" lon="2.28591">
        <ele>83</ele>
        <time>2022-05-22T07:49:21Z</time>
      </trkpt>
      <trkpt lat="48.57657" lon="2.2856">
        <ele>83</ele>
        <time>2022-05-22T07:49:25Z</time>
      </trkpt>
      <trkpt lat="48.57667" lon="2.28565">
        <ele>83</ele>
        <time>2022-05-22T07:49:27Z</time>
      </trkpt>
      <trkpt lat="48.5768" lon="2.28586">
        <ele>83</ele>
        <time>2022-05-22T07:49:30Z</time>
      </trkpt>
      <trkpt lat="48.57684" lon="2.28615">
        <ele>83</ele>
        <time>2022-05-22T07:49:34Z</time>
      </trkpt>
      <trkpt lat="48.57694" lon="2.2861">
        <ele>83</ele>
        <time>2022-05-22T07:49:36Z</time>
      </trkpt>
      <trkpt lat="48.57704" lon="2.2861">
        <ele>83</ele>
        <time>2022-05-22T07:49:37Z</time>
      </trkpt>
      <trkpt lat="48.57708" lon="2.28746">
        <ele>83</ele>
        <time>2022-05-22T07:49:53Z</time>
      </trkpt>
      <trkpt lat="48.57716" lon="2.28848">
        <ele>87</ele>
        <time>2022-05-22T07:50:06Z</time>
      </trkpt>
      <trkpt lat="48.5772" lon="2.28958">
        <ele>86</ele>
        <time>2022-05-22T07:50:19Z</time>
      </trkpt>
      <trkpt lat="48.57718" lon="2.2911">
        <ele>87</ele>
        <time>2022-05-22T07:50:36Z</time>
      </trkpt>
      <trkpt lat="48.5772" lon="2.2921">
        <ele>85</ele>
        <time>2022-05-22T07:50:48Z</time>
      </trkpt>
      <trkpt lat="48.57716" lon="2.29312">
        <ele>84</ele>
        <time>2022-05-22T07:51:00Z</time>
      </trkpt>
      <trkpt lat="48.57716" lon="2.29407">
        <ele>83</ele>
        <time>2022-05-22T07:51:11Z</time>
      </trkpt>
      <trkpt lat="48.57719" lon="2.29485">
        <ele>82</ele>
        <time>2022-05-22T07:51:21Z</time>
      </trkpt>
      <trkpt lat="48.57735" lon="2.29597">
        <ele>82</ele>
        <time>2022-05-22T07:51:34Z</time>
      </trkpt>
      <trkpt lat="48.57767" lon="2.29748">
        <ele>83</ele>
        <time>2022-05-22T07:51:53Z</time>
      </trkpt>
      <trkpt lat="48.57768" lon="2.29764">
        <ele>83</ele>
        <time>2022-05-22T07:51:55Z</time>
      </trkpt>
      <trkpt lat="48.57753" lon="2.29854">
        <ele>83</ele>
        <time>2022-05-22T07:52:06Z</time>
      </trkpt>
      <trkpt lat="48.5776" lon="2.29866">
        <ele>83</ele>
        <time>2022-05-22T07:52:07Z</time>
      </trkpt>
      <trkpt lat="48.57778" lon="2.2987">
        <ele>83</ele>
        <time>2022-05-22T07:52:11Z</time>
      </trkpt>
      <trkpt lat="48.57788" lon="2.29876">
        <ele>82</ele>
        <time>2022-05-22T07:52:13Z</time>
      </trkpt>
      <trkpt lat="48.57794" lon="2.29918">
        <ele>82</ele>
        <time>2022-05-22T07:52:18Z</time>
      </trkpt>
      <trkpt lat="48.57808" lon="2.29943">
        <ele>81</ele>
        <time>2022-05-22T07:52:22Z</time>
      </trkpt>
      <trkpt lat="48.57813" lon="2.29972">
        <ele>81</ele>
        <time>2022-05-22T07:52:25Z</time>
      </trkpt>
      <trkpt lat="48.57807" lon="2.29986">
        <ele>81</ele>
        <time>2022-05-22T07:52:27Z</time>
      </trkpt>
      <trkpt lat="48.57798" lon="2.29989">
        <ele>81</ele>
        <time>2022-05-22T07:52:29Z</time>
      </trkpt>
      <trkpt lat="48.57788" lon="2.29999">
        <ele>81</ele>
        <time>2022-05-22T07:52:31Z</time>
      </trkpt>
      <trkpt lat="48.57782" lon="2.30013">
        <ele>81</ele>
        <time>2022-05-22T07:52:33Z</time>
      </trkpt>
      <trkpt lat="48.57756" lon="2.30122">
        <ele>81</ele>
        <time>2022-05-22T07:52:46Z</time>
      </trkpt>
      <trkpt lat="48.57754" lon="2.3014">
        <ele>82</ele>
        <time>2022-05-22T07:52:49Z</time>
      </trkpt>
      <trkpt lat="48.57759" lon="2.30172">
        <ele>82</ele>
        <time>2022-05-22T07:52:52Z</time>
      </trkpt>
      <trkpt lat="48.57756" lon="2.30186">
        <ele>82</ele>
        <time>2022-05-22T07:52:54Z</time>
      </trkpt>
      <trkpt lat="48.57738" lon="2.30166">
        <ele>82</ele>
        <time>2022-05-22T07:52:58Z</time>
      </trkpt>
      <trkpt lat="48.57726" lon="2.30165">
        <ele>82</ele>
        <time>2022-05-22T07:53:00Z</time>
      </trkpt>
      <trkpt lat="48.57719" lon="2.30176">
        <ele>83</ele>
        <time>2022-05-22T07:53:02Z</time>
      </trkpt>
      <trkpt lat="48.57717" lon="2.3019">
        <ele>83</ele>
        <time>2022-05-22T07:53:04Z</time>
      </trkpt>
      <trkpt lat="48.57729" lon="2.30218">
        <ele>84</ele>
        <time>2022-05-22T07:53:08Z</time>
      </trkpt>
      <trkpt lat="48.57732" lon="2.30237">
        <ele>84</ele>
        <time>2022-05-22T07:53:10Z</time>
      </trkpt>
      <trkpt lat="48.57735" lon="2.30292">
        <ele>85</ele>
        <time>2022-05-22T07:53:16Z</time>
      </trkpt>
      <trkpt lat="48.5772" lon="2.30455">
        <ele>87</ele>
        <time>2022-05-22T07:53:36Z</time>
      </trkpt>
      <trkpt lat="48.57688" lon="2.30732">
        <ele>84</ele>
        <time>2022-05-22T07:54:09Z</time>
      </trkpt>
      <trkpt lat="48.57668" lon="2.30842">
        <ele>87</ele>
        <time>2022-05-22T07:54:22Z</time>
      </trkpt>
      <trkpt lat="48.57603" lon="2.31153">
        <ele>89</ele>
        <time>2022-05-22T07:55:01Z</time>
      </trkpt>
      <trkpt lat="48.57534" lon="2.31467">
        <ele>82</ele>
        <time>2022-05-22T07:55:40Z</time>
      </trkpt>
      <trkpt lat="48.57456" lon="2.31756">
        <ele>81</ele>
        <time>2022-05-22T07:56:16Z</time>
      </trkpt>
      <trkpt lat="48.57276" lon="2.32202">
        <ele>79</ele>
        <time>2022-05-22T07:57:18Z</time>
      </trkpt>
      <trkpt lat="48.5722" lon="2.32348">
        <ele>80</ele>
        <time>2022-05-22T07:57:38Z</time>
      </trkpt>
      <trkpt lat="48.57209" lon="2.32393">
        <ele>79</ele>
        <time>2022-05-22T07:57:44Z</time>
      </trkpt>
      <trkpt lat="48.57195" lon="2.32484">
        <ele>79</ele>
        <time>2022-05-22T07:57:55Z</time>
      </trkpt>
      <trkpt lat="48.57183" lon="2.32597">
        <ele>79</ele>
        <time>2022-05-22T07:58:08Z</time>
      </trkpt>
      <trkpt lat="48.57183" lon="2.32642">
        <ele>78</ele>
        <time>2022-05-22T07:58:13Z</time>
      </trkpt>
      <trkpt lat="48.57191" lon="2.32777">
        <ele>78</ele>
        <time>2022-05-22T07:58:29Z</time>
      </trkpt>
      <trkpt lat="48.57191" lon="2.32794">
        <ele>77</ele>
        <time>2022-05-22T07:58:31Z</time>
      </trkpt>
      <trkpt lat="48.57186" lon="2.32824">
        <ele>76</ele>
        <time>2022-05-22T07:58:35Z</time>
      </trkpt>
      <trkpt lat="48.57176" lon="2.32835">
        <ele>76</ele>
        <time>2022-05-22T07:58:37Z</time>
      </trkpt>
      <trkpt lat="48.57157" lon="2.32839">
        <ele>76</ele>
        <time>2022-05-22T07:58:40Z</time>
      </trkpt>
      <trkpt lat="48.57146" lon="2.32852">
        <ele>77</ele>
        <time>2022-05-22T07:58:43Z</time>
      </trkpt>
      <trkpt lat="48.5714" lon="2.32878">
        <ele>77</ele>
        <time>2022-05-22T07:58:46Z</time>
      </trkpt>
      <trkpt lat="48.57145" lon="2.32909">
        <ele>77</ele>
        <time>2022-05-22T07:58:50Z</time>
      </trkpt>
      <trkpt lat="48.57143" lon="2.32926">
        <ele>77</ele>
        <time>2022-05-22T07:58:52Z</time>
      </trkpt>
      <trkpt lat="48.57135" lon="2.32942">
        <ele>77</ele>
        <time>2022-05-22T07:58:54Z</time>
      </trkpt>
      <trkpt lat="48.57113" lon="2.3296">
        <ele>77</ele>
        <time>2022-05-22T07:58:59Z</time>
      </trkpt>
      <trkpt lat="48.57089" lon="2.32974">
        <ele>78</ele>
        <time>2022-05-22T07:59:03Z</time>
      </trkpt>
      <trkpt lat="48.57058" lon="2.33">
        <ele>78</ele>
        <time>2022-05-22T07:59:10Z</time>
      </trkpt>
      <trkpt lat="48.57038" lon="2.3302">
        <ele>78</ele>
        <time>2022-05-22T07:59:14Z</time>
      </trkpt>
      <trkpt lat="48.5701" lon="2.33058">
        <ele>79</ele>
        <time>2022-05-22T07:59:21Z</time>
      </trkpt>
      <trkpt lat="48.5698" lon="2.33119">
        <ele>79</ele>
        <time>2022-05-22T07:59:30Z</time>
      </trkpt>
      <trkpt lat="48.56932" lon="2.33248">
        <ele>79</ele>
        <time>2022-05-22T07:59:47Z</time>
      </trkpt>
      <trkpt lat="48.56895" lon="2.3332">
        <ele>79</ele>
        <time>2022-05-22T07:59:58Z</time>
      </trkpt>
      <trkpt lat="48.56839" lon="2.33401">
        <ele>80</ele>
        <time>2022-05-22T08:00:12Z</time>
      </trkpt>
      <trkpt lat="48.56788" lon="2.33459">
        <ele>79</ele>
        <time>2022-05-22T08:00:23Z</time>
      </trkpt>
      <trkpt lat="48.5676" lon="2.33495">
        <ele>78</ele>
        <time>2022-05-22T08:00:29Z</time>
      </trkpt>
      <trkpt lat="48.56712" lon="2.33577">
        <ele>77</ele>
        <time>2022-05-22T08:00:42Z</time>
      </trkpt>
      <trkpt lat="48.5664" lon="2.33722">
        <ele>76</ele>
        <time>2022-05-22T08:01:04Z</time>
      </trkpt>
      <trkpt lat="48.56623" lon="2.33748">
        <ele>76</ele>
        <time>2022-05-22T08:01:08Z</time>
      </trkpt>
      <trkpt lat="48.56605" lon="2.33771">
        <ele>76</ele>
        <time>2022-05-22T08:01:12Z</time>
      </trkpt>
      <trkpt lat="48.56583" lon="2.3378">
        <ele>76</ele>
        <time>2022-05-22T08:01:16Z</time>
      </trkpt>
      <trkpt lat="48.56574" lon="2.33792">
        <ele>76</ele>
        <time>2022-05-22T08:01:18Z</time>
      </trkpt>
      <trkpt lat="48.56569" lon="2.3381">
        <ele>77</ele>
        <time>2022-05-22T08:01:21Z</time>
      </trkpt>
      <trkpt lat="48.5657" lon="2.33847">
        <ele>77</ele>
        <time>2022-05-22T08:01:25Z</time>
      </trkpt>
      <trkpt lat="48.56538" lon="2.33931">
        <ele>76</ele>
        <time>2022-05-22T08:01:36Z</time>
      </trkpt>
      <trkpt lat="48.56472" lon="2.34088">
        <ele>75</ele>
        <time>2022-05-22T08:01:58Z</time>
      </trkpt>
      <trkpt lat="48.56451" lon="2.34153">
        <ele>75</ele>
        <time>2022-05-22T08:02:07Z</time>
      </trkpt>
      <trkpt lat="48.5646" lon="2.34146">
        <ele>75</ele>
        <time>2022-05-22T08:02:09Z</time>
      </trkpt>
      <trkpt lat="48.56463" lon="2.34132">
        <ele>75</ele>
        <time>2022-05-22T08:02:10Z</time>
      </trkpt>
      <trkpt lat="48.56478" lon="2.34093">
        <ele>75</ele>
        <time>2022-05-22T08:02:16Z</time>
      </trkpt>
      <trkpt lat="48.5656" lon="2.33903">
        <ele>76</ele>
        <time>2022-05-22T08:02:42Z</time>
      </trkpt>
      <trkpt lat="48.56587" lon="2.3386">
        <ele>77</ele>
        <time>2022-05-22T08:02:49Z</time>
      </trkpt>
      <trkpt lat="48.56612" lon="2.33852">
        <ele>77</ele>
        <time>2022-05-22T08:02:54Z</time>
      </trkpt>
      <trkpt lat="48.56621" lon="2.33841">
        <ele>76</ele>
        <time>2022-05-22T08:02:56Z</time>
      </trkpt>
      <trkpt lat="48.56625" lon="2.33809">
        <ele>76</ele>
        <time>2022-05-22T08:03:00Z</time>
      </trkpt>
      <trkpt lat="48.5662" lon="2.33794">
        <ele>76</ele>
        <time>2022-05-22T08:03:02Z</time>
      </trkpt>
      <trkpt lat="48.5661" lon="2.33779">
        <ele>76</ele>
        <time>2022-05-22T08:03:04Z</time>
      </trkpt>
      <trkpt lat="48.566" lon="2.33775">
        <ele>76</ele>
        <time>2022-05-22T08:03:06Z</time>
      </trkpt>
      <trkpt lat="48.56589" lon="2.33776">
        <ele>76</ele>
        <time>2022-05-22T08:03:08Z</time>
      </trkpt>
      <trkpt lat="48.56579" lon="2.33771">
        <ele>76</ele>
        <time>2022-05-22T08:03:10Z</time>
      </trkpt>
      <trkpt lat="48.56571" lon="2.33761">
        <ele>76</ele>
        <time>2022-05-22T08:03:12Z</time>
      </trkpt>
      <trkpt lat="48.56561" lon="2.33735">
        <ele>76</ele>
        <time>2022-05-22T08:03:15Z</time>
      </trkpt>
      <trkpt lat="48.5656" lon="2.33685">
        <ele>76</ele>
        <time>2022-05-22T08:03:21Z</time>
      </trkpt>
      <trkpt lat="48.56562" lon="2.3364">
        <ele>76</ele>
        <time>2022-05-22T08:03:27Z</time>
      </trkpt>
      <trkpt lat="48.56559" lon="2.33611">
        <ele>76</ele>
        <time>2022-05-22T08:03:30Z</time>
      </trkpt>
      <trkpt lat="48.56556" lon="2.33627">
        <ele>76</ele>
        <time>2022-05-22T08:03:32Z</time>
      </trkpt>
      <trkpt lat="48.56557" lon="2.33645">
        <ele>76</ele>
        <time>2022-05-22T08:03:34Z</time>
      </trkpt>
      <trkpt lat="48.56553" lon="2.33727">
        <ele>76</ele>
        <time>2022-05-22T08:03:44Z</time>
      </trkpt>
      <trkpt lat="48.56555" lon="2.33743">
        <ele>76</ele>
        <time>2022-05-22T08:03:46Z</time>
      </trkpt>
      <trkpt lat="48.56569" lon="2.33785">
        <ele>76</ele>
        <time>2022-05-22T08:03:51Z</time>
      </trkpt>
      <trkpt lat="48.5657" lon="2.33816">
        <ele>77</ele>
        <time>2022-05-22T08:03:55Z</time>
      </trkpt>
      <trkpt lat="48.56573" lon="2.3383">
        <ele>77</ele>
        <time>2022-05-22T08:03:57Z</time>
      </trkpt>
      <trkpt lat="48.56577" lon="2.33843">
        <ele>77</ele>
        <time>2022-05-22T08:03:58Z</time>
      </trkpt>
      <trkpt lat="48.56585" lon="2.33852">
        <ele>77</ele>
        <time>2022-05-22T08:04:00Z</time>
      </trkpt>
      <trkpt lat="48.56595" lon="2.33857">
        <ele>77</ele>
        <time>2022-05-22T08:04:02Z</time>
      </trkpt>
      <trkpt lat="48.56604" lon="2.33856">
        <ele>77</ele>
        <time>2022-05-22T08:04:04Z</time>
      </trkpt>
      <trkpt lat="48.56617" lon="2.3386">
        <ele>76</ele>
        <time>2022-05-22T08:04:06Z</time>
      </trkpt>
      <trkpt lat="48.56626" lon="2.33874">
        <ele>76</ele>
        <time>2022-05-22T08:04:08Z</time>
      </trkpt>
      <trkpt lat="48.56634" lon="2.33906">
        <ele>76</ele>
        <time>2022-05-22T08:04:12Z</time>
      </trkpt>
      <trkpt lat="48.5663" lon="2.33933">
        <ele>76</ele>
        <time>2022-05-22T08:04:16Z</time>
      </trkpt>
      <trkpt lat="48.56608" lon="2.34008">
        <ele>76</ele>
        <time>2022-05-22T08:04:25Z</time>
      </trkpt>
      <trkpt lat="48.56602" lon="2.34044">
        <ele>75</ele>
        <time>2022-05-22T08:04:30Z</time>
      </trkpt>
      <trkpt lat="48.566" lon="2.34082">
        <ele>75</ele>
        <time>2022-05-22T08:04:34Z</time>
      </trkpt>
      <trkpt lat="48.56622" lon="2.3422">
        <ele>75</ele>
        <time>2022-05-22T08:04:51Z</time>
      </trkpt>
      <trkpt lat="48.56642" lon="2.34319">
        <ele>75</ele>
        <time>2022-05-22T08:05:03Z</time>
      </trkpt>
      <trkpt lat="48.56668" lon="2.34421">
        <ele>75</ele>
        <time>2022-05-22T08:05:16Z</time>
      </trkpt>
      <trkpt lat="48.56727" lon="2.34601">
        <ele>72</ele>
        <time>2022-05-22T08:05:39Z</time>
      </trkpt>
      <trkpt lat="48.56738" lon="2.34647">
        <ele>72</ele>
        <time>2022-05-22T08:05:45Z</time>
      </trkpt>
      <trkpt lat="48.56764" lon="2.34775">
        <ele>72</ele>
        <time>2022-05-22T08:06:01Z</time>
      </trkpt>
      <trkpt lat="48.56776" lon="2.34879">
        <ele>72</ele>
        <time>2022-05-22T08:06:13Z</time>
      </trkpt>
      <trkpt lat="48.56778" lon="2.35008">
        <ele>72</ele>
        <time>2022-05-22T08:06:29Z</time>
      </trkpt>
      <trkpt lat="48.56772" lon="2.35156">
        <ele>70</ele>
        <time>2022-05-22T08:06:46Z</time>
      </trkpt>
      <trkpt lat="48.56772" lon="2.35255">
        <ele>71</ele>
        <time>2022-05-22T08:06:58Z</time>
      </trkpt>
      <trkpt lat="48.5677" lon="2.35299">
        <ele>71</ele>
        <time>2022-05-22T08:07:03Z</time>
      </trkpt>
      <trkpt lat="48.56766" lon="2.35313">
        <ele>70</ele>
        <time>2022-05-22T08:07:05Z</time>
      </trkpt>
      <trkpt lat="48.56769" lon="2.35332">
        <ele>70</ele>
        <time>2022-05-22T08:07:07Z</time>
      </trkpt>
      <trkpt lat="48.56766" lon="2.35396">
        <ele>70</ele>
        <time>2022-05-22T08:07:15Z</time>
      </trkpt>
      <trkpt lat="48.56754" lon="2.35475">
        <ele>70</ele>
        <time>2022-05-22T08:07:24Z</time>
      </trkpt>
      <trkpt lat="48.56729" lon="2.35569">
        <ele>70</ele>
        <time>2022-05-22T08:07:36Z</time>
      </trkpt>
      <trkpt lat="48.56731" lon="2.35584">
        <ele>70</ele>
        <time>2022-05-22T08:07:38Z</time>
      </trkpt>
      <trkpt lat="48.56753" lon="2.35589">
        <ele>70</ele>
        <time>2022-05-22T08:07:42Z</time>
      </trkpt>
      <trkpt lat="48.56774" lon="2.356">
        <ele>70</ele>
        <time>2022-05-22T08:07:46Z</time>
      </trkpt>
      <trkpt lat="48.56785" lon="2.35602">
        <ele>69</ele>
        <time>2022-05-22T08:07:48Z</time>
      </trkpt>
      <trkpt lat="48.56794" lon="2.35609">
        <ele>69</ele>
        <time>2022-05-22T08:07:50Z</time>
      </trkpt>
      <trkpt lat="48.56804" lon="2.3561">
        <ele>69</ele>
        <time>2022-05-22T08:07:51Z</time>
      </trkpt>
      <trkpt lat="48.56813" lon="2.35614">
        <ele>69</ele>
        <time>2022-05-22T08:07:53Z</time>
      </trkpt>
      <trkpt lat="48.56815" lon="2.35628">
        <ele>69</ele>
        <time>2022-05-22T08:07:55Z</time>
      </trkpt>
      <trkpt lat="48.56816" lon="2.35708">
        <ele>68</ele>
        <time>2022-05-22T08:08:04Z</time>
      </trkpt>
      <trkpt lat="48.56819" lon="2.35722">
        <ele>68</ele>
        <time>2022-05-22T08:08:06Z</time>
      </trkpt>
      <trkpt lat="48.56818" lon="2.35739">
        <ele>67</ele>
        <time>2022-05-22T08:08:08Z</time>
      </trkpt>
      <trkpt lat="48.56837" lon="2.35847">
        <ele>67</ele>
        <time>2022-05-22T08:08:21Z</time>
      </trkpt>
      <trkpt lat="48.56857" lon="2.35883">
        <ele>67</ele>
        <time>2022-05-22T08:08:27Z</time>
      </trkpt>
      <trkpt lat="48.56879" lon="2.35911">
        <ele>68</ele>
        <time>2022-05-22T08:08:32Z</time>
      </trkpt>
      <trkpt lat="48.56885" lon="2.35923">
        <ele>68</ele>
        <time>2022-05-22T08:08:33Z</time>
      </trkpt>
      <trkpt lat="48.56909" lon="2.35948">
        <ele>68</ele>
        <time>2022-05-22T08:08:39Z</time>
      </trkpt>
      <trkpt lat="48.56963" lon="2.36018">
        <ele>71</ele>
        <time>2022-05-22T08:08:51Z</time>
      </trkpt>
      <trkpt lat="48.5698" lon="2.36036">
        <ele>72</ele>
        <time>2022-05-22T08:08:55Z</time>
      </trkpt>
      <trkpt lat="48.56985" lon="2.36049">
        <ele>72</ele>
        <time>2022-05-22T08:08:57Z</time>
      </trkpt>
      <trkpt lat="48.56998" lon="2.3604">
        <ele>72</ele>
        <time>2022-05-22T08:08:59Z</time>
      </trkpt>
      <trkpt lat="48.57008" lon="2.36042">
        <ele>73</ele>
        <time>2022-05-22T08:09:01Z</time>
      </trkpt>
      <trkpt lat="48.57016" lon="2.36051">
        <ele>73</ele>
        <time>2022-05-22T08:09:03Z</time>
      </trkpt>
      <trkpt lat="48.57026" lon="2.36051">
        <ele>74</ele>
        <time>2022-05-22T08:09:05Z</time>
      </trkpt>
      <trkpt lat="48.57073" lon="2.36088">
        <ele>76</ele>
        <time>2022-05-22T08:09:14Z</time>
      </trkpt>
      <trkpt lat="48.57084" lon="2.36119">
        <ele>76</ele>
        <time>2022-05-22T08:09:18Z</time>
      </trkpt>
      <trkpt lat="48.57093" lon="2.36126">
        <ele>76</ele>
        <time>2022-05-22T08:09:20Z</time>
      </trkpt>
      <trkpt lat="48.57102" lon="2.36127">
        <ele>76</ele>
        <time>2022-05-22T08:09:22Z</time>
      </trkpt>
      <trkpt lat="48.57111" lon="2.3612">
        <ele>76</ele>
        <time>2022-05-22T08:09:23Z</time>
      </trkpt>
      <trkpt lat="48.57121" lon="2.36116">
        <ele>76</ele>
        <time>2022-05-22T08:09:25Z</time>
      </trkpt>
      <trkpt lat="48.5714" lon="2.36131">
        <ele>76</ele>
        <time>2022-05-22T08:09:29Z</time>
      </trkpt>
      <trkpt lat="48.5716" lon="2.36133">
        <ele>76</ele>
        <time>2022-05-22T08:09:33Z</time>
      </trkpt>
      <trkpt lat="48.57179" lon="2.36127">
        <ele>76</ele>
        <time>2022-05-22T08:09:36Z</time>
      </trkpt>
      <trkpt lat="48.57188" lon="2.36132">
        <ele>76</ele>
        <time>2022-05-22T08:09:38Z</time>
      </trkpt>
      <trkpt lat="48.57191" lon="2.36149">
        <ele>76</ele>
        <time>2022-05-22T08:09:40Z</time>
      </trkpt>
      <trkpt lat="48.57189" lon="2.36183">
        <ele>76</ele>
        <time>2022-05-22T08:09:44Z</time>
      </trkpt>
      <trkpt lat="48.5719" lon="2.36248">
        <ele>75</ele>
        <time>2022-05-22T08:09:52Z</time>
      </trkpt>
      <trkpt lat="48.57187" lon="2.36278">
        <ele>75</ele>
        <time>2022-05-22T08:09:55Z</time>
      </trkpt>
      <trkpt lat="48.57185" lon="2.36358">
        <ele>74</ele>
        <time>2022-05-22T08:10:05Z</time>
      </trkpt>
      <trkpt lat="48.57175" lon="2.36446">
        <ele>74</ele>
        <time>2022-05-22T08:10:15Z</time>
      </trkpt>
      <trkpt lat="48.57129" lon="2.36661">
        <ele>72</ele>
        <time>2022-05-22T08:10:42Z</time>
      </trkpt>
      <trkpt lat="48.57073" lon="2.36971">
        <ele>73</ele>
        <time>2022-05-22T08:11:19Z</time>
      </trkpt>
      <trkpt lat="48.57056" lon="2.37132">
        <ele>73</ele>
        <time>2022-05-22T08:11:39Z</time>
      </trkpt>
      <trkpt lat="48.56999" lon="2.37513">
        <ele>73</ele>
        <time>2022-05-22T08:12:25Z</time>
      </trkpt>
      <trkpt lat="48.56992" lon="2.37583">
        <ele>73</ele>
        <time>2022-05-22T08:12:33Z</time>
      </trkpt>
      <trkpt lat="48.56995" lon="2.37649">
        <ele>73</ele>
        <time>2022-05-22T08:12:41Z</time>
      </trkpt>
      <trkpt lat="48.57016" lon="2.37756">
        <ele>73</ele>
        <time>2022-05-22T08:12:54Z</time>
      </trkpt>
      <trkpt lat="48.57022" lon="2.37803">
        <ele>73</ele>
        <time>2022-05-22T08:13:00Z</time>
      </trkpt>
      <trkpt lat="48.57022" lon="2.37859">
        <ele>73</ele>
        <time>2022-05-22T08:13:06Z</time>
      </trkpt>
      <trkpt lat="48.57017" lon="2.37929">
        <ele>73</ele>
        <time>2022-05-22T08:13:14Z</time>
      </trkpt>
      <trkpt lat="48.5696" lon="2.38353">
        <ele>74</ele>
        <time>2022-05-22T08:14:05Z</time>
      </trkpt>
      <trkpt lat="48.56913" lon="2.3856">
        <ele>73</ele>
        <time>2022-05-22T08:14:31Z</time>
      </trkpt>
      <trkpt lat="48.5687" lon="2.38771">
        <ele>73</ele>
        <time>2022-05-22T08:14:57Z</time>
      </trkpt>
      <trkpt lat="48.56852" lon="2.38921">
        <ele>72</ele>
        <time>2022-05-22T08:15:15Z</time>
      </trkpt>
      <trkpt lat="48.5684" lon="2.39121">
        <ele>72</ele>
        <time>2022-05-22T08:15:39Z</time>
      </trkpt>
      <trkpt lat="48.56844" lon="2.39158">
        <ele>72</ele>
        <time>2022-05-22T08:15:43Z</time>
      </trkpt>
      <trkpt lat="48.56854" lon="2.3921">
        <ele>72</ele>
        <time>2022-05-22T08:15:50Z</time>
      </trkpt>
      <trkpt lat="48.56905" lon="2.39409">
        <ele>75</ele>
        <time>2022-05-22T08:16:15Z</time>
      </trkpt>
      <trkpt lat="48.56926" lon="2.39544">
        <ele>76</ele>
        <time>2022-05-22T08:16:31Z</time>
      </trkpt>
      <trkpt lat="48.56942" lon="2.39667">
        <ele>75</ele>
        <time>2022-05-22T08:16:46Z</time>
      </trkpt>
      <trkpt lat="48.5695" lon="2.39786">
        <ele>75</ele>
        <time>2022-05-22T08:17:00Z</time>
      </trkpt>
      <trkpt lat="48.56958" lon="2.39842">
        <ele>75</ele>
        <time>2022-05-22T08:17:07Z</time>
      </trkpt>
      <trkpt lat="48.56968" lon="2.39877">
        <ele>76</ele>
        <time>2022-05-22T08:17:11Z</time>
      </trkpt>
      <trkpt lat="48.56986" lon="2.39923">
        <ele>77</ele>
        <time>2022-05-22T08:17:17Z</time>
      </trkpt>
      <trkpt lat="48.5707" lon="2.40115">
        <ele>77</ele>
        <time>2022-05-22T08:17:44Z</time>
      </trkpt>
      <trkpt lat="48.57091" lon="2.40149">
        <ele>76</ele>
        <time>2022-05-22T08:17:50Z</time>
      </trkpt>
      <trkpt lat="48.57135" lon="2.40206">
        <ele>76</ele>
        <time>2022-05-22T08:18:00Z</time>
      </trkpt>
      <trkpt lat="48.57137" lon="2.40223">
        <ele>76</ele>
        <time>2022-05-22T08:18:02Z</time>
      </trkpt>
      <trkpt lat="48.57127" lon="2.40256">
        <ele>75</ele>
        <time>2022-05-22T08:18:07Z</time>
      </trkpt>
      <trkpt lat="48.57129" lon="2.40274">
        <ele>75</ele>
        <time>2022-05-22T08:18:09Z</time>
      </trkpt>
      <trkpt lat="48.57204" lon="2.40497">
        <ele>77</ele>
        <time>2022-05-22T08:18:38Z</time>
      </trkpt>
      <trkpt lat="48.57234" lon="2.40609">
        <ele>80</ele>
        <time>2022-05-22T08:18:52Z</time>
      </trkpt>
      <trkpt lat="48.57252" lon="2.40649">
        <ele>81</ele>
        <time>2022-05-22T08:18:58Z</time>
      </trkpt>
      <trkpt lat="48.57255" lon="2.40663">
        <ele>81</ele>
        <time>2022-05-22T08:19:00Z</time>
      </trkpt>
      <trkpt lat="48.57288" lon="2.40741">
        <ele>80</ele>
        <time>2022-05-22T08:19:11Z</time>
      </trkpt>
      <trkpt lat="48.57286" lon="2.40754">
        <ele>80</ele>
        <time>2022-05-22T08:19:12Z</time>
      </trkpt>
      <trkpt lat="48.57245" lon="2.40781">
        <ele>82</ele>
        <time>2022-05-22T08:19:20Z</time>
      </trkpt>
      <trkpt lat="48.57215" lon="2.40797">
        <ele>81</ele>
        <time>2022-05-22T08:19:26Z</time>
      </trkpt>
      <trkpt lat="48.57199" lon="2.40813">
        <ele>81</ele>
        <time>2022-05-22T08:19:29Z</time>
      </trkpt>
      <trkpt lat="48.57211" lon="2.40838">
        <ele>82</ele>
        <time>2022-05-22T08:19:33Z</time>
      </trkpt>
      <trkpt lat="48.57206" lon="2.40852">
        <ele>82</ele>
        <time>2022-05-22T08:19:35Z</time>
      </trkpt>
      <trkpt lat="48.57192" lon="2.40871">
        <ele>81</ele>
        <time>2022-05-22T08:19:38Z</time>
      </trkpt>
      <trkpt lat="48.57185" lon="2.409">
        <ele>81</ele>
        <time>2022-05-22T08:19:42Z</time>
      </trkpt>
      <trkpt lat="48.57179" lon="2.40914">
        <ele>80</ele>
        <time>2022-05-22T08:19:44Z</time>
      </trkpt>
      <trkpt lat="48.57181" lon="2.40948">
        <ele>80</ele>
        <time>2022-05-22T08:19:48Z</time>
      </trkpt>
      <trkpt lat="48.57177" lon="2.40987">
        <ele>79</ele>
        <time>2022-05-22T08:19:52Z</time>
      </trkpt>
      <trkpt lat="48.57169" lon="2.41015">
        <ele>78</ele>
        <time>2022-05-22T08:19:56Z</time>
      </trkpt>
      <trkpt lat="48.57144" lon="2.41032">
        <ele>77</ele>
        <time>2022-05-22T08:20:01Z</time>
      </trkpt>
      <trkpt lat="48.57096" lon="2.41078">
        <ele>71</ele>
        <time>2022-05-22T08:20:11Z</time>
      </trkpt>
      <trkpt lat="48.57032" lon="2.41153">
        <ele>61</ele>
        <time>2022-05-22T08:20:25Z</time>
      </trkpt>
      <trkpt lat="48.56944" lon="2.41274">
        <ele>51</ele>
        <time>2022-05-22T08:20:47Z</time>
      </trkpt>
      <trkpt lat="48.56908" lon="2.41318">
        <ele>48</ele>
        <time>2022-05-22T08:20:55Z</time>
      </trkpt>
      <trkpt lat="48.56862" lon="2.41382">
        <ele>47</ele>
        <time>2022-05-22T08:21:06Z</time>
      </trkpt>
      <trkpt lat="48.56784" lon="2.41481">
        <ele>46</ele>
        <time>2022-05-22T08:21:24Z</time>
      </trkpt>
      <trkpt lat="48.56764" lon="2.41514">
        <ele>47</ele>
        <time>2022-05-22T08:21:29Z</time>
      </trkpt>
      <trkpt lat="48.56709" lon="2.41581">
        <ele>49</ele>
        <time>2022-05-22T08:21:42Z</time>
      </trkpt>
      <trkpt lat="48.56672" lon="2.41649">
        <ele>50</ele>
        <time>2022-05-22T08:21:52Z</time>
      </trkpt>
      <trkpt lat="48.5667" lon="2.41663">
        <ele>51</ele>
        <time>2022-05-22T08:21:54Z</time>
      </trkpt>
      <trkpt lat="48.56674" lon="2.41691">
        <ele>51</ele>
        <time>2022-05-22T08:21:57Z</time>
      </trkpt>
      <trkpt lat="48.56712" lon="2.41787">
        <ele>50</ele>
        <time>2022-05-22T08:22:11Z</time>
      </trkpt>
      <trkpt lat="48.56759" lon="2.4189">
        <ele>50</ele>
        <time>2022-05-22T08:22:25Z</time>
      </trkpt>
      <trkpt lat="48.56757" lon="2.4192">
        <ele>51</ele>
        <time>2022-05-22T08:22:29Z</time>
      </trkpt>
      <trkpt lat="48.56734" lon="2.4195">
        <ele>51</ele>
        <time>2022-05-22T08:22:34Z</time>
      </trkpt>
      <trkpt lat="48.56625" lon="2.42053">
        <ele>55</ele>
        <time>2022-05-22T08:22:57Z</time>
      </trkpt>
      <trkpt lat="48.56613" lon="2.42081">
        <ele>57</ele>
        <time>2022-05-22T08:23:01Z</time>
      </trkpt>
      <trkpt lat="48.56612" lon="2.42097">
        <ele>57</ele>
        <time>2022-05-22T08:23:03Z</time>
      </trkpt>
      <trkpt lat="48.56619" lon="2.42129">
        <ele>56</ele>
        <time>2022-05-22T08:23:07Z</time>
      </trkpt>
      <trkpt lat="48.56622" lon="2.42159">
        <ele>56</ele>
        <time>2022-05-22T08:23:10Z</time>
      </trkpt>
      <trkpt lat="48.56645" lon="2.4226">
        <ele>57</ele>
        <time>2022-05-22T08:23:23Z</time>
      </trkpt>
      <trkpt lat="48.56671" lon="2.42407">
        <ele>54</ele>
        <time>2022-05-22T08:23:41Z</time>
      </trkpt>
      <trkpt lat="48.56695" lon="2.42516">
        <ele>53</ele>
        <time>2022-05-22T08:23:54Z</time>
      </trkpt>
      <trkpt lat="48.56697" lon="2.42548">
        <ele>53</ele>
        <time>2022-05-22T08:23:58Z</time>
      </trkpt>
      <trkpt lat="48.5669" lon="2.42559">
        <ele>53</ele>
        <time>2022-05-22T08:24:00Z</time>
      </trkpt>
      <trkpt lat="48.56696" lon="2.42595">
        <ele>54</ele>
        <time>2022-05-22T08:24:04Z</time>
      </trkpt>
      <trkpt lat="48.56687" lon="2.42624">
        <ele>54</ele>
        <time>2022-05-22T08:24:08Z</time>
      </trkpt>
      <trkpt lat="48.56576" lon="2.42731">
        <ele>63</ele>
        <time>2022-05-22T08:24:32Z</time>
      </trkpt>
      <trkpt lat="48.56517" lon="2.42784">
        <ele>69</ele>
        <time>2022-05-22T08:24:44Z</time>
      </trkpt>
      <trkpt lat="48.56507" lon="2.42792">
        <ele>69</ele>
        <time>2022-05-22T08:24:46Z</time>
      </trkpt>
      <trkpt lat="48.56497" lon="2.42793">
        <ele>70</ele>
        <time>2022-05-22T08:24:48Z</time>
      </trkpt>
      <trkpt lat="48.56487" lon="2.42797">
        <ele>70</ele>
        <time>2022-05-22T08:24:49Z</time>
      </trkpt>
      <trkpt lat="48.56479" lon="2.42804">
        <ele>70</ele>
        <time>2022-05-22T08:24:51Z</time>
      </trkpt>
      <trkpt lat="48.56469" lon="2.42807">
        <ele>70</ele>
        <time>2022-05-22T08:24:53Z</time>
      </trkpt>
      <trkpt lat="48.56468" lon="2.4282">
        <ele>70</ele>
        <time>2022-05-22T08:24:54Z</time>
      </trkpt>
      <trkpt lat="48.5646" lon="2.42832">
        <ele>69</ele>
        <time>2022-05-22T08:24:56Z</time>
      </trkpt>
      <trkpt lat="48.56444" lon="2.42846">
        <ele>70</ele>
        <time>2022-05-22T08:25:00Z</time>
      </trkpt>
      <trkpt lat="48.56418" lon="2.42875">
        <ele>71</ele>
        <time>2022-05-22T08:25:06Z</time>
      </trkpt>
      <trkpt lat="48.56408" lon="2.42881">
        <ele>72</ele>
        <time>2022-05-22T08:25:07Z</time>
      </trkpt>
      <trkpt lat="48.56364" lon="2.42923">
        <ele>75</ele>
        <time>2022-05-22T08:25:17Z</time>
      </trkpt>
      <trkpt lat="48.56342" lon="2.42949">
        <ele>76</ele>
        <time>2022-05-22T08:25:22Z</time>
      </trkpt>
      <trkpt lat="48.56332" lon="2.42947">
        <ele>77</ele>
        <time>2022-05-22T08:25:23Z</time>
      </trkpt>
      <trkpt lat="48.56315" lon="2.42956">
        <ele>77</ele>
        <time>2022-05-22T08:25:27Z</time>
      </trkpt>
      <trkpt lat="48.56306" lon="2.42954">
        <ele>78</ele>
        <time>2022-05-22T08:25:28Z</time>
      </trkpt>
      <trkpt lat="48.56292" lon="2.42933">
        <ele>78</ele>
        <time>2022-05-22T08:25:32Z</time>
      </trkpt>
      <trkpt lat="48.56257" lon="2.42914">
        <ele>79</ele>
        <time>2022-05-22T08:25:38Z</time>
      </trkpt>
      <trkpt lat="48.56248" lon="2.4292">
        <ele>79</ele>
        <time>2022-05-22T08:25:40Z</time>
      </trkpt>
      <trkpt lat="48.56239" lon="2.42931">
        <ele>79</ele>
        <time>2022-05-22T08:25:42Z</time>
      </trkpt>
      <trkpt lat="48.56242" lon="2.42946">
        <ele>79</ele>
        <time>2022-05-22T08:25:44Z</time>
      </trkpt>
      <trkpt lat="48.56253" lon="2.42973">
        <ele>78</ele>
        <time>2022-05-22T08:25:48Z</time>
      </trkpt>
      <trkpt lat="48.56265" lon="2.43012">
        <ele>78</ele>
        <time>2022-05-22T08:25:53Z</time>
      </trkpt>
      <trkpt lat="48.56277" lon="2.43035">
        <ele>78</ele>
        <time>2022-05-22T08:25:56Z</time>
      </trkpt>
      <trkpt lat="48.56303" lon="2.43122">
        <ele>79</ele>
        <time>2022-05-22T08:26:08Z</time>
      </trkpt>
      <trkpt lat="48.56332" lon="2.4324">
        <ele>80</ele>
        <time>2022-05-22T08:26:22Z</time>
      </trkpt>
      <trkpt lat="48.56341" lon="2.43302">
        <ele>81</ele>
        <time>2022-05-22T08:26:30Z</time>
      </trkpt>
      <trkpt lat="48.56333" lon="2.43327">
        <ele>81</ele>
        <time>2022-05-22T08:26:33Z</time>
      </trkpt>
      <trkpt lat="48.56342" lon="2.43322">
        <ele>81</ele>
        <time>2022-05-22T08:26:35Z</time>
      </trkpt>
      <trkpt lat="48.56348" lon="2.43335">
        <ele>81</ele>
        <time>2022-05-22T08:26:37Z</time>
      </trkpt>
      <trkpt lat="48.56356" lon="2.43343">
        <ele>82</ele>
        <time>2022-05-22T08:26:38Z</time>
      </trkpt>
      <trkpt lat="48.56366" lon="2.43373">
        <ele>83</ele>
        <time>2022-05-22T08:26:42Z</time>
      </trkpt>
      <trkpt lat="48.56374" lon="2.43416">
        <ele>84</ele>
        <time>2022-05-22T08:26:48Z</time>
      </trkpt>
      <trkpt lat="48.56387" lon="2.43456">
        <ele>85</ele>
        <time>2022-05-22T08:26:53Z</time>
      </trkpt>
      <trkpt lat="48.56459" lon="2.43625">
        <ele>84</ele>
        <time>2022-05-22T08:27:17Z</time>
      </trkpt>
      <trkpt lat="48.56468" lon="2.43651">
        <ele>84</ele>
        <time>2022-05-22T08:27:20Z</time>
      </trkpt>
      <trkpt lat="48.5647" lon="2.43665">
        <ele>84</ele>
        <time>2022-05-22T08:27:22Z</time>
      </trkpt>
      <trkpt lat="48.5649" lon="2.43699">
        <ele>84</ele>
        <time>2022-05-22T08:27:27Z</time>
      </trkpt>
      <trkpt lat="48.56498" lon="2.4373">
        <ele>84</ele>
        <time>2022-05-22T08:27:31Z</time>
      </trkpt>
      <trkpt lat="48.5651" lon="2.4379">
        <ele>84</ele>
        <time>2022-05-22T08:27:38Z</time>
      </trkpt>
      <trkpt lat="48.56517" lon="2.4384">
        <ele>84</ele>
        <time>2022-05-22T08:27:44Z</time>
      </trkpt>
      <trkpt lat="48.56545" lon="2.43974">
        <ele>86</ele>
        <time>2022-05-22T08:28:01Z</time>
      </trkpt>
      <trkpt lat="48.5655" lon="2.43988">
        <ele>87</ele>
        <time>2022-05-22T08:28:03Z</time>
      </trkpt>
      <trkpt lat="48.5659" lon="2.44178">
        <ele>89</ele>
        <time>2022-05-22T08:28:26Z</time>
      </trkpt>
      <trkpt lat="48.56631" lon="2.44356">
        <ele>85</ele>
        <time>2022-05-22T08:28:48Z</time>
      </trkpt>
      <trkpt lat="48.56644" lon="2.44439">
        <ele>84</ele>
        <time>2022-05-22T08:28:58Z</time>
      </trkpt>
      <trkpt lat="48.56651" lon="2.4445">
        <ele>84</ele>
        <time>2022-05-22T08:29:00Z</time>
      </trkpt>
      <trkpt lat="48.56656" lon="2.44467">
        <ele>83</ele>
        <time>2022-05-22T08:29:02Z</time>
      </trkpt>
      <trkpt lat="48.56666" lon="2.44514">
        <ele>83</ele>
        <time>2022-05-22T08:29:08Z</time>
      </trkpt>
      <trkpt lat="48.56674" lon="2.44524">
        <ele>83</ele>
        <time>2022-05-22T08:29:10Z</time>
      </trkpt>
      <trkpt lat="48.56681" lon="2.44539">
        <ele>84</ele>
        <time>2022-05-22T08:29:12Z</time>
      </trkpt>
      <trkpt lat="48.56686" lon="2.44572">
        <ele>84</ele>
        <time>2022-05-22T08:29:16Z</time>
      </trkpt>
      <trkpt lat="48.56698" lon="2.4462">
        <ele>84</ele>
        <time>2022-05-22T08:29:22Z</time>
      </trkpt>
      <trkpt lat="48.56702" lon="2.4465">
        <ele>84</ele>
        <time>2022-05-22T08:29:26Z</time>
      </trkpt>
      <trkpt lat="48.56715" lon="2.44706">
        <ele>84</ele>
        <time>2022-05-22T08:29:33Z</time>
      </trkpt>
      <trkpt lat="48.56725" lon="2.44769">
        <ele>84</ele>
        <time>2022-05-22T08:29:41Z</time>
      </trkpt>
      <trkpt lat="48.56733" lon="2.44803">
        <ele>83</ele>
        <time>2022-05-22T08:29:45Z</time>
      </trkpt>
      <trkpt lat="48.56735" lon="2.44821">
        <ele>82</ele>
        <time>2022-05-22T08:29:47Z</time>
      </trkpt>
      <trkpt lat="48.5673" lon="2.44836">
        <ele>82</ele>
        <time>2022-05-22T08:29:49Z</time>
      </trkpt>
      <trkpt lat="48.56737" lon="2.44852">
        <ele>82</ele>
        <time>2022-05-22T08:29:51Z</time>
      </trkpt>
      <trkpt lat="48.56753" lon="2.44873">
        <ele>82</ele>
        <time>2022-05-22T08:29:55Z</time>
      </trkpt>
      <trkpt lat="48.56773" lon="2.44974">
        <ele>82</ele>
        <time>2022-05-22T08:30:07Z</time>
      </trkpt>
      <trkpt lat="48.56803" lon="2.451">
        <ele>82</ele>
        <time>2022-05-22T08:30:23Z</time>
      </trkpt>
      <trkpt lat="48.56821" lon="2.4519">
        <ele>81</ele>
        <time>2022-05-22T08:30:34Z</time>
      </trkpt>
      <trkpt lat="48.56835" lon="2.45244">
        <ele>82</ele>
        <time>2022-05-22T08:30:41Z</time>
      </trkpt>
      <trkpt lat="48.56842" lon="2.45291">
        <ele>82</ele>
        <time>2022-05-22T08:30:47Z</time>
      </trkpt>
      <trkpt lat="48.56879" lon="2.4544">
        <ele>82</ele>
        <time>2022-05-22T08:31:05Z</time>
      </trkpt>
      <trkpt lat="48.569" lon="2.45547">
        <ele>81</ele>
        <time>2022-05-22T08:31:19Z</time>
      </trkpt>
      <trkpt lat="48.56923" lon="2.45641">
        <ele>82</ele>
        <time>2022-05-22T08:31:30Z</time>
      </trkpt>
      <trkpt lat="48.5694" lon="2.4573">
        <ele>82</ele>
        <time>2022-05-22T08:31:41Z</time>
      </trkpt>
      <trkpt lat="48.56961" lon="2.45807">
        <ele>82</ele>
        <time>2022-05-22T08:31:51Z</time>
      </trkpt>
      <trkpt lat="48.56975" lon="2.45876">
        <ele>82</ele>
        <time>2022-05-22T08:32:00Z</time>
      </trkpt>
      <trkpt lat="48.56977" lon="2.45909">
        <ele>83</ele>
        <time>2022-05-22T08:32:03Z</time>
      </trkpt>
      <trkpt lat="48.56957" lon="2.45921">
        <ele>83</ele>
        <time>2022-05-22T08:32:07Z</time>
      </trkpt>
      <trkpt lat="48.56929" lon="2.46019">
        <ele>84</ele>
        <time>2022-05-22T08:32:20Z</time>
      </trkpt>
      <trkpt lat="48.56923" lon="2.46051">
        <ele>83</ele>
        <time>2022-05-22T08:32:24Z</time>
      </trkpt>
      <trkpt lat="48.56916" lon="2.46062">
        <ele>83</ele>
        <time>2022-05-22T08:32:26Z</time>
      </trkpt>
      <trkpt lat="48.56898" lon="2.4615">
        <ele>84</ele>
        <time>2022-05-22T08:32:36Z</time>
      </trkpt>
      <trkpt lat="48.56875" lon="2.46237">
        <ele>84</ele>
        <time>2022-05-22T08:32:47Z</time>
      </trkpt>
      <trkpt lat="48.56863" lon="2.46266">
        <ele>84</ele>
        <time>2022-05-22T08:32:51Z</time>
      </trkpt>
      <trkpt lat="48.56845" lon="2.46287">
        <ele>84</ele>
        <time>2022-05-22T08:32:56Z</time>
      </trkpt>
      <trkpt lat="48.5683" lon="2.46313">
        <ele>84</ele>
        <time>2022-05-22T08:33:00Z</time>
      </trkpt>
      <trkpt lat="48.56819" lon="2.46312">
        <ele>84</ele>
        <time>2022-05-22T08:33:02Z</time>
      </trkpt>
      <trkpt lat="48.56801" lon="2.46331">
        <ele>84</ele>
        <time>2022-05-22T08:33:05Z</time>
      </trkpt>
      <trkpt lat="48.56798" lon="2.46362">
        <ele>83</ele>
        <time>2022-05-22T08:33:09Z</time>
      </trkpt>
      <trkpt lat="48.56799" lon="2.46394">
        <ele>83</ele>
        <time>2022-05-22T08:33:13Z</time>
      </trkpt>
      <trkpt lat="48.5675" lon="2.46493">
        <ele>82</ele>
        <time>2022-05-22T08:33:27Z</time>
      </trkpt>
      <trkpt lat="48.56726" lon="2.46523">
        <ele>82</ele>
        <time>2022-05-22T08:33:33Z</time>
      </trkpt>
      <trkpt lat="48.56708" lon="2.46535">
        <ele>83</ele>
        <time>2022-05-22T08:33:36Z</time>
      </trkpt>
      <trkpt lat="48.56689" lon="2.46538">
        <ele>83</ele>
        <time>2022-05-22T08:33:40Z</time>
      </trkpt>
      <trkpt lat="48.56681" lon="2.46546">
        <ele>83</ele>
        <time>2022-05-22T08:33:42Z</time>
      </trkpt>
      <trkpt lat="48.56676" lon="2.46558">
        <ele>83</ele>
        <time>2022-05-22T08:33:43Z</time>
      </trkpt>
      <trkpt lat="48.56677" lon="2.46572">
        <ele>84</ele>
        <time>2022-05-22T08:33:45Z</time>
      </trkpt>
      <trkpt lat="48.56685" lon="2.46598">
        <ele>84</ele>
        <time>2022-05-22T08:33:48Z</time>
      </trkpt>
      <trkpt lat="48.5668" lon="2.46639">
        <ele>83</ele>
        <time>2022-05-22T08:33:53Z</time>
      </trkpt>
      <trkpt lat="48.56624" lon="2.46838">
        <ele>82</ele>
        <time>2022-05-22T08:34:19Z</time>
      </trkpt>
      <trkpt lat="48.56627" lon="2.46953">
        <ele>82</ele>
        <time>2022-05-22T08:34:32Z</time>
      </trkpt>
      <trkpt lat="48.56632" lon="2.47042">
        <ele>82</ele>
        <time>2022-05-22T08:34:43Z</time>
      </trkpt>
      <trkpt lat="48.56631" lon="2.47131">
        <ele>82</ele>
        <time>2022-05-22T08:34:53Z</time>
      </trkpt>
      <trkpt lat="48.56634" lon="2.47262">
        <ele>82</ele>
        <time>2022-05-22T08:35:09Z</time>
      </trkpt>
      <trkpt lat="48.56641" lon="2.47292">
        <ele>82</ele>
        <time>2022-05-22T08:35:12Z</time>
      </trkpt>
      <trkpt lat="48.56651" lon="2.47317">
        <ele>82</ele>
        <time>2022-05-22T08:35:16Z</time>
      </trkpt>
      <trkpt lat="48.56693" lon="2.47392">
        <ele>85</ele>
        <time>2022-05-22T08:35:27Z</time>
      </trkpt>
      <trkpt lat="48.56702" lon="2.47417">
        <ele>87</ele>
        <time>2022-05-22T08:35:31Z</time>
      </trkpt>
      <trkpt lat="48.5674" lon="2.47564">
        <ele>86</ele>
        <time>2022-05-22T08:35:49Z</time>
      </trkpt>
      <trkpt lat="48.56747" lon="2.47598">
        <ele>86</ele>
        <time>2022-05-22T08:35:54Z</time>
      </trkpt>
      <trkpt lat="48.56748" lon="2.47614">
        <ele>86</ele>
        <time>2022-05-22T08:35:55Z</time>
      </trkpt>
      <trkpt lat="48.56745" lon="2.47628">
        <ele>85</ele>
        <time>2022-05-22T08:35:57Z</time>
      </trkpt>
      <trkpt lat="48.56734" lon="2.47654">
        <ele>85</ele>
        <time>2022-05-22T08:36:01Z</time>
      </trkpt>
      <trkpt lat="48.56748" lon="2.47719">
        <ele>84</ele>
        <time>2022-05-22T08:36:09Z</time>
      </trkpt>
      <trkpt lat="48.56749" lon="2.47705">
        <ele>84</ele>
        <time>2022-05-22T08:36:11Z</time>
      </trkpt>
      <trkpt lat="48.56739" lon="2.47683">
        <ele>84</ele>
        <time>2022-05-22T08:36:14Z</time>
      </trkpt>
      <trkpt lat="48.5673" lon="2.47688">
        <ele>84</ele>
        <time>2022-05-22T08:36:15Z</time>
      </trkpt>
      <trkpt lat="48.56702" lon="2.47745">
        <ele>83</ele>
        <time>2022-05-22T08:36:24Z</time>
      </trkpt>
      <trkpt lat="48.56697" lon="2.47762">
        <ele>82</ele>
        <time>2022-05-22T08:36:26Z</time>
      </trkpt>
      <trkpt lat="48.56685" lon="2.47787">
        <ele>83</ele>
        <time>2022-05-22T08:36:30Z</time>
      </trkpt>
      <trkpt lat="48.56683" lon="2.47802">
        <ele>83</ele>
        <time>2022-05-22T08:36:31Z</time>
      </trkpt>
      <trkpt lat="48.56685" lon="2.47817">
        <ele>83</ele>
        <time>2022-05-22T08:36:33Z</time>
      </trkpt>
      <trkpt lat="48.56694" lon="2.47845">
        <ele>83</ele>
        <time>2022-05-22T08:36:37Z</time>
      </trkpt>
      <trkpt lat="48.56693" lon="2.47862">
        <ele>83</ele>
        <time>2022-05-22T08:36:39Z</time>
      </trkpt>
      <trkpt lat="48.56665" lon="2.47909">
        <ele>83</ele>
        <time>2022-05-22T08:36:46Z</time>
      </trkpt>
      <trkpt lat="48.56656" lon="2.47916">
        <ele>83</ele>
        <time>2022-05-22T08:36:48Z</time>
      </trkpt>
      <trkpt lat="48.56635" lon="2.47995">
        <ele>83</ele>
        <time>2022-05-22T08:36:58Z</time>
      </trkpt>
      <trkpt lat="48.5663" lon="2.48073">
        <ele>82</ele>
        <time>2022-05-22T08:37:07Z</time>
      </trkpt>
      <trkpt lat="48.56627" lon="2.48183">
        <ele>84</ele>
        <time>2022-05-22T08:37:20Z</time>
      </trkpt>
      <trkpt lat="48.56612" lon="2.48266">
        <ele>85</ele>
        <time>2022-05-22T08:37:30Z</time>
      </trkpt>
      <trkpt lat="48.56611" lon="2.48389">
        <ele>85</ele>
        <time>2022-05-22T08:37:45Z</time>
      </trkpt>
      <trkpt lat="48.56614" lon="2.48405">
        <ele>85</ele>
        <time>2022-05-22T08:37:47Z</time>
      </trkpt>
      <trkpt lat="48.56613" lon="2.48421">
        <ele>85</ele>
        <time>2022-05-22T08:37:49Z</time>
      </trkpt>
      <trkpt lat="48.56606" lon="2.48431">
        <ele>85</ele>
        <time>2022-05-22T08:37:50Z</time>
      </trkpt>
      <trkpt lat="48.56609" lon="2.48445">
        <ele>85</ele>
        <time>2022-05-22T08:37:52Z</time>
      </trkpt>
      <trkpt lat="48.5659" lon="2.48489">
        <ele>84</ele>
        <time>2022-05-22T08:37:58Z</time>
      </trkpt>
      <trkpt lat="48.56572" lon="2.48521">
        <ele>84</ele>
        <time>2022-05-22T08:38:03Z</time>
      </trkpt>
      <trkpt lat="48.56546" lon="2.48578">
        <ele>83</ele>
        <time>2022-05-22T08:38:11Z</time>
      </trkpt>
      <trkpt lat="48.56537" lon="2.48608">
        <ele>82</ele>
        <time>2022-05-22T08:38:15Z</time>
      </trkpt>
      <trkpt lat="48.5653" lon="2.4862">
        <ele>82</ele>
        <time>2022-05-22T08:38:17Z</time>
      </trkpt>
      <trkpt lat="48.5652" lon="2.48649">
        <ele>82</ele>
        <time>2022-05-22T08:38:21Z</time>
      </trkpt>
      <trkpt lat="48.56496" lon="2.48704">
        <ele>82</ele>
        <time>2022-05-22T08:38:29Z</time>
      </trkpt>
      <trkpt lat="48.56331" lon="2.49064">
        <ele>81</ele>
        <time>2022-05-22T08:39:20Z</time>
      </trkpt>
      <trkpt lat="48.56336" lon="2.49097">
        <ele>81</ele>
        <time>2022-05-22T08:39:24Z</time>
      </trkpt>
      <trkpt lat="48.56336" lon="2.49114">
        <ele>81</ele>
        <time>2022-05-22T08:39:26Z</time>
      </trkpt>
      <trkpt lat="48.56322" lon="2.49215">
        <ele>82</ele>
        <time>2022-05-22T08:39:39Z</time>
      </trkpt>
      <trkpt lat="48.56322" lon="2.49234">
        <ele>81</ele>
        <time>2022-05-22T08:39:41Z</time>
      </trkpt>
      <trkpt lat="48.56316" lon="2.49247">
        <ele>81</ele>
        <time>2022-05-22T08:39:43Z</time>
      </trkpt>
      <trkpt lat="48.56313" lon="2.49264">
        <ele>81</ele>
        <time>2022-05-22T08:39:45Z</time>
      </trkpt>
      <trkpt lat="48.56314" lon="2.49279">
        <ele>81</ele>
        <time>2022-05-22T08:39:46Z</time>
      </trkpt>
      <trkpt lat="48.56308" lon="2.49332">
        <ele>81</ele>
        <time>2022-05-22T08:39:53Z</time>
      </trkpt>
      <trkpt lat="48.563" lon="2.49377">
        <ele>81</ele>
        <time>2022-05-22T08:39:58Z</time>
      </trkpt>
      <trkpt lat="48.56301" lon="2.49393">
        <ele>81</ele>
        <time>2022-05-22T08:40:00Z</time>
      </trkpt>
      <trkpt lat="48.56295" lon="2.49404">
        <ele>81</ele>
        <time>2022-05-22T08:40:02Z</time>
      </trkpt>
      <trkpt lat="48.56289" lon="2.4945">
        <ele>80</ele>
        <time>2022-05-22T08:40:07Z</time>
      </trkpt>
      <trkpt lat="48.56269" lon="2.4964">
        <ele>80</ele>
        <time>2022-05-22T08:40:30Z</time>
      </trkpt>
      <trkpt lat="48.56261" lon="2.49749">
        <ele>80</ele>
        <time>2022-05-22T08:40:43Z</time>
      </trkpt>
      <trkpt lat="48.56249" lon="2.49834">
        <ele>80</ele>
        <time>2022-05-22T08:40:53Z</time>
      </trkpt>
      <trkpt lat="48.56229" lon="2.50024">
        <ele>80</ele>
        <time>2022-05-22T08:41:16Z</time>
      </trkpt>
      <trkpt lat="48.56214" lon="2.50047">
        <ele>80</ele>
        <time>2022-05-22T08:41:20Z</time>
      </trkpt>
      <trkpt lat="48.56225" lon="2.50073">
        <ele>80</ele>
        <time>2022-05-22T08:41:23Z</time>
      </trkpt>
      <trkpt lat="48.56226" lon="2.50093">
        <ele>80</ele>
        <time>2022-05-22T08:41:26Z</time>
      </trkpt>
      <trkpt lat="48.56197" lon="2.50386">
        <ele>79</ele>
        <time>2022-05-22T08:42:01Z</time>
      </trkpt>
      <trkpt lat="48.56174" lon="2.50588">
        <ele>80</ele>
        <time>2022-05-22T08:42:25Z</time>
      </trkpt>
      <trkpt lat="48.56164" lon="2.50639">
        <ele>81</ele>
        <time>2022-05-22T08:42:31Z</time>
      </trkpt>
      <trkpt lat="48.56134" lon="2.50695">
        <ele>82</ele>
        <time>2022-05-22T08:42:39Z</time>
      </trkpt>
      <trkpt lat="48.56127" lon="2.50744">
        <ele>83</ele>
        <time>2022-05-22T08:42:45Z</time>
      </trkpt>
      <trkpt lat="48.56129" lon="2.50762">
        <ele>83</ele>
        <time>2022-05-22T08:42:47Z</time>
      </trkpt>
      <trkpt lat="48.56142" lon="2.50818">
        <ele>83</ele>
        <time>2022-05-22T08:42:54Z</time>
      </trkpt>
      <trkpt lat="48.56145" lon="2.50852">
        <ele>83</ele>
        <time>2022-05-22T08:42:59Z</time>
      </trkpt>
      <trkpt lat="48.56096" lon="2.51301">
        <ele>82</ele>
        <time>2022-05-22T08:43:52Z</time>
      </trkpt>
      <trkpt lat="48.56089" lon="2.51314">
        <ele>82</ele>
        <time>2022-05-22T08:43:54Z</time>
      </trkpt>
      <trkpt lat="48.56078" lon="2.51318">
        <ele>82</ele>
        <time>2022-05-22T08:43:56Z</time>
      </trkpt>
      <trkpt lat="48.55995" lon="2.51326">
        <ele>82</ele>
        <time>2022-05-22T08:44:11Z</time>
      </trkpt>
      <trkpt lat="48.55976" lon="2.51338">
        <ele>82</ele>
        <time>2022-05-22T08:44:15Z</time>
      </trkpt>
      <trkpt lat="48.55957" lon="2.51358">
        <ele>81</ele>
        <time>2022-05-22T08:44:19Z</time>
      </trkpt>
      <trkpt lat="48.5593" lon="2.51394">
        <ele>82</ele>
        <time>2022-05-22T08:44:25Z</time>
      </trkpt>
      <trkpt lat="48.55883" lon="2.51449">
        <ele>82</ele>
        <time>2022-05-22T08:44:36Z</time>
      </trkpt>
      <trkpt lat="48.55849" lon="2.515">
        <ele>82</ele>
        <time>2022-05-22T08:44:44Z</time>
      </trkpt>
      <trkpt lat="48.55838" lon="2.51522">
        <ele>82</ele>
        <time>2022-05-22T08:44:47Z</time>
      </trkpt>
      <trkpt lat="48.55822" lon="2.51556">
        <ele>83</ele>
        <time>2022-05-22T08:44:52Z</time>
      </trkpt>
      <trkpt lat="48.55749" lon="2.51733">
        <ele>85</ele>
        <time>2022-05-22T08:45:17Z</time>
      </trkpt>
      <trkpt lat="48.55703" lon="2.51822">
        <ele>84</ele>
        <time>2022-05-22T08:45:30Z</time>
      </trkpt>
      <trkpt lat="48.55664" lon="2.51873">
        <ele>82</ele>
        <time>2022-05-22T08:45:39Z</time>
      </trkpt>
      <trkpt lat="48.55636" lon="2.519">
        <ele>82</ele>
        <time>2022-05-22T08:45:45Z</time>
      </trkpt>
      <trkpt lat="48.55587" lon="2.51954">
        <ele>82</ele>
        <time>2022-05-22T08:45:56Z</time>
      </trkpt>
      <trkpt lat="48.5557" lon="2.51983">
        <ele>81</ele>
        <time>2022-05-22T08:46:01Z</time>
      </trkpt>
      <trkpt lat="48.55553" lon="2.52033">
        <ele>81</ele>
        <time>2022-05-22T08:46:07Z</time>
      </trkpt>
      <trkpt lat="48.55538" lon="2.52088">
        <ele>80</ele>
        <time>2022-05-22T08:46:14Z</time>
      </trkpt>
      <trkpt lat="48.55515" lon="2.52213">
        <ele>80</ele>
        <time>2022-05-22T08:46:30Z</time>
      </trkpt>
      <trkpt lat="48.55488" lon="2.52327">
        <ele>80</ele>
        <time>2022-05-22T08:46:44Z</time>
      </trkpt>
      <trkpt lat="48.55473" lon="2.52375">
        <ele>80</ele>
        <time>2022-05-22T08:46:50Z</time>
      </trkpt>
      <trkpt lat="48.55426" lon="2.52495">
        <ele>80</ele>
        <time>2022-05-22T08:47:06Z</time>
      </trkpt>
      <trkpt lat="48.55415" lon="2.52564">
        <ele>82</ele>
        <time>2022-05-22T08:47:15Z</time>
      </trkpt>
      <trkpt lat="48.55414" lon="2.52584">
        <ele>82</ele>
        <time>2022-05-22T08:47:17Z</time>
      </trkpt>
      <trkpt lat="48.55403" lon="2.52629">
        <ele>82</ele>
        <time>2022-05-22T08:47:23Z</time>
      </trkpt>
      <trkpt lat="48.55394" lon="2.52634">
        <ele>82</ele>
        <time>2022-05-22T08:47:25Z</time>
      </trkpt>
      <trkpt lat="48.55374" lon="2.52622">
        <ele>81</ele>
        <time>2022-05-22T08:47:28Z</time>
      </trkpt>
      <trkpt lat="48.55384" lon="2.52639">
        <ele>82</ele>
        <time>2022-05-22T08:47:31Z</time>
      </trkpt>
      <trkpt lat="48.554" lon="2.52656">
        <ele>82</ele>
        <time>2022-05-22T08:47:35Z</time>
      </trkpt>
      <trkpt lat="48.55401" lon="2.52672">
        <ele>82</ele>
        <time>2022-05-22T08:47:36Z</time>
      </trkpt>
      <trkpt lat="48.55378" lon="2.52738">
        <ele>83</ele>
        <time>2022-05-22T08:47:45Z</time>
      </trkpt>
      <trkpt lat="48.55369" lon="2.52744">
        <ele>83</ele>
        <time>2022-05-22T08:47:47Z</time>
      </trkpt>
      <trkpt lat="48.5538" lon="2.52768">
        <ele>83</ele>
        <time>2022-05-22T08:47:50Z</time>
      </trkpt>
      <trkpt lat="48.55374" lon="2.52754">
        <ele>83</ele>
        <time>2022-05-22T08:47:52Z</time>
      </trkpt>
      <trkpt lat="48.55365" lon="2.52747">
        <ele>83</ele>
        <time>2022-05-22T08:47:54Z</time>
      </trkpt>
      <trkpt lat="48.55354" lon="2.52747">
        <ele>83</ele>
        <time>2022-05-22T08:47:56Z</time>
      </trkpt>
      <trkpt lat="48.55344" lon="2.5275">
        <ele>83</ele>
        <time>2022-05-22T08:47:58Z</time>
      </trkpt>
      <trkpt lat="48.55334" lon="2.52759">
        <ele>83</ele>
        <time>2022-05-22T08:48:00Z</time>
      </trkpt>
      <trkpt lat="48.55302" lon="2.52871">
        <ele>71</ele>
        <time>2022-05-22T08:48:14Z</time>
      </trkpt>
      <trkpt lat="48.55286" lon="2.52892">
        <ele>66</ele>
        <time>2022-05-22T08:48:18Z</time>
      </trkpt>
      <trkpt lat="48.55279" lon="2.52908">
        <ele>63</ele>
        <time>2022-05-22T08:48:20Z</time>
      </trkpt>
      <trkpt lat="48.55271" lon="2.52919">
        <ele>60</ele>
        <time>2022-05-22T08:48:22Z</time>
      </trkpt>
      <trkpt lat="48.55252" lon="2.52925">
        <ele>56</ele>
        <time>2022-05-22T08:48:26Z</time>
      </trkpt>
      <trkpt lat="48.55224" lon="2.5294">
        <ele>51</ele>
        <time>2022-05-22T08:48:31Z</time>
      </trkpt>
      <trkpt lat="48.55214" lon="2.52937">
        <ele>51</ele>
        <time>2022-05-22T08:48:33Z</time>
      </trkpt>
      <trkpt lat="48.5515" lon="2.52904">
        <ele>50</ele>
        <time>2022-05-22T08:48:45Z</time>
      </trkpt>
      <trkpt lat="48.55134" lon="2.5292">
        <ele>46</ele>
        <time>2022-05-22T08:48:48Z</time>
      </trkpt>
      <trkpt lat="48.5514" lon="2.52931">
        <ele>45</ele>
        <time>2022-05-22T08:48:50Z</time>
      </trkpt>
      <trkpt lat="48.55121" lon="2.52919">
        <ele>45</ele>
        <time>2022-05-22T08:48:54Z</time>
      </trkpt>
      <trkpt lat="48.55088" lon="2.5291">
        <ele>44</ele>
        <time>2022-05-22T08:49:00Z</time>
      </trkpt>
      <trkpt lat="48.55047" lon="2.52894">
        <ele>47</ele>
        <time>2022-05-22T08:49:07Z</time>
      </trkpt>
      <trkpt lat="48.55015" lon="2.52887">
        <ele>48</ele>
        <time>2022-05-22T08:49:13Z</time>
      </trkpt>
      <trkpt lat="48.54879" lon="2.5287">
        <ele>45</ele>
        <time>2022-05-22T08:49:37Z</time>
      </trkpt>
      <trkpt lat="48.54834" lon="2.52871">
        <ele>43</ele>
        <time>2022-05-22T08:49:45Z</time>
      </trkpt>
      <trkpt lat="48.54809" lon="2.52869">
        <ele>44</ele>
        <time>2022-05-22T08:49:50Z</time>
      </trkpt>
      <trkpt lat="48.54751" lon="2.52852">
        <ele>46</ele>
        <time>2022-05-22T08:50:00Z</time>
      </trkpt>
      <trkpt lat="48.54713" lon="2.5285">
        <ele>46</ele>
        <time>2022-05-22T08:50:07Z</time>
      </trkpt>
      <trkpt lat="48.54679" lon="2.5285">
        <ele>46</ele>
        <time>2022-05-22T08:50:13Z</time>
      </trkpt>
      <trkpt lat="48.54633" lon="2.52856">
        <ele>46</ele>
        <time>2022-05-22T08:50:21Z</time>
      </trkpt>
      <trkpt lat="48.54587" lon="2.52868">
        <ele>46</ele>
        <time>2022-05-22T08:50:30Z</time>
      </trkpt>
      <trkpt lat="48.54516" lon="2.52898">
        <ele>45</ele>
        <time>2022-05-22T08:50:43Z</time>
      </trkpt>
      <trkpt lat="48.54474" lon="2.52904">
        <ele>47</ele>
        <time>2022-05-22T08:50:50Z</time>
      </trkpt>
      <trkpt lat="48.54464" lon="2.52915">
        <ele>46</ele>
        <time>2022-05-22T08:50:52Z</time>
      </trkpt>
      <trkpt lat="48.54457" lon="2.52927">
        <ele>46</ele>
        <time>2022-05-22T08:50:54Z</time>
      </trkpt>
      <trkpt lat="48.54437" lon="2.52942">
        <ele>47</ele>
        <time>2022-05-22T08:50:58Z</time>
      </trkpt>
      <trkpt lat="48.54428" lon="2.52954">
        <ele>47</ele>
        <time>2022-05-22T08:51:00Z</time>
      </trkpt>
      <trkpt lat="48.54405" lon="2.5297">
        <ele>47</ele>
        <time>2022-05-22T08:51:05Z</time>
      </trkpt>
      <trkpt lat="48.5435" lon="2.53017">
        <ele>46</ele>
        <time>2022-05-22T08:51:16Z</time>
      </trkpt>
      <trkpt lat="48.54331" lon="2.5303">
        <ele>47</ele>
        <time>2022-05-22T08:51:20Z</time>
      </trkpt>
      <trkpt lat="48.54284" lon="2.5307">
        <ele>46</ele>
        <time>2022-05-22T08:51:29Z</time>
      </trkpt>
      <trkpt lat="48.54264" lon="2.5309">
        <ele>45</ele>
        <time>2022-05-22T08:51:34Z</time>
      </trkpt>
      <trkpt lat="48.54255" lon="2.53095">
        <ele>45</ele>
        <time>2022-05-22T08:51:35Z</time>
      </trkpt>
      <trkpt lat="48.54245" lon="2.53106">
        <ele>46</ele>
        <time>2022-05-22T08:51:38Z</time>
      </trkpt>
      <trkpt lat="48.54236" lon="2.53109">
        <ele>47</ele>
        <time>2022-05-22T08:51:39Z</time>
      </trkpt>
      <trkpt lat="48.54228" lon="2.53117">
        <ele>47</ele>
        <time>2022-05-22T08:51:41Z</time>
      </trkpt>
      <trkpt lat="48.54185" lon="2.53169">
        <ele>47</ele>
        <time>2022-05-22T08:51:51Z</time>
      </trkpt>
      <trkpt lat="48.54167" lon="2.53187">
        <ele>47</ele>
        <time>2022-05-22T08:51:55Z</time>
      </trkpt>
      <trkpt lat="48.54121" lon="2.53258">
        <ele>45</ele>
        <time>2022-05-22T08:52:06Z</time>
      </trkpt>
      <trkpt lat="48.54061" lon="2.53329">
        <ele>46</ele>
        <time>2022-05-22T08:52:20Z</time>
      </trkpt>
      <trkpt lat="48.54031" lon="2.5338">
        <ele>44</ele>
        <time>2022-05-22T08:52:28Z</time>
      </trkpt>
      <trkpt lat="48.54014" lon="2.53404">
        <ele>44</ele>
        <time>2022-05-22T08:52:32Z</time>
      </trkpt>
      <trkpt lat="48.53953" lon="2.53545">
        <ele>42</ele>
        <time>2022-05-22T08:52:52Z</time>
      </trkpt>
      <trkpt lat="48.53943" lon="2.53592">
        <ele>41</ele>
        <time>2022-05-22T08:52:58Z</time>
      </trkpt>
      <trkpt lat="48.53918" lon="2.53665">
        <ele>39</ele>
        <time>2022-05-22T08:53:07Z</time>
      </trkpt>
      <trkpt lat="48.539" lon="2.53736">
        <ele>40</ele>
        <time>2022-05-22T08:53:16Z</time>
      </trkpt>
      <trkpt lat="48.53884" lon="2.53813">
        <ele>40</ele>
        <time>2022-05-22T08:53:26Z</time>
      </trkpt>
      <trkpt lat="48.5386" lon="2.53911">
        <ele>40</ele>
        <time>2022-05-22T08:53:38Z</time>
      </trkpt>
      <trkpt lat="48.53843" lon="2.54004">
        <ele>41</ele>
        <time>2022-05-22T08:53:49Z</time>
      </trkpt>
      <trkpt lat="48.53836" lon="2.54021">
        <ele>41</ele>
        <time>2022-05-22T08:53:52Z</time>
      </trkpt>
      <trkpt lat="48.53794" lon="2.54217">
        <ele>44</ele>
        <time>2022-05-22T08:54:16Z</time>
      </trkpt>
      <trkpt lat="48.53784" lon="2.54254">
        <ele>43</ele>
        <time>2022-05-22T08:54:21Z</time>
      </trkpt>
      <trkpt lat="48.53778" lon="2.54267">
        <ele>43</ele>
        <time>2022-05-22T08:54:23Z</time>
      </trkpt>
      <trkpt lat="48.53776" lon="2.5428">
        <ele>42</ele>
        <time>2022-05-22T08:54:24Z</time>
      </trkpt>
      <trkpt lat="48.53777" lon="2.54294">
        <ele>41</ele>
        <time>2022-05-22T08:54:26Z</time>
      </trkpt>
      <trkpt lat="48.5377" lon="2.54304">
        <ele>41</ele>
        <time>2022-05-22T08:54:28Z</time>
      </trkpt>
      <trkpt lat="48.53757" lon="2.54376">
        <ele>42</ele>
        <time>2022-05-22T08:54:36Z</time>
      </trkpt>
      <trkpt lat="48.53747" lon="2.54458">
        <ele>43</ele>
        <time>2022-05-22T08:54:46Z</time>
      </trkpt>
      <trkpt lat="48.53742" lon="2.54472">
        <ele>44</ele>
        <time>2022-05-22T08:54:48Z</time>
      </trkpt>
      <trkpt lat="48.5373" lon="2.54537">
        <ele>43</ele>
        <time>2022-05-22T08:54:56Z</time>
      </trkpt>
      <trkpt lat="48.53724" lon="2.54601">
        <ele>42</ele>
        <time>2022-05-22T08:55:04Z</time>
      </trkpt>
      <trkpt lat="48.53719" lon="2.54617">
        <ele>42</ele>
        <time>2022-05-22T08:55:06Z</time>
      </trkpt>
      <trkpt lat="48.53711" lon="2.54669">
        <ele>42</ele>
        <time>2022-05-22T08:55:12Z</time>
      </trkpt>
      <trkpt lat="48.53709" lon="2.54702">
        <ele>42</ele>
        <time>2022-05-22T08:55:16Z</time>
      </trkpt>
      <trkpt lat="48.537" lon="2.5477">
        <ele>41</ele>
        <time>2022-05-22T08:55:24Z</time>
      </trkpt>
      <trkpt lat="48.5368" lon="2.54832">
        <ele>40</ele>
        <time>2022-05-22T08:55:32Z</time>
      </trkpt>
      <trkpt lat="48.53666" lon="2.54896">
        <ele>40</ele>
        <time>2022-05-22T08:55:40Z</time>
      </trkpt>
      <trkpt lat="48.53641" lon="2.54946">
        <ele>40</ele>
        <time>2022-05-22T08:55:48Z</time>
      </trkpt>
      <trkpt lat="48.53638" lon="2.55011">
        <ele>40</ele>
        <time>2022-05-22T08:55:55Z</time>
      </trkpt>
      <trkpt lat="48.53635" lon="2.55028">
        <ele>39</ele>
        <time>2022-05-22T08:55:57Z</time>
      </trkpt>
      <trkpt lat="48.5362" lon="2.55054">
        <ele>39</ele>
        <time>2022-05-22T08:56:01Z</time>
      </trkpt>
      <trkpt lat="48.5363" lon="2.55029">
        <ele>39</ele>
        <time>2022-05-22T08:56:05Z</time>
      </trkpt>
      <trkpt lat="48.53637" lon="2.54998">
        <ele>40</ele>
        <time>2022-05-22T08:56:09Z</time>
      </trkpt>
      <trkpt lat="48.53645" lon="2.55006">
        <ele>40</ele>
        <time>2022-05-22T08:56:10Z</time>
      </trkpt>
      <trkpt lat="48.53647" lon="2.55021">
        <ele>39</ele>
        <time>2022-05-22T08:56:12Z</time>
      </trkpt>
      <trkpt lat="48.53647" lon="2.55037">
        <ele>39</ele>
        <time>2022-05-22T08:56:14Z</time>
      </trkpt>
      <trkpt lat="48.5364" lon="2.55066">
        <ele>39</ele>
        <time>2022-05-22T08:56:18Z</time>
      </trkpt>
      <trkpt lat="48.53639" lon="2.55082">
        <ele>39</ele>
        <time>2022-05-22T08:56:20Z</time>
      </trkpt>
      <trkpt lat="48.53643" lon="2.55113">
        <ele>39</ele>
        <time>2022-05-22T08:56:23Z</time>
      </trkpt>
      <trkpt lat="48.53638" lon="2.55143">
        <ele>40</ele>
        <time>2022-05-22T08:56:27Z</time>
      </trkpt>
      <trkpt lat="48.53636" lon="2.55175">
        <ele>40</ele>
        <time>2022-05-22T08:56:31Z</time>
      </trkpt>
      <trkpt lat="48.53625" lon="2.55221">
        <ele>41</ele>
        <time>2022-05-22T08:56:37Z</time>
      </trkpt>
      <trkpt lat="48.53628" lon="2.55248">
        <ele>41</ele>
        <time>2022-05-22T08:56:40Z</time>
      </trkpt>
      <trkpt lat="48.53615" lon="2.55339">
        <ele>42</ele>
        <time>2022-05-22T08:56:51Z</time>
      </trkpt>
      <trkpt lat="48.53613" lon="2.55371">
        <ele>42</ele>
        <time>2022-05-22T08:56:55Z</time>
      </trkpt>
      <trkpt lat="48.53603" lon="2.55421">
        <ele>42</ele>
        <time>2022-05-22T08:57:01Z</time>
      </trkpt>
      <trkpt lat="48.5359" lon="2.55515">
        <ele>42</ele>
        <time>2022-05-22T08:57:12Z</time>
      </trkpt>
      <trkpt lat="48.53583" lon="2.55525">
        <ele>42</ele>
        <time>2022-05-22T08:57:14Z</time>
      </trkpt>
      <trkpt lat="48.53573" lon="2.55528">
        <ele>41</ele>
        <time>2022-05-22T08:57:16Z</time>
      </trkpt>
      <trkpt lat="48.53573" lon="2.55557">
        <ele>41</ele>
        <time>2022-05-22T08:57:19Z</time>
      </trkpt>
      <trkpt lat="48.53579" lon="2.55569">
        <ele>41</ele>
        <time>2022-05-22T08:57:21Z</time>
      </trkpt>
      <trkpt lat="48.53576" lon="2.55583">
        <ele>41</ele>
        <time>2022-05-22T08:57:22Z</time>
      </trkpt>
      <trkpt lat="48.53576" lon="2.556">
        <ele>41</ele>
        <time>2022-05-22T08:57:24Z</time>
      </trkpt>
      <trkpt lat="48.53548" lon="2.55781">
        <ele>42</ele>
        <time>2022-05-22T08:57:46Z</time>
      </trkpt>
      <trkpt lat="48.53543" lon="2.55797">
        <ele>42</ele>
        <time>2022-05-22T08:57:48Z</time>
      </trkpt>
      <trkpt lat="48.53538" lon="2.55829">
        <ele>42</ele>
        <time>2022-05-22T08:57:52Z</time>
      </trkpt>
      <trkpt lat="48.53533" lon="2.55882">
        <ele>42</ele>
        <time>2022-05-22T08:57:59Z</time>
      </trkpt>
      <trkpt lat="48.53522" lon="2.55928">
        <ele>43</ele>
        <time>2022-05-22T08:58:04Z</time>
      </trkpt>
      <trkpt lat="48.53516" lon="2.55986">
        <ele>42</ele>
        <time>2022-05-22T08:58:11Z</time>
      </trkpt>
      <trkpt lat="48.53508" lon="2.56019">
        <ele>42</ele>
        <time>2022-05-22T08:58:15Z</time>
      </trkpt>
      <trkpt lat="48.53505" lon="2.56051">
        <ele>41</ele>
        <time>2022-05-22T08:58:19Z</time>
      </trkpt>
      <trkpt lat="48.535" lon="2.56067">
        <ele>40</ele>
        <time>2022-05-22T08:58:21Z</time>
      </trkpt>
      <trkpt lat="48.53495" lon="2.56108">
        <ele>40</ele>
        <time>2022-05-22T08:58:26Z</time>
      </trkpt>
      <trkpt lat="48.5349" lon="2.56122">
        <ele>41</ele>
        <time>2022-05-22T08:58:28Z</time>
      </trkpt>
      <trkpt lat="48.53484" lon="2.56201">
        <ele>41</ele>
        <time>2022-05-22T08:58:37Z</time>
      </trkpt>
      <trkpt lat="48.53479" lon="2.56215">
        <ele>41</ele>
        <time>2022-05-22T08:58:39Z</time>
      </trkpt>
      <trkpt lat="48.53472" lon="2.5626">
        <ele>41</ele>
        <time>2022-05-22T08:58:45Z</time>
      </trkpt>
      <trkpt lat="48.53455" lon="2.56318">
        <ele>39</ele>
        <time>2022-05-22T08:58:52Z</time>
      </trkpt>
      <trkpt lat="48.53455" lon="2.56346">
        <ele>39</ele>
        <time>2022-05-22T08:58:56Z</time>
      </trkpt>
      <trkpt lat="48.53439" lon="2.56407">
        <ele>39</ele>
        <time>2022-05-22T08:59:03Z</time>
      </trkpt>
      <trkpt lat="48.53433" lon="2.56444">
        <ele>39</ele>
        <time>2022-05-22T08:59:08Z</time>
      </trkpt>
      <trkpt lat="48.53427" lon="2.5646">
        <ele>39</ele>
        <time>2022-05-22T08:59:10Z</time>
      </trkpt>
      <trkpt lat="48.534" lon="2.5657">
        <ele>39</ele>
        <time>2022-05-22T08:59:24Z</time>
      </trkpt>
      <trkpt lat="48.53395" lon="2.56586">
        <ele>39</ele>
        <time>2022-05-22T08:59:26Z</time>
      </trkpt>
      <trkpt lat="48.53388" lon="2.56598">
        <ele>39</ele>
        <time>2022-05-22T08:59:28Z</time>
      </trkpt>
      <trkpt lat="48.53382" lon="2.56628">
        <ele>39</ele>
        <time>2022-05-22T08:59:31Z</time>
      </trkpt>
      <trkpt lat="48.53374" lon="2.56634">
        <ele>39</ele>
        <time>2022-05-22T08:59:33Z</time>
      </trkpt>
      <trkpt lat="48.53363" lon="2.56638">
        <ele>39</ele>
        <time>2022-05-22T08:59:35Z</time>
      </trkpt>
      <trkpt lat="48.53355" lon="2.56649">
        <ele>39</ele>
        <time>2022-05-22T08:59:37Z</time>
      </trkpt>
      <trkpt lat="48.53339" lon="2.56663">
        <ele>39</ele>
        <time>2022-05-22T08:59:40Z</time>
      </trkpt>
      <trkpt lat="48.533" lon="2.56685">
        <ele>39</ele>
        <time>2022-05-22T08:59:48Z</time>
      </trkpt>
      <trkpt lat="48.53287" lon="2.56708">
        <ele>39</ele>
        <time>2022-05-22T08:59:51Z</time>
      </trkpt>
      <trkpt lat="48.53233" lon="2.56861">
        <ele>40</ele>
        <time>2022-05-22T09:00:12Z</time>
      </trkpt>
      <trkpt lat="48.53182" lon="2.57026">
        <ele>41</ele>
        <time>2022-05-22T09:00:33Z</time>
      </trkpt>
      <trkpt lat="48.53137" lon="2.57153">
        <ele>41</ele>
        <time>2022-05-22T09:00:50Z</time>
      </trkpt>
      <trkpt lat="48.53099" lon="2.57272">
        <ele>41</ele>
        <time>2022-05-22T09:01:06Z</time>
      </trkpt>
      <trkpt lat="48.53061" lon="2.57362">
        <ele>42</ele>
        <time>2022-05-22T09:01:18Z</time>
      </trkpt>
      <trkpt lat="48.53045" lon="2.57387">
        <ele>42</ele>
        <time>2022-05-22T09:01:22Z</time>
      </trkpt>
      <trkpt lat="48.5304" lon="2.57399">
        <ele>41</ele>
        <time>2022-05-22T09:01:24Z</time>
      </trkpt>
      <trkpt lat="48.53025" lon="2.5742">
        <ele>41</ele>
        <time>2022-05-22T09:01:28Z</time>
      </trkpt>
      <trkpt lat="48.52998" lon="2.5748">
        <ele>41</ele>
        <time>2022-05-22T09:01:36Z</time>
      </trkpt>
      <trkpt lat="48.52867" lon="2.57647">
        <ele>40</ele>
        <time>2022-05-22T09:02:07Z</time>
      </trkpt>
      <trkpt lat="48.52819" lon="2.57702">
        <ele>41</ele>
        <time>2022-05-22T09:02:17Z</time>
      </trkpt>
      <trkpt lat="48.52791" lon="2.5774">
        <ele>41</ele>
        <time>2022-05-22T09:02:24Z</time>
      </trkpt>
      <trkpt lat="48.52771" lon="2.57771">
        <ele>41</ele>
        <time>2022-05-22T09:02:29Z</time>
      </trkpt>
      <trkpt lat="48.52733" lon="2.57841">
        <ele>40</ele>
        <time>2022-05-22T09:02:40Z</time>
      </trkpt>
      <trkpt lat="48.52723" lon="2.57854">
        <ele>41</ele>
        <time>2022-05-22T09:02:42Z</time>
      </trkpt>
      <trkpt lat="48.52683" lon="2.57924">
        <ele>41</ele>
        <time>2022-05-22T09:02:53Z</time>
      </trkpt>
      <trkpt lat="48.52622" lon="2.58021">
        <ele>42</ele>
        <time>2022-05-22T09:03:09Z</time>
      </trkpt>
      <trkpt lat="48.52566" lon="2.58116">
        <ele>44</ele>
        <time>2022-05-22T09:03:24Z</time>
      </trkpt>
      <trkpt lat="48.525" lon="2.58211">
        <ele>42</ele>
        <time>2022-05-22T09:03:40Z</time>
      </trkpt>
      <trkpt lat="48.52479" lon="2.58237">
        <ele>42</ele>
        <time>2022-05-22T09:03:45Z</time>
      </trkpt>
      <trkpt lat="48.52469" lon="2.58245">
        <ele>43</ele>
        <time>2022-05-22T09:03:47Z</time>
      </trkpt>
      <trkpt lat="48.52448" lon="2.58276">
        <ele>42</ele>
        <time>2022-05-22T09:03:52Z</time>
      </trkpt>
      <trkpt lat="48.52355" lon="2.5838">
        <ele>44</ele>
        <time>2022-05-22T09:04:13Z</time>
      </trkpt>
      <trkpt lat="48.52345" lon="2.58387">
        <ele>45</ele>
        <time>2022-05-22T09:04:15Z</time>
      </trkpt>
      <trkpt lat="48.5234" lon="2.584">
        <ele>43</ele>
        <time>2022-05-22T09:04:16Z</time>
      </trkpt>
      <trkpt lat="48.52332" lon="2.58412">
        <ele>42</ele>
        <time>2022-05-22T09:04:18Z</time>
      </trkpt>
      <trkpt lat="48.52321" lon="2.58419">
        <ele>43</ele>
        <time>2022-05-22T09:04:21Z</time>
      </trkpt>
      <trkpt lat="48.5231" lon="2.58432">
        <ele>44</ele>
        <time>2022-05-22T09:04:23Z</time>
      </trkpt>
      <trkpt lat="48.52223" lon="2.58512">
        <ele>45</ele>
        <time>2022-05-22T09:04:41Z</time>
      </trkpt>
      <trkpt lat="48.52176" lon="2.58549">
        <ele>45</ele>
        <time>2022-05-22T09:04:51Z</time>
      </trkpt>
      <trkpt lat="48.52158" lon="2.58571">
        <ele>44</ele>
        <time>2022-05-22T09:04:55Z</time>
      </trkpt>
      <trkpt lat="48.52149" lon="2.58577">
        <ele>44</ele>
        <time>2022-05-22T09:04:57Z</time>
      </trkpt>
      <trkpt lat="48.52129" lon="2.586">
        <ele>46</ele>
        <time>2022-05-22T09:05:01Z</time>
      </trkpt>
      <trkpt lat="48.52078" lon="2.58649">
        <ele>49</ele>
        <time>2022-05-22T09:05:12Z</time>
      </trkpt>
      <trkpt lat="48.52042" lon="2.58673">
        <ele>52</ele>
        <time>2022-05-22T09:05:19Z</time>
      </trkpt>
      <trkpt lat="48.52026" lon="2.58687">
        <ele>53</ele>
        <time>2022-05-22T09:05:22Z</time>
      </trkpt>
      <trkpt lat="48.52003" lon="2.58716">
        <ele>53</ele>
        <time>2022-05-22T09:05:27Z</time>
      </trkpt>
      <trkpt lat="48.5199" lon="2.58737">
        <ele>52</ele>
        <time>2022-05-22T09:05:31Z</time>
      </trkpt>
      <trkpt lat="48.51959" lon="2.58777">
        <ele>52</ele>
        <time>2022-05-22T09:05:38Z</time>
      </trkpt>
      <trkpt lat="48.51941" lon="2.58817">
        <ele>49</ele>
        <time>2022-05-22T09:05:44Z</time>
      </trkpt>
      <trkpt lat="48.51917" lon="2.58853">
        <ele>45</ele>
        <time>2022-05-22T09:05:50Z</time>
      </trkpt>
      <trkpt lat="48.51851" lon="2.58969">
        <ele>47</ele>
        <time>2022-05-22T09:06:08Z</time>
      </trkpt>
      <trkpt lat="48.51822" lon="2.59007">
        <ele>47</ele>
        <time>2022-05-22T09:06:15Z</time>
      </trkpt>
      <trkpt lat="48.51804" lon="2.59035">
        <ele>46</ele>
        <time>2022-05-22T09:06:19Z</time>
      </trkpt>
      <trkpt lat="48.51713" lon="2.59184">
        <ele>53</ele>
        <time>2022-05-22T09:06:43Z</time>
      </trkpt>
      <trkpt lat="48.51665" lon="2.59279">
        <ele>51</ele>
        <time>2022-05-22T09:06:57Z</time>
      </trkpt>
      <trkpt lat="48.51635" lon="2.59351">
        <ele>52</ele>
        <time>2022-05-22T09:07:07Z</time>
      </trkpt>
      <trkpt lat="48.51583" lon="2.59537">
        <ele>47</ele>
        <time>2022-05-22T09:07:31Z</time>
      </trkpt>
      <trkpt lat="48.51571" lon="2.59597">
        <ele>47</ele>
        <time>2022-05-22T09:07:38Z</time>
      </trkpt>
      <trkpt lat="48.51566" lon="2.59612">
        <ele>48</ele>
        <time>2022-05-22T09:07:40Z</time>
      </trkpt>
      <trkpt lat="48.51552" lon="2.59692">
        <ele>48</ele>
        <time>2022-05-22T09:07:50Z</time>
      </trkpt>
      <trkpt lat="48.51534" lon="2.59832">
        <ele>46</ele>
        <time>2022-05-22T09:08:07Z</time>
      </trkpt>
      <trkpt lat="48.51531" lon="2.59958">
        <ele>48</ele>
        <time>2022-05-22T09:08:22Z</time>
      </trkpt>
      <trkpt lat="48.51525" lon="2.60074">
        <ele>51</ele>
        <time>2022-05-22T09:08:35Z</time>
      </trkpt>
      <trkpt lat="48.51526" lon="2.60116">
        <ele>49</ele>
        <time>2022-05-22T09:08:40Z</time>
      </trkpt>
      <trkpt lat="48.51521" lon="2.60159">
        <ele>48</ele>
        <time>2022-05-22T09:08:46Z</time>
      </trkpt>
      <trkpt lat="48.51522" lon="2.60193">
        <ele>47</ele>
        <time>2022-05-22T09:08:50Z</time>
      </trkpt>
      <trkpt lat="48.51519" lon="2.60256">
        <ele>46</ele>
        <time>2022-05-22T09:08:57Z</time>
      </trkpt>
      <trkpt lat="48.5152" lon="2.60288">
        <ele>46</ele>
        <time>2022-05-22T09:09:01Z</time>
      </trkpt>
      <trkpt lat="48.51528" lon="2.60341">
        <ele>46</ele>
        <time>2022-05-22T09:09:07Z</time>
      </trkpt>
      <trkpt lat="48.51526" lon="2.60357">
        <ele>47</ele>
        <time>2022-05-22T09:09:09Z</time>
      </trkpt>
      <trkpt lat="48.51528" lon="2.60401">
        <ele>49</ele>
        <time>2022-05-22T09:09:14Z</time>
      </trkpt>
      <trkpt lat="48.51532" lon="2.60415">
        <ele>49</ele>
        <time>2022-05-22T09:09:16Z</time>
      </trkpt>
      <trkpt lat="48.51534" lon="2.60446">
        <ele>49</ele>
        <time>2022-05-22T09:09:20Z</time>
      </trkpt>
      <trkpt lat="48.51553" lon="2.60542">
        <ele>46</ele>
        <time>2022-05-22T09:09:32Z</time>
      </trkpt>
      <trkpt lat="48.51554" lon="2.60557">
        <ele>46</ele>
        <time>2022-05-22T09:09:33Z</time>
      </trkpt>
      <trkpt lat="48.5157" lon="2.60614">
        <ele>43</ele>
        <time>2022-05-22T09:09:41Z</time>
      </trkpt>
      <trkpt lat="48.51579" lon="2.60676">
        <ele>42</ele>
        <time>2022-05-22T09:09:48Z</time>
      </trkpt>
      <trkpt lat="48.51603" lon="2.60777">
        <ele>40</ele>
        <time>2022-05-22T09:10:01Z</time>
      </trkpt>
      <trkpt lat="48.51649" lon="2.60933">
        <ele>39</ele>
        <time>2022-05-22T09:10:21Z</time>
      </trkpt>
      <trkpt lat="48.51678" lon="2.61018">
        <ele>41</ele>
        <time>2022-05-22T09:10:32Z</time>
      </trkpt>
      <trkpt lat="48.51701" lon="2.61077">
        <ele>42</ele>
        <time>2022-05-22T09:10:40Z</time>
      </trkpt>
      <trkpt lat="48.51705" lon="2.61094">
        <ele>43</ele>
        <time>2022-05-22T09:10:42Z</time>
      </trkpt>
      <trkpt lat="48.51729" lon="2.61161">
        <ele>43</ele>
        <time>2022-05-22T09:10:51Z</time>
      </trkpt>
      <trkpt lat="48.51762" lon="2.61233">
        <ele>42</ele>
        <time>2022-05-22T09:11:02Z</time>
      </trkpt>
      <trkpt lat="48.51822" lon="2.61327">
        <ele>38</ele>
        <time>2022-05-22T09:11:17Z</time>
      </trkpt>
      <trkpt lat="48.5185" lon="2.6138">
        <ele>38</ele>
        <time>2022-05-22T09:11:25Z</time>
      </trkpt>
      <trkpt lat="48.51864" lon="2.61412">
        <ele>40</ele>
        <time>2022-05-22T09:11:30Z</time>
      </trkpt>
      <trkpt lat="48.51887" lon="2.61469">
        <ele>40</ele>
        <time>2022-05-22T09:11:37Z</time>
      </trkpt>
      <trkpt lat="48.51939" lon="2.61625">
        <ele>42</ele>
        <time>2022-05-22T09:11:58Z</time>
      </trkpt>
      <trkpt lat="48.51879" lon="2.61691">
        <ele>44</ele>
        <time>2022-05-22T09:12:11Z</time>
      </trkpt>
      <trkpt lat="48.51868" lon="2.617">
        <ele>44</ele>
        <time>2022-05-22T09:12:13Z</time>
      </trkpt>
      <trkpt lat="48.51826" lon="2.61745">
        <ele>44</ele>
        <time>2022-05-22T09:12:23Z</time>
      </trkpt>
      <trkpt lat="48.51793" lon="2.61775">
        <ele>45</ele>
        <time>2022-05-22T09:12:29Z</time>
      </trkpt>
      <trkpt lat="48.51771" lon="2.618">
        <ele>45</ele>
        <time>2022-05-22T09:12:34Z</time>
      </trkpt>
      <trkpt lat="48.51746" lon="2.61848">
        <ele>46</ele>
        <time>2022-05-22T09:12:42Z</time>
      </trkpt>
      <trkpt lat="48.51737" lon="2.61876">
        <ele>46</ele>
        <time>2022-05-22T09:12:45Z</time>
      </trkpt>
      <trkpt lat="48.51687" lon="2.62198">
        <ele>51</ele>
        <time>2022-05-22T09:13:24Z</time>
      </trkpt>
      <trkpt lat="48.51674" lon="2.62255">
        <ele>52</ele>
        <time>2022-05-22T09:13:31Z</time>
      </trkpt>
      <trkpt lat="48.51659" lon="2.62291">
        <ele>53</ele>
        <time>2022-05-22T09:13:36Z</time>
      </trkpt>
      <trkpt lat="48.51649" lon="2.623">
        <ele>53</ele>
        <time>2022-05-22T09:13:38Z</time>
      </trkpt>
      <trkpt lat="48.51619" lon="2.62311">
        <ele>56</ele>
        <time>2022-05-22T09:13:44Z</time>
      </trkpt>
      <trkpt lat="48.51609" lon="2.62312">
        <ele>57</ele>
        <time>2022-05-22T09:13:46Z</time>
      </trkpt>
      <trkpt lat="48.51581" lon="2.62327">
        <ele>59</ele>
        <time>2022-05-22T09:13:51Z</time>
      </trkpt>
      <trkpt lat="48.51563" lon="2.6234">
        <ele>61</ele>
        <time>2022-05-22T09:13:55Z</time>
      </trkpt>
      <trkpt lat="48.5156" lon="2.62352">
        <ele>61</ele>
        <time>2022-05-22T09:13:56Z</time>
      </trkpt>
      <trkpt lat="48.51554" lon="2.62342">
        <ele>61</ele>
        <time>2022-05-22T09:13:58Z</time>
      </trkpt>
      <trkpt lat="48.51545" lon="2.62337">
        <ele>62</ele>
        <time>2022-05-22T09:13:59Z</time>
      </trkpt>
      <trkpt lat="48.51537" lon="2.62344">
        <ele>62</ele>
        <time>2022-05-22T09:14:01Z</time>
      </trkpt>
      <trkpt lat="48.51537" lon="2.62357">
        <ele>62</ele>
        <time>2022-05-22T09:14:03Z</time>
      </trkpt>
      <trkpt lat="48.51551" lon="2.62402">
        <ele>62</ele>
        <time>2022-05-22T09:14:08Z</time>
      </trkpt>
      <trkpt lat="48.51553" lon="2.62417">
        <ele>62</ele>
        <time>2022-05-22T09:14:10Z</time>
      </trkpt>
      <trkpt lat="48.51545" lon="2.62389">
        <ele>62</ele>
        <time>2022-05-22T09:14:14Z</time>
      </trkpt>
      <trkpt lat="48.51539" lon="2.62376">
        <ele>62</ele>
        <time>2022-05-22T09:14:16Z</time>
      </trkpt>
      <trkpt lat="48.51531" lon="2.62367">
        <ele>63</ele>
        <time>2022-05-22T09:14:17Z</time>
      </trkpt>
      <trkpt lat="48.51522" lon="2.6237">
        <ele>63</ele>
        <time>2022-05-22T09:14:19Z</time>
      </trkpt>
      <trkpt lat="48.51516" lon="2.62383">
        <ele>64</ele>
        <time>2022-05-22T09:14:21Z</time>
      </trkpt>
      <trkpt lat="48.51519" lon="2.62432">
        <ele>64</ele>
        <time>2022-05-22T09:14:27Z</time>
      </trkpt>
      <trkpt lat="48.5153" lon="2.62529">
        <ele>65</ele>
        <time>2022-05-22T09:14:38Z</time>
      </trkpt>
      <trkpt lat="48.51531" lon="2.62548">
        <ele>65</ele>
        <time>2022-05-22T09:14:41Z</time>
      </trkpt>
      <trkpt lat="48.51528" lon="2.62602">
        <ele>65</ele>
        <time>2022-05-22T09:14:47Z</time>
      </trkpt>
      <trkpt lat="48.5154" lon="2.62744">
        <ele>69</ele>
        <time>2022-05-22T09:15:04Z</time>
      </trkpt>
      <trkpt lat="48.51541" lon="2.62866">
        <ele>68</ele>
        <time>2022-05-22T09:15:18Z</time>
      </trkpt>
      <trkpt lat="48.51536" lon="2.62945">
        <ele>67</ele>
        <time>2022-05-22T09:15:28Z</time>
      </trkpt>
      <trkpt lat="48.51541" lon="2.63033">
        <ele>66</ele>
        <time>2022-05-22T09:15:38Z</time>
      </trkpt>
      <trkpt lat="48.51539" lon="2.63067">
        <ele>65</ele>
        <time>2022-05-22T09:15:42Z</time>
      </trkpt>
      <trkpt lat="48.51534" lon="2.63081">
        <ele>65</ele>
        <time>2022-05-22T09:15:44Z</time>
      </trkpt>
      <trkpt lat="48.5148" lon="2.63075">
        <ele>67</ele>
        <time>2022-05-22T09:15:53Z</time>
      </trkpt>
      <trkpt lat="48.51436" lon="2.63076">
        <ele>69</ele>
        <time>2022-05-22T09:16:01Z</time>
      </trkpt>
      <trkpt lat="48.51405" lon="2.63073">
        <ele>70</ele>
        <time>2022-05-22T09:16:07Z</time>
      </trkpt>
      <trkpt lat="48.51401" lon="2.63089">
        <ele>70</ele>
        <time>2022-05-22T09:16:09Z</time>
      </trkpt>
      <trkpt lat="48.51401" lon="2.63212">
        <ele>70</ele>
        <time>2022-05-22T09:16:23Z</time>
      </trkpt>
      <trkpt lat="48.51398" lon="2.63249">
        <ele>70</ele>
        <time>2022-05-22T09:16:28Z</time>
      </trkpt>
      <trkpt lat="48.51383" lon="2.63345">
        <ele>70</ele>
        <time>2022-05-22T09:16:39Z</time>
      </trkpt>
      <trkpt lat="48.51376" lon="2.63355">
        <ele>71</ele>
        <time>2022-05-22T09:16:41Z</time>
      </trkpt>
      <trkpt lat="48.51366" lon="2.63354">
        <ele>71</ele>
        <time>2022-05-22T09:16:43Z</time>
      </trkpt>
      <trkpt lat="48.51338" lon="2.63343">
        <ele>72</ele>
        <time>2022-05-22T09:16:48Z</time>
      </trkpt>
      <trkpt lat="48.51318" lon="2.63342">
        <ele>74</ele>
        <time>2022-05-22T09:16:52Z</time>
      </trkpt>
      <trkpt lat="48.51289" lon="2.63332">
        <ele>76</ele>
        <time>2022-05-22T09:16:57Z</time>
      </trkpt>
      <trkpt lat="48.5126" lon="2.63313">
        <ele>79</ele>
        <time>2022-05-22T09:17:03Z</time>
      </trkpt>
      <trkpt lat="48.51183" lon="2.63294">
        <ele>81</ele>
        <time>2022-05-22T09:17:16Z</time>
      </trkpt>
      <trkpt lat="48.5115" lon="2.63291">
        <ele>81</ele>
        <time>2022-05-22T09:17:22Z</time>
      </trkpt>
      <trkpt lat="48.51132" lon="2.63277">
        <ele>81</ele>
        <time>2022-05-22T09:17:26Z</time>
      </trkpt>
      <trkpt lat="48.51112" lon="2.63273">
        <ele>81</ele>
        <time>2022-05-22T09:17:29Z</time>
      </trkpt>
      <trkpt lat="48.5102" lon="2.63298">
        <ele>86</ele>
        <time>2022-05-22T09:17:46Z</time>
      </trkpt>
      <trkpt lat="48.51002" lon="2.63305">
        <ele>87</ele>
        <time>2022-05-22T09:17:49Z</time>
      </trkpt>
      <trkpt lat="48.50966" lon="2.63334">
        <ele>87</ele>
        <time>2022-05-22T09:17:57Z</time>
      </trkpt>
      <trkpt lat="48.50948" lon="2.63345">
        <ele>88</ele>
        <time>2022-05-22T09:18:00Z</time>
      </trkpt>
      <trkpt lat="48.50928" lon="2.63352">
        <ele>88</ele>
        <time>2022-05-22T09:18:04Z</time>
      </trkpt>
      <trkpt lat="48.50896" lon="2.63355">
        <ele>88</ele>
        <time>2022-05-22T09:18:09Z</time>
      </trkpt>
      <trkpt lat="48.50861" lon="2.63355">
        <ele>86</ele>
        <time>2022-05-22T09:18:16Z</time>
      </trkpt>
      <trkpt lat="48.50763" lon="2.63362">
        <ele>87</ele>
        <time>2022-05-22T09:18:33Z</time>
      </trkpt>
      <trkpt lat="48.50641" lon="2.63338">
        <ele>89</ele>
        <time>2022-05-22T09:18:55Z</time>
      </trkpt>
      <trkpt lat="48.50604" lon="2.63327">
        <ele>90</ele>
        <time>2022-05-22T09:19:02Z</time>
      </trkpt>
      <trkpt lat="48.50558" lon="2.63319">
        <ele>90</ele>
        <time>2022-05-22T09:19:10Z</time>
      </trkpt>
      <trkpt lat="48.50539" lon="2.63319">
        <ele>90</ele>
        <time>2022-05-22T09:19:13Z</time>
      </trkpt>
      <trkpt lat="48.50451" lon="2.63331">
        <ele>91</ele>
        <time>2022-05-22T09:19:29Z</time>
      </trkpt>
      <trkpt lat="48.50325" lon="2.63355">
        <ele>95</ele>
        <time>2022-05-22T09:19:52Z</time>
      </trkpt>
      <trkpt lat="48.50193" lon="2.6337">
        <ele>95</ele>
        <time>2022-05-22T09:20:15Z</time>
      </trkpt>
      <trkpt lat="48.50122" lon="2.6338">
        <ele>97</ele>
        <time>2022-05-22T09:20:28Z</time>
      </trkpt>
      <trkpt lat="48.50113" lon="2.63383">
        <ele>97</ele>
        <time>2022-05-22T09:20:30Z</time>
      </trkpt>
      <trkpt lat="48.50079" lon="2.63386">
        <ele>98</ele>
        <time>2022-05-22T09:20:36Z</time>
      </trkpt>
      <trkpt lat="48.50025" lon="2.63407">
        <ele>97</ele>
        <time>2022-05-22T09:20:46Z</time>
      </trkpt>
      <trkpt lat="48.49902" lon="2.63473">
        <ele>96</ele>
        <time>2022-05-22T09:21:09Z</time>
      </trkpt>
      <trkpt lat="48.49891" lon="2.63477">
        <ele>96</ele>
        <time>2022-05-22T09:21:11Z</time>
      </trkpt>
      <trkpt lat="48.4987" lon="2.63473">
        <ele>96</ele>
        <time>2022-05-22T09:21:15Z</time>
      </trkpt>
      <trkpt lat="48.49869" lon="2.63486">
        <ele>97</ele>
        <time>2022-05-22T09:21:16Z</time>
      </trkpt>
      <trkpt lat="48.49861" lon="2.63478">
        <ele>97</ele>
        <time>2022-05-22T09:21:18Z</time>
      </trkpt>
      <trkpt lat="48.49852" lon="2.63478">
        <ele>97</ele>
        <time>2022-05-22T09:21:19Z</time>
      </trkpt>
      <trkpt lat="48.49861" lon="2.63473">
        <ele>97</ele>
        <time>2022-05-22T09:21:21Z</time>
      </trkpt>
      <trkpt lat="48.4985" lon="2.63472">
        <ele>97</ele>
        <time>2022-05-22T09:21:23Z</time>
      </trkpt>
      <trkpt lat="48.4984" lon="2.63468">
        <ele>97</ele>
        <time>2022-05-22T09:21:25Z</time>
      </trkpt>
      <trkpt lat="48.49767" lon="2.63424">
        <ele>93</ele>
        <time>2022-05-22T09:21:39Z</time>
      </trkpt>
      <trkpt lat="48.49755" lon="2.63418">
        <ele>93</ele>
        <time>2022-05-22T09:21:41Z</time>
      </trkpt>
      <trkpt lat="48.49745" lon="2.63416">
        <ele>93</ele>
        <time>2022-05-22T09:21:43Z</time>
      </trkpt>
      <trkpt lat="48.4973" lon="2.63405">
        <ele>93</ele>
        <time>2022-05-22T09:21:46Z</time>
      </trkpt>
      <trkpt lat="48.49722" lon="2.63419">
        <ele>93</ele>
        <time>2022-05-22T09:21:48Z</time>
      </trkpt>
      <trkpt lat="48.49713" lon="2.63421">
        <ele>93</ele>
        <time>2022-05-22T09:21:50Z</time>
      </trkpt>
      <trkpt lat="48.49689" lon="2.63454">
        <ele>93</ele>
        <time>2022-05-22T09:21:56Z</time>
      </trkpt>
      <trkpt lat="48.49678" lon="2.63458">
        <ele>93</ele>
        <time>2022-05-22T09:21:58Z</time>
      </trkpt>
      <trkpt lat="48.49667" lon="2.63456">
        <ele>92</ele>
        <time>2022-05-22T09:21:59Z</time>
      </trkpt>
      <trkpt lat="48.49636" lon="2.63461">
        <ele>92</ele>
        <time>2022-05-22T09:22:05Z</time>
      </trkpt>
      <trkpt lat="48.49546" lon="2.63465">
        <ele>91</ele>
        <time>2022-05-22T09:22:21Z</time>
      </trkpt>
      <trkpt lat="48.49493" lon="2.63476">
        <ele>93</ele>
        <time>2022-05-22T09:22:31Z</time>
      </trkpt>
      <trkpt lat="48.49397" lon="2.63486">
        <ele>94</ele>
        <time>2022-05-22T09:22:48Z</time>
      </trkpt>
      <trkpt lat="48.49343" lon="2.63495">
        <ele>94</ele>
        <time>2022-05-22T09:22:57Z</time>
      </trkpt>
      <trkpt lat="48.49269" lon="2.63501">
        <ele>95</ele>
        <time>2022-05-22T09:23:11Z</time>
      </trkpt>
      <trkpt lat="48.49261" lon="2.63504">
        <ele>95</ele>
        <time>2022-05-22T09:23:12Z</time>
      </trkpt>
      <trkpt lat="48.49224" lon="2.63505">
        <ele>95</ele>
        <time>2022-05-22T09:23:19Z</time>
      </trkpt>
      <trkpt lat="48.49166" lon="2.63514">
        <ele>96</ele>
        <time>2022-05-22T09:23:29Z</time>
      </trkpt>
      <trkpt lat="48.49154" lon="2.63513">
        <ele>96</ele>
        <time>2022-05-22T09:23:31Z</time>
      </trkpt>
      <trkpt lat="48.49132" lon="2.63516">
        <ele>96</ele>
        <time>2022-05-22T09:23:35Z</time>
      </trkpt>
      <trkpt lat="48.4912" lon="2.63514">
        <ele>96</ele>
        <time>2022-05-22T09:23:37Z</time>
      </trkpt>
      <trkpt lat="48.491" lon="2.63517">
        <ele>95</ele>
        <time>2022-05-22T09:23:41Z</time>
      </trkpt>
      <trkpt lat="48.49072" lon="2.63527">
        <ele>95</ele>
        <time>2022-05-22T09:23:46Z</time>
      </trkpt>
      <trkpt lat="48.49032" lon="2.63527">
        <ele>96</ele>
        <time>2022-05-22T09:23:53Z</time>
      </trkpt>
      <trkpt lat="48.48999" lon="2.63533">
        <ele>96</ele>
        <time>2022-05-22T09:23:59Z</time>
      </trkpt>
      <trkpt lat="48.4899" lon="2.63532">
        <ele>96</ele>
        <time>2022-05-22T09:24:01Z</time>
      </trkpt>
      <trkpt lat="48.48946" lon="2.63537">
        <ele>97</ele>
        <time>2022-05-22T09:24:08Z</time>
      </trkpt>
      <trkpt lat="48.48912" lon="2.63544">
        <ele>98</ele>
        <time>2022-05-22T09:24:14Z</time>
      </trkpt>
      <trkpt lat="48.48901" lon="2.63543">
        <ele>98</ele>
        <time>2022-05-22T09:24:16Z</time>
      </trkpt>
      <trkpt lat="48.48882" lon="2.63547">
        <ele>98</ele>
        <time>2022-05-22T09:24:20Z</time>
      </trkpt>
      <trkpt lat="48.48785" lon="2.63554">
        <ele>99</ele>
        <time>2022-05-22T09:24:37Z</time>
      </trkpt>
      <trkpt lat="48.48774" lon="2.6356">
        <ele>99</ele>
        <time>2022-05-22T09:24:39Z</time>
      </trkpt>
      <trkpt lat="48.48741" lon="2.63587">
        <ele>101</ele>
        <time>2022-05-22T09:24:46Z</time>
      </trkpt>
      <trkpt lat="48.486" lon="2.6369">
        <ele>102</ele>
        <time>2022-05-22T09:25:14Z</time>
      </trkpt>
      <trkpt lat="48.48513" lon="2.63761">
        <ele>102</ele>
        <time>2022-05-22T09:25:31Z</time>
      </trkpt>
      <trkpt lat="48.48444" lon="2.63808">
        <ele>98</ele>
        <time>2022-05-22T09:25:45Z</time>
      </trkpt>
      <trkpt lat="48.48374" lon="2.63861">
        <ele>95</ele>
        <time>2022-05-22T09:25:59Z</time>
      </trkpt>
      <trkpt lat="48.48324" lon="2.63894">
        <ele>93</ele>
        <time>2022-05-22T09:26:08Z</time>
      </trkpt>
      <trkpt lat="48.48314" lon="2.63904">
        <ele>93</ele>
        <time>2022-05-22T09:26:11Z</time>
      </trkpt>
      <trkpt lat="48.48257" lon="2.63943">
        <ele>93</ele>
        <time>2022-05-22T09:26:22Z</time>
      </trkpt>
      <trkpt lat="48.48183" lon="2.64001">
        <ele>92</ele>
        <time>2022-05-22T09:26:37Z</time>
      </trkpt>
      <trkpt lat="48.48165" lon="2.6401">
        <ele>92</ele>
        <time>2022-05-22T09:26:40Z</time>
      </trkpt>
      <trkpt lat="48.48141" lon="2.64098">
        <ele>93</ele>
        <time>2022-05-22T09:26:51Z</time>
      </trkpt>
      <trkpt lat="48.48128" lon="2.64161">
        <ele>92</ele>
        <time>2022-05-22T09:26:59Z</time>
      </trkpt>
      <trkpt lat="48.48119" lon="2.64193">
        <ele>93</ele>
        <time>2022-05-22T09:27:03Z</time>
      </trkpt>
      <trkpt lat="48.48099" lon="2.64289">
        <ele>92</ele>
        <time>2022-05-22T09:27:15Z</time>
      </trkpt>
      <trkpt lat="48.48094" lon="2.64325">
        <ele>91</ele>
        <time>2022-05-22T09:27:19Z</time>
      </trkpt>
      <trkpt lat="48.48061" lon="2.64465">
        <ele>88</ele>
        <time>2022-05-22T09:27:37Z</time>
      </trkpt>
      <trkpt lat="48.48057" lon="2.64497">
        <ele>88</ele>
        <time>2022-05-22T09:27:41Z</time>
      </trkpt>
      <trkpt lat="48.48043" lon="2.64544">
        <ele>89</ele>
        <time>2022-05-22T09:27:47Z</time>
      </trkpt>
      <trkpt lat="48.4804" lon="2.64574">
        <ele>90</ele>
        <time>2022-05-22T09:27:50Z</time>
      </trkpt>
      <trkpt lat="48.4803" lon="2.64603">
        <ele>90</ele>
        <time>2022-05-22T09:27:54Z</time>
      </trkpt>
      <trkpt lat="48.48023" lon="2.64634">
        <ele>91</ele>
        <time>2022-05-22T09:27:58Z</time>
      </trkpt>
      <trkpt lat="48.48003" lon="2.64746">
        <ele>89</ele>
        <time>2022-05-22T09:28:12Z</time>
      </trkpt>
      <trkpt lat="48.4799" lon="2.64791">
        <ele>89</ele>
        <time>2022-05-22T09:28:17Z</time>
      </trkpt>
      <trkpt lat="48.47978" lon="2.64846">
        <ele>90</ele>
        <time>2022-05-22T09:28:24Z</time>
      </trkpt>
      <trkpt lat="48.47971" lon="2.64864">
        <ele>91</ele>
        <time>2022-05-22T09:28:27Z</time>
      </trkpt>
      <trkpt lat="48.47961" lon="2.64909">
        <ele>93</ele>
        <time>2022-05-22T09:28:32Z</time>
      </trkpt>
      <trkpt lat="48.47951" lon="2.64971">
        <ele>92</ele>
        <time>2022-05-22T09:28:40Z</time>
      </trkpt>
      <trkpt lat="48.47943" lon="2.65004">
        <ele>92</ele>
        <time>2022-05-22T09:28:44Z</time>
      </trkpt>
      <trkpt lat="48.47942" lon="2.65019">
        <ele>92</ele>
        <time>2022-05-22T09:28:46Z</time>
      </trkpt>
      <trkpt lat="48.47913" lon="2.65134">
        <ele>91</ele>
        <time>2022-05-22T09:29:00Z</time>
      </trkpt>
      <trkpt lat="48.47904" lon="2.65195">
        <ele>91</ele>
        <time>2022-05-22T09:29:08Z</time>
      </trkpt>
      <trkpt lat="48.47896" lon="2.65221">
        <ele>90</ele>
        <time>2022-05-22T09:29:11Z</time>
      </trkpt>
      <trkpt lat="48.47888" lon="2.65231">
        <ele>90</ele>
        <time>2022-05-22T09:29:13Z</time>
      </trkpt>
      <trkpt lat="48.47879" lon="2.65235">
        <ele>90</ele>
        <time>2022-05-22T09:29:15Z</time>
      </trkpt>
      <trkpt lat="48.47872" lon="2.65225">
        <ele>90</ele>
        <time>2022-05-22T09:29:16Z</time>
      </trkpt>
      <trkpt lat="48.47869" lon="2.65211">
        <ele>90</ele>
        <time>2022-05-22T09:29:18Z</time>
      </trkpt>
      <trkpt lat="48.47879" lon="2.65212">
        <ele>90</ele>
        <time>2022-05-22T09:29:20Z</time>
      </trkpt>
      <trkpt lat="48.47882" lon="2.65227">
        <ele>90</ele>
        <time>2022-05-22T09:29:22Z</time>
      </trkpt>
      <trkpt lat="48.47878" lon="2.65274">
        <ele>91</ele>
        <time>2022-05-22T09:29:27Z</time>
      </trkpt>
      <trkpt lat="48.47869" lon="2.65282">
        <ele>91</ele>
        <time>2022-05-22T09:29:29Z</time>
      </trkpt>
      <trkpt lat="48.47861" lon="2.6533">
        <ele>93</ele>
        <time>2022-05-22T09:29:35Z</time>
      </trkpt>
      <trkpt lat="48.47852" lon="2.65357">
        <ele>93</ele>
        <time>2022-05-22T09:29:39Z</time>
      </trkpt>
      <trkpt lat="48.47839" lon="2.65378">
        <ele>93</ele>
        <time>2022-05-22T09:29:42Z</time>
      </trkpt>
      <trkpt lat="48.47829" lon="2.65408">
        <ele>93</ele>
        <time>2022-05-22T09:29:46Z</time>
      </trkpt>
      <trkpt lat="48.47808" lon="2.65492">
        <ele>91</ele>
        <time>2022-05-22T09:29:56Z</time>
      </trkpt>
      <trkpt lat="48.47805" lon="2.65512">
        <ele>90</ele>
        <time>2022-05-22T09:29:59Z</time>
      </trkpt>
      <trkpt lat="48.478" lon="2.65524">
        <ele>90</ele>
        <time>2022-05-22T09:30:01Z</time>
      </trkpt>
      <trkpt lat="48.47798" lon="2.65539">
        <ele>90</ele>
        <time>2022-05-22T09:30:02Z</time>
      </trkpt>
      <trkpt lat="48.478" lon="2.65556">
        <ele>90</ele>
        <time>2022-05-22T09:30:04Z</time>
      </trkpt>
      <trkpt lat="48.47787" lon="2.65616">
        <ele>90</ele>
        <time>2022-05-22T09:30:12Z</time>
      </trkpt>
      <trkpt lat="48.47768" lon="2.65671">
        <ele>91</ele>
        <time>2022-05-22T09:30:19Z</time>
      </trkpt>
      <trkpt lat="48.47765" lon="2.65686">
        <ele>91</ele>
        <time>2022-05-22T09:30:21Z</time>
      </trkpt>
      <trkpt lat="48.47758" lon="2.65696">
        <ele>91</ele>
        <time>2022-05-22T09:30:23Z</time>
      </trkpt>
      <trkpt lat="48.47747" lon="2.65753">
        <ele>90</ele>
        <time>2022-05-22T09:30:30Z</time>
      </trkpt>
      <trkpt lat="48.47749" lon="2.658">
        <ele>90</ele>
        <time>2022-05-22T09:30:35Z</time>
      </trkpt>
      <trkpt lat="48.47743" lon="2.65849">
        <ele>90</ele>
        <time>2022-05-22T09:30:41Z</time>
      </trkpt>
      <trkpt lat="48.47721" lon="2.65985">
        <ele>90</ele>
        <time>2022-05-22T09:30:58Z</time>
      </trkpt>
      <trkpt lat="48.47709" lon="2.66014">
        <ele>90</ele>
        <time>2022-05-22T09:31:02Z</time>
      </trkpt>
      <trkpt lat="48.477" lon="2.66022">
        <ele>90</ele>
        <time>2022-05-22T09:31:04Z</time>
      </trkpt>
      <trkpt lat="48.47694" lon="2.66036">
        <ele>91</ele>
        <time>2022-05-22T09:31:06Z</time>
      </trkpt>
      <trkpt lat="48.47689" lon="2.6605">
        <ele>91</ele>
        <time>2022-05-22T09:31:07Z</time>
      </trkpt>
      <trkpt lat="48.47684" lon="2.66084">
        <ele>91</ele>
        <time>2022-05-22T09:31:12Z</time>
      </trkpt>
      <trkpt lat="48.47665" lon="2.66127">
        <ele>93</ele>
        <time>2022-05-22T09:31:18Z</time>
      </trkpt>
      <trkpt lat="48.47665" lon="2.66142">
        <ele>93</ele>
        <time>2022-05-22T09:31:19Z</time>
      </trkpt>
      <trkpt lat="48.47674" lon="2.66144">
        <ele>93</ele>
        <time>2022-05-22T09:31:21Z</time>
      </trkpt>
      <trkpt lat="48.47682" lon="2.66154">
        <ele>94</ele>
        <time>2022-05-22T09:31:23Z</time>
      </trkpt>
      <trkpt lat="48.47671" lon="2.66238">
        <ele>95</ele>
        <time>2022-05-22T09:31:33Z</time>
      </trkpt>
      <trkpt lat="48.47642" lon="2.6636">
        <ele>95</ele>
        <time>2022-05-22T09:31:48Z</time>
      </trkpt>
      <trkpt lat="48.47626" lon="2.66462">
        <ele>95</ele>
        <time>2022-05-22T09:32:01Z</time>
      </trkpt>
      <trkpt lat="48.47619" lon="2.66476">
        <ele>95</ele>
        <time>2022-05-22T09:32:03Z</time>
      </trkpt>
      <trkpt lat="48.47618" lon="2.66495">
        <ele>95</ele>
        <time>2022-05-22T09:32:05Z</time>
      </trkpt>
      <trkpt lat="48.47606" lon="2.66535">
        <ele>95</ele>
        <time>2022-05-22T09:32:10Z</time>
      </trkpt>
      <trkpt lat="48.47604" lon="2.66552">
        <ele>95</ele>
        <time>2022-05-22T09:32:12Z</time>
      </trkpt>
      <trkpt lat="48.47594" lon="2.66587">
        <ele>96</ele>
        <time>2022-05-22T09:32:17Z</time>
      </trkpt>
      <trkpt lat="48.47581" lon="2.66661">
        <ele>96</ele>
        <time>2022-05-22T09:32:26Z</time>
      </trkpt>
      <trkpt lat="48.47573" lon="2.6669">
        <ele>95</ele>
        <time>2022-05-22T09:32:29Z</time>
      </trkpt>
      <trkpt lat="48.47561" lon="2.66717">
        <ele>95</ele>
        <time>2022-05-22T09:32:33Z</time>
      </trkpt>
      <trkpt lat="48.47561" lon="2.66732">
        <ele>95</ele>
        <time>2022-05-22T09:32:35Z</time>
      </trkpt>
      <trkpt lat="48.47567" lon="2.66764">
        <ele>94</ele>
        <time>2022-05-22T09:32:39Z</time>
      </trkpt>
      <trkpt lat="48.47573" lon="2.66851">
        <ele>95</ele>
        <time>2022-05-22T09:32:49Z</time>
      </trkpt>
      <trkpt lat="48.47581" lon="2.66895">
        <ele>96</ele>
        <time>2022-05-22T09:32:55Z</time>
      </trkpt>
      <trkpt lat="48.47626" lon="2.67031">
        <ele>102</ele>
        <time>2022-05-22T09:33:13Z</time>
      </trkpt>
      <trkpt lat="48.47646" lon="2.67082">
        <ele>102</ele>
        <time>2022-05-22T09:33:20Z</time>
      </trkpt>
      <trkpt lat="48.47656" lon="2.67127">
        <ele>102</ele>
        <time>2022-05-22T09:33:25Z</time>
      </trkpt>
      <trkpt lat="48.4766" lon="2.67157">
        <ele>102</ele>
        <time>2022-05-22T09:33:29Z</time>
      </trkpt>
      <trkpt lat="48.47663" lon="2.67237">
        <ele>103</ele>
        <time>2022-05-22T09:33:38Z</time>
      </trkpt>
      <trkpt lat="48.47666" lon="2.67253">
        <ele>103</ele>
        <time>2022-05-22T09:33:40Z</time>
      </trkpt>
      <trkpt lat="48.47666" lon="2.67333">
        <ele>102</ele>
        <time>2022-05-22T09:33:50Z</time>
      </trkpt>
      <trkpt lat="48.47672" lon="2.67395">
        <ele>101</ele>
        <time>2022-05-22T09:33:57Z</time>
      </trkpt>
      <trkpt lat="48.4767" lon="2.67424">
        <ele>101</ele>
        <time>2022-05-22T09:34:00Z</time>
      </trkpt>
      <trkpt lat="48.47673" lon="2.67455">
        <ele>99</ele>
        <time>2022-05-22T09:34:04Z</time>
      </trkpt>
      <trkpt lat="48.47672" lon="2.67501">
        <ele>97</ele>
        <time>2022-05-22T09:34:10Z</time>
      </trkpt>
      <trkpt lat="48.47674" lon="2.67515">
        <ele>97</ele>
        <time>2022-05-22T09:34:11Z</time>
      </trkpt>
      <trkpt lat="48.47683" lon="2.67541">
        <ele>96</ele>
        <time>2022-05-22T09:34:15Z</time>
      </trkpt>
      <trkpt lat="48.477" lon="2.67576">
        <ele>95</ele>
        <time>2022-05-22T09:34:20Z</time>
      </trkpt>
      <trkpt lat="48.47724" lon="2.67606">
        <ele>95</ele>
        <time>2022-05-22T09:34:25Z</time>
      </trkpt>
      <trkpt lat="48.47713" lon="2.67601">
        <ele>94</ele>
        <time>2022-05-22T09:34:27Z</time>
      </trkpt>
      <trkpt lat="48.47701" lon="2.6758">
        <ele>95</ele>
        <time>2022-05-22T09:34:31Z</time>
      </trkpt>
      <trkpt lat="48.4768" lon="2.67587">
        <ele>94</ele>
        <time>2022-05-22T09:34:34Z</time>
      </trkpt>
      <trkpt lat="48.47666" lon="2.67609">
        <ele>93</ele>
        <time>2022-05-22T09:34:38Z</time>
      </trkpt>
      <trkpt lat="48.47646" lon="2.67651">
        <ele>93</ele>
        <time>2022-05-22T09:34:44Z</time>
      </trkpt>
      <trkpt lat="48.47609" lon="2.67708">
        <ele>93</ele>
        <time>2022-05-22T09:34:54Z</time>
      </trkpt>
      <trkpt lat="48.47605" lon="2.67723">
        <ele>93</ele>
        <time>2022-05-22T09:34:55Z</time>
      </trkpt>
      <trkpt lat="48.47663" lon="2.67811">
        <ele>89</ele>
        <time>2022-05-22T09:35:10Z</time>
      </trkpt>
      <trkpt lat="48.47719" lon="2.67906">
        <ele>87</ele>
        <time>2022-05-22T09:35:25Z</time>
      </trkpt>
      <trkpt lat="48.47773" lon="2.67994">
        <ele>85</ele>
        <time>2022-05-22T09:35:39Z</time>
      </trkpt>
      <trkpt lat="48.47782" lon="2.68003">
        <ele>85</ele>
        <time>2022-05-22T09:35:41Z</time>
      </trkpt>
      <trkpt lat="48.47789" lon="2.68017">
        <ele>85</ele>
        <time>2022-05-22T09:35:43Z</time>
      </trkpt>
      <trkpt lat="48.47809" lon="2.68071">
        <ele>85</ele>
        <time>2022-05-22T09:35:51Z</time>
      </trkpt>
      <trkpt lat="48.47841" lon="2.68188">
        <ele>85</ele>
        <time>2022-05-22T09:36:05Z</time>
      </trkpt>
      <trkpt lat="48.47852" lon="2.68219">
        <ele>85</ele>
        <time>2022-05-22T09:36:10Z</time>
      </trkpt>
      <trkpt lat="48.47871" lon="2.68253">
        <ele>84</ele>
        <time>2022-05-22T09:36:15Z</time>
      </trkpt>
      <trkpt lat="48.47876" lon="2.68269">
        <ele>84</ele>
        <time>2022-05-22T09:36:17Z</time>
      </trkpt>
      <trkpt lat="48.47875" lon="2.68298">
        <ele>84</ele>
        <time>2022-05-22T09:36:20Z</time>
      </trkpt>
      <trkpt lat="48.47863" lon="2.68367">
        <ele>84</ele>
        <time>2022-05-22T09:36:29Z</time>
      </trkpt>
      <trkpt lat="48.47844" lon="2.68411">
        <ele>85</ele>
        <time>2022-05-22T09:36:35Z</time>
      </trkpt>
      <trkpt lat="48.47788" lon="2.68485">
        <ele>86</ele>
        <time>2022-05-22T09:36:48Z</time>
      </trkpt>
      <trkpt lat="48.47782" lon="2.68496">
        <ele>86</ele>
        <time>2022-05-22T09:36:50Z</time>
      </trkpt>
      <trkpt lat="48.47758" lon="2.68525">
        <ele>87</ele>
        <time>2022-05-22T09:36:55Z</time>
      </trkpt>
      <trkpt lat="48.47738" lon="2.68543">
        <ele>87</ele>
        <time>2022-05-22T09:37:00Z</time>
      </trkpt>
      <trkpt lat="48.47728" lon="2.68549">
        <ele>87</ele>
        <time>2022-05-22T09:37:01Z</time>
      </trkpt>
      <trkpt lat="48.47711" lon="2.68568">
        <ele>87</ele>
        <time>2022-05-22T09:37:05Z</time>
      </trkpt>
      <trkpt lat="48.47696" lon="2.68594">
        <ele>87</ele>
        <time>2022-05-22T09:37:09Z</time>
      </trkpt>
      <trkpt lat="48.47682" lon="2.68642">
        <ele>87</ele>
        <time>2022-05-22T09:37:15Z</time>
      </trkpt>
      <trkpt lat="48.47659" lon="2.68763">
        <ele>85</ele>
        <time>2022-05-22T09:37:30Z</time>
      </trkpt>
      <trkpt lat="48.47645" lon="2.6881">
        <ele>85</ele>
        <time>2022-05-22T09:37:36Z</time>
      </trkpt>
      <trkpt lat="48.47619" lon="2.68864">
        <ele>84</ele>
        <time>2022-05-22T09:37:44Z</time>
      </trkpt>
      <trkpt lat="48.47604" lon="2.68889">
        <ele>84</ele>
        <time>2022-05-22T09:37:48Z</time>
      </trkpt>
      <trkpt lat="48.47568" lon="2.68969">
        <ele>82</ele>
        <time>2022-05-22T09:38:00Z</time>
      </trkpt>
      <trkpt lat="48.47548" lon="2.69002">
        <ele>82</ele>
        <time>2022-05-22T09:38:05Z</time>
      </trkpt>
      <trkpt lat="48.47538" lon="2.69029">
        <ele>81</ele>
        <time>2022-05-22T09:38:09Z</time>
      </trkpt>
      <trkpt lat="48.47525" lon="2.69051">
        <ele>81</ele>
        <time>2022-05-22T09:38:12Z</time>
      </trkpt>
      <trkpt lat="48.47482" lon="2.69138">
        <ele>81</ele>
        <time>2022-05-22T09:38:25Z</time>
      </trkpt>
      <trkpt lat="48.47478" lon="2.69153">
        <ele>81</ele>
        <time>2022-05-22T09:38:27Z</time>
      </trkpt>
      <trkpt lat="48.4746" lon="2.69196">
        <ele>82</ele>
        <time>2022-05-22T09:38:33Z</time>
      </trkpt>
      <trkpt lat="48.4744" lon="2.69266">
        <ele>82</ele>
        <time>2022-05-22T09:38:42Z</time>
      </trkpt>
      <trkpt lat="48.47429" lon="2.6929">
        <ele>82</ele>
        <time>2022-05-22T09:38:45Z</time>
      </trkpt>
      <trkpt lat="48.47418" lon="2.6929">
        <ele>83</ele>
        <time>2022-05-22T09:38:47Z</time>
      </trkpt>
      <trkpt lat="48.47408" lon="2.69297">
        <ele>83</ele>
        <time>2022-05-22T09:38:49Z</time>
      </trkpt>
      <trkpt lat="48.47405" lon="2.69283">
        <ele>83</ele>
        <time>2022-05-22T09:38:51Z</time>
      </trkpt>
      <trkpt lat="48.47251" lon="2.73117">
        <ele>63</ele>
        <time>2022-05-22T09:46:24Z</time>
      </trkpt>
      <trkpt lat="48.47243" lon="2.73133">
        <ele>63</ele>
        <time>2022-05-22T09:46:26Z</time>
      </trkpt>
      <trkpt lat="48.47003" lon="2.73086">
        <ele>71</ele>
        <time>2022-05-22T09:47:09Z</time>
      </trkpt>
      <trkpt lat="48.46878" lon="2.72855">
        <ele>70</ele>
        <time>2022-05-22T09:47:45Z</time>
      </trkpt>
      <trkpt lat="48.46624" lon="2.72372">
        <ele>91</ele>
        <time>2022-05-22T09:48:57Z</time>
      </trkpt>
      <trkpt lat="48.46905" lon="2.71416">
        <ele>79</ele>
        <time>2022-05-22T09:51:01Z</time>
      </trkpt>
      <trkpt lat="48.46973" lon="2.71095">
        <ele>79</ele>
        <time>2022-05-22T09:51:40Z</time>
      </trkpt>
      <trkpt lat="48.46995" lon="2.70908">
        <ele>78</ele>
        <time>2022-05-22T09:52:03Z</time>
      </trkpt>
      <trkpt lat="48.46971" lon="2.70903">
        <ele>79</ele>
        <time>2022-05-22T09:52:07Z</time>
      </trkpt>
      <trkpt lat="48.46923" lon="2.70862">
        <ele>81</ele>
        <time>2022-05-22T09:52:17Z</time>
      </trkpt>
      <trkpt lat="48.46941" lon="2.70758">
        <ele>80</ele>
        <time>2022-05-22T09:52:30Z</time>
      </trkpt>
      <trkpt lat="48.46929" lon="2.70747">
        <ele>81</ele>
        <time>2022-05-22T09:52:32Z</time>
      </trkpt>
      <trkpt lat="48.46906" lon="2.70717">
        <ele>81</ele>
        <time>2022-05-22T09:52:38Z</time>
      </trkpt>
      <trkpt lat="48.46917" lon="2.70705">
        <ele>81</ele>
        <time>2022-05-22T09:52:40Z</time>
      </trkpt>
      <trkpt lat="48.47005" lon="2.70527">
        <ele>77</ele>
        <time>2022-05-22T09:53:06Z</time>
      </trkpt>
      <trkpt lat="48.47062" lon="2.70399">
        <ele>74</ele>
        <time>2022-05-22T09:53:24Z</time>
      </trkpt>
      <trkpt lat="48.47203" lon="2.70027">
        <ele>74</ele>
        <time>2022-05-22T09:54:15Z</time>
      </trkpt>
      <trkpt lat="48.47235" lon="2.69923">
        <ele>76</ele>
        <time>2022-05-22T09:54:28Z</time>
      </trkpt>
      <trkpt lat="48.47244" lon="2.69854">
        <ele>78</ele>
        <time>2022-05-22T09:54:37Z</time>
      </trkpt>
      <trkpt lat="48.47258" lon="2.69804">
        <ele>79</ele>
        <time>2022-05-22T09:54:43Z</time>
      </trkpt>
      <trkpt lat="48.47335" lon="2.6963">
        <ele>78</ele>
        <time>2022-05-22T09:55:08Z</time>
      </trkpt>
      <trkpt lat="48.47395" lon="2.69476">
        <ele>80</ele>
        <time>2022-05-22T09:55:29Z</time>
      </trkpt>
      <trkpt lat="48.47489" lon="2.69338">
        <ele>80</ele>
        <time>2022-05-22T09:55:52Z</time>
      </trkpt>
      <trkpt lat="48.47466" lon="2.69307">
        <ele>81</ele>
        <time>2022-05-22T09:55:58Z</time>
      </trkpt>
      <trkpt lat="48.47519" lon="2.69212">
        <ele>79</ele>
        <time>2022-05-22T09:56:12Z</time>
      </trkpt>
      <trkpt lat="48.47473" lon="2.69161">
        <ele>81</ele>
        <time>2022-05-22T09:56:22Z</time>
      </trkpt>
      <trkpt lat="48.47434" lon="2.69293">
        <ele>82</ele>
        <time>2022-05-22T09:56:39Z</time>
      </trkpt>
      <trkpt lat="48.47313" lon="2.69262">
        <ele>84</ele>
        <time>2022-05-22T09:57:01Z</time>
      </trkpt>
      <trkpt lat="48.47151" lon="2.69209">
        <ele>86</ele>
        <time>2022-05-22T09:57:31Z</time>
      </trkpt>
      <trkpt lat="48.47073" lon="2.6938">
        <ele>87</ele>
        <time>2022-05-22T09:57:55Z</time>
      </trkpt>
      <trkpt lat="48.47012" lon="2.69478">
        <ele>85</ele>
        <time>2022-05-22T09:58:11Z</time>
      </trkpt>
      <trkpt lat="48.46926" lon="2.69644">
        <ele>84</ele>
        <time>2022-05-22T09:58:36Z</time>
      </trkpt>
      <trkpt lat="48.46817" lon="2.69722">
        <ele>85</ele>
        <time>2022-05-22T09:58:57Z</time>
      </trkpt>
      <trkpt lat="48.46747" lon="2.69742">
        <ele>86</ele>
        <time>2022-05-22T09:59:10Z</time>
      </trkpt>
      <trkpt lat="48.46687" lon="2.69744">
        <ele>85</ele>
        <time>2022-05-22T09:59:21Z</time>
      </trkpt>
      <trkpt lat="48.46641" lon="2.69763">
        <ele>86</ele>
        <time>2022-05-22T09:59:29Z</time>
      </trkpt>
      <trkpt lat="48.46595" lon="2.69731">
        <ele>87</ele>
        <time>2022-05-22T09:59:38Z</time>
      </trkpt>
      <trkpt lat="48.46614" lon="2.69675">
        <ele>87</ele>
        <time>2022-05-22T09:59:46Z</time>
      </trkpt>
      <trkpt lat="48.46634" lon="2.69634">
        <ele>87</ele>
        <time>2022-05-22T09:59:52Z</time>
      </trkpt>
      <trkpt lat="48.47404" lon="2.69287">
        <ele>83</ele>
        <time>2022-05-22T10:02:15Z</time>
      </trkpt>
      <trkpt lat="48.47418" lon="2.69295">
        <ele>83</ele>
        <time>2022-05-22T10:02:17Z</time>
      </trkpt>
      <trkpt lat="48.47438" lon="2.6929">
        <ele>82</ele>
        <time>2022-05-22T10:02:21Z</time>
      </trkpt>
      <trkpt lat="48.47447" lon="2.69296">
        <ele>82</ele>
        <time>2022-05-22T10:02:23Z</time>
      </trkpt>
      <trkpt lat="48.47469" lon="2.69302">
        <ele>81</ele>
        <time>2022-05-22T10:02:27Z</time>
      </trkpt>
      <trkpt lat="48.47486" lon="2.6932">
        <ele>80</ele>
        <time>2022-05-22T10:02:30Z</time>
      </trkpt>
      <trkpt lat="48.47498" lon="2.69326">
        <ele>80</ele>
        <time>2022-05-22T10:02:33Z</time>
      </trkpt>
      <trkpt lat="48.47509" lon="2.69325">
        <ele>80</ele>
        <time>2022-05-22T10:02:35Z</time>
      </trkpt>
      <trkpt lat="48.47539" lon="2.6933">
        <ele>80</ele>
        <time>2022-05-22T10:02:40Z</time>
      </trkpt>
      <trkpt lat="48.47568" lon="2.69343">
        <ele>81</ele>
        <time>2022-05-22T10:02:45Z</time>
      </trkpt>
      <trkpt lat="48.47553" lon="2.69339">
        <ele>81</ele>
        <time>2022-05-22T10:02:48Z</time>
      </trkpt>
      <trkpt lat="48.47532" lon="2.69342">
        <ele>80</ele>
        <time>2022-05-22T10:02:52Z</time>
      </trkpt>
      <trkpt lat="48.47502" lon="2.69337">
        <ele>80</ele>
        <time>2022-05-22T10:02:57Z</time>
      </trkpt>
      <trkpt lat="48.47493" lon="2.6934">
        <ele>80</ele>
        <time>2022-05-22T10:02:59Z</time>
      </trkpt>
      <trkpt lat="48.4742" lon="2.69449">
        <ele>80</ele>
        <time>2022-05-22T10:03:17Z</time>
      </trkpt>
      <trkpt lat="48.47416" lon="2.69462">
        <ele>80</ele>
        <time>2022-05-22T10:03:19Z</time>
      </trkpt>
      <trkpt lat="48.47418" lon="2.69475">
        <ele>80</ele>
        <time>2022-05-22T10:03:20Z</time>
      </trkpt>
      <trkpt lat="48.47414" lon="2.69537">
        <ele>78</ele>
        <time>2022-05-22T10:03:28Z</time>
      </trkpt>
      <trkpt lat="48.47414" lon="2.69649">
        <ele>78</ele>
        <time>2022-05-22T10:03:41Z</time>
      </trkpt>
      <trkpt lat="48.47411" lon="2.69663">
        <ele>78</ele>
        <time>2022-05-22T10:03:43Z</time>
      </trkpt>
      <trkpt lat="48.47407" lon="2.69745">
        <ele>80</ele>
        <time>2022-05-22T10:03:52Z</time>
      </trkpt>
      <trkpt lat="48.47407" lon="2.69808">
        <ele>77</ele>
        <time>2022-05-22T10:04:00Z</time>
      </trkpt>
      <trkpt lat="48.47395" lon="2.70026">
        <ele>74</ele>
        <time>2022-05-22T10:04:26Z</time>
      </trkpt>
      <trkpt lat="48.47396" lon="2.70045">
        <ele>74</ele>
        <time>2022-05-22T10:04:28Z</time>
      </trkpt>
      <trkpt lat="48.47392" lon="2.70136">
        <ele>71</ele>
        <time>2022-05-22T10:04:39Z</time>
      </trkpt>
      <trkpt lat="48.47388" lon="2.70169">
        <ele>69</ele>
        <time>2022-05-22T10:04:43Z</time>
      </trkpt>
      <trkpt lat="48.4739" lon="2.70188">
        <ele>68</ele>
        <time>2022-05-22T10:04:45Z</time>
      </trkpt>
      <trkpt lat="48.47387" lon="2.70264">
        <ele>66</ele>
        <time>2022-05-22T10:04:54Z</time>
      </trkpt>
      <trkpt lat="48.47389" lon="2.70283">
        <ele>66</ele>
        <time>2022-05-22T10:04:56Z</time>
      </trkpt>
      <trkpt lat="48.47388" lon="2.70316">
        <ele>65</ele>
        <time>2022-05-22T10:05:00Z</time>
      </trkpt>
      <trkpt lat="48.47386" lon="2.70329">
        <ele>65</ele>
        <time>2022-05-22T10:05:02Z</time>
      </trkpt>
      <trkpt lat="48.47375" lon="2.70355">
        <ele>65</ele>
        <time>2022-05-22T10:05:05Z</time>
      </trkpt>
      <trkpt lat="48.4732" lon="2.70449">
        <ele>62</ele>
        <time>2022-05-22T10:05:20Z</time>
      </trkpt>
      <trkpt lat="48.47324" lon="2.70463">
        <ele>62</ele>
        <time>2022-05-22T10:05:22Z</time>
      </trkpt>
      <trkpt lat="48.47333" lon="2.70466">
        <ele>61</ele>
        <time>2022-05-22T10:05:23Z</time>
      </trkpt>
      <trkpt lat="48.47354" lon="2.7048">
        <ele>60</ele>
        <time>2022-05-22T10:05:28Z</time>
      </trkpt>
      <trkpt lat="48.47381" lon="2.70502">
        <ele>58</ele>
        <time>2022-05-22T10:05:33Z</time>
      </trkpt>
      <trkpt lat="48.47383" lon="2.70517">
        <ele>58</ele>
        <time>2022-05-22T10:05:35Z</time>
      </trkpt>
      <trkpt lat="48.47387" lon="2.70798">
        <ele>60</ele>
        <time>2022-05-22T10:06:08Z</time>
      </trkpt>
      <trkpt lat="48.47386" lon="2.70816">
        <ele>60</ele>
        <time>2022-05-22T10:06:10Z</time>
      </trkpt>
      <trkpt lat="48.4738" lon="2.70842">
        <ele>60</ele>
        <time>2022-05-22T10:06:13Z</time>
      </trkpt>
      <trkpt lat="48.47384" lon="2.70854">
        <ele>60</ele>
        <time>2022-05-22T10:06:15Z</time>
      </trkpt>
      <trkpt lat="48.47404" lon="2.71066">
        <ele>60</ele>
        <time>2022-05-22T10:06:40Z</time>
      </trkpt>
      <trkpt lat="48.47418" lon="2.71147">
        <ele>60</ele>
        <time>2022-05-22T10:06:50Z</time>
      </trkpt>
      <trkpt lat="48.47429" lon="2.71301">
        <ele>61</ele>
        <time>2022-05-22T10:07:08Z</time>
      </trkpt>
      <trkpt lat="48.47454" lon="2.71483">
        <ele>60</ele>
        <time>2022-05-22T10:07:30Z</time>
      </trkpt>
      <trkpt lat="48.47452" lon="2.71496">
        <ele>59</ele>
        <time>2022-05-22T10:07:32Z</time>
      </trkpt>
      <trkpt lat="48.47459" lon="2.7161">
        <ele>62</ele>
        <time>2022-05-22T10:07:45Z</time>
      </trkpt>
      <trkpt lat="48.47469" lon="2.71688">
        <ele>66</ele>
        <time>2022-05-22T10:07:55Z</time>
      </trkpt>
      <trkpt lat="48.47473" lon="2.71704">
        <ele>66</ele>
        <time>2022-05-22T10:07:57Z</time>
      </trkpt>
      <trkpt lat="48.47473" lon="2.7172">
        <ele>67</ele>
        <time>2022-05-22T10:07:59Z</time>
      </trkpt>
      <trkpt lat="48.47478" lon="2.71754">
        <ele>68</ele>
        <time>2022-05-22T10:08:03Z</time>
      </trkpt>
      <trkpt lat="48.47496" lon="2.71839">
        <ele>68</ele>
        <time>2022-05-22T10:08:13Z</time>
      </trkpt>
      <trkpt lat="48.47498" lon="2.71874">
        <ele>69</ele>
        <time>2022-05-22T10:08:17Z</time>
      </trkpt>
      <trkpt lat="48.47504" lon="2.71924">
        <ele>69</ele>
        <time>2022-05-22T10:08:23Z</time>
      </trkpt>
      <trkpt lat="48.47508" lon="2.7194">
        <ele>68</ele>
        <time>2022-05-22T10:08:25Z</time>
      </trkpt>
      <trkpt lat="48.47507" lon="2.71959">
        <ele>68</ele>
        <time>2022-05-22T10:08:28Z</time>
      </trkpt>
      <trkpt lat="48.47513" lon="2.7201">
        <ele>67</ele>
        <time>2022-05-22T10:08:34Z</time>
      </trkpt>
      <trkpt lat="48.47513" lon="2.72028">
        <ele>66</ele>
        <time>2022-05-22T10:08:36Z</time>
      </trkpt>
      <trkpt lat="48.47523" lon="2.72094">
        <ele>66</ele>
        <time>2022-05-22T10:08:44Z</time>
      </trkpt>
      <trkpt lat="48.47523" lon="2.72125">
        <ele>66</ele>
        <time>2022-05-22T10:08:48Z</time>
      </trkpt>
      <trkpt lat="48.47519" lon="2.72138">
        <ele>66</ele>
        <time>2022-05-22T10:08:49Z</time>
      </trkpt>
      <trkpt lat="48.47495" lon="2.72193">
        <ele>66</ele>
        <time>2022-05-22T10:08:57Z</time>
      </trkpt>
      <trkpt lat="48.47486" lon="2.72222">
        <ele>67</ele>
        <time>2022-05-22T10:09:01Z</time>
      </trkpt>
      <trkpt lat="48.47474" lon="2.72246">
        <ele>68</ele>
        <time>2022-05-22T10:09:04Z</time>
      </trkpt>
      <trkpt lat="48.47439" lon="2.72337">
        <ele>68</ele>
        <time>2022-05-22T10:09:17Z</time>
      </trkpt>
      <trkpt lat="48.47405" lon="2.72408">
        <ele>69</ele>
        <time>2022-05-22T10:09:27Z</time>
      </trkpt>
      <trkpt lat="48.47364" lon="2.72476">
        <ele>69</ele>
        <time>2022-05-22T10:09:38Z</time>
      </trkpt>
      <trkpt lat="48.47352" lon="2.725">
        <ele>70</ele>
        <time>2022-05-22T10:09:41Z</time>
      </trkpt>
      <trkpt lat="48.47337" lon="2.72522">
        <ele>69</ele>
        <time>2022-05-22T10:09:45Z</time>
      </trkpt>
      <trkpt lat="48.47332" lon="2.72511">
        <ele>69</ele>
        <time>2022-05-22T10:09:47Z</time>
      </trkpt>
      <trkpt lat="48.47324" lon="2.72502">
        <ele>70</ele>
        <time>2022-05-22T10:09:49Z</time>
      </trkpt>
      <trkpt lat="48.47306" lon="2.7249">
        <ele>69</ele>
        <time>2022-05-22T10:09:52Z</time>
      </trkpt>
      <trkpt lat="48.47292" lon="2.72472">
        <ele>69</ele>
        <time>2022-05-22T10:09:55Z</time>
      </trkpt>
      <trkpt lat="48.46731" lon="2.69064">
        <ele>90</ele>
        <time>2022-05-22T10:16:50Z</time>
      </trkpt>
      <trkpt lat="48.46678" lon="2.6903">
        <ele>91</ele>
        <time>2022-05-22T10:17:00Z</time>
      </trkpt>
      <trkpt lat="48.46652" lon="2.68999">
        <ele>92</ele>
        <time>2022-05-22T10:17:06Z</time>
      </trkpt>
      <trkpt lat="48.46649" lon="2.68983">
        <ele>93</ele>
        <time>2022-05-22T10:17:08Z</time>
      </trkpt>
      <trkpt lat="48.4664" lon="2.68968">
        <ele>93</ele>
        <time>2022-05-22T10:17:10Z</time>
      </trkpt>
      <trkpt lat="48.46627" lon="2.68967">
        <ele>93</ele>
        <time>2022-05-22T10:17:12Z</time>
      </trkpt>
      <trkpt lat="48.46617" lon="2.68963">
        <ele>93</ele>
        <time>2022-05-22T10:17:14Z</time>
      </trkpt>
      <trkpt lat="48.4661" lon="2.6895">
        <ele>93</ele>
        <time>2022-05-22T10:17:16Z</time>
      </trkpt>
      <trkpt lat="48.46576" lon="2.68917">
        <ele>93</ele>
        <time>2022-05-22T10:17:23Z</time>
      </trkpt>
      <trkpt lat="48.46511" lon="2.68837">
        <ele>92</ele>
        <time>2022-05-22T10:17:38Z</time>
      </trkpt>
      <trkpt lat="48.465" lon="2.68828">
        <ele>92</ele>
        <time>2022-05-22T10:17:41Z</time>
      </trkpt>
      <trkpt lat="48.46494" lon="2.68817">
        <ele>92</ele>
        <time>2022-05-22T10:17:42Z</time>
      </trkpt>
      <trkpt lat="48.46483" lon="2.68807">
        <ele>92</ele>
        <time>2022-05-22T10:17:44Z</time>
      </trkpt>
      <trkpt lat="48.46421" lon="2.68734">
        <ele>91</ele>
        <time>2022-05-22T10:17:58Z</time>
      </trkpt>
      <trkpt lat="48.46399" lon="2.68703">
        <ele>92</ele>
        <time>2022-05-22T10:18:04Z</time>
      </trkpt>
      <trkpt lat="48.46365" lon="2.68662">
        <ele>93</ele>
        <time>2022-05-22T10:18:12Z</time>
      </trkpt>
      <trkpt lat="48.46331" lon="2.68626">
        <ele>93</ele>
        <time>2022-05-22T10:18:19Z</time>
      </trkpt>
      <trkpt lat="48.46293" lon="2.68573">
        <ele>92</ele>
        <time>2022-05-22T10:18:28Z</time>
      </trkpt>
      <trkpt lat="48.46254" lon="2.68525">
        <ele>92</ele>
        <time>2022-05-22T10:18:37Z</time>
      </trkpt>
      <trkpt lat="48.46241" lon="2.68504">
        <ele>93</ele>
        <time>2022-05-22T10:18:41Z</time>
      </trkpt>
      <trkpt lat="48.46219" lon="2.68483">
        <ele>93</ele>
        <time>2022-05-22T10:18:45Z</time>
      </trkpt>
      <trkpt lat="48.46201" lon="2.68458">
        <ele>94</ele>
        <time>2022-05-22T10:18:50Z</time>
      </trkpt>
      <trkpt lat="48.46166" lon="2.68422">
        <ele>94</ele>
        <time>2022-05-22T10:18:57Z</time>
      </trkpt>
      <trkpt lat="48.46136" lon="2.6838">
        <ele>93</ele>
        <time>2022-05-22T10:19:04Z</time>
      </trkpt>
      <trkpt lat="48.46127" lon="2.68372">
        <ele>93</ele>
        <time>2022-05-22T10:19:06Z</time>
      </trkpt>
      <trkpt lat="48.46084" lon="2.68318">
        <ele>91</ele>
        <time>2022-05-22T10:19:16Z</time>
      </trkpt>
      <trkpt lat="48.46075" lon="2.6831">
        <ele>91</ele>
        <time>2022-05-22T10:19:18Z</time>
      </trkpt>
      <trkpt lat="48.4606" lon="2.68289">
        <ele>92</ele>
        <time>2022-05-22T10:19:22Z</time>
      </trkpt>
      <trkpt lat="48.46052" lon="2.68282">
        <ele>92</ele>
        <time>2022-05-22T10:19:23Z</time>
      </trkpt>
      <trkpt lat="48.46038" lon="2.68243">
        <ele>94</ele>
        <time>2022-05-22T10:19:29Z</time>
      </trkpt>
      <trkpt lat="48.46027" lon="2.68201">
        <ele>95</ele>
        <time>2022-05-22T10:19:34Z</time>
      </trkpt>
      <trkpt lat="48.46017" lon="2.68141">
        <ele>98</ele>
        <time>2022-05-22T10:19:41Z</time>
      </trkpt>
      <trkpt lat="48.45992" lon="2.68034">
        <ele>99</ele>
        <time>2022-05-22T10:19:55Z</time>
      </trkpt>
      <trkpt lat="48.45985" lon="2.67987">
        <ele>98</ele>
        <time>2022-05-22T10:20:00Z</time>
      </trkpt>
      <trkpt lat="48.45962" lon="2.67875">
        <ele>97</ele>
        <time>2022-05-22T10:20:14Z</time>
      </trkpt>
      <trkpt lat="48.45957" lon="2.6786">
        <ele>97</ele>
        <time>2022-05-22T10:20:16Z</time>
      </trkpt>
      <trkpt lat="48.45953" lon="2.67813">
        <ele>97</ele>
        <time>2022-05-22T10:20:22Z</time>
      </trkpt>
      <trkpt lat="48.45945" lon="2.67768">
        <ele>99</ele>
        <time>2022-05-22T10:20:27Z</time>
      </trkpt>
      <trkpt lat="48.45918" lon="2.67645">
        <ele>102</ele>
        <time>2022-05-22T10:20:42Z</time>
      </trkpt>
      <trkpt lat="48.45896" lon="2.67523">
        <ele>101</ele>
        <time>2022-05-22T10:20:57Z</time>
      </trkpt>
      <trkpt lat="48.45891" lon="2.67507">
        <ele>102</ele>
        <time>2022-05-22T10:20:59Z</time>
      </trkpt>
      <trkpt lat="48.45888" lon="2.67479">
        <ele>101</ele>
        <time>2022-05-22T10:21:03Z</time>
      </trkpt>
      <trkpt lat="48.45862" lon="2.67339">
        <ele>102</ele>
        <time>2022-05-22T10:21:20Z</time>
      </trkpt>
      <trkpt lat="48.45849" lon="2.67289">
        <ele>103</ele>
        <time>2022-05-22T10:21:26Z</time>
      </trkpt>
      <trkpt lat="48.45834" lon="2.6726">
        <ele>104</ele>
        <time>2022-05-22T10:21:31Z</time>
      </trkpt>
      <trkpt lat="48.45828" lon="2.67243">
        <ele>104</ele>
        <time>2022-05-22T10:21:33Z</time>
      </trkpt>
      <trkpt lat="48.45797" lon="2.67184">
        <ele>105</ele>
        <time>2022-05-22T10:21:42Z</time>
      </trkpt>
      <trkpt lat="48.45775" lon="2.67131">
        <ele>106</ele>
        <time>2022-05-22T10:21:49Z</time>
      </trkpt>
      <trkpt lat="48.45727" lon="2.6703">
        <ele>107</ele>
        <time>2022-05-22T10:22:04Z</time>
      </trkpt>
      <trkpt lat="48.45739" lon="2.67043">
        <ele>106</ele>
        <time>2022-05-22T10:22:06Z</time>
      </trkpt>
      <trkpt lat="48.45764" lon="2.67087">
        <ele>106</ele>
        <time>2022-05-22T10:22:13Z</time>
      </trkpt>
      <trkpt lat="48.45761" lon="2.67111">
        <ele>106</ele>
        <time>2022-05-22T10:22:16Z</time>
      </trkpt>
      <trkpt lat="48.45766" lon="2.67096">
        <ele>106</ele>
        <time>2022-05-22T10:22:18Z</time>
      </trkpt>
      <trkpt lat="48.45751" lon="2.67076">
        <ele>106</ele>
        <time>2022-05-22T10:22:22Z</time>
      </trkpt>
      <trkpt lat="48.45719" lon="2.67013">
        <ele>107</ele>
        <time>2022-05-22T10:22:31Z</time>
      </trkpt>
      <trkpt lat="48.45669" lon="2.67034">
        <ele>107</ele>
        <time>2022-05-22T10:22:40Z</time>
      </trkpt>
      <trkpt lat="48.45608" lon="2.67072">
        <ele>109</ele>
        <time>2022-05-22T10:22:52Z</time>
      </trkpt>
      <trkpt lat="48.45597" lon="2.67075">
        <ele>110</ele>
        <time>2022-05-22T10:22:54Z</time>
      </trkpt>
      <trkpt lat="48.45561" lon="2.67094">
        <ele>112</ele>
        <time>2022-05-22T10:23:01Z</time>
      </trkpt>
      <trkpt lat="48.45513" lon="2.67111">
        <ele>117</ele>
        <time>2022-05-22T10:23:10Z</time>
      </trkpt>
      <trkpt lat="48.45476" lon="2.6712">
        <ele>121</ele>
        <time>2022-05-22T10:23:16Z</time>
      </trkpt>
      <trkpt lat="48.45457" lon="2.67118">
        <ele>124</ele>
        <time>2022-05-22T10:23:20Z</time>
      </trkpt>
      <trkpt lat="48.45418" lon="2.6712">
        <ele>129</ele>
        <time>2022-05-22T10:23:27Z</time>
      </trkpt>
      <trkpt lat="48.45389" lon="2.67116">
        <ele>130</ele>
        <time>2022-05-22T10:23:32Z</time>
      </trkpt>
      <trkpt lat="48.4537" lon="2.67116">
        <ele>132</ele>
        <time>2022-05-22T10:23:35Z</time>
      </trkpt>
      <trkpt lat="48.45279" lon="2.67094">
        <ele>137</ele>
        <time>2022-05-22T10:23:52Z</time>
      </trkpt>
      <trkpt lat="48.45129" lon="2.67065">
        <ele>144</ele>
        <time>2022-05-22T10:24:18Z</time>
      </trkpt>
      <trkpt lat="48.45063" lon="2.67055">
        <ele>146</ele>
        <time>2022-05-22T10:24:30Z</time>
      </trkpt>
      <trkpt lat="48.45025" lon="2.67045">
        <ele>146</ele>
        <time>2022-05-22T10:24:37Z</time>
      </trkpt>
      <trkpt lat="48.44959" lon="2.67033">
        <ele>146</ele>
        <time>2022-05-22T10:24:49Z</time>
      </trkpt>
      <trkpt lat="48.44889" lon="2.67027">
        <ele>148</ele>
        <time>2022-05-22T10:25:01Z</time>
      </trkpt>
      <trkpt lat="48.44803" lon="2.6701">
        <ele>148</ele>
        <time>2022-05-22T10:25:17Z</time>
      </trkpt>
      <trkpt lat="48.44794" lon="2.67006">
        <ele>148</ele>
        <time>2022-05-22T10:25:19Z</time>
      </trkpt>
      <trkpt lat="48.44745" lon="2.67">
        <ele>147</ele>
        <time>2022-05-22T10:25:27Z</time>
      </trkpt>
      <trkpt lat="48.44717" lon="2.66991">
        <ele>147</ele>
        <time>2022-05-22T10:25:32Z</time>
      </trkpt>
      <trkpt lat="48.44674" lon="2.66985">
        <ele>147</ele>
        <time>2022-05-22T10:25:40Z</time>
      </trkpt>
      <trkpt lat="48.44656" lon="2.66979">
        <ele>147</ele>
        <time>2022-05-22T10:25:43Z</time>
      </trkpt>
      <trkpt lat="48.44647" lon="2.6698">
        <ele>148</ele>
        <time>2022-05-22T10:25:45Z</time>
      </trkpt>
      <trkpt lat="48.44637" lon="2.66976">
        <ele>148</ele>
        <time>2022-05-22T10:25:47Z</time>
      </trkpt>
      <trkpt lat="48.44605" lon="2.66972">
        <ele>150</ele>
        <time>2022-05-22T10:25:52Z</time>
      </trkpt>
      <trkpt lat="48.44564" lon="2.66963">
        <ele>150</ele>
        <time>2022-05-22T10:26:00Z</time>
      </trkpt>
      <trkpt lat="48.44517" lon="2.66958">
        <ele>150</ele>
        <time>2022-05-22T10:26:08Z</time>
      </trkpt>
      <trkpt lat="48.44472" lon="2.66946">
        <ele>148</ele>
        <time>2022-05-22T10:26:16Z</time>
      </trkpt>
      <trkpt lat="48.44441" lon="2.66942">
        <ele>147</ele>
        <time>2022-05-22T10:26:22Z</time>
      </trkpt>
      <trkpt lat="48.44377" lon="2.66928">
        <ele>145</ele>
        <time>2022-05-22T10:26:33Z</time>
      </trkpt>
      <trkpt lat="48.4424" lon="2.66904">
        <ele>142</ele>
        <time>2022-05-22T10:26:58Z</time>
      </trkpt>
      <trkpt lat="48.44201" lon="2.66894">
        <ele>141</ele>
        <time>2022-05-22T10:27:05Z</time>
      </trkpt>
      <trkpt lat="48.44151" lon="2.66863">
        <ele>141</ele>
        <time>2022-05-22T10:27:15Z</time>
      </trkpt>
      <trkpt lat="48.44142" lon="2.66869">
        <ele>141</ele>
        <time>2022-05-22T10:27:16Z</time>
      </trkpt>
      <trkpt lat="48.4414" lon="2.66883">
        <ele>141</ele>
        <time>2022-05-22T10:27:18Z</time>
      </trkpt>
      <trkpt lat="48.44149" lon="2.66891">
        <ele>141</ele>
        <time>2022-05-22T10:27:20Z</time>
      </trkpt>
      <trkpt lat="48.4416" lon="2.66893">
        <ele>140</ele>
        <time>2022-05-22T10:27:22Z</time>
      </trkpt>
      <trkpt lat="48.44169" lon="2.66898">
        <ele>140</ele>
        <time>2022-05-22T10:27:24Z</time>
      </trkpt>
      <trkpt lat="48.44177" lon="2.66907">
        <ele>140</ele>
        <time>2022-05-22T10:27:25Z</time>
      </trkpt>
      <trkpt lat="48.4417" lon="2.66897">
        <ele>140</ele>
        <time>2022-05-22T10:27:27Z</time>
      </trkpt>
      <trkpt lat="48.44142" lon="2.66887">
        <ele>141</ele>
        <time>2022-05-22T10:27:32Z</time>
      </trkpt>
      <trkpt lat="48.44134" lon="2.66895">
        <ele>141</ele>
        <time>2022-05-22T10:27:34Z</time>
      </trkpt>
      <trkpt lat="48.44095" lon="2.67028">
        <ele>132</ele>
        <time>2022-05-22T10:27:51Z</time>
      </trkpt>
      <trkpt lat="48.44072" lon="2.67048">
        <ele>128</ele>
        <time>2022-05-22T10:27:56Z</time>
      </trkpt>
      <trkpt lat="48.44059" lon="2.67052">
        <ele>127</ele>
        <time>2022-05-22T10:27:58Z</time>
      </trkpt>
      <trkpt lat="48.44037" lon="2.67054">
        <ele>125</ele>
        <time>2022-05-22T10:28:02Z</time>
      </trkpt>
      <trkpt lat="48.44002" lon="2.67064">
        <ele>121</ele>
        <time>2022-05-22T10:28:08Z</time>
      </trkpt>
      <trkpt lat="48.43973" lon="2.67065">
        <ele>120</ele>
        <time>2022-05-22T10:28:14Z</time>
      </trkpt>
      <trkpt lat="48.43962" lon="2.6707">
        <ele>119</ele>
        <time>2022-05-22T10:28:16Z</time>
      </trkpt>
      <trkpt lat="48.43941" lon="2.67074">
        <ele>118</ele>
        <time>2022-05-22T10:28:19Z</time>
      </trkpt>
      <trkpt lat="48.43933" lon="2.67078">
        <ele>117</ele>
        <time>2022-05-22T10:28:21Z</time>
      </trkpt>
      <trkpt lat="48.43923" lon="2.67078">
        <ele>117</ele>
        <time>2022-05-22T10:28:23Z</time>
      </trkpt>
      <trkpt lat="48.43901" lon="2.67086">
        <ele>115</ele>
        <time>2022-05-22T10:28:27Z</time>
      </trkpt>
      <trkpt lat="48.43831" lon="2.67096">
        <ele>111</ele>
        <time>2022-05-22T10:28:39Z</time>
      </trkpt>
      <trkpt lat="48.43809" lon="2.67104">
        <ele>111</ele>
        <time>2022-05-22T10:28:43Z</time>
      </trkpt>
      <trkpt lat="48.43789" lon="2.67101">
        <ele>110</ele>
        <time>2022-05-22T10:28:47Z</time>
      </trkpt>
      <trkpt lat="48.4378" lon="2.67103">
        <ele>110</ele>
        <time>2022-05-22T10:28:48Z</time>
      </trkpt>
      <trkpt lat="48.43768" lon="2.67099">
        <ele>110</ele>
        <time>2022-05-22T10:28:51Z</time>
      </trkpt>
      <trkpt lat="48.43737" lon="2.67097">
        <ele>109</ele>
        <time>2022-05-22T10:28:56Z</time>
      </trkpt>
      <trkpt lat="48.43689" lon="2.67098">
        <ele>107</ele>
        <time>2022-05-22T10:29:05Z</time>
      </trkpt>
      <trkpt lat="48.43667" lon="2.67093">
        <ele>107</ele>
        <time>2022-05-22T10:29:09Z</time>
      </trkpt>
      <trkpt lat="48.43623" lon="2.6709">
        <ele>107</ele>
        <time>2022-05-22T10:29:16Z</time>
      </trkpt>
      <trkpt lat="48.43611" lon="2.67087">
        <ele>108</ele>
        <time>2022-05-22T10:29:19Z</time>
      </trkpt>
      <trkpt lat="48.43572" lon="2.67091">
        <ele>108</ele>
        <time>2022-05-22T10:29:26Z</time>
      </trkpt>
      <trkpt lat="48.43562" lon="2.67096">
        <ele>109</ele>
        <time>2022-05-22T10:29:27Z</time>
      </trkpt>
      <trkpt lat="48.43553" lon="2.67095">
        <ele>109</ele>
        <time>2022-05-22T10:29:29Z</time>
      </trkpt>
      <trkpt lat="48.43515" lon="2.67108">
        <ele>110</ele>
        <time>2022-05-22T10:29:36Z</time>
      </trkpt>
      <trkpt lat="48.43488" lon="2.67121">
        <ele>110</ele>
        <time>2022-05-22T10:29:41Z</time>
      </trkpt>
      <trkpt lat="48.43469" lon="2.67126">
        <ele>110</ele>
        <time>2022-05-22T10:29:44Z</time>
      </trkpt>
      <trkpt lat="48.4344" lon="2.67141">
        <ele>109</ele>
        <time>2022-05-22T10:29:50Z</time>
      </trkpt>
      <trkpt lat="48.43369" lon="2.67156">
        <ele>106</ele>
        <time>2022-05-22T10:30:03Z</time>
      </trkpt>
      <trkpt lat="48.43349" lon="2.67172">
        <ele>105</ele>
        <time>2022-05-22T10:30:07Z</time>
      </trkpt>
      <trkpt lat="48.43316" lon="2.6726">
        <ele>101</ele>
        <time>2022-05-22T10:30:19Z</time>
      </trkpt>
      <trkpt lat="48.43198" lon="2.67555">
        <ele>104</ele>
        <time>2022-05-22T10:30:59Z</time>
      </trkpt>
      <trkpt lat="48.43203" lon="2.676">
        <ele>104</ele>
        <time>2022-05-22T10:31:05Z</time>
      </trkpt>
      <trkpt lat="48.432" lon="2.67631">
        <ele>105</ele>
        <time>2022-05-22T10:31:08Z</time>
      </trkpt>
      <trkpt lat="48.43193" lon="2.67661">
        <ele>106</ele>
        <time>2022-05-22T10:31:12Z</time>
      </trkpt>
      <trkpt lat="48.43191" lon="2.67751">
        <ele>104</ele>
        <time>2022-05-22T10:31:23Z</time>
      </trkpt>
      <trkpt lat="48.43181" lon="2.67871">
        <ele>104</ele>
        <time>2022-05-22T10:31:37Z</time>
      </trkpt>
      <trkpt lat="48.43173" lon="2.67866">
        <ele>104</ele>
        <time>2022-05-22T10:31:39Z</time>
      </trkpt>
      <trkpt lat="48.4317" lon="2.67895">
        <ele>104</ele>
        <time>2022-05-22T10:31:42Z</time>
      </trkpt>
      <trkpt lat="48.43165" lon="2.67908">
        <ele>104</ele>
        <time>2022-05-22T10:31:44Z</time>
      </trkpt>
      <trkpt lat="48.43158" lon="2.67915">
        <ele>104</ele>
        <time>2022-05-22T10:31:45Z</time>
      </trkpt>
      <trkpt lat="48.43145" lon="2.67938">
        <ele>105</ele>
        <time>2022-05-22T10:31:49Z</time>
      </trkpt>
      <trkpt lat="48.43146" lon="2.67952">
        <ele>105</ele>
        <time>2022-05-22T10:31:51Z</time>
      </trkpt>
      <trkpt lat="48.43165" lon="2.67961">
        <ele>106</ele>
        <time>2022-05-22T10:31:54Z</time>
      </trkpt>
      <trkpt lat="48.43183" lon="2.67978">
        <ele>106</ele>
        <time>2022-05-22T10:31:58Z</time>
      </trkpt>
      <trkpt lat="48.43191" lon="2.67991">
        <ele>106</ele>
        <time>2022-05-22T10:32:00Z</time>
      </trkpt>
      <trkpt lat="48.43248" lon="2.68119">
        <ele>105</ele>
        <time>2022-05-22T10:32:18Z</time>
      </trkpt>
      <trkpt lat="48.43262" lon="2.68159">
        <ele>103</ele>
        <time>2022-05-22T10:32:24Z</time>
      </trkpt>
      <trkpt lat="48.43263" lon="2.68174">
        <ele>103</ele>
        <time>2022-05-22T10:32:25Z</time>
      </trkpt>
      <trkpt lat="48.43257" lon="2.68222">
        <ele>104</ele>
        <time>2022-05-22T10:32:31Z</time>
      </trkpt>
      <trkpt lat="48.43252" lon="2.68237">
        <ele>105</ele>
        <time>2022-05-22T10:32:33Z</time>
      </trkpt>
      <trkpt lat="48.43243" lon="2.68296">
        <ele>102</ele>
        <time>2022-05-22T10:32:40Z</time>
      </trkpt>
      <trkpt lat="48.43214" lon="2.68424">
        <ele>98</ele>
        <time>2022-05-22T10:32:56Z</time>
      </trkpt>
      <trkpt lat="48.43214" lon="2.68403">
        <ele>100</ele>
        <time>2022-05-22T10:32:59Z</time>
      </trkpt>
      <trkpt lat="48.43222" lon="2.68376">
        <ele>100</ele>
        <time>2022-05-22T10:33:02Z</time>
      </trkpt>
      <trkpt lat="48.43213" lon="2.68375">
        <ele>102</ele>
        <time>2022-05-22T10:33:04Z</time>
      </trkpt>
      <trkpt lat="48.432" lon="2.68396">
        <ele>104</ele>
        <time>2022-05-22T10:33:07Z</time>
      </trkpt>
      <trkpt lat="48.43191" lon="2.68404">
        <ele>105</ele>
        <time>2022-05-22T10:33:09Z</time>
      </trkpt>
      <trkpt lat="48.43181" lon="2.68428">
        <ele>105</ele>
        <time>2022-05-22T10:33:12Z</time>
      </trkpt>
      <trkpt lat="48.43173" lon="2.68437">
        <ele>106</ele>
        <time>2022-05-22T10:33:14Z</time>
      </trkpt>
      <trkpt lat="48.43175" lon="2.68451">
        <ele>104</ele>
        <time>2022-05-22T10:33:16Z</time>
      </trkpt>
      <trkpt lat="48.43157" lon="2.68506">
        <ele>103</ele>
        <time>2022-05-22T10:33:23Z</time>
      </trkpt>
      <trkpt lat="48.43151" lon="2.68534">
        <ele>101</ele>
        <time>2022-05-22T10:33:27Z</time>
      </trkpt>
      <trkpt lat="48.43144" lon="2.68547">
        <ele>102</ele>
        <time>2022-05-22T10:33:29Z</time>
      </trkpt>
      <trkpt lat="48.43136" lon="2.68555">
        <ele>102</ele>
        <time>2022-05-22T10:33:30Z</time>
      </trkpt>
      <trkpt lat="48.43135" lon="2.6857">
        <ele>101</ele>
        <time>2022-05-22T10:33:32Z</time>
      </trkpt>
      <trkpt lat="48.43131" lon="2.68581">
        <ele>101</ele>
        <time>2022-05-22T10:33:33Z</time>
      </trkpt>
      <trkpt lat="48.43121" lon="2.68586">
        <ele>103</ele>
        <time>2022-05-22T10:33:35Z</time>
      </trkpt>
      <trkpt lat="48.43114" lon="2.68597">
        <ele>104</ele>
        <time>2022-05-22T10:33:37Z</time>
      </trkpt>
      <trkpt lat="48.43102" lon="2.68637">
        <ele>105</ele>
        <time>2022-05-22T10:33:42Z</time>
      </trkpt>
      <trkpt lat="48.43091" lon="2.68659">
        <ele>106</ele>
        <time>2022-05-22T10:33:46Z</time>
      </trkpt>
      <trkpt lat="48.43088" lon="2.68672">
        <ele>106</ele>
        <time>2022-05-22T10:33:47Z</time>
      </trkpt>
      <trkpt lat="48.43085" lon="2.68702">
        <ele>106</ele>
        <time>2022-05-22T10:33:51Z</time>
      </trkpt>
      <trkpt lat="48.43088" lon="2.68717">
        <ele>106</ele>
        <time>2022-05-22T10:33:53Z</time>
      </trkpt>
      <trkpt lat="48.43087" lon="2.68749">
        <ele>105</ele>
        <time>2022-05-22T10:33:56Z</time>
      </trkpt>
      <trkpt lat="48.43099" lon="2.68791">
        <ele>104</ele>
        <time>2022-05-22T10:34:02Z</time>
      </trkpt>
      <trkpt lat="48.43113" lon="2.68815">
        <ele>102</ele>
        <time>2022-05-22T10:34:06Z</time>
      </trkpt>
      <trkpt lat="48.43115" lon="2.68844">
        <ele>102</ele>
        <time>2022-05-22T10:34:09Z</time>
      </trkpt>
      <trkpt lat="48.4312" lon="2.68854">
        <ele>101</ele>
        <time>2022-05-22T10:34:11Z</time>
      </trkpt>
      <trkpt lat="48.4312" lon="2.68913">
        <ele>102</ele>
        <time>2022-05-22T10:34:17Z</time>
      </trkpt>
      <trkpt lat="48.43126" lon="2.68993">
        <ele>100</ele>
        <time>2022-05-22T10:34:27Z</time>
      </trkpt>
      <trkpt lat="48.43152" lon="2.69082">
        <ele>104</ele>
        <time>2022-05-22T10:34:38Z</time>
      </trkpt>
      <trkpt lat="48.4319" lon="2.69165">
        <ele>103</ele>
        <time>2022-05-22T10:34:50Z</time>
      </trkpt>
      <trkpt lat="48.43228" lon="2.69238">
        <ele>106</ele>
        <time>2022-05-22T10:35:01Z</time>
      </trkpt>
      <trkpt lat="48.43256" lon="2.69285">
        <ele>106</ele>
        <time>2022-05-22T10:35:09Z</time>
      </trkpt>
      <trkpt lat="48.43261" lon="2.69298">
        <ele>106</ele>
        <time>2022-05-22T10:35:11Z</time>
      </trkpt>
      <trkpt lat="48.43282" lon="2.69329">
        <ele>105</ele>
        <time>2022-05-22T10:35:16Z</time>
      </trkpt>
      <trkpt lat="48.43331" lon="2.69418">
        <ele>105</ele>
        <time>2022-05-22T10:35:29Z</time>
      </trkpt>
      <trkpt lat="48.4339" lon="2.69514">
        <ele>100</ele>
        <time>2022-05-22T10:35:45Z</time>
      </trkpt>
      <trkpt lat="48.43446" lon="2.69622">
        <ele>101</ele>
        <time>2022-05-22T10:36:01Z</time>
      </trkpt>
      <trkpt lat="48.43456" lon="2.69619">
        <ele>101</ele>
        <time>2022-05-22T10:36:03Z</time>
      </trkpt>
      <trkpt lat="48.43469" lon="2.69596">
        <ele>101</ele>
        <time>2022-05-22T10:36:06Z</time>
      </trkpt>
      <trkpt lat="48.43477" lon="2.69587">
        <ele>101</ele>
        <time>2022-05-22T10:36:08Z</time>
      </trkpt>
      <trkpt lat="48.43631" lon="2.6935">
        <ele>96</ele>
        <time>2022-05-22T10:36:47Z</time>
      </trkpt>
      <trkpt lat="48.43635" lon="2.69337">
        <ele>96</ele>
        <time>2022-05-22T10:36:49Z</time>
      </trkpt>
      <trkpt lat="48.43625" lon="2.69344">
        <ele>96</ele>
        <time>2022-05-22T10:36:51Z</time>
      </trkpt>
      <trkpt lat="48.43618" lon="2.69354">
        <ele>96</ele>
        <time>2022-05-22T10:36:53Z</time>
      </trkpt>
      <trkpt lat="48.4355" lon="2.69462">
        <ele>98</ele>
        <time>2022-05-22T10:37:10Z</time>
      </trkpt>
      <trkpt lat="48.43457" lon="2.69599">
        <ele>101</ele>
        <time>2022-05-22T10:37:33Z</time>
      </trkpt>
      <trkpt lat="48.43448" lon="2.6961">
        <ele>101</ele>
        <time>2022-05-22T10:37:36Z</time>
      </trkpt>
      <trkpt lat="48.43439" lon="2.69616">
        <ele>101</ele>
        <time>2022-05-22T10:37:37Z</time>
      </trkpt>
      <trkpt lat="48.43445" lon="2.69629">
        <ele>101</ele>
        <time>2022-05-22T10:37:39Z</time>
      </trkpt>
      <trkpt lat="48.43453" lon="2.69637">
        <ele>101</ele>
        <time>2022-05-22T10:37:41Z</time>
      </trkpt>
      <trkpt lat="48.43493" lon="2.69656">
        <ele>101</ele>
        <time>2022-05-22T10:37:48Z</time>
      </trkpt>
      <trkpt lat="48.43503" lon="2.69658">
        <ele>101</ele>
        <time>2022-05-22T10:37:50Z</time>
      </trkpt>
      <trkpt lat="48.43521" lon="2.69669">
        <ele>100</ele>
        <time>2022-05-22T10:37:54Z</time>
      </trkpt>
      <trkpt lat="48.43566" lon="2.69688">
        <ele>98</ele>
        <time>2022-05-22T10:38:02Z</time>
      </trkpt>
      <trkpt lat="48.43584" lon="2.69699">
        <ele>98</ele>
        <time>2022-05-22T10:38:05Z</time>
      </trkpt>
      <trkpt lat="48.43624" lon="2.69713">
        <ele>100</ele>
        <time>2022-05-22T10:38:13Z</time>
      </trkpt>
      <trkpt lat="48.43631" lon="2.69722">
        <ele>100</ele>
        <time>2022-05-22T10:38:14Z</time>
      </trkpt>
      <trkpt lat="48.43641" lon="2.69722">
        <ele>101</ele>
        <time>2022-05-22T10:38:16Z</time>
      </trkpt>
      <trkpt lat="48.43651" lon="2.69726">
        <ele>101</ele>
        <time>2022-05-22T10:38:18Z</time>
      </trkpt>
      <trkpt lat="48.43679" lon="2.69739">
        <ele>103</ele>
        <time>2022-05-22T10:38:23Z</time>
      </trkpt>
      <trkpt lat="48.43707" lon="2.69756">
        <ele>107</ele>
        <time>2022-05-22T10:38:28Z</time>
      </trkpt>
      <trkpt lat="48.43735" lon="2.69767">
        <ele>110</ele>
        <time>2022-05-22T10:38:34Z</time>
      </trkpt>
      <trkpt lat="48.43787" lon="2.69812">
        <ele>116</ele>
        <time>2022-05-22T10:38:44Z</time>
      </trkpt>
      <trkpt lat="48.43796" lon="2.69817">
        <ele>117</ele>
        <time>2022-05-22T10:38:46Z</time>
      </trkpt>
      <trkpt lat="48.43806" lon="2.69817">
        <ele>118</ele>
        <time>2022-05-22T10:38:48Z</time>
      </trkpt>
      <trkpt lat="48.43815" lon="2.69814">
        <ele>118</ele>
        <time>2022-05-22T10:38:49Z</time>
      </trkpt>
      <trkpt lat="48.43843" lon="2.69776">
        <ele>116</ele>
        <time>2022-05-22T10:38:56Z</time>
      </trkpt>
      <trkpt lat="48.43869" lon="2.6976">
        <ele>112</ele>
        <time>2022-05-22T10:39:01Z</time>
      </trkpt>
      <trkpt lat="48.43879" lon="2.69758">
        <ele>110</ele>
        <time>2022-05-22T10:39:03Z</time>
      </trkpt>
      <trkpt lat="48.43909" lon="2.69762">
        <ele>107</ele>
        <time>2022-05-22T10:39:08Z</time>
      </trkpt>
      <trkpt lat="48.43929" lon="2.69761">
        <ele>104</ele>
        <time>2022-05-22T10:39:12Z</time>
      </trkpt>
      <trkpt lat="48.43954" lon="2.69765">
        <ele>101</ele>
        <time>2022-05-22T10:39:16Z</time>
      </trkpt>
      <trkpt lat="48.43963" lon="2.69762">
        <ele>100</ele>
        <time>2022-05-22T10:39:18Z</time>
      </trkpt>
      <trkpt lat="48.43998" lon="2.6977">
        <ele>96</ele>
        <time>2022-05-22T10:39:24Z</time>
      </trkpt>
      <trkpt lat="48.44026" lon="2.6978">
        <ele>96</ele>
        <time>2022-05-22T10:39:29Z</time>
      </trkpt>
      <trkpt lat="48.44033" lon="2.69791">
        <ele>96</ele>
        <time>2022-05-22T10:39:31Z</time>
      </trkpt>
      <trkpt lat="48.44036" lon="2.6981">
        <ele>98</ele>
        <time>2022-05-22T10:39:33Z</time>
      </trkpt>
      <trkpt lat="48.44037" lon="2.69842">
        <ele>100</ele>
        <time>2022-05-22T10:39:37Z</time>
      </trkpt>
      <trkpt lat="48.44034" lon="2.69872">
        <ele>103</ele>
        <time>2022-05-22T10:39:41Z</time>
      </trkpt>
      <trkpt lat="48.44021" lon="2.69946">
        <ele>106</ele>
        <time>2022-05-22T10:39:50Z</time>
      </trkpt>
      <trkpt lat="48.44017" lon="2.70008">
        <ele>107</ele>
        <time>2022-05-22T10:39:57Z</time>
      </trkpt>
      <trkpt lat="48.44006" lon="2.70085">
        <ele>109</ele>
        <time>2022-05-22T10:40:07Z</time>
      </trkpt>
      <trkpt lat="48.44002" lon="2.70134">
        <ele>110</ele>
        <time>2022-05-22T10:40:12Z</time>
      </trkpt>
      <trkpt lat="48.4399" lon="2.70194">
        <ele>112</ele>
        <time>2022-05-22T10:40:20Z</time>
      </trkpt>
      <trkpt lat="48.43987" lon="2.70222">
        <ele>112</ele>
        <time>2022-05-22T10:40:23Z</time>
      </trkpt>
      <trkpt lat="48.43987" lon="2.70254">
        <ele>113</ele>
        <time>2022-05-22T10:40:27Z</time>
      </trkpt>
      <trkpt lat="48.43982" lon="2.70266">
        <ele>113</ele>
        <time>2022-05-22T10:40:29Z</time>
      </trkpt>
      <trkpt lat="48.43977" lon="2.70295">
        <ele>113</ele>
        <time>2022-05-22T10:40:32Z</time>
      </trkpt>
      <trkpt lat="48.43951" lon="2.70319">
        <ele>114</ele>
        <time>2022-05-22T10:40:38Z</time>
      </trkpt>
      <trkpt lat="48.43932" lon="2.70333">
        <ele>114</ele>
        <time>2022-05-22T10:40:41Z</time>
      </trkpt>
      <trkpt lat="48.43926" lon="2.70344">
        <ele>113</ele>
        <time>2022-05-22T10:40:43Z</time>
      </trkpt>
      <trkpt lat="48.43923" lon="2.70358">
        <ele>113</ele>
        <time>2022-05-22T10:40:45Z</time>
      </trkpt>
      <trkpt lat="48.4392" lon="2.70405">
        <ele>110</ele>
        <time>2022-05-22T10:40:50Z</time>
      </trkpt>
      <trkpt lat="48.43921" lon="2.70422">
        <ele>109</ele>
        <time>2022-05-22T10:40:52Z</time>
      </trkpt>
      <trkpt lat="48.43931" lon="2.70465">
        <ele>111</ele>
        <time>2022-05-22T10:40:58Z</time>
      </trkpt>
      <trkpt lat="48.43931" lon="2.70479">
        <ele>111</ele>
        <time>2022-05-22T10:40:59Z</time>
      </trkpt>
      <trkpt lat="48.43915" lon="2.70568">
        <ele>112</ele>
        <time>2022-05-22T10:41:10Z</time>
      </trkpt>
      <trkpt lat="48.43914" lon="2.70599">
        <ele>113</ele>
        <time>2022-05-22T10:41:14Z</time>
      </trkpt>
      <trkpt lat="48.43908" lon="2.70628">
        <ele>114</ele>
        <time>2022-05-22T10:41:17Z</time>
      </trkpt>
      <trkpt lat="48.43905" lon="2.70673">
        <ele>114</ele>
        <time>2022-05-22T10:41:23Z</time>
      </trkpt>
      <trkpt lat="48.43898" lon="2.70701">
        <ele>116</ele>
        <time>2022-05-22T10:41:26Z</time>
      </trkpt>
      <trkpt lat="48.43886" lon="2.7073">
        <ele>119</ele>
        <time>2022-05-22T10:41:30Z</time>
      </trkpt>
      <trkpt lat="48.43879" lon="2.70804">
        <ele>121</ele>
        <time>2022-05-22T10:41:39Z</time>
      </trkpt>
      <trkpt lat="48.43876" lon="2.70819">
        <ele>122</ele>
        <time>2022-05-22T10:41:41Z</time>
      </trkpt>
      <trkpt lat="48.4387" lon="2.70833">
        <ele>122</ele>
        <time>2022-05-22T10:41:43Z</time>
      </trkpt>
      <trkpt lat="48.43856" lon="2.70909">
        <ele>120</ele>
        <time>2022-05-22T10:41:52Z</time>
      </trkpt>
      <trkpt lat="48.4385" lon="2.70955">
        <ele>119</ele>
        <time>2022-05-22T10:41:58Z</time>
      </trkpt>
      <trkpt lat="48.43832" lon="2.71029">
        <ele>115</ele>
        <time>2022-05-22T10:42:07Z</time>
      </trkpt>
      <trkpt lat="48.43832" lon="2.71044">
        <ele>114</ele>
        <time>2022-05-22T10:42:09Z</time>
      </trkpt>
      <trkpt lat="48.43812" lon="2.71132">
        <ele>107</ele>
        <time>2022-05-22T10:42:20Z</time>
      </trkpt>
      <trkpt lat="48.43803" lon="2.71192">
        <ele>104</ele>
        <time>2022-05-22T10:42:27Z</time>
      </trkpt>
      <trkpt lat="48.438" lon="2.7123">
        <ele>103</ele>
        <time>2022-05-22T10:42:32Z</time>
      </trkpt>
      <trkpt lat="48.43793" lon="2.71246">
        <ele>103</ele>
        <time>2022-05-22T10:42:34Z</time>
      </trkpt>
      <trkpt lat="48.43787" lon="2.71282">
        <ele>103</ele>
        <time>2022-05-22T10:42:38Z</time>
      </trkpt>
      <trkpt lat="48.43779" lon="2.7136">
        <ele>102</ele>
        <time>2022-05-22T10:42:48Z</time>
      </trkpt>
      <trkpt lat="48.4377" lon="2.71403">
        <ele>101</ele>
        <time>2022-05-22T10:42:53Z</time>
      </trkpt>
      <trkpt lat="48.43759" lon="2.71536">
        <ele>98</ele>
        <time>2022-05-22T10:43:09Z</time>
      </trkpt>
      <trkpt lat="48.4375" lon="2.71581">
        <ele>99</ele>
        <time>2022-05-22T10:43:14Z</time>
      </trkpt>
      <trkpt lat="48.43744" lon="2.71662">
        <ele>99</ele>
        <time>2022-05-22T10:43:24Z</time>
      </trkpt>
      <trkpt lat="48.43735" lon="2.71734">
        <ele>99</ele>
        <time>2022-05-22T10:43:33Z</time>
      </trkpt>
      <trkpt lat="48.43729" lon="2.71762">
        <ele>99</ele>
        <time>2022-05-22T10:43:36Z</time>
      </trkpt>
      <trkpt lat="48.43719" lon="2.71869">
        <ele>100</ele>
        <time>2022-05-22T10:43:49Z</time>
      </trkpt>
      <trkpt lat="48.43712" lon="2.71912">
        <ele>100</ele>
        <time>2022-05-22T10:43:54Z</time>
      </trkpt>
      <trkpt lat="48.43712" lon="2.7193">
        <ele>100</ele>
        <time>2022-05-22T10:43:56Z</time>
      </trkpt>
      <trkpt lat="48.43683" lon="2.72087">
        <ele>100</ele>
        <time>2022-05-22T10:44:15Z</time>
      </trkpt>
      <trkpt lat="48.43676" lon="2.72136">
        <ele>102</ele>
        <time>2022-05-22T10:44:21Z</time>
      </trkpt>
      <trkpt lat="48.43664" lon="2.72185">
        <ele>103</ele>
        <time>2022-05-22T10:44:27Z</time>
      </trkpt>
      <trkpt lat="48.43659" lon="2.72215">
        <ele>104</ele>
        <time>2022-05-22T10:44:31Z</time>
      </trkpt>
      <trkpt lat="48.43656" lon="2.72262">
        <ele>104</ele>
        <time>2022-05-22T10:44:37Z</time>
      </trkpt>
      <trkpt lat="48.43645" lon="2.72295">
        <ele>103</ele>
        <time>2022-05-22T10:44:41Z</time>
      </trkpt>
      <trkpt lat="48.43637" lon="2.72337">
        <ele>103</ele>
        <time>2022-05-22T10:44:46Z</time>
      </trkpt>
      <trkpt lat="48.43637" lon="2.72353">
        <ele>103</ele>
        <time>2022-05-22T10:44:48Z</time>
      </trkpt>
      <trkpt lat="48.43613" lon="2.72474">
        <ele>106</ele>
        <time>2022-05-22T10:45:03Z</time>
      </trkpt>
      <trkpt lat="48.43598" lon="2.72652">
        <ele>111</ele>
        <time>2022-05-22T10:45:24Z</time>
      </trkpt>
      <trkpt lat="48.43599" lon="2.72683">
        <ele>110</ele>
        <time>2022-05-22T10:45:28Z</time>
      </trkpt>
      <trkpt lat="48.43596" lon="2.72742">
        <ele>108</ele>
        <time>2022-05-22T10:45:35Z</time>
      </trkpt>
      <trkpt lat="48.4359" lon="2.7279">
        <ele>106</ele>
        <time>2022-05-22T10:45:41Z</time>
      </trkpt>
      <trkpt lat="48.43586" lon="2.72868">
        <ele>103</ele>
        <time>2022-05-22T10:45:50Z</time>
      </trkpt>
      <trkpt lat="48.43573" lon="2.72931">
        <ele>102</ele>
        <time>2022-05-22T10:45:58Z</time>
      </trkpt>
      <trkpt lat="48.43573" lon="2.72949">
        <ele>102</ele>
        <time>2022-05-22T10:46:00Z</time>
      </trkpt>
      <trkpt lat="48.43565" lon="2.7301">
        <ele>101</ele>
        <time>2022-05-22T10:46:07Z</time>
      </trkpt>
      <trkpt lat="48.4356" lon="2.73025">
        <ele>101</ele>
        <time>2022-05-22T10:46:09Z</time>
      </trkpt>
      <trkpt lat="48.43548" lon="2.73097">
        <ele>101</ele>
        <time>2022-05-22T10:46:18Z</time>
      </trkpt>
      <trkpt lat="48.4354" lon="2.73165">
        <ele>99</ele>
        <time>2022-05-22T10:46:26Z</time>
      </trkpt>
      <trkpt lat="48.43532" lon="2.73199">
        <ele>100</ele>
        <time>2022-05-22T10:46:30Z</time>
      </trkpt>
      <trkpt lat="48.43516" lon="2.7333">
        <ele>101</ele>
        <time>2022-05-22T10:46:46Z</time>
      </trkpt>
      <trkpt lat="48.43511" lon="2.73342">
        <ele>101</ele>
        <time>2022-05-22T10:46:48Z</time>
      </trkpt>
      <trkpt lat="48.43501" lon="2.7342">
        <ele>100</ele>
        <time>2022-05-22T10:46:57Z</time>
      </trkpt>
      <trkpt lat="48.43488" lon="2.73482">
        <ele>99</ele>
        <time>2022-05-22T10:47:05Z</time>
      </trkpt>
      <trkpt lat="48.43484" lon="2.73516">
        <ele>99</ele>
        <time>2022-05-22T10:47:09Z</time>
      </trkpt>
      <trkpt lat="48.43479" lon="2.7353">
        <ele>99</ele>
        <time>2022-05-22T10:47:11Z</time>
      </trkpt>
      <trkpt lat="48.43468" lon="2.73586">
        <ele>98</ele>
        <time>2022-05-22T10:47:18Z</time>
      </trkpt>
      <trkpt lat="48.43452" lon="2.73707">
        <ele>96</ele>
        <time>2022-05-22T10:47:32Z</time>
      </trkpt>
      <trkpt lat="48.43445" lon="2.73738">
        <ele>95</ele>
        <time>2022-05-22T10:47:36Z</time>
      </trkpt>
      <trkpt lat="48.43441" lon="2.73751">
        <ele>95</ele>
        <time>2022-05-22T10:47:38Z</time>
      </trkpt>
      <trkpt lat="48.43422" lon="2.73766">
        <ele>96</ele>
        <time>2022-05-22T10:47:42Z</time>
      </trkpt>
      <trkpt lat="48.43391" lon="2.73775">
        <ele>96</ele>
        <time>2022-05-22T10:47:47Z</time>
      </trkpt>
      <trkpt lat="48.43398" lon="2.73786">
        <ele>95</ele>
        <time>2022-05-22T10:47:49Z</time>
      </trkpt>
      <trkpt lat="48.43439" lon="2.7379">
        <ele>94</ele>
        <time>2022-05-22T10:47:56Z</time>
      </trkpt>
      <trkpt lat="48.43449" lon="2.73788">
        <ele>93</ele>
        <time>2022-05-22T10:47:58Z</time>
      </trkpt>
      <trkpt lat="48.43458" lon="2.73793">
        <ele>93</ele>
        <time>2022-05-22T10:48:00Z</time>
      </trkpt>
      <trkpt lat="48.43453" lon="2.73821">
        <ele>92</ele>
        <time>2022-05-22T10:48:03Z</time>
      </trkpt>
      <trkpt lat="48.43383" lon="2.73969">
        <ele>94</ele>
        <time>2022-05-22T10:48:25Z</time>
      </trkpt>
      <trkpt lat="48.43369" lon="2.73992">
        <ele>92</ele>
        <time>2022-05-22T10:48:28Z</time>
      </trkpt>
      <trkpt lat="48.4336" lon="2.74003">
        <ele>92</ele>
        <time>2022-05-22T10:48:30Z</time>
      </trkpt>
      <trkpt lat="48.43342" lon="2.74018">
        <ele>90</ele>
        <time>2022-05-22T10:48:34Z</time>
      </trkpt>
      <trkpt lat="48.43335" lon="2.74028">
        <ele>90</ele>
        <time>2022-05-22T10:48:36Z</time>
      </trkpt>
      <trkpt lat="48.43332" lon="2.74042">
        <ele>89</ele>
        <time>2022-05-22T10:48:37Z</time>
      </trkpt>
      <trkpt lat="48.43332" lon="2.74058">
        <ele>89</ele>
        <time>2022-05-22T10:48:39Z</time>
      </trkpt>
      <trkpt lat="48.43321" lon="2.74088">
        <ele>87</ele>
        <time>2022-05-22T10:48:43Z</time>
      </trkpt>
      <trkpt lat="48.43309" lon="2.74111">
        <ele>85</ele>
        <time>2022-05-22T10:48:47Z</time>
      </trkpt>
      <trkpt lat="48.4328" lon="2.74148">
        <ele>81</ele>
        <time>2022-05-22T10:48:54Z</time>
      </trkpt>
      <trkpt lat="48.4326" lon="2.74166">
        <ele>78</ele>
        <time>2022-05-22T10:48:58Z</time>
      </trkpt>
      <trkpt lat="48.43239" lon="2.74178">
        <ele>76</ele>
        <time>2022-05-22T10:49:02Z</time>
      </trkpt>
      <trkpt lat="48.43139" lon="2.74219">
        <ele>70</ele>
        <time>2022-05-22T10:49:20Z</time>
      </trkpt>
      <trkpt lat="48.43113" lon="2.74238">
        <ele>68</ele>
        <time>2022-05-22T10:49:25Z</time>
      </trkpt>
      <trkpt lat="48.43092" lon="2.74247">
        <ele>66</ele>
        <time>2022-05-22T10:49:29Z</time>
      </trkpt>
      <trkpt lat="48.43043" lon="2.74259">
        <ele>63</ele>
        <time>2022-05-22T10:49:38Z</time>
      </trkpt>
      <trkpt lat="48.43015" lon="2.74271">
        <ele>62</ele>
        <time>2022-05-22T10:49:43Z</time>
      </trkpt>
      <trkpt lat="48.42986" lon="2.74295">
        <ele>60</ele>
        <time>2022-05-22T10:49:49Z</time>
      </trkpt>
      <trkpt lat="48.42979" lon="2.74305">
        <ele>58</ele>
        <time>2022-05-22T10:49:51Z</time>
      </trkpt>
      <trkpt lat="48.42973" lon="2.74316">
        <ele>57</ele>
        <time>2022-05-22T10:49:53Z</time>
      </trkpt>
      <trkpt lat="48.42971" lon="2.74331">
        <ele>55</ele>
        <time>2022-05-22T10:49:54Z</time>
      </trkpt>
      <trkpt lat="48.42982" lon="2.74356">
        <ele>54</ele>
        <time>2022-05-22T10:49:58Z</time>
      </trkpt>
      <trkpt lat="48.42987" lon="2.74416">
        <ele>51</ele>
        <time>2022-05-22T10:50:05Z</time>
      </trkpt>
      <trkpt lat="48.42974" lon="2.74425">
        <ele>49</ele>
        <time>2022-05-22T10:50:08Z</time>
      </trkpt>
      <trkpt lat="48.42963" lon="2.74423">
        <ele>49</ele>
        <time>2022-05-22T10:50:10Z</time>
      </trkpt>
      <trkpt lat="48.42958" lon="2.74438">
        <ele>48</ele>
        <time>2022-05-22T10:50:12Z</time>
      </trkpt>
      <trkpt lat="48.42958" lon="2.74452">
        <ele>47</ele>
        <time>2022-05-22T10:50:13Z</time>
      </trkpt>
      <trkpt lat="48.4297" lon="2.74663">
        <ele>47</ele>
        <time>2022-05-22T10:50:38Z</time>
      </trkpt>
      <trkpt lat="48.42981" lon="2.74659">
        <ele>47</ele>
        <time>2022-05-22T10:50:40Z</time>
      </trkpt>
      <trkpt lat="48.42987" lon="2.74647">
        <ele>46</ele>
        <time>2022-05-22T10:50:42Z</time>
      </trkpt>
      <trkpt lat="48.42978" lon="2.74641">
        <ele>46</ele>
        <time>2022-05-22T10:50:44Z</time>
      </trkpt>
      <trkpt lat="48.42963" lon="2.74644">
        <ele>46</ele>
        <time>2022-05-22T10:50:46Z</time>
      </trkpt>
      <trkpt lat="48.42953" lon="2.74648">
        <ele>47</ele>
        <time>2022-05-22T10:50:48Z</time>
      </trkpt>
      <trkpt lat="48.42943" lon="2.74657">
        <ele>47</ele>
        <time>2022-05-22T10:50:50Z</time>
      </trkpt>
      <trkpt lat="48.42931" lon="2.74663">
        <ele>47</ele>
        <time>2022-05-22T10:50:53Z</time>
      </trkpt>
      <trkpt lat="48.42913" lon="2.74665">
        <ele>47</ele>
        <time>2022-05-22T10:50:56Z</time>
      </trkpt>
      <trkpt lat="48.42865" lon="2.74683">
        <ele>46</ele>
        <time>2022-05-22T10:51:05Z</time>
      </trkpt>
      <trkpt lat="48.42848" lon="2.74696">
        <ele>47</ele>
        <time>2022-05-22T10:51:08Z</time>
      </trkpt>
      <trkpt lat="48.42837" lon="2.74699">
        <ele>47</ele>
        <time>2022-05-22T10:51:10Z</time>
      </trkpt>
      <trkpt lat="48.42829" lon="2.74704">
        <ele>47</ele>
        <time>2022-05-22T10:51:12Z</time>
      </trkpt>
      <trkpt lat="48.42811" lon="2.74707">
        <ele>47</ele>
        <time>2022-05-22T10:51:15Z</time>
      </trkpt>
      <trkpt lat="48.42746" lon="2.74713">
        <ele>48</ele>
        <time>2022-05-22T10:51:26Z</time>
      </trkpt>
      <trkpt lat="48.42733" lon="2.74711">
        <ele>48</ele>
        <time>2022-05-22T10:51:29Z</time>
      </trkpt>
      <trkpt lat="48.427" lon="2.74717">
        <ele>47</ele>
        <time>2022-05-22T10:51:35Z</time>
      </trkpt>
      <trkpt lat="48.42689" lon="2.74716">
        <ele>47</ele>
        <time>2022-05-22T10:51:37Z</time>
      </trkpt>
      <trkpt lat="48.4261" lon="2.74726">
        <ele>47</ele>
        <time>2022-05-22T10:51:51Z</time>
      </trkpt>
      <trkpt lat="48.426" lon="2.74726">
        <ele>47</ele>
        <time>2022-05-22T10:51:52Z</time>
      </trkpt>
      <trkpt lat="48.42589" lon="2.74722">
        <ele>47</ele>
        <time>2022-05-22T10:51:54Z</time>
      </trkpt>
      <trkpt lat="48.42577" lon="2.74723">
        <ele>47</ele>
        <time>2022-05-22T10:51:57Z</time>
      </trkpt>
      <trkpt lat="48.42535" lon="2.74728">
        <ele>46</ele>
        <time>2022-05-22T10:52:04Z</time>
      </trkpt>
      <trkpt lat="48.42513" lon="2.74734">
        <ele>46</ele>
        <time>2022-05-22T10:52:08Z</time>
      </trkpt>
      <trkpt lat="48.42482" lon="2.74736">
        <ele>46</ele>
        <time>2022-05-22T10:52:14Z</time>
      </trkpt>
      <trkpt lat="48.42435" lon="2.74734">
        <ele>45</ele>
        <time>2022-05-22T10:52:22Z</time>
      </trkpt>
      <trkpt lat="48.42425" lon="2.74732">
        <ele>44</ele>
        <time>2022-05-22T10:52:24Z</time>
      </trkpt>
      <trkpt lat="48.42415" lon="2.74724">
        <ele>44</ele>
        <time>2022-05-22T10:52:26Z</time>
      </trkpt>
      <trkpt lat="48.42379" lon="2.74724">
        <ele>45</ele>
        <time>2022-05-22T10:52:32Z</time>
      </trkpt>
      <trkpt lat="48.42368" lon="2.74726">
        <ele>45</ele>
        <time>2022-05-22T10:52:34Z</time>
      </trkpt>
      <trkpt lat="48.42346" lon="2.74724">
        <ele>46</ele>
        <time>2022-05-22T10:52:38Z</time>
      </trkpt>
      <trkpt lat="48.423" lon="2.74733">
        <ele>45</ele>
        <time>2022-05-22T10:52:46Z</time>
      </trkpt>
      <trkpt lat="48.42281" lon="2.74733">
        <ele>45</ele>
        <time>2022-05-22T10:52:50Z</time>
      </trkpt>
      <trkpt lat="48.42238" lon="2.74738">
        <ele>44</ele>
        <time>2022-05-22T10:52:57Z</time>
      </trkpt>
      <trkpt lat="48.42202" lon="2.74749">
        <ele>44</ele>
        <time>2022-05-22T10:53:04Z</time>
      </trkpt>
      <trkpt lat="48.42192" lon="2.74746">
        <ele>43</ele>
        <time>2022-05-22T10:53:06Z</time>
      </trkpt>
      <trkpt lat="48.42182" lon="2.74734">
        <ele>43</ele>
        <time>2022-05-22T10:53:08Z</time>
      </trkpt>
      <trkpt lat="48.42172" lon="2.74728">
        <ele>42</ele>
        <time>2022-05-22T10:53:10Z</time>
      </trkpt>
      <trkpt lat="48.4214" lon="2.74727">
        <ele>43</ele>
        <time>2022-05-22T10:53:16Z</time>
      </trkpt>
      <trkpt lat="48.42129" lon="2.74731">
        <ele>43</ele>
        <time>2022-05-22T10:53:18Z</time>
      </trkpt>
      <trkpt lat="48.42116" lon="2.7473">
        <ele>43</ele>
        <time>2022-05-22T10:53:20Z</time>
      </trkpt>
      <trkpt lat="48.42096" lon="2.74735">
        <ele>44</ele>
        <time>2022-05-22T10:53:24Z</time>
      </trkpt>
      <trkpt lat="48.42074" lon="2.74733">
        <ele>44</ele>
        <time>2022-05-22T10:53:27Z</time>
      </trkpt>
      <trkpt lat="48.42033" lon="2.74737">
        <ele>45</ele>
        <time>2022-05-22T10:53:35Z</time>
      </trkpt>
      <trkpt lat="48.42005" lon="2.74745">
        <ele>45</ele>
        <time>2022-05-22T10:53:40Z</time>
      </trkpt>
      <trkpt lat="48.41946" lon="2.74748">
        <ele>44</ele>
        <time>2022-05-22T10:53:50Z</time>
      </trkpt>
      <trkpt lat="48.41883" lon="2.74769">
        <ele>44</ele>
        <time>2022-05-22T10:54:02Z</time>
      </trkpt>
      <trkpt lat="48.41855" lon="2.7477">
        <ele>44</ele>
        <time>2022-05-22T10:54:07Z</time>
      </trkpt>
      <trkpt lat="48.41816" lon="2.74775">
        <ele>45</ele>
        <time>2022-05-22T10:54:14Z</time>
      </trkpt>
      <trkpt lat="48.41797" lon="2.74774">
        <ele>46</ele>
        <time>2022-05-22T10:54:17Z</time>
      </trkpt>
      <trkpt lat="48.41759" lon="2.7478">
        <ele>48</ele>
        <time>2022-05-22T10:54:24Z</time>
      </trkpt>
      <trkpt lat="48.41669" lon="2.7481">
        <ele>47</ele>
        <time>2022-05-22T10:54:40Z</time>
      </trkpt>
      <trkpt lat="48.41618" lon="2.74837">
        <ele>46</ele>
        <time>2022-05-22T10:54:50Z</time>
      </trkpt>
      <trkpt lat="48.41597" lon="2.74843">
        <ele>47</ele>
        <time>2022-05-22T10:54:54Z</time>
      </trkpt>
      <trkpt lat="48.41501" lon="2.74902">
        <ele>48</ele>
        <time>2022-05-22T10:55:12Z</time>
      </trkpt>
      <trkpt lat="48.41465" lon="2.7494">
        <ele>47</ele>
        <time>2022-05-22T10:55:20Z</time>
      </trkpt>
      <trkpt lat="48.41453" lon="2.74946">
        <ele>46</ele>
        <time>2022-05-22T10:55:22Z</time>
      </trkpt>
      <trkpt lat="48.41445" lon="2.74953">
        <ele>46</ele>
        <time>2022-05-22T10:55:24Z</time>
      </trkpt>
      <trkpt lat="48.41427" lon="2.74976">
        <ele>46</ele>
        <time>2022-05-22T10:55:28Z</time>
      </trkpt>
      <trkpt lat="48.41409" lon="2.74992">
        <ele>46</ele>
        <time>2022-05-22T10:55:32Z</time>
      </trkpt>
      <trkpt lat="48.4136" lon="2.75067">
        <ele>46</ele>
        <time>2022-05-22T10:55:44Z</time>
      </trkpt>
      <trkpt lat="48.41352" lon="2.75076">
        <ele>46</ele>
        <time>2022-05-22T10:55:46Z</time>
      </trkpt>
      <trkpt lat="48.41332" lon="2.7509">
        <ele>46</ele>
        <time>2022-05-22T10:55:50Z</time>
      </trkpt>
      <trkpt lat="48.41305" lon="2.75121">
        <ele>45</ele>
        <time>2022-05-22T10:55:56Z</time>
      </trkpt>
      <trkpt lat="48.41283" lon="2.75153">
        <ele>45</ele>
        <time>2022-05-22T10:56:01Z</time>
      </trkpt>
      <trkpt lat="48.41263" lon="2.75192">
        <ele>45</ele>
        <time>2022-05-22T10:56:07Z</time>
      </trkpt>
      <trkpt lat="48.41244" lon="2.75254">
        <ele>44</ele>
        <time>2022-05-22T10:56:15Z</time>
      </trkpt>
      <trkpt lat="48.41223" lon="2.7536">
        <ele>45</ele>
        <time>2022-05-22T10:56:28Z</time>
      </trkpt>
      <trkpt lat="48.41215" lon="2.75421">
        <ele>46</ele>
        <time>2022-05-22T10:56:36Z</time>
      </trkpt>
      <trkpt lat="48.41208" lon="2.75452">
        <ele>46</ele>
        <time>2022-05-22T10:56:40Z</time>
      </trkpt>
      <trkpt lat="48.41206" lon="2.75484">
        <ele>45</ele>
        <time>2022-05-22T10:56:43Z</time>
      </trkpt>
      <trkpt lat="48.41188" lon="2.75621">
        <ele>47</ele>
        <time>2022-05-22T10:57:00Z</time>
      </trkpt>
      <trkpt lat="48.41186" lon="2.75665">
        <ele>48</ele>
        <time>2022-05-22T10:57:05Z</time>
      </trkpt>
      <trkpt lat="48.41182" lon="2.75683">
        <ele>48</ele>
        <time>2022-05-22T10:57:07Z</time>
      </trkpt>
      <trkpt lat="48.41178" lon="2.75762">
        <ele>47</ele>
        <time>2022-05-22T10:57:17Z</time>
      </trkpt>
      <trkpt lat="48.41188" lon="2.75872">
        <ele>46</ele>
        <time>2022-05-22T10:57:30Z</time>
      </trkpt>
      <trkpt lat="48.41186" lon="2.75905">
        <ele>47</ele>
        <time>2022-05-22T10:57:34Z</time>
      </trkpt>
      <trkpt lat="48.41193" lon="2.75934">
        <ele>47</ele>
        <time>2022-05-22T10:57:37Z</time>
      </trkpt>
      <trkpt lat="48.41194" lon="2.75986">
        <ele>46</ele>
        <time>2022-05-22T10:57:44Z</time>
      </trkpt>
      <trkpt lat="48.41196" lon="2.76">
        <ele>46</ele>
        <time>2022-05-22T10:57:45Z</time>
      </trkpt>
      <trkpt lat="48.41208" lon="2.76029">
        <ele>46</ele>
        <time>2022-05-22T10:57:49Z</time>
      </trkpt>
      <trkpt lat="48.41203" lon="2.7606">
        <ele>46</ele>
        <time>2022-05-22T10:57:53Z</time>
      </trkpt>
      <trkpt lat="48.41202" lon="2.76113">
        <ele>47</ele>
        <time>2022-05-22T10:57:59Z</time>
      </trkpt>
      <trkpt lat="48.41193" lon="2.76218">
        <ele>48</ele>
        <time>2022-05-22T10:58:12Z</time>
      </trkpt>
      <trkpt lat="48.41195" lon="2.76237">
        <ele>48</ele>
        <time>2022-05-22T10:58:14Z</time>
      </trkpt>
      <trkpt lat="48.4119" lon="2.76441">
        <ele>45</ele>
        <time>2022-05-22T10:58:38Z</time>
      </trkpt>
      <trkpt lat="48.41196" lon="2.7656">
        <ele>45</ele>
        <time>2022-05-22T10:58:52Z</time>
      </trkpt>
      <trkpt lat="48.41195" lon="2.76574">
        <ele>45</ele>
        <time>2022-05-22T10:58:54Z</time>
      </trkpt>
      <trkpt lat="48.412" lon="2.76634">
        <ele>45</ele>
        <time>2022-05-22T10:59:01Z</time>
      </trkpt>
      <trkpt lat="48.412" lon="2.76694">
        <ele>45</ele>
        <time>2022-05-22T10:59:08Z</time>
      </trkpt>
      <trkpt lat="48.41204" lon="2.76765">
        <ele>45</ele>
        <time>2022-05-22T10:59:17Z</time>
      </trkpt>
      <trkpt lat="48.4122" lon="2.7692">
        <ele>44</ele>
        <time>2022-05-22T10:59:35Z</time>
      </trkpt>
      <trkpt lat="48.41233" lon="2.77077">
        <ele>45</ele>
        <time>2022-05-22T10:59:54Z</time>
      </trkpt>
      <trkpt lat="48.41245" lon="2.77161">
        <ele>45</ele>
        <time>2022-05-22T11:00:04Z</time>
      </trkpt>
      <trkpt lat="48.41286" lon="2.77389">
        <ele>44</ele>
        <time>2022-05-22T11:00:32Z</time>
      </trkpt>
      <trkpt lat="48.41347" lon="2.77629">
        <ele>47</ele>
        <time>2022-05-22T11:01:02Z</time>
      </trkpt>
      <trkpt lat="48.41368" lon="2.77699">
        <ele>50</ele>
        <time>2022-05-22T11:01:11Z</time>
      </trkpt>
      <trkpt lat="48.41409" lon="2.77821">
        <ele>49</ele>
        <time>2022-05-22T11:01:27Z</time>
      </trkpt>
      <trkpt lat="48.41418" lon="2.77857">
        <ele>49</ele>
        <time>2022-05-22T11:01:32Z</time>
      </trkpt>
      <trkpt lat="48.41435" lon="2.77908">
        <ele>52</ele>
        <time>2022-05-22T11:01:39Z</time>
      </trkpt>
      <trkpt lat="48.41444" lon="2.77947">
        <ele>53</ele>
        <time>2022-05-22T11:01:44Z</time>
      </trkpt>
      <trkpt lat="48.41463" lon="2.781">
        <ele>54</ele>
        <time>2022-05-22T11:02:02Z</time>
      </trkpt>
      <trkpt lat="48.41497" lon="2.78311">
        <ele>55</ele>
        <time>2022-05-22T11:02:28Z</time>
      </trkpt>
      <trkpt lat="48.41509" lon="2.78459">
        <ele>54</ele>
        <time>2022-05-22T11:02:45Z</time>
      </trkpt>
      <trkpt lat="48.41509" lon="2.7849">
        <ele>54</ele>
        <time>2022-05-22T11:02:49Z</time>
      </trkpt>
      <trkpt lat="48.41504" lon="2.78603">
        <ele>52</ele>
        <time>2022-05-22T11:03:02Z</time>
      </trkpt>
      <trkpt lat="48.41494" lon="2.78701">
        <ele>50</ele>
        <time>2022-05-22T11:03:14Z</time>
      </trkpt>
      <trkpt lat="48.41492" lon="2.78755">
        <ele>51</ele>
        <time>2022-05-22T11:03:20Z</time>
      </trkpt>
      <trkpt lat="48.41475" lon="2.78814">
        <ele>53</ele>
        <time>2022-05-22T11:03:28Z</time>
      </trkpt>
      <trkpt lat="48.41458" lon="2.78886">
        <ele>55</ele>
        <time>2022-05-22T11:03:37Z</time>
      </trkpt>
      <trkpt lat="48.4142" lon="2.78993">
        <ele>48</ele>
        <time>2022-05-22T11:03:51Z</time>
      </trkpt>
      <trkpt lat="48.41373" lon="2.79106">
        <ele>54</ele>
        <time>2022-05-22T11:04:07Z</time>
      </trkpt>
      <trkpt lat="48.41349" lon="2.79153">
        <ele>53</ele>
        <time>2022-05-22T11:04:14Z</time>
      </trkpt>
      <trkpt lat="48.41321" lon="2.79199">
        <ele>51</ele>
        <time>2022-05-22T11:04:21Z</time>
      </trkpt>
      <trkpt lat="48.41276" lon="2.79267">
        <ele>52</ele>
        <time>2022-05-22T11:04:33Z</time>
      </trkpt>
      <trkpt lat="48.41253" lon="2.79296">
        <ele>51</ele>
        <time>2022-05-22T11:04:38Z</time>
      </trkpt>
      <trkpt lat="48.41141" lon="2.79422">
        <ele>51</ele>
        <time>2022-05-22T11:05:03Z</time>
      </trkpt>
      <trkpt lat="48.41025" lon="2.79538">
        <ele>51</ele>
        <time>2022-05-22T11:05:28Z</time>
      </trkpt>
      <trkpt lat="48.40954" lon="2.79604">
        <ele>52</ele>
        <time>2022-05-22T11:05:43Z</time>
      </trkpt>
      <trkpt lat="48.40944" lon="2.7961">
        <ele>52</ele>
        <time>2022-05-22T11:05:44Z</time>
      </trkpt>
      <trkpt lat="48.40909" lon="2.79642">
        <ele>51</ele>
        <time>2022-05-22T11:05:52Z</time>
      </trkpt>
      <trkpt lat="48.40888" lon="2.79656">
        <ele>50</ele>
        <time>2022-05-22T11:05:56Z</time>
      </trkpt>
      <trkpt lat="48.40861" lon="2.79681">
        <ele>50</ele>
        <time>2022-05-22T11:06:01Z</time>
      </trkpt>
      <trkpt lat="48.40823" lon="2.7971">
        <ele>49</ele>
        <time>2022-05-22T11:06:09Z</time>
      </trkpt>
      <trkpt lat="48.40804" lon="2.79719">
        <ele>49</ele>
        <time>2022-05-22T11:06:13Z</time>
      </trkpt>
      <trkpt lat="48.40771" lon="2.79741">
        <ele>48</ele>
        <time>2022-05-22T11:06:19Z</time>
      </trkpt>
      <trkpt lat="48.40722" lon="2.79758">
        <ele>47</ele>
        <time>2022-05-22T11:06:28Z</time>
      </trkpt>
      <trkpt lat="48.40645" lon="2.79766">
        <ele>47</ele>
        <time>2022-05-22T11:06:42Z</time>
      </trkpt>
      <trkpt lat="48.40584" lon="2.79763">
        <ele>47</ele>
        <time>2022-05-22T11:06:53Z</time>
      </trkpt>
      <trkpt lat="48.40563" lon="2.79768">
        <ele>47</ele>
        <time>2022-05-22T11:06:56Z</time>
      </trkpt>
      <trkpt lat="48.40553" lon="2.79774">
        <ele>48</ele>
        <time>2022-05-22T11:06:58Z</time>
      </trkpt>
      <trkpt lat="48.40539" lon="2.79811">
        <ele>50</ele>
        <time>2022-05-22T11:07:03Z</time>
      </trkpt>
      <trkpt lat="48.40535" lon="2.79824">
        <ele>51</ele>
        <time>2022-05-22T11:07:05Z</time>
      </trkpt>
      <trkpt lat="48.40535" lon="2.79839">
        <ele>52</ele>
        <time>2022-05-22T11:07:07Z</time>
      </trkpt>
      <trkpt lat="48.4053" lon="2.79867">
        <ele>52</ele>
        <time>2022-05-22T11:07:10Z</time>
      </trkpt>
      <trkpt lat="48.40499" lon="2.79874">
        <ele>52</ele>
        <time>2022-05-22T11:07:16Z</time>
      </trkpt>
      <trkpt lat="48.40487" lon="2.79882">
        <ele>53</ele>
        <time>2022-05-22T11:07:18Z</time>
      </trkpt>
      <trkpt lat="48.40475" lon="2.7988">
        <ele>53</ele>
        <time>2022-05-22T11:07:20Z</time>
      </trkpt>
      <trkpt lat="48.40464" lon="2.79875">
        <ele>53</ele>
        <time>2022-05-22T11:07:22Z</time>
      </trkpt>
      <trkpt lat="48.40419" lon="2.79879">
        <ele>53</ele>
        <time>2022-05-22T11:07:30Z</time>
      </trkpt>
      <trkpt lat="48.40386" lon="2.79887">
        <ele>52</ele>
        <time>2022-05-22T11:07:36Z</time>
      </trkpt>
      <trkpt lat="48.40357" lon="2.79888">
        <ele>51</ele>
        <time>2022-05-22T11:07:41Z</time>
      </trkpt>
      <trkpt lat="48.40326" lon="2.79883">
        <ele>51</ele>
        <time>2022-05-22T11:07:47Z</time>
      </trkpt>
      <trkpt lat="48.40316" lon="2.79885">
        <ele>51</ele>
        <time>2022-05-22T11:07:49Z</time>
      </trkpt>
      <trkpt lat="48.40306" lon="2.79882">
        <ele>50</ele>
        <time>2022-05-22T11:07:51Z</time>
      </trkpt>
      <trkpt lat="48.40276" lon="2.7988">
        <ele>50</ele>
        <time>2022-05-22T11:07:56Z</time>
      </trkpt>
      <trkpt lat="48.40235" lon="2.79867">
        <ele>49</ele>
        <time>2022-05-22T11:08:03Z</time>
      </trkpt>
      <trkpt lat="48.40185" lon="2.79863">
        <ele>49</ele>
        <time>2022-05-22T11:08:12Z</time>
      </trkpt>
      <trkpt lat="48.40161" lon="2.79856">
        <ele>49</ele>
        <time>2022-05-22T11:08:17Z</time>
      </trkpt>
      <trkpt lat="48.40152" lon="2.79851">
        <ele>49</ele>
        <time>2022-05-22T11:08:18Z</time>
      </trkpt>
      <trkpt lat="48.4015" lon="2.79819">
        <ele>49</ele>
        <time>2022-05-22T11:08:22Z</time>
      </trkpt>
      <trkpt lat="48.40153" lon="2.7977">
        <ele>49</ele>
        <time>2022-05-22T11:08:28Z</time>
      </trkpt>
      <trkpt lat="48.4015" lon="2.79756">
        <ele>49</ele>
        <time>2022-05-22T11:08:30Z</time>
      </trkpt>
      <trkpt lat="48.40093" lon="2.7975">
        <ele>50</ele>
        <time>2022-05-22T11:08:40Z</time>
      </trkpt>
      <trkpt lat="48.40071" lon="2.7975">
        <ele>50</ele>
        <time>2022-05-22T11:08:44Z</time>
      </trkpt>
      <trkpt lat="48.4002" lon="2.79742">
        <ele>52</ele>
        <time>2022-05-22T11:08:53Z</time>
      </trkpt>
      <trkpt lat="48.40009" lon="2.79744">
        <ele>53</ele>
        <time>2022-05-22T11:08:55Z</time>
      </trkpt>
      <trkpt lat="48.39976" lon="2.79741">
        <ele>52</ele>
        <time>2022-05-22T11:09:01Z</time>
      </trkpt>
      <trkpt lat="48.39966" lon="2.79736">
        <ele>52</ele>
        <time>2022-05-22T11:09:03Z</time>
      </trkpt>
      <trkpt lat="48.39975" lon="2.79727">
        <ele>52</ele>
        <time>2022-05-22T11:09:05Z</time>
      </trkpt>
      <trkpt lat="48.39942" lon="2.7982">
        <ele>52</ele>
        <time>2022-05-22T11:09:17Z</time>
      </trkpt>
      <trkpt lat="48.39931" lon="2.79836">
        <ele>52</ele>
        <time>2022-05-22T11:09:20Z</time>
      </trkpt>
      <trkpt lat="48.39936" lon="2.79847">
        <ele>52</ele>
        <time>2022-05-22T11:09:21Z</time>
      </trkpt>
      <trkpt lat="48.39981" lon="2.79702">
        <ele>52</ele>
        <time>2022-05-22T11:09:40Z</time>
      </trkpt>
      <trkpt lat="48.39995" lon="2.79729">
        <ele>52</ele>
        <time>2022-05-22T11:09:44Z</time>
      </trkpt>
      <trkpt lat="48.39987" lon="2.79739">
        <ele>52</ele>
        <time>2022-05-22T11:09:46Z</time>
      </trkpt>
      <trkpt lat="48.39969" lon="2.79722">
        <ele>52</ele>
        <time>2022-05-22T11:09:50Z</time>
      </trkpt>
      <trkpt lat="48.39955" lon="2.79766">
        <ele>52</ele>
        <time>2022-05-22T11:09:56Z</time>
      </trkpt>
      <trkpt lat="48.39952" lon="2.79793">
        <ele>52</ele>
        <time>2022-05-22T11:09:59Z</time>
      </trkpt>
      <trkpt lat="48.39956" lon="2.79781">
        <ele>52</ele>
        <time>2022-05-22T11:10:00Z</time>
      </trkpt>
      <trkpt lat="48.39956" lon="2.79763">
        <ele>52</ele>
        <time>2022-05-22T11:10:03Z</time>
      </trkpt>
      <trkpt lat="48.39959" lon="2.79748">
        <ele>52</ele>
        <time>2022-05-22T11:10:04Z</time>
      </trkpt>
      <trkpt lat="48.3995" lon="2.7974">
        <ele>52</ele>
        <time>2022-05-22T11:10:06Z</time>
      </trkpt>
      <trkpt lat="48.39939" lon="2.79738">
        <ele>51</ele>
        <time>2022-05-22T11:10:08Z</time>
      </trkpt>
      <trkpt lat="48.3993" lon="2.79733">
        <ele>51</ele>
        <time>2022-05-22T11:10:10Z</time>
      </trkpt>
      <trkpt lat="48.3992" lon="2.79732">
        <ele>51</ele>
        <time>2022-05-22T11:10:12Z</time>
      </trkpt>
      <trkpt lat="48.39912" lon="2.79722">
        <ele>51</ele>
        <time>2022-05-22T11:10:14Z</time>
      </trkpt>
      <trkpt lat="48.39905" lon="2.79645">
        <ele>50</ele>
        <time>2022-05-22T11:10:23Z</time>
      </trkpt>
      <trkpt lat="48.399" lon="2.79632">
        <ele>50</ele>
        <time>2022-05-22T11:10:25Z</time>
      </trkpt>
      <trkpt lat="48.39874" lon="2.79623">
        <ele>50</ele>
        <time>2022-05-22T11:10:29Z</time>
      </trkpt>
      <trkpt lat="48.3984" lon="2.79623">
        <ele>50</ele>
        <time>2022-05-22T11:10:35Z</time>
      </trkpt>
      <trkpt lat="48.39742" lon="2.79613">
        <ele>51</ele>
        <time>2022-05-22T11:10:53Z</time>
      </trkpt>
      <trkpt lat="48.39722" lon="2.79614">
        <ele>51</ele>
        <time>2022-05-22T11:10:56Z</time>
      </trkpt>
      <trkpt lat="48.39704" lon="2.7961">
        <ele>51</ele>
        <time>2022-05-22T11:11:00Z</time>
      </trkpt>
      <trkpt lat="48.39696" lon="2.79621">
        <ele>51</ele>
        <time>2022-05-22T11:11:02Z</time>
      </trkpt>
      <trkpt lat="48.39698" lon="2.79478">
        <ele>50</ele>
        <time>2022-05-22T11:11:18Z</time>
      </trkpt>
      <trkpt lat="48.39694" lon="2.79364">
        <ele>48</ele>
        <time>2022-05-22T11:11:32Z</time>
      </trkpt>
      <trkpt lat="48.39695" lon="2.79282">
        <ele>47</ele>
        <time>2022-05-22T11:11:42Z</time>
      </trkpt>
      <trkpt lat="48.39693" lon="2.79219">
        <ele>46</ele>
        <time>2022-05-22T11:11:49Z</time>
      </trkpt>
      <trkpt lat="48.397" lon="2.7915">
        <ele>44</ele>
        <time>2022-05-22T11:11:57Z</time>
      </trkpt>
      <trkpt lat="48.39699" lon="2.79134">
        <ele>44</ele>
        <time>2022-05-22T11:11:59Z</time>
      </trkpt>
      <trkpt lat="48.39693" lon="2.79122">
        <ele>44</ele>
        <time>2022-05-22T11:12:01Z</time>
      </trkpt>
      <trkpt lat="48.39684" lon="2.79114">
        <ele>44</ele>
        <time>2022-05-22T11:12:03Z</time>
      </trkpt>
      <trkpt lat="48.39632" lon="2.79098">
        <ele>44</ele>
        <time>2022-05-22T11:12:12Z</time>
      </trkpt>
      <trkpt lat="48.39543" lon="2.79076">
        <ele>44</ele>
        <time>2022-05-22T11:12:28Z</time>
      </trkpt>
      <trkpt lat="48.39451" lon="2.79058">
        <ele>44</ele>
        <time>2022-05-22T11:12:45Z</time>
      </trkpt>
      <trkpt lat="48.39432" lon="2.79052">
        <ele>44</ele>
        <time>2022-05-22T11:12:48Z</time>
      </trkpt>
      <trkpt lat="48.39401" lon="2.79051">
        <ele>45</ele>
        <time>2022-05-22T11:12:54Z</time>
      </trkpt>
      <trkpt lat="48.3937" lon="2.79044">
        <ele>45</ele>
        <time>2022-05-22T11:12:59Z</time>
      </trkpt>
      <trkpt lat="48.39293" lon="2.79039">
        <ele>45</ele>
        <time>2022-05-22T11:13:13Z</time>
      </trkpt>
      <trkpt lat="48.39253" lon="2.79042">
        <ele>46</ele>
        <time>2022-05-22T11:13:20Z</time>
      </trkpt>
      <trkpt lat="48.39223" lon="2.79047">
        <ele>46</ele>
        <time>2022-05-22T11:13:26Z</time>
      </trkpt>
      <trkpt lat="48.39204" lon="2.79045">
        <ele>46</ele>
        <time>2022-05-22T11:13:29Z</time>
      </trkpt>
      <trkpt lat="48.39193" lon="2.79047">
        <ele>46</ele>
        <time>2022-05-22T11:13:31Z</time>
      </trkpt>
      <trkpt lat="48.39175" lon="2.79035">
        <ele>46</ele>
        <time>2022-05-22T11:13:34Z</time>
      </trkpt>
      <trkpt lat="48.39143" lon="2.79041">
        <ele>46</ele>
        <time>2022-05-22T11:13:40Z</time>
      </trkpt>
      <trkpt lat="48.39113" lon="2.79051">
        <ele>47</ele>
        <time>2022-05-22T11:13:46Z</time>
      </trkpt>
      <trkpt lat="48.39103" lon="2.79044">
        <ele>47</ele>
        <time>2022-05-22T11:13:48Z</time>
      </trkpt>
      <trkpt lat="48.39092" lon="2.79045">
        <ele>47</ele>
        <time>2022-05-22T11:13:50Z</time>
      </trkpt>
      <trkpt lat="48.39082" lon="2.79049">
        <ele>47</ele>
        <time>2022-05-22T11:13:51Z</time>
      </trkpt>
      <trkpt lat="48.39075" lon="2.79061">
        <ele>47</ele>
        <time>2022-05-22T11:13:53Z</time>
      </trkpt>
      <trkpt lat="48.39039" lon="2.79103">
        <ele>47</ele>
        <time>2022-05-22T11:14:01Z</time>
      </trkpt>
      <trkpt lat="48.39019" lon="2.79148">
        <ele>47</ele>
        <time>2022-05-22T11:14:08Z</time>
      </trkpt>
      <trkpt lat="48.39003" lon="2.79207">
        <ele>48</ele>
        <time>2022-05-22T11:14:15Z</time>
      </trkpt>
      <trkpt lat="48.38973" lon="2.79296">
        <ele>49</ele>
        <time>2022-05-22T11:14:27Z</time>
      </trkpt>
      <trkpt lat="48.38972" lon="2.79329">
        <ele>50</ele>
        <time>2022-05-22T11:14:31Z</time>
      </trkpt>
      <trkpt lat="48.38957" lon="2.79357">
        <ele>50</ele>
        <time>2022-05-22T11:14:35Z</time>
      </trkpt>
      <trkpt lat="48.38953" lon="2.7937">
        <ele>50</ele>
        <time>2022-05-22T11:14:37Z</time>
      </trkpt>
      <trkpt lat="48.38948" lon="2.79418">
        <ele>50</ele>
        <time>2022-05-22T11:14:43Z</time>
      </trkpt>
      <trkpt lat="48.3894" lon="2.79448">
        <ele>50</ele>
        <time>2022-05-22T11:14:47Z</time>
      </trkpt>
      <trkpt lat="48.38925" lon="2.79536">
        <ele>50</ele>
        <time>2022-05-22T11:14:57Z</time>
      </trkpt>
      <trkpt lat="48.38915" lon="2.79565">
        <ele>50</ele>
        <time>2022-05-22T11:15:01Z</time>
      </trkpt>
      <trkpt lat="48.38908" lon="2.79597">
        <ele>50</ele>
        <time>2022-05-22T11:15:05Z</time>
      </trkpt>
      <trkpt lat="48.38907" lon="2.79615">
        <ele>50</ele>
        <time>2022-05-22T11:15:07Z</time>
      </trkpt>
      <trkpt lat="48.3889" lon="2.79656">
        <ele>49</ele>
        <time>2022-05-22T11:15:13Z</time>
      </trkpt>
      <trkpt lat="48.38888" lon="2.79712">
        <ele>49</ele>
        <time>2022-05-22T11:15:20Z</time>
      </trkpt>
      <trkpt lat="48.38878" lon="2.79825">
        <ele>47</ele>
        <time>2022-05-22T11:15:33Z</time>
      </trkpt>
      <trkpt lat="48.38879" lon="2.7986">
        <ele>46</ele>
        <time>2022-05-22T11:15:37Z</time>
      </trkpt>
      <trkpt lat="48.38873" lon="2.79925">
        <ele>46</ele>
        <time>2022-05-22T11:15:45Z</time>
      </trkpt>
      <trkpt lat="48.38872" lon="2.79972">
        <ele>47</ele>
        <time>2022-05-22T11:15:51Z</time>
      </trkpt>
      <trkpt lat="48.38858" lon="2.80066">
        <ele>49</ele>
        <time>2022-05-22T11:16:02Z</time>
      </trkpt>
      <trkpt lat="48.3885" lon="2.80171">
        <ele>48</ele>
        <time>2022-05-22T11:16:14Z</time>
      </trkpt>
      <trkpt lat="48.38847" lon="2.80187">
        <ele>48</ele>
        <time>2022-05-22T11:16:16Z</time>
      </trkpt>
      <trkpt lat="48.38848" lon="2.80218">
        <ele>46</ele>
        <time>2022-05-22T11:16:20Z</time>
      </trkpt>
      <trkpt lat="48.38846" lon="2.80233">
        <ele>46</ele>
        <time>2022-05-22T11:16:22Z</time>
      </trkpt>
      <trkpt lat="48.38863" lon="2.80315">
        <ele>44</ele>
        <time>2022-05-22T11:16:32Z</time>
      </trkpt>
      <trkpt lat="48.38878" lon="2.80356">
        <ele>44</ele>
        <time>2022-05-22T11:16:38Z</time>
      </trkpt>
      <trkpt lat="48.38907" lon="2.80423">
        <ele>45</ele>
        <time>2022-05-22T11:16:47Z</time>
      </trkpt>
      <trkpt lat="48.38933" lon="2.80472">
        <ele>46</ele>
        <time>2022-05-22T11:16:54Z</time>
      </trkpt>
      <trkpt lat="48.39027" lon="2.80629">
        <ele>51</ele>
        <time>2022-05-22T11:17:19Z</time>
      </trkpt>
      <trkpt lat="48.3904" lon="2.80659">
        <ele>52</ele>
        <time>2022-05-22T11:17:24Z</time>
      </trkpt>
      <trkpt lat="48.39069" lon="2.80711">
        <ele>53</ele>
        <time>2022-05-22T11:17:32Z</time>
      </trkpt>
      <trkpt lat="48.3908" lon="2.8074">
        <ele>53</ele>
        <time>2022-05-22T11:17:36Z</time>
      </trkpt>
      <trkpt lat="48.39088" lon="2.80749">
        <ele>54</ele>
        <time>2022-05-22T11:17:37Z</time>
      </trkpt>
      <trkpt lat="48.39101" lon="2.80771">
        <ele>56</ele>
        <time>2022-05-22T11:17:41Z</time>
      </trkpt>
      <trkpt lat="48.39111" lon="2.80804">
        <ele>57</ele>
        <time>2022-05-22T11:17:45Z</time>
      </trkpt>
      <trkpt lat="48.39117" lon="2.80815">
        <ele>58</ele>
        <time>2022-05-22T11:17:47Z</time>
      </trkpt>
      <trkpt lat="48.3915" lon="2.80921">
        <ele>57</ele>
        <time>2022-05-22T11:18:01Z</time>
      </trkpt>
      <trkpt lat="48.39183" lon="2.81012">
        <ele>59</ele>
        <time>2022-05-22T11:18:13Z</time>
      </trkpt>
      <trkpt lat="48.39207" lon="2.81065">
        <ele>60</ele>
        <time>2022-05-22T11:18:20Z</time>
      </trkpt>
      <trkpt lat="48.39234" lon="2.81157">
        <ele>57</ele>
        <time>2022-05-22T11:18:32Z</time>
      </trkpt>
      <trkpt lat="48.39263" lon="2.81228">
        <ele>60</ele>
        <time>2022-05-22T11:18:42Z</time>
      </trkpt>
      <trkpt lat="48.39293" lon="2.81311">
        <ele>62</ele>
        <time>2022-05-22T11:18:53Z</time>
      </trkpt>
      <trkpt lat="48.39313" lon="2.81383">
        <ele>60</ele>
        <time>2022-05-22T11:19:03Z</time>
      </trkpt>
      <trkpt lat="48.39325" lon="2.81442">
        <ele>57</ele>
        <time>2022-05-22T11:19:10Z</time>
      </trkpt>
      <trkpt lat="48.39346" lon="2.81566">
        <ele>55</ele>
        <time>2022-05-22T11:19:25Z</time>
      </trkpt>
      <trkpt lat="48.39364" lon="2.8171">
        <ele>55</ele>
        <time>2022-05-22T11:19:42Z</time>
      </trkpt>
      <trkpt lat="48.39366" lon="2.81742">
        <ele>55</ele>
        <time>2022-05-22T11:19:46Z</time>
      </trkpt>
      <trkpt lat="48.39366" lon="2.81848">
        <ele>56</ele>
        <time>2022-05-22T11:19:59Z</time>
      </trkpt>
      <trkpt lat="48.39372" lon="2.81896">
        <ele>58</ele>
        <time>2022-05-22T11:20:04Z</time>
      </trkpt>
      <trkpt lat="48.39377" lon="2.8198">
        <ele>58</ele>
        <time>2022-05-22T11:20:14Z</time>
      </trkpt>
      <trkpt lat="48.39368" lon="2.81986">
        <ele>56</ele>
        <time>2022-05-22T11:20:16Z</time>
      </trkpt>
      <trkpt lat="48.39364" lon="2.81999">
        <ele>54</ele>
        <time>2022-05-22T11:20:18Z</time>
      </trkpt>
      <trkpt lat="48.39355" lon="2.82115">
        <ele>51</ele>
        <time>2022-05-22T11:20:32Z</time>
      </trkpt>
      <trkpt lat="48.3935" lon="2.82132">
        <ele>50</ele>
        <time>2022-05-22T11:20:34Z</time>
      </trkpt>
      <trkpt lat="48.39333" lon="2.82276">
        <ele>48</ele>
        <time>2022-05-22T11:20:51Z</time>
      </trkpt>
      <trkpt lat="48.39301" lon="2.82442">
        <ele>45</ele>
        <time>2022-05-22T11:21:11Z</time>
      </trkpt>
      <trkpt lat="48.39287" lon="2.82562">
        <ele>46</ele>
        <time>2022-05-22T11:21:26Z</time>
      </trkpt>
      <trkpt lat="48.39274" lon="2.82601">
        <ele>46</ele>
        <time>2022-05-22T11:21:31Z</time>
      </trkpt>
      <trkpt lat="48.39233" lon="2.82694">
        <ele>47</ele>
        <time>2022-05-22T11:21:44Z</time>
      </trkpt>
      <trkpt lat="48.39203" lon="2.82754">
        <ele>48</ele>
        <time>2022-05-22T11:21:53Z</time>
      </trkpt>
      <trkpt lat="48.39193" lon="2.82759">
        <ele>48</ele>
        <time>2022-05-22T11:21:55Z</time>
      </trkpt>
      <trkpt lat="48.39168" lon="2.82792">
        <ele>47</ele>
        <time>2022-05-22T11:22:01Z</time>
      </trkpt>
      <trkpt lat="48.39139" lon="2.82822">
        <ele>45</ele>
        <time>2022-05-22T11:22:07Z</time>
      </trkpt>
      <trkpt lat="48.3913" lon="2.82835">
        <ele>45</ele>
        <time>2022-05-22T11:22:09Z</time>
      </trkpt>
      <trkpt lat="48.39032" lon="2.83007">
        <ele>44</ele>
        <time>2022-05-22T11:22:36Z</time>
      </trkpt>
      <trkpt lat="48.38986" lon="2.83116">
        <ele>44</ele>
        <time>2022-05-22T11:22:51Z</time>
      </trkpt>
      <trkpt lat="48.38974" lon="2.83152">
        <ele>44</ele>
        <time>2022-05-22T11:22:56Z</time>
      </trkpt>
      <trkpt lat="48.38959" lon="2.83206">
        <ele>45</ele>
        <time>2022-05-22T11:23:03Z</time>
      </trkpt>
      <trkpt lat="48.38925" lon="2.83352">
        <ele>47</ele>
        <time>2022-05-22T11:23:21Z</time>
      </trkpt>
      <trkpt lat="48.38914" lon="2.83386">
        <ele>46</ele>
        <time>2022-05-22T11:23:26Z</time>
      </trkpt>
      <trkpt lat="48.38894" lon="2.83435">
        <ele>45</ele>
        <time>2022-05-22T11:23:33Z</time>
      </trkpt>
      <trkpt lat="48.38797" lon="2.83618">
        <ele>47</ele>
        <time>2022-05-22T11:24:00Z</time>
      </trkpt>
      <trkpt lat="48.38761" lon="2.83694">
        <ele>48</ele>
        <time>2022-05-22T11:24:11Z</time>
      </trkpt>
      <trkpt lat="48.387" lon="2.83802">
        <ele>48</ele>
        <time>2022-05-22T11:24:28Z</time>
      </trkpt>
      <trkpt lat="48.38668" lon="2.83848">
        <ele>48</ele>
        <time>2022-05-22T11:24:36Z</time>
      </trkpt>
      <trkpt lat="48.38639" lon="2.83894">
        <ele>48</ele>
        <time>2022-05-22T11:24:43Z</time>
      </trkpt>
      <trkpt lat="48.38617" lon="2.83936">
        <ele>47</ele>
        <time>2022-05-22T11:24:50Z</time>
      </trkpt>
      <trkpt lat="48.38608" lon="2.83946">
        <ele>47</ele>
        <time>2022-05-22T11:24:52Z</time>
      </trkpt>
      <trkpt lat="48.38515" lon="2.84094">
        <ele>47</ele>
        <time>2022-05-22T11:25:16Z</time>
      </trkpt>
      <trkpt lat="48.3845" lon="2.84186">
        <ele>46</ele>
        <time>2022-05-22T11:25:32Z</time>
      </trkpt>
      <trkpt lat="48.38365" lon="2.84289">
        <ele>45</ele>
        <time>2022-05-22T11:25:51Z</time>
      </trkpt>
      <trkpt lat="48.38219" lon="2.84459">
        <ele>49</ele>
        <time>2022-05-22T11:26:24Z</time>
      </trkpt>
      <trkpt lat="48.38168" lon="2.84523">
        <ele>49</ele>
        <time>2022-05-22T11:26:36Z</time>
      </trkpt>
      <trkpt lat="48.3815" lon="2.84556">
        <ele>47</ele>
        <time>2022-05-22T11:26:41Z</time>
      </trkpt>
      <trkpt lat="48.38128" lon="2.8463">
        <ele>46</ele>
        <time>2022-05-22T11:26:50Z</time>
      </trkpt>
      <trkpt lat="48.38121" lon="2.8464">
        <ele>47</ele>
        <time>2022-05-22T11:26:52Z</time>
      </trkpt>
      <trkpt lat="48.38099" lon="2.84627">
        <ele>47</ele>
        <time>2022-05-22T11:26:56Z</time>
      </trkpt>
      <trkpt lat="48.38059" lon="2.84594">
        <ele>47</ele>
        <time>2022-05-22T11:27:04Z</time>
      </trkpt>
      <trkpt lat="48.38048" lon="2.84598">
        <ele>47</ele>
        <time>2022-05-22T11:27:06Z</time>
      </trkpt>
      <trkpt lat="48.37968" lon="2.84672">
        <ele>49</ele>
        <time>2022-05-22T11:27:23Z</time>
      </trkpt>
      <trkpt lat="48.37929" lon="2.84703">
        <ele>49</ele>
        <time>2022-05-22T11:27:31Z</time>
      </trkpt>
      <trkpt lat="48.37916" lon="2.84708">
        <ele>48</ele>
        <time>2022-05-22T11:27:33Z</time>
      </trkpt>
      <trkpt lat="48.37888" lon="2.84733">
        <ele>48</ele>
        <time>2022-05-22T11:27:39Z</time>
      </trkpt>
      <trkpt lat="48.37881" lon="2.84745">
        <ele>48</ele>
        <time>2022-05-22T11:27:41Z</time>
      </trkpt>
      <trkpt lat="48.37854" lon="2.84775">
        <ele>49</ele>
        <time>2022-05-22T11:27:47Z</time>
      </trkpt>
      <trkpt lat="48.37824" lon="2.84785">
        <ele>49</ele>
        <time>2022-05-22T11:27:53Z</time>
      </trkpt>
      <trkpt lat="48.37814" lon="2.84792">
        <ele>49</ele>
        <time>2022-05-22T11:27:54Z</time>
      </trkpt>
      <trkpt lat="48.37736" lon="2.84881">
        <ele>50</ele>
        <time>2022-05-22T11:28:12Z</time>
      </trkpt>
      <trkpt lat="48.3771" lon="2.84921">
        <ele>55</ele>
        <time>2022-05-22T11:28:18Z</time>
      </trkpt>
      <trkpt lat="48.37692" lon="2.84942">
        <ele>56</ele>
        <time>2022-05-22T11:28:23Z</time>
      </trkpt>
      <trkpt lat="48.37633" lon="2.85047">
        <ele>55</ele>
        <time>2022-05-22T11:28:39Z</time>
      </trkpt>
      <trkpt lat="48.37591" lon="2.8511">
        <ele>53</ele>
        <time>2022-05-22T11:28:49Z</time>
      </trkpt>
      <trkpt lat="48.3758" lon="2.85137">
        <ele>51</ele>
        <time>2022-05-22T11:28:53Z</time>
      </trkpt>
      <trkpt lat="48.37577" lon="2.85152">
        <ele>50</ele>
        <time>2022-05-22T11:28:55Z</time>
      </trkpt>
      <trkpt lat="48.37554" lon="2.85208">
        <ele>49</ele>
        <time>2022-05-22T11:29:03Z</time>
      </trkpt>
      <trkpt lat="48.37533" lon="2.85242">
        <ele>48</ele>
        <time>2022-05-22T11:29:08Z</time>
      </trkpt>
      <trkpt lat="48.37482" lon="2.85372">
        <ele>48</ele>
        <time>2022-05-22T11:29:26Z</time>
      </trkpt>
      <trkpt lat="48.37454" lon="2.85435">
        <ele>48</ele>
        <time>2022-05-22T11:29:35Z</time>
      </trkpt>
      <trkpt lat="48.37409" lon="2.85552">
        <ele>49</ele>
        <time>2022-05-22T11:29:51Z</time>
      </trkpt>
      <trkpt lat="48.37407" lon="2.85567">
        <ele>49</ele>
        <time>2022-05-22T11:29:53Z</time>
      </trkpt>
      <trkpt lat="48.374" lon="2.85578">
        <ele>49</ele>
        <time>2022-05-22T11:29:55Z</time>
      </trkpt>
      <trkpt lat="48.37371" lon="2.85649">
        <ele>53</ele>
        <time>2022-05-22T11:30:04Z</time>
      </trkpt>
      <trkpt lat="48.37346" lon="2.85723">
        <ele>53</ele>
        <time>2022-05-22T11:30:14Z</time>
      </trkpt>
      <trkpt lat="48.37326" lon="2.85769">
        <ele>52</ele>
        <time>2022-05-22T11:30:21Z</time>
      </trkpt>
      <trkpt lat="48.37316" lon="2.85802">
        <ele>51</ele>
        <time>2022-05-22T11:30:25Z</time>
      </trkpt>
      <trkpt lat="48.37294" lon="2.8586">
        <ele>51</ele>
        <time>2022-05-22T11:30:33Z</time>
      </trkpt>
      <trkpt lat="48.37281" lon="2.85888">
        <ele>51</ele>
        <time>2022-05-22T11:30:37Z</time>
      </trkpt>
      <trkpt lat="48.37266" lon="2.85938">
        <ele>53</ele>
        <time>2022-05-22T11:30:43Z</time>
      </trkpt>
      <trkpt lat="48.37265" lon="2.85953">
        <ele>53</ele>
        <time>2022-05-22T11:30:45Z</time>
      </trkpt>
      <trkpt lat="48.37254" lon="2.86003">
        <ele>54</ele>
        <time>2022-05-22T11:30:51Z</time>
      </trkpt>
      <trkpt lat="48.37247" lon="2.86065">
        <ele>53</ele>
        <time>2022-05-22T11:30:59Z</time>
      </trkpt>
      <trkpt lat="48.37245" lon="2.86145">
        <ele>53</ele>
        <time>2022-05-22T11:31:08Z</time>
      </trkpt>
      <trkpt lat="48.3725" lon="2.86207">
        <ele>55</ele>
        <time>2022-05-22T11:31:16Z</time>
      </trkpt>
      <trkpt lat="48.37255" lon="2.86237">
        <ele>56</ele>
        <time>2022-05-22T11:31:19Z</time>
      </trkpt>
      <trkpt lat="48.37268" lon="2.86283">
        <ele>54</ele>
        <time>2022-05-22T11:31:25Z</time>
      </trkpt>
      <trkpt lat="48.37295" lon="2.86401">
        <ele>47</ele>
        <time>2022-05-22T11:31:40Z</time>
      </trkpt>
      <trkpt lat="48.37315" lon="2.86462">
        <ele>44</ele>
        <time>2022-05-22T11:31:48Z</time>
      </trkpt>
      <trkpt lat="48.37336" lon="2.86498">
        <ele>43</ele>
        <time>2022-05-22T11:31:54Z</time>
      </trkpt>
      <trkpt lat="48.37385" lon="2.86649">
        <ele>43</ele>
        <time>2022-05-22T11:32:14Z</time>
      </trkpt>
      <trkpt lat="48.37399" lon="2.8667">
        <ele>44</ele>
        <time>2022-05-22T11:32:17Z</time>
      </trkpt>
      <trkpt lat="48.37416" lon="2.86687">
        <ele>45</ele>
        <time>2022-05-22T11:32:21Z</time>
      </trkpt>
      <trkpt lat="48.37425" lon="2.86721">
        <ele>46</ele>
        <time>2022-05-22T11:32:25Z</time>
      </trkpt>
      <trkpt lat="48.37419" lon="2.86752">
        <ele>46</ele>
        <time>2022-05-22T11:32:29Z</time>
      </trkpt>
      <trkpt lat="48.37421" lon="2.86766">
        <ele>46</ele>
        <time>2022-05-22T11:32:31Z</time>
      </trkpt>
      <trkpt lat="48.37432" lon="2.86797">
        <ele>47</ele>
        <time>2022-05-22T11:32:35Z</time>
      </trkpt>
      <trkpt lat="48.3744" lon="2.86807">
        <ele>47</ele>
        <time>2022-05-22T11:32:37Z</time>
      </trkpt>
      <trkpt lat="48.37441" lon="2.86822">
        <ele>47</ele>
        <time>2022-05-22T11:32:38Z</time>
      </trkpt>
      <trkpt lat="48.37457" lon="2.86852">
        <ele>47</ele>
        <time>2022-05-22T11:32:43Z</time>
      </trkpt>
      <trkpt lat="48.37459" lon="2.86865">
        <ele>47</ele>
        <time>2022-05-22T11:32:45Z</time>
      </trkpt>
      <trkpt lat="48.37494" lon="2.8697">
        <ele>51</ele>
        <time>2022-05-22T11:32:58Z</time>
      </trkpt>
      <trkpt lat="48.37509" lon="2.87032">
        <ele>52</ele>
        <time>2022-05-22T11:33:06Z</time>
      </trkpt>
      <trkpt lat="48.37531" lon="2.8709">
        <ele>50</ele>
        <time>2022-05-22T11:33:14Z</time>
      </trkpt>
      <trkpt lat="48.37532" lon="2.87109">
        <ele>49</ele>
        <time>2022-05-22T11:33:16Z</time>
      </trkpt>
      <trkpt lat="48.37548" lon="2.87175">
        <ele>48</ele>
        <time>2022-05-22T11:33:25Z</time>
      </trkpt>
      <trkpt lat="48.37563" lon="2.87256">
        <ele>48</ele>
        <time>2022-05-22T11:33:35Z</time>
      </trkpt>
      <trkpt lat="48.37569" lon="2.87315">
        <ele>48</ele>
        <time>2022-05-22T11:33:42Z</time>
      </trkpt>
      <trkpt lat="48.37578" lon="2.87346">
        <ele>47</ele>
        <time>2022-05-22T11:33:46Z</time>
      </trkpt>
      <trkpt lat="48.37592" lon="2.87422">
        <ele>48</ele>
        <time>2022-05-22T11:33:55Z</time>
      </trkpt>
      <trkpt lat="48.37591" lon="2.87439">
        <ele>48</ele>
        <time>2022-05-22T11:33:57Z</time>
      </trkpt>
      <trkpt lat="48.37607" lon="2.87556">
        <ele>50</ele>
        <time>2022-05-22T11:34:11Z</time>
      </trkpt>
      <trkpt lat="48.3761" lon="2.87602">
        <ele>50</ele>
        <time>2022-05-22T11:34:17Z</time>
      </trkpt>
      <trkpt lat="48.37607" lon="2.87618">
        <ele>50</ele>
        <time>2022-05-22T11:34:19Z</time>
      </trkpt>
      <trkpt lat="48.37613" lon="2.87682">
        <ele>51</ele>
        <time>2022-05-22T11:34:26Z</time>
      </trkpt>
      <trkpt lat="48.37607" lon="2.87635">
        <ele>50</ele>
        <time>2022-05-22T11:34:32Z</time>
      </trkpt>
      <trkpt lat="48.37607" lon="2.87619">
        <ele>50</ele>
        <time>2022-05-22T11:34:34Z</time>
      </trkpt>
      <trkpt lat="48.37613" lon="2.87607">
        <ele>51</ele>
        <time>2022-05-22T11:34:35Z</time>
      </trkpt>
      <trkpt lat="48.37631" lon="2.87601">
        <ele>53</ele>
        <time>2022-05-22T11:34:39Z</time>
      </trkpt>
      <trkpt lat="48.37641" lon="2.87604">
        <ele>54</ele>
        <time>2022-05-22T11:34:41Z</time>
      </trkpt>
      <trkpt lat="48.37646" lon="2.87651">
        <ele>55</ele>
        <time>2022-05-22T11:34:46Z</time>
      </trkpt>
      <trkpt lat="48.3765" lon="2.87732">
        <ele>55</ele>
        <time>2022-05-22T11:34:56Z</time>
      </trkpt>
      <trkpt lat="48.37649" lon="2.87784">
        <ele>57</ele>
        <time>2022-05-22T11:35:02Z</time>
      </trkpt>
      <trkpt lat="48.37652" lon="2.87831">
        <ele>60</ele>
        <time>2022-05-22T11:35:08Z</time>
      </trkpt>
      <trkpt lat="48.37651" lon="2.87876">
        <ele>59</ele>
        <time>2022-05-22T11:35:13Z</time>
      </trkpt>
      <trkpt lat="48.37654" lon="2.87995">
        <ele>61</ele>
        <time>2022-05-22T11:35:27Z</time>
      </trkpt>
      <trkpt lat="48.37652" lon="2.88044">
        <ele>62</ele>
        <time>2022-05-22T11:35:33Z</time>
      </trkpt>
      <trkpt lat="48.37632" lon="2.88224">
        <ele>59</ele>
        <time>2022-05-22T11:35:54Z</time>
      </trkpt>
      <trkpt lat="48.37626" lon="2.88433">
        <ele>55</ele>
        <time>2022-05-22T11:36:19Z</time>
      </trkpt>
      <trkpt lat="48.3763" lon="2.88503">
        <ele>55</ele>
        <time>2022-05-22T11:36:27Z</time>
      </trkpt>
      <trkpt lat="48.37642" lon="2.88616">
        <ele>55</ele>
        <time>2022-05-22T11:36:41Z</time>
      </trkpt>
      <trkpt lat="48.37666" lon="2.88742">
        <ele>52</ele>
        <time>2022-05-22T11:36:56Z</time>
      </trkpt>
      <trkpt lat="48.37794" lon="2.89193">
        <ele>62</ele>
        <time>2022-05-22T11:37:54Z</time>
      </trkpt>
      <trkpt lat="48.37863" lon="2.8954">
        <ele>55</ele>
        <time>2022-05-22T11:38:37Z</time>
      </trkpt>
      <trkpt lat="48.37953" lon="2.89865">
        <ele>60</ele>
        <time>2022-05-22T11:39:19Z</time>
      </trkpt>
      <trkpt lat="48.37982" lon="2.90002">
        <ele>59</ele>
        <time>2022-05-22T11:39:36Z</time>
      </trkpt>
      <trkpt lat="48.38004" lon="2.9012">
        <ele>58</ele>
        <time>2022-05-22T11:39:50Z</time>
      </trkpt>
      <trkpt lat="48.38017" lon="2.90237">
        <ele>56</ele>
        <time>2022-05-22T11:40:04Z</time>
      </trkpt>
      <trkpt lat="48.3802" lon="2.90304">
        <ele>54</ele>
        <time>2022-05-22T11:40:12Z</time>
      </trkpt>
      <trkpt lat="48.38028" lon="2.90351">
        <ele>54</ele>
        <time>2022-05-22T11:40:18Z</time>
      </trkpt>
      <trkpt lat="48.38113" lon="2.90665">
        <ele>55</ele>
        <time>2022-05-22T11:40:58Z</time>
      </trkpt>
      <trkpt lat="48.3816" lon="2.90821">
        <ele>56</ele>
        <time>2022-05-22T11:41:18Z</time>
      </trkpt>
      <trkpt lat="48.38187" lon="2.9092">
        <ele>57</ele>
        <time>2022-05-22T11:41:31Z</time>
      </trkpt>
      <trkpt lat="48.38246" lon="2.9109">
        <ele>60</ele>
        <time>2022-05-22T11:41:54Z</time>
      </trkpt>
      <trkpt lat="48.38283" lon="2.91225">
        <ele>58</ele>
        <time>2022-05-22T11:42:11Z</time>
      </trkpt>
      <trkpt lat="48.38342" lon="2.91421">
        <ele>58</ele>
        <time>2022-05-22T11:42:36Z</time>
      </trkpt>
      <trkpt lat="48.38387" lon="2.91591">
        <ele>57</ele>
        <time>2022-05-22T11:42:58Z</time>
      </trkpt>
      <trkpt lat="48.38411" lon="2.91666">
        <ele>55</ele>
        <time>2022-05-22T11:43:08Z</time>
      </trkpt>
      <trkpt lat="48.38421" lon="2.91709">
        <ele>55</ele>
        <time>2022-05-22T11:43:13Z</time>
      </trkpt>
      <trkpt lat="48.38479" lon="2.91905">
        <ele>61</ele>
        <time>2022-05-22T11:43:38Z</time>
      </trkpt>
      <trkpt lat="48.38491" lon="2.91975">
        <ele>59</ele>
        <time>2022-05-22T11:43:47Z</time>
      </trkpt>
      <trkpt lat="48.38496" lon="2.92068">
        <ele>56</ele>
        <time>2022-05-22T11:43:58Z</time>
      </trkpt>
      <trkpt lat="48.38495" lon="2.92083">
        <ele>55</ele>
        <time>2022-05-22T11:44:00Z</time>
      </trkpt>
      <trkpt lat="48.38499" lon="2.92127">
        <ele>54</ele>
        <time>2022-05-22T11:44:05Z</time>
      </trkpt>
      <trkpt lat="48.38514" lon="2.92197">
        <ele>54</ele>
        <time>2022-05-22T11:44:14Z</time>
      </trkpt>
      <trkpt lat="48.3859" lon="2.92386">
        <ele>53</ele>
        <time>2022-05-22T11:44:40Z</time>
      </trkpt>
      <trkpt lat="48.38614" lon="2.9244">
        <ele>54</ele>
        <time>2022-05-22T11:44:47Z</time>
      </trkpt>
      <trkpt lat="48.3867" lon="2.92536">
        <ele>53</ele>
        <time>2022-05-22T11:45:03Z</time>
      </trkpt>
      <trkpt lat="48.38679" lon="2.92546">
        <ele>54</ele>
        <time>2022-05-22T11:45:05Z</time>
      </trkpt>
      <trkpt lat="48.38739" lon="2.92637">
        <ele>56</ele>
        <time>2022-05-22T11:45:20Z</time>
      </trkpt>
      <trkpt lat="48.38768" lon="2.92693">
        <ele>57</ele>
        <time>2022-05-22T11:45:28Z</time>
      </trkpt>
      <trkpt lat="48.38799" lon="2.92777">
        <ele>57</ele>
        <time>2022-05-22T11:45:39Z</time>
      </trkpt>
      <trkpt lat="48.3882" lon="2.92857">
        <ele>54</ele>
        <time>2022-05-22T11:45:50Z</time>
      </trkpt>
      <trkpt lat="48.38839" lon="2.92912">
        <ele>52</ele>
        <time>2022-05-22T11:45:57Z</time>
      </trkpt>
      <trkpt lat="48.3885" lon="2.92956">
        <ele>54</ele>
        <time>2022-05-22T11:46:03Z</time>
      </trkpt>
      <trkpt lat="48.3886" lon="2.93013">
        <ele>54</ele>
        <time>2022-05-22T11:46:09Z</time>
      </trkpt>
      <trkpt lat="48.38876" lon="2.93133">
        <ele>55</ele>
        <time>2022-05-22T11:46:24Z</time>
      </trkpt>
      <trkpt lat="48.38907" lon="2.93318">
        <ele>55</ele>
        <time>2022-05-22T11:46:47Z</time>
      </trkpt>
      <trkpt lat="48.38931" lon="2.93428">
        <ele>55</ele>
        <time>2022-05-22T11:47:00Z</time>
      </trkpt>
      <trkpt lat="48.38936" lon="2.93458">
        <ele>56</ele>
        <time>2022-05-22T11:47:04Z</time>
      </trkpt>
      <trkpt lat="48.38939" lon="2.93515">
        <ele>57</ele>
        <time>2022-05-22T11:47:11Z</time>
      </trkpt>
      <trkpt lat="48.3893" lon="2.93606">
        <ele>58</ele>
        <time>2022-05-22T11:47:21Z</time>
      </trkpt>
      <trkpt lat="48.3893" lon="2.93677">
        <ele>58</ele>
        <time>2022-05-22T11:47:30Z</time>
      </trkpt>
      <trkpt lat="48.38942" lon="2.93764">
        <ele>56</ele>
        <time>2022-05-22T11:47:40Z</time>
      </trkpt>
      <trkpt lat="48.38956" lon="2.93938">
        <ele>55</ele>
        <time>2022-05-22T11:48:01Z</time>
      </trkpt>
      <trkpt lat="48.38955" lon="2.93966">
        <ele>56</ele>
        <time>2022-05-22T11:48:04Z</time>
      </trkpt>
      <trkpt lat="48.38961" lon="2.94038">
        <ele>56</ele>
        <time>2022-05-22T11:48:13Z</time>
      </trkpt>
      <trkpt lat="48.38963" lon="2.94095">
        <ele>56</ele>
        <time>2022-05-22T11:48:20Z</time>
      </trkpt>
      <trkpt lat="48.38961" lon="2.94131">
        <ele>55</ele>
        <time>2022-05-22T11:48:24Z</time>
      </trkpt>
      <trkpt lat="48.38961" lon="2.94282">
        <ele>54</ele>
        <time>2022-05-22T11:48:42Z</time>
      </trkpt>
      <trkpt lat="48.38974" lon="2.94446">
        <ele>52</ele>
        <time>2022-05-22T11:49:01Z</time>
      </trkpt>
      <trkpt lat="48.38979" lon="2.9463">
        <ele>53</ele>
        <time>2022-05-22T11:49:23Z</time>
      </trkpt>
      <trkpt lat="48.38983" lon="2.94695">
        <ele>54</ele>
        <time>2022-05-22T11:49:31Z</time>
      </trkpt>
      <trkpt lat="48.38983" lon="2.94745">
        <ele>56</ele>
        <time>2022-05-22T11:49:37Z</time>
      </trkpt>
      <trkpt lat="48.3899" lon="2.94807">
        <ele>55</ele>
        <time>2022-05-22T11:49:44Z</time>
      </trkpt>
      <trkpt lat="48.39001" lon="2.94952">
        <ele>57</ele>
        <time>2022-05-22T11:50:01Z</time>
      </trkpt>
      <trkpt lat="48.38986" lon="2.9535">
        <ele>55</ele>
        <time>2022-05-22T11:50:48Z</time>
      </trkpt>
      <trkpt lat="48.38976" lon="2.95527">
        <ele>56</ele>
        <time>2022-05-22T11:51:09Z</time>
      </trkpt>
      <trkpt lat="48.38975" lon="2.956">
        <ele>57</ele>
        <time>2022-05-22T11:51:18Z</time>
      </trkpt>
      <trkpt lat="48.38944" lon="2.95764">
        <ele>56</ele>
        <time>2022-05-22T11:51:38Z</time>
      </trkpt>
      <trkpt lat="48.38937" lon="2.95815">
        <ele>54</ele>
        <time>2022-05-22T11:51:44Z</time>
      </trkpt>
      <trkpt lat="48.38936" lon="2.9586">
        <ele>52</ele>
        <time>2022-05-22T11:51:50Z</time>
      </trkpt>
      <trkpt lat="48.38939" lon="2.95967">
        <ele>52</ele>
        <time>2022-05-22T11:52:02Z</time>
      </trkpt>
      <trkpt lat="48.38947" lon="2.95977">
        <ele>54</ele>
        <time>2022-05-22T11:52:04Z</time>
      </trkpt>
      <trkpt lat="48.38968" lon="2.95971">
        <ele>57</ele>
        <time>2022-05-22T11:52:08Z</time>
      </trkpt>
      <trkpt lat="48.38976" lon="2.95977">
        <ele>58</ele>
        <time>2022-05-22T11:52:10Z</time>
      </trkpt>
      <trkpt lat="48.3898" lon="2.96027">
        <ele>59</ele>
        <time>2022-05-22T11:52:16Z</time>
      </trkpt>
      <trkpt lat="48.3899" lon="2.96094">
        <ele>60</ele>
        <time>2022-05-22T11:52:24Z</time>
      </trkpt>
      <trkpt lat="48.38989" lon="2.96111">
        <ele>60</ele>
        <time>2022-05-22T11:52:26Z</time>
      </trkpt>
      <trkpt lat="48.38992" lon="2.96126">
        <ele>60</ele>
        <time>2022-05-22T11:52:28Z</time>
      </trkpt>
      <trkpt lat="48.39004" lon="2.9615">
        <ele>62</ele>
        <time>2022-05-22T11:52:31Z</time>
      </trkpt>
      <trkpt lat="48.39005" lon="2.9618">
        <ele>61</ele>
        <time>2022-05-22T11:52:35Z</time>
      </trkpt>
      <trkpt lat="48.39011" lon="2.96194">
        <ele>61</ele>
        <time>2022-05-22T11:52:37Z</time>
      </trkpt>
      <trkpt lat="48.39008" lon="2.96208">
        <ele>59</ele>
        <time>2022-05-22T11:52:38Z</time>
      </trkpt>
      <trkpt lat="48.38988" lon="2.9622">
        <ele>55</ele>
        <time>2022-05-22T11:52:42Z</time>
      </trkpt>
      <trkpt lat="48.38985" lon="2.96235">
        <ele>54</ele>
        <time>2022-05-22T11:52:44Z</time>
      </trkpt>
      <trkpt lat="48.38988" lon="2.96248">
        <ele>54</ele>
        <time>2022-05-22T11:52:46Z</time>
      </trkpt>
      <trkpt lat="48.39002" lon="2.96288">
        <ele>52</ele>
        <time>2022-05-22T11:52:51Z</time>
      </trkpt>
      <trkpt lat="48.39056" lon="2.96392">
        <ele>52</ele>
        <time>2022-05-22T11:53:07Z</time>
      </trkpt>
      <trkpt lat="48.3908" lon="2.96424">
        <ele>52</ele>
        <time>2022-05-22T11:53:12Z</time>
      </trkpt>
      <trkpt lat="48.39109" lon="2.96476">
        <ele>53</ele>
        <time>2022-05-22T11:53:20Z</time>
      </trkpt>
      <trkpt lat="48.3914" lon="2.96517">
        <ele>52</ele>
        <time>2022-05-22T11:53:28Z</time>
      </trkpt>
      <trkpt lat="48.39153" lon="2.96546">
        <ele>51</ele>
        <time>2022-05-22T11:53:32Z</time>
      </trkpt>
      <trkpt lat="48.39176" lon="2.96586">
        <ele>50</ele>
        <time>2022-05-22T11:53:38Z</time>
      </trkpt>
      <trkpt lat="48.39188" lon="2.96615">
        <ele>50</ele>
        <time>2022-05-22T11:53:42Z</time>
      </trkpt>
      <trkpt lat="48.39204" lon="2.96676">
        <ele>50</ele>
        <time>2022-05-22T11:53:50Z</time>
      </trkpt>
      <trkpt lat="48.3921" lon="2.96686">
        <ele>49</ele>
        <time>2022-05-22T11:53:51Z</time>
      </trkpt>
      <trkpt lat="48.39221" lon="2.96687">
        <ele>50</ele>
        <time>2022-05-22T11:53:53Z</time>
      </trkpt>
      <trkpt lat="48.39234" lon="2.96665">
        <ele>51</ele>
        <time>2022-05-22T11:53:57Z</time>
      </trkpt>
      <trkpt lat="48.39244" lon="2.9666">
        <ele>51</ele>
        <time>2022-05-22T11:53:59Z</time>
      </trkpt>
      <trkpt lat="48.39264" lon="2.96664">
        <ele>51</ele>
        <time>2022-05-22T11:54:02Z</time>
      </trkpt>
      <trkpt lat="48.39289" lon="2.96689">
        <ele>51</ele>
        <time>2022-05-22T11:54:08Z</time>
      </trkpt>
      <trkpt lat="48.39332" lon="2.96759">
        <ele>50</ele>
        <time>2022-05-22T11:54:19Z</time>
      </trkpt>
      <trkpt lat="48.39388" lon="2.96831">
        <ele>51</ele>
        <time>2022-05-22T11:54:32Z</time>
      </trkpt>
      <trkpt lat="48.39403" lon="2.96813">
        <ele>51</ele>
        <time>2022-05-22T11:54:35Z</time>
      </trkpt>
      <trkpt lat="48.39418" lon="2.96842">
        <ele>51</ele>
        <time>2022-05-22T11:54:40Z</time>
      </trkpt>
      <trkpt lat="48.39427" lon="2.96852">
        <ele>51</ele>
        <time>2022-05-22T11:54:42Z</time>
      </trkpt>
      <trkpt lat="48.39435" lon="2.96866">
        <ele>51</ele>
        <time>2022-05-22T11:54:44Z</time>
      </trkpt>
      <trkpt lat="48.39682" lon="2.97346">
        <ele>49</ele>
        <time>2022-05-22T11:55:56Z</time>
      </trkpt>
      <trkpt lat="48.39754" lon="2.9748">
        <ele>50</ele>
        <time>2022-05-22T11:56:16Z</time>
      </trkpt>
      <trkpt lat="48.39782" lon="2.97538">
        <ele>50</ele>
        <time>2022-05-22T11:56:25Z</time>
      </trkpt>
      <trkpt lat="48.39818" lon="2.97634">
        <ele>52</ele>
        <time>2022-05-22T11:56:38Z</time>
      </trkpt>
      <trkpt lat="48.39852" lon="2.9771">
        <ele>53</ele>
        <time>2022-05-22T11:56:48Z</time>
      </trkpt>
      <trkpt lat="48.39852" lon="2.9774">
        <ele>52</ele>
        <time>2022-05-22T11:56:52Z</time>
      </trkpt>
      <trkpt lat="48.39857" lon="2.97755">
        <ele>52</ele>
        <time>2022-05-22T11:56:54Z</time>
      </trkpt>
      <trkpt lat="48.39853" lon="2.97785">
        <ele>52</ele>
        <time>2022-05-22T11:56:58Z</time>
      </trkpt>
      <trkpt lat="48.39855" lon="2.97805">
        <ele>52</ele>
        <time>2022-05-22T11:57:00Z</time>
      </trkpt>
      <trkpt lat="48.39861" lon="2.97816">
        <ele>52</ele>
        <time>2022-05-22T11:57:02Z</time>
      </trkpt>
      <trkpt lat="48.39869" lon="2.97824">
        <ele>52</ele>
        <time>2022-05-22T11:57:03Z</time>
      </trkpt>
      <trkpt lat="48.39882" lon="2.97829">
        <ele>52</ele>
        <time>2022-05-22T11:57:06Z</time>
      </trkpt>
      <trkpt lat="48.39892" lon="2.97842">
        <ele>52</ele>
        <time>2022-05-22T11:57:08Z</time>
      </trkpt>
      <trkpt lat="48.39896" lon="2.9786">
        <ele>52</ele>
        <time>2022-05-22T11:57:10Z</time>
      </trkpt>
      <trkpt lat="48.3993" lon="2.97929">
        <ele>52</ele>
        <time>2022-05-22T11:57:20Z</time>
      </trkpt>
      <trkpt lat="48.39974" lon="2.98035">
        <ele>54</ele>
        <time>2022-05-22T11:57:35Z</time>
      </trkpt>
      <trkpt lat="48.4" lon="2.98109">
        <ele>54</ele>
        <time>2022-05-22T11:57:45Z</time>
      </trkpt>
      <trkpt lat="48.40032" lon="2.98187">
        <ele>56</ele>
        <time>2022-05-22T11:57:56Z</time>
      </trkpt>
      <trkpt lat="48.40034" lon="2.98201">
        <ele>56</ele>
        <time>2022-05-22T11:57:58Z</time>
      </trkpt>
      <trkpt lat="48.40028" lon="2.98212">
        <ele>55</ele>
        <time>2022-05-22T11:57:59Z</time>
      </trkpt>
      <trkpt lat="48.40029" lon="2.98227">
        <ele>55</ele>
        <time>2022-05-22T11:58:01Z</time>
      </trkpt>
      <trkpt lat="48.40048" lon="2.98238">
        <ele>56</ele>
        <time>2022-05-22T11:58:05Z</time>
      </trkpt>
      <trkpt lat="48.40055" lon="2.98247">
        <ele>56</ele>
        <time>2022-05-22T11:58:06Z</time>
      </trkpt>
      <trkpt lat="48.4009" lon="2.9833">
        <ele>58</ele>
        <time>2022-05-22T11:58:18Z</time>
      </trkpt>
      <trkpt lat="48.40191" lon="2.98586">
        <ele>66</ele>
        <time>2022-05-22T11:58:53Z</time>
      </trkpt>
      <trkpt lat="48.4022" lon="2.98655">
        <ele>68</ele>
        <time>2022-05-22T11:59:03Z</time>
      </trkpt>
      <trkpt lat="48.40227" lon="2.98667">
        <ele>68</ele>
        <time>2022-05-22T11:59:05Z</time>
      </trkpt>
      <trkpt lat="48.40231" lon="2.98681">
        <ele>68</ele>
        <time>2022-05-22T11:59:06Z</time>
      </trkpt>
      <trkpt lat="48.40229" lon="2.98712">
        <ele>67</ele>
        <time>2022-05-22T11:59:10Z</time>
      </trkpt>
      <trkpt lat="48.40212" lon="2.98773">
        <ele>65</ele>
        <time>2022-05-22T11:59:18Z</time>
      </trkpt>
      <trkpt lat="48.4019" lon="2.98829">
        <ele>63</ele>
        <time>2022-05-22T11:59:26Z</time>
      </trkpt>
      <trkpt lat="48.40122" lon="2.98985">
        <ele>54</ele>
        <time>2022-05-22T11:59:48Z</time>
      </trkpt>
      <trkpt lat="48.40096" lon="2.9905">
        <ele>52</ele>
        <time>2022-05-22T11:59:57Z</time>
      </trkpt>
      <trkpt lat="48.40088" lon="2.99078">
        <ele>52</ele>
        <time>2022-05-22T12:00:00Z</time>
      </trkpt>
      <trkpt lat="48.40052" lon="2.99165">
        <ele>51</ele>
        <time>2022-05-22T12:00:12Z</time>
      </trkpt>
      <trkpt lat="48.40026" lon="2.99266">
        <ele>50</ele>
        <time>2022-05-22T12:00:25Z</time>
      </trkpt>
      <trkpt lat="48.40019" lon="2.99275">
        <ele>50</ele>
        <time>2022-05-22T12:00:27Z</time>
      </trkpt>
      <trkpt lat="48.40016" lon="2.99304">
        <ele>51</ele>
        <time>2022-05-22T12:00:30Z</time>
      </trkpt>
      <trkpt lat="48.39998" lon="2.99381">
        <ele>54</ele>
        <time>2022-05-22T12:00:40Z</time>
      </trkpt>
      <trkpt lat="48.39963" lon="2.99482">
        <ele>58</ele>
        <time>2022-05-22T12:00:53Z</time>
      </trkpt>
      <trkpt lat="48.39885" lon="2.99724">
        <ele>60</ele>
        <time>2022-05-22T12:01:25Z</time>
      </trkpt>
      <trkpt lat="48.39853" lon="2.99835">
        <ele>61</ele>
        <time>2022-05-22T12:01:39Z</time>
      </trkpt>
      <trkpt lat="48.39786" lon="3.00033">
        <ele>57</ele>
        <time>2022-05-22T12:02:06Z</time>
      </trkpt>
      <trkpt lat="48.39774" lon="3.00071">
        <ele>56</ele>
        <time>2022-05-22T12:02:11Z</time>
      </trkpt>
      <trkpt lat="48.39766" lon="3.0011">
        <ele>55</ele>
        <time>2022-05-22T12:02:16Z</time>
      </trkpt>
      <trkpt lat="48.39762" lon="3.00169">
        <ele>55</ele>
        <time>2022-05-22T12:02:23Z</time>
      </trkpt>
      <trkpt lat="48.39762" lon="3.00282">
        <ele>59</ele>
        <time>2022-05-22T12:02:36Z</time>
      </trkpt>
      <trkpt lat="48.39759" lon="3.00388">
        <ele>57</ele>
        <time>2022-05-22T12:02:48Z</time>
      </trkpt>
      <trkpt lat="48.39761" lon="3.00656">
        <ele>54</ele>
        <time>2022-05-22T12:03:20Z</time>
      </trkpt>
      <trkpt lat="48.39758" lon="3.00876">
        <ele>54</ele>
        <time>2022-05-22T12:03:46Z</time>
      </trkpt>
      <trkpt lat="48.39758" lon="3.01107">
        <ele>55</ele>
        <time>2022-05-22T12:04:13Z</time>
      </trkpt>
      <trkpt lat="48.3976" lon="3.01204">
        <ele>57</ele>
        <time>2022-05-22T12:04:25Z</time>
      </trkpt>
      <trkpt lat="48.39751" lon="3.01343">
        <ele>56</ele>
        <time>2022-05-22T12:04:41Z</time>
      </trkpt>
      <trkpt lat="48.39721" lon="3.01642">
        <ele>57</ele>
        <time>2022-05-22T12:05:17Z</time>
      </trkpt>
      <trkpt lat="48.3972" lon="3.01692">
        <ele>56</ele>
        <time>2022-05-22T12:05:23Z</time>
      </trkpt>
      <trkpt lat="48.39743" lon="3.02037">
        <ele>59</ele>
        <time>2022-05-22T12:06:04Z</time>
      </trkpt>
      <trkpt lat="48.39764" lon="3.02195">
        <ele>60</ele>
        <time>2022-05-22T12:06:23Z</time>
      </trkpt>
      <trkpt lat="48.39792" lon="3.02376">
        <ele>59</ele>
        <time>2022-05-22T12:06:45Z</time>
      </trkpt>
      <trkpt lat="48.39813" lon="3.02437">
        <ele>58</ele>
        <time>2022-05-22T12:06:53Z</time>
      </trkpt>
      <trkpt lat="48.39891" lon="3.02634">
        <ele>59</ele>
        <time>2022-05-22T12:07:20Z</time>
      </trkpt>
      <trkpt lat="48.39915" lon="3.02703">
        <ele>58</ele>
        <time>2022-05-22T12:07:29Z</time>
      </trkpt>
      <trkpt lat="48.39949" lon="3.02835">
        <ele>55</ele>
        <time>2022-05-22T12:07:46Z</time>
      </trkpt>
      <trkpt lat="48.39955" lon="3.02845">
        <ele>56</ele>
        <time>2022-05-22T12:07:48Z</time>
      </trkpt>
      <trkpt lat="48.39955" lon="3.02859">
        <ele>55</ele>
        <time>2022-05-22T12:07:49Z</time>
      </trkpt>
      <trkpt lat="48.39974" lon="3.02937">
        <ele>55</ele>
        <time>2022-05-22T12:07:59Z</time>
      </trkpt>
      <trkpt lat="48.39986" lon="3.02969">
        <ele>54</ele>
        <time>2022-05-22T12:08:03Z</time>
      </trkpt>
      <trkpt lat="48.40019" lon="3.03021">
        <ele>54</ele>
        <time>2022-05-22T12:08:12Z</time>
      </trkpt>
      <trkpt lat="48.40106" lon="3.03124">
        <ele>58</ele>
        <time>2022-05-22T12:08:32Z</time>
      </trkpt>
      <trkpt lat="48.40147" lon="3.03184">
        <ele>58</ele>
        <time>2022-05-22T12:08:42Z</time>
      </trkpt>
      <trkpt lat="48.40195" lon="3.03271">
        <ele>60</ele>
        <time>2022-05-22T12:08:55Z</time>
      </trkpt>
      <trkpt lat="48.40226" lon="3.03345">
        <ele>60</ele>
        <time>2022-05-22T12:09:05Z</time>
      </trkpt>
      <trkpt lat="48.40239" lon="3.03388">
        <ele>59</ele>
        <time>2022-05-22T12:09:11Z</time>
      </trkpt>
      <trkpt lat="48.40302" lon="3.03614">
        <ele>61</ele>
        <time>2022-05-22T12:09:40Z</time>
      </trkpt>
      <trkpt lat="48.40344" lon="3.03775">
        <ele>60</ele>
        <time>2022-05-22T12:10:00Z</time>
      </trkpt>
      <trkpt lat="48.40365" lon="3.03865">
        <ele>58</ele>
        <time>2022-05-22T12:10:12Z</time>
      </trkpt>
      <trkpt lat="48.40382" lon="3.0392">
        <ele>58</ele>
        <time>2022-05-22T12:10:19Z</time>
      </trkpt>
      <trkpt lat="48.4039" lon="3.03963">
        <ele>58</ele>
        <time>2022-05-22T12:10:24Z</time>
      </trkpt>
      <trkpt lat="48.40402" lon="3.0401">
        <ele>58</ele>
        <time>2022-05-22T12:10:30Z</time>
      </trkpt>
      <trkpt lat="48.4045" lon="3.04241">
        <ele>56</ele>
        <time>2022-05-22T12:10:59Z</time>
      </trkpt>
      <trkpt lat="48.4048" lon="3.04401">
        <ele>57</ele>
        <time>2022-05-22T12:11:18Z</time>
      </trkpt>
      <trkpt lat="48.40504" lon="3.0451">
        <ele>58</ele>
        <time>2022-05-22T12:11:32Z</time>
      </trkpt>
      <trkpt lat="48.40511" lon="3.04555">
        <ele>58</ele>
        <time>2022-05-22T12:11:37Z</time>
      </trkpt>
      <trkpt lat="48.40576" lon="3.04881">
        <ele>56</ele>
        <time>2022-05-22T12:12:18Z</time>
      </trkpt>
      <trkpt lat="48.40676" lon="3.05337">
        <ele>55</ele>
        <time>2022-05-22T12:13:14Z</time>
      </trkpt>
      <trkpt lat="48.40698" lon="3.05455">
        <ele>56</ele>
        <time>2022-05-22T12:13:29Z</time>
      </trkpt>
      <trkpt lat="48.40721" lon="3.05603">
        <ele>56</ele>
        <time>2022-05-22T12:13:47Z</time>
      </trkpt>
      <trkpt lat="48.40764" lon="3.05791">
        <ele>55</ele>
        <time>2022-05-22T12:14:10Z</time>
      </trkpt>
      <trkpt lat="48.4079" lon="3.05886">
        <ele>55</ele>
        <time>2022-05-22T12:14:22Z</time>
      </trkpt>
      <trkpt lat="48.40824" lon="3.06032">
        <ele>55</ele>
        <time>2022-05-22T12:14:41Z</time>
      </trkpt>
      <trkpt lat="48.40842" lon="3.06093">
        <ele>55</ele>
        <time>2022-05-22T12:14:49Z</time>
      </trkpt>
      <trkpt lat="48.40884" lon="3.062">
        <ele>56</ele>
        <time>2022-05-22T12:15:03Z</time>
      </trkpt>
      <trkpt lat="48.4098" lon="3.06417">
        <ele>58</ele>
        <time>2022-05-22T12:15:34Z</time>
      </trkpt>
      <trkpt lat="48.41028" lon="3.06533">
        <ele>57</ele>
        <time>2022-05-22T12:15:50Z</time>
      </trkpt>
      <trkpt lat="48.41059" lon="3.06599">
        <ele>57</ele>
        <time>2022-05-22T12:16:00Z</time>
      </trkpt>
      <trkpt lat="48.4116" lon="3.06843">
        <ele>52</ele>
        <time>2022-05-22T12:16:34Z</time>
      </trkpt>
      <trkpt lat="48.41201" lon="3.06965">
        <ele>51</ele>
        <time>2022-05-22T12:16:50Z</time>
      </trkpt>
      <trkpt lat="48.41316" lon="3.07334">
        <ele>50</ele>
        <time>2022-05-22T12:17:38Z</time>
      </trkpt>
      <trkpt lat="48.41326" lon="3.07371">
        <ele>50</ele>
        <time>2022-05-22T12:17:43Z</time>
      </trkpt>
      <trkpt lat="48.41336" lon="3.07431">
        <ele>50</ele>
        <time>2022-05-22T12:17:50Z</time>
      </trkpt>
      <trkpt lat="48.41338" lon="3.07458">
        <ele>50</ele>
        <time>2022-05-22T12:17:53Z</time>
      </trkpt>
      <trkpt lat="48.41337" lon="3.07562">
        <ele>49</ele>
        <time>2022-05-22T12:18:05Z</time>
      </trkpt>
      <trkpt lat="48.4134" lon="3.07603">
        <ele>49</ele>
        <time>2022-05-22T12:18:10Z</time>
      </trkpt>
      <trkpt lat="48.41355" lon="3.07675">
        <ele>50</ele>
        <time>2022-05-22T12:18:19Z</time>
      </trkpt>
      <trkpt lat="48.41493" lon="3.08181">
        <ele>48</ele>
        <time>2022-05-22T12:19:24Z</time>
      </trkpt>
      <trkpt lat="48.41663" lon="3.0882">
        <ele>50</ele>
        <time>2022-05-22T12:20:45Z</time>
      </trkpt>
      <trkpt lat="48.41718" lon="3.09019">
        <ele>51</ele>
        <time>2022-05-22T12:21:11Z</time>
      </trkpt>
      <trkpt lat="48.41728" lon="3.09048">
        <ele>51</ele>
        <time>2022-05-22T12:21:14Z</time>
      </trkpt>
      <trkpt lat="48.41731" lon="3.09066">
        <ele>52</ele>
        <time>2022-05-22T12:21:17Z</time>
      </trkpt>
      <trkpt lat="48.41755" lon="3.09152">
        <ele>50</ele>
        <time>2022-05-22T12:21:28Z</time>
      </trkpt>
      <trkpt lat="48.41827" lon="3.09334">
        <ele>51</ele>
        <time>2022-05-22T12:21:53Z</time>
      </trkpt>
      <trkpt lat="48.41847" lon="3.09379">
        <ele>51</ele>
        <time>2022-05-22T12:21:59Z</time>
      </trkpt>
      <trkpt lat="48.41871" lon="3.09445">
        <ele>51</ele>
        <time>2022-05-22T12:22:08Z</time>
      </trkpt>
      <trkpt lat="48.4191" lon="3.09534">
        <ele>52</ele>
        <time>2022-05-22T12:22:21Z</time>
      </trkpt>
      <trkpt lat="48.41936" lon="3.096">
        <ele>52</ele>
        <time>2022-05-22T12:22:30Z</time>
      </trkpt>
      <trkpt lat="48.41964" lon="3.09659">
        <ele>53</ele>
        <time>2022-05-22T12:22:38Z</time>
      </trkpt>
      <trkpt lat="48.41991" lon="3.09724">
        <ele>52</ele>
        <time>2022-05-22T12:22:47Z</time>
      </trkpt>
      <trkpt lat="48.42013" lon="3.0977">
        <ele>52</ele>
        <time>2022-05-22T12:22:54Z</time>
      </trkpt>
      <trkpt lat="48.42027" lon="3.0979">
        <ele>51</ele>
        <time>2022-05-22T12:22:57Z</time>
      </trkpt>
      <trkpt lat="48.42047" lon="3.09829">
        <ele>51</ele>
        <time>2022-05-22T12:23:03Z</time>
      </trkpt>
      <trkpt lat="48.42127" lon="3.09968">
        <ele>54</ele>
        <time>2022-05-22T12:23:25Z</time>
      </trkpt>
      <trkpt lat="48.42204" lon="3.1015">
        <ele>55</ele>
        <time>2022-05-22T12:23:50Z</time>
      </trkpt>
      <trkpt lat="48.42263" lon="3.1027">
        <ele>57</ele>
        <time>2022-05-22T12:24:08Z</time>
      </trkpt>
      <trkpt lat="48.42319" lon="3.10393">
        <ele>59</ele>
        <time>2022-05-22T12:24:26Z</time>
      </trkpt>
      <trkpt lat="48.42349" lon="3.10441">
        <ele>60</ele>
        <time>2022-05-22T12:24:33Z</time>
      </trkpt>
      <trkpt lat="48.42372" lon="3.10495">
        <ele>60</ele>
        <time>2022-05-22T12:24:41Z</time>
      </trkpt>
      <trkpt lat="48.42405" lon="3.10556">
        <ele>59</ele>
        <time>2022-05-22T12:24:50Z</time>
      </trkpt>
      <trkpt lat="48.42456" lon="3.10663">
        <ele>60</ele>
        <time>2022-05-22T12:25:06Z</time>
      </trkpt>
      <trkpt lat="48.42522" lon="3.10793">
        <ele>61</ele>
        <time>2022-05-22T12:25:25Z</time>
      </trkpt>
      <trkpt lat="48.42614" lon="3.10995">
        <ele>59</ele>
        <time>2022-05-22T12:25:54Z</time>
      </trkpt>
      <trkpt lat="48.42745" lon="3.11272">
        <ele>61</ele>
        <time>2022-05-22T12:26:34Z</time>
      </trkpt>
      <trkpt lat="48.4279" lon="3.11376">
        <ele>61</ele>
        <time>2022-05-22T12:26:49Z</time>
      </trkpt>
      <trkpt lat="48.42834" lon="3.11504">
        <ele>61</ele>
        <time>2022-05-22T12:27:06Z</time>
      </trkpt>
      <trkpt lat="48.42883" lon="3.11633">
        <ele>60</ele>
        <time>2022-05-22T12:27:24Z</time>
      </trkpt>
      <trkpt lat="48.43072" lon="3.12072">
        <ele>59</ele>
        <time>2022-05-22T12:28:25Z</time>
      </trkpt>
      <trkpt lat="48.43193" lon="3.12446">
        <ele>60</ele>
        <time>2022-05-22T12:29:14Z</time>
      </trkpt>
      <trkpt lat="48.43246" lon="3.1262">
        <ele>60</ele>
        <time>2022-05-22T12:29:37Z</time>
      </trkpt>
      <trkpt lat="48.43408" lon="3.13127">
        <ele>53</ele>
        <time>2022-05-22T12:30:43Z</time>
      </trkpt>
      <trkpt lat="48.43432" lon="3.13224">
        <ele>52</ele>
        <time>2022-05-22T12:30:56Z</time>
      </trkpt>
      <trkpt lat="48.43484" lon="3.13468">
        <ele>60</ele>
        <time>2022-05-22T12:31:26Z</time>
      </trkpt>
      <trkpt lat="48.435" lon="3.13527">
        <ele>62</ele>
        <time>2022-05-22T12:31:33Z</time>
      </trkpt>
      <trkpt lat="48.43656" lon="3.13951">
        <ele>68</ele>
        <time>2022-05-22T12:32:31Z</time>
      </trkpt>
      <trkpt lat="48.4369" lon="3.14051">
        <ele>69</ele>
        <time>2022-05-22T12:32:44Z</time>
      </trkpt>
      <trkpt lat="48.43697" lon="3.14064">
        <ele>69</ele>
        <time>2022-05-22T12:32:46Z</time>
      </trkpt>
      <trkpt lat="48.43775" lon="3.14274">
        <ele>69</ele>
        <time>2022-05-22T12:33:14Z</time>
      </trkpt>
      <trkpt lat="48.43932" lon="3.14709">
        <ele>63</ele>
        <time>2022-05-22T12:34:13Z</time>
      </trkpt>
      <trkpt lat="48.4407" lon="3.1508">
        <ele>59</ele>
        <time>2022-05-22T12:35:03Z</time>
      </trkpt>
      <trkpt lat="48.4422" lon="3.15495">
        <ele>52</ele>
        <time>2022-05-22T12:35:59Z</time>
      </trkpt>
      <trkpt lat="48.44394" lon="3.15963">
        <ele>65</ele>
        <time>2022-05-22T12:37:02Z</time>
      </trkpt>
      <trkpt lat="48.44402" lon="3.15991">
        <ele>65</ele>
        <time>2022-05-22T12:37:06Z</time>
      </trkpt>
      <trkpt lat="48.44519" lon="3.16307">
        <ele>63</ele>
        <time>2022-05-22T12:37:48Z</time>
      </trkpt>
      <trkpt lat="48.44551" lon="3.16405">
        <ele>61</ele>
        <time>2022-05-22T12:38:01Z</time>
      </trkpt>
      <trkpt lat="48.44611" lon="3.16604">
        <ele>63</ele>
        <time>2022-05-22T12:38:27Z</time>
      </trkpt>
      <trkpt lat="48.44769" lon="3.17097">
        <ele>62</ele>
        <time>2022-05-22T12:39:32Z</time>
      </trkpt>
      <trkpt lat="48.44897" lon="3.17506">
        <ele>63</ele>
        <time>2022-05-22T12:40:25Z</time>
      </trkpt>
      <trkpt lat="48.44938" lon="3.17628">
        <ele>61</ele>
        <time>2022-05-22T12:40:41Z</time>
      </trkpt>
      <trkpt lat="48.44954" lon="3.17685">
        <ele>58</ele>
        <time>2022-05-22T12:40:49Z</time>
      </trkpt>
      <trkpt lat="48.44958" lon="3.17723">
        <ele>57</ele>
        <time>2022-05-22T12:40:53Z</time>
      </trkpt>
      <trkpt lat="48.44963" lon="3.1774">
        <ele>56</ele>
        <time>2022-05-22T12:40:55Z</time>
      </trkpt>
      <trkpt lat="48.44972" lon="3.17764">
        <ele>56</ele>
        <time>2022-05-22T12:40:59Z</time>
      </trkpt>
      <trkpt lat="48.44983" lon="3.17767">
        <ele>56</ele>
        <time>2022-05-22T12:41:01Z</time>
      </trkpt>
      <trkpt lat="48.44991" lon="3.17778">
        <ele>56</ele>
        <time>2022-05-22T12:41:02Z</time>
      </trkpt>
      <trkpt lat="48.44995" lon="3.17813">
        <ele>57</ele>
        <time>2022-05-22T12:41:07Z</time>
      </trkpt>
      <trkpt lat="48.45068" lon="3.18045">
        <ele>63</ele>
        <time>2022-05-22T12:41:37Z</time>
      </trkpt>
      <trkpt lat="48.45115" lon="3.18181">
        <ele>64</ele>
        <time>2022-05-22T12:41:55Z</time>
      </trkpt>
      <trkpt lat="48.45422" lon="3.1903">
        <ele>67</ele>
        <time>2022-05-22T12:43:49Z</time>
      </trkpt>
      <trkpt lat="48.45467" lon="3.19151">
        <ele>65</ele>
        <time>2022-05-22T12:44:06Z</time>
      </trkpt>
      <trkpt lat="48.45505" lon="3.19241">
        <ele>66</ele>
        <time>2022-05-22T12:44:18Z</time>
      </trkpt>
      <trkpt lat="48.45577" lon="3.19372">
        <ele>64</ele>
        <time>2022-05-22T12:44:38Z</time>
      </trkpt>
      <trkpt lat="48.45929" lon="3.19994">
        <ele>58</ele>
        <time>2022-05-22T12:46:15Z</time>
      </trkpt>
      <trkpt lat="48.45956" lon="3.20052">
        <ele>57</ele>
        <time>2022-05-22T12:46:23Z</time>
      </trkpt>
      <trkpt lat="48.46038" lon="3.2026">
        <ele>57</ele>
        <time>2022-05-22T12:46:52Z</time>
      </trkpt>
      <trkpt lat="48.46047" lon="3.2029">
        <ele>58</ele>
        <time>2022-05-22T12:46:55Z</time>
      </trkpt>
      <trkpt lat="48.46089" lon="3.2039">
        <ele>57</ele>
        <time>2022-05-22T12:47:09Z</time>
      </trkpt>
      <trkpt lat="48.46228" lon="3.20757">
        <ele>64</ele>
        <time>2022-05-22T12:47:59Z</time>
      </trkpt>
      <trkpt lat="48.46286" lon="3.2095">
        <ele>64</ele>
        <time>2022-05-22T12:48:24Z</time>
      </trkpt>
      <trkpt lat="48.46343" lon="3.21154">
        <ele>64</ele>
        <time>2022-05-22T12:48:50Z</time>
      </trkpt>
      <trkpt lat="48.46447" lon="3.2151">
        <ele>68</ele>
        <time>2022-05-22T12:49:36Z</time>
      </trkpt>
      <trkpt lat="48.46466" lon="3.21586">
        <ele>68</ele>
        <time>2022-05-22T12:49:46Z</time>
      </trkpt>
      <trkpt lat="48.4648" lon="3.21655">
        <ele>68</ele>
        <time>2022-05-22T12:49:54Z</time>
      </trkpt>
      <trkpt lat="48.46499" lon="3.21788">
        <ele>67</ele>
        <time>2022-05-22T12:50:10Z</time>
      </trkpt>
      <trkpt lat="48.46504" lon="3.21841">
        <ele>67</ele>
        <time>2022-05-22T12:50:17Z</time>
      </trkpt>
      <trkpt lat="48.46536" lon="3.22404">
        <ele>65</ele>
        <time>2022-05-22T12:51:23Z</time>
      </trkpt>
      <trkpt lat="48.46541" lon="3.22453">
        <ele>66</ele>
        <time>2022-05-22T12:51:29Z</time>
      </trkpt>
      <trkpt lat="48.46546" lon="3.22483">
        <ele>66</ele>
        <time>2022-05-22T12:51:33Z</time>
      </trkpt>
      <trkpt lat="48.46573" lon="3.22551">
        <ele>67</ele>
        <time>2022-05-22T12:51:42Z</time>
      </trkpt>
      <trkpt lat="48.46577" lon="3.22566">
        <ele>67</ele>
        <time>2022-05-22T12:51:44Z</time>
      </trkpt>
      <trkpt lat="48.46576" lon="3.22582">
        <ele>67</ele>
        <time>2022-05-22T12:51:46Z</time>
      </trkpt>
      <trkpt lat="48.46571" lon="3.22594">
        <ele>67</ele>
        <time>2022-05-22T12:51:48Z</time>
      </trkpt>
      <trkpt lat="48.46562" lon="3.22602">
        <ele>67</ele>
        <time>2022-05-22T12:51:50Z</time>
      </trkpt>
      <trkpt lat="48.46542" lon="3.2261">
        <ele>68</ele>
        <time>2022-05-22T12:51:53Z</time>
      </trkpt>
      <trkpt lat="48.46534" lon="3.22621">
        <ele>68</ele>
        <time>2022-05-22T12:51:55Z</time>
      </trkpt>
      <trkpt lat="48.46525" lon="3.22627">
        <ele>68</ele>
        <time>2022-05-22T12:51:57Z</time>
      </trkpt>
      <trkpt lat="48.46465" lon="3.22659">
        <ele>69</ele>
        <time>2022-05-22T12:52:08Z</time>
      </trkpt>
      <trkpt lat="48.46419" lon="3.22688">
        <ele>70</ele>
        <time>2022-05-22T12:52:17Z</time>
      </trkpt>
      <trkpt lat="48.46399" lon="3.22702">
        <ele>70</ele>
        <time>2022-05-22T12:52:21Z</time>
      </trkpt>
      <trkpt lat="48.46385" lon="3.22719">
        <ele>70</ele>
        <time>2022-05-22T12:52:24Z</time>
      </trkpt>
      <trkpt lat="48.46377" lon="3.22734">
        <ele>70</ele>
        <time>2022-05-22T12:52:27Z</time>
      </trkpt>
      <trkpt lat="48.46367" lon="3.22762">
        <ele>69</ele>
        <time>2022-05-22T12:52:30Z</time>
      </trkpt>
      <trkpt lat="48.46306" lon="3.23007">
        <ele>70</ele>
        <time>2022-05-22T12:53:01Z</time>
      </trkpt>
      <trkpt lat="48.46292" lon="3.23025">
        <ele>69</ele>
        <time>2022-05-22T12:53:05Z</time>
      </trkpt>
      <trkpt lat="48.46286" lon="3.23039">
        <ele>69</ele>
        <time>2022-05-22T12:53:06Z</time>
      </trkpt>
      <trkpt lat="48.46285" lon="3.23056">
        <ele>69</ele>
        <time>2022-05-22T12:53:08Z</time>
      </trkpt>
      <trkpt lat="48.46292" lon="3.2307">
        <ele>69</ele>
        <time>2022-05-22T12:53:11Z</time>
      </trkpt>
      <trkpt lat="48.46321" lon="3.23331">
        <ele>67</ele>
        <time>2022-05-22T12:53:42Z</time>
      </trkpt>
      <trkpt lat="48.46342" lon="3.23456">
        <ele>65</ele>
        <time>2022-05-22T12:53:57Z</time>
      </trkpt>
      <trkpt lat="48.46342" lon="3.23478">
        <ele>64</ele>
        <time>2022-05-22T12:54:00Z</time>
      </trkpt>
      <trkpt lat="48.46335" lon="3.23498">
        <ele>63</ele>
        <time>2022-05-22T12:54:02Z</time>
      </trkpt>
      <trkpt lat="48.46294" lon="3.23563">
        <ele>61</ele>
        <time>2022-05-22T12:54:13Z</time>
      </trkpt>
      <trkpt lat="48.46286" lon="3.23583">
        <ele>60</ele>
        <time>2022-05-22T12:54:16Z</time>
      </trkpt>
      <trkpt lat="48.46286" lon="3.23605">
        <ele>60</ele>
        <time>2022-05-22T12:54:18Z</time>
      </trkpt>
      <trkpt lat="48.46323" lon="3.23754">
        <ele>57</ele>
        <time>2022-05-22T12:54:37Z</time>
      </trkpt>
      <trkpt lat="48.46333" lon="3.23817">
        <ele>59</ele>
        <time>2022-05-22T12:54:45Z</time>
      </trkpt>
      <trkpt lat="48.46338" lon="3.23835">
        <ele>59</ele>
        <time>2022-05-22T12:54:47Z</time>
      </trkpt>
      <trkpt lat="48.46354" lon="3.23933">
        <ele>58</ele>
        <time>2022-05-22T12:54:59Z</time>
      </trkpt>
      <trkpt lat="48.46364" lon="3.24018">
        <ele>58</ele>
        <time>2022-05-22T12:55:09Z</time>
      </trkpt>
      <trkpt lat="48.46408" lon="3.24311">
        <ele>58</ele>
        <time>2022-05-22T12:55:44Z</time>
      </trkpt>
      <trkpt lat="48.46497" lon="3.24669">
        <ele>57</ele>
        <time>2022-05-22T12:56:30Z</time>
      </trkpt>
      <trkpt lat="48.46511" lon="3.24732">
        <ele>57</ele>
        <time>2022-05-22T12:56:37Z</time>
      </trkpt>
      <trkpt lat="48.46522" lon="3.24824">
        <ele>58</ele>
        <time>2022-05-22T12:56:48Z</time>
      </trkpt>
      <trkpt lat="48.46551" lon="3.24948">
        <ele>58</ele>
        <time>2022-05-22T12:57:04Z</time>
      </trkpt>
      <trkpt lat="48.46562" lon="3.24979">
        <ele>58</ele>
        <time>2022-05-22T12:57:08Z</time>
      </trkpt>
      <trkpt lat="48.46587" lon="3.25096">
        <ele>59</ele>
        <time>2022-05-22T12:57:23Z</time>
      </trkpt>
      <trkpt lat="48.46607" lon="3.25101">
        <ele>60</ele>
        <time>2022-05-22T12:57:26Z</time>
      </trkpt>
      <trkpt lat="48.46627" lon="3.25102">
        <ele>61</ele>
        <time>2022-05-22T12:57:30Z</time>
      </trkpt>
      <trkpt lat="48.46644" lon="3.25115">
        <ele>62</ele>
        <time>2022-05-22T12:57:33Z</time>
      </trkpt>
      <trkpt lat="48.46654" lon="3.25142">
        <ele>62</ele>
        <time>2022-05-22T12:57:37Z</time>
      </trkpt>
      <trkpt lat="48.46673" lon="3.25181">
        <ele>62</ele>
        <time>2022-05-22T12:57:43Z</time>
      </trkpt>
      <trkpt lat="48.46677" lon="3.25197">
        <ele>62</ele>
        <time>2022-05-22T12:57:45Z</time>
      </trkpt>
      <trkpt lat="48.46695" lon="3.25238">
        <ele>63</ele>
        <time>2022-05-22T12:57:50Z</time>
      </trkpt>
      <trkpt lat="48.46701" lon="3.25266">
        <ele>63</ele>
        <time>2022-05-22T12:57:54Z</time>
      </trkpt>
      <trkpt lat="48.46699" lon="3.25296">
        <ele>62</ele>
        <time>2022-05-22T12:57:57Z</time>
      </trkpt>
      <trkpt lat="48.46676" lon="3.25429">
        <ele>62</ele>
        <time>2022-05-22T12:58:14Z</time>
      </trkpt>
      <trkpt lat="48.46676" lon="3.25447">
        <ele>62</ele>
        <time>2022-05-22T12:58:16Z</time>
      </trkpt>
      <trkpt lat="48.46684" lon="3.25502">
        <ele>64</ele>
        <time>2022-05-22T12:58:22Z</time>
      </trkpt>
      <trkpt lat="48.46711" lon="3.25621">
        <ele>64</ele>
        <time>2022-05-22T12:58:37Z</time>
      </trkpt>
      <trkpt lat="48.4672" lon="3.25731">
        <ele>65</ele>
        <time>2022-05-22T12:58:50Z</time>
      </trkpt>
      <trkpt lat="48.46724" lon="3.25747">
        <ele>65</ele>
        <time>2022-05-22T12:58:52Z</time>
      </trkpt>
      <trkpt lat="48.4674" lon="3.25762">
        <ele>66</ele>
        <time>2022-05-22T12:58:56Z</time>
      </trkpt>
      <trkpt lat="48.46771" lon="3.25771">
        <ele>67</ele>
        <time>2022-05-22T12:59:01Z</time>
      </trkpt>
      <trkpt lat="48.46781" lon="3.25778">
        <ele>67</ele>
        <time>2022-05-22T12:59:03Z</time>
      </trkpt>
      <trkpt lat="48.46822" lon="3.25795">
        <ele>68</ele>
        <time>2022-05-22T12:59:11Z</time>
      </trkpt>
      <trkpt lat="48.46848" lon="3.25819">
        <ele>69</ele>
        <time>2022-05-22T12:59:16Z</time>
      </trkpt>
      <trkpt lat="48.46872" lon="3.25833">
        <ele>68</ele>
        <time>2022-05-22T12:59:21Z</time>
      </trkpt>
      <trkpt lat="48.46928" lon="3.25878">
        <ele>67</ele>
        <time>2022-05-22T12:59:32Z</time>
      </trkpt>
      <trkpt lat="48.46937" lon="3.25887">
        <ele>67</ele>
        <time>2022-05-22T12:59:34Z</time>
      </trkpt>
      <trkpt lat="48.46951" lon="3.2591">
        <ele>67</ele>
        <time>2022-05-22T12:59:38Z</time>
      </trkpt>
      <trkpt lat="48.46962" lon="3.25937">
        <ele>67</ele>
        <time>2022-05-22T12:59:41Z</time>
      </trkpt>
      <trkpt lat="48.46999" lon="3.26064">
        <ele>69</ele>
        <time>2022-05-22T12:59:58Z</time>
      </trkpt>
      <trkpt lat="48.47062" lon="3.26294">
        <ele>69</ele>
        <time>2022-05-22T13:00:27Z</time>
      </trkpt>
      <trkpt lat="48.471" lon="3.26422">
        <ele>70</ele>
        <time>2022-05-22T13:00:44Z</time>
      </trkpt>
      <trkpt lat="48.47111" lon="3.26451">
        <ele>70</ele>
        <time>2022-05-22T13:00:48Z</time>
      </trkpt>
      <trkpt lat="48.47132" lon="3.26494">
        <ele>71</ele>
        <time>2022-05-22T13:00:54Z</time>
      </trkpt>
      <trkpt lat="48.47227" lon="3.26667">
        <ele>72</ele>
        <time>2022-05-22T13:01:20Z</time>
      </trkpt>
      <trkpt lat="48.47234" lon="3.26676">
        <ele>72</ele>
        <time>2022-05-22T13:01:22Z</time>
      </trkpt>
      <trkpt lat="48.47273" lon="3.26753">
        <ele>72</ele>
        <time>2022-05-22T13:01:33Z</time>
      </trkpt>
      <trkpt lat="48.47288" lon="3.26793">
        <ele>72</ele>
        <time>2022-05-22T13:01:39Z</time>
      </trkpt>
      <trkpt lat="48.47341" lon="3.2698">
        <ele>73</ele>
        <time>2022-05-22T13:02:03Z</time>
      </trkpt>
      <trkpt lat="48.47365" lon="3.27054">
        <ele>72</ele>
        <time>2022-05-22T13:02:13Z</time>
      </trkpt>
      <trkpt lat="48.47378" lon="3.27079">
        <ele>73</ele>
        <time>2022-05-22T13:02:16Z</time>
      </trkpt>
      <trkpt lat="48.47413" lon="3.27132">
        <ele>73</ele>
        <time>2022-05-22T13:02:25Z</time>
      </trkpt>
      <trkpt lat="48.47429" lon="3.27168">
        <ele>73</ele>
        <time>2022-05-22T13:02:30Z</time>
      </trkpt>
      <trkpt lat="48.47508" lon="3.2738">
        <ele>69</ele>
        <time>2022-05-22T13:02:59Z</time>
      </trkpt>
      <trkpt lat="48.47539" lon="3.27469">
        <ele>68</ele>
        <time>2022-05-22T13:03:11Z</time>
      </trkpt>
      <trkpt lat="48.47556" lon="3.27527">
        <ele>69</ele>
        <time>2022-05-22T13:03:18Z</time>
      </trkpt>
      <trkpt lat="48.47562" lon="3.2754">
        <ele>69</ele>
        <time>2022-05-22T13:03:20Z</time>
      </trkpt>
      <trkpt lat="48.47564" lon="3.27553">
        <ele>69</ele>
        <time>2022-05-22T13:03:22Z</time>
      </trkpt>
      <trkpt lat="48.47619" lon="3.27682">
        <ele>73</ele>
        <time>2022-05-22T13:03:40Z</time>
      </trkpt>
      <trkpt lat="48.47607" lon="3.27639">
        <ele>72</ele>
        <time>2022-05-22T13:03:45Z</time>
      </trkpt>
      <trkpt lat="48.47588" lon="3.27599">
        <ele>71</ele>
        <time>2022-05-22T13:03:51Z</time>
      </trkpt>
      <trkpt lat="48.47571" lon="3.27551">
        <ele>70</ele>
        <time>2022-05-22T13:03:58Z</time>
      </trkpt>
      <trkpt lat="48.47563" lon="3.27538">
        <ele>69</ele>
        <time>2022-05-22T13:04:00Z</time>
      </trkpt>
      <trkpt lat="48.47555" lon="3.27547">
        <ele>69</ele>
        <time>2022-05-22T13:04:01Z</time>
      </trkpt>
      <trkpt lat="48.4755" lon="3.27596">
        <ele>70</ele>
        <time>2022-05-22T13:04:07Z</time>
      </trkpt>
      <trkpt lat="48.47548" lon="3.27662">
        <ele>70</ele>
        <time>2022-05-22T13:04:15Z</time>
      </trkpt>
      <trkpt lat="48.47538" lon="3.27822">
        <ele>72</ele>
        <time>2022-05-22T13:04:34Z</time>
      </trkpt>
      <trkpt lat="48.47551" lon="3.28197">
        <ele>75</ele>
        <time>2022-05-22T13:05:18Z</time>
      </trkpt>
      <trkpt lat="48.47564" lon="3.28409">
        <ele>73</ele>
        <time>2022-05-22T13:05:43Z</time>
      </trkpt>
      <trkpt lat="48.47601" lon="3.28914">
        <ele>74</ele>
        <time>2022-05-22T13:06:43Z</time>
      </trkpt>
      <trkpt lat="48.47614" lon="3.29031">
        <ele>75</ele>
        <time>2022-05-22T13:06:57Z</time>
      </trkpt>
      <trkpt lat="48.47628" lon="3.29131">
        <ele>75</ele>
        <time>2022-05-22T13:07:09Z</time>
      </trkpt>
      <trkpt lat="48.47636" lon="3.2923">
        <ele>74</ele>
        <time>2022-05-22T13:07:21Z</time>
      </trkpt>
      <trkpt lat="48.47654" lon="3.29373">
        <ele>72</ele>
        <time>2022-05-22T13:07:38Z</time>
      </trkpt>
      <trkpt lat="48.47684" lon="3.29683">
        <ele>65</ele>
        <time>2022-05-22T13:08:15Z</time>
      </trkpt>
      <trkpt lat="48.47702" lon="3.29824">
        <ele>67</ele>
        <time>2022-05-22T13:08:32Z</time>
      </trkpt>
      <trkpt lat="48.4771" lon="3.29957">
        <ele>68</ele>
        <time>2022-05-22T13:08:48Z</time>
      </trkpt>
      <trkpt lat="48.47711" lon="3.30041">
        <ele>67</ele>
        <time>2022-05-22T13:08:58Z</time>
      </trkpt>
      <trkpt lat="48.47708" lon="3.30185">
        <ele>65</ele>
        <time>2022-05-22T13:09:15Z</time>
      </trkpt>
      <trkpt lat="48.47713" lon="3.30244">
        <ele>64</ele>
        <time>2022-05-22T13:09:22Z</time>
      </trkpt>
      <trkpt lat="48.47722" lon="3.30284">
        <ele>63</ele>
        <time>2022-05-22T13:09:27Z</time>
      </trkpt>
      <trkpt lat="48.47786" lon="3.30467">
        <ele>64</ele>
        <time>2022-05-22T13:09:51Z</time>
      </trkpt>
      <trkpt lat="48.47804" lon="3.30532">
        <ele>65</ele>
        <time>2022-05-22T13:10:00Z</time>
      </trkpt>
      <trkpt lat="48.47817" lon="3.30614">
        <ele>63</ele>
        <time>2022-05-22T13:10:10Z</time>
      </trkpt>
      <trkpt lat="48.47851" lon="3.309">
        <ele>62</ele>
        <time>2022-05-22T13:10:44Z</time>
      </trkpt>
      <trkpt lat="48.47862" lon="3.30947">
        <ele>62</ele>
        <time>2022-05-22T13:10:50Z</time>
      </trkpt>
      <trkpt lat="48.47872" lon="3.30977">
        <ele>61</ele>
        <time>2022-05-22T13:10:54Z</time>
      </trkpt>
      <trkpt lat="48.47892" lon="3.31017">
        <ele>61</ele>
        <time>2022-05-22T13:11:00Z</time>
      </trkpt>
      <trkpt lat="48.47965" lon="3.31137">
        <ele>61</ele>
        <time>2022-05-22T13:11:19Z</time>
      </trkpt>
      <trkpt lat="48.48004" lon="3.31209">
        <ele>61</ele>
        <time>2022-05-22T13:11:30Z</time>
      </trkpt>
      <trkpt lat="48.48035" lon="3.31284">
        <ele>61</ele>
        <time>2022-05-22T13:11:40Z</time>
      </trkpt>
      <trkpt lat="48.48088" lon="3.31467">
        <ele>63</ele>
        <time>2022-05-22T13:12:04Z</time>
      </trkpt>
      <trkpt lat="48.48097" lon="3.3151">
        <ele>63</ele>
        <time>2022-05-22T13:12:09Z</time>
      </trkpt>
      <trkpt lat="48.4814" lon="3.31665">
        <ele>64</ele>
        <time>2022-05-22T13:12:29Z</time>
      </trkpt>
      <trkpt lat="48.48188" lon="3.31859">
        <ele>63</ele>
        <time>2022-05-22T13:12:53Z</time>
      </trkpt>
      <trkpt lat="48.48227" lon="3.31999">
        <ele>63</ele>
        <time>2022-05-22T13:13:11Z</time>
      </trkpt>
      <trkpt lat="48.48272" lon="3.32175">
        <ele>64</ele>
        <time>2022-05-22T13:13:33Z</time>
      </trkpt>
      <trkpt lat="48.48449" lon="3.33321">
        <ele>63</ele>
        <time>2022-05-22T13:15:52Z</time>
      </trkpt>
      <trkpt lat="48.48446" lon="3.33355">
        <ele>62</ele>
        <time>2022-05-22T13:15:56Z</time>
      </trkpt>
      <trkpt lat="48.48441" lon="3.33367">
        <ele>62</ele>
        <time>2022-05-22T13:15:58Z</time>
      </trkpt>
      <trkpt lat="48.48433" lon="3.33376">
        <ele>61</ele>
        <time>2022-05-22T13:16:00Z</time>
      </trkpt>
      <trkpt lat="48.48413" lon="3.33391">
        <ele>60</ele>
        <time>2022-05-22T13:16:04Z</time>
      </trkpt>
      <trkpt lat="48.4832" lon="3.33441">
        <ele>57</ele>
        <time>2022-05-22T13:16:21Z</time>
      </trkpt>
      <trkpt lat="48.48305" lon="3.33452">
        <ele>57</ele>
        <time>2022-05-22T13:16:24Z</time>
      </trkpt>
      <trkpt lat="48.48291" lon="3.33469">
        <ele>57</ele>
        <time>2022-05-22T13:16:27Z</time>
      </trkpt>
      <trkpt lat="48.48283" lon="3.33492">
        <ele>57</ele>
        <time>2022-05-22T13:16:30Z</time>
      </trkpt>
      <trkpt lat="48.48254" lon="3.33674">
        <ele>56</ele>
        <time>2022-05-22T13:16:53Z</time>
      </trkpt>
      <trkpt lat="48.48213" lon="3.33859">
        <ele>56</ele>
        <time>2022-05-22T13:17:16Z</time>
      </trkpt>
      <trkpt lat="48.48192" lon="3.34083">
        <ele>59</ele>
        <time>2022-05-22T13:17:42Z</time>
      </trkpt>
      <trkpt lat="48.48191" lon="3.34131">
        <ele>59</ele>
        <time>2022-05-22T13:17:48Z</time>
      </trkpt>
      <trkpt lat="48.48194" lon="3.34255">
        <ele>59</ele>
        <time>2022-05-22T13:18:03Z</time>
      </trkpt>
      <trkpt lat="48.48205" lon="3.34301">
        <ele>59</ele>
        <time>2022-05-22T13:18:08Z</time>
      </trkpt>
      <trkpt lat="48.48215" lon="3.34368">
        <ele>59</ele>
        <time>2022-05-22T13:18:16Z</time>
      </trkpt>
      <trkpt lat="48.48241" lon="3.34472">
        <ele>58</ele>
        <time>2022-05-22T13:18:30Z</time>
      </trkpt>
      <trkpt lat="48.48268" lon="3.34642">
        <ele>60</ele>
        <time>2022-05-22T13:18:50Z</time>
      </trkpt>
      <trkpt lat="48.48272" lon="3.34656">
        <ele>60</ele>
        <time>2022-05-22T13:18:52Z</time>
      </trkpt>
      <trkpt lat="48.4828" lon="3.34665">
        <ele>60</ele>
        <time>2022-05-22T13:18:54Z</time>
      </trkpt>
      <trkpt lat="48.48322" lon="3.34649">
        <ele>61</ele>
        <time>2022-05-22T13:19:01Z</time>
      </trkpt>
      <trkpt lat="48.4835" lon="3.34634">
        <ele>61</ele>
        <time>2022-05-22T13:19:07Z</time>
      </trkpt>
      <trkpt lat="48.48381" lon="3.34631">
        <ele>60</ele>
        <time>2022-05-22T13:19:12Z</time>
      </trkpt>
      <trkpt lat="48.48403" lon="3.34626">
        <ele>60</ele>
        <time>2022-05-22T13:19:16Z</time>
      </trkpt>
      <trkpt lat="48.48425" lon="3.34625">
        <ele>60</ele>
        <time>2022-05-22T13:19:20Z</time>
      </trkpt>
      <trkpt lat="48.48465" lon="3.34628">
        <ele>60</ele>
        <time>2022-05-22T13:19:27Z</time>
      </trkpt>
      <trkpt lat="48.48474" lon="3.34638">
        <ele>60</ele>
        <time>2022-05-22T13:19:29Z</time>
      </trkpt>
      <trkpt lat="48.48473" lon="3.34755">
        <ele>59</ele>
        <time>2022-05-22T13:19:43Z</time>
      </trkpt>
      <trkpt lat="48.48469" lon="3.34848">
        <ele>59</ele>
        <time>2022-05-22T13:19:54Z</time>
      </trkpt>
      <trkpt lat="48.48454" lon="3.34999">
        <ele>58</ele>
        <time>2022-05-22T13:20:12Z</time>
      </trkpt>
      <trkpt lat="48.48447" lon="3.35122">
        <ele>59</ele>
        <time>2022-05-22T13:20:27Z</time>
      </trkpt>
      <trkpt lat="48.48448" lon="3.35157">
        <ele>59</ele>
        <time>2022-05-22T13:20:31Z</time>
      </trkpt>
      <trkpt lat="48.48458" lon="3.35198">
        <ele>59</ele>
        <time>2022-05-22T13:20:36Z</time>
      </trkpt>
      <trkpt lat="48.48471" lon="3.35229">
        <ele>60</ele>
        <time>2022-05-22T13:20:40Z</time>
      </trkpt>
      <trkpt lat="48.48569" lon="3.35428">
        <ele>63</ele>
        <time>2022-05-22T13:21:09Z</time>
      </trkpt>
      <trkpt lat="48.48624" lon="3.35529">
        <ele>64</ele>
        <time>2022-05-22T13:21:25Z</time>
      </trkpt>
      <trkpt lat="48.4865" lon="3.35585">
        <ele>65</ele>
        <time>2022-05-22T13:21:33Z</time>
      </trkpt>
      <trkpt lat="48.48734" lon="3.3579">
        <ele>63</ele>
        <time>2022-05-22T13:22:01Z</time>
      </trkpt>
      <trkpt lat="48.48742" lon="3.358">
        <ele>63</ele>
        <time>2022-05-22T13:22:03Z</time>
      </trkpt>
      <trkpt lat="48.4875" lon="3.35791">
        <ele>64</ele>
        <time>2022-05-22T13:22:05Z</time>
      </trkpt>
      <trkpt lat="48.4875" lon="3.35806">
        <ele>63</ele>
        <time>2022-05-22T13:22:07Z</time>
      </trkpt>
      <trkpt lat="48.48746" lon="3.35802">
        <ele>63</ele>
        <time>2022-05-22T13:22:08Z</time>
      </trkpt>
      <trkpt lat="48.48744" lon="3.35817">
        <ele>63</ele>
        <time>2022-05-22T13:22:09Z</time>
      </trkpt>
      <trkpt lat="48.48758" lon="3.3584">
        <ele>63</ele>
        <time>2022-05-22T13:22:13Z</time>
      </trkpt>
      <trkpt lat="48.48782" lon="3.35893">
        <ele>62</ele>
        <time>2022-05-22T13:22:21Z</time>
      </trkpt>
      <trkpt lat="48.48802" lon="3.35947">
        <ele>62</ele>
        <time>2022-05-22T13:22:28Z</time>
      </trkpt>
      <trkpt lat="48.48844" lon="3.36041">
        <ele>62</ele>
        <time>2022-05-22T13:22:41Z</time>
      </trkpt>
      <trkpt lat="48.48859" lon="3.36066">
        <ele>61</ele>
        <time>2022-05-22T13:22:45Z</time>
      </trkpt>
      <trkpt lat="48.48884" lon="3.36097">
        <ele>61</ele>
        <time>2022-05-22T13:22:51Z</time>
      </trkpt>
      <trkpt lat="48.48962" lon="3.36171">
        <ele>62</ele>
        <time>2022-05-22T13:23:07Z</time>
      </trkpt>
      <trkpt lat="48.49017" lon="3.36228">
        <ele>61</ele>
        <time>2022-05-22T13:23:19Z</time>
      </trkpt>
      <trkpt lat="48.49024" lon="3.36239">
        <ele>61</ele>
        <time>2022-05-22T13:23:21Z</time>
      </trkpt>
      <trkpt lat="48.49038" lon="3.36276">
        <ele>61</ele>
        <time>2022-05-22T13:23:26Z</time>
      </trkpt>
      <trkpt lat="48.49216" lon="3.36991">
        <ele>63</ele>
        <time>2022-05-22T13:24:56Z</time>
      </trkpt>
      <trkpt lat="48.49375" lon="3.37644">
        <ele>62</ele>
        <time>2022-05-22T13:26:18Z</time>
      </trkpt>
      <trkpt lat="48.49432" lon="3.37864">
        <ele>61</ele>
        <time>2022-05-22T13:26:46Z</time>
      </trkpt>
      <trkpt lat="48.49545" lon="3.3822">
        <ele>63</ele>
        <time>2022-05-22T13:27:33Z</time>
      </trkpt>
      <trkpt lat="48.49609" lon="3.38432">
        <ele>65</ele>
        <time>2022-05-22T13:28:00Z</time>
      </trkpt>
      <trkpt lat="48.49701" lon="3.38723">
        <ele>67</ele>
        <time>2022-05-22T13:28:38Z</time>
      </trkpt>
      <trkpt lat="48.49756" lon="3.38908">
        <ele>66</ele>
        <time>2022-05-22T13:29:02Z</time>
      </trkpt>
      <trkpt lat="48.4985" lon="3.39211">
        <ele>63</ele>
        <time>2022-05-22T13:29:41Z</time>
      </trkpt>
      <trkpt lat="48.49874" lon="3.39281">
        <ele>63</ele>
        <time>2022-05-22T13:29:51Z</time>
      </trkpt>
      <trkpt lat="48.50154" lon="3.40193">
        <ele>62</ele>
        <time>2022-05-22T13:31:49Z</time>
      </trkpt>
      <trkpt lat="48.50219" lon="3.40397">
        <ele>62</ele>
        <time>2022-05-22T13:32:16Z</time>
      </trkpt>
      <trkpt lat="48.50262" lon="3.40578">
        <ele>63</ele>
        <time>2022-05-22T13:32:39Z</time>
      </trkpt>
      <trkpt lat="48.50274" lon="3.40618">
        <ele>63</ele>
        <time>2022-05-22T13:32:44Z</time>
      </trkpt>
      <trkpt lat="48.50365" lon="3.40985">
        <ele>62</ele>
        <time>2022-05-22T13:33:30Z</time>
      </trkpt>
      <trkpt lat="48.5043" lon="3.41235">
        <ele>62</ele>
        <time>2022-05-22T13:34:02Z</time>
      </trkpt>
      <trkpt lat="48.50592" lon="3.4189">
        <ele>58</ele>
        <time>2022-05-22T13:35:24Z</time>
      </trkpt>
      <trkpt lat="48.50625" lon="3.41995">
        <ele>58</ele>
        <time>2022-05-22T13:35:38Z</time>
      </trkpt>
      <trkpt lat="48.50847" lon="3.42644">
        <ele>64</ele>
        <time>2022-05-22T13:37:04Z</time>
      </trkpt>
      <trkpt lat="48.50875" lon="3.42728">
        <ele>64</ele>
        <time>2022-05-22T13:37:15Z</time>
      </trkpt>
      <trkpt lat="48.5089" lon="3.42783">
        <ele>65</ele>
        <time>2022-05-22T13:37:22Z</time>
      </trkpt>
      <trkpt lat="48.50963" lon="3.43093">
        <ele>62</ele>
        <time>2022-05-22T13:38:01Z</time>
      </trkpt>
      <trkpt lat="48.50968" lon="3.43121">
        <ele>62</ele>
        <time>2022-05-22T13:38:04Z</time>
      </trkpt>
      <trkpt lat="48.50968" lon="3.43138">
        <ele>62</ele>
        <time>2022-05-22T13:38:06Z</time>
      </trkpt>
      <trkpt lat="48.50997" lon="3.43254">
        <ele>62</ele>
        <time>2022-05-22T13:38:21Z</time>
      </trkpt>
      <trkpt lat="48.51008" lon="3.4333">
        <ele>64</ele>
        <time>2022-05-22T13:38:30Z</time>
      </trkpt>
      <trkpt lat="48.51016" lon="3.43444">
        <ele>64</ele>
        <time>2022-05-22T13:38:43Z</time>
      </trkpt>
      <trkpt lat="48.51023" lon="3.43495">
        <ele>64</ele>
        <time>2022-05-22T13:38:50Z</time>
      </trkpt>
      <trkpt lat="48.51039" lon="3.43603">
        <ele>62</ele>
        <time>2022-05-22T13:39:03Z</time>
      </trkpt>
      <trkpt lat="48.51064" lon="3.43734">
        <ele>63</ele>
        <time>2022-05-22T13:39:19Z</time>
      </trkpt>
      <trkpt lat="48.51305" lon="3.44751">
        <ele>62</ele>
        <time>2022-05-22T13:41:26Z</time>
      </trkpt>
      <trkpt lat="48.51361" lon="3.45005">
        <ele>64</ele>
        <time>2022-05-22T13:41:58Z</time>
      </trkpt>
      <trkpt lat="48.5146" lon="3.45539">
        <ele>64</ele>
        <time>2022-05-22T13:43:03Z</time>
      </trkpt>
      <trkpt lat="48.5151" lon="3.45801">
        <ele>62</ele>
        <time>2022-05-22T13:43:35Z</time>
      </trkpt>
      <trkpt lat="48.51517" lon="3.45826">
        <ele>63</ele>
        <time>2022-05-22T13:43:38Z</time>
      </trkpt>
      <trkpt lat="48.51518" lon="3.4584">
        <ele>63</ele>
        <time>2022-05-22T13:43:40Z</time>
      </trkpt>
      <trkpt lat="48.51541" lon="3.45959">
        <ele>63</ele>
        <time>2022-05-22T13:43:55Z</time>
      </trkpt>
      <trkpt lat="48.51565" lon="3.46109">
        <ele>63</ele>
        <time>2022-05-22T13:44:13Z</time>
      </trkpt>
      <trkpt lat="48.51623" lon="3.46521">
        <ele>61</ele>
        <time>2022-05-22T13:45:02Z</time>
      </trkpt>
      <trkpt lat="48.51634" lon="3.46579">
        <ele>62</ele>
        <time>2022-05-22T13:45:09Z</time>
      </trkpt>
      <trkpt lat="48.51827" lon="3.47308">
        <ele>65</ele>
        <time>2022-05-22T13:46:42Z</time>
      </trkpt>
      <trkpt lat="48.51838" lon="3.47385">
        <ele>65</ele>
        <time>2022-05-22T13:46:51Z</time>
      </trkpt>
      <trkpt lat="48.51848" lon="3.47559">
        <ele>63</ele>
        <time>2022-05-22T13:47:12Z</time>
      </trkpt>
      <trkpt lat="48.51868" lon="3.47821">
        <ele>62</ele>
        <time>2022-05-22T13:47:43Z</time>
      </trkpt>
      <trkpt lat="48.51883" lon="3.4808">
        <ele>63</ele>
        <time>2022-05-22T13:48:14Z</time>
      </trkpt>
      <trkpt lat="48.51888" lon="3.48125">
        <ele>62</ele>
        <time>2022-05-22T13:48:19Z</time>
      </trkpt>
      <trkpt lat="48.51901" lon="3.4817">
        <ele>60</ele>
        <time>2022-05-22T13:48:25Z</time>
      </trkpt>
      <trkpt lat="48.5189" lon="3.48232">
        <ele>60</ele>
        <time>2022-05-22T13:48:32Z</time>
      </trkpt>
      <trkpt lat="48.51872" lon="3.4827">
        <ele>61</ele>
        <time>2022-05-22T13:48:38Z</time>
      </trkpt>
      <trkpt lat="48.51899" lon="3.48246">
        <ele>60</ele>
        <time>2022-05-22T13:48:43Z</time>
      </trkpt>
      <trkpt lat="48.51909" lon="3.48248">
        <ele>60</ele>
        <time>2022-05-22T13:48:45Z</time>
      </trkpt>
      <trkpt lat="48.51919" lon="3.48256">
        <ele>60</ele>
        <time>2022-05-22T13:48:47Z</time>
      </trkpt>
      <trkpt lat="48.52166" lon="3.485">
        <ele>62</ele>
        <time>2022-05-22T13:49:40Z</time>
      </trkpt>
      <trkpt lat="48.52218" lon="3.48546">
        <ele>61</ele>
        <time>2022-05-22T13:49:50Z</time>
      </trkpt>
      <trkpt lat="48.52473" lon="3.48791">
        <ele>64</ele>
        <time>2022-05-22T13:50:44Z</time>
      </trkpt>
      <trkpt lat="48.52513" lon="3.48836">
        <ele>63</ele>
        <time>2022-05-22T13:50:53Z</time>
      </trkpt>
      <trkpt lat="48.5267" lon="3.49036">
        <ele>64</ele>
        <time>2022-05-22T13:51:30Z</time>
      </trkpt>
      <trkpt lat="48.53098" lon="3.49561">
        <ele>63</ele>
        <time>2022-05-22T13:53:08Z</time>
      </trkpt>
      <trkpt lat="48.5317" lon="3.49653">
        <ele>65</ele>
        <time>2022-05-22T13:53:25Z</time>
      </trkpt>
      <trkpt lat="48.53187" lon="3.49671">
        <ele>66</ele>
        <time>2022-05-22T13:53:28Z</time>
      </trkpt>
      <trkpt lat="48.53194" lon="3.49683">
        <ele>67</ele>
        <time>2022-05-22T13:53:30Z</time>
      </trkpt>
      <trkpt lat="48.5322" lon="3.49714">
        <ele>69</ele>
        <time>2022-05-22T13:53:36Z</time>
      </trkpt>
      <trkpt lat="48.53233" lon="3.49739">
        <ele>69</ele>
        <time>2022-05-22T13:53:40Z</time>
      </trkpt>
      <trkpt lat="48.5324" lon="3.4977">
        <ele>69</ele>
        <time>2022-05-22T13:53:44Z</time>
      </trkpt>
      <trkpt lat="48.53244" lon="3.49802">
        <ele>68</ele>
        <time>2022-05-22T13:53:47Z</time>
      </trkpt>
      <trkpt lat="48.53248" lon="3.49884">
        <ele>68</ele>
        <time>2022-05-22T13:53:57Z</time>
      </trkpt>
      <trkpt lat="48.53249" lon="3.49955">
        <ele>67</ele>
        <time>2022-05-22T13:54:06Z</time>
      </trkpt>
      <trkpt lat="48.53241" lon="3.50032">
        <ele>66</ele>
        <time>2022-05-22T13:54:15Z</time>
      </trkpt>
      <trkpt lat="48.53171" lon="3.50408">
        <ele>63</ele>
        <time>2022-05-22T13:55:01Z</time>
      </trkpt>
      <trkpt lat="48.5313" lon="3.50539">
        <ele>64</ele>
        <time>2022-05-22T13:55:18Z</time>
      </trkpt>
      <trkpt lat="48.53123" lon="3.50574">
        <ele>63</ele>
        <time>2022-05-22T13:55:22Z</time>
      </trkpt>
      <trkpt lat="48.53118" lon="3.50607">
        <ele>63</ele>
        <time>2022-05-22T13:55:26Z</time>
      </trkpt>
      <trkpt lat="48.53116" lon="3.50682">
        <ele>62</ele>
        <time>2022-05-22T13:55:35Z</time>
      </trkpt>
      <trkpt lat="48.5312" lon="3.50729">
        <ele>62</ele>
        <time>2022-05-22T13:55:41Z</time>
      </trkpt>
      <trkpt lat="48.53146" lon="3.50889">
        <ele>62</ele>
        <time>2022-05-22T13:56:00Z</time>
      </trkpt>
      <trkpt lat="48.53154" lon="3.50997">
        <ele>63</ele>
        <time>2022-05-22T13:56:13Z</time>
      </trkpt>
      <trkpt lat="48.53155" lon="3.51121">
        <ele>61</ele>
        <time>2022-05-22T13:56:27Z</time>
      </trkpt>
      <trkpt lat="48.53152" lon="3.51351">
        <ele>62</ele>
        <time>2022-05-22T13:56:54Z</time>
      </trkpt>
      <trkpt lat="48.53159" lon="3.51468">
        <ele>62</ele>
        <time>2022-05-22T13:57:08Z</time>
      </trkpt>
      <trkpt lat="48.53187" lon="3.51726">
        <ele>64</ele>
        <time>2022-05-22T13:57:39Z</time>
      </trkpt>
      <trkpt lat="48.5321" lon="3.51874">
        <ele>65</ele>
        <time>2022-05-22T13:57:57Z</time>
      </trkpt>
      <trkpt lat="48.53236" lon="3.51985">
        <ele>65</ele>
        <time>2022-05-22T13:58:11Z</time>
      </trkpt>
      <trkpt lat="48.53262" lon="3.52079">
        <ele>66</ele>
        <time>2022-05-22T13:58:23Z</time>
      </trkpt>
      <trkpt lat="48.53352" lon="3.5233">
        <ele>64</ele>
        <time>2022-05-22T13:58:57Z</time>
      </trkpt>
      <trkpt lat="48.53366" lon="3.52377">
        <ele>64</ele>
        <time>2022-05-22T13:59:03Z</time>
      </trkpt>
      <trkpt lat="48.53372" lon="3.52411">
        <ele>64</ele>
        <time>2022-05-22T13:59:07Z</time>
      </trkpt>
      <trkpt lat="48.53392" lon="3.52493">
        <ele>64</ele>
        <time>2022-05-22T13:59:17Z</time>
      </trkpt>
      <trkpt lat="48.53415" lon="3.52552">
        <ele>63</ele>
        <time>2022-05-22T13:59:25Z</time>
      </trkpt>
      <trkpt lat="48.53427" lon="3.52577">
        <ele>63</ele>
        <time>2022-05-22T13:59:29Z</time>
      </trkpt>
      <trkpt lat="48.53493" lon="3.52692">
        <ele>65</ele>
        <time>2022-05-22T13:59:47Z</time>
      </trkpt>
      <trkpt lat="48.53504" lon="3.52718">
        <ele>64</ele>
        <time>2022-05-22T13:59:50Z</time>
      </trkpt>
      <trkpt lat="48.53524" lon="3.52748">
        <ele>65</ele>
        <time>2022-05-22T13:59:55Z</time>
      </trkpt>
      <trkpt lat="48.53551" lon="3.52814">
        <ele>65</ele>
        <time>2022-05-22T14:00:04Z</time>
      </trkpt>
      <trkpt lat="48.53588" lon="3.52894">
        <ele>65</ele>
        <time>2022-05-22T14:00:16Z</time>
      </trkpt>
      <trkpt lat="48.53692" lon="3.53094">
        <ele>64</ele>
        <time>2022-05-22T14:00:46Z</time>
      </trkpt>
      <trkpt lat="48.53851" lon="3.53391">
        <ele>64</ele>
        <time>2022-05-22T14:01:31Z</time>
      </trkpt>
      <trkpt lat="48.53869" lon="3.53429">
        <ele>65</ele>
        <time>2022-05-22T14:01:36Z</time>
      </trkpt>
      <trkpt lat="48.53919" lon="3.5355">
        <ele>66</ele>
        <time>2022-05-22T14:01:53Z</time>
      </trkpt>
      <trkpt lat="48.53995" lon="3.53772">
        <ele>67</ele>
        <time>2022-05-22T14:02:23Z</time>
      </trkpt>
      <trkpt lat="48.54012" lon="3.53808">
        <ele>68</ele>
        <time>2022-05-22T14:02:28Z</time>
      </trkpt>
      <trkpt lat="48.54039" lon="3.53853">
        <ele>70</ele>
        <time>2022-05-22T14:02:35Z</time>
      </trkpt>
      <trkpt lat="48.54164" lon="3.54079">
        <ele>73</ele>
        <time>2022-05-22T14:03:10Z</time>
      </trkpt>
      <trkpt lat="48.54186" lon="3.54127">
        <ele>73</ele>
        <time>2022-05-22T14:03:17Z</time>
      </trkpt>
      <trkpt lat="48.54214" lon="3.54223">
        <ele>73</ele>
        <time>2022-05-22T14:03:29Z</time>
      </trkpt>
      <trkpt lat="48.54277" lon="3.54483">
        <ele>73</ele>
        <time>2022-05-22T14:04:02Z</time>
      </trkpt>
      <trkpt lat="48.54305" lon="3.54577">
        <ele>70</ele>
        <time>2022-05-22T14:04:14Z</time>
      </trkpt>
      <trkpt lat="48.54475" lon="3.55041">
        <ele>70</ele>
        <time>2022-05-22T14:05:16Z</time>
      </trkpt>
      <trkpt lat="48.54549" lon="3.55253">
        <ele>67</ele>
        <time>2022-05-22T14:05:44Z</time>
      </trkpt>
      <trkpt lat="48.54721" lon="3.55728">
        <ele>76</ele>
        <time>2022-05-22T14:06:48Z</time>
      </trkpt>
      <trkpt lat="48.54735" lon="3.55755">
        <ele>76</ele>
        <time>2022-05-22T14:06:52Z</time>
      </trkpt>
      <trkpt lat="48.54762" lon="3.55795">
        <ele>76</ele>
        <time>2022-05-22T14:06:59Z</time>
      </trkpt>
      <trkpt lat="48.54953" lon="3.56005">
        <ele>68</ele>
        <time>2022-05-22T14:07:41Z</time>
      </trkpt>
      <trkpt lat="48.54977" lon="3.56034">
        <ele>67</ele>
        <time>2022-05-22T14:07:46Z</time>
      </trkpt>
      <trkpt lat="48.55012" lon="3.56084">
        <ele>65</ele>
        <time>2022-05-22T14:07:55Z</time>
      </trkpt>
      <trkpt lat="48.55113" lon="3.56252">
        <ele>65</ele>
        <time>2022-05-22T14:08:22Z</time>
      </trkpt>
      <trkpt lat="48.55145" lon="3.5631">
        <ele>65</ele>
        <time>2022-05-22T14:08:31Z</time>
      </trkpt>
      <trkpt lat="48.55175" lon="3.56379">
        <ele>66</ele>
        <time>2022-05-22T14:08:40Z</time>
      </trkpt>
      <trkpt lat="48.55194" lon="3.56443">
        <ele>65</ele>
        <time>2022-05-22T14:08:49Z</time>
      </trkpt>
      <trkpt lat="48.55204" lon="3.56499">
        <ele>64</ele>
        <time>2022-05-22T14:08:55Z</time>
      </trkpt>
      <trkpt lat="48.55207" lon="3.56541">
        <ele>64</ele>
        <time>2022-05-22T14:09:00Z</time>
      </trkpt>
      <trkpt lat="48.55202" lon="3.5677">
        <ele>65</ele>
        <time>2022-05-22T14:09:27Z</time>
      </trkpt>
      <trkpt lat="48.55205" lon="3.569">
        <ele>65</ele>
        <time>2022-05-22T14:09:43Z</time>
      </trkpt>
      <trkpt lat="48.55199" lon="3.56994">
        <ele>64</ele>
        <time>2022-05-22T14:09:54Z</time>
      </trkpt>
      <trkpt lat="48.55189" lon="3.57057">
        <ele>64</ele>
        <time>2022-05-22T14:10:02Z</time>
      </trkpt>
      <trkpt lat="48.55176" lon="3.57117">
        <ele>64</ele>
        <time>2022-05-22T14:10:09Z</time>
      </trkpt>
      <trkpt lat="48.55166" lon="3.5716">
        <ele>65</ele>
        <time>2022-05-22T14:10:14Z</time>
      </trkpt>
      <trkpt lat="48.55156" lon="3.57186">
        <ele>65</ele>
        <time>2022-05-22T14:10:18Z</time>
      </trkpt>
      <trkpt lat="48.55147" lon="3.57229">
        <ele>66</ele>
        <time>2022-05-22T14:10:23Z</time>
      </trkpt>
      <trkpt lat="48.55141" lon="3.57313">
        <ele>66</ele>
        <time>2022-05-22T14:10:33Z</time>
      </trkpt>
      <trkpt lat="48.55141" lon="3.57438">
        <ele>66</ele>
        <time>2022-05-22T14:10:48Z</time>
      </trkpt>
      <trkpt lat="48.55138" lon="3.57472">
        <ele>66</ele>
        <time>2022-05-22T14:10:52Z</time>
      </trkpt>
      <trkpt lat="48.5509" lon="3.57829">
        <ele>65</ele>
        <time>2022-05-22T14:11:35Z</time>
      </trkpt>
      <trkpt lat="48.55075" lon="3.57907">
        <ele>65</ele>
        <time>2022-05-22T14:11:44Z</time>
      </trkpt>
      <trkpt lat="48.55074" lon="3.5797">
        <ele>64</ele>
        <time>2022-05-22T14:11:52Z</time>
      </trkpt>
      <trkpt lat="48.55069" lon="3.57998">
        <ele>64</ele>
        <time>2022-05-22T14:11:55Z</time>
      </trkpt>
      <trkpt lat="48.55075" lon="3.57981">
        <ele>64</ele>
        <time>2022-05-22T14:11:57Z</time>
      </trkpt>
      <trkpt lat="48.55076" lon="3.57922">
        <ele>65</ele>
        <time>2022-05-22T14:12:04Z</time>
      </trkpt>
      <trkpt lat="48.55072" lon="3.57909">
        <ele>65</ele>
        <time>2022-05-22T14:12:06Z</time>
      </trkpt>
      <trkpt lat="48.55048" lon="3.57885">
        <ele>65</ele>
        <time>2022-05-22T14:12:11Z</time>
      </trkpt>
      <trkpt lat="48.55031" lon="3.57844">
        <ele>65</ele>
        <time>2022-05-22T14:12:17Z</time>
      </trkpt>
      <trkpt lat="48.55043" lon="3.57883">
        <ele>65</ele>
        <time>2022-05-22T14:12:22Z</time>
      </trkpt>
      <trkpt lat="48.55051" lon="3.57892">
        <ele>65</ele>
        <time>2022-05-22T14:12:24Z</time>
      </trkpt>
      <trkpt lat="48.55062" lon="3.57897">
        <ele>65</ele>
        <time>2022-05-22T14:12:26Z</time>
      </trkpt>
      <trkpt lat="48.5507" lon="3.57904">
        <ele>65</ele>
        <time>2022-05-22T14:12:27Z</time>
      </trkpt>
      <trkpt lat="48.55075" lon="3.5792">
        <ele>65</ele>
        <time>2022-05-22T14:12:30Z</time>
      </trkpt>
      <trkpt lat="48.55067" lon="3.58049">
        <ele>63</ele>
        <time>2022-05-22T14:12:45Z</time>
      </trkpt>
      <trkpt lat="48.55068" lon="3.58269">
        <ele>64</ele>
        <time>2022-05-22T14:13:11Z</time>
      </trkpt>
      <trkpt lat="48.55072" lon="3.58323">
        <ele>64</ele>
        <time>2022-05-22T14:13:17Z</time>
      </trkpt>
      <trkpt lat="48.55102" lon="3.58593">
        <ele>66</ele>
        <time>2022-05-22T14:13:49Z</time>
      </trkpt>
      <trkpt lat="48.55106" lon="3.58675">
        <ele>66</ele>
        <time>2022-05-22T14:13:59Z</time>
      </trkpt>
      <trkpt lat="48.55105" lon="3.58847">
        <ele>68</ele>
        <time>2022-05-22T14:14:19Z</time>
      </trkpt>
      <trkpt lat="48.55099" lon="3.59019">
        <ele>67</ele>
        <time>2022-05-22T14:14:40Z</time>
      </trkpt>
      <trkpt lat="48.55112" lon="3.59205">
        <ele>67</ele>
        <time>2022-05-22T14:15:02Z</time>
      </trkpt>
      <trkpt lat="48.5511" lon="3.59367">
        <ele>65</ele>
        <time>2022-05-22T14:15:21Z</time>
      </trkpt>
      <trkpt lat="48.55103" lon="3.59441">
        <ele>65</ele>
        <time>2022-05-22T14:15:29Z</time>
      </trkpt>
      <trkpt lat="48.55071" lon="3.59692">
        <ele>64</ele>
        <time>2022-05-22T14:16:00Z</time>
      </trkpt>
      <trkpt lat="48.5506" lon="3.59874">
        <ele>65</ele>
        <time>2022-05-22T14:16:21Z</time>
      </trkpt>
      <trkpt lat="48.5506" lon="3.59908">
        <ele>65</ele>
        <time>2022-05-22T14:16:25Z</time>
      </trkpt>
      <trkpt lat="48.55063" lon="3.59951">
        <ele>65</ele>
        <time>2022-05-22T14:16:30Z</time>
      </trkpt>
      <trkpt lat="48.55076" lon="3.60032">
        <ele>64</ele>
        <time>2022-05-22T14:16:40Z</time>
      </trkpt>
      <trkpt lat="48.55137" lon="3.60316">
        <ele>64</ele>
        <time>2022-05-22T14:17:15Z</time>
      </trkpt>
      <trkpt lat="48.55141" lon="3.60389">
        <ele>64</ele>
        <time>2022-05-22T14:17:24Z</time>
      </trkpt>
      <trkpt lat="48.55135" lon="3.60537">
        <ele>64</ele>
        <time>2022-05-22T14:17:41Z</time>
      </trkpt>
      <trkpt lat="48.55149" lon="3.60815">
        <ele>65</ele>
        <time>2022-05-22T14:18:14Z</time>
      </trkpt>
      <trkpt lat="48.55157" lon="3.60885">
        <ele>65</ele>
        <time>2022-05-22T14:18:23Z</time>
      </trkpt>
      <trkpt lat="48.5517" lon="3.6095">
        <ele>65</ele>
        <time>2022-05-22T14:18:30Z</time>
      </trkpt>
      <trkpt lat="48.55176" lon="3.61004">
        <ele>66</ele>
        <time>2022-05-22T14:18:37Z</time>
      </trkpt>
      <trkpt lat="48.55176" lon="3.61023">
        <ele>66</ele>
        <time>2022-05-22T14:18:39Z</time>
      </trkpt>
      <trkpt lat="48.55171" lon="3.61088">
        <ele>66</ele>
        <time>2022-05-22T14:18:47Z</time>
      </trkpt>
      <trkpt lat="48.55154" lon="3.61186">
        <ele>66</ele>
        <time>2022-05-22T14:18:59Z</time>
      </trkpt>
      <trkpt lat="48.55146" lon="3.61257">
        <ele>66</ele>
        <time>2022-05-22T14:19:07Z</time>
      </trkpt>
      <trkpt lat="48.55124" lon="3.61388">
        <ele>67</ele>
        <time>2022-05-22T14:19:23Z</time>
      </trkpt>
      <trkpt lat="48.55097" lon="3.61508">
        <ele>67</ele>
        <time>2022-05-22T14:19:38Z</time>
      </trkpt>
      <trkpt lat="48.5507" lon="3.61582">
        <ele>65</ele>
        <time>2022-05-22T14:19:48Z</time>
      </trkpt>
      <trkpt lat="48.5506" lon="3.61619">
        <ele>65</ele>
        <time>2022-05-22T14:19:53Z</time>
      </trkpt>
      <trkpt lat="48.55052" lon="3.61655">
        <ele>65</ele>
        <time>2022-05-22T14:19:57Z</time>
      </trkpt>
      <trkpt lat="48.55042" lon="3.61721">
        <ele>65</ele>
        <time>2022-05-22T14:20:05Z</time>
      </trkpt>
      <trkpt lat="48.55022" lon="3.61935">
        <ele>65</ele>
        <time>2022-05-22T14:20:31Z</time>
      </trkpt>
      <trkpt lat="48.55017" lon="3.62019">
        <ele>64</ele>
        <time>2022-05-22T14:20:41Z</time>
      </trkpt>
      <trkpt lat="48.55019" lon="3.62128">
        <ele>65</ele>
        <time>2022-05-22T14:20:53Z</time>
      </trkpt>
      <trkpt lat="48.55029" lon="3.62257">
        <ele>66</ele>
        <time>2022-05-22T14:21:09Z</time>
      </trkpt>
      <trkpt lat="48.55035" lon="3.6236">
        <ele>67</ele>
        <time>2022-05-22T14:21:21Z</time>
      </trkpt>
      <trkpt lat="48.55034" lon="3.6238">
        <ele>67</ele>
        <time>2022-05-22T14:21:23Z</time>
      </trkpt>
      <trkpt lat="48.55023" lon="3.62434">
        <ele>68</ele>
        <time>2022-05-22T14:21:30Z</time>
      </trkpt>
      <trkpt lat="48.55008" lon="3.62477">
        <ele>68</ele>
        <time>2022-05-22T14:21:36Z</time>
      </trkpt>
      <trkpt lat="48.55002" lon="3.62508">
        <ele>68</ele>
        <time>2022-05-22T14:21:40Z</time>
      </trkpt>
      <trkpt lat="48.55013" lon="3.62617">
        <ele>68</ele>
        <time>2022-05-22T14:21:52Z</time>
      </trkpt>
      <trkpt lat="48.55013" lon="3.62651">
        <ele>68</ele>
        <time>2022-05-22T14:21:57Z</time>
      </trkpt>
      <trkpt lat="48.55027" lon="3.62861">
        <ele>67</ele>
        <time>2022-05-22T14:22:21Z</time>
      </trkpt>
      <trkpt lat="48.55069" lon="3.63107">
        <ele>67</ele>
        <time>2022-05-22T14:22:51Z</time>
      </trkpt>
      <trkpt lat="48.55149" lon="3.63501">
        <ele>70</ele>
        <time>2022-05-22T14:23:40Z</time>
      </trkpt>
      <trkpt lat="48.55212" lon="3.63792">
        <ele>72</ele>
        <time>2022-05-22T14:24:16Z</time>
      </trkpt>
      <trkpt lat="48.55332" lon="3.64373">
        <ele>73</ele>
        <time>2022-05-22T14:25:28Z</time>
      </trkpt>
      <trkpt lat="48.55372" lon="3.64554">
        <ele>74</ele>
        <time>2022-05-22T14:25:50Z</time>
      </trkpt>
      <trkpt lat="48.55403" lon="3.6472">
        <ele>78</ele>
        <time>2022-05-22T14:26:10Z</time>
      </trkpt>
      <trkpt lat="48.55412" lon="3.64936">
        <ele>80</ele>
        <time>2022-05-22T14:26:36Z</time>
      </trkpt>
      <trkpt lat="48.55416" lon="3.64968">
        <ele>79</ele>
        <time>2022-05-22T14:26:40Z</time>
      </trkpt>
      <trkpt lat="48.55416" lon="3.65065">
        <ele>76</ele>
        <time>2022-05-22T14:26:51Z</time>
      </trkpt>
      <trkpt lat="48.55414" lon="3.65089">
        <ele>75</ele>
        <time>2022-05-22T14:26:54Z</time>
      </trkpt>
      <trkpt lat="48.55417" lon="3.65188">
        <ele>74</ele>
        <time>2022-05-22T14:27:06Z</time>
      </trkpt>
      <trkpt lat="48.55416" lon="3.65233">
        <ele>73</ele>
        <time>2022-05-22T14:27:11Z</time>
      </trkpt>
      <trkpt lat="48.55412" lon="3.65248">
        <ele>73</ele>
        <time>2022-05-22T14:27:13Z</time>
      </trkpt>
      <trkpt lat="48.55397" lon="3.65275">
        <ele>72</ele>
        <time>2022-05-22T14:27:17Z</time>
      </trkpt>
      <trkpt lat="48.55386" lon="3.65283">
        <ele>71</ele>
        <time>2022-05-22T14:27:19Z</time>
      </trkpt>
      <trkpt lat="48.55325" lon="3.65315">
        <ele>70</ele>
        <time>2022-05-22T14:27:31Z</time>
      </trkpt>
      <trkpt lat="48.55316" lon="3.65325">
        <ele>70</ele>
        <time>2022-05-22T14:27:33Z</time>
      </trkpt>
      <trkpt lat="48.55314" lon="3.65342">
        <ele>70</ele>
        <time>2022-05-22T14:27:35Z</time>
      </trkpt>
      <trkpt lat="48.55331" lon="3.65447">
        <ele>70</ele>
        <time>2022-05-22T14:27:47Z</time>
      </trkpt>
      <trkpt lat="48.55335" lon="3.65496">
        <ele>69</ele>
        <time>2022-05-22T14:27:53Z</time>
      </trkpt>
      <trkpt lat="48.55326" lon="3.65589">
        <ele>69</ele>
        <time>2022-05-22T14:28:04Z</time>
      </trkpt>
      <trkpt lat="48.55309" lon="3.65692">
        <ele>69</ele>
        <time>2022-05-22T14:28:17Z</time>
      </trkpt>
      <trkpt lat="48.55309" lon="3.65754">
        <ele>69</ele>
        <time>2022-05-22T14:28:24Z</time>
      </trkpt>
      <trkpt lat="48.55321" lon="3.65914">
        <ele>70</ele>
        <time>2022-05-22T14:28:43Z</time>
      </trkpt>
      <trkpt lat="48.55334" lon="3.65979">
        <ele>70</ele>
        <time>2022-05-22T14:28:51Z</time>
      </trkpt>
      <trkpt lat="48.55361" lon="3.66063">
        <ele>69</ele>
        <time>2022-05-22T14:29:02Z</time>
      </trkpt>
      <trkpt lat="48.55364" lon="3.66078">
        <ele>69</ele>
        <time>2022-05-22T14:29:04Z</time>
      </trkpt>
      <trkpt lat="48.55364" lon="3.6611">
        <ele>69</ele>
        <time>2022-05-22T14:29:08Z</time>
      </trkpt>
      <trkpt lat="48.55361" lon="3.66126">
        <ele>69</ele>
        <time>2022-05-22T14:29:10Z</time>
      </trkpt>
      <trkpt lat="48.55339" lon="3.66188">
        <ele>68</ele>
        <time>2022-05-22T14:29:18Z</time>
      </trkpt>
      <trkpt lat="48.55284" lon="3.66387">
        <ele>67</ele>
        <time>2022-05-22T14:29:43Z</time>
      </trkpt>
      <trkpt lat="48.5527" lon="3.66429">
        <ele>67</ele>
        <time>2022-05-22T14:29:49Z</time>
      </trkpt>
      <trkpt lat="48.55187" lon="3.66732">
        <ele>69</ele>
        <time>2022-05-22T14:30:27Z</time>
      </trkpt>
      <trkpt lat="48.55144" lon="3.66872">
        <ele>68</ele>
        <time>2022-05-22T14:30:46Z</time>
      </trkpt>
      <trkpt lat="48.55133" lon="3.66917">
        <ele>68</ele>
        <time>2022-05-22T14:30:51Z</time>
      </trkpt>
      <trkpt lat="48.55125" lon="3.66971">
        <ele>68</ele>
        <time>2022-05-22T14:30:58Z</time>
      </trkpt>
      <trkpt lat="48.55122" lon="3.67019">
        <ele>68</ele>
        <time>2022-05-22T14:31:03Z</time>
      </trkpt>
      <trkpt lat="48.55123" lon="3.67091">
        <ele>67</ele>
        <time>2022-05-22T14:31:12Z</time>
      </trkpt>
      <trkpt lat="48.55132" lon="3.67087">
        <ele>67</ele>
        <time>2022-05-22T14:31:14Z</time>
      </trkpt>
      <trkpt lat="48.55137" lon="3.67075">
        <ele>67</ele>
        <time>2022-05-22T14:31:15Z</time>
      </trkpt>
      <trkpt lat="48.55125" lon="3.67071">
        <ele>67</ele>
        <time>2022-05-22T14:31:17Z</time>
      </trkpt>
      <trkpt lat="48.55122" lon="3.67084">
        <ele>67</ele>
        <time>2022-05-22T14:31:19Z</time>
      </trkpt>
      <trkpt lat="48.55118" lon="3.67393">
        <ele>67</ele>
        <time>2022-05-22T14:31:56Z</time>
      </trkpt>
      <trkpt lat="48.55125" lon="3.67493">
        <ele>68</ele>
        <time>2022-05-22T14:32:07Z</time>
      </trkpt>
      <trkpt lat="48.55133" lon="3.67567">
        <ele>68</ele>
        <time>2022-05-22T14:32:16Z</time>
      </trkpt>
      <trkpt lat="48.55149" lon="3.67639">
        <ele>69</ele>
        <time>2022-05-22T14:32:25Z</time>
      </trkpt>
      <trkpt lat="48.55151" lon="3.67657">
        <ele>69</ele>
        <time>2022-05-22T14:32:27Z</time>
      </trkpt>
      <trkpt lat="48.55167" lon="3.67723">
        <ele>69</ele>
        <time>2022-05-22T14:32:36Z</time>
      </trkpt>
      <trkpt lat="48.55169" lon="3.67741">
        <ele>69</ele>
        <time>2022-05-22T14:32:38Z</time>
      </trkpt>
      <trkpt lat="48.55186" lon="3.67789">
        <ele>69</ele>
        <time>2022-05-22T14:32:44Z</time>
      </trkpt>
      <trkpt lat="48.55216" lon="3.67913">
        <ele>70</ele>
        <time>2022-05-22T14:33:00Z</time>
      </trkpt>
      <trkpt lat="48.55218" lon="3.67929">
        <ele>70</ele>
        <time>2022-05-22T14:33:02Z</time>
      </trkpt>
      <trkpt lat="48.55216" lon="3.67944">
        <ele>71</ele>
        <time>2022-05-22T14:33:03Z</time>
      </trkpt>
      <trkpt lat="48.55208" lon="3.67954">
        <ele>71</ele>
        <time>2022-05-22T14:33:05Z</time>
      </trkpt>
      <trkpt lat="48.5521" lon="3.67968">
        <ele>71</ele>
        <time>2022-05-22T14:33:07Z</time>
      </trkpt>
      <trkpt lat="48.55206" lon="3.6798">
        <ele>71</ele>
        <time>2022-05-22T14:33:09Z</time>
      </trkpt>
      <trkpt lat="48.55188" lon="3.6799">
        <ele>71</ele>
        <time>2022-05-22T14:33:12Z</time>
      </trkpt>
      <trkpt lat="48.55171" lon="3.68003">
        <ele>72</ele>
        <time>2022-05-22T14:33:15Z</time>
      </trkpt>
      <trkpt lat="48.5517" lon="3.67989">
        <ele>72</ele>
        <time>2022-05-22T14:33:17Z</time>
      </trkpt>
      <trkpt lat="48.55159" lon="3.67985">
        <ele>72</ele>
        <time>2022-05-22T14:33:19Z</time>
      </trkpt>
      <trkpt lat="48.55148" lon="3.67988">
        <ele>72</ele>
        <time>2022-05-22T14:33:21Z</time>
      </trkpt>
      <trkpt lat="48.55137" lon="3.67983">
        <ele>71</ele>
        <time>2022-05-22T14:33:23Z</time>
      </trkpt>
      <trkpt lat="48.55124" lon="3.67983">
        <ele>71</ele>
        <time>2022-05-22T14:33:25Z</time>
      </trkpt>
      <trkpt lat="48.55114" lon="3.67989">
        <ele>71</ele>
        <time>2022-05-22T14:33:27Z</time>
      </trkpt>
      <trkpt lat="48.55082" lon="3.68">
        <ele>71</ele>
        <time>2022-05-22T14:33:33Z</time>
      </trkpt>
      <trkpt lat="48.55059" lon="3.68">
        <ele>70</ele>
        <time>2022-05-22T14:33:37Z</time>
      </trkpt>
      <trkpt lat="48.55006" lon="3.68013">
        <ele>69</ele>
        <time>2022-05-22T14:33:47Z</time>
      </trkpt>
      <trkpt lat="48.54996" lon="3.68011">
        <ele>69</ele>
        <time>2022-05-22T14:33:49Z</time>
      </trkpt>
      <trkpt lat="48.54987" lon="3.68003">
        <ele>69</ele>
        <time>2022-05-22T14:33:50Z</time>
      </trkpt>
      <trkpt lat="48.54952" lon="3.68005">
        <ele>68</ele>
        <time>2022-05-22T14:33:57Z</time>
      </trkpt>
      <trkpt lat="48.54931" lon="3.68015">
        <ele>67</ele>
        <time>2022-05-22T14:34:01Z</time>
      </trkpt>
      <trkpt lat="48.54922" lon="3.68025">
        <ele>67</ele>
        <time>2022-05-22T14:34:03Z</time>
      </trkpt>
      <trkpt lat="48.54928" lon="3.68016">
        <ele>67</ele>
        <time>2022-05-22T14:34:04Z</time>
      </trkpt>
      <trkpt lat="48.54955" lon="3.68002">
        <ele>68</ele>
        <time>2022-05-22T14:34:09Z</time>
      </trkpt>
      <trkpt lat="48.54985" lon="3.67996">
        <ele>69</ele>
        <time>2022-05-22T14:34:14Z</time>
      </trkpt>
      <trkpt lat="48.54991" lon="3.68007">
        <ele>69</ele>
        <time>2022-05-22T14:34:16Z</time>
      </trkpt>
      <trkpt lat="48.54944" lon="3.68037">
        <ele>68</ele>
        <time>2022-05-22T14:34:25Z</time>
      </trkpt>
      <trkpt lat="48.54827" lon="3.6816">
        <ele>67</ele>
        <time>2022-05-22T14:34:51Z</time>
      </trkpt>
      <trkpt lat="48.54756" lon="3.68229">
        <ele>68</ele>
        <time>2022-05-22T14:35:06Z</time>
      </trkpt>
      <trkpt lat="48.54713" lon="3.68279">
        <ele>67</ele>
        <time>2022-05-22T14:35:15Z</time>
      </trkpt>
      <trkpt lat="48.5465" lon="3.68366">
        <ele>67</ele>
        <time>2022-05-22T14:35:30Z</time>
      </trkpt>
      <trkpt lat="48.54399" lon="3.68746">
        <ele>68</ele>
        <time>2022-05-22T14:36:34Z</time>
      </trkpt>
      <trkpt lat="48.54401" lon="3.6876">
        <ele>68</ele>
        <time>2022-05-22T14:36:35Z</time>
      </trkpt>
      <trkpt lat="48.54446" lon="3.68889">
        <ele>69</ele>
        <time>2022-05-22T14:36:53Z</time>
      </trkpt>
      <trkpt lat="48.54459" lon="3.68941">
        <ele>68</ele>
        <time>2022-05-22T14:36:59Z</time>
      </trkpt>
      <trkpt lat="48.54466" lon="3.68977">
        <ele>68</ele>
        <time>2022-05-22T14:37:04Z</time>
      </trkpt>
      <trkpt lat="48.54469" lon="3.69022">
        <ele>68</ele>
        <time>2022-05-22T14:37:09Z</time>
      </trkpt>
      <trkpt lat="48.54475" lon="3.69055">
        <ele>68</ele>
        <time>2022-05-22T14:37:13Z</time>
      </trkpt>
      <trkpt lat="48.54475" lon="3.69108">
        <ele>68</ele>
        <time>2022-05-22T14:37:19Z</time>
      </trkpt>
      <trkpt lat="48.54487" lon="3.69181">
        <ele>67</ele>
        <time>2022-05-22T14:37:28Z</time>
      </trkpt>
      <trkpt lat="48.54495" lon="3.69208">
        <ele>67</ele>
        <time>2022-05-22T14:37:31Z</time>
      </trkpt>
      <trkpt lat="48.54507" lon="3.69234">
        <ele>67</ele>
        <time>2022-05-22T14:37:35Z</time>
      </trkpt>
      <trkpt lat="48.54523" lon="3.69261">
        <ele>67</ele>
        <time>2022-05-22T14:37:39Z</time>
      </trkpt>
      <trkpt lat="48.54541" lon="3.69285">
        <ele>67</ele>
        <time>2022-05-22T14:37:44Z</time>
      </trkpt>
      <trkpt lat="48.5457" lon="3.69315">
        <ele>67</ele>
        <time>2022-05-22T14:37:50Z</time>
      </trkpt>
      <trkpt lat="48.54612" lon="3.69344">
        <ele>67</ele>
        <time>2022-05-22T14:37:58Z</time>
      </trkpt>
      <trkpt lat="48.54644" lon="3.69354">
        <ele>67</ele>
        <time>2022-05-22T14:38:04Z</time>
      </trkpt>
      <trkpt lat="48.54674" lon="3.69358">
        <ele>67</ele>
        <time>2022-05-22T14:38:09Z</time>
      </trkpt>
      <trkpt lat="48.54721" lon="3.69356">
        <ele>67</ele>
        <time>2022-05-22T14:38:18Z</time>
      </trkpt>
      <trkpt lat="48.54733" lon="3.69352">
        <ele>67</ele>
        <time>2022-05-22T14:38:20Z</time>
      </trkpt>
      <trkpt lat="48.54772" lon="3.69365">
        <ele>67</ele>
        <time>2022-05-22T14:38:27Z</time>
      </trkpt>
      <trkpt lat="48.54812" lon="3.69389">
        <ele>68</ele>
        <time>2022-05-22T14:38:35Z</time>
      </trkpt>
      <trkpt lat="48.54823" lon="3.69399">
        <ele>68</ele>
        <time>2022-05-22T14:38:37Z</time>
      </trkpt>
      <trkpt lat="48.54849" lon="3.69429">
        <ele>68</ele>
        <time>2022-05-22T14:38:43Z</time>
      </trkpt>
      <trkpt lat="48.54872" lon="3.69472">
        <ele>68</ele>
        <time>2022-05-22T14:38:49Z</time>
      </trkpt>
      <trkpt lat="48.5489" lon="3.69536">
        <ele>69</ele>
        <time>2022-05-22T14:38:58Z</time>
      </trkpt>
      <trkpt lat="48.54898" lon="3.69587">
        <ele>70</ele>
        <time>2022-05-22T14:39:04Z</time>
      </trkpt>
      <trkpt lat="48.54912" lon="3.69646">
        <ele>70</ele>
        <time>2022-05-22T14:39:11Z</time>
      </trkpt>
      <trkpt lat="48.54928" lon="3.69692">
        <ele>70</ele>
        <time>2022-05-22T14:39:17Z</time>
      </trkpt>
      <trkpt lat="48.54958" lon="3.69747">
        <ele>69</ele>
        <time>2022-05-22T14:39:26Z</time>
      </trkpt>
      <trkpt lat="48.54987" lon="3.6978">
        <ele>68</ele>
        <time>2022-05-22T14:39:32Z</time>
      </trkpt>
      <trkpt lat="48.55034" lon="3.69823">
        <ele>68</ele>
        <time>2022-05-22T14:39:42Z</time>
      </trkpt>
      <trkpt lat="48.55045" lon="3.69828">
        <ele>68</ele>
        <time>2022-05-22T14:39:44Z</time>
      </trkpt>
      <trkpt lat="48.55102" lon="3.6987">
        <ele>68</ele>
        <time>2022-05-22T14:39:55Z</time>
      </trkpt>
      <trkpt lat="48.55155" lon="3.69936">
        <ele>68</ele>
        <time>2022-05-22T14:40:07Z</time>
      </trkpt>
      <trkpt lat="48.552" lon="3.70037">
        <ele>67</ele>
        <time>2022-05-22T14:40:22Z</time>
      </trkpt>
      <trkpt lat="48.55235" lon="3.70136">
        <ele>66</ele>
        <time>2022-05-22T14:40:35Z</time>
      </trkpt>
      <trkpt lat="48.55259" lon="3.70222">
        <ele>68</ele>
        <time>2022-05-22T14:40:46Z</time>
      </trkpt>
      <trkpt lat="48.55281" lon="3.70328">
        <ele>69</ele>
        <time>2022-05-22T14:40:59Z</time>
      </trkpt>
      <trkpt lat="48.55289" lon="3.70491">
        <ele>67</ele>
        <time>2022-05-22T14:41:18Z</time>
      </trkpt>
      <trkpt lat="48.55284" lon="3.70528">
        <ele>67</ele>
        <time>2022-05-22T14:41:23Z</time>
      </trkpt>
      <trkpt lat="48.55266" lon="3.70587">
        <ele>67</ele>
        <time>2022-05-22T14:41:30Z</time>
      </trkpt>
      <trkpt lat="48.55258" lon="3.70636">
        <ele>67</ele>
        <time>2022-05-22T14:41:36Z</time>
      </trkpt>
      <trkpt lat="48.55259" lon="3.70702">
        <ele>67</ele>
        <time>2022-05-22T14:41:44Z</time>
      </trkpt>
      <trkpt lat="48.55264" lon="3.70749">
        <ele>67</ele>
        <time>2022-05-22T14:41:50Z</time>
      </trkpt>
      <trkpt lat="48.55271" lon="3.70783">
        <ele>67</ele>
        <time>2022-05-22T14:41:54Z</time>
      </trkpt>
      <trkpt lat="48.55279" lon="3.70815">
        <ele>67</ele>
        <time>2022-05-22T14:41:58Z</time>
      </trkpt>
      <trkpt lat="48.55298" lon="3.70872">
        <ele>68</ele>
        <time>2022-05-22T14:42:05Z</time>
      </trkpt>
      <trkpt lat="48.55319" lon="3.70911">
        <ele>69</ele>
        <time>2022-05-22T14:42:11Z</time>
      </trkpt>
      <trkpt lat="48.55358" lon="3.70969">
        <ele>69</ele>
        <time>2022-05-22T14:42:21Z</time>
      </trkpt>
      <trkpt lat="48.55413" lon="3.71032">
        <ele>68</ele>
        <time>2022-05-22T14:42:33Z</time>
      </trkpt>
      <trkpt lat="48.55423" lon="3.7104">
        <ele>68</ele>
        <time>2022-05-22T14:42:35Z</time>
      </trkpt>
      <trkpt lat="48.55465" lon="3.71089">
        <ele>68</ele>
        <time>2022-05-22T14:42:45Z</time>
      </trkpt>
      <trkpt lat="48.55544" lon="3.71161">
        <ele>68</ele>
        <time>2022-05-22T14:43:01Z</time>
      </trkpt>
      <trkpt lat="48.55564" lon="3.71177">
        <ele>68</ele>
        <time>2022-05-22T14:43:05Z</time>
      </trkpt>
      <trkpt lat="48.55584" lon="3.71185">
        <ele>68</ele>
        <time>2022-05-22T14:43:09Z</time>
      </trkpt>
      <trkpt lat="48.55613" lon="3.71214">
        <ele>68</ele>
        <time>2022-05-22T14:43:15Z</time>
      </trkpt>
      <trkpt lat="48.55622" lon="3.71228">
        <ele>68</ele>
        <time>2022-05-22T14:43:17Z</time>
      </trkpt>
      <trkpt lat="48.55666" lon="3.71304">
        <ele>68</ele>
        <time>2022-05-22T14:43:29Z</time>
      </trkpt>
      <trkpt lat="48.55732" lon="3.71439">
        <ele>68</ele>
        <time>2022-05-22T14:43:49Z</time>
      </trkpt>
      <trkpt lat="48.55739" lon="3.71465">
        <ele>68</ele>
        <time>2022-05-22T14:43:52Z</time>
      </trkpt>
      <trkpt lat="48.5575" lon="3.71535">
        <ele>70</ele>
        <time>2022-05-22T14:44:01Z</time>
      </trkpt>
      <trkpt lat="48.55759" lon="3.71562">
        <ele>70</ele>
        <time>2022-05-22T14:44:04Z</time>
      </trkpt>
      <trkpt lat="48.55774" lon="3.71586">
        <ele>70</ele>
        <time>2022-05-22T14:44:08Z</time>
      </trkpt>
      <trkpt lat="48.55782" lon="3.71592">
        <ele>70</ele>
        <time>2022-05-22T14:44:10Z</time>
      </trkpt>
      <trkpt lat="48.55803" lon="3.71602">
        <ele>70</ele>
        <time>2022-05-22T14:44:14Z</time>
      </trkpt>
      <trkpt lat="48.55834" lon="3.71612">
        <ele>69</ele>
        <time>2022-05-22T14:44:19Z</time>
      </trkpt>
      <trkpt lat="48.55852" lon="3.71625">
        <ele>69</ele>
        <time>2022-05-22T14:44:23Z</time>
      </trkpt>
      <trkpt lat="48.55881" lon="3.71663">
        <ele>70</ele>
        <time>2022-05-22T14:44:30Z</time>
      </trkpt>
      <trkpt lat="48.55907" lon="3.71719">
        <ele>69</ele>
        <time>2022-05-22T14:44:38Z</time>
      </trkpt>
      <trkpt lat="48.55969" lon="3.71878">
        <ele>68</ele>
        <time>2022-05-22T14:45:00Z</time>
      </trkpt>
      <trkpt lat="48.55996" lon="3.71938">
        <ele>69</ele>
        <time>2022-05-22T14:45:08Z</time>
      </trkpt>
      <trkpt lat="48.56054" lon="3.72044">
        <ele>69</ele>
        <time>2022-05-22T14:45:24Z</time>
      </trkpt>
      <trkpt lat="48.56067" lon="3.72076">
        <ele>68</ele>
        <time>2022-05-22T14:45:29Z</time>
      </trkpt>
      <trkpt lat="48.56074" lon="3.72103">
        <ele>68</ele>
        <time>2022-05-22T14:45:32Z</time>
      </trkpt>
      <trkpt lat="48.56079" lon="3.72275">
        <ele>70</ele>
        <time>2022-05-22T14:45:52Z</time>
      </trkpt>
      <trkpt lat="48.56076" lon="3.72306">
        <ele>70</ele>
        <time>2022-05-22T14:45:56Z</time>
      </trkpt>
      <trkpt lat="48.56077" lon="3.72325">
        <ele>71</ele>
        <time>2022-05-22T14:45:58Z</time>
      </trkpt>
      <trkpt lat="48.56084" lon="3.72338">
        <ele>71</ele>
        <time>2022-05-22T14:46:00Z</time>
      </trkpt>
      <trkpt lat="48.56086" lon="3.72423">
        <ele>70</ele>
        <time>2022-05-22T14:46:10Z</time>
      </trkpt>
      <trkpt lat="48.56084" lon="3.72589">
        <ele>69</ele>
        <time>2022-05-22T14:46:30Z</time>
      </trkpt>
      <trkpt lat="48.56087" lon="3.72687">
        <ele>69</ele>
        <time>2022-05-22T14:46:42Z</time>
      </trkpt>
      <trkpt lat="48.56086" lon="3.7276">
        <ele>69</ele>
        <time>2022-05-22T14:46:50Z</time>
      </trkpt>
      <trkpt lat="48.56089" lon="3.72968">
        <ele>69</ele>
        <time>2022-05-22T14:47:15Z</time>
      </trkpt>
      <trkpt lat="48.56087" lon="3.73197">
        <ele>70</ele>
        <time>2022-05-22T14:47:42Z</time>
      </trkpt>
      <trkpt lat="48.56091" lon="3.73367">
        <ele>73</ele>
        <time>2022-05-22T14:48:02Z</time>
      </trkpt>
      <trkpt lat="48.56093" lon="3.73381">
        <ele>72</ele>
        <time>2022-05-22T14:48:03Z</time>
      </trkpt>
      <trkpt lat="48.56092" lon="3.73476">
        <ele>72</ele>
        <time>2022-05-22T14:48:14Z</time>
      </trkpt>
      <trkpt lat="48.56094" lon="3.73513">
        <ele>72</ele>
        <time>2022-05-22T14:48:19Z</time>
      </trkpt>
      <trkpt lat="48.56092" lon="3.73579">
        <ele>70</ele>
        <time>2022-05-22T14:48:27Z</time>
      </trkpt>
      <trkpt lat="48.56094" lon="3.73596">
        <ele>70</ele>
        <time>2022-05-22T14:48:29Z</time>
      </trkpt>
      <trkpt lat="48.56092" lon="3.73615">
        <ele>70</ele>
        <time>2022-05-22T14:48:31Z</time>
      </trkpt>
      <trkpt lat="48.56093" lon="3.7383">
        <ele>72</ele>
        <time>2022-05-22T14:48:56Z</time>
      </trkpt>
      <trkpt lat="48.56086" lon="3.73934">
        <ele>71</ele>
        <time>2022-05-22T14:49:09Z</time>
      </trkpt>
      <trkpt lat="48.56093" lon="3.73969">
        <ele>70</ele>
        <time>2022-05-22T14:49:13Z</time>
      </trkpt>
      <trkpt lat="48.56098" lon="3.74101">
        <ele>70</ele>
        <time>2022-05-22T14:49:28Z</time>
      </trkpt>
      <trkpt lat="48.56095" lon="3.74239">
        <ele>71</ele>
        <time>2022-05-22T14:49:45Z</time>
      </trkpt>
      <trkpt lat="48.56097" lon="3.74577">
        <ele>68</ele>
        <time>2022-05-22T14:50:24Z</time>
      </trkpt>
      <trkpt lat="48.56095" lon="3.74605">
        <ele>68</ele>
        <time>2022-05-22T14:50:28Z</time>
      </trkpt>
      <trkpt lat="48.56098" lon="3.74718">
        <ele>69</ele>
        <time>2022-05-22T14:50:41Z</time>
      </trkpt>
      <trkpt lat="48.56101" lon="3.75271">
        <ele>70</ele>
        <time>2022-05-22T14:51:46Z</time>
      </trkpt>
      <trkpt lat="48.56103" lon="3.75367">
        <ele>71</ele>
        <time>2022-05-22T14:51:58Z</time>
      </trkpt>
      <trkpt lat="48.56106" lon="3.75396">
        <ele>72</ele>
        <time>2022-05-22T14:52:01Z</time>
      </trkpt>
      <trkpt lat="48.56103" lon="3.7552">
        <ele>71</ele>
        <time>2022-05-22T14:52:16Z</time>
      </trkpt>
      <trkpt lat="48.56104" lon="3.75672">
        <ele>70</ele>
        <time>2022-05-22T14:52:34Z</time>
      </trkpt>
      <trkpt lat="48.56109" lon="3.7575">
        <ele>70</ele>
        <time>2022-05-22T14:52:43Z</time>
      </trkpt>
      <trkpt lat="48.56108" lon="3.75851">
        <ele>72</ele>
        <time>2022-05-22T14:52:55Z</time>
      </trkpt>
      <trkpt lat="48.56113" lon="3.75991">
        <ele>73</ele>
        <time>2022-05-22T14:53:11Z</time>
      </trkpt>
      <trkpt lat="48.56109" lon="3.76038">
        <ele>72</ele>
        <time>2022-05-22T14:53:17Z</time>
      </trkpt>
      <trkpt lat="48.56112" lon="3.76334">
        <ele>71</ele>
        <time>2022-05-22T14:53:52Z</time>
      </trkpt>
      <trkpt lat="48.56109" lon="3.76392">
        <ele>70</ele>
        <time>2022-05-22T14:53:58Z</time>
      </trkpt>
      <trkpt lat="48.56114" lon="3.76762">
        <ele>72</ele>
        <time>2022-05-22T14:54:42Z</time>
      </trkpt>
      <trkpt lat="48.56113" lon="3.76974">
        <ele>72</ele>
        <time>2022-05-22T14:55:07Z</time>
      </trkpt>
      <trkpt lat="48.56111" lon="3.76989">
        <ele>72</ele>
        <time>2022-05-22T14:55:09Z</time>
      </trkpt>
      <trkpt lat="48.56114" lon="3.77007">
        <ele>72</ele>
        <time>2022-05-22T14:55:11Z</time>
      </trkpt>
      <trkpt lat="48.56112" lon="3.7726">
        <ele>70</ele>
        <time>2022-05-22T14:55:41Z</time>
      </trkpt>
      <trkpt lat="48.56116" lon="3.77471">
        <ele>69</ele>
        <time>2022-05-22T14:56:06Z</time>
      </trkpt>
      <trkpt lat="48.56115" lon="3.77629">
        <ele>70</ele>
        <time>2022-05-22T14:56:24Z</time>
      </trkpt>
      <trkpt lat="48.56117" lon="3.77721">
        <ele>71</ele>
        <time>2022-05-22T14:56:35Z</time>
      </trkpt>
      <trkpt lat="48.56115" lon="3.7777">
        <ele>70</ele>
        <time>2022-05-22T14:56:41Z</time>
      </trkpt>
      <trkpt lat="48.56122" lon="3.77844">
        <ele>70</ele>
        <time>2022-05-22T14:56:50Z</time>
      </trkpt>
      <trkpt lat="48.56114" lon="3.77924">
        <ele>72</ele>
        <time>2022-05-22T14:56:59Z</time>
      </trkpt>
      <trkpt lat="48.56115" lon="3.7796">
        <ele>72</ele>
        <time>2022-05-22T14:57:03Z</time>
      </trkpt>
      <trkpt lat="48.56119" lon="3.77993">
        <ele>72</ele>
        <time>2022-05-22T14:57:07Z</time>
      </trkpt>
      <trkpt lat="48.5612" lon="3.782">
        <ele>71</ele>
        <time>2022-05-22T14:57:32Z</time>
      </trkpt>
      <trkpt lat="48.56118" lon="3.78218">
        <ele>71</ele>
        <time>2022-05-22T14:57:34Z</time>
      </trkpt>
      <trkpt lat="48.5612" lon="3.78233">
        <ele>71</ele>
        <time>2022-05-22T14:57:36Z</time>
      </trkpt>
      <trkpt lat="48.56122" lon="3.78412">
        <ele>73</ele>
        <time>2022-05-22T14:57:57Z</time>
      </trkpt>
      <trkpt lat="48.56118" lon="3.78458">
        <ele>73</ele>
        <time>2022-05-22T14:58:02Z</time>
      </trkpt>
      <trkpt lat="48.56118" lon="3.78494">
        <ele>73</ele>
        <time>2022-05-22T14:58:06Z</time>
      </trkpt>
      <trkpt lat="48.56123" lon="3.78599">
        <ele>71</ele>
        <time>2022-05-22T14:58:19Z</time>
      </trkpt>
      <trkpt lat="48.56121" lon="3.78635">
        <ele>71</ele>
        <time>2022-05-22T14:58:23Z</time>
      </trkpt>
      <trkpt lat="48.56126" lon="3.78796">
        <ele>71</ele>
        <time>2022-05-22T14:58:42Z</time>
      </trkpt>
      <trkpt lat="48.56125" lon="3.78926">
        <ele>71</ele>
        <time>2022-05-22T14:58:57Z</time>
      </trkpt>
      <trkpt lat="48.56127" lon="3.78961">
        <ele>71</ele>
        <time>2022-05-22T14:59:02Z</time>
      </trkpt>
      <trkpt lat="48.56112" lon="3.7903">
        <ele>71</ele>
        <time>2022-05-22T14:59:10Z</time>
      </trkpt>
      <trkpt lat="48.56091" lon="3.79084">
        <ele>71</ele>
        <time>2022-05-22T14:59:18Z</time>
      </trkpt>
      <trkpt lat="48.56017" lon="3.79186">
        <ele>73</ele>
        <time>2022-05-22T14:59:35Z</time>
      </trkpt>
      <trkpt lat="48.5593" lon="3.7933">
        <ele>73</ele>
        <time>2022-05-22T14:59:58Z</time>
      </trkpt>
      <trkpt lat="48.55811" lon="3.79539">
        <ele>73</ele>
        <time>2022-05-22T15:00:31Z</time>
      </trkpt>
      <trkpt lat="48.55789" lon="3.79573">
        <ele>73</ele>
        <time>2022-05-22T15:00:36Z</time>
      </trkpt>
      <trkpt lat="48.55779" lon="3.7958">
        <ele>73</ele>
        <time>2022-05-22T15:00:38Z</time>
      </trkpt>
      <trkpt lat="48.55767" lon="3.79605">
        <ele>73</ele>
        <time>2022-05-22T15:00:42Z</time>
      </trkpt>
      <trkpt lat="48.55758" lon="3.79632">
        <ele>73</ele>
        <time>2022-05-22T15:00:46Z</time>
      </trkpt>
      <trkpt lat="48.55714" lon="3.79718">
        <ele>74</ele>
        <time>2022-05-22T15:00:58Z</time>
      </trkpt>
      <trkpt lat="48.55691" lon="3.79753">
        <ele>75</ele>
        <time>2022-05-22T15:01:04Z</time>
      </trkpt>
      <trkpt lat="48.55677" lon="3.79781">
        <ele>76</ele>
        <time>2022-05-22T15:01:08Z</time>
      </trkpt>
      <trkpt lat="48.55607" lon="3.79896">
        <ele>75</ele>
        <time>2022-05-22T15:01:27Z</time>
      </trkpt>
      <trkpt lat="48.55547" lon="3.80001">
        <ele>75</ele>
        <time>2022-05-22T15:01:43Z</time>
      </trkpt>
      <trkpt lat="48.55538" lon="3.80013">
        <ele>74</ele>
        <time>2022-05-22T15:01:45Z</time>
      </trkpt>
      <trkpt lat="48.55286" lon="3.80446">
        <ele>76</ele>
        <time>2022-05-22T15:02:53Z</time>
      </trkpt>
      <trkpt lat="48.55208" lon="3.80573">
        <ele>76</ele>
        <time>2022-05-22T15:03:13Z</time>
      </trkpt>
      <trkpt lat="48.54986" lon="3.80954">
        <ele>74</ele>
        <time>2022-05-22T15:04:13Z</time>
      </trkpt>
      <trkpt lat="48.54898" lon="3.811">
        <ele>74</ele>
        <time>2022-05-22T15:04:36Z</time>
      </trkpt>
      <trkpt lat="48.54771" lon="3.81321">
        <ele>75</ele>
        <time>2022-05-22T15:05:11Z</time>
      </trkpt>
      <trkpt lat="48.54696" lon="3.81444">
        <ele>75</ele>
        <time>2022-05-22T15:05:31Z</time>
      </trkpt>
      <trkpt lat="48.54654" lon="3.81519">
        <ele>75</ele>
        <time>2022-05-22T15:05:42Z</time>
      </trkpt>
      <trkpt lat="48.54529" lon="3.81728">
        <ele>75</ele>
        <time>2022-05-22T15:06:15Z</time>
      </trkpt>
      <trkpt lat="48.54395" lon="3.8196">
        <ele>75</ele>
        <time>2022-05-22T15:06:52Z</time>
      </trkpt>
      <trkpt lat="48.54131" lon="3.82406">
        <ele>75</ele>
        <time>2022-05-22T15:08:02Z</time>
      </trkpt>
      <trkpt lat="48.53986" lon="3.82656">
        <ele>76</ele>
        <time>2022-05-22T15:08:41Z</time>
      </trkpt>
      <trkpt lat="48.53697" lon="3.83143">
        <ele>76</ele>
        <time>2022-05-22T15:09:58Z</time>
      </trkpt>
      <trkpt lat="48.5369" lon="3.83162">
        <ele>76</ele>
        <time>2022-05-22T15:10:01Z</time>
      </trkpt>
      <trkpt lat="48.53695" lon="3.8315">
        <ele>76</ele>
        <time>2022-05-22T15:10:03Z</time>
      </trkpt>
      <trkpt lat="48.53614" lon="3.83285">
        <ele>77</ele>
        <time>2022-05-22T15:10:24Z</time>
      </trkpt>
      <trkpt lat="48.53608" lon="3.833">
        <ele>77</ele>
        <time>2022-05-22T15:10:26Z</time>
      </trkpt>
      <trkpt lat="48.53571" lon="3.83358">
        <ele>78</ele>
        <time>2022-05-22T15:10:36Z</time>
      </trkpt>
      <trkpt lat="48.53565" lon="3.83373">
        <ele>78</ele>
        <time>2022-05-22T15:10:38Z</time>
      </trkpt>
      <trkpt lat="48.5355" lon="3.83397">
        <ele>78</ele>
        <time>2022-05-22T15:10:42Z</time>
      </trkpt>
      <trkpt lat="48.53535" lon="3.8342">
        <ele>78</ele>
        <time>2022-05-22T15:10:45Z</time>
      </trkpt>
      <trkpt lat="48.53485" lon="3.8348">
        <ele>78</ele>
        <time>2022-05-22T15:10:57Z</time>
      </trkpt>
      <trkpt lat="48.53449" lon="3.83537">
        <ele>78</ele>
        <time>2022-05-22T15:11:06Z</time>
      </trkpt>
      <trkpt lat="48.53418" lon="3.83579">
        <ele>78</ele>
        <time>2022-05-22T15:11:13Z</time>
      </trkpt>
      <trkpt lat="48.53186" lon="3.83882">
        <ele>77</ele>
        <time>2022-05-22T15:12:08Z</time>
      </trkpt>
      <trkpt lat="48.53107" lon="3.83988">
        <ele>77</ele>
        <time>2022-05-22T15:12:27Z</time>
      </trkpt>
      <trkpt lat="48.5308" lon="3.84028">
        <ele>77</ele>
        <time>2022-05-22T15:12:33Z</time>
      </trkpt>
      <trkpt lat="48.53029" lon="3.84087">
        <ele>77</ele>
        <time>2022-05-22T15:12:45Z</time>
      </trkpt>
      <trkpt lat="48.52938" lon="3.84209">
        <ele>77</ele>
        <time>2022-05-22T15:13:07Z</time>
      </trkpt>
      <trkpt lat="48.52803" lon="3.84381">
        <ele>76</ele>
        <time>2022-05-22T15:13:38Z</time>
      </trkpt>
      <trkpt lat="48.52561" lon="3.847">
        <ele>77</ele>
        <time>2022-05-22T15:14:35Z</time>
      </trkpt>
      <trkpt lat="48.52469" lon="3.84817">
        <ele>78</ele>
        <time>2022-05-22T15:14:57Z</time>
      </trkpt>
      <trkpt lat="48.52206" lon="3.85166">
        <ele>79</ele>
        <time>2022-05-22T15:15:59Z</time>
      </trkpt>
      <trkpt lat="48.52158" lon="3.85225">
        <ele>79</ele>
        <time>2022-05-22T15:16:10Z</time>
      </trkpt>
      <trkpt lat="48.52129" lon="3.85271">
        <ele>80</ele>
        <time>2022-05-22T15:16:17Z</time>
      </trkpt>
      <trkpt lat="48.52053" lon="3.85363">
        <ele>81</ele>
        <time>2022-05-22T15:16:35Z</time>
      </trkpt>
      <trkpt lat="48.52017" lon="3.85426">
        <ele>79</ele>
        <time>2022-05-22T15:16:45Z</time>
      </trkpt>
      <trkpt lat="48.51995" lon="3.85487">
        <ele>79</ele>
        <time>2022-05-22T15:16:53Z</time>
      </trkpt>
      <trkpt lat="48.51988" lon="3.85497">
        <ele>79</ele>
        <time>2022-05-22T15:16:54Z</time>
      </trkpt>
      <trkpt lat="48.51978" lon="3.85523">
        <ele>78</ele>
        <time>2022-05-22T15:16:58Z</time>
      </trkpt>
      <trkpt lat="48.51948" lon="3.85614">
        <ele>78</ele>
        <time>2022-05-22T15:17:10Z</time>
      </trkpt>
      <trkpt lat="48.51941" lon="3.85631">
        <ele>78</ele>
        <time>2022-05-22T15:17:12Z</time>
      </trkpt>
      <trkpt lat="48.51934" lon="3.85639">
        <ele>78</ele>
        <time>2022-05-22T15:17:14Z</time>
      </trkpt>
      <trkpt lat="48.51925" lon="3.85661">
        <ele>79</ele>
        <time>2022-05-22T15:17:17Z</time>
      </trkpt>
      <trkpt lat="48.51912" lon="3.85706">
        <ele>78</ele>
        <time>2022-05-22T15:17:23Z</time>
      </trkpt>
      <trkpt lat="48.51861" lon="3.85835">
        <ele>78</ele>
        <time>2022-05-22T15:17:40Z</time>
      </trkpt>
      <trkpt lat="48.5183" lon="3.85926">
        <ele>77</ele>
        <time>2022-05-22T15:17:52Z</time>
      </trkpt>
      <trkpt lat="48.5181" lon="3.85993">
        <ele>79</ele>
        <time>2022-05-22T15:18:01Z</time>
      </trkpt>
      <trkpt lat="48.51803" lon="3.86008">
        <ele>79</ele>
        <time>2022-05-22T15:18:03Z</time>
      </trkpt>
      <trkpt lat="48.51801" lon="3.86022">
        <ele>79</ele>
        <time>2022-05-22T15:18:05Z</time>
      </trkpt>
      <trkpt lat="48.51742" lon="3.86169">
        <ele>77</ele>
        <time>2022-05-22T15:18:25Z</time>
      </trkpt>
      <trkpt lat="48.51738" lon="3.86186">
        <ele>77</ele>
        <time>2022-05-22T15:18:27Z</time>
      </trkpt>
      <trkpt lat="48.51726" lon="3.86215">
        <ele>78</ele>
        <time>2022-05-22T15:18:31Z</time>
      </trkpt>
      <trkpt lat="48.51695" lon="3.86306">
        <ele>80</ele>
        <time>2022-05-22T15:18:43Z</time>
      </trkpt>
      <trkpt lat="48.51688" lon="3.8632">
        <ele>80</ele>
        <time>2022-05-22T15:18:45Z</time>
      </trkpt>
      <trkpt lat="48.5168" lon="3.86353">
        <ele>80</ele>
        <time>2022-05-22T15:18:50Z</time>
      </trkpt>
      <trkpt lat="48.5166" lon="3.86412">
        <ele>80</ele>
        <time>2022-05-22T15:18:57Z</time>
      </trkpt>
      <trkpt lat="48.51657" lon="3.86428">
        <ele>79</ele>
        <time>2022-05-22T15:18:59Z</time>
      </trkpt>
      <trkpt lat="48.5165" lon="3.86441">
        <ele>79</ele>
        <time>2022-05-22T15:19:01Z</time>
      </trkpt>
      <trkpt lat="48.51585" lon="3.86612">
        <ele>77</ele>
        <time>2022-05-22T15:19:25Z</time>
      </trkpt>
      <trkpt lat="48.51559" lon="3.86697">
        <ele>76</ele>
        <time>2022-05-22T15:19:36Z</time>
      </trkpt>
      <trkpt lat="48.51541" lon="3.8674">
        <ele>77</ele>
        <time>2022-05-22T15:19:42Z</time>
      </trkpt>
      <trkpt lat="48.51483" lon="3.86909">
        <ele>77</ele>
        <time>2022-05-22T15:20:04Z</time>
      </trkpt>
      <trkpt lat="48.51463" lon="3.86958">
        <ele>78</ele>
        <time>2022-05-22T15:20:11Z</time>
      </trkpt>
      <trkpt lat="48.51423" lon="3.87076">
        <ele>79</ele>
        <time>2022-05-22T15:20:26Z</time>
      </trkpt>
      <trkpt lat="48.51401" lon="3.87133">
        <ele>80</ele>
        <time>2022-05-22T15:20:34Z</time>
      </trkpt>
      <trkpt lat="48.51369" lon="3.87231">
        <ele>79</ele>
        <time>2022-05-22T15:20:47Z</time>
      </trkpt>
      <trkpt lat="48.51338" lon="3.87313">
        <ele>78</ele>
        <time>2022-05-22T15:20:58Z</time>
      </trkpt>
      <trkpt lat="48.5132" lon="3.87373">
        <ele>79</ele>
        <time>2022-05-22T15:21:06Z</time>
      </trkpt>
      <trkpt lat="48.513" lon="3.87414">
        <ele>81</ele>
        <time>2022-05-22T15:21:12Z</time>
      </trkpt>
      <trkpt lat="48.51279" lon="3.87476">
        <ele>80</ele>
        <time>2022-05-22T15:21:20Z</time>
      </trkpt>
      <trkpt lat="48.51284" lon="3.87496">
        <ele>80</ele>
        <time>2022-05-22T15:21:23Z</time>
      </trkpt>
      <trkpt lat="48.51292" lon="3.87507">
        <ele>80</ele>
        <time>2022-05-22T15:21:25Z</time>
      </trkpt>
      <trkpt lat="48.51296" lon="3.87522">
        <ele>80</ele>
        <time>2022-05-22T15:21:27Z</time>
      </trkpt>
      <trkpt lat="48.51307" lon="3.87627">
        <ele>80</ele>
        <time>2022-05-22T15:21:39Z</time>
      </trkpt>
      <trkpt lat="48.513" lon="3.87601">
        <ele>80</ele>
        <time>2022-05-22T15:21:42Z</time>
      </trkpt>
      <trkpt lat="48.51295" lon="3.87567">
        <ele>79</ele>
        <time>2022-05-22T15:21:47Z</time>
      </trkpt>
      <trkpt lat="48.51295" lon="3.87552">
        <ele>79</ele>
        <time>2022-05-22T15:21:48Z</time>
      </trkpt>
      <trkpt lat="48.51287" lon="3.87515">
        <ele>80</ele>
        <time>2022-05-22T15:21:53Z</time>
      </trkpt>
      <trkpt lat="48.51272" lon="3.87495">
        <ele>79</ele>
        <time>2022-05-22T15:21:56Z</time>
      </trkpt>
      <trkpt lat="48.51266" lon="3.87507">
        <ele>79</ele>
        <time>2022-05-22T15:21:58Z</time>
      </trkpt>
      <trkpt lat="48.5125" lon="3.87496">
        <ele>78</ele>
        <time>2022-05-22T15:22:01Z</time>
      </trkpt>
      <trkpt lat="48.51233" lon="3.87475">
        <ele>79</ele>
        <time>2022-05-22T15:22:05Z</time>
      </trkpt>
      <trkpt lat="48.51225" lon="3.87464">
        <ele>80</ele>
        <time>2022-05-22T15:22:07Z</time>
      </trkpt>
      <trkpt lat="48.51217" lon="3.87435">
        <ele>81</ele>
        <time>2022-05-22T15:22:11Z</time>
      </trkpt>
      <trkpt lat="48.51205" lon="3.87412">
        <ele>81</ele>
        <time>2022-05-22T15:22:14Z</time>
      </trkpt>
      <trkpt lat="48.51191" lon="3.87395">
        <ele>81</ele>
        <time>2022-05-22T15:22:18Z</time>
      </trkpt>
      <trkpt lat="48.5118" lon="3.87371">
        <ele>81</ele>
        <time>2022-05-22T15:22:21Z</time>
      </trkpt>
      <trkpt lat="48.51182" lon="3.87354">
        <ele>81</ele>
        <time>2022-05-22T15:22:23Z</time>
      </trkpt>
      <trkpt lat="48.51197" lon="3.87317">
        <ele>80</ele>
        <time>2022-05-22T15:22:28Z</time>
      </trkpt>
      <trkpt lat="48.51197" lon="3.87303">
        <ele>80</ele>
        <time>2022-05-22T15:22:30Z</time>
      </trkpt>
      <trkpt lat="48.51193" lon="3.8729">
        <ele>80</ele>
        <time>2022-05-22T15:22:31Z</time>
      </trkpt>
      <trkpt lat="48.51195" lon="3.87261">
        <ele>79</ele>
        <time>2022-05-22T15:22:35Z</time>
      </trkpt>
      <trkpt lat="48.51192" lon="3.87247">
        <ele>79</ele>
        <time>2022-05-22T15:22:37Z</time>
      </trkpt>
      <trkpt lat="48.51196" lon="3.8726">
        <ele>79</ele>
        <time>2022-05-22T15:22:38Z</time>
      </trkpt>
      <trkpt lat="48.51195" lon="3.87276">
        <ele>80</ele>
        <time>2022-05-22T15:22:40Z</time>
      </trkpt>
      <trkpt lat="48.51198" lon="3.8731">
        <ele>80</ele>
        <time>2022-05-22T15:22:44Z</time>
      </trkpt>
      <trkpt lat="48.51196" lon="3.87307">
        <ele>80</ele>
        <time>2022-05-22T15:22:45Z</time>
      </trkpt>
      <trkpt lat="48.51197" lon="3.87293">
        <ele>80</ele>
        <time>2022-05-22T15:22:46Z</time>
      </trkpt>
      <trkpt lat="48.51183" lon="3.87349">
        <ele>81</ele>
        <time>2022-05-22T15:22:53Z</time>
      </trkpt>
      <trkpt lat="48.51183" lon="3.87364">
        <ele>81</ele>
        <time>2022-05-22T15:22:55Z</time>
      </trkpt>
      <trkpt lat="48.51188" lon="3.8738">
        <ele>81</ele>
        <time>2022-05-22T15:22:57Z</time>
      </trkpt>
      <trkpt lat="48.51213" lon="3.8743">
        <ele>81</ele>
        <time>2022-05-22T15:23:05Z</time>
      </trkpt>
      <trkpt lat="48.51223" lon="3.87458">
        <ele>80</ele>
        <time>2022-05-22T15:23:08Z</time>
      </trkpt>
      <trkpt lat="48.51254" lon="3.87498">
        <ele>78</ele>
        <time>2022-05-22T15:23:16Z</time>
      </trkpt>
      <trkpt lat="48.51257" lon="3.87511">
        <ele>78</ele>
        <time>2022-05-22T15:23:17Z</time>
      </trkpt>
      <trkpt lat="48.51263" lon="3.875">
        <ele>79</ele>
        <time>2022-05-22T15:23:19Z</time>
      </trkpt>
      <trkpt lat="48.51272" lon="3.87496">
        <ele>79</ele>
        <time>2022-05-22T15:23:21Z</time>
      </trkpt>
      <trkpt lat="48.5128" lon="3.87502">
        <ele>79</ele>
        <time>2022-05-22T15:23:22Z</time>
      </trkpt>
      <trkpt lat="48.51287" lon="3.87513">
        <ele>80</ele>
        <time>2022-05-22T15:23:24Z</time>
      </trkpt>
      <trkpt lat="48.51292" lon="3.87527">
        <ele>80</ele>
        <time>2022-05-22T15:23:26Z</time>
      </trkpt>
      <trkpt lat="48.51299" lon="3.87629">
        <ele>80</ele>
        <time>2022-05-22T15:23:38Z</time>
      </trkpt>
      <trkpt lat="48.513" lon="3.87728">
        <ele>81</ele>
        <time>2022-05-22T15:23:50Z</time>
      </trkpt>
      <trkpt lat="48.51307" lon="3.87895">
        <ele>80</ele>
        <time>2022-05-22T15:24:09Z</time>
      </trkpt>
      <trkpt lat="48.51306" lon="3.88037">
        <ele>80</ele>
        <time>2022-05-22T15:24:26Z</time>
      </trkpt>
      <trkpt lat="48.51295" lon="3.88114">
        <ele>80</ele>
        <time>2022-05-22T15:24:35Z</time>
      </trkpt>
      <trkpt lat="48.51283" lon="3.88171">
        <ele>80</ele>
        <time>2022-05-22T15:24:43Z</time>
      </trkpt>
      <trkpt lat="48.51242" lon="3.88281">
        <ele>79</ele>
        <time>2022-05-22T15:24:57Z</time>
      </trkpt>
      <trkpt lat="48.51222" lon="3.88321">
        <ele>78</ele>
        <time>2022-05-22T15:25:03Z</time>
      </trkpt>
      <trkpt lat="48.51204" lon="3.88354">
        <ele>77</ele>
        <time>2022-05-22T15:25:08Z</time>
      </trkpt>
      <trkpt lat="48.51161" lon="3.88419">
        <ele>77</ele>
        <time>2022-05-22T15:25:19Z</time>
      </trkpt>
      <trkpt lat="48.50991" lon="3.88664">
        <ele>81</ele>
        <time>2022-05-22T15:26:01Z</time>
      </trkpt>
      <trkpt lat="48.50969" lon="3.88705">
        <ele>80</ele>
        <time>2022-05-22T15:26:07Z</time>
      </trkpt>
      <trkpt lat="48.50969" lon="3.88722">
        <ele>80</ele>
        <time>2022-05-22T15:26:09Z</time>
      </trkpt>
      <trkpt lat="48.50974" lon="3.88735">
        <ele>80</ele>
        <time>2022-05-22T15:26:11Z</time>
      </trkpt>
      <trkpt lat="48.51005" lon="3.88791">
        <ele>80</ele>
        <time>2022-05-22T15:26:20Z</time>
      </trkpt>
      <trkpt lat="48.51041" lon="3.88849">
        <ele>82</ele>
        <time>2022-05-22T15:26:29Z</time>
      </trkpt>
      <trkpt lat="48.51054" lon="3.88874">
        <ele>82</ele>
        <time>2022-05-22T15:26:33Z</time>
      </trkpt>
      <trkpt lat="48.51069" lon="3.88917">
        <ele>82</ele>
        <time>2022-05-22T15:26:38Z</time>
      </trkpt>
      <trkpt lat="48.51089" lon="3.89094">
        <ele>84</ele>
        <time>2022-05-22T15:27:00Z</time>
      </trkpt>
      <trkpt lat="48.51087" lon="3.89167">
        <ele>86</ele>
        <time>2022-05-22T15:27:08Z</time>
      </trkpt>
      <trkpt lat="48.5107" lon="3.8923">
        <ele>85</ele>
        <time>2022-05-22T15:27:16Z</time>
      </trkpt>
      <trkpt lat="48.51048" lon="3.89272">
        <ele>85</ele>
        <time>2022-05-22T15:27:23Z</time>
      </trkpt>
      <trkpt lat="48.51021" lon="3.8931">
        <ele>85</ele>
        <time>2022-05-22T15:27:29Z</time>
      </trkpt>
      <trkpt lat="48.50895" lon="3.89363">
        <ele>86</ele>
        <time>2022-05-22T15:27:52Z</time>
      </trkpt>
      <trkpt lat="48.50864" lon="3.89379">
        <ele>85</ele>
        <time>2022-05-22T15:27:58Z</time>
      </trkpt>
      <trkpt lat="48.50776" lon="3.89415">
        <ele>85</ele>
        <time>2022-05-22T15:28:14Z</time>
      </trkpt>
      <trkpt lat="48.50733" lon="3.89438">
        <ele>85</ele>
        <time>2022-05-22T15:28:23Z</time>
      </trkpt>
      <trkpt lat="48.50684" lon="3.89475">
        <ele>83</ele>
        <time>2022-05-22T15:28:32Z</time>
      </trkpt>
      <trkpt lat="48.50652" lon="3.89505">
        <ele>83</ele>
        <time>2022-05-22T15:28:39Z</time>
      </trkpt>
      <trkpt lat="48.50617" lon="3.89544">
        <ele>82</ele>
        <time>2022-05-22T15:28:47Z</time>
      </trkpt>
      <trkpt lat="48.50584" lon="3.89593">
        <ele>82</ele>
        <time>2022-05-22T15:28:55Z</time>
      </trkpt>
      <trkpt lat="48.50547" lon="3.89658">
        <ele>81</ele>
        <time>2022-05-22T15:29:05Z</time>
      </trkpt>
      <trkpt lat="48.50486" lon="3.89783">
        <ele>81</ele>
        <time>2022-05-22T15:29:23Z</time>
      </trkpt>
      <trkpt lat="48.50468" lon="3.89816">
        <ele>81</ele>
        <time>2022-05-22T15:29:28Z</time>
      </trkpt>
      <trkpt lat="48.5045" lon="3.89841">
        <ele>81</ele>
        <time>2022-05-22T15:29:33Z</time>
      </trkpt>
      <trkpt lat="48.50382" lon="3.89974">
        <ele>81</ele>
        <time>2022-05-22T15:29:53Z</time>
      </trkpt>
      <trkpt lat="48.50335" lon="3.90074">
        <ele>81</ele>
        <time>2022-05-22T15:30:07Z</time>
      </trkpt>
      <trkpt lat="48.5032" lon="3.90098">
        <ele>81</ele>
        <time>2022-05-22T15:30:11Z</time>
      </trkpt>
      <trkpt lat="48.50293" lon="3.90157">
        <ele>81</ele>
        <time>2022-05-22T15:30:19Z</time>
      </trkpt>
      <trkpt lat="48.50286" lon="3.90167">
        <ele>81</ele>
        <time>2022-05-22T15:30:21Z</time>
      </trkpt>
      <trkpt lat="48.50234" lon="3.90274">
        <ele>82</ele>
        <time>2022-05-22T15:30:37Z</time>
      </trkpt>
      <trkpt lat="48.50065" lon="3.90602">
        <ele>81</ele>
        <time>2022-05-22T15:31:26Z</time>
      </trkpt>
      <trkpt lat="48.50048" lon="3.90631">
        <ele>81</ele>
        <time>2022-05-22T15:31:30Z</time>
      </trkpt>
      <trkpt lat="48.50022" lon="3.90688">
        <ele>82</ele>
        <time>2022-05-22T15:31:38Z</time>
      </trkpt>
      <trkpt lat="48.49991" lon="3.90746">
        <ele>81</ele>
        <time>2022-05-22T15:31:47Z</time>
      </trkpt>
      <trkpt lat="48.49921" lon="3.90889">
        <ele>83</ele>
        <time>2022-05-22T15:32:08Z</time>
      </trkpt>
      <trkpt lat="48.49874" lon="3.90975">
        <ele>81</ele>
        <time>2022-05-22T15:32:21Z</time>
      </trkpt>
      <trkpt lat="48.49842" lon="3.91041">
        <ele>82</ele>
        <time>2022-05-22T15:32:31Z</time>
      </trkpt>
      <trkpt lat="48.49765" lon="3.91187">
        <ele>82</ele>
        <time>2022-05-22T15:32:53Z</time>
      </trkpt>
      <trkpt lat="48.49736" lon="3.91249">
        <ele>82</ele>
        <time>2022-05-22T15:33:02Z</time>
      </trkpt>
      <trkpt lat="48.49721" lon="3.91274">
        <ele>82</ele>
        <time>2022-05-22T15:33:06Z</time>
      </trkpt>
      <trkpt lat="48.49658" lon="3.91399">
        <ele>84</ele>
        <time>2022-05-22T15:33:24Z</time>
      </trkpt>
      <trkpt lat="48.49624" lon="3.91472">
        <ele>83</ele>
        <time>2022-05-22T15:33:35Z</time>
      </trkpt>
      <trkpt lat="48.49602" lon="3.91511">
        <ele>83</ele>
        <time>2022-05-22T15:33:41Z</time>
      </trkpt>
      <trkpt lat="48.49564" lon="3.91588">
        <ele>83</ele>
        <time>2022-05-22T15:33:52Z</time>
      </trkpt>
      <trkpt lat="48.49522" lon="3.91661">
        <ele>82</ele>
        <time>2022-05-22T15:34:04Z</time>
      </trkpt>
      <trkpt lat="48.4945" lon="3.91761">
        <ele>84</ele>
        <time>2022-05-22T15:34:21Z</time>
      </trkpt>
      <trkpt lat="48.49424" lon="3.91789">
        <ele>84</ele>
        <time>2022-05-22T15:34:27Z</time>
      </trkpt>
      <trkpt lat="48.49396" lon="3.91811">
        <ele>83</ele>
        <time>2022-05-22T15:34:32Z</time>
      </trkpt>
      <trkpt lat="48.49369" lon="3.91827">
        <ele>83</ele>
        <time>2022-05-22T15:34:38Z</time>
      </trkpt>
      <trkpt lat="48.49329" lon="3.91864">
        <ele>83</ele>
        <time>2022-05-22T15:34:46Z</time>
      </trkpt>
      <trkpt lat="48.4928" lon="3.9189">
        <ele>83</ele>
        <time>2022-05-22T15:34:55Z</time>
      </trkpt>
      <trkpt lat="48.49246" lon="3.919">
        <ele>84</ele>
        <time>2022-05-22T15:35:01Z</time>
      </trkpt>
      <trkpt lat="48.49199" lon="3.91908">
        <ele>83</ele>
        <time>2022-05-22T15:35:10Z</time>
      </trkpt>
      <trkpt lat="48.49144" lon="3.91909">
        <ele>82</ele>
        <time>2022-05-22T15:35:20Z</time>
      </trkpt>
      <trkpt lat="48.49085" lon="3.919">
        <ele>82</ele>
        <time>2022-05-22T15:35:30Z</time>
      </trkpt>
      <trkpt lat="48.49031" lon="3.91884">
        <ele>82</ele>
        <time>2022-05-22T15:35:40Z</time>
      </trkpt>
      <trkpt lat="48.49006" lon="3.91874">
        <ele>82</ele>
        <time>2022-05-22T15:35:44Z</time>
      </trkpt>
      <trkpt lat="48.48981" lon="3.91869">
        <ele>82</ele>
        <time>2022-05-22T15:35:49Z</time>
      </trkpt>
      <trkpt lat="48.48969" lon="3.91865">
        <ele>82</ele>
        <time>2022-05-22T15:35:51Z</time>
      </trkpt>
      <trkpt lat="48.48903" lon="3.91823">
        <ele>83</ele>
        <time>2022-05-22T15:36:04Z</time>
      </trkpt>
      <trkpt lat="48.48841" lon="3.91789">
        <ele>84</ele>
        <time>2022-05-22T15:36:16Z</time>
      </trkpt>
      <trkpt lat="48.48822" lon="3.91781">
        <ele>84</ele>
        <time>2022-05-22T15:36:19Z</time>
      </trkpt>
      <trkpt lat="48.48814" lon="3.91774">
        <ele>84</ele>
        <time>2022-05-22T15:36:21Z</time>
      </trkpt>
      <trkpt lat="48.48762" lon="3.91744">
        <ele>84</ele>
        <time>2022-05-22T15:36:31Z</time>
      </trkpt>
      <trkpt lat="48.48622" lon="3.9167">
        <ele>84</ele>
        <time>2022-05-22T15:36:57Z</time>
      </trkpt>
      <trkpt lat="48.48585" lon="3.91653">
        <ele>84</ele>
        <time>2022-05-22T15:37:04Z</time>
      </trkpt>
      <trkpt lat="48.48522" lon="3.91617">
        <ele>84</ele>
        <time>2022-05-22T15:37:16Z</time>
      </trkpt>
      <trkpt lat="48.48257" lon="3.91477">
        <ele>87</ele>
        <time>2022-05-22T15:38:06Z</time>
      </trkpt>
      <trkpt lat="48.48225" lon="3.91458">
        <ele>88</ele>
        <time>2022-05-22T15:38:12Z</time>
      </trkpt>
      <trkpt lat="48.48076" lon="3.91383">
        <ele>88</ele>
        <time>2022-05-22T15:38:40Z</time>
      </trkpt>
      <trkpt lat="48.4798" lon="3.91328">
        <ele>84</ele>
        <time>2022-05-22T15:38:58Z</time>
      </trkpt>
      <trkpt lat="48.47911" lon="3.91293">
        <ele>84</ele>
        <time>2022-05-22T15:39:11Z</time>
      </trkpt>
      <trkpt lat="48.47885" lon="3.91277">
        <ele>84</ele>
        <time>2022-05-22T15:39:16Z</time>
      </trkpt>
      <trkpt lat="48.47834" lon="3.91253">
        <ele>84</ele>
        <time>2022-05-22T15:39:26Z</time>
      </trkpt>
      <trkpt lat="48.47742" lon="3.91201">
        <ele>84</ele>
        <time>2022-05-22T15:39:43Z</time>
      </trkpt>
      <trkpt lat="48.47643" lon="3.9115">
        <ele>85</ele>
        <time>2022-05-22T15:40:02Z</time>
      </trkpt>
      <trkpt lat="48.4757" lon="3.91109">
        <ele>84</ele>
        <time>2022-05-22T15:40:16Z</time>
      </trkpt>
      <trkpt lat="48.47361" lon="3.91002">
        <ele>82</ele>
        <time>2022-05-22T15:40:55Z</time>
      </trkpt>
      <trkpt lat="48.47342" lon="3.90994">
        <ele>83</ele>
        <time>2022-05-22T15:40:58Z</time>
      </trkpt>
      <trkpt lat="48.47314" lon="3.90987">
        <ele>83</ele>
        <time>2022-05-22T15:41:03Z</time>
      </trkpt>
      <trkpt lat="48.47285" lon="3.90986">
        <ele>83</ele>
        <time>2022-05-22T15:41:09Z</time>
      </trkpt>
      <trkpt lat="48.47253" lon="3.90993">
        <ele>84</ele>
        <time>2022-05-22T15:41:14Z</time>
      </trkpt>
      <trkpt lat="48.47241" lon="3.90998">
        <ele>84</ele>
        <time>2022-05-22T15:41:17Z</time>
      </trkpt>
      <trkpt lat="48.47202" lon="3.91021">
        <ele>83</ele>
        <time>2022-05-22T15:41:24Z</time>
      </trkpt>
      <trkpt lat="48.47179" lon="3.91044">
        <ele>83</ele>
        <time>2022-05-22T15:41:29Z</time>
      </trkpt>
      <trkpt lat="48.4716" lon="3.91078">
        <ele>84</ele>
        <time>2022-05-22T15:41:34Z</time>
      </trkpt>
      <trkpt lat="48.47152" lon="3.91088">
        <ele>84</ele>
        <time>2022-05-22T15:41:36Z</time>
      </trkpt>
      <trkpt lat="48.47135" lon="3.91102">
        <ele>84</ele>
        <time>2022-05-22T15:41:40Z</time>
      </trkpt>
      <trkpt lat="48.47093" lon="3.91153">
        <ele>85</ele>
        <time>2022-05-22T15:41:49Z</time>
      </trkpt>
      <trkpt lat="48.4699" lon="3.91296">
        <ele>85</ele>
        <time>2022-05-22T15:42:14Z</time>
      </trkpt>
      <trkpt lat="48.46944" lon="3.91353">
        <ele>83</ele>
        <time>2022-05-22T15:42:25Z</time>
      </trkpt>
      <trkpt lat="48.46926" lon="3.9138">
        <ele>83</ele>
        <time>2022-05-22T15:42:29Z</time>
      </trkpt>
      <trkpt lat="48.46804" lon="3.91543">
        <ele>85</ele>
        <time>2022-05-22T15:42:58Z</time>
      </trkpt>
      <trkpt lat="48.46787" lon="3.9157">
        <ele>85</ele>
        <time>2022-05-22T15:43:03Z</time>
      </trkpt>
      <trkpt lat="48.46734" lon="3.91643">
        <ele>86</ele>
        <time>2022-05-22T15:43:15Z</time>
      </trkpt>
      <trkpt lat="48.46723" lon="3.91655">
        <ele>86</ele>
        <time>2022-05-22T15:43:18Z</time>
      </trkpt>
      <trkpt lat="48.46668" lon="3.9173">
        <ele>86</ele>
        <time>2022-05-22T15:43:31Z</time>
      </trkpt>
      <trkpt lat="48.46648" lon="3.91753">
        <ele>86</ele>
        <time>2022-05-22T15:43:35Z</time>
      </trkpt>
      <trkpt lat="48.46631" lon="3.91779">
        <ele>86</ele>
        <time>2022-05-22T15:43:40Z</time>
      </trkpt>
      <trkpt lat="48.4655" lon="3.91885">
        <ele>85</ele>
        <time>2022-05-22T15:43:59Z</time>
      </trkpt>
      <trkpt lat="48.46527" lon="3.91917">
        <ele>84</ele>
        <time>2022-05-22T15:44:04Z</time>
      </trkpt>
      <trkpt lat="48.46515" lon="3.91938">
        <ele>84</ele>
        <time>2022-05-22T15:44:08Z</time>
      </trkpt>
      <trkpt lat="48.46491" lon="3.91968">
        <ele>84</ele>
        <time>2022-05-22T15:44:13Z</time>
      </trkpt>
      <trkpt lat="48.46482" lon="3.91976">
        <ele>83</ele>
        <time>2022-05-22T15:44:15Z</time>
      </trkpt>
      <trkpt lat="48.4611" lon="3.92477">
        <ele>86</ele>
        <time>2022-05-22T15:45:44Z</time>
      </trkpt>
      <trkpt lat="48.46085" lon="3.92514">
        <ele>87</ele>
        <time>2022-05-22T15:45:50Z</time>
      </trkpt>
      <trkpt lat="48.45922" lon="3.92729">
        <ele>86</ele>
        <time>2022-05-22T15:46:29Z</time>
      </trkpt>
      <trkpt lat="48.459" lon="3.92762">
        <ele>86</ele>
        <time>2022-05-22T15:46:34Z</time>
      </trkpt>
      <trkpt lat="48.45885" lon="3.92779">
        <ele>86</ele>
        <time>2022-05-22T15:46:37Z</time>
      </trkpt>
      <trkpt lat="48.4582" lon="3.92866">
        <ele>87</ele>
        <time>2022-05-22T15:46:53Z</time>
      </trkpt>
      <trkpt lat="48.45726" lon="3.92995">
        <ele>87</ele>
        <time>2022-05-22T15:47:15Z</time>
      </trkpt>
      <trkpt lat="48.45691" lon="3.93038">
        <ele>86</ele>
        <time>2022-05-22T15:47:23Z</time>
      </trkpt>
      <trkpt lat="48.4551" lon="3.93283">
        <ele>88</ele>
        <time>2022-05-22T15:48:07Z</time>
      </trkpt>
      <trkpt lat="48.45462" lon="3.93344">
        <ele>89</ele>
        <time>2022-05-22T15:48:18Z</time>
      </trkpt>
      <trkpt lat="48.4533" lon="3.93526">
        <ele>87</ele>
        <time>2022-05-22T15:48:50Z</time>
      </trkpt>
      <trkpt lat="48.45228" lon="3.9366">
        <ele>86</ele>
        <time>2022-05-22T15:49:14Z</time>
      </trkpt>
      <trkpt lat="48.45134" lon="3.93793">
        <ele>87</ele>
        <time>2022-05-22T15:49:37Z</time>
      </trkpt>
      <trkpt lat="48.45087" lon="3.93852">
        <ele>86</ele>
        <time>2022-05-22T15:49:48Z</time>
      </trkpt>
      <trkpt lat="48.45047" lon="3.93909">
        <ele>85</ele>
        <time>2022-05-22T15:49:57Z</time>
      </trkpt>
      <trkpt lat="48.45018" lon="3.93945">
        <ele>85</ele>
        <time>2022-05-22T15:50:04Z</time>
      </trkpt>
      <trkpt lat="48.45012" lon="3.93956">
        <ele>85</ele>
        <time>2022-05-22T15:50:06Z</time>
      </trkpt>
      <trkpt lat="48.44989" lon="3.93983">
        <ele>85</ele>
        <time>2022-05-22T15:50:11Z</time>
      </trkpt>
      <trkpt lat="48.44809" lon="3.94223">
        <ele>85</ele>
        <time>2022-05-22T15:50:54Z</time>
      </trkpt>
      <trkpt lat="48.44764" lon="3.94302">
        <ele>86</ele>
        <time>2022-05-22T15:51:06Z</time>
      </trkpt>
      <trkpt lat="48.44755" lon="3.94314">
        <ele>86</ele>
        <time>2022-05-22T15:51:08Z</time>
      </trkpt>
      <trkpt lat="48.44734" lon="3.94323">
        <ele>86</ele>
        <time>2022-05-22T15:51:12Z</time>
      </trkpt>
      <trkpt lat="48.44717" lon="3.94335">
        <ele>86</ele>
        <time>2022-05-22T15:51:15Z</time>
      </trkpt>
      <trkpt lat="48.44677" lon="3.94355">
        <ele>86</ele>
        <time>2022-05-22T15:51:23Z</time>
      </trkpt>
      <trkpt lat="48.44582" lon="3.9436">
        <ele>87</ele>
        <time>2022-05-22T15:51:40Z</time>
      </trkpt>
      <trkpt lat="48.44552" lon="3.94368">
        <ele>87</ele>
        <time>2022-05-22T15:51:45Z</time>
      </trkpt>
      <trkpt lat="48.44521" lon="3.94365">
        <ele>87</ele>
        <time>2022-05-22T15:51:51Z</time>
      </trkpt>
      <trkpt lat="48.44496" lon="3.94367">
        <ele>87</ele>
        <time>2022-05-22T15:51:55Z</time>
      </trkpt>
      <trkpt lat="48.44473" lon="3.94365">
        <ele>87</ele>
        <time>2022-05-22T15:51:59Z</time>
      </trkpt>
      <trkpt lat="48.44418" lon="3.94371">
        <ele>87</ele>
        <time>2022-05-22T15:52:09Z</time>
      </trkpt>
      <trkpt lat="48.44341" lon="3.94371">
        <ele>86</ele>
        <time>2022-05-22T15:52:23Z</time>
      </trkpt>
      <trkpt lat="48.4426" lon="3.94374">
        <ele>87</ele>
        <time>2022-05-22T15:52:37Z</time>
      </trkpt>
      <trkpt lat="48.44236" lon="3.94377">
        <ele>87</ele>
        <time>2022-05-22T15:52:42Z</time>
      </trkpt>
      <trkpt lat="48.44133" lon="3.94377">
        <ele>88</ele>
        <time>2022-05-22T15:53:00Z</time>
      </trkpt>
      <trkpt lat="48.44088" lon="3.94381">
        <ele>89</ele>
        <time>2022-05-22T15:53:08Z</time>
      </trkpt>
      <trkpt lat="48.44017" lon="3.94382">
        <ele>89</ele>
        <time>2022-05-22T15:53:21Z</time>
      </trkpt>
      <trkpt lat="48.4395" lon="3.94388">
        <ele>89</ele>
        <time>2022-05-22T15:53:32Z</time>
      </trkpt>
      <trkpt lat="48.43908" lon="3.94387">
        <ele>90</ele>
        <time>2022-05-22T15:53:40Z</time>
      </trkpt>
      <trkpt lat="48.43827" lon="3.94396">
        <ele>88</ele>
        <time>2022-05-22T15:53:54Z</time>
      </trkpt>
      <trkpt lat="48.43747" lon="3.94408">
        <ele>88</ele>
        <time>2022-05-22T15:54:09Z</time>
      </trkpt>
      <trkpt lat="48.43685" lon="3.94421">
        <ele>88</ele>
        <time>2022-05-22T15:54:20Z</time>
      </trkpt>
      <trkpt lat="48.43513" lon="3.94468">
        <ele>86</ele>
        <time>2022-05-22T15:54:51Z</time>
      </trkpt>
      <trkpt lat="48.43366" lon="3.94522">
        <ele>88</ele>
        <time>2022-05-22T15:55:18Z</time>
      </trkpt>
      <trkpt lat="48.43236" lon="3.94586">
        <ele>89</ele>
        <time>2022-05-22T15:55:42Z</time>
      </trkpt>
      <trkpt lat="48.43097" lon="3.94663">
        <ele>88</ele>
        <time>2022-05-22T15:56:09Z</time>
      </trkpt>
      <trkpt lat="48.43034" lon="3.94704">
        <ele>90</ele>
        <time>2022-05-22T15:56:21Z</time>
      </trkpt>
      <trkpt lat="48.42978" lon="3.94744">
        <ele>90</ele>
        <time>2022-05-22T15:56:32Z</time>
      </trkpt>
      <trkpt lat="48.42873" lon="3.94821">
        <ele>90</ele>
        <time>2022-05-22T15:56:53Z</time>
      </trkpt>
      <trkpt lat="48.42796" lon="3.94886">
        <ele>88</ele>
        <time>2022-05-22T15:57:08Z</time>
      </trkpt>
      <trkpt lat="48.42775" lon="3.94907">
        <ele>88</ele>
        <time>2022-05-22T15:57:13Z</time>
      </trkpt>
      <trkpt lat="48.42708" lon="3.94964">
        <ele>88</ele>
        <time>2022-05-22T15:57:26Z</time>
      </trkpt>
      <trkpt lat="48.42637" lon="3.95033">
        <ele>87</ele>
        <time>2022-05-22T15:57:41Z</time>
      </trkpt>
      <trkpt lat="48.42576" lon="3.95086">
        <ele>87</ele>
        <time>2022-05-22T15:57:54Z</time>
      </trkpt>
      <trkpt lat="48.42478" lon="3.95178">
        <ele>87</ele>
        <time>2022-05-22T15:58:15Z</time>
      </trkpt>
      <trkpt lat="48.42416" lon="3.95234">
        <ele>88</ele>
        <time>2022-05-22T15:58:27Z</time>
      </trkpt>
      <trkpt lat="48.42378" lon="3.95264">
        <ele>87</ele>
        <time>2022-05-22T15:58:35Z</time>
      </trkpt>
      <trkpt lat="48.42321" lon="3.95331">
        <ele>88</ele>
        <time>2022-05-22T15:58:48Z</time>
      </trkpt>
      <trkpt lat="48.42296" lon="3.95344">
        <ele>88</ele>
        <time>2022-05-22T15:58:53Z</time>
      </trkpt>
      <trkpt lat="48.42202" lon="3.95429">
        <ele>90</ele>
        <time>2022-05-22T15:59:12Z</time>
      </trkpt>
      <trkpt lat="48.42118" lon="3.9551">
        <ele>90</ele>
        <time>2022-05-22T15:59:30Z</time>
      </trkpt>
      <trkpt lat="48.4207" lon="3.95554">
        <ele>89</ele>
        <time>2022-05-22T15:59:40Z</time>
      </trkpt>
      <trkpt lat="48.42059" lon="3.95561">
        <ele>89</ele>
        <time>2022-05-22T15:59:42Z</time>
      </trkpt>
      <trkpt lat="48.42011" lon="3.95608">
        <ele>89</ele>
        <time>2022-05-22T15:59:52Z</time>
      </trkpt>
      <trkpt lat="48.41993" lon="3.95622">
        <ele>89</ele>
        <time>2022-05-22T15:59:56Z</time>
      </trkpt>
      <trkpt lat="48.41935" lon="3.95678">
        <ele>88</ele>
        <time>2022-05-22T16:00:08Z</time>
      </trkpt>
      <trkpt lat="48.41652" lon="3.95936">
        <ele>88</ele>
        <time>2022-05-22T16:01:07Z</time>
      </trkpt>
      <trkpt lat="48.41612" lon="3.95976">
        <ele>90</ele>
        <time>2022-05-22T16:01:15Z</time>
      </trkpt>
      <trkpt lat="48.41471" lon="3.96106">
        <ele>89</ele>
        <time>2022-05-22T16:01:45Z</time>
      </trkpt>
      <trkpt lat="48.41342" lon="3.96222">
        <ele>89</ele>
        <time>2022-05-22T16:02:12Z</time>
      </trkpt>
      <trkpt lat="48.41294" lon="3.96267">
        <ele>89</ele>
        <time>2022-05-22T16:02:22Z</time>
      </trkpt>
      <trkpt lat="48.41264" lon="3.96301">
        <ele>90</ele>
        <time>2022-05-22T16:02:28Z</time>
      </trkpt>
      <trkpt lat="48.41246" lon="3.96317">
        <ele>91</ele>
        <time>2022-05-22T16:02:32Z</time>
      </trkpt>
      <trkpt lat="48.41225" lon="3.9633">
        <ele>91</ele>
        <time>2022-05-22T16:02:36Z</time>
      </trkpt>
      <trkpt lat="48.41178" lon="3.96373">
        <ele>91</ele>
        <time>2022-05-22T16:02:46Z</time>
      </trkpt>
      <trkpt lat="48.41169" lon="3.96384">
        <ele>91</ele>
        <time>2022-05-22T16:02:48Z</time>
      </trkpt>
      <trkpt lat="48.41147" lon="3.96399">
        <ele>91</ele>
        <time>2022-05-22T16:02:52Z</time>
      </trkpt>
      <trkpt lat="48.41013" lon="3.96528">
        <ele>93</ele>
        <time>2022-05-22T16:03:20Z</time>
      </trkpt>
      <trkpt lat="48.40905" lon="3.96623">
        <ele>90</ele>
        <time>2022-05-22T16:03:43Z</time>
      </trkpt>
      <trkpt lat="48.40857" lon="3.9667">
        <ele>91</ele>
        <time>2022-05-22T16:03:53Z</time>
      </trkpt>
      <trkpt lat="48.40827" lon="3.96696">
        <ele>92</ele>
        <time>2022-05-22T16:03:59Z</time>
      </trkpt>
      <trkpt lat="48.40782" lon="3.96742">
        <ele>94</ele>
        <time>2022-05-22T16:04:09Z</time>
      </trkpt>
      <trkpt lat="48.40752" lon="3.96765">
        <ele>95</ele>
        <time>2022-05-22T16:04:15Z</time>
      </trkpt>
      <trkpt lat="48.40646" lon="3.96865">
        <ele>90</ele>
        <time>2022-05-22T16:04:37Z</time>
      </trkpt>
      <trkpt lat="48.40594" lon="3.96911">
        <ele>91</ele>
        <time>2022-05-22T16:04:48Z</time>
      </trkpt>
      <trkpt lat="48.40536" lon="3.96968">
        <ele>92</ele>
        <time>2022-05-22T16:05:00Z</time>
      </trkpt>
      <trkpt lat="48.40517" lon="3.96982">
        <ele>93</ele>
        <time>2022-05-22T16:05:04Z</time>
      </trkpt>
      <trkpt lat="48.405" lon="3.97003">
        <ele>93</ele>
        <time>2022-05-22T16:05:08Z</time>
      </trkpt>
      <trkpt lat="48.40482" lon="3.97017">
        <ele>93</ele>
        <time>2022-05-22T16:05:11Z</time>
      </trkpt>
      <trkpt lat="48.40451" lon="3.97048">
        <ele>93</ele>
        <time>2022-05-22T16:05:18Z</time>
      </trkpt>
      <trkpt lat="48.40356" lon="3.97129">
        <ele>92</ele>
        <time>2022-05-22T16:05:37Z</time>
      </trkpt>
      <trkpt lat="48.40338" lon="3.97148">
        <ele>92</ele>
        <time>2022-05-22T16:05:41Z</time>
      </trkpt>
      <trkpt lat="48.40188" lon="3.97282">
        <ele>89</ele>
        <time>2022-05-22T16:06:12Z</time>
      </trkpt>
      <trkpt lat="48.40039" lon="3.9742">
        <ele>91</ele>
        <time>2022-05-22T16:06:43Z</time>
      </trkpt>
      <trkpt lat="48.40001" lon="3.97458">
        <ele>91</ele>
        <time>2022-05-22T16:06:52Z</time>
      </trkpt>
      <trkpt lat="48.39956" lon="3.97496">
        <ele>91</ele>
        <time>2022-05-22T16:07:01Z</time>
      </trkpt>
      <trkpt lat="48.39851" lon="3.97597">
        <ele>91</ele>
        <time>2022-05-22T16:07:23Z</time>
      </trkpt>
      <trkpt lat="48.39796" lon="3.97645">
        <ele>91</ele>
        <time>2022-05-22T16:07:34Z</time>
      </trkpt>
      <trkpt lat="48.39689" lon="3.97746">
        <ele>92</ele>
        <time>2022-05-22T16:07:57Z</time>
      </trkpt>
      <trkpt lat="48.39629" lon="3.97798">
        <ele>95</ele>
        <time>2022-05-22T16:08:09Z</time>
      </trkpt>
      <trkpt lat="48.39507" lon="3.97911">
        <ele>95</ele>
        <time>2022-05-22T16:08:34Z</time>
      </trkpt>
      <trkpt lat="48.39497" lon="3.97923">
        <ele>95</ele>
        <time>2022-05-22T16:08:37Z</time>
      </trkpt>
      <trkpt lat="48.39459" lon="3.97954">
        <ele>94</ele>
        <time>2022-05-22T16:08:44Z</time>
      </trkpt>
      <trkpt lat="48.3942" lon="3.98002">
        <ele>93</ele>
        <time>2022-05-22T16:08:53Z</time>
      </trkpt>
      <trkpt lat="48.39378" lon="3.98027">
        <ele>93</ele>
        <time>2022-05-22T16:09:01Z</time>
      </trkpt>
      <trkpt lat="48.39363" lon="3.98044">
        <ele>93</ele>
        <time>2022-05-22T16:09:05Z</time>
      </trkpt>
      <trkpt lat="48.39222" lon="3.98172">
        <ele>93</ele>
        <time>2022-05-22T16:09:34Z</time>
      </trkpt>
      <trkpt lat="48.39138" lon="3.98254">
        <ele>92</ele>
        <time>2022-05-22T16:09:52Z</time>
      </trkpt>
      <trkpt lat="48.39053" lon="3.98328">
        <ele>93</ele>
        <time>2022-05-22T16:10:09Z</time>
      </trkpt>
      <trkpt lat="48.38821" lon="3.98545">
        <ele>92</ele>
        <time>2022-05-22T16:10:58Z</time>
      </trkpt>
      <trkpt lat="48.38641" lon="3.98707">
        <ele>90</ele>
        <time>2022-05-22T16:11:35Z</time>
      </trkpt>
      <trkpt lat="48.38546" lon="3.98802">
        <ele>92</ele>
        <time>2022-05-22T16:11:56Z</time>
      </trkpt>
      <trkpt lat="48.38319" lon="3.99055">
        <ele>94</ele>
        <time>2022-05-22T16:12:46Z</time>
      </trkpt>
      <trkpt lat="48.38201" lon="3.99191">
        <ele>92</ele>
        <time>2022-05-22T16:13:12Z</time>
      </trkpt>
      <trkpt lat="48.38184" lon="3.99207">
        <ele>93</ele>
        <time>2022-05-22T16:13:16Z</time>
      </trkpt>
      <trkpt lat="48.3817" lon="3.99225">
        <ele>94</ele>
        <time>2022-05-22T16:13:19Z</time>
      </trkpt>
      <trkpt lat="48.38101" lon="3.993">
        <ele>94</ele>
        <time>2022-05-22T16:13:34Z</time>
      </trkpt>
      <trkpt lat="48.38054" lon="3.99356">
        <ele>94</ele>
        <time>2022-05-22T16:13:45Z</time>
      </trkpt>
      <trkpt lat="48.38027" lon="3.99382">
        <ele>93</ele>
        <time>2022-05-22T16:13:51Z</time>
      </trkpt>
      <trkpt lat="48.38002" lon="3.99413">
        <ele>92</ele>
        <time>2022-05-22T16:13:56Z</time>
      </trkpt>
      <trkpt lat="48.37766" lon="3.99675">
        <ele>96</ele>
        <time>2022-05-22T16:14:49Z</time>
      </trkpt>
      <trkpt lat="48.37515" lon="3.9996">
        <ele>92</ele>
        <time>2022-05-22T16:15:44Z</time>
      </trkpt>
      <trkpt lat="48.37447" lon="4.00033">
        <ele>90</ele>
        <time>2022-05-22T16:15:59Z</time>
      </trkpt>
      <trkpt lat="48.37341" lon="4.00154">
        <ele>91</ele>
        <time>2022-05-22T16:16:23Z</time>
      </trkpt>
      <trkpt lat="48.37296" lon="4.00211">
        <ele>92</ele>
        <time>2022-05-22T16:16:33Z</time>
      </trkpt>
      <trkpt lat="48.37166" lon="4.00411">
        <ele>92</ele>
        <time>2022-05-22T16:17:07Z</time>
      </trkpt>
      <trkpt lat="48.37111" lon="4.00507">
        <ele>93</ele>
        <time>2022-05-22T16:17:22Z</time>
      </trkpt>
      <trkpt lat="48.37046" lon="4.006">
        <ele>94</ele>
        <time>2022-05-22T16:17:37Z</time>
      </trkpt>
      <trkpt lat="48.37039" lon="4.00614">
        <ele>94</ele>
        <time>2022-05-22T16:17:40Z</time>
      </trkpt>
      <trkpt lat="48.36937" lon="4.00774">
        <ele>95</ele>
        <time>2022-05-22T16:18:06Z</time>
      </trkpt>
      <trkpt lat="48.36876" lon="4.00865">
        <ele>94</ele>
        <time>2022-05-22T16:18:21Z</time>
      </trkpt>
      <trkpt lat="48.36783" lon="4.01015">
        <ele>92</ele>
        <time>2022-05-22T16:18:45Z</time>
      </trkpt>
      <trkpt lat="48.36766" lon="4.01037">
        <ele>92</ele>
        <time>2022-05-22T16:18:49Z</time>
      </trkpt>
      <trkpt lat="48.36729" lon="4.01099">
        <ele>92</ele>
        <time>2022-05-22T16:18:59Z</time>
      </trkpt>
      <trkpt lat="48.36714" lon="4.01119">
        <ele>93</ele>
        <time>2022-05-22T16:19:03Z</time>
      </trkpt>
      <trkpt lat="48.36644" lon="4.01231">
        <ele>94</ele>
        <time>2022-05-22T16:19:21Z</time>
      </trkpt>
      <trkpt lat="48.36586" lon="4.01304">
        <ele>95</ele>
        <time>2022-05-22T16:19:34Z</time>
      </trkpt>
      <trkpt lat="48.36562" lon="4.01357">
        <ele>95</ele>
        <time>2022-05-22T16:19:42Z</time>
      </trkpt>
      <trkpt lat="48.36541" lon="4.01395">
        <ele>94</ele>
        <time>2022-05-22T16:19:48Z</time>
      </trkpt>
      <trkpt lat="48.36474" lon="4.01499">
        <ele>93</ele>
        <time>2022-05-22T16:20:05Z</time>
      </trkpt>
      <trkpt lat="48.36451" lon="4.01531">
        <ele>93</ele>
        <time>2022-05-22T16:20:10Z</time>
      </trkpt>
      <trkpt lat="48.36385" lon="4.01637">
        <ele>93</ele>
        <time>2022-05-22T16:20:28Z</time>
      </trkpt>
      <trkpt lat="48.36355" lon="4.01692">
        <ele>93</ele>
        <time>2022-05-22T16:20:36Z</time>
      </trkpt>
      <trkpt lat="48.36338" lon="4.01718">
        <ele>93</ele>
        <time>2022-05-22T16:20:40Z</time>
      </trkpt>
      <trkpt lat="48.36297" lon="4.01771">
        <ele>93</ele>
        <time>2022-05-22T16:20:50Z</time>
      </trkpt>
      <trkpt lat="48.36276" lon="4.01809">
        <ele>94</ele>
        <time>2022-05-22T16:20:56Z</time>
      </trkpt>
      <trkpt lat="48.36227" lon="4.01881">
        <ele>95</ele>
        <time>2022-05-22T16:21:08Z</time>
      </trkpt>
      <trkpt lat="48.36146" lon="4.02011">
        <ele>94</ele>
        <time>2022-05-22T16:21:29Z</time>
      </trkpt>
      <trkpt lat="48.36101" lon="4.02077">
        <ele>94</ele>
        <time>2022-05-22T16:21:40Z</time>
      </trkpt>
      <trkpt lat="48.36023" lon="4.02205">
        <ele>94</ele>
        <time>2022-05-22T16:22:01Z</time>
      </trkpt>
      <trkpt lat="48.35914" lon="4.02372">
        <ele>93</ele>
        <time>2022-05-22T16:22:28Z</time>
      </trkpt>
      <trkpt lat="48.35867" lon="4.0245">
        <ele>93</ele>
        <time>2022-05-22T16:22:41Z</time>
      </trkpt>
      <trkpt lat="48.35831" lon="4.02504">
        <ele>93</ele>
        <time>2022-05-22T16:22:50Z</time>
      </trkpt>
      <trkpt lat="48.35804" lon="4.02552">
        <ele>94</ele>
        <time>2022-05-22T16:22:57Z</time>
      </trkpt>
      <trkpt lat="48.35777" lon="4.02587">
        <ele>95</ele>
        <time>2022-05-22T16:23:04Z</time>
      </trkpt>
      <trkpt lat="48.35744" lon="4.02643">
        <ele>96</ele>
        <time>2022-05-22T16:23:13Z</time>
      </trkpt>
      <trkpt lat="48.35715" lon="4.02682">
        <ele>98</ele>
        <time>2022-05-22T16:23:19Z</time>
      </trkpt>
      <trkpt lat="48.35702" lon="4.02707">
        <ele>98</ele>
        <time>2022-05-22T16:23:23Z</time>
      </trkpt>
      <trkpt lat="48.35659" lon="4.02769">
        <ele>99</ele>
        <time>2022-05-22T16:23:34Z</time>
      </trkpt>
      <trkpt lat="48.35616" lon="4.02843">
        <ele>99</ele>
        <time>2022-05-22T16:23:45Z</time>
      </trkpt>
      <trkpt lat="48.3557" lon="4.02909">
        <ele>101</ele>
        <time>2022-05-22T16:23:57Z</time>
      </trkpt>
      <trkpt lat="48.35556" lon="4.02935">
        <ele>101</ele>
        <time>2022-05-22T16:24:01Z</time>
      </trkpt>
      <trkpt lat="48.35514" lon="4.02997">
        <ele>100</ele>
        <time>2022-05-22T16:24:11Z</time>
      </trkpt>
      <trkpt lat="48.35472" lon="4.0305">
        <ele>99</ele>
        <time>2022-05-22T16:24:21Z</time>
      </trkpt>
      <trkpt lat="48.35436" lon="4.0312">
        <ele>98</ele>
        <time>2022-05-22T16:24:31Z</time>
      </trkpt>
      <trkpt lat="48.3541" lon="4.03164">
        <ele>98</ele>
        <time>2022-05-22T16:24:38Z</time>
      </trkpt>
      <trkpt lat="48.35393" lon="4.03185">
        <ele>99</ele>
        <time>2022-05-22T16:24:42Z</time>
      </trkpt>
      <trkpt lat="48.3527" lon="4.03381">
        <ele>100</ele>
        <time>2022-05-22T16:25:14Z</time>
      </trkpt>
      <trkpt lat="48.35238" lon="4.03424">
        <ele>101</ele>
        <time>2022-05-22T16:25:22Z</time>
      </trkpt>
      <trkpt lat="48.35201" lon="4.03463">
        <ele>100</ele>
        <time>2022-05-22T16:25:30Z</time>
      </trkpt>
      <trkpt lat="48.35158" lon="4.03494">
        <ele>98</ele>
        <time>2022-05-22T16:25:38Z</time>
      </trkpt>
      <trkpt lat="48.35139" lon="4.03504">
        <ele>98</ele>
        <time>2022-05-22T16:25:42Z</time>
      </trkpt>
      <trkpt lat="48.35108" lon="4.03518">
        <ele>98</ele>
        <time>2022-05-22T16:25:48Z</time>
      </trkpt>
      <trkpt lat="48.35028" lon="4.03561">
        <ele>98</ele>
        <time>2022-05-22T16:26:03Z</time>
      </trkpt>
      <trkpt lat="48.35006" lon="4.03568">
        <ele>98</ele>
        <time>2022-05-22T16:26:07Z</time>
      </trkpt>
      <trkpt lat="48.34953" lon="4.03599">
        <ele>98</ele>
        <time>2022-05-22T16:26:17Z</time>
      </trkpt>
      <trkpt lat="48.34821" lon="4.03662">
        <ele>98</ele>
        <time>2022-05-22T16:26:42Z</time>
      </trkpt>
      <trkpt lat="48.34616" lon="4.03765">
        <ele>99</ele>
        <time>2022-05-22T16:27:20Z</time>
      </trkpt>
      <trkpt lat="48.34606" lon="4.03768">
        <ele>99</ele>
        <time>2022-05-22T16:27:22Z</time>
      </trkpt>
      <trkpt lat="48.3453" lon="4.03809">
        <ele>99</ele>
        <time>2022-05-22T16:27:36Z</time>
      </trkpt>
      <trkpt lat="48.34454" lon="4.03843">
        <ele>98</ele>
        <time>2022-05-22T16:27:50Z</time>
      </trkpt>
      <trkpt lat="48.34356" lon="4.03895">
        <ele>97</ele>
        <time>2022-05-22T16:28:09Z</time>
      </trkpt>
      <trkpt lat="48.34337" lon="4.03902">
        <ele>96</ele>
        <time>2022-05-22T16:28:12Z</time>
      </trkpt>
      <trkpt lat="48.34246" lon="4.03946">
        <ele>96</ele>
        <time>2022-05-22T16:28:29Z</time>
      </trkpt>
      <trkpt lat="48.34241" lon="4.03959">
        <ele>96</ele>
        <time>2022-05-22T16:28:31Z</time>
      </trkpt>
      <trkpt lat="48.34241" lon="4.03975">
        <ele>96</ele>
        <time>2022-05-22T16:28:33Z</time>
      </trkpt>
      <trkpt lat="48.34167" lon="4.0403">
        <ele>97</ele>
        <time>2022-05-22T16:28:48Z</time>
      </trkpt>
      <trkpt lat="48.34089" lon="4.04098">
        <ele>99</ele>
        <time>2022-05-22T16:29:04Z</time>
      </trkpt>
      <trkpt lat="48.34071" lon="4.04109">
        <ele>99</ele>
        <time>2022-05-22T16:29:07Z</time>
      </trkpt>
      <trkpt lat="48.34066" lon="4.04121">
        <ele>99</ele>
        <time>2022-05-22T16:29:09Z</time>
      </trkpt>
      <trkpt lat="48.34049" lon="4.04128">
        <ele>98</ele>
        <time>2022-05-22T16:29:12Z</time>
      </trkpt>
      <trkpt lat="48.34041" lon="4.04134">
        <ele>99</ele>
        <time>2022-05-22T16:29:13Z</time>
      </trkpt>
      <trkpt lat="48.3395" lon="4.04216">
        <ele>100</ele>
        <time>2022-05-22T16:29:32Z</time>
      </trkpt>
      <trkpt lat="48.33902" lon="4.0425">
        <ele>100</ele>
        <time>2022-05-22T16:29:42Z</time>
      </trkpt>
      <trkpt lat="48.33852" lon="4.0429">
        <ele>99</ele>
        <time>2022-05-22T16:29:52Z</time>
      </trkpt>
      <trkpt lat="48.33836" lon="4.04307">
        <ele>99</ele>
        <time>2022-05-22T16:29:55Z</time>
      </trkpt>
      <trkpt lat="48.33809" lon="4.04327">
        <ele>98</ele>
        <time>2022-05-22T16:30:01Z</time>
      </trkpt>
      <trkpt lat="48.33763" lon="4.04372">
        <ele>97</ele>
        <time>2022-05-22T16:30:10Z</time>
      </trkpt>
      <trkpt lat="48.33752" lon="4.04379">
        <ele>97</ele>
        <time>2022-05-22T16:30:13Z</time>
      </trkpt>
      <trkpt lat="48.33684" lon="4.04437">
        <ele>99</ele>
        <time>2022-05-22T16:30:27Z</time>
      </trkpt>
      <trkpt lat="48.33589" lon="4.04542">
        <ele>100</ele>
        <time>2022-05-22T16:30:47Z</time>
      </trkpt>
      <trkpt lat="48.3358" lon="4.04553">
        <ele>100</ele>
        <time>2022-05-22T16:30:50Z</time>
      </trkpt>
      <trkpt lat="48.33574" lon="4.04567">
        <ele>99</ele>
        <time>2022-05-22T16:30:52Z</time>
      </trkpt>
      <trkpt lat="48.33537" lon="4.04598">
        <ele>99</ele>
        <time>2022-05-22T16:30:59Z</time>
      </trkpt>
      <trkpt lat="48.33527" lon="4.04599">
        <ele>99</ele>
        <time>2022-05-22T16:31:01Z</time>
      </trkpt>
      <trkpt lat="48.33507" lon="4.04613">
        <ele>100</ele>
        <time>2022-05-22T16:31:05Z</time>
      </trkpt>
      <trkpt lat="48.33496" lon="4.04625">
        <ele>101</ele>
        <time>2022-05-22T16:31:07Z</time>
      </trkpt>
      <trkpt lat="48.33426" lon="4.04683">
        <ele>100</ele>
        <time>2022-05-22T16:31:21Z</time>
      </trkpt>
      <trkpt lat="48.33382" lon="4.04724">
        <ele>100</ele>
        <time>2022-05-22T16:31:31Z</time>
      </trkpt>
      <trkpt lat="48.3337" lon="4.04731">
        <ele>100</ele>
        <time>2022-05-22T16:31:33Z</time>
      </trkpt>
      <trkpt lat="48.33293" lon="4.04797">
        <ele>100</ele>
        <time>2022-05-22T16:31:49Z</time>
      </trkpt>
      <trkpt lat="48.33275" lon="4.04813">
        <ele>100</ele>
        <time>2022-05-22T16:31:52Z</time>
      </trkpt>
      <trkpt lat="48.33256" lon="4.04835">
        <ele>101</ele>
        <time>2022-05-22T16:31:57Z</time>
      </trkpt>
      <trkpt lat="48.33246" lon="4.0484">
        <ele>101</ele>
        <time>2022-05-22T16:31:59Z</time>
      </trkpt>
      <trkpt lat="48.332" lon="4.04883">
        <ele>98</ele>
        <time>2022-05-22T16:32:08Z</time>
      </trkpt>
      <trkpt lat="48.32955" lon="4.05095">
        <ele>100</ele>
        <time>2022-05-22T16:32:58Z</time>
      </trkpt>
      <trkpt lat="48.32952" lon="4.05109">
        <ele>100</ele>
        <time>2022-05-22T16:33:00Z</time>
      </trkpt>
      <trkpt lat="48.32953" lon="4.05142">
        <ele>99</ele>
        <time>2022-05-22T16:33:04Z</time>
      </trkpt>
      <trkpt lat="48.32962" lon="4.0523">
        <ele>100</ele>
        <time>2022-05-22T16:33:15Z</time>
      </trkpt>
      <trkpt lat="48.32963" lon="4.05282">
        <ele>100</ele>
        <time>2022-05-22T16:33:21Z</time>
      </trkpt>
      <trkpt lat="48.32961" lon="4.05299">
        <ele>101</ele>
        <time>2022-05-22T16:33:23Z</time>
      </trkpt>
      <trkpt lat="48.32926" lon="4.05401">
        <ele>101</ele>
        <time>2022-05-22T16:33:36Z</time>
      </trkpt>
      <trkpt lat="48.3292" lon="4.05413">
        <ele>101</ele>
        <time>2022-05-22T16:33:38Z</time>
      </trkpt>
      <trkpt lat="48.32912" lon="4.05422">
        <ele>101</ele>
        <time>2022-05-22T16:33:40Z</time>
      </trkpt>
      <trkpt lat="48.32836" lon="4.05453">
        <ele>101</ele>
        <time>2022-05-22T16:33:54Z</time>
      </trkpt>
      <trkpt lat="48.32827" lon="4.05459">
        <ele>101</ele>
        <time>2022-05-22T16:33:56Z</time>
      </trkpt>
      <trkpt lat="48.32821" lon="4.05472">
        <ele>101</ele>
        <time>2022-05-22T16:33:58Z</time>
      </trkpt>
      <trkpt lat="48.32811" lon="4.05599">
        <ele>100</ele>
        <time>2022-05-22T16:34:13Z</time>
      </trkpt>
      <trkpt lat="48.32811" lon="4.05671">
        <ele>101</ele>
        <time>2022-05-22T16:34:21Z</time>
      </trkpt>
      <trkpt lat="48.32808" lon="4.05702">
        <ele>101</ele>
        <time>2022-05-22T16:34:25Z</time>
      </trkpt>
      <trkpt lat="48.32794" lon="4.05725">
        <ele>101</ele>
        <time>2022-05-22T16:34:29Z</time>
      </trkpt>
      <trkpt lat="48.3277" lon="4.05733">
        <ele>101</ele>
        <time>2022-05-22T16:34:33Z</time>
      </trkpt>
      <trkpt lat="48.32759" lon="4.05727">
        <ele>101</ele>
        <time>2022-05-22T16:34:35Z</time>
      </trkpt>
      <trkpt lat="48.3275" lon="4.05734">
        <ele>101</ele>
        <time>2022-05-22T16:34:37Z</time>
      </trkpt>
      <trkpt lat="48.32747" lon="4.05946">
        <ele>100</ele>
        <time>2022-05-22T16:35:02Z</time>
      </trkpt>
      <trkpt lat="48.32746" lon="4.05966">
        <ele>99</ele>
        <time>2022-05-22T16:35:04Z</time>
      </trkpt>
      <trkpt lat="48.32742" lon="4.05984">
        <ele>99</ele>
        <time>2022-05-22T16:35:07Z</time>
      </trkpt>
      <trkpt lat="48.32677" lon="4.06094">
        <ele>98</ele>
        <time>2022-05-22T16:35:24Z</time>
      </trkpt>
      <trkpt lat="48.32633" lon="4.06176">
        <ele>97</ele>
        <time>2022-05-22T16:35:36Z</time>
      </trkpt>
      <trkpt lat="48.32623" lon="4.06189">
        <ele>97</ele>
        <time>2022-05-22T16:35:39Z</time>
      </trkpt>
      <trkpt lat="48.32538" lon="4.06344">
        <ele>99</ele>
        <time>2022-05-22T16:36:03Z</time>
      </trkpt>
      <trkpt lat="48.32527" lon="4.06353">
        <ele>99</ele>
        <time>2022-05-22T16:36:05Z</time>
      </trkpt>
      <trkpt lat="48.32459" lon="4.06378">
        <ele>98</ele>
        <time>2022-05-22T16:36:17Z</time>
      </trkpt>
      <trkpt lat="48.32441" lon="4.0639">
        <ele>98</ele>
        <time>2022-05-22T16:36:21Z</time>
      </trkpt>
      <trkpt lat="48.32378" lon="4.06438">
        <ele>96</ele>
        <time>2022-05-22T16:36:33Z</time>
      </trkpt>
      <trkpt lat="48.32353" lon="4.0646">
        <ele>96</ele>
        <time>2022-05-22T16:36:39Z</time>
      </trkpt>
      <trkpt lat="48.32253" lon="4.06532">
        <ele>97</ele>
        <time>2022-05-22T16:36:58Z</time>
      </trkpt>
      <trkpt lat="48.32191" lon="4.06581">
        <ele>99</ele>
        <time>2022-05-22T16:37:11Z</time>
      </trkpt>
      <trkpt lat="48.32178" lon="4.06588">
        <ele>99</ele>
        <time>2022-05-22T16:37:13Z</time>
      </trkpt>
      <trkpt lat="48.32129" lon="4.06628">
        <ele>99</ele>
        <time>2022-05-22T16:37:23Z</time>
      </trkpt>
      <trkpt lat="48.3212" lon="4.06633">
        <ele>99</ele>
        <time>2022-05-22T16:37:25Z</time>
      </trkpt>
      <trkpt lat="48.32106" lon="4.06595">
        <ele>99</ele>
        <time>2022-05-22T16:37:30Z</time>
      </trkpt>
      <trkpt lat="48.32086" lon="4.0652">
        <ele>99</ele>
        <time>2022-05-22T16:37:39Z</time>
      </trkpt>
      <trkpt lat="48.32073" lon="4.06494">
        <ele>99</ele>
        <time>2022-05-22T16:37:43Z</time>
      </trkpt>
      <trkpt lat="48.3207" lon="4.0648">
        <ele>99</ele>
        <time>2022-05-22T16:37:45Z</time>
      </trkpt>
      <trkpt lat="48.3206" lon="4.06472">
        <ele>99</ele>
        <time>2022-05-22T16:37:47Z</time>
      </trkpt>
      <trkpt lat="48.32006" lon="4.06508">
        <ele>100</ele>
        <time>2022-05-22T16:37:58Z</time>
      </trkpt>
      <trkpt lat="48.31987" lon="4.0653">
        <ele>100</ele>
        <time>2022-05-22T16:38:02Z</time>
      </trkpt>
      <trkpt lat="48.31966" lon="4.0657">
        <ele>100</ele>
        <time>2022-05-22T16:38:08Z</time>
      </trkpt>
      <trkpt lat="48.31942" lon="4.06602">
        <ele>100</ele>
        <time>2022-05-22T16:38:14Z</time>
      </trkpt>
      <trkpt lat="48.31921" lon="4.06625">
        <ele>100</ele>
        <time>2022-05-22T16:38:18Z</time>
      </trkpt>
      <trkpt lat="48.319" lon="4.06641">
        <ele>100</ele>
        <time>2022-05-22T16:38:22Z</time>
      </trkpt>
      <trkpt lat="48.3186" lon="4.0666">
        <ele>99</ele>
        <time>2022-05-22T16:38:30Z</time>
      </trkpt>
      <trkpt lat="48.31837" lon="4.06664">
        <ele>99</ele>
        <time>2022-05-22T16:38:34Z</time>
      </trkpt>
      <trkpt lat="48.31827" lon="4.06662">
        <ele>99</ele>
        <time>2022-05-22T16:38:36Z</time>
      </trkpt>
      <trkpt lat="48.3179" lon="4.06666">
        <ele>98</ele>
        <time>2022-05-22T16:38:42Z</time>
      </trkpt>
      <trkpt lat="48.31772" lon="4.06671">
        <ele>98</ele>
        <time>2022-05-22T16:38:46Z</time>
      </trkpt>
      <trkpt lat="48.31759" lon="4.06676">
        <ele>98</ele>
        <time>2022-05-22T16:38:48Z</time>
      </trkpt>
      <trkpt lat="48.31731" lon="4.06697">
        <ele>99</ele>
        <time>2022-05-22T16:38:54Z</time>
      </trkpt>
      <trkpt lat="48.31721" lon="4.06706">
        <ele>99</ele>
        <time>2022-05-22T16:38:56Z</time>
      </trkpt>
      <trkpt lat="48.31703" lon="4.0673">
        <ele>99</ele>
        <time>2022-05-22T16:39:00Z</time>
      </trkpt>
      <trkpt lat="48.31661" lon="4.0677">
        <ele>99</ele>
        <time>2022-05-22T16:39:09Z</time>
      </trkpt>
      <trkpt lat="48.31655" lon="4.06784">
        <ele>99</ele>
        <time>2022-05-22T16:39:11Z</time>
      </trkpt>
      <trkpt lat="48.31652" lon="4.06799">
        <ele>99</ele>
        <time>2022-05-22T16:39:13Z</time>
      </trkpt>
      <trkpt lat="48.31644" lon="4.06809">
        <ele>99</ele>
        <time>2022-05-22T16:39:14Z</time>
      </trkpt>
      <trkpt lat="48.31633" lon="4.06806">
        <ele>99</ele>
        <time>2022-05-22T16:39:16Z</time>
      </trkpt>
      <trkpt lat="48.3162" lon="4.06808">
        <ele>99</ele>
        <time>2022-05-22T16:39:19Z</time>
      </trkpt>
      <trkpt lat="48.31569" lon="4.06825">
        <ele>99</ele>
        <time>2022-05-22T16:39:28Z</time>
      </trkpt>
      <trkpt lat="48.3156" lon="4.06826">
        <ele>99</ele>
        <time>2022-05-22T16:39:30Z</time>
      </trkpt>
      <trkpt lat="48.31547" lon="4.06832">
        <ele>99</ele>
        <time>2022-05-22T16:39:32Z</time>
      </trkpt>
      <trkpt lat="48.31474" lon="4.06851">
        <ele>99</ele>
        <time>2022-05-22T16:39:45Z</time>
      </trkpt>
      <trkpt lat="48.31465" lon="4.06842">
        <ele>99</ele>
        <time>2022-05-22T16:39:47Z</time>
      </trkpt>
      <trkpt lat="48.31418" lon="4.06758">
        <ele>98</ele>
        <time>2022-05-22T16:40:00Z</time>
      </trkpt>
      <trkpt lat="48.31401" lon="4.06771">
        <ele>99</ele>
        <time>2022-05-22T16:40:04Z</time>
      </trkpt>
      <trkpt lat="48.31396" lon="4.06785">
        <ele>99</ele>
        <time>2022-05-22T16:40:05Z</time>
      </trkpt>
      <trkpt lat="48.31403" lon="4.06798">
        <ele>99</ele>
        <time>2022-05-22T16:40:07Z</time>
      </trkpt>
      <trkpt lat="48.31406" lon="4.06813">
        <ele>99</ele>
        <time>2022-05-22T16:40:09Z</time>
      </trkpt>
      <trkpt lat="48.31416" lon="4.06821">
        <ele>99</ele>
        <time>2022-05-22T16:40:11Z</time>
      </trkpt>
      <trkpt lat="48.31432" lon="4.06847">
        <ele>99</ele>
        <time>2022-05-22T16:40:16Z</time>
      </trkpt>
      <trkpt lat="48.31446" lon="4.06878">
        <ele>100</ele>
        <time>2022-05-22T16:40:20Z</time>
      </trkpt>
      <trkpt lat="48.31484" lon="4.06947">
        <ele>99</ele>
        <time>2022-05-22T16:40:31Z</time>
      </trkpt>
      <trkpt lat="48.31489" lon="4.06961">
        <ele>99</ele>
        <time>2022-05-22T16:40:32Z</time>
      </trkpt>
      <trkpt lat="48.31487" lon="4.06975">
        <ele>99</ele>
        <time>2022-05-22T16:40:34Z</time>
      </trkpt>
      <trkpt lat="48.3148" lon="4.06987">
        <ele>100</ele>
        <time>2022-05-22T16:40:36Z</time>
      </trkpt>
      <trkpt lat="48.3145" lon="4.07018">
        <ele>101</ele>
        <time>2022-05-22T16:40:42Z</time>
      </trkpt>
      <trkpt lat="48.31443" lon="4.07032">
        <ele>101</ele>
        <time>2022-05-22T16:40:45Z</time>
      </trkpt>
      <trkpt lat="48.31438" lon="4.07048">
        <ele>101</ele>
        <time>2022-05-22T16:40:47Z</time>
      </trkpt>
      <trkpt lat="48.31438" lon="4.07064">
        <ele>101</ele>
        <time>2022-05-22T16:40:49Z</time>
      </trkpt>
      <trkpt lat="48.31431" lon="4.07082">
        <ele>102</ele>
        <time>2022-05-22T16:40:51Z</time>
      </trkpt>
      <trkpt lat="48.31426" lon="4.07112">
        <ele>101</ele>
        <time>2022-05-22T16:40:55Z</time>
      </trkpt>
      <trkpt lat="48.31416" lon="4.07127">
        <ele>101</ele>
        <time>2022-05-22T16:40:57Z</time>
      </trkpt>
      <trkpt lat="48.31408" lon="4.07134">
        <ele>101</ele>
        <time>2022-05-22T16:40:59Z</time>
      </trkpt>
      <trkpt lat="48.31398" lon="4.07135">
        <ele>101</ele>
        <time>2022-05-22T16:41:01Z</time>
      </trkpt>
      <trkpt lat="48.3139" lon="4.07127">
        <ele>102</ele>
        <time>2022-05-22T16:41:02Z</time>
      </trkpt>
      <trkpt lat="48.31379" lon="4.07122">
        <ele>102</ele>
        <time>2022-05-22T16:41:04Z</time>
      </trkpt>
      <trkpt lat="48.31362" lon="4.07137">
        <ele>102</ele>
        <time>2022-05-22T16:41:08Z</time>
      </trkpt>
      <trkpt lat="48.31352" lon="4.07161">
        <ele>102</ele>
        <time>2022-05-22T16:41:11Z</time>
      </trkpt>
      <trkpt lat="48.31341" lon="4.07208">
        <ele>102</ele>
        <time>2022-05-22T16:41:17Z</time>
      </trkpt>
      <trkpt lat="48.31334" lon="4.07223">
        <ele>101</ele>
        <time>2022-05-22T16:41:19Z</time>
      </trkpt>
      <trkpt lat="48.31316" lon="4.07239">
        <ele>102</ele>
        <time>2022-05-22T16:41:23Z</time>
      </trkpt>
      <trkpt lat="48.31296" lon="4.07241">
        <ele>103</ele>
        <time>2022-05-22T16:41:27Z</time>
      </trkpt>
      <trkpt lat="48.31266" lon="4.07249">
        <ele>104</ele>
        <time>2022-05-22T16:41:32Z</time>
      </trkpt>
      <trkpt lat="48.31256" lon="4.07248">
        <ele>105</ele>
        <time>2022-05-22T16:41:34Z</time>
      </trkpt>
      <trkpt lat="48.31235" lon="4.07236">
        <ele>105</ele>
        <time>2022-05-22T16:41:38Z</time>
      </trkpt>
      <trkpt lat="48.31224" lon="4.07234">
        <ele>104</ele>
        <time>2022-05-22T16:41:40Z</time>
      </trkpt>
      <trkpt lat="48.31193" lon="4.07237">
        <ele>104</ele>
        <time>2022-05-22T16:41:45Z</time>
      </trkpt>
      <trkpt lat="48.31183" lon="4.07235">
        <ele>104</ele>
        <time>2022-05-22T16:41:47Z</time>
      </trkpt>
      <trkpt lat="48.31175" lon="4.0724">
        <ele>104</ele>
        <time>2022-05-22T16:41:49Z</time>
      </trkpt>
      <trkpt lat="48.31153" lon="4.07243">
        <ele>103</ele>
        <time>2022-05-22T16:41:53Z</time>
      </trkpt>
      <trkpt lat="48.31143" lon="4.07236">
        <ele>103</ele>
        <time>2022-05-22T16:41:55Z</time>
      </trkpt>
      <trkpt lat="48.31113" lon="4.07224">
        <ele>102</ele>
        <time>2022-05-22T16:42:00Z</time>
      </trkpt>
      <trkpt lat="48.31072" lon="4.07238">
        <ele>100</ele>
        <time>2022-05-22T16:42:08Z</time>
      </trkpt>
      <trkpt lat="48.31029" lon="4.07249">
        <ele>99</ele>
        <time>2022-05-22T16:42:15Z</time>
      </trkpt>
      <trkpt lat="48.31011" lon="4.07257">
        <ele>99</ele>
        <time>2022-05-22T16:42:19Z</time>
      </trkpt>
      <trkpt lat="48.30971" lon="4.07131">
        <ele>101</ele>
        <time>2022-05-22T16:42:35Z</time>
      </trkpt>
      <trkpt lat="48.30958" lon="4.07097">
        <ele>101</ele>
        <time>2022-05-22T16:42:40Z</time>
      </trkpt>
      <trkpt lat="48.30935" lon="4.07057">
        <ele>101</ele>
        <time>2022-05-22T16:42:46Z</time>
      </trkpt>
      <trkpt lat="48.30908" lon="4.0702">
        <ele>101</ele>
        <time>2022-05-22T16:42:53Z</time>
      </trkpt>
      <trkpt lat="48.30901" lon="4.07007">
        <ele>101</ele>
        <time>2022-05-22T16:42:55Z</time>
      </trkpt>
      <trkpt lat="48.30884" lon="4.06959">
        <ele>102</ele>
        <time>2022-05-22T16:43:01Z</time>
      </trkpt>
      <trkpt lat="48.30865" lon="4.06923">
        <ele>103</ele>
        <time>2022-05-22T16:43:06Z</time>
      </trkpt>
      <trkpt lat="48.30856" lon="4.06919">
        <ele>103</ele>
        <time>2022-05-22T16:43:08Z</time>
      </trkpt>
      <trkpt lat="48.30837" lon="4.06934">
        <ele>103</ele>
        <time>2022-05-22T16:43:12Z</time>
      </trkpt>
      <trkpt lat="48.30814" lon="4.06945">
        <ele>102</ele>
        <time>2022-05-22T16:43:16Z</time>
      </trkpt>
      <trkpt lat="48.30722" lon="4.07012">
        <ele>101</ele>
        <time>2022-05-22T16:43:34Z</time>
      </trkpt>
      <trkpt lat="48.30685" lon="4.07034">
        <ele>101</ele>
        <time>2022-05-22T16:43:41Z</time>
      </trkpt>
      <trkpt lat="48.30678" lon="4.07046">
        <ele>101</ele>
        <time>2022-05-22T16:43:43Z</time>
      </trkpt>
      <trkpt lat="48.3064" lon="4.07087">
        <ele>101</ele>
        <time>2022-05-22T16:43:52Z</time>
      </trkpt>
      <trkpt lat="48.3054" lon="4.07171">
        <ele>102</ele>
        <time>2022-05-22T16:44:12Z</time>
      </trkpt>
      <trkpt lat="48.30524" lon="4.07189">
        <ele>102</ele>
        <time>2022-05-22T16:44:16Z</time>
      </trkpt>
      <trkpt lat="48.30515" lon="4.07194">
        <ele>102</ele>
        <time>2022-05-22T16:44:17Z</time>
      </trkpt>
      <trkpt lat="48.30506" lon="4.07204">
        <ele>102</ele>
        <time>2022-05-22T16:44:19Z</time>
      </trkpt>
      <trkpt lat="48.30484" lon="4.07218">
        <ele>102</ele>
        <time>2022-05-22T16:44:24Z</time>
      </trkpt>
      <trkpt lat="48.30457" lon="4.07244">
        <ele>101</ele>
        <time>2022-05-22T16:44:29Z</time>
      </trkpt>
      <trkpt lat="48.30397" lon="4.07295">
        <ele>102</ele>
        <time>2022-05-22T16:44:42Z</time>
      </trkpt>
      <trkpt lat="48.30353" lon="4.07339">
        <ele>103</ele>
        <time>2022-05-22T16:44:51Z</time>
      </trkpt>
      <trkpt lat="48.30342" lon="4.07346">
        <ele>103</ele>
        <time>2022-05-22T16:44:53Z</time>
      </trkpt>
      <trkpt lat="48.30298" lon="4.07385">
        <ele>104</ele>
        <time>2022-05-22T16:45:02Z</time>
      </trkpt>
      <trkpt lat="48.3027" lon="4.07405">
        <ele>105</ele>
        <time>2022-05-22T16:45:08Z</time>
      </trkpt>
      <trkpt lat="48.30225" lon="4.07447">
        <ele>106</ele>
        <time>2022-05-22T16:45:17Z</time>
      </trkpt>
      <trkpt lat="48.30195" lon="4.07471">
        <ele>106</ele>
        <time>2022-05-22T16:45:23Z</time>
      </trkpt>
      <trkpt lat="48.30187" lon="4.07479">
        <ele>106</ele>
        <time>2022-05-22T16:45:25Z</time>
      </trkpt>
      <trkpt lat="48.30183" lon="4.07496">
        <ele>106</ele>
        <time>2022-05-22T16:45:27Z</time>
      </trkpt>
      <trkpt lat="48.30177" lon="4.07505">
        <ele>106</ele>
        <time>2022-05-22T16:45:28Z</time>
      </trkpt>
      <trkpt lat="48.30169" lon="4.07512">
        <ele>106</ele>
        <time>2022-05-22T16:45:30Z</time>
      </trkpt>
      <trkpt lat="48.3015" lon="4.07514">
        <ele>106</ele>
        <time>2022-05-22T16:45:34Z</time>
      </trkpt>
      <trkpt lat="48.3014" lon="4.07519">
        <ele>106</ele>
        <time>2022-05-22T16:45:35Z</time>
      </trkpt>
      <trkpt lat="48.30094" lon="4.07556">
        <ele>107</ele>
        <time>2022-05-22T16:45:45Z</time>
      </trkpt>
      <trkpt lat="48.30079" lon="4.07574">
        <ele>107</ele>
        <time>2022-05-22T16:45:48Z</time>
      </trkpt>
      <trkpt lat="48.30069" lon="4.07582">
        <ele>107</ele>
        <time>2022-05-22T16:45:50Z</time>
      </trkpt>
      <trkpt lat="48.3006" lon="4.07589">
        <ele>107</ele>
        <time>2022-05-22T16:45:52Z</time>
      </trkpt>
      <trkpt lat="48.30043" lon="4.07596">
        <ele>107</ele>
        <time>2022-05-22T16:45:55Z</time>
      </trkpt>
      <trkpt lat="48.30028" lon="4.07614">
        <ele>107</ele>
        <time>2022-05-22T16:45:58Z</time>
      </trkpt>
      <trkpt lat="48.29985" lon="4.0768">
        <ele>107</ele>
        <time>2022-05-22T16:46:09Z</time>
      </trkpt>
      <trkpt lat="48.29975" lon="4.07679">
        <ele>107</ele>
        <time>2022-05-22T16:46:11Z</time>
      </trkpt>
      <trkpt lat="48.29969" lon="4.07668">
        <ele>107</ele>
        <time>2022-05-22T16:46:13Z</time>
      </trkpt>
      <trkpt lat="48.29949" lon="4.07613">
        <ele>108</ele>
        <time>2022-05-22T16:46:20Z</time>
      </trkpt>
      <trkpt lat="48.29937" lon="4.0759">
        <ele>109</ele>
        <time>2022-05-22T16:46:24Z</time>
      </trkpt>
      <trkpt lat="48.29928" lon="4.07589">
        <ele>109</ele>
        <time>2022-05-22T16:46:25Z</time>
      </trkpt>
      <trkpt lat="48.2992" lon="4.07597">
        <ele>109</ele>
        <time>2022-05-22T16:46:27Z</time>
      </trkpt>
      <trkpt lat="48.29904" lon="4.07578">
        <ele>109</ele>
        <time>2022-05-22T16:46:31Z</time>
      </trkpt>
      <trkpt lat="48.29892" lon="4.07553">
        <ele>110</ele>
        <time>2022-05-22T16:46:34Z</time>
      </trkpt>
      <trkpt lat="48.29888" lon="4.07539">
        <ele>110</ele>
        <time>2022-05-22T16:46:36Z</time>
      </trkpt>
      <trkpt lat="48.29875" lon="4.07516">
        <ele>111</ele>
        <time>2022-05-22T16:46:40Z</time>
      </trkpt>
      <trkpt lat="48.29864" lon="4.07476">
        <ele>111</ele>
        <time>2022-05-22T16:46:45Z</time>
      </trkpt>
      <trkpt lat="48.29853" lon="4.07453">
        <ele>111</ele>
        <time>2022-05-22T16:46:48Z</time>
      </trkpt>
      <trkpt lat="48.29829" lon="4.07431">
        <ele>111</ele>
        <time>2022-05-22T16:46:53Z</time>
      </trkpt>
      <trkpt lat="48.29833" lon="4.07419">
        <ele>110</ele>
        <time>2022-05-22T16:46:55Z</time>
      </trkpt>
      <trkpt lat="48.29834" lon="4.07405">
        <ele>110</ele>
        <time>2022-05-22T16:46:56Z</time>
      </trkpt>
      <trkpt lat="48.29843" lon="4.07409">
        <ele>110</ele>
        <time>2022-05-22T16:46:58Z</time>
      </trkpt>
      <trkpt lat="48.29849" lon="4.07419">
        <ele>109</ele>
        <time>2022-05-22T16:47:00Z</time>
      </trkpt>
      <trkpt lat="48.29853" lon="4.07433">
        <ele>110</ele>
        <time>2022-05-22T16:47:01Z</time>
      </trkpt>
      <trkpt lat="48.29851" lon="4.07419">
        <ele>109</ele>
        <time>2022-05-22T16:47:03Z</time>
      </trkpt>
      <trkpt lat="48.29862" lon="4.07427">
        <ele>109</ele>
        <time>2022-05-22T16:47:05Z</time>
      </trkpt>
      <trkpt lat="48.2988" lon="4.07462">
        <ele>109</ele>
        <time>2022-05-22T16:47:11Z</time>
      </trkpt>
      <trkpt lat="48.2989" lon="4.07457">
        <ele>108</ele>
        <time>2022-05-22T16:47:12Z</time>
      </trkpt>
      <trkpt lat="48.29889" lon="4.07442">
        <ele>108</ele>
        <time>2022-05-22T16:47:14Z</time>
      </trkpt>
      <trkpt lat="48.29888" lon="4.07456">
        <ele>108</ele>
        <time>2022-05-22T16:47:16Z</time>
      </trkpt>
      <trkpt lat="48.29894" lon="4.07429">
        <ele>107</ele>
        <time>2022-05-22T16:47:19Z</time>
      </trkpt>
      <trkpt lat="48.29899" lon="4.07455">
        <ele>107</ele>
        <time>2022-05-22T16:47:23Z</time>
      </trkpt>
      <trkpt lat="48.29878" lon="4.0745">
        <ele>109</ele>
        <time>2022-05-22T16:47:26Z</time>
      </trkpt>
      <trkpt lat="48.29881" lon="4.07474">
        <ele>109</ele>
        <time>2022-05-22T16:47:29Z</time>
      </trkpt>
      <trkpt lat="48.29868" lon="4.07485">
        <ele>111</ele>
        <time>2022-05-22T16:47:32Z</time>
      </trkpt>
      <trkpt lat="48.29866" lon="4.07469">
        <ele>110</ele>
        <time>2022-05-22T16:47:34Z</time>
      </trkpt>
      <trkpt lat="48.29868" lon="4.07455">
        <ele>110</ele>
        <time>2022-05-22T16:47:35Z</time>
      </trkpt>
      <trkpt lat="48.29853" lon="4.07436">
        <ele>110</ele>
        <time>2022-05-22T16:47:39Z</time>
      </trkpt>
      <trkpt lat="48.29843" lon="4.0743">
        <ele>110</ele>
        <time>2022-05-22T16:47:41Z</time>
      </trkpt>
      <trkpt lat="48.29836" lon="4.0742">
        <ele>110</ele>
        <time>2022-05-22T16:47:43Z</time>
      </trkpt>
      <trkpt lat="48.29828" lon="4.07416">
        <ele>110</ele>
        <time>2022-05-22T16:47:44Z</time>
      </trkpt>
      <trkpt lat="48.29817" lon="4.07417">
        <ele>110</ele>
        <time>2022-05-22T16:47:46Z</time>
      </trkpt>
      <trkpt lat="48.298" lon="4.07434">
        <ele>111</ele>
        <time>2022-05-22T16:47:50Z</time>
      </trkpt>
      <trkpt lat="48.29782" lon="4.07446">
        <ele>111</ele>
        <time>2022-05-22T16:47:53Z</time>
      </trkpt>
      <trkpt lat="48.29762" lon="4.0745">
        <ele>111</ele>
        <time>2022-05-22T16:47:57Z</time>
      </trkpt>
      <trkpt lat="48.29759" lon="4.07478">
        <ele>112</ele>
        <time>2022-05-22T16:48:00Z</time>
      </trkpt>
      <trkpt lat="48.2975" lon="4.07473">
        <ele>111</ele>
        <time>2022-05-22T16:48:02Z</time>
      </trkpt>
      <trkpt lat="48.29748" lon="4.07488">
        <ele>112</ele>
        <time>2022-05-22T16:48:04Z</time>
      </trkpt>
      <trkpt lat="48.29734" lon="4.0745">
        <ele>111</ele>
        <time>2022-05-22T16:48:09Z</time>
      </trkpt>
      <trkpt lat="48.29725" lon="4.07445">
        <ele>111</ele>
        <time>2022-05-22T16:48:10Z</time>
      </trkpt>
      <trkpt lat="48.29716" lon="4.07436">
        <ele>111</ele>
        <time>2022-05-22T16:48:12Z</time>
      </trkpt>
      <trkpt lat="48.29707" lon="4.07412">
        <ele>111</ele>
        <time>2022-05-22T16:48:16Z</time>
      </trkpt>
      <trkpt lat="48.29711" lon="4.07399">
        <ele>111</ele>
        <time>2022-05-22T16:48:17Z</time>
      </trkpt>
      <trkpt lat="48.29706" lon="4.07411">
        <ele>111</ele>
        <time>2022-05-22T16:48:19Z</time>
      </trkpt>
      <trkpt lat="48.29713" lon="4.07421">
        <ele>111</ele>
        <time>2022-05-22T16:48:21Z</time>
      </trkpt>
      <trkpt lat="48.297" lon="4.07432">
        <ele>111</ele>
        <time>2022-05-22T16:48:23Z</time>
      </trkpt>
      <trkpt lat="48.29717" lon="4.07423">
        <ele>111</ele>
        <time>2022-05-22T16:48:27Z</time>
      </trkpt>
      <trkpt lat="48.29726" lon="4.07414">
        <ele>111</ele>
        <time>2022-05-22T16:48:29Z</time>
      </trkpt>
      <trkpt lat="48.29728" lon="4.07401">
        <ele>111</ele>
        <time>2022-05-22T16:48:30Z</time>
      </trkpt>
      <trkpt lat="48.29747" lon="4.07351">
        <ele>110</ele>
        <time>2022-05-22T16:48:37Z</time>
      </trkpt>
      <trkpt lat="48.29766" lon="4.07319">
        <ele>110</ele>
        <time>2022-05-22T16:48:42Z</time>
      </trkpt>
      <trkpt lat="48.29775" lon="4.07324">
        <ele>110</ele>
        <time>2022-05-22T16:48:44Z</time>
      </trkpt>
      <trkpt lat="48.29785" lon="4.07323">
        <ele>110</ele>
        <time>2022-05-22T16:48:46Z</time>
      </trkpt>
      <trkpt lat="48.29788" lon="4.07336">
        <ele>110</ele>
        <time>2022-05-22T16:48:47Z</time>
      </trkpt>
      <trkpt lat="48.29788" lon="4.07364">
        <ele>110</ele>
        <time>2022-05-22T16:48:50Z</time>
      </trkpt>
      <trkpt lat="48.29794" lon="4.07377">
        <ele>110</ele>
        <time>2022-05-22T16:48:52Z</time>
      </trkpt>
      <trkpt lat="48.29796" lon="4.0739">
        <ele>110</ele>
        <time>2022-05-22T16:48:54Z</time>
      </trkpt>
      <trkpt lat="48.29802" lon="4.07401">
        <ele>110</ele>
        <time>2022-05-22T16:48:56Z</time>
      </trkpt>
      <trkpt lat="48.29809" lon="4.0741">
        <ele>110</ele>
        <time>2022-05-22T16:48:57Z</time>
      </trkpt>
      <trkpt lat="48.29819" lon="4.07414">
        <ele>110</ele>
        <time>2022-05-22T16:48:59Z</time>
      </trkpt>
      <trkpt lat="48.29829" lon="4.07414">
        <ele>110</ele>
        <time>2022-05-22T16:49:01Z</time>
      </trkpt>
      <trkpt lat="48.29838" lon="4.07419">
        <ele>110</ele>
        <time>2022-05-22T16:49:03Z</time>
      </trkpt>
      <trkpt lat="48.29839" lon="4.07432">
        <ele>111</ele>
        <time>2022-05-22T16:49:04Z</time>
      </trkpt>
      <trkpt lat="48.29848" lon="4.07442">
        <ele>111</ele>
        <time>2022-05-22T16:49:06Z</time>
      </trkpt>
      <trkpt lat="48.29842" lon="4.07425">
        <ele>110</ele>
        <time>2022-05-22T16:49:08Z</time>
      </trkpt>
      <trkpt lat="48.29851" lon="4.07425">
        <ele>110</ele>
        <time>2022-05-22T16:49:10Z</time>
      </trkpt>
      <trkpt lat="48.29845" lon="4.07415">
        <ele>109</ele>
        <time>2022-05-22T16:49:12Z</time>
      </trkpt>
      <trkpt lat="48.29853" lon="4.074">
        <ele>109</ele>
        <time>2022-05-22T16:49:14Z</time>
      </trkpt>
      <trkpt lat="48.29872" lon="4.07392">
        <ele>108</ele>
        <time>2022-05-22T16:49:17Z</time>
      </trkpt>
      <trkpt lat="48.29883" lon="4.0739">
        <ele>108</ele>
        <time>2022-05-22T16:49:19Z</time>
      </trkpt>
      <trkpt lat="48.29901" lon="4.07394">
        <ele>107</ele>
        <time>2022-05-22T16:49:23Z</time>
      </trkpt>
      <trkpt lat="48.29908" lon="4.07403">
        <ele>107</ele>
        <time>2022-05-22T16:49:24Z</time>
      </trkpt>
      <trkpt lat="48.29914" lon="4.07415">
        <ele>106</ele>
        <time>2022-05-22T16:49:26Z</time>
      </trkpt>
      <trkpt lat="48.29925" lon="4.07453">
        <ele>106</ele>
        <time>2022-05-22T16:49:31Z</time>
      </trkpt>
      <trkpt lat="48.29931" lon="4.07464">
        <ele>107</ele>
        <time>2022-05-22T16:49:33Z</time>
      </trkpt>
      <trkpt lat="48.2994" lon="4.07413">
        <ele>107</ele>
        <time>2022-05-22T16:49:39Z</time>
      </trkpt>
      <trkpt lat="48.29948" lon="4.07407">
        <ele>107</ele>
        <time>2022-05-22T16:49:40Z</time>
      </trkpt>
      <trkpt lat="48.29958" lon="4.07407">
        <ele>107</ele>
        <time>2022-05-22T16:49:42Z</time>
      </trkpt>
      <trkpt lat="48.29965" lon="4.07417">
        <ele>108</ele>
        <time>2022-05-22T16:49:44Z</time>
      </trkpt>
      <trkpt lat="48.29957" lon="4.07409">
        <ele>107</ele>
        <time>2022-05-22T16:49:46Z</time>
      </trkpt>
      <trkpt lat="48.29976" lon="4.07435">
        <ele>108</ele>
        <time>2022-05-22T16:49:50Z</time>
      </trkpt>
      <trkpt lat="48.29954" lon="4.07413">
        <ele>107</ele>
        <time>2022-05-22T16:49:55Z</time>
      </trkpt>
      <trkpt lat="48.29945" lon="4.07415">
        <ele>107</ele>
        <time>2022-05-22T16:49:57Z</time>
      </trkpt>
      <trkpt lat="48.29877" lon="4.07352">
        <ele>108</ele>
        <time>2022-05-22T16:50:11Z</time>
      </trkpt>
      <trkpt lat="48.29867" lon="4.07357">
        <ele>109</ele>
        <time>2022-05-22T16:50:13Z</time>
      </trkpt>
      <trkpt lat="48.29857" lon="4.07367">
        <ele>109</ele>
        <time>2022-05-22T16:50:15Z</time>
      </trkpt>
      <trkpt lat="48.29843" lon="4.07388">
        <ele>110</ele>
        <time>2022-05-22T16:50:18Z</time>
      </trkpt>
      <trkpt lat="48.29834" lon="4.07397">
        <ele>110</ele>
        <time>2022-05-22T16:50:20Z</time>
      </trkpt>
      <trkpt lat="48.29823" lon="4.07399">
        <ele>110</ele>
        <time>2022-05-22T16:50:22Z</time>
      </trkpt>
      <trkpt lat="48.29805" lon="4.07381">
        <ele>110</ele>
        <time>2022-05-22T16:50:26Z</time>
      </trkpt>
      <trkpt lat="48.29799" lon="4.07365">
        <ele>110</ele>
        <time>2022-05-22T16:50:28Z</time>
      </trkpt>
      <trkpt lat="48.2978" lon="4.07346">
        <ele>110</ele>
        <time>2022-05-22T16:50:32Z</time>
      </trkpt>
      <trkpt lat="48.29752" lon="4.07282">
        <ele>111</ele>
        <time>2022-05-22T16:50:41Z</time>
      </trkpt>
      <trkpt lat="48.29754" lon="4.07266">
        <ele>112</ele>
        <time>2022-05-22T16:50:43Z</time>
      </trkpt>
      <trkpt lat="48.29779" lon="4.07235">
        <ele>112</ele>
        <time>2022-05-22T16:50:49Z</time>
      </trkpt>
      <trkpt lat="48.29789" lon="4.07227">
        <ele>112</ele>
        <time>2022-05-22T16:50:51Z</time>
      </trkpt>
      <trkpt lat="48.29797" lon="4.07213">
        <ele>112</ele>
        <time>2022-05-22T16:50:53Z</time>
      </trkpt>
      <trkpt lat="48.298" lon="4.07198">
        <ele>112</ele>
        <time>2022-05-22T16:50:55Z</time>
      </trkpt>
      <trkpt lat="48.29799" lon="4.07181">
        <ele>112</ele>
        <time>2022-05-22T16:50:57Z</time>
      </trkpt>
      <trkpt lat="48.29787" lon="4.07121">
        <ele>112</ele>
        <time>2022-05-22T16:51:04Z</time>
      </trkpt>
      <trkpt lat="48.29782" lon="4.07108">
        <ele>112</ele>
        <time>2022-05-22T16:51:06Z</time>
      </trkpt>
      <trkpt lat="48.29771" lon="4.07113">
        <ele>112</ele>
        <time>2022-05-22T16:51:08Z</time>
      </trkpt>
      <trkpt lat="48.29764" lon="4.07123">
        <ele>112</ele>
        <time>2022-05-22T16:51:10Z</time>
      </trkpt>
      <trkpt lat="48.29745" lon="4.0714">
        <ele>113</ele>
        <time>2022-05-22T16:51:14Z</time>
      </trkpt>
      <trkpt lat="48.29735" lon="4.07145">
        <ele>113</ele>
        <time>2022-05-22T16:51:16Z</time>
      </trkpt>
      <trkpt lat="48.29736" lon="4.07271">
        <ele>112</ele>
        <time>2022-05-22T16:51:31Z</time>
      </trkpt>
      <trkpt lat="48.29726" lon="4.07274">
        <ele>112</ele>
        <time>2022-05-22T16:51:33Z</time>
      </trkpt>
      <trkpt lat="48.29713" lon="4.07294">
        <ele>112</ele>
        <time>2022-05-22T16:51:36Z</time>
      </trkpt>
      <trkpt lat="48.29704" lon="4.073">
        <ele>112</ele>
        <time>2022-05-22T16:51:38Z</time>
      </trkpt>
      <trkpt lat="48.29697" lon="4.07309">
        <ele>112</ele>
        <time>2022-05-22T16:51:39Z</time>
      </trkpt>
      <trkpt lat="48.29685" lon="4.07332">
        <ele>112</ele>
        <time>2022-05-22T16:51:43Z</time>
      </trkpt>
      <trkpt lat="48.29676" lon="4.07339">
        <ele>112</ele>
        <time>2022-05-22T16:51:45Z</time>
      </trkpt>
      <trkpt lat="48.29668" lon="4.07342">
        <ele>112</ele>
        <time>2022-05-22T16:51:46Z</time>
      </trkpt>
      <trkpt lat="48.29657" lon="4.07341">
        <ele>112</ele>
        <time>2022-05-22T16:51:48Z</time>
      </trkpt>
      <trkpt lat="48.29641" lon="4.07325">
        <ele>113</ele>
        <time>2022-05-22T16:51:51Z</time>
      </trkpt>
      <trkpt lat="48.29613" lon="4.07344">
        <ele>113</ele>
        <time>2022-05-22T16:51:57Z</time>
      </trkpt>
      <trkpt lat="48.29629" lon="4.07416">
        <ele>112</ele>
        <time>2022-05-22T16:52:06Z</time>
      </trkpt>
      <trkpt lat="48.29618" lon="4.0742">
        <ele>113</ele>
        <time>2022-05-22T16:52:08Z</time>
      </trkpt>
      <trkpt lat="48.29642" lon="4.07455">
        <ele>112</ele>
        <time>2022-05-22T16:52:14Z</time>
      </trkpt>
      <trkpt lat="48.29653" lon="4.07482">
        <ele>111</ele>
        <time>2022-05-22T16:52:18Z</time>
      </trkpt>
      <trkpt lat="48.29666" lon="4.07506">
        <ele>111</ele>
        <time>2022-05-22T16:52:21Z</time>
      </trkpt>
      <trkpt lat="48.29675" lon="4.07517">
        <ele>111</ele>
        <time>2022-05-22T16:52:23Z</time>
      </trkpt>
      <trkpt lat="48.29681" lon="4.07535">
        <ele>111</ele>
        <time>2022-05-22T16:52:26Z</time>
      </trkpt>
      <trkpt lat="48.29682" lon="4.0755">
        <ele>111</ele>
        <time>2022-05-22T16:52:27Z</time>
      </trkpt>
      <trkpt lat="48.29642" lon="4.07606">
        <ele>110</ele>
        <time>2022-05-22T16:52:37Z</time>
      </trkpt>
      <trkpt lat="48.2963" lon="4.07635">
        <ele>111</ele>
        <time>2022-05-22T16:52:41Z</time>
      </trkpt>
      <trkpt lat="48.2959" lon="4.07679">
        <ele>111</ele>
        <time>2022-05-22T16:52:50Z</time>
      </trkpt>
      <trkpt lat="48.29561" lon="4.07718">
        <ele>110</ele>
        <time>2022-05-22T16:52:57Z</time>
      </trkpt>
      <trkpt lat="48.29534" lon="4.07748">
        <ele>110</ele>
        <time>2022-05-22T16:53:03Z</time>
      </trkpt>
      <trkpt lat="48.29526" lon="4.07763">
        <ele>110</ele>
        <time>2022-05-22T16:53:05Z</time>
      </trkpt>
      <trkpt lat="48.29515" lon="4.07776">
        <ele>109</ele>
        <time>2022-05-22T16:53:08Z</time>
      </trkpt>
      <trkpt lat="48.29503" lon="4.0778">
        <ele>109</ele>
        <time>2022-05-22T16:53:10Z</time>
      </trkpt>
      <trkpt lat="48.29477" lon="4.07809">
        <ele>108</ele>
        <time>2022-05-22T16:53:16Z</time>
      </trkpt>
      <trkpt lat="48.29457" lon="4.0782">
        <ele>108</ele>
        <time>2022-05-22T16:53:19Z</time>
      </trkpt>
      <trkpt lat="48.29429" lon="4.07851">
        <ele>107</ele>
        <time>2022-05-22T16:53:26Z</time>
      </trkpt>
      <trkpt lat="48.2941" lon="4.07864">
        <ele>107</ele>
        <time>2022-05-22T16:53:29Z</time>
      </trkpt>
      <trkpt lat="48.294" lon="4.07874">
        <ele>107</ele>
        <time>2022-05-22T16:53:31Z</time>
      </trkpt>
      <trkpt lat="48.29337" lon="4.07914">
        <ele>108</ele>
        <time>2022-05-22T16:53:44Z</time>
      </trkpt>
      <trkpt lat="48.29317" lon="4.07913">
        <ele>108</ele>
        <time>2022-05-22T16:53:47Z</time>
      </trkpt>
      <trkpt lat="48.29308" lon="4.07918">
        <ele>108</ele>
        <time>2022-05-22T16:53:49Z</time>
      </trkpt>
      <trkpt lat="48.29288" lon="4.07918">
        <ele>108</ele>
        <time>2022-05-22T16:53:52Z</time>
      </trkpt>
      <trkpt lat="48.29271" lon="4.07932">
        <ele>108</ele>
        <time>2022-05-22T16:53:56Z</time>
      </trkpt>
      <trkpt lat="48.29239" lon="4.07982">
        <ele>108</ele>
        <time>2022-05-22T16:54:04Z</time>
      </trkpt>
      <trkpt lat="48.29212" lon="4.0801">
        <ele>107</ele>
        <time>2022-05-22T16:54:10Z</time>
      </trkpt>
      <trkpt lat="48.29189" lon="4.08042">
        <ele>106</ele>
        <time>2022-05-22T16:54:16Z</time>
      </trkpt>
      <trkpt lat="48.29159" lon="4.0806">
        <ele>105</ele>
        <time>2022-05-22T16:54:21Z</time>
      </trkpt>
      <trkpt lat="48.29132" lon="4.08087">
        <ele>106</ele>
        <time>2022-05-22T16:54:27Z</time>
      </trkpt>
      <trkpt lat="48.29117" lon="4.08117">
        <ele>107</ele>
        <time>2022-05-22T16:54:31Z</time>
      </trkpt>
      <trkpt lat="48.29092" lon="4.08179">
        <ele>107</ele>
        <time>2022-05-22T16:54:40Z</time>
      </trkpt>
      <trkpt lat="48.29069" lon="4.08209">
        <ele>108</ele>
        <time>2022-05-22T16:54:45Z</time>
      </trkpt>
      <trkpt lat="48.29039" lon="4.08237">
        <ele>108</ele>
        <time>2022-05-22T16:54:52Z</time>
      </trkpt>
      <trkpt lat="48.2897" lon="4.08276">
        <ele>108</ele>
        <time>2022-05-22T16:55:05Z</time>
      </trkpt>
      <trkpt lat="48.28954" lon="4.08293">
        <ele>108</ele>
        <time>2022-05-22T16:55:08Z</time>
      </trkpt>
      <trkpt lat="48.28947" lon="4.08303">
        <ele>108</ele>
        <time>2022-05-22T16:55:10Z</time>
      </trkpt>
      <trkpt lat="48.2891" lon="4.08398">
        <ele>107</ele>
        <time>2022-05-22T16:55:23Z</time>
      </trkpt>
      <trkpt lat="48.28901" lon="4.08402">
        <ele>107</ele>
        <time>2022-05-22T16:55:25Z</time>
      </trkpt>
      <trkpt lat="48.28889" lon="4.08432">
        <ele>107</ele>
        <time>2022-05-22T16:55:29Z</time>
      </trkpt>
      <trkpt lat="48.28796" lon="4.08518">
        <ele>106</ele>
        <time>2022-05-22T16:55:48Z</time>
      </trkpt>
      <trkpt lat="48.28713" lon="4.08621">
        <ele>105</ele>
        <time>2022-05-22T16:56:08Z</time>
      </trkpt>
      <trkpt lat="48.2864" lon="4.08722">
        <ele>105</ele>
        <time>2022-05-22T16:56:25Z</time>
      </trkpt>
      <trkpt lat="48.28636" lon="4.08734">
        <ele>105</ele>
        <time>2022-05-22T16:56:27Z</time>
      </trkpt>
      <trkpt lat="48.28644" lon="4.08764">
        <ele>105</ele>
        <time>2022-05-22T16:56:31Z</time>
      </trkpt>
      <trkpt lat="48.28675" lon="4.08814">
        <ele>106</ele>
        <time>2022-05-22T16:56:39Z</time>
      </trkpt>
      <trkpt lat="48.2867" lon="4.08831">
        <ele>106</ele>
        <time>2022-05-22T16:56:41Z</time>
      </trkpt>
      <trkpt lat="48.28659" lon="4.0884">
        <ele>106</ele>
        <time>2022-05-22T16:56:43Z</time>
      </trkpt>
      <trkpt lat="48.28652" lon="4.08853">
        <ele>106</ele>
        <time>2022-05-22T16:56:45Z</time>
      </trkpt>
      <trkpt lat="48.28578" lon="4.08947">
        <ele>104</ele>
        <time>2022-05-22T16:57:02Z</time>
      </trkpt>
      <trkpt lat="48.28568" lon="4.08961">
        <ele>104</ele>
        <time>2022-05-22T16:57:05Z</time>
      </trkpt>
      <trkpt lat="48.28555" lon="4.08987">
        <ele>103</ele>
        <time>2022-05-22T16:57:09Z</time>
      </trkpt>
      <trkpt lat="48.28539" lon="4.09004">
        <ele>104</ele>
        <time>2022-05-22T16:57:12Z</time>
      </trkpt>
      <trkpt lat="48.28516" lon="4.09036">
        <ele>104</ele>
        <time>2022-05-22T16:57:18Z</time>
      </trkpt>
      <trkpt lat="48.28499" lon="4.09056">
        <ele>105</ele>
        <time>2022-05-22T16:57:22Z</time>
      </trkpt>
      <trkpt lat="48.28477" lon="4.09071">
        <ele>105</ele>
        <time>2022-05-22T16:57:26Z</time>
      </trkpt>
      <trkpt lat="48.2846" lon="4.09091">
        <ele>106</ele>
        <time>2022-05-22T16:57:30Z</time>
      </trkpt>
      <trkpt lat="48.28448" lon="4.09118">
        <ele>106</ele>
        <time>2022-05-22T16:57:33Z</time>
      </trkpt>
      <trkpt lat="48.28421" lon="4.09159">
        <ele>106</ele>
        <time>2022-05-22T16:57:40Z</time>
      </trkpt>
      <trkpt lat="48.2838" lon="4.09237">
        <ele>106</ele>
        <time>2022-05-22T16:57:52Z</time>
      </trkpt>
      <trkpt lat="48.28372" lon="4.09246">
        <ele>107</ele>
        <time>2022-05-22T16:57:54Z</time>
      </trkpt>
      <trkpt lat="48.28351" lon="4.09244">
        <ele>107</ele>
        <time>2022-05-22T16:57:58Z</time>
      </trkpt>
      <trkpt lat="48.28316" lon="4.09215">
        <ele>107</ele>
        <time>2022-05-22T16:58:05Z</time>
      </trkpt>
      <trkpt lat="48.28308" lon="4.0921">
        <ele>107</ele>
        <time>2022-05-22T16:58:06Z</time>
      </trkpt>
      <trkpt lat="48.28299" lon="4.0921">
        <ele>107</ele>
        <time>2022-05-22T16:58:08Z</time>
      </trkpt>
      <trkpt lat="48.28279" lon="4.09244">
        <ele>106</ele>
        <time>2022-05-22T16:58:13Z</time>
      </trkpt>
      <trkpt lat="48.28274" lon="4.0926">
        <ele>106</ele>
        <time>2022-05-22T16:58:15Z</time>
      </trkpt>
      <trkpt lat="48.28259" lon="4.09287">
        <ele>106</ele>
        <time>2022-05-22T16:58:20Z</time>
      </trkpt>
      <trkpt lat="48.28227" lon="4.09327">
        <ele>106</ele>
        <time>2022-05-22T16:58:27Z</time>
      </trkpt>
      <trkpt lat="48.2821" lon="4.09342">
        <ele>107</ele>
        <time>2022-05-22T16:58:30Z</time>
      </trkpt>
      <trkpt lat="48.28195" lon="4.0936">
        <ele>108</ele>
        <time>2022-05-22T16:58:34Z</time>
      </trkpt>
      <trkpt lat="48.28168" lon="4.09413">
        <ele>111</ele>
        <time>2022-05-22T16:58:42Z</time>
      </trkpt>
      <trkpt lat="48.28166" lon="4.09446">
        <ele>111</ele>
        <time>2022-05-22T16:58:46Z</time>
      </trkpt>
      <trkpt lat="48.28161" lon="4.09459">
        <ele>110</ele>
        <time>2022-05-22T16:58:47Z</time>
      </trkpt>
      <trkpt lat="48.28154" lon="4.09468">
        <ele>110</ele>
        <time>2022-05-22T16:58:49Z</time>
      </trkpt>
      <trkpt lat="48.28132" lon="4.09471">
        <ele>110</ele>
        <time>2022-05-22T16:58:53Z</time>
      </trkpt>
      <trkpt lat="48.28113" lon="4.09487">
        <ele>109</ele>
        <time>2022-05-22T16:58:57Z</time>
      </trkpt>
      <trkpt lat="48.28084" lon="4.09514">
        <ele>109</ele>
        <time>2022-05-22T16:59:03Z</time>
      </trkpt>
      <trkpt lat="48.28078" lon="4.09528">
        <ele>108</ele>
        <time>2022-05-22T16:59:05Z</time>
      </trkpt>
      <trkpt lat="48.28076" lon="4.09542">
        <ele>108</ele>
        <time>2022-05-22T16:59:07Z</time>
      </trkpt>
      <trkpt lat="48.28067" lon="4.09553">
        <ele>108</ele>
        <time>2022-05-22T16:59:09Z</time>
      </trkpt>
      <trkpt lat="48.28048" lon="4.0956">
        <ele>107</ele>
        <time>2022-05-22T16:59:12Z</time>
      </trkpt>
      <trkpt lat="48.28043" lon="4.09571">
        <ele>107</ele>
        <time>2022-05-22T16:59:14Z</time>
      </trkpt>
      <trkpt lat="48.28042" lon="4.09587">
        <ele>107</ele>
        <time>2022-05-22T16:59:16Z</time>
      </trkpt>
      <trkpt lat="48.28059" lon="4.09634">
        <ele>108</ele>
        <time>2022-05-22T16:59:22Z</time>
      </trkpt>
      <trkpt lat="48.28066" lon="4.09645">
        <ele>109</ele>
        <time>2022-05-22T16:59:24Z</time>
      </trkpt>
      <trkpt lat="48.28108" lon="4.09743">
        <ele>111</ele>
        <time>2022-05-22T16:59:38Z</time>
      </trkpt>
      <trkpt lat="48.28106" lon="4.09757">
        <ele>111</ele>
        <time>2022-05-22T16:59:39Z</time>
      </trkpt>
      <trkpt lat="48.28129" lon="4.0981">
        <ele>109</ele>
        <time>2022-05-22T16:59:47Z</time>
      </trkpt>
      <trkpt lat="48.28132" lon="4.09827">
        <ele>108</ele>
        <time>2022-05-22T16:59:49Z</time>
      </trkpt>
      <trkpt lat="48.28133" lon="4.09873">
        <ele>108</ele>
        <time>2022-05-22T16:59:54Z</time>
      </trkpt>
      <trkpt lat="48.28124" lon="4.09979">
        <ele>106</ele>
        <time>2022-05-22T17:00:07Z</time>
      </trkpt>
      <trkpt lat="48.28116" lon="4.09987">
        <ele>106</ele>
        <time>2022-05-22T17:00:09Z</time>
      </trkpt>
      <trkpt lat="48.28049" lon="4.0996">
        <ele>106</ele>
        <time>2022-05-22T17:00:21Z</time>
      </trkpt>
      <trkpt lat="48.28" lon="4.09946">
        <ele>107</ele>
        <time>2022-05-22T17:00:30Z</time>
      </trkpt>
      <trkpt lat="48.27966" lon="4.0994">
        <ele>108</ele>
        <time>2022-05-22T17:00:36Z</time>
      </trkpt>
      <trkpt lat="48.27929" lon="4.09937">
        <ele>109</ele>
        <time>2022-05-22T17:00:43Z</time>
      </trkpt>
      <trkpt lat="48.27918" lon="4.09938">
        <ele>109</ele>
        <time>2022-05-22T17:00:45Z</time>
      </trkpt>
      <trkpt lat="48.27863" lon="4.09962">
        <ele>108</ele>
        <time>2022-05-22T17:00:55Z</time>
      </trkpt>
      <trkpt lat="48.27837" lon="4.09969">
        <ele>107</ele>
        <time>2022-05-22T17:00:59Z</time>
      </trkpt>
      <trkpt lat="48.27797" lon="4.09971">
        <ele>107</ele>
        <time>2022-05-22T17:01:07Z</time>
      </trkpt>
      <trkpt lat="48.27773" lon="4.09968">
        <ele>108</ele>
        <time>2022-05-22T17:01:11Z</time>
      </trkpt>
      <trkpt lat="48.27736" lon="4.09973">
        <ele>108</ele>
        <time>2022-05-22T17:01:17Z</time>
      </trkpt>
      <trkpt lat="48.277" lon="4.09988">
        <ele>109</ele>
        <time>2022-05-22T17:01:24Z</time>
      </trkpt>
      <trkpt lat="48.27688" lon="4.09985">
        <ele>109</ele>
        <time>2022-05-22T17:01:26Z</time>
      </trkpt>
      <trkpt lat="48.27676" lon="4.09986">
        <ele>109</ele>
        <time>2022-05-22T17:01:28Z</time>
      </trkpt>
      <trkpt lat="48.2762" lon="4.10005">
        <ele>108</ele>
        <time>2022-05-22T17:01:39Z</time>
      </trkpt>
      <trkpt lat="48.27482" lon="4.10031">
        <ele>109</ele>
        <time>2022-05-22T17:02:03Z</time>
      </trkpt>
      <trkpt lat="48.27477" lon="4.10045">
        <ele>109</ele>
        <time>2022-05-22T17:02:05Z</time>
      </trkpt>
      <trkpt lat="48.27458" lon="4.1005">
        <ele>109</ele>
        <time>2022-05-22T17:02:09Z</time>
      </trkpt>
      <trkpt lat="48.27313" lon="4.10128">
        <ele>108</ele>
        <time>2022-05-22T17:02:36Z</time>
      </trkpt>
      <trkpt lat="48.27303" lon="4.10132">
        <ele>108</ele>
        <time>2022-05-22T17:02:38Z</time>
      </trkpt>
      <trkpt lat="48.27292" lon="4.10132">
        <ele>108</ele>
        <time>2022-05-22T17:02:40Z</time>
      </trkpt>
      <trkpt lat="48.2724" lon="4.10161">
        <ele>108</ele>
        <time>2022-05-22T17:02:50Z</time>
      </trkpt>
      <trkpt lat="48.27216" lon="4.10168">
        <ele>108</ele>
        <time>2022-05-22T17:02:54Z</time>
      </trkpt>
      <trkpt lat="48.27208" lon="4.10175">
        <ele>108</ele>
        <time>2022-05-22T17:02:56Z</time>
      </trkpt>
      <trkpt lat="48.27122" lon="4.10219">
        <ele>107</ele>
        <time>2022-05-22T17:03:12Z</time>
      </trkpt>
      <trkpt lat="48.27073" lon="4.10241">
        <ele>106</ele>
        <time>2022-05-22T17:03:21Z</time>
      </trkpt>
      <trkpt lat="48.26914" lon="4.10303">
        <ele>109</ele>
        <time>2022-05-22T17:03:50Z</time>
      </trkpt>
      <trkpt lat="48.26903" lon="4.10305">
        <ele>109</ele>
        <time>2022-05-22T17:03:52Z</time>
      </trkpt>
      <trkpt lat="48.26891" lon="4.10304">
        <ele>109</ele>
        <time>2022-05-22T17:03:54Z</time>
      </trkpt>
      <trkpt lat="48.26887" lon="4.10319">
        <ele>109</ele>
        <time>2022-05-22T17:03:56Z</time>
      </trkpt>
      <trkpt lat="48.2689" lon="4.10338">
        <ele>109</ele>
        <time>2022-05-22T17:03:59Z</time>
      </trkpt>
      <trkpt lat="48.26886" lon="4.10564">
        <ele>107</ele>
        <time>2022-05-22T17:04:25Z</time>
      </trkpt>
      <trkpt lat="48.26882" lon="4.1062">
        <ele>107</ele>
        <time>2022-05-22T17:04:32Z</time>
      </trkpt>
      <trkpt lat="48.26877" lon="4.10639">
        <ele>107</ele>
        <time>2022-05-22T17:04:34Z</time>
      </trkpt>
      <trkpt lat="48.26856" lon="4.10668">
        <ele>107</ele>
        <time>2022-05-22T17:04:39Z</time>
      </trkpt>
      <trkpt lat="48.26785" lon="4.1072">
        <ele>108</ele>
        <time>2022-05-22T17:04:54Z</time>
      </trkpt>
      <trkpt lat="48.26741" lon="4.10756">
        <ele>108</ele>
        <time>2022-05-22T17:05:02Z</time>
      </trkpt>
      <trkpt lat="48.26669" lon="4.10804">
        <ele>109</ele>
        <time>2022-05-22T17:05:16Z</time>
      </trkpt>
      <trkpt lat="48.26647" lon="4.10823">
        <ele>109</ele>
        <time>2022-05-22T17:05:21Z</time>
      </trkpt>
      <trkpt lat="48.26628" lon="4.10847">
        <ele>109</ele>
        <time>2022-05-22T17:05:25Z</time>
      </trkpt>
      <trkpt lat="48.26613" lon="4.10873">
        <ele>109</ele>
        <time>2022-05-22T17:05:29Z</time>
      </trkpt>
      <trkpt lat="48.26561" lon="4.10987">
        <ele>109</ele>
        <time>2022-05-22T17:05:46Z</time>
      </trkpt>
      <trkpt lat="48.26554" lon="4.10997">
        <ele>109</ele>
        <time>2022-05-22T17:05:48Z</time>
      </trkpt>
      <trkpt lat="48.26533" lon="4.11012">
        <ele>110</ele>
        <time>2022-05-22T17:05:52Z</time>
      </trkpt>
      <trkpt lat="48.26523" lon="4.11037">
        <ele>110</ele>
        <time>2022-05-22T17:05:55Z</time>
      </trkpt>
      <trkpt lat="48.2652" lon="4.11051">
        <ele>110</ele>
        <time>2022-05-22T17:05:57Z</time>
      </trkpt>
      <trkpt lat="48.26512" lon="4.11056">
        <ele>110</ele>
        <time>2022-05-22T17:05:58Z</time>
      </trkpt>
      <trkpt lat="48.26482" lon="4.11053">
        <ele>111</ele>
        <time>2022-05-22T17:06:04Z</time>
      </trkpt>
      <trkpt lat="48.26479" lon="4.11066">
        <ele>111</ele>
        <time>2022-05-22T17:06:05Z</time>
      </trkpt>
      <trkpt lat="48.26477" lon="4.11099">
        <ele>110</ele>
        <time>2022-05-22T17:06:09Z</time>
      </trkpt>
      <trkpt lat="48.26478" lon="4.11165">
        <ele>109</ele>
        <time>2022-05-22T17:06:17Z</time>
      </trkpt>
      <trkpt lat="48.26496" lon="4.11565">
        <ele>106</ele>
        <time>2022-05-22T17:07:05Z</time>
      </trkpt>
      <trkpt lat="48.265" lon="4.11625">
        <ele>107</ele>
        <time>2022-05-22T17:07:12Z</time>
      </trkpt>
      <trkpt lat="48.26506" lon="4.11654">
        <ele>107</ele>
        <time>2022-05-22T17:07:15Z</time>
      </trkpt>
      <trkpt lat="48.26503" lon="4.11711">
        <ele>106</ele>
        <time>2022-05-22T17:07:22Z</time>
      </trkpt>
      <trkpt lat="48.26504" lon="4.11748">
        <ele>106</ele>
        <time>2022-05-22T17:07:27Z</time>
      </trkpt>
      <trkpt lat="48.2653" lon="4.12275">
        <ele>106</ele>
        <time>2022-05-22T17:08:29Z</time>
      </trkpt>
      <trkpt lat="48.26529" lon="4.12292">
        <ele>106</ele>
        <time>2022-05-22T17:08:31Z</time>
      </trkpt>
      <trkpt lat="48.26538" lon="4.1244">
        <ele>106</ele>
        <time>2022-05-22T17:08:49Z</time>
      </trkpt>
      <trkpt lat="48.26552" lon="4.12779">
        <ele>108</ele>
        <time>2022-05-22T17:09:29Z</time>
      </trkpt>
      <trkpt lat="48.26567" lon="4.12878">
        <ele>107</ele>
        <time>2022-05-22T17:09:41Z</time>
      </trkpt>
      <trkpt lat="48.26612" lon="4.1323">
        <ele>105</ele>
        <time>2022-05-22T17:10:23Z</time>
      </trkpt>
      <trkpt lat="48.26612" lon="4.13274">
        <ele>106</ele>
        <time>2022-05-22T17:10:29Z</time>
      </trkpt>
      <trkpt lat="48.26623" lon="4.13315">
        <ele>107</ele>
        <time>2022-05-22T17:10:34Z</time>
      </trkpt>
      <trkpt lat="48.26649" lon="4.13502">
        <ele>108</ele>
        <time>2022-05-22T17:10:57Z</time>
      </trkpt>
      <trkpt lat="48.26666" lon="4.13645">
        <ele>108</ele>
        <time>2022-05-22T17:11:14Z</time>
      </trkpt>
      <trkpt lat="48.26681" lon="4.13713">
        <ele>108</ele>
        <time>2022-05-22T17:11:22Z</time>
      </trkpt>
      <trkpt lat="48.26702" lon="4.13764">
        <ele>109</ele>
        <time>2022-05-22T17:11:29Z</time>
      </trkpt>
      <trkpt lat="48.26734" lon="4.13821">
        <ele>110</ele>
        <time>2022-05-22T17:11:38Z</time>
      </trkpt>
      <trkpt lat="48.26776" lon="4.13862">
        <ele>109</ele>
        <time>2022-05-22T17:11:47Z</time>
      </trkpt>
      <trkpt lat="48.26842" lon="4.1392">
        <ele>107</ele>
        <time>2022-05-22T17:12:01Z</time>
      </trkpt>
      <trkpt lat="48.26907" lon="4.13983">
        <ele>107</ele>
        <time>2022-05-22T17:12:14Z</time>
      </trkpt>
      <trkpt lat="48.26914" lon="4.13993">
        <ele>107</ele>
        <time>2022-05-22T17:12:16Z</time>
      </trkpt>
      <trkpt lat="48.26909" lon="4.14006">
        <ele>107</ele>
        <time>2022-05-22T17:12:18Z</time>
      </trkpt>
      <trkpt lat="48.26959" lon="4.13926">
        <ele>108</ele>
        <time>2022-05-22T17:12:31Z</time>
      </trkpt>
      <trkpt lat="48.26968" lon="4.13924">
        <ele>108</ele>
        <time>2022-05-22T17:12:33Z</time>
      </trkpt>
      <trkpt lat="48.26989" lon="4.13993">
        <ele>109</ele>
        <time>2022-05-22T17:12:42Z</time>
      </trkpt>
      <trkpt lat="48.27007" lon="4.14034">
        <ele>109</ele>
        <time>2022-05-22T17:12:47Z</time>
      </trkpt>
      <trkpt lat="48.27208" lon="4.14636">
        <ele>107</ele>
        <time>2022-05-22T17:14:07Z</time>
      </trkpt>
      <trkpt lat="48.27224" lon="4.14705">
        <ele>107</ele>
        <time>2022-05-22T17:14:16Z</time>
      </trkpt>
      <trkpt lat="48.27231" lon="4.14749">
        <ele>108</ele>
        <time>2022-05-22T17:14:21Z</time>
      </trkpt>
      <trkpt lat="48.27234" lon="4.14792">
        <ele>108</ele>
        <time>2022-05-22T17:14:26Z</time>
      </trkpt>
      <trkpt lat="48.27232" lon="4.14878">
        <ele>108</ele>
        <time>2022-05-22T17:14:36Z</time>
      </trkpt>
      <trkpt lat="48.27208" lon="4.15124">
        <ele>107</ele>
        <time>2022-05-22T17:15:06Z</time>
      </trkpt>
      <trkpt lat="48.27206" lon="4.15179">
        <ele>108</ele>
        <time>2022-05-22T17:15:12Z</time>
      </trkpt>
      <trkpt lat="48.27211" lon="4.15234">
        <ele>108</ele>
        <time>2022-05-22T17:15:19Z</time>
      </trkpt>
      <trkpt lat="48.27241" lon="4.15422">
        <ele>107</ele>
        <time>2022-05-22T17:15:42Z</time>
      </trkpt>
      <trkpt lat="48.27249" lon="4.1549">
        <ele>106</ele>
        <time>2022-05-22T17:15:50Z</time>
      </trkpt>
      <trkpt lat="48.27249" lon="4.15567">
        <ele>107</ele>
        <time>2022-05-22T17:15:59Z</time>
      </trkpt>
      <trkpt lat="48.2724" lon="4.15683">
        <ele>108</ele>
        <time>2022-05-22T17:16:13Z</time>
      </trkpt>
      <trkpt lat="48.27241" lon="4.15696">
        <ele>108</ele>
        <time>2022-05-22T17:16:15Z</time>
      </trkpt>
      <trkpt lat="48.27265" lon="4.15756">
        <ele>109</ele>
        <time>2022-05-22T17:16:23Z</time>
      </trkpt>
      <trkpt lat="48.27266" lon="4.1577">
        <ele>109</ele>
        <time>2022-05-22T17:16:25Z</time>
      </trkpt>
      <trkpt lat="48.27256" lon="4.15825">
        <ele>108</ele>
        <time>2022-05-22T17:16:31Z</time>
      </trkpt>
      <trkpt lat="48.2723" lon="4.15883">
        <ele>108</ele>
        <time>2022-05-22T17:16:40Z</time>
      </trkpt>
      <trkpt lat="48.27227" lon="4.15897">
        <ele>108</ele>
        <time>2022-05-22T17:16:41Z</time>
      </trkpt>
      <trkpt lat="48.27219" lon="4.16034">
        <ele>109</ele>
        <time>2022-05-22T17:16:58Z</time>
      </trkpt>
      <trkpt lat="48.27219" lon="4.16063">
        <ele>109</ele>
        <time>2022-05-22T17:17:01Z</time>
      </trkpt>
      <trkpt lat="48.27225" lon="4.16095">
        <ele>109</ele>
        <time>2022-05-22T17:17:05Z</time>
      </trkpt>
      <trkpt lat="48.27224" lon="4.16112">
        <ele>108</ele>
        <time>2022-05-22T17:17:07Z</time>
      </trkpt>
      <trkpt lat="48.27212" lon="4.16181">
        <ele>107</ele>
        <time>2022-05-22T17:17:15Z</time>
      </trkpt>
      <trkpt lat="48.27182" lon="4.163">
        <ele>106</ele>
        <time>2022-05-22T17:17:31Z</time>
      </trkpt>
      <trkpt lat="48.27168" lon="4.16369">
        <ele>107</ele>
        <time>2022-05-22T17:17:39Z</time>
      </trkpt>
      <trkpt lat="48.27164" lon="4.16381">
        <ele>107</ele>
        <time>2022-05-22T17:17:41Z</time>
      </trkpt>
      <trkpt lat="48.27151" lon="4.16402">
        <ele>108</ele>
        <time>2022-05-22T17:17:44Z</time>
      </trkpt>
      <trkpt lat="48.27138" lon="4.1644">
        <ele>108</ele>
        <time>2022-05-22T17:17:49Z</time>
      </trkpt>
      <trkpt lat="48.27135" lon="4.16489">
        <ele>107</ele>
        <time>2022-05-22T17:17:55Z</time>
      </trkpt>
      <trkpt lat="48.27121" lon="4.16548">
        <ele>107</ele>
        <time>2022-05-22T17:18:02Z</time>
      </trkpt>
      <trkpt lat="48.27101" lon="4.16619">
        <ele>106</ele>
        <time>2022-05-22T17:18:11Z</time>
      </trkpt>
      <trkpt lat="48.27078" lon="4.16688">
        <ele>106</ele>
        <time>2022-05-22T17:18:21Z</time>
      </trkpt>
      <trkpt lat="48.27054" lon="4.16744">
        <ele>107</ele>
        <time>2022-05-22T17:18:28Z</time>
      </trkpt>
      <trkpt lat="48.27033" lon="4.16782">
        <ele>109</ele>
        <time>2022-05-22T17:18:34Z</time>
      </trkpt>
      <trkpt lat="48.26994" lon="4.16863">
        <ele>114</ele>
        <time>2022-05-22T17:18:46Z</time>
      </trkpt>
      <trkpt lat="48.26861" lon="4.17164">
        <ele>112</ele>
        <time>2022-05-22T17:19:29Z</time>
      </trkpt>
      <trkpt lat="48.26817" lon="4.17235">
        <ele>110</ele>
        <time>2022-05-22T17:19:40Z</time>
      </trkpt>
      <trkpt lat="48.26786" lon="4.17279">
        <ele>109</ele>
        <time>2022-05-22T17:19:48Z</time>
      </trkpt>
      <trkpt lat="48.2677" lon="4.17313">
        <ele>110</ele>
        <time>2022-05-22T17:19:53Z</time>
      </trkpt>
      <trkpt lat="48.26766" lon="4.17332">
        <ele>110</ele>
        <time>2022-05-22T17:19:55Z</time>
      </trkpt>
      <trkpt lat="48.26765" lon="4.17387">
        <ele>111</ele>
        <time>2022-05-22T17:20:02Z</time>
      </trkpt>
      <trkpt lat="48.26755" lon="4.17394">
        <ele>111</ele>
        <time>2022-05-22T17:20:04Z</time>
      </trkpt>
      <trkpt lat="48.26752" lon="4.17407">
        <ele>112</ele>
        <time>2022-05-22T17:20:05Z</time>
      </trkpt>
      <trkpt lat="48.26754" lon="4.17926">
        <ele>111</ele>
        <time>2022-05-22T17:21:07Z</time>
      </trkpt>
      <trkpt lat="48.26746" lon="4.17936">
        <ele>110</ele>
        <time>2022-05-22T17:21:09Z</time>
      </trkpt>
      <trkpt lat="48.26654" lon="4.17928">
        <ele>107</ele>
        <time>2022-05-22T17:21:25Z</time>
      </trkpt>
      <trkpt lat="48.26634" lon="4.17938">
        <ele>107</ele>
        <time>2022-05-22T17:21:29Z</time>
      </trkpt>
      <trkpt lat="48.26615" lon="4.17958">
        <ele>108</ele>
        <time>2022-05-22T17:21:33Z</time>
      </trkpt>
      <trkpt lat="48.26602" lon="4.17959">
        <ele>109</ele>
        <time>2022-05-22T17:21:35Z</time>
      </trkpt>
      <trkpt lat="48.265" lon="4.17887">
        <ele>112</ele>
        <time>2022-05-22T17:21:55Z</time>
      </trkpt>
      <trkpt lat="48.2649" lon="4.17886">
        <ele>111</ele>
        <time>2022-05-22T17:21:57Z</time>
      </trkpt>
      <trkpt lat="48.26485" lon="4.17898">
        <ele>112</ele>
        <time>2022-05-22T17:21:59Z</time>
      </trkpt>
      <trkpt lat="48.26476" lon="4.17911">
        <ele>111</ele>
        <time>2022-05-22T17:22:01Z</time>
      </trkpt>
      <trkpt lat="48.26464" lon="4.17944">
        <ele>111</ele>
        <time>2022-05-22T17:22:06Z</time>
      </trkpt>
      <trkpt lat="48.26456" lon="4.18012">
        <ele>110</ele>
        <time>2022-05-22T17:22:14Z</time>
      </trkpt>
      <trkpt lat="48.2645" lon="4.181">
        <ele>108</ele>
        <time>2022-05-22T17:22:24Z</time>
      </trkpt>
      <trkpt lat="48.26443" lon="4.18154">
        <ele>109</ele>
        <time>2022-05-22T17:22:31Z</time>
      </trkpt>
      <trkpt lat="48.26436" lon="4.18259">
        <ele>109</ele>
        <time>2022-05-22T17:22:43Z</time>
      </trkpt>
      <trkpt lat="48.26429" lon="4.18321">
        <ele>110</ele>
        <time>2022-05-22T17:22:51Z</time>
      </trkpt>
      <trkpt lat="48.26427" lon="4.1838">
        <ele>111</ele>
        <time>2022-05-22T17:22:58Z</time>
      </trkpt>
      <trkpt lat="48.26412" lon="4.18453">
        <ele>110</ele>
        <time>2022-05-22T17:23:07Z</time>
      </trkpt>
      <trkpt lat="48.26404" lon="4.1851">
        <ele>110</ele>
        <time>2022-05-22T17:23:14Z</time>
      </trkpt>
      <trkpt lat="48.26388" lon="4.18674">
        <ele>109</ele>
        <time>2022-05-22T17:23:33Z</time>
      </trkpt>
      <trkpt lat="48.26375" lon="4.18769">
        <ele>108</ele>
        <time>2022-05-22T17:23:45Z</time>
      </trkpt>
      <trkpt lat="48.26368" lon="4.18874">
        <ele>108</ele>
        <time>2022-05-22T17:23:57Z</time>
      </trkpt>
      <trkpt lat="48.26376" lon="4.18948">
        <ele>108</ele>
        <time>2022-05-22T17:24:06Z</time>
      </trkpt>
      <trkpt lat="48.26383" lon="4.18976">
        <ele>108</ele>
        <time>2022-05-22T17:24:10Z</time>
      </trkpt>
      <trkpt lat="48.26397" lon="4.19016">
        <ele>108</ele>
        <time>2022-05-22T17:24:15Z</time>
      </trkpt>
      <trkpt lat="48.26393" lon="4.19057">
        <ele>109</ele>
        <time>2022-05-22T17:24:20Z</time>
      </trkpt>
      <trkpt lat="48.26394" lon="4.19071">
        <ele>109</ele>
        <time>2022-05-22T17:24:22Z</time>
      </trkpt>
      <trkpt lat="48.26448" lon="4.19356">
        <ele>109</ele>
        <time>2022-05-22T17:24:57Z</time>
      </trkpt>
      <trkpt lat="48.26499" lon="4.1949">
        <ele>109</ele>
        <time>2022-05-22T17:25:15Z</time>
      </trkpt>
      <trkpt lat="48.26554" lon="4.19609">
        <ele>109</ele>
        <time>2022-05-22T17:25:32Z</time>
      </trkpt>
      <trkpt lat="48.26614" lon="4.19756">
        <ele>110</ele>
        <time>2022-05-22T17:25:53Z</time>
      </trkpt>
      <trkpt lat="48.26629" lon="4.19798">
        <ele>112</ele>
        <time>2022-05-22T17:25:58Z</time>
      </trkpt>
      <trkpt lat="48.26665" lon="4.1996">
        <ele>110</ele>
        <time>2022-05-22T17:26:18Z</time>
      </trkpt>
      <trkpt lat="48.26669" lon="4.19998">
        <ele>109</ele>
        <time>2022-05-22T17:26:23Z</time>
      </trkpt>
      <trkpt lat="48.26661" lon="4.20231">
        <ele>108</ele>
        <time>2022-05-22T17:26:51Z</time>
      </trkpt>
      <trkpt lat="48.26663" lon="4.20476">
        <ele>108</ele>
        <time>2022-05-22T17:27:20Z</time>
      </trkpt>
      <trkpt lat="48.2666" lon="4.20663">
        <ele>107</ele>
        <time>2022-05-22T17:27:42Z</time>
      </trkpt>
      <trkpt lat="48.26639" lon="4.20759">
        <ele>109</ele>
        <time>2022-05-22T17:27:54Z</time>
      </trkpt>
      <trkpt lat="48.2658" lon="4.20899">
        <ele>109</ele>
        <time>2022-05-22T17:28:13Z</time>
      </trkpt>
      <trkpt lat="48.26573" lon="4.20934">
        <ele>109</ele>
        <time>2022-05-22T17:28:18Z</time>
      </trkpt>
      <trkpt lat="48.26544" lon="4.21017">
        <ele>108</ele>
        <time>2022-05-22T17:28:29Z</time>
      </trkpt>
      <trkpt lat="48.26549" lon="4.21035">
        <ele>108</ele>
        <time>2022-05-22T17:28:31Z</time>
      </trkpt>
      <trkpt lat="48.26567" lon="4.21061">
        <ele>107</ele>
        <time>2022-05-22T17:28:36Z</time>
      </trkpt>
      <trkpt lat="48.26591" lon="4.21113">
        <ele>107</ele>
        <time>2022-05-22T17:28:43Z</time>
      </trkpt>
      <trkpt lat="48.26596" lon="4.21129">
        <ele>107</ele>
        <time>2022-05-22T17:28:45Z</time>
      </trkpt>
      <trkpt lat="48.26609" lon="4.21174">
        <ele>107</ele>
        <time>2022-05-22T17:28:51Z</time>
      </trkpt>
      <trkpt lat="48.26637" lon="4.21314">
        <ele>108</ele>
        <time>2022-05-22T17:29:08Z</time>
      </trkpt>
      <trkpt lat="48.2667" lon="4.21451">
        <ele>109</ele>
        <time>2022-05-22T17:29:26Z</time>
      </trkpt>
      <trkpt lat="48.26672" lon="4.21484">
        <ele>109</ele>
        <time>2022-05-22T17:29:29Z</time>
      </trkpt>
      <trkpt lat="48.26668" lon="4.21518">
        <ele>109</ele>
        <time>2022-05-22T17:29:34Z</time>
      </trkpt>
      <trkpt lat="48.26661" lon="4.21553">
        <ele>109</ele>
        <time>2022-05-22T17:29:38Z</time>
      </trkpt>
      <trkpt lat="48.26651" lon="4.21586">
        <ele>109</ele>
        <time>2022-05-22T17:29:42Z</time>
      </trkpt>
      <trkpt lat="48.26649" lon="4.21603">
        <ele>109</ele>
        <time>2022-05-22T17:29:44Z</time>
      </trkpt>
      <trkpt lat="48.26658" lon="4.21612">
        <ele>109</ele>
        <time>2022-05-22T17:29:46Z</time>
      </trkpt>
      <trkpt lat="48.26667" lon="4.21607">
        <ele>109</ele>
        <time>2022-05-22T17:29:48Z</time>
      </trkpt>
      <trkpt lat="48.26683" lon="4.21587">
        <ele>109</ele>
        <time>2022-05-22T17:29:52Z</time>
      </trkpt>
      <trkpt lat="48.26737" lon="4.21502">
        <ele>111</ele>
        <time>2022-05-22T17:30:05Z</time>
      </trkpt>
      <trkpt lat="48.26755" lon="4.21467">
        <ele>110</ele>
        <time>2022-05-22T17:30:11Z</time>
      </trkpt>
      <trkpt lat="48.26772" lon="4.21426">
        <ele>109</ele>
        <time>2022-05-22T17:30:16Z</time>
      </trkpt>
      <trkpt lat="48.26782" lon="4.21418">
        <ele>109</ele>
        <time>2022-05-22T17:30:18Z</time>
      </trkpt>
      <trkpt lat="48.268" lon="4.21438">
        <ele>108</ele>
        <time>2022-05-22T17:30:22Z</time>
      </trkpt>
      <trkpt lat="48.26798" lon="4.21455">
        <ele>109</ele>
        <time>2022-05-22T17:30:24Z</time>
      </trkpt>
      <trkpt lat="48.26763" lon="4.21512">
        <ele>110</ele>
        <time>2022-05-22T17:30:34Z</time>
      </trkpt>
      <trkpt lat="48.26702" lon="4.21633">
        <ele>109</ele>
        <time>2022-05-22T17:30:52Z</time>
      </trkpt>
      <trkpt lat="48.26684" lon="4.21673">
        <ele>109</ele>
        <time>2022-05-22T17:30:57Z</time>
      </trkpt>
      <trkpt lat="48.26676" lon="4.21703">
        <ele>110</ele>
        <time>2022-05-22T17:31:01Z</time>
      </trkpt>
      <trkpt lat="48.26648" lon="4.21736">
        <ele>111</ele>
        <time>2022-05-22T17:31:08Z</time>
      </trkpt>
      <trkpt lat="48.26624" lon="4.2178">
        <ele>111</ele>
        <time>2022-05-22T17:31:14Z</time>
      </trkpt>
      <trkpt lat="48.26613" lon="4.21792">
        <ele>111</ele>
        <time>2022-05-22T17:31:17Z</time>
      </trkpt>
      <trkpt lat="48.26596" lon="4.21817">
        <ele>110</ele>
        <time>2022-05-22T17:31:21Z</time>
      </trkpt>
      <trkpt lat="48.26594" lon="4.21832">
        <ele>110</ele>
        <time>2022-05-22T17:31:23Z</time>
      </trkpt>
      <trkpt lat="48.26627" lon="4.21888">
        <ele>109</ele>
        <time>2022-05-22T17:31:32Z</time>
      </trkpt>
      <trkpt lat="48.26651" lon="4.21966">
        <ele>107</ele>
        <time>2022-05-22T17:31:42Z</time>
      </trkpt>
      <trkpt lat="48.26668" lon="4.2209">
        <ele>107</ele>
        <time>2022-05-22T17:31:57Z</time>
      </trkpt>
      <trkpt lat="48.26653" lon="4.22218">
        <ele>109</ele>
        <time>2022-05-22T17:32:12Z</time>
      </trkpt>
      <trkpt lat="48.26618" lon="4.22382">
        <ele>109</ele>
        <time>2022-05-22T17:32:33Z</time>
      </trkpt>
      <trkpt lat="48.26618" lon="4.22411">
        <ele>108</ele>
        <time>2022-05-22T17:32:36Z</time>
      </trkpt>
      <trkpt lat="48.26626" lon="4.22455">
        <ele>109</ele>
        <time>2022-05-22T17:32:41Z</time>
      </trkpt>
      <trkpt lat="48.26633" lon="4.22484">
        <ele>109</ele>
        <time>2022-05-22T17:32:45Z</time>
      </trkpt>
      <trkpt lat="48.2669" lon="4.22585">
        <ele>108</ele>
        <time>2022-05-22T17:33:01Z</time>
      </trkpt>
      <trkpt lat="48.2674" lon="4.22699">
        <ele>108</ele>
        <time>2022-05-22T17:33:17Z</time>
      </trkpt>
      <trkpt lat="48.26765" lon="4.2275">
        <ele>108</ele>
        <time>2022-05-22T17:33:24Z</time>
      </trkpt>
      <trkpt lat="48.26832" lon="4.22857">
        <ele>111</ele>
        <time>2022-05-22T17:33:42Z</time>
      </trkpt>
      <trkpt lat="48.2685" lon="4.22879">
        <ele>111</ele>
        <time>2022-05-22T17:33:46Z</time>
      </trkpt>
      <trkpt lat="48.26868" lon="4.22897">
        <ele>111</ele>
        <time>2022-05-22T17:33:50Z</time>
      </trkpt>
      <trkpt lat="48.26889" lon="4.22912">
        <ele>111</ele>
        <time>2022-05-22T17:33:54Z</time>
      </trkpt>
      <trkpt lat="48.26978" lon="4.22963">
        <ele>110</ele>
        <time>2022-05-22T17:34:11Z</time>
      </trkpt>
      <trkpt lat="48.27045" lon="4.22998">
        <ele>110</ele>
        <time>2022-05-22T17:34:23Z</time>
      </trkpt>
      <trkpt lat="48.27082" lon="4.23021">
        <ele>109</ele>
        <time>2022-05-22T17:34:31Z</time>
      </trkpt>
      <trkpt lat="48.27102" lon="4.2303">
        <ele>109</ele>
        <time>2022-05-22T17:34:34Z</time>
      </trkpt>
      <trkpt lat="48.27149" lon="4.23057">
        <ele>110</ele>
        <time>2022-05-22T17:34:43Z</time>
      </trkpt>
      <trkpt lat="48.2716" lon="4.23066">
        <ele>110</ele>
        <time>2022-05-22T17:34:45Z</time>
      </trkpt>
      <trkpt lat="48.27171" lon="4.23072">
        <ele>110</ele>
        <time>2022-05-22T17:34:48Z</time>
      </trkpt>
      <trkpt lat="48.27183" lon="4.23069">
        <ele>111</ele>
        <time>2022-05-22T17:34:50Z</time>
      </trkpt>
      <trkpt lat="48.27195" lon="4.23072">
        <ele>111</ele>
        <time>2022-05-22T17:34:52Z</time>
      </trkpt>
      <trkpt lat="48.27237" lon="4.23118">
        <ele>112</ele>
        <time>2022-05-22T17:35:01Z</time>
      </trkpt>
      <trkpt lat="48.27254" lon="4.23142">
        <ele>112</ele>
        <time>2022-05-22T17:35:05Z</time>
      </trkpt>
      <trkpt lat="48.27268" lon="4.23169">
        <ele>112</ele>
        <time>2022-05-22T17:35:09Z</time>
      </trkpt>
      <trkpt lat="48.27284" lon="4.23213">
        <ele>111</ele>
        <time>2022-05-22T17:35:15Z</time>
      </trkpt>
      <trkpt lat="48.27294" lon="4.23265">
        <ele>110</ele>
        <time>2022-05-22T17:35:22Z</time>
      </trkpt>
      <trkpt lat="48.27296" lon="4.23301">
        <ele>110</ele>
        <time>2022-05-22T17:35:26Z</time>
      </trkpt>
      <trkpt lat="48.27289" lon="4.2338">
        <ele>110</ele>
        <time>2022-05-22T17:35:35Z</time>
      </trkpt>
      <trkpt lat="48.27285" lon="4.23393">
        <ele>110</ele>
        <time>2022-05-22T17:35:37Z</time>
      </trkpt>
      <trkpt lat="48.2727" lon="4.23412">
        <ele>110</ele>
        <time>2022-05-22T17:35:41Z</time>
      </trkpt>
      <trkpt lat="48.27265" lon="4.23427">
        <ele>110</ele>
        <time>2022-05-22T17:35:43Z</time>
      </trkpt>
      <trkpt lat="48.27244" lon="4.2352">
        <ele>110</ele>
        <time>2022-05-22T17:35:54Z</time>
      </trkpt>
      <trkpt lat="48.27174" lon="4.238">
        <ele>111</ele>
        <time>2022-05-22T17:36:30Z</time>
      </trkpt>
      <trkpt lat="48.27095" lon="4.24146">
        <ele>110</ele>
        <time>2022-05-22T17:37:13Z</time>
      </trkpt>
      <trkpt lat="48.27027" lon="4.24406">
        <ele>109</ele>
        <time>2022-05-22T17:37:46Z</time>
      </trkpt>
      <trkpt lat="48.27008" lon="4.24492">
        <ele>111</ele>
        <time>2022-05-22T17:37:57Z</time>
      </trkpt>
      <trkpt lat="48.27008" lon="4.24526">
        <ele>111</ele>
        <time>2022-05-22T17:38:01Z</time>
      </trkpt>
      <trkpt lat="48.27012" lon="4.24538">
        <ele>111</ele>
        <time>2022-05-22T17:38:02Z</time>
      </trkpt>
      <trkpt lat="48.27017" lon="4.24572">
        <ele>110</ele>
        <time>2022-05-22T17:38:07Z</time>
      </trkpt>
      <trkpt lat="48.27021" lon="4.24647">
        <ele>110</ele>
        <time>2022-05-22T17:38:15Z</time>
      </trkpt>
      <trkpt lat="48.27021" lon="4.24768">
        <ele>112</ele>
        <time>2022-05-22T17:38:30Z</time>
      </trkpt>
      <trkpt lat="48.27026" lon="4.24991">
        <ele>111</ele>
        <time>2022-05-22T17:38:56Z</time>
      </trkpt>
      <trkpt lat="48.27112" lon="4.25484">
        <ele>109</ele>
        <time>2022-05-22T17:39:57Z</time>
      </trkpt>
      <trkpt lat="48.27116" lon="4.25569">
        <ele>110</ele>
        <time>2022-05-22T17:40:07Z</time>
      </trkpt>
      <trkpt lat="48.27124" lon="4.25637">
        <ele>110</ele>
        <time>2022-05-22T17:40:15Z</time>
      </trkpt>
      <trkpt lat="48.27127" lon="4.25696">
        <ele>111</ele>
        <time>2022-05-22T17:40:22Z</time>
      </trkpt>
      <trkpt lat="48.27126" lon="4.25752">
        <ele>111</ele>
        <time>2022-05-22T17:40:28Z</time>
      </trkpt>
      <trkpt lat="48.27129" lon="4.25866">
        <ele>111</ele>
        <time>2022-05-22T17:40:42Z</time>
      </trkpt>
      <trkpt lat="48.27123" lon="4.25878">
        <ele>111</ele>
        <time>2022-05-22T17:40:44Z</time>
      </trkpt>
      <trkpt lat="48.27115" lon="4.25886">
        <ele>111</ele>
        <time>2022-05-22T17:40:45Z</time>
      </trkpt>
      <trkpt lat="48.27075" lon="4.2606">
        <ele>111</ele>
        <time>2022-05-22T17:41:07Z</time>
      </trkpt>
      <trkpt lat="48.2707" lon="4.26073">
        <ele>111</ele>
        <time>2022-05-22T17:41:09Z</time>
      </trkpt>
      <trkpt lat="48.27055" lon="4.26097">
        <ele>111</ele>
        <time>2022-05-22T17:41:13Z</time>
      </trkpt>
      <trkpt lat="48.27022" lon="4.26168">
        <ele>111</ele>
        <time>2022-05-22T17:41:23Z</time>
      </trkpt>
      <trkpt lat="48.26995" lon="4.26209">
        <ele>111</ele>
        <time>2022-05-22T17:41:30Z</time>
      </trkpt>
      <trkpt lat="48.26963" lon="4.26244">
        <ele>111</ele>
        <time>2022-05-22T17:41:37Z</time>
      </trkpt>
      <trkpt lat="48.26798" lon="4.26395">
        <ele>112</ele>
        <time>2022-05-22T17:42:11Z</time>
      </trkpt>
      <trkpt lat="48.26679" lon="4.26495">
        <ele>113</ele>
        <time>2022-05-22T17:42:36Z</time>
      </trkpt>
      <trkpt lat="48.26657" lon="4.26506">
        <ele>113</ele>
        <time>2022-05-22T17:42:40Z</time>
      </trkpt>
      <trkpt lat="48.26629" lon="4.26532">
        <ele>112</ele>
        <time>2022-05-22T17:42:46Z</time>
      </trkpt>
      <trkpt lat="48.26496" lon="4.26643">
        <ele>111</ele>
        <time>2022-05-22T17:43:13Z</time>
      </trkpt>
      <trkpt lat="48.26402" lon="4.2673">
        <ele>114</ele>
        <time>2022-05-22T17:43:32Z</time>
      </trkpt>
      <trkpt lat="48.26374" lon="4.26759">
        <ele>115</ele>
        <time>2022-05-22T17:43:38Z</time>
      </trkpt>
      <trkpt lat="48.26329" lon="4.26793">
        <ele>115</ele>
        <time>2022-05-22T17:43:47Z</time>
      </trkpt>
      <trkpt lat="48.26324" lon="4.26807">
        <ele>115</ele>
        <time>2022-05-22T17:43:49Z</time>
      </trkpt>
      <trkpt lat="48.26324" lon="4.26824">
        <ele>115</ele>
        <time>2022-05-22T17:43:51Z</time>
      </trkpt>
      <trkpt lat="48.26267" lon="4.26875">
        <ele>115</ele>
        <time>2022-05-22T17:44:03Z</time>
      </trkpt>
      <trkpt lat="48.26246" lon="4.26897">
        <ele>114</ele>
        <time>2022-05-22T17:44:08Z</time>
      </trkpt>
      <trkpt lat="48.2594" lon="4.27164">
        <ele>114</ele>
        <time>2022-05-22T17:45:11Z</time>
      </trkpt>
      <trkpt lat="48.25921" lon="4.27177">
        <ele>114</ele>
        <time>2022-05-22T17:45:14Z</time>
      </trkpt>
      <trkpt lat="48.25855" lon="4.27206">
        <ele>115</ele>
        <time>2022-05-22T17:45:27Z</time>
      </trkpt>
      <trkpt lat="48.25686" lon="4.27229">
        <ele>114</ele>
        <time>2022-05-22T17:45:57Z</time>
      </trkpt>
      <trkpt lat="48.25665" lon="4.27235">
        <ele>114</ele>
        <time>2022-05-22T17:46:01Z</time>
      </trkpt>
      <trkpt lat="48.25601" lon="4.27269">
        <ele>114</ele>
        <time>2022-05-22T17:46:13Z</time>
      </trkpt>
      <trkpt lat="48.25565" lon="4.27285">
        <ele>114</ele>
        <time>2022-05-22T17:46:19Z</time>
      </trkpt>
      <trkpt lat="48.25504" lon="4.2732">
        <ele>114</ele>
        <time>2022-05-22T17:46:31Z</time>
      </trkpt>
      <trkpt lat="48.25472" lon="4.27354">
        <ele>115</ele>
        <time>2022-05-22T17:46:38Z</time>
      </trkpt>
      <trkpt lat="48.25462" lon="4.27362">
        <ele>115</ele>
        <time>2022-05-22T17:46:40Z</time>
      </trkpt>
      <trkpt lat="48.25452" lon="4.27362">
        <ele>115</ele>
        <time>2022-05-22T17:46:42Z</time>
      </trkpt>
      <trkpt lat="48.25443" lon="4.27369">
        <ele>115</ele>
        <time>2022-05-22T17:46:44Z</time>
      </trkpt>
      <trkpt lat="48.25365" lon="4.27455">
        <ele>115</ele>
        <time>2022-05-22T17:47:01Z</time>
      </trkpt>
      <trkpt lat="48.25344" lon="4.27454">
        <ele>116</ele>
        <time>2022-05-22T17:47:04Z</time>
      </trkpt>
      <trkpt lat="48.2532" lon="4.27463">
        <ele>116</ele>
        <time>2022-05-22T17:47:09Z</time>
      </trkpt>
      <trkpt lat="48.25253" lon="4.27546">
        <ele>115</ele>
        <time>2022-05-22T17:47:24Z</time>
      </trkpt>
      <trkpt lat="48.25224" lon="4.27584">
        <ele>115</ele>
        <time>2022-05-22T17:47:31Z</time>
      </trkpt>
      <trkpt lat="48.25206" lon="4.27612">
        <ele>115</ele>
        <time>2022-05-22T17:47:36Z</time>
      </trkpt>
      <trkpt lat="48.25185" lon="4.27657">
        <ele>114</ele>
        <time>2022-05-22T17:47:42Z</time>
      </trkpt>
      <trkpt lat="48.2516" lon="4.27701">
        <ele>114</ele>
        <time>2022-05-22T17:47:49Z</time>
      </trkpt>
      <trkpt lat="48.25093" lon="4.27845">
        <ele>113</ele>
        <time>2022-05-22T17:48:10Z</time>
      </trkpt>
      <trkpt lat="48.25055" lon="4.27934">
        <ele>114</ele>
        <time>2022-05-22T17:48:23Z</time>
      </trkpt>
      <trkpt lat="48.24884" lon="4.28308">
        <ele>114</ele>
        <time>2022-05-22T17:49:16Z</time>
      </trkpt>
      <trkpt lat="48.24815" lon="4.28467">
        <ele>118</ele>
        <time>2022-05-22T17:49:39Z</time>
      </trkpt>
      <trkpt lat="48.24785" lon="4.28528">
        <ele>118</ele>
        <time>2022-05-22T17:49:48Z</time>
      </trkpt>
      <trkpt lat="48.24742" lon="4.28631">
        <ele>117</ele>
        <time>2022-05-22T17:50:02Z</time>
      </trkpt>
      <trkpt lat="48.24728" lon="4.28682">
        <ele>115</ele>
        <time>2022-05-22T17:50:09Z</time>
      </trkpt>
      <trkpt lat="48.24724" lon="4.28709">
        <ele>115</ele>
        <time>2022-05-22T17:50:12Z</time>
      </trkpt>
      <trkpt lat="48.24655" lon="4.29032">
        <ele>115</ele>
        <time>2022-05-22T17:50:52Z</time>
      </trkpt>
      <trkpt lat="48.24575" lon="4.29383">
        <ele>117</ele>
        <time>2022-05-22T17:51:36Z</time>
      </trkpt>
      <trkpt lat="48.24558" lon="4.29465">
        <ele>118</ele>
        <time>2022-05-22T17:51:46Z</time>
      </trkpt>
      <trkpt lat="48.24545" lon="4.2955">
        <ele>117</ele>
        <time>2022-05-22T17:51:57Z</time>
      </trkpt>
      <trkpt lat="48.24546" lon="4.29631">
        <ele>117</ele>
        <time>2022-05-22T17:52:06Z</time>
      </trkpt>
      <trkpt lat="48.24553" lon="4.29688">
        <ele>116</ele>
        <time>2022-05-22T17:52:13Z</time>
      </trkpt>
      <trkpt lat="48.24567" lon="4.29768">
        <ele>116</ele>
        <time>2022-05-22T17:52:23Z</time>
      </trkpt>
      <trkpt lat="48.24561" lon="4.29785">
        <ele>116</ele>
        <time>2022-05-22T17:52:25Z</time>
      </trkpt>
      <trkpt lat="48.24542" lon="4.29796">
        <ele>117</ele>
        <time>2022-05-22T17:52:29Z</time>
      </trkpt>
      <trkpt lat="48.2454" lon="4.29814">
        <ele>117</ele>
        <time>2022-05-22T17:52:31Z</time>
      </trkpt>
      <trkpt lat="48.24542" lon="4.29845">
        <ele>118</ele>
        <time>2022-05-22T17:52:35Z</time>
      </trkpt>
      <trkpt lat="48.24584" lon="4.30003">
        <ele>116</ele>
        <time>2022-05-22T17:52:55Z</time>
      </trkpt>
      <trkpt lat="48.24616" lon="4.30146">
        <ele>117</ele>
        <time>2022-05-22T17:53:13Z</time>
      </trkpt>
      <trkpt lat="48.2465" lon="4.30267">
        <ele>116</ele>
        <time>2022-05-22T17:53:28Z</time>
      </trkpt>
      <trkpt lat="48.24662" lon="4.30316">
        <ele>116</ele>
        <time>2022-05-22T17:53:34Z</time>
      </trkpt>
      <trkpt lat="48.24667" lon="4.30347">
        <ele>116</ele>
        <time>2022-05-22T17:53:38Z</time>
      </trkpt>
      <trkpt lat="48.2474" lon="4.30606">
        <ele>115</ele>
        <time>2022-05-22T17:54:12Z</time>
      </trkpt>
      <trkpt lat="48.24742" lon="4.30625">
        <ele>116</ele>
        <time>2022-05-22T17:54:14Z</time>
      </trkpt>
      <trkpt lat="48.24706" lon="4.30738">
        <ele>118</ele>
        <time>2022-05-22T17:54:29Z</time>
      </trkpt>
      <trkpt lat="48.24679" lon="4.30838">
        <ele>119</ele>
        <time>2022-05-22T17:54:41Z</time>
      </trkpt>
      <trkpt lat="48.24641" lon="4.30947">
        <ele>121</ele>
        <time>2022-05-22T17:54:56Z</time>
      </trkpt>
      <trkpt lat="48.24612" lon="4.31042">
        <ele>123</ele>
        <time>2022-05-22T17:55:08Z</time>
      </trkpt>
      <trkpt lat="48.24596" lon="4.31084">
        <ele>122</ele>
        <time>2022-05-22T17:55:14Z</time>
      </trkpt>
      <trkpt lat="48.24589" lon="4.31118">
        <ele>123</ele>
        <time>2022-05-22T17:55:18Z</time>
      </trkpt>
      <trkpt lat="48.24568" lon="4.31172">
        <ele>124</ele>
        <time>2022-05-22T17:55:26Z</time>
      </trkpt>
      <trkpt lat="48.24451" lon="4.31406">
        <ele>125</ele>
        <time>2022-05-22T17:56:00Z</time>
      </trkpt>
      <trkpt lat="48.24389" lon="4.31536">
        <ele>127</ele>
        <time>2022-05-22T17:56:19Z</time>
      </trkpt>
      <trkpt lat="48.24382" lon="4.31546">
        <ele>127</ele>
        <time>2022-05-22T17:56:21Z</time>
      </trkpt>
      <trkpt lat="48.24373" lon="4.31548">
        <ele>127</ele>
        <time>2022-05-22T17:56:23Z</time>
      </trkpt>
      <trkpt lat="48.24353" lon="4.31534">
        <ele>127</ele>
        <time>2022-05-22T17:56:27Z</time>
      </trkpt>
      <trkpt lat="48.24344" lon="4.31532">
        <ele>127</ele>
        <time>2022-05-22T17:56:28Z</time>
      </trkpt>
      <trkpt lat="48.24335" lon="4.31541">
        <ele>127</ele>
        <time>2022-05-22T17:56:30Z</time>
      </trkpt>
      <trkpt lat="48.24295" lon="4.31679">
        <ele>130</ele>
        <time>2022-05-22T17:56:48Z</time>
      </trkpt>
      <trkpt lat="48.242" lon="4.31977">
        <ele>141</ele>
        <time>2022-05-22T17:57:27Z</time>
      </trkpt>
      <trkpt lat="48.24214" lon="4.32196">
        <ele>138</ele>
        <time>2022-05-22T17:57:53Z</time>
      </trkpt>
      <trkpt lat="48.24222" lon="4.3221">
        <ele>138</ele>
        <time>2022-05-22T17:57:55Z</time>
      </trkpt>
      <trkpt lat="48.24339" lon="4.32199">
        <ele>137</ele>
        <time>2022-05-22T17:58:16Z</time>
      </trkpt>
      <trkpt lat="48.24386" lon="4.32199">
        <ele>137</ele>
        <time>2022-05-22T17:58:25Z</time>
      </trkpt>
      <trkpt lat="48.24465" lon="4.32262">
        <ele>136</ele>
        <time>2022-05-22T17:58:41Z</time>
      </trkpt>
      <trkpt lat="48.24595" lon="4.32356">
        <ele>136</ele>
        <time>2022-05-22T17:59:06Z</time>
      </trkpt>
      <trkpt lat="48.24743" lon="4.32528">
        <ele>133</ele>
        <time>2022-05-22T17:59:40Z</time>
      </trkpt>
      <trkpt lat="48.24754" lon="4.32536">
        <ele>133</ele>
        <time>2022-05-22T17:59:42Z</time>
      </trkpt>
      <trkpt lat="48.24767" lon="4.32532">
        <ele>133</ele>
        <time>2022-05-22T17:59:44Z</time>
      </trkpt>
      <trkpt lat="48.24778" lon="4.32532">
        <ele>132</ele>
        <time>2022-05-22T17:59:46Z</time>
      </trkpt>
      <trkpt lat="48.24867" lon="4.32604">
        <ele>132</ele>
        <time>2022-05-22T18:00:04Z</time>
      </trkpt>
      <trkpt lat="48.24888" lon="4.32626">
        <ele>132</ele>
        <time>2022-05-22T18:00:09Z</time>
      </trkpt>
      <trkpt lat="48.24915" lon="4.32659">
        <ele>134</ele>
        <time>2022-05-22T18:00:15Z</time>
      </trkpt>
      <trkpt lat="48.24937" lon="4.32693">
        <ele>133</ele>
        <time>2022-05-22T18:00:20Z</time>
      </trkpt>
      <trkpt lat="48.24981" lon="4.3278">
        <ele>133</ele>
        <time>2022-05-22T18:00:33Z</time>
      </trkpt>
      <trkpt lat="48.25004" lon="4.32837">
        <ele>136</ele>
        <time>2022-05-22T18:00:41Z</time>
      </trkpt>
      <trkpt lat="48.25021" lon="4.32867">
        <ele>136</ele>
        <time>2022-05-22T18:00:46Z</time>
      </trkpt>
      <trkpt lat="48.25032" lon="4.32898">
        <ele>136</ele>
        <time>2022-05-22T18:00:50Z</time>
      </trkpt>
      <trkpt lat="48.25048" lon="4.32931">
        <ele>137</ele>
        <time>2022-05-22T18:00:55Z</time>
      </trkpt>
      <trkpt lat="48.2507" lon="4.32968">
        <ele>137</ele>
        <time>2022-05-22T18:01:01Z</time>
      </trkpt>
      <trkpt lat="48.25105" lon="4.33003">
        <ele>137</ele>
        <time>2022-05-22T18:01:08Z</time>
      </trkpt>
      <trkpt lat="48.25117" lon="4.3301">
        <ele>136</ele>
        <time>2022-05-22T18:01:11Z</time>
      </trkpt>
      <trkpt lat="48.25159" lon="4.33043">
        <ele>136</ele>
        <time>2022-05-22T18:01:19Z</time>
      </trkpt>
      <trkpt lat="48.25178" lon="4.33061">
        <ele>136</ele>
        <time>2022-05-22T18:01:23Z</time>
      </trkpt>
      <trkpt lat="48.25206" lon="4.33094">
        <ele>135</ele>
        <time>2022-05-22T18:01:29Z</time>
      </trkpt>
      <trkpt lat="48.25244" lon="4.33162">
        <ele>138</ele>
        <time>2022-05-22T18:01:40Z</time>
      </trkpt>
      <trkpt lat="48.25255" lon="4.3317">
        <ele>138</ele>
        <time>2022-05-22T18:01:42Z</time>
      </trkpt>
      <trkpt lat="48.25278" lon="4.33204">
        <ele>138</ele>
        <time>2022-05-22T18:01:48Z</time>
      </trkpt>
      <trkpt lat="48.25354" lon="4.33331">
        <ele>140</ele>
        <time>2022-05-22T18:02:08Z</time>
      </trkpt>
      <trkpt lat="48.25375" lon="4.33371">
        <ele>140</ele>
        <time>2022-05-22T18:02:14Z</time>
      </trkpt>
      <trkpt lat="48.25393" lon="4.33395">
        <ele>140</ele>
        <time>2022-05-22T18:02:18Z</time>
      </trkpt>
      <trkpt lat="48.25412" lon="4.33459">
        <ele>141</ele>
        <time>2022-05-22T18:02:27Z</time>
      </trkpt>
      <trkpt lat="48.25418" lon="4.3347">
        <ele>141</ele>
        <time>2022-05-22T18:02:28Z</time>
      </trkpt>
      <trkpt lat="48.25468" lon="4.33538">
        <ele>140</ele>
        <time>2022-05-22T18:02:40Z</time>
      </trkpt>
      <trkpt lat="48.2553" lon="4.33606">
        <ele>139</ele>
        <time>2022-05-22T18:02:54Z</time>
      </trkpt>
      <trkpt lat="48.2555" lon="4.3363">
        <ele>138</ele>
        <time>2022-05-22T18:02:58Z</time>
      </trkpt>
      <trkpt lat="48.25558" lon="4.33644">
        <ele>139</ele>
        <time>2022-05-22T18:03:01Z</time>
      </trkpt>
      <trkpt lat="48.25609" lon="4.33701">
        <ele>139</ele>
        <time>2022-05-22T18:03:12Z</time>
      </trkpt>
      <trkpt lat="48.25623" lon="4.33726">
        <ele>140</ele>
        <time>2022-05-22T18:03:16Z</time>
      </trkpt>
      <trkpt lat="48.25639" lon="4.33746">
        <ele>141</ele>
        <time>2022-05-22T18:03:20Z</time>
      </trkpt>
      <trkpt lat="48.25656" lon="4.33783">
        <ele>142</ele>
        <time>2022-05-22T18:03:25Z</time>
      </trkpt>
      <trkpt lat="48.25677" lon="4.33818">
        <ele>141</ele>
        <time>2022-05-22T18:03:30Z</time>
      </trkpt>
      <trkpt lat="48.25687" lon="4.33845">
        <ele>142</ele>
        <time>2022-05-22T18:03:34Z</time>
      </trkpt>
      <trkpt lat="48.25689" lon="4.3386">
        <ele>142</ele>
        <time>2022-05-22T18:03:36Z</time>
      </trkpt>
      <trkpt lat="48.25699" lon="4.33885">
        <ele>142</ele>
        <time>2022-05-22T18:03:39Z</time>
      </trkpt>
      <trkpt lat="48.25689" lon="4.33859">
        <ele>142</ele>
        <time>2022-05-22T18:03:43Z</time>
      </trkpt>
      <trkpt lat="48.25688" lon="4.33846">
        <ele>142</ele>
        <time>2022-05-22T18:03:44Z</time>
      </trkpt>
      <trkpt lat="48.25694" lon="4.33836">
        <ele>141</ele>
        <time>2022-05-22T18:03:46Z</time>
      </trkpt>
      <trkpt lat="48.25686" lon="4.33829">
        <ele>141</ele>
        <time>2022-05-22T18:03:48Z</time>
      </trkpt>
      <trkpt lat="48.2568" lon="4.33819">
        <ele>141</ele>
        <time>2022-05-22T18:03:49Z</time>
      </trkpt>
      <trkpt lat="48.25677" lon="4.33805">
        <ele>141</ele>
        <time>2022-05-22T18:03:51Z</time>
      </trkpt>
      <trkpt lat="48.25686" lon="4.33793">
        <ele>141</ele>
        <time>2022-05-22T18:03:53Z</time>
      </trkpt>
      <trkpt lat="48.25695" lon="4.3379">
        <ele>140</ele>
        <time>2022-05-22T18:03:55Z</time>
      </trkpt>
      <trkpt lat="48.25708" lon="4.33813">
        <ele>140</ele>
        <time>2022-05-22T18:03:58Z</time>
      </trkpt>
      <trkpt lat="48.24977" lon="4.33722">
        <ele>131</ele>
        <time>2022-05-22T18:06:09Z</time>
      </trkpt>
      <trkpt lat="48.24955" lon="4.33661">
        <ele>131</ele>
        <time>2022-05-22T18:06:17Z</time>
      </trkpt>
      <trkpt lat="48.24942" lon="4.33611">
        <ele>132</ele>
        <time>2022-05-22T18:06:23Z</time>
      </trkpt>
      <trkpt lat="48.25003" lon="4.33564">
        <ele>133</ele>
        <time>2022-05-22T18:06:36Z</time>
      </trkpt>
      <trkpt lat="48.25082" lon="4.3355">
        <ele>136</ele>
        <time>2022-05-22T18:06:50Z</time>
      </trkpt>
      <trkpt lat="48.25127" lon="4.3352">
        <ele>137</ele>
        <time>2022-05-22T18:06:59Z</time>
      </trkpt>
      <trkpt lat="48.2515" lon="4.33494">
        <ele>137</ele>
        <time>2022-05-22T18:07:04Z</time>
      </trkpt>
      <trkpt lat="48.2515" lon="4.33484">
        <ele>137</ele>
        <time>2022-05-22T18:07:05Z</time>
      </trkpt>
      <trkpt lat="48.25179" lon="4.33445">
        <ele>139</ele>
        <time>2022-05-22T18:07:12Z</time>
      </trkpt>
      <trkpt lat="48.25255" lon="4.3339">
        <ele>142</ele>
        <time>2022-05-22T18:07:27Z</time>
      </trkpt>
      <trkpt lat="48.25321" lon="4.3333">
        <ele>141</ele>
        <time>2022-05-22T18:07:41Z</time>
      </trkpt>
      <trkpt lat="48.25371" lon="4.3337">
        <ele>140</ele>
        <time>2022-05-22T18:07:51Z</time>
      </trkpt>
      <trkpt lat="48.25389" lon="4.33394">
        <ele>140</ele>
        <time>2022-05-22T18:07:55Z</time>
      </trkpt>
      <trkpt lat="48.25403" lon="4.33448">
        <ele>141</ele>
        <time>2022-05-22T18:08:02Z</time>
      </trkpt>
      <trkpt lat="48.25427" lon="4.33488">
        <ele>141</ele>
        <time>2022-05-22T18:08:08Z</time>
      </trkpt>
      <trkpt lat="48.25467" lon="4.33544">
        <ele>140</ele>
        <time>2022-05-22T18:08:18Z</time>
      </trkpt>
      <trkpt lat="48.25537" lon="4.33659">
        <ele>141</ele>
        <time>2022-05-22T18:08:36Z</time>
      </trkpt>
      <trkpt lat="48.25553" lon="4.33676">
        <ele>141</ele>
        <time>2022-05-22T18:08:40Z</time>
      </trkpt>
      <trkpt lat="48.25599" lon="4.33735">
        <ele>142</ele>
        <time>2022-05-22T18:08:51Z</time>
      </trkpt>
      <trkpt lat="48.25625" lon="4.33774">
        <ele>142</ele>
        <time>2022-05-22T18:08:57Z</time>
      </trkpt>
      <trkpt lat="48.25635" lon="4.33749">
        <ele>142</ele>
        <time>2022-05-22T18:09:01Z</time>
      </trkpt>
      <trkpt lat="48.25673" lon="4.33815">
        <ele>142</ele>
        <time>2022-05-22T18:09:11Z</time>
      </trkpt>
      <trkpt lat="48.25689" lon="4.33873">
        <ele>142</ele>
        <time>2022-05-22T18:09:18Z</time>
      </trkpt>
      <trkpt lat="48.25708" lon="4.33909">
        <ele>143</ele>
        <time>2022-05-22T18:09:24Z</time>
      </trkpt>
      <trkpt lat="48.25813" lon="4.34083">
        <ele>144</ele>
        <time>2022-05-22T18:09:52Z</time>
      </trkpt>
      <trkpt lat="48.26042" lon="4.34344">
        <ele>143</ele>
        <time>2022-05-22T18:10:43Z</time>
      </trkpt>
      <trkpt lat="48.26171" lon="4.34481">
        <ele>145</ele>
        <time>2022-05-22T18:11:11Z</time>
      </trkpt>
      <trkpt lat="48.26299" lon="4.34581">
        <ele>145</ele>
        <time>2022-05-22T18:11:37Z</time>
      </trkpt>
      <trkpt lat="48.26296" lon="4.3459">
        <ele>145</ele>
        <time>2022-05-22T18:11:38Z</time>
      </trkpt>
      <trkpt lat="48.2631" lon="4.34601">
        <ele>145</ele>
        <time>2022-05-22T18:11:41Z</time>
      </trkpt>
      <trkpt lat="48.26318" lon="4.3458">
        <ele>144</ele>
        <time>2022-05-22T18:11:43Z</time>
      </trkpt>
      <trkpt lat="48.26382" lon="4.34638">
        <ele>147</ele>
        <time>2022-05-22T18:11:57Z</time>
      </trkpt>
      <trkpt lat="48.26418" lon="4.3469">
        <ele>149</ele>
        <time>2022-05-22T18:12:06Z</time>
      </trkpt>
      <trkpt lat="48.26426" lon="4.34705">
        <ele>150</ele>
        <time>2022-05-22T18:12:08Z</time>
      </trkpt>
      <trkpt lat="48.26424" lon="4.34741">
        <ele>152</ele>
        <time>2022-05-22T18:12:12Z</time>
      </trkpt>
      <trkpt lat="48.26436" lon="4.34792">
        <ele>152</ele>
        <time>2022-05-22T18:12:19Z</time>
      </trkpt>
      <trkpt lat="48.26438" lon="4.34842">
        <ele>152</ele>
        <time>2022-05-22T18:12:25Z</time>
      </trkpt>
      <trkpt lat="48.2643" lon="4.34916">
        <ele>150</ele>
        <time>2022-05-22T18:12:33Z</time>
      </trkpt>
      <trkpt lat="48.26329" lon="4.35238">
        <ele>144</ele>
        <time>2022-05-22T18:13:16Z</time>
      </trkpt>
      <trkpt lat="48.26318" lon="4.35282">
        <ele>143</ele>
        <time>2022-05-22T18:13:21Z</time>
      </trkpt>
      <trkpt lat="48.26302" lon="4.3539">
        <ele>142</ele>
        <time>2022-05-22T18:13:34Z</time>
      </trkpt>
      <trkpt lat="48.26296" lon="4.35567">
        <ele>141</ele>
        <time>2022-05-22T18:13:55Z</time>
      </trkpt>
      <trkpt lat="48.2631" lon="4.35724">
        <ele>142</ele>
        <time>2022-05-22T18:14:14Z</time>
      </trkpt>
      <trkpt lat="48.26327" lon="4.35813">
        <ele>142</ele>
        <time>2022-05-22T18:14:25Z</time>
      </trkpt>
      <trkpt lat="48.26348" lon="4.35894">
        <ele>145</ele>
        <time>2022-05-22T18:14:35Z</time>
      </trkpt>
      <trkpt lat="48.26395" lon="4.36016">
        <ele>147</ele>
        <time>2022-05-22T18:14:52Z</time>
      </trkpt>
      <trkpt lat="48.26498" lon="4.36238">
        <ele>147</ele>
        <time>2022-05-22T18:15:24Z</time>
      </trkpt>
      <trkpt lat="48.2655" lon="4.36319">
        <ele>145</ele>
        <time>2022-05-22T18:15:37Z</time>
      </trkpt>
      <trkpt lat="48.26661" lon="4.36453">
        <ele>149</ele>
        <time>2022-05-22T18:16:03Z</time>
      </trkpt>
      <trkpt lat="48.26787" lon="4.36548">
        <ele>143</ele>
        <time>2022-05-22T18:16:28Z</time>
      </trkpt>
      <trkpt lat="48.26897" lon="4.36621">
        <ele>143</ele>
        <time>2022-05-22T18:16:49Z</time>
      </trkpt>
      <trkpt lat="48.26956" lon="4.36679">
        <ele>145</ele>
        <time>2022-05-22T18:17:02Z</time>
      </trkpt>
      <trkpt lat="48.27004" lon="4.36743">
        <ele>147</ele>
        <time>2022-05-22T18:17:13Z</time>
      </trkpt>
      <trkpt lat="48.27019" lon="4.36753">
        <ele>147</ele>
        <time>2022-05-22T18:17:16Z</time>
      </trkpt>
      <trkpt lat="48.27096" lon="4.3686">
        <ele>153</ele>
        <time>2022-05-22T18:17:35Z</time>
      </trkpt>
      <trkpt lat="48.27105" lon="4.36863">
        <ele>153</ele>
        <time>2022-05-22T18:17:36Z</time>
      </trkpt>
      <trkpt lat="48.27143" lon="4.36918">
        <ele>155</ele>
        <time>2022-05-22T18:17:46Z</time>
      </trkpt>
      <trkpt lat="48.27151" lon="4.36937">
        <ele>155</ele>
        <time>2022-05-22T18:17:48Z</time>
      </trkpt>
      <trkpt lat="48.27861" lon="4.37882">
        <ele>157</ele>
        <time>2022-05-22T18:20:37Z</time>
      </trkpt>
      <trkpt lat="48.2797" lon="4.38037">
        <ele>154</ele>
        <time>2022-05-22T18:21:04Z</time>
      </trkpt>
      <trkpt lat="48.28019" lon="4.38091">
        <ele>154</ele>
        <time>2022-05-22T18:21:15Z</time>
      </trkpt>
      <trkpt lat="48.28102" lon="4.38204">
        <ele>158</ele>
        <time>2022-05-22T18:21:35Z</time>
      </trkpt>
      <trkpt lat="48.28135" lon="4.38226">
        <ele>158</ele>
        <time>2022-05-22T18:21:41Z</time>
      </trkpt>
      <trkpt lat="48.28181" lon="4.3829">
        <ele>158</ele>
        <time>2022-05-22T18:21:52Z</time>
      </trkpt>
      <trkpt lat="48.28204" lon="4.38344">
        <ele>158</ele>
        <time>2022-05-22T18:22:00Z</time>
      </trkpt>
      <trkpt lat="48.28253" lon="4.38414">
        <ele>160</ele>
        <time>2022-05-22T18:22:12Z</time>
      </trkpt>
      <trkpt lat="48.28342" lon="4.38527">
        <ele>165</ele>
        <time>2022-05-22T18:22:33Z</time>
      </trkpt>
      <trkpt lat="48.28719" lon="4.39041">
        <ele>165</ele>
        <time>2022-05-22T18:24:03Z</time>
      </trkpt>
      <trkpt lat="48.28766" lon="4.39071">
        <ele>165</ele>
        <time>2022-05-22T18:24:12Z</time>
      </trkpt>
      <trkpt lat="48.28792" lon="4.39069">
        <ele>164</ele>
        <time>2022-05-22T18:24:17Z</time>
      </trkpt>
      <trkpt lat="48.28791" lon="4.39093">
        <ele>164</ele>
        <time>2022-05-22T18:24:20Z</time>
      </trkpt>
      <trkpt lat="48.28848" lon="4.39121">
        <ele>163</ele>
        <time>2022-05-22T18:24:30Z</time>
      </trkpt>
      <trkpt lat="48.28902" lon="4.39129">
        <ele>163</ele>
        <time>2022-05-22T18:24:40Z</time>
      </trkpt>
      <trkpt lat="48.28848" lon="4.39121">
        <ele>163</ele>
        <time>2022-05-22T18:24:50Z</time>
      </trkpt>
      <trkpt lat="48.28791" lon="4.39093">
        <ele>164</ele>
        <time>2022-05-22T18:25:00Z</time>
      </trkpt>
      <trkpt lat="48.28792" lon="4.39069">
        <ele>164</ele>
        <time>2022-05-22T18:25:03Z</time>
      </trkpt>
      <trkpt lat="48.28794" lon="4.39075">
        <ele>164</ele>
        <time>2022-05-22T18:25:04Z</time>
      </trkpt>
      <trkpt lat="48.28769" lon="4.39089">
        <ele>165</ele>
        <time>2022-05-22T18:25:09Z</time>
      </trkpt>
      <trkpt lat="48.28757" lon="4.39104">
        <ele>165</ele>
        <time>2022-05-22T18:25:11Z</time>
      </trkpt>
      <trkpt lat="48.28823" lon="4.39193">
        <ele>162</ele>
        <time>2022-05-22T18:25:27Z</time>
      </trkpt>
      <trkpt lat="48.28839" lon="4.39205">
        <ele>161</ele>
        <time>2022-05-22T18:25:30Z</time>
      </trkpt>
      <trkpt lat="48.28853" lon="4.39241">
        <ele>159</ele>
        <time>2022-05-22T18:25:35Z</time>
      </trkpt>
      <trkpt lat="48.28857" lon="4.39262">
        <ele>158</ele>
        <time>2022-05-22T18:25:38Z</time>
      </trkpt>
      <trkpt lat="48.28856" lon="4.39299">
        <ele>157</ele>
        <time>2022-05-22T18:25:42Z</time>
      </trkpt>
      <trkpt lat="48.28848" lon="4.39324">
        <ele>156</ele>
        <time>2022-05-22T18:25:46Z</time>
      </trkpt>
      <trkpt lat="48.28152" lon="4.40434">
        <ele>172</ele>
        <time>2022-05-22T18:28:46Z</time>
      </trkpt>
      <trkpt lat="48.2812" lon="4.40529">
        <ele>175</ele>
        <time>2022-05-22T18:28:59Z</time>
      </trkpt>
      <trkpt lat="48.27984" lon="4.41198">
        <ele>189</ele>
        <time>2022-05-22T18:30:22Z</time>
      </trkpt>
      <trkpt lat="48.27941" lon="4.41352">
        <ele>184</ele>
        <time>2022-05-22T18:30:41Z</time>
      </trkpt>
      <trkpt lat="48.27906" lon="4.41451">
        <ele>184</ele>
        <time>2022-05-22T18:30:55Z</time>
      </trkpt>
      <trkpt lat="48.27886" lon="4.41549">
        <ele>185</ele>
        <time>2022-05-22T18:31:07Z</time>
      </trkpt>
      <trkpt lat="48.27822" lon="4.42143">
        <ele>170</ele>
        <time>2022-05-22T18:32:18Z</time>
      </trkpt>
      <trkpt lat="48.2794" lon="4.42198">
        <ele>174</ele>
        <time>2022-05-22T18:32:40Z</time>
      </trkpt>
      <trkpt lat="48.28019" lon="4.42215">
        <ele>172</ele>
        <time>2022-05-22T18:32:54Z</time>
      </trkpt>
      <trkpt lat="48.28088" lon="4.4222">
        <ele>172</ele>
        <time>2022-05-22T18:33:07Z</time>
      </trkpt>
      <trkpt lat="48.28105" lon="4.42211">
        <ele>172</ele>
        <time>2022-05-22T18:33:10Z</time>
      </trkpt>
      <trkpt lat="48.28189" lon="4.42125">
        <ele>171</ele>
        <time>2022-05-22T18:33:28Z</time>
      </trkpt>
      <trkpt lat="48.28206" lon="4.42117">
        <ele>171</ele>
        <time>2022-05-22T18:33:31Z</time>
      </trkpt>
      <trkpt lat="48.28225" lon="4.42123">
        <ele>170</ele>
        <time>2022-05-22T18:33:34Z</time>
      </trkpt>
      <trkpt lat="48.28314" lon="4.42184">
        <ele>167</ele>
        <time>2022-05-22T18:33:52Z</time>
      </trkpt>
      <trkpt lat="48.28345" lon="4.4219">
        <ele>167</ele>
        <time>2022-05-22T18:33:57Z</time>
      </trkpt>
      <trkpt lat="48.28503" lon="4.42182">
        <ele>162</ele>
        <time>2022-05-22T18:34:26Z</time>
      </trkpt>
      <trkpt lat="48.28545" lon="4.42207">
        <ele>160</ele>
        <time>2022-05-22T18:34:34Z</time>
      </trkpt>
      <trkpt lat="48.28683" lon="4.42399">
        <ele>162</ele>
        <time>2022-05-22T18:35:07Z</time>
      </trkpt>
      <trkpt lat="48.28798" lon="4.42553">
        <ele>163</ele>
        <time>2022-05-22T18:35:34Z</time>
      </trkpt>
      <trkpt lat="48.28921" lon="4.42736">
        <ele>169</ele>
        <time>2022-05-22T18:36:05Z</time>
      </trkpt>
      <trkpt lat="48.29081" lon="4.42957">
        <ele>168</ele>
        <time>2022-05-22T18:36:44Z</time>
      </trkpt>
      <trkpt lat="48.29189" lon="4.43111">
        <ele>164</ele>
        <time>2022-05-22T18:37:10Z</time>
      </trkpt>
      <trkpt lat="48.2919" lon="4.43125">
        <ele>164</ele>
        <time>2022-05-22T18:37:12Z</time>
      </trkpt>
      <trkpt lat="48.29198" lon="4.43137">
        <ele>164</ele>
        <time>2022-05-22T18:37:14Z</time>
      </trkpt>
      <trkpt lat="48.2921" lon="4.4314">
        <ele>164</ele>
        <time>2022-05-22T18:37:16Z</time>
      </trkpt>
      <trkpt lat="48.29496" lon="4.43543">
        <ele>154</ele>
        <time>2022-05-22T18:38:26Z</time>
      </trkpt>
      <trkpt lat="48.29567" lon="4.43651">
        <ele>151</ele>
        <time>2022-05-22T18:38:44Z</time>
      </trkpt>
      <trkpt lat="48.29652" lon="4.43767">
        <ele>151</ele>
        <time>2022-05-22T18:39:04Z</time>
      </trkpt>
      <trkpt lat="48.29567" lon="4.43651">
        <ele>151</ele>
        <time>2022-05-22T18:39:25Z</time>
      </trkpt>
      <trkpt lat="48.29496" lon="4.43543">
        <ele>154</ele>
        <time>2022-05-22T18:39:43Z</time>
      </trkpt>
      <trkpt lat="48.2921" lon="4.4314">
        <ele>164</ele>
        <time>2022-05-22T18:40:53Z</time>
      </trkpt>
      <trkpt lat="48.29198" lon="4.43137">
        <ele>164</ele>
        <time>2022-05-22T18:40:55Z</time>
      </trkpt>
      <trkpt lat="48.2919" lon="4.43125">
        <ele>164</ele>
        <time>2022-05-22T18:40:57Z</time>
      </trkpt>
      <trkpt lat="48.29189" lon="4.43111">
        <ele>164</ele>
        <time>2022-05-22T18:40:58Z</time>
      </trkpt>
      <trkpt lat="48.29081" lon="4.42957">
        <ele>168</ele>
        <time>2022-05-22T18:41:25Z</time>
      </trkpt>
      <trkpt lat="48.28921" lon="4.42736">
        <ele>169</ele>
        <time>2022-05-22T18:42:04Z</time>
      </trkpt>
      <trkpt lat="48.28798" lon="4.42553">
        <ele>163</ele>
        <time>2022-05-22T18:42:34Z</time>
      </trkpt>
      <trkpt lat="48.28683" lon="4.42399">
        <ele>162</ele>
        <time>2022-05-22T18:43:02Z</time>
      </trkpt>
      <trkpt lat="48.28545" lon="4.42207">
        <ele>160</ele>
        <time>2022-05-22T18:43:35Z</time>
      </trkpt>
      <trkpt lat="48.28503" lon="4.42182">
        <ele>162</ele>
        <time>2022-05-22T18:43:43Z</time>
      </trkpt>
      <trkpt lat="48.28345" lon="4.4219">
        <ele>167</ele>
        <time>2022-05-22T18:44:11Z</time>
      </trkpt>
      <trkpt lat="48.28314" lon="4.42184">
        <ele>167</ele>
        <time>2022-05-22T18:44:17Z</time>
      </trkpt>
      <trkpt lat="48.28225" lon="4.42123">
        <ele>170</ele>
        <time>2022-05-22T18:44:34Z</time>
      </trkpt>
      <trkpt lat="48.28206" lon="4.42117">
        <ele>171</ele>
        <time>2022-05-22T18:44:38Z</time>
      </trkpt>
      <trkpt lat="48.28189" lon="4.42125">
        <ele>171</ele>
        <time>2022-05-22T18:44:41Z</time>
      </trkpt>
      <trkpt lat="48.28105" lon="4.42211">
        <ele>172</ele>
        <time>2022-05-22T18:44:59Z</time>
      </trkpt>
      <trkpt lat="48.28088" lon="4.4222">
        <ele>172</ele>
        <time>2022-05-22T18:45:02Z</time>
      </trkpt>
      <trkpt lat="48.28019" lon="4.42215">
        <ele>172</ele>
        <time>2022-05-22T18:45:15Z</time>
      </trkpt>
      <trkpt lat="48.2794" lon="4.42198">
        <ele>174</ele>
        <time>2022-05-22T18:45:29Z</time>
      </trkpt>
      <trkpt lat="48.27822" lon="4.42143">
        <ele>170</ele>
        <time>2022-05-22T18:45:51Z</time>
      </trkpt>
      <trkpt lat="48.27806" lon="4.4227">
        <ele>172</ele>
        <time>2022-05-22T18:46:06Z</time>
      </trkpt>
      <trkpt lat="48.27768" lon="4.42401">
        <ele>174</ele>
        <time>2022-05-22T18:46:23Z</time>
      </trkpt>
      <trkpt lat="48.27678" lon="4.42673">
        <ele>174</ele>
        <time>2022-05-22T18:46:59Z</time>
      </trkpt>
      <trkpt lat="48.27619" lon="4.42811">
        <ele>172</ele>
        <time>2022-05-22T18:47:18Z</time>
      </trkpt>
      <trkpt lat="48.27247" lon="4.43438">
        <ele>176</ele>
        <time>2022-05-22T18:48:58Z</time>
      </trkpt>
      <trkpt lat="48.27006" lon="4.4378">
        <ele>165</ele>
        <time>2022-05-22T18:49:57Z</time>
      </trkpt>
      <trkpt lat="48.26814" lon="4.44196">
        <ele>170</ele>
        <time>2022-05-22T18:50:57Z</time>
      </trkpt>
      <trkpt lat="48.26603" lon="4.4442">
        <ele>177</ele>
        <time>2022-05-22T18:51:43Z</time>
      </trkpt>
      <trkpt lat="48.26528" lon="4.4445">
        <ele>180</ele>
        <time>2022-05-22T18:51:57Z</time>
      </trkpt>
      <trkpt lat="48.26202" lon="4.44471">
        <ele>175</ele>
        <time>2022-05-22T18:52:55Z</time>
      </trkpt>
      <trkpt lat="48.26069" lon="4.44563">
        <ele>172</ele>
        <time>2022-05-22T18:53:21Z</time>
      </trkpt>
      <trkpt lat="48.25845" lon="4.44823">
        <ele>171</ele>
        <time>2022-05-22T18:54:11Z</time>
      </trkpt>
      <trkpt lat="48.25748" lon="4.44843">
        <ele>169</ele>
        <time>2022-05-22T18:54:28Z</time>
      </trkpt>
      <trkpt lat="48.25709" lon="4.44869">
        <ele>166</ele>
        <time>2022-05-22T18:54:36Z</time>
      </trkpt>
      <trkpt lat="48.25673" lon="4.44905">
        <ele>162</ele>
        <time>2022-05-22T18:54:44Z</time>
      </trkpt>
      <trkpt lat="48.25609" lon="4.45001">
        <ele>157</ele>
        <time>2022-05-22T18:55:00Z</time>
      </trkpt>
      <trkpt lat="48.25566" lon="4.45095">
        <ele>160</ele>
        <time>2022-05-22T18:55:13Z</time>
      </trkpt>
      <trkpt lat="48.25501" lon="4.45346">
        <ele>168</ele>
        <time>2022-05-22T18:55:45Z</time>
      </trkpt>
      <trkpt lat="48.25398" lon="4.45579">
        <ele>173</ele>
        <time>2022-05-22T18:56:18Z</time>
      </trkpt>
      <trkpt lat="48.25277" lon="4.45795">
        <ele>177</ele>
        <time>2022-05-22T18:56:52Z</time>
      </trkpt>
      <trkpt lat="48.25064" lon="4.46067">
        <ele>183</ele>
        <time>2022-05-22T18:57:42Z</time>
      </trkpt>
      <trkpt lat="48.24905" lon="4.46249">
        <ele>178</ele>
        <time>2022-05-22T18:58:17Z</time>
      </trkpt>
      <trkpt lat="48.24741" lon="4.4641">
        <ele>182</ele>
        <time>2022-05-22T18:58:52Z</time>
      </trkpt>
      <trkpt lat="48.24706" lon="4.46429">
        <ele>182</ele>
        <time>2022-05-22T18:58:59Z</time>
      </trkpt>
      <trkpt lat="48.24594" lon="4.46467">
        <ele>179</ele>
        <time>2022-05-22T18:59:19Z</time>
      </trkpt>
      <trkpt lat="48.24439" lon="4.46537">
        <ele>170</ele>
        <time>2022-05-22T18:59:48Z</time>
      </trkpt>
      <trkpt lat="48.24413" lon="4.46539">
        <ele>169</ele>
        <time>2022-05-22T18:59:53Z</time>
      </trkpt>
      <trkpt lat="48.24368" lon="4.46522">
        <ele>168</ele>
        <time>2022-05-22T19:00:01Z</time>
      </trkpt>
      <trkpt lat="48.24255" lon="4.46447">
        <ele>165</ele>
        <time>2022-05-22T19:00:23Z</time>
      </trkpt>
      <trkpt lat="48.24" lon="4.46324">
        <ele>156</ele>
        <time>2022-05-22T19:01:10Z</time>
      </trkpt>
      <trkpt lat="48.23914" lon="4.46287">
        <ele>153</ele>
        <time>2022-05-22T19:01:26Z</time>
      </trkpt>
      <trkpt lat="48.23901" lon="4.46291">
        <ele>153</ele>
        <time>2022-05-22T19:01:29Z</time>
      </trkpt>
      <trkpt lat="48.23875" lon="4.46445">
        <ele>153</ele>
        <time>2022-05-22T19:01:48Z</time>
      </trkpt>
      <trkpt lat="48.23903" lon="4.46462">
        <ele>154</ele>
        <time>2022-05-22T19:01:53Z</time>
      </trkpt>
      <trkpt lat="48.239" lon="4.46592">
        <ele>157</ele>
        <time>2022-05-22T19:02:08Z</time>
      </trkpt>
      <trkpt lat="48.23885" lon="4.46597">
        <ele>157</ele>
        <time>2022-05-22T19:02:11Z</time>
      </trkpt>
      <trkpt lat="48.23815" lon="4.46594">
        <ele>155</ele>
        <time>2022-05-22T19:02:23Z</time>
      </trkpt>
      <trkpt lat="48.23811" lon="4.46626">
        <ele>155</ele>
        <time>2022-05-22T19:02:27Z</time>
      </trkpt>
      <trkpt lat="48.238" lon="4.4667">
        <ele>154</ele>
        <time>2022-05-22T19:02:33Z</time>
      </trkpt>
      <trkpt lat="48.23788" lon="4.46737">
        <ele>155</ele>
        <time>2022-05-22T19:02:41Z</time>
      </trkpt>
      <trkpt lat="48.2379" lon="4.46723">
        <ele>155</ele>
        <time>2022-05-22T19:02:43Z</time>
      </trkpt>
      <trkpt lat="48.23777" lon="4.46709">
        <ele>154</ele>
        <time>2022-05-22T19:02:46Z</time>
      </trkpt>
      <trkpt lat="48.23711" lon="4.46665">
        <ele>152</ele>
        <time>2022-05-22T19:02:59Z</time>
      </trkpt>
      <trkpt lat="48.237" lon="4.46666">
        <ele>152</ele>
        <time>2022-05-22T19:03:00Z</time>
      </trkpt>
      <trkpt lat="48.23694" lon="4.46682">
        <ele>152</ele>
        <time>2022-05-22T19:03:03Z</time>
      </trkpt>
      <trkpt lat="48.23686" lon="4.46737">
        <ele>152</ele>
        <time>2022-05-22T19:03:09Z</time>
      </trkpt>
      <trkpt lat="48.23681" lon="4.46795">
        <ele>153</ele>
        <time>2022-05-22T19:03:16Z</time>
      </trkpt>
      <trkpt lat="48.23654" lon="4.46986">
        <ele>155</ele>
        <time>2022-05-22T19:03:39Z</time>
      </trkpt>
      <trkpt lat="48.23642" lon="4.46989">
        <ele>155</ele>
        <time>2022-05-22T19:03:42Z</time>
      </trkpt>
      <trkpt lat="48.23594" lon="4.46924">
        <ele>154</ele>
        <time>2022-05-22T19:03:53Z</time>
      </trkpt>
      <trkpt lat="48.23583" lon="4.46913">
        <ele>154</ele>
        <time>2022-05-22T19:03:55Z</time>
      </trkpt>
      <trkpt lat="48.23567" lon="4.46885">
        <ele>154</ele>
        <time>2022-05-22T19:04:00Z</time>
      </trkpt>
      <trkpt lat="48.23519" lon="4.46818">
        <ele>157</ele>
        <time>2022-05-22T19:04:11Z</time>
      </trkpt>
      <trkpt lat="48.23496" lon="4.4678">
        <ele>157</ele>
        <time>2022-05-22T19:04:18Z</time>
      </trkpt>
      <trkpt lat="48.23472" lon="4.46762">
        <ele>158</ele>
        <time>2022-05-22T19:04:22Z</time>
      </trkpt>
      <trkpt lat="48.23429" lon="4.4674">
        <ele>160</ele>
        <time>2022-05-22T19:04:30Z</time>
      </trkpt>
      <trkpt lat="48.23367" lon="4.467">
        <ele>160</ele>
        <time>2022-05-22T19:04:42Z</time>
      </trkpt>
      <trkpt lat="48.23358" lon="4.46697">
        <ele>160</ele>
        <time>2022-05-22T19:04:44Z</time>
      </trkpt>
      <trkpt lat="48.23348" lon="4.46697">
        <ele>160</ele>
        <time>2022-05-22T19:04:46Z</time>
      </trkpt>
      <trkpt lat="48.2334" lon="4.46704">
        <ele>161</ele>
        <time>2022-05-22T19:04:47Z</time>
      </trkpt>
      <trkpt lat="48.23335" lon="4.46716">
        <ele>162</ele>
        <time>2022-05-22T19:04:49Z</time>
      </trkpt>
      <trkpt lat="48.23323" lon="4.46717">
        <ele>162</ele>
        <time>2022-05-22T19:04:51Z</time>
      </trkpt>
      <trkpt lat="48.23266" lon="4.46691">
        <ele>160</ele>
        <time>2022-05-22T19:05:02Z</time>
      </trkpt>
      <trkpt lat="48.2317" lon="4.46635">
        <ele>158</ele>
        <time>2022-05-22T19:05:20Z</time>
      </trkpt>
      <trkpt lat="48.23079" lon="4.46576">
        <ele>159</ele>
        <time>2022-05-22T19:05:38Z</time>
      </trkpt>
      <trkpt lat="48.23048" lon="4.46559">
        <ele>160</ele>
        <time>2022-05-22T19:05:44Z</time>
      </trkpt>
      <trkpt lat="48.23035" lon="4.46555">
        <ele>160</ele>
        <time>2022-05-22T19:05:46Z</time>
      </trkpt>
      <trkpt lat="48.23004" lon="4.46531">
        <ele>161</ele>
        <time>2022-05-22T19:05:52Z</time>
      </trkpt>
      <trkpt lat="48.22962" lon="4.46509">
        <ele>160</ele>
        <time>2022-05-22T19:06:00Z</time>
      </trkpt>
      <trkpt lat="48.22932" lon="4.46499">
        <ele>160</ele>
        <time>2022-05-22T19:06:06Z</time>
      </trkpt>
      <trkpt lat="48.22909" lon="4.46499">
        <ele>160</ele>
        <time>2022-05-22T19:06:10Z</time>
      </trkpt>
      <trkpt lat="48.22849" lon="4.46509">
        <ele>161</ele>
        <time>2022-05-22T19:06:21Z</time>
      </trkpt>
      <trkpt lat="48.22698" lon="4.46528">
        <ele>163</ele>
        <time>2022-05-22T19:06:47Z</time>
      </trkpt>
      <trkpt lat="48.22507" lon="4.46524">
        <ele>166</ele>
        <time>2022-05-22T19:07:21Z</time>
      </trkpt>
      <trkpt lat="48.22382" lon="4.46503">
        <ele>167</ele>
        <time>2022-05-22T19:07:44Z</time>
      </trkpt>
      <trkpt lat="48.22311" lon="4.46487">
        <ele>167</ele>
        <time>2022-05-22T19:07:57Z</time>
      </trkpt>
      <trkpt lat="48.22231" lon="4.46459">
        <ele>166</ele>
        <time>2022-05-22T19:08:11Z</time>
      </trkpt>
      <trkpt lat="48.22204" lon="4.46453">
        <ele>166</ele>
        <time>2022-05-22T19:08:16Z</time>
      </trkpt>
      <trkpt lat="48.22145" lon="4.46443">
        <ele>166</ele>
        <time>2022-05-22T19:08:27Z</time>
      </trkpt>
      <trkpt lat="48.22105" lon="4.46441">
        <ele>166</ele>
        <time>2022-05-22T19:08:34Z</time>
      </trkpt>
      <trkpt lat="48.21694" lon="4.46499">
        <ele>171</ele>
        <time>2022-05-22T19:09:47Z</time>
      </trkpt>
      <trkpt lat="48.21651" lon="4.46503">
        <ele>171</ele>
        <time>2022-05-22T19:09:55Z</time>
      </trkpt>
      <trkpt lat="48.21531" lon="4.46522">
        <ele>172</ele>
        <time>2022-05-22T19:10:16Z</time>
      </trkpt>
      <trkpt lat="48.21363" lon="4.46568">
        <ele>174</ele>
        <time>2022-05-22T19:10:47Z</time>
      </trkpt>
      <trkpt lat="48.21314" lon="4.46585">
        <ele>174</ele>
        <time>2022-05-22T19:10:56Z</time>
      </trkpt>
      <trkpt lat="48.21219" lon="4.46624">
        <ele>174</ele>
        <time>2022-05-22T19:11:13Z</time>
      </trkpt>
      <trkpt lat="48.21191" lon="4.46631">
        <ele>174</ele>
        <time>2022-05-22T19:11:18Z</time>
      </trkpt>
      <trkpt lat="48.21159" lon="4.46633">
        <ele>175</ele>
        <time>2022-05-22T19:11:24Z</time>
      </trkpt>
      <trkpt lat="48.21039" lon="4.46616">
        <ele>177</ele>
        <time>2022-05-22T19:11:45Z</time>
      </trkpt>
      <trkpt lat="48.2094" lon="4.46597">
        <ele>177</ele>
        <time>2022-05-22T19:12:03Z</time>
      </trkpt>
      <trkpt lat="48.20908" lon="4.46593">
        <ele>177</ele>
        <time>2022-05-22T19:12:09Z</time>
      </trkpt>
      <trkpt lat="48.20875" lon="4.46584">
        <ele>177</ele>
        <time>2022-05-22T19:12:15Z</time>
      </trkpt>
      <trkpt lat="48.20828" lon="4.46575">
        <ele>177</ele>
        <time>2022-05-22T19:12:23Z</time>
      </trkpt>
      <trkpt lat="48.20671" lon="4.46531">
        <ele>182</ele>
        <time>2022-05-22T19:12:52Z</time>
      </trkpt>
      <trkpt lat="48.20539" lon="4.46471">
        <ele>181</ele>
        <time>2022-05-22T19:13:16Z</time>
      </trkpt>
      <trkpt lat="48.20494" lon="4.46447">
        <ele>181</ele>
        <time>2022-05-22T19:13:25Z</time>
      </trkpt>
      <trkpt lat="48.20461" lon="4.46433">
        <ele>182</ele>
        <time>2022-05-22T19:13:31Z</time>
      </trkpt>
      <trkpt lat="48.20441" lon="4.46421">
        <ele>182</ele>
        <time>2022-05-22T19:13:35Z</time>
      </trkpt>
      <trkpt lat="48.20397" lon="4.46403">
        <ele>183</ele>
        <time>2022-05-22T19:13:43Z</time>
      </trkpt>
      <trkpt lat="48.20294" lon="4.46349">
        <ele>183</ele>
        <time>2022-05-22T19:14:02Z</time>
      </trkpt>
      <trkpt lat="48.20263" lon="4.46329">
        <ele>183</ele>
        <time>2022-05-22T19:14:08Z</time>
      </trkpt>
      <trkpt lat="48.20239" lon="4.46319">
        <ele>183</ele>
        <time>2022-05-22T19:14:13Z</time>
      </trkpt>
      <trkpt lat="48.20189" lon="4.46288">
        <ele>184</ele>
        <time>2022-05-22T19:14:22Z</time>
      </trkpt>
      <trkpt lat="48.20136" lon="4.46259">
        <ele>185</ele>
        <time>2022-05-22T19:14:32Z</time>
      </trkpt>
      <trkpt lat="48.20115" lon="4.46252">
        <ele>185</ele>
        <time>2022-05-22T19:14:36Z</time>
      </trkpt>
      <trkpt lat="48.20025" lon="4.46237">
        <ele>186</ele>
        <time>2022-05-22T19:14:52Z</time>
      </trkpt>
      <trkpt lat="48.20005" lon="4.46236">
        <ele>187</ele>
        <time>2022-05-22T19:14:56Z</time>
      </trkpt>
      <trkpt lat="48.19919" lon="4.46223">
        <ele>187</ele>
        <time>2022-05-22T19:15:11Z</time>
      </trkpt>
      <trkpt lat="48.19897" lon="4.46223">
        <ele>187</ele>
        <time>2022-05-22T19:15:15Z</time>
      </trkpt>
      <trkpt lat="48.19812" lon="4.46211">
        <ele>190</ele>
        <time>2022-05-22T19:15:30Z</time>
      </trkpt>
      <trkpt lat="48.19774" lon="4.46218">
        <ele>191</ele>
        <time>2022-05-22T19:15:37Z</time>
      </trkpt>
      <trkpt lat="48.197" lon="4.46242">
        <ele>193</ele>
        <time>2022-05-22T19:15:51Z</time>
      </trkpt>
      <trkpt lat="48.1968" lon="4.46251">
        <ele>193</ele>
        <time>2022-05-22T19:15:54Z</time>
      </trkpt>
      <trkpt lat="48.19638" lon="4.46262">
        <ele>194</ele>
        <time>2022-05-22T19:16:02Z</time>
      </trkpt>
      <trkpt lat="48.19587" lon="4.46268">
        <ele>195</ele>
        <time>2022-05-22T19:16:11Z</time>
      </trkpt>
      <trkpt lat="48.19567" lon="4.46273">
        <ele>195</ele>
        <time>2022-05-22T19:16:15Z</time>
      </trkpt>
      <trkpt lat="48.19427" lon="4.46348">
        <ele>198</ele>
        <time>2022-05-22T19:16:41Z</time>
      </trkpt>
      <trkpt lat="48.19386" lon="4.4636">
        <ele>198</ele>
        <time>2022-05-22T19:16:48Z</time>
      </trkpt>
      <trkpt lat="48.1926" lon="4.46361">
        <ele>200</ele>
        <time>2022-05-22T19:17:11Z</time>
      </trkpt>
      <trkpt lat="48.19194" lon="4.46366">
        <ele>200</ele>
        <time>2022-05-22T19:17:23Z</time>
      </trkpt>
      <trkpt lat="48.19129" lon="4.46375">
        <ele>203</ele>
        <time>2022-05-22T19:17:34Z</time>
      </trkpt>
      <trkpt lat="48.18962" lon="4.46413">
        <ele>209</ele>
        <time>2022-05-22T19:18:04Z</time>
      </trkpt>
      <trkpt lat="48.18939" lon="4.46415">
        <ele>209</ele>
        <time>2022-05-22T19:18:08Z</time>
      </trkpt>
      <trkpt lat="48.1891" lon="4.46414">
        <ele>210</ele>
        <time>2022-05-22T19:18:14Z</time>
      </trkpt>
      <trkpt lat="48.18881" lon="4.46407">
        <ele>211</ele>
        <time>2022-05-22T19:18:19Z</time>
      </trkpt>
      <trkpt lat="48.18834" lon="4.4639">
        <ele>213</ele>
        <time>2022-05-22T19:18:27Z</time>
      </trkpt>
      <trkpt lat="48.18815" lon="4.4638">
        <ele>215</ele>
        <time>2022-05-22T19:18:31Z</time>
      </trkpt>
      <trkpt lat="48.18786" lon="4.4637">
        <ele>219</ele>
        <time>2022-05-22T19:18:36Z</time>
      </trkpt>
      <trkpt lat="48.18777" lon="4.46369">
        <ele>219</ele>
        <time>2022-05-22T19:18:38Z</time>
      </trkpt>
      <trkpt lat="48.18747" lon="4.4637">
        <ele>222</ele>
        <time>2022-05-22T19:18:43Z</time>
      </trkpt>
      <trkpt lat="48.18727" lon="4.46375">
        <ele>223</ele>
        <time>2022-05-22T19:18:47Z</time>
      </trkpt>
      <trkpt lat="48.18689" lon="4.46388">
        <ele>225</ele>
        <time>2022-05-22T19:18:54Z</time>
      </trkpt>
      <trkpt lat="48.1867" lon="4.46399">
        <ele>226</ele>
        <time>2022-05-22T19:18:57Z</time>
      </trkpt>
      <trkpt lat="48.18657" lon="4.4642">
        <ele>226</ele>
        <time>2022-05-22T19:19:01Z</time>
      </trkpt>
      <trkpt lat="48.1864" lon="4.46455">
        <ele>226</ele>
        <time>2022-05-22T19:19:06Z</time>
      </trkpt>
      <trkpt lat="48.18617" lon="4.46485">
        <ele>226</ele>
        <time>2022-05-22T19:19:11Z</time>
      </trkpt>
      <trkpt lat="48.18575" lon="4.46553">
        <ele>229</ele>
        <time>2022-05-22T19:19:22Z</time>
      </trkpt>
      <trkpt lat="48.18553" lon="4.46583">
        <ele>231</ele>
        <time>2022-05-22T19:19:28Z</time>
      </trkpt>
      <trkpt lat="48.1856" lon="4.46592">
        <ele>231</ele>
        <time>2022-05-22T19:19:29Z</time>
      </trkpt>
      <trkpt lat="48.18567" lon="4.46624">
        <ele>230</ele>
        <time>2022-05-22T19:19:33Z</time>
      </trkpt>
      <trkpt lat="48.18571" lon="4.46674">
        <ele>230</ele>
        <time>2022-05-22T19:19:39Z</time>
      </trkpt>
      <trkpt lat="48.18575" lon="4.46692">
        <ele>230</ele>
        <time>2022-05-22T19:19:42Z</time>
      </trkpt>
      <trkpt lat="48.18571" lon="4.4674">
        <ele>230</ele>
        <time>2022-05-22T19:19:47Z</time>
      </trkpt>
      <trkpt lat="48.18571" lon="4.4681">
        <ele>230</ele>
        <time>2022-05-22T19:19:56Z</time>
      </trkpt>
      <trkpt lat="48.18573" lon="4.46828">
        <ele>230</ele>
        <time>2022-05-22T19:19:58Z</time>
      </trkpt>
      <trkpt lat="48.18571" lon="4.46863">
        <ele>230</ele>
        <time>2022-05-22T19:20:02Z</time>
      </trkpt>
      <trkpt lat="48.18556" lon="4.46916">
        <ele>229</ele>
        <time>2022-05-22T19:20:09Z</time>
      </trkpt>
      <trkpt lat="48.18507" lon="4.4705">
        <ele>226</ele>
        <time>2022-05-22T19:20:27Z</time>
      </trkpt>
      <trkpt lat="48.18501" lon="4.47062">
        <ele>226</ele>
        <time>2022-05-22T19:20:29Z</time>
      </trkpt>
      <trkpt lat="48.18492" lon="4.47073">
        <ele>226</ele>
        <time>2022-05-22T19:20:31Z</time>
      </trkpt>
      <trkpt lat="48.18482" lon="4.47073">
        <ele>226</ele>
        <time>2022-05-22T19:20:32Z</time>
      </trkpt>
      <trkpt lat="48.1847" lon="4.47068">
        <ele>226</ele>
        <time>2022-05-22T19:20:35Z</time>
      </trkpt>
      <trkpt lat="48.18461" lon="4.47076">
        <ele>226</ele>
        <time>2022-05-22T19:20:37Z</time>
      </trkpt>
      <trkpt lat="48.18417" lon="4.47195">
        <ele>221</ele>
        <time>2022-05-22T19:20:53Z</time>
      </trkpt>
      <trkpt lat="48.18402" lon="4.47225">
        <ele>220</ele>
        <time>2022-05-22T19:20:57Z</time>
      </trkpt>
      <trkpt lat="48.18375" lon="4.47255">
        <ele>219</ele>
        <time>2022-05-22T19:21:03Z</time>
      </trkpt>
      <trkpt lat="48.1833" lon="4.47289">
        <ele>217</ele>
        <time>2022-05-22T19:21:12Z</time>
      </trkpt>
      <trkpt lat="48.18285" lon="4.47329">
        <ele>216</ele>
        <time>2022-05-22T19:21:21Z</time>
      </trkpt>
      <trkpt lat="48.18251" lon="4.47362">
        <ele>215</ele>
        <time>2022-05-22T19:21:29Z</time>
      </trkpt>
      <trkpt lat="48.18223" lon="4.47394">
        <ele>214</ele>
        <time>2022-05-22T19:21:35Z</time>
      </trkpt>
      <trkpt lat="48.18213" lon="4.47398">
        <ele>213</ele>
        <time>2022-05-22T19:21:37Z</time>
      </trkpt>
      <trkpt lat="48.18137" lon="4.47455">
        <ele>209</ele>
        <time>2022-05-22T19:21:52Z</time>
      </trkpt>
      <trkpt lat="48.17977" lon="4.47561">
        <ele>208</ele>
        <time>2022-05-22T19:22:23Z</time>
      </trkpt>
      <trkpt lat="48.17928" lon="4.47596">
        <ele>210</ele>
        <time>2022-05-22T19:22:33Z</time>
      </trkpt>
      <trkpt lat="48.17893" lon="4.47625">
        <ele>211</ele>
        <time>2022-05-22T19:22:40Z</time>
      </trkpt>
      <trkpt lat="48.17844" lon="4.47677">
        <ele>214</ele>
        <time>2022-05-22T19:22:50Z</time>
      </trkpt>
      <trkpt lat="48.17813" lon="4.4772">
        <ele>216</ele>
        <time>2022-05-22T19:22:58Z</time>
      </trkpt>
      <trkpt lat="48.17788" lon="4.47748">
        <ele>217</ele>
        <time>2022-05-22T19:23:03Z</time>
      </trkpt>
      <trkpt lat="48.17758" lon="4.47791">
        <ele>218</ele>
        <time>2022-05-22T19:23:11Z</time>
      </trkpt>
      <trkpt lat="48.17638" lon="4.47949">
        <ele>211</ele>
        <time>2022-05-22T19:23:39Z</time>
      </trkpt>
      <trkpt lat="48.17615" lon="4.47989">
        <ele>209</ele>
        <time>2022-05-22T19:23:46Z</time>
      </trkpt>
      <trkpt lat="48.17606" lon="4.48008">
        <ele>209</ele>
        <time>2022-05-22T19:23:48Z</time>
      </trkpt>
      <trkpt lat="48.17595" lon="4.48044">
        <ele>211</ele>
        <time>2022-05-22T19:23:53Z</time>
      </trkpt>
      <trkpt lat="48.17574" lon="4.48136">
        <ele>214</ele>
        <time>2022-05-22T19:24:05Z</time>
      </trkpt>
      <trkpt lat="48.17553" lon="4.48205">
        <ele>217</ele>
        <time>2022-05-22T19:24:14Z</time>
      </trkpt>
      <trkpt lat="48.17517" lon="4.48281">
        <ele>220</ele>
        <time>2022-05-22T19:24:25Z</time>
      </trkpt>
      <trkpt lat="48.17502" lon="4.4832">
        <ele>221</ele>
        <time>2022-05-22T19:24:30Z</time>
      </trkpt>
      <trkpt lat="48.17368" lon="4.48602">
        <ele>227</ele>
        <time>2022-05-22T19:25:11Z</time>
      </trkpt>
      <trkpt lat="48.17262" lon="4.48832">
        <ele>232</ele>
        <time>2022-05-22T19:25:44Z</time>
      </trkpt>
      <trkpt lat="48.17237" lon="4.48876">
        <ele>234</ele>
        <time>2022-05-22T19:25:51Z</time>
      </trkpt>
      <trkpt lat="48.17183" lon="4.48949">
        <ele>236</ele>
        <time>2022-05-22T19:26:04Z</time>
      </trkpt>
      <trkpt lat="48.17129" lon="4.49014">
        <ele>237</ele>
        <time>2022-05-22T19:26:16Z</time>
      </trkpt>
      <trkpt lat="48.17096" lon="4.49065">
        <ele>237</ele>
        <time>2022-05-22T19:26:25Z</time>
      </trkpt>
      <trkpt lat="48.17073" lon="4.49114">
        <ele>238</ele>
        <time>2022-05-22T19:26:32Z</time>
      </trkpt>
      <trkpt lat="48.17039" lon="4.49212">
        <ele>242</ele>
        <time>2022-05-22T19:26:45Z</time>
      </trkpt>
      <trkpt lat="48.17021" lon="4.4925">
        <ele>244</ele>
        <time>2022-05-22T19:26:50Z</time>
      </trkpt>
      <trkpt lat="48.16967" lon="4.49348">
        <ele>246</ele>
        <time>2022-05-22T19:27:06Z</time>
      </trkpt>
      <trkpt lat="48.16905" lon="4.49449">
        <ele>245</ele>
        <time>2022-05-22T19:27:22Z</time>
      </trkpt>
      <trkpt lat="48.16851" lon="4.49547">
        <ele>244</ele>
        <time>2022-05-22T19:27:37Z</time>
      </trkpt>
      <trkpt lat="48.16808" lon="4.49652">
        <ele>246</ele>
        <time>2022-05-22T19:27:52Z</time>
      </trkpt>
      <trkpt lat="48.16758" lon="4.49788">
        <ele>250</ele>
        <time>2022-05-22T19:28:10Z</time>
      </trkpt>
      <trkpt lat="48.16744" lon="4.49815">
        <ele>251</ele>
        <time>2022-05-22T19:28:14Z</time>
      </trkpt>
      <trkpt lat="48.16732" lon="4.49845">
        <ele>253</ele>
        <time>2022-05-22T19:28:18Z</time>
      </trkpt>
      <trkpt lat="48.16723" lon="4.49858">
        <ele>253</ele>
        <time>2022-05-22T19:28:20Z</time>
      </trkpt>
      <trkpt lat="48.16653" lon="4.49992">
        <ele>260</ele>
        <time>2022-05-22T19:28:41Z</time>
      </trkpt>
      <trkpt lat="48.16642" lon="4.50017">
        <ele>261</ele>
        <time>2022-05-22T19:28:44Z</time>
      </trkpt>
      <trkpt lat="48.16628" lon="4.50061">
        <ele>262</ele>
        <time>2022-05-22T19:28:50Z</time>
      </trkpt>
      <trkpt lat="48.16612" lon="4.50133">
        <ele>263</ele>
        <time>2022-05-22T19:28:59Z</time>
      </trkpt>
      <trkpt lat="48.16604" lon="4.50176">
        <ele>264</ele>
        <time>2022-05-22T19:29:04Z</time>
      </trkpt>
      <trkpt lat="48.16602" lon="4.50207">
        <ele>265</ele>
        <time>2022-05-22T19:29:08Z</time>
      </trkpt>
      <trkpt lat="48.16606" lon="4.50255">
        <ele>266</ele>
        <time>2022-05-22T19:29:14Z</time>
      </trkpt>
      <trkpt lat="48.16618" lon="4.50297">
        <ele>266</ele>
        <time>2022-05-22T19:29:19Z</time>
      </trkpt>
      <trkpt lat="48.16633" lon="4.50338">
        <ele>267</ele>
        <time>2022-05-22T19:29:25Z</time>
      </trkpt>
      <trkpt lat="48.16638" lon="4.50365">
        <ele>267</ele>
        <time>2022-05-22T19:29:28Z</time>
      </trkpt>
      <trkpt lat="48.1664" lon="4.50398">
        <ele>267</ele>
        <time>2022-05-22T19:29:32Z</time>
      </trkpt>
      <trkpt lat="48.16639" lon="4.50429">
        <ele>268</ele>
        <time>2022-05-22T19:29:36Z</time>
      </trkpt>
      <trkpt lat="48.16633" lon="4.50457">
        <ele>269</ele>
        <time>2022-05-22T19:29:39Z</time>
      </trkpt>
      <trkpt lat="48.16618" lon="4.50498">
        <ele>270</ele>
        <time>2022-05-22T19:29:45Z</time>
      </trkpt>
      <trkpt lat="48.16604" lon="4.50521">
        <ele>270</ele>
        <time>2022-05-22T19:29:48Z</time>
      </trkpt>
      <trkpt lat="48.16587" lon="4.50539">
        <ele>270</ele>
        <time>2022-05-22T19:29:52Z</time>
      </trkpt>
      <trkpt lat="48.16515" lon="4.50588">
        <ele>272</ele>
        <time>2022-05-22T19:30:06Z</time>
      </trkpt>
      <trkpt lat="48.16493" lon="4.50605">
        <ele>272</ele>
        <time>2022-05-22T19:30:11Z</time>
      </trkpt>
      <trkpt lat="48.16478" lon="4.50623">
        <ele>272</ele>
        <time>2022-05-22T19:30:14Z</time>
      </trkpt>
      <trkpt lat="48.16465" lon="4.50643">
        <ele>273</ele>
        <time>2022-05-22T19:30:17Z</time>
      </trkpt>
      <trkpt lat="48.1639" lon="4.50803">
        <ele>273</ele>
        <time>2022-05-22T19:30:40Z</time>
      </trkpt>
      <trkpt lat="48.16382" lon="4.50818">
        <ele>273</ele>
        <time>2022-05-22T19:30:43Z</time>
      </trkpt>
      <trkpt lat="48.16372" lon="4.50828">
        <ele>273</ele>
        <time>2022-05-22T19:30:45Z</time>
      </trkpt>
      <trkpt lat="48.16359" lon="4.50834">
        <ele>274</ele>
        <time>2022-05-22T19:30:47Z</time>
      </trkpt>
      <trkpt lat="48.16349" lon="4.50832">
        <ele>274</ele>
        <time>2022-05-22T19:30:49Z</time>
      </trkpt>
      <trkpt lat="48.16338" lon="4.50836">
        <ele>274</ele>
        <time>2022-05-22T19:30:51Z</time>
      </trkpt>
      <trkpt lat="48.16221" lon="4.50854">
        <ele>273</ele>
        <time>2022-05-22T19:31:12Z</time>
      </trkpt>
      <trkpt lat="48.1621" lon="4.50854">
        <ele>273</ele>
        <time>2022-05-22T19:31:14Z</time>
      </trkpt>
      <trkpt lat="48.16158" lon="4.50864">
        <ele>273</ele>
        <time>2022-05-22T19:31:23Z</time>
      </trkpt>
      <trkpt lat="48.15812" lon="4.50915">
        <ele>280</ele>
        <time>2022-05-22T19:32:25Z</time>
      </trkpt>
      <trkpt lat="48.158" lon="4.50915">
        <ele>281</ele>
        <time>2022-05-22T19:32:27Z</time>
      </trkpt>
      <trkpt lat="48.15771" lon="4.50922">
        <ele>282</ele>
        <time>2022-05-22T19:32:33Z</time>
      </trkpt>
      <trkpt lat="48.15761" lon="4.50922">
        <ele>283</ele>
        <time>2022-05-22T19:32:34Z</time>
      </trkpt>
      <trkpt lat="48.15722" lon="4.50935">
        <ele>284</ele>
        <time>2022-05-22T19:32:41Z</time>
      </trkpt>
      <trkpt lat="48.15677" lon="4.50957">
        <ele>285</ele>
        <time>2022-05-22T19:32:50Z</time>
      </trkpt>
      <trkpt lat="48.15667" lon="4.50959">
        <ele>285</ele>
        <time>2022-05-22T19:32:52Z</time>
      </trkpt>
      <trkpt lat="48.1563" lon="4.50986">
        <ele>285</ele>
        <time>2022-05-22T19:32:59Z</time>
      </trkpt>
      <trkpt lat="48.15609" lon="4.50997">
        <ele>284</ele>
        <time>2022-05-22T19:33:03Z</time>
      </trkpt>
      <trkpt lat="48.15369" lon="4.51175">
        <ele>285</ele>
        <time>2022-05-22T19:33:51Z</time>
      </trkpt>
      <trkpt lat="48.15337" lon="4.5119">
        <ele>286</ele>
        <time>2022-05-22T19:33:57Z</time>
      </trkpt>
      <trkpt lat="48.15297" lon="4.51203">
        <ele>287</ele>
        <time>2022-05-22T19:34:04Z</time>
      </trkpt>
      <trkpt lat="48.15223" lon="4.51221">
        <ele>289</ele>
        <time>2022-05-22T19:34:17Z</time>
      </trkpt>
      <trkpt lat="48.15181" lon="4.5124">
        <ele>291</ele>
        <time>2022-05-22T19:34:25Z</time>
      </trkpt>
      <trkpt lat="48.15151" lon="4.51263">
        <ele>290</ele>
        <time>2022-05-22T19:34:31Z</time>
      </trkpt>
      <trkpt lat="48.15046" lon="4.51355">
        <ele>285</ele>
        <time>2022-05-22T19:34:53Z</time>
      </trkpt>
      <trkpt lat="48.15" lon="4.51385">
        <ele>283</ele>
        <time>2022-05-22T19:35:02Z</time>
      </trkpt>
      <trkpt lat="48.14959" lon="4.51396">
        <ele>285</ele>
        <time>2022-05-22T19:35:09Z</time>
      </trkpt>
      <trkpt lat="48.14872" lon="4.51394">
        <ele>286</ele>
        <time>2022-05-22T19:35:24Z</time>
      </trkpt>
      <trkpt lat="48.14839" lon="4.51399">
        <ele>286</ele>
        <time>2022-05-22T19:35:30Z</time>
      </trkpt>
      <trkpt lat="48.14808" lon="4.51408">
        <ele>286</ele>
        <time>2022-05-22T19:35:36Z</time>
      </trkpt>
      <trkpt lat="48.14515" lon="4.51539">
        <ele>295</ele>
        <time>2022-05-22T19:36:30Z</time>
      </trkpt>
      <trkpt lat="48.14453" lon="4.51558">
        <ele>297</ele>
        <time>2022-05-22T19:36:42Z</time>
      </trkpt>
      <trkpt lat="48.14433" lon="4.51562">
        <ele>298</ele>
        <time>2022-05-22T19:36:45Z</time>
      </trkpt>
      <trkpt lat="48.14434" lon="4.51597">
        <ele>298</ele>
        <time>2022-05-22T19:36:49Z</time>
      </trkpt>
      <trkpt lat="48.14433" lon="4.51561">
        <ele>298</ele>
        <time>2022-05-22T19:36:54Z</time>
      </trkpt>
      <trkpt lat="48.14392" lon="4.51564">
        <ele>297</ele>
        <time>2022-05-22T19:37:01Z</time>
      </trkpt>
      <trkpt lat="48.14327" lon="4.51576">
        <ele>296</ele>
        <time>2022-05-22T19:37:13Z</time>
      </trkpt>
      <trkpt lat="48.14277" lon="4.51582">
        <ele>294</ele>
        <time>2022-05-22T19:37:22Z</time>
      </trkpt>
      <trkpt lat="48.14263" lon="4.51582">
        <ele>293</ele>
        <time>2022-05-22T19:37:24Z</time>
      </trkpt>
      <trkpt lat="48.1425" lon="4.51577">
        <ele>293</ele>
        <time>2022-05-22T19:37:26Z</time>
      </trkpt>
      <trkpt lat="48.14238" lon="4.51568">
        <ele>293</ele>
        <time>2022-05-22T19:37:29Z</time>
      </trkpt>
      <trkpt lat="48.1415" lon="4.51422">
        <ele>289</ele>
        <time>2022-05-22T19:37:52Z</time>
      </trkpt>
      <trkpt lat="48.14126" lon="4.51388">
        <ele>290</ele>
        <time>2022-05-22T19:37:58Z</time>
      </trkpt>
      <trkpt lat="48.14099" lon="4.51357">
        <ele>289</ele>
        <time>2022-05-22T19:38:04Z</time>
      </trkpt>
      <trkpt lat="48.14022" lon="4.51278">
        <ele>283</ele>
        <time>2022-05-22T19:38:21Z</time>
      </trkpt>
      <trkpt lat="48.14013" lon="4.51274">
        <ele>282</ele>
        <time>2022-05-22T19:38:22Z</time>
      </trkpt>
      <trkpt lat="48.14005" lon="4.51263">
        <ele>281</ele>
        <time>2022-05-22T19:38:24Z</time>
      </trkpt>
      <trkpt lat="48.13985" lon="4.51247">
        <ele>279</ele>
        <time>2022-05-22T19:38:28Z</time>
      </trkpt>
      <trkpt lat="48.13932" lon="4.51196">
        <ele>275</ele>
        <time>2022-05-22T19:38:40Z</time>
      </trkpt>
      <trkpt lat="48.13903" lon="4.51179">
        <ele>272</ele>
        <time>2022-05-22T19:38:45Z</time>
      </trkpt>
      <trkpt lat="48.13856" lon="4.51156">
        <ele>268</ele>
        <time>2022-05-22T19:38:54Z</time>
      </trkpt>
      <trkpt lat="48.13842" lon="4.51145">
        <ele>267</ele>
        <time>2022-05-22T19:38:57Z</time>
      </trkpt>
      <trkpt lat="48.13756" lon="4.51051">
        <ele>261</ele>
        <time>2022-05-22T19:39:16Z</time>
      </trkpt>
      <trkpt lat="48.13727" lon="4.51016">
        <ele>258</ele>
        <time>2022-05-22T19:39:22Z</time>
      </trkpt>
      <trkpt lat="48.13686" lon="4.50978">
        <ele>253</ele>
        <time>2022-05-22T19:39:31Z</time>
      </trkpt>
      <trkpt lat="48.13667" lon="4.50967">
        <ele>250</ele>
        <time>2022-05-22T19:39:34Z</time>
      </trkpt>
      <trkpt lat="48.13657" lon="4.50964">
        <ele>249</ele>
        <time>2022-05-22T19:39:36Z</time>
      </trkpt>
      <trkpt lat="48.13638" lon="4.50967">
        <ele>248</ele>
        <time>2022-05-22T19:39:40Z</time>
      </trkpt>
      <trkpt lat="48.13629" lon="4.50972">
        <ele>247</ele>
        <time>2022-05-22T19:39:41Z</time>
      </trkpt>
      <trkpt lat="48.13615" lon="4.50988">
        <ele>247</ele>
        <time>2022-05-22T19:39:44Z</time>
      </trkpt>
      <trkpt lat="48.13595" lon="4.51033">
        <ele>247</ele>
        <time>2022-05-22T19:39:51Z</time>
      </trkpt>
      <trkpt lat="48.1359" lon="4.5106">
        <ele>247</ele>
        <time>2022-05-22T19:39:54Z</time>
      </trkpt>
      <trkpt lat="48.13585" lon="4.51132">
        <ele>246</ele>
        <time>2022-05-22T19:40:03Z</time>
      </trkpt>
      <trkpt lat="48.13569" lon="4.51216">
        <ele>244</ele>
        <time>2022-05-22T19:40:13Z</time>
      </trkpt>
      <trkpt lat="48.13564" lon="4.51229">
        <ele>243</ele>
        <time>2022-05-22T19:40:15Z</time>
      </trkpt>
      <trkpt lat="48.13558" lon="4.5124">
        <ele>242</ele>
        <time>2022-05-22T19:40:17Z</time>
      </trkpt>
      <trkpt lat="48.13542" lon="4.51259">
        <ele>240</ele>
        <time>2022-05-22T19:40:20Z</time>
      </trkpt>
      <trkpt lat="48.1349" lon="4.51309">
        <ele>234</ele>
        <time>2022-05-22T19:40:31Z</time>
      </trkpt>
      <trkpt lat="48.13474" lon="4.51329">
        <ele>233</ele>
        <time>2022-05-22T19:40:35Z</time>
      </trkpt>
      <trkpt lat="48.13463" lon="4.51354">
        <ele>232</ele>
        <time>2022-05-22T19:40:39Z</time>
      </trkpt>
      <trkpt lat="48.13452" lon="4.51397">
        <ele>232</ele>
        <time>2022-05-22T19:40:44Z</time>
      </trkpt>
      <trkpt lat="48.13429" lon="4.51517">
        <ele>230</ele>
        <time>2022-05-22T19:40:59Z</time>
      </trkpt>
      <trkpt lat="48.13398" lon="4.51617">
        <ele>225</ele>
        <time>2022-05-22T19:41:12Z</time>
      </trkpt>
      <trkpt lat="48.13393" lon="4.51664">
        <ele>224</ele>
        <time>2022-05-22T19:41:18Z</time>
      </trkpt>
      <trkpt lat="48.13404" lon="4.51777">
        <ele>220</ele>
        <time>2022-05-22T19:41:31Z</time>
      </trkpt>
      <trkpt lat="48.13402" lon="4.51792">
        <ele>219</ele>
        <time>2022-05-22T19:41:33Z</time>
      </trkpt>
      <trkpt lat="48.13393" lon="4.51814">
        <ele>218</ele>
        <time>2022-05-22T19:41:36Z</time>
      </trkpt>
      <trkpt lat="48.13386" lon="4.51823">
        <ele>217</ele>
        <time>2022-05-22T19:41:38Z</time>
      </trkpt>
      <trkpt lat="48.13367" lon="4.51833">
        <ele>215</ele>
        <time>2022-05-22T19:41:41Z</time>
      </trkpt>
      <trkpt lat="48.13348" lon="4.51834">
        <ele>214</ele>
        <time>2022-05-22T19:41:45Z</time>
      </trkpt>
      <trkpt lat="48.13339" lon="4.51832">
        <ele>213</ele>
        <time>2022-05-22T19:41:46Z</time>
      </trkpt>
      <trkpt lat="48.13331" lon="4.51827">
        <ele>213</ele>
        <time>2022-05-22T19:41:48Z</time>
      </trkpt>
      <trkpt lat="48.13318" lon="4.5181">
        <ele>212</ele>
        <time>2022-05-22T19:41:51Z</time>
      </trkpt>
      <trkpt lat="48.13312" lon="4.51789">
        <ele>212</ele>
        <time>2022-05-22T19:41:54Z</time>
      </trkpt>
      <trkpt lat="48.13309" lon="4.51767">
        <ele>213</ele>
        <time>2022-05-22T19:41:56Z</time>
      </trkpt>
      <trkpt lat="48.13301" lon="4.51749">
        <ele>212</ele>
        <time>2022-05-22T19:41:59Z</time>
      </trkpt>
      <trkpt lat="48.13282" lon="4.51736">
        <ele>211</ele>
        <time>2022-05-22T19:42:03Z</time>
      </trkpt>
      <trkpt lat="48.13204" lon="4.51756">
        <ele>206</ele>
        <time>2022-05-22T19:42:17Z</time>
      </trkpt>
      <trkpt lat="48.12991" lon="4.51827">
        <ele>209</ele>
        <time>2022-05-22T19:42:55Z</time>
      </trkpt>
      <trkpt lat="48.12983" lon="4.51842">
        <ele>210</ele>
        <time>2022-05-22T19:42:58Z</time>
      </trkpt>
      <trkpt lat="48.12979" lon="4.51876">
        <ele>210</ele>
        <time>2022-05-22T19:43:02Z</time>
      </trkpt>
      <trkpt lat="48.12968" lon="4.51919">
        <ele>212</ele>
        <time>2022-05-22T19:43:07Z</time>
      </trkpt>
      <trkpt lat="48.12967" lon="4.51948">
        <ele>213</ele>
        <time>2022-05-22T19:43:11Z</time>
      </trkpt>
      <trkpt lat="48.12969" lon="4.51964">
        <ele>213</ele>
        <time>2022-05-22T19:43:13Z</time>
      </trkpt>
      <trkpt lat="48.12965" lon="4.52028">
        <ele>215</ele>
        <time>2022-05-22T19:43:20Z</time>
      </trkpt>
      <trkpt lat="48.12954" lon="4.52102">
        <ele>217</ele>
        <time>2022-05-22T19:43:29Z</time>
      </trkpt>
      <trkpt lat="48.12944" lon="4.52144">
        <ele>219</ele>
        <time>2022-05-22T19:43:35Z</time>
      </trkpt>
      <trkpt lat="48.12907" lon="4.52266">
        <ele>224</ele>
        <time>2022-05-22T19:43:51Z</time>
      </trkpt>
      <trkpt lat="48.12891" lon="4.52308">
        <ele>225</ele>
        <time>2022-05-22T19:43:56Z</time>
      </trkpt>
      <trkpt lat="48.12889" lon="4.52321">
        <ele>225</ele>
        <time>2022-05-22T19:43:58Z</time>
      </trkpt>
      <trkpt lat="48.12866" lon="4.52374">
        <ele>224</ele>
        <time>2022-05-22T19:44:05Z</time>
      </trkpt>
      <trkpt lat="48.12847" lon="4.52396">
        <ele>222</ele>
        <time>2022-05-22T19:44:10Z</time>
      </trkpt>
      <trkpt lat="48.12823" lon="4.52412">
        <ele>221</ele>
        <time>2022-05-22T19:44:14Z</time>
      </trkpt>
      <trkpt lat="48.12778" lon="4.52431">
        <ele>222</ele>
        <time>2022-05-22T19:44:23Z</time>
      </trkpt>
      <trkpt lat="48.12592" lon="4.52487">
        <ele>224</ele>
        <time>2022-05-22T19:44:56Z</time>
      </trkpt>
      <trkpt lat="48.12539" lon="4.52491">
        <ele>226</ele>
        <time>2022-05-22T19:45:06Z</time>
      </trkpt>
      <trkpt lat="48.12494" lon="4.52484">
        <ele>228</ele>
        <time>2022-05-22T19:45:14Z</time>
      </trkpt>
      <trkpt lat="48.12458" lon="4.52483">
        <ele>228</ele>
        <time>2022-05-22T19:45:20Z</time>
      </trkpt>
      <trkpt lat="48.12386" lon="4.52499">
        <ele>227</ele>
        <time>2022-05-22T19:45:33Z</time>
      </trkpt>
      <trkpt lat="48.12302" lon="4.52525">
        <ele>229</ele>
        <time>2022-05-22T19:45:48Z</time>
      </trkpt>
      <trkpt lat="48.12264" lon="4.52541">
        <ele>230</ele>
        <time>2022-05-22T19:45:56Z</time>
      </trkpt>
      <trkpt lat="48.1223" lon="4.52564">
        <ele>230</ele>
        <time>2022-05-22T19:46:02Z</time>
      </trkpt>
      <trkpt lat="48.12203" lon="4.52587">
        <ele>231</ele>
        <time>2022-05-22T19:46:08Z</time>
      </trkpt>
      <trkpt lat="48.12164" lon="4.52609">
        <ele>234</ele>
        <time>2022-05-22T19:46:15Z</time>
      </trkpt>
      <trkpt lat="48.12144" lon="4.52618">
        <ele>235</ele>
        <time>2022-05-22T19:46:19Z</time>
      </trkpt>
      <trkpt lat="48.12059" lon="4.52645">
        <ele>239</ele>
        <time>2022-05-22T19:46:34Z</time>
      </trkpt>
      <trkpt lat="48.11993" lon="4.52678">
        <ele>242</ele>
        <time>2022-05-22T19:46:47Z</time>
      </trkpt>
      <trkpt lat="48.11914" lon="4.52707">
        <ele>242</ele>
        <time>2022-05-22T19:47:01Z</time>
      </trkpt>
      <trkpt lat="48.11829" lon="4.52728">
        <ele>243</ele>
        <time>2022-05-22T19:47:16Z</time>
      </trkpt>
      <trkpt lat="48.11819" lon="4.52733">
        <ele>243</ele>
        <time>2022-05-22T19:47:18Z</time>
      </trkpt>
      <trkpt lat="48.11752" lon="4.52747">
        <ele>242</ele>
        <time>2022-05-22T19:47:30Z</time>
      </trkpt>
      <trkpt lat="48.11693" lon="4.52764">
        <ele>243</ele>
        <time>2022-05-22T19:47:41Z</time>
      </trkpt>
      <trkpt lat="48.11599" lon="4.52803">
        <ele>245</ele>
        <time>2022-05-22T19:47:58Z</time>
      </trkpt>
      <trkpt lat="48.11588" lon="4.52805">
        <ele>244</ele>
        <time>2022-05-22T19:48:00Z</time>
      </trkpt>
      <trkpt lat="48.11558" lon="4.52804">
        <ele>247</ele>
        <time>2022-05-22T19:48:06Z</time>
      </trkpt>
      <trkpt lat="48.1154" lon="4.52795">
        <ele>249</ele>
        <time>2022-05-22T19:48:09Z</time>
      </trkpt>
      <trkpt lat="48.11523" lon="4.52782">
        <ele>251</ele>
        <time>2022-05-22T19:48:12Z</time>
      </trkpt>
      <trkpt lat="48.11492" lon="4.52742">
        <ele>253</ele>
        <time>2022-05-22T19:48:20Z</time>
      </trkpt>
      <trkpt lat="48.11468" lon="4.52718">
        <ele>254</ele>
        <time>2022-05-22T19:48:25Z</time>
      </trkpt>
      <trkpt lat="48.11438" lon="4.52702">
        <ele>256</ele>
        <time>2022-05-22T19:48:31Z</time>
      </trkpt>
      <trkpt lat="48.11418" lon="4.52698">
        <ele>257</ele>
        <time>2022-05-22T19:48:34Z</time>
      </trkpt>
      <trkpt lat="48.11421" lon="4.52711">
        <ele>259</ele>
        <time>2022-05-22T19:48:36Z</time>
      </trkpt>
      <trkpt lat="48.11419" lon="4.5269">
        <ele>256</ele>
        <time>2022-05-22T19:48:38Z</time>
      </trkpt>
      <trkpt lat="48.11387" lon="4.52709">
        <ele>260</ele>
        <time>2022-05-22T19:48:44Z</time>
      </trkpt>
      <trkpt lat="48.11348" lon="4.52727">
        <ele>264</ele>
        <time>2022-05-22T19:48:52Z</time>
      </trkpt>
      <trkpt lat="48.11322" lon="4.52742">
        <ele>267</ele>
        <time>2022-05-22T19:48:57Z</time>
      </trkpt>
      <trkpt lat="48.11303" lon="4.52748">
        <ele>269</ele>
        <time>2022-05-22T19:49:00Z</time>
      </trkpt>
      <trkpt lat="48.11293" lon="4.52755">
        <ele>270</ele>
        <time>2022-05-22T19:49:02Z</time>
      </trkpt>
      <trkpt lat="48.11265" lon="4.52761">
        <ele>272</ele>
        <time>2022-05-22T19:49:07Z</time>
      </trkpt>
      <trkpt lat="48.11226" lon="4.52761">
        <ele>274</ele>
        <time>2022-05-22T19:49:14Z</time>
      </trkpt>
      <trkpt lat="48.11188" lon="4.52749">
        <ele>275</ele>
        <time>2022-05-22T19:49:21Z</time>
      </trkpt>
      <trkpt lat="48.11149" lon="4.52745">
        <ele>276</ele>
        <time>2022-05-22T19:49:28Z</time>
      </trkpt>
      <trkpt lat="48.11139" lon="4.52747">
        <ele>276</ele>
        <time>2022-05-22T19:49:30Z</time>
      </trkpt>
      <trkpt lat="48.11121" lon="4.52743">
        <ele>276</ele>
        <time>2022-05-22T19:49:33Z</time>
      </trkpt>
      <trkpt lat="48.1111" lon="4.52743">
        <ele>276</ele>
        <time>2022-05-22T19:49:35Z</time>
      </trkpt>
      <trkpt lat="48.1108" lon="4.52752">
        <ele>277</ele>
        <time>2022-05-22T19:49:40Z</time>
      </trkpt>
      <trkpt lat="48.11071" lon="4.52758">
        <ele>278</ele>
        <time>2022-05-22T19:49:42Z</time>
      </trkpt>
      <trkpt lat="48.11042" lon="4.5277">
        <ele>282</ele>
        <time>2022-05-22T19:49:47Z</time>
      </trkpt>
      <trkpt lat="48.11033" lon="4.52777">
        <ele>283</ele>
        <time>2022-05-22T19:49:49Z</time>
      </trkpt>
      <trkpt lat="48.11022" lon="4.5278">
        <ele>284</ele>
        <time>2022-05-22T19:49:51Z</time>
      </trkpt>
      <trkpt lat="48.11006" lon="4.52796">
        <ele>285</ele>
        <time>2022-05-22T19:49:55Z</time>
      </trkpt>
      <trkpt lat="48.10978" lon="4.5281">
        <ele>289</ele>
        <time>2022-05-22T19:50:00Z</time>
      </trkpt>
      <trkpt lat="48.10943" lon="4.5284">
        <ele>293</ele>
        <time>2022-05-22T19:50:07Z</time>
      </trkpt>
      <trkpt lat="48.10896" lon="4.52861">
        <ele>298</ele>
        <time>2022-05-22T19:50:16Z</time>
      </trkpt>
      <trkpt lat="48.10886" lon="4.5286">
        <ele>298</ele>
        <time>2022-05-22T19:50:18Z</time>
      </trkpt>
      <trkpt lat="48.10829" lon="4.52876">
        <ele>303</ele>
        <time>2022-05-22T19:50:28Z</time>
      </trkpt>
      <trkpt lat="48.10799" lon="4.52878">
        <ele>306</ele>
        <time>2022-05-22T19:50:33Z</time>
      </trkpt>
      <trkpt lat="48.10684" lon="4.52847">
        <ele>317</ele>
        <time>2022-05-22T19:50:54Z</time>
      </trkpt>
      <trkpt lat="48.10626" lon="4.52838">
        <ele>320</ele>
        <time>2022-05-22T19:51:04Z</time>
      </trkpt>
      <trkpt lat="48.10606" lon="4.52841">
        <ele>321</ele>
        <time>2022-05-22T19:51:08Z</time>
      </trkpt>
      <trkpt lat="48.10548" lon="4.52858">
        <ele>324</ele>
        <time>2022-05-22T19:51:19Z</time>
      </trkpt>
      <trkpt lat="48.10472" lon="4.52886">
        <ele>330</ele>
        <time>2022-05-22T19:51:32Z</time>
      </trkpt>
      <trkpt lat="48.10443" lon="4.52891">
        <ele>333</ele>
        <time>2022-05-22T19:51:38Z</time>
      </trkpt>
      <trkpt lat="48.10402" lon="4.52894">
        <ele>335</ele>
        <time>2022-05-22T19:51:45Z</time>
      </trkpt>
      <trkpt lat="48.10392" lon="4.52897">
        <ele>335</ele>
        <time>2022-05-22T19:51:47Z</time>
      </trkpt>
      <trkpt lat="48.10371" lon="4.52897">
        <ele>334</ele>
        <time>2022-05-22T19:51:51Z</time>
      </trkpt>
      <trkpt lat="48.10362" lon="4.52892">
        <ele>334</ele>
        <time>2022-05-22T19:51:52Z</time>
      </trkpt>
      <trkpt lat="48.10345" lon="4.52901">
        <ele>334</ele>
        <time>2022-05-22T19:51:55Z</time>
      </trkpt>
      <trkpt lat="48.10281" lon="4.52919">
        <ele>332</ele>
        <time>2022-05-22T19:52:07Z</time>
      </trkpt>
      <trkpt lat="48.10243" lon="4.52934">
        <ele>330</ele>
        <time>2022-05-22T19:52:14Z</time>
      </trkpt>
      <trkpt lat="48.10061" lon="4.5299">
        <ele>322</ele>
        <time>2022-05-22T19:52:47Z</time>
      </trkpt>
      <trkpt lat="48.0997" lon="4.53036">
        <ele>319</ele>
        <time>2022-05-22T19:53:04Z</time>
      </trkpt>
      <trkpt lat="48.09936" lon="4.5305">
        <ele>318</ele>
        <time>2022-05-22T19:53:10Z</time>
      </trkpt>
      <trkpt lat="48.09875" lon="4.53087">
        <ele>319</ele>
        <time>2022-05-22T19:53:22Z</time>
      </trkpt>
      <trkpt lat="48.09849" lon="4.53096">
        <ele>318</ele>
        <time>2022-05-22T19:53:27Z</time>
      </trkpt>
      <trkpt lat="48.09837" lon="4.53096">
        <ele>318</ele>
        <time>2022-05-22T19:53:29Z</time>
      </trkpt>
      <trkpt lat="48.09773" lon="4.53081">
        <ele>317</ele>
        <time>2022-05-22T19:53:41Z</time>
      </trkpt>
      <trkpt lat="48.09748" lon="4.53079">
        <ele>316</ele>
        <time>2022-05-22T19:53:45Z</time>
      </trkpt>
      <trkpt lat="48.09694" lon="4.53081">
        <ele>317</ele>
        <time>2022-05-22T19:53:55Z</time>
      </trkpt>
      <trkpt lat="48.09661" lon="4.53086">
        <ele>317</ele>
        <time>2022-05-22T19:54:01Z</time>
      </trkpt>
      <trkpt lat="48.09624" lon="4.53098">
        <ele>318</ele>
        <time>2022-05-22T19:54:07Z</time>
      </trkpt>
      <trkpt lat="48.09579" lon="4.53104">
        <ele>318</ele>
        <time>2022-05-22T19:54:15Z</time>
      </trkpt>
      <trkpt lat="48.09552" lon="4.53116">
        <ele>317</ele>
        <time>2022-05-22T19:54:20Z</time>
      </trkpt>
      <trkpt lat="48.09501" lon="4.53134">
        <ele>315</ele>
        <time>2022-05-22T19:54:30Z</time>
      </trkpt>
      <trkpt lat="48.09447" lon="4.53143">
        <ele>315</ele>
        <time>2022-05-22T19:54:39Z</time>
      </trkpt>
      <trkpt lat="48.09412" lon="4.53145">
        <ele>314</ele>
        <time>2022-05-22T19:54:46Z</time>
      </trkpt>
      <trkpt lat="48.09394" lon="4.5315">
        <ele>314</ele>
        <time>2022-05-22T19:54:49Z</time>
      </trkpt>
      <trkpt lat="48.09374" lon="4.53152">
        <ele>314</ele>
        <time>2022-05-22T19:54:52Z</time>
      </trkpt>
      <trkpt lat="48.09326" lon="4.53151">
        <ele>313</ele>
        <time>2022-05-22T19:55:01Z</time>
      </trkpt>
      <trkpt lat="48.09246" lon="4.53141">
        <ele>313</ele>
        <time>2022-05-22T19:55:15Z</time>
      </trkpt>
      <trkpt lat="48.0913" lon="4.53114">
        <ele>316</ele>
        <time>2022-05-22T19:55:36Z</time>
      </trkpt>
      <trkpt lat="48.0905" lon="4.53093">
        <ele>317</ele>
        <time>2022-05-22T19:55:51Z</time>
      </trkpt>
      <trkpt lat="48.09016" lon="4.53081">
        <ele>316</ele>
        <time>2022-05-22T19:55:57Z</time>
      </trkpt>
      <trkpt lat="48.08994" lon="4.53066">
        <ele>316</ele>
        <time>2022-05-22T19:56:01Z</time>
      </trkpt>
      <trkpt lat="48.08984" lon="4.53055">
        <ele>316</ele>
        <time>2022-05-22T19:56:03Z</time>
      </trkpt>
      <trkpt lat="48.08943" lon="4.53003">
        <ele>316</ele>
        <time>2022-05-22T19:56:13Z</time>
      </trkpt>
      <trkpt lat="48.08905" lon="4.5296">
        <ele>315</ele>
        <time>2022-05-22T19:56:21Z</time>
      </trkpt>
      <trkpt lat="48.08898" lon="4.52948">
        <ele>315</ele>
        <time>2022-05-22T19:56:23Z</time>
      </trkpt>
      <trkpt lat="48.08888" lon="4.52943">
        <ele>315</ele>
        <time>2022-05-22T19:56:25Z</time>
      </trkpt>
      <trkpt lat="48.08872" lon="4.52929">
        <ele>315</ele>
        <time>2022-05-22T19:56:28Z</time>
      </trkpt>
      <trkpt lat="48.08861" lon="4.52922">
        <ele>315</ele>
        <time>2022-05-22T19:56:30Z</time>
      </trkpt>
      <trkpt lat="48.08843" lon="4.52915">
        <ele>315</ele>
        <time>2022-05-22T19:56:34Z</time>
      </trkpt>
      <trkpt lat="48.08765" lon="4.52897">
        <ele>312</ele>
        <time>2022-05-22T19:56:48Z</time>
      </trkpt>
      <trkpt lat="48.0869" lon="4.52863">
        <ele>309</ele>
        <time>2022-05-22T19:57:02Z</time>
      </trkpt>
      <trkpt lat="48.08616" lon="4.52818">
        <ele>302</ele>
        <time>2022-05-22T19:57:16Z</time>
      </trkpt>
      <trkpt lat="48.08611" lon="4.52803">
        <ele>301</ele>
        <time>2022-05-22T19:57:18Z</time>
      </trkpt>
      <trkpt lat="48.08615" lon="4.5279">
        <ele>301</ele>
        <time>2022-05-22T19:57:20Z</time>
      </trkpt>
      <trkpt lat="48.08609" lon="4.52802">
        <ele>300</ele>
        <time>2022-05-22T19:57:21Z</time>
      </trkpt>
      <trkpt lat="48.08597" lon="4.52809">
        <ele>299</ele>
        <time>2022-05-22T19:57:24Z</time>
      </trkpt>
      <trkpt lat="48.08575" lon="4.52797">
        <ele>296</ele>
        <time>2022-05-22T19:57:28Z</time>
      </trkpt>
      <trkpt lat="48.08542" lon="4.52791">
        <ele>291</ele>
        <time>2022-05-22T19:57:34Z</time>
      </trkpt>
      <trkpt lat="48.08479" lon="4.52798">
        <ele>283</ele>
        <time>2022-05-22T19:57:45Z</time>
      </trkpt>
      <trkpt lat="48.08424" lon="4.52796">
        <ele>276</ele>
        <time>2022-05-22T19:57:55Z</time>
      </trkpt>
      <trkpt lat="48.08336" lon="4.52815">
        <ele>271</ele>
        <time>2022-05-22T19:58:11Z</time>
      </trkpt>
      <trkpt lat="48.08314" lon="4.52817">
        <ele>270</ele>
        <time>2022-05-22T19:58:15Z</time>
      </trkpt>
      <trkpt lat="48.08271" lon="4.52815">
        <ele>269</ele>
        <time>2022-05-22T19:58:22Z</time>
      </trkpt>
      <trkpt lat="48.08232" lon="4.52817">
        <ele>268</ele>
        <time>2022-05-22T19:58:29Z</time>
      </trkpt>
      <trkpt lat="48.08117" lon="4.52878">
        <ele>268</ele>
        <time>2022-05-22T19:58:51Z</time>
      </trkpt>
      <trkpt lat="48.08095" lon="4.52887">
        <ele>268</ele>
        <time>2022-05-22T19:58:55Z</time>
      </trkpt>
      <trkpt lat="48.08074" lon="4.52894">
        <ele>268</ele>
        <time>2022-05-22T19:58:59Z</time>
      </trkpt>
      <trkpt lat="48.08" lon="4.52909">
        <ele>268</ele>
        <time>2022-05-22T19:59:12Z</time>
      </trkpt>
      <trkpt lat="48.07954" lon="4.52915">
        <ele>268</ele>
        <time>2022-05-22T19:59:20Z</time>
      </trkpt>
      <trkpt lat="48.079" lon="4.52916">
        <ele>268</ele>
        <time>2022-05-22T19:59:30Z</time>
      </trkpt>
      <trkpt lat="48.07887" lon="4.5292">
        <ele>267</ele>
        <time>2022-05-22T19:59:32Z</time>
      </trkpt>
      <trkpt lat="48.07878" lon="4.52919">
        <ele>267</ele>
        <time>2022-05-22T19:59:34Z</time>
      </trkpt>
      <trkpt lat="48.07855" lon="4.52922">
        <ele>267</ele>
        <time>2022-05-22T19:59:38Z</time>
      </trkpt>
      <trkpt lat="48.0783" lon="4.5292">
        <ele>267</ele>
        <time>2022-05-22T19:59:42Z</time>
      </trkpt>
      <trkpt lat="48.07718" lon="4.52922">
        <ele>258</ele>
        <time>2022-05-22T20:00:02Z</time>
      </trkpt>
      <trkpt lat="48.07697" lon="4.52916">
        <ele>257</ele>
        <time>2022-05-22T20:00:06Z</time>
      </trkpt>
      <trkpt lat="48.07676" lon="4.52914">
        <ele>255</ele>
        <time>2022-05-22T20:00:10Z</time>
      </trkpt>
      <trkpt lat="48.07653" lon="4.52917">
        <ele>252</ele>
        <time>2022-05-22T20:00:14Z</time>
      </trkpt>
      <trkpt lat="48.07633" lon="4.52916">
        <ele>250</ele>
        <time>2022-05-22T20:00:18Z</time>
      </trkpt>
      <trkpt lat="48.07598" lon="4.52919">
        <ele>246</ele>
        <time>2022-05-22T20:00:24Z</time>
      </trkpt>
      <trkpt lat="48.07565" lon="4.52925">
        <ele>243</ele>
        <time>2022-05-22T20:00:30Z</time>
      </trkpt>
      <trkpt lat="48.07552" lon="4.52934">
        <ele>241</ele>
        <time>2022-05-22T20:00:32Z</time>
      </trkpt>
      <trkpt lat="48.07538" lon="4.52948">
        <ele>238</ele>
        <time>2022-05-22T20:00:35Z</time>
      </trkpt>
      <trkpt lat="48.07527" lon="4.52964">
        <ele>236</ele>
        <time>2022-05-22T20:00:38Z</time>
      </trkpt>
      <trkpt lat="48.07498" lon="4.52997">
        <ele>231</ele>
        <time>2022-05-22T20:00:44Z</time>
      </trkpt>
      <trkpt lat="48.07483" lon="4.53009">
        <ele>231</ele>
        <time>2022-05-22T20:00:48Z</time>
      </trkpt>
      <trkpt lat="48.07453" lon="4.53026">
        <ele>230</ele>
        <time>2022-05-22T20:00:53Z</time>
      </trkpt>
      <trkpt lat="48.07429" lon="4.53035">
        <ele>230</ele>
        <time>2022-05-22T20:00:58Z</time>
      </trkpt>
      <trkpt lat="48.07379" lon="4.53042">
        <ele>227</ele>
        <time>2022-05-22T20:01:07Z</time>
      </trkpt>
      <trkpt lat="48.07345" lon="4.53053">
        <ele>224</ele>
        <time>2022-05-22T20:01:13Z</time>
      </trkpt>
      <trkpt lat="48.07308" lon="4.53077">
        <ele>219</ele>
        <time>2022-05-22T20:01:20Z</time>
      </trkpt>
      <trkpt lat="48.07266" lon="4.53117">
        <ele>212</ele>
        <time>2022-05-22T20:01:29Z</time>
      </trkpt>
      <trkpt lat="48.07251" lon="4.53126">
        <ele>210</ele>
        <time>2022-05-22T20:01:32Z</time>
      </trkpt>
      <trkpt lat="48.07223" lon="4.53134">
        <ele>206</ele>
        <time>2022-05-22T20:01:37Z</time>
      </trkpt>
      <trkpt lat="48.07165" lon="4.53131">
        <ele>200</ele>
        <time>2022-05-22T20:01:47Z</time>
      </trkpt>
      <trkpt lat="48.07111" lon="4.53138">
        <ele>197</ele>
        <time>2022-05-22T20:01:57Z</time>
      </trkpt>
      <trkpt lat="48.07089" lon="4.53137">
        <ele>196</ele>
        <time>2022-05-22T20:02:01Z</time>
      </trkpt>
      <trkpt lat="48.07037" lon="4.5312">
        <ele>200</ele>
        <time>2022-05-22T20:02:10Z</time>
      </trkpt>
      <trkpt lat="48.07015" lon="4.53117">
        <ele>201</ele>
        <time>2022-05-22T20:02:14Z</time>
      </trkpt>
      <trkpt lat="48.06984" lon="4.53107">
        <ele>203</ele>
        <time>2022-05-22T20:02:20Z</time>
      </trkpt>
      <trkpt lat="48.06944" lon="4.53102">
        <ele>207</ele>
        <time>2022-05-22T20:02:27Z</time>
      </trkpt>
      <trkpt lat="48.06905" lon="4.53083">
        <ele>209</ele>
        <time>2022-05-22T20:02:34Z</time>
      </trkpt>
      <trkpt lat="48.0683" lon="4.53034">
        <ele>207</ele>
        <time>2022-05-22T20:02:49Z</time>
      </trkpt>
      <trkpt lat="48.06811" lon="4.53024">
        <ele>209</ele>
        <time>2022-05-22T20:02:52Z</time>
      </trkpt>
      <trkpt lat="48.068" lon="4.53022">
        <ele>210</ele>
        <time>2022-05-22T20:02:54Z</time>
      </trkpt>
      <trkpt lat="48.0679" lon="4.53024">
        <ele>211</ele>
        <time>2022-05-22T20:02:56Z</time>
      </trkpt>
      <trkpt lat="48.06769" lon="4.5304">
        <ele>214</ele>
        <time>2022-05-22T20:03:00Z</time>
      </trkpt>
      <trkpt lat="48.06731" lon="4.53089">
        <ele>213</ele>
        <time>2022-05-22T20:03:09Z</time>
      </trkpt>
      <trkpt lat="48.06702" lon="4.53114">
        <ele>213</ele>
        <time>2022-05-22T20:03:15Z</time>
      </trkpt>
      <trkpt lat="48.06685" lon="4.53122">
        <ele>213</ele>
        <time>2022-05-22T20:03:18Z</time>
      </trkpt>
      <trkpt lat="48.06657" lon="4.53124">
        <ele>211</ele>
        <time>2022-05-22T20:03:23Z</time>
      </trkpt>
      <trkpt lat="48.06638" lon="4.53119">
        <ele>209</ele>
        <time>2022-05-22T20:03:27Z</time>
      </trkpt>
      <trkpt lat="48.0654" lon="4.53104">
        <ele>197</ele>
        <time>2022-05-22T20:03:44Z</time>
      </trkpt>
      <trkpt lat="48.06501" lon="4.53109">
        <ele>194</ele>
        <time>2022-05-22T20:03:51Z</time>
      </trkpt>
      <trkpt lat="48.06482" lon="4.53116">
        <ele>193</ele>
        <time>2022-05-22T20:03:55Z</time>
      </trkpt>
      <trkpt lat="48.06438" lon="4.53149">
        <ele>191</ele>
        <time>2022-05-22T20:04:03Z</time>
      </trkpt>
      <trkpt lat="48.06399" lon="4.53192">
        <ele>187</ele>
        <time>2022-05-22T20:04:12Z</time>
      </trkpt>
      <trkpt lat="48.06351" lon="4.53233">
        <ele>181</ele>
        <time>2022-05-22T20:04:22Z</time>
      </trkpt>
      <trkpt lat="48.06299" lon="4.53283">
        <ele>180</ele>
        <time>2022-05-22T20:04:33Z</time>
      </trkpt>
      <trkpt lat="48.0629" lon="4.53288">
        <ele>180</ele>
        <time>2022-05-22T20:04:35Z</time>
      </trkpt>
      <trkpt lat="48.06243" lon="4.53333">
        <ele>180</ele>
        <time>2022-05-22T20:04:44Z</time>
      </trkpt>
      <trkpt lat="48.06174" lon="4.53404">
        <ele>180</ele>
        <time>2022-05-22T20:04:59Z</time>
      </trkpt>
      <trkpt lat="48.06075" lon="4.53524">
        <ele>181</ele>
        <time>2022-05-22T20:05:22Z</time>
      </trkpt>
      <trkpt lat="48.06044" lon="4.53566">
        <ele>180</ele>
        <time>2022-05-22T20:05:29Z</time>
      </trkpt>
      <trkpt lat="48.05988" lon="4.53629">
        <ele>181</ele>
        <time>2022-05-22T20:05:42Z</time>
      </trkpt>
      <trkpt lat="48.05942" lon="4.5367">
        <ele>182</ele>
        <time>2022-05-22T20:05:51Z</time>
      </trkpt>
      <trkpt lat="48.05886" lon="4.53705">
        <ele>181</ele>
        <time>2022-05-22T20:06:02Z</time>
      </trkpt>
      <trkpt lat="48.0585" lon="4.53746">
        <ele>182</ele>
        <time>2022-05-22T20:06:10Z</time>
      </trkpt>
      <trkpt lat="48.05838" lon="4.53752">
        <ele>182</ele>
        <time>2022-05-22T20:06:13Z</time>
      </trkpt>
      <trkpt lat="48.05816" lon="4.53754">
        <ele>182</ele>
        <time>2022-05-22T20:06:17Z</time>
      </trkpt>
      <trkpt lat="48.05812" lon="4.53742">
        <ele>182</ele>
        <time>2022-05-22T20:06:18Z</time>
      </trkpt>
      <trkpt lat="48.05811" lon="4.537">
        <ele>182</ele>
        <time>2022-05-22T20:06:23Z</time>
      </trkpt>
      <trkpt lat="48.05801" lon="4.53696">
        <ele>182</ele>
        <time>2022-05-22T20:06:25Z</time>
      </trkpt>
      <trkpt lat="48.05779" lon="4.53697">
        <ele>182</ele>
        <time>2022-05-22T20:06:29Z</time>
      </trkpt>
      <trkpt lat="48.05769" lon="4.53693">
        <ele>182</ele>
        <time>2022-05-22T20:06:31Z</time>
      </trkpt>
      <trkpt lat="48.05775" lon="4.53683">
        <ele>182</ele>
        <time>2022-05-22T20:06:32Z</time>
      </trkpt>
      <trkpt lat="48.05767" lon="4.53676">
        <ele>182</ele>
        <time>2022-05-22T20:06:34Z</time>
      </trkpt>
      <trkpt lat="48.05762" lon="4.53663">
        <ele>182</ele>
        <time>2022-05-22T20:06:36Z</time>
      </trkpt>
      <trkpt lat="48.05758" lon="4.53614">
        <ele>184</ele>
        <time>2022-05-22T20:06:42Z</time>
      </trkpt>
      <trkpt lat="48.05761" lon="4.53599">
        <ele>185</ele>
        <time>2022-05-22T20:06:43Z</time>
      </trkpt>
      <trkpt lat="48.05763" lon="4.53559">
        <ele>187</ele>
        <time>2022-05-22T20:06:48Z</time>
      </trkpt>
      <trkpt lat="48.05758" lon="4.53572">
        <ele>186</ele>
        <time>2022-05-22T20:06:50Z</time>
      </trkpt>
      <trkpt lat="48.05751" lon="4.5358">
        <ele>186</ele>
        <time>2022-05-22T20:06:52Z</time>
      </trkpt>
      <trkpt lat="48.05739" lon="4.53583">
        <ele>187</ele>
        <time>2022-05-22T20:06:54Z</time>
      </trkpt>
      <trkpt lat="48.05728" lon="4.53593">
        <ele>187</ele>
        <time>2022-05-22T20:06:56Z</time>
      </trkpt>
      <trkpt lat="48.05716" lon="4.53592">
        <ele>187</ele>
        <time>2022-05-22T20:06:58Z</time>
      </trkpt>
      <trkpt lat="48.05708" lon="4.53584">
        <ele>188</ele>
        <time>2022-05-22T20:07:00Z</time>
      </trkpt>
      <trkpt lat="48.05688" lon="4.5359">
        <ele>189</ele>
        <time>2022-05-22T20:07:04Z</time>
      </trkpt>
      <trkpt lat="48.05679" lon="4.53597">
        <ele>189</ele>
        <time>2022-05-22T20:07:05Z</time>
      </trkpt>
      <trkpt lat="48.0566" lon="4.53599">
        <ele>189</ele>
        <time>2022-05-22T20:07:09Z</time>
      </trkpt>
      <trkpt lat="48.05651" lon="4.53596">
        <ele>190</ele>
        <time>2022-05-22T20:07:10Z</time>
      </trkpt>
      <trkpt lat="48.05594" lon="4.53636">
        <ele>191</ele>
        <time>2022-05-22T20:07:22Z</time>
      </trkpt>
      <trkpt lat="48.0554" lon="4.5368">
        <ele>191</ele>
        <time>2022-05-22T20:07:32Z</time>
      </trkpt>
      <trkpt lat="48.05505" lon="4.53723">
        <ele>189</ele>
        <time>2022-05-22T20:07:41Z</time>
      </trkpt>
      <trkpt lat="48.05489" lon="4.5375">
        <ele>188</ele>
        <time>2022-05-22T20:07:45Z</time>
      </trkpt>
      <trkpt lat="48.05472" lon="4.5377">
        <ele>187</ele>
        <time>2022-05-22T20:07:49Z</time>
      </trkpt>
      <trkpt lat="48.05443" lon="4.53798">
        <ele>186</ele>
        <time>2022-05-22T20:07:55Z</time>
      </trkpt>
      <trkpt lat="48.05411" lon="4.53818">
        <ele>185</ele>
        <time>2022-05-22T20:08:01Z</time>
      </trkpt>
      <trkpt lat="48.05323" lon="4.53864">
        <ele>185</ele>
        <time>2022-05-22T20:08:18Z</time>
      </trkpt>
      <trkpt lat="48.05266" lon="4.53899">
        <ele>190</ele>
        <time>2022-05-22T20:08:29Z</time>
      </trkpt>
      <trkpt lat="48.05202" lon="4.53943">
        <ele>198</ele>
        <time>2022-05-22T20:08:41Z</time>
      </trkpt>
      <trkpt lat="48.05183" lon="4.53958">
        <ele>200</ele>
        <time>2022-05-22T20:08:45Z</time>
      </trkpt>
      <trkpt lat="48.05176" lon="4.53967">
        <ele>200</ele>
        <time>2022-05-22T20:08:47Z</time>
      </trkpt>
      <trkpt lat="48.05167" lon="4.53972">
        <ele>201</ele>
        <time>2022-05-22T20:08:48Z</time>
      </trkpt>
      <trkpt lat="48.05127" lon="4.54017">
        <ele>204</ele>
        <time>2022-05-22T20:08:57Z</time>
      </trkpt>
      <trkpt lat="48.05091" lon="4.54065">
        <ele>208</ele>
        <time>2022-05-22T20:09:06Z</time>
      </trkpt>
      <trkpt lat="48.05052" lon="4.54111">
        <ele>210</ele>
        <time>2022-05-22T20:09:15Z</time>
      </trkpt>
      <trkpt lat="48.04998" lon="4.54187">
        <ele>212</ele>
        <time>2022-05-22T20:09:28Z</time>
      </trkpt>
      <trkpt lat="48.04847" lon="4.54383">
        <ele>217</ele>
        <time>2022-05-22T20:10:03Z</time>
      </trkpt>
      <trkpt lat="48.04813" lon="4.54432">
        <ele>216</ele>
        <time>2022-05-22T20:10:12Z</time>
      </trkpt>
      <trkpt lat="48.04771" lon="4.54481">
        <ele>216</ele>
        <time>2022-05-22T20:10:21Z</time>
      </trkpt>
      <trkpt lat="48.04666" lon="4.54561">
        <ele>210</ele>
        <time>2022-05-22T20:10:42Z</time>
      </trkpt>
      <trkpt lat="48.0464" lon="4.54577">
        <ele>210</ele>
        <time>2022-05-22T20:10:47Z</time>
      </trkpt>
      <trkpt lat="48.04589" lon="4.54622">
        <ele>210</ele>
        <time>2022-05-22T20:10:58Z</time>
      </trkpt>
      <trkpt lat="48.04465" lon="4.54745">
        <ele>212</ele>
        <time>2022-05-22T20:11:24Z</time>
      </trkpt>
      <trkpt lat="48.04389" lon="4.54844">
        <ele>208</ele>
        <time>2022-05-22T20:11:42Z</time>
      </trkpt>
      <trkpt lat="48.04355" lon="4.5488">
        <ele>206</ele>
        <time>2022-05-22T20:11:50Z</time>
      </trkpt>
      <trkpt lat="48.04312" lon="4.54906">
        <ele>205</ele>
        <time>2022-05-22T20:11:58Z</time>
      </trkpt>
      <trkpt lat="48.04237" lon="4.54939">
        <ele>205</ele>
        <time>2022-05-22T20:12:12Z</time>
      </trkpt>
      <trkpt lat="48.04207" lon="4.54959">
        <ele>205</ele>
        <time>2022-05-22T20:12:18Z</time>
      </trkpt>
      <trkpt lat="48.041" lon="4.5504">
        <ele>199</ele>
        <time>2022-05-22T20:12:39Z</time>
      </trkpt>
      <trkpt lat="48.04063" lon="4.55077">
        <ele>196</ele>
        <time>2022-05-22T20:12:47Z</time>
      </trkpt>
      <trkpt lat="48.03948" lon="4.55258">
        <ele>186</ele>
        <time>2022-05-22T20:13:17Z</time>
      </trkpt>
      <trkpt lat="48.0388" lon="4.55356">
        <ele>187</ele>
        <time>2022-05-22T20:13:33Z</time>
      </trkpt>
      <trkpt lat="48.03827" lon="4.55442">
        <ele>188</ele>
        <time>2022-05-22T20:13:47Z</time>
      </trkpt>
      <trkpt lat="48.03821" lon="4.55455">
        <ele>189</ele>
        <time>2022-05-22T20:13:49Z</time>
      </trkpt>
      <trkpt lat="48.03806" lon="4.55476">
        <ele>189</ele>
        <time>2022-05-22T20:13:53Z</time>
      </trkpt>
      <trkpt lat="48.03781" lon="4.55522">
        <ele>190</ele>
        <time>2022-05-22T20:14:00Z</time>
      </trkpt>
      <trkpt lat="48.0376" lon="4.55573">
        <ele>190</ele>
        <time>2022-05-22T20:14:07Z</time>
      </trkpt>
      <trkpt lat="48.03737" lon="4.55621">
        <ele>190</ele>
        <time>2022-05-22T20:14:14Z</time>
      </trkpt>
      <trkpt lat="48.03594" lon="4.55973">
        <ele>189</ele>
        <time>2022-05-22T20:15:03Z</time>
      </trkpt>
      <trkpt lat="48.03575" lon="4.56013">
        <ele>189</ele>
        <time>2022-05-22T20:15:09Z</time>
      </trkpt>
      <trkpt lat="48.03547" lon="4.56087">
        <ele>189</ele>
        <time>2022-05-22T20:15:19Z</time>
      </trkpt>
      <trkpt lat="48.0346" lon="4.56292">
        <ele>193</ele>
        <time>2022-05-22T20:15:48Z</time>
      </trkpt>
      <trkpt lat="48.03308" lon="4.56674">
        <ele>204</ele>
        <time>2022-05-22T20:16:41Z</time>
      </trkpt>
      <trkpt lat="48.03296" lon="4.56696">
        <ele>205</ele>
        <time>2022-05-22T20:16:44Z</time>
      </trkpt>
      <trkpt lat="48.03255" lon="4.56805">
        <ele>209</ele>
        <time>2022-05-22T20:16:59Z</time>
      </trkpt>
      <trkpt lat="48.03232" lon="4.56854">
        <ele>211</ele>
        <time>2022-05-22T20:17:06Z</time>
      </trkpt>
      <trkpt lat="48.0321" lon="4.56885">
        <ele>211</ele>
        <time>2022-05-22T20:17:11Z</time>
      </trkpt>
      <trkpt lat="48.03147" lon="4.56947">
        <ele>209</ele>
        <time>2022-05-22T20:17:25Z</time>
      </trkpt>
      <trkpt lat="48.03125" lon="4.56964">
        <ele>207</ele>
        <time>2022-05-22T20:17:29Z</time>
      </trkpt>
      <trkpt lat="48.03115" lon="4.56978">
        <ele>207</ele>
        <time>2022-05-22T20:17:32Z</time>
      </trkpt>
      <trkpt lat="48.0305" lon="4.57037">
        <ele>204</ele>
        <time>2022-05-22T20:17:45Z</time>
      </trkpt>
      <trkpt lat="48.0285" lon="4.57227">
        <ele>221</ele>
        <time>2022-05-22T20:18:27Z</time>
      </trkpt>
      <trkpt lat="48.02795" lon="4.57273">
        <ele>224</ele>
        <time>2022-05-22T20:18:39Z</time>
      </trkpt>
      <trkpt lat="48.02729" lon="4.57322">
        <ele>229</ele>
        <time>2022-05-22T20:18:52Z</time>
      </trkpt>
      <trkpt lat="48.02704" lon="4.57338">
        <ele>230</ele>
        <time>2022-05-22T20:18:57Z</time>
      </trkpt>
      <trkpt lat="48.02661" lon="4.57373">
        <ele>229</ele>
        <time>2022-05-22T20:19:05Z</time>
      </trkpt>
      <trkpt lat="48.02605" lon="4.57411">
        <ele>228</ele>
        <time>2022-05-22T20:19:16Z</time>
      </trkpt>
      <trkpt lat="48.02575" lon="4.57424">
        <ele>226</ele>
        <time>2022-05-22T20:19:22Z</time>
      </trkpt>
      <trkpt lat="48.02565" lon="4.57414">
        <ele>228</ele>
        <time>2022-05-22T20:19:24Z</time>
      </trkpt>
      <trkpt lat="48.02517" lon="4.57418">
        <ele>224</ele>
        <time>2022-05-22T20:19:32Z</time>
      </trkpt>
      <trkpt lat="48.0247" lon="4.57411">
        <ele>224</ele>
        <time>2022-05-22T20:19:41Z</time>
      </trkpt>
      <trkpt lat="48.02424" lon="4.57409">
        <ele>223</ele>
        <time>2022-05-22T20:19:49Z</time>
      </trkpt>
      <trkpt lat="48.02384" lon="4.5741">
        <ele>223</ele>
        <time>2022-05-22T20:19:56Z</time>
      </trkpt>
      <trkpt lat="48.02353" lon="4.57414">
        <ele>221</ele>
        <time>2022-05-22T20:20:02Z</time>
      </trkpt>
      <trkpt lat="48.02292" lon="4.57425">
        <ele>219</ele>
        <time>2022-05-22T20:20:13Z</time>
      </trkpt>
      <trkpt lat="48.02273" lon="4.57433">
        <ele>217</ele>
        <time>2022-05-22T20:20:16Z</time>
      </trkpt>
      <trkpt lat="48.02236" lon="4.5744">
        <ele>216</ele>
        <time>2022-05-22T20:20:23Z</time>
      </trkpt>
      <trkpt lat="48.02201" lon="4.57451">
        <ele>214</ele>
        <time>2022-05-22T20:20:29Z</time>
      </trkpt>
      <trkpt lat="48.02184" lon="4.57452">
        <ele>215</ele>
        <time>2022-05-22T20:20:32Z</time>
      </trkpt>
      <trkpt lat="48.02071" lon="4.57495">
        <ele>214</ele>
        <time>2022-05-22T20:20:53Z</time>
      </trkpt>
      <trkpt lat="48.02043" lon="4.5752">
        <ele>213</ele>
        <time>2022-05-22T20:20:59Z</time>
      </trkpt>
      <trkpt lat="48.02025" lon="4.57531">
        <ele>213</ele>
        <time>2022-05-22T20:21:02Z</time>
      </trkpt>
      <trkpt lat="48.02006" lon="4.57549">
        <ele>211</ele>
        <time>2022-05-22T20:21:06Z</time>
      </trkpt>
      <trkpt lat="48.01897" lon="4.57658">
        <ele>209</ele>
        <time>2022-05-22T20:21:30Z</time>
      </trkpt>
      <trkpt lat="48.01844" lon="4.57717">
        <ele>207</ele>
        <time>2022-05-22T20:21:41Z</time>
      </trkpt>
      <trkpt lat="48.01837" lon="4.5773">
        <ele>206</ele>
        <time>2022-05-22T20:21:43Z</time>
      </trkpt>
      <trkpt lat="48.01813" lon="4.57758">
        <ele>205</ele>
        <time>2022-05-22T20:21:49Z</time>
      </trkpt>
      <trkpt lat="48.01743" lon="4.57819">
        <ele>205</ele>
        <time>2022-05-22T20:22:03Z</time>
      </trkpt>
      <trkpt lat="48.01689" lon="4.57857">
        <ele>203</ele>
        <time>2022-05-22T20:22:14Z</time>
      </trkpt>
      <trkpt lat="48.01651" lon="4.57879">
        <ele>202</ele>
        <time>2022-05-22T20:22:21Z</time>
      </trkpt>
      <trkpt lat="48.01587" lon="4.57922">
        <ele>200</ele>
        <time>2022-05-22T20:22:33Z</time>
      </trkpt>
      <trkpt lat="48.0146" lon="4.58014">
        <ele>205</ele>
        <time>2022-05-22T20:22:59Z</time>
      </trkpt>
      <trkpt lat="48.01432" lon="4.5803">
        <ele>206</ele>
        <time>2022-05-22T20:23:04Z</time>
      </trkpt>
      <trkpt lat="48.01377" lon="4.58069">
        <ele>205</ele>
        <time>2022-05-22T20:23:15Z</time>
      </trkpt>
      <trkpt lat="48.01342" lon="4.58087">
        <ele>204</ele>
        <time>2022-05-22T20:23:21Z</time>
      </trkpt>
      <trkpt lat="48.01321" lon="4.58101">
        <ele>204</ele>
        <time>2022-05-22T20:23:25Z</time>
      </trkpt>
      <trkpt lat="48.0131" lon="4.58105">
        <ele>203</ele>
        <time>2022-05-22T20:23:27Z</time>
      </trkpt>
      <trkpt lat="48.01288" lon="4.5812">
        <ele>203</ele>
        <time>2022-05-22T20:23:32Z</time>
      </trkpt>
      <trkpt lat="48.01266" lon="4.5813">
        <ele>203</ele>
        <time>2022-05-22T20:23:36Z</time>
      </trkpt>
      <trkpt lat="48.01234" lon="4.5815">
        <ele>204</ele>
        <time>2022-05-22T20:23:42Z</time>
      </trkpt>
      <trkpt lat="48.01205" lon="4.58171">
        <ele>205</ele>
        <time>2022-05-22T20:23:48Z</time>
      </trkpt>
      <trkpt lat="48.01149" lon="4.58222">
        <ele>205</ele>
        <time>2022-05-22T20:23:59Z</time>
      </trkpt>
      <trkpt lat="48.01137" lon="4.58229">
        <ele>206</ele>
        <time>2022-05-22T20:24:02Z</time>
      </trkpt>
      <trkpt lat="48.01075" lon="4.58283">
        <ele>204</ele>
        <time>2022-05-22T20:24:14Z</time>
      </trkpt>
      <trkpt lat="48.00994" lon="4.58372">
        <ele>202</ele>
        <time>2022-05-22T20:24:32Z</time>
      </trkpt>
      <trkpt lat="48.00903" lon="4.58483">
        <ele>205</ele>
        <time>2022-05-22T20:24:53Z</time>
      </trkpt>
      <trkpt lat="48.00894" lon="4.5849">
        <ele>205</ele>
        <time>2022-05-22T20:24:55Z</time>
      </trkpt>
      <trkpt lat="48.00856" lon="4.58532">
        <ele>207</ele>
        <time>2022-05-22T20:25:03Z</time>
      </trkpt>
      <trkpt lat="48.00824" lon="4.58575">
        <ele>207</ele>
        <time>2022-05-22T20:25:11Z</time>
      </trkpt>
      <trkpt lat="48.0079" lon="4.58613">
        <ele>208</ele>
        <time>2022-05-22T20:25:19Z</time>
      </trkpt>
      <trkpt lat="48.00783" lon="4.58626">
        <ele>208</ele>
        <time>2022-05-22T20:25:21Z</time>
      </trkpt>
      <trkpt lat="48.00752" lon="4.58663">
        <ele>207</ele>
        <time>2022-05-22T20:25:28Z</time>
      </trkpt>
      <trkpt lat="48.0073" lon="4.58694">
        <ele>207</ele>
        <time>2022-05-22T20:25:33Z</time>
      </trkpt>
      <trkpt lat="48.00715" lon="4.5872">
        <ele>206</ele>
        <time>2022-05-22T20:25:37Z</time>
      </trkpt>
      <trkpt lat="48.00677" lon="4.5882">
        <ele>201</ele>
        <time>2022-05-22T20:25:51Z</time>
      </trkpt>
      <trkpt lat="48.0061" lon="4.58983">
        <ele>205</ele>
        <time>2022-05-22T20:26:14Z</time>
      </trkpt>
      <trkpt lat="48.00551" lon="4.59172">
        <ele>204</ele>
        <time>2022-05-22T20:26:38Z</time>
      </trkpt>
      <trkpt lat="48.00548" lon="4.59189">
        <ele>204</ele>
        <time>2022-05-22T20:26:41Z</time>
      </trkpt>
      <trkpt lat="48.0052" lon="4.59265">
        <ele>204</ele>
        <time>2022-05-22T20:26:51Z</time>
      </trkpt>
      <trkpt lat="48.00476" lon="4.59398">
        <ele>201</ele>
        <time>2022-05-22T20:27:09Z</time>
      </trkpt>
      <trkpt lat="48.00437" lon="4.59542">
        <ele>199</ele>
        <time>2022-05-22T20:27:27Z</time>
      </trkpt>
      <trkpt lat="48.00431" lon="4.59554">
        <ele>199</ele>
        <time>2022-05-22T20:27:29Z</time>
      </trkpt>
      <trkpt lat="48.00369" lon="4.59736">
        <ele>199</ele>
        <time>2022-05-22T20:27:53Z</time>
      </trkpt>
      <trkpt lat="48.00357" lon="4.59777">
        <ele>200</ele>
        <time>2022-05-22T20:27:58Z</time>
      </trkpt>
      <trkpt lat="48.00317" lon="4.5989">
        <ele>202</ele>
        <time>2022-05-22T20:28:14Z</time>
      </trkpt>
      <trkpt lat="48.00303" lon="4.59938">
        <ele>203</ele>
        <time>2022-05-22T20:28:20Z</time>
      </trkpt>
      <trkpt lat="48.00248" lon="4.60201">
        <ele>203</ele>
        <time>2022-05-22T20:28:53Z</time>
      </trkpt>
      <trkpt lat="48.00235" lon="4.60412">
        <ele>195</ele>
        <time>2022-05-22T20:29:18Z</time>
      </trkpt>
      <trkpt lat="48.00229" lon="4.60452">
        <ele>197</ele>
        <time>2022-05-22T20:29:23Z</time>
      </trkpt>
      <trkpt lat="48.0022" lon="4.60485">
        <ele>199</ele>
        <time>2022-05-22T20:29:27Z</time>
      </trkpt>
      <trkpt lat="48.00211" lon="4.60512">
        <ele>201</ele>
        <time>2022-05-22T20:29:31Z</time>
      </trkpt>
      <trkpt lat="48.00151" lon="4.60654">
        <ele>202</ele>
        <time>2022-05-22T20:29:51Z</time>
      </trkpt>
      <trkpt lat="48.00135" lon="4.60701">
        <ele>203</ele>
        <time>2022-05-22T20:29:57Z</time>
      </trkpt>
      <trkpt lat="48.00113" lon="4.60753">
        <ele>205</ele>
        <time>2022-05-22T20:30:04Z</time>
      </trkpt>
      <trkpt lat="48.00097" lon="4.60798">
        <ele>203</ele>
        <time>2022-05-22T20:30:10Z</time>
      </trkpt>
      <trkpt lat="48.0003" lon="4.60946">
        <ele>206</ele>
        <time>2022-05-22T20:30:32Z</time>
      </trkpt>
      <trkpt lat="48.00015" lon="4.60986">
        <ele>206</ele>
        <time>2022-05-22T20:30:37Z</time>
      </trkpt>
      <trkpt lat="47.99925" lon="4.61151">
        <ele>205</ele>
        <time>2022-05-22T20:31:02Z</time>
      </trkpt>
      <trkpt lat="47.99895" lon="4.61234">
        <ele>200</ele>
        <time>2022-05-22T20:31:14Z</time>
      </trkpt>
      <trkpt lat="47.99887" lon="4.61285">
        <ele>198</ele>
        <time>2022-05-22T20:31:20Z</time>
      </trkpt>
      <trkpt lat="47.99876" lon="4.61433">
        <ele>196</ele>
        <time>2022-05-22T20:31:38Z</time>
      </trkpt>
      <trkpt lat="47.99874" lon="4.61491">
        <ele>196</ele>
        <time>2022-05-22T20:31:45Z</time>
      </trkpt>
      <trkpt lat="47.99861" lon="4.61633">
        <ele>196</ele>
        <time>2022-05-22T20:32:02Z</time>
      </trkpt>
      <trkpt lat="47.99847" lon="4.61687">
        <ele>197</ele>
        <time>2022-05-22T20:32:08Z</time>
      </trkpt>
      <trkpt lat="47.99821" lon="4.61743">
        <ele>196</ele>
        <time>2022-05-22T20:32:17Z</time>
      </trkpt>
      <trkpt lat="47.99812" lon="4.61771">
        <ele>197</ele>
        <time>2022-05-22T20:32:20Z</time>
      </trkpt>
      <trkpt lat="47.998" lon="4.61848">
        <ele>198</ele>
        <time>2022-05-22T20:32:30Z</time>
      </trkpt>
      <trkpt lat="47.99795" lon="4.61935">
        <ele>201</ele>
        <time>2022-05-22T20:32:40Z</time>
      </trkpt>
      <trkpt lat="47.99796" lon="4.61965">
        <ele>201</ele>
        <time>2022-05-22T20:32:44Z</time>
      </trkpt>
      <trkpt lat="47.99789" lon="4.61977">
        <ele>201</ele>
        <time>2022-05-22T20:32:46Z</time>
      </trkpt>
      <trkpt lat="47.99778" lon="4.6198">
        <ele>201</ele>
        <time>2022-05-22T20:32:48Z</time>
      </trkpt>
      <trkpt lat="47.99757" lon="4.61981">
        <ele>202</ele>
        <time>2022-05-22T20:32:51Z</time>
      </trkpt>
      <trkpt lat="47.99712" lon="4.61977">
        <ele>202</ele>
        <time>2022-05-22T20:32:59Z</time>
      </trkpt>
      <trkpt lat="47.9968" lon="4.6197">
        <ele>203</ele>
        <time>2022-05-22T20:33:05Z</time>
      </trkpt>
      <trkpt lat="47.99662" lon="4.61973">
        <ele>203</ele>
        <time>2022-05-22T20:33:08Z</time>
      </trkpt>
      <trkpt lat="47.99624" lon="4.6197">
        <ele>202</ele>
        <time>2022-05-22T20:33:15Z</time>
      </trkpt>
      <trkpt lat="47.99532" lon="4.61953">
        <ele>200</ele>
        <time>2022-05-22T20:33:32Z</time>
      </trkpt>
      <trkpt lat="47.99491" lon="4.61937">
        <ele>200</ele>
        <time>2022-05-22T20:33:39Z</time>
      </trkpt>
      <trkpt lat="47.99463" lon="4.61935">
        <ele>200</ele>
        <time>2022-05-22T20:33:44Z</time>
      </trkpt>
      <trkpt lat="47.99431" lon="4.61928">
        <ele>201</ele>
        <time>2022-05-22T20:33:50Z</time>
      </trkpt>
      <trkpt lat="47.99388" lon="4.61935">
        <ele>201</ele>
        <time>2022-05-22T20:33:58Z</time>
      </trkpt>
      <trkpt lat="47.99379" lon="4.61942">
        <ele>201</ele>
        <time>2022-05-22T20:33:59Z</time>
      </trkpt>
      <trkpt lat="47.99381" lon="4.61926">
        <ele>201</ele>
        <time>2022-05-22T20:34:01Z</time>
      </trkpt>
      <trkpt lat="47.99378" lon="4.6194">
        <ele>201</ele>
        <time>2022-05-22T20:34:03Z</time>
      </trkpt>
      <trkpt lat="47.99388" lon="4.61934">
        <ele>201</ele>
        <time>2022-05-22T20:34:05Z</time>
      </trkpt>
      <trkpt lat="47.99372" lon="4.61952">
        <ele>200</ele>
        <time>2022-05-22T20:34:09Z</time>
      </trkpt>
      <trkpt lat="47.99326" lon="4.61989">
        <ele>200</ele>
        <time>2022-05-22T20:34:18Z</time>
      </trkpt>
      <trkpt lat="47.99319" lon="4.61998">
        <ele>200</ele>
        <time>2022-05-22T20:34:19Z</time>
      </trkpt>
      <trkpt lat="47.9929" lon="4.62016">
        <ele>200</ele>
        <time>2022-05-22T20:34:25Z</time>
      </trkpt>
      <trkpt lat="47.99093" lon="4.62168">
        <ele>200</ele>
        <time>2022-05-22T20:35:05Z</time>
      </trkpt>
      <trkpt lat="47.99027" lon="4.622">
        <ele>202</ele>
        <time>2022-05-22T20:35:17Z</time>
      </trkpt>
      <trkpt lat="47.9892" lon="4.62246">
        <ele>205</ele>
        <time>2022-05-22T20:35:37Z</time>
      </trkpt>
      <trkpt lat="47.98876" lon="4.62261">
        <ele>204</ele>
        <time>2022-05-22T20:35:45Z</time>
      </trkpt>
      <trkpt lat="47.9885" lon="4.62267">
        <ele>204</ele>
        <time>2022-05-22T20:35:49Z</time>
      </trkpt>
      <trkpt lat="47.98793" lon="4.62287">
        <ele>203</ele>
        <time>2022-05-22T20:36:00Z</time>
      </trkpt>
      <trkpt lat="47.98749" lon="4.62318">
        <ele>202</ele>
        <time>2022-05-22T20:36:08Z</time>
      </trkpt>
      <trkpt lat="47.98738" lon="4.62329">
        <ele>202</ele>
        <time>2022-05-22T20:36:11Z</time>
      </trkpt>
      <trkpt lat="47.9872" lon="4.62357">
        <ele>202</ele>
        <time>2022-05-22T20:36:15Z</time>
      </trkpt>
      <trkpt lat="47.98698" lon="4.62409">
        <ele>203</ele>
        <time>2022-05-22T20:36:23Z</time>
      </trkpt>
      <trkpt lat="47.98674" lon="4.62489">
        <ele>203</ele>
        <time>2022-05-22T20:36:33Z</time>
      </trkpt>
      <trkpt lat="47.98661" lon="4.62551">
        <ele>204</ele>
        <time>2022-05-22T20:36:41Z</time>
      </trkpt>
      <trkpt lat="47.98648" lon="4.62633">
        <ele>206</ele>
        <time>2022-05-22T20:36:51Z</time>
      </trkpt>
      <trkpt lat="47.98638" lon="4.62735">
        <ele>209</ele>
        <time>2022-05-22T20:37:03Z</time>
      </trkpt>
      <trkpt lat="47.98633" lon="4.6285">
        <ele>209</ele>
        <time>2022-05-22T20:37:17Z</time>
      </trkpt>
      <trkpt lat="47.98636" lon="4.62976">
        <ele>211</ele>
        <time>2022-05-22T20:37:32Z</time>
      </trkpt>
      <trkpt lat="47.9864" lon="4.63007">
        <ele>212</ele>
        <time>2022-05-22T20:37:36Z</time>
      </trkpt>
      <trkpt lat="47.98653" lon="4.63069">
        <ele>213</ele>
        <time>2022-05-22T20:37:43Z</time>
      </trkpt>
      <trkpt lat="47.98661" lon="4.63097">
        <ele>213</ele>
        <time>2022-05-22T20:37:47Z</time>
      </trkpt>
      <trkpt lat="47.98668" lon="4.6311">
        <ele>214</ele>
        <time>2022-05-22T20:37:49Z</time>
      </trkpt>
      <trkpt lat="47.98689" lon="4.63198">
        <ele>216</ele>
        <time>2022-05-22T20:38:00Z</time>
      </trkpt>
      <trkpt lat="47.98683" lon="4.63316">
        <ele>212</ele>
        <time>2022-05-22T20:38:14Z</time>
      </trkpt>
      <trkpt lat="47.98671" lon="4.63383">
        <ele>208</ele>
        <time>2022-05-22T20:38:23Z</time>
      </trkpt>
      <trkpt lat="47.98662" lon="4.63414">
        <ele>206</ele>
        <time>2022-05-22T20:38:27Z</time>
      </trkpt>
      <trkpt lat="47.98637" lon="4.6347">
        <ele>205</ele>
        <time>2022-05-22T20:38:35Z</time>
      </trkpt>
      <trkpt lat="47.98592" lon="4.63557">
        <ele>203</ele>
        <time>2022-05-22T20:38:48Z</time>
      </trkpt>
      <trkpt lat="47.98584" lon="4.63568">
        <ele>203</ele>
        <time>2022-05-22T20:38:50Z</time>
      </trkpt>
      <trkpt lat="47.98562" lon="4.63618">
        <ele>204</ele>
        <time>2022-05-22T20:38:57Z</time>
      </trkpt>
      <trkpt lat="47.98458" lon="4.63823">
        <ele>204</ele>
        <time>2022-05-22T20:39:27Z</time>
      </trkpt>
      <trkpt lat="47.98443" lon="4.63848">
        <ele>204</ele>
        <time>2022-05-22T20:39:31Z</time>
      </trkpt>
      <trkpt lat="47.98405" lon="4.63897">
        <ele>203</ele>
        <time>2022-05-22T20:39:40Z</time>
      </trkpt>
      <trkpt lat="47.98343" lon="4.63966">
        <ele>204</ele>
        <time>2022-05-22T20:39:54Z</time>
      </trkpt>
      <trkpt lat="47.9833" lon="4.63992">
        <ele>204</ele>
        <time>2022-05-22T20:39:58Z</time>
      </trkpt>
      <trkpt lat="47.98313" lon="4.64038">
        <ele>204</ele>
        <time>2022-05-22T20:40:04Z</time>
      </trkpt>
      <trkpt lat="47.98306" lon="4.64073">
        <ele>204</ele>
        <time>2022-05-22T20:40:09Z</time>
      </trkpt>
      <trkpt lat="47.98294" lon="4.64164">
        <ele>203</ele>
        <time>2022-05-22T20:40:20Z</time>
      </trkpt>
      <trkpt lat="47.98273" lon="4.64235">
        <ele>204</ele>
        <time>2022-05-22T20:40:29Z</time>
      </trkpt>
      <trkpt lat="47.98247" lon="4.6427">
        <ele>204</ele>
        <time>2022-05-22T20:40:35Z</time>
      </trkpt>
      <trkpt lat="47.98227" lon="4.64288">
        <ele>204</ele>
        <time>2022-05-22T20:40:39Z</time>
      </trkpt>
      <trkpt lat="47.982" lon="4.64318">
        <ele>204</ele>
        <time>2022-05-22T20:40:45Z</time>
      </trkpt>
      <trkpt lat="47.98114" lon="4.64397">
        <ele>204</ele>
        <time>2022-05-22T20:41:03Z</time>
      </trkpt>
      <trkpt lat="47.98074" lon="4.64424">
        <ele>203</ele>
        <time>2022-05-22T20:41:11Z</time>
      </trkpt>
      <trkpt lat="47.98009" lon="4.64449">
        <ele>202</ele>
        <time>2022-05-22T20:41:23Z</time>
      </trkpt>
      <trkpt lat="47.97966" lon="4.64469">
        <ele>203</ele>
        <time>2022-05-22T20:41:31Z</time>
      </trkpt>
      <trkpt lat="47.97915" lon="4.64501">
        <ele>204</ele>
        <time>2022-05-22T20:41:41Z</time>
      </trkpt>
      <trkpt lat="47.97844" lon="4.64579">
        <ele>205</ele>
        <time>2022-05-22T20:41:56Z</time>
      </trkpt>
      <trkpt lat="47.97784" lon="4.64628">
        <ele>204</ele>
        <time>2022-05-22T20:42:09Z</time>
      </trkpt>
      <trkpt lat="47.97668" lon="4.64716">
        <ele>204</ele>
        <time>2022-05-22T20:42:32Z</time>
      </trkpt>
      <trkpt lat="47.97581" lon="4.64786">
        <ele>204</ele>
        <time>2022-05-22T20:42:49Z</time>
      </trkpt>
      <trkpt lat="47.97301" lon="4.64982">
        <ele>206</ele>
        <time>2022-05-22T20:43:44Z</time>
      </trkpt>
      <trkpt lat="47.97204" lon="4.65067">
        <ele>206</ele>
        <time>2022-05-22T20:44:04Z</time>
      </trkpt>
      <trkpt lat="47.97166" lon="4.65095">
        <ele>206</ele>
        <time>2022-05-22T20:44:12Z</time>
      </trkpt>
      <trkpt lat="47.97098" lon="4.65154">
        <ele>203</ele>
        <time>2022-05-22T20:44:26Z</time>
      </trkpt>
      <trkpt lat="47.97093" lon="4.65171">
        <ele>203</ele>
        <time>2022-05-22T20:44:28Z</time>
      </trkpt>
      <trkpt lat="47.971" lon="4.65201">
        <ele>204</ele>
        <time>2022-05-22T20:44:32Z</time>
      </trkpt>
      <trkpt lat="47.97157" lon="4.65529">
        <ele>207</ele>
        <time>2022-05-22T20:45:12Z</time>
      </trkpt>
      <trkpt lat="47.9726" lon="4.66096">
        <ele>208</ele>
        <time>2022-05-22T20:46:22Z</time>
      </trkpt>
      <trkpt lat="47.97318" lon="4.66402">
        <ele>211</ele>
        <time>2022-05-22T20:47:00Z</time>
      </trkpt>
      <trkpt lat="47.97374" lon="4.66722">
        <ele>214</ele>
        <time>2022-05-22T20:47:40Z</time>
      </trkpt>
      <trkpt lat="47.97428" lon="4.67001">
        <ele>217</ele>
        <time>2022-05-22T20:48:14Z</time>
      </trkpt>
      <trkpt lat="47.9743" lon="4.67048">
        <ele>218</ele>
        <time>2022-05-22T20:48:20Z</time>
      </trkpt>
      <trkpt lat="47.97427" lon="4.67077">
        <ele>219</ele>
        <time>2022-05-22T20:48:23Z</time>
      </trkpt>
      <trkpt lat="47.97416" lon="4.67122">
        <ele>219</ele>
        <time>2022-05-22T20:48:29Z</time>
      </trkpt>
      <trkpt lat="47.97385" lon="4.67227">
        <ele>218</ele>
        <time>2022-05-22T20:48:43Z</time>
      </trkpt>
      <trkpt lat="47.97379" lon="4.67259">
        <ele>218</ele>
        <time>2022-05-22T20:48:47Z</time>
      </trkpt>
      <trkpt lat="47.97381" lon="4.67276">
        <ele>218</ele>
        <time>2022-05-22T20:48:49Z</time>
      </trkpt>
      <trkpt lat="47.97386" lon="4.67292">
        <ele>218</ele>
        <time>2022-05-22T20:48:51Z</time>
      </trkpt>
      <trkpt lat="47.97401" lon="4.67318">
        <ele>219</ele>
        <time>2022-05-22T20:48:55Z</time>
      </trkpt>
      <trkpt lat="47.9741" lon="4.67327">
        <ele>219</ele>
        <time>2022-05-22T20:48:57Z</time>
      </trkpt>
      <trkpt lat="47.97458" lon="4.67359">
        <ele>220</ele>
        <time>2022-05-22T20:49:06Z</time>
      </trkpt>
      <trkpt lat="47.97485" lon="4.67382">
        <ele>220</ele>
        <time>2022-05-22T20:49:12Z</time>
      </trkpt>
      <trkpt lat="47.97498" lon="4.67405">
        <ele>221</ele>
        <time>2022-05-22T20:49:15Z</time>
      </trkpt>
      <trkpt lat="47.97502" lon="4.6742">
        <ele>221</ele>
        <time>2022-05-22T20:49:17Z</time>
      </trkpt>
      <trkpt lat="47.97509" lon="4.67432">
        <ele>221</ele>
        <time>2022-05-22T20:49:19Z</time>
      </trkpt>
      <trkpt lat="47.97506" lon="4.67446">
        <ele>221</ele>
        <time>2022-05-22T20:49:21Z</time>
      </trkpt>
      <trkpt lat="47.97491" lon="4.67472">
        <ele>221</ele>
        <time>2022-05-22T20:49:25Z</time>
      </trkpt>
      <trkpt lat="47.97479" lon="4.67528">
        <ele>221</ele>
        <time>2022-05-22T20:49:32Z</time>
      </trkpt>
      <trkpt lat="47.97461" lon="4.67585">
        <ele>220</ele>
        <time>2022-05-22T20:49:39Z</time>
      </trkpt>
      <trkpt lat="47.97425" lon="4.67678">
        <ele>222</ele>
        <time>2022-05-22T20:49:52Z</time>
      </trkpt>
      <trkpt lat="47.9741" lon="4.67726">
        <ele>222</ele>
        <time>2022-05-22T20:49:59Z</time>
      </trkpt>
      <trkpt lat="47.97408" lon="4.67743">
        <ele>222</ele>
        <time>2022-05-22T20:50:01Z</time>
      </trkpt>
      <trkpt lat="47.97411" lon="4.67791">
        <ele>222</ele>
        <time>2022-05-22T20:50:06Z</time>
      </trkpt>
      <trkpt lat="47.97386" lon="4.67874">
        <ele>222</ele>
        <time>2022-05-22T20:50:17Z</time>
      </trkpt>
      <trkpt lat="47.97367" lon="4.67916">
        <ele>223</ele>
        <time>2022-05-22T20:50:23Z</time>
      </trkpt>
      <trkpt lat="47.97318" lon="4.68011">
        <ele>221</ele>
        <time>2022-05-22T20:50:37Z</time>
      </trkpt>
      <trkpt lat="47.97248" lon="4.68166">
        <ele>224</ele>
        <time>2022-05-22T20:51:00Z</time>
      </trkpt>
      <trkpt lat="47.97191" lon="4.68304">
        <ele>227</ele>
        <time>2022-05-22T20:51:19Z</time>
      </trkpt>
      <trkpt lat="47.97144" lon="4.6843">
        <ele>231</ele>
        <time>2022-05-22T20:51:36Z</time>
      </trkpt>
      <trkpt lat="47.97127" lon="4.68469">
        <ele>231</ele>
        <time>2022-05-22T20:51:42Z</time>
      </trkpt>
      <trkpt lat="47.96907" lon="4.68887">
        <ele>225</ele>
        <time>2022-05-22T20:52:45Z</time>
      </trkpt>
      <trkpt lat="47.96854" lon="4.68969">
        <ele>225</ele>
        <time>2022-05-22T20:52:59Z</time>
      </trkpt>
      <trkpt lat="47.96829" lon="4.69001">
        <ele>225</ele>
        <time>2022-05-22T20:53:05Z</time>
      </trkpt>
      <trkpt lat="47.96716" lon="4.69131">
        <ele>226</ele>
        <time>2022-05-22T20:53:30Z</time>
      </trkpt>
      <trkpt lat="47.96662" lon="4.69199">
        <ele>225</ele>
        <time>2022-05-22T20:53:43Z</time>
      </trkpt>
      <trkpt lat="47.96646" lon="4.69215">
        <ele>225</ele>
        <time>2022-05-22T20:53:46Z</time>
      </trkpt>
      <trkpt lat="47.96586" lon="4.6929">
        <ele>225</ele>
        <time>2022-05-22T20:54:00Z</time>
      </trkpt>
      <trkpt lat="47.9657" lon="4.69306">
        <ele>225</ele>
        <time>2022-05-22T20:54:03Z</time>
      </trkpt>
      <trkpt lat="47.96435" lon="4.69467">
        <ele>226</ele>
        <time>2022-05-22T20:54:34Z</time>
      </trkpt>
      <trkpt lat="47.96307" lon="4.69623">
        <ele>228</ele>
        <time>2022-05-22T20:55:03Z</time>
      </trkpt>
      <trkpt lat="47.96246" lon="4.69693">
        <ele>228</ele>
        <time>2022-05-22T20:55:17Z</time>
      </trkpt>
      <trkpt lat="47.96219" lon="4.69729">
        <ele>229</ele>
        <time>2022-05-22T20:55:24Z</time>
      </trkpt>
      <trkpt lat="47.96036" lon="4.69944">
        <ele>230</ele>
        <time>2022-05-22T20:56:05Z</time>
      </trkpt>
      <trkpt lat="47.95983" lon="4.70008">
        <ele>232</ele>
        <time>2022-05-22T20:56:17Z</time>
      </trkpt>
      <trkpt lat="47.95962" lon="4.7004">
        <ele>233</ele>
        <time>2022-05-22T20:56:22Z</time>
      </trkpt>
      <trkpt lat="47.95944" lon="4.70055">
        <ele>233</ele>
        <time>2022-05-22T20:56:26Z</time>
      </trkpt>
      <trkpt lat="47.959" lon="4.70074">
        <ele>231</ele>
        <time>2022-05-22T20:56:34Z</time>
      </trkpt>
      <trkpt lat="47.95818" lon="4.70103">
        <ele>230</ele>
        <time>2022-05-22T20:56:49Z</time>
      </trkpt>
      <trkpt lat="47.95808" lon="4.70111">
        <ele>229</ele>
        <time>2022-05-22T20:56:51Z</time>
      </trkpt>
      <trkpt lat="47.95773" lon="4.70119">
        <ele>229</ele>
        <time>2022-05-22T20:56:58Z</time>
      </trkpt>
      <trkpt lat="47.95703" lon="4.70144">
        <ele>229</ele>
        <time>2022-05-22T20:57:10Z</time>
      </trkpt>
      <trkpt lat="47.95671" lon="4.70152">
        <ele>230</ele>
        <time>2022-05-22T20:57:16Z</time>
      </trkpt>
      <trkpt lat="47.95574" lon="4.70168">
        <ele>233</ele>
        <time>2022-05-22T20:57:34Z</time>
      </trkpt>
      <trkpt lat="47.95498" lon="4.70187">
        <ele>232</ele>
        <time>2022-05-22T20:57:47Z</time>
      </trkpt>
      <trkpt lat="47.95445" lon="4.70206">
        <ele>234</ele>
        <time>2022-05-22T20:57:57Z</time>
      </trkpt>
      <trkpt lat="47.95416" lon="4.70225">
        <ele>235</ele>
        <time>2022-05-22T20:58:03Z</time>
      </trkpt>
      <trkpt lat="47.95398" lon="4.70242">
        <ele>236</ele>
        <time>2022-05-22T20:58:06Z</time>
      </trkpt>
      <trkpt lat="47.95372" lon="4.70273">
        <ele>236</ele>
        <time>2022-05-22T20:58:12Z</time>
      </trkpt>
      <trkpt lat="47.95333" lon="4.70328">
        <ele>237</ele>
        <time>2022-05-22T20:58:22Z</time>
      </trkpt>
      <trkpt lat="47.95304" lon="4.70374">
        <ele>237</ele>
        <time>2022-05-22T20:58:29Z</time>
      </trkpt>
      <trkpt lat="47.95267" lon="4.70474">
        <ele>237</ele>
        <time>2022-05-22T20:58:43Z</time>
      </trkpt>
      <trkpt lat="47.9525" lon="4.70508">
        <ele>235</ele>
        <time>2022-05-22T20:58:48Z</time>
      </trkpt>
      <trkpt lat="47.95224" lon="4.70551">
        <ele>235</ele>
        <time>2022-05-22T20:58:55Z</time>
      </trkpt>
      <trkpt lat="47.95166" lon="4.70599">
        <ele>233</ele>
        <time>2022-05-22T20:59:07Z</time>
      </trkpt>
      <trkpt lat="47.95115" lon="4.70653">
        <ele>232</ele>
        <time>2022-05-22T20:59:18Z</time>
      </trkpt>
      <trkpt lat="47.95076" lon="4.70706">
        <ele>232</ele>
        <time>2022-05-22T20:59:27Z</time>
      </trkpt>
      <trkpt lat="47.95059" lon="4.70724">
        <ele>232</ele>
        <time>2022-05-22T20:59:31Z</time>
      </trkpt>
      <trkpt lat="47.95007" lon="4.70807">
        <ele>235</ele>
        <time>2022-05-22T20:59:44Z</time>
      </trkpt>
      <trkpt lat="47.94991" lon="4.70825">
        <ele>235</ele>
        <time>2022-05-22T20:59:48Z</time>
      </trkpt>
      <trkpt lat="47.94972" lon="4.70832">
        <ele>235</ele>
        <time>2022-05-22T20:59:52Z</time>
      </trkpt>
      <trkpt lat="47.94965" lon="4.70818">
        <ele>234</ele>
        <time>2022-05-22T20:59:54Z</time>
      </trkpt>
      <trkpt lat="47.94961" lon="4.70842">
        <ele>235</ele>
        <time>2022-05-22T20:59:57Z</time>
      </trkpt>
      <trkpt lat="47.94929" lon="4.7086">
        <ele>234</ele>
        <time>2022-05-22T21:00:03Z</time>
      </trkpt>
      <trkpt lat="47.94822" lon="4.7091">
        <ele>235</ele>
        <time>2022-05-22T21:00:23Z</time>
      </trkpt>
      <trkpt lat="47.9481" lon="4.70918">
        <ele>235</ele>
        <time>2022-05-22T21:00:25Z</time>
      </trkpt>
      <trkpt lat="47.94774" lon="4.70935">
        <ele>235</ele>
        <time>2022-05-22T21:00:32Z</time>
      </trkpt>
      <trkpt lat="47.9471" lon="4.7098">
        <ele>236</ele>
        <time>2022-05-22T21:00:44Z</time>
      </trkpt>
      <trkpt lat="47.94675" lon="4.71">
        <ele>236</ele>
        <time>2022-05-22T21:00:51Z</time>
      </trkpt>
      <trkpt lat="47.94578" lon="4.71044">
        <ele>238</ele>
        <time>2022-05-22T21:01:09Z</time>
      </trkpt>
      <trkpt lat="47.94547" lon="4.71062">
        <ele>238</ele>
        <time>2022-05-22T21:01:15Z</time>
      </trkpt>
      <trkpt lat="47.94459" lon="4.71123">
        <ele>240</ele>
        <time>2022-05-22T21:01:32Z</time>
      </trkpt>
      <trkpt lat="47.94438" lon="4.71143">
        <ele>241</ele>
        <time>2022-05-22T21:01:37Z</time>
      </trkpt>
      <trkpt lat="47.94403" lon="4.71185">
        <ele>242</ele>
        <time>2022-05-22T21:01:45Z</time>
      </trkpt>
      <trkpt lat="47.94363" lon="4.71251">
        <ele>243</ele>
        <time>2022-05-22T21:01:55Z</time>
      </trkpt>
      <trkpt lat="47.94352" lon="4.71277">
        <ele>244</ele>
        <time>2022-05-22T21:01:59Z</time>
      </trkpt>
      <trkpt lat="47.94325" lon="4.71378">
        <ele>244</ele>
        <time>2022-05-22T21:02:12Z</time>
      </trkpt>
      <trkpt lat="47.94312" lon="4.71403">
        <ele>243</ele>
        <time>2022-05-22T21:02:16Z</time>
      </trkpt>
      <trkpt lat="47.94301" lon="4.71411">
        <ele>243</ele>
        <time>2022-05-22T21:02:18Z</time>
      </trkpt>
      <trkpt lat="47.94288" lon="4.71414">
        <ele>242</ele>
        <time>2022-05-22T21:02:20Z</time>
      </trkpt>
      <trkpt lat="47.94105" lon="4.71436">
        <ele>246</ele>
        <time>2022-05-22T21:02:53Z</time>
      </trkpt>
      <trkpt lat="47.93923" lon="4.71461">
        <ele>254</ele>
        <time>2022-05-22T21:03:25Z</time>
      </trkpt>
      <trkpt lat="47.93866" lon="4.71458">
        <ele>256</ele>
        <time>2022-05-22T21:03:35Z</time>
      </trkpt>
      <trkpt lat="47.93816" lon="4.7145">
        <ele>257</ele>
        <time>2022-05-22T21:03:44Z</time>
      </trkpt>
      <trkpt lat="47.93805" lon="4.71451">
        <ele>257</ele>
        <time>2022-05-22T21:03:46Z</time>
      </trkpt>
      <trkpt lat="47.93794" lon="4.71445">
        <ele>256</ele>
        <time>2022-05-22T21:03:48Z</time>
      </trkpt>
      <trkpt lat="47.93771" lon="4.71439">
        <ele>255</ele>
        <time>2022-05-22T21:03:53Z</time>
      </trkpt>
      <trkpt lat="47.93646" lon="4.71391">
        <ele>248</ele>
        <time>2022-05-22T21:04:16Z</time>
      </trkpt>
      <trkpt lat="47.93629" lon="4.71388">
        <ele>248</ele>
        <time>2022-05-22T21:04:19Z</time>
      </trkpt>
      <trkpt lat="47.93594" lon="4.71391">
        <ele>247</ele>
        <time>2022-05-22T21:04:25Z</time>
      </trkpt>
      <trkpt lat="47.93346" lon="4.71485">
        <ele>242</ele>
        <time>2022-05-22T21:05:10Z</time>
      </trkpt>
      <trkpt lat="47.93323" lon="4.71498">
        <ele>242</ele>
        <time>2022-05-22T21:05:15Z</time>
      </trkpt>
      <trkpt lat="47.93264" lon="4.71523">
        <ele>243</ele>
        <time>2022-05-22T21:05:26Z</time>
      </trkpt>
      <trkpt lat="47.93197" lon="4.71558">
        <ele>243</ele>
        <time>2022-05-22T21:05:38Z</time>
      </trkpt>
      <trkpt lat="47.93111" lon="4.71596">
        <ele>243</ele>
        <time>2022-05-22T21:05:54Z</time>
      </trkpt>
      <trkpt lat="47.93048" lon="4.71628">
        <ele>243</ele>
        <time>2022-05-22T21:06:06Z</time>
      </trkpt>
      <trkpt lat="47.93035" lon="4.71632">
        <ele>243</ele>
        <time>2022-05-22T21:06:08Z</time>
      </trkpt>
      <trkpt lat="47.93014" lon="4.71645">
        <ele>243</ele>
        <time>2022-05-22T21:06:12Z</time>
      </trkpt>
      <trkpt lat="47.93003" lon="4.71649">
        <ele>244</ele>
        <time>2022-05-22T21:06:14Z</time>
      </trkpt>
      <trkpt lat="47.92999" lon="4.7166">
        <ele>244</ele>
        <time>2022-05-22T21:06:16Z</time>
      </trkpt>
      <trkpt lat="47.93" lon="4.71675">
        <ele>244</ele>
        <time>2022-05-22T21:06:18Z</time>
      </trkpt>
      <trkpt lat="47.93014" lon="4.71695">
        <ele>244</ele>
        <time>2022-05-22T21:06:21Z</time>
      </trkpt>
      <trkpt lat="47.92997" lon="4.7167">
        <ele>244</ele>
        <time>2022-05-22T21:06:25Z</time>
      </trkpt>
      <trkpt lat="47.92979" lon="4.71649">
        <ele>243</ele>
        <time>2022-05-22T21:06:30Z</time>
      </trkpt>
      <trkpt lat="47.92967" lon="4.71643">
        <ele>243</ele>
        <time>2022-05-22T21:06:32Z</time>
      </trkpt>
      <trkpt lat="47.92892" lon="4.71572">
        <ele>242</ele>
        <time>2022-05-22T21:06:48Z</time>
      </trkpt>
      <trkpt lat="47.92883" lon="4.71565">
        <ele>242</ele>
        <time>2022-05-22T21:06:49Z</time>
      </trkpt>
      <trkpt lat="47.92872" lon="4.71561">
        <ele>243</ele>
        <time>2022-05-22T21:06:51Z</time>
      </trkpt>
      <trkpt lat="47.9286" lon="4.71566">
        <ele>243</ele>
        <time>2022-05-22T21:06:54Z</time>
      </trkpt>
      <trkpt lat="47.92836" lon="4.71602">
        <ele>243</ele>
        <time>2022-05-22T21:07:00Z</time>
      </trkpt>
      <trkpt lat="47.92805" lon="4.71666">
        <ele>242</ele>
        <time>2022-05-22T21:07:09Z</time>
      </trkpt>
      <trkpt lat="47.9275" lon="4.71762">
        <ele>242</ele>
        <time>2022-05-22T21:07:24Z</time>
      </trkpt>
      <trkpt lat="47.92729" lon="4.71794">
        <ele>242</ele>
        <time>2022-05-22T21:07:29Z</time>
      </trkpt>
      <trkpt lat="47.92716" lon="4.71821">
        <ele>242</ele>
        <time>2022-05-22T21:07:33Z</time>
      </trkpt>
      <trkpt lat="47.92663" lon="4.71911">
        <ele>241</ele>
        <time>2022-05-22T21:07:48Z</time>
      </trkpt>
      <trkpt lat="47.92634" lon="4.71967">
        <ele>243</ele>
        <time>2022-05-22T21:07:56Z</time>
      </trkpt>
      <trkpt lat="47.92595" lon="4.72051">
        <ele>243</ele>
        <time>2022-05-22T21:08:08Z</time>
      </trkpt>
      <trkpt lat="47.92569" lon="4.72095">
        <ele>243</ele>
        <time>2022-05-22T21:08:15Z</time>
      </trkpt>
      <trkpt lat="47.92496" lon="4.72184">
        <ele>244</ele>
        <time>2022-05-22T21:08:32Z</time>
      </trkpt>
      <trkpt lat="47.92347" lon="4.72397">
        <ele>245</ele>
        <time>2022-05-22T21:09:09Z</time>
      </trkpt>
      <trkpt lat="47.92252" lon="4.72515">
        <ele>246</ele>
        <time>2022-05-22T21:09:31Z</time>
      </trkpt>
      <trkpt lat="47.92222" lon="4.72562">
        <ele>246</ele>
        <time>2022-05-22T21:09:39Z</time>
      </trkpt>
      <trkpt lat="47.92185" lon="4.72634">
        <ele>246</ele>
        <time>2022-05-22T21:09:49Z</time>
      </trkpt>
      <trkpt lat="47.92137" lon="4.72774">
        <ele>246</ele>
        <time>2022-05-22T21:10:08Z</time>
      </trkpt>
      <trkpt lat="47.9211" lon="4.72837">
        <ele>247</ele>
        <time>2022-05-22T21:10:17Z</time>
      </trkpt>
      <trkpt lat="47.92081" lon="4.72896">
        <ele>247</ele>
        <time>2022-05-22T21:10:26Z</time>
      </trkpt>
      <trkpt lat="47.92058" lon="4.72927">
        <ele>247</ele>
        <time>2022-05-22T21:10:31Z</time>
      </trkpt>
      <trkpt lat="47.92034" lon="4.72946">
        <ele>248</ele>
        <time>2022-05-22T21:10:36Z</time>
      </trkpt>
      <trkpt lat="47.92007" lon="4.72961">
        <ele>248</ele>
        <time>2022-05-22T21:10:41Z</time>
      </trkpt>
      <trkpt lat="47.9197" lon="4.72976">
        <ele>248</ele>
        <time>2022-05-22T21:10:48Z</time>
      </trkpt>
      <trkpt lat="47.91946" lon="4.72989">
        <ele>248</ele>
        <time>2022-05-22T21:10:53Z</time>
      </trkpt>
      <trkpt lat="47.91908" lon="4.73014">
        <ele>248</ele>
        <time>2022-05-22T21:11:00Z</time>
      </trkpt>
      <trkpt lat="47.91866" lon="4.73047">
        <ele>248</ele>
        <time>2022-05-22T21:11:08Z</time>
      </trkpt>
      <trkpt lat="47.91803" lon="4.73104">
        <ele>249</ele>
        <time>2022-05-22T21:11:22Z</time>
      </trkpt>
      <trkpt lat="47.91678" lon="4.73231">
        <ele>248</ele>
        <time>2022-05-22T21:11:48Z</time>
      </trkpt>
      <trkpt lat="47.91659" lon="4.73247">
        <ele>249</ele>
        <time>2022-05-22T21:11:52Z</time>
      </trkpt>
      <trkpt lat="47.9164" lon="4.73272">
        <ele>250</ele>
        <time>2022-05-22T21:11:57Z</time>
      </trkpt>
      <trkpt lat="47.91606" lon="4.73329">
        <ele>251</ele>
        <time>2022-05-22T21:12:06Z</time>
      </trkpt>
      <trkpt lat="47.91576" lon="4.73401">
        <ele>253</ele>
        <time>2022-05-22T21:12:16Z</time>
      </trkpt>
      <trkpt lat="47.91554" lon="4.73442">
        <ele>253</ele>
        <time>2022-05-22T21:12:22Z</time>
      </trkpt>
      <trkpt lat="47.91543" lon="4.73447">
        <ele>253</ele>
        <time>2022-05-22T21:12:24Z</time>
      </trkpt>
      <trkpt lat="47.91526" lon="4.73439">
        <ele>254</ele>
        <time>2022-05-22T21:12:28Z</time>
      </trkpt>
      <trkpt lat="47.91518" lon="4.7343">
        <ele>254</ele>
        <time>2022-05-22T21:12:29Z</time>
      </trkpt>
      <trkpt lat="47.91512" lon="4.73417">
        <ele>254</ele>
        <time>2022-05-22T21:12:31Z</time>
      </trkpt>
      <trkpt lat="47.91489" lon="4.73396">
        <ele>254</ele>
        <time>2022-05-22T21:12:36Z</time>
      </trkpt>
      <trkpt lat="47.91455" lon="4.73358">
        <ele>253</ele>
        <time>2022-05-22T21:12:44Z</time>
      </trkpt>
      <trkpt lat="47.91448" lon="4.73344">
        <ele>253</ele>
        <time>2022-05-22T21:12:46Z</time>
      </trkpt>
      <trkpt lat="47.91435" lon="4.73298">
        <ele>252</ele>
        <time>2022-05-22T21:12:52Z</time>
      </trkpt>
      <trkpt lat="47.91421" lon="4.73274">
        <ele>252</ele>
        <time>2022-05-22T21:12:55Z</time>
      </trkpt>
      <trkpt lat="47.9139" lon="4.73143">
        <ele>250</ele>
        <time>2022-05-22T21:13:12Z</time>
      </trkpt>
      <trkpt lat="47.91391" lon="4.73168">
        <ele>250</ele>
        <time>2022-05-22T21:13:15Z</time>
      </trkpt>
      <trkpt lat="47.91446" lon="4.73342">
        <ele>253</ele>
        <time>2022-05-22T21:13:38Z</time>
      </trkpt>
      <trkpt lat="47.91454" lon="4.73357">
        <ele>253</ele>
        <time>2022-05-22T21:13:40Z</time>
      </trkpt>
      <trkpt lat="47.91468" lon="4.73375">
        <ele>253</ele>
        <time>2022-05-22T21:13:43Z</time>
      </trkpt>
      <trkpt lat="47.91503" lon="4.73405">
        <ele>254</ele>
        <time>2022-05-22T21:13:51Z</time>
      </trkpt>
      <trkpt lat="47.91519" lon="4.73429">
        <ele>254</ele>
        <time>2022-05-22T21:13:55Z</time>
      </trkpt>
      <trkpt lat="47.91531" lon="4.73459">
        <ele>254</ele>
        <time>2022-05-22T21:13:59Z</time>
      </trkpt>
      <trkpt lat="47.91533" lon="4.73504">
        <ele>254</ele>
        <time>2022-05-22T21:14:04Z</time>
      </trkpt>
      <trkpt lat="47.91544" lon="4.73601">
        <ele>253</ele>
        <time>2022-05-22T21:14:16Z</time>
      </trkpt>
      <trkpt lat="47.91542" lon="4.73619">
        <ele>253</ele>
        <time>2022-05-22T21:14:18Z</time>
      </trkpt>
      <trkpt lat="47.91544" lon="4.73633">
        <ele>254</ele>
        <time>2022-05-22T21:14:20Z</time>
      </trkpt>
      <trkpt lat="47.91546" lon="4.73796">
        <ele>252</ele>
        <time>2022-05-22T21:14:39Z</time>
      </trkpt>
      <trkpt lat="47.91575" lon="4.74411">
        <ele>254</ele>
        <time>2022-05-22T21:15:53Z</time>
      </trkpt>
      <trkpt lat="47.91578" lon="4.74451">
        <ele>254</ele>
        <time>2022-05-22T21:15:58Z</time>
      </trkpt>
      <trkpt lat="47.9159" lon="4.74539">
        <ele>254</ele>
        <time>2022-05-22T21:16:08Z</time>
      </trkpt>
      <trkpt lat="47.91659" lon="4.74911">
        <ele>258</ele>
        <time>2022-05-22T21:16:54Z</time>
      </trkpt>
      <trkpt lat="47.9183" lon="4.75795">
        <ele>268</ele>
        <time>2022-05-22T21:18:44Z</time>
      </trkpt>
      <trkpt lat="47.91987" lon="4.76582">
        <ele>262</ele>
        <time>2022-05-22T21:20:22Z</time>
      </trkpt>
      <trkpt lat="47.92019" lon="4.7676">
        <ele>259</ele>
        <time>2022-05-22T21:20:44Z</time>
      </trkpt>
      <trkpt lat="47.92048" lon="4.76885">
        <ele>259</ele>
        <time>2022-05-22T21:21:00Z</time>
      </trkpt>
      <trkpt lat="47.92056" lon="4.76914">
        <ele>259</ele>
        <time>2022-05-22T21:21:03Z</time>
      </trkpt>
      <trkpt lat="47.92063" lon="4.76925">
        <ele>259</ele>
        <time>2022-05-22T21:21:05Z</time>
      </trkpt>
      <trkpt lat="47.92073" lon="4.7693">
        <ele>259</ele>
        <time>2022-05-22T21:21:07Z</time>
      </trkpt>
      <trkpt lat="47.92083" lon="4.76927">
        <ele>260</ele>
        <time>2022-05-22T21:21:09Z</time>
      </trkpt>
      <trkpt lat="47.92092" lon="4.7693">
        <ele>260</ele>
        <time>2022-05-22T21:21:11Z</time>
      </trkpt>
      <trkpt lat="47.92321" lon="4.77064">
        <ele>263</ele>
        <time>2022-05-22T21:21:54Z</time>
      </trkpt>
      <trkpt lat="47.92331" lon="4.77063">
        <ele>263</ele>
        <time>2022-05-22T21:21:56Z</time>
      </trkpt>
      <trkpt lat="47.92339" lon="4.77057">
        <ele>262</ele>
        <time>2022-05-22T21:21:58Z</time>
      </trkpt>
      <trkpt lat="47.92367" lon="4.77077">
        <ele>262</ele>
        <time>2022-05-22T21:22:03Z</time>
      </trkpt>
      <trkpt lat="47.92237" lon="4.77015">
        <ele>262</ele>
        <time>2022-05-22T21:22:28Z</time>
      </trkpt>
      <trkpt lat="47.92102" lon="4.76936">
        <ele>260</ele>
        <time>2022-05-22T21:22:53Z</time>
      </trkpt>
      <trkpt lat="47.92078" lon="4.76916">
        <ele>260</ele>
        <time>2022-05-22T21:22:58Z</time>
      </trkpt>
      <trkpt lat="47.92065" lon="4.76913">
        <ele>259</ele>
        <time>2022-05-22T21:23:01Z</time>
      </trkpt>
      <trkpt lat="47.92033" lon="4.76923">
        <ele>258</ele>
        <time>2022-05-22T21:23:06Z</time>
      </trkpt>
      <trkpt lat="47.92021" lon="4.76918">
        <ele>258</ele>
        <time>2022-05-22T21:23:09Z</time>
      </trkpt>
      <trkpt lat="47.91994" lon="4.76881">
        <ele>258</ele>
        <time>2022-05-22T21:23:15Z</time>
      </trkpt>
      <trkpt lat="47.91975" lon="4.76861">
        <ele>258</ele>
        <time>2022-05-22T21:23:19Z</time>
      </trkpt>
      <trkpt lat="47.91953" lon="4.76846">
        <ele>259</ele>
        <time>2022-05-22T21:23:24Z</time>
      </trkpt>
      <trkpt lat="47.91801" lon="4.76759">
        <ele>259</ele>
        <time>2022-05-22T21:23:53Z</time>
      </trkpt>
      <trkpt lat="47.91751" lon="4.76727">
        <ele>260</ele>
        <time>2022-05-22T21:24:02Z</time>
      </trkpt>
      <trkpt lat="47.9144" lon="4.76547">
        <ele>265</ele>
        <time>2022-05-22T21:25:02Z</time>
      </trkpt>
      <trkpt lat="47.91421" lon="4.76534">
        <ele>266</ele>
        <time>2022-05-22T21:25:05Z</time>
      </trkpt>
      <trkpt lat="47.91294" lon="4.76462">
        <ele>267</ele>
        <time>2022-05-22T21:25:29Z</time>
      </trkpt>
      <trkpt lat="47.91162" lon="4.76382">
        <ele>269</ele>
        <time>2022-05-22T21:25:55Z</time>
      </trkpt>
      <trkpt lat="47.90858" lon="4.76206">
        <ele>272</ele>
        <time>2022-05-22T21:26:53Z</time>
      </trkpt>
      <trkpt lat="47.90831" lon="4.76188">
        <ele>273</ele>
        <time>2022-05-22T21:26:58Z</time>
      </trkpt>
      <trkpt lat="47.90747" lon="4.76139">
        <ele>275</ele>
        <time>2022-05-22T21:27:14Z</time>
      </trkpt>
      <trkpt lat="47.90738" lon="4.76136">
        <ele>275</ele>
        <time>2022-05-22T21:27:16Z</time>
      </trkpt>
      <trkpt lat="47.90646" lon="4.76079">
        <ele>279</ele>
        <time>2022-05-22T21:27:34Z</time>
      </trkpt>
      <trkpt lat="47.90613" lon="4.76063">
        <ele>279</ele>
        <time>2022-05-22T21:27:40Z</time>
      </trkpt>
      <trkpt lat="47.9059" lon="4.76056">
        <ele>280</ele>
        <time>2022-05-22T21:27:44Z</time>
      </trkpt>
      <trkpt lat="47.90521" lon="4.76057">
        <ele>280</ele>
        <time>2022-05-22T21:27:56Z</time>
      </trkpt>
      <trkpt lat="47.90411" lon="4.76034">
        <ele>282</ele>
        <time>2022-05-22T21:28:16Z</time>
      </trkpt>
      <trkpt lat="47.9023" lon="4.75989">
        <ele>287</ele>
        <time>2022-05-22T21:28:49Z</time>
      </trkpt>
      <trkpt lat="47.90101" lon="4.75952">
        <ele>291</ele>
        <time>2022-05-22T21:29:12Z</time>
      </trkpt>
      <trkpt lat="47.9008" lon="4.75948">
        <ele>292</ele>
        <time>2022-05-22T21:29:16Z</time>
      </trkpt>
      <trkpt lat="47.90069" lon="4.75943">
        <ele>293</ele>
        <time>2022-05-22T21:29:18Z</time>
      </trkpt>
      <trkpt lat="47.90048" lon="4.75939">
        <ele>293</ele>
        <time>2022-05-22T21:29:22Z</time>
      </trkpt>
      <trkpt lat="47.89987" lon="4.75919">
        <ele>294</ele>
        <time>2022-05-22T21:29:33Z</time>
      </trkpt>
      <trkpt lat="47.89952" lon="4.75913">
        <ele>294</ele>
        <time>2022-05-22T21:29:39Z</time>
      </trkpt>
      <trkpt lat="47.8993" lon="4.75904">
        <ele>294</ele>
        <time>2022-05-22T21:29:43Z</time>
      </trkpt>
      <trkpt lat="47.89891" lon="4.75896">
        <ele>295</ele>
        <time>2022-05-22T21:29:50Z</time>
      </trkpt>
      <trkpt lat="47.89813" lon="4.75889">
        <ele>296</ele>
        <time>2022-05-22T21:30:04Z</time>
      </trkpt>
      <trkpt lat="47.89757" lon="4.75876">
        <ele>296</ele>
        <time>2022-05-22T21:30:14Z</time>
      </trkpt>
      <trkpt lat="47.89735" lon="4.75875">
        <ele>297</ele>
        <time>2022-05-22T21:30:18Z</time>
      </trkpt>
      <trkpt lat="47.89714" lon="4.75871">
        <ele>296</ele>
        <time>2022-05-22T21:30:22Z</time>
      </trkpt>
      <trkpt lat="47.89694" lon="4.75865">
        <ele>296</ele>
        <time>2022-05-22T21:30:25Z</time>
      </trkpt>
      <trkpt lat="47.89628" lon="4.75857">
        <ele>297</ele>
        <time>2022-05-22T21:30:37Z</time>
      </trkpt>
      <trkpt lat="47.89566" lon="4.75841">
        <ele>299</ele>
        <time>2022-05-22T21:30:48Z</time>
      </trkpt>
      <trkpt lat="47.89534" lon="4.75838">
        <ele>298</ele>
        <time>2022-05-22T21:30:54Z</time>
      </trkpt>
      <trkpt lat="47.8949" lon="4.75828">
        <ele>298</ele>
        <time>2022-05-22T21:31:02Z</time>
      </trkpt>
      <trkpt lat="47.89449" lon="4.75825">
        <ele>298</ele>
        <time>2022-05-22T21:31:09Z</time>
      </trkpt>
      <trkpt lat="47.89277" lon="4.75792">
        <ele>301</ele>
        <time>2022-05-22T21:31:40Z</time>
      </trkpt>
      <trkpt lat="47.88934" lon="4.75736">
        <ele>302</ele>
        <time>2022-05-22T21:32:41Z</time>
      </trkpt>
      <trkpt lat="47.8888" lon="4.75729">
        <ele>302</ele>
        <time>2022-05-22T21:32:51Z</time>
      </trkpt>
      <trkpt lat="47.8886" lon="4.75724">
        <ele>302</ele>
        <time>2022-05-22T21:32:55Z</time>
      </trkpt>
      <trkpt lat="47.88836" lon="4.75722">
        <ele>302</ele>
        <time>2022-05-22T21:32:59Z</time>
      </trkpt>
      <trkpt lat="47.88794" lon="4.75713">
        <ele>303</ele>
        <time>2022-05-22T21:33:06Z</time>
      </trkpt>
      <trkpt lat="47.88754" lon="4.75709">
        <ele>304</ele>
        <time>2022-05-22T21:33:14Z</time>
      </trkpt>
      <trkpt lat="47.88697" lon="4.75698">
        <ele>306</ele>
        <time>2022-05-22T21:33:24Z</time>
      </trkpt>
      <trkpt lat="47.88686" lon="4.75698">
        <ele>306</ele>
        <time>2022-05-22T21:33:26Z</time>
      </trkpt>
      <trkpt lat="47.88574" lon="4.75677">
        <ele>309</ele>
        <time>2022-05-22T21:33:46Z</time>
      </trkpt>
      <trkpt lat="47.88554" lon="4.75676">
        <ele>310</ele>
        <time>2022-05-22T21:33:49Z</time>
      </trkpt>
      <trkpt lat="47.88514" lon="4.75668">
        <ele>312</ele>
        <time>2022-05-22T21:33:57Z</time>
      </trkpt>
      <trkpt lat="47.88493" lon="4.75667">
        <ele>312</ele>
        <time>2022-05-22T21:34:00Z</time>
      </trkpt>
      <trkpt lat="47.88422" lon="4.75654">
        <ele>313</ele>
        <time>2022-05-22T21:34:13Z</time>
      </trkpt>
      <trkpt lat="47.88402" lon="4.75654">
        <ele>313</ele>
        <time>2022-05-22T21:34:17Z</time>
      </trkpt>
      <trkpt lat="47.88339" lon="4.7564">
        <ele>315</ele>
        <time>2022-05-22T21:34:28Z</time>
      </trkpt>
      <trkpt lat="47.88195" lon="4.75617">
        <ele>314</ele>
        <time>2022-05-22T21:34:54Z</time>
      </trkpt>
      <trkpt lat="47.88044" lon="4.75597">
        <ele>325</ele>
        <time>2022-05-22T21:35:21Z</time>
      </trkpt>
      <trkpt lat="47.88014" lon="4.75591">
        <ele>329</ele>
        <time>2022-05-22T21:35:26Z</time>
      </trkpt>
      <trkpt lat="47.87994" lon="4.75584">
        <ele>331</ele>
        <time>2022-05-22T21:35:30Z</time>
      </trkpt>
      <trkpt lat="47.87955" lon="4.75563">
        <ele>333</ele>
        <time>2022-05-22T21:35:37Z</time>
      </trkpt>
      <trkpt lat="47.8792" lon="4.75538">
        <ele>337</ele>
        <time>2022-05-22T21:35:44Z</time>
      </trkpt>
      <trkpt lat="47.87874" lon="4.75516">
        <ele>339</ele>
        <time>2022-05-22T21:35:53Z</time>
      </trkpt>
      <trkpt lat="47.87854" lon="4.7551">
        <ele>339</ele>
        <time>2022-05-22T21:35:56Z</time>
      </trkpt>
      <trkpt lat="47.87833" lon="4.75507">
        <ele>340</ele>
        <time>2022-05-22T21:36:00Z</time>
      </trkpt>
      <trkpt lat="47.87793" lon="4.75509">
        <ele>343</ele>
        <time>2022-05-22T21:36:07Z</time>
      </trkpt>
      <trkpt lat="47.87753" lon="4.7552">
        <ele>345</ele>
        <time>2022-05-22T21:36:14Z</time>
      </trkpt>
      <trkpt lat="47.87707" lon="4.75545">
        <ele>345</ele>
        <time>2022-05-22T21:36:23Z</time>
      </trkpt>
      <trkpt lat="47.87698" lon="4.75547">
        <ele>345</ele>
        <time>2022-05-22T21:36:25Z</time>
      </trkpt>
      <trkpt lat="47.87666" lon="4.75563">
        <ele>345</ele>
        <time>2022-05-22T21:36:31Z</time>
      </trkpt>
      <trkpt lat="47.87619" lon="4.7559">
        <ele>344</ele>
        <time>2022-05-22T21:36:40Z</time>
      </trkpt>
      <trkpt lat="47.87588" lon="4.75603">
        <ele>344</ele>
        <time>2022-05-22T21:36:45Z</time>
      </trkpt>
      <trkpt lat="47.87578" lon="4.75605">
        <ele>344</ele>
        <time>2022-05-22T21:36:47Z</time>
      </trkpt>
      <trkpt lat="47.8748" lon="4.75647">
        <ele>346</ele>
        <time>2022-05-22T21:37:05Z</time>
      </trkpt>
      <trkpt lat="47.8746" lon="4.75659">
        <ele>346</ele>
        <time>2022-05-22T21:37:09Z</time>
      </trkpt>
      <trkpt lat="47.87392" lon="4.75691">
        <ele>349</ele>
        <time>2022-05-22T21:37:22Z</time>
      </trkpt>
      <trkpt lat="47.87382" lon="4.75699">
        <ele>350</ele>
        <time>2022-05-22T21:37:24Z</time>
      </trkpt>
      <trkpt lat="47.87251" lon="4.75758">
        <ele>354</ele>
        <time>2022-05-22T21:37:48Z</time>
      </trkpt>
      <trkpt lat="47.87212" lon="4.7578">
        <ele>354</ele>
        <time>2022-05-22T21:37:56Z</time>
      </trkpt>
      <trkpt lat="47.8718" lon="4.75794">
        <ele>353</ele>
        <time>2022-05-22T21:38:02Z</time>
      </trkpt>
      <trkpt lat="47.87122" lon="4.75827">
        <ele>352</ele>
        <time>2022-05-22T21:38:13Z</time>
      </trkpt>
      <trkpt lat="47.8711" lon="4.7583">
        <ele>352</ele>
        <time>2022-05-22T21:38:15Z</time>
      </trkpt>
      <trkpt lat="47.87088" lon="4.75842">
        <ele>352</ele>
        <time>2022-05-22T21:38:19Z</time>
      </trkpt>
      <trkpt lat="47.87078" lon="4.75844">
        <ele>352</ele>
        <time>2022-05-22T21:38:21Z</time>
      </trkpt>
      <trkpt lat="47.87058" lon="4.75856">
        <ele>353</ele>
        <time>2022-05-22T21:38:25Z</time>
      </trkpt>
      <trkpt lat="47.8699" lon="4.75882">
        <ele>357</ele>
        <time>2022-05-22T21:38:37Z</time>
      </trkpt>
      <trkpt lat="47.86928" lon="4.75915">
        <ele>359</ele>
        <time>2022-05-22T21:38:49Z</time>
      </trkpt>
      <trkpt lat="47.86887" lon="4.75932">
        <ele>360</ele>
        <time>2022-05-22T21:38:56Z</time>
      </trkpt>
      <trkpt lat="47.86846" lon="4.75954">
        <ele>362</ele>
        <time>2022-05-22T21:39:04Z</time>
      </trkpt>
      <trkpt lat="47.86836" lon="4.75957">
        <ele>362</ele>
        <time>2022-05-22T21:39:06Z</time>
      </trkpt>
      <trkpt lat="47.8679" lon="4.75983">
        <ele>365</ele>
        <time>2022-05-22T21:39:15Z</time>
      </trkpt>
      <trkpt lat="47.8668" lon="4.76033">
        <ele>372</ele>
        <time>2022-05-22T21:39:35Z</time>
      </trkpt>
      <trkpt lat="47.86625" lon="4.76064">
        <ele>376</ele>
        <time>2022-05-22T21:39:46Z</time>
      </trkpt>
      <trkpt lat="47.86547" lon="4.761">
        <ele>380</ele>
        <time>2022-05-22T21:40:00Z</time>
      </trkpt>
      <trkpt lat="47.86467" lon="4.7613">
        <ele>380</ele>
        <time>2022-05-22T21:40:15Z</time>
      </trkpt>
      <trkpt lat="47.86459" lon="4.76125">
        <ele>380</ele>
        <time>2022-05-22T21:40:16Z</time>
      </trkpt>
      <trkpt lat="47.86452" lon="4.76076">
        <ele>378</ele>
        <time>2022-05-22T21:40:22Z</time>
      </trkpt>
      <trkpt lat="47.86459" lon="4.76088">
        <ele>379</ele>
        <time>2022-05-22T21:40:24Z</time>
      </trkpt>
      <trkpt lat="47.86467" lon="4.76112">
        <ele>380</ele>
        <time>2022-05-22T21:40:27Z</time>
      </trkpt>
      <trkpt lat="47.86452" lon="4.76132">
        <ele>380</ele>
        <time>2022-05-22T21:40:31Z</time>
      </trkpt>
      <trkpt lat="47.86407" lon="4.76151">
        <ele>378</ele>
        <time>2022-05-22T21:40:39Z</time>
      </trkpt>
      <trkpt lat="47.8624" lon="4.7623">
        <ele>367</ele>
        <time>2022-05-22T21:41:11Z</time>
      </trkpt>
      <trkpt lat="47.86227" lon="4.76238">
        <ele>367</ele>
        <time>2022-05-22T21:41:13Z</time>
      </trkpt>
      <trkpt lat="47.86117" lon="4.76288">
        <ele>365</ele>
        <time>2022-05-22T21:41:34Z</time>
      </trkpt>
      <trkpt lat="47.85927" lon="4.76387">
        <ele>371</ele>
        <time>2022-05-22T21:42:09Z</time>
      </trkpt>
      <trkpt lat="47.859" lon="4.76399">
        <ele>372</ele>
        <time>2022-05-22T21:42:14Z</time>
      </trkpt>
      <trkpt lat="47.85858" lon="4.76422">
        <ele>373</ele>
        <time>2022-05-22T21:42:22Z</time>
      </trkpt>
      <trkpt lat="47.85846" lon="4.76426">
        <ele>374</ele>
        <time>2022-05-22T21:42:24Z</time>
      </trkpt>
      <trkpt lat="47.85836" lon="4.76433">
        <ele>374</ele>
        <time>2022-05-22T21:42:26Z</time>
      </trkpt>
      <trkpt lat="47.85824" lon="4.76437">
        <ele>374</ele>
        <time>2022-05-22T21:42:29Z</time>
      </trkpt>
      <trkpt lat="47.85676" lon="4.76511">
        <ele>375</ele>
        <time>2022-05-22T21:42:56Z</time>
      </trkpt>
      <trkpt lat="47.8554" lon="4.76573">
        <ele>374</ele>
        <time>2022-05-22T21:43:22Z</time>
      </trkpt>
      <trkpt lat="47.85476" lon="4.76607">
        <ele>373</ele>
        <time>2022-05-22T21:43:34Z</time>
      </trkpt>
      <trkpt lat="47.85326" lon="4.76674">
        <ele>373</ele>
        <time>2022-05-22T21:44:02Z</time>
      </trkpt>
      <trkpt lat="47.85305" lon="4.76687">
        <ele>374</ele>
        <time>2022-05-22T21:44:06Z</time>
      </trkpt>
      <trkpt lat="47.8514" lon="4.7677">
        <ele>373</ele>
        <time>2022-05-22T21:44:37Z</time>
      </trkpt>
      <trkpt lat="47.85112" lon="4.76787">
        <ele>373</ele>
        <time>2022-05-22T21:44:42Z</time>
      </trkpt>
      <trkpt lat="47.84982" lon="4.76854">
        <ele>368</ele>
        <time>2022-05-22T21:45:07Z</time>
      </trkpt>
      <trkpt lat="47.84953" lon="4.76871">
        <ele>369</ele>
        <time>2022-05-22T21:45:12Z</time>
      </trkpt>
      <trkpt lat="47.84945" lon="4.76878">
        <ele>370</ele>
        <time>2022-05-22T21:45:14Z</time>
      </trkpt>
      <trkpt lat="47.84917" lon="4.7689">
        <ele>371</ele>
        <time>2022-05-22T21:45:19Z</time>
      </trkpt>
      <trkpt lat="47.84832" lon="4.76935">
        <ele>374</ele>
        <time>2022-05-22T21:45:35Z</time>
      </trkpt>
      <trkpt lat="47.84722" lon="4.77007">
        <ele>375</ele>
        <time>2022-05-22T21:45:56Z</time>
      </trkpt>
      <trkpt lat="47.84669" lon="4.77036">
        <ele>373</ele>
        <time>2022-05-22T21:46:06Z</time>
      </trkpt>
      <trkpt lat="47.84616" lon="4.77069">
        <ele>373</ele>
        <time>2022-05-22T21:46:17Z</time>
      </trkpt>
      <trkpt lat="47.84594" lon="4.77079">
        <ele>373</ele>
        <time>2022-05-22T21:46:21Z</time>
      </trkpt>
      <trkpt lat="47.84524" lon="4.77125">
        <ele>371</ele>
        <time>2022-05-22T21:46:34Z</time>
      </trkpt>
      <trkpt lat="47.84468" lon="4.77157">
        <ele>369</ele>
        <time>2022-05-22T21:46:45Z</time>
      </trkpt>
      <trkpt lat="47.84448" lon="4.77173">
        <ele>369</ele>
        <time>2022-05-22T21:46:49Z</time>
      </trkpt>
      <trkpt lat="47.8441" lon="4.77197">
        <ele>369</ele>
        <time>2022-05-22T21:46:56Z</time>
      </trkpt>
      <trkpt lat="47.84342" lon="4.77251">
        <ele>372</ele>
        <time>2022-05-22T21:47:10Z</time>
      </trkpt>
      <trkpt lat="47.84298" lon="4.77294">
        <ele>373</ele>
        <time>2022-05-22T21:47:19Z</time>
      </trkpt>
      <trkpt lat="47.84244" lon="4.77353">
        <ele>373</ele>
        <time>2022-05-22T21:47:31Z</time>
      </trkpt>
      <trkpt lat="47.84238" lon="4.77364">
        <ele>373</ele>
        <time>2022-05-22T21:47:33Z</time>
      </trkpt>
      <trkpt lat="47.842" lon="4.77412">
        <ele>375</ele>
        <time>2022-05-22T21:47:42Z</time>
      </trkpt>
      <trkpt lat="47.84139" lon="4.77509">
        <ele>377</ele>
        <time>2022-05-22T21:47:58Z</time>
      </trkpt>
      <trkpt lat="47.84108" lon="4.77565">
        <ele>378</ele>
        <time>2022-05-22T21:48:06Z</time>
      </trkpt>
      <trkpt lat="47.84052" lon="4.77656">
        <ele>379</ele>
        <time>2022-05-22T21:48:21Z</time>
      </trkpt>
      <trkpt lat="47.83932" lon="4.77821">
        <ele>379</ele>
        <time>2022-05-22T21:48:50Z</time>
      </trkpt>
      <trkpt lat="47.83911" lon="4.7786">
        <ele>379</ele>
        <time>2022-05-22T21:48:56Z</time>
      </trkpt>
      <trkpt lat="47.83865" lon="4.7796">
        <ele>377</ele>
        <time>2022-05-22T21:49:11Z</time>
      </trkpt>
      <trkpt lat="47.83844" lon="4.77995">
        <ele>376</ele>
        <time>2022-05-22T21:49:16Z</time>
      </trkpt>
      <trkpt lat="47.83819" lon="4.78026">
        <ele>376</ele>
        <time>2022-05-22T21:49:22Z</time>
      </trkpt>
      <trkpt lat="47.83797" lon="4.78043">
        <ele>377</ele>
        <time>2022-05-22T21:49:27Z</time>
      </trkpt>
      <trkpt lat="47.83765" lon="4.78063">
        <ele>378</ele>
        <time>2022-05-22T21:49:33Z</time>
      </trkpt>
      <trkpt lat="47.83745" lon="4.78071">
        <ele>378</ele>
        <time>2022-05-22T21:49:36Z</time>
      </trkpt>
      <trkpt lat="47.83723" lon="4.78084">
        <ele>379</ele>
        <time>2022-05-22T21:49:41Z</time>
      </trkpt>
      <trkpt lat="47.83664" lon="4.78112">
        <ele>380</ele>
        <time>2022-05-22T21:49:52Z</time>
      </trkpt>
      <trkpt lat="47.83602" lon="4.78151">
        <ele>379</ele>
        <time>2022-05-22T21:50:04Z</time>
      </trkpt>
      <trkpt lat="47.83533" lon="4.78201">
        <ele>374</ele>
        <time>2022-05-22T21:50:17Z</time>
      </trkpt>
      <trkpt lat="47.83349" lon="4.78319">
        <ele>365</ele>
        <time>2022-05-22T21:50:53Z</time>
      </trkpt>
      <trkpt lat="47.8333" lon="4.78329">
        <ele>365</ele>
        <time>2022-05-22T21:50:56Z</time>
      </trkpt>
      <trkpt lat="47.83258" lon="4.78356">
        <ele>362</ele>
        <time>2022-05-22T21:51:10Z</time>
      </trkpt>
      <trkpt lat="47.83224" lon="4.78375">
        <ele>362</ele>
        <time>2022-05-22T21:51:16Z</time>
      </trkpt>
      <trkpt lat="47.83186" lon="4.78405">
        <ele>364</ele>
        <time>2022-05-22T21:51:24Z</time>
      </trkpt>
      <trkpt lat="47.83152" lon="4.78438">
        <ele>365</ele>
        <time>2022-05-22T21:51:31Z</time>
      </trkpt>
      <trkpt lat="47.83043" lon="4.78535">
        <ele>364</ele>
        <time>2022-05-22T21:51:54Z</time>
      </trkpt>
      <trkpt lat="47.83023" lon="4.78547">
        <ele>364</ele>
        <time>2022-05-22T21:51:57Z</time>
      </trkpt>
      <trkpt lat="47.82932" lon="4.78614">
        <ele>357</ele>
        <time>2022-05-22T21:52:16Z</time>
      </trkpt>
      <trkpt lat="47.82906" lon="4.78637">
        <ele>355</ele>
        <time>2022-05-22T21:52:21Z</time>
      </trkpt>
      <trkpt lat="47.82896" lon="4.78653">
        <ele>354</ele>
        <time>2022-05-22T21:52:23Z</time>
      </trkpt>
      <trkpt lat="47.82876" lon="4.7869">
        <ele>351</ele>
        <time>2022-05-22T21:52:29Z</time>
      </trkpt>
      <trkpt lat="47.82826" lon="4.78799">
        <ele>347</ele>
        <time>2022-05-22T21:52:45Z</time>
      </trkpt>
      <trkpt lat="47.82796" lon="4.78851">
        <ele>344</ele>
        <time>2022-05-22T21:52:53Z</time>
      </trkpt>
      <trkpt lat="47.82767" lon="4.78885">
        <ele>343</ele>
        <time>2022-05-22T21:53:00Z</time>
      </trkpt>
      <trkpt lat="47.82749" lon="4.78898">
        <ele>344</ele>
        <time>2022-05-22T21:53:03Z</time>
      </trkpt>
      <trkpt lat="47.82699" lon="4.78919">
        <ele>341</ele>
        <time>2022-05-22T21:53:12Z</time>
      </trkpt>
      <trkpt lat="47.82617" lon="4.78927">
        <ele>339</ele>
        <time>2022-05-22T21:53:27Z</time>
      </trkpt>
      <trkpt lat="47.82601" lon="4.78931">
        <ele>338</ele>
        <time>2022-05-22T21:53:30Z</time>
      </trkpt>
      <trkpt lat="47.82586" lon="4.78939">
        <ele>337</ele>
        <time>2022-05-22T21:53:33Z</time>
      </trkpt>
      <trkpt lat="47.82573" lon="4.78953">
        <ele>337</ele>
        <time>2022-05-22T21:53:36Z</time>
      </trkpt>
      <trkpt lat="47.82562" lon="4.78972">
        <ele>336</ele>
        <time>2022-05-22T21:53:39Z</time>
      </trkpt>
      <trkpt lat="47.82548" lon="4.79017">
        <ele>333</ele>
        <time>2022-05-22T21:53:45Z</time>
      </trkpt>
      <trkpt lat="47.82547" lon="4.7907">
        <ele>329</ele>
        <time>2022-05-22T21:53:51Z</time>
      </trkpt>
      <trkpt lat="47.82539" lon="4.79124">
        <ele>325</ele>
        <time>2022-05-22T21:53:58Z</time>
      </trkpt>
      <trkpt lat="47.82529" lon="4.79149">
        <ele>324</ele>
        <time>2022-05-22T21:54:01Z</time>
      </trkpt>
      <trkpt lat="47.82514" lon="4.79169">
        <ele>323</ele>
        <time>2022-05-22T21:54:05Z</time>
      </trkpt>
      <trkpt lat="47.82489" lon="4.79186">
        <ele>322</ele>
        <time>2022-05-22T21:54:10Z</time>
      </trkpt>
      <trkpt lat="47.82455" lon="4.79203">
        <ele>319</ele>
        <time>2022-05-22T21:54:16Z</time>
      </trkpt>
      <trkpt lat="47.82436" lon="4.79208">
        <ele>319</ele>
        <time>2022-05-22T21:54:19Z</time>
      </trkpt>
      <trkpt lat="47.82379" lon="4.79214">
        <ele>318</ele>
        <time>2022-05-22T21:54:29Z</time>
      </trkpt>
      <trkpt lat="47.82353" lon="4.7923">
        <ele>317</ele>
        <time>2022-05-22T21:54:34Z</time>
      </trkpt>
      <trkpt lat="47.82303" lon="4.79273">
        <ele>313</ele>
        <time>2022-05-22T21:54:45Z</time>
      </trkpt>
      <trkpt lat="47.82256" lon="4.79326">
        <ele>312</ele>
        <time>2022-05-22T21:54:55Z</time>
      </trkpt>
      <trkpt lat="47.82201" lon="4.79397">
        <ele>305</ele>
        <time>2022-05-22T21:55:08Z</time>
      </trkpt>
      <trkpt lat="47.82181" lon="4.79412">
        <ele>304</ele>
        <time>2022-05-22T21:55:12Z</time>
      </trkpt>
      <trkpt lat="47.8216" lon="4.7942">
        <ele>304</ele>
        <time>2022-05-22T21:55:16Z</time>
      </trkpt>
      <trkpt lat="47.82149" lon="4.7942">
        <ele>302</ele>
        <time>2022-05-22T21:55:18Z</time>
      </trkpt>
      <trkpt lat="47.82138" lon="4.79418">
        <ele>301</ele>
        <time>2022-05-22T21:55:20Z</time>
      </trkpt>
      <trkpt lat="47.82118" lon="4.79408">
        <ele>299</ele>
        <time>2022-05-22T21:55:24Z</time>
      </trkpt>
      <trkpt lat="47.82094" lon="4.79384">
        <ele>299</ele>
        <time>2022-05-22T21:55:29Z</time>
      </trkpt>
      <trkpt lat="47.82073" lon="4.79358">
        <ele>299</ele>
        <time>2022-05-22T21:55:34Z</time>
      </trkpt>
      <trkpt lat="47.82021" lon="4.79302">
        <ele>296</ele>
        <time>2022-05-22T21:55:45Z</time>
      </trkpt>
      <trkpt lat="47.81976" lon="4.79257">
        <ele>292</ele>
        <time>2022-05-22T21:55:55Z</time>
      </trkpt>
      <trkpt lat="47.81913" lon="4.79205">
        <ele>288</ele>
        <time>2022-05-22T21:56:08Z</time>
      </trkpt>
      <trkpt lat="47.81867" lon="4.79171">
        <ele>285</ele>
        <time>2022-05-22T21:56:17Z</time>
      </trkpt>
      <trkpt lat="47.81837" lon="4.79144">
        <ele>284</ele>
        <time>2022-05-22T21:56:23Z</time>
      </trkpt>
      <trkpt lat="47.81824" lon="4.79129">
        <ele>283</ele>
        <time>2022-05-22T21:56:26Z</time>
      </trkpt>
      <trkpt lat="47.81802" lon="4.79088">
        <ele>281</ele>
        <time>2022-05-22T21:56:32Z</time>
      </trkpt>
      <trkpt lat="47.81795" lon="4.79064">
        <ele>280</ele>
        <time>2022-05-22T21:56:35Z</time>
      </trkpt>
      <trkpt lat="47.8179" lon="4.79027">
        <ele>279</ele>
        <time>2022-05-22T21:56:40Z</time>
      </trkpt>
      <trkpt lat="47.81777" lon="4.78962">
        <ele>277</ele>
        <time>2022-05-22T21:56:48Z</time>
      </trkpt>
      <trkpt lat="47.81736" lon="4.78859">
        <ele>276</ele>
        <time>2022-05-22T21:57:02Z</time>
      </trkpt>
      <trkpt lat="47.81728" lon="4.78854">
        <ele>275</ele>
        <time>2022-05-22T21:57:04Z</time>
      </trkpt>
      <trkpt lat="47.81654" lon="4.78982">
        <ele>268</ele>
        <time>2022-05-22T21:57:24Z</time>
      </trkpt>
      <trkpt lat="47.81645" lon="4.79001">
        <ele>268</ele>
        <time>2022-05-22T21:57:27Z</time>
      </trkpt>
      <trkpt lat="47.81621" lon="4.79104">
        <ele>268</ele>
        <time>2022-05-22T21:57:40Z</time>
      </trkpt>
      <trkpt lat="47.8161" lon="4.79115">
        <ele>268</ele>
        <time>2022-05-22T21:57:42Z</time>
      </trkpt>
      <trkpt lat="47.8157" lon="4.79137">
        <ele>268</ele>
        <time>2022-05-22T21:57:50Z</time>
      </trkpt>
      <trkpt lat="47.81558" lon="4.79148">
        <ele>268</ele>
        <time>2022-05-22T21:57:52Z</time>
      </trkpt>
      <trkpt lat="47.8154" lon="4.79158">
        <ele>268</ele>
        <time>2022-05-22T21:57:56Z</time>
      </trkpt>
      <trkpt lat="47.81509" lon="4.79186">
        <ele>267</ele>
        <time>2022-05-22T21:58:02Z</time>
      </trkpt>
      <trkpt lat="47.81504" lon="4.79214">
        <ele>267</ele>
        <time>2022-05-22T21:58:06Z</time>
      </trkpt>
      <trkpt lat="47.81498" lon="4.79224">
        <ele>267</ele>
        <time>2022-05-22T21:58:07Z</time>
      </trkpt>
      <trkpt lat="47.81506" lon="4.79217">
        <ele>267</ele>
        <time>2022-05-22T21:58:09Z</time>
      </trkpt>
      <trkpt lat="47.81502" lon="4.79229">
        <ele>267</ele>
        <time>2022-05-22T21:58:10Z</time>
      </trkpt>
      <trkpt lat="47.81494" lon="4.79235">
        <ele>267</ele>
        <time>2022-05-22T21:58:12Z</time>
      </trkpt>
      <trkpt lat="47.81511" lon="4.79221">
        <ele>268</ele>
        <time>2022-05-22T21:58:15Z</time>
      </trkpt>
      <trkpt lat="47.81513" lon="4.79195">
        <ele>267</ele>
        <time>2022-05-22T21:58:19Z</time>
      </trkpt>
      <trkpt lat="47.81494" lon="4.79229">
        <ele>267</ele>
        <time>2022-05-22T21:58:24Z</time>
      </trkpt>
      <trkpt lat="47.81507" lon="4.7922">
        <ele>267</ele>
        <time>2022-05-22T21:58:26Z</time>
      </trkpt>
      <trkpt lat="47.81508" lon="4.79201">
        <ele>267</ele>
        <time>2022-05-22T21:58:29Z</time>
      </trkpt>
      <trkpt lat="47.81513" lon="4.79188">
        <ele>267</ele>
        <time>2022-05-22T21:58:30Z</time>
      </trkpt>
      <trkpt lat="47.81532" lon="4.79173">
        <ele>268</ele>
        <time>2022-05-22T21:58:34Z</time>
      </trkpt>
      <trkpt lat="47.81537" lon="4.79163">
        <ele>268</ele>
        <time>2022-05-22T21:58:36Z</time>
      </trkpt>
      <trkpt lat="47.81562" lon="4.79137">
        <ele>268</ele>
        <time>2022-05-22T21:58:41Z</time>
      </trkpt>
      <trkpt lat="47.8157" lon="4.79131">
        <ele>268</ele>
        <time>2022-05-22T21:58:43Z</time>
      </trkpt>
      <trkpt lat="47.81591" lon="4.79124">
        <ele>268</ele>
        <time>2022-05-22T21:58:47Z</time>
      </trkpt>
      <trkpt lat="47.81586" lon="4.79112">
        <ele>268</ele>
        <time>2022-05-22T21:58:48Z</time>
      </trkpt>
      <trkpt lat="47.81577" lon="4.79112">
        <ele>268</ele>
        <time>2022-05-22T21:58:50Z</time>
      </trkpt>
      <trkpt lat="47.81589" lon="4.79122">
        <ele>268</ele>
        <time>2022-05-22T21:58:52Z</time>
      </trkpt>
      <trkpt lat="47.81584" lon="4.79133">
        <ele>268</ele>
        <time>2022-05-22T21:58:54Z</time>
      </trkpt>
      <trkpt lat="47.81533" lon="4.79162">
        <ele>268</ele>
        <time>2022-05-22T21:59:04Z</time>
      </trkpt>
      <trkpt lat="47.81518" lon="4.79183">
        <ele>268</ele>
        <time>2022-05-22T21:59:07Z</time>
      </trkpt>
      <trkpt lat="47.81519" lon="4.79199">
        <ele>268</ele>
        <time>2022-05-22T21:59:09Z</time>
      </trkpt>
      <trkpt lat="47.81514" lon="4.79244">
        <ele>268</ele>
        <time>2022-05-22T21:59:15Z</time>
      </trkpt>
      <trkpt lat="47.81514" lon="4.79281">
        <ele>268</ele>
        <time>2022-05-22T21:59:19Z</time>
      </trkpt>
      <trkpt lat="47.81499" lon="4.79376">
        <ele>267</ele>
        <time>2022-05-22T21:59:31Z</time>
      </trkpt>
      <trkpt lat="47.81498" lon="4.79406">
        <ele>267</ele>
        <time>2022-05-22T21:59:34Z</time>
      </trkpt>
      <trkpt lat="47.81489" lon="4.7941">
        <ele>267</ele>
        <time>2022-05-22T21:59:36Z</time>
      </trkpt>
      <trkpt lat="47.81486" lon="4.79366">
        <ele>267</ele>
        <time>2022-05-22T21:59:41Z</time>
      </trkpt>
      <trkpt lat="47.81478" lon="4.79373">
        <ele>267</ele>
        <time>2022-05-22T21:59:43Z</time>
      </trkpt>
      <trkpt lat="47.81468" lon="4.79368">
        <ele>266</ele>
        <time>2022-05-22T21:59:45Z</time>
      </trkpt>
      <trkpt lat="47.81477" lon="4.79373">
        <ele>267</ele>
        <time>2022-05-22T21:59:47Z</time>
      </trkpt>
      <trkpt lat="47.8148" lon="4.79386">
        <ele>267</ele>
        <time>2022-05-22T21:59:48Z</time>
      </trkpt>
      <trkpt lat="47.81479" lon="4.79429">
        <ele>266</ele>
        <time>2022-05-22T21:59:53Z</time>
      </trkpt>
      <trkpt lat="47.81476" lon="4.79444">
        <ele>266</ele>
        <time>2022-05-22T21:59:55Z</time>
      </trkpt>
      <trkpt lat="47.81468" lon="4.79449">
        <ele>265</ele>
        <time>2022-05-22T21:59:57Z</time>
      </trkpt>
      <trkpt lat="47.81463" lon="4.79436">
        <ele>265</ele>
        <time>2022-05-22T21:59:59Z</time>
      </trkpt>
      <trkpt lat="47.81437" lon="4.79392">
        <ele>265</ele>
        <time>2022-05-22T22:00:06Z</time>
      </trkpt>
      <trkpt lat="47.81423" lon="4.79373">
        <ele>265</ele>
        <time>2022-05-22T22:00:09Z</time>
      </trkpt>
      <trkpt lat="47.81405" lon="4.7936">
        <ele>265</ele>
        <time>2022-05-22T22:00:12Z</time>
      </trkpt>
      <trkpt lat="47.81389" lon="4.7934">
        <ele>265</ele>
        <time>2022-05-22T22:00:16Z</time>
      </trkpt>
      <trkpt lat="47.81372" lon="4.79328">
        <ele>265</ele>
        <time>2022-05-22T22:00:20Z</time>
      </trkpt>
      <trkpt lat="47.81354" lon="4.79319">
        <ele>265</ele>
        <time>2022-05-22T22:00:23Z</time>
      </trkpt>
      <trkpt lat="47.81354" lon="4.79306">
        <ele>266</ele>
        <time>2022-05-22T22:00:24Z</time>
      </trkpt>
      <trkpt lat="47.81361" lon="4.79278">
        <ele>266</ele>
        <time>2022-05-22T22:00:28Z</time>
      </trkpt>
      <trkpt lat="47.81334" lon="4.79267">
        <ele>267</ele>
        <time>2022-05-22T22:00:33Z</time>
      </trkpt>
      <trkpt lat="47.81343" lon="4.7926">
        <ele>267</ele>
        <time>2022-05-22T22:00:35Z</time>
      </trkpt>
      <trkpt lat="47.81352" lon="4.79261">
        <ele>267</ele>
        <time>2022-05-22T22:00:36Z</time>
      </trkpt>
      <trkpt lat="47.81367" lon="4.79279">
        <ele>266</ele>
        <time>2022-05-22T22:00:40Z</time>
      </trkpt>
      <trkpt lat="47.92212" lon="4.77002">
        <ele>262</ele>
        <time>2022-05-22T22:33:09Z</time>
      </trkpt>
      <trkpt lat="47.92319" lon="4.77066">
        <ele>263</ele>
        <time>2022-05-22T22:33:29Z</time>
      </trkpt>
      <trkpt lat="47.92357" lon="4.77094">
        <ele>262</ele>
        <time>2022-05-22T22:33:37Z</time>
      </trkpt>
      <trkpt lat="47.92368" lon="4.77096">
        <ele>262</ele>
        <time>2022-05-22T22:33:39Z</time>
      </trkpt>
      <trkpt lat="47.92371" lon="4.77082">
        <ele>262</ele>
        <time>2022-05-22T22:33:40Z</time>
      </trkpt>
      <trkpt lat="47.92352" lon="4.77075">
        <ele>262</ele>
        <time>2022-05-22T22:33:44Z</time>
      </trkpt>
      <trkpt lat="47.92334" lon="4.77063">
        <ele>263</ele>
        <time>2022-05-22T22:33:47Z</time>
      </trkpt>
      <trkpt lat="47.92324" lon="4.77065">
        <ele>263</ele>
        <time>2022-05-22T22:33:49Z</time>
      </trkpt>
      <trkpt lat="47.92314" lon="4.77062">
        <ele>263</ele>
        <time>2022-05-22T22:33:51Z</time>
      </trkpt>
      <trkpt lat="47.92271" lon="4.77031">
        <ele>262</ele>
        <time>2022-05-22T22:33:59Z</time>
      </trkpt>
      <trkpt lat="47.9224" lon="4.77014">
        <ele>262</ele>
        <time>2022-05-22T22:34:05Z</time>
      </trkpt>
      <trkpt lat="47.922" lon="4.76987">
        <ele>261</ele>
        <time>2022-05-22T22:34:13Z</time>
      </trkpt>
      <trkpt lat="47.92139" lon="4.76953">
        <ele>261</ele>
        <time>2022-05-22T22:34:25Z</time>
      </trkpt>
      <trkpt lat="47.9209" lon="4.76921">
        <ele>260</ele>
        <time>2022-05-22T22:34:34Z</time>
      </trkpt>
      <trkpt lat="47.9208" lon="4.76924">
        <ele>260</ele>
        <time>2022-05-22T22:34:36Z</time>
      </trkpt>
      <trkpt lat="47.92061" lon="4.76916">
        <ele>259</ele>
        <time>2022-05-22T22:34:40Z</time>
      </trkpt>
      <trkpt lat="47.92052" lon="4.76923">
        <ele>259</ele>
        <time>2022-05-22T22:34:41Z</time>
      </trkpt>
      <trkpt lat="47.92052" lon="4.76939">
        <ele>259</ele>
        <time>2022-05-22T22:34:43Z</time>
      </trkpt>
      <trkpt lat="47.92078" lon="4.77067">
        <ele>259</ele>
        <time>2022-05-22T22:34:59Z</time>
      </trkpt>
      <trkpt lat="47.92097" lon="4.77148">
        <ele>261</ele>
        <time>2022-05-22T22:35:09Z</time>
      </trkpt>
      <trkpt lat="47.92164" lon="4.77483">
        <ele>258</ele>
        <time>2022-05-22T22:35:51Z</time>
      </trkpt>
      <trkpt lat="47.92191" lon="4.77569">
        <ele>257</ele>
        <time>2022-05-22T22:36:02Z</time>
      </trkpt>
      <trkpt lat="47.92211" lon="4.77604">
        <ele>256</ele>
        <time>2022-05-22T22:36:08Z</time>
      </trkpt>
      <trkpt lat="47.9223" lon="4.77625">
        <ele>254</ele>
        <time>2022-05-22T22:36:12Z</time>
      </trkpt>
      <trkpt lat="47.92225" lon="4.77644">
        <ele>254</ele>
        <time>2022-05-22T22:36:15Z</time>
      </trkpt>
      <trkpt lat="47.9223" lon="4.7766">
        <ele>253</ele>
        <time>2022-05-22T22:36:17Z</time>
      </trkpt>
      <trkpt lat="47.92226" lon="4.77682">
        <ele>254</ele>
        <time>2022-05-22T22:36:19Z</time>
      </trkpt>
      <trkpt lat="47.92238" lon="4.7775">
        <ele>256</ele>
        <time>2022-05-22T22:36:28Z</time>
      </trkpt>
      <trkpt lat="47.92252" lon="4.77885">
        <ele>259</ele>
        <time>2022-05-22T22:36:44Z</time>
      </trkpt>
      <trkpt lat="47.92267" lon="4.77971">
        <ele>259</ele>
        <time>2022-05-22T22:36:55Z</time>
      </trkpt>
      <trkpt lat="47.92297" lon="4.78209">
        <ele>254</ele>
        <time>2022-05-22T22:37:24Z</time>
      </trkpt>
      <trkpt lat="47.92294" lon="4.78227">
        <ele>254</ele>
        <time>2022-05-22T22:37:26Z</time>
      </trkpt>
      <trkpt lat="47.92275" lon="4.78249">
        <ele>254</ele>
        <time>2022-05-22T22:37:30Z</time>
      </trkpt>
      <trkpt lat="47.9227" lon="4.78263">
        <ele>255</ele>
        <time>2022-05-22T22:37:32Z</time>
      </trkpt>
      <trkpt lat="47.92272" lon="4.78279">
        <ele>256</ele>
        <time>2022-05-22T22:37:34Z</time>
      </trkpt>
      <trkpt lat="47.92277" lon="4.78292">
        <ele>256</ele>
        <time>2022-05-22T22:37:36Z</time>
      </trkpt>
      <trkpt lat="47.92301" lon="4.78308">
        <ele>257</ele>
        <time>2022-05-22T22:37:40Z</time>
      </trkpt>
      <trkpt lat="47.9231" lon="4.78337">
        <ele>258</ele>
        <time>2022-05-22T22:37:44Z</time>
      </trkpt>
      <trkpt lat="47.92316" lon="4.78389">
        <ele>260</ele>
        <time>2022-05-22T22:37:50Z</time>
      </trkpt>
      <trkpt lat="47.92339" lon="4.78495">
        <ele>262</ele>
        <time>2022-05-22T22:38:04Z</time>
      </trkpt>
      <trkpt lat="47.92358" lon="4.78659">
        <ele>251</ele>
        <time>2022-05-22T22:38:24Z</time>
      </trkpt>
      <trkpt lat="47.92384" lon="4.7885">
        <ele>245</ele>
        <time>2022-05-22T22:38:47Z</time>
      </trkpt>
      <trkpt lat="47.92391" lon="4.78958">
        <ele>252</ele>
        <time>2022-05-22T22:39:00Z</time>
      </trkpt>
      <trkpt lat="47.92399" lon="4.79017">
        <ele>254</ele>
        <time>2022-05-22T22:39:07Z</time>
      </trkpt>
      <trkpt lat="47.92401" lon="4.79063">
        <ele>255</ele>
        <time>2022-05-22T22:39:12Z</time>
      </trkpt>
      <trkpt lat="47.92412" lon="4.79147">
        <ele>259</ele>
        <time>2022-05-22T22:39:23Z</time>
      </trkpt>
      <trkpt lat="47.92423" lon="4.79268">
        <ele>262</ele>
        <time>2022-05-22T22:39:37Z</time>
      </trkpt>
      <trkpt lat="47.92423" lon="4.79371">
        <ele>265</ele>
        <time>2022-05-22T22:39:49Z</time>
      </trkpt>
      <trkpt lat="47.92407" lon="4.79485">
        <ele>266</ele>
        <time>2022-05-22T22:40:03Z</time>
      </trkpt>
      <trkpt lat="47.92405" lon="4.79513">
        <ele>266</ele>
        <time>2022-05-22T22:40:07Z</time>
      </trkpt>
      <trkpt lat="47.92404" lon="4.79559">
        <ele>267</ele>
        <time>2022-05-22T22:40:12Z</time>
      </trkpt>
      <trkpt lat="47.92407" lon="4.79602">
        <ele>269</ele>
        <time>2022-05-22T22:40:17Z</time>
      </trkpt>
      <trkpt lat="47.9243" lon="4.7976">
        <ele>271</ele>
        <time>2022-05-22T22:40:37Z</time>
      </trkpt>
      <trkpt lat="47.92448" lon="4.7983">
        <ele>272</ele>
        <time>2022-05-22T22:40:46Z</time>
      </trkpt>
      <trkpt lat="47.92465" lon="4.7991">
        <ele>274</ele>
        <time>2022-05-22T22:40:56Z</time>
      </trkpt>
      <trkpt lat="47.92478" lon="4.80118">
        <ele>277</ele>
        <time>2022-05-22T22:41:20Z</time>
      </trkpt>
      <trkpt lat="47.92468" lon="4.80129">
        <ele>277</ele>
        <time>2022-05-22T22:41:23Z</time>
      </trkpt>
      <trkpt lat="47.92323" lon="4.80202">
        <ele>281</ele>
        <time>2022-05-22T22:41:50Z</time>
      </trkpt>
      <trkpt lat="47.92315" lon="4.80208">
        <ele>282</ele>
        <time>2022-05-22T22:41:52Z</time>
      </trkpt>
      <trkpt lat="47.92181" lon="4.80277">
        <ele>285</ele>
        <time>2022-05-22T22:42:17Z</time>
      </trkpt>
      <trkpt lat="47.92158" lon="4.80287">
        <ele>285</ele>
        <time>2022-05-22T22:42:21Z</time>
      </trkpt>
      <trkpt lat="47.92132" lon="4.80292">
        <ele>285</ele>
        <time>2022-05-22T22:42:26Z</time>
      </trkpt>
      <trkpt lat="47.92107" lon="4.80293">
        <ele>285</ele>
        <time>2022-05-22T22:42:30Z</time>
      </trkpt>
      <trkpt lat="47.92012" lon="4.80289">
        <ele>284</ele>
        <time>2022-05-22T22:42:47Z</time>
      </trkpt>
      <trkpt lat="47.91956" lon="4.80294">
        <ele>283</ele>
        <time>2022-05-22T22:42:57Z</time>
      </trkpt>
      <trkpt lat="47.91915" lon="4.80311">
        <ele>284</ele>
        <time>2022-05-22T22:43:05Z</time>
      </trkpt>
      <trkpt lat="47.91811" lon="4.80374">
        <ele>283</ele>
        <time>2022-05-22T22:43:25Z</time>
      </trkpt>
      <trkpt lat="47.91671" lon="4.80446">
        <ele>285</ele>
        <time>2022-05-22T22:43:51Z</time>
      </trkpt>
      <trkpt lat="47.91636" lon="4.8047">
        <ele>287</ele>
        <time>2022-05-22T22:43:58Z</time>
      </trkpt>
      <trkpt lat="47.91579" lon="4.80496">
        <ele>290</ele>
        <time>2022-05-22T22:44:08Z</time>
      </trkpt>
      <trkpt lat="47.91534" lon="4.80524">
        <ele>290</ele>
        <time>2022-05-22T22:44:17Z</time>
      </trkpt>
      <trkpt lat="47.91461" lon="4.80561">
        <ele>291</ele>
        <time>2022-05-22T22:44:31Z</time>
      </trkpt>
      <trkpt lat="47.91399" lon="4.80598">
        <ele>293</ele>
        <time>2022-05-22T22:44:43Z</time>
      </trkpt>
      <trkpt lat="47.91388" lon="4.80602">
        <ele>294</ele>
        <time>2022-05-22T22:44:45Z</time>
      </trkpt>
      <trkpt lat="47.91313" lon="4.80645">
        <ele>301</ele>
        <time>2022-05-22T22:44:59Z</time>
      </trkpt>
      <trkpt lat="47.91304" lon="4.80648">
        <ele>302</ele>
        <time>2022-05-22T22:45:01Z</time>
      </trkpt>
      <trkpt lat="47.91268" lon="4.8067">
        <ele>305</ele>
        <time>2022-05-22T22:45:07Z</time>
      </trkpt>
      <trkpt lat="47.91229" lon="4.8069">
        <ele>306</ele>
        <time>2022-05-22T22:45:15Z</time>
      </trkpt>
      <trkpt lat="47.91209" lon="4.80697">
        <ele>306</ele>
        <time>2022-05-22T22:45:18Z</time>
      </trkpt>
      <trkpt lat="47.91202" lon="4.80706">
        <ele>306</ele>
        <time>2022-05-22T22:45:20Z</time>
      </trkpt>
      <trkpt lat="47.91199" lon="4.80735">
        <ele>307</ele>
        <time>2022-05-22T22:45:24Z</time>
      </trkpt>
      <trkpt lat="47.91184" lon="4.80773">
        <ele>308</ele>
        <time>2022-05-22T22:45:29Z</time>
      </trkpt>
      <trkpt lat="47.91135" lon="4.80853">
        <ele>310</ele>
        <time>2022-05-22T22:45:42Z</time>
      </trkpt>
      <trkpt lat="47.91095" lon="4.80926">
        <ele>311</ele>
        <time>2022-05-22T22:45:53Z</time>
      </trkpt>
      <trkpt lat="47.9109" lon="4.80941">
        <ele>312</ele>
        <time>2022-05-22T22:45:55Z</time>
      </trkpt>
      <trkpt lat="47.91089" lon="4.80959">
        <ele>313</ele>
        <time>2022-05-22T22:45:57Z</time>
      </trkpt>
      <trkpt lat="47.91093" lon="4.81008">
        <ele>315</ele>
        <time>2022-05-22T22:46:03Z</time>
      </trkpt>
      <trkpt lat="47.9111" lon="4.81111">
        <ele>316</ele>
        <time>2022-05-22T22:46:16Z</time>
      </trkpt>
      <trkpt lat="47.91112" lon="4.81146">
        <ele>315</ele>
        <time>2022-05-22T22:46:20Z</time>
      </trkpt>
      <trkpt lat="47.91121" lon="4.81212">
        <ele>314</ele>
        <time>2022-05-22T22:46:28Z</time>
      </trkpt>
      <trkpt lat="47.91125" lon="4.81227">
        <ele>314</ele>
        <time>2022-05-22T22:46:30Z</time>
      </trkpt>
      <trkpt lat="47.9113" lon="4.81298">
        <ele>313</ele>
        <time>2022-05-22T22:46:38Z</time>
      </trkpt>
      <trkpt lat="47.91157" lon="4.81505">
        <ele>314</ele>
        <time>2022-05-22T22:47:04Z</time>
      </trkpt>
      <trkpt lat="47.91164" lon="4.81583">
        <ele>314</ele>
        <time>2022-05-22T22:47:13Z</time>
      </trkpt>
      <trkpt lat="47.91175" lon="4.81647">
        <ele>313</ele>
        <time>2022-05-22T22:47:21Z</time>
      </trkpt>
      <trkpt lat="47.91189" lon="4.81769">
        <ele>309</ele>
        <time>2022-05-22T22:47:36Z</time>
      </trkpt>
      <trkpt lat="47.91207" lon="4.81888">
        <ele>302</ele>
        <time>2022-05-22T22:47:50Z</time>
      </trkpt>
      <trkpt lat="47.91204" lon="4.81935">
        <ele>301</ele>
        <time>2022-05-22T22:47:56Z</time>
      </trkpt>
      <trkpt lat="47.91197" lon="4.81957">
        <ele>301</ele>
        <time>2022-05-22T22:47:59Z</time>
      </trkpt>
      <trkpt lat="47.91171" lon="4.82006">
        <ele>301</ele>
        <time>2022-05-22T22:48:06Z</time>
      </trkpt>
      <trkpt lat="47.91162" lon="4.82013">
        <ele>302</ele>
        <time>2022-05-22T22:48:08Z</time>
      </trkpt>
      <trkpt lat="47.9115" lon="4.82017">
        <ele>303</ele>
        <time>2022-05-22T22:48:10Z</time>
      </trkpt>
      <trkpt lat="47.91046" lon="4.82006">
        <ele>308</ele>
        <time>2022-05-22T22:48:29Z</time>
      </trkpt>
      <trkpt lat="47.90983" lon="4.82002">
        <ele>310</ele>
        <time>2022-05-22T22:48:40Z</time>
      </trkpt>
      <trkpt lat="47.90959" lon="4.81997">
        <ele>310</ele>
        <time>2022-05-22T22:48:44Z</time>
      </trkpt>
      <trkpt lat="47.90909" lon="4.81995">
        <ele>312</ele>
        <time>2022-05-22T22:48:53Z</time>
      </trkpt>
      <trkpt lat="47.90807" lon="4.81982">
        <ele>316</ele>
        <time>2022-05-22T22:49:11Z</time>
      </trkpt>
      <trkpt lat="47.90771" lon="4.81983">
        <ele>316</ele>
        <time>2022-05-22T22:49:18Z</time>
      </trkpt>
      <trkpt lat="47.90736" lon="4.81978">
        <ele>316</ele>
        <time>2022-05-22T22:49:24Z</time>
      </trkpt>
      <trkpt lat="47.90685" lon="4.81975">
        <ele>317</ele>
        <time>2022-05-22T22:49:33Z</time>
      </trkpt>
      <trkpt lat="47.90584" lon="4.81963">
        <ele>322</ele>
        <time>2022-05-22T22:49:51Z</time>
      </trkpt>
      <trkpt lat="47.90562" lon="4.81955">
        <ele>323</ele>
        <time>2022-05-22T22:49:55Z</time>
      </trkpt>
      <trkpt lat="47.9053" lon="4.81955">
        <ele>325</ele>
        <time>2022-05-22T22:50:01Z</time>
      </trkpt>
      <trkpt lat="47.90519" lon="4.81959">
        <ele>326</ele>
        <time>2022-05-22T22:50:03Z</time>
      </trkpt>
      <trkpt lat="47.90492" lon="4.8196">
        <ele>328</ele>
        <time>2022-05-22T22:50:08Z</time>
      </trkpt>
      <trkpt lat="47.90487" lon="4.81974">
        <ele>328</ele>
        <time>2022-05-22T22:50:10Z</time>
      </trkpt>
      <trkpt lat="47.90461" lon="4.82023">
        <ele>331</ele>
        <time>2022-05-22T22:50:17Z</time>
      </trkpt>
      <trkpt lat="47.90414" lon="4.821">
        <ele>333</ele>
        <time>2022-05-22T22:50:29Z</time>
      </trkpt>
      <trkpt lat="47.90352" lon="4.82213">
        <ele>336</ele>
        <time>2022-05-22T22:50:47Z</time>
      </trkpt>
      <trkpt lat="47.9024" lon="4.82404">
        <ele>334</ele>
        <time>2022-05-22T22:51:17Z</time>
      </trkpt>
      <trkpt lat="47.90231" lon="4.82415">
        <ele>334</ele>
        <time>2022-05-22T22:51:19Z</time>
      </trkpt>
      <trkpt lat="47.90189" lon="4.82494">
        <ele>336</ele>
        <time>2022-05-22T22:51:31Z</time>
      </trkpt>
      <trkpt lat="47.90168" lon="4.82525">
        <ele>338</ele>
        <time>2022-05-22T22:51:36Z</time>
      </trkpt>
      <trkpt lat="47.9015" lon="4.82563">
        <ele>339</ele>
        <time>2022-05-22T22:51:42Z</time>
      </trkpt>
      <trkpt lat="47.9009" lon="4.82656">
        <ele>341</ele>
        <time>2022-05-22T22:51:57Z</time>
      </trkpt>
      <trkpt lat="47.90066" lon="4.82704">
        <ele>341</ele>
        <time>2022-05-22T22:52:05Z</time>
      </trkpt>
      <trkpt lat="47.90006" lon="4.828">
        <ele>339</ele>
        <time>2022-05-22T22:52:20Z</time>
      </trkpt>
      <trkpt lat="47.9" lon="4.82815">
        <ele>339</ele>
        <time>2022-05-22T22:52:22Z</time>
      </trkpt>
      <trkpt lat="47.89951" lon="4.82901">
        <ele>337</ele>
        <time>2022-05-22T22:52:36Z</time>
      </trkpt>
      <trkpt lat="47.89864" lon="4.8305">
        <ele>330</ele>
        <time>2022-05-22T22:52:59Z</time>
      </trkpt>
      <trkpt lat="47.89823" lon="4.83125">
        <ele>328</ele>
        <time>2022-05-22T22:53:11Z</time>
      </trkpt>
      <trkpt lat="47.89796" lon="4.83168">
        <ele>328</ele>
        <time>2022-05-22T22:53:18Z</time>
      </trkpt>
      <trkpt lat="47.89727" lon="4.83297">
        <ele>331</ele>
        <time>2022-05-22T22:53:38Z</time>
      </trkpt>
      <trkpt lat="47.89628" lon="4.83457">
        <ele>338</ele>
        <time>2022-05-22T22:54:04Z</time>
      </trkpt>
      <trkpt lat="47.89588" lon="4.83529">
        <ele>340</ele>
        <time>2022-05-22T22:54:15Z</time>
      </trkpt>
      <trkpt lat="47.89572" lon="4.83551">
        <ele>340</ele>
        <time>2022-05-22T22:54:19Z</time>
      </trkpt>
      <trkpt lat="47.89533" lon="4.83623">
        <ele>343</ele>
        <time>2022-05-22T22:54:30Z</time>
      </trkpt>
      <trkpt lat="47.89517" lon="4.83646">
        <ele>343</ele>
        <time>2022-05-22T22:54:34Z</time>
      </trkpt>
      <trkpt lat="47.89486" lon="4.83706">
        <ele>345</ele>
        <time>2022-05-22T22:54:43Z</time>
      </trkpt>
      <trkpt lat="47.89456" lon="4.83753">
        <ele>346</ele>
        <time>2022-05-22T22:54:50Z</time>
      </trkpt>
      <trkpt lat="47.89427" lon="4.83807">
        <ele>346</ele>
        <time>2022-05-22T22:54:59Z</time>
      </trkpt>
      <trkpt lat="47.89403" lon="4.83844">
        <ele>344</ele>
        <time>2022-05-22T22:55:05Z</time>
      </trkpt>
      <trkpt lat="47.89379" lon="4.8389">
        <ele>342</ele>
        <time>2022-05-22T22:55:12Z</time>
      </trkpt>
      <trkpt lat="47.89343" lon="4.83948">
        <ele>337</ele>
        <time>2022-05-22T22:55:21Z</time>
      </trkpt>
      <trkpt lat="47.89307" lon="4.84013">
        <ele>334</ele>
        <time>2022-05-22T22:55:31Z</time>
      </trkpt>
      <trkpt lat="47.89275" lon="4.84063">
        <ele>333</ele>
        <time>2022-05-22T22:55:39Z</time>
      </trkpt>
      <trkpt lat="47.89215" lon="4.84173">
        <ele>336</ele>
        <time>2022-05-22T22:55:56Z</time>
      </trkpt>
      <trkpt lat="47.89148" lon="4.84277">
        <ele>342</ele>
        <time>2022-05-22T22:56:14Z</time>
      </trkpt>
      <trkpt lat="47.89131" lon="4.84314">
        <ele>345</ele>
        <time>2022-05-22T22:56:19Z</time>
      </trkpt>
      <trkpt lat="47.8909" lon="4.84383">
        <ele>348</ele>
        <time>2022-05-22T22:56:30Z</time>
      </trkpt>
      <trkpt lat="47.89059" lon="4.84441">
        <ele>348</ele>
        <time>2022-05-22T22:56:39Z</time>
      </trkpt>
      <trkpt lat="47.89017" lon="4.84509">
        <ele>347</ele>
        <time>2022-05-22T22:56:50Z</time>
      </trkpt>
      <trkpt lat="47.89011" lon="4.84523">
        <ele>346</ele>
        <time>2022-05-22T22:56:52Z</time>
      </trkpt>
      <trkpt lat="47.88996" lon="4.84543">
        <ele>346</ele>
        <time>2022-05-22T22:56:55Z</time>
      </trkpt>
      <trkpt lat="47.88992" lon="4.84562">
        <ele>345</ele>
        <time>2022-05-22T22:56:58Z</time>
      </trkpt>
      <trkpt lat="47.88992" lon="4.84577">
        <ele>344</ele>
        <time>2022-05-22T22:56:59Z</time>
      </trkpt>
      <trkpt lat="47.88996" lon="4.8459">
        <ele>344</ele>
        <time>2022-05-22T22:57:01Z</time>
      </trkpt>
      <trkpt lat="47.89055" lon="4.84697">
        <ele>342</ele>
        <time>2022-05-22T22:57:18Z</time>
      </trkpt>
      <trkpt lat="47.89066" lon="4.84723">
        <ele>342</ele>
        <time>2022-05-22T22:57:21Z</time>
      </trkpt>
      <trkpt lat="47.89081" lon="4.84746">
        <ele>341</ele>
        <time>2022-05-22T22:57:25Z</time>
      </trkpt>
      <trkpt lat="47.89092" lon="4.84771">
        <ele>341</ele>
        <time>2022-05-22T22:57:29Z</time>
      </trkpt>
      <trkpt lat="47.89118" lon="4.84816">
        <ele>341</ele>
        <time>2022-05-22T22:57:36Z</time>
      </trkpt>
      <trkpt lat="47.8914" lon="4.84865">
        <ele>341</ele>
        <time>2022-05-22T22:57:43Z</time>
      </trkpt>
      <trkpt lat="47.89149" lon="4.84952">
        <ele>342</ele>
        <time>2022-05-22T22:57:53Z</time>
      </trkpt>
      <trkpt lat="47.89141" lon="4.84961">
        <ele>341</ele>
        <time>2022-05-22T22:57:55Z</time>
      </trkpt>
      <trkpt lat="47.8913" lon="4.84953">
        <ele>340</ele>
        <time>2022-05-22T22:57:57Z</time>
      </trkpt>
      <trkpt lat="47.89106" lon="4.84908">
        <ele>338</ele>
        <time>2022-05-22T22:58:04Z</time>
      </trkpt>
      <trkpt lat="47.89085" lon="4.84892">
        <ele>337</ele>
        <time>2022-05-22T22:58:08Z</time>
      </trkpt>
      <trkpt lat="47.89058" lon="4.8488">
        <ele>336</ele>
        <time>2022-05-22T22:58:13Z</time>
      </trkpt>
      <trkpt lat="47.89045" lon="4.84881">
        <ele>335</ele>
        <time>2022-05-22T22:58:16Z</time>
      </trkpt>
      <trkpt lat="47.89042" lon="4.84895">
        <ele>335</ele>
        <time>2022-05-22T22:58:18Z</time>
      </trkpt>
      <trkpt lat="47.89032" lon="4.84885">
        <ele>334</ele>
        <time>2022-05-22T22:58:20Z</time>
      </trkpt>
      <trkpt lat="47.89022" lon="4.84887">
        <ele>334</ele>
        <time>2022-05-22T22:58:21Z</time>
      </trkpt>
      <trkpt lat="47.89013" lon="4.84894">
        <ele>333</ele>
        <time>2022-05-22T22:58:23Z</time>
      </trkpt>
      <trkpt lat="47.88965" lon="4.84908">
        <ele>334</ele>
        <time>2022-05-22T22:58:32Z</time>
      </trkpt>
      <trkpt lat="47.88954" lon="4.84906">
        <ele>334</ele>
        <time>2022-05-22T22:58:34Z</time>
      </trkpt>
      <trkpt lat="47.88901" lon="4.84906">
        <ele>335</ele>
        <time>2022-05-22T22:58:43Z</time>
      </trkpt>
      <trkpt lat="47.88831" lon="4.849">
        <ele>336</ele>
        <time>2022-05-22T22:58:56Z</time>
      </trkpt>
      <trkpt lat="47.88809" lon="4.84902">
        <ele>337</ele>
        <time>2022-05-22T22:59:00Z</time>
      </trkpt>
      <trkpt lat="47.88799" lon="4.84904">
        <ele>337</ele>
        <time>2022-05-22T22:59:02Z</time>
      </trkpt>
      <trkpt lat="47.88788" lon="4.84912">
        <ele>338</ele>
        <time>2022-05-22T22:59:04Z</time>
      </trkpt>
      <trkpt lat="47.8878" lon="4.84922">
        <ele>338</ele>
        <time>2022-05-22T22:59:06Z</time>
      </trkpt>
      <trkpt lat="47.88693" lon="4.8507">
        <ele>341</ele>
        <time>2022-05-22T22:59:29Z</time>
      </trkpt>
      <trkpt lat="47.88645" lon="4.85156">
        <ele>341</ele>
        <time>2022-05-22T22:59:42Z</time>
      </trkpt>
      <trkpt lat="47.8864" lon="4.85169">
        <ele>342</ele>
        <time>2022-05-22T22:59:44Z</time>
      </trkpt>
      <trkpt lat="47.88632" lon="4.85178">
        <ele>342</ele>
        <time>2022-05-22T22:59:46Z</time>
      </trkpt>
      <trkpt lat="47.88604" lon="4.8523">
        <ele>345</ele>
        <time>2022-05-22T22:59:54Z</time>
      </trkpt>
      <trkpt lat="47.88588" lon="4.85253">
        <ele>346</ele>
        <time>2022-05-22T22:59:58Z</time>
      </trkpt>
      <trkpt lat="47.88583" lon="4.85265">
        <ele>347</ele>
        <time>2022-05-22T23:00:00Z</time>
      </trkpt>
      <trkpt lat="47.88514" lon="4.8538">
        <ele>345</ele>
        <time>2022-05-22T23:00:18Z</time>
      </trkpt>
      <trkpt lat="47.88456" lon="4.85486">
        <ele>347</ele>
        <time>2022-05-22T23:00:34Z</time>
      </trkpt>
      <trkpt lat="47.88438" lon="4.85511">
        <ele>347</ele>
        <time>2022-05-22T23:00:39Z</time>
      </trkpt>
      <trkpt lat="47.88416" lon="4.85551">
        <ele>347</ele>
        <time>2022-05-22T23:00:45Z</time>
      </trkpt>
      <trkpt lat="47.88391" lon="4.85604">
        <ele>350</ele>
        <time>2022-05-22T23:00:53Z</time>
      </trkpt>
      <trkpt lat="47.88383" lon="4.85614">
        <ele>351</ele>
        <time>2022-05-22T23:00:54Z</time>
      </trkpt>
      <trkpt lat="47.88355" lon="4.85662">
        <ele>354</ele>
        <time>2022-05-22T23:01:02Z</time>
      </trkpt>
      <trkpt lat="47.88342" lon="4.85689">
        <ele>354</ele>
        <time>2022-05-22T23:01:06Z</time>
      </trkpt>
      <trkpt lat="47.88319" lon="4.85724">
        <ele>354</ele>
        <time>2022-05-22T23:01:12Z</time>
      </trkpt>
      <trkpt lat="47.88309" lon="4.85734">
        <ele>354</ele>
        <time>2022-05-22T23:01:14Z</time>
      </trkpt>
      <trkpt lat="47.88292" lon="4.8577">
        <ele>355</ele>
        <time>2022-05-22T23:01:19Z</time>
      </trkpt>
      <trkpt lat="47.88229" lon="4.85882">
        <ele>356</ele>
        <time>2022-05-22T23:01:37Z</time>
      </trkpt>
      <trkpt lat="47.88219" lon="4.85896">
        <ele>356</ele>
        <time>2022-05-22T23:01:39Z</time>
      </trkpt>
      <trkpt lat="47.88206" lon="4.85925">
        <ele>356</ele>
        <time>2022-05-22T23:01:43Z</time>
      </trkpt>
      <trkpt lat="47.88154" lon="4.8602">
        <ele>354</ele>
        <time>2022-05-22T23:01:58Z</time>
      </trkpt>
      <trkpt lat="47.88136" lon="4.86048">
        <ele>352</ele>
        <time>2022-05-22T23:02:03Z</time>
      </trkpt>
      <trkpt lat="47.88121" lon="4.86086">
        <ele>350</ele>
        <time>2022-05-22T23:02:08Z</time>
      </trkpt>
      <trkpt lat="47.88116" lon="4.86106">
        <ele>350</ele>
        <time>2022-05-22T23:02:10Z</time>
      </trkpt>
      <trkpt lat="47.88087" lon="4.86255">
        <ele>353</ele>
        <time>2022-05-22T23:02:29Z</time>
      </trkpt>
      <trkpt lat="47.88079" lon="4.86317">
        <ele>354</ele>
        <time>2022-05-22T23:02:36Z</time>
      </trkpt>
      <trkpt lat="47.88069" lon="4.86365">
        <ele>355</ele>
        <time>2022-05-22T23:02:42Z</time>
      </trkpt>
      <trkpt lat="47.88062" lon="4.86377">
        <ele>356</ele>
        <time>2022-05-22T23:02:44Z</time>
      </trkpt>
      <trkpt lat="47.88053" lon="4.86385">
        <ele>356</ele>
        <time>2022-05-22T23:02:46Z</time>
      </trkpt>
      <trkpt lat="47.88043" lon="4.86381">
        <ele>356</ele>
        <time>2022-05-22T23:02:48Z</time>
      </trkpt>
      <trkpt lat="47.88034" lon="4.86383">
        <ele>357</ele>
        <time>2022-05-22T23:02:50Z</time>
      </trkpt>
      <trkpt lat="47.87985" lon="4.86368">
        <ele>358</ele>
        <time>2022-05-22T23:02:59Z</time>
      </trkpt>
      <trkpt lat="47.87965" lon="4.86367">
        <ele>359</ele>
        <time>2022-05-22T23:03:02Z</time>
      </trkpt>
      <trkpt lat="47.87956" lon="4.86371">
        <ele>360</ele>
        <time>2022-05-22T23:03:04Z</time>
      </trkpt>
      <trkpt lat="47.87948" lon="4.86379">
        <ele>360</ele>
        <time>2022-05-22T23:03:06Z</time>
      </trkpt>
      <trkpt lat="47.87934" lon="4.86401">
        <ele>361</ele>
        <time>2022-05-22T23:03:09Z</time>
      </trkpt>
      <trkpt lat="47.87768" lon="4.8669">
        <ele>361</ele>
        <time>2022-05-22T23:03:55Z</time>
      </trkpt>
      <trkpt lat="47.87734" lon="4.86756">
        <ele>365</ele>
        <time>2022-05-22T23:04:04Z</time>
      </trkpt>
      <trkpt lat="47.87631" lon="4.86939">
        <ele>360</ele>
        <time>2022-05-22T23:04:33Z</time>
      </trkpt>
      <trkpt lat="47.87557" lon="4.87064">
        <ele>360</ele>
        <time>2022-05-22T23:04:53Z</time>
      </trkpt>
      <trkpt lat="47.87504" lon="4.87165">
        <ele>360</ele>
        <time>2022-05-22T23:05:08Z</time>
      </trkpt>
      <trkpt lat="47.87444" lon="4.87264">
        <ele>361</ele>
        <time>2022-05-22T23:05:24Z</time>
      </trkpt>
      <trkpt lat="47.87414" lon="4.87317">
        <ele>360</ele>
        <time>2022-05-22T23:05:32Z</time>
      </trkpt>
      <trkpt lat="47.8741" lon="4.87328">
        <ele>360</ele>
        <time>2022-05-22T23:05:34Z</time>
      </trkpt>
      <trkpt lat="47.87382" lon="4.87373">
        <ele>360</ele>
        <time>2022-05-22T23:05:41Z</time>
      </trkpt>
      <trkpt lat="47.87384" lon="4.87386">
        <ele>360</ele>
        <time>2022-05-22T23:05:43Z</time>
      </trkpt>
      <trkpt lat="47.87392" lon="4.87391">
        <ele>360</ele>
        <time>2022-05-22T23:05:44Z</time>
      </trkpt>
      <trkpt lat="47.87362" lon="4.87408">
        <ele>359</ele>
        <time>2022-05-22T23:05:50Z</time>
      </trkpt>
      <trkpt lat="47.87321" lon="4.87486">
        <ele>362</ele>
        <time>2022-05-22T23:06:02Z</time>
      </trkpt>
      <trkpt lat="47.87313" lon="4.87496">
        <ele>363</ele>
        <time>2022-05-22T23:06:04Z</time>
      </trkpt>
      <trkpt lat="47.87308" lon="4.87509">
        <ele>363</ele>
        <time>2022-05-22T23:06:06Z</time>
      </trkpt>
      <trkpt lat="47.8726" lon="4.87586">
        <ele>365</ele>
        <time>2022-05-22T23:06:18Z</time>
      </trkpt>
      <trkpt lat="47.87162" lon="4.87765">
        <ele>375</ele>
        <time>2022-05-22T23:06:46Z</time>
      </trkpt>
      <trkpt lat="47.87134" lon="4.87807">
        <ele>376</ele>
        <time>2022-05-22T23:06:53Z</time>
      </trkpt>
      <trkpt lat="47.87116" lon="4.87841">
        <ele>377</ele>
        <time>2022-05-22T23:06:58Z</time>
      </trkpt>
      <trkpt lat="47.87094" lon="4.87875">
        <ele>377</ele>
        <time>2022-05-22T23:07:04Z</time>
      </trkpt>
      <trkpt lat="47.87089" lon="4.87888">
        <ele>377</ele>
        <time>2022-05-22T23:07:05Z</time>
      </trkpt>
      <trkpt lat="47.87055" lon="4.87943">
        <ele>378</ele>
        <time>2022-05-22T23:07:14Z</time>
      </trkpt>
      <trkpt lat="47.86968" lon="4.88103">
        <ele>375</ele>
        <time>2022-05-22T23:07:39Z</time>
      </trkpt>
      <trkpt lat="47.86895" lon="4.88222">
        <ele>373</ele>
        <time>2022-05-22T23:07:58Z</time>
      </trkpt>
      <trkpt lat="47.86843" lon="4.8832">
        <ele>370</ele>
        <time>2022-05-22T23:08:13Z</time>
      </trkpt>
      <trkpt lat="47.86753" lon="4.88471">
        <ele>373</ele>
        <time>2022-05-22T23:08:37Z</time>
      </trkpt>
      <trkpt lat="47.86746" lon="4.88487">
        <ele>374</ele>
        <time>2022-05-22T23:08:39Z</time>
      </trkpt>
      <trkpt lat="47.86724" lon="4.88523">
        <ele>376</ele>
        <time>2022-05-22T23:08:45Z</time>
      </trkpt>
      <trkpt lat="47.86648" lon="4.88678">
        <ele>381</ele>
        <time>2022-05-22T23:09:08Z</time>
      </trkpt>
      <trkpt lat="47.86615" lon="4.88728">
        <ele>380</ele>
        <time>2022-05-22T23:09:16Z</time>
      </trkpt>
      <trkpt lat="47.86559" lon="4.88828">
        <ele>382</ele>
        <time>2022-05-22T23:09:32Z</time>
      </trkpt>
      <trkpt lat="47.86542" lon="4.8885">
        <ele>382</ele>
        <time>2022-05-22T23:09:36Z</time>
      </trkpt>
      <trkpt lat="47.86471" lon="4.88977">
        <ele>383</ele>
        <time>2022-05-22T23:09:56Z</time>
      </trkpt>
      <trkpt lat="47.86442" lon="4.89025">
        <ele>382</ele>
        <time>2022-05-22T23:10:03Z</time>
      </trkpt>
      <trkpt lat="47.86424" lon="4.8905">
        <ele>382</ele>
        <time>2022-05-22T23:10:08Z</time>
      </trkpt>
      <trkpt lat="47.86405" lon="4.89095">
        <ele>381</ele>
        <time>2022-05-22T23:10:14Z</time>
      </trkpt>
      <trkpt lat="47.8636" lon="4.89178">
        <ele>380</ele>
        <time>2022-05-22T23:10:27Z</time>
      </trkpt>
      <trkpt lat="47.86345" lon="4.89204">
        <ele>380</ele>
        <time>2022-05-22T23:10:31Z</time>
      </trkpt>
      <trkpt lat="47.86336" lon="4.89214">
        <ele>380</ele>
        <time>2022-05-22T23:10:33Z</time>
      </trkpt>
      <trkpt lat="47.8632" lon="4.89239">
        <ele>380</ele>
        <time>2022-05-22T23:10:37Z</time>
      </trkpt>
      <trkpt lat="47.86217" lon="4.8941">
        <ele>378</ele>
        <time>2022-05-22T23:11:05Z</time>
      </trkpt>
      <trkpt lat="47.86188" lon="4.89461">
        <ele>377</ele>
        <time>2022-05-22T23:11:13Z</time>
      </trkpt>
      <trkpt lat="47.86139" lon="4.8956">
        <ele>373</ele>
        <time>2022-05-22T23:11:27Z</time>
      </trkpt>
      <trkpt lat="47.86111" lon="4.89603">
        <ele>372</ele>
        <time>2022-05-22T23:11:34Z</time>
      </trkpt>
      <trkpt lat="47.86088" lon="4.89647">
        <ele>372</ele>
        <time>2022-05-22T23:11:41Z</time>
      </trkpt>
      <trkpt lat="47.8608" lon="4.89657">
        <ele>372</ele>
        <time>2022-05-22T23:11:43Z</time>
      </trkpt>
      <trkpt lat="47.86066" lon="4.89684">
        <ele>372</ele>
        <time>2022-05-22T23:11:47Z</time>
      </trkpt>
      <trkpt lat="47.86044" lon="4.89718">
        <ele>373</ele>
        <time>2022-05-22T23:11:53Z</time>
      </trkpt>
      <trkpt lat="47.85954" lon="4.89879">
        <ele>377</ele>
        <time>2022-05-22T23:12:18Z</time>
      </trkpt>
      <trkpt lat="47.85939" lon="4.89899">
        <ele>378</ele>
        <time>2022-05-22T23:12:21Z</time>
      </trkpt>
      <trkpt lat="47.8594" lon="4.89912">
        <ele>378</ele>
        <time>2022-05-22T23:12:23Z</time>
      </trkpt>
      <trkpt lat="47.86047" lon="4.89935">
        <ele>375</ele>
        <time>2022-05-22T23:12:42Z</time>
      </trkpt>
      <trkpt lat="47.86035" lon="4.89945">
        <ele>376</ele>
        <time>2022-05-22T23:12:44Z</time>
      </trkpt>
      <trkpt lat="47.85959" lon="4.89929">
        <ele>378</ele>
        <time>2022-05-22T23:12:58Z</time>
      </trkpt>
      <trkpt lat="47.85936" lon="4.89922">
        <ele>378</ele>
        <time>2022-05-22T23:13:02Z</time>
      </trkpt>
      <trkpt lat="47.85905" lon="4.89903">
        <ele>378</ele>
        <time>2022-05-22T23:13:08Z</time>
      </trkpt>
      <trkpt lat="47.8588" lon="4.89892">
        <ele>377</ele>
        <time>2022-05-22T23:13:13Z</time>
      </trkpt>
      <trkpt lat="47.8583" lon="4.89859">
        <ele>375</ele>
        <time>2022-05-22T23:13:23Z</time>
      </trkpt>
      <trkpt lat="47.8582" lon="4.89856">
        <ele>375</ele>
        <time>2022-05-22T23:13:24Z</time>
      </trkpt>
      <trkpt lat="47.85812" lon="4.8985">
        <ele>375</ele>
        <time>2022-05-22T23:13:26Z</time>
      </trkpt>
      <trkpt lat="47.85799" lon="4.89847">
        <ele>376</ele>
        <time>2022-05-22T23:13:28Z</time>
      </trkpt>
      <trkpt lat="47.8575" lon="4.89821">
        <ele>376</ele>
        <time>2022-05-22T23:13:38Z</time>
      </trkpt>
      <trkpt lat="47.85714" lon="4.89797">
        <ele>378</ele>
        <time>2022-05-22T23:13:45Z</time>
      </trkpt>
      <trkpt lat="47.85692" lon="4.89788">
        <ele>380</ele>
        <time>2022-05-22T23:13:49Z</time>
      </trkpt>
      <trkpt lat="47.85665" lon="4.8977">
        <ele>381</ele>
        <time>2022-05-22T23:13:54Z</time>
      </trkpt>
      <trkpt lat="47.85645" lon="4.8976">
        <ele>381</ele>
        <time>2022-05-22T23:13:58Z</time>
      </trkpt>
      <trkpt lat="47.85572" lon="4.89711">
        <ele>381</ele>
        <time>2022-05-22T23:14:12Z</time>
      </trkpt>
      <trkpt lat="47.85543" lon="4.89698">
        <ele>382</ele>
        <time>2022-05-22T23:14:17Z</time>
      </trkpt>
      <trkpt lat="47.85525" lon="4.89685">
        <ele>383</ele>
        <time>2022-05-22T23:14:21Z</time>
      </trkpt>
      <trkpt lat="47.85476" lon="4.89659">
        <ele>383</ele>
        <time>2022-05-22T23:14:30Z</time>
      </trkpt>
      <trkpt lat="47.85467" lon="4.89652">
        <ele>383</ele>
        <time>2022-05-22T23:14:32Z</time>
      </trkpt>
      <trkpt lat="47.8546" lon="4.89642">
        <ele>383</ele>
        <time>2022-05-22T23:14:34Z</time>
      </trkpt>
      <trkpt lat="47.85435" lon="4.89634">
        <ele>383</ele>
        <time>2022-05-22T23:14:38Z</time>
      </trkpt>
      <trkpt lat="47.85427" lon="4.89627">
        <ele>382</ele>
        <time>2022-05-22T23:14:40Z</time>
      </trkpt>
      <trkpt lat="47.85373" lon="4.89596">
        <ele>383</ele>
        <time>2022-05-22T23:14:50Z</time>
      </trkpt>
      <trkpt lat="47.85326" lon="4.8956">
        <ele>384</ele>
        <time>2022-05-22T23:15:00Z</time>
      </trkpt>
      <trkpt lat="47.85312" lon="4.89553">
        <ele>384</ele>
        <time>2022-05-22T23:15:02Z</time>
      </trkpt>
      <trkpt lat="47.8531" lon="4.89566">
        <ele>384</ele>
        <time>2022-05-22T23:15:04Z</time>
      </trkpt>
      <trkpt lat="47.8528" lon="4.8963">
        <ele>386</ele>
        <time>2022-05-22T23:15:13Z</time>
      </trkpt>
      <trkpt lat="47.85265" lon="4.89653">
        <ele>386</ele>
        <time>2022-05-22T23:15:17Z</time>
      </trkpt>
      <trkpt lat="47.8526" lon="4.89667">
        <ele>387</ele>
        <time>2022-05-22T23:15:19Z</time>
      </trkpt>
      <trkpt lat="47.85239" lon="4.89702">
        <ele>388</ele>
        <time>2022-05-22T23:15:24Z</time>
      </trkpt>
      <trkpt lat="47.85187" lon="4.89801">
        <ele>390</ele>
        <time>2022-05-22T23:15:39Z</time>
      </trkpt>
      <trkpt lat="47.85179" lon="4.89811">
        <ele>391</ele>
        <time>2022-05-22T23:15:41Z</time>
      </trkpt>
      <trkpt lat="47.85154" lon="4.89858">
        <ele>391</ele>
        <time>2022-05-22T23:15:49Z</time>
      </trkpt>
      <trkpt lat="47.85113" lon="4.89922">
        <ele>391</ele>
        <time>2022-05-22T23:15:59Z</time>
      </trkpt>
      <trkpt lat="47.85074" lon="4.89995">
        <ele>391</ele>
        <time>2022-05-22T23:16:10Z</time>
      </trkpt>
      <trkpt lat="47.85037" lon="4.90055">
        <ele>388</ele>
        <time>2022-05-22T23:16:20Z</time>
      </trkpt>
      <trkpt lat="47.84965" lon="4.90181">
        <ele>383</ele>
        <time>2022-05-22T23:16:40Z</time>
      </trkpt>
      <trkpt lat="47.84876" lon="4.90318">
        <ele>386</ele>
        <time>2022-05-22T23:17:02Z</time>
      </trkpt>
      <trkpt lat="47.8474" lon="4.90517">
        <ele>386</ele>
        <time>2022-05-22T23:17:36Z</time>
      </trkpt>
      <trkpt lat="47.84735" lon="4.90532">
        <ele>387</ele>
        <time>2022-05-22T23:17:38Z</time>
      </trkpt>
      <trkpt lat="47.84681" lon="4.90615">
        <ele>389</ele>
        <time>2022-05-22T23:17:52Z</time>
      </trkpt>
      <trkpt lat="47.84639" lon="4.9069">
        <ele>389</ele>
        <time>2022-05-22T23:18:04Z</time>
      </trkpt>
      <trkpt lat="47.84606" lon="4.90741">
        <ele>387</ele>
        <time>2022-05-22T23:18:12Z</time>
      </trkpt>
      <trkpt lat="47.84576" lon="4.90776">
        <ele>385</ele>
        <time>2022-05-22T23:18:19Z</time>
      </trkpt>
      <trkpt lat="47.84553" lon="4.90822">
        <ele>385</ele>
        <time>2022-05-22T23:18:26Z</time>
      </trkpt>
      <trkpt lat="47.84539" lon="4.90836">
        <ele>384</ele>
        <time>2022-05-22T23:18:29Z</time>
      </trkpt>
      <trkpt lat="47.84505" lon="4.90889">
        <ele>384</ele>
        <time>2022-05-22T23:18:38Z</time>
      </trkpt>
      <trkpt lat="47.84492" lon="4.90912">
        <ele>383</ele>
        <time>2022-05-22T23:18:41Z</time>
      </trkpt>
      <trkpt lat="47.84487" lon="4.90926">
        <ele>383</ele>
        <time>2022-05-22T23:18:43Z</time>
      </trkpt>
      <trkpt lat="47.84473" lon="4.90949">
        <ele>384</ele>
        <time>2022-05-22T23:18:47Z</time>
      </trkpt>
      <trkpt lat="47.84394" lon="4.91055">
        <ele>384</ele>
        <time>2022-05-22T23:19:06Z</time>
      </trkpt>
      <trkpt lat="47.84321" lon="4.91173">
        <ele>386</ele>
        <time>2022-05-22T23:19:25Z</time>
      </trkpt>
      <trkpt lat="47.84266" lon="4.91251">
        <ele>390</ele>
        <time>2022-05-22T23:19:38Z</time>
      </trkpt>
      <trkpt lat="47.84241" lon="4.91298">
        <ele>394</ele>
        <time>2022-05-22T23:19:46Z</time>
      </trkpt>
      <trkpt lat="47.84183" lon="4.91382">
        <ele>397</ele>
        <time>2022-05-22T23:20:00Z</time>
      </trkpt>
      <trkpt lat="47.8415" lon="4.91438">
        <ele>396</ele>
        <time>2022-05-22T23:20:09Z</time>
      </trkpt>
      <trkpt lat="47.84134" lon="4.91457">
        <ele>395</ele>
        <time>2022-05-22T23:20:13Z</time>
      </trkpt>
      <trkpt lat="47.84106" lon="4.915">
        <ele>393</ele>
        <time>2022-05-22T23:20:20Z</time>
      </trkpt>
      <trkpt lat="47.8411" lon="4.91533">
        <ele>391</ele>
        <time>2022-05-22T23:20:24Z</time>
      </trkpt>
      <trkpt lat="47.84119" lon="4.9156">
        <ele>390</ele>
        <time>2022-05-22T23:20:27Z</time>
      </trkpt>
      <trkpt lat="47.84107" lon="4.9152">
        <ele>392</ele>
        <time>2022-05-22T23:20:33Z</time>
      </trkpt>
      <trkpt lat="47.84106" lon="4.91506">
        <ele>392</ele>
        <time>2022-05-22T23:20:34Z</time>
      </trkpt>
      <trkpt lat="47.84109" lon="4.91493">
        <ele>393</ele>
        <time>2022-05-22T23:20:36Z</time>
      </trkpt>
      <trkpt lat="47.84137" lon="4.91444">
        <ele>396</ele>
        <time>2022-05-22T23:20:44Z</time>
      </trkpt>
      <trkpt lat="47.84129" lon="4.91461">
        <ele>395</ele>
        <time>2022-05-22T23:20:46Z</time>
      </trkpt>
      <trkpt lat="47.84108" lon="4.91493">
        <ele>393</ele>
        <time>2022-05-22T23:20:51Z</time>
      </trkpt>
      <trkpt lat="47.84104" lon="4.91508">
        <ele>392</ele>
        <time>2022-05-22T23:20:53Z</time>
      </trkpt>
      <trkpt lat="47.8411" lon="4.91536">
        <ele>391</ele>
        <time>2022-05-22T23:20:57Z</time>
      </trkpt>
      <trkpt lat="47.8419" lon="4.9179">
        <ele>389</ele>
        <time>2022-05-22T23:21:30Z</time>
      </trkpt>
      <trkpt lat="47.84204" lon="4.9185">
        <ele>390</ele>
        <time>2022-05-22T23:21:38Z</time>
      </trkpt>
      <trkpt lat="47.84217" lon="4.91931">
        <ele>391</ele>
        <time>2022-05-22T23:21:48Z</time>
      </trkpt>
      <trkpt lat="47.84293" lon="4.92247">
        <ele>393</ele>
        <time>2022-05-22T23:22:28Z</time>
      </trkpt>
      <trkpt lat="47.84314" lon="4.92312">
        <ele>393</ele>
        <time>2022-05-22T23:22:37Z</time>
      </trkpt>
      <trkpt lat="47.84357" lon="4.92425">
        <ele>392</ele>
        <time>2022-05-22T23:22:52Z</time>
      </trkpt>
      <trkpt lat="47.84369" lon="4.9246">
        <ele>392</ele>
        <time>2022-05-22T23:22:57Z</time>
      </trkpt>
      <trkpt lat="47.84373" lon="4.92479">
        <ele>392</ele>
        <time>2022-05-22T23:22:59Z</time>
      </trkpt>
      <trkpt lat="47.84381" lon="4.92536">
        <ele>392</ele>
        <time>2022-05-22T23:23:06Z</time>
      </trkpt>
      <trkpt lat="47.84391" lon="4.92645">
        <ele>392</ele>
        <time>2022-05-22T23:23:19Z</time>
      </trkpt>
      <trkpt lat="47.84399" lon="4.9281">
        <ele>390</ele>
        <time>2022-05-22T23:23:39Z</time>
      </trkpt>
      <trkpt lat="47.84413" lon="4.9292">
        <ele>389</ele>
        <time>2022-05-22T23:23:52Z</time>
      </trkpt>
      <trkpt lat="47.84414" lon="4.92954">
        <ele>389</ele>
        <time>2022-05-22T23:23:56Z</time>
      </trkpt>
      <trkpt lat="47.84412" lon="4.92988">
        <ele>389</ele>
        <time>2022-05-22T23:24:01Z</time>
      </trkpt>
      <trkpt lat="47.84384" lon="4.93139">
        <ele>388</ele>
        <time>2022-05-22T23:24:19Z</time>
      </trkpt>
      <trkpt lat="47.84384" lon="4.93161">
        <ele>388</ele>
        <time>2022-05-22T23:24:22Z</time>
      </trkpt>
      <trkpt lat="47.84391" lon="4.93182">
        <ele>387</ele>
        <time>2022-05-22T23:24:25Z</time>
      </trkpt>
      <trkpt lat="47.84405" lon="4.93197">
        <ele>386</ele>
        <time>2022-05-22T23:24:28Z</time>
      </trkpt>
      <trkpt lat="47.84419" lon="4.93205">
        <ele>386</ele>
        <time>2022-05-22T23:24:30Z</time>
      </trkpt>
      <trkpt lat="47.84431" lon="4.93216">
        <ele>385</ele>
        <time>2022-05-22T23:24:33Z</time>
      </trkpt>
      <trkpt lat="47.84504" lon="4.93261">
        <ele>382</ele>
        <time>2022-05-22T23:24:47Z</time>
      </trkpt>
      <trkpt lat="47.84532" lon="4.93273">
        <ele>379</ele>
        <time>2022-05-22T23:24:52Z</time>
      </trkpt>
      <trkpt lat="47.84562" lon="4.93291">
        <ele>375</ele>
        <time>2022-05-22T23:24:58Z</time>
      </trkpt>
      <trkpt lat="47.84573" lon="4.93294">
        <ele>375</ele>
        <time>2022-05-22T23:25:00Z</time>
      </trkpt>
      <trkpt lat="47.84589" lon="4.93294">
        <ele>373</ele>
        <time>2022-05-22T23:25:03Z</time>
      </trkpt>
      <trkpt lat="47.84602" lon="4.93284">
        <ele>372</ele>
        <time>2022-05-22T23:25:05Z</time>
      </trkpt>
      <trkpt lat="47.84622" lon="4.93256">
        <ele>371</ele>
        <time>2022-05-22T23:25:10Z</time>
      </trkpt>
      <trkpt lat="47.84637" lon="4.9325">
        <ele>370</ele>
        <time>2022-05-22T23:25:13Z</time>
      </trkpt>
      <trkpt lat="47.84648" lon="4.9326">
        <ele>368</ele>
        <time>2022-05-22T23:25:15Z</time>
      </trkpt>
      <trkpt lat="47.84653" lon="4.93272">
        <ele>367</ele>
        <time>2022-05-22T23:25:17Z</time>
      </trkpt>
      <trkpt lat="47.84659" lon="4.93319">
        <ele>362</ele>
        <time>2022-05-22T23:25:23Z</time>
      </trkpt>
      <trkpt lat="47.84655" lon="4.93451">
        <ele>351</ele>
        <time>2022-05-22T23:25:38Z</time>
      </trkpt>
      <trkpt lat="47.84653" lon="4.93465">
        <ele>350</ele>
        <time>2022-05-22T23:25:40Z</time>
      </trkpt>
      <trkpt lat="47.8464" lon="4.93504">
        <ele>347</ele>
        <time>2022-05-22T23:25:45Z</time>
      </trkpt>
      <trkpt lat="47.84626" lon="4.93522">
        <ele>347</ele>
        <time>2022-05-22T23:25:49Z</time>
      </trkpt>
      <trkpt lat="47.84591" lon="4.93542">
        <ele>348</ele>
        <time>2022-05-22T23:25:55Z</time>
      </trkpt>
      <trkpt lat="47.84584" lon="4.93551">
        <ele>347</ele>
        <time>2022-05-22T23:25:57Z</time>
      </trkpt>
      <trkpt lat="47.84579" lon="4.93564">
        <ele>347</ele>
        <time>2022-05-22T23:25:59Z</time>
      </trkpt>
      <trkpt lat="47.84581" lon="4.93616">
        <ele>343</ele>
        <time>2022-05-22T23:26:05Z</time>
      </trkpt>
      <trkpt lat="47.84574" lon="4.93669">
        <ele>339</ele>
        <time>2022-05-22T23:26:11Z</time>
      </trkpt>
      <trkpt lat="47.8458" lon="4.9371">
        <ele>334</ele>
        <time>2022-05-22T23:26:16Z</time>
      </trkpt>
      <trkpt lat="47.84586" lon="4.93733">
        <ele>331</ele>
        <time>2022-05-22T23:26:19Z</time>
      </trkpt>
      <trkpt lat="47.84595" lon="4.93758">
        <ele>327</ele>
        <time>2022-05-22T23:26:23Z</time>
      </trkpt>
      <trkpt lat="47.84611" lon="4.93778">
        <ele>323</ele>
        <time>2022-05-22T23:26:26Z</time>
      </trkpt>
      <trkpt lat="47.84636" lon="4.93791">
        <ele>319</ele>
        <time>2022-05-22T23:26:31Z</time>
      </trkpt>
      <trkpt lat="47.84654" lon="4.93797">
        <ele>317</ele>
        <time>2022-05-22T23:26:34Z</time>
      </trkpt>
      <trkpt lat="47.8467" lon="4.93798">
        <ele>315</ele>
        <time>2022-05-22T23:26:37Z</time>
      </trkpt>
      <trkpt lat="47.84683" lon="4.93791">
        <ele>315</ele>
        <time>2022-05-22T23:26:40Z</time>
      </trkpt>
      <trkpt lat="47.84688" lon="4.93772">
        <ele>317</ele>
        <time>2022-05-22T23:26:42Z</time>
      </trkpt>
      <trkpt lat="47.84673" lon="4.93734">
        <ele>323</ele>
        <time>2022-05-22T23:26:47Z</time>
      </trkpt>
      <trkpt lat="47.84674" lon="4.93716">
        <ele>324</ele>
        <time>2022-05-22T23:26:50Z</time>
      </trkpt>
      <trkpt lat="47.84686" lon="4.93706">
        <ele>324</ele>
        <time>2022-05-22T23:26:52Z</time>
      </trkpt>
      <trkpt lat="47.847" lon="4.93704">
        <ele>324</ele>
        <time>2022-05-22T23:26:55Z</time>
      </trkpt>
      <trkpt lat="47.84733" lon="4.93718">
        <ele>320</ele>
        <time>2022-05-22T23:27:01Z</time>
      </trkpt>
      <trkpt lat="47.84747" lon="4.9373">
        <ele>318</ele>
        <time>2022-05-22T23:27:04Z</time>
      </trkpt>
      <trkpt lat="47.84753" lon="4.93755">
        <ele>314</ele>
        <time>2022-05-22T23:27:07Z</time>
      </trkpt>
      <trkpt lat="47.84745" lon="4.93795">
        <ele>309</ele>
        <time>2022-05-22T23:27:12Z</time>
      </trkpt>
      <trkpt lat="47.84747" lon="4.93823">
        <ele>306</ele>
        <time>2022-05-22T23:27:15Z</time>
      </trkpt>
      <trkpt lat="47.84752" lon="4.93845">
        <ele>303</ele>
        <time>2022-05-22T23:27:18Z</time>
      </trkpt>
      <trkpt lat="47.84759" lon="4.9386">
        <ele>303</ele>
        <time>2022-05-22T23:27:20Z</time>
      </trkpt>
      <trkpt lat="47.8479" lon="4.93884">
        <ele>301</ele>
        <time>2022-05-22T23:27:26Z</time>
      </trkpt>
      <trkpt lat="47.84797" lon="4.93898">
        <ele>301</ele>
        <time>2022-05-22T23:27:28Z</time>
      </trkpt>
      <trkpt lat="47.84816" lon="4.9392">
        <ele>300</ele>
        <time>2022-05-22T23:27:33Z</time>
      </trkpt>
      <trkpt lat="47.84821" lon="4.93931">
        <ele>300</ele>
        <time>2022-05-22T23:27:34Z</time>
      </trkpt>
      <trkpt lat="47.8481" lon="4.93911">
        <ele>300</ele>
        <time>2022-05-22T23:27:37Z</time>
      </trkpt>
      <trkpt lat="47.8476" lon="4.93859">
        <ele>303</ele>
        <time>2022-05-22T23:27:48Z</time>
      </trkpt>
      <trkpt lat="47.84752" lon="4.93854">
        <ele>303</ele>
        <time>2022-05-22T23:27:50Z</time>
      </trkpt>
      <trkpt lat="47.84742" lon="4.93852">
        <ele>304</ele>
        <time>2022-05-22T23:27:51Z</time>
      </trkpt>
      <trkpt lat="47.84695" lon="4.93851">
        <ele>307</ele>
        <time>2022-05-22T23:28:00Z</time>
      </trkpt>
      <trkpt lat="47.84705" lon="4.93849">
        <ele>306</ele>
        <time>2022-05-22T23:28:02Z</time>
      </trkpt>
      <trkpt lat="47.84747" lon="4.93851">
        <ele>303</ele>
        <time>2022-05-22T23:28:09Z</time>
      </trkpt>
      <trkpt lat="47.84759" lon="4.93856">
        <ele>303</ele>
        <time>2022-05-22T23:28:11Z</time>
      </trkpt>
      <trkpt lat="47.84777" lon="4.93871">
        <ele>302</ele>
        <time>2022-05-22T23:28:15Z</time>
      </trkpt>
      <trkpt lat="47.84818" lon="4.93923">
        <ele>300</ele>
        <time>2022-05-22T23:28:25Z</time>
      </trkpt>
      <trkpt lat="47.84831" lon="4.93946">
        <ele>301</ele>
        <time>2022-05-22T23:28:28Z</time>
      </trkpt>
      <trkpt lat="47.84861" lon="4.93986">
        <ele>302</ele>
        <time>2022-05-22T23:28:35Z</time>
      </trkpt>
      <trkpt lat="47.8489" lon="4.94032">
        <ele>305</ele>
        <time>2022-05-22T23:28:43Z</time>
      </trkpt>
      <trkpt lat="47.84908" lon="4.94045">
        <ele>306</ele>
        <time>2022-05-22T23:28:46Z</time>
      </trkpt>
      <trkpt lat="47.84928" lon="4.94074">
        <ele>309</ele>
        <time>2022-05-22T23:28:51Z</time>
      </trkpt>
      <trkpt lat="47.84936" lon="4.94082">
        <ele>310</ele>
        <time>2022-05-22T23:28:53Z</time>
      </trkpt>
      <trkpt lat="47.8494" lon="4.94112">
        <ele>313</ele>
        <time>2022-05-22T23:28:57Z</time>
      </trkpt>
      <trkpt lat="47.84947" lon="4.94121">
        <ele>314</ele>
        <time>2022-05-22T23:28:58Z</time>
      </trkpt>
      <trkpt lat="47.84975" lon="4.94128">
        <ele>316</ele>
        <time>2022-05-22T23:29:03Z</time>
      </trkpt>
      <trkpt lat="47.8499" lon="4.94146">
        <ele>318</ele>
        <time>2022-05-22T23:29:07Z</time>
      </trkpt>
      <trkpt lat="47.85052" lon="4.94345">
        <ele>337</ele>
        <time>2022-05-22T23:29:33Z</time>
      </trkpt>
      <trkpt lat="47.85056" lon="4.94374">
        <ele>339</ele>
        <time>2022-05-22T23:29:37Z</time>
      </trkpt>
      <trkpt lat="47.85071" lon="4.94444">
        <ele>343</ele>
        <time>2022-05-22T23:29:45Z</time>
      </trkpt>
      <trkpt lat="47.85111" lon="4.94619">
        <ele>363</ele>
        <time>2022-05-22T23:30:07Z</time>
      </trkpt>
      <trkpt lat="47.85116" lon="4.94631">
        <ele>365</ele>
        <time>2022-05-22T23:30:09Z</time>
      </trkpt>
      <trkpt lat="47.85129" lon="4.94687">
        <ele>371</ele>
        <time>2022-05-22T23:30:16Z</time>
      </trkpt>
      <trkpt lat="47.85146" lon="4.9474">
        <ele>374</ele>
        <time>2022-05-22T23:30:23Z</time>
      </trkpt>
      <trkpt lat="47.85157" lon="4.94762">
        <ele>374</ele>
        <time>2022-05-22T23:30:27Z</time>
      </trkpt>
      <trkpt lat="47.85173" lon="4.94784">
        <ele>375</ele>
        <time>2022-05-22T23:30:30Z</time>
      </trkpt>
      <trkpt lat="47.85212" lon="4.94849">
        <ele>376</ele>
        <time>2022-05-22T23:30:41Z</time>
      </trkpt>
      <trkpt lat="47.85231" lon="4.949">
        <ele>375</ele>
        <time>2022-05-22T23:30:48Z</time>
      </trkpt>
      <trkpt lat="47.8526" lon="4.9496">
        <ele>374</ele>
        <time>2022-05-22T23:30:57Z</time>
      </trkpt>
      <trkpt lat="47.85274" lon="4.95004">
        <ele>375</ele>
        <time>2022-05-22T23:31:02Z</time>
      </trkpt>
      <trkpt lat="47.85298" lon="4.95123">
        <ele>375</ele>
        <time>2022-05-22T23:31:17Z</time>
      </trkpt>
      <trkpt lat="47.85306" lon="4.95213">
        <ele>376</ele>
        <time>2022-05-22T23:31:28Z</time>
      </trkpt>
      <trkpt lat="47.85302" lon="4.95259">
        <ele>378</ele>
        <time>2022-05-22T23:31:34Z</time>
      </trkpt>
      <trkpt lat="47.85293" lon="4.95303">
        <ele>378</ele>
        <time>2022-05-22T23:31:39Z</time>
      </trkpt>
      <trkpt lat="47.85284" lon="4.95331">
        <ele>379</ele>
        <time>2022-05-22T23:31:43Z</time>
      </trkpt>
      <trkpt lat="47.85259" lon="4.95382">
        <ele>380</ele>
        <time>2022-05-22T23:31:50Z</time>
      </trkpt>
      <trkpt lat="47.85232" lon="4.9543">
        <ele>382</ele>
        <time>2022-05-22T23:31:58Z</time>
      </trkpt>
      <trkpt lat="47.85217" lon="4.95471">
        <ele>383</ele>
        <time>2022-05-22T23:32:03Z</time>
      </trkpt>
      <trkpt lat="47.8521" lon="4.95483">
        <ele>383</ele>
        <time>2022-05-22T23:32:05Z</time>
      </trkpt>
      <trkpt lat="47.85193" lon="4.95525">
        <ele>385</ele>
        <time>2022-05-22T23:32:11Z</time>
      </trkpt>
      <trkpt lat="47.85164" lon="4.95606">
        <ele>387</ele>
        <time>2022-05-22T23:32:22Z</time>
      </trkpt>
      <trkpt lat="47.85153" lon="4.9568">
        <ele>388</ele>
        <time>2022-05-22T23:32:31Z</time>
      </trkpt>
      <trkpt lat="47.85158" lon="4.95911">
        <ele>388</ele>
        <time>2022-05-22T23:32:59Z</time>
      </trkpt>
      <trkpt lat="47.85168" lon="4.96104">
        <ele>391</ele>
        <time>2022-05-22T23:33:22Z</time>
      </trkpt>
      <trkpt lat="47.85185" lon="4.96194">
        <ele>396</ele>
        <time>2022-05-22T23:33:33Z</time>
      </trkpt>
      <trkpt lat="47.85202" lon="4.96263">
        <ele>400</ele>
        <time>2022-05-22T23:33:42Z</time>
      </trkpt>
      <trkpt lat="47.85214" lon="4.96348">
        <ele>403</ele>
        <time>2022-05-22T23:33:52Z</time>
      </trkpt>
      <trkpt lat="47.85224" lon="4.96354">
        <ele>402</ele>
        <time>2022-05-22T23:33:54Z</time>
      </trkpt>
      <trkpt lat="47.85231" lon="4.96345">
        <ele>402</ele>
        <time>2022-05-22T23:33:56Z</time>
      </trkpt>
      <trkpt lat="47.85223" lon="4.96352">
        <ele>402</ele>
        <time>2022-05-22T23:33:57Z</time>
      </trkpt>
      <trkpt lat="47.85241" lon="4.96347">
        <ele>402</ele>
        <time>2022-05-22T23:34:01Z</time>
      </trkpt>
      <trkpt lat="47.85232" lon="4.96349">
        <ele>402</ele>
        <time>2022-05-22T23:34:02Z</time>
      </trkpt>
      <trkpt lat="47.85225" lon="4.96357">
        <ele>402</ele>
        <time>2022-05-22T23:34:04Z</time>
      </trkpt>
      <trkpt lat="47.85221" lon="4.9637">
        <ele>403</ele>
        <time>2022-05-22T23:34:06Z</time>
      </trkpt>
      <trkpt lat="47.85216" lon="4.96357">
        <ele>403</ele>
        <time>2022-05-22T23:34:07Z</time>
      </trkpt>
      <trkpt lat="47.85222" lon="4.96347">
        <ele>402</ele>
        <time>2022-05-22T23:34:09Z</time>
      </trkpt>
      <trkpt lat="47.85213" lon="4.96343">
        <ele>403</ele>
        <time>2022-05-22T23:34:11Z</time>
      </trkpt>
      <trkpt lat="47.8522" lon="4.96353">
        <ele>402</ele>
        <time>2022-05-22T23:34:12Z</time>
      </trkpt>
      <trkpt lat="47.85231" lon="4.96349">
        <ele>402</ele>
        <time>2022-05-22T23:34:14Z</time>
      </trkpt>
      <trkpt lat="47.85222" lon="4.96347">
        <ele>402</ele>
        <time>2022-05-22T23:34:16Z</time>
      </trkpt>
      <trkpt lat="47.85215" lon="4.96356">
        <ele>403</ele>
        <time>2022-05-22T23:34:18Z</time>
      </trkpt>
      <trkpt lat="47.85211" lon="4.96372">
        <ele>403</ele>
        <time>2022-05-22T23:34:20Z</time>
      </trkpt>
      <trkpt lat="47.85213" lon="4.96403">
        <ele>404</ele>
        <time>2022-05-22T23:34:23Z</time>
      </trkpt>
      <trkpt lat="47.85211" lon="4.96433">
        <ele>404</ele>
        <time>2022-05-22T23:34:27Z</time>
      </trkpt>
      <trkpt lat="47.85168" lon="4.96753">
        <ele>401</ele>
        <time>2022-05-22T23:35:06Z</time>
      </trkpt>
      <trkpt lat="47.85163" lon="4.96782">
        <ele>401</ele>
        <time>2022-05-22T23:35:10Z</time>
      </trkpt>
      <trkpt lat="47.85135" lon="4.96889">
        <ele>402</ele>
        <time>2022-05-22T23:35:23Z</time>
      </trkpt>
      <trkpt lat="47.85108" lon="4.97009">
        <ele>401</ele>
        <time>2022-05-22T23:35:38Z</time>
      </trkpt>
      <trkpt lat="47.85104" lon="4.97044">
        <ele>401</ele>
        <time>2022-05-22T23:35:43Z</time>
      </trkpt>
      <trkpt lat="47.85097" lon="4.97192">
        <ele>400</ele>
        <time>2022-05-22T23:36:00Z</time>
      </trkpt>
      <trkpt lat="47.85096" lon="4.97282">
        <ele>399</ele>
        <time>2022-05-22T23:36:11Z</time>
      </trkpt>
      <trkpt lat="47.85103" lon="4.97389">
        <ele>398</ele>
        <time>2022-05-22T23:36:24Z</time>
      </trkpt>
      <trkpt lat="47.85117" lon="4.97545">
        <ele>398</ele>
        <time>2022-05-22T23:36:43Z</time>
      </trkpt>
      <trkpt lat="47.85119" lon="4.97613">
        <ele>397</ele>
        <time>2022-05-22T23:36:51Z</time>
      </trkpt>
      <trkpt lat="47.85116" lon="4.97647">
        <ele>397</ele>
        <time>2022-05-22T23:36:55Z</time>
      </trkpt>
      <trkpt lat="47.85109" lon="4.97679">
        <ele>397</ele>
        <time>2022-05-22T23:36:59Z</time>
      </trkpt>
      <trkpt lat="47.85086" lon="4.97745">
        <ele>400</ele>
        <time>2022-05-22T23:37:08Z</time>
      </trkpt>
      <trkpt lat="47.85065" lon="4.97781">
        <ele>399</ele>
        <time>2022-05-22T23:37:14Z</time>
      </trkpt>
      <trkpt lat="47.85091" lon="4.97731">
        <ele>399</ele>
        <time>2022-05-22T23:37:21Z</time>
      </trkpt>
      <trkpt lat="47.85101" lon="4.97703">
        <ele>398</ele>
        <time>2022-05-22T23:37:25Z</time>
      </trkpt>
      <trkpt lat="47.85109" lon="4.97695">
        <ele>397</ele>
        <time>2022-05-22T23:37:27Z</time>
      </trkpt>
      <trkpt lat="47.85137" lon="4.97804">
        <ele>395</ele>
        <time>2022-05-22T23:37:40Z</time>
      </trkpt>
      <trkpt lat="47.85155" lon="4.97954">
        <ele>391</ele>
        <time>2022-05-22T23:37:59Z</time>
      </trkpt>
      <trkpt lat="47.85165" lon="4.98007">
        <ele>390</ele>
        <time>2022-05-22T23:38:05Z</time>
      </trkpt>
      <trkpt lat="47.85178" lon="4.9805">
        <ele>388</ele>
        <time>2022-05-22T23:38:11Z</time>
      </trkpt>
      <trkpt lat="47.85184" lon="4.98114">
        <ele>385</ele>
        <time>2022-05-22T23:38:19Z</time>
      </trkpt>
      <trkpt lat="47.85199" lon="4.98175">
        <ele>380</ele>
        <time>2022-05-22T23:38:26Z</time>
      </trkpt>
      <trkpt lat="47.85203" lon="4.98224">
        <ele>376</ele>
        <time>2022-05-22T23:38:32Z</time>
      </trkpt>
      <trkpt lat="47.85194" lon="4.98271">
        <ele>373</ele>
        <time>2022-05-22T23:38:38Z</time>
      </trkpt>
      <trkpt lat="47.85196" lon="4.98356">
        <ele>365</ele>
        <time>2022-05-22T23:38:48Z</time>
      </trkpt>
      <trkpt lat="47.85184" lon="4.98408">
        <ele>361</ele>
        <time>2022-05-22T23:38:55Z</time>
      </trkpt>
      <trkpt lat="47.85181" lon="4.98438">
        <ele>358</ele>
        <time>2022-05-22T23:38:58Z</time>
      </trkpt>
      <trkpt lat="47.85161" lon="4.98514">
        <ele>350</ele>
        <time>2022-05-22T23:39:08Z</time>
      </trkpt>
      <trkpt lat="47.85154" lon="4.98558">
        <ele>343</ele>
        <time>2022-05-22T23:39:14Z</time>
      </trkpt>
      <trkpt lat="47.85161" lon="4.98568">
        <ele>341</ele>
        <time>2022-05-22T23:39:15Z</time>
      </trkpt>
      <trkpt lat="47.85169" lon="4.98574">
        <ele>339</ele>
        <time>2022-05-22T23:39:17Z</time>
      </trkpt>
      <trkpt lat="47.85205" lon="4.98587">
        <ele>334</ele>
        <time>2022-05-22T23:39:23Z</time>
      </trkpt>
      <trkpt lat="47.85235" lon="4.98606">
        <ele>330</ele>
        <time>2022-05-22T23:39:29Z</time>
      </trkpt>
      <trkpt lat="47.85257" lon="4.98629">
        <ele>326</ele>
        <time>2022-05-22T23:39:34Z</time>
      </trkpt>
      <trkpt lat="47.85277" lon="4.98661">
        <ele>322</ele>
        <time>2022-05-22T23:39:39Z</time>
      </trkpt>
      <trkpt lat="47.85275" lon="4.9868">
        <ele>321</ele>
        <time>2022-05-22T23:39:42Z</time>
      </trkpt>
      <trkpt lat="47.85286" lon="4.98705">
        <ele>319</ele>
        <time>2022-05-22T23:39:45Z</time>
      </trkpt>
      <trkpt lat="47.85317" lon="4.98814">
        <ele>311</ele>
        <time>2022-05-22T23:39:59Z</time>
      </trkpt>
      <trkpt lat="47.85344" lon="4.9896">
        <ele>305</ele>
        <time>2022-05-22T23:40:17Z</time>
      </trkpt>
      <trkpt lat="47.85352" lon="4.99034">
        <ele>303</ele>
        <time>2022-05-22T23:40:26Z</time>
      </trkpt>
      <trkpt lat="47.85381" lon="4.99117">
        <ele>302</ele>
        <time>2022-05-22T23:40:38Z</time>
      </trkpt>
      <trkpt lat="47.85406" lon="4.9921">
        <ele>304</ele>
        <time>2022-05-22T23:40:49Z</time>
      </trkpt>
      <trkpt lat="47.85419" lon="4.99234">
        <ele>304</ele>
        <time>2022-05-22T23:40:53Z</time>
      </trkpt>
      <trkpt lat="47.85443" lon="4.99268">
        <ele>303</ele>
        <time>2022-05-22T23:40:59Z</time>
      </trkpt>
      <trkpt lat="47.85471" lon="4.99297">
        <ele>302</ele>
        <time>2022-05-22T23:41:05Z</time>
      </trkpt>
      <trkpt lat="47.85491" lon="4.99314">
        <ele>300</ele>
        <time>2022-05-22T23:41:09Z</time>
      </trkpt>
      <trkpt lat="47.85502" lon="4.9932">
        <ele>299</ele>
        <time>2022-05-22T23:41:11Z</time>
      </trkpt>
      <trkpt lat="47.85513" lon="4.99321">
        <ele>298</ele>
        <time>2022-05-22T23:41:13Z</time>
      </trkpt>
      <trkpt lat="47.85523" lon="4.99318">
        <ele>298</ele>
        <time>2022-05-22T23:41:15Z</time>
      </trkpt>
      <trkpt lat="47.8554" lon="4.99272">
        <ele>297</ele>
        <time>2022-05-22T23:41:21Z</time>
      </trkpt>
      <trkpt lat="47.85544" lon="4.99255">
        <ele>297</ele>
        <time>2022-05-22T23:41:23Z</time>
      </trkpt>
      <trkpt lat="47.85573" lon="4.99181">
        <ele>296</ele>
        <time>2022-05-22T23:41:34Z</time>
      </trkpt>
      <trkpt lat="47.85583" lon="4.99178">
        <ele>296</ele>
        <time>2022-05-22T23:41:36Z</time>
      </trkpt>
      <trkpt lat="47.85586" lon="4.99195">
        <ele>296</ele>
        <time>2022-05-22T23:41:38Z</time>
      </trkpt>
      <trkpt lat="47.8563" lon="4.99253">
        <ele>293</ele>
        <time>2022-05-22T23:41:48Z</time>
      </trkpt>
      <trkpt lat="47.85665" lon="4.99329">
        <ele>292</ele>
        <time>2022-05-22T23:41:59Z</time>
      </trkpt>
      <trkpt lat="47.85703" lon="4.99393">
        <ele>295</ele>
        <time>2022-05-22T23:42:09Z</time>
      </trkpt>
      <trkpt lat="47.85708" lon="4.99407">
        <ele>295</ele>
        <time>2022-05-22T23:42:11Z</time>
      </trkpt>
      <trkpt lat="47.85708" lon="4.99421">
        <ele>296</ele>
        <time>2022-05-22T23:42:13Z</time>
      </trkpt>
      <trkpt lat="47.85718" lon="4.99415">
        <ele>296</ele>
        <time>2022-05-22T23:42:15Z</time>
      </trkpt>
      <trkpt lat="47.85726" lon="4.99423">
        <ele>296</ele>
        <time>2022-05-22T23:42:16Z</time>
      </trkpt>
      <trkpt lat="47.8572" lon="4.99413">
        <ele>296</ele>
        <time>2022-05-22T23:42:18Z</time>
      </trkpt>
      <trkpt lat="47.85715" lon="4.99431">
        <ele>296</ele>
        <time>2022-05-22T23:42:20Z</time>
      </trkpt>
      <trkpt lat="47.85711" lon="4.99414">
        <ele>295</ele>
        <time>2022-05-22T23:42:23Z</time>
      </trkpt>
      <trkpt lat="47.85722" lon="4.99414">
        <ele>296</ele>
        <time>2022-05-22T23:42:25Z</time>
      </trkpt>
      <trkpt lat="47.85746" lon="4.99439">
        <ele>296</ele>
        <time>2022-05-22T23:42:30Z</time>
      </trkpt>
      <trkpt lat="47.85766" lon="4.99435">
        <ele>297</ele>
        <time>2022-05-22T23:42:33Z</time>
      </trkpt>
      <trkpt lat="47.85806" lon="4.99445">
        <ele>297</ele>
        <time>2022-05-22T23:42:41Z</time>
      </trkpt>
      <trkpt lat="47.85816" lon="4.99445">
        <ele>297</ele>
        <time>2022-05-22T23:42:42Z</time>
      </trkpt>
      <trkpt lat="47.85825" lon="4.99451">
        <ele>298</ele>
        <time>2022-05-22T23:42:44Z</time>
      </trkpt>
      <trkpt lat="47.85859" lon="4.99507">
        <ele>300</ele>
        <time>2022-05-22T23:42:53Z</time>
      </trkpt>
      <trkpt lat="47.85909" lon="4.99582">
        <ele>303</ele>
        <time>2022-05-22T23:43:06Z</time>
      </trkpt>
      <trkpt lat="47.85933" lon="4.99629">
        <ele>304</ele>
        <time>2022-05-22T23:43:13Z</time>
      </trkpt>
      <trkpt lat="47.85959" lon="4.99689">
        <ele>309</ele>
        <time>2022-05-22T23:43:21Z</time>
      </trkpt>
      <trkpt lat="47.8598" lon="4.99754">
        <ele>315</ele>
        <time>2022-05-22T23:43:30Z</time>
      </trkpt>
      <trkpt lat="47.85987" lon="4.99766">
        <ele>316</ele>
        <time>2022-05-22T23:43:32Z</time>
      </trkpt>
      <trkpt lat="47.85996" lon="4.99791">
        <ele>317</ele>
        <time>2022-05-22T23:43:35Z</time>
      </trkpt>
      <trkpt lat="47.86005" lon="4.99796">
        <ele>318</ele>
        <time>2022-05-22T23:43:37Z</time>
      </trkpt>
      <trkpt lat="47.85979" lon="4.99751">
        <ele>315</ele>
        <time>2022-05-22T23:43:44Z</time>
      </trkpt>
      <trkpt lat="47.85982" lon="4.99765">
        <ele>315</ele>
        <time>2022-05-22T23:43:46Z</time>
      </trkpt>
      <trkpt lat="47.85991" lon="4.99779">
        <ele>316</ele>
        <time>2022-05-22T23:43:48Z</time>
      </trkpt>
      <trkpt lat="47.86004" lon="4.99815">
        <ele>318</ele>
        <time>2022-05-22T23:43:53Z</time>
      </trkpt>
      <trkpt lat="47.86026" lon="4.99863">
        <ele>321</ele>
        <time>2022-05-22T23:44:00Z</time>
      </trkpt>
      <trkpt lat="47.86042" lon="4.99917">
        <ele>324</ele>
        <time>2022-05-22T23:44:07Z</time>
      </trkpt>
      <trkpt lat="47.86059" lon="4.99985">
        <ele>327</ele>
        <time>2022-05-22T23:44:16Z</time>
      </trkpt>
      <trkpt lat="47.86073" lon="5.0007">
        <ele>328</ele>
        <time>2022-05-22T23:44:26Z</time>
      </trkpt>
      <trkpt lat="47.86073" lon="5.00084">
        <ele>328</ele>
        <time>2022-05-22T23:44:28Z</time>
      </trkpt>
      <trkpt lat="47.861" lon="5.00179">
        <ele>334</ele>
        <time>2022-05-22T23:44:40Z</time>
      </trkpt>
      <trkpt lat="47.86106" lon="5.00192">
        <ele>336</ele>
        <time>2022-05-22T23:44:42Z</time>
      </trkpt>
      <trkpt lat="47.86147" lon="5.00326">
        <ele>347</ele>
        <time>2022-05-22T23:44:59Z</time>
      </trkpt>
      <trkpt lat="47.86168" lon="5.00406">
        <ele>352</ele>
        <time>2022-05-22T23:45:10Z</time>
      </trkpt>
      <trkpt lat="47.86189" lon="5.00508">
        <ele>355</ele>
        <time>2022-05-22T23:45:22Z</time>
      </trkpt>
      <trkpt lat="47.86209" lon="5.00574">
        <ele>359</ele>
        <time>2022-05-22T23:45:31Z</time>
      </trkpt>
      <trkpt lat="47.86245" lon="5.00665">
        <ele>368</ele>
        <time>2022-05-22T23:45:44Z</time>
      </trkpt>
      <trkpt lat="47.86257" lon="5.00704">
        <ele>368</ele>
        <time>2022-05-22T23:45:49Z</time>
      </trkpt>
      <trkpt lat="47.86269" lon="5.00727">
        <ele>369</ele>
        <time>2022-05-22T23:45:52Z</time>
      </trkpt>
      <trkpt lat="47.86283" lon="5.00747">
        <ele>370</ele>
        <time>2022-05-22T23:45:56Z</time>
      </trkpt>
      <trkpt lat="47.86293" lon="5.00754">
        <ele>371</ele>
        <time>2022-05-22T23:45:58Z</time>
      </trkpt>
      <trkpt lat="47.86325" lon="5.00786">
        <ele>374</ele>
        <time>2022-05-22T23:46:05Z</time>
      </trkpt>
      <trkpt lat="47.86342" lon="5.00806">
        <ele>375</ele>
        <time>2022-05-22T23:46:08Z</time>
      </trkpt>
      <trkpt lat="47.86395" lon="5.00896">
        <ele>377</ele>
        <time>2022-05-22T23:46:23Z</time>
      </trkpt>
      <trkpt lat="47.86442" lon="5.00988">
        <ele>381</ele>
        <time>2022-05-22T23:46:37Z</time>
      </trkpt>
      <trkpt lat="47.86455" lon="5.01027">
        <ele>383</ele>
        <time>2022-05-22T23:46:42Z</time>
      </trkpt>
      <trkpt lat="47.86492" lon="5.01162">
        <ele>388</ele>
        <time>2022-05-22T23:46:59Z</time>
      </trkpt>
      <trkpt lat="47.86517" lon="5.01264">
        <ele>389</ele>
        <time>2022-05-22T23:47:12Z</time>
      </trkpt>
      <trkpt lat="47.86539" lon="5.01367">
        <ele>389</ele>
        <time>2022-05-22T23:47:25Z</time>
      </trkpt>
      <trkpt lat="47.86554" lon="5.01419">
        <ele>390</ele>
        <time>2022-05-22T23:47:32Z</time>
      </trkpt>
      <trkpt lat="47.86593" lon="5.01507">
        <ele>392</ele>
        <time>2022-05-22T23:47:44Z</time>
      </trkpt>
      <trkpt lat="47.86601" lon="5.0152">
        <ele>392</ele>
        <time>2022-05-22T23:47:46Z</time>
      </trkpt>
      <trkpt lat="47.86604" lon="5.01534">
        <ele>392</ele>
        <time>2022-05-22T23:47:48Z</time>
      </trkpt>
      <trkpt lat="47.86625" lon="5.0159">
        <ele>392</ele>
        <time>2022-05-22T23:47:56Z</time>
      </trkpt>
      <trkpt lat="47.86634" lon="5.01587">
        <ele>392</ele>
        <time>2022-05-22T23:47:58Z</time>
      </trkpt>
      <trkpt lat="47.86628" lon="5.0161">
        <ele>392</ele>
        <time>2022-05-22T23:48:00Z</time>
      </trkpt>
      <trkpt lat="47.86635" lon="5.0162">
        <ele>392</ele>
        <time>2022-05-22T23:48:02Z</time>
      </trkpt>
      <trkpt lat="47.86652" lon="5.01672">
        <ele>392</ele>
        <time>2022-05-22T23:48:09Z</time>
      </trkpt>
      <trkpt lat="47.8667" lon="5.01716">
        <ele>392</ele>
        <time>2022-05-22T23:48:15Z</time>
      </trkpt>
      <trkpt lat="47.86715" lon="5.01867">
        <ele>393</ele>
        <time>2022-05-22T23:48:35Z</time>
      </trkpt>
      <trkpt lat="47.86743" lon="5.02015">
        <ele>395</ele>
        <time>2022-05-22T23:48:53Z</time>
      </trkpt>
      <trkpt lat="47.86746" lon="5.02046">
        <ele>395</ele>
        <time>2022-05-22T23:48:57Z</time>
      </trkpt>
      <trkpt lat="47.86773" lon="5.02139">
        <ele>396</ele>
        <time>2022-05-22T23:49:09Z</time>
      </trkpt>
      <trkpt lat="47.86799" lon="5.02214">
        <ele>395</ele>
        <time>2022-05-22T23:49:19Z</time>
      </trkpt>
      <trkpt lat="47.86836" lon="5.02301">
        <ele>397</ele>
        <time>2022-05-22T23:49:32Z</time>
      </trkpt>
      <trkpt lat="47.86839" lon="5.02317">
        <ele>397</ele>
        <time>2022-05-22T23:49:34Z</time>
      </trkpt>
      <trkpt lat="47.86851" lon="5.02343">
        <ele>398</ele>
        <time>2022-05-22T23:49:37Z</time>
      </trkpt>
      <trkpt lat="47.86869" lon="5.02397">
        <ele>399</ele>
        <time>2022-05-22T23:49:44Z</time>
      </trkpt>
      <trkpt lat="47.86885" lon="5.02436">
        <ele>400</ele>
        <time>2022-05-22T23:49:50Z</time>
      </trkpt>
      <trkpt lat="47.86939" lon="5.02551">
        <ele>401</ele>
        <time>2022-05-22T23:50:07Z</time>
      </trkpt>
      <trkpt lat="47.86992" lon="5.02653">
        <ele>403</ele>
        <time>2022-05-22T23:50:22Z</time>
      </trkpt>
      <trkpt lat="47.87003" lon="5.02684">
        <ele>403</ele>
        <time>2022-05-22T23:50:26Z</time>
      </trkpt>
      <trkpt lat="47.87033" lon="5.0275">
        <ele>405</ele>
        <time>2022-05-22T23:50:36Z</time>
      </trkpt>
      <trkpt lat="47.87078" lon="5.02884">
        <ele>407</ele>
        <time>2022-05-22T23:50:54Z</time>
      </trkpt>
      <trkpt lat="47.871" lon="5.0294">
        <ele>408</ele>
        <time>2022-05-22T23:51:01Z</time>
      </trkpt>
      <trkpt lat="47.87132" lon="5.03051">
        <ele>412</ele>
        <time>2022-05-22T23:51:16Z</time>
      </trkpt>
      <trkpt lat="47.87134" lon="5.03065">
        <ele>412</ele>
        <time>2022-05-22T23:51:18Z</time>
      </trkpt>
      <trkpt lat="47.87184" lon="5.03221">
        <ele>414</ele>
        <time>2022-05-22T23:51:38Z</time>
      </trkpt>
      <trkpt lat="47.87196" lon="5.03248">
        <ele>415</ele>
        <time>2022-05-22T23:51:42Z</time>
      </trkpt>
      <trkpt lat="47.87207" lon="5.03291">
        <ele>415</ele>
        <time>2022-05-22T23:51:48Z</time>
      </trkpt>
      <trkpt lat="47.87255" lon="5.03435">
        <ele>417</ele>
        <time>2022-05-22T23:52:07Z</time>
      </trkpt>
      <trkpt lat="47.87276" lon="5.03509">
        <ele>419</ele>
        <time>2022-05-22T23:52:16Z</time>
      </trkpt>
      <trkpt lat="47.87295" lon="5.03566">
        <ele>421</ele>
        <time>2022-05-22T23:52:24Z</time>
      </trkpt>
      <trkpt lat="47.87361" lon="5.03724">
        <ele>426</ele>
        <time>2022-05-22T23:52:46Z</time>
      </trkpt>
      <trkpt lat="47.87391" lon="5.03784">
        <ele>427</ele>
        <time>2022-05-22T23:52:55Z</time>
      </trkpt>
      <trkpt lat="47.8743" lon="5.03873">
        <ele>428</ele>
        <time>2022-05-22T23:53:08Z</time>
      </trkpt>
      <trkpt lat="47.87437" lon="5.03883">
        <ele>428</ele>
        <time>2022-05-22T23:53:09Z</time>
      </trkpt>
      <trkpt lat="47.87461" lon="5.03931">
        <ele>429</ele>
        <time>2022-05-22T23:53:17Z</time>
      </trkpt>
      <trkpt lat="47.87477" lon="5.03969">
        <ele>430</ele>
        <time>2022-05-22T23:53:22Z</time>
      </trkpt>
      <trkpt lat="47.87485" lon="5.03982">
        <ele>430</ele>
        <time>2022-05-22T23:53:24Z</time>
      </trkpt>
      <trkpt lat="47.87515" lon="5.04055">
        <ele>430</ele>
        <time>2022-05-22T23:53:34Z</time>
      </trkpt>
      <trkpt lat="47.87562" lon="5.04189">
        <ele>430</ele>
        <time>2022-05-22T23:53:52Z</time>
      </trkpt>
      <trkpt lat="47.8757" lon="5.04203">
        <ele>431</ele>
        <time>2022-05-22T23:53:55Z</time>
      </trkpt>
      <trkpt lat="47.87579" lon="5.0423">
        <ele>431</ele>
        <time>2022-05-22T23:53:58Z</time>
      </trkpt>
      <trkpt lat="47.87587" lon="5.04243">
        <ele>431</ele>
        <time>2022-05-22T23:54:00Z</time>
      </trkpt>
      <trkpt lat="47.87599" lon="5.04272">
        <ele>432</ele>
        <time>2022-05-22T23:54:04Z</time>
      </trkpt>
      <trkpt lat="47.87603" lon="5.04288">
        <ele>433</ele>
        <time>2022-05-22T23:54:06Z</time>
      </trkpt>
      <trkpt lat="47.8761" lon="5.04301">
        <ele>433</ele>
        <time>2022-05-22T23:54:08Z</time>
      </trkpt>
      <trkpt lat="47.8765" lon="5.04423">
        <ele>436</ele>
        <time>2022-05-22T23:54:25Z</time>
      </trkpt>
      <trkpt lat="47.87668" lon="5.04462">
        <ele>437</ele>
        <time>2022-05-22T23:54:30Z</time>
      </trkpt>
      <trkpt lat="47.87682" lon="5.04504">
        <ele>439</ele>
        <time>2022-05-22T23:54:36Z</time>
      </trkpt>
      <trkpt lat="47.87695" lon="5.04532">
        <ele>438</ele>
        <time>2022-05-22T23:54:40Z</time>
      </trkpt>
      <trkpt lat="47.87698" lon="5.04546">
        <ele>439</ele>
        <time>2022-05-22T23:54:42Z</time>
      </trkpt>
      <trkpt lat="47.87717" lon="5.04591">
        <ele>438</ele>
        <time>2022-05-22T23:54:48Z</time>
      </trkpt>
      <trkpt lat="47.87721" lon="5.04607">
        <ele>438</ele>
        <time>2022-05-22T23:54:50Z</time>
      </trkpt>
      <trkpt lat="47.87758" lon="5.04703">
        <ele>436</ele>
        <time>2022-05-22T23:55:03Z</time>
      </trkpt>
      <trkpt lat="47.87823" lon="5.04863">
        <ele>432</ele>
        <time>2022-05-22T23:55:26Z</time>
      </trkpt>
      <trkpt lat="47.87868" lon="5.04984">
        <ele>431</ele>
        <time>2022-05-22T23:55:42Z</time>
      </trkpt>
      <trkpt lat="47.87875" lon="5.04997">
        <ele>431</ele>
        <time>2022-05-22T23:55:44Z</time>
      </trkpt>
      <trkpt lat="47.87878" lon="5.05012">
        <ele>431</ele>
        <time>2022-05-22T23:55:46Z</time>
      </trkpt>
      <trkpt lat="47.87899" lon="5.0507">
        <ele>431</ele>
        <time>2022-05-22T23:55:54Z</time>
      </trkpt>
      <trkpt lat="47.87925" lon="5.05164">
        <ele>429</ele>
        <time>2022-05-22T23:56:06Z</time>
      </trkpt>
      <trkpt lat="47.87982" lon="5.05392">
        <ele>428</ele>
        <time>2022-05-22T23:56:35Z</time>
      </trkpt>
      <trkpt lat="47.88006" lon="5.05477">
        <ele>429</ele>
        <time>2022-05-22T23:56:46Z</time>
      </trkpt>
      <trkpt lat="47.8803" lon="5.05543">
        <ele>431</ele>
        <time>2022-05-22T23:56:55Z</time>
      </trkpt>
      <trkpt lat="47.88086" lon="5.05672">
        <ele>435</ele>
        <time>2022-05-22T23:57:13Z</time>
      </trkpt>
      <trkpt lat="47.88127" lon="5.05779">
        <ele>433</ele>
        <time>2022-05-22T23:57:28Z</time>
      </trkpt>
      <trkpt lat="47.88145" lon="5.05815">
        <ele>433</ele>
        <time>2022-05-22T23:57:33Z</time>
      </trkpt>
      <trkpt lat="47.88182" lon="5.05913">
        <ele>433</ele>
        <time>2022-05-22T23:57:47Z</time>
      </trkpt>
      <trkpt lat="47.88221" lon="5.06029">
        <ele>432</ele>
        <time>2022-05-22T23:58:02Z</time>
      </trkpt>
      <trkpt lat="47.88248" lon="5.06114">
        <ele>431</ele>
        <time>2022-05-22T23:58:13Z</time>
      </trkpt>
      <trkpt lat="47.88256" lon="5.06146">
        <ele>431</ele>
        <time>2022-05-22T23:58:18Z</time>
      </trkpt>
      <trkpt lat="47.88287" lon="5.063">
        <ele>428</ele>
        <time>2022-05-22T23:58:37Z</time>
      </trkpt>
      <trkpt lat="47.88302" lon="5.06359">
        <ele>426</ele>
        <time>2022-05-22T23:58:44Z</time>
      </trkpt>
      <trkpt lat="47.88331" lon="5.06453">
        <ele>423</ele>
        <time>2022-05-22T23:58:57Z</time>
      </trkpt>
      <trkpt lat="47.88333" lon="5.06468">
        <ele>423</ele>
        <time>2022-05-22T23:58:58Z</time>
      </trkpt>
      <trkpt lat="47.88351" lon="5.06518">
        <ele>422</ele>
        <time>2022-05-22T23:59:05Z</time>
      </trkpt>
      <trkpt lat="47.88357" lon="5.06545">
        <ele>421</ele>
        <time>2022-05-22T23:59:09Z</time>
      </trkpt>
      <trkpt lat="47.88418" lon="5.06752">
        <ele>413</ele>
        <time>2022-05-22T23:59:36Z</time>
      </trkpt>
      <trkpt lat="47.88448" lon="5.0684">
        <ele>410</ele>
        <time>2022-05-22T23:59:47Z</time>
      </trkpt>
      <trkpt lat="47.88507" lon="5.06983">
        <ele>408</ele>
        <time>2022-05-23T00:00:07Z</time>
      </trkpt>
      <trkpt lat="47.8852" lon="5.07025">
        <ele>407</ele>
        <time>2022-05-23T00:00:13Z</time>
      </trkpt>
      <trkpt lat="47.8851" lon="5.07028">
        <ele>407</ele>
        <time>2022-05-23T00:00:15Z</time>
      </trkpt>
      <trkpt lat="47.88488" lon="5.07029">
        <ele>407</ele>
        <time>2022-05-23T00:00:19Z</time>
      </trkpt>
      <trkpt lat="47.88477" lon="5.07033">
        <ele>406</ele>
        <time>2022-05-23T00:00:21Z</time>
      </trkpt>
      <trkpt lat="47.88473" lon="5.07048">
        <ele>405</ele>
        <time>2022-05-23T00:00:23Z</time>
      </trkpt>
      <trkpt lat="47.88477" lon="5.07066">
        <ele>405</ele>
        <time>2022-05-23T00:00:25Z</time>
      </trkpt>
      <trkpt lat="47.88512" lon="5.07114">
        <ele>403</ele>
        <time>2022-05-23T00:00:33Z</time>
      </trkpt>
      <trkpt lat="47.88535" lon="5.07128">
        <ele>402</ele>
        <time>2022-05-23T00:00:38Z</time>
      </trkpt>
      <trkpt lat="47.88546" lon="5.07139">
        <ele>402</ele>
        <time>2022-05-23T00:00:40Z</time>
      </trkpt>
      <trkpt lat="47.88563" lon="5.07169">
        <ele>401</ele>
        <time>2022-05-23T00:00:45Z</time>
      </trkpt>
      <trkpt lat="47.88575" lon="5.07204">
        <ele>399</ele>
        <time>2022-05-23T00:00:49Z</time>
      </trkpt>
      <trkpt lat="47.88588" lon="5.07267">
        <ele>397</ele>
        <time>2022-05-23T00:00:57Z</time>
      </trkpt>
      <trkpt lat="47.8859" lon="5.07293">
        <ele>396</ele>
        <time>2022-05-23T00:01:00Z</time>
      </trkpt>
      <trkpt lat="47.88592" lon="5.07346">
        <ele>393</ele>
        <time>2022-05-23T00:01:07Z</time>
      </trkpt>
      <trkpt lat="47.88588" lon="5.07433">
        <ele>387</ele>
        <time>2022-05-23T00:01:17Z</time>
      </trkpt>
      <trkpt lat="47.88591" lon="5.07482">
        <ele>385</ele>
        <time>2022-05-23T00:01:23Z</time>
      </trkpt>
      <trkpt lat="47.8861" lon="5.07613">
        <ele>378</ele>
        <time>2022-05-23T00:01:39Z</time>
      </trkpt>
      <trkpt lat="47.88629" lon="5.07682">
        <ele>372</ele>
        <time>2022-05-23T00:01:48Z</time>
      </trkpt>
      <trkpt lat="47.8864" lon="5.07713">
        <ele>370</ele>
        <time>2022-05-23T00:01:52Z</time>
      </trkpt>
      <trkpt lat="47.88653" lon="5.07739">
        <ele>369</ele>
        <time>2022-05-23T00:01:56Z</time>
      </trkpt>
      <trkpt lat="47.88696" lon="5.07792">
        <ele>368</ele>
        <time>2022-05-23T00:02:06Z</time>
      </trkpt>
      <trkpt lat="47.8871" lon="5.07805">
        <ele>368</ele>
        <time>2022-05-23T00:02:09Z</time>
      </trkpt>
      <trkpt lat="47.88734" lon="5.07841">
        <ele>367</ele>
        <time>2022-05-23T00:02:15Z</time>
      </trkpt>
      <trkpt lat="47.8875" lon="5.07873">
        <ele>365</ele>
        <time>2022-05-23T00:02:20Z</time>
      </trkpt>
      <trkpt lat="47.88761" lon="5.07913">
        <ele>360</ele>
        <time>2022-05-23T00:02:25Z</time>
      </trkpt>
      <trkpt lat="47.88768" lon="5.07969">
        <ele>356</ele>
        <time>2022-05-23T00:02:32Z</time>
      </trkpt>
      <trkpt lat="47.8877" lon="5.08025">
        <ele>352</ele>
        <time>2022-05-23T00:02:38Z</time>
      </trkpt>
      <trkpt lat="47.8878" lon="5.08154">
        <ele>343</ele>
        <time>2022-05-23T00:02:54Z</time>
      </trkpt>
      <trkpt lat="47.88802" lon="5.08253">
        <ele>338</ele>
        <time>2022-05-23T00:03:06Z</time>
      </trkpt>
      <trkpt lat="47.88805" lon="5.08297">
        <ele>335</ele>
        <time>2022-05-23T00:03:12Z</time>
      </trkpt>
      <trkpt lat="47.88809" lon="5.0831">
        <ele>334</ele>
        <time>2022-05-23T00:03:13Z</time>
      </trkpt>
      <trkpt lat="47.88825" lon="5.0833">
        <ele>333</ele>
        <time>2022-05-23T00:03:17Z</time>
      </trkpt>
      <trkpt lat="47.88828" lon="5.08345">
        <ele>332</ele>
        <time>2022-05-23T00:03:19Z</time>
      </trkpt>
      <trkpt lat="47.88807" lon="5.08353">
        <ele>330</ele>
        <time>2022-05-23T00:03:23Z</time>
      </trkpt>
      <trkpt lat="47.88817" lon="5.08353">
        <ele>331</ele>
        <time>2022-05-23T00:03:24Z</time>
      </trkpt>
      <trkpt lat="47.88808" lon="5.08356">
        <ele>330</ele>
        <time>2022-05-23T00:03:26Z</time>
      </trkpt>
      <trkpt lat="47.88799" lon="5.08363">
        <ele>329</ele>
        <time>2022-05-23T00:03:28Z</time>
      </trkpt>
      <trkpt lat="47.88789" lon="5.08365">
        <ele>329</ele>
        <time>2022-05-23T00:03:30Z</time>
      </trkpt>
      <trkpt lat="47.88778" lon="5.08362">
        <ele>328</ele>
        <time>2022-05-23T00:03:32Z</time>
      </trkpt>
      <trkpt lat="47.88766" lon="5.08369">
        <ele>327</ele>
        <time>2022-05-23T00:03:34Z</time>
      </trkpt>
      <trkpt lat="47.88764" lon="5.08386">
        <ele>326</ele>
        <time>2022-05-23T00:03:36Z</time>
      </trkpt>
      <trkpt lat="47.88768" lon="5.08403">
        <ele>325</ele>
        <time>2022-05-23T00:03:38Z</time>
      </trkpt>
      <trkpt lat="47.8879" lon="5.08458">
        <ele>323</ele>
        <time>2022-05-23T00:03:46Z</time>
      </trkpt>
      <trkpt lat="47.88801" lon="5.085">
        <ele>322</ele>
        <time>2022-05-23T00:03:51Z</time>
      </trkpt>
      <trkpt lat="47.88817" lon="5.08611">
        <ele>323</ele>
        <time>2022-05-23T00:04:05Z</time>
      </trkpt>
      <trkpt lat="47.88822" lon="5.08624">
        <ele>323</ele>
        <time>2022-05-23T00:04:07Z</time>
      </trkpt>
      <trkpt lat="47.88844" lon="5.08727">
        <ele>327</ele>
        <time>2022-05-23T00:04:19Z</time>
      </trkpt>
      <trkpt lat="47.88851" lon="5.08738">
        <ele>327</ele>
        <time>2022-05-23T00:04:21Z</time>
      </trkpt>
      <trkpt lat="47.88857" lon="5.08766">
        <ele>327</ele>
        <time>2022-05-23T00:04:25Z</time>
      </trkpt>
      <trkpt lat="47.88859" lon="5.08793">
        <ele>328</ele>
        <time>2022-05-23T00:04:28Z</time>
      </trkpt>
      <trkpt lat="47.88857" lon="5.08807">
        <ele>328</ele>
        <time>2022-05-23T00:04:30Z</time>
      </trkpt>
      <trkpt lat="47.88846" lon="5.08831">
        <ele>329</ele>
        <time>2022-05-23T00:04:33Z</time>
      </trkpt>
      <trkpt lat="47.88815" lon="5.08866">
        <ele>332</ele>
        <time>2022-05-23T00:04:40Z</time>
      </trkpt>
      <trkpt lat="47.88825" lon="5.08871">
        <ele>332</ele>
        <time>2022-05-23T00:04:42Z</time>
      </trkpt>
      <trkpt lat="47.88815" lon="5.08871">
        <ele>332</ele>
        <time>2022-05-23T00:04:44Z</time>
      </trkpt>
      <trkpt lat="47.88801" lon="5.08855">
        <ele>332</ele>
        <time>2022-05-23T00:04:47Z</time>
      </trkpt>
      <trkpt lat="47.88792" lon="5.08857">
        <ele>332</ele>
        <time>2022-05-23T00:04:49Z</time>
      </trkpt>
      <trkpt lat="47.88804" lon="5.08847">
        <ele>332</ele>
        <time>2022-05-23T00:04:51Z</time>
      </trkpt>
      <trkpt lat="47.88814" lon="5.0886">
        <ele>332</ele>
        <time>2022-05-23T00:04:53Z</time>
      </trkpt>
      <trkpt lat="47.88818" lon="5.08872">
        <ele>332</ele>
        <time>2022-05-23T00:04:55Z</time>
      </trkpt>
      <trkpt lat="47.88807" lon="5.08884">
        <ele>332</ele>
        <time>2022-05-23T00:04:57Z</time>
      </trkpt>
      <trkpt lat="47.88788" lon="5.08894">
        <ele>333</ele>
        <time>2022-05-23T00:05:01Z</time>
      </trkpt>
      <trkpt lat="47.88772" lon="5.08915">
        <ele>333</ele>
        <time>2022-05-23T00:05:05Z</time>
      </trkpt>
      <trkpt lat="47.88763" lon="5.08923">
        <ele>333</ele>
        <time>2022-05-23T00:05:07Z</time>
      </trkpt>
      <trkpt lat="47.88752" lon="5.08948">
        <ele>332</ele>
        <time>2022-05-23T00:05:10Z</time>
      </trkpt>
      <trkpt lat="47.88717" lon="5.08999">
        <ele>330</ele>
        <time>2022-05-23T00:05:19Z</time>
      </trkpt>
      <trkpt lat="47.88686" lon="5.0902">
        <ele>329</ele>
        <time>2022-05-23T00:05:25Z</time>
      </trkpt>
      <trkpt lat="47.88614" lon="5.0908">
        <ele>329</ele>
        <time>2022-05-23T00:05:40Z</time>
      </trkpt>
      <trkpt lat="47.88664" lon="5.09029">
        <ele>329</ele>
        <time>2022-05-23T00:05:50Z</time>
      </trkpt>
      <trkpt lat="47.88692" lon="5.09009">
        <ele>330</ele>
        <time>2022-05-23T00:05:56Z</time>
      </trkpt>
      <trkpt lat="47.88701" lon="5.09014">
        <ele>329</ele>
        <time>2022-05-23T00:05:58Z</time>
      </trkpt>
      <trkpt lat="47.88649" lon="5.09106">
        <ele>322</ele>
        <time>2022-05-23T00:06:12Z</time>
      </trkpt>
      <trkpt lat="47.88636" lon="5.09124">
        <ele>321</ele>
        <time>2022-05-23T00:06:15Z</time>
      </trkpt>
      <trkpt lat="47.88604" lon="5.09153">
        <ele>320</ele>
        <time>2022-05-23T00:06:22Z</time>
      </trkpt>
      <trkpt lat="47.8859" lon="5.09169">
        <ele>319</ele>
        <time>2022-05-23T00:06:25Z</time>
      </trkpt>
      <trkpt lat="47.88578" lon="5.09188">
        <ele>318</ele>
        <time>2022-05-23T00:06:28Z</time>
      </trkpt>
      <trkpt lat="47.88575" lon="5.09213">
        <ele>316</ele>
        <time>2022-05-23T00:06:31Z</time>
      </trkpt>
      <trkpt lat="47.88585" lon="5.09309">
        <ele>313</ele>
        <time>2022-05-23T00:06:43Z</time>
      </trkpt>
      <trkpt lat="47.88581" lon="5.09342">
        <ele>315</ele>
        <time>2022-05-23T00:06:47Z</time>
      </trkpt>
      <trkpt lat="47.88569" lon="5.09365">
        <ele>316</ele>
        <time>2022-05-23T00:06:50Z</time>
      </trkpt>
      <trkpt lat="47.88526" lon="5.0941">
        <ele>319</ele>
        <time>2022-05-23T00:06:59Z</time>
      </trkpt>
      <trkpt lat="47.88491" lon="5.09457">
        <ele>320</ele>
        <time>2022-05-23T00:07:08Z</time>
      </trkpt>
      <trkpt lat="47.88477" lon="5.09495">
        <ele>321</ele>
        <time>2022-05-23T00:07:13Z</time>
      </trkpt>
      <trkpt lat="47.88472" lon="5.09522">
        <ele>321</ele>
        <time>2022-05-23T00:07:16Z</time>
      </trkpt>
      <trkpt lat="47.8847" lon="5.09553">
        <ele>323</ele>
        <time>2022-05-23T00:07:20Z</time>
      </trkpt>
      <trkpt lat="47.88479" lon="5.09625">
        <ele>327</ele>
        <time>2022-05-23T00:07:29Z</time>
      </trkpt>
      <trkpt lat="47.88499" lon="5.0971">
        <ele>331</ele>
        <time>2022-05-23T00:07:40Z</time>
      </trkpt>
      <trkpt lat="47.88529" lon="5.09859">
        <ele>333</ele>
        <time>2022-05-23T00:07:58Z</time>
      </trkpt>
      <trkpt lat="47.88547" lon="5.10009">
        <ele>336</ele>
        <time>2022-05-23T00:08:16Z</time>
      </trkpt>
      <trkpt lat="47.88554" lon="5.10091">
        <ele>336</ele>
        <time>2022-05-23T00:08:26Z</time>
      </trkpt>
      <trkpt lat="47.88569" lon="5.10206">
        <ele>339</ele>
        <time>2022-05-23T00:08:40Z</time>
      </trkpt>
      <trkpt lat="47.88581" lon="5.10365">
        <ele>341</ele>
        <time>2022-05-23T00:08:59Z</time>
      </trkpt>
      <trkpt lat="47.88586" lon="5.10565">
        <ele>346</ele>
        <time>2022-05-23T00:09:23Z</time>
      </trkpt>
      <trkpt lat="47.8859" lon="5.1061">
        <ele>346</ele>
        <time>2022-05-23T00:09:29Z</time>
      </trkpt>
      <trkpt lat="47.88595" lon="5.10638">
        <ele>347</ele>
        <time>2022-05-23T00:09:32Z</time>
      </trkpt>
      <trkpt lat="47.886" lon="5.10726">
        <ele>349</ele>
        <time>2022-05-23T00:09:43Z</time>
      </trkpt>
      <trkpt lat="47.88608" lon="5.10773">
        <ele>351</ele>
        <time>2022-05-23T00:09:48Z</time>
      </trkpt>
      <trkpt lat="47.88617" lon="5.1088">
        <ele>355</ele>
        <time>2022-05-23T00:10:01Z</time>
      </trkpt>
      <trkpt lat="47.88628" lon="5.10927">
        <ele>356</ele>
        <time>2022-05-23T00:10:07Z</time>
      </trkpt>
      <trkpt lat="47.88634" lon="5.10959">
        <ele>356</ele>
        <time>2022-05-23T00:10:11Z</time>
      </trkpt>
      <trkpt lat="47.88636" lon="5.10986">
        <ele>357</ele>
        <time>2022-05-23T00:10:14Z</time>
      </trkpt>
      <trkpt lat="47.88643" lon="5.11017">
        <ele>357</ele>
        <time>2022-05-23T00:10:18Z</time>
      </trkpt>
      <trkpt lat="47.88646" lon="5.11075">
        <ele>357</ele>
        <time>2022-05-23T00:10:25Z</time>
      </trkpt>
      <trkpt lat="47.88649" lon="5.11092">
        <ele>357</ele>
        <time>2022-05-23T00:10:27Z</time>
      </trkpt>
      <trkpt lat="47.88649" lon="5.11139">
        <ele>357</ele>
        <time>2022-05-23T00:10:33Z</time>
      </trkpt>
      <trkpt lat="47.88654" lon="5.11172">
        <ele>357</ele>
        <time>2022-05-23T00:10:37Z</time>
      </trkpt>
      <trkpt lat="47.88651" lon="5.11277">
        <ele>357</ele>
        <time>2022-05-23T00:10:49Z</time>
      </trkpt>
      <trkpt lat="47.88647" lon="5.11295">
        <ele>358</ele>
        <time>2022-05-23T00:10:52Z</time>
      </trkpt>
      <trkpt lat="47.88644" lon="5.11328">
        <ele>358</ele>
        <time>2022-05-23T00:10:56Z</time>
      </trkpt>
      <trkpt lat="47.88639" lon="5.11341">
        <ele>358</ele>
        <time>2022-05-23T00:10:57Z</time>
      </trkpt>
      <trkpt lat="47.88635" lon="5.11369">
        <ele>358</ele>
        <time>2022-05-23T00:11:01Z</time>
      </trkpt>
      <trkpt lat="47.88622" lon="5.11556">
        <ele>358</ele>
        <time>2022-05-23T00:11:23Z</time>
      </trkpt>
      <trkpt lat="47.88618" lon="5.11574">
        <ele>358</ele>
        <time>2022-05-23T00:11:26Z</time>
      </trkpt>
      <trkpt lat="47.88604" lon="5.11699">
        <ele>358</ele>
        <time>2022-05-23T00:11:41Z</time>
      </trkpt>
      <trkpt lat="47.88594" lon="5.11748">
        <ele>359</ele>
        <time>2022-05-23T00:11:47Z</time>
      </trkpt>
      <trkpt lat="47.88582" lon="5.11824">
        <ele>356</ele>
        <time>2022-05-23T00:11:56Z</time>
      </trkpt>
      <trkpt lat="47.88574" lon="5.11895">
        <ele>354</ele>
        <time>2022-05-23T00:12:05Z</time>
      </trkpt>
      <trkpt lat="47.8857" lon="5.11909">
        <ele>353</ele>
        <time>2022-05-23T00:12:07Z</time>
      </trkpt>
      <trkpt lat="47.88559" lon="5.11984">
        <ele>349</ele>
        <time>2022-05-23T00:12:16Z</time>
      </trkpt>
      <trkpt lat="47.88531" lon="5.12139">
        <ele>341</ele>
        <time>2022-05-23T00:12:35Z</time>
      </trkpt>
      <trkpt lat="47.88517" lon="5.12198">
        <ele>340</ele>
        <time>2022-05-23T00:12:42Z</time>
      </trkpt>
      <trkpt lat="47.88511" lon="5.12234">
        <ele>340</ele>
        <time>2022-05-23T00:12:47Z</time>
      </trkpt>
      <trkpt lat="47.88493" lon="5.12293">
        <ele>341</ele>
        <time>2022-05-23T00:12:55Z</time>
      </trkpt>
      <trkpt lat="47.88442" lon="5.12403">
        <ele>343</ele>
        <time>2022-05-23T00:13:10Z</time>
      </trkpt>
      <trkpt lat="47.88378" lon="5.12566">
        <ele>349</ele>
        <time>2022-05-23T00:13:33Z</time>
      </trkpt>
      <trkpt lat="47.88364" lon="5.12638">
        <ele>351</ele>
        <time>2022-05-23T00:13:42Z</time>
      </trkpt>
      <trkpt lat="47.88353" lon="5.12759">
        <ele>356</ele>
        <time>2022-05-23T00:13:57Z</time>
      </trkpt>
      <trkpt lat="47.88345" lon="5.12818">
        <ele>356</ele>
        <time>2022-05-23T00:14:04Z</time>
      </trkpt>
      <trkpt lat="47.88329" lon="5.12905">
        <ele>357</ele>
        <time>2022-05-23T00:14:14Z</time>
      </trkpt>
      <trkpt lat="47.88303" lon="5.12984">
        <ele>358</ele>
        <time>2022-05-23T00:14:25Z</time>
      </trkpt>
      <trkpt lat="47.88254" lon="5.13098">
        <ele>358</ele>
        <time>2022-05-23T00:14:41Z</time>
      </trkpt>
      <trkpt lat="47.88231" lon="5.13179">
        <ele>360</ele>
        <time>2022-05-23T00:14:52Z</time>
      </trkpt>
      <trkpt lat="47.88201" lon="5.13272">
        <ele>360</ele>
        <time>2022-05-23T00:15:04Z</time>
      </trkpt>
      <trkpt lat="47.88193" lon="5.13336">
        <ele>361</ele>
        <time>2022-05-23T00:15:12Z</time>
      </trkpt>
      <trkpt lat="47.88196" lon="5.134">
        <ele>360</ele>
        <time>2022-05-23T00:15:19Z</time>
      </trkpt>
      <trkpt lat="47.88224" lon="5.13552">
        <ele>363</ele>
        <time>2022-05-23T00:15:38Z</time>
      </trkpt>
      <trkpt lat="47.88255" lon="5.13673">
        <ele>362</ele>
        <time>2022-05-23T00:15:54Z</time>
      </trkpt>
      <trkpt lat="47.88295" lon="5.13808">
        <ele>363</ele>
        <time>2022-05-23T00:16:11Z</time>
      </trkpt>
      <trkpt lat="47.88306" lon="5.13853">
        <ele>363</ele>
        <time>2022-05-23T00:16:17Z</time>
      </trkpt>
      <trkpt lat="47.88314" lon="5.13917">
        <ele>364</ele>
        <time>2022-05-23T00:16:25Z</time>
      </trkpt>
      <trkpt lat="47.88316" lon="5.14005">
        <ele>364</ele>
        <time>2022-05-23T00:16:35Z</time>
      </trkpt>
      <trkpt lat="47.8832" lon="5.14061">
        <ele>365</ele>
        <time>2022-05-23T00:16:42Z</time>
      </trkpt>
      <trkpt lat="47.8831" lon="5.14215">
        <ele>366</ele>
        <time>2022-05-23T00:17:00Z</time>
      </trkpt>
      <trkpt lat="47.88294" lon="5.14274">
        <ele>364</ele>
        <time>2022-05-23T00:17:08Z</time>
      </trkpt>
      <trkpt lat="47.88285" lon="5.14352">
        <ele>365</ele>
        <time>2022-05-23T00:17:17Z</time>
      </trkpt>
      <trkpt lat="47.88279" lon="5.14364">
        <ele>365</ele>
        <time>2022-05-23T00:17:19Z</time>
      </trkpt>
      <trkpt lat="47.88269" lon="5.14371">
        <ele>364</ele>
        <time>2022-05-23T00:17:21Z</time>
      </trkpt>
      <trkpt lat="47.88247" lon="5.14368">
        <ele>363</ele>
        <time>2022-05-23T00:17:25Z</time>
      </trkpt>
      <trkpt lat="47.88236" lon="5.14364">
        <ele>363</ele>
        <time>2022-05-23T00:17:27Z</time>
      </trkpt>
      <trkpt lat="47.88225" lon="5.14366">
        <ele>363</ele>
        <time>2022-05-23T00:17:29Z</time>
      </trkpt>
      <trkpt lat="47.88207" lon="5.14379">
        <ele>364</ele>
        <time>2022-05-23T00:17:33Z</time>
      </trkpt>
      <trkpt lat="47.88196" lon="5.14402">
        <ele>365</ele>
        <time>2022-05-23T00:17:36Z</time>
      </trkpt>
      <trkpt lat="47.88191" lon="5.14448">
        <ele>367</ele>
        <time>2022-05-23T00:17:42Z</time>
      </trkpt>
      <trkpt lat="47.882" lon="5.14492">
        <ele>368</ele>
        <time>2022-05-23T00:17:47Z</time>
      </trkpt>
      <trkpt lat="47.88209" lon="5.1459">
        <ele>368</ele>
        <time>2022-05-23T00:17:59Z</time>
      </trkpt>
      <trkpt lat="47.88215" lon="5.14694">
        <ele>371</ele>
        <time>2022-05-23T00:18:11Z</time>
      </trkpt>
      <trkpt lat="47.88223" lon="5.14766">
        <ele>372</ele>
        <time>2022-05-23T00:18:20Z</time>
      </trkpt>
      <trkpt lat="47.88229" lon="5.15063">
        <ele>377</ele>
        <time>2022-05-23T00:18:56Z</time>
      </trkpt>
      <trkpt lat="47.88257" lon="5.1524">
        <ele>378</ele>
        <time>2022-05-23T00:19:17Z</time>
      </trkpt>
      <trkpt lat="47.88274" lon="5.15382">
        <ele>381</ele>
        <time>2022-05-23T00:19:34Z</time>
      </trkpt>
      <trkpt lat="47.88281" lon="5.15412">
        <ele>382</ele>
        <time>2022-05-23T00:19:38Z</time>
      </trkpt>
      <trkpt lat="47.88315" lon="5.15442">
        <ele>381</ele>
        <time>2022-05-23T00:19:45Z</time>
      </trkpt>
      <trkpt lat="47.88337" lon="5.15478">
        <ele>380</ele>
        <time>2022-05-23T00:19:51Z</time>
      </trkpt>
      <trkpt lat="47.88359" lon="5.15546">
        <ele>380</ele>
        <time>2022-05-23T00:20:00Z</time>
      </trkpt>
      <trkpt lat="47.88373" lon="5.15572">
        <ele>381</ele>
        <time>2022-05-23T00:20:04Z</time>
      </trkpt>
      <trkpt lat="47.88406" lon="5.15608">
        <ele>382</ele>
        <time>2022-05-23T00:20:11Z</time>
      </trkpt>
      <trkpt lat="47.88413" lon="5.15637">
        <ele>383</ele>
        <time>2022-05-23T00:20:15Z</time>
      </trkpt>
      <trkpt lat="47.88414" lon="5.15654">
        <ele>384</ele>
        <time>2022-05-23T00:20:17Z</time>
      </trkpt>
      <trkpt lat="47.88412" lon="5.1572">
        <ele>384</ele>
        <time>2022-05-23T00:20:25Z</time>
      </trkpt>
      <trkpt lat="47.88406" lon="5.15748">
        <ele>385</ele>
        <time>2022-05-23T00:20:28Z</time>
      </trkpt>
      <trkpt lat="47.8841" lon="5.1579">
        <ele>384</ele>
        <time>2022-05-23T00:20:33Z</time>
      </trkpt>
      <trkpt lat="47.8842" lon="5.15787">
        <ele>384</ele>
        <time>2022-05-23T00:20:35Z</time>
      </trkpt>
      <trkpt lat="47.88445" lon="5.15766">
        <ele>386</ele>
        <time>2022-05-23T00:20:40Z</time>
      </trkpt>
      <trkpt lat="47.88455" lon="5.15762">
        <ele>387</ele>
        <time>2022-05-23T00:20:42Z</time>
      </trkpt>
      <trkpt lat="47.88474" lon="5.15759">
        <ele>388</ele>
        <time>2022-05-23T00:20:46Z</time>
      </trkpt>
      <trkpt lat="47.88493" lon="5.15762">
        <ele>389</ele>
        <time>2022-05-23T00:20:49Z</time>
      </trkpt>
      <trkpt lat="47.88512" lon="5.1577">
        <ele>391</ele>
        <time>2022-05-23T00:20:53Z</time>
      </trkpt>
      <trkpt lat="47.8853" lon="5.15781">
        <ele>393</ele>
        <time>2022-05-23T00:20:56Z</time>
      </trkpt>
      <trkpt lat="47.88554" lon="5.15803">
        <ele>395</ele>
        <time>2022-05-23T00:21:01Z</time>
      </trkpt>
      <trkpt lat="47.88615" lon="5.15877">
        <ele>399</ele>
        <time>2022-05-23T00:21:15Z</time>
      </trkpt>
      <trkpt lat="47.88621" lon="5.15888">
        <ele>399</ele>
        <time>2022-05-23T00:21:17Z</time>
      </trkpt>
      <trkpt lat="47.8863" lon="5.15895">
        <ele>400</ele>
        <time>2022-05-23T00:21:19Z</time>
      </trkpt>
      <trkpt lat="47.88643" lon="5.15916">
        <ele>401</ele>
        <time>2022-05-23T00:21:22Z</time>
      </trkpt>
      <trkpt lat="47.88652" lon="5.15924">
        <ele>402</ele>
        <time>2022-05-23T00:21:24Z</time>
      </trkpt>
      <trkpt lat="47.88657" lon="5.15935">
        <ele>402</ele>
        <time>2022-05-23T00:21:25Z</time>
      </trkpt>
      <trkpt lat="47.88727" lon="5.16013">
        <ele>406</ele>
        <time>2022-05-23T00:21:41Z</time>
      </trkpt>
      <trkpt lat="47.88731" lon="5.16024">
        <ele>406</ele>
        <time>2022-05-23T00:21:42Z</time>
      </trkpt>
      <trkpt lat="47.88736" lon="5.16056">
        <ele>406</ele>
        <time>2022-05-23T00:21:46Z</time>
      </trkpt>
      <trkpt lat="47.88745" lon="5.16135">
        <ele>410</ele>
        <time>2022-05-23T00:21:56Z</time>
      </trkpt>
      <trkpt lat="47.88746" lon="5.16196">
        <ele>411</ele>
        <time>2022-05-23T00:22:03Z</time>
      </trkpt>
      <trkpt lat="47.88729" lon="5.16486">
        <ele>419</ele>
        <time>2022-05-23T00:22:38Z</time>
      </trkpt>
      <trkpt lat="47.8873" lon="5.16725">
        <ele>422</ele>
        <time>2022-05-23T00:23:06Z</time>
      </trkpt>
      <trkpt lat="47.88723" lon="5.1693">
        <ele>425</ele>
        <time>2022-05-23T00:23:31Z</time>
      </trkpt>
      <trkpt lat="47.88714" lon="5.17024">
        <ele>426</ele>
        <time>2022-05-23T00:23:42Z</time>
      </trkpt>
      <trkpt lat="47.88705" lon="5.17053">
        <ele>426</ele>
        <time>2022-05-23T00:23:46Z</time>
      </trkpt>
      <trkpt lat="47.88693" lon="5.17078">
        <ele>426</ele>
        <time>2022-05-23T00:23:50Z</time>
      </trkpt>
      <trkpt lat="47.88678" lon="5.17099">
        <ele>425</ele>
        <time>2022-05-23T00:23:53Z</time>
      </trkpt>
      <trkpt lat="47.88636" lon="5.17143">
        <ele>424</ele>
        <time>2022-05-23T00:24:03Z</time>
      </trkpt>
      <trkpt lat="47.88608" lon="5.17205">
        <ele>424</ele>
        <time>2022-05-23T00:24:11Z</time>
      </trkpt>
      <trkpt lat="47.8859" lon="5.17232">
        <ele>425</ele>
        <time>2022-05-23T00:24:16Z</time>
      </trkpt>
      <trkpt lat="47.88546" lon="5.17259">
        <ele>424</ele>
        <time>2022-05-23T00:24:24Z</time>
      </trkpt>
      <trkpt lat="47.88534" lon="5.17269">
        <ele>424</ele>
        <time>2022-05-23T00:24:27Z</time>
      </trkpt>
      <trkpt lat="47.88507" lon="5.17282">
        <ele>423</ele>
        <time>2022-05-23T00:24:32Z</time>
      </trkpt>
      <trkpt lat="47.88451" lon="5.17317">
        <ele>423</ele>
        <time>2022-05-23T00:24:43Z</time>
      </trkpt>
      <trkpt lat="47.88444" lon="5.17331">
        <ele>422</ele>
        <time>2022-05-23T00:24:45Z</time>
      </trkpt>
      <trkpt lat="47.88446" lon="5.17352">
        <ele>419</ele>
        <time>2022-05-23T00:24:47Z</time>
      </trkpt>
      <trkpt lat="47.88458" lon="5.17365">
        <ele>417</ele>
        <time>2022-05-23T00:24:50Z</time>
      </trkpt>
      <trkpt lat="47.8847" lon="5.1736">
        <ele>417</ele>
        <time>2022-05-23T00:24:52Z</time>
      </trkpt>
      <trkpt lat="47.8848" lon="5.17348">
        <ele>418</ele>
        <time>2022-05-23T00:24:55Z</time>
      </trkpt>
      <trkpt lat="47.88491" lon="5.17342">
        <ele>418</ele>
        <time>2022-05-23T00:24:57Z</time>
      </trkpt>
      <trkpt lat="47.88506" lon="5.17345">
        <ele>418</ele>
        <time>2022-05-23T00:24:59Z</time>
      </trkpt>
      <trkpt lat="47.88534" lon="5.17365">
        <ele>415</ele>
        <time>2022-05-23T00:25:05Z</time>
      </trkpt>
      <trkpt lat="47.8861" lon="5.17406">
        <ele>407</ele>
        <time>2022-05-23T00:25:19Z</time>
      </trkpt>
      <trkpt lat="47.88632" lon="5.17428">
        <ele>403</ele>
        <time>2022-05-23T00:25:24Z</time>
      </trkpt>
      <trkpt lat="47.8864" lon="5.17444">
        <ele>401</ele>
        <time>2022-05-23T00:25:26Z</time>
      </trkpt>
      <trkpt lat="47.88648" lon="5.17474">
        <ele>397</ele>
        <time>2022-05-23T00:25:30Z</time>
      </trkpt>
      <trkpt lat="47.88657" lon="5.17535">
        <ele>393</ele>
        <time>2022-05-23T00:25:38Z</time>
      </trkpt>
      <trkpt lat="47.88665" lon="5.17652">
        <ele>390</ele>
        <time>2022-05-23T00:25:52Z</time>
      </trkpt>
      <trkpt lat="47.88665" lon="5.17684">
        <ele>390</ele>
        <time>2022-05-23T00:25:55Z</time>
      </trkpt>
      <trkpt lat="47.88668" lon="5.17703">
        <ele>390</ele>
        <time>2022-05-23T00:25:58Z</time>
      </trkpt>
      <trkpt lat="47.88688" lon="5.17783">
        <ele>388</ele>
        <time>2022-05-23T00:26:08Z</time>
      </trkpt>
      <trkpt lat="47.88712" lon="5.17908">
        <ele>389</ele>
        <time>2022-05-23T00:26:23Z</time>
      </trkpt>
      <trkpt lat="47.88743" lon="5.18032">
        <ele>392</ele>
        <time>2022-05-23T00:26:39Z</time>
      </trkpt>
      <trkpt lat="47.88757" lon="5.18083">
        <ele>393</ele>
        <time>2022-05-23T00:26:46Z</time>
      </trkpt>
      <trkpt lat="47.88794" lon="5.18192">
        <ele>392</ele>
        <time>2022-05-23T00:27:00Z</time>
      </trkpt>
      <trkpt lat="47.88803" lon="5.18226">
        <ele>391</ele>
        <time>2022-05-23T00:27:05Z</time>
      </trkpt>
      <trkpt lat="47.8881" lon="5.18275">
        <ele>390</ele>
        <time>2022-05-23T00:27:11Z</time>
      </trkpt>
      <trkpt lat="47.8882" lon="5.1832">
        <ele>389</ele>
        <time>2022-05-23T00:27:16Z</time>
      </trkpt>
      <trkpt lat="47.88821" lon="5.18341">
        <ele>388</ele>
        <time>2022-05-23T00:27:19Z</time>
      </trkpt>
      <trkpt lat="47.88817" lon="5.18373">
        <ele>385</ele>
        <time>2022-05-23T00:27:23Z</time>
      </trkpt>
      <trkpt lat="47.88833" lon="5.18414">
        <ele>381</ele>
        <time>2022-05-23T00:27:28Z</time>
      </trkpt>
      <trkpt lat="47.88846" lon="5.18435">
        <ele>380</ele>
        <time>2022-05-23T00:27:32Z</time>
      </trkpt>
      <trkpt lat="47.8885" lon="5.18447">
        <ele>379</ele>
        <time>2022-05-23T00:27:33Z</time>
      </trkpt>
      <trkpt lat="47.8885" lon="5.18464">
        <ele>379</ele>
        <time>2022-05-23T00:27:36Z</time>
      </trkpt>
      <trkpt lat="47.88854" lon="5.18482">
        <ele>378</ele>
        <time>2022-05-23T00:27:38Z</time>
      </trkpt>
      <trkpt lat="47.8888" lon="5.1853">
        <ele>377</ele>
        <time>2022-05-23T00:27:45Z</time>
      </trkpt>
      <trkpt lat="47.88885" lon="5.18546">
        <ele>377</ele>
        <time>2022-05-23T00:27:47Z</time>
      </trkpt>
      <trkpt lat="47.88892" lon="5.18575">
        <ele>377</ele>
        <time>2022-05-23T00:27:51Z</time>
      </trkpt>
      <trkpt lat="47.88897" lon="5.18619">
        <ele>378</ele>
        <time>2022-05-23T00:27:56Z</time>
      </trkpt>
      <trkpt lat="47.88906" lon="5.18663">
        <ele>380</ele>
        <time>2022-05-23T00:28:02Z</time>
      </trkpt>
      <trkpt lat="47.8894" lon="5.18789">
        <ele>384</ele>
        <time>2022-05-23T00:28:18Z</time>
      </trkpt>
      <trkpt lat="47.88946" lon="5.18803">
        <ele>385</ele>
        <time>2022-05-23T00:28:20Z</time>
      </trkpt>
      <trkpt lat="47.88969" lon="5.18883">
        <ele>386</ele>
        <time>2022-05-23T00:28:30Z</time>
      </trkpt>
      <trkpt lat="47.88975" lon="5.18926">
        <ele>387</ele>
        <time>2022-05-23T00:28:36Z</time>
      </trkpt>
      <trkpt lat="47.88979" lon="5.18985">
        <ele>388</ele>
        <time>2022-05-23T00:28:43Z</time>
      </trkpt>
      <trkpt lat="47.88978" lon="5.1903">
        <ele>388</ele>
        <time>2022-05-23T00:28:48Z</time>
      </trkpt>
      <trkpt lat="47.88962" lon="5.19173">
        <ele>390</ele>
        <time>2022-05-23T00:29:05Z</time>
      </trkpt>
      <trkpt lat="47.88957" lon="5.19245">
        <ele>391</ele>
        <time>2022-05-23T00:29:14Z</time>
      </trkpt>
      <trkpt lat="47.88957" lon="5.19289">
        <ele>391</ele>
        <time>2022-05-23T00:29:19Z</time>
      </trkpt>
      <trkpt lat="47.88966" lon="5.19381">
        <ele>392</ele>
        <time>2022-05-23T00:29:30Z</time>
      </trkpt>
      <trkpt lat="47.88965" lon="5.1941">
        <ele>392</ele>
        <time>2022-05-23T00:29:34Z</time>
      </trkpt>
      <trkpt lat="47.88968" lon="5.1944">
        <ele>392</ele>
        <time>2022-05-23T00:29:37Z</time>
      </trkpt>
      <trkpt lat="47.88964" lon="5.19531">
        <ele>393</ele>
        <time>2022-05-23T00:29:48Z</time>
      </trkpt>
      <trkpt lat="47.88966" lon="5.19547">
        <ele>393</ele>
        <time>2022-05-23T00:29:50Z</time>
      </trkpt>
      <trkpt lat="47.88961" lon="5.19847">
        <ele>396</ele>
        <time>2022-05-23T00:30:26Z</time>
      </trkpt>
      <trkpt lat="47.88968" lon="5.1998">
        <ele>401</ele>
        <time>2022-05-23T00:30:42Z</time>
      </trkpt>
      <trkpt lat="47.88982" lon="5.20084">
        <ele>404</ele>
        <time>2022-05-23T00:30:55Z</time>
      </trkpt>
      <trkpt lat="47.88973" lon="5.20154">
        <ele>406</ele>
        <time>2022-05-23T00:31:03Z</time>
      </trkpt>
      <trkpt lat="47.88946" lon="5.20249">
        <ele>410</ele>
        <time>2022-05-23T00:31:15Z</time>
      </trkpt>
      <trkpt lat="47.88933" lon="5.20287">
        <ele>412</ele>
        <time>2022-05-23T00:31:20Z</time>
      </trkpt>
      <trkpt lat="47.88902" lon="5.20408">
        <ele>422</ele>
        <time>2022-05-23T00:31:36Z</time>
      </trkpt>
      <trkpt lat="47.88896" lon="5.20419">
        <ele>424</ele>
        <time>2022-05-23T00:31:38Z</time>
      </trkpt>
      <trkpt lat="47.88878" lon="5.2047">
        <ele>429</ele>
        <time>2022-05-23T00:31:44Z</time>
      </trkpt>
      <trkpt lat="47.88864" lon="5.20491">
        <ele>431</ele>
        <time>2022-05-23T00:31:48Z</time>
      </trkpt>
      <trkpt lat="47.88848" lon="5.20526">
        <ele>434</ele>
        <time>2022-05-23T00:31:53Z</time>
      </trkpt>
      <trkpt lat="47.8884" lon="5.20533">
        <ele>434</ele>
        <time>2022-05-23T00:31:55Z</time>
      </trkpt>
      <trkpt lat="47.88831" lon="5.20536">
        <ele>435</ele>
        <time>2022-05-23T00:31:56Z</time>
      </trkpt>
      <trkpt lat="47.88805" lon="5.20579">
        <ele>438</ele>
        <time>2022-05-23T00:32:03Z</time>
      </trkpt>
      <trkpt lat="47.88775" lon="5.2064">
        <ele>441</ele>
        <time>2022-05-23T00:32:12Z</time>
      </trkpt>
      <trkpt lat="47.88762" lon="5.2068">
        <ele>442</ele>
        <time>2022-05-23T00:32:18Z</time>
      </trkpt>
      <trkpt lat="47.88756" lon="5.20725">
        <ele>442</ele>
        <time>2022-05-23T00:32:23Z</time>
      </trkpt>
      <trkpt lat="47.88755" lon="5.20753">
        <ele>442</ele>
        <time>2022-05-23T00:32:26Z</time>
      </trkpt>
      <trkpt lat="47.88764" lon="5.20816">
        <ele>443</ele>
        <time>2022-05-23T00:32:34Z</time>
      </trkpt>
      <trkpt lat="47.88766" lon="5.20878">
        <ele>443</ele>
        <time>2022-05-23T00:32:42Z</time>
      </trkpt>
      <trkpt lat="47.88755" lon="5.20967">
        <ele>443</ele>
        <time>2022-05-23T00:32:52Z</time>
      </trkpt>
      <trkpt lat="47.88765" lon="5.21115">
        <ele>437</ele>
        <time>2022-05-23T00:33:10Z</time>
      </trkpt>
      <trkpt lat="47.88754" lon="5.21194">
        <ele>433</ele>
        <time>2022-05-23T00:33:20Z</time>
      </trkpt>
      <trkpt lat="47.88751" lon="5.21247">
        <ele>429</ele>
        <time>2022-05-23T00:33:26Z</time>
      </trkpt>
      <trkpt lat="47.8874" lon="5.21322">
        <ele>424</ele>
        <time>2022-05-23T00:33:35Z</time>
      </trkpt>
      <trkpt lat="47.8873" lon="5.21371">
        <ele>421</ele>
        <time>2022-05-23T00:33:41Z</time>
      </trkpt>
      <trkpt lat="47.88707" lon="5.21462">
        <ele>417</ele>
        <time>2022-05-23T00:33:53Z</time>
      </trkpt>
      <trkpt lat="47.887" lon="5.21504">
        <ele>415</ele>
        <time>2022-05-23T00:33:58Z</time>
      </trkpt>
      <trkpt lat="47.88699" lon="5.216">
        <ele>414</ele>
        <time>2022-05-23T00:34:10Z</time>
      </trkpt>
      <trkpt lat="47.88705" lon="5.21706">
        <ele>413</ele>
        <time>2022-05-23T00:34:22Z</time>
      </trkpt>
      <trkpt lat="47.88705" lon="5.21744">
        <ele>412</ele>
        <time>2022-05-23T00:34:27Z</time>
      </trkpt>
      <trkpt lat="47.887" lon="5.21796">
        <ele>412</ele>
        <time>2022-05-23T00:34:33Z</time>
      </trkpt>
      <trkpt lat="47.88681" lon="5.21887">
        <ele>412</ele>
        <time>2022-05-23T00:34:44Z</time>
      </trkpt>
      <trkpt lat="47.88677" lon="5.21933">
        <ele>411</ele>
        <time>2022-05-23T00:34:50Z</time>
      </trkpt>
      <trkpt lat="47.88679" lon="5.21968">
        <ele>411</ele>
        <time>2022-05-23T00:34:54Z</time>
      </trkpt>
      <trkpt lat="47.88705" lon="5.2213">
        <ele>409</ele>
        <time>2022-05-23T00:35:14Z</time>
      </trkpt>
      <trkpt lat="47.88709" lon="5.22177">
        <ele>409</ele>
        <time>2022-05-23T00:35:20Z</time>
      </trkpt>
      <trkpt lat="47.88711" lon="5.22253">
        <ele>409</ele>
        <time>2022-05-23T00:35:29Z</time>
      </trkpt>
      <trkpt lat="47.88708" lon="5.22332">
        <ele>409</ele>
        <time>2022-05-23T00:35:38Z</time>
      </trkpt>
      <trkpt lat="47.8871" lon="5.22366">
        <ele>408</ele>
        <time>2022-05-23T00:35:42Z</time>
      </trkpt>
      <trkpt lat="47.887" lon="5.22511">
        <ele>412</ele>
        <time>2022-05-23T00:36:00Z</time>
      </trkpt>
      <trkpt lat="47.88694" lon="5.22539">
        <ele>412</ele>
        <time>2022-05-23T00:36:03Z</time>
      </trkpt>
      <trkpt lat="47.88688" lon="5.22628">
        <ele>412</ele>
        <time>2022-05-23T00:36:14Z</time>
      </trkpt>
      <trkpt lat="47.88675" lon="5.23184">
        <ele>415</ele>
        <time>2022-05-23T00:37:20Z</time>
      </trkpt>
      <trkpt lat="47.88672" lon="5.23231">
        <ele>415</ele>
        <time>2022-05-23T00:37:26Z</time>
      </trkpt>
      <trkpt lat="47.88668" lon="5.23423">
        <ele>415</ele>
        <time>2022-05-23T00:37:49Z</time>
      </trkpt>
      <trkpt lat="47.88663" lon="5.23513">
        <ele>416</ele>
        <time>2022-05-23T00:38:00Z</time>
      </trkpt>
      <trkpt lat="47.88666" lon="5.23587">
        <ele>416</ele>
        <time>2022-05-23T00:38:08Z</time>
      </trkpt>
      <trkpt lat="47.88671" lon="5.23637">
        <ele>415</ele>
        <time>2022-05-23T00:38:14Z</time>
      </trkpt>
      <trkpt lat="47.8868" lon="5.23697">
        <ele>415</ele>
        <time>2022-05-23T00:38:22Z</time>
      </trkpt>
      <trkpt lat="47.88701" lon="5.23797">
        <ele>416</ele>
        <time>2022-05-23T00:38:34Z</time>
      </trkpt>
      <trkpt lat="47.88717" lon="5.23929">
        <ele>413</ele>
        <time>2022-05-23T00:38:50Z</time>
      </trkpt>
      <trkpt lat="47.8872" lon="5.23968">
        <ele>412</ele>
        <time>2022-05-23T00:38:55Z</time>
      </trkpt>
      <trkpt lat="47.88718" lon="5.24014">
        <ele>412</ele>
        <time>2022-05-23T00:39:00Z</time>
      </trkpt>
      <trkpt lat="47.88692" lon="5.24178">
        <ele>414</ele>
        <time>2022-05-23T00:39:21Z</time>
      </trkpt>
      <trkpt lat="47.88657" lon="5.24512">
        <ele>418</ele>
        <time>2022-05-23T00:40:01Z</time>
      </trkpt>
      <trkpt lat="47.88629" lon="5.24638">
        <ele>416</ele>
        <time>2022-05-23T00:40:17Z</time>
      </trkpt>
      <trkpt lat="47.88623" lon="5.24685">
        <ele>415</ele>
        <time>2022-05-23T00:40:22Z</time>
      </trkpt>
      <trkpt lat="47.88619" lon="5.24752">
        <ele>413</ele>
        <time>2022-05-23T00:40:30Z</time>
      </trkpt>
      <trkpt lat="47.88596" lon="5.24821">
        <ele>411</ele>
        <time>2022-05-23T00:40:40Z</time>
      </trkpt>
      <trkpt lat="47.88598" lon="5.24856">
        <ele>411</ele>
        <time>2022-05-23T00:40:44Z</time>
      </trkpt>
      <trkpt lat="47.88605" lon="5.24885">
        <ele>410</ele>
        <time>2022-05-23T00:40:48Z</time>
      </trkpt>
      <trkpt lat="47.88614" lon="5.24968">
        <ele>408</ele>
        <time>2022-05-23T00:40:58Z</time>
      </trkpt>
      <trkpt lat="47.88618" lon="5.25079">
        <ele>407</ele>
        <time>2022-05-23T00:41:11Z</time>
      </trkpt>
      <trkpt lat="47.88617" lon="5.25125">
        <ele>406</ele>
        <time>2022-05-23T00:41:16Z</time>
      </trkpt>
      <trkpt lat="47.88601" lon="5.2521">
        <ele>403</ele>
        <time>2022-05-23T00:41:27Z</time>
      </trkpt>
      <trkpt lat="47.88601" lon="5.25233">
        <ele>401</ele>
        <time>2022-05-23T00:41:30Z</time>
      </trkpt>
      <trkpt lat="47.88607" lon="5.25271">
        <ele>400</ele>
        <time>2022-05-23T00:41:34Z</time>
      </trkpt>
      <trkpt lat="47.88603" lon="5.25317">
        <ele>398</ele>
        <time>2022-05-23T00:41:40Z</time>
      </trkpt>
      <trkpt lat="47.88595" lon="5.25355">
        <ele>394</ele>
        <time>2022-05-23T00:41:45Z</time>
      </trkpt>
      <trkpt lat="47.88577" lon="5.25396">
        <ele>389</ele>
        <time>2022-05-23T00:41:50Z</time>
      </trkpt>
      <trkpt lat="47.88565" lon="5.25432">
        <ele>386</ele>
        <time>2022-05-23T00:41:55Z</time>
      </trkpt>
      <trkpt lat="47.88558" lon="5.25449">
        <ele>385</ele>
        <time>2022-05-23T00:41:58Z</time>
      </trkpt>
      <trkpt lat="47.88538" lon="5.2548">
        <ele>382</ele>
        <time>2022-05-23T00:42:03Z</time>
      </trkpt>
      <trkpt lat="47.88527" lon="5.25492">
        <ele>381</ele>
        <time>2022-05-23T00:42:05Z</time>
      </trkpt>
      <trkpt lat="47.88515" lon="5.255">
        <ele>380</ele>
        <time>2022-05-23T00:42:07Z</time>
      </trkpt>
      <trkpt lat="47.8848" lon="5.25508">
        <ele>379</ele>
        <time>2022-05-23T00:42:14Z</time>
      </trkpt>
      <trkpt lat="47.88473" lon="5.25518">
        <ele>377</ele>
        <time>2022-05-23T00:42:15Z</time>
      </trkpt>
      <trkpt lat="47.88453" lon="5.25532">
        <ele>375</ele>
        <time>2022-05-23T00:42:19Z</time>
      </trkpt>
      <trkpt lat="47.88446" lon="5.25542">
        <ele>374</ele>
        <time>2022-05-23T00:42:21Z</time>
      </trkpt>
      <trkpt lat="47.88442" lon="5.25562">
        <ele>372</ele>
        <time>2022-05-23T00:42:24Z</time>
      </trkpt>
      <trkpt lat="47.88432" lon="5.2557">
        <ele>370</ele>
        <time>2022-05-23T00:42:26Z</time>
      </trkpt>
      <trkpt lat="47.88432" lon="5.25586">
        <ele>368</ele>
        <time>2022-05-23T00:42:28Z</time>
      </trkpt>
      <trkpt lat="47.88437" lon="5.25599">
        <ele>367</ele>
        <time>2022-05-23T00:42:29Z</time>
      </trkpt>
      <trkpt lat="47.8845" lon="5.25605">
        <ele>367</ele>
        <time>2022-05-23T00:42:32Z</time>
      </trkpt>
      <trkpt lat="47.8845" lon="5.25622">
        <ele>365</ele>
        <time>2022-05-23T00:42:34Z</time>
      </trkpt>
      <trkpt lat="47.88433" lon="5.25663">
        <ele>360</ele>
        <time>2022-05-23T00:42:40Z</time>
      </trkpt>
      <trkpt lat="47.88435" lon="5.25718">
        <ele>353</ele>
        <time>2022-05-23T00:42:46Z</time>
      </trkpt>
      <trkpt lat="47.88432" lon="5.2577">
        <ele>347</ele>
        <time>2022-05-23T00:42:52Z</time>
      </trkpt>
      <trkpt lat="47.88436" lon="5.25844">
        <ele>343</ele>
        <time>2022-05-23T00:43:01Z</time>
      </trkpt>
      <trkpt lat="47.88451" lon="5.2591">
        <ele>342</ele>
        <time>2022-05-23T00:43:09Z</time>
      </trkpt>
      <trkpt lat="47.88451" lon="5.25931">
        <ele>341</ele>
        <time>2022-05-23T00:43:12Z</time>
      </trkpt>
      <trkpt lat="47.88426" lon="5.26005">
        <ele>339</ele>
        <time>2022-05-23T00:43:22Z</time>
      </trkpt>
      <trkpt lat="47.88406" lon="5.2608">
        <ele>340</ele>
        <time>2022-05-23T00:43:32Z</time>
      </trkpt>
      <trkpt lat="47.884" lon="5.26106">
        <ele>341</ele>
        <time>2022-05-23T00:43:35Z</time>
      </trkpt>
      <trkpt lat="47.88399" lon="5.26127">
        <ele>341</ele>
        <time>2022-05-23T00:43:37Z</time>
      </trkpt>
      <trkpt lat="47.88402" lon="5.26244">
        <ele>345</ele>
        <time>2022-05-23T00:43:51Z</time>
      </trkpt>
      <trkpt lat="47.88419" lon="5.26359">
        <ele>349</ele>
        <time>2022-05-23T00:44:05Z</time>
      </trkpt>
      <trkpt lat="47.88425" lon="5.26487">
        <ele>350</ele>
        <time>2022-05-23T00:44:21Z</time>
      </trkpt>
      <trkpt lat="47.88431" lon="5.26516">
        <ele>349</ele>
        <time>2022-05-23T00:44:24Z</time>
      </trkpt>
      <trkpt lat="47.8843" lon="5.26532">
        <ele>349</ele>
        <time>2022-05-23T00:44:26Z</time>
      </trkpt>
      <trkpt lat="47.8844" lon="5.26692">
        <ele>349</ele>
        <time>2022-05-23T00:44:45Z</time>
      </trkpt>
      <trkpt lat="47.88441" lon="5.26777">
        <ele>349</ele>
        <time>2022-05-23T00:44:56Z</time>
      </trkpt>
      <trkpt lat="47.88451" lon="5.2685">
        <ele>349</ele>
        <time>2022-05-23T00:45:04Z</time>
      </trkpt>
      <trkpt lat="47.88462" lon="5.26897">
        <ele>348</ele>
        <time>2022-05-23T00:45:10Z</time>
      </trkpt>
      <trkpt lat="47.88468" lon="5.26943">
        <ele>348</ele>
        <time>2022-05-23T00:45:16Z</time>
      </trkpt>
      <trkpt lat="47.88467" lon="5.27068">
        <ele>346</ele>
        <time>2022-05-23T00:45:31Z</time>
      </trkpt>
      <trkpt lat="47.88483" lon="5.27131">
        <ele>343</ele>
        <time>2022-05-23T00:45:39Z</time>
      </trkpt>
      <trkpt lat="47.88493" lon="5.27198">
        <ele>340</ele>
        <time>2022-05-23T00:45:47Z</time>
      </trkpt>
      <trkpt lat="47.88492" lon="5.27234">
        <ele>340</ele>
        <time>2022-05-23T00:45:51Z</time>
      </trkpt>
      <trkpt lat="47.88486" lon="5.2728">
        <ele>340</ele>
        <time>2022-05-23T00:45:57Z</time>
      </trkpt>
      <trkpt lat="47.88468" lon="5.27336">
        <ele>341</ele>
        <time>2022-05-23T00:46:04Z</time>
      </trkpt>
      <trkpt lat="47.8846" lon="5.27371">
        <ele>343</ele>
        <time>2022-05-23T00:46:09Z</time>
      </trkpt>
      <trkpt lat="47.88457" lon="5.27415">
        <ele>344</ele>
        <time>2022-05-23T00:46:14Z</time>
      </trkpt>
      <trkpt lat="47.88464" lon="5.27545">
        <ele>352</ele>
        <time>2022-05-23T00:46:30Z</time>
      </trkpt>
      <trkpt lat="47.88468" lon="5.27573">
        <ele>355</ele>
        <time>2022-05-23T00:46:33Z</time>
      </trkpt>
      <trkpt lat="47.88475" lon="5.27674">
        <ele>362</ele>
        <time>2022-05-23T00:46:45Z</time>
      </trkpt>
      <trkpt lat="47.88475" lon="5.27701">
        <ele>365</ele>
        <time>2022-05-23T00:46:48Z</time>
      </trkpt>
      <trkpt lat="47.88467" lon="5.27728">
        <ele>367</ele>
        <time>2022-05-23T00:46:52Z</time>
      </trkpt>
      <trkpt lat="47.8846" lon="5.27737">
        <ele>367</ele>
        <time>2022-05-23T00:46:54Z</time>
      </trkpt>
      <trkpt lat="47.8843" lon="5.27796">
        <ele>371</ele>
        <time>2022-05-23T00:47:02Z</time>
      </trkpt>
      <trkpt lat="47.88404" lon="5.27872">
        <ele>379</ele>
        <time>2022-05-23T00:47:13Z</time>
      </trkpt>
      <trkpt lat="47.88356" lon="5.27944">
        <ele>389</ele>
        <time>2022-05-23T00:47:25Z</time>
      </trkpt>
      <trkpt lat="47.88308" lon="5.27991">
        <ele>394</ele>
        <time>2022-05-23T00:47:35Z</time>
      </trkpt>
      <trkpt lat="47.88288" lon="5.28021">
        <ele>396</ele>
        <time>2022-05-23T00:47:40Z</time>
      </trkpt>
      <trkpt lat="47.88265" lon="5.28049">
        <ele>398</ele>
        <time>2022-05-23T00:47:45Z</time>
      </trkpt>
      <trkpt lat="47.88254" lon="5.28073">
        <ele>399</ele>
        <time>2022-05-23T00:47:49Z</time>
      </trkpt>
      <trkpt lat="47.88241" lon="5.28127">
        <ele>401</ele>
        <time>2022-05-23T00:47:56Z</time>
      </trkpt>
      <trkpt lat="47.88223" lon="5.28178">
        <ele>404</ele>
        <time>2022-05-23T00:48:02Z</time>
      </trkpt>
      <trkpt lat="47.88221" lon="5.28192">
        <ele>405</ele>
        <time>2022-05-23T00:48:04Z</time>
      </trkpt>
      <trkpt lat="47.88205" lon="5.28246">
        <ele>409</ele>
        <time>2022-05-23T00:48:11Z</time>
      </trkpt>
      <trkpt lat="47.88189" lon="5.28386">
        <ele>416</ele>
        <time>2022-05-23T00:48:28Z</time>
      </trkpt>
      <trkpt lat="47.88181" lon="5.28411">
        <ele>417</ele>
        <time>2022-05-23T00:48:31Z</time>
      </trkpt>
      <trkpt lat="47.88175" lon="5.28421">
        <ele>417</ele>
        <time>2022-05-23T00:48:33Z</time>
      </trkpt>
      <trkpt lat="47.88158" lon="5.28438">
        <ele>418</ele>
        <time>2022-05-23T00:48:37Z</time>
      </trkpt>
      <trkpt lat="47.88118" lon="5.28452">
        <ele>419</ele>
        <time>2022-05-23T00:48:44Z</time>
      </trkpt>
      <trkpt lat="47.88091" lon="5.2847">
        <ele>420</ele>
        <time>2022-05-23T00:48:49Z</time>
      </trkpt>
      <trkpt lat="47.88074" lon="5.28486">
        <ele>421</ele>
        <time>2022-05-23T00:48:53Z</time>
      </trkpt>
      <trkpt lat="47.88051" lon="5.28516">
        <ele>422</ele>
        <time>2022-05-23T00:48:58Z</time>
      </trkpt>
      <trkpt lat="47.88025" lon="5.28542">
        <ele>423</ele>
        <time>2022-05-23T00:49:04Z</time>
      </trkpt>
      <trkpt lat="47.88003" lon="5.28573">
        <ele>424</ele>
        <time>2022-05-23T00:49:09Z</time>
      </trkpt>
      <trkpt lat="47.87986" lon="5.28591">
        <ele>424</ele>
        <time>2022-05-23T00:49:13Z</time>
      </trkpt>
      <trkpt lat="47.87912" lon="5.28716">
        <ele>428</ele>
        <time>2022-05-23T00:49:33Z</time>
      </trkpt>
      <trkpt lat="47.87888" lon="5.28763">
        <ele>430</ele>
        <time>2022-05-23T00:49:40Z</time>
      </trkpt>
      <trkpt lat="47.87844" lon="5.28862">
        <ele>433</ele>
        <time>2022-05-23T00:49:54Z</time>
      </trkpt>
      <trkpt lat="47.87802" lon="5.28923">
        <ele>435</ele>
        <time>2022-05-23T00:50:04Z</time>
      </trkpt>
      <trkpt lat="47.87771" lon="5.28965">
        <ele>437</ele>
        <time>2022-05-23T00:50:12Z</time>
      </trkpt>
      <trkpt lat="47.87711" lon="5.29038">
        <ele>439</ele>
        <time>2022-05-23T00:50:26Z</time>
      </trkpt>
      <trkpt lat="47.8763" lon="5.29126">
        <ele>442</ele>
        <time>2022-05-23T00:50:44Z</time>
      </trkpt>
      <trkpt lat="47.87541" lon="5.29213">
        <ele>444</ele>
        <time>2022-05-23T00:51:02Z</time>
      </trkpt>
      <trkpt lat="47.87473" lon="5.29285">
        <ele>445</ele>
        <time>2022-05-23T00:51:17Z</time>
      </trkpt>
      <trkpt lat="47.87375" lon="5.29416">
        <ele>446</ele>
        <time>2022-05-23T00:51:41Z</time>
      </trkpt>
      <trkpt lat="47.87329" lon="5.29485">
        <ele>444</ele>
        <time>2022-05-23T00:51:52Z</time>
      </trkpt>
      <trkpt lat="47.87268" lon="5.29599">
        <ele>439</ele>
        <time>2022-05-23T00:52:10Z</time>
      </trkpt>
      <trkpt lat="47.87148" lon="5.29728">
        <ele>434</ele>
        <time>2022-05-23T00:52:36Z</time>
      </trkpt>
      <trkpt lat="47.8711" lon="5.29777">
        <ele>433</ele>
        <time>2022-05-23T00:52:45Z</time>
      </trkpt>
      <trkpt lat="47.8708" lon="5.29821">
        <ele>432</ele>
        <time>2022-05-23T00:52:52Z</time>
      </trkpt>
      <trkpt lat="47.87069" lon="5.29864">
        <ele>431</ele>
        <time>2022-05-23T00:52:58Z</time>
      </trkpt>
      <trkpt lat="47.87049" lon="5.2992">
        <ele>430</ele>
        <time>2022-05-23T00:53:06Z</time>
      </trkpt>
      <trkpt lat="47.87012" lon="5.30045">
        <ele>430</ele>
        <time>2022-05-23T00:53:22Z</time>
      </trkpt>
      <trkpt lat="47.86999" lon="5.30078">
        <ele>430</ele>
        <time>2022-05-23T00:53:26Z</time>
      </trkpt>
      <trkpt lat="47.86974" lon="5.30165">
        <ele>428</ele>
        <time>2022-05-23T00:53:38Z</time>
      </trkpt>
      <trkpt lat="47.86967" lon="5.30207">
        <ele>425</ele>
        <time>2022-05-23T00:53:43Z</time>
      </trkpt>
      <trkpt lat="47.86967" lon="5.30279">
        <ele>422</ele>
        <time>2022-05-23T00:53:51Z</time>
      </trkpt>
      <trkpt lat="47.86976" lon="5.3033">
        <ele>419</ele>
        <time>2022-05-23T00:53:58Z</time>
      </trkpt>
      <trkpt lat="47.86993" lon="5.30396">
        <ele>418</ele>
        <time>2022-05-23T00:54:06Z</time>
      </trkpt>
      <trkpt lat="47.87009" lon="5.30477">
        <ele>419</ele>
        <time>2022-05-23T00:54:16Z</time>
      </trkpt>
      <trkpt lat="47.87021" lon="5.30517">
        <ele>418</ele>
        <time>2022-05-23T00:54:22Z</time>
      </trkpt>
      <trkpt lat="47.87062" lon="5.30599">
        <ele>410</ele>
        <time>2022-05-23T00:54:34Z</time>
      </trkpt>
      <trkpt lat="47.87102" lon="5.30666">
        <ele>403</ele>
        <time>2022-05-23T00:54:44Z</time>
      </trkpt>
      <trkpt lat="47.87127" lon="5.30713">
        <ele>399</ele>
        <time>2022-05-23T00:54:52Z</time>
      </trkpt>
      <trkpt lat="47.87152" lon="5.30777">
        <ele>396</ele>
        <time>2022-05-23T00:55:00Z</time>
      </trkpt>
      <trkpt lat="47.87165" lon="5.30829">
        <ele>396</ele>
        <time>2022-05-23T00:55:07Z</time>
      </trkpt>
      <trkpt lat="47.87177" lon="5.30902">
        <ele>391</ele>
        <time>2022-05-23T00:55:16Z</time>
      </trkpt>
      <trkpt lat="47.87179" lon="5.30994">
        <ele>386</ele>
        <time>2022-05-23T00:55:27Z</time>
      </trkpt>
      <trkpt lat="47.87175" lon="5.31021">
        <ele>385</ele>
        <time>2022-05-23T00:55:30Z</time>
      </trkpt>
      <trkpt lat="47.87162" lon="5.31076">
        <ele>383</ele>
        <time>2022-05-23T00:55:37Z</time>
      </trkpt>
      <trkpt lat="47.8713" lon="5.31199">
        <ele>376</ele>
        <time>2022-05-23T00:55:53Z</time>
      </trkpt>
      <trkpt lat="47.87096" lon="5.31322">
        <ele>372</ele>
        <time>2022-05-23T00:56:09Z</time>
      </trkpt>
      <trkpt lat="47.87082" lon="5.31363">
        <ele>370</ele>
        <time>2022-05-23T00:56:14Z</time>
      </trkpt>
      <trkpt lat="47.87053" lon="5.3142">
        <ele>366</ele>
        <time>2022-05-23T00:56:23Z</time>
      </trkpt>
      <trkpt lat="47.87034" lon="5.3145">
        <ele>364</ele>
        <time>2022-05-23T00:56:28Z</time>
      </trkpt>
      <trkpt lat="47.87007" lon="5.31487">
        <ele>363</ele>
        <time>2022-05-23T00:56:34Z</time>
      </trkpt>
      <trkpt lat="47.86965" lon="5.31535">
        <ele>360</ele>
        <time>2022-05-23T00:56:44Z</time>
      </trkpt>
      <trkpt lat="47.86956" lon="5.31551">
        <ele>360</ele>
        <time>2022-05-23T00:56:46Z</time>
      </trkpt>
      <trkpt lat="47.86949" lon="5.31572">
        <ele>358</ele>
        <time>2022-05-23T00:56:49Z</time>
      </trkpt>
      <trkpt lat="47.86943" lon="5.31621">
        <ele>356</ele>
        <time>2022-05-23T00:56:55Z</time>
      </trkpt>
      <trkpt lat="47.86943" lon="5.31646">
        <ele>355</ele>
        <time>2022-05-23T00:56:58Z</time>
      </trkpt>
      <trkpt lat="47.86947" lon="5.31671">
        <ele>354</ele>
        <time>2022-05-23T00:57:01Z</time>
      </trkpt>
      <trkpt lat="47.86976" lon="5.31788">
        <ele>350</ele>
        <time>2022-05-23T00:57:16Z</time>
      </trkpt>
      <trkpt lat="47.86993" lon="5.31873">
        <ele>349</ele>
        <time>2022-05-23T00:57:27Z</time>
      </trkpt>
      <trkpt lat="47.86999" lon="5.31923">
        <ele>350</ele>
        <time>2022-05-23T00:57:33Z</time>
      </trkpt>
      <trkpt lat="47.86991" lon="5.31932">
        <ele>351</ele>
        <time>2022-05-23T00:57:34Z</time>
      </trkpt>
      <trkpt lat="47.86955" lon="5.31959">
        <ele>353</ele>
        <time>2022-05-23T00:57:42Z</time>
      </trkpt>
      <trkpt lat="47.86947" lon="5.3197">
        <ele>354</ele>
        <time>2022-05-23T00:57:44Z</time>
      </trkpt>
      <trkpt lat="47.86942" lon="5.31982">
        <ele>354</ele>
        <time>2022-05-23T00:57:45Z</time>
      </trkpt>
      <trkpt lat="47.86937" lon="5.32052">
        <ele>359</ele>
        <time>2022-05-23T00:57:54Z</time>
      </trkpt>
      <trkpt lat="47.86932" lon="5.3208">
        <ele>361</ele>
        <time>2022-05-23T00:57:57Z</time>
      </trkpt>
      <trkpt lat="47.86907" lon="5.32189">
        <ele>366</ele>
        <time>2022-05-23T00:58:11Z</time>
      </trkpt>
      <trkpt lat="47.86895" lon="5.32228">
        <ele>367</ele>
        <time>2022-05-23T00:58:16Z</time>
      </trkpt>
      <trkpt lat="47.86854" lon="5.32328">
        <ele>371</ele>
        <time>2022-05-23T00:58:30Z</time>
      </trkpt>
      <trkpt lat="47.86746" lon="5.32564">
        <ele>393</ele>
        <time>2022-05-23T00:59:04Z</time>
      </trkpt>
      <trkpt lat="47.86728" lon="5.32575">
        <ele>395</ele>
        <time>2022-05-23T00:59:07Z</time>
      </trkpt>
      <trkpt lat="47.86719" lon="5.32571">
        <ele>395</ele>
        <time>2022-05-23T00:59:09Z</time>
      </trkpt>
      <trkpt lat="47.86704" lon="5.32553">
        <ele>396</ele>
        <time>2022-05-23T00:59:13Z</time>
      </trkpt>
      <trkpt lat="47.86685" lon="5.32553">
        <ele>397</ele>
        <time>2022-05-23T00:59:16Z</time>
      </trkpt>
      <trkpt lat="47.86672" lon="5.32594">
        <ele>400</ele>
        <time>2022-05-23T00:59:21Z</time>
      </trkpt>
      <trkpt lat="47.86664" lon="5.32599">
        <ele>401</ele>
        <time>2022-05-23T00:59:23Z</time>
      </trkpt>
      <trkpt lat="47.86632" lon="5.32598">
        <ele>402</ele>
        <time>2022-05-23T00:59:29Z</time>
      </trkpt>
      <trkpt lat="47.86622" lon="5.32602">
        <ele>403</ele>
        <time>2022-05-23T00:59:30Z</time>
      </trkpt>
      <trkpt lat="47.86617" lon="5.32644">
        <ele>407</ele>
        <time>2022-05-23T00:59:36Z</time>
      </trkpt>
      <trkpt lat="47.86606" lon="5.32699">
        <ele>413</ele>
        <time>2022-05-23T00:59:42Z</time>
      </trkpt>
      <trkpt lat="47.86602" lon="5.32756">
        <ele>418</ele>
        <time>2022-05-23T00:59:49Z</time>
      </trkpt>
      <trkpt lat="47.86597" lon="5.32768">
        <ele>419</ele>
        <time>2022-05-23T00:59:51Z</time>
      </trkpt>
      <trkpt lat="47.86571" lon="5.32791">
        <ele>422</ele>
        <time>2022-05-23T00:59:56Z</time>
      </trkpt>
      <trkpt lat="47.86541" lon="5.32827">
        <ele>425</ele>
        <time>2022-05-23T01:00:03Z</time>
      </trkpt>
      <trkpt lat="47.86523" lon="5.32859">
        <ele>429</ele>
        <time>2022-05-23T01:00:08Z</time>
      </trkpt>
      <trkpt lat="47.86519" lon="5.32871">
        <ele>430</ele>
        <time>2022-05-23T01:00:10Z</time>
      </trkpt>
      <trkpt lat="47.86506" lon="5.32891">
        <ele>433</ele>
        <time>2022-05-23T01:00:13Z</time>
      </trkpt>
      <trkpt lat="47.86474" lon="5.3292">
        <ele>437</ele>
        <time>2022-05-23T01:00:20Z</time>
      </trkpt>
      <trkpt lat="47.86435" lon="5.32967">
        <ele>447</ele>
        <time>2022-05-23T01:00:29Z</time>
      </trkpt>
      <trkpt lat="47.86462" lon="5.3296">
        <ele>445</ele>
        <time>2022-05-23T01:00:34Z</time>
      </trkpt>
      <trkpt lat="47.86494" lon="5.32957">
        <ele>445</ele>
        <time>2022-05-23T01:00:39Z</time>
      </trkpt>
      <trkpt lat="47.86535" lon="5.32962">
        <ele>445</ele>
        <time>2022-05-23T01:00:47Z</time>
      </trkpt>
      <trkpt lat="47.86564" lon="5.32969">
        <ele>445</ele>
        <time>2022-05-23T01:00:52Z</time>
      </trkpt>
      <trkpt lat="47.86584" lon="5.3297">
        <ele>444</ele>
        <time>2022-05-23T01:00:55Z</time>
      </trkpt>
      <trkpt lat="47.86588" lon="5.32982">
        <ele>446</ele>
        <time>2022-05-23T01:00:57Z</time>
      </trkpt>
      <trkpt lat="47.86559" lon="5.32994">
        <ele>449</ele>
        <time>2022-05-23T01:01:02Z</time>
      </trkpt>
      <trkpt lat="47.86531" lon="5.33001">
        <ele>452</ele>
        <time>2022-05-23T01:01:07Z</time>
      </trkpt>
      <trkpt lat="47.86521" lon="5.33008">
        <ele>454</ele>
        <time>2022-05-23T01:01:09Z</time>
      </trkpt>
      <trkpt lat="47.8651" lon="5.33009">
        <ele>455</ele>
        <time>2022-05-23T01:01:11Z</time>
      </trkpt>
      <trkpt lat="47.86464" lon="5.33028">
        <ele>458</ele>
        <time>2022-05-23T01:01:20Z</time>
      </trkpt>
      <trkpt lat="47.86427" lon="5.33038">
        <ele>459</ele>
        <time>2022-05-23T01:01:26Z</time>
      </trkpt>
      <trkpt lat="47.86407" lon="5.33036">
        <ele>459</ele>
        <time>2022-05-23T01:01:30Z</time>
      </trkpt>
      <trkpt lat="47.86418" lon="5.33035">
        <ele>459</ele>
        <time>2022-05-23T01:01:32Z</time>
      </trkpt>
      <trkpt lat="47.86442" lon="5.33024">
        <ele>457</ele>
        <time>2022-05-23T01:01:36Z</time>
      </trkpt>
      <trkpt lat="47.86466" lon="5.33019">
        <ele>457</ele>
        <time>2022-05-23T01:01:41Z</time>
      </trkpt>
      <trkpt lat="47.86477" lon="5.33019">
        <ele>457</ele>
        <time>2022-05-23T01:01:43Z</time>
      </trkpt>
      <trkpt lat="47.86487" lon="5.33023">
        <ele>457</ele>
        <time>2022-05-23T01:01:45Z</time>
      </trkpt>
      <trkpt lat="47.86509" lon="5.33025">
        <ele>457</ele>
        <time>2022-05-23T01:01:48Z</time>
      </trkpt>
      <trkpt lat="47.86517" lon="5.3302">
        <ele>456</ele>
        <time>2022-05-23T01:01:50Z</time>
      </trkpt>
      <trkpt lat="47.86527" lon="5.33018">
        <ele>455</ele>
        <time>2022-05-23T01:01:52Z</time>
      </trkpt>
      <trkpt lat="47.86558" lon="5.33028">
        <ele>455</ele>
        <time>2022-05-23T01:01:57Z</time>
      </trkpt>
      <trkpt lat="47.86577" lon="5.33025">
        <ele>454</ele>
        <time>2022-05-23T01:02:01Z</time>
      </trkpt>
      <trkpt lat="47.86587" lon="5.33027">
        <ele>454</ele>
        <time>2022-05-23T01:02:03Z</time>
      </trkpt>
      <trkpt lat="47.86595" lon="5.33036">
        <ele>456</ele>
        <time>2022-05-23T01:02:04Z</time>
      </trkpt>
      <trkpt lat="47.86597" lon="5.33065">
        <ele>461</ele>
        <time>2022-05-23T01:02:08Z</time>
      </trkpt>
      <trkpt lat="47.86604" lon="5.33093">
        <ele>465</ele>
        <time>2022-05-23T01:02:11Z</time>
      </trkpt>
      <trkpt lat="47.86603" lon="5.33107">
        <ele>466</ele>
        <time>2022-05-23T01:02:13Z</time>
      </trkpt>
      <trkpt lat="47.86585" lon="5.33142">
        <ele>469</ele>
        <time>2022-05-23T01:02:18Z</time>
      </trkpt>
      <trkpt lat="47.86584" lon="5.33156">
        <ele>470</ele>
        <time>2022-05-23T01:02:20Z</time>
      </trkpt>
      <trkpt lat="47.86579" lon="5.33168">
        <ele>471</ele>
        <time>2022-05-23T01:02:22Z</time>
      </trkpt>
      <trkpt lat="47.86577" lon="5.33183">
        <ele>471</ele>
        <time>2022-05-23T01:02:24Z</time>
      </trkpt>
      <trkpt lat="47.86584" lon="5.33208">
        <ele>472</ele>
        <time>2022-05-23T01:02:27Z</time>
      </trkpt>
      <trkpt lat="47.86578" lon="5.33238">
        <ele>473</ele>
        <time>2022-05-23T01:02:31Z</time>
      </trkpt>
      <trkpt lat="47.86581" lon="5.33268">
        <ele>473</ele>
        <time>2022-05-23T01:02:34Z</time>
      </trkpt>
      <trkpt lat="47.86577" lon="5.33287">
        <ele>473</ele>
        <time>2022-05-23T01:02:37Z</time>
      </trkpt>
      <trkpt lat="47.86568" lon="5.33294">
        <ele>473</ele>
        <time>2022-05-23T01:02:38Z</time>
      </trkpt>
      <trkpt lat="47.86558" lon="5.33295">
        <ele>474</ele>
        <time>2022-05-23T01:02:40Z</time>
      </trkpt>
      <trkpt lat="47.86539" lon="5.33311">
        <ele>474</ele>
        <time>2022-05-23T01:02:44Z</time>
      </trkpt>
      <trkpt lat="47.86533" lon="5.33322">
        <ele>475</ele>
        <time>2022-05-23T01:02:46Z</time>
      </trkpt>
      <trkpt lat="47.86523" lon="5.33321">
        <ele>475</ele>
        <time>2022-05-23T01:02:48Z</time>
      </trkpt>
      <trkpt lat="47.86502" lon="5.33324">
        <ele>476</ele>
        <time>2022-05-23T01:02:51Z</time>
      </trkpt>
      <trkpt lat="47.8649" lon="5.33323">
        <ele>476</ele>
        <time>2022-05-23T01:02:53Z</time>
      </trkpt>
      <trkpt lat="47.8648" lon="5.33319">
        <ele>475</ele>
        <time>2022-05-23T01:02:55Z</time>
      </trkpt>
      <trkpt lat="47.86482" lon="5.33334">
        <ele>476</ele>
        <time>2022-05-23T01:02:57Z</time>
      </trkpt>
      <trkpt lat="47.8648" lon="5.33349">
        <ele>475</ele>
        <time>2022-05-23T01:02:59Z</time>
      </trkpt>
      <trkpt lat="47.86474" lon="5.33362">
        <ele>475</ele>
        <time>2022-05-23T01:03:01Z</time>
      </trkpt>
      <trkpt lat="47.86473" lon="5.33376">
        <ele>475</ele>
        <time>2022-05-23T01:03:02Z</time>
      </trkpt>
      <trkpt lat="47.86469" lon="5.33389">
        <ele>475</ele>
        <time>2022-05-23T01:03:04Z</time>
      </trkpt>
      <trkpt lat="47.8646" lon="5.33394">
        <ele>474</ele>
        <time>2022-05-23T01:03:06Z</time>
      </trkpt>
      <trkpt lat="47.86451" lon="5.33395">
        <ele>474</ele>
        <time>2022-05-23T01:03:08Z</time>
      </trkpt>
      <trkpt lat="47.86431" lon="5.33383">
        <ele>474</ele>
        <time>2022-05-23T01:03:11Z</time>
      </trkpt>
      <trkpt lat="47.86412" lon="5.33382">
        <ele>474</ele>
        <time>2022-05-23T01:03:15Z</time>
      </trkpt>
      <trkpt lat="47.86392" lon="5.33377">
        <ele>474</ele>
        <time>2022-05-23T01:03:18Z</time>
      </trkpt>
      <trkpt lat="47.86381" lon="5.3338">
        <ele>474</ele>
        <time>2022-05-23T01:03:20Z</time>
      </trkpt>
      <trkpt lat="47.86377" lon="5.33408">
        <ele>473</ele>
        <time>2022-05-23T01:03:24Z</time>
      </trkpt>
      <trkpt lat="47.86364" lon="5.33445">
        <ele>472</ele>
        <time>2022-05-23T01:03:29Z</time>
      </trkpt>
      <trkpt lat="47.86362" lon="5.33461">
        <ele>472</ele>
        <time>2022-05-23T01:03:31Z</time>
      </trkpt>
      <trkpt lat="47.86365" lon="5.33475">
        <ele>472</ele>
        <time>2022-05-23T01:03:32Z</time>
      </trkpt>
      <trkpt lat="47.86361" lon="5.33489">
        <ele>471</ele>
        <time>2022-05-23T01:03:34Z</time>
      </trkpt>
      <trkpt lat="47.86363" lon="5.33559">
        <ele>469</ele>
        <time>2022-05-23T01:03:43Z</time>
      </trkpt>
      <trkpt lat="47.86368" lon="5.3357">
        <ele>468</ele>
        <time>2022-05-23T01:03:44Z</time>
      </trkpt>
      <trkpt lat="47.86362" lon="5.33581">
        <ele>468</ele>
        <time>2022-05-23T01:03:46Z</time>
      </trkpt>
      <trkpt lat="47.8635" lon="5.33582">
        <ele>468</ele>
        <time>2022-05-23T01:03:48Z</time>
      </trkpt>
      <trkpt lat="47.86339" lon="5.33579">
        <ele>468</ele>
        <time>2022-05-23T01:03:50Z</time>
      </trkpt>
      <trkpt lat="47.86321" lon="5.33579">
        <ele>468</ele>
        <time>2022-05-23T01:03:53Z</time>
      </trkpt>
      <trkpt lat="47.86305" lon="5.33584">
        <ele>467</ele>
        <time>2022-05-23T01:03:56Z</time>
      </trkpt>
      <trkpt lat="47.86297" lon="5.33576">
        <ele>467</ele>
        <time>2022-05-23T01:03:58Z</time>
      </trkpt>
      <trkpt lat="47.86306" lon="5.33548">
        <ele>469</ele>
        <time>2022-05-23T01:04:02Z</time>
      </trkpt>
      <trkpt lat="47.86309" lon="5.33505">
        <ele>470</ele>
        <time>2022-05-23T01:04:07Z</time>
      </trkpt>
      <trkpt lat="47.86304" lon="5.33447">
        <ele>471</ele>
        <time>2022-05-23T01:04:14Z</time>
      </trkpt>
      <trkpt lat="47.86298" lon="5.33436">
        <ele>471</ele>
        <time>2022-05-23T01:04:15Z</time>
      </trkpt>
      <trkpt lat="47.8628" lon="5.3342">
        <ele>471</ele>
        <time>2022-05-23T01:04:19Z</time>
      </trkpt>
      <trkpt lat="47.86279" lon="5.33407">
        <ele>471</ele>
        <time>2022-05-23T01:04:21Z</time>
      </trkpt>
      <trkpt lat="47.8627" lon="5.33402">
        <ele>471</ele>
        <time>2022-05-23T01:04:22Z</time>
      </trkpt>
      <trkpt lat="47.86261" lon="5.33405">
        <ele>471</ele>
        <time>2022-05-23T01:04:24Z</time>
      </trkpt>
      <trkpt lat="47.86251" lon="5.33405">
        <ele>471</ele>
        <time>2022-05-23T01:04:26Z</time>
      </trkpt>
      <trkpt lat="47.86246" lon="5.33394">
        <ele>471</ele>
        <time>2022-05-23T01:04:27Z</time>
      </trkpt>
      <trkpt lat="47.86238" lon="5.33389">
        <ele>471</ele>
        <time>2022-05-23T01:04:29Z</time>
      </trkpt>
      <trkpt lat="47.86202" lon="5.33384">
        <ele>471</ele>
        <time>2022-05-23T01:04:35Z</time>
      </trkpt>
      <trkpt lat="47.86183" lon="5.33384">
        <ele>471</ele>
        <time>2022-05-23T01:04:39Z</time>
      </trkpt>
      <trkpt lat="47.86155" lon="5.33371">
        <ele>471</ele>
        <time>2022-05-23T01:04:44Z</time>
      </trkpt>
      <trkpt lat="47.86145" lon="5.33372">
        <ele>472</ele>
        <time>2022-05-23T01:04:46Z</time>
      </trkpt>
      <trkpt lat="47.86065" lon="5.33346">
        <ele>473</ele>
        <time>2022-05-23T01:05:00Z</time>
      </trkpt>
      <trkpt lat="47.86056" lon="5.33348">
        <ele>473</ele>
        <time>2022-05-23T01:05:02Z</time>
      </trkpt>
      <trkpt lat="47.86034" lon="5.33341">
        <ele>473</ele>
        <time>2022-05-23T01:05:06Z</time>
      </trkpt>
      <trkpt lat="47.86025" lon="5.33342">
        <ele>472</ele>
        <time>2022-05-23T01:05:08Z</time>
      </trkpt>
      <trkpt lat="47.85959" lon="5.33318">
        <ele>470</ele>
        <time>2022-05-23T01:05:20Z</time>
      </trkpt>
      <trkpt lat="47.8595" lon="5.33316">
        <ele>470</ele>
        <time>2022-05-23T01:05:21Z</time>
      </trkpt>
      <trkpt lat="47.85933" lon="5.33319">
        <ele>469</ele>
        <time>2022-05-23T01:05:24Z</time>
      </trkpt>
      <trkpt lat="47.85924" lon="5.33312">
        <ele>469</ele>
        <time>2022-05-23T01:05:26Z</time>
      </trkpt>
      <trkpt lat="47.85922" lon="5.33298">
        <ele>469</ele>
        <time>2022-05-23T01:05:28Z</time>
      </trkpt>
      <trkpt lat="47.85925" lon="5.33255">
        <ele>470</ele>
        <time>2022-05-23T01:05:33Z</time>
      </trkpt>
      <trkpt lat="47.85931" lon="5.33244">
        <ele>470</ele>
        <time>2022-05-23T01:05:35Z</time>
      </trkpt>
      <trkpt lat="47.85933" lon="5.33231">
        <ele>470</ele>
        <time>2022-05-23T01:05:36Z</time>
      </trkpt>
      <trkpt lat="47.85774" lon="5.33214">
        <ele>467</ele>
        <time>2022-05-23T01:06:05Z</time>
      </trkpt>
      <trkpt lat="47.85789" lon="5.33225">
        <ele>467</ele>
        <time>2022-05-23T01:06:08Z</time>
      </trkpt>
      <trkpt lat="47.85799" lon="5.33229">
        <ele>468</ele>
        <time>2022-05-23T01:06:09Z</time>
      </trkpt>
      <trkpt lat="47.85828" lon="5.33274">
        <ele>468</ele>
        <time>2022-05-23T01:06:17Z</time>
      </trkpt>
      <trkpt lat="47.85861" lon="5.33308">
        <ele>468</ele>
        <time>2022-05-23T01:06:24Z</time>
      </trkpt>
      <trkpt lat="47.8587" lon="5.33313">
        <ele>468</ele>
        <time>2022-05-23T01:06:26Z</time>
      </trkpt>
      <trkpt lat="47.85847" lon="5.33312">
        <ele>467</ele>
        <time>2022-05-23T01:06:30Z</time>
      </trkpt>
      <trkpt lat="47.85837" lon="5.33305">
        <ele>467</ele>
        <time>2022-05-23T01:06:32Z</time>
      </trkpt>
      <trkpt lat="47.8583" lon="5.33295">
        <ele>467</ele>
        <time>2022-05-23T01:06:34Z</time>
      </trkpt>
      <trkpt lat="47.85809" lon="5.33294">
        <ele>467</ele>
        <time>2022-05-23T01:06:37Z</time>
      </trkpt>
      <trkpt lat="47.85791" lon="5.33308">
        <ele>466</ele>
        <time>2022-05-23T01:06:41Z</time>
      </trkpt>
      <trkpt lat="47.85781" lon="5.33312">
        <ele>466</ele>
        <time>2022-05-23T01:06:43Z</time>
      </trkpt>
      <trkpt lat="47.85759" lon="5.33305">
        <ele>466</ele>
        <time>2022-05-23T01:06:47Z</time>
      </trkpt>
      <trkpt lat="47.85698" lon="5.33308">
        <ele>465</ele>
        <time>2022-05-23T01:06:58Z</time>
      </trkpt>
      <trkpt lat="47.85664" lon="5.33304">
        <ele>465</ele>
        <time>2022-05-23T01:07:04Z</time>
      </trkpt>
      <trkpt lat="47.85581" lon="5.33303">
        <ele>465</ele>
        <time>2022-05-23T01:07:18Z</time>
      </trkpt>
      <trkpt lat="47.85561" lon="5.33298">
        <ele>465</ele>
        <time>2022-05-23T01:07:22Z</time>
      </trkpt>
      <trkpt lat="47.85553" lon="5.33286">
        <ele>465</ele>
        <time>2022-05-23T01:07:24Z</time>
      </trkpt>
      <trkpt lat="47.85512" lon="5.33283">
        <ele>466</ele>
        <time>2022-05-23T01:07:31Z</time>
      </trkpt>
      <trkpt lat="47.85479" lon="5.33275">
        <ele>466</ele>
        <time>2022-05-23T01:07:37Z</time>
      </trkpt>
      <trkpt lat="47.85408" lon="5.33271">
        <ele>464</ele>
        <time>2022-05-23T01:07:50Z</time>
      </trkpt>
      <trkpt lat="47.85399" lon="5.33273">
        <ele>464</ele>
        <time>2022-05-23T01:07:52Z</time>
      </trkpt>
      <trkpt lat="47.85379" lon="5.33284">
        <ele>464</ele>
        <time>2022-05-23T01:07:55Z</time>
      </trkpt>
      <trkpt lat="47.85361" lon="5.33295">
        <ele>464</ele>
        <time>2022-05-23T01:07:59Z</time>
      </trkpt>
      <trkpt lat="47.8534" lon="5.33312">
        <ele>464</ele>
        <time>2022-05-23T01:08:03Z</time>
      </trkpt>
      <trkpt lat="47.85289" lon="5.33368">
        <ele>465</ele>
        <time>2022-05-23T01:08:14Z</time>
      </trkpt>
      <trkpt lat="47.8528" lon="5.33375">
        <ele>465</ele>
        <time>2022-05-23T01:08:16Z</time>
      </trkpt>
      <trkpt lat="47.85248" lon="5.33391">
        <ele>466</ele>
        <time>2022-05-23T01:08:22Z</time>
      </trkpt>
      <trkpt lat="47.85219" lon="5.33389">
        <ele>466</ele>
        <time>2022-05-23T01:08:27Z</time>
      </trkpt>
      <trkpt lat="47.85198" lon="5.33392">
        <ele>466</ele>
        <time>2022-05-23T01:08:31Z</time>
      </trkpt>
      <trkpt lat="47.85142" lon="5.33384">
        <ele>466</ele>
        <time>2022-05-23T01:08:41Z</time>
      </trkpt>
      <trkpt lat="47.85084" lon="5.3338">
        <ele>465</ele>
        <time>2022-05-23T01:08:51Z</time>
      </trkpt>
      <trkpt lat="47.85012" lon="5.33381">
        <ele>465</ele>
        <time>2022-05-23T01:09:04Z</time>
      </trkpt>
      <trkpt lat="47.8499" lon="5.33376">
        <ele>466</ele>
        <time>2022-05-23T01:09:08Z</time>
      </trkpt>
      <trkpt lat="47.8494" lon="5.33371">
        <ele>467</ele>
        <time>2022-05-23T01:09:17Z</time>
      </trkpt>
      <trkpt lat="47.84911" lon="5.3336">
        <ele>467</ele>
        <time>2022-05-23T01:09:22Z</time>
      </trkpt>
      <trkpt lat="47.84898" lon="5.33359">
        <ele>468</ele>
        <time>2022-05-23T01:09:25Z</time>
      </trkpt>
      <trkpt lat="47.84887" lon="5.33365">
        <ele>468</ele>
        <time>2022-05-23T01:09:27Z</time>
      </trkpt>
      <trkpt lat="47.84858" lon="5.3336">
        <ele>469</ele>
        <time>2022-05-23T01:09:32Z</time>
      </trkpt>
      <trkpt lat="47.84806" lon="5.33358">
        <ele>470</ele>
        <time>2022-05-23T01:09:41Z</time>
      </trkpt>
      <trkpt lat="47.84786" lon="5.33354">
        <ele>470</ele>
        <time>2022-05-23T01:09:45Z</time>
      </trkpt>
      <trkpt lat="47.84764" lon="5.33358">
        <ele>470</ele>
        <time>2022-05-23T01:09:49Z</time>
      </trkpt>
      <trkpt lat="47.84696" lon="5.33349">
        <ele>471</ele>
        <time>2022-05-23T01:10:01Z</time>
      </trkpt>
      <trkpt lat="47.84686" lon="5.33341">
        <ele>471</ele>
        <time>2022-05-23T01:10:03Z</time>
      </trkpt>
      <trkpt lat="47.84685" lon="5.33311">
        <ele>471</ele>
        <time>2022-05-23T01:10:07Z</time>
      </trkpt>
      <trkpt lat="47.84679" lon="5.33301">
        <ele>471</ele>
        <time>2022-05-23T01:10:08Z</time>
      </trkpt>
      <trkpt lat="47.84669" lon="5.33304">
        <ele>471</ele>
        <time>2022-05-23T01:10:10Z</time>
      </trkpt>
      <trkpt lat="47.84662" lon="5.33294">
        <ele>471</ele>
        <time>2022-05-23T01:10:12Z</time>
      </trkpt>
      <trkpt lat="47.84653" lon="5.33294">
        <ele>471</ele>
        <time>2022-05-23T01:10:13Z</time>
      </trkpt>
      <trkpt lat="47.84645" lon="5.33303">
        <ele>471</ele>
        <time>2022-05-23T01:10:15Z</time>
      </trkpt>
      <trkpt lat="47.84635" lon="5.33308">
        <ele>471</ele>
        <time>2022-05-23T01:10:17Z</time>
      </trkpt>
      <trkpt lat="47.84507" lon="5.33233">
        <ele>466</ele>
        <time>2022-05-23T01:10:41Z</time>
      </trkpt>
      <trkpt lat="47.84486" lon="5.33195">
        <ele>464</ele>
        <time>2022-05-23T01:10:47Z</time>
      </trkpt>
      <trkpt lat="47.84468" lon="5.33189">
        <ele>463</ele>
        <time>2022-05-23T01:10:51Z</time>
      </trkpt>
      <trkpt lat="47.84454" lon="5.33219">
        <ele>463</ele>
        <time>2022-05-23T01:10:55Z</time>
      </trkpt>
      <trkpt lat="47.84451" lon="5.33248">
        <ele>463</ele>
        <time>2022-05-23T01:10:58Z</time>
      </trkpt>
      <trkpt lat="47.84452" lon="5.33262">
        <ele>463</ele>
        <time>2022-05-23T01:11:00Z</time>
      </trkpt>
      <trkpt lat="47.84448" lon="5.33279">
        <ele>464</ele>
        <time>2022-05-23T01:11:02Z</time>
      </trkpt>
      <trkpt lat="47.84418" lon="5.33303">
        <ele>462</ele>
        <time>2022-05-23T01:11:08Z</time>
      </trkpt>
      <trkpt lat="47.84407" lon="5.33307">
        <ele>462</ele>
        <time>2022-05-23T01:11:10Z</time>
      </trkpt>
      <trkpt lat="47.84391" lon="5.33322">
        <ele>462</ele>
        <time>2022-05-23T01:11:14Z</time>
      </trkpt>
      <trkpt lat="47.8438" lon="5.33327">
        <ele>462</ele>
        <time>2022-05-23T01:11:16Z</time>
      </trkpt>
      <trkpt lat="47.8433" lon="5.33345">
        <ele>460</ele>
        <time>2022-05-23T01:11:25Z</time>
      </trkpt>
      <trkpt lat="47.84249" lon="5.3338">
        <ele>457</ele>
        <time>2022-05-23T01:11:40Z</time>
      </trkpt>
      <trkpt lat="47.84222" lon="5.33389">
        <ele>456</ele>
        <time>2022-05-23T01:11:45Z</time>
      </trkpt>
      <trkpt lat="47.84032" lon="5.334">
        <ele>451</ele>
        <time>2022-05-23T01:12:19Z</time>
      </trkpt>
      <trkpt lat="47.83932" lon="5.33396">
        <ele>452</ele>
        <time>2022-05-23T01:12:36Z</time>
      </trkpt>
      <trkpt lat="47.83899" lon="5.33401">
        <ele>452</ele>
        <time>2022-05-23T01:12:42Z</time>
      </trkpt>
      <trkpt lat="47.83779" lon="5.33453">
        <ele>452</ele>
        <time>2022-05-23T01:13:05Z</time>
      </trkpt>
      <trkpt lat="47.8373" lon="5.33482">
        <ele>450</ele>
        <time>2022-05-23T01:13:14Z</time>
      </trkpt>
      <trkpt lat="47.83679" lon="5.33518">
        <ele>448</ele>
        <time>2022-05-23T01:13:24Z</time>
      </trkpt>
      <trkpt lat="47.8357" lon="5.33583">
        <ele>453</ele>
        <time>2022-05-23T01:13:45Z</time>
      </trkpt>
      <trkpt lat="47.83529" lon="5.33604">
        <ele>454</ele>
        <time>2022-05-23T01:13:53Z</time>
      </trkpt>
      <trkpt lat="47.83467" lon="5.33631">
        <ele>454</ele>
        <time>2022-05-23T01:14:04Z</time>
      </trkpt>
      <trkpt lat="47.83446" lon="5.33635">
        <ele>454</ele>
        <time>2022-05-23T01:14:08Z</time>
      </trkpt>
      <trkpt lat="47.83436" lon="5.33634">
        <ele>454</ele>
        <time>2022-05-23T01:14:10Z</time>
      </trkpt>
      <trkpt lat="47.83419" lon="5.33618">
        <ele>455</ele>
        <time>2022-05-23T01:14:13Z</time>
      </trkpt>
      <trkpt lat="47.8341" lon="5.33589">
        <ele>455</ele>
        <time>2022-05-23T01:14:17Z</time>
      </trkpt>
      <trkpt lat="47.83403" lon="5.33555">
        <ele>455</ele>
        <time>2022-05-23T01:14:21Z</time>
      </trkpt>
      <trkpt lat="47.83397" lon="5.33541">
        <ele>455</ele>
        <time>2022-05-23T01:14:23Z</time>
      </trkpt>
      <trkpt lat="47.83387" lon="5.33537">
        <ele>455</ele>
        <time>2022-05-23T01:14:25Z</time>
      </trkpt>
      <trkpt lat="47.83351" lon="5.33548">
        <ele>455</ele>
        <time>2022-05-23T01:14:32Z</time>
      </trkpt>
      <trkpt lat="47.83329" lon="5.33551">
        <ele>456</ele>
        <time>2022-05-23T01:14:36Z</time>
      </trkpt>
      <trkpt lat="47.83317" lon="5.33556">
        <ele>456</ele>
        <time>2022-05-23T01:14:38Z</time>
      </trkpt>
      <trkpt lat="47.83309" lon="5.33568">
        <ele>456</ele>
        <time>2022-05-23T01:14:40Z</time>
      </trkpt>
      <trkpt lat="47.83317" lon="5.33666">
        <ele>456</ele>
        <time>2022-05-23T01:14:52Z</time>
      </trkpt>
      <trkpt lat="47.83308" lon="5.33676">
        <ele>456</ele>
        <time>2022-05-23T01:14:54Z</time>
      </trkpt>
      <trkpt lat="47.83284" lon="5.33687">
        <ele>457</ele>
        <time>2022-05-23T01:14:58Z</time>
      </trkpt>
      <trkpt lat="47.83248" lon="5.33698">
        <ele>458</ele>
        <time>2022-05-23T01:15:05Z</time>
      </trkpt>
      <trkpt lat="47.83194" lon="5.33701">
        <ele>459</ele>
        <time>2022-05-23T01:15:14Z</time>
      </trkpt>
      <trkpt lat="47.83184" lon="5.33692">
        <ele>459</ele>
        <time>2022-05-23T01:15:16Z</time>
      </trkpt>
      <trkpt lat="47.83176" lon="5.33644">
        <ele>458</ele>
        <time>2022-05-23T01:15:22Z</time>
      </trkpt>
      <trkpt lat="47.83166" lon="5.33618">
        <ele>458</ele>
        <time>2022-05-23T01:15:26Z</time>
      </trkpt>
      <trkpt lat="47.83159" lon="5.3361">
        <ele>458</ele>
        <time>2022-05-23T01:15:27Z</time>
      </trkpt>
      <trkpt lat="47.83156" lon="5.33551">
        <ele>456</ele>
        <time>2022-05-23T01:15:34Z</time>
      </trkpt>
      <trkpt lat="47.83147" lon="5.33523">
        <ele>456</ele>
        <time>2022-05-23T01:15:38Z</time>
      </trkpt>
      <trkpt lat="47.83142" lon="5.33495">
        <ele>455</ele>
        <time>2022-05-23T01:15:42Z</time>
      </trkpt>
      <trkpt lat="47.83153" lon="5.33488">
        <ele>456</ele>
        <time>2022-05-23T01:15:44Z</time>
      </trkpt>
      <trkpt lat="47.83131" lon="5.33491">
        <ele>455</ele>
        <time>2022-05-23T01:15:48Z</time>
      </trkpt>
      <trkpt lat="47.83155" lon="5.33499">
        <ele>456</ele>
        <time>2022-05-23T01:15:52Z</time>
      </trkpt>
      <trkpt lat="47.83147" lon="5.33492">
        <ele>455</ele>
        <time>2022-05-23T01:15:54Z</time>
      </trkpt>
      <trkpt lat="47.83157" lon="5.33485">
        <ele>456</ele>
        <time>2022-05-23T01:15:56Z</time>
      </trkpt>
      <trkpt lat="47.83147" lon="5.33487">
        <ele>455</ele>
        <time>2022-05-23T01:15:58Z</time>
      </trkpt>
      <trkpt lat="47.83155" lon="5.33494">
        <ele>456</ele>
        <time>2022-05-23T01:15:59Z</time>
      </trkpt>
      <trkpt lat="47.83129" lon="5.33493">
        <ele>455</ele>
        <time>2022-05-23T01:16:04Z</time>
      </trkpt>
      <trkpt lat="47.83138" lon="5.33496">
        <ele>455</ele>
        <time>2022-05-23T01:16:05Z</time>
      </trkpt>
      <trkpt lat="47.83147" lon="5.33495">
        <ele>455</ele>
        <time>2022-05-23T01:16:07Z</time>
      </trkpt>
      <trkpt lat="47.83151" lon="5.33482">
        <ele>455</ele>
        <time>2022-05-23T01:16:09Z</time>
      </trkpt>
      <trkpt lat="47.83139" lon="5.33482">
        <ele>455</ele>
        <time>2022-05-23T01:16:11Z</time>
      </trkpt>
      <trkpt lat="47.8313" lon="5.33488">
        <ele>455</ele>
        <time>2022-05-23T01:16:13Z</time>
      </trkpt>
      <trkpt lat="47.83152" lon="5.33488">
        <ele>456</ele>
        <time>2022-05-23T01:16:17Z</time>
      </trkpt>
      <trkpt lat="47.83144" lon="5.33495">
        <ele>455</ele>
        <time>2022-05-23T01:16:18Z</time>
      </trkpt>
      <trkpt lat="47.83152" lon="5.33503">
        <ele>456</ele>
        <time>2022-05-23T01:16:20Z</time>
      </trkpt>
      <trkpt lat="47.83159" lon="5.33494">
        <ele>456</ele>
        <time>2022-05-23T01:16:22Z</time>
      </trkpt>
      <trkpt lat="47.83163" lon="5.33517">
        <ele>456</ele>
        <time>2022-05-23T01:16:24Z</time>
      </trkpt>
      <trkpt lat="47.83161" lon="5.33497">
        <ele>456</ele>
        <time>2022-05-23T01:16:27Z</time>
      </trkpt>
      <trkpt lat="47.83154" lon="5.33482">
        <ele>455</ele>
        <time>2022-05-23T01:16:29Z</time>
      </trkpt>
      <trkpt lat="47.83155" lon="5.33498">
        <ele>456</ele>
        <time>2022-05-23T01:16:31Z</time>
      </trkpt>
      <trkpt lat="47.83154" lon="5.33467">
        <ele>455</ele>
        <time>2022-05-23T01:16:35Z</time>
      </trkpt>
      <trkpt lat="47.83155" lon="5.33484">
        <ele>456</ele>
        <time>2022-05-23T01:16:37Z</time>
      </trkpt>
      <trkpt lat="47.83145" lon="5.33476">
        <ele>455</ele>
        <time>2022-05-23T01:16:39Z</time>
      </trkpt>
      <trkpt lat="47.83137" lon="5.33482">
        <ele>455</ele>
        <time>2022-05-23T01:16:40Z</time>
      </trkpt>
      <trkpt lat="47.83148" lon="5.33493">
        <ele>455</ele>
        <time>2022-05-23T01:16:43Z</time>
      </trkpt>
      <trkpt lat="47.83147" lon="5.33519">
        <ele>456</ele>
        <time>2022-05-23T01:16:46Z</time>
      </trkpt>
      <trkpt lat="47.83146" lon="5.3349">
        <ele>455</ele>
        <time>2022-05-23T01:16:49Z</time>
      </trkpt>
      <trkpt lat="47.8315" lon="5.33502">
        <ele>456</ele>
        <time>2022-05-23T01:16:51Z</time>
      </trkpt>
      <trkpt lat="47.83137" lon="5.33485">
        <ele>455</ele>
        <time>2022-05-23T01:16:54Z</time>
      </trkpt>
      <trkpt lat="47.83155" lon="5.33486">
        <ele>456</ele>
        <time>2022-05-23T01:16:57Z</time>
      </trkpt>
      <trkpt lat="47.83139" lon="5.33489">
        <ele>455</ele>
        <time>2022-05-23T01:17:00Z</time>
      </trkpt>
      <trkpt lat="47.83153" lon="5.33491">
        <ele>456</ele>
        <time>2022-05-23T01:17:02Z</time>
      </trkpt>
      <trkpt lat="47.83147" lon="5.33502">
        <ele>456</ele>
        <time>2022-05-23T01:17:04Z</time>
      </trkpt>
      <trkpt lat="47.83133" lon="5.33495">
        <ele>455</ele>
        <time>2022-05-23T01:17:07Z</time>
      </trkpt>
      <trkpt lat="47.83149" lon="5.33497">
        <ele>456</ele>
        <time>2022-05-23T01:17:10Z</time>
      </trkpt>
      <trkpt lat="47.83161" lon="5.33517">
        <ele>456</ele>
        <time>2022-05-23T01:17:13Z</time>
      </trkpt>
      <trkpt lat="47.8314" lon="5.33505">
        <ele>455</ele>
        <time>2022-05-23T01:17:17Z</time>
      </trkpt>
      <trkpt lat="47.83133" lon="5.33493">
        <ele>455</ele>
        <time>2022-05-23T01:17:19Z</time>
      </trkpt>
      <trkpt lat="47.8314" lon="5.33503">
        <ele>455</ele>
        <time>2022-05-23T01:17:20Z</time>
      </trkpt>
      <trkpt lat="47.83149" lon="5.33507">
        <ele>456</ele>
        <time>2022-05-23T01:17:22Z</time>
      </trkpt>
      <trkpt lat="47.83157" lon="5.33501">
        <ele>456</ele>
        <time>2022-05-23T01:17:24Z</time>
      </trkpt>
      <trkpt lat="47.83144" lon="5.33515">
        <ele>456</ele>
        <time>2022-05-23T01:17:27Z</time>
      </trkpt>
      <trkpt lat="47.83153" lon="5.33511">
        <ele>456</ele>
        <time>2022-05-23T01:17:28Z</time>
      </trkpt>
      <trkpt lat="47.83155" lon="5.33488">
        <ele>456</ele>
        <time>2022-05-23T01:17:31Z</time>
      </trkpt>
      <trkpt lat="47.83145" lon="5.33484">
        <ele>455</ele>
        <time>2022-05-23T01:17:33Z</time>
      </trkpt>
      <trkpt lat="47.83155" lon="5.33484">
        <ele>456</ele>
        <time>2022-05-23T01:17:35Z</time>
      </trkpt>
      <trkpt lat="47.83146" lon="5.33484">
        <ele>455</ele>
        <time>2022-05-23T01:17:36Z</time>
      </trkpt>
      <trkpt lat="47.83156" lon="5.33479">
        <ele>455</ele>
        <time>2022-05-23T01:17:38Z</time>
      </trkpt>
      <trkpt lat="47.83146" lon="5.33481">
        <ele>455</ele>
        <time>2022-05-23T01:17:40Z</time>
      </trkpt>
      <trkpt lat="47.83134" lon="5.33488">
        <ele>455</ele>
        <time>2022-05-23T01:17:42Z</time>
      </trkpt>
      <trkpt lat="47.83147" lon="5.33475">
        <ele>455</ele>
        <time>2022-05-23T01:17:45Z</time>
      </trkpt>
      <trkpt lat="47.83146" lon="5.33572">
        <ele>457</ele>
        <time>2022-05-23T01:17:57Z</time>
      </trkpt>
      <trkpt lat="47.83143" lon="5.33585">
        <ele>457</ele>
        <time>2022-05-23T01:17:58Z</time>
      </trkpt>
      <trkpt lat="47.83136" lon="5.33595">
        <ele>457</ele>
        <time>2022-05-23T01:18:00Z</time>
      </trkpt>
      <trkpt lat="47.83133" lon="5.33652">
        <ele>458</ele>
        <time>2022-05-23T01:18:07Z</time>
      </trkpt>
      <trkpt lat="47.83139" lon="5.3362">
        <ele>458</ele>
        <time>2022-05-23T01:18:11Z</time>
      </trkpt>
      <trkpt lat="47.83143" lon="5.33608">
        <ele>457</ele>
        <time>2022-05-23T01:18:12Z</time>
      </trkpt>
      <trkpt lat="47.83151" lon="5.33599">
        <ele>457</ele>
        <time>2022-05-23T01:18:14Z</time>
      </trkpt>
      <trkpt lat="47.83152" lon="5.33584">
        <ele>457</ele>
        <time>2022-05-23T01:18:16Z</time>
      </trkpt>
      <trkpt lat="47.83157" lon="5.33571">
        <ele>457</ele>
        <time>2022-05-23T01:18:18Z</time>
      </trkpt>
      <trkpt lat="47.83168" lon="5.33566">
        <ele>457</ele>
        <time>2022-05-23T01:18:20Z</time>
      </trkpt>
      <trkpt lat="47.83177" lon="5.33572">
        <ele>457</ele>
        <time>2022-05-23T01:18:22Z</time>
      </trkpt>
      <trkpt lat="47.83184" lon="5.33581">
        <ele>457</ele>
        <time>2022-05-23T01:18:23Z</time>
      </trkpt>
      <trkpt lat="47.83273" lon="5.33572">
        <ele>457</ele>
        <time>2022-05-23T01:18:39Z</time>
      </trkpt>
      <trkpt lat="47.83267" lon="5.33583">
        <ele>458</ele>
        <time>2022-05-23T01:18:41Z</time>
      </trkpt>
      <trkpt lat="47.83258" lon="5.33585">
        <ele>458</ele>
        <time>2022-05-23T01:18:42Z</time>
      </trkpt>
      <trkpt lat="47.8325" lon="5.33592">
        <ele>458</ele>
        <time>2022-05-23T01:18:44Z</time>
      </trkpt>
      <trkpt lat="47.83212" lon="5.33578">
        <ele>458</ele>
        <time>2022-05-23T01:18:51Z</time>
      </trkpt>
      <trkpt lat="47.832" lon="5.33582">
        <ele>457</ele>
        <time>2022-05-23T01:18:53Z</time>
      </trkpt>
      <trkpt lat="47.83179" lon="5.33567">
        <ele>457</ele>
        <time>2022-05-23T01:18:57Z</time>
      </trkpt>
      <trkpt lat="47.8317" lon="5.33569">
        <ele>457</ele>
        <time>2022-05-23T01:18:59Z</time>
      </trkpt>
      <trkpt lat="47.83179" lon="5.33568">
        <ele>457</ele>
        <time>2022-05-23T01:19:01Z</time>
      </trkpt>
      <trkpt lat="47.8317" lon="5.33569">
        <ele>457</ele>
        <time>2022-05-23T01:19:02Z</time>
      </trkpt>
      <trkpt lat="47.83162" lon="5.33559">
        <ele>457</ele>
        <time>2022-05-23T01:19:04Z</time>
      </trkpt>
      <trkpt lat="47.83178" lon="5.33572">
        <ele>457</ele>
        <time>2022-05-23T01:19:07Z</time>
      </trkpt>
      <trkpt lat="47.83167" lon="5.33573">
        <ele>457</ele>
        <time>2022-05-23T01:19:09Z</time>
      </trkpt>
      <trkpt lat="47.83158" lon="5.3358">
        <ele>457</ele>
        <time>2022-05-23T01:19:11Z</time>
      </trkpt>
      <trkpt lat="47.83156" lon="5.33595">
        <ele>457</ele>
        <time>2022-05-23T01:19:13Z</time>
      </trkpt>
      <trkpt lat="47.83158" lon="5.33627">
        <ele>458</ele>
        <time>2022-05-23T01:19:17Z</time>
      </trkpt>
      <trkpt lat="47.83156" lon="5.33644">
        <ele>458</ele>
        <time>2022-05-23T01:19:19Z</time>
      </trkpt>
      <trkpt lat="47.83156" lon="5.33752">
        <ele>461</ele>
        <time>2022-05-23T01:19:32Z</time>
      </trkpt>
      <trkpt lat="47.83159" lon="5.33765">
        <ele>461</ele>
        <time>2022-05-23T01:19:33Z</time>
      </trkpt>
      <trkpt lat="47.8317" lon="5.33765">
        <ele>461</ele>
        <time>2022-05-23T01:19:35Z</time>
      </trkpt>
      <trkpt lat="47.83212" lon="5.33747">
        <ele>459</ele>
        <time>2022-05-23T01:19:43Z</time>
      </trkpt>
      <trkpt lat="47.83222" lon="5.33745">
        <ele>459</ele>
        <time>2022-05-23T01:19:45Z</time>
      </trkpt>
      <trkpt lat="47.83373" lon="5.33678">
        <ele>454</ele>
        <time>2022-05-23T01:20:13Z</time>
      </trkpt>
      <trkpt lat="47.83394" lon="5.33675">
        <ele>454</ele>
        <time>2022-05-23T01:20:17Z</time>
      </trkpt>
      <trkpt lat="47.83417" lon="5.33685">
        <ele>454</ele>
        <time>2022-05-23T01:20:21Z</time>
      </trkpt>
      <trkpt lat="47.8343" lon="5.33679">
        <ele>454</ele>
        <time>2022-05-23T01:20:23Z</time>
      </trkpt>
      <trkpt lat="47.83437" lon="5.3367">
        <ele>454</ele>
        <time>2022-05-23T01:20:25Z</time>
      </trkpt>
      <trkpt lat="47.83442" lon="5.33657">
        <ele>454</ele>
        <time>2022-05-23T01:20:27Z</time>
      </trkpt>
      <trkpt lat="47.8345" lon="5.33649">
        <ele>454</ele>
        <time>2022-05-23T01:20:28Z</time>
      </trkpt>
      <trkpt lat="47.83584" lon="5.33581">
        <ele>453</ele>
        <time>2022-05-23T01:20:54Z</time>
      </trkpt>
      <trkpt lat="47.83683" lon="5.33521">
        <ele>448</ele>
        <time>2022-05-23T01:21:13Z</time>
      </trkpt>
      <trkpt lat="47.83732" lon="5.33487">
        <ele>450</ele>
        <time>2022-05-23T01:21:22Z</time>
      </trkpt>
      <trkpt lat="47.83776" lon="5.33461">
        <ele>452</ele>
        <time>2022-05-23T01:21:31Z</time>
      </trkpt>
      <trkpt lat="47.8389" lon="5.33411">
        <ele>453</ele>
        <time>2022-05-23T01:21:52Z</time>
      </trkpt>
      <trkpt lat="47.83928" lon="5.33403">
        <ele>452</ele>
        <time>2022-05-23T01:21:59Z</time>
      </trkpt>
      <trkpt lat="47.83994" lon="5.33408">
        <ele>450</ele>
        <time>2022-05-23T01:22:10Z</time>
      </trkpt>
      <trkpt lat="47.84042" lon="5.33409">
        <ele>451</ele>
        <time>2022-05-23T01:22:19Z</time>
      </trkpt>
      <trkpt lat="47.84137" lon="5.33404">
        <ele>454</ele>
        <time>2022-05-23T01:22:36Z</time>
      </trkpt>
      <trkpt lat="47.84182" lon="5.33397">
        <ele>455</ele>
        <time>2022-05-23T01:22:44Z</time>
      </trkpt>
      <trkpt lat="47.84202" lon="5.33399">
        <ele>455</ele>
        <time>2022-05-23T01:22:47Z</time>
      </trkpt>
      <trkpt lat="47.84242" lon="5.33387">
        <ele>457</ele>
        <time>2022-05-23T01:22:55Z</time>
      </trkpt>
      <trkpt lat="47.84324" lon="5.33346">
        <ele>460</ele>
        <time>2022-05-23T01:23:10Z</time>
      </trkpt>
      <trkpt lat="47.84362" lon="5.33335">
        <ele>461</ele>
        <time>2022-05-23T01:23:17Z</time>
      </trkpt>
      <trkpt lat="47.8441" lon="5.33311">
        <ele>462</ele>
        <time>2022-05-23T01:23:26Z</time>
      </trkpt>
      <trkpt lat="47.84441" lon="5.33292">
        <ele>463</ele>
        <time>2022-05-23T01:23:32Z</time>
      </trkpt>
      <trkpt lat="47.84451" lon="5.33283">
        <ele>464</ele>
        <time>2022-05-23T01:23:34Z</time>
      </trkpt>
      <trkpt lat="47.84481" lon="5.33274">
        <ele>465</ele>
        <time>2022-05-23T01:23:40Z</time>
      </trkpt>
      <trkpt lat="47.8449" lon="5.33267">
        <ele>466</ele>
        <time>2022-05-23T01:23:41Z</time>
      </trkpt>
      <trkpt lat="47.84502" lon="5.33264">
        <ele>466</ele>
        <time>2022-05-23T01:23:43Z</time>
      </trkpt>
      <trkpt lat="47.84605" lon="5.33327">
        <ele>470</ele>
        <time>2022-05-23T01:24:03Z</time>
      </trkpt>
      <trkpt lat="47.84624" lon="5.33341">
        <ele>471</ele>
        <time>2022-05-23T01:24:07Z</time>
      </trkpt>
      <trkpt lat="47.8463" lon="5.3337">
        <ele>471</ele>
        <time>2022-05-23T01:24:11Z</time>
      </trkpt>
      <trkpt lat="47.84637" lon="5.33383">
        <ele>472</ele>
        <time>2022-05-23T01:24:13Z</time>
      </trkpt>
      <trkpt lat="47.8466" lon="5.33381">
        <ele>472</ele>
        <time>2022-05-23T01:24:17Z</time>
      </trkpt>
      <trkpt lat="47.84674" lon="5.33376">
        <ele>472</ele>
        <time>2022-05-23T01:24:19Z</time>
      </trkpt>
      <trkpt lat="47.84743" lon="5.3337">
        <ele>470</ele>
        <time>2022-05-23T01:24:32Z</time>
      </trkpt>
      <trkpt lat="47.84769" lon="5.33375">
        <ele>470</ele>
        <time>2022-05-23T01:24:36Z</time>
      </trkpt>
      <trkpt lat="47.84786" lon="5.33372">
        <ele>470</ele>
        <time>2022-05-23T01:24:39Z</time>
      </trkpt>
      <trkpt lat="47.84945" lon="5.33389">
        <ele>466</ele>
        <time>2022-05-23T01:25:08Z</time>
      </trkpt>
      <trkpt lat="47.8498" lon="5.33389">
        <ele>466</ele>
        <time>2022-05-23T01:25:14Z</time>
      </trkpt>
      <trkpt lat="47.85052" lon="5.33397">
        <ele>465</ele>
        <time>2022-05-23T01:25:27Z</time>
      </trkpt>
      <trkpt lat="47.85116" lon="5.33398">
        <ele>466</ele>
        <time>2022-05-23T01:25:38Z</time>
      </trkpt>
      <trkpt lat="47.85182" lon="5.33408">
        <ele>467</ele>
        <time>2022-05-23T01:25:50Z</time>
      </trkpt>
      <trkpt lat="47.85201" lon="5.33406">
        <ele>466</ele>
        <time>2022-05-23T01:25:53Z</time>
      </trkpt>
      <trkpt lat="47.85238" lon="5.33408">
        <ele>466</ele>
        <time>2022-05-23T01:26:00Z</time>
      </trkpt>
      <trkpt lat="47.85269" lon="5.33403">
        <ele>465</ele>
        <time>2022-05-23T01:26:05Z</time>
      </trkpt>
      <trkpt lat="47.85288" lon="5.33388">
        <ele>465</ele>
        <time>2022-05-23T01:26:09Z</time>
      </trkpt>
      <trkpt lat="47.85371" lon="5.33303">
        <ele>464</ele>
        <time>2022-05-23T01:26:27Z</time>
      </trkpt>
      <trkpt lat="47.85382" lon="5.33297">
        <ele>464</ele>
        <time>2022-05-23T01:26:29Z</time>
      </trkpt>
      <trkpt lat="47.85405" lon="5.33294">
        <ele>464</ele>
        <time>2022-05-23T01:26:33Z</time>
      </trkpt>
      <trkpt lat="47.8553" lon="5.33298">
        <ele>466</ele>
        <time>2022-05-23T01:26:56Z</time>
      </trkpt>
      <trkpt lat="47.85573" lon="5.33297">
        <ele>465</ele>
        <time>2022-05-23T01:27:03Z</time>
      </trkpt>
      <trkpt lat="47.85591" lon="5.33299">
        <ele>465</ele>
        <time>2022-05-23T01:27:07Z</time>
      </trkpt>
      <trkpt lat="47.85611" lon="5.33297">
        <ele>465</ele>
        <time>2022-05-23T01:27:10Z</time>
      </trkpt>
      <trkpt lat="47.85651" lon="5.33297">
        <ele>465</ele>
        <time>2022-05-23T01:27:17Z</time>
      </trkpt>
      <trkpt lat="47.85661" lon="5.33299">
        <ele>465</ele>
        <time>2022-05-23T01:27:19Z</time>
      </trkpt>
      <trkpt lat="47.85717" lon="5.33298">
        <ele>466</ele>
        <time>2022-05-23T01:27:29Z</time>
      </trkpt>
      <trkpt lat="47.85728" lon="5.33297">
        <ele>466</ele>
        <time>2022-05-23T01:27:31Z</time>
      </trkpt>
      <trkpt lat="47.8575" lon="5.3329">
        <ele>466</ele>
        <time>2022-05-23T01:27:35Z</time>
      </trkpt>
      <trkpt lat="47.85759" lon="5.33294">
        <ele>466</ele>
        <time>2022-05-23T01:27:37Z</time>
      </trkpt>
      <trkpt lat="47.85767" lon="5.33303">
        <ele>466</ele>
        <time>2022-05-23T01:27:38Z</time>
      </trkpt>
      <trkpt lat="47.85776" lon="5.33304">
        <ele>466</ele>
        <time>2022-05-23T01:27:40Z</time>
      </trkpt>
      <trkpt lat="47.85785" lon="5.33309">
        <ele>466</ele>
        <time>2022-05-23T01:27:42Z</time>
      </trkpt>
      <trkpt lat="47.85795" lon="5.33318">
        <ele>466</ele>
        <time>2022-05-23T01:27:44Z</time>
      </trkpt>
      <trkpt lat="47.85811" lon="5.33339">
        <ele>466</ele>
        <time>2022-05-23T01:27:48Z</time>
      </trkpt>
      <trkpt lat="47.85839" lon="5.33362">
        <ele>465</ele>
        <time>2022-05-23T01:27:53Z</time>
      </trkpt>
      <trkpt lat="47.85866" lon="5.3339">
        <ele>465</ele>
        <time>2022-05-23T01:27:59Z</time>
      </trkpt>
      <trkpt lat="47.85881" lon="5.33418">
        <ele>465</ele>
        <time>2022-05-23T01:28:03Z</time>
      </trkpt>
      <trkpt lat="47.85885" lon="5.33438">
        <ele>464</ele>
        <time>2022-05-23T01:28:06Z</time>
      </trkpt>
      <trkpt lat="47.85885" lon="5.3346">
        <ele>464</ele>
        <time>2022-05-23T01:28:09Z</time>
      </trkpt>
      <trkpt lat="47.85878" lon="5.33479">
        <ele>462</ele>
        <time>2022-05-23T01:28:11Z</time>
      </trkpt>
      <trkpt lat="47.85868" lon="5.33495">
        <ele>461</ele>
        <time>2022-05-23T01:28:14Z</time>
      </trkpt>
      <trkpt lat="47.85846" lon="5.33509">
        <ele>458</ele>
        <time>2022-05-23T01:28:18Z</time>
      </trkpt>
      <trkpt lat="47.85839" lon="5.33519">
        <ele>456</ele>
        <time>2022-05-23T01:28:20Z</time>
      </trkpt>
      <trkpt lat="47.85846" lon="5.33529">
        <ele>455</ele>
        <time>2022-05-23T01:28:21Z</time>
      </trkpt>
      <trkpt lat="47.85913" lon="5.33554">
        <ele>458</ele>
        <time>2022-05-23T01:28:34Z</time>
      </trkpt>
      <trkpt lat="47.85929" lon="5.3355">
        <ele>458</ele>
        <time>2022-05-23T01:28:37Z</time>
      </trkpt>
      <trkpt lat="47.85994" lon="5.33568">
        <ele>453</ele>
        <time>2022-05-23T01:28:48Z</time>
      </trkpt>
      <trkpt lat="47.86016" lon="5.33577">
        <ele>452</ele>
        <time>2022-05-23T01:28:52Z</time>
      </trkpt>
      <trkpt lat="47.86069" lon="5.33628">
        <ele>441</ele>
        <time>2022-05-23T01:29:04Z</time>
      </trkpt>
      <trkpt lat="47.8612" lon="5.33684">
        <ele>433</ele>
        <time>2022-05-23T01:29:15Z</time>
      </trkpt>
      <trkpt lat="47.86126" lon="5.33695">
        <ele>432</ele>
        <time>2022-05-23T01:29:17Z</time>
      </trkpt>
      <trkpt lat="47.86147" lon="5.3372">
        <ele>430</ele>
        <time>2022-05-23T01:29:21Z</time>
      </trkpt>
      <trkpt lat="47.86167" lon="5.33752">
        <ele>427</ele>
        <time>2022-05-23T01:29:27Z</time>
      </trkpt>
      <trkpt lat="47.86213" lon="5.33798">
        <ele>423</ele>
        <time>2022-05-23T01:29:36Z</time>
      </trkpt>
      <trkpt lat="47.86228" lon="5.33809">
        <ele>422</ele>
        <time>2022-05-23T01:29:39Z</time>
      </trkpt>
      <trkpt lat="47.86243" lon="5.33816">
        <ele>422</ele>
        <time>2022-05-23T01:29:42Z</time>
      </trkpt>
      <trkpt lat="47.8635" lon="5.33856">
        <ele>423</ele>
        <time>2022-05-23T01:30:02Z</time>
      </trkpt>
      <trkpt lat="47.86371" lon="5.3386">
        <ele>423</ele>
        <time>2022-05-23T01:30:06Z</time>
      </trkpt>
      <trkpt lat="47.86393" lon="5.33868">
        <ele>423</ele>
        <time>2022-05-23T01:30:10Z</time>
      </trkpt>
      <trkpt lat="47.86413" lon="5.3388">
        <ele>421</ele>
        <time>2022-05-23T01:30:14Z</time>
      </trkpt>
      <trkpt lat="47.86425" lon="5.33894">
        <ele>419</ele>
        <time>2022-05-23T01:30:16Z</time>
      </trkpt>
      <trkpt lat="47.86454" lon="5.33939">
        <ele>411</ele>
        <time>2022-05-23T01:30:24Z</time>
      </trkpt>
      <trkpt lat="47.86518" lon="5.34052">
        <ele>397</ele>
        <time>2022-05-23T01:30:41Z</time>
      </trkpt>
      <trkpt lat="47.86642" lon="5.34296">
        <ele>376</ele>
        <time>2022-05-23T01:31:18Z</time>
      </trkpt>
      <trkpt lat="47.8665" lon="5.34324">
        <ele>375</ele>
        <time>2022-05-23T01:31:21Z</time>
      </trkpt>
      <trkpt lat="47.86663" lon="5.34398">
        <ele>373</ele>
        <time>2022-05-23T01:31:31Z</time>
      </trkpt>
      <trkpt lat="47.86665" lon="5.34438">
        <ele>371</ele>
        <time>2022-05-23T01:31:35Z</time>
      </trkpt>
      <trkpt lat="47.86652" lon="5.34489">
        <ele>369</ele>
        <time>2022-05-23T01:31:42Z</time>
      </trkpt>
      <trkpt lat="47.86632" lon="5.34587">
        <ele>364</ele>
        <time>2022-05-23T01:31:54Z</time>
      </trkpt>
      <trkpt lat="47.8663" lon="5.34643">
        <ele>362</ele>
        <time>2022-05-23T01:32:01Z</time>
      </trkpt>
      <trkpt lat="47.86634" lon="5.34685">
        <ele>360</ele>
        <time>2022-05-23T01:32:06Z</time>
      </trkpt>
      <trkpt lat="47.86644" lon="5.34732">
        <ele>358</ele>
        <time>2022-05-23T01:32:12Z</time>
      </trkpt>
      <trkpt lat="47.86664" lon="5.348">
        <ele>355</ele>
        <time>2022-05-23T01:32:21Z</time>
      </trkpt>
      <trkpt lat="47.86678" lon="5.34868">
        <ele>352</ele>
        <time>2022-05-23T01:32:29Z</time>
      </trkpt>
      <trkpt lat="47.8671" lon="5.34954">
        <ele>351</ele>
        <time>2022-05-23T01:32:41Z</time>
      </trkpt>
      <trkpt lat="47.86744" lon="5.35027">
        <ele>350</ele>
        <time>2022-05-23T01:32:51Z</time>
      </trkpt>
      <trkpt lat="47.86765" lon="5.35088">
        <ele>347</ele>
        <time>2022-05-23T01:33:00Z</time>
      </trkpt>
      <trkpt lat="47.86799" lon="5.35169">
        <ele>340</ele>
        <time>2022-05-23T01:33:11Z</time>
      </trkpt>
      <trkpt lat="47.86837" lon="5.35224">
        <ele>337</ele>
        <time>2022-05-23T01:33:21Z</time>
      </trkpt>
      <trkpt lat="47.86973" lon="5.35447">
        <ele>333</ele>
        <time>2022-05-23T01:33:56Z</time>
      </trkpt>
      <trkpt lat="47.8704" lon="5.35549">
        <ele>332</ele>
        <time>2022-05-23T01:34:14Z</time>
      </trkpt>
      <trkpt lat="47.87146" lon="5.35722">
        <ele>334</ele>
        <time>2022-05-23T01:34:41Z</time>
      </trkpt>
      <trkpt lat="47.87177" lon="5.35768">
        <ele>335</ele>
        <time>2022-05-23T01:34:49Z</time>
      </trkpt>
      <trkpt lat="47.87202" lon="5.35799">
        <ele>335</ele>
        <time>2022-05-23T01:34:55Z</time>
      </trkpt>
      <trkpt lat="47.87194" lon="5.35804">
        <ele>335</ele>
        <time>2022-05-23T01:34:57Z</time>
      </trkpt>
      <trkpt lat="47.87214" lon="5.35756">
        <ele>334</ele>
        <time>2022-05-23T01:35:03Z</time>
      </trkpt>
      <trkpt lat="47.87226" lon="5.35697">
        <ele>335</ele>
        <time>2022-05-23T01:35:11Z</time>
      </trkpt>
      <trkpt lat="47.87234" lon="5.35669">
        <ele>335</ele>
        <time>2022-05-23T01:35:14Z</time>
      </trkpt>
      <trkpt lat="47.8724" lon="5.35658">
        <ele>336</ele>
        <time>2022-05-23T01:35:16Z</time>
      </trkpt>
      <trkpt lat="47.87249" lon="5.35657">
        <ele>336</ele>
        <time>2022-05-23T01:35:18Z</time>
      </trkpt>
      <trkpt lat="47.8726" lon="5.35661">
        <ele>337</ele>
        <time>2022-05-23T01:35:20Z</time>
      </trkpt>
      <trkpt lat="47.87279" lon="5.35674">
        <ele>338</ele>
        <time>2022-05-23T01:35:23Z</time>
      </trkpt>
      <trkpt lat="47.87288" lon="5.35676">
        <ele>339</ele>
        <time>2022-05-23T01:35:25Z</time>
      </trkpt>
      <trkpt lat="47.87314" lon="5.35654">
        <ele>341</ele>
        <time>2022-05-23T01:35:30Z</time>
      </trkpt>
      <trkpt lat="47.87396" lon="5.3561">
        <ele>351</ele>
        <time>2022-05-23T01:35:46Z</time>
      </trkpt>
      <trkpt lat="47.87424" lon="5.35603">
        <ele>354</ele>
        <time>2022-05-23T01:35:51Z</time>
      </trkpt>
      <trkpt lat="47.87435" lon="5.35604">
        <ele>355</ele>
        <time>2022-05-23T01:35:53Z</time>
      </trkpt>
      <trkpt lat="47.87445" lon="5.35605">
        <ele>355</ele>
        <time>2022-05-23T01:35:55Z</time>
      </trkpt>
      <trkpt lat="47.87465" lon="5.35616">
        <ele>358</ele>
        <time>2022-05-23T01:35:58Z</time>
      </trkpt>
      <trkpt lat="47.87472" lon="5.35626">
        <ele>360</ele>
        <time>2022-05-23T01:36:00Z</time>
      </trkpt>
      <trkpt lat="47.875" lon="5.35645">
        <ele>364</ele>
        <time>2022-05-23T01:36:06Z</time>
      </trkpt>
      <trkpt lat="47.87565" lon="5.35708">
        <ele>372</ele>
        <time>2022-05-23T01:36:19Z</time>
      </trkpt>
      <trkpt lat="47.87629" lon="5.35781">
        <ele>378</ele>
        <time>2022-05-23T01:36:34Z</time>
      </trkpt>
      <trkpt lat="47.87667" lon="5.35833">
        <ele>382</ele>
        <time>2022-05-23T01:36:43Z</time>
      </trkpt>
      <trkpt lat="47.87715" lon="5.35893">
        <ele>384</ele>
        <time>2022-05-23T01:36:54Z</time>
      </trkpt>
      <trkpt lat="47.87724" lon="5.35899">
        <ele>384</ele>
        <time>2022-05-23T01:36:56Z</time>
      </trkpt>
      <trkpt lat="47.87733" lon="5.35903">
        <ele>384</ele>
        <time>2022-05-23T01:36:57Z</time>
      </trkpt>
      <trkpt lat="47.87744" lon="5.35902">
        <ele>384</ele>
        <time>2022-05-23T01:36:59Z</time>
      </trkpt>
      <trkpt lat="47.87802" lon="5.35889">
        <ele>383</ele>
        <time>2022-05-23T01:37:10Z</time>
      </trkpt>
      <trkpt lat="47.87869" lon="5.35866">
        <ele>381</ele>
        <time>2022-05-23T01:37:22Z</time>
      </trkpt>
      <trkpt lat="47.8788" lon="5.35866">
        <ele>381</ele>
        <time>2022-05-23T01:37:24Z</time>
      </trkpt>
      <trkpt lat="47.87889" lon="5.3587">
        <ele>381</ele>
        <time>2022-05-23T01:37:26Z</time>
      </trkpt>
      <trkpt lat="47.87899" lon="5.35881">
        <ele>380</ele>
        <time>2022-05-23T01:37:28Z</time>
      </trkpt>
      <trkpt lat="47.87926" lon="5.35941">
        <ele>378</ele>
        <time>2022-05-23T01:37:37Z</time>
      </trkpt>
      <trkpt lat="47.87938" lon="5.35979">
        <ele>376</ele>
        <time>2022-05-23T01:37:42Z</time>
      </trkpt>
      <trkpt lat="47.87948" lon="5.36047">
        <ele>377</ele>
        <time>2022-05-23T01:37:50Z</time>
      </trkpt>
      <trkpt lat="47.87955" lon="5.36151">
        <ele>378</ele>
        <time>2022-05-23T01:38:02Z</time>
      </trkpt>
      <trkpt lat="47.87964" lon="5.36187">
        <ele>379</ele>
        <time>2022-05-23T01:38:07Z</time>
      </trkpt>
      <trkpt lat="47.87977" lon="5.36212">
        <ele>379</ele>
        <time>2022-05-23T01:38:11Z</time>
      </trkpt>
      <trkpt lat="47.87998" lon="5.36227">
        <ele>379</ele>
        <time>2022-05-23T01:38:15Z</time>
      </trkpt>
      <trkpt lat="47.88005" lon="5.3624">
        <ele>380</ele>
        <time>2022-05-23T01:38:17Z</time>
      </trkpt>
      <trkpt lat="47.88014" lon="5.36268">
        <ele>381</ele>
        <time>2022-05-23T01:38:21Z</time>
      </trkpt>
      <trkpt lat="47.88051" lon="5.36337">
        <ele>382</ele>
        <time>2022-05-23T01:38:31Z</time>
      </trkpt>
      <trkpt lat="47.88061" lon="5.36384">
        <ele>383</ele>
        <time>2022-05-23T01:38:37Z</time>
      </trkpt>
      <trkpt lat="47.88065" lon="5.36417">
        <ele>383</ele>
        <time>2022-05-23T01:38:41Z</time>
      </trkpt>
      <trkpt lat="47.88063" lon="5.36434">
        <ele>383</ele>
        <time>2022-05-23T01:38:43Z</time>
      </trkpt>
      <trkpt lat="47.88043" lon="5.36506">
        <ele>384</ele>
        <time>2022-05-23T01:38:52Z</time>
      </trkpt>
      <trkpt lat="47.87986" lon="5.36688">
        <ele>384</ele>
        <time>2022-05-23T01:39:16Z</time>
      </trkpt>
      <trkpt lat="47.87965" lon="5.36767">
        <ele>386</ele>
        <time>2022-05-23T01:39:26Z</time>
      </trkpt>
      <trkpt lat="47.87955" lon="5.36792">
        <ele>386</ele>
        <time>2022-05-23T01:39:30Z</time>
      </trkpt>
      <trkpt lat="47.87942" lon="5.36816">
        <ele>386</ele>
        <time>2022-05-23T01:39:34Z</time>
      </trkpt>
      <trkpt lat="47.87944" lon="5.36831">
        <ele>386</ele>
        <time>2022-05-23T01:39:35Z</time>
      </trkpt>
      <trkpt lat="47.8793" lon="5.36892">
        <ele>387</ele>
        <time>2022-05-23T01:39:43Z</time>
      </trkpt>
      <trkpt lat="47.87906" lon="5.36954">
        <ele>388</ele>
        <time>2022-05-23T01:39:52Z</time>
      </trkpt>
      <trkpt lat="47.87822" lon="5.37078">
        <ele>389</ele>
        <time>2022-05-23T01:40:13Z</time>
      </trkpt>
      <trkpt lat="47.878" lon="5.37131">
        <ele>390</ele>
        <time>2022-05-23T01:40:20Z</time>
      </trkpt>
      <trkpt lat="47.87797" lon="5.37146">
        <ele>390</ele>
        <time>2022-05-23T01:40:22Z</time>
      </trkpt>
      <trkpt lat="47.87798" lon="5.37162">
        <ele>390</ele>
        <time>2022-05-23T01:40:24Z</time>
      </trkpt>
      <trkpt lat="47.87801" lon="5.37177">
        <ele>390</ele>
        <time>2022-05-23T01:40:26Z</time>
      </trkpt>
      <trkpt lat="47.87887" lon="5.374">
        <ele>390</ele>
        <time>2022-05-23T01:40:56Z</time>
      </trkpt>
      <trkpt lat="47.87936" lon="5.37545">
        <ele>390</ele>
        <time>2022-05-23T01:41:16Z</time>
      </trkpt>
      <trkpt lat="47.87954" lon="5.3759">
        <ele>390</ele>
        <time>2022-05-23T01:41:22Z</time>
      </trkpt>
      <trkpt lat="47.88257" lon="5.38268">
        <ele>391</ele>
        <time>2022-05-23T01:42:59Z</time>
      </trkpt>
      <trkpt lat="47.88399" lon="5.38642">
        <ele>388</ele>
        <time>2022-05-23T01:43:51Z</time>
      </trkpt>
      <trkpt lat="47.88491" lon="5.38844">
        <ele>393</ele>
        <time>2022-05-23T01:44:20Z</time>
      </trkpt>
      <trkpt lat="47.88548" lon="5.38959">
        <ele>397</ele>
        <time>2022-05-23T01:44:37Z</time>
      </trkpt>
      <trkpt lat="47.88559" lon="5.38987">
        <ele>397</ele>
        <time>2022-05-23T01:44:41Z</time>
      </trkpt>
      <trkpt lat="47.88572" lon="5.3901">
        <ele>398</ele>
        <time>2022-05-23T01:44:44Z</time>
      </trkpt>
      <trkpt lat="47.88614" lon="5.39105">
        <ele>399</ele>
        <time>2022-05-23T01:44:58Z</time>
      </trkpt>
      <trkpt lat="47.88657" lon="5.39217">
        <ele>402</ele>
        <time>2022-05-23T01:45:13Z</time>
      </trkpt>
      <trkpt lat="47.8879" lon="5.39545">
        <ele>405</ele>
        <time>2022-05-23T01:45:59Z</time>
      </trkpt>
      <trkpt lat="47.88969" lon="5.3998">
        <ele>399</ele>
        <time>2022-05-23T01:47:00Z</time>
      </trkpt>
      <trkpt lat="47.89038" lon="5.40184">
        <ele>401</ele>
        <time>2022-05-23T01:47:27Z</time>
      </trkpt>
      <trkpt lat="47.89068" lon="5.40295">
        <ele>404</ele>
        <time>2022-05-23T01:47:41Z</time>
      </trkpt>
      <trkpt lat="47.89116" lon="5.40512">
        <ele>403</ele>
        <time>2022-05-23T01:48:09Z</time>
      </trkpt>
      <trkpt lat="47.89173" lon="5.40728">
        <ele>397</ele>
        <time>2022-05-23T01:48:36Z</time>
      </trkpt>
      <trkpt lat="47.89192" lon="5.40816">
        <ele>399</ele>
        <time>2022-05-23T01:48:47Z</time>
      </trkpt>
      <trkpt lat="47.89198" lon="5.40861">
        <ele>400</ele>
        <time>2022-05-23T01:48:53Z</time>
      </trkpt>
      <trkpt lat="47.89229" lon="5.4131">
        <ele>411</ele>
        <time>2022-05-23T01:49:47Z</time>
      </trkpt>
      <trkpt lat="47.89235" lon="5.41337">
        <ele>412</ele>
        <time>2022-05-23T01:49:50Z</time>
      </trkpt>
      <trkpt lat="47.89233" lon="5.41351">
        <ele>412</ele>
        <time>2022-05-23T01:49:52Z</time>
      </trkpt>
      <trkpt lat="47.89235" lon="5.41383">
        <ele>412</ele>
        <time>2022-05-23T01:49:56Z</time>
      </trkpt>
      <trkpt lat="47.89262" lon="5.41605">
        <ele>414</ele>
        <time>2022-05-23T01:50:23Z</time>
      </trkpt>
      <trkpt lat="47.8927" lon="5.41688">
        <ele>416</ele>
        <time>2022-05-23T01:50:33Z</time>
      </trkpt>
      <trkpt lat="47.89273" lon="5.4175">
        <ele>417</ele>
        <time>2022-05-23T01:50:40Z</time>
      </trkpt>
      <trkpt lat="47.89275" lon="5.42062">
        <ele>417</ele>
        <time>2022-05-23T01:51:17Z</time>
      </trkpt>
      <trkpt lat="47.89283" lon="5.42124">
        <ele>417</ele>
        <time>2022-05-23T01:51:25Z</time>
      </trkpt>
      <trkpt lat="47.89336" lon="5.42407">
        <ele>420</ele>
        <time>2022-05-23T01:52:00Z</time>
      </trkpt>
      <trkpt lat="47.89366" lon="5.42541">
        <ele>420</ele>
        <time>2022-05-23T01:52:17Z</time>
      </trkpt>
      <trkpt lat="47.89399" lon="5.42652">
        <ele>420</ele>
        <time>2022-05-23T01:52:31Z</time>
      </trkpt>
      <trkpt lat="47.89412" lon="5.42706">
        <ele>421</ele>
        <time>2022-05-23T01:52:38Z</time>
      </trkpt>
      <trkpt lat="47.89454" lon="5.42855">
        <ele>420</ele>
        <time>2022-05-23T01:52:57Z</time>
      </trkpt>
      <trkpt lat="47.89476" lon="5.4294">
        <ele>420</ele>
        <time>2022-05-23T01:53:08Z</time>
      </trkpt>
      <trkpt lat="47.8948" lon="5.42974">
        <ele>420</ele>
        <time>2022-05-23T01:53:12Z</time>
      </trkpt>
      <trkpt lat="47.89479" lon="5.43011">
        <ele>421</ele>
        <time>2022-05-23T01:53:17Z</time>
      </trkpt>
      <trkpt lat="47.8946" lon="5.43124">
        <ele>422</ele>
        <time>2022-05-23T01:53:31Z</time>
      </trkpt>
      <trkpt lat="47.89449" lon="5.43218">
        <ele>423</ele>
        <time>2022-05-23T01:53:42Z</time>
      </trkpt>
      <trkpt lat="47.89434" lon="5.43407">
        <ele>425</ele>
        <time>2022-05-23T01:54:05Z</time>
      </trkpt>
      <trkpt lat="47.8942" lon="5.4354">
        <ele>426</ele>
        <time>2022-05-23T01:54:21Z</time>
      </trkpt>
      <trkpt lat="47.89402" lon="5.43751">
        <ele>422</ele>
        <time>2022-05-23T01:54:46Z</time>
      </trkpt>
      <trkpt lat="47.89424" lon="5.43785">
        <ele>422</ele>
        <time>2022-05-23T01:54:52Z</time>
      </trkpt>
      <trkpt lat="47.89434" lon="5.43795">
        <ele>422</ele>
        <time>2022-05-23T01:54:54Z</time>
      </trkpt>
      <trkpt lat="47.89445" lon="5.438">
        <ele>422</ele>
        <time>2022-05-23T01:54:56Z</time>
      </trkpt>
      <trkpt lat="47.89466" lon="5.438">
        <ele>422</ele>
        <time>2022-05-23T01:55:00Z</time>
      </trkpt>
      <trkpt lat="47.89489" lon="5.43796">
        <ele>423</ele>
        <time>2022-05-23T01:55:04Z</time>
      </trkpt>
      <trkpt lat="47.8952" lon="5.43787">
        <ele>424</ele>
        <time>2022-05-23T01:55:09Z</time>
      </trkpt>
      <trkpt lat="47.89563" lon="5.43768">
        <ele>425</ele>
        <time>2022-05-23T01:55:17Z</time>
      </trkpt>
      <trkpt lat="47.89614" lon="5.43733">
        <ele>424</ele>
        <time>2022-05-23T01:55:27Z</time>
      </trkpt>
      <trkpt lat="47.89647" lon="5.43706">
        <ele>423</ele>
        <time>2022-05-23T01:55:34Z</time>
      </trkpt>
      <trkpt lat="47.89688" lon="5.43659">
        <ele>422</ele>
        <time>2022-05-23T01:55:43Z</time>
      </trkpt>
      <trkpt lat="47.8972" lon="5.43604">
        <ele>422</ele>
        <time>2022-05-23T01:55:52Z</time>
      </trkpt>
      <trkpt lat="47.8974" lon="5.43591">
        <ele>421</ele>
        <time>2022-05-23T01:55:56Z</time>
      </trkpt>
      <trkpt lat="47.89752" lon="5.43594">
        <ele>421</ele>
        <time>2022-05-23T01:55:58Z</time>
      </trkpt>
      <trkpt lat="47.89764" lon="5.43602">
        <ele>420</ele>
        <time>2022-05-23T01:56:00Z</time>
      </trkpt>
      <trkpt lat="47.8985" lon="5.43699">
        <ele>418</ele>
        <time>2022-05-23T01:56:20Z</time>
      </trkpt>
      <trkpt lat="47.89914" lon="5.43761">
        <ele>420</ele>
        <time>2022-05-23T01:56:33Z</time>
      </trkpt>
      <trkpt lat="47.89934" lon="5.43774">
        <ele>420</ele>
        <time>2022-05-23T01:56:37Z</time>
      </trkpt>
      <trkpt lat="47.89952" lon="5.43792">
        <ele>421</ele>
        <time>2022-05-23T01:56:41Z</time>
      </trkpt>
      <trkpt lat="47.90011" lon="5.43836">
        <ele>421</ele>
        <time>2022-05-23T01:56:53Z</time>
      </trkpt>
      <trkpt lat="47.90091" lon="5.43884">
        <ele>419</ele>
        <time>2022-05-23T01:57:08Z</time>
      </trkpt>
      <trkpt lat="47.901" lon="5.43879">
        <ele>419</ele>
        <time>2022-05-23T01:57:10Z</time>
      </trkpt>
      <trkpt lat="47.90085" lon="5.4388">
        <ele>420</ele>
        <time>2022-05-23T01:57:12Z</time>
      </trkpt>
      <trkpt lat="47.90075" lon="5.43875">
        <ele>420</ele>
        <time>2022-05-23T01:57:14Z</time>
      </trkpt>
      <trkpt lat="47.90066" lon="5.43867">
        <ele>420</ele>
        <time>2022-05-23T01:57:16Z</time>
      </trkpt>
      <trkpt lat="47.90056" lon="5.43863">
        <ele>420</ele>
        <time>2022-05-23T01:57:18Z</time>
      </trkpt>
      <trkpt lat="47.90063" lon="5.4385">
        <ele>420</ele>
        <time>2022-05-23T01:57:20Z</time>
      </trkpt>
      <trkpt lat="47.90072" lon="5.43848">
        <ele>419</ele>
        <time>2022-05-23T01:57:22Z</time>
      </trkpt>
      <trkpt lat="47.90091" lon="5.43838">
        <ele>419</ele>
        <time>2022-05-23T01:57:25Z</time>
      </trkpt>
      <trkpt lat="47.90168" lon="5.4377">
        <ele>418</ele>
        <time>2022-05-23T01:57:41Z</time>
      </trkpt>
      <trkpt lat="47.90214" lon="5.43734">
        <ele>415</ele>
        <time>2022-05-23T01:57:50Z</time>
      </trkpt>
      <trkpt lat="47.90227" lon="5.43729">
        <ele>414</ele>
        <time>2022-05-23T01:57:53Z</time>
      </trkpt>
      <trkpt lat="47.90241" lon="5.4373">
        <ele>413</ele>
        <time>2022-05-23T01:57:55Z</time>
      </trkpt>
      <trkpt lat="47.90255" lon="5.43738">
        <ele>413</ele>
        <time>2022-05-23T01:57:58Z</time>
      </trkpt>
      <trkpt lat="47.90267" lon="5.43753">
        <ele>411</ele>
        <time>2022-05-23T01:58:01Z</time>
      </trkpt>
      <trkpt lat="47.90286" lon="5.43792">
        <ele>408</ele>
        <time>2022-05-23T01:58:06Z</time>
      </trkpt>
      <trkpt lat="47.9031" lon="5.43892">
        <ele>406</ele>
        <time>2022-05-23T01:58:19Z</time>
      </trkpt>
      <trkpt lat="47.90321" lon="5.43912">
        <ele>406</ele>
        <time>2022-05-23T01:58:22Z</time>
      </trkpt>
      <trkpt lat="47.90342" lon="5.43937">
        <ele>405</ele>
        <time>2022-05-23T01:58:27Z</time>
      </trkpt>
      <trkpt lat="47.90368" lon="5.4396">
        <ele>401</ele>
        <time>2022-05-23T01:58:32Z</time>
      </trkpt>
      <trkpt lat="47.90409" lon="5.44005">
        <ele>398</ele>
        <time>2022-05-23T01:58:41Z</time>
      </trkpt>
      <trkpt lat="47.90496" lon="5.44086">
        <ele>391</ele>
        <time>2022-05-23T01:59:00Z</time>
      </trkpt>
      <trkpt lat="47.90541" lon="5.44122">
        <ele>389</ele>
        <time>2022-05-23T01:59:09Z</time>
      </trkpt>
      <trkpt lat="47.90583" lon="5.4416">
        <ele>385</ele>
        <time>2022-05-23T01:59:17Z</time>
      </trkpt>
      <trkpt lat="47.90612" lon="5.44178">
        <ele>382</ele>
        <time>2022-05-23T01:59:23Z</time>
      </trkpt>
      <trkpt lat="47.90631" lon="5.44183">
        <ele>381</ele>
        <time>2022-05-23T01:59:26Z</time>
      </trkpt>
      <trkpt lat="47.9066" lon="5.44181">
        <ele>380</ele>
        <time>2022-05-23T01:59:32Z</time>
      </trkpt>
      <trkpt lat="47.9068" lon="5.44183">
        <ele>380</ele>
        <time>2022-05-23T01:59:35Z</time>
      </trkpt>
      <trkpt lat="47.90751" lon="5.4421">
        <ele>376</ele>
        <time>2022-05-23T01:59:48Z</time>
      </trkpt>
      <trkpt lat="47.90771" lon="5.44213">
        <ele>374</ele>
        <time>2022-05-23T01:59:52Z</time>
      </trkpt>
      <trkpt lat="47.90792" lon="5.44212">
        <ele>372</ele>
        <time>2022-05-23T01:59:56Z</time>
      </trkpt>
      <trkpt lat="47.90823" lon="5.44206">
        <ele>371</ele>
        <time>2022-05-23T02:00:01Z</time>
      </trkpt>
      <trkpt lat="47.90852" lon="5.44196">
        <ele>369</ele>
        <time>2022-05-23T02:00:06Z</time>
      </trkpt>
      <trkpt lat="47.90876" lon="5.44172">
        <ele>367</ele>
        <time>2022-05-23T02:00:12Z</time>
      </trkpt>
      <trkpt lat="47.90914" lon="5.44079">
        <ele>363</ele>
        <time>2022-05-23T02:00:25Z</time>
      </trkpt>
      <trkpt lat="47.90928" lon="5.44054">
        <ele>360</ele>
        <time>2022-05-23T02:00:28Z</time>
      </trkpt>
      <trkpt lat="47.90936" lon="5.44045">
        <ele>358</ele>
        <time>2022-05-23T02:00:30Z</time>
      </trkpt>
      <trkpt lat="47.90946" lon="5.44039">
        <ele>357</ele>
        <time>2022-05-23T02:00:32Z</time>
      </trkpt>
      <trkpt lat="47.90958" lon="5.44039">
        <ele>355</ele>
        <time>2022-05-23T02:00:34Z</time>
      </trkpt>
      <trkpt lat="47.90979" lon="5.44048">
        <ele>353</ele>
        <time>2022-05-23T02:00:38Z</time>
      </trkpt>
      <trkpt lat="47.91043" lon="5.4412">
        <ele>349</ele>
        <time>2022-05-23T02:00:52Z</time>
      </trkpt>
      <trkpt lat="47.91064" lon="5.44133">
        <ele>347</ele>
        <time>2022-05-23T02:00:56Z</time>
      </trkpt>
      <trkpt lat="47.91085" lon="5.4414">
        <ele>346</ele>
        <time>2022-05-23T02:01:00Z</time>
      </trkpt>
      <trkpt lat="47.91099" lon="5.44151">
        <ele>346</ele>
        <time>2022-05-23T02:01:03Z</time>
      </trkpt>
      <trkpt lat="47.91125" lon="5.44229">
        <ele>346</ele>
        <time>2022-05-23T02:01:13Z</time>
      </trkpt>
      <trkpt lat="47.91135" lon="5.44243">
        <ele>345</ele>
        <time>2022-05-23T02:01:16Z</time>
      </trkpt>
      <trkpt lat="47.91147" lon="5.44252">
        <ele>345</ele>
        <time>2022-05-23T02:01:18Z</time>
      </trkpt>
      <trkpt lat="47.91159" lon="5.44257">
        <ele>345</ele>
        <time>2022-05-23T02:01:20Z</time>
      </trkpt>
      <trkpt lat="47.91202" lon="5.44262">
        <ele>345</ele>
        <time>2022-05-23T02:01:28Z</time>
      </trkpt>
      <trkpt lat="47.91234" lon="5.44273">
        <ele>344</ele>
        <time>2022-05-23T02:01:34Z</time>
      </trkpt>
      <trkpt lat="47.91256" lon="5.44277">
        <ele>344</ele>
        <time>2022-05-23T02:01:38Z</time>
      </trkpt>
      <trkpt lat="47.91344" lon="5.44288">
        <ele>345</ele>
        <time>2022-05-23T02:01:54Z</time>
      </trkpt>
      <trkpt lat="47.91412" lon="5.44306">
        <ele>347</ele>
        <time>2022-05-23T02:02:06Z</time>
      </trkpt>
      <trkpt lat="47.91443" lon="5.4431">
        <ele>348</ele>
        <time>2022-05-23T02:02:11Z</time>
      </trkpt>
      <trkpt lat="47.91505" lon="5.44295">
        <ele>349</ele>
        <time>2022-05-23T02:02:23Z</time>
      </trkpt>
      <trkpt lat="47.91589" lon="5.44242">
        <ele>352</ele>
        <time>2022-05-23T02:02:39Z</time>
      </trkpt>
      <trkpt lat="47.91618" lon="5.44229">
        <ele>353</ele>
        <time>2022-05-23T02:02:44Z</time>
      </trkpt>
      <trkpt lat="47.91628" lon="5.44228">
        <ele>354</ele>
        <time>2022-05-23T02:02:46Z</time>
      </trkpt>
      <trkpt lat="47.91636" lon="5.44237">
        <ele>354</ele>
        <time>2022-05-23T02:02:48Z</time>
      </trkpt>
      <trkpt lat="47.91653" lon="5.44319">
        <ele>352</ele>
        <time>2022-05-23T02:02:58Z</time>
      </trkpt>
      <trkpt lat="47.91681" lon="5.44389">
        <ele>352</ele>
        <time>2022-05-23T02:03:08Z</time>
      </trkpt>
      <trkpt lat="47.91713" lon="5.44498">
        <ele>352</ele>
        <time>2022-05-23T02:03:22Z</time>
      </trkpt>
      <trkpt lat="47.91716" lon="5.44516">
        <ele>353</ele>
        <time>2022-05-23T02:03:24Z</time>
      </trkpt>
      <trkpt lat="47.91715" lon="5.44534">
        <ele>353</ele>
        <time>2022-05-23T02:03:26Z</time>
      </trkpt>
      <trkpt lat="47.91706" lon="5.44582">
        <ele>354</ele>
        <time>2022-05-23T02:03:32Z</time>
      </trkpt>
      <trkpt lat="47.91656" lon="5.44766">
        <ele>355</ele>
        <time>2022-05-23T02:03:56Z</time>
      </trkpt>
      <trkpt lat="47.91622" lon="5.44846">
        <ele>355</ele>
        <time>2022-05-23T02:04:07Z</time>
      </trkpt>
      <trkpt lat="47.91578" lon="5.44936">
        <ele>354</ele>
        <time>2022-05-23T02:04:21Z</time>
      </trkpt>
      <trkpt lat="47.91493" lon="5.45125">
        <ele>351</ele>
        <time>2022-05-23T02:04:48Z</time>
      </trkpt>
      <trkpt lat="47.91452" lon="5.45205">
        <ele>350</ele>
        <time>2022-05-23T02:05:00Z</time>
      </trkpt>
      <trkpt lat="47.91436" lon="5.45244">
        <ele>349</ele>
        <time>2022-05-23T02:05:05Z</time>
      </trkpt>
      <trkpt lat="47.91429" lon="5.45271">
        <ele>349</ele>
        <time>2022-05-23T02:05:09Z</time>
      </trkpt>
      <trkpt lat="47.91416" lon="5.45365">
        <ele>350</ele>
        <time>2022-05-23T02:05:20Z</time>
      </trkpt>
      <trkpt lat="47.91417" lon="5.45382">
        <ele>350</ele>
        <time>2022-05-23T02:05:22Z</time>
      </trkpt>
      <trkpt lat="47.91421" lon="5.45395">
        <ele>351</ele>
        <time>2022-05-23T02:05:24Z</time>
      </trkpt>
      <trkpt lat="47.91431" lon="5.454">
        <ele>351</ele>
        <time>2022-05-23T02:05:26Z</time>
      </trkpt>
      <trkpt lat="47.91413" lon="5.45386">
        <ele>350</ele>
        <time>2022-05-23T02:05:29Z</time>
      </trkpt>
      <trkpt lat="47.91393" lon="5.45528">
        <ele>352</ele>
        <time>2022-05-23T02:05:47Z</time>
      </trkpt>
      <trkpt lat="47.91354" lon="5.45685">
        <ele>351</ele>
        <time>2022-05-23T02:06:07Z</time>
      </trkpt>
      <trkpt lat="47.91342" lon="5.45742">
        <ele>351</ele>
        <time>2022-05-23T02:06:14Z</time>
      </trkpt>
      <trkpt lat="47.91313" lon="5.4582">
        <ele>350</ele>
        <time>2022-05-23T02:06:24Z</time>
      </trkpt>
      <trkpt lat="47.91283" lon="5.45889">
        <ele>349</ele>
        <time>2022-05-23T02:06:34Z</time>
      </trkpt>
      <trkpt lat="47.9124" lon="5.45979">
        <ele>349</ele>
        <time>2022-05-23T02:06:47Z</time>
      </trkpt>
      <trkpt lat="47.9122" lon="5.46006">
        <ele>348</ele>
        <time>2022-05-23T02:06:52Z</time>
      </trkpt>
      <trkpt lat="47.91196" lon="5.46028">
        <ele>348</ele>
        <time>2022-05-23T02:06:57Z</time>
      </trkpt>
      <trkpt lat="47.91089" lon="5.46091">
        <ele>351</ele>
        <time>2022-05-23T02:07:18Z</time>
      </trkpt>
      <trkpt lat="47.91062" lon="5.4611">
        <ele>353</ele>
        <time>2022-05-23T02:07:23Z</time>
      </trkpt>
      <trkpt lat="47.91042" lon="5.46133">
        <ele>354</ele>
        <time>2022-05-23T02:07:27Z</time>
      </trkpt>
      <trkpt lat="47.91029" lon="5.46158">
        <ele>355</ele>
        <time>2022-05-23T02:07:31Z</time>
      </trkpt>
      <trkpt lat="47.91009" lon="5.46234">
        <ele>354</ele>
        <time>2022-05-23T02:07:41Z</time>
      </trkpt>
      <trkpt lat="47.90986" lon="5.4635">
        <ele>357</ele>
        <time>2022-05-23T02:07:55Z</time>
      </trkpt>
      <trkpt lat="47.90965" lon="5.46437">
        <ele>357</ele>
        <time>2022-05-23T02:08:06Z</time>
      </trkpt>
      <trkpt lat="47.90929" lon="5.4661">
        <ele>358</ele>
        <time>2022-05-23T02:08:28Z</time>
      </trkpt>
      <trkpt lat="47.90921" lon="5.46641">
        <ele>358</ele>
        <time>2022-05-23T02:08:32Z</time>
      </trkpt>
      <trkpt lat="47.90855" lon="5.46795">
        <ele>356</ele>
        <time>2022-05-23T02:08:54Z</time>
      </trkpt>
      <trkpt lat="47.90824" lon="5.46935">
        <ele>352</ele>
        <time>2022-05-23T02:09:11Z</time>
      </trkpt>
      <trkpt lat="47.90809" lon="5.47021">
        <ele>353</ele>
        <time>2022-05-23T02:09:22Z</time>
      </trkpt>
      <trkpt lat="47.90802" lon="5.47094">
        <ele>353</ele>
        <time>2022-05-23T02:09:31Z</time>
      </trkpt>
      <trkpt lat="47.90802" lon="5.47187">
        <ele>354</ele>
        <time>2022-05-23T02:09:42Z</time>
      </trkpt>
      <trkpt lat="47.90796" lon="5.47349">
        <ele>356</ele>
        <time>2022-05-23T02:10:01Z</time>
      </trkpt>
      <trkpt lat="47.90792" lon="5.4786">
        <ele>358</ele>
        <time>2022-05-23T02:11:02Z</time>
      </trkpt>
      <trkpt lat="47.90789" lon="5.47993">
        <ele>358</ele>
        <time>2022-05-23T02:11:18Z</time>
      </trkpt>
      <trkpt lat="47.90791" lon="5.48139">
        <ele>360</ele>
        <time>2022-05-23T02:11:35Z</time>
      </trkpt>
      <trkpt lat="47.90788" lon="5.48316">
        <ele>360</ele>
        <time>2022-05-23T02:11:57Z</time>
      </trkpt>
      <trkpt lat="47.90789" lon="5.48424">
        <ele>360</ele>
        <time>2022-05-23T02:12:09Z</time>
      </trkpt>
      <trkpt lat="47.90786" lon="5.48543">
        <ele>362</ele>
        <time>2022-05-23T02:12:24Z</time>
      </trkpt>
      <trkpt lat="47.90787" lon="5.48638">
        <ele>362</ele>
        <time>2022-05-23T02:12:35Z</time>
      </trkpt>
      <trkpt lat="47.90783" lon="5.48861">
        <ele>362</ele>
        <time>2022-05-23T02:13:02Z</time>
      </trkpt>
      <trkpt lat="47.90783" lon="5.49041">
        <ele>364</ele>
        <time>2022-05-23T02:13:23Z</time>
      </trkpt>
      <trkpt lat="47.90778" lon="5.49207">
        <ele>366</ele>
        <time>2022-05-23T02:13:43Z</time>
      </trkpt>
      <trkpt lat="47.90777" lon="5.49327">
        <ele>367</ele>
        <time>2022-05-23T02:13:57Z</time>
      </trkpt>
      <trkpt lat="47.90766" lon="5.49588">
        <ele>367</ele>
        <time>2022-05-23T02:14:28Z</time>
      </trkpt>
      <trkpt lat="47.90757" lon="5.49735">
        <ele>369</ele>
        <time>2022-05-23T02:14:46Z</time>
      </trkpt>
      <trkpt lat="47.90756" lon="5.49845">
        <ele>366</ele>
        <time>2022-05-23T02:14:59Z</time>
      </trkpt>
      <trkpt lat="47.90748" lon="5.49877">
        <ele>366</ele>
        <time>2022-05-23T02:15:03Z</time>
      </trkpt>
      <trkpt lat="47.90722" lon="5.49927">
        <ele>365</ele>
        <time>2022-05-23T02:15:11Z</time>
      </trkpt>
      <trkpt lat="47.90721" lon="5.49956">
        <ele>365</ele>
        <time>2022-05-23T02:15:14Z</time>
      </trkpt>
      <trkpt lat="47.90746" lon="5.50105">
        <ele>363</ele>
        <time>2022-05-23T02:15:32Z</time>
      </trkpt>
      <trkpt lat="47.90758" lon="5.50146">
        <ele>362</ele>
        <time>2022-05-23T02:15:38Z</time>
      </trkpt>
      <trkpt lat="47.90808" lon="5.50276">
        <ele>361</ele>
        <time>2022-05-23T02:15:56Z</time>
      </trkpt>
      <trkpt lat="47.9083" lon="5.50318">
        <ele>361</ele>
        <time>2022-05-23T02:16:02Z</time>
      </trkpt>
      <trkpt lat="47.90881" lon="5.50392">
        <ele>360</ele>
        <time>2022-05-23T02:16:15Z</time>
      </trkpt>
      <trkpt lat="47.90894" lon="5.50422">
        <ele>360</ele>
        <time>2022-05-23T02:16:19Z</time>
      </trkpt>
      <trkpt lat="47.90903" lon="5.50456">
        <ele>359</ele>
        <time>2022-05-23T02:16:23Z</time>
      </trkpt>
      <trkpt lat="47.90921" lon="5.50554">
        <ele>356</ele>
        <time>2022-05-23T02:16:35Z</time>
      </trkpt>
      <trkpt lat="47.90948" lon="5.50681">
        <ele>354</ele>
        <time>2022-05-23T02:16:51Z</time>
      </trkpt>
      <trkpt lat="47.90992" lon="5.50819">
        <ele>351</ele>
        <time>2022-05-23T02:17:10Z</time>
      </trkpt>
      <trkpt lat="47.91045" lon="5.50998">
        <ele>345</ele>
        <time>2022-05-23T02:17:33Z</time>
      </trkpt>
      <trkpt lat="47.91065" lon="5.51057">
        <ele>345</ele>
        <time>2022-05-23T02:17:41Z</time>
      </trkpt>
      <trkpt lat="47.91251" lon="5.51407">
        <ele>340</ele>
        <time>2022-05-23T02:18:34Z</time>
      </trkpt>
      <trkpt lat="47.91275" lon="5.51461">
        <ele>340</ele>
        <time>2022-05-23T02:18:42Z</time>
      </trkpt>
      <trkpt lat="47.913" lon="5.51528">
        <ele>341</ele>
        <time>2022-05-23T02:18:51Z</time>
      </trkpt>
      <trkpt lat="47.91328" lon="5.51572">
        <ele>343</ele>
        <time>2022-05-23T02:18:58Z</time>
      </trkpt>
      <trkpt lat="47.91357" lon="5.51611">
        <ele>343</ele>
        <time>2022-05-23T02:19:05Z</time>
      </trkpt>
      <trkpt lat="47.91424" lon="5.51684">
        <ele>342</ele>
        <time>2022-05-23T02:19:20Z</time>
      </trkpt>
      <trkpt lat="47.91451" lon="5.51719">
        <ele>342</ele>
        <time>2022-05-23T02:19:26Z</time>
      </trkpt>
      <trkpt lat="47.91459" lon="5.51733">
        <ele>341</ele>
        <time>2022-05-23T02:19:28Z</time>
      </trkpt>
      <trkpt lat="47.91475" lon="5.51788">
        <ele>341</ele>
        <time>2022-05-23T02:19:36Z</time>
      </trkpt>
      <trkpt lat="47.91498" lon="5.51889">
        <ele>343</ele>
        <time>2022-05-23T02:19:48Z</time>
      </trkpt>
      <trkpt lat="47.91507" lon="5.51913">
        <ele>344</ele>
        <time>2022-05-23T02:19:52Z</time>
      </trkpt>
      <trkpt lat="47.91523" lon="5.51939">
        <ele>344</ele>
        <time>2022-05-23T02:19:56Z</time>
      </trkpt>
      <trkpt lat="47.91564" lon="5.51988">
        <ele>343</ele>
        <time>2022-05-23T02:20:05Z</time>
      </trkpt>
      <trkpt lat="47.91757" lon="5.52196">
        <ele>339</ele>
        <time>2022-05-23T02:20:47Z</time>
      </trkpt>
      <trkpt lat="47.91793" lon="5.52232">
        <ele>339</ele>
        <time>2022-05-23T02:20:55Z</time>
      </trkpt>
      <trkpt lat="47.9186" lon="5.5231">
        <ele>339</ele>
        <time>2022-05-23T02:21:10Z</time>
      </trkpt>
      <trkpt lat="47.91894" lon="5.52356">
        <ele>339</ele>
        <time>2022-05-23T02:21:18Z</time>
      </trkpt>
      <trkpt lat="47.91919" lon="5.52379">
        <ele>339</ele>
        <time>2022-05-23T02:21:24Z</time>
      </trkpt>
      <trkpt lat="47.91939" lon="5.52388">
        <ele>338</ele>
        <time>2022-05-23T02:21:27Z</time>
      </trkpt>
      <trkpt lat="47.91962" lon="5.52393">
        <ele>337</ele>
        <time>2022-05-23T02:21:32Z</time>
      </trkpt>
      <trkpt lat="47.9204" lon="5.52392">
        <ele>336</ele>
        <time>2022-05-23T02:21:45Z</time>
      </trkpt>
      <trkpt lat="47.92163" lon="5.52385">
        <ele>333</ele>
        <time>2022-05-23T02:22:07Z</time>
      </trkpt>
      <trkpt lat="47.9219" lon="5.52389">
        <ele>333</ele>
        <time>2022-05-23T02:22:12Z</time>
      </trkpt>
      <trkpt lat="47.92202" lon="5.52395">
        <ele>332</ele>
        <time>2022-05-23T02:22:14Z</time>
      </trkpt>
      <trkpt lat="47.92253" lon="5.52442">
        <ele>331</ele>
        <time>2022-05-23T02:22:25Z</time>
      </trkpt>
      <trkpt lat="47.92279" lon="5.52462">
        <ele>331</ele>
        <time>2022-05-23T02:22:30Z</time>
      </trkpt>
      <trkpt lat="47.92316" lon="5.52506">
        <ele>331</ele>
        <time>2022-05-23T02:22:39Z</time>
      </trkpt>
      <trkpt lat="47.92325" lon="5.52513">
        <ele>331</ele>
        <time>2022-05-23T02:22:41Z</time>
      </trkpt>
      <trkpt lat="47.92336" lon="5.52515">
        <ele>331</ele>
        <time>2022-05-23T02:22:42Z</time>
      </trkpt>
      <trkpt lat="47.9235" lon="5.52505">
        <ele>331</ele>
        <time>2022-05-23T02:22:45Z</time>
      </trkpt>
      <trkpt lat="47.92361" lon="5.52511">
        <ele>332</ele>
        <time>2022-05-23T02:22:47Z</time>
      </trkpt>
      <trkpt lat="47.92399" lon="5.5255">
        <ele>333</ele>
        <time>2022-05-23T02:22:56Z</time>
      </trkpt>
      <trkpt lat="47.9242" lon="5.52587">
        <ele>334</ele>
        <time>2022-05-23T02:23:01Z</time>
      </trkpt>
      <trkpt lat="47.92414" lon="5.52597">
        <ele>334</ele>
        <time>2022-05-23T02:23:03Z</time>
      </trkpt>
      <trkpt lat="47.92427" lon="5.52606">
        <ele>335</ele>
        <time>2022-05-23T02:23:05Z</time>
      </trkpt>
      <trkpt lat="47.92459" lon="5.52661">
        <ele>337</ele>
        <time>2022-05-23T02:23:14Z</time>
      </trkpt>
      <trkpt lat="47.92468" lon="5.5267">
        <ele>337</ele>
        <time>2022-05-23T02:23:16Z</time>
      </trkpt>
      <trkpt lat="47.92495" lon="5.52684">
        <ele>338</ele>
        <time>2022-05-23T02:23:21Z</time>
      </trkpt>
      <trkpt lat="47.92571" lon="5.52705">
        <ele>342</ele>
        <time>2022-05-23T02:23:35Z</time>
      </trkpt>
      <trkpt lat="47.92623" lon="5.52715">
        <ele>342</ele>
        <time>2022-05-23T02:23:44Z</time>
      </trkpt>
      <trkpt lat="47.92654" lon="5.52726">
        <ele>342</ele>
        <time>2022-05-23T02:23:50Z</time>
      </trkpt>
      <trkpt lat="47.92672" lon="5.52736">
        <ele>343</ele>
        <time>2022-05-23T02:23:53Z</time>
      </trkpt>
      <trkpt lat="47.92688" lon="5.52751">
        <ele>344</ele>
        <time>2022-05-23T02:23:57Z</time>
      </trkpt>
      <trkpt lat="47.92708" lon="5.52783">
        <ele>345</ele>
        <time>2022-05-23T02:24:02Z</time>
      </trkpt>
      <trkpt lat="47.92718" lon="5.52808">
        <ele>346</ele>
        <time>2022-05-23T02:24:05Z</time>
      </trkpt>
      <trkpt lat="47.92725" lon="5.52834">
        <ele>347</ele>
        <time>2022-05-23T02:24:09Z</time>
      </trkpt>
      <trkpt lat="47.92734" lon="5.5288">
        <ele>348</ele>
        <time>2022-05-23T02:24:14Z</time>
      </trkpt>
      <trkpt lat="47.92759" lon="5.53071">
        <ele>352</ele>
        <time>2022-05-23T02:24:38Z</time>
      </trkpt>
      <trkpt lat="47.92767" lon="5.53112">
        <ele>353</ele>
        <time>2022-05-23T02:24:43Z</time>
      </trkpt>
      <trkpt lat="47.92779" lon="5.5315">
        <ele>354</ele>
        <time>2022-05-23T02:24:48Z</time>
      </trkpt>
      <trkpt lat="47.92787" lon="5.5316">
        <ele>354</ele>
        <time>2022-05-23T02:24:50Z</time>
      </trkpt>
      <trkpt lat="47.92878" lon="5.53215">
        <ele>356</ele>
        <time>2022-05-23T02:25:07Z</time>
      </trkpt>
      <trkpt lat="47.92909" lon="5.53236">
        <ele>357</ele>
        <time>2022-05-23T02:25:13Z</time>
      </trkpt>
      <trkpt lat="47.92928" lon="5.53253">
        <ele>357</ele>
        <time>2022-05-23T02:25:17Z</time>
      </trkpt>
      <trkpt lat="47.92948" lon="5.53284">
        <ele>358</ele>
        <time>2022-05-23T02:25:22Z</time>
      </trkpt>
      <trkpt lat="47.92985" lon="5.53382">
        <ele>360</ele>
        <time>2022-05-23T02:25:36Z</time>
      </trkpt>
      <trkpt lat="47.92999" lon="5.53407">
        <ele>360</ele>
        <time>2022-05-23T02:25:39Z</time>
      </trkpt>
      <trkpt lat="47.93016" lon="5.5343">
        <ele>360</ele>
        <time>2022-05-23T02:25:44Z</time>
      </trkpt>
      <trkpt lat="47.93045" lon="5.53456">
        <ele>360</ele>
        <time>2022-05-23T02:25:50Z</time>
      </trkpt>
      <trkpt lat="47.93085" lon="5.53474">
        <ele>359</ele>
        <time>2022-05-23T02:25:57Z</time>
      </trkpt>
      <trkpt lat="47.9315" lon="5.53497">
        <ele>359</ele>
        <time>2022-05-23T02:26:09Z</time>
      </trkpt>
      <trkpt lat="47.93184" lon="5.53521">
        <ele>358</ele>
        <time>2022-05-23T02:26:16Z</time>
      </trkpt>
      <trkpt lat="47.93204" lon="5.53543">
        <ele>357</ele>
        <time>2022-05-23T02:26:20Z</time>
      </trkpt>
      <trkpt lat="47.93273" lon="5.53632">
        <ele>354</ele>
        <time>2022-05-23T02:26:36Z</time>
      </trkpt>
      <trkpt lat="47.93299" lon="5.53675">
        <ele>354</ele>
        <time>2022-05-23T02:26:43Z</time>
      </trkpt>
      <trkpt lat="47.93313" lon="5.53706">
        <ele>353</ele>
        <time>2022-05-23T02:26:48Z</time>
      </trkpt>
      <trkpt lat="47.9334" lon="5.53785">
        <ele>354</ele>
        <time>2022-05-23T02:26:58Z</time>
      </trkpt>
      <trkpt lat="47.93381" lon="5.53892">
        <ele>353</ele>
        <time>2022-05-23T02:27:13Z</time>
      </trkpt>
      <trkpt lat="47.93402" lon="5.5396">
        <ele>351</ele>
        <time>2022-05-23T02:27:22Z</time>
      </trkpt>
      <trkpt lat="47.93409" lon="5.53998">
        <ele>350</ele>
        <time>2022-05-23T02:27:27Z</time>
      </trkpt>
      <trkpt lat="47.9341" lon="5.54017">
        <ele>350</ele>
        <time>2022-05-23T02:27:29Z</time>
      </trkpt>
      <trkpt lat="47.9341" lon="5.54052">
        <ele>350</ele>
        <time>2022-05-23T02:27:33Z</time>
      </trkpt>
      <trkpt lat="47.93402" lon="5.54154">
        <ele>350</ele>
        <time>2022-05-23T02:27:45Z</time>
      </trkpt>
      <trkpt lat="47.93402" lon="5.54216">
        <ele>351</ele>
        <time>2022-05-23T02:27:53Z</time>
      </trkpt>
      <trkpt lat="47.9341" lon="5.54307">
        <ele>351</ele>
        <time>2022-05-23T02:28:04Z</time>
      </trkpt>
      <trkpt lat="47.93419" lon="5.54354">
        <ele>352</ele>
        <time>2022-05-23T02:28:09Z</time>
      </trkpt>
      <trkpt lat="47.93431" lon="5.54398">
        <ele>353</ele>
        <time>2022-05-23T02:28:15Z</time>
      </trkpt>
      <trkpt lat="47.935" lon="5.54574">
        <ele>352</ele>
        <time>2022-05-23T02:28:39Z</time>
      </trkpt>
      <trkpt lat="47.93522" lon="5.54665">
        <ele>355</ele>
        <time>2022-05-23T02:28:51Z</time>
      </trkpt>
      <trkpt lat="47.93528" lon="5.54726">
        <ele>356</ele>
        <time>2022-05-23T02:28:58Z</time>
      </trkpt>
      <trkpt lat="47.93527" lon="5.54798">
        <ele>358</ele>
        <time>2022-05-23T02:29:07Z</time>
      </trkpt>
      <trkpt lat="47.93518" lon="5.54859">
        <ele>359</ele>
        <time>2022-05-23T02:29:14Z</time>
      </trkpt>
      <trkpt lat="47.93512" lon="5.54887">
        <ele>359</ele>
        <time>2022-05-23T02:29:18Z</time>
      </trkpt>
      <trkpt lat="47.93492" lon="5.54955">
        <ele>360</ele>
        <time>2022-05-23T02:29:27Z</time>
      </trkpt>
      <trkpt lat="47.93464" lon="5.55039">
        <ele>360</ele>
        <time>2022-05-23T02:29:38Z</time>
      </trkpt>
      <trkpt lat="47.93444" lon="5.55109">
        <ele>359</ele>
        <time>2022-05-23T02:29:47Z</time>
      </trkpt>
      <trkpt lat="47.93402" lon="5.55327">
        <ele>354</ele>
        <time>2022-05-23T02:30:14Z</time>
      </trkpt>
      <trkpt lat="47.93397" lon="5.55368">
        <ele>354</ele>
        <time>2022-05-23T02:30:19Z</time>
      </trkpt>
      <trkpt lat="47.93393" lon="5.5543">
        <ele>353</ele>
        <time>2022-05-23T02:30:26Z</time>
      </trkpt>
      <trkpt lat="47.934" lon="5.55572">
        <ele>355</ele>
        <time>2022-05-23T02:30:43Z</time>
      </trkpt>
      <trkpt lat="47.93405" lon="5.55617">
        <ele>356</ele>
        <time>2022-05-23T02:30:49Z</time>
      </trkpt>
      <trkpt lat="47.9341" lon="5.55636">
        <ele>356</ele>
        <time>2022-05-23T02:30:51Z</time>
      </trkpt>
      <trkpt lat="47.93422" lon="5.55663">
        <ele>357</ele>
        <time>2022-05-23T02:30:55Z</time>
      </trkpt>
      <trkpt lat="47.93429" lon="5.55673">
        <ele>357</ele>
        <time>2022-05-23T02:30:57Z</time>
      </trkpt>
      <trkpt lat="47.93445" lon="5.55688">
        <ele>358</ele>
        <time>2022-05-23T02:31:00Z</time>
      </trkpt>
      <trkpt lat="47.93524" lon="5.5574">
        <ele>360</ele>
        <time>2022-05-23T02:31:15Z</time>
      </trkpt>
      <trkpt lat="47.93589" lon="5.55793">
        <ele>360</ele>
        <time>2022-05-23T02:31:29Z</time>
      </trkpt>
      <trkpt lat="47.93642" lon="5.55806">
        <ele>361</ele>
        <time>2022-05-23T02:31:38Z</time>
      </trkpt>
      <trkpt lat="47.93688" lon="5.55812">
        <ele>361</ele>
        <time>2022-05-23T02:31:46Z</time>
      </trkpt>
      <trkpt lat="47.93758" lon="5.55825">
        <ele>362</ele>
        <time>2022-05-23T02:31:59Z</time>
      </trkpt>
      <trkpt lat="47.93844" lon="5.55862">
        <ele>362</ele>
        <time>2022-05-23T02:32:15Z</time>
      </trkpt>
      <trkpt lat="47.93952" lon="5.55917">
        <ele>365</ele>
        <time>2022-05-23T02:32:35Z</time>
      </trkpt>
      <trkpt lat="47.93968" lon="5.5593">
        <ele>366</ele>
        <time>2022-05-23T02:32:38Z</time>
      </trkpt>
      <trkpt lat="47.94011" lon="5.55973">
        <ele>368</ele>
        <time>2022-05-23T02:32:48Z</time>
      </trkpt>
      <trkpt lat="47.94021" lon="5.5598">
        <ele>368</ele>
        <time>2022-05-23T02:32:50Z</time>
      </trkpt>
      <trkpt lat="47.94043" lon="5.56006">
        <ele>369</ele>
        <time>2022-05-23T02:32:55Z</time>
      </trkpt>
      <trkpt lat="47.94069" lon="5.5603">
        <ele>369</ele>
        <time>2022-05-23T02:33:00Z</time>
      </trkpt>
      <trkpt lat="47.9412" lon="5.56087">
        <ele>369</ele>
        <time>2022-05-23T02:33:11Z</time>
      </trkpt>
      <trkpt lat="47.94165" lon="5.56131">
        <ele>368</ele>
        <time>2022-05-23T02:33:21Z</time>
      </trkpt>
      <trkpt lat="47.94233" lon="5.56203">
        <ele>368</ele>
        <time>2022-05-23T02:33:36Z</time>
      </trkpt>
      <trkpt lat="47.94481" lon="5.56406">
        <ele>368</ele>
        <time>2022-05-23T02:34:26Z</time>
      </trkpt>
      <trkpt lat="47.94491" lon="5.56412">
        <ele>368</ele>
        <time>2022-05-23T02:34:28Z</time>
      </trkpt>
      <trkpt lat="47.94532" lon="5.56451">
        <ele>367</ele>
        <time>2022-05-23T02:34:37Z</time>
      </trkpt>
      <trkpt lat="47.94552" lon="5.56475">
        <ele>368</ele>
        <time>2022-05-23T02:34:41Z</time>
      </trkpt>
      <trkpt lat="47.94578" lon="5.56517">
        <ele>369</ele>
        <time>2022-05-23T02:34:48Z</time>
      </trkpt>
      <trkpt lat="47.94887" lon="5.57045">
        <ele>377</ele>
        <time>2022-05-23T02:36:12Z</time>
      </trkpt>
      <trkpt lat="47.94958" lon="5.57154">
        <ele>376</ele>
        <time>2022-05-23T02:36:30Z</time>
      </trkpt>
      <trkpt lat="47.9497" lon="5.57177">
        <ele>376</ele>
        <time>2022-05-23T02:36:33Z</time>
      </trkpt>
      <trkpt lat="47.95052" lon="5.57311">
        <ele>378</ele>
        <time>2022-05-23T02:36:55Z</time>
      </trkpt>
      <trkpt lat="47.95101" lon="5.57398">
        <ele>380</ele>
        <time>2022-05-23T02:37:08Z</time>
      </trkpt>
      <trkpt lat="47.95141" lon="5.57478">
        <ele>381</ele>
        <time>2022-05-23T02:37:20Z</time>
      </trkpt>
      <trkpt lat="47.95162" lon="5.57515">
        <ele>381</ele>
        <time>2022-05-23T02:37:26Z</time>
      </trkpt>
      <trkpt lat="47.95202" lon="5.57573">
        <ele>383</ele>
        <time>2022-05-23T02:37:36Z</time>
      </trkpt>
      <trkpt lat="47.95272" lon="5.57661">
        <ele>383</ele>
        <time>2022-05-23T02:37:52Z</time>
      </trkpt>
      <trkpt lat="47.95285" lon="5.57682">
        <ele>384</ele>
        <time>2022-05-23T02:37:56Z</time>
      </trkpt>
      <trkpt lat="47.95307" lon="5.57722">
        <ele>385</ele>
        <time>2022-05-23T02:38:02Z</time>
      </trkpt>
      <trkpt lat="47.95326" lon="5.57766">
        <ele>386</ele>
        <time>2022-05-23T02:38:08Z</time>
      </trkpt>
      <trkpt lat="47.9535" lon="5.57835">
        <ele>386</ele>
        <time>2022-05-23T02:38:17Z</time>
      </trkpt>
      <trkpt lat="47.95368" lon="5.57876">
        <ele>385</ele>
        <time>2022-05-23T02:38:23Z</time>
      </trkpt>
      <trkpt lat="47.95384" lon="5.57903">
        <ele>384</ele>
        <time>2022-05-23T02:38:27Z</time>
      </trkpt>
      <trkpt lat="47.95463" lon="5.57997">
        <ele>382</ele>
        <time>2022-05-23T02:38:45Z</time>
      </trkpt>
      <trkpt lat="47.95619" lon="5.58168">
        <ele>379</ele>
        <time>2022-05-23T02:39:20Z</time>
      </trkpt>
      <trkpt lat="47.95669" lon="5.58227">
        <ele>378</ele>
        <time>2022-05-23T02:39:31Z</time>
      </trkpt>
      <trkpt lat="47.95703" lon="5.5826">
        <ele>379</ele>
        <time>2022-05-23T02:39:38Z</time>
      </trkpt>
      <trkpt lat="47.9577" lon="5.58309">
        <ele>380</ele>
        <time>2022-05-23T02:39:52Z</time>
      </trkpt>
      <trkpt lat="47.958" lon="5.58341">
        <ele>380</ele>
        <time>2022-05-23T02:39:58Z</time>
      </trkpt>
      <trkpt lat="47.95834" lon="5.58386">
        <ele>382</ele>
        <time>2022-05-23T02:40:06Z</time>
      </trkpt>
      <trkpt lat="47.95842" lon="5.5839">
        <ele>382</ele>
        <time>2022-05-23T02:40:08Z</time>
      </trkpt>
      <trkpt lat="47.95845" lon="5.58406">
        <ele>382</ele>
        <time>2022-05-23T02:40:10Z</time>
      </trkpt>
      <trkpt lat="47.95873" lon="5.58478">
        <ele>385</ele>
        <time>2022-05-23T02:40:20Z</time>
      </trkpt>
      <trkpt lat="47.95891" lon="5.58543">
        <ele>385</ele>
        <time>2022-05-23T02:40:28Z</time>
      </trkpt>
      <trkpt lat="47.95897" lon="5.58579">
        <ele>385</ele>
        <time>2022-05-23T02:40:33Z</time>
      </trkpt>
      <trkpt lat="47.95909" lon="5.58677">
        <ele>384</ele>
        <time>2022-05-23T02:40:44Z</time>
      </trkpt>
      <trkpt lat="47.95936" lon="5.58983">
        <ele>383</ele>
        <time>2022-05-23T02:41:21Z</time>
      </trkpt>
      <trkpt lat="47.95942" lon="5.59013">
        <ele>383</ele>
        <time>2022-05-23T02:41:25Z</time>
      </trkpt>
      <trkpt lat="47.95976" lon="5.59263">
        <ele>383</ele>
        <time>2022-05-23T02:41:55Z</time>
      </trkpt>
      <trkpt lat="47.95992" lon="5.5935">
        <ele>383</ele>
        <time>2022-05-23T02:42:06Z</time>
      </trkpt>
      <trkpt lat="47.96008" lon="5.59412">
        <ele>385</ele>
        <time>2022-05-23T02:42:14Z</time>
      </trkpt>
      <trkpt lat="47.96027" lon="5.59459">
        <ele>385</ele>
        <time>2022-05-23T02:42:21Z</time>
      </trkpt>
      <trkpt lat="47.96048" lon="5.59501">
        <ele>384</ele>
        <time>2022-05-23T02:42:27Z</time>
      </trkpt>
      <trkpt lat="47.96235" lon="5.59826">
        <ele>387</ele>
        <time>2022-05-23T02:43:18Z</time>
      </trkpt>
      <trkpt lat="47.96249" lon="5.59856">
        <ele>387</ele>
        <time>2022-05-23T02:43:22Z</time>
      </trkpt>
      <trkpt lat="47.96266" lon="5.59903">
        <ele>387</ele>
        <time>2022-05-23T02:43:29Z</time>
      </trkpt>
      <trkpt lat="47.96292" lon="5.60022">
        <ele>388</ele>
        <time>2022-05-23T02:43:43Z</time>
      </trkpt>
      <trkpt lat="47.96311" lon="5.60078">
        <ele>389</ele>
        <time>2022-05-23T02:43:51Z</time>
      </trkpt>
      <trkpt lat="47.96393" lon="5.60231">
        <ele>391</ele>
        <time>2022-05-23T02:44:14Z</time>
      </trkpt>
      <trkpt lat="47.96447" lon="5.6032">
        <ele>393</ele>
        <time>2022-05-23T02:44:29Z</time>
      </trkpt>
      <trkpt lat="47.96507" lon="5.6038">
        <ele>393</ele>
        <time>2022-05-23T02:44:41Z</time>
      </trkpt>
      <trkpt lat="47.96517" lon="5.60385">
        <ele>392</ele>
        <time>2022-05-23T02:44:43Z</time>
      </trkpt>
      <trkpt lat="47.96582" lon="5.60443">
        <ele>391</ele>
        <time>2022-05-23T02:44:57Z</time>
      </trkpt>
      <trkpt lat="47.966" lon="5.60463">
        <ele>391</ele>
        <time>2022-05-23T02:45:01Z</time>
      </trkpt>
      <trkpt lat="47.96625" lon="5.60497">
        <ele>392</ele>
        <time>2022-05-23T02:45:07Z</time>
      </trkpt>
      <trkpt lat="47.96654" lon="5.60547">
        <ele>392</ele>
        <time>2022-05-23T02:45:15Z</time>
      </trkpt>
      <trkpt lat="47.96676" lon="5.60598">
        <ele>392</ele>
        <time>2022-05-23T02:45:22Z</time>
      </trkpt>
      <trkpt lat="47.96695" lon="5.60652">
        <ele>391</ele>
        <time>2022-05-23T02:45:29Z</time>
      </trkpt>
      <trkpt lat="47.96702" lon="5.60664">
        <ele>391</ele>
        <time>2022-05-23T02:45:31Z</time>
      </trkpt>
      <trkpt lat="47.96705" lon="5.60677">
        <ele>391</ele>
        <time>2022-05-23T02:45:33Z</time>
      </trkpt>
      <trkpt lat="47.96752" lon="5.60795">
        <ele>393</ele>
        <time>2022-05-23T02:45:49Z</time>
      </trkpt>
      <trkpt lat="47.96773" lon="5.60842">
        <ele>393</ele>
        <time>2022-05-23T02:45:56Z</time>
      </trkpt>
      <trkpt lat="47.96801" lon="5.60918">
        <ele>393</ele>
        <time>2022-05-23T02:46:06Z</time>
      </trkpt>
      <trkpt lat="47.96805" lon="5.60935">
        <ele>393</ele>
        <time>2022-05-23T02:46:08Z</time>
      </trkpt>
      <trkpt lat="47.96835" lon="5.6101">
        <ele>393</ele>
        <time>2022-05-23T02:46:19Z</time>
      </trkpt>
      <trkpt lat="47.96872" lon="5.61087">
        <ele>393</ele>
        <time>2022-05-23T02:46:30Z</time>
      </trkpt>
      <trkpt lat="47.96961" lon="5.61249">
        <ele>398</ele>
        <time>2022-05-23T02:46:55Z</time>
      </trkpt>
      <trkpt lat="47.96991" lon="5.61311">
        <ele>401</ele>
        <time>2022-05-23T02:47:04Z</time>
      </trkpt>
      <trkpt lat="47.96998" lon="5.61321">
        <ele>402</ele>
        <time>2022-05-23T02:47:06Z</time>
      </trkpt>
      <trkpt lat="47.97007" lon="5.61348">
        <ele>403</ele>
        <time>2022-05-23T02:47:09Z</time>
      </trkpt>
      <trkpt lat="47.97032" lon="5.61465">
        <ele>404</ele>
        <time>2022-05-23T02:47:24Z</time>
      </trkpt>
      <trkpt lat="47.9705" lon="5.61526">
        <ele>404</ele>
        <time>2022-05-23T02:47:32Z</time>
      </trkpt>
      <trkpt lat="47.97053" lon="5.61555">
        <ele>404</ele>
        <time>2022-05-23T02:47:35Z</time>
      </trkpt>
      <trkpt lat="47.9706" lon="5.61589">
        <ele>404</ele>
        <time>2022-05-23T02:47:40Z</time>
      </trkpt>
      <trkpt lat="47.97077" lon="5.61641">
        <ele>406</ele>
        <time>2022-05-23T02:47:47Z</time>
      </trkpt>
      <trkpt lat="47.97104" lon="5.61707">
        <ele>406</ele>
        <time>2022-05-23T02:47:56Z</time>
      </trkpt>
      <trkpt lat="47.97096" lon="5.61678">
        <ele>407</ele>
        <time>2022-05-23T02:48:00Z</time>
      </trkpt>
      <trkpt lat="47.97088" lon="5.61664">
        <ele>406</ele>
        <time>2022-05-23T02:48:02Z</time>
      </trkpt>
      <trkpt lat="47.97064" lon="5.61599">
        <ele>405</ele>
        <time>2022-05-23T02:48:11Z</time>
      </trkpt>
      <trkpt lat="47.97057" lon="5.61572">
        <ele>404</ele>
        <time>2022-05-23T02:48:14Z</time>
      </trkpt>
      <trkpt lat="47.9705" lon="5.61529">
        <ele>404</ele>
        <time>2022-05-23T02:48:19Z</time>
      </trkpt>
      <trkpt lat="47.97038" lon="5.61484">
        <ele>404</ele>
        <time>2022-05-23T02:48:25Z</time>
      </trkpt>
      <trkpt lat="47.96996" lon="5.61273">
        <ele>401</ele>
        <time>2022-05-23T02:48:51Z</time>
      </trkpt>
      <trkpt lat="47.9699" lon="5.61261">
        <ele>400</ele>
        <time>2022-05-23T02:48:53Z</time>
      </trkpt>
      <trkpt lat="47.9697" lon="5.61245">
        <ele>399</ele>
        <time>2022-05-23T02:48:57Z</time>
      </trkpt>
      <trkpt lat="47.96953" lon="5.6122">
        <ele>397</ele>
        <time>2022-05-23T02:49:01Z</time>
      </trkpt>
      <trkpt lat="47.96868" lon="5.61067">
        <ele>393</ele>
        <time>2022-05-23T02:49:25Z</time>
      </trkpt>
      <trkpt lat="47.96824" lon="5.60972">
        <ele>393</ele>
        <time>2022-05-23T02:49:39Z</time>
      </trkpt>
      <trkpt lat="47.96758" lon="5.60806">
        <ele>393</ele>
        <time>2022-05-23T02:50:02Z</time>
      </trkpt>
      <trkpt lat="47.96767" lon="5.60843">
        <ele>393</ele>
        <time>2022-05-23T02:50:06Z</time>
      </trkpt>
      <trkpt lat="47.96813" lon="5.6096">
        <ele>393</ele>
        <time>2022-05-23T02:50:23Z</time>
      </trkpt>
      <trkpt lat="47.96841" lon="5.61024">
        <ele>393</ele>
        <time>2022-05-23T02:50:32Z</time>
      </trkpt>
      <trkpt lat="47.96905" lon="5.61148">
        <ele>395</ele>
        <time>2022-05-23T02:50:50Z</time>
      </trkpt>
      <trkpt lat="47.96933" lon="5.61196">
        <ele>396</ele>
        <time>2022-05-23T02:50:58Z</time>
      </trkpt>
      <trkpt lat="47.96981" lon="5.61287">
        <ele>400</ele>
        <time>2022-05-23T02:51:12Z</time>
      </trkpt>
      <trkpt lat="47.96985" lon="5.61299">
        <ele>400</ele>
        <time>2022-05-23T02:51:13Z</time>
      </trkpt>
      <trkpt lat="47.96999" lon="5.6132">
        <ele>402</ele>
        <time>2022-05-23T02:51:17Z</time>
      </trkpt>
      <trkpt lat="47.97011" lon="5.61358">
        <ele>403</ele>
        <time>2022-05-23T02:51:22Z</time>
      </trkpt>
      <trkpt lat="47.9703" lon="5.6144">
        <ele>405</ele>
        <time>2022-05-23T02:51:32Z</time>
      </trkpt>
      <trkpt lat="47.97044" lon="5.61518">
        <ele>403</ele>
        <time>2022-05-23T02:51:42Z</time>
      </trkpt>
      <trkpt lat="47.97061" lon="5.61591">
        <ele>404</ele>
        <time>2022-05-23T02:51:51Z</time>
      </trkpt>
      <trkpt lat="47.97108" lon="5.61715">
        <ele>406</ele>
        <time>2022-05-23T02:52:08Z</time>
      </trkpt>
      <trkpt lat="47.97128" lon="5.61708">
        <ele>407</ele>
        <time>2022-05-23T02:52:12Z</time>
      </trkpt>
      <trkpt lat="47.97129" lon="5.61695">
        <ele>408</ele>
        <time>2022-05-23T02:52:13Z</time>
      </trkpt>
      <trkpt lat="47.97125" lon="5.61682">
        <ele>409</ele>
        <time>2022-05-23T02:52:15Z</time>
      </trkpt>
      <trkpt lat="47.97133" lon="5.61675">
        <ele>410</ele>
        <time>2022-05-23T02:52:17Z</time>
      </trkpt>
      <trkpt lat="47.97121" lon="5.61644">
        <ele>410</ele>
        <time>2022-05-23T02:52:21Z</time>
      </trkpt>
      <trkpt lat="47.9714" lon="5.61643">
        <ele>411</ele>
        <time>2022-05-23T02:52:24Z</time>
      </trkpt>
      <trkpt lat="47.9715" lon="5.61614">
        <ele>413</ele>
        <time>2022-05-23T02:52:28Z</time>
      </trkpt>
      <trkpt lat="47.97137" lon="5.61604">
        <ele>412</ele>
        <time>2022-05-23T02:52:31Z</time>
      </trkpt>
      <trkpt lat="47.97143" lon="5.61644">
        <ele>411</ele>
        <time>2022-05-23T02:52:36Z</time>
      </trkpt>
      <trkpt lat="47.97125" lon="5.61648">
        <ele>410</ele>
        <time>2022-05-23T02:52:39Z</time>
      </trkpt>
      <trkpt lat="47.97139" lon="5.61682">
        <ele>410</ele>
        <time>2022-05-23T02:52:44Z</time>
      </trkpt>
      <trkpt lat="47.97145" lon="5.61671">
        <ele>411</ele>
        <time>2022-05-23T02:52:45Z</time>
      </trkpt>
      <trkpt lat="47.97119" lon="5.61697">
        <ele>407</ele>
        <time>2022-05-23T02:52:51Z</time>
      </trkpt>
      <trkpt lat="47.97128" lon="5.61694">
        <ele>408</ele>
        <time>2022-05-23T02:52:53Z</time>
      </trkpt>
      <trkpt lat="47.97118" lon="5.61692">
        <ele>408</ele>
        <time>2022-05-23T02:52:54Z</time>
      </trkpt>
      <trkpt lat="47.97109" lon="5.61708">
        <ele>406</ele>
        <time>2022-05-23T02:52:57Z</time>
      </trkpt>
      <trkpt lat="47.97118" lon="5.61711">
        <ele>407</ele>
        <time>2022-05-23T02:52:58Z</time>
      </trkpt>
      <trkpt lat="47.97133" lon="5.61693">
        <ele>409</ele>
        <time>2022-05-23T02:53:02Z</time>
      </trkpt>
      <trkpt lat="47.97119" lon="5.61675">
        <ele>409</ele>
        <time>2022-05-23T02:53:05Z</time>
      </trkpt>
      <trkpt lat="47.97115" lon="5.61662">
        <ele>409</ele>
        <time>2022-05-23T02:53:07Z</time>
      </trkpt>
      <trkpt lat="47.97122" lon="5.61673">
        <ele>409</ele>
        <time>2022-05-23T02:53:09Z</time>
      </trkpt>
      <trkpt lat="47.97134" lon="5.61671">
        <ele>410</ele>
        <time>2022-05-23T02:53:11Z</time>
      </trkpt>
      <trkpt lat="47.97124" lon="5.61666">
        <ele>409</ele>
        <time>2022-05-23T02:53:13Z</time>
      </trkpt>
      <trkpt lat="47.97115" lon="5.61673">
        <ele>408</ele>
        <time>2022-05-23T02:53:15Z</time>
      </trkpt>
      <trkpt lat="47.97124" lon="5.61677">
        <ele>409</ele>
        <time>2022-05-23T02:53:16Z</time>
      </trkpt>
      <trkpt lat="47.97124" lon="5.61693">
        <ele>408</ele>
        <time>2022-05-23T02:53:18Z</time>
      </trkpt>
      <trkpt lat="47.9712" lon="5.61706">
        <ele>407</ele>
        <time>2022-05-23T02:53:20Z</time>
      </trkpt>
      <trkpt lat="47.97111" lon="5.61711">
        <ele>406</ele>
        <time>2022-05-23T02:53:21Z</time>
      </trkpt>
      <trkpt lat="47.97116" lon="5.61727">
        <ele>406</ele>
        <time>2022-05-23T02:53:24Z</time>
      </trkpt>
      <trkpt lat="47.97151" lon="5.61806">
        <ele>404</ele>
        <time>2022-05-23T02:53:35Z</time>
      </trkpt>
      <trkpt lat="47.97178" lon="5.61878">
        <ele>403</ele>
        <time>2022-05-23T02:53:45Z</time>
      </trkpt>
      <trkpt lat="47.97225" lon="5.61988">
        <ele>402</ele>
        <time>2022-05-23T02:54:00Z</time>
      </trkpt>
      <trkpt lat="47.97229" lon="5.62003">
        <ele>402</ele>
        <time>2022-05-23T02:54:02Z</time>
      </trkpt>
      <trkpt lat="47.97241" lon="5.62028">
        <ele>402</ele>
        <time>2022-05-23T02:54:06Z</time>
      </trkpt>
      <trkpt lat="47.9725" lon="5.62055">
        <ele>402</ele>
        <time>2022-05-23T02:54:09Z</time>
      </trkpt>
      <trkpt lat="47.97342" lon="5.6228">
        <ele>407</ele>
        <time>2022-05-23T02:54:41Z</time>
      </trkpt>
      <trkpt lat="47.97366" lon="5.62327">
        <ele>408</ele>
        <time>2022-05-23T02:54:48Z</time>
      </trkpt>
      <trkpt lat="47.97416" lon="5.62405">
        <ele>411</ele>
        <time>2022-05-23T02:55:01Z</time>
      </trkpt>
      <trkpt lat="47.97479" lon="5.62488">
        <ele>413</ele>
        <time>2022-05-23T02:55:16Z</time>
      </trkpt>
      <trkpt lat="47.97488" lon="5.62493">
        <ele>414</ele>
        <time>2022-05-23T02:55:17Z</time>
      </trkpt>
      <trkpt lat="47.97498" lon="5.62514">
        <ele>414</ele>
        <time>2022-05-23T02:55:20Z</time>
      </trkpt>
      <trkpt lat="47.97514" lon="5.62533">
        <ele>413</ele>
        <time>2022-05-23T02:55:24Z</time>
      </trkpt>
      <trkpt lat="47.97603" lon="5.62659">
        <ele>407</ele>
        <time>2022-05-23T02:55:46Z</time>
      </trkpt>
      <trkpt lat="47.97645" lon="5.62711">
        <ele>403</ele>
        <time>2022-05-23T02:55:56Z</time>
      </trkpt>
      <trkpt lat="47.97726" lon="5.62829">
        <ele>399</ele>
        <time>2022-05-23T02:56:16Z</time>
      </trkpt>
      <trkpt lat="47.97808" lon="5.62937">
        <ele>401</ele>
        <time>2022-05-23T02:56:35Z</time>
      </trkpt>
      <trkpt lat="47.97821" lon="5.62961">
        <ele>401</ele>
        <time>2022-05-23T02:56:39Z</time>
      </trkpt>
      <trkpt lat="47.9786" lon="5.6297">
        <ele>400</ele>
        <time>2022-05-23T02:56:46Z</time>
      </trkpt>
      <trkpt lat="47.97879" lon="5.62963">
        <ele>401</ele>
        <time>2022-05-23T02:56:49Z</time>
      </trkpt>
      <trkpt lat="47.97922" lon="5.62958">
        <ele>400</ele>
        <time>2022-05-23T02:56:57Z</time>
      </trkpt>
      <trkpt lat="47.97942" lon="5.62964">
        <ele>400</ele>
        <time>2022-05-23T02:57:01Z</time>
      </trkpt>
      <trkpt lat="47.97972" lon="5.62962">
        <ele>400</ele>
        <time>2022-05-23T02:57:06Z</time>
      </trkpt>
      <trkpt lat="47.97992" lon="5.62957">
        <ele>399</ele>
        <time>2022-05-23T02:57:10Z</time>
      </trkpt>
      <trkpt lat="47.98013" lon="5.6296">
        <ele>399</ele>
        <time>2022-05-23T02:57:13Z</time>
      </trkpt>
      <trkpt lat="47.98024" lon="5.62957">
        <ele>399</ele>
        <time>2022-05-23T02:57:15Z</time>
      </trkpt>
      <trkpt lat="47.98035" lon="5.62958">
        <ele>399</ele>
        <time>2022-05-23T02:57:17Z</time>
      </trkpt>
      <trkpt lat="47.98081" lon="5.62953">
        <ele>398</ele>
        <time>2022-05-23T02:57:26Z</time>
      </trkpt>
      <trkpt lat="47.98112" lon="5.62938">
        <ele>397</ele>
        <time>2022-05-23T02:57:31Z</time>
      </trkpt>
      <trkpt lat="47.98122" lon="5.62941">
        <ele>397</ele>
        <time>2022-05-23T02:57:33Z</time>
      </trkpt>
      <trkpt lat="47.98136" lon="5.62958">
        <ele>398</ele>
        <time>2022-05-23T02:57:36Z</time>
      </trkpt>
      <trkpt lat="47.98157" lon="5.63011">
        <ele>398</ele>
        <time>2022-05-23T02:57:44Z</time>
      </trkpt>
      <trkpt lat="47.98165" lon="5.63042">
        <ele>399</ele>
        <time>2022-05-23T02:57:48Z</time>
      </trkpt>
      <trkpt lat="47.98166" lon="5.63059">
        <ele>399</ele>
        <time>2022-05-23T02:57:50Z</time>
      </trkpt>
      <trkpt lat="47.98163" lon="5.63091">
        <ele>399</ele>
        <time>2022-05-23T02:57:54Z</time>
      </trkpt>
      <trkpt lat="47.98151" lon="5.63155">
        <ele>400</ele>
        <time>2022-05-23T02:58:01Z</time>
      </trkpt>
      <trkpt lat="47.98151" lon="5.63223">
        <ele>400</ele>
        <time>2022-05-23T02:58:10Z</time>
      </trkpt>
      <trkpt lat="47.9816" lon="5.63315">
        <ele>402</ele>
        <time>2022-05-23T02:58:21Z</time>
      </trkpt>
      <trkpt lat="47.98179" lon="5.63624">
        <ele>404</ele>
        <time>2022-05-23T02:58:58Z</time>
      </trkpt>
      <trkpt lat="47.98169" lon="5.63704">
        <ele>405</ele>
        <time>2022-05-23T02:59:07Z</time>
      </trkpt>
      <trkpt lat="47.98172" lon="5.63754">
        <ele>405</ele>
        <time>2022-05-23T02:59:13Z</time>
      </trkpt>
      <trkpt lat="47.98198" lon="5.63914">
        <ele>408</ele>
        <time>2022-05-23T02:59:33Z</time>
      </trkpt>
      <trkpt lat="47.98233" lon="5.64102">
        <ele>407</ele>
        <time>2022-05-23T02:59:56Z</time>
      </trkpt>
      <trkpt lat="47.98318" lon="5.64419">
        <ele>404</ele>
        <time>2022-05-23T03:00:37Z</time>
      </trkpt>
      <trkpt lat="47.98326" lon="5.64444">
        <ele>404</ele>
        <time>2022-05-23T03:00:40Z</time>
      </trkpt>
      <trkpt lat="47.98337" lon="5.64468">
        <ele>404</ele>
        <time>2022-05-23T03:00:44Z</time>
      </trkpt>
      <trkpt lat="47.98363" lon="5.6451">
        <ele>403</ele>
        <time>2022-05-23T03:00:50Z</time>
      </trkpt>
      <trkpt lat="47.98401" lon="5.64561">
        <ele>402</ele>
        <time>2022-05-23T03:00:59Z</time>
      </trkpt>
      <trkpt lat="47.98415" lon="5.64585">
        <ele>402</ele>
        <time>2022-05-23T03:01:03Z</time>
      </trkpt>
      <trkpt lat="47.98426" lon="5.64613">
        <ele>402</ele>
        <time>2022-05-23T03:01:07Z</time>
      </trkpt>
      <trkpt lat="47.98434" lon="5.64644">
        <ele>402</ele>
        <time>2022-05-23T03:01:11Z</time>
      </trkpt>
      <trkpt lat="47.98439" lon="5.64679">
        <ele>402</ele>
        <time>2022-05-23T03:01:15Z</time>
      </trkpt>
      <trkpt lat="47.98439" lon="5.64716">
        <ele>402</ele>
        <time>2022-05-23T03:01:20Z</time>
      </trkpt>
      <trkpt lat="47.98432" lon="5.64775">
        <ele>402</ele>
        <time>2022-05-23T03:01:27Z</time>
      </trkpt>
      <trkpt lat="47.98428" lon="5.64837">
        <ele>401</ele>
        <time>2022-05-23T03:01:34Z</time>
      </trkpt>
      <trkpt lat="47.98437" lon="5.6493">
        <ele>398</ele>
        <time>2022-05-23T03:01:45Z</time>
      </trkpt>
      <trkpt lat="47.9845" lon="5.64977">
        <ele>398</ele>
        <time>2022-05-23T03:01:52Z</time>
      </trkpt>
      <trkpt lat="47.98472" lon="5.65035">
        <ele>395</ele>
        <time>2022-05-23T03:01:59Z</time>
      </trkpt>
      <trkpt lat="47.98534" lon="5.65165">
        <ele>386</ele>
        <time>2022-05-23T03:02:18Z</time>
      </trkpt>
      <trkpt lat="47.98561" lon="5.65209">
        <ele>384</ele>
        <time>2022-05-23T03:02:26Z</time>
      </trkpt>
      <trkpt lat="47.98616" lon="5.65318">
        <ele>382</ele>
        <time>2022-05-23T03:02:42Z</time>
      </trkpt>
      <trkpt lat="47.98631" lon="5.65391">
        <ele>375</ele>
        <time>2022-05-23T03:02:51Z</time>
      </trkpt>
      <trkpt lat="47.98649" lon="5.65448">
        <ele>370</ele>
        <time>2022-05-23T03:02:58Z</time>
      </trkpt>
      <trkpt lat="47.98679" lon="5.65512">
        <ele>367</ele>
        <time>2022-05-23T03:03:08Z</time>
      </trkpt>
      <trkpt lat="47.98729" lon="5.65632">
        <ele>362</ele>
        <time>2022-05-23T03:03:25Z</time>
      </trkpt>
      <trkpt lat="47.98735" lon="5.65696">
        <ele>353</ele>
        <time>2022-05-23T03:03:32Z</time>
      </trkpt>
      <trkpt lat="47.98743" lon="5.65724">
        <ele>349</ele>
        <time>2022-05-23T03:03:36Z</time>
      </trkpt>
      <trkpt lat="47.98772" lon="5.65744">
        <ele>348</ele>
        <time>2022-05-23T03:03:42Z</time>
      </trkpt>
      <trkpt lat="47.98789" lon="5.65749">
        <ele>348</ele>
        <time>2022-05-23T03:03:45Z</time>
      </trkpt>
      <trkpt lat="47.98834" lon="5.65748">
        <ele>349</ele>
        <time>2022-05-23T03:03:53Z</time>
      </trkpt>
      <trkpt lat="47.98846" lon="5.6575">
        <ele>348</ele>
        <time>2022-05-23T03:03:55Z</time>
      </trkpt>
      <trkpt lat="47.98857" lon="5.65762">
        <ele>345</ele>
        <time>2022-05-23T03:03:57Z</time>
      </trkpt>
      <trkpt lat="47.98859" lon="5.65776">
        <ele>343</ele>
        <time>2022-05-23T03:03:59Z</time>
      </trkpt>
      <trkpt lat="47.98855" lon="5.65792">
        <ele>341</ele>
        <time>2022-05-23T03:04:01Z</time>
      </trkpt>
      <trkpt lat="47.98848" lon="5.65804">
        <ele>339</ele>
        <time>2022-05-23T03:04:03Z</time>
      </trkpt>
      <trkpt lat="47.98824" lon="5.6582">
        <ele>337</ele>
        <time>2022-05-23T03:04:08Z</time>
      </trkpt>
      <trkpt lat="47.98682" lon="5.65896">
        <ele>328</ele>
        <time>2022-05-23T03:04:34Z</time>
      </trkpt>
      <trkpt lat="47.9867" lon="5.65908">
        <ele>327</ele>
        <time>2022-05-23T03:04:37Z</time>
      </trkpt>
      <trkpt lat="47.98663" lon="5.65924">
        <ele>326</ele>
        <time>2022-05-23T03:04:39Z</time>
      </trkpt>
      <trkpt lat="47.9866" lon="5.6594">
        <ele>325</ele>
        <time>2022-05-23T03:04:41Z</time>
      </trkpt>
      <trkpt lat="47.9866" lon="5.65977">
        <ele>322</ele>
        <time>2022-05-23T03:04:46Z</time>
      </trkpt>
      <trkpt lat="47.98668" lon="5.6605">
        <ele>319</ele>
        <time>2022-05-23T03:04:54Z</time>
      </trkpt>
      <trkpt lat="47.98667" lon="5.66065">
        <ele>318</ele>
        <time>2022-05-23T03:04:56Z</time>
      </trkpt>
      <trkpt lat="47.98647" lon="5.66148">
        <ele>315</ele>
        <time>2022-05-23T03:05:07Z</time>
      </trkpt>
      <trkpt lat="47.98639" lon="5.66227">
        <ele>313</ele>
        <time>2022-05-23T03:05:16Z</time>
      </trkpt>
      <trkpt lat="47.98631" lon="5.66365">
        <ele>315</ele>
        <time>2022-05-23T03:05:33Z</time>
      </trkpt>
      <trkpt lat="47.98626" lon="5.66378">
        <ele>315</ele>
        <time>2022-05-23T03:05:35Z</time>
      </trkpt>
      <trkpt lat="47.98608" lon="5.66397">
        <ele>314</ele>
        <time>2022-05-23T03:05:38Z</time>
      </trkpt>
      <trkpt lat="47.9859" lon="5.66408">
        <ele>313</ele>
        <time>2022-05-23T03:05:42Z</time>
      </trkpt>
      <trkpt lat="47.98564" lon="5.66438">
        <ele>312</ele>
        <time>2022-05-23T03:05:48Z</time>
      </trkpt>
      <trkpt lat="47.98555" lon="5.66454">
        <ele>311</ele>
        <time>2022-05-23T03:05:50Z</time>
      </trkpt>
      <trkpt lat="47.98531" lon="5.66519">
        <ele>310</ele>
        <time>2022-05-23T03:05:59Z</time>
      </trkpt>
      <trkpt lat="47.98499" lon="5.66624">
        <ele>306</ele>
        <time>2022-05-23T03:06:13Z</time>
      </trkpt>
      <trkpt lat="47.98492" lon="5.66702">
        <ele>307</ele>
        <time>2022-05-23T03:06:22Z</time>
      </trkpt>
      <trkpt lat="47.9849" lon="5.66876">
        <ele>304</ele>
        <time>2022-05-23T03:06:43Z</time>
      </trkpt>
      <trkpt lat="47.98487" lon="5.66937">
        <ele>305</ele>
        <time>2022-05-23T03:06:50Z</time>
      </trkpt>
      <trkpt lat="47.98489" lon="5.67015">
        <ele>307</ele>
        <time>2022-05-23T03:07:00Z</time>
      </trkpt>
      <trkpt lat="47.98485" lon="5.67048">
        <ele>308</ele>
        <time>2022-05-23T03:07:04Z</time>
      </trkpt>
      <trkpt lat="47.98466" lon="5.6713">
        <ele>308</ele>
        <time>2022-05-23T03:07:14Z</time>
      </trkpt>
      <trkpt lat="47.98449" lon="5.67175">
        <ele>307</ele>
        <time>2022-05-23T03:07:20Z</time>
      </trkpt>
      <trkpt lat="47.98393" lon="5.673">
        <ele>306</ele>
        <time>2022-05-23T03:07:38Z</time>
      </trkpt>
      <trkpt lat="47.98372" lon="5.67368">
        <ele>304</ele>
        <time>2022-05-23T03:07:47Z</time>
      </trkpt>
      <trkpt lat="47.98361" lon="5.67419">
        <ele>302</ele>
        <time>2022-05-23T03:07:53Z</time>
      </trkpt>
      <trkpt lat="47.98351" lon="5.67515">
        <ele>300</ele>
        <time>2022-05-23T03:08:05Z</time>
      </trkpt>
      <trkpt lat="47.9833" lon="5.67665">
        <ele>299</ele>
        <time>2022-05-23T03:08:23Z</time>
      </trkpt>
      <trkpt lat="47.98327" lon="5.67722">
        <ele>300</ele>
        <time>2022-05-23T03:08:30Z</time>
      </trkpt>
      <trkpt lat="47.98344" lon="5.67871">
        <ele>301</ele>
        <time>2022-05-23T03:08:48Z</time>
      </trkpt>
      <trkpt lat="47.98373" lon="5.68038">
        <ele>300</ele>
        <time>2022-05-23T03:09:08Z</time>
      </trkpt>
      <trkpt lat="47.98379" lon="5.68108">
        <ele>299</ele>
        <time>2022-05-23T03:09:17Z</time>
      </trkpt>
      <trkpt lat="47.9839" lon="5.68191">
        <ele>301</ele>
        <time>2022-05-23T03:09:27Z</time>
      </trkpt>
      <trkpt lat="47.9839" lon="5.68207">
        <ele>301</ele>
        <time>2022-05-23T03:09:29Z</time>
      </trkpt>
      <trkpt lat="47.98401" lon="5.68275">
        <ele>303</ele>
        <time>2022-05-23T03:09:37Z</time>
      </trkpt>
      <trkpt lat="47.98401" lon="5.68292">
        <ele>302</ele>
        <time>2022-05-23T03:09:39Z</time>
      </trkpt>
      <trkpt lat="47.98409" lon="5.68345">
        <ele>303</ele>
        <time>2022-05-23T03:09:46Z</time>
      </trkpt>
      <trkpt lat="47.98425" lon="5.68395">
        <ele>303</ele>
        <time>2022-05-23T03:09:52Z</time>
      </trkpt>
      <trkpt lat="47.98439" lon="5.68416">
        <ele>303</ele>
        <time>2022-05-23T03:09:56Z</time>
      </trkpt>
      <trkpt lat="47.98457" lon="5.68435">
        <ele>304</ele>
        <time>2022-05-23T03:10:00Z</time>
      </trkpt>
      <trkpt lat="47.98486" lon="5.68455">
        <ele>305</ele>
        <time>2022-05-23T03:10:05Z</time>
      </trkpt>
      <trkpt lat="47.98497" lon="5.68455">
        <ele>306</ele>
        <time>2022-05-23T03:10:07Z</time>
      </trkpt>
      <trkpt lat="47.98547" lon="5.68464">
        <ele>310</ele>
        <time>2022-05-23T03:10:16Z</time>
      </trkpt>
      <trkpt lat="47.98565" lon="5.68477">
        <ele>310</ele>
        <time>2022-05-23T03:10:20Z</time>
      </trkpt>
      <trkpt lat="47.98575" lon="5.68482">
        <ele>310</ele>
        <time>2022-05-23T03:10:22Z</time>
      </trkpt>
      <trkpt lat="47.98584" lon="5.68483">
        <ele>311</ele>
        <time>2022-05-23T03:10:23Z</time>
      </trkpt>
      <trkpt lat="47.98612" lon="5.6851">
        <ele>311</ele>
        <time>2022-05-23T03:10:29Z</time>
      </trkpt>
      <trkpt lat="47.98635" lon="5.68566">
        <ele>308</ele>
        <time>2022-05-23T03:10:37Z</time>
      </trkpt>
      <trkpt lat="47.98663" lon="5.6866">
        <ele>308</ele>
        <time>2022-05-23T03:10:49Z</time>
      </trkpt>
      <trkpt lat="47.98679" lon="5.68686">
        <ele>309</ele>
        <time>2022-05-23T03:10:54Z</time>
      </trkpt>
      <trkpt lat="47.98692" lon="5.68769">
        <ele>308</ele>
        <time>2022-05-23T03:11:04Z</time>
      </trkpt>
      <trkpt lat="47.98694" lon="5.68803">
        <ele>306</ele>
        <time>2022-05-23T03:11:08Z</time>
      </trkpt>
      <trkpt lat="47.98693" lon="5.68819">
        <ele>305</ele>
        <time>2022-05-23T03:11:10Z</time>
      </trkpt>
      <trkpt lat="47.98684" lon="5.68851">
        <ele>303</ele>
        <time>2022-05-23T03:11:14Z</time>
      </trkpt>
      <trkpt lat="47.98671" lon="5.68875">
        <ele>301</ele>
        <time>2022-05-23T03:11:17Z</time>
      </trkpt>
      <trkpt lat="47.9866" lon="5.68887">
        <ele>300</ele>
        <time>2022-05-23T03:11:20Z</time>
      </trkpt>
      <trkpt lat="47.98622" lon="5.6891">
        <ele>299</ele>
        <time>2022-05-23T03:11:27Z</time>
      </trkpt>
      <trkpt lat="47.98602" lon="5.68926">
        <ele>300</ele>
        <time>2022-05-23T03:11:31Z</time>
      </trkpt>
      <trkpt lat="47.98584" lon="5.68947">
        <ele>300</ele>
        <time>2022-05-23T03:11:35Z</time>
      </trkpt>
      <trkpt lat="47.98571" lon="5.68977">
        <ele>301</ele>
        <time>2022-05-23T03:11:40Z</time>
      </trkpt>
      <trkpt lat="47.98563" lon="5.6902">
        <ele>302</ele>
        <time>2022-05-23T03:11:45Z</time>
      </trkpt>
      <trkpt lat="47.98562" lon="5.69038">
        <ele>303</ele>
        <time>2022-05-23T03:11:47Z</time>
      </trkpt>
      <trkpt lat="47.98569" lon="5.69256">
        <ele>303</ele>
        <time>2022-05-23T03:12:13Z</time>
      </trkpt>
      <trkpt lat="47.98566" lon="5.69291">
        <ele>302</ele>
        <time>2022-05-23T03:12:17Z</time>
      </trkpt>
      <trkpt lat="47.98559" lon="5.69326">
        <ele>300</ele>
        <time>2022-05-23T03:12:22Z</time>
      </trkpt>
      <trkpt lat="47.98488" lon="5.69518">
        <ele>294</ele>
        <time>2022-05-23T03:12:48Z</time>
      </trkpt>
      <trkpt lat="47.98424" lon="5.69681">
        <ele>290</ele>
        <time>2022-05-23T03:13:10Z</time>
      </trkpt>
      <trkpt lat="47.98377" lon="5.69811">
        <ele>285</ele>
        <time>2022-05-23T03:13:28Z</time>
      </trkpt>
      <trkpt lat="47.9833" lon="5.69969">
        <ele>277</ele>
        <time>2022-05-23T03:13:48Z</time>
      </trkpt>
      <trkpt lat="47.98315" lon="5.70033">
        <ele>277</ele>
        <time>2022-05-23T03:13:56Z</time>
      </trkpt>
      <trkpt lat="47.98282" lon="5.70133">
        <ele>277</ele>
        <time>2022-05-23T03:14:10Z</time>
      </trkpt>
      <trkpt lat="47.98277" lon="5.70164">
        <ele>277</ele>
        <time>2022-05-23T03:14:14Z</time>
      </trkpt>
      <trkpt lat="47.98267" lon="5.70194">
        <ele>277</ele>
        <time>2022-05-23T03:14:18Z</time>
      </trkpt>
      <trkpt lat="47.98246" lon="5.7028">
        <ele>277</ele>
        <time>2022-05-23T03:14:28Z</time>
      </trkpt>
      <trkpt lat="47.98238" lon="5.70299">
        <ele>277</ele>
        <time>2022-05-23T03:14:31Z</time>
      </trkpt>
      <trkpt lat="47.9823" lon="5.70329">
        <ele>278</ele>
        <time>2022-05-23T03:14:35Z</time>
      </trkpt>
      <trkpt lat="47.98223" lon="5.70344">
        <ele>278</ele>
        <time>2022-05-23T03:14:37Z</time>
      </trkpt>
      <trkpt lat="47.98234" lon="5.70334">
        <ele>278</ele>
        <time>2022-05-23T03:14:39Z</time>
      </trkpt>
      <trkpt lat="47.98213" lon="5.70356">
        <ele>279</ele>
        <time>2022-05-23T03:14:44Z</time>
      </trkpt>
      <trkpt lat="47.98212" lon="5.70388">
        <ele>281</ele>
        <time>2022-05-23T03:14:48Z</time>
      </trkpt>
      <trkpt lat="47.98217" lon="5.70416">
        <ele>282</ele>
        <time>2022-05-23T03:14:51Z</time>
      </trkpt>
      <trkpt lat="47.98244" lon="5.70475">
        <ele>283</ele>
        <time>2022-05-23T03:15:00Z</time>
      </trkpt>
      <trkpt lat="47.98272" lon="5.70553">
        <ele>287</ele>
        <time>2022-05-23T03:15:10Z</time>
      </trkpt>
      <trkpt lat="47.9828" lon="5.70594">
        <ele>288</ele>
        <time>2022-05-23T03:15:15Z</time>
      </trkpt>
      <trkpt lat="47.98288" lon="5.70679">
        <ele>290</ele>
        <time>2022-05-23T03:15:26Z</time>
      </trkpt>
      <trkpt lat="47.98296" lon="5.70722">
        <ele>291</ele>
        <time>2022-05-23T03:15:31Z</time>
      </trkpt>
      <trkpt lat="47.9831" lon="5.70778">
        <ele>292</ele>
        <time>2022-05-23T03:15:38Z</time>
      </trkpt>
      <trkpt lat="47.98333" lon="5.70855">
        <ele>295</ele>
        <time>2022-05-23T03:15:48Z</time>
      </trkpt>
      <trkpt lat="47.98357" lon="5.70963">
        <ele>301</ele>
        <time>2022-05-23T03:16:02Z</time>
      </trkpt>
      <trkpt lat="47.98372" lon="5.71049">
        <ele>305</ele>
        <time>2022-05-23T03:16:12Z</time>
      </trkpt>
      <trkpt lat="47.98376" lon="5.71109">
        <ele>308</ele>
        <time>2022-05-23T03:16:19Z</time>
      </trkpt>
      <trkpt lat="47.98373" lon="5.71139">
        <ele>310</ele>
        <time>2022-05-23T03:16:23Z</time>
      </trkpt>
      <trkpt lat="47.98351" lon="5.71192">
        <ele>311</ele>
        <time>2022-05-23T03:16:30Z</time>
      </trkpt>
      <trkpt lat="47.98338" lon="5.71215">
        <ele>311</ele>
        <time>2022-05-23T03:16:34Z</time>
      </trkpt>
      <trkpt lat="47.98318" lon="5.71269">
        <ele>313</ele>
        <time>2022-05-23T03:16:41Z</time>
      </trkpt>
      <trkpt lat="47.98308" lon="5.71329">
        <ele>315</ele>
        <time>2022-05-23T03:16:49Z</time>
      </trkpt>
      <trkpt lat="47.98306" lon="5.71455">
        <ele>315</ele>
        <time>2022-05-23T03:17:04Z</time>
      </trkpt>
      <trkpt lat="47.98313" lon="5.7158">
        <ele>316</ele>
        <time>2022-05-23T03:17:19Z</time>
      </trkpt>
      <trkpt lat="47.98331" lon="5.71707">
        <ele>318</ele>
        <time>2022-05-23T03:17:34Z</time>
      </trkpt>
      <trkpt lat="47.98365" lon="5.71851">
        <ele>322</ele>
        <time>2022-05-23T03:17:52Z</time>
      </trkpt>
      <trkpt lat="47.98384" lon="5.7198">
        <ele>320</ele>
        <time>2022-05-23T03:18:08Z</time>
      </trkpt>
      <trkpt lat="47.98406" lon="5.72066">
        <ele>316</ele>
        <time>2022-05-23T03:18:19Z</time>
      </trkpt>
      <trkpt lat="47.98425" lon="5.72123">
        <ele>315</ele>
        <time>2022-05-23T03:18:27Z</time>
      </trkpt>
      <trkpt lat="47.98453" lon="5.72233">
        <ele>315</ele>
        <time>2022-05-23T03:18:41Z</time>
      </trkpt>
      <trkpt lat="47.98465" lon="5.72307">
        <ele>313</ele>
        <time>2022-05-23T03:18:50Z</time>
      </trkpt>
      <trkpt lat="47.98474" lon="5.72394">
        <ele>311</ele>
        <time>2022-05-23T03:19:00Z</time>
      </trkpt>
      <trkpt lat="47.98487" lon="5.72462">
        <ele>309</ele>
        <time>2022-05-23T03:19:09Z</time>
      </trkpt>
      <trkpt lat="47.98501" lon="5.72499">
        <ele>307</ele>
        <time>2022-05-23T03:19:14Z</time>
      </trkpt>
      <trkpt lat="47.98544" lon="5.72578">
        <ele>304</ele>
        <time>2022-05-23T03:19:26Z</time>
      </trkpt>
      <trkpt lat="47.9855" lon="5.726">
        <ele>305</ele>
        <time>2022-05-23T03:19:29Z</time>
      </trkpt>
      <trkpt lat="47.98558" lon="5.72685">
        <ele>307</ele>
        <time>2022-05-23T03:19:39Z</time>
      </trkpt>
      <trkpt lat="47.98564" lon="5.72714">
        <ele>308</ele>
        <time>2022-05-23T03:19:42Z</time>
      </trkpt>
      <trkpt lat="47.9858" lon="5.72768">
        <ele>309</ele>
        <time>2022-05-23T03:19:49Z</time>
      </trkpt>
      <trkpt lat="47.98588" lon="5.72776">
        <ele>309</ele>
        <time>2022-05-23T03:19:51Z</time>
      </trkpt>
      <trkpt lat="47.98585" lon="5.72747">
        <ele>308</ele>
        <time>2022-05-23T03:19:55Z</time>
      </trkpt>
      <trkpt lat="47.98593" lon="5.72756">
        <ele>309</ele>
        <time>2022-05-23T03:19:56Z</time>
      </trkpt>
      <trkpt lat="47.98611" lon="5.72718">
        <ele>308</ele>
        <time>2022-05-23T03:20:02Z</time>
      </trkpt>
      <trkpt lat="47.98613" lon="5.72703">
        <ele>308</ele>
        <time>2022-05-23T03:20:04Z</time>
      </trkpt>
      <trkpt lat="47.98601" lon="5.72746">
        <ele>309</ele>
        <time>2022-05-23T03:20:09Z</time>
      </trkpt>
      <trkpt lat="47.98591" lon="5.72754">
        <ele>309</ele>
        <time>2022-05-23T03:20:11Z</time>
      </trkpt>
      <trkpt lat="47.98584" lon="5.72764">
        <ele>309</ele>
        <time>2022-05-23T03:20:13Z</time>
      </trkpt>
      <trkpt lat="47.98584" lon="5.7278">
        <ele>309</ele>
        <time>2022-05-23T03:20:15Z</time>
      </trkpt>
      <trkpt lat="47.98587" lon="5.72796">
        <ele>310</ele>
        <time>2022-05-23T03:20:17Z</time>
      </trkpt>
      <trkpt lat="47.98617" lon="5.72895">
        <ele>314</ele>
        <time>2022-05-23T03:20:30Z</time>
      </trkpt>
      <trkpt lat="47.98633" lon="5.72934">
        <ele>314</ele>
        <time>2022-05-23T03:20:35Z</time>
      </trkpt>
      <trkpt lat="47.98653" lon="5.72966">
        <ele>315</ele>
        <time>2022-05-23T03:20:41Z</time>
      </trkpt>
      <trkpt lat="47.98742" lon="5.73075">
        <ele>321</ele>
        <time>2022-05-23T03:21:01Z</time>
      </trkpt>
      <trkpt lat="47.98757" lon="5.73097">
        <ele>322</ele>
        <time>2022-05-23T03:21:05Z</time>
      </trkpt>
      <trkpt lat="47.98769" lon="5.73122">
        <ele>323</ele>
        <time>2022-05-23T03:21:08Z</time>
      </trkpt>
      <trkpt lat="47.98778" lon="5.73148">
        <ele>324</ele>
        <time>2022-05-23T03:21:12Z</time>
      </trkpt>
      <trkpt lat="47.98843" lon="5.73426">
        <ele>334</ele>
        <time>2022-05-23T03:21:47Z</time>
      </trkpt>
      <trkpt lat="47.98837" lon="5.73491">
        <ele>335</ele>
        <time>2022-05-23T03:21:55Z</time>
      </trkpt>
      <trkpt lat="47.9886" lon="5.7359">
        <ele>338</ele>
        <time>2022-05-23T03:22:07Z</time>
      </trkpt>
      <trkpt lat="47.98865" lon="5.73635">
        <ele>339</ele>
        <time>2022-05-23T03:22:13Z</time>
      </trkpt>
      <trkpt lat="47.98872" lon="5.73663">
        <ele>339</ele>
        <time>2022-05-23T03:22:16Z</time>
      </trkpt>
      <trkpt lat="47.98876" lon="5.73693">
        <ele>339</ele>
        <time>2022-05-23T03:22:20Z</time>
      </trkpt>
      <trkpt lat="47.98873" lon="5.73723">
        <ele>339</ele>
        <time>2022-05-23T03:22:24Z</time>
      </trkpt>
      <trkpt lat="47.98881" lon="5.73731">
        <ele>339</ele>
        <time>2022-05-23T03:22:25Z</time>
      </trkpt>
      <trkpt lat="47.9889" lon="5.73734">
        <ele>340</ele>
        <time>2022-05-23T03:22:27Z</time>
      </trkpt>
      <trkpt lat="47.98898" lon="5.73741">
        <ele>340</ele>
        <time>2022-05-23T03:22:29Z</time>
      </trkpt>
      <trkpt lat="47.98912" lon="5.73768">
        <ele>339</ele>
        <time>2022-05-23T03:22:33Z</time>
      </trkpt>
      <trkpt lat="47.98921" lon="5.7378">
        <ele>339</ele>
        <time>2022-05-23T03:22:35Z</time>
      </trkpt>
      <trkpt lat="47.98949" lon="5.73801">
        <ele>340</ele>
        <time>2022-05-23T03:22:40Z</time>
      </trkpt>
      <trkpt lat="47.98966" lon="5.73811">
        <ele>340</ele>
        <time>2022-05-23T03:22:44Z</time>
      </trkpt>
      <trkpt lat="47.98978" lon="5.73815">
        <ele>341</ele>
        <time>2022-05-23T03:22:46Z</time>
      </trkpt>
      <trkpt lat="47.98996" lon="5.73832">
        <ele>341</ele>
        <time>2022-05-23T03:22:50Z</time>
      </trkpt>
      <trkpt lat="47.99042" lon="5.73868">
        <ele>342</ele>
        <time>2022-05-23T03:22:59Z</time>
      </trkpt>
      <trkpt lat="47.99072" lon="5.73807">
        <ele>347</ele>
        <time>2022-05-23T03:23:08Z</time>
      </trkpt>
      <trkpt lat="47.9908" lon="5.73798">
        <ele>348</ele>
        <time>2022-05-23T03:23:10Z</time>
      </trkpt>
      <trkpt lat="47.9909" lon="5.73799">
        <ele>348</ele>
        <time>2022-05-23T03:23:11Z</time>
      </trkpt>
      <trkpt lat="47.99098" lon="5.73805">
        <ele>349</ele>
        <time>2022-05-23T03:23:13Z</time>
      </trkpt>
      <trkpt lat="47.99145" lon="5.73859">
        <ele>350</ele>
        <time>2022-05-23T03:23:24Z</time>
      </trkpt>
      <trkpt lat="47.99155" lon="5.73861">
        <ele>351</ele>
        <time>2022-05-23T03:23:25Z</time>
      </trkpt>
      <trkpt lat="47.99174" lon="5.73849">
        <ele>353</ele>
        <time>2022-05-23T03:23:29Z</time>
      </trkpt>
      <trkpt lat="47.99184" lon="5.73848">
        <ele>354</ele>
        <time>2022-05-23T03:23:31Z</time>
      </trkpt>
      <trkpt lat="47.99191" lon="5.7384">
        <ele>355</ele>
        <time>2022-05-23T03:23:32Z</time>
      </trkpt>
      <trkpt lat="47.99189" lon="5.73827">
        <ele>355</ele>
        <time>2022-05-23T03:23:34Z</time>
      </trkpt>
      <trkpt lat="47.99189" lon="5.73841">
        <ele>355</ele>
        <time>2022-05-23T03:23:36Z</time>
      </trkpt>
      <trkpt lat="47.99174" lon="5.73837">
        <ele>353</ele>
        <time>2022-05-23T03:23:38Z</time>
      </trkpt>
      <trkpt lat="47.99156" lon="5.73859">
        <ele>351</ele>
        <time>2022-05-23T03:23:42Z</time>
      </trkpt>
      <trkpt lat="47.99145" lon="5.73864">
        <ele>350</ele>
        <time>2022-05-23T03:23:45Z</time>
      </trkpt>
      <trkpt lat="47.99128" lon="5.73887">
        <ele>348</ele>
        <time>2022-05-23T03:23:49Z</time>
      </trkpt>
      <trkpt lat="47.99117" lon="5.73893">
        <ele>346</ele>
        <time>2022-05-23T03:23:51Z</time>
      </trkpt>
      <trkpt lat="47.99109" lon="5.73905">
        <ele>345</ele>
        <time>2022-05-23T03:23:53Z</time>
      </trkpt>
      <trkpt lat="47.99088" lon="5.73924">
        <ele>342</ele>
        <time>2022-05-23T03:23:57Z</time>
      </trkpt>
      <trkpt lat="47.99082" lon="5.73952">
        <ele>339</ele>
        <time>2022-05-23T03:24:01Z</time>
      </trkpt>
      <trkpt lat="47.98945" lon="5.74139">
        <ele>325</ele>
        <time>2022-05-23T03:24:34Z</time>
      </trkpt>
      <trkpt lat="47.98921" lon="5.74168">
        <ele>324</ele>
        <time>2022-05-23T03:24:39Z</time>
      </trkpt>
      <trkpt lat="47.98858" lon="5.74265">
        <ele>325</ele>
        <time>2022-05-23T03:24:55Z</time>
      </trkpt>
      <trkpt lat="47.98841" lon="5.74296">
        <ele>325</ele>
        <time>2022-05-23T03:25:00Z</time>
      </trkpt>
      <trkpt lat="47.98833" lon="5.74305">
        <ele>325</ele>
        <time>2022-05-23T03:25:02Z</time>
      </trkpt>
      <trkpt lat="47.98806" lon="5.74325">
        <ele>326</ele>
        <time>2022-05-23T03:25:07Z</time>
      </trkpt>
      <trkpt lat="47.9879" lon="5.74331">
        <ele>326</ele>
        <time>2022-05-23T03:25:10Z</time>
      </trkpt>
      <trkpt lat="47.9878" lon="5.74328">
        <ele>327</ele>
        <time>2022-05-23T03:25:12Z</time>
      </trkpt>
      <trkpt lat="47.98772" lon="5.74322">
        <ele>328</ele>
        <time>2022-05-23T03:25:13Z</time>
      </trkpt>
      <trkpt lat="47.98764" lon="5.74311">
        <ele>329</ele>
        <time>2022-05-23T03:25:15Z</time>
      </trkpt>
      <trkpt lat="47.98754" lon="5.74286">
        <ele>331</ele>
        <time>2022-05-23T03:25:19Z</time>
      </trkpt>
      <trkpt lat="47.98747" lon="5.74259">
        <ele>332</ele>
        <time>2022-05-23T03:25:22Z</time>
      </trkpt>
      <trkpt lat="47.98739" lon="5.74171">
        <ele>337</ele>
        <time>2022-05-23T03:25:33Z</time>
      </trkpt>
      <trkpt lat="47.98738" lon="5.74126">
        <ele>339</ele>
        <time>2022-05-23T03:25:38Z</time>
      </trkpt>
      <trkpt lat="47.98741" lon="5.74099">
        <ele>340</ele>
        <time>2022-05-23T03:25:41Z</time>
      </trkpt>
      <trkpt lat="47.98739" lon="5.74125">
        <ele>339</ele>
        <time>2022-05-23T03:25:45Z</time>
      </trkpt>
      <trkpt lat="47.98743" lon="5.74218">
        <ele>334</ele>
        <time>2022-05-23T03:25:56Z</time>
      </trkpt>
      <trkpt lat="47.98757" lon="5.74288">
        <ele>330</ele>
        <time>2022-05-23T03:26:04Z</time>
      </trkpt>
      <trkpt lat="47.98774" lon="5.74321">
        <ele>328</ele>
        <time>2022-05-23T03:26:09Z</time>
      </trkpt>
      <trkpt lat="47.98783" lon="5.74329">
        <ele>327</ele>
        <time>2022-05-23T03:26:11Z</time>
      </trkpt>
      <trkpt lat="47.98793" lon="5.74331">
        <ele>326</ele>
        <time>2022-05-23T03:26:13Z</time>
      </trkpt>
      <trkpt lat="47.98808" lon="5.74318">
        <ele>326</ele>
        <time>2022-05-23T03:26:16Z</time>
      </trkpt>
      <trkpt lat="47.98819" lon="5.74312">
        <ele>326</ele>
        <time>2022-05-23T03:26:18Z</time>
      </trkpt>
      <trkpt lat="47.98828" lon="5.74315">
        <ele>325</ele>
        <time>2022-05-23T03:26:20Z</time>
      </trkpt>
      <trkpt lat="47.98833" lon="5.74329">
        <ele>324</ele>
        <time>2022-05-23T03:26:22Z</time>
      </trkpt>
      <trkpt lat="47.98831" lon="5.74362">
        <ele>322</ele>
        <time>2022-05-23T03:26:26Z</time>
      </trkpt>
      <trkpt lat="47.98838" lon="5.74426">
        <ele>318</ele>
        <time>2022-05-23T03:26:33Z</time>
      </trkpt>
      <trkpt lat="47.9883" lon="5.74432">
        <ele>317</ele>
        <time>2022-05-23T03:26:35Z</time>
      </trkpt>
      <trkpt lat="47.98814" lon="5.74415">
        <ele>319</ele>
        <time>2022-05-23T03:26:38Z</time>
      </trkpt>
      <trkpt lat="47.98826" lon="5.74433">
        <ele>317</ele>
        <time>2022-05-23T03:26:41Z</time>
      </trkpt>
      <trkpt lat="47.98836" lon="5.74441">
        <ele>317</ele>
        <time>2022-05-23T03:26:44Z</time>
      </trkpt>
      <trkpt lat="47.98845" lon="5.74473">
        <ele>316</ele>
        <time>2022-05-23T03:26:48Z</time>
      </trkpt>
      <trkpt lat="47.98858" lon="5.74504">
        <ele>314</ele>
        <time>2022-05-23T03:26:52Z</time>
      </trkpt>
      <trkpt lat="47.98904" lon="5.74634">
        <ele>314</ele>
        <time>2022-05-23T03:27:10Z</time>
      </trkpt>
      <trkpt lat="47.98934" lon="5.74734">
        <ele>317</ele>
        <time>2022-05-23T03:27:23Z</time>
      </trkpt>
      <trkpt lat="47.9896" lon="5.74836">
        <ele>318</ele>
        <time>2022-05-23T03:27:36Z</time>
      </trkpt>
      <trkpt lat="47.98975" lon="5.74938">
        <ele>321</ele>
        <time>2022-05-23T03:27:48Z</time>
      </trkpt>
      <trkpt lat="47.98978" lon="5.7504">
        <ele>323</ele>
        <time>2022-05-23T03:28:00Z</time>
      </trkpt>
      <trkpt lat="47.9897" lon="5.75141">
        <ele>324</ele>
        <time>2022-05-23T03:28:12Z</time>
      </trkpt>
      <trkpt lat="47.98983" lon="5.75279">
        <ele>324</ele>
        <time>2022-05-23T03:28:29Z</time>
      </trkpt>
      <trkpt lat="47.98988" lon="5.75309">
        <ele>324</ele>
        <time>2022-05-23T03:28:33Z</time>
      </trkpt>
      <trkpt lat="47.98987" lon="5.75341">
        <ele>324</ele>
        <time>2022-05-23T03:28:36Z</time>
      </trkpt>
      <trkpt lat="47.98983" lon="5.75372">
        <ele>324</ele>
        <time>2022-05-23T03:28:40Z</time>
      </trkpt>
      <trkpt lat="47.9896" lon="5.75443">
        <ele>323</ele>
        <time>2022-05-23T03:28:50Z</time>
      </trkpt>
      <trkpt lat="47.98947" lon="5.75473">
        <ele>321</ele>
        <time>2022-05-23T03:28:54Z</time>
      </trkpt>
      <trkpt lat="47.98942" lon="5.75492">
        <ele>320</ele>
        <time>2022-05-23T03:28:56Z</time>
      </trkpt>
      <trkpt lat="47.9894" lon="5.75513">
        <ele>319</ele>
        <time>2022-05-23T03:28:59Z</time>
      </trkpt>
      <trkpt lat="47.98942" lon="5.75556">
        <ele>317</ele>
        <time>2022-05-23T03:29:04Z</time>
      </trkpt>
      <trkpt lat="47.98951" lon="5.756">
        <ele>315</ele>
        <time>2022-05-23T03:29:09Z</time>
      </trkpt>
      <trkpt lat="47.98972" lon="5.75678">
        <ele>314</ele>
        <time>2022-05-23T03:29:19Z</time>
      </trkpt>
      <trkpt lat="47.98974" lon="5.75702">
        <ele>313</ele>
        <time>2022-05-23T03:29:22Z</time>
      </trkpt>
      <trkpt lat="47.98968" lon="5.75715">
        <ele>313</ele>
        <time>2022-05-23T03:29:24Z</time>
      </trkpt>
      <trkpt lat="47.98939" lon="5.75833">
        <ele>312</ele>
        <time>2022-05-23T03:29:39Z</time>
      </trkpt>
      <trkpt lat="47.98933" lon="5.75846">
        <ele>313</ele>
        <time>2022-05-23T03:29:41Z</time>
      </trkpt>
      <trkpt lat="47.98926" lon="5.75853">
        <ele>314</ele>
        <time>2022-05-23T03:29:42Z</time>
      </trkpt>
      <trkpt lat="47.98915" lon="5.75878">
        <ele>315</ele>
        <time>2022-05-23T03:29:46Z</time>
      </trkpt>
      <trkpt lat="47.98903" lon="5.75945">
        <ele>319</ele>
        <time>2022-05-23T03:29:54Z</time>
      </trkpt>
      <trkpt lat="47.98897" lon="5.75956">
        <ele>320</ele>
        <time>2022-05-23T03:29:56Z</time>
      </trkpt>
      <trkpt lat="47.98881" lon="5.75973">
        <ele>322</ele>
        <time>2022-05-23T03:29:59Z</time>
      </trkpt>
      <trkpt lat="47.98874" lon="5.75985">
        <ele>323</ele>
        <time>2022-05-23T03:30:01Z</time>
      </trkpt>
      <trkpt lat="47.98867" lon="5.76028">
        <ele>325</ele>
        <time>2022-05-23T03:30:07Z</time>
      </trkpt>
      <trkpt lat="47.98863" lon="5.76041">
        <ele>325</ele>
        <time>2022-05-23T03:30:08Z</time>
      </trkpt>
      <trkpt lat="47.98867" lon="5.76028">
        <ele>325</ele>
        <time>2022-05-23T03:30:10Z</time>
      </trkpt>
      <trkpt lat="47.98861" lon="5.7604">
        <ele>325</ele>
        <time>2022-05-23T03:30:12Z</time>
      </trkpt>
      <trkpt lat="47.98868" lon="5.76002">
        <ele>324</ele>
        <time>2022-05-23T03:30:17Z</time>
      </trkpt>
      <trkpt lat="47.98873" lon="5.75987">
        <ele>323</ele>
        <time>2022-05-23T03:30:19Z</time>
      </trkpt>
      <trkpt lat="47.98901" lon="5.75942">
        <ele>319</ele>
        <time>2022-05-23T03:30:26Z</time>
      </trkpt>
      <trkpt lat="47.98909" lon="5.75912">
        <ele>317</ele>
        <time>2022-05-23T03:30:30Z</time>
      </trkpt>
      <trkpt lat="47.98909" lon="5.75896">
        <ele>317</ele>
        <time>2022-05-23T03:30:32Z</time>
      </trkpt>
      <trkpt lat="47.98917" lon="5.75868">
        <ele>315</ele>
        <time>2022-05-23T03:30:35Z</time>
      </trkpt>
      <trkpt lat="47.9893" lon="5.75846">
        <ele>313</ele>
        <time>2022-05-23T03:30:39Z</time>
      </trkpt>
      <trkpt lat="47.98934" lon="5.75859">
        <ele>314</ele>
        <time>2022-05-23T03:30:40Z</time>
      </trkpt>
      <trkpt lat="47.98931" lon="5.75902">
        <ele>316</ele>
        <time>2022-05-23T03:30:46Z</time>
      </trkpt>
      <trkpt lat="47.98934" lon="5.75949">
        <ele>319</ele>
        <time>2022-05-23T03:30:51Z</time>
      </trkpt>
      <trkpt lat="47.98981" lon="5.76286">
        <ele>327</ele>
        <time>2022-05-23T03:31:32Z</time>
      </trkpt>
      <trkpt lat="47.98999" lon="5.76389">
        <ele>328</ele>
        <time>2022-05-23T03:31:45Z</time>
      </trkpt>
      <trkpt lat="47.9901" lon="5.76535">
        <ele>327</ele>
        <time>2022-05-23T03:32:02Z</time>
      </trkpt>
      <trkpt lat="47.99016" lon="5.76586">
        <ele>328</ele>
        <time>2022-05-23T03:32:09Z</time>
      </trkpt>
      <trkpt lat="47.99063" lon="5.7682">
        <ele>329</ele>
        <time>2022-05-23T03:32:38Z</time>
      </trkpt>
      <trkpt lat="47.99068" lon="5.76877">
        <ele>328</ele>
        <time>2022-05-23T03:32:44Z</time>
      </trkpt>
      <trkpt lat="47.99066" lon="5.77014">
        <ele>329</ele>
        <time>2022-05-23T03:33:01Z</time>
      </trkpt>
      <trkpt lat="47.99073" lon="5.77079">
        <ele>331</ele>
        <time>2022-05-23T03:33:09Z</time>
      </trkpt>
      <trkpt lat="47.99083" lon="5.77139">
        <ele>333</ele>
        <time>2022-05-23T03:33:16Z</time>
      </trkpt>
      <trkpt lat="47.99114" lon="5.77282">
        <ele>337</ele>
        <time>2022-05-23T03:33:34Z</time>
      </trkpt>
      <trkpt lat="47.9914" lon="5.77373">
        <ele>338</ele>
        <time>2022-05-23T03:33:46Z</time>
      </trkpt>
      <trkpt lat="47.99165" lon="5.77551">
        <ele>335</ele>
        <time>2022-05-23T03:34:07Z</time>
      </trkpt>
      <trkpt lat="47.99215" lon="5.77842">
        <ele>333</ele>
        <time>2022-05-23T03:34:43Z</time>
      </trkpt>
      <trkpt lat="47.99217" lon="5.77872">
        <ele>333</ele>
        <time>2022-05-23T03:34:47Z</time>
      </trkpt>
      <trkpt lat="47.99228" lon="5.77948">
        <ele>334</ele>
        <time>2022-05-23T03:34:56Z</time>
      </trkpt>
      <trkpt lat="47.99245" lon="5.77989">
        <ele>335</ele>
        <time>2022-05-23T03:35:02Z</time>
      </trkpt>
      <trkpt lat="47.99295" lon="5.78048">
        <ele>335</ele>
        <time>2022-05-23T03:35:13Z</time>
      </trkpt>
      <trkpt lat="47.99309" lon="5.78071">
        <ele>335</ele>
        <time>2022-05-23T03:35:17Z</time>
      </trkpt>
      <trkpt lat="47.99332" lon="5.78153">
        <ele>335</ele>
        <time>2022-05-23T03:35:27Z</time>
      </trkpt>
      <trkpt lat="47.99356" lon="5.78221">
        <ele>340</ele>
        <time>2022-05-23T03:35:36Z</time>
      </trkpt>
      <trkpt lat="47.99418" lon="5.78353">
        <ele>346</ele>
        <time>2022-05-23T03:35:56Z</time>
      </trkpt>
      <trkpt lat="47.99436" lon="5.78399">
        <ele>344</ele>
        <time>2022-05-23T03:36:02Z</time>
      </trkpt>
      <trkpt lat="47.99462" lon="5.78477">
        <ele>343</ele>
        <time>2022-05-23T03:36:12Z</time>
      </trkpt>
      <trkpt lat="47.99477" lon="5.78532">
        <ele>342</ele>
        <time>2022-05-23T03:36:19Z</time>
      </trkpt>
      <trkpt lat="47.9948" lon="5.78548">
        <ele>342</ele>
        <time>2022-05-23T03:36:21Z</time>
      </trkpt>
      <trkpt lat="47.99484" lon="5.78639">
        <ele>342</ele>
        <time>2022-05-23T03:36:32Z</time>
      </trkpt>
      <trkpt lat="47.99491" lon="5.78682">
        <ele>343</ele>
        <time>2022-05-23T03:36:38Z</time>
      </trkpt>
      <trkpt lat="47.995" lon="5.78711">
        <ele>344</ele>
        <time>2022-05-23T03:36:41Z</time>
      </trkpt>
      <trkpt lat="47.99595" lon="5.78994">
        <ele>349</ele>
        <time>2022-05-23T03:37:19Z</time>
      </trkpt>
      <trkpt lat="47.99689" lon="5.79226">
        <ele>356</ele>
        <time>2022-05-23T03:37:51Z</time>
      </trkpt>
      <trkpt lat="47.99757" lon="5.79374">
        <ele>359</ele>
        <time>2022-05-23T03:38:13Z</time>
      </trkpt>
      <trkpt lat="47.99771" lon="5.79411">
        <ele>360</ele>
        <time>2022-05-23T03:38:18Z</time>
      </trkpt>
      <trkpt lat="47.9978" lon="5.79469">
        <ele>361</ele>
        <time>2022-05-23T03:38:25Z</time>
      </trkpt>
      <trkpt lat="47.9978" lon="5.79487">
        <ele>360</ele>
        <time>2022-05-23T03:38:27Z</time>
      </trkpt>
      <trkpt lat="47.99785" lon="5.7952">
        <ele>360</ele>
        <time>2022-05-23T03:38:31Z</time>
      </trkpt>
      <trkpt lat="47.99788" lon="5.79564">
        <ele>359</ele>
        <time>2022-05-23T03:38:36Z</time>
      </trkpt>
      <trkpt lat="47.99794" lon="5.79599">
        <ele>357</ele>
        <time>2022-05-23T03:38:41Z</time>
      </trkpt>
      <trkpt lat="47.998" lon="5.79613">
        <ele>356</ele>
        <time>2022-05-23T03:38:43Z</time>
      </trkpt>
      <trkpt lat="47.99809" lon="5.79622">
        <ele>356</ele>
        <time>2022-05-23T03:38:45Z</time>
      </trkpt>
      <trkpt lat="47.99821" lon="5.79628">
        <ele>356</ele>
        <time>2022-05-23T03:38:47Z</time>
      </trkpt>
      <trkpt lat="47.99846" lon="5.79635">
        <ele>358</ele>
        <time>2022-05-23T03:38:51Z</time>
      </trkpt>
      <trkpt lat="47.99859" lon="5.79644">
        <ele>359</ele>
        <time>2022-05-23T03:38:54Z</time>
      </trkpt>
      <trkpt lat="47.99868" lon="5.79662">
        <ele>359</ele>
        <time>2022-05-23T03:38:57Z</time>
      </trkpt>
      <trkpt lat="47.99893" lon="5.79768">
        <ele>358</ele>
        <time>2022-05-23T03:39:10Z</time>
      </trkpt>
      <trkpt lat="47.99891" lon="5.79782">
        <ele>357</ele>
        <time>2022-05-23T03:39:12Z</time>
      </trkpt>
      <trkpt lat="47.99893" lon="5.798">
        <ele>357</ele>
        <time>2022-05-23T03:39:14Z</time>
      </trkpt>
      <trkpt lat="47.99903" lon="5.79805">
        <ele>357</ele>
        <time>2022-05-23T03:39:16Z</time>
      </trkpt>
      <trkpt lat="47.99911" lon="5.79815">
        <ele>357</ele>
        <time>2022-05-23T03:39:18Z</time>
      </trkpt>
      <trkpt lat="47.99912" lon="5.79831">
        <ele>356</ele>
        <time>2022-05-23T03:39:19Z</time>
      </trkpt>
      <trkpt lat="47.99908" lon="5.79905">
        <ele>356</ele>
        <time>2022-05-23T03:39:28Z</time>
      </trkpt>
      <trkpt lat="47.99895" lon="5.79962">
        <ele>356</ele>
        <time>2022-05-23T03:39:35Z</time>
      </trkpt>
      <trkpt lat="47.99891" lon="5.8001">
        <ele>356</ele>
        <time>2022-05-23T03:39:41Z</time>
      </trkpt>
      <trkpt lat="47.99891" lon="5.80027">
        <ele>356</ele>
        <time>2022-05-23T03:39:43Z</time>
      </trkpt>
      <trkpt lat="47.99897" lon="5.80075">
        <ele>357</ele>
        <time>2022-05-23T03:39:49Z</time>
      </trkpt>
      <trkpt lat="47.99924" lon="5.80163">
        <ele>358</ele>
        <time>2022-05-23T03:40:01Z</time>
      </trkpt>
      <trkpt lat="47.9993" lon="5.80176">
        <ele>358</ele>
        <time>2022-05-23T03:40:02Z</time>
      </trkpt>
      <trkpt lat="47.9996" lon="5.80285">
        <ele>360</ele>
        <time>2022-05-23T03:40:16Z</time>
      </trkpt>
      <trkpt lat="48.00012" lon="5.80406">
        <ele>362</ele>
        <time>2022-05-23T03:40:34Z</time>
      </trkpt>
      <trkpt lat="48.00049" lon="5.80528">
        <ele>363</ele>
        <time>2022-05-23T03:40:50Z</time>
      </trkpt>
      <trkpt lat="48.00062" lon="5.80558">
        <ele>364</ele>
        <time>2022-05-23T03:40:54Z</time>
      </trkpt>
      <trkpt lat="48.00077" lon="5.80584">
        <ele>365</ele>
        <time>2022-05-23T03:40:58Z</time>
      </trkpt>
      <trkpt lat="48.00105" lon="5.80615">
        <ele>365</ele>
        <time>2022-05-23T03:41:04Z</time>
      </trkpt>
      <trkpt lat="48.0015" lon="5.80681">
        <ele>364</ele>
        <time>2022-05-23T03:41:15Z</time>
      </trkpt>
      <trkpt lat="48.00171" lon="5.80698">
        <ele>364</ele>
        <time>2022-05-23T03:41:20Z</time>
      </trkpt>
      <trkpt lat="48.002" lon="5.80709">
        <ele>363</ele>
        <time>2022-05-23T03:41:25Z</time>
      </trkpt>
      <trkpt lat="48.00232" lon="5.80726">
        <ele>362</ele>
        <time>2022-05-23T03:41:31Z</time>
      </trkpt>
      <trkpt lat="48.00261" lon="5.80758">
        <ele>361</ele>
        <time>2022-05-23T03:41:37Z</time>
      </trkpt>
      <trkpt lat="48.00294" lon="5.80803">
        <ele>359</ele>
        <time>2022-05-23T03:41:45Z</time>
      </trkpt>
      <trkpt lat="48.00322" lon="5.8085">
        <ele>358</ele>
        <time>2022-05-23T03:41:53Z</time>
      </trkpt>
      <trkpt lat="48.0034" lon="5.80888">
        <ele>357</ele>
        <time>2022-05-23T03:41:58Z</time>
      </trkpt>
      <trkpt lat="48.00355" lon="5.80929">
        <ele>356</ele>
        <time>2022-05-23T03:42:04Z</time>
      </trkpt>
      <trkpt lat="48.00421" lon="5.81052">
        <ele>354</ele>
        <time>2022-05-23T03:42:23Z</time>
      </trkpt>
      <trkpt lat="48.00532" lon="5.81275">
        <ele>349</ele>
        <time>2022-05-23T03:42:56Z</time>
      </trkpt>
      <trkpt lat="48.00562" lon="5.81325">
        <ele>350</ele>
        <time>2022-05-23T03:43:04Z</time>
      </trkpt>
      <trkpt lat="48.00692" lon="5.81526">
        <ele>343</ele>
        <time>2022-05-23T03:43:37Z</time>
      </trkpt>
      <trkpt lat="48.00758" lon="5.81597">
        <ele>339</ele>
        <time>2022-05-23T03:43:51Z</time>
      </trkpt>
      <trkpt lat="48.0081" lon="5.81633">
        <ele>334</ele>
        <time>2022-05-23T03:44:02Z</time>
      </trkpt>
      <trkpt lat="48.0085" lon="5.8167">
        <ele>332</ele>
        <time>2022-05-23T03:44:10Z</time>
      </trkpt>
      <trkpt lat="48.00902" lon="5.81789">
        <ele>330</ele>
        <time>2022-05-23T03:44:27Z</time>
      </trkpt>
      <trkpt lat="48.00917" lon="5.81817">
        <ele>331</ele>
        <time>2022-05-23T03:44:31Z</time>
      </trkpt>
      <trkpt lat="48.01011" lon="5.81902">
        <ele>333</ele>
        <time>2022-05-23T03:44:51Z</time>
      </trkpt>
      <trkpt lat="48.0109" lon="5.81996">
        <ele>336</ele>
        <time>2022-05-23T03:45:09Z</time>
      </trkpt>
      <trkpt lat="48.01102" lon="5.82021">
        <ele>337</ele>
        <time>2022-05-23T03:45:12Z</time>
      </trkpt>
      <trkpt lat="48.01115" lon="5.82064">
        <ele>340</ele>
        <time>2022-05-23T03:45:18Z</time>
      </trkpt>
      <trkpt lat="48.01127" lon="5.82138">
        <ele>342</ele>
        <time>2022-05-23T03:45:27Z</time>
      </trkpt>
      <trkpt lat="48.01139" lon="5.82185">
        <ele>342</ele>
        <time>2022-05-23T03:45:33Z</time>
      </trkpt>
      <trkpt lat="48.01167" lon="5.82279">
        <ele>339</ele>
        <time>2022-05-23T03:45:45Z</time>
      </trkpt>
      <trkpt lat="48.01177" lon="5.82305">
        <ele>337</ele>
        <time>2022-05-23T03:45:49Z</time>
      </trkpt>
      <trkpt lat="48.0121" lon="5.82441">
        <ele>331</ele>
        <time>2022-05-23T03:46:06Z</time>
      </trkpt>
      <trkpt lat="48.01235" lon="5.82507">
        <ele>328</ele>
        <time>2022-05-23T03:46:15Z</time>
      </trkpt>
      <trkpt lat="48.01245" lon="5.82578">
        <ele>323</ele>
        <time>2022-05-23T03:46:24Z</time>
      </trkpt>
      <trkpt lat="48.01252" lon="5.82607">
        <ele>321</ele>
        <time>2022-05-23T03:46:27Z</time>
      </trkpt>
      <trkpt lat="48.01259" lon="5.82619">
        <ele>320</ele>
        <time>2022-05-23T03:46:29Z</time>
      </trkpt>
      <trkpt lat="48.01274" lon="5.82637">
        <ele>318</ele>
        <time>2022-05-23T03:46:33Z</time>
      </trkpt>
      <trkpt lat="48.01292" lon="5.8265">
        <ele>316</ele>
        <time>2022-05-23T03:46:36Z</time>
      </trkpt>
      <trkpt lat="48.01301" lon="5.82654">
        <ele>315</ele>
        <time>2022-05-23T03:46:38Z</time>
      </trkpt>
      <trkpt lat="48.01319" lon="5.82656">
        <ele>314</ele>
        <time>2022-05-23T03:46:41Z</time>
      </trkpt>
      <trkpt lat="48.01479" lon="5.82631">
        <ele>308</ele>
        <time>2022-05-23T03:47:10Z</time>
      </trkpt>
      <trkpt lat="48.0155" lon="5.82633">
        <ele>305</ele>
        <time>2022-05-23T03:47:22Z</time>
      </trkpt>
      <trkpt lat="48.01575" lon="5.8264">
        <ele>303</ele>
        <time>2022-05-23T03:47:27Z</time>
      </trkpt>
      <trkpt lat="48.01588" lon="5.82649">
        <ele>302</ele>
        <time>2022-05-23T03:47:30Z</time>
      </trkpt>
      <trkpt lat="48.016" lon="5.82664">
        <ele>299</ele>
        <time>2022-05-23T03:47:32Z</time>
      </trkpt>
      <trkpt lat="48.01607" lon="5.82678">
        <ele>299</ele>
        <time>2022-05-23T03:47:34Z</time>
      </trkpt>
      <trkpt lat="48.01611" lon="5.82696">
        <ele>298</ele>
        <time>2022-05-23T03:47:37Z</time>
      </trkpt>
      <trkpt lat="48.01611" lon="5.82733">
        <ele>296</ele>
        <time>2022-05-23T03:47:41Z</time>
      </trkpt>
      <trkpt lat="48.01623" lon="5.8277">
        <ele>296</ele>
        <time>2022-05-23T03:47:46Z</time>
      </trkpt>
      <trkpt lat="48.0164" lon="5.8281">
        <ele>296</ele>
        <time>2022-05-23T03:47:52Z</time>
      </trkpt>
      <trkpt lat="48.01677" lon="5.82859">
        <ele>299</ele>
        <time>2022-05-23T03:48:00Z</time>
      </trkpt>
      <trkpt lat="48.01679" lon="5.82874">
        <ele>300</ele>
        <time>2022-05-23T03:48:02Z</time>
      </trkpt>
      <trkpt lat="48.01693" lon="5.82911">
        <ele>304</ele>
        <time>2022-05-23T03:48:07Z</time>
      </trkpt>
      <trkpt lat="48.0169" lon="5.82955">
        <ele>306</ele>
        <time>2022-05-23T03:48:13Z</time>
      </trkpt>
      <trkpt lat="48.01683" lon="5.82981">
        <ele>307</ele>
        <time>2022-05-23T03:48:16Z</time>
      </trkpt>
      <trkpt lat="48.01682" lon="5.83026">
        <ele>310</ele>
        <time>2022-05-23T03:48:21Z</time>
      </trkpt>
      <trkpt lat="48.01687" lon="5.83039">
        <ele>311</ele>
        <time>2022-05-23T03:48:23Z</time>
      </trkpt>
      <trkpt lat="48.01681" lon="5.8307">
        <ele>312</ele>
        <time>2022-05-23T03:48:27Z</time>
      </trkpt>
      <trkpt lat="48.01648" lon="5.83165">
        <ele>312</ele>
        <time>2022-05-23T03:48:40Z</time>
      </trkpt>
      <trkpt lat="48.0164" lon="5.83179">
        <ele>311</ele>
        <time>2022-05-23T03:48:42Z</time>
      </trkpt>
      <trkpt lat="48.01628" lon="5.83214">
        <ele>310</ele>
        <time>2022-05-23T03:48:46Z</time>
      </trkpt>
      <trkpt lat="48.0162" lon="5.83259">
        <ele>309</ele>
        <time>2022-05-23T03:48:52Z</time>
      </trkpt>
      <trkpt lat="48.0162" lon="5.83286">
        <ele>309</ele>
        <time>2022-05-23T03:48:55Z</time>
      </trkpt>
      <trkpt lat="48.01632" lon="5.83311">
        <ele>310</ele>
        <time>2022-05-23T03:48:59Z</time>
      </trkpt>
      <trkpt lat="48.01643" lon="5.83343">
        <ele>311</ele>
        <time>2022-05-23T03:49:03Z</time>
      </trkpt>
      <trkpt lat="48.01644" lon="5.83361">
        <ele>311</ele>
        <time>2022-05-23T03:49:05Z</time>
      </trkpt>
      <trkpt lat="48.01641" lon="5.83376">
        <ele>311</ele>
        <time>2022-05-23T03:49:07Z</time>
      </trkpt>
      <trkpt lat="48.01636" lon="5.83391">
        <ele>311</ele>
        <time>2022-05-23T03:49:09Z</time>
      </trkpt>
      <trkpt lat="48.01615" lon="5.83429">
        <ele>311</ele>
        <time>2022-05-23T03:49:15Z</time>
      </trkpt>
      <trkpt lat="48.01592" lon="5.83461">
        <ele>310</ele>
        <time>2022-05-23T03:49:21Z</time>
      </trkpt>
      <trkpt lat="48.01552" lon="5.83508">
        <ele>309</ele>
        <time>2022-05-23T03:49:30Z</time>
      </trkpt>
      <trkpt lat="48.01528" lon="5.83544">
        <ele>308</ele>
        <time>2022-05-23T03:49:36Z</time>
      </trkpt>
      <trkpt lat="48.01508" lon="5.83596">
        <ele>306</ele>
        <time>2022-05-23T03:49:43Z</time>
      </trkpt>
      <trkpt lat="48.01505" lon="5.83615">
        <ele>306</ele>
        <time>2022-05-23T03:49:45Z</time>
      </trkpt>
      <trkpt lat="48.01506" lon="5.83673">
        <ele>306</ele>
        <time>2022-05-23T03:49:52Z</time>
      </trkpt>
      <trkpt lat="48.01522" lon="5.83782">
        <ele>307</ele>
        <time>2022-05-23T03:50:05Z</time>
      </trkpt>
      <trkpt lat="48.01522" lon="5.83832">
        <ele>308</ele>
        <time>2022-05-23T03:50:11Z</time>
      </trkpt>
      <trkpt lat="48.01507" lon="5.83907">
        <ele>308</ele>
        <time>2022-05-23T03:50:21Z</time>
      </trkpt>
      <trkpt lat="48.01481" lon="5.8397">
        <ele>309</ele>
        <time>2022-05-23T03:50:29Z</time>
      </trkpt>
      <trkpt lat="48.01473" lon="5.83996">
        <ele>310</ele>
        <time>2022-05-23T03:50:33Z</time>
      </trkpt>
      <trkpt lat="48.01465" lon="5.84085">
        <ele>312</ele>
        <time>2022-05-23T03:50:44Z</time>
      </trkpt>
      <trkpt lat="48.01463" lon="5.84158">
        <ele>314</ele>
        <time>2022-05-23T03:50:52Z</time>
      </trkpt>
      <trkpt lat="48.01473" lon="5.8423">
        <ele>316</ele>
        <time>2022-05-23T03:51:01Z</time>
      </trkpt>
      <trkpt lat="48.01475" lon="5.84261">
        <ele>316</ele>
        <time>2022-05-23T03:51:05Z</time>
      </trkpt>
      <trkpt lat="48.01467" lon="5.84337">
        <ele>314</ele>
        <time>2022-05-23T03:51:14Z</time>
      </trkpt>
      <trkpt lat="48.01468" lon="5.84357">
        <ele>314</ele>
        <time>2022-05-23T03:51:16Z</time>
      </trkpt>
      <trkpt lat="48.01473" lon="5.84403">
        <ele>312</ele>
        <time>2022-05-23T03:51:22Z</time>
      </trkpt>
      <trkpt lat="48.01481" lon="5.84438">
        <ele>310</ele>
        <time>2022-05-23T03:51:26Z</time>
      </trkpt>
      <trkpt lat="48.01505" lon="5.84579">
        <ele>307</ele>
        <time>2022-05-23T03:51:44Z</time>
      </trkpt>
      <trkpt lat="48.0151" lon="5.84627">
        <ele>305</ele>
        <time>2022-05-23T03:51:49Z</time>
      </trkpt>
      <trkpt lat="48.0151" lon="5.84653">
        <ele>305</ele>
        <time>2022-05-23T03:51:52Z</time>
      </trkpt>
      <trkpt lat="48.01506" lon="5.84679">
        <ele>304</ele>
        <time>2022-05-23T03:51:56Z</time>
      </trkpt>
      <trkpt lat="48.01466" lon="5.84804">
        <ele>297</ele>
        <time>2022-05-23T03:52:12Z</time>
      </trkpt>
      <trkpt lat="48.01456" lon="5.84828">
        <ele>296</ele>
        <time>2022-05-23T03:52:15Z</time>
      </trkpt>
      <trkpt lat="48.01428" lon="5.84866">
        <ele>295</ele>
        <time>2022-05-23T03:52:22Z</time>
      </trkpt>
      <trkpt lat="48.01404" lon="5.8489">
        <ele>293</ele>
        <time>2022-05-23T03:52:27Z</time>
      </trkpt>
      <trkpt lat="48.01376" lon="5.84904">
        <ele>293</ele>
        <time>2022-05-23T03:52:33Z</time>
      </trkpt>
      <trkpt lat="48.01356" lon="5.8491">
        <ele>292</ele>
        <time>2022-05-23T03:52:36Z</time>
      </trkpt>
      <trkpt lat="48.0134" lon="5.84926">
        <ele>291</ele>
        <time>2022-05-23T03:52:40Z</time>
      </trkpt>
      <trkpt lat="48.01334" lon="5.84937">
        <ele>290</ele>
        <time>2022-05-23T03:52:41Z</time>
      </trkpt>
      <trkpt lat="48.01328" lon="5.84964">
        <ele>288</ele>
        <time>2022-05-23T03:52:45Z</time>
      </trkpt>
      <trkpt lat="48.01326" lon="5.85036">
        <ele>284</ele>
        <time>2022-05-23T03:52:53Z</time>
      </trkpt>
      <trkpt lat="48.01315" lon="5.85077">
        <ele>283</ele>
        <time>2022-05-23T03:52:59Z</time>
      </trkpt>
      <trkpt lat="48.01303" lon="5.851">
        <ele>283</ele>
        <time>2022-05-23T03:53:02Z</time>
      </trkpt>
      <trkpt lat="48.0129" lon="5.85122">
        <ele>281</ele>
        <time>2022-05-23T03:53:05Z</time>
      </trkpt>
      <trkpt lat="48.01282" lon="5.8513">
        <ele>281</ele>
        <time>2022-05-23T03:53:07Z</time>
      </trkpt>
      <trkpt lat="48.01273" lon="5.85137">
        <ele>281</ele>
        <time>2022-05-23T03:53:09Z</time>
      </trkpt>
      <trkpt lat="48.01237" lon="5.85156">
        <ele>281</ele>
        <time>2022-05-23T03:53:16Z</time>
      </trkpt>
      <trkpt lat="48.01228" lon="5.85164">
        <ele>280</ele>
        <time>2022-05-23T03:53:18Z</time>
      </trkpt>
      <trkpt lat="48.01207" lon="5.85197">
        <ele>279</ele>
        <time>2022-05-23T03:53:23Z</time>
      </trkpt>
      <trkpt lat="48.01189" lon="5.85234">
        <ele>276</ele>
        <time>2022-05-23T03:53:29Z</time>
      </trkpt>
      <trkpt lat="48.01175" lon="5.85257">
        <ele>275</ele>
        <time>2022-05-23T03:53:32Z</time>
      </trkpt>
      <trkpt lat="48.01124" lon="5.85322">
        <ele>273</ele>
        <time>2022-05-23T03:53:44Z</time>
      </trkpt>
      <trkpt lat="48.01046" lon="5.85439">
        <ele>266</ele>
        <time>2022-05-23T03:54:04Z</time>
      </trkpt>
      <trkpt lat="48.01018" lon="5.85472">
        <ele>266</ele>
        <time>2022-05-23T03:54:10Z</time>
      </trkpt>
      <trkpt lat="48.00982" lon="5.85536">
        <ele>266</ele>
        <time>2022-05-23T03:54:20Z</time>
      </trkpt>
      <trkpt lat="48.00964" lon="5.85577">
        <ele>268</ele>
        <time>2022-05-23T03:54:26Z</time>
      </trkpt>
      <trkpt lat="48.00939" lon="5.85646">
        <ele>269</ele>
        <time>2022-05-23T03:54:35Z</time>
      </trkpt>
      <trkpt lat="48.00926" lon="5.85669">
        <ele>270</ele>
        <time>2022-05-23T03:54:39Z</time>
      </trkpt>
      <trkpt lat="48.00915" lon="5.85732">
        <ele>269</ele>
        <time>2022-05-23T03:54:47Z</time>
      </trkpt>
      <trkpt lat="48.00913" lon="5.85791">
        <ele>267</ele>
        <time>2022-05-23T03:54:54Z</time>
      </trkpt>
      <trkpt lat="48.0091" lon="5.8581">
        <ele>267</ele>
        <time>2022-05-23T03:54:56Z</time>
      </trkpt>
      <trkpt lat="48.00893" lon="5.8587">
        <ele>267</ele>
        <time>2022-05-23T03:55:04Z</time>
      </trkpt>
      <trkpt lat="48.00875" lon="5.85953">
        <ele>266</ele>
        <time>2022-05-23T03:55:14Z</time>
      </trkpt>
      <trkpt lat="48.00879" lon="5.85974">
        <ele>265</ele>
        <time>2022-05-23T03:55:17Z</time>
      </trkpt>
      <trkpt lat="48.00892" lon="5.8599">
        <ele>263</ele>
        <time>2022-05-23T03:55:20Z</time>
      </trkpt>
      <trkpt lat="48.00908" lon="5.85999">
        <ele>262</ele>
        <time>2022-05-23T03:55:23Z</time>
      </trkpt>
      <trkpt lat="48.00923" lon="5.86002">
        <ele>261</ele>
        <time>2022-05-23T03:55:25Z</time>
      </trkpt>
      <trkpt lat="48.00964" lon="5.86002">
        <ele>260</ele>
        <time>2022-05-23T03:55:33Z</time>
      </trkpt>
      <trkpt lat="48.00975" lon="5.86012">
        <ele>260</ele>
        <time>2022-05-23T03:55:35Z</time>
      </trkpt>
      <trkpt lat="48.00981" lon="5.86031">
        <ele>259</ele>
        <time>2022-05-23T03:55:38Z</time>
      </trkpt>
      <trkpt lat="48.00975" lon="5.86067">
        <ele>259</ele>
        <time>2022-05-23T03:55:42Z</time>
      </trkpt>
      <trkpt lat="48.00973" lon="5.861">
        <ele>259</ele>
        <time>2022-05-23T03:55:46Z</time>
      </trkpt>
      <trkpt lat="48.00977" lon="5.86129">
        <ele>258</ele>
        <time>2022-05-23T03:55:49Z</time>
      </trkpt>
      <trkpt lat="48.0099" lon="5.86174">
        <ele>258</ele>
        <time>2022-05-23T03:55:55Z</time>
      </trkpt>
      <trkpt lat="48.00991" lon="5.86202">
        <ele>258</ele>
        <time>2022-05-23T03:55:59Z</time>
      </trkpt>
      <trkpt lat="48.00988" lon="5.86216">
        <ele>259</ele>
        <time>2022-05-23T03:56:00Z</time>
      </trkpt>
      <trkpt lat="48.00984" lon="5.86231">
        <ele>259</ele>
        <time>2022-05-23T03:56:02Z</time>
      </trkpt>
      <trkpt lat="48.00966" lon="5.86272">
        <ele>258</ele>
        <time>2022-05-23T03:56:08Z</time>
      </trkpt>
      <trkpt lat="48.00951" lon="5.86314">
        <ele>258</ele>
        <time>2022-05-23T03:56:14Z</time>
      </trkpt>
      <trkpt lat="48.009" lon="5.86501">
        <ele>258</ele>
        <time>2022-05-23T03:56:38Z</time>
      </trkpt>
      <trkpt lat="48.00809" lon="5.86817">
        <ele>260</ele>
        <time>2022-05-23T03:57:19Z</time>
      </trkpt>
      <trkpt lat="48.00775" lon="5.87054">
        <ele>257</ele>
        <time>2022-05-23T03:57:48Z</time>
      </trkpt>
      <trkpt lat="48.00763" lon="5.87161">
        <ele>254</ele>
        <time>2022-05-23T03:58:01Z</time>
      </trkpt>
      <trkpt lat="48.00753" lon="5.87212">
        <ele>254</ele>
        <time>2022-05-23T03:58:07Z</time>
      </trkpt>
      <trkpt lat="48.00741" lon="5.87243">
        <ele>254</ele>
        <time>2022-05-23T03:58:11Z</time>
      </trkpt>
      <trkpt lat="48.00664" lon="5.87401">
        <ele>253</ele>
        <time>2022-05-23T03:58:34Z</time>
      </trkpt>
      <trkpt lat="48.00651" lon="5.87433">
        <ele>253</ele>
        <time>2022-05-23T03:58:39Z</time>
      </trkpt>
      <trkpt lat="48.00642" lon="5.87467">
        <ele>253</ele>
        <time>2022-05-23T03:58:43Z</time>
      </trkpt>
      <trkpt lat="48.00619" lon="5.87579">
        <ele>253</ele>
        <time>2022-05-23T03:58:57Z</time>
      </trkpt>
      <trkpt lat="48.00586" lon="5.87803">
        <ele>250</ele>
        <time>2022-05-23T03:59:24Z</time>
      </trkpt>
      <trkpt lat="48.00447" lon="5.88378">
        <ele>248</ele>
        <time>2022-05-23T04:00:37Z</time>
      </trkpt>
      <trkpt lat="48.00383" lon="5.88617">
        <ele>246</ele>
        <time>2022-05-23T04:01:08Z</time>
      </trkpt>
      <trkpt lat="48.00377" lon="5.88633">
        <ele>247</ele>
        <time>2022-05-23T04:01:10Z</time>
      </trkpt>
      <trkpt lat="48.00341" lon="5.88774">
        <ele>251</ele>
        <time>2022-05-23T04:01:28Z</time>
      </trkpt>
      <trkpt lat="48.00318" lon="5.88836">
        <ele>249</ele>
        <time>2022-05-23T04:01:36Z</time>
      </trkpt>
      <trkpt lat="48.00311" lon="5.88848">
        <ele>248</ele>
        <time>2022-05-23T04:01:38Z</time>
      </trkpt>
      <trkpt lat="48.00217" lon="5.88963">
        <ele>248</ele>
        <time>2022-05-23T04:02:00Z</time>
      </trkpt>
      <trkpt lat="48.00195" lon="5.89003">
        <ele>249</ele>
        <time>2022-05-23T04:02:06Z</time>
      </trkpt>
      <trkpt lat="48.00176" lon="5.89046">
        <ele>249</ele>
        <time>2022-05-23T04:02:12Z</time>
      </trkpt>
      <trkpt lat="48.00146" lon="5.89137">
        <ele>248</ele>
        <time>2022-05-23T04:02:24Z</time>
      </trkpt>
      <trkpt lat="48.00139" lon="5.89169">
        <ele>247</ele>
        <time>2022-05-23T04:02:28Z</time>
      </trkpt>
      <trkpt lat="48.00136" lon="5.89186">
        <ele>246</ele>
        <time>2022-05-23T04:02:30Z</time>
      </trkpt>
      <trkpt lat="48.00131" lon="5.89291">
        <ele>243</ele>
        <time>2022-05-23T04:02:43Z</time>
      </trkpt>
      <trkpt lat="48.00129" lon="5.89578">
        <ele>241</ele>
        <time>2022-05-23T04:03:17Z</time>
      </trkpt>
      <trkpt lat="48.00132" lon="5.89621">
        <ele>241</ele>
        <time>2022-05-23T04:03:22Z</time>
      </trkpt>
      <trkpt lat="48.00143" lon="5.89656">
        <ele>242</ele>
        <time>2022-05-23T04:03:27Z</time>
      </trkpt>
      <trkpt lat="48.00158" lon="5.89679">
        <ele>243</ele>
        <time>2022-05-23T04:03:31Z</time>
      </trkpt>
      <trkpt lat="48.00166" lon="5.89687">
        <ele>244</ele>
        <time>2022-05-23T04:03:32Z</time>
      </trkpt>
      <trkpt lat="48.00239" lon="5.89742">
        <ele>246</ele>
        <time>2022-05-23T04:03:47Z</time>
      </trkpt>
      <trkpt lat="48.00337" lon="5.89843">
        <ele>243</ele>
        <time>2022-05-23T04:04:08Z</time>
      </trkpt>
      <trkpt lat="48.00356" lon="5.8986">
        <ele>242</ele>
        <time>2022-05-23T04:04:12Z</time>
      </trkpt>
      <trkpt lat="48.00397" lon="5.89907">
        <ele>242</ele>
        <time>2022-05-23T04:04:21Z</time>
      </trkpt>
      <trkpt lat="48.00479" lon="5.8999">
        <ele>242</ele>
        <time>2022-05-23T04:04:39Z</time>
      </trkpt>
      <trkpt lat="48.00488" lon="5.90004">
        <ele>242</ele>
        <time>2022-05-23T04:04:41Z</time>
      </trkpt>
      <trkpt lat="48.00489" lon="5.90018">
        <ele>242</ele>
        <time>2022-05-23T04:04:43Z</time>
      </trkpt>
      <trkpt lat="48.00486" lon="5.90031">
        <ele>242</ele>
        <time>2022-05-23T04:04:45Z</time>
      </trkpt>
      <trkpt lat="48.00441" lon="5.90139">
        <ele>240</ele>
        <time>2022-05-23T04:05:00Z</time>
      </trkpt>
      <trkpt lat="48.00271" lon="5.9054">
        <ele>237</ele>
        <time>2022-05-23T04:05:56Z</time>
      </trkpt>
      <trkpt lat="48.00229" lon="5.90637">
        <ele>237</ele>
        <time>2022-05-23T04:06:10Z</time>
      </trkpt>
      <trkpt lat="48.00207" lon="5.90675">
        <ele>237</ele>
        <time>2022-05-23T04:06:16Z</time>
      </trkpt>
      <trkpt lat="48.00179" lon="5.90702">
        <ele>237</ele>
        <time>2022-05-23T04:06:22Z</time>
      </trkpt>
      <trkpt lat="48.00159" lon="5.90715">
        <ele>238</ele>
        <time>2022-05-23T04:06:26Z</time>
      </trkpt>
      <trkpt lat="48.00127" lon="5.90725">
        <ele>237</ele>
        <time>2022-05-23T04:06:32Z</time>
      </trkpt>
      <trkpt lat="48.00108" lon="5.90727">
        <ele>237</ele>
        <time>2022-05-23T04:06:35Z</time>
      </trkpt>
      <trkpt lat="48.00068" lon="5.90737">
        <ele>237</ele>
        <time>2022-05-23T04:06:42Z</time>
      </trkpt>
      <trkpt lat="48.00046" lon="5.90746">
        <ele>237</ele>
        <time>2022-05-23T04:06:46Z</time>
      </trkpt>
      <trkpt lat="48.00016" lon="5.90762">
        <ele>237</ele>
        <time>2022-05-23T04:06:52Z</time>
      </trkpt>
      <trkpt lat="47.99888" lon="5.90843">
        <ele>236</ele>
        <time>2022-05-23T04:07:17Z</time>
      </trkpt>
      <trkpt lat="47.99852" lon="5.90869">
        <ele>237</ele>
        <time>2022-05-23T04:07:24Z</time>
      </trkpt>
      <trkpt lat="47.99835" lon="5.90895">
        <ele>238</ele>
        <time>2022-05-23T04:07:28Z</time>
      </trkpt>
      <trkpt lat="47.99823" lon="5.90921">
        <ele>239</ele>
        <time>2022-05-23T04:07:32Z</time>
      </trkpt>
      <trkpt lat="47.99819" lon="5.90936">
        <ele>240</ele>
        <time>2022-05-23T04:07:34Z</time>
      </trkpt>
      <trkpt lat="47.99814" lon="5.90964">
        <ele>241</ele>
        <time>2022-05-23T04:07:37Z</time>
      </trkpt>
      <trkpt lat="47.99808" lon="5.91066">
        <ele>245</ele>
        <time>2022-05-23T04:07:49Z</time>
      </trkpt>
      <trkpt lat="47.9981" lon="5.91138">
        <ele>249</ele>
        <time>2022-05-23T04:07:58Z</time>
      </trkpt>
      <trkpt lat="47.99814" lon="5.91165">
        <ele>251</ele>
        <time>2022-05-23T04:08:01Z</time>
      </trkpt>
      <trkpt lat="47.99836" lon="5.91262">
        <ele>254</ele>
        <time>2022-05-23T04:08:13Z</time>
      </trkpt>
      <trkpt lat="47.99857" lon="5.91401">
        <ele>264</ele>
        <time>2022-05-23T04:08:30Z</time>
      </trkpt>
      <trkpt lat="47.99876" lon="5.915">
        <ele>271</ele>
        <time>2022-05-23T04:08:43Z</time>
      </trkpt>
      <trkpt lat="47.99881" lon="5.91543">
        <ele>273</ele>
        <time>2022-05-23T04:08:48Z</time>
      </trkpt>
      <trkpt lat="47.99884" lon="5.91645">
        <ele>279</ele>
        <time>2022-05-23T04:09:00Z</time>
      </trkpt>
      <trkpt lat="47.99889" lon="5.91687">
        <ele>279</ele>
        <time>2022-05-23T04:09:05Z</time>
      </trkpt>
      <trkpt lat="47.99888" lon="5.91701">
        <ele>280</ele>
        <time>2022-05-23T04:09:07Z</time>
      </trkpt>
      <trkpt lat="47.99891" lon="5.91733">
        <ele>281</ele>
        <time>2022-05-23T04:09:11Z</time>
      </trkpt>
      <trkpt lat="47.99892" lon="5.91823">
        <ele>284</ele>
        <time>2022-05-23T04:09:21Z</time>
      </trkpt>
      <trkpt lat="47.99901" lon="5.91873">
        <ele>283</ele>
        <time>2022-05-23T04:09:28Z</time>
      </trkpt>
      <trkpt lat="47.99903" lon="5.91951">
        <ele>285</ele>
        <time>2022-05-23T04:09:37Z</time>
      </trkpt>
      <trkpt lat="47.99894" lon="5.92031">
        <ele>289</ele>
        <time>2022-05-23T04:09:46Z</time>
      </trkpt>
      <trkpt lat="47.99886" lon="5.92056">
        <ele>291</ele>
        <time>2022-05-23T04:09:50Z</time>
      </trkpt>
      <trkpt lat="47.99877" lon="5.92098">
        <ele>293</ele>
        <time>2022-05-23T04:09:55Z</time>
      </trkpt>
      <trkpt lat="47.99872" lon="5.92145">
        <ele>295</ele>
        <time>2022-05-23T04:10:01Z</time>
      </trkpt>
      <trkpt lat="47.99873" lon="5.92188">
        <ele>295</ele>
        <time>2022-05-23T04:10:06Z</time>
      </trkpt>
      <trkpt lat="47.99863" lon="5.9223">
        <ele>296</ele>
        <time>2022-05-23T04:10:11Z</time>
      </trkpt>
      <trkpt lat="47.99863" lon="5.92247">
        <ele>295</ele>
        <time>2022-05-23T04:10:13Z</time>
      </trkpt>
      <trkpt lat="47.99855" lon="5.9229">
        <ele>295</ele>
        <time>2022-05-23T04:10:18Z</time>
      </trkpt>
      <trkpt lat="47.99841" lon="5.92331">
        <ele>295</ele>
        <time>2022-05-23T04:10:24Z</time>
      </trkpt>
      <trkpt lat="47.99834" lon="5.92345">
        <ele>295</ele>
        <time>2022-05-23T04:10:26Z</time>
      </trkpt>
      <trkpt lat="47.99825" lon="5.92354">
        <ele>296</ele>
        <time>2022-05-23T04:10:28Z</time>
      </trkpt>
      <trkpt lat="47.99819" lon="5.92368">
        <ele>296</ele>
        <time>2022-05-23T04:10:30Z</time>
      </trkpt>
      <trkpt lat="47.99784" lon="5.92425">
        <ele>297</ele>
        <time>2022-05-23T04:10:39Z</time>
      </trkpt>
      <trkpt lat="47.99723" lon="5.92502">
        <ele>298</ele>
        <time>2022-05-23T04:10:53Z</time>
      </trkpt>
      <trkpt lat="47.99711" lon="5.9253">
        <ele>297</ele>
        <time>2022-05-23T04:10:57Z</time>
      </trkpt>
      <trkpt lat="47.99693" lon="5.92602">
        <ele>296</ele>
        <time>2022-05-23T04:11:06Z</time>
      </trkpt>
      <trkpt lat="47.99664" lon="5.92751">
        <ele>293</ele>
        <time>2022-05-23T04:11:25Z</time>
      </trkpt>
      <trkpt lat="47.99617" lon="5.92947">
        <ele>301</ele>
        <time>2022-05-23T04:11:50Z</time>
      </trkpt>
      <trkpt lat="47.99594" lon="5.93075">
        <ele>300</ele>
        <time>2022-05-23T04:12:06Z</time>
      </trkpt>
      <trkpt lat="47.99592" lon="5.93107">
        <ele>301</ele>
        <time>2022-05-23T04:12:09Z</time>
      </trkpt>
      <trkpt lat="47.99593" lon="5.9317">
        <ele>304</ele>
        <time>2022-05-23T04:12:17Z</time>
      </trkpt>
      <trkpt lat="47.99608" lon="5.93301">
        <ele>311</ele>
        <time>2022-05-23T04:12:33Z</time>
      </trkpt>
      <trkpt lat="47.99614" lon="5.93379">
        <ele>313</ele>
        <time>2022-05-23T04:12:42Z</time>
      </trkpt>
      <trkpt lat="47.99615" lon="5.93499">
        <ele>317</ele>
        <time>2022-05-23T04:12:56Z</time>
      </trkpt>
      <trkpt lat="47.99625" lon="5.93643">
        <ele>324</ele>
        <time>2022-05-23T04:13:14Z</time>
      </trkpt>
      <trkpt lat="47.99616" lon="5.93839">
        <ele>335</ele>
        <time>2022-05-23T04:13:37Z</time>
      </trkpt>
      <trkpt lat="47.9962" lon="5.93893">
        <ele>339</ele>
        <time>2022-05-23T04:13:43Z</time>
      </trkpt>
      <trkpt lat="47.99632" lon="5.93979">
        <ele>340</ele>
        <time>2022-05-23T04:13:54Z</time>
      </trkpt>
      <trkpt lat="47.99635" lon="5.94026">
        <ele>340</ele>
        <time>2022-05-23T04:13:59Z</time>
      </trkpt>
      <trkpt lat="47.99649" lon="5.94138">
        <ele>338</ele>
        <time>2022-05-23T04:14:13Z</time>
      </trkpt>
      <trkpt lat="47.9965" lon="5.94168">
        <ele>338</ele>
        <time>2022-05-23T04:14:17Z</time>
      </trkpt>
      <trkpt lat="47.99646" lon="5.94182">
        <ele>338</ele>
        <time>2022-05-23T04:14:18Z</time>
      </trkpt>
      <trkpt lat="47.99637" lon="5.94194">
        <ele>338</ele>
        <time>2022-05-23T04:14:21Z</time>
      </trkpt>
      <trkpt lat="47.99622" lon="5.94197">
        <ele>337</ele>
        <time>2022-05-23T04:14:23Z</time>
      </trkpt>
      <trkpt lat="47.99593" lon="5.94192">
        <ele>337</ele>
        <time>2022-05-23T04:14:28Z</time>
      </trkpt>
      <trkpt lat="47.99521" lon="5.94174">
        <ele>334</ele>
        <time>2022-05-23T04:14:41Z</time>
      </trkpt>
      <trkpt lat="47.99507" lon="5.94174">
        <ele>334</ele>
        <time>2022-05-23T04:14:44Z</time>
      </trkpt>
      <trkpt lat="47.99494" lon="5.94177">
        <ele>333</ele>
        <time>2022-05-23T04:14:46Z</time>
      </trkpt>
      <trkpt lat="47.9948" lon="5.94184">
        <ele>333</ele>
        <time>2022-05-23T04:14:49Z</time>
      </trkpt>
      <trkpt lat="47.99457" lon="5.94218">
        <ele>331</ele>
        <time>2022-05-23T04:14:55Z</time>
      </trkpt>
      <trkpt lat="47.99437" lon="5.94256">
        <ele>329</ele>
        <time>2022-05-23T04:15:00Z</time>
      </trkpt>
      <trkpt lat="47.9942" lon="5.94298">
        <ele>328</ele>
        <time>2022-05-23T04:15:06Z</time>
      </trkpt>
      <trkpt lat="47.99399" lon="5.9434">
        <ele>327</ele>
        <time>2022-05-23T04:15:13Z</time>
      </trkpt>
      <trkpt lat="47.9934" lon="5.94379">
        <ele>327</ele>
        <time>2022-05-23T04:15:24Z</time>
      </trkpt>
      <trkpt lat="47.9924" lon="5.94474">
        <ele>323</ele>
        <time>2022-05-23T04:15:45Z</time>
      </trkpt>
      <trkpt lat="47.99164" lon="5.94564">
        <ele>321</ele>
        <time>2022-05-23T04:16:02Z</time>
      </trkpt>
      <trkpt lat="47.99104" lon="5.94651">
        <ele>324</ele>
        <time>2022-05-23T04:16:17Z</time>
      </trkpt>
      <trkpt lat="47.99081" lon="5.94698">
        <ele>324</ele>
        <time>2022-05-23T04:16:24Z</time>
      </trkpt>
      <trkpt lat="47.99072" lon="5.94709">
        <ele>326</ele>
        <time>2022-05-23T04:16:26Z</time>
      </trkpt>
      <trkpt lat="47.99053" lon="5.94742">
        <ele>329</ele>
        <time>2022-05-23T04:16:31Z</time>
      </trkpt>
      <trkpt lat="47.99031" lon="5.94797">
        <ele>326</ele>
        <time>2022-05-23T04:16:39Z</time>
      </trkpt>
      <trkpt lat="47.98998" lon="5.94866">
        <ele>322</ele>
        <time>2022-05-23T04:16:49Z</time>
      </trkpt>
      <trkpt lat="47.98954" lon="5.94978">
        <ele>322</ele>
        <time>2022-05-23T04:17:05Z</time>
      </trkpt>
      <trkpt lat="47.98944" lon="5.9501">
        <ele>324</ele>
        <time>2022-05-23T04:17:09Z</time>
      </trkpt>
      <trkpt lat="47.98935" lon="5.95056">
        <ele>326</ele>
        <time>2022-05-23T04:17:15Z</time>
      </trkpt>
      <trkpt lat="47.98927" lon="5.95119">
        <ele>326</ele>
        <time>2022-05-23T04:17:22Z</time>
      </trkpt>
      <trkpt lat="47.98919" lon="5.95161">
        <ele>328</ele>
        <time>2022-05-23T04:17:27Z</time>
      </trkpt>
      <trkpt lat="47.98913" lon="5.95221">
        <ele>324</ele>
        <time>2022-05-23T04:17:35Z</time>
      </trkpt>
      <trkpt lat="47.98904" lon="5.95271">
        <ele>321</ele>
        <time>2022-05-23T04:17:41Z</time>
      </trkpt>
      <trkpt lat="47.98899" lon="5.95285">
        <ele>320</ele>
        <time>2022-05-23T04:17:43Z</time>
      </trkpt>
      <trkpt lat="47.98884" lon="5.95312">
        <ele>319</ele>
        <time>2022-05-23T04:17:47Z</time>
      </trkpt>
      <trkpt lat="47.9883" lon="5.95382">
        <ele>320</ele>
        <time>2022-05-23T04:18:00Z</time>
      </trkpt>
      <trkpt lat="47.98809" lon="5.95426">
        <ele>318</ele>
        <time>2022-05-23T04:18:06Z</time>
      </trkpt>
      <trkpt lat="47.98773" lon="5.95555">
        <ele>315</ele>
        <time>2022-05-23T04:18:23Z</time>
      </trkpt>
      <trkpt lat="47.98767" lon="5.95588">
        <ele>315</ele>
        <time>2022-05-23T04:18:27Z</time>
      </trkpt>
      <trkpt lat="47.98766" lon="5.95623">
        <ele>314</ele>
        <time>2022-05-23T04:18:31Z</time>
      </trkpt>
      <trkpt lat="47.9877" lon="5.95699">
        <ele>311</ele>
        <time>2022-05-23T04:18:40Z</time>
      </trkpt>
      <trkpt lat="47.98769" lon="5.95719">
        <ele>310</ele>
        <time>2022-05-23T04:18:42Z</time>
      </trkpt>
      <trkpt lat="47.98767" lon="5.95739">
        <ele>310</ele>
        <time>2022-05-23T04:18:45Z</time>
      </trkpt>
      <trkpt lat="47.98755" lon="5.95789">
        <ele>309</ele>
        <time>2022-05-23T04:18:51Z</time>
      </trkpt>
      <trkpt lat="47.98749" lon="5.95803">
        <ele>309</ele>
        <time>2022-05-23T04:18:53Z</time>
      </trkpt>
      <trkpt lat="47.98717" lon="5.95846">
        <ele>311</ele>
        <time>2022-05-23T04:19:01Z</time>
      </trkpt>
      <trkpt lat="47.98671" lon="5.9592">
        <ele>307</ele>
        <time>2022-05-23T04:19:13Z</time>
      </trkpt>
      <trkpt lat="47.9866" lon="5.95925">
        <ele>308</ele>
        <time>2022-05-23T04:19:15Z</time>
      </trkpt>
      <trkpt lat="47.98642" lon="5.95944">
        <ele>308</ele>
        <time>2022-05-23T04:19:19Z</time>
      </trkpt>
      <trkpt lat="47.98622" lon="5.95959">
        <ele>308</ele>
        <time>2022-05-23T04:19:23Z</time>
      </trkpt>
      <trkpt lat="47.98598" lon="5.95983">
        <ele>307</ele>
        <time>2022-05-23T04:19:28Z</time>
      </trkpt>
      <trkpt lat="47.98567" lon="5.96024">
        <ele>307</ele>
        <time>2022-05-23T04:19:35Z</time>
      </trkpt>
      <trkpt lat="47.98522" lon="5.96099">
        <ele>307</ele>
        <time>2022-05-23T04:19:47Z</time>
      </trkpt>
      <trkpt lat="47.9851" lon="5.96143">
        <ele>306</ele>
        <time>2022-05-23T04:19:53Z</time>
      </trkpt>
      <trkpt lat="47.98504" lon="5.96189">
        <ele>306</ele>
        <time>2022-05-23T04:19:58Z</time>
      </trkpt>
      <trkpt lat="47.985" lon="5.96256">
        <ele>309</ele>
        <time>2022-05-23T04:20:06Z</time>
      </trkpt>
      <trkpt lat="47.98504" lon="5.96287">
        <ele>310</ele>
        <time>2022-05-23T04:20:10Z</time>
      </trkpt>
      <trkpt lat="47.98507" lon="5.96347">
        <ele>311</ele>
        <time>2022-05-23T04:20:17Z</time>
      </trkpt>
      <trkpt lat="47.98507" lon="5.9639">
        <ele>311</ele>
        <time>2022-05-23T04:20:22Z</time>
      </trkpt>
      <trkpt lat="47.98505" lon="5.96404">
        <ele>312</ele>
        <time>2022-05-23T04:20:24Z</time>
      </trkpt>
      <trkpt lat="47.98508" lon="5.96528">
        <ele>310</ele>
        <time>2022-05-23T04:20:39Z</time>
      </trkpt>
      <trkpt lat="47.98513" lon="5.966">
        <ele>311</ele>
        <time>2022-05-23T04:20:48Z</time>
      </trkpt>
      <trkpt lat="47.98522" lon="5.96671">
        <ele>312</ele>
        <time>2022-05-23T04:20:56Z</time>
      </trkpt>
      <trkpt lat="47.98519" lon="5.96702">
        <ele>314</ele>
        <time>2022-05-23T04:21:00Z</time>
      </trkpt>
      <trkpt lat="47.98521" lon="5.96769">
        <ele>313</ele>
        <time>2022-05-23T04:21:08Z</time>
      </trkpt>
      <trkpt lat="47.98519" lon="5.96812">
        <ele>311</ele>
        <time>2022-05-23T04:21:13Z</time>
      </trkpt>
      <trkpt lat="47.98467" lon="5.96958">
        <ele>310</ele>
        <time>2022-05-23T04:21:33Z</time>
      </trkpt>
      <trkpt lat="47.98461" lon="5.96987">
        <ele>310</ele>
        <time>2022-05-23T04:21:36Z</time>
      </trkpt>
      <trkpt lat="47.98455" lon="5.97059">
        <ele>313</ele>
        <time>2022-05-23T04:21:45Z</time>
      </trkpt>
      <trkpt lat="47.98425" lon="5.97132">
        <ele>320</ele>
        <time>2022-05-23T04:21:55Z</time>
      </trkpt>
      <trkpt lat="47.98416" lon="5.97139">
        <ele>321</ele>
        <time>2022-05-23T04:21:57Z</time>
      </trkpt>
      <trkpt lat="47.98423" lon="5.97159">
        <ele>322</ele>
        <time>2022-05-23T04:22:00Z</time>
      </trkpt>
      <trkpt lat="47.98426" lon="5.97215">
        <ele>326</ele>
        <time>2022-05-23T04:22:06Z</time>
      </trkpt>
      <trkpt lat="47.98443" lon="5.97341">
        <ele>334</ele>
        <time>2022-05-23T04:22:22Z</time>
      </trkpt>
      <trkpt lat="47.9847" lon="5.97452">
        <ele>334</ele>
        <time>2022-05-23T04:22:36Z</time>
      </trkpt>
      <trkpt lat="47.98473" lon="5.97481">
        <ele>335</ele>
        <time>2022-05-23T04:22:39Z</time>
      </trkpt>
      <trkpt lat="47.9847" lon="5.97509">
        <ele>337</ele>
        <time>2022-05-23T04:22:43Z</time>
      </trkpt>
      <trkpt lat="47.9844" lon="5.97566">
        <ele>341</ele>
        <time>2022-05-23T04:22:51Z</time>
      </trkpt>
      <trkpt lat="47.98432" lon="5.97575">
        <ele>342</ele>
        <time>2022-05-23T04:22:53Z</time>
      </trkpt>
      <trkpt lat="47.98407" lon="5.97619">
        <ele>342</ele>
        <time>2022-05-23T04:23:00Z</time>
      </trkpt>
      <trkpt lat="47.98391" lon="5.9764">
        <ele>341</ele>
        <time>2022-05-23T04:23:04Z</time>
      </trkpt>
      <trkpt lat="47.9838" lon="5.9766">
        <ele>340</ele>
        <time>2022-05-23T04:23:07Z</time>
      </trkpt>
      <trkpt lat="47.9827" lon="5.97798">
        <ele>328</ele>
        <time>2022-05-23T04:23:32Z</time>
      </trkpt>
      <trkpt lat="47.98225" lon="5.97847">
        <ele>325</ele>
        <time>2022-05-23T04:23:42Z</time>
      </trkpt>
      <trkpt lat="47.9821" lon="5.97871">
        <ele>324</ele>
        <time>2022-05-23T04:23:46Z</time>
      </trkpt>
      <trkpt lat="47.98192" lon="5.97914">
        <ele>321</ele>
        <time>2022-05-23T04:23:52Z</time>
      </trkpt>
      <trkpt lat="47.98166" lon="5.9799">
        <ele>317</ele>
        <time>2022-05-23T04:24:02Z</time>
      </trkpt>
      <trkpt lat="47.98062" lon="5.9837">
        <ele>307</ele>
        <time>2022-05-23T04:24:51Z</time>
      </trkpt>
      <trkpt lat="47.98036" lon="5.98456">
        <ele>307</ele>
        <time>2022-05-23T04:25:02Z</time>
      </trkpt>
      <trkpt lat="47.9801" lon="5.98524">
        <ele>308</ele>
        <time>2022-05-23T04:25:12Z</time>
      </trkpt>
      <trkpt lat="47.97967" lon="5.98618">
        <ele>305</ele>
        <time>2022-05-23T04:25:25Z</time>
      </trkpt>
      <trkpt lat="47.97926" lon="5.98698">
        <ele>304</ele>
        <time>2022-05-23T04:25:37Z</time>
      </trkpt>
      <trkpt lat="47.97894" lon="5.98754">
        <ele>302</ele>
        <time>2022-05-23T04:25:46Z</time>
      </trkpt>
      <trkpt lat="47.97869" lon="5.98794">
        <ele>301</ele>
        <time>2022-05-23T04:25:53Z</time>
      </trkpt>
      <trkpt lat="47.97838" lon="5.9883">
        <ele>300</ele>
        <time>2022-05-23T04:26:00Z</time>
      </trkpt>
      <trkpt lat="47.97803" lon="5.98864">
        <ele>299</ele>
        <time>2022-05-23T04:26:07Z</time>
      </trkpt>
      <trkpt lat="47.97792" lon="5.98879">
        <ele>299</ele>
        <time>2022-05-23T04:26:10Z</time>
      </trkpt>
      <trkpt lat="47.97775" lon="5.98916">
        <ele>299</ele>
        <time>2022-05-23T04:26:15Z</time>
      </trkpt>
      <trkpt lat="47.97756" lon="5.98996">
        <ele>297</ele>
        <time>2022-05-23T04:26:25Z</time>
      </trkpt>
      <trkpt lat="47.97739" lon="5.99048">
        <ele>298</ele>
        <time>2022-05-23T04:26:32Z</time>
      </trkpt>
      <trkpt lat="47.9771" lon="5.99114">
        <ele>300</ele>
        <time>2022-05-23T04:26:41Z</time>
      </trkpt>
      <trkpt lat="47.97703" lon="5.99125">
        <ele>300</ele>
        <time>2022-05-23T04:26:43Z</time>
      </trkpt>
      <trkpt lat="47.9768" lon="5.99181">
        <ele>301</ele>
        <time>2022-05-23T04:26:51Z</time>
      </trkpt>
      <trkpt lat="47.97656" lon="5.9923">
        <ele>300</ele>
        <time>2022-05-23T04:26:58Z</time>
      </trkpt>
      <trkpt lat="47.97649" lon="5.99264">
        <ele>299</ele>
        <time>2022-05-23T04:27:03Z</time>
      </trkpt>
      <trkpt lat="47.9765" lon="5.99335">
        <ele>298</ele>
        <time>2022-05-23T04:27:11Z</time>
      </trkpt>
      <trkpt lat="47.97643" lon="5.99391">
        <ele>296</ele>
        <time>2022-05-23T04:27:18Z</time>
      </trkpt>
      <trkpt lat="47.97641" lon="5.99462">
        <ele>293</ele>
        <time>2022-05-23T04:27:26Z</time>
      </trkpt>
      <trkpt lat="47.97647" lon="5.99514">
        <ele>290</ele>
        <time>2022-05-23T04:27:33Z</time>
      </trkpt>
      <trkpt lat="47.97658" lon="5.99577">
        <ele>288</ele>
        <time>2022-05-23T04:27:40Z</time>
      </trkpt>
      <trkpt lat="47.97663" lon="5.99644">
        <ele>288</ele>
        <time>2022-05-23T04:27:48Z</time>
      </trkpt>
      <trkpt lat="47.97661" lon="5.99735">
        <ele>289</ele>
        <time>2022-05-23T04:27:59Z</time>
      </trkpt>
      <trkpt lat="47.9765" lon="5.99781">
        <ele>289</ele>
        <time>2022-05-23T04:28:05Z</time>
      </trkpt>
      <trkpt lat="47.97648" lon="5.99814">
        <ele>290</ele>
        <time>2022-05-23T04:28:09Z</time>
      </trkpt>
      <trkpt lat="47.97653" lon="5.99876">
        <ele>291</ele>
        <time>2022-05-23T04:28:16Z</time>
      </trkpt>
      <trkpt lat="47.97663" lon="5.99902">
        <ele>292</ele>
        <time>2022-05-23T04:28:20Z</time>
      </trkpt>
      <trkpt lat="47.97654" lon="5.99925">
        <ele>291</ele>
        <time>2022-05-23T04:28:23Z</time>
      </trkpt>
      <trkpt lat="47.97646" lon="5.99978">
        <ele>290</ele>
        <time>2022-05-23T04:28:30Z</time>
      </trkpt>
      <trkpt lat="47.97632" lon="6.00025">
        <ele>288</ele>
        <time>2022-05-23T04:28:36Z</time>
      </trkpt>
      <trkpt lat="47.97609" lon="6.00119">
        <ele>285</ele>
        <time>2022-05-23T04:28:48Z</time>
      </trkpt>
      <trkpt lat="47.97572" lon="6.00238">
        <ele>283</ele>
        <time>2022-05-23T04:29:03Z</time>
      </trkpt>
      <trkpt lat="47.97566" lon="6.00254">
        <ele>282</ele>
        <time>2022-05-23T04:29:05Z</time>
      </trkpt>
      <trkpt lat="47.97543" lon="6.00296">
        <ele>279</ele>
        <time>2022-05-23T04:29:12Z</time>
      </trkpt>
      <trkpt lat="47.97523" lon="6.0032">
        <ele>278</ele>
        <time>2022-05-23T04:29:17Z</time>
      </trkpt>
      <trkpt lat="47.97501" lon="6.0036">
        <ele>276</ele>
        <time>2022-05-23T04:29:23Z</time>
      </trkpt>
      <trkpt lat="47.97485" lon="6.00407">
        <ele>274</ele>
        <time>2022-05-23T04:29:29Z</time>
      </trkpt>
      <trkpt lat="47.97467" lon="6.00498">
        <ele>271</ele>
        <time>2022-05-23T04:29:40Z</time>
      </trkpt>
      <trkpt lat="47.97425" lon="6.00764">
        <ele>264</ele>
        <time>2022-05-23T04:30:13Z</time>
      </trkpt>
      <trkpt lat="47.97422" lon="6.00817">
        <ele>264</ele>
        <time>2022-05-23T04:30:19Z</time>
      </trkpt>
      <trkpt lat="47.97429" lon="6.0091">
        <ele>265</ele>
        <time>2022-05-23T04:30:30Z</time>
      </trkpt>
      <trkpt lat="47.97423" lon="6.00966">
        <ele>265</ele>
        <time>2022-05-23T04:30:37Z</time>
      </trkpt>
      <trkpt lat="47.97401" lon="6.0104">
        <ele>264</ele>
        <time>2022-05-23T04:30:47Z</time>
      </trkpt>
      <trkpt lat="47.97359" lon="6.01154">
        <ele>264</ele>
        <time>2022-05-23T04:31:02Z</time>
      </trkpt>
      <trkpt lat="47.97301" lon="6.01271">
        <ele>264</ele>
        <time>2022-05-23T04:31:20Z</time>
      </trkpt>
      <trkpt lat="47.97241" lon="6.01416">
        <ele>266</ele>
        <time>2022-05-23T04:31:40Z</time>
      </trkpt>
      <trkpt lat="47.9721" lon="6.01517">
        <ele>266</ele>
        <time>2022-05-23T04:31:53Z</time>
      </trkpt>
      <trkpt lat="47.97161" lon="6.01726">
        <ele>262</ele>
        <time>2022-05-23T04:32:19Z</time>
      </trkpt>
      <trkpt lat="47.97131" lon="6.01809">
        <ele>261</ele>
        <time>2022-05-23T04:32:31Z</time>
      </trkpt>
      <trkpt lat="47.97106" lon="6.01852">
        <ele>258</ele>
        <time>2022-05-23T04:32:37Z</time>
      </trkpt>
      <trkpt lat="47.97094" lon="6.01863">
        <ele>256</ele>
        <time>2022-05-23T04:32:40Z</time>
      </trkpt>
      <trkpt lat="47.97067" lon="6.01882">
        <ele>254</ele>
        <time>2022-05-23T04:32:45Z</time>
      </trkpt>
      <trkpt lat="47.97039" lon="6.01897">
        <ele>253</ele>
        <time>2022-05-23T04:32:51Z</time>
      </trkpt>
      <trkpt lat="47.96967" lon="6.01929">
        <ele>253</ele>
        <time>2022-05-23T04:33:04Z</time>
      </trkpt>
      <trkpt lat="47.96956" lon="6.01937">
        <ele>253</ele>
        <time>2022-05-23T04:33:06Z</time>
      </trkpt>
      <trkpt lat="47.9694" lon="6.0196">
        <ele>254</ele>
        <time>2022-05-23T04:33:10Z</time>
      </trkpt>
      <trkpt lat="47.96932" lon="6.01987">
        <ele>255</ele>
        <time>2022-05-23T04:33:14Z</time>
      </trkpt>
      <trkpt lat="47.96932" lon="6.0202">
        <ele>255</ele>
        <time>2022-05-23T04:33:18Z</time>
      </trkpt>
      <trkpt lat="47.96949" lon="6.02092">
        <ele>257</ele>
        <time>2022-05-23T04:33:27Z</time>
      </trkpt>
      <trkpt lat="47.96954" lon="6.0217">
        <ele>258</ele>
        <time>2022-05-23T04:33:36Z</time>
      </trkpt>
      <trkpt lat="47.96953" lon="6.02185">
        <ele>258</ele>
        <time>2022-05-23T04:33:38Z</time>
      </trkpt>
      <trkpt lat="47.96974" lon="6.02386">
        <ele>256</ele>
        <time>2022-05-23T04:34:02Z</time>
      </trkpt>
      <trkpt lat="47.96975" lon="6.02422">
        <ele>256</ele>
        <time>2022-05-23T04:34:06Z</time>
      </trkpt>
      <trkpt lat="47.96973" lon="6.02455">
        <ele>257</ele>
        <time>2022-05-23T04:34:10Z</time>
      </trkpt>
      <trkpt lat="47.96968" lon="6.02487">
        <ele>258</ele>
        <time>2022-05-23T04:34:14Z</time>
      </trkpt>
      <trkpt lat="47.9695" lon="6.0254">
        <ele>261</ele>
        <time>2022-05-23T04:34:21Z</time>
      </trkpt>
      <trkpt lat="47.96931" lon="6.02576">
        <ele>263</ele>
        <time>2022-05-23T04:34:27Z</time>
      </trkpt>
      <trkpt lat="47.96916" lon="6.02596">
        <ele>264</ele>
        <time>2022-05-23T04:34:30Z</time>
      </trkpt>
      <trkpt lat="47.96882" lon="6.02627">
        <ele>264</ele>
        <time>2022-05-23T04:34:37Z</time>
      </trkpt>
      <trkpt lat="47.96866" lon="6.02647">
        <ele>264</ele>
        <time>2022-05-23T04:34:41Z</time>
      </trkpt>
      <trkpt lat="47.96852" lon="6.02677">
        <ele>265</ele>
        <time>2022-05-23T04:34:45Z</time>
      </trkpt>
      <trkpt lat="47.96734" lon="6.02976">
        <ele>268</ele>
        <time>2022-05-23T04:35:27Z</time>
      </trkpt>
      <trkpt lat="47.96726" lon="6.03004">
        <ele>267</ele>
        <time>2022-05-23T04:35:30Z</time>
      </trkpt>
      <trkpt lat="47.96724" lon="6.03069">
        <ele>267</ele>
        <time>2022-05-23T04:35:38Z</time>
      </trkpt>
      <trkpt lat="47.96721" lon="6.03087">
        <ele>267</ele>
        <time>2022-05-23T04:35:40Z</time>
      </trkpt>
      <trkpt lat="47.96704" lon="6.03123">
        <ele>266</ele>
        <time>2022-05-23T04:35:46Z</time>
      </trkpt>
      <trkpt lat="47.96707" lon="6.03136">
        <ele>266</ele>
        <time>2022-05-23T04:35:47Z</time>
      </trkpt>
      <trkpt lat="47.96814" lon="6.03302">
        <ele>259</ele>
        <time>2022-05-23T04:36:15Z</time>
      </trkpt>
      <trkpt lat="47.96858" lon="6.03378">
        <ele>256</ele>
        <time>2022-05-23T04:36:27Z</time>
      </trkpt>
      <trkpt lat="47.9692" lon="6.03475">
        <ele>253</ele>
        <time>2022-05-23T04:36:43Z</time>
      </trkpt>
      <trkpt lat="47.96957" lon="6.03536">
        <ele>251</ele>
        <time>2022-05-23T04:36:52Z</time>
      </trkpt>
      <trkpt lat="47.9696" lon="6.03549">
        <ele>251</ele>
        <time>2022-05-23T04:36:54Z</time>
      </trkpt>
      <trkpt lat="47.96966" lon="6.03537">
        <ele>250</ele>
        <time>2022-05-23T04:36:56Z</time>
      </trkpt>
      <trkpt lat="47.96937" lon="6.03498">
        <ele>252</ele>
        <time>2022-05-23T04:37:03Z</time>
      </trkpt>
      <trkpt lat="47.96926" lon="6.03495">
        <ele>253</ele>
        <time>2022-05-23T04:37:05Z</time>
      </trkpt>
      <trkpt lat="47.96917" lon="6.03502">
        <ele>254</ele>
        <time>2022-05-23T04:37:07Z</time>
      </trkpt>
      <trkpt lat="47.96897" lon="6.03555">
        <ele>258</ele>
        <time>2022-05-23T04:37:14Z</time>
      </trkpt>
      <trkpt lat="47.96888" lon="6.03559">
        <ele>259</ele>
        <time>2022-05-23T04:37:16Z</time>
      </trkpt>
      <trkpt lat="47.96881" lon="6.0355">
        <ele>259</ele>
        <time>2022-05-23T04:37:17Z</time>
      </trkpt>
      <trkpt lat="47.96924" lon="6.03547">
        <ele>255</ele>
        <time>2022-05-23T04:37:25Z</time>
      </trkpt>
      <trkpt lat="47.96942" lon="6.03544">
        <ele>253</ele>
        <time>2022-05-23T04:37:28Z</time>
      </trkpt>
      <trkpt lat="47.96951" lon="6.03539">
        <ele>252</ele>
        <time>2022-05-23T04:37:30Z</time>
      </trkpt>
      <trkpt lat="47.96933" lon="6.0355">
        <ele>254</ele>
        <time>2022-05-23T04:37:33Z</time>
      </trkpt>
      <trkpt lat="47.96914" lon="6.03556">
        <ele>256</ele>
        <time>2022-05-23T04:37:37Z</time>
      </trkpt>
      <trkpt lat="47.96912" lon="6.03536">
        <ele>256</ele>
        <time>2022-05-23T04:37:39Z</time>
      </trkpt>
      <trkpt lat="47.96902" lon="6.03534">
        <ele>257</ele>
        <time>2022-05-23T04:37:41Z</time>
      </trkpt>
      <trkpt lat="47.96916" lon="6.03555">
        <ele>256</ele>
        <time>2022-05-23T04:37:44Z</time>
      </trkpt>
      <trkpt lat="47.96909" lon="6.0354">
        <ele>256</ele>
        <time>2022-05-23T04:37:47Z</time>
      </trkpt>
      <trkpt lat="47.96921" lon="6.03543">
        <ele>255</ele>
        <time>2022-05-23T04:37:49Z</time>
      </trkpt>
      <trkpt lat="47.96924" lon="6.0353">
        <ele>254</ele>
        <time>2022-05-23T04:37:50Z</time>
      </trkpt>
      <trkpt lat="47.96919" lon="6.03545">
        <ele>255</ele>
        <time>2022-05-23T04:37:52Z</time>
      </trkpt>
      <trkpt lat="47.96909" lon="6.03544">
        <ele>256</ele>
        <time>2022-05-23T04:37:54Z</time>
      </trkpt>
      <trkpt lat="47.96901" lon="6.0355">
        <ele>257</ele>
        <time>2022-05-23T04:37:56Z</time>
      </trkpt>
      <trkpt lat="47.96892" lon="6.03549">
        <ele>258</ele>
        <time>2022-05-23T04:37:57Z</time>
      </trkpt>
      <trkpt lat="47.96901" lon="6.03555">
        <ele>257</ele>
        <time>2022-05-23T04:37:59Z</time>
      </trkpt>
      <trkpt lat="47.96901" lon="6.03541">
        <ele>257</ele>
        <time>2022-05-23T04:38:01Z</time>
      </trkpt>
      <trkpt lat="47.96916" lon="6.03566">
        <ele>256</ele>
        <time>2022-05-23T04:38:05Z</time>
      </trkpt>
      <trkpt lat="47.96926" lon="6.03572">
        <ele>256</ele>
        <time>2022-05-23T04:38:07Z</time>
      </trkpt>
      <trkpt lat="47.96936" lon="6.03583">
        <ele>255</ele>
        <time>2022-05-23T04:38:09Z</time>
      </trkpt>
      <trkpt lat="47.96946" lon="6.03578">
        <ele>253</ele>
        <time>2022-05-23T04:38:11Z</time>
      </trkpt>
      <trkpt lat="47.96957" lon="6.03554">
        <ele>252</ele>
        <time>2022-05-23T04:38:14Z</time>
      </trkpt>
      <trkpt lat="47.96951" lon="6.03542">
        <ele>252</ele>
        <time>2022-05-23T04:38:16Z</time>
      </trkpt>
      <trkpt lat="47.9695" lon="6.03557">
        <ele>252</ele>
        <time>2022-05-23T04:38:18Z</time>
      </trkpt>
      <trkpt lat="47.96941" lon="6.03599">
        <ele>254</ele>
        <time>2022-05-23T04:38:23Z</time>
      </trkpt>
      <trkpt lat="47.96941" lon="6.03612">
        <ele>253</ele>
        <time>2022-05-23T04:38:25Z</time>
      </trkpt>
      <trkpt lat="47.96947" lon="6.0363">
        <ele>252</ele>
        <time>2022-05-23T04:38:27Z</time>
      </trkpt>
      <trkpt lat="47.96946" lon="6.03651">
        <ele>252</ele>
        <time>2022-05-23T04:38:30Z</time>
      </trkpt>
      <trkpt lat="47.96938" lon="6.03671">
        <ele>251</ele>
        <time>2022-05-23T04:38:32Z</time>
      </trkpt>
      <trkpt lat="47.96926" lon="6.03686">
        <ele>251</ele>
        <time>2022-05-23T04:38:35Z</time>
      </trkpt>
      <trkpt lat="47.96884" lon="6.03706">
        <ele>254</ele>
        <time>2022-05-23T04:38:43Z</time>
      </trkpt>
      <trkpt lat="47.96863" lon="6.03724">
        <ele>255</ele>
        <time>2022-05-23T04:38:47Z</time>
      </trkpt>
      <trkpt lat="47.96837" lon="6.0376">
        <ele>254</ele>
        <time>2022-05-23T04:38:54Z</time>
      </trkpt>
      <trkpt lat="47.9682" lon="6.03804">
        <ele>250</ele>
        <time>2022-05-23T04:39:00Z</time>
      </trkpt>
      <trkpt lat="47.96818" lon="6.03839">
        <ele>247</ele>
        <time>2022-05-23T04:39:04Z</time>
      </trkpt>
      <trkpt lat="47.96826" lon="6.03855">
        <ele>246</ele>
        <time>2022-05-23T04:39:06Z</time>
      </trkpt>
      <trkpt lat="47.96873" lon="6.03903">
        <ele>244</ele>
        <time>2022-05-23T04:39:16Z</time>
      </trkpt>
      <trkpt lat="47.96893" lon="6.0394">
        <ele>247</ele>
        <time>2022-05-23T04:39:22Z</time>
      </trkpt>
      <trkpt lat="47.96888" lon="6.03968">
        <ele>251</ele>
        <time>2022-05-23T04:39:25Z</time>
      </trkpt>
      <trkpt lat="47.96872" lon="6.03987">
        <ele>252</ele>
        <time>2022-05-23T04:39:29Z</time>
      </trkpt>
      <trkpt lat="47.96836" lon="6.04043">
        <ele>256</ele>
        <time>2022-05-23T04:39:38Z</time>
      </trkpt>
      <trkpt lat="47.96813" lon="6.04068">
        <ele>257</ele>
        <time>2022-05-23T04:39:43Z</time>
      </trkpt>
      <trkpt lat="47.96801" lon="6.04094">
        <ele>258</ele>
        <time>2022-05-23T04:39:47Z</time>
      </trkpt>
      <trkpt lat="47.96778" lon="6.04118">
        <ele>258</ele>
        <time>2022-05-23T04:39:52Z</time>
      </trkpt>
      <trkpt lat="47.96769" lon="6.04119">
        <ele>256</ele>
        <time>2022-05-23T04:39:54Z</time>
      </trkpt>
      <trkpt lat="47.96762" lon="6.04129">
        <ele>257</ele>
        <time>2022-05-23T04:39:55Z</time>
      </trkpt>
      <trkpt lat="47.96771" lon="6.04118">
        <ele>257</ele>
        <time>2022-05-23T04:39:58Z</time>
      </trkpt>
      <trkpt lat="47.96763" lon="6.04127">
        <ele>257</ele>
        <time>2022-05-23T04:39:59Z</time>
      </trkpt>
      <trkpt lat="47.96744" lon="6.0416">
        <ele>260</ele>
        <time>2022-05-23T04:40:04Z</time>
      </trkpt>
      <trkpt lat="47.96736" lon="6.04169">
        <ele>260</ele>
        <time>2022-05-23T04:40:06Z</time>
      </trkpt>
      <trkpt lat="47.96708" lon="6.04249">
        <ele>268</ele>
        <time>2022-05-23T04:40:17Z</time>
      </trkpt>
      <trkpt lat="47.96702" lon="6.04274">
        <ele>269</ele>
        <time>2022-05-23T04:40:20Z</time>
      </trkpt>
      <trkpt lat="47.967" lon="6.04287">
        <ele>270</ele>
        <time>2022-05-23T04:40:22Z</time>
      </trkpt>
      <trkpt lat="47.96702" lon="6.04318">
        <ele>272</ele>
        <time>2022-05-23T04:40:25Z</time>
      </trkpt>
      <trkpt lat="47.96706" lon="6.04333">
        <ele>273</ele>
        <time>2022-05-23T04:40:27Z</time>
      </trkpt>
      <trkpt lat="47.96722" lon="6.04369">
        <ele>275</ele>
        <time>2022-05-23T04:40:33Z</time>
      </trkpt>
      <trkpt lat="47.96738" lon="6.04385">
        <ele>276</ele>
        <time>2022-05-23T04:40:36Z</time>
      </trkpt>
      <trkpt lat="47.96752" lon="6.04406">
        <ele>278</ele>
        <time>2022-05-23T04:40:40Z</time>
      </trkpt>
      <trkpt lat="47.96754" lon="6.0442">
        <ele>278</ele>
        <time>2022-05-23T04:40:41Z</time>
      </trkpt>
      <trkpt lat="47.9673" lon="6.04514">
        <ele>281</ele>
        <time>2022-05-23T04:40:53Z</time>
      </trkpt>
      <trkpt lat="47.96713" lon="6.04563">
        <ele>283</ele>
        <time>2022-05-23T04:41:00Z</time>
      </trkpt>
      <trkpt lat="47.96703" lon="6.04589">
        <ele>284</ele>
        <time>2022-05-23T04:41:03Z</time>
      </trkpt>
      <trkpt lat="47.96683" lon="6.04627">
        <ele>286</ele>
        <time>2022-05-23T04:41:09Z</time>
      </trkpt>
      <trkpt lat="47.96649" lon="6.0472">
        <ele>287</ele>
        <time>2022-05-23T04:41:22Z</time>
      </trkpt>
      <trkpt lat="47.96639" lon="6.04769">
        <ele>287</ele>
        <time>2022-05-23T04:41:28Z</time>
      </trkpt>
      <trkpt lat="47.96626" lon="6.04869">
        <ele>288</ele>
        <time>2022-05-23T04:41:40Z</time>
      </trkpt>
      <trkpt lat="47.96619" lon="6.04901">
        <ele>289</ele>
        <time>2022-05-23T04:41:44Z</time>
      </trkpt>
      <trkpt lat="47.96616" lon="6.04934">
        <ele>290</ele>
        <time>2022-05-23T04:41:48Z</time>
      </trkpt>
      <trkpt lat="47.96587" lon="6.0511">
        <ele>292</ele>
        <time>2022-05-23T04:42:10Z</time>
      </trkpt>
      <trkpt lat="47.96586" lon="6.05142">
        <ele>294</ele>
        <time>2022-05-23T04:42:13Z</time>
      </trkpt>
      <trkpt lat="47.96576" lon="6.05215">
        <ele>297</ele>
        <time>2022-05-23T04:42:22Z</time>
      </trkpt>
      <trkpt lat="47.96544" lon="6.05401">
        <ele>301</ele>
        <time>2022-05-23T04:42:45Z</time>
      </trkpt>
      <trkpt lat="47.96527" lon="6.05596">
        <ele>294</ele>
        <time>2022-05-23T04:43:09Z</time>
      </trkpt>
      <trkpt lat="47.96513" lon="6.05725">
        <ele>287</ele>
        <time>2022-05-23T04:43:24Z</time>
      </trkpt>
      <trkpt lat="47.96506" lon="6.05805">
        <ele>285</ele>
        <time>2022-05-23T04:43:34Z</time>
      </trkpt>
      <trkpt lat="47.96506" lon="6.05831">
        <ele>284</ele>
        <time>2022-05-23T04:43:37Z</time>
      </trkpt>
      <trkpt lat="47.96511" lon="6.05923">
        <ele>281</ele>
        <time>2022-05-23T04:43:48Z</time>
      </trkpt>
      <trkpt lat="47.96537" lon="6.06152">
        <ele>285</ele>
        <time>2022-05-23T04:44:15Z</time>
      </trkpt>
      <trkpt lat="47.9654" lon="6.0626">
        <ele>290</ele>
        <time>2022-05-23T04:44:28Z</time>
      </trkpt>
      <trkpt lat="47.9654" lon="6.06409">
        <ele>292</ele>
        <time>2022-05-23T04:44:46Z</time>
      </trkpt>
      <trkpt lat="47.96544" lon="6.06483">
        <ele>291</ele>
        <time>2022-05-23T04:44:55Z</time>
      </trkpt>
      <trkpt lat="47.96559" lon="6.06623">
        <ele>288</ele>
        <time>2022-05-23T04:45:12Z</time>
      </trkpt>
      <trkpt lat="47.96567" lon="6.06671">
        <ele>286</ele>
        <time>2022-05-23T04:45:18Z</time>
      </trkpt>
      <trkpt lat="47.96579" lon="6.06772">
        <ele>280</ele>
        <time>2022-05-23T04:45:30Z</time>
      </trkpt>
      <trkpt lat="47.9658" lon="6.06811">
        <ele>279</ele>
        <time>2022-05-23T04:45:35Z</time>
      </trkpt>
      <trkpt lat="47.96571" lon="6.06868">
        <ele>277</ele>
        <time>2022-05-23T04:45:42Z</time>
      </trkpt>
      <trkpt lat="47.96539" lon="6.07025">
        <ele>274</ele>
        <time>2022-05-23T04:46:01Z</time>
      </trkpt>
      <trkpt lat="47.96477" lon="6.07248">
        <ele>271</ele>
        <time>2022-05-23T04:46:30Z</time>
      </trkpt>
      <trkpt lat="47.96461" lon="6.07284">
        <ele>269</ele>
        <time>2022-05-23T04:46:35Z</time>
      </trkpt>
      <trkpt lat="47.96397" lon="6.07393">
        <ele>262</ele>
        <time>2022-05-23T04:46:52Z</time>
      </trkpt>
      <trkpt lat="47.96365" lon="6.07456">
        <ele>259</ele>
        <time>2022-05-23T04:47:02Z</time>
      </trkpt>
      <trkpt lat="47.96234" lon="6.07808">
        <ele>246</ele>
        <time>2022-05-23T04:47:50Z</time>
      </trkpt>
      <trkpt lat="47.96168" lon="6.07961">
        <ele>246</ele>
        <time>2022-05-23T04:48:11Z</time>
      </trkpt>
      <trkpt lat="47.96149" lon="6.08">
        <ele>247</ele>
        <time>2022-05-23T04:48:17Z</time>
      </trkpt>
      <trkpt lat="47.96127" lon="6.08053">
        <ele>249</ele>
        <time>2022-05-23T04:48:25Z</time>
      </trkpt>
      <trkpt lat="47.9612" lon="6.08081">
        <ele>250</ele>
        <time>2022-05-23T04:48:28Z</time>
      </trkpt>
      <trkpt lat="47.96119" lon="6.08112">
        <ele>249</ele>
        <time>2022-05-23T04:48:32Z</time>
      </trkpt>
      <trkpt lat="47.96122" lon="6.08181">
        <ele>247</ele>
        <time>2022-05-23T04:48:40Z</time>
      </trkpt>
      <trkpt lat="47.96126" lon="6.08216">
        <ele>245</ele>
        <time>2022-05-23T04:48:44Z</time>
      </trkpt>
      <trkpt lat="47.96139" lon="6.08296">
        <ele>243</ele>
        <time>2022-05-23T04:48:54Z</time>
      </trkpt>
      <trkpt lat="47.96165" lon="6.0841">
        <ele>240</ele>
        <time>2022-05-23T04:49:08Z</time>
      </trkpt>
      <trkpt lat="47.96174" lon="6.08484">
        <ele>239</ele>
        <time>2022-05-23T04:49:17Z</time>
      </trkpt>
      <trkpt lat="47.96182" lon="6.08534">
        <ele>239</ele>
        <time>2022-05-23T04:49:24Z</time>
      </trkpt>
      <trkpt lat="47.96186" lon="6.08546">
        <ele>239</ele>
        <time>2022-05-23T04:49:25Z</time>
      </trkpt>
      <trkpt lat="47.96198" lon="6.08643">
        <ele>239</ele>
        <time>2022-05-23T04:49:37Z</time>
      </trkpt>
      <trkpt lat="47.9619" lon="6.08659">
        <ele>238</ele>
        <time>2022-05-23T04:49:39Z</time>
      </trkpt>
      <trkpt lat="47.9618" lon="6.08663">
        <ele>238</ele>
        <time>2022-05-23T04:49:41Z</time>
      </trkpt>
      <trkpt lat="47.96171" lon="6.0867">
        <ele>237</ele>
        <time>2022-05-23T04:49:43Z</time>
      </trkpt>
      <trkpt lat="47.9616" lon="6.0867">
        <ele>237</ele>
        <time>2022-05-23T04:49:45Z</time>
      </trkpt>
      <trkpt lat="47.96152" lon="6.08678">
        <ele>237</ele>
        <time>2022-05-23T04:49:47Z</time>
      </trkpt>
      <trkpt lat="47.96159" lon="6.08808">
        <ele>238</ele>
        <time>2022-05-23T04:50:02Z</time>
      </trkpt>
      <trkpt lat="47.96165" lon="6.08991">
        <ele>237</ele>
        <time>2022-05-23T04:50:24Z</time>
      </trkpt>
      <trkpt lat="47.96164" lon="6.09097">
        <ele>237</ele>
        <time>2022-05-23T04:50:37Z</time>
      </trkpt>
      <trkpt lat="47.96158" lon="6.09198">
        <ele>241</ele>
        <time>2022-05-23T04:50:49Z</time>
      </trkpt>
      <trkpt lat="47.9612" lon="6.09496">
        <ele>241</ele>
        <time>2022-05-23T04:51:25Z</time>
      </trkpt>
      <trkpt lat="47.96113" lon="6.09593">
        <ele>243</ele>
        <time>2022-05-23T04:51:36Z</time>
      </trkpt>
      <trkpt lat="47.96098" lon="6.09694">
        <ele>242</ele>
        <time>2022-05-23T04:51:49Z</time>
      </trkpt>
      <trkpt lat="47.96089" lon="6.09784">
        <ele>240</ele>
        <time>2022-05-23T04:52:00Z</time>
      </trkpt>
      <trkpt lat="47.96079" lon="6.09845">
        <ele>241</ele>
        <time>2022-05-23T04:52:07Z</time>
      </trkpt>
      <trkpt lat="47.96063" lon="6.09852">
        <ele>241</ele>
        <time>2022-05-23T04:52:10Z</time>
      </trkpt>
      <trkpt lat="47.96042" lon="6.09945">
        <ele>243</ele>
        <time>2022-05-23T04:52:22Z</time>
      </trkpt>
      <trkpt lat="47.96022" lon="6.10004">
        <ele>245</ele>
        <time>2022-05-23T04:52:30Z</time>
      </trkpt>
      <trkpt lat="47.96017" lon="6.10036">
        <ele>245</ele>
        <time>2022-05-23T04:52:34Z</time>
      </trkpt>
      <trkpt lat="47.95982" lon="6.10176">
        <ele>246</ele>
        <time>2022-05-23T04:52:51Z</time>
      </trkpt>
      <trkpt lat="47.95956" lon="6.10261">
        <ele>249</ele>
        <time>2022-05-23T04:53:03Z</time>
      </trkpt>
      <trkpt lat="47.95939" lon="6.10332">
        <ele>249</ele>
        <time>2022-05-23T04:53:11Z</time>
      </trkpt>
      <trkpt lat="47.9593" lon="6.10383">
        <ele>250</ele>
        <time>2022-05-23T04:53:18Z</time>
      </trkpt>
      <trkpt lat="47.9593" lon="6.10401">
        <ele>251</ele>
        <time>2022-05-23T04:53:20Z</time>
      </trkpt>
      <trkpt lat="47.95926" lon="6.10416">
        <ele>251</ele>
        <time>2022-05-23T04:53:22Z</time>
      </trkpt>
      <trkpt lat="47.95913" lon="6.10506">
        <ele>251</ele>
        <time>2022-05-23T04:53:33Z</time>
      </trkpt>
      <trkpt lat="47.95909" lon="6.10551">
        <ele>251</ele>
        <time>2022-05-23T04:53:38Z</time>
      </trkpt>
      <trkpt lat="47.95895" lon="6.1065">
        <ele>252</ele>
        <time>2022-05-23T04:53:50Z</time>
      </trkpt>
      <trkpt lat="47.95888" lon="6.10725">
        <ele>253</ele>
        <time>2022-05-23T04:53:59Z</time>
      </trkpt>
      <trkpt lat="47.95887" lon="6.10785">
        <ele>252</ele>
        <time>2022-05-23T04:54:06Z</time>
      </trkpt>
      <trkpt lat="47.95902" lon="6.10905">
        <ele>250</ele>
        <time>2022-05-23T04:54:21Z</time>
      </trkpt>
      <trkpt lat="47.9593" lon="6.11072">
        <ele>248</ele>
        <time>2022-05-23T04:54:42Z</time>
      </trkpt>
      <trkpt lat="47.95951" lon="6.11243">
        <ele>248</ele>
        <time>2022-05-23T04:55:02Z</time>
      </trkpt>
      <trkpt lat="47.95953" lon="6.11272">
        <ele>248</ele>
        <time>2022-05-23T04:55:06Z</time>
      </trkpt>
      <trkpt lat="47.95951" lon="6.11324">
        <ele>247</ele>
        <time>2022-05-23T04:55:12Z</time>
      </trkpt>
      <trkpt lat="47.95955" lon="6.11367">
        <ele>248</ele>
        <time>2022-05-23T04:55:17Z</time>
      </trkpt>
      <trkpt lat="47.95952" lon="6.11402">
        <ele>249</ele>
        <time>2022-05-23T04:55:21Z</time>
      </trkpt>
      <trkpt lat="47.95955" lon="6.11431">
        <ele>250</ele>
        <time>2022-05-23T04:55:25Z</time>
      </trkpt>
      <trkpt lat="47.95954" lon="6.11447">
        <ele>250</ele>
        <time>2022-05-23T04:55:27Z</time>
      </trkpt>
      <trkpt lat="47.9596" lon="6.11475">
        <ele>251</ele>
        <time>2022-05-23T04:55:30Z</time>
      </trkpt>
      <trkpt lat="47.9596" lon="6.1152">
        <ele>251</ele>
        <time>2022-05-23T04:55:36Z</time>
      </trkpt>
      <trkpt lat="47.95966" lon="6.11534">
        <ele>251</ele>
        <time>2022-05-23T04:55:38Z</time>
      </trkpt>
      <trkpt lat="47.95963" lon="6.11576">
        <ele>251</ele>
        <time>2022-05-23T04:55:43Z</time>
      </trkpt>
      <trkpt lat="47.95968" lon="6.11609">
        <ele>250</ele>
        <time>2022-05-23T04:55:47Z</time>
      </trkpt>
      <trkpt lat="47.95967" lon="6.11628">
        <ele>249</ele>
        <time>2022-05-23T04:55:49Z</time>
      </trkpt>
      <trkpt lat="47.95971" lon="6.11688">
        <ele>247</ele>
        <time>2022-05-23T04:55:56Z</time>
      </trkpt>
      <trkpt lat="47.95966" lon="6.11715">
        <ele>247</ele>
        <time>2022-05-23T04:55:59Z</time>
      </trkpt>
      <trkpt lat="47.95968" lon="6.1173">
        <ele>246</ele>
        <time>2022-05-23T04:56:01Z</time>
      </trkpt>
      <trkpt lat="47.95965" lon="6.11746">
        <ele>246</ele>
        <time>2022-05-23T04:56:03Z</time>
      </trkpt>
      <trkpt lat="47.95966" lon="6.11763">
        <ele>246</ele>
        <time>2022-05-23T04:56:05Z</time>
      </trkpt>
      <trkpt lat="47.95936" lon="6.11972">
        <ele>246</ele>
        <time>2022-05-23T04:56:31Z</time>
      </trkpt>
      <trkpt lat="47.95928" lon="6.12048">
        <ele>243</ele>
        <time>2022-05-23T04:56:40Z</time>
      </trkpt>
      <trkpt lat="47.95917" lon="6.12112">
        <ele>242</ele>
        <time>2022-05-23T04:56:48Z</time>
      </trkpt>
      <trkpt lat="47.959" lon="6.12171">
        <ele>243</ele>
        <time>2022-05-23T04:56:55Z</time>
      </trkpt>
      <trkpt lat="47.95896" lon="6.12199">
        <ele>243</ele>
        <time>2022-05-23T04:56:59Z</time>
      </trkpt>
      <trkpt lat="47.95865" lon="6.123">
        <ele>242</ele>
        <time>2022-05-23T04:57:12Z</time>
      </trkpt>
      <trkpt lat="47.95846" lon="6.12382">
        <ele>241</ele>
        <time>2022-05-23T04:57:22Z</time>
      </trkpt>
      <trkpt lat="47.95838" lon="6.12451">
        <ele>241</ele>
        <time>2022-05-23T04:57:31Z</time>
      </trkpt>
      <trkpt lat="47.9583" lon="6.12481">
        <ele>242</ele>
        <time>2022-05-23T04:57:35Z</time>
      </trkpt>
      <trkpt lat="47.95816" lon="6.12576">
        <ele>242</ele>
        <time>2022-05-23T04:57:46Z</time>
      </trkpt>
      <trkpt lat="47.95793" lon="6.12687">
        <ele>241</ele>
        <time>2022-05-23T04:58:00Z</time>
      </trkpt>
      <trkpt lat="47.95783" lon="6.12797">
        <ele>243</ele>
        <time>2022-05-23T04:58:13Z</time>
      </trkpt>
      <trkpt lat="47.95775" lon="6.12824">
        <ele>243</ele>
        <time>2022-05-23T04:58:17Z</time>
      </trkpt>
      <trkpt lat="47.95765" lon="6.12873">
        <ele>244</ele>
        <time>2022-05-23T04:58:23Z</time>
      </trkpt>
      <trkpt lat="47.95761" lon="6.12939">
        <ele>244</ele>
        <time>2022-05-23T04:58:31Z</time>
      </trkpt>
      <trkpt lat="47.95763" lon="6.1297">
        <ele>244</ele>
        <time>2022-05-23T04:58:34Z</time>
      </trkpt>
      <trkpt lat="47.95777" lon="6.13072">
        <ele>245</ele>
        <time>2022-05-23T04:58:47Z</time>
      </trkpt>
      <trkpt lat="47.95773" lon="6.13155">
        <ele>246</ele>
        <time>2022-05-23T04:58:57Z</time>
      </trkpt>
      <trkpt lat="47.95776" lon="6.13221">
        <ele>246</ele>
        <time>2022-05-23T04:59:05Z</time>
      </trkpt>
      <trkpt lat="47.95775" lon="6.13312">
        <ele>248</ele>
        <time>2022-05-23T04:59:16Z</time>
      </trkpt>
      <trkpt lat="47.95787" lon="6.13476">
        <ele>247</ele>
        <time>2022-05-23T04:59:35Z</time>
      </trkpt>
      <trkpt lat="47.95797" lon="6.13558">
        <ele>247</ele>
        <time>2022-05-23T04:59:45Z</time>
      </trkpt>
      <trkpt lat="47.95804" lon="6.13595">
        <ele>248</ele>
        <time>2022-05-23T04:59:50Z</time>
      </trkpt>
      <trkpt lat="47.95818" lon="6.13648">
        <ele>250</ele>
        <time>2022-05-23T04:59:56Z</time>
      </trkpt>
      <trkpt lat="47.9585" lon="6.13734">
        <ele>251</ele>
        <time>2022-05-23T05:00:08Z</time>
      </trkpt>
      <trkpt lat="47.95878" lon="6.13798">
        <ele>253</ele>
        <time>2022-05-23T05:00:17Z</time>
      </trkpt>
      <trkpt lat="47.95893" lon="6.1384">
        <ele>252</ele>
        <time>2022-05-23T05:00:23Z</time>
      </trkpt>
      <trkpt lat="47.95905" lon="6.13864">
        <ele>252</ele>
        <time>2022-05-23T05:00:27Z</time>
      </trkpt>
      <trkpt lat="47.95983" lon="6.14067">
        <ele>254</ele>
        <time>2022-05-23T05:00:54Z</time>
      </trkpt>
      <trkpt lat="47.96076" lon="6.14289">
        <ele>256</ele>
        <time>2022-05-23T05:01:26Z</time>
      </trkpt>
      <trkpt lat="47.96096" lon="6.14345">
        <ele>255</ele>
        <time>2022-05-23T05:01:33Z</time>
      </trkpt>
      <trkpt lat="47.96114" lon="6.14381">
        <ele>261</ele>
        <time>2022-05-23T05:01:39Z</time>
      </trkpt>
      <trkpt lat="47.96152" lon="6.14491">
        <ele>258</ele>
        <time>2022-05-23T05:01:53Z</time>
      </trkpt>
      <trkpt lat="47.96162" lon="6.14537">
        <ele>254</ele>
        <time>2022-05-23T05:01:59Z</time>
      </trkpt>
      <trkpt lat="47.96181" lon="6.14608">
        <ele>253</ele>
        <time>2022-05-23T05:02:08Z</time>
      </trkpt>
      <trkpt lat="47.96187" lon="6.14623">
        <ele>254</ele>
        <time>2022-05-23T05:02:10Z</time>
      </trkpt>
      <trkpt lat="47.96193" lon="6.14654">
        <ele>254</ele>
        <time>2022-05-23T05:02:14Z</time>
      </trkpt>
      <trkpt lat="47.9621" lon="6.14714">
        <ele>255</ele>
        <time>2022-05-23T05:02:22Z</time>
      </trkpt>
      <trkpt lat="47.96225" lon="6.14803">
        <ele>252</ele>
        <time>2022-05-23T05:02:33Z</time>
      </trkpt>
      <trkpt lat="47.96229" lon="6.14849">
        <ele>251</ele>
        <time>2022-05-23T05:02:38Z</time>
      </trkpt>
      <trkpt lat="47.96236" lon="6.14878">
        <ele>251</ele>
        <time>2022-05-23T05:02:42Z</time>
      </trkpt>
      <trkpt lat="47.96244" lon="6.1494">
        <ele>251</ele>
        <time>2022-05-23T05:02:50Z</time>
      </trkpt>
      <trkpt lat="47.96262" lon="6.14999">
        <ele>250</ele>
        <time>2022-05-23T05:02:57Z</time>
      </trkpt>
      <trkpt lat="47.96304" lon="6.15183">
        <ele>252</ele>
        <time>2022-05-23T05:03:20Z</time>
      </trkpt>
      <trkpt lat="47.96312" lon="6.15225">
        <ele>252</ele>
        <time>2022-05-23T05:03:26Z</time>
      </trkpt>
      <trkpt lat="47.96315" lon="6.15255">
        <ele>252</ele>
        <time>2022-05-23T05:03:29Z</time>
      </trkpt>
      <trkpt lat="47.96326" lon="6.15296">
        <ele>252</ele>
        <time>2022-05-23T05:03:34Z</time>
      </trkpt>
      <trkpt lat="47.96326" lon="6.15342">
        <ele>254</ele>
        <time>2022-05-23T05:03:40Z</time>
      </trkpt>
      <trkpt lat="47.96335" lon="6.15384">
        <ele>255</ele>
        <time>2022-05-23T05:03:45Z</time>
      </trkpt>
      <trkpt lat="47.96368" lon="6.15478">
        <ele>259</ele>
        <time>2022-05-23T05:03:58Z</time>
      </trkpt>
      <trkpt lat="47.96377" lon="6.15492">
        <ele>258</ele>
        <time>2022-05-23T05:04:00Z</time>
      </trkpt>
      <trkpt lat="47.96398" lon="6.15511">
        <ele>257</ele>
        <time>2022-05-23T05:04:05Z</time>
      </trkpt>
      <trkpt lat="47.96423" lon="6.15514">
        <ele>253</ele>
        <time>2022-05-23T05:04:09Z</time>
      </trkpt>
      <trkpt lat="47.96436" lon="6.15509">
        <ele>252</ele>
        <time>2022-05-23T05:04:11Z</time>
      </trkpt>
      <trkpt lat="47.96457" lon="6.15491">
        <ele>250</ele>
        <time>2022-05-23T05:04:16Z</time>
      </trkpt>
      <trkpt lat="47.96469" lon="6.15465">
        <ele>249</ele>
        <time>2022-05-23T05:04:19Z</time>
      </trkpt>
      <trkpt lat="47.96476" lon="6.15436">
        <ele>248</ele>
        <time>2022-05-23T05:04:23Z</time>
      </trkpt>
      <trkpt lat="47.96476" lon="6.15408">
        <ele>247</ele>
        <time>2022-05-23T05:04:26Z</time>
      </trkpt>
      <trkpt lat="47.96489" lon="6.15301">
        <ele>252</ele>
        <time>2022-05-23T05:04:39Z</time>
      </trkpt>
      <trkpt lat="47.96502" lon="6.15132">
        <ele>259</ele>
        <time>2022-05-23T05:05:00Z</time>
      </trkpt>
      <trkpt lat="47.96523" lon="6.15024">
        <ele>257</ele>
        <time>2022-05-23T05:05:13Z</time>
      </trkpt>
      <trkpt lat="47.96541" lon="6.14981">
        <ele>256</ele>
        <time>2022-05-23T05:05:19Z</time>
      </trkpt>
      <trkpt lat="47.96558" lon="6.14958">
        <ele>255</ele>
        <time>2022-05-23T05:05:23Z</time>
      </trkpt>
      <trkpt lat="47.96578" lon="6.14945">
        <ele>253</ele>
        <time>2022-05-23T05:05:27Z</time>
      </trkpt>
      <trkpt lat="47.96609" lon="6.1493">
        <ele>251</ele>
        <time>2022-05-23T05:05:33Z</time>
      </trkpt>
      <trkpt lat="47.96651" lon="6.14921">
        <ele>250</ele>
        <time>2022-05-23T05:05:40Z</time>
      </trkpt>
      <trkpt lat="47.9667" lon="6.14922">
        <ele>249</ele>
        <time>2022-05-23T05:05:44Z</time>
      </trkpt>
      <trkpt lat="47.96689" lon="6.14918">
        <ele>249</ele>
        <time>2022-05-23T05:05:47Z</time>
      </trkpt>
      <trkpt lat="47.96699" lon="6.1492">
        <ele>250</ele>
        <time>2022-05-23T05:05:49Z</time>
      </trkpt>
      <trkpt lat="47.96842" lon="6.14924">
        <ele>252</ele>
        <time>2022-05-23T05:06:14Z</time>
      </trkpt>
      <trkpt lat="47.96888" lon="6.14933">
        <ele>252</ele>
        <time>2022-05-23T05:06:23Z</time>
      </trkpt>
      <trkpt lat="47.96912" lon="6.14934">
        <ele>252</ele>
        <time>2022-05-23T05:06:27Z</time>
      </trkpt>
      <trkpt lat="47.96979" lon="6.14963">
        <ele>254</ele>
        <time>2022-05-23T05:06:39Z</time>
      </trkpt>
      <trkpt lat="47.97014" lon="6.14988">
        <ele>253</ele>
        <time>2022-05-23T05:06:46Z</time>
      </trkpt>
      <trkpt lat="47.97023" lon="6.14997">
        <ele>253</ele>
        <time>2022-05-23T05:06:48Z</time>
      </trkpt>
      <trkpt lat="47.97064" lon="6.15046">
        <ele>255</ele>
        <time>2022-05-23T05:06:58Z</time>
      </trkpt>
      <trkpt lat="47.9708" lon="6.15077">
        <ele>253</ele>
        <time>2022-05-23T05:07:02Z</time>
      </trkpt>
      <trkpt lat="47.971" lon="6.15125">
        <ele>252</ele>
        <time>2022-05-23T05:07:09Z</time>
      </trkpt>
      <trkpt lat="47.97116" lon="6.15154">
        <ele>252</ele>
        <time>2022-05-23T05:07:13Z</time>
      </trkpt>
      <trkpt lat="47.97164" lon="6.15283">
        <ele>251</ele>
        <time>2022-05-23T05:07:31Z</time>
      </trkpt>
      <trkpt lat="47.97204" lon="6.15409">
        <ele>253</ele>
        <time>2022-05-23T05:07:48Z</time>
      </trkpt>
      <trkpt lat="47.97224" lon="6.15491">
        <ele>253</ele>
        <time>2022-05-23T05:07:58Z</time>
      </trkpt>
      <trkpt lat="47.9725" lon="6.15589">
        <ele>254</ele>
        <time>2022-05-23T05:08:11Z</time>
      </trkpt>
      <trkpt lat="47.97255" lon="6.156">
        <ele>254</ele>
        <time>2022-05-23T05:08:12Z</time>
      </trkpt>
      <trkpt lat="47.97286" lon="6.15721">
        <ele>253</ele>
        <time>2022-05-23T05:08:28Z</time>
      </trkpt>
      <trkpt lat="47.973" lon="6.15791">
        <ele>251</ele>
        <time>2022-05-23T05:08:36Z</time>
      </trkpt>
      <trkpt lat="47.97316" lon="6.15852">
        <ele>250</ele>
        <time>2022-05-23T05:08:44Z</time>
      </trkpt>
      <trkpt lat="47.97322" lon="6.15887">
        <ele>250</ele>
        <time>2022-05-23T05:08:48Z</time>
      </trkpt>
      <trkpt lat="47.97329" lon="6.15996">
        <ele>251</ele>
        <time>2022-05-23T05:09:01Z</time>
      </trkpt>
      <trkpt lat="47.97335" lon="6.16352">
        <ele>249</ele>
        <time>2022-05-23T05:09:44Z</time>
      </trkpt>
      <trkpt lat="47.97343" lon="6.16398">
        <ele>250</ele>
        <time>2022-05-23T05:09:50Z</time>
      </trkpt>
      <trkpt lat="47.97346" lon="6.16521">
        <ele>253</ele>
        <time>2022-05-23T05:10:04Z</time>
      </trkpt>
      <trkpt lat="47.97337" lon="6.16596">
        <ele>255</ele>
        <time>2022-05-23T05:10:13Z</time>
      </trkpt>
      <trkpt lat="47.97325" lon="6.16639">
        <ele>257</ele>
        <time>2022-05-23T05:10:19Z</time>
      </trkpt>
      <trkpt lat="47.9732" lon="6.16653">
        <ele>257</ele>
        <time>2022-05-23T05:10:21Z</time>
      </trkpt>
      <trkpt lat="47.97294" lon="6.16702">
        <ele>257</ele>
        <time>2022-05-23T05:10:28Z</time>
      </trkpt>
      <trkpt lat="47.97257" lon="6.16743">
        <ele>256</ele>
        <time>2022-05-23T05:10:36Z</time>
      </trkpt>
      <trkpt lat="47.97222" lon="6.16776">
        <ele>258</ele>
        <time>2022-05-23T05:10:44Z</time>
      </trkpt>
      <trkpt lat="47.9715" lon="6.1683">
        <ele>258</ele>
        <time>2022-05-23T05:10:58Z</time>
      </trkpt>
      <trkpt lat="47.97111" lon="6.16852">
        <ele>258</ele>
        <time>2022-05-23T05:11:05Z</time>
      </trkpt>
      <trkpt lat="47.97075" lon="6.16864">
        <ele>258</ele>
        <time>2022-05-23T05:11:12Z</time>
      </trkpt>
      <trkpt lat="47.97036" lon="6.16873">
        <ele>259</ele>
        <time>2022-05-23T05:11:19Z</time>
      </trkpt>
      <trkpt lat="47.96999" lon="6.16877">
        <ele>258</ele>
        <time>2022-05-23T05:11:26Z</time>
      </trkpt>
      <trkpt lat="47.9696" lon="6.16886">
        <ele>258</ele>
        <time>2022-05-23T05:11:33Z</time>
      </trkpt>
      <trkpt lat="47.96917" lon="6.16892">
        <ele>258</ele>
        <time>2022-05-23T05:11:40Z</time>
      </trkpt>
      <trkpt lat="47.96908" lon="6.16896">
        <ele>258</ele>
        <time>2022-05-23T05:11:42Z</time>
      </trkpt>
      <trkpt lat="47.96904" lon="6.1691">
        <ele>259</ele>
        <time>2022-05-23T05:11:44Z</time>
      </trkpt>
      <trkpt lat="47.96895" lon="6.16905">
        <ele>258</ele>
        <time>2022-05-23T05:11:46Z</time>
      </trkpt>
      <trkpt lat="47.96876" lon="6.1691">
        <ele>258</ele>
        <time>2022-05-23T05:11:49Z</time>
      </trkpt>
      <trkpt lat="47.96854" lon="6.16908">
        <ele>258</ele>
        <time>2022-05-23T05:11:53Z</time>
      </trkpt>
      <trkpt lat="47.96798" lon="6.16913">
        <ele>257</ele>
        <time>2022-05-23T05:12:03Z</time>
      </trkpt>
      <trkpt lat="47.96776" lon="6.16921">
        <ele>257</ele>
        <time>2022-05-23T05:12:07Z</time>
      </trkpt>
      <trkpt lat="47.96747" lon="6.16926">
        <ele>257</ele>
        <time>2022-05-23T05:12:12Z</time>
      </trkpt>
      <trkpt lat="47.96706" lon="6.16949">
        <ele>260</ele>
        <time>2022-05-23T05:12:20Z</time>
      </trkpt>
      <trkpt lat="47.96657" lon="6.1699">
        <ele>261</ele>
        <time>2022-05-23T05:12:30Z</time>
      </trkpt>
      <trkpt lat="47.96642" lon="6.1701">
        <ele>262</ele>
        <time>2022-05-23T05:12:34Z</time>
      </trkpt>
      <trkpt lat="47.96622" lon="6.17031">
        <ele>262</ele>
        <time>2022-05-23T05:12:38Z</time>
      </trkpt>
      <trkpt lat="47.96617" lon="6.17041">
        <ele>262</ele>
        <time>2022-05-23T05:12:39Z</time>
      </trkpt>
      <trkpt lat="47.96592" lon="6.17071">
        <ele>260</ele>
        <time>2022-05-23T05:12:45Z</time>
      </trkpt>
      <trkpt lat="47.96576" lon="6.17114">
        <ele>259</ele>
        <time>2022-05-23T05:12:51Z</time>
      </trkpt>
      <trkpt lat="47.96559" lon="6.17196">
        <ele>259</ele>
        <time>2022-05-23T05:13:01Z</time>
      </trkpt>
      <trkpt lat="47.96565" lon="6.17227">
        <ele>258</ele>
        <time>2022-05-23T05:13:05Z</time>
      </trkpt>
      <trkpt lat="47.96577" lon="6.17249">
        <ele>256</ele>
        <time>2022-05-23T05:13:08Z</time>
      </trkpt>
      <trkpt lat="47.96585" lon="6.17255">
        <ele>255</ele>
        <time>2022-05-23T05:13:10Z</time>
      </trkpt>
      <trkpt lat="47.96578" lon="6.17246">
        <ele>256</ele>
        <time>2022-05-23T05:13:12Z</time>
      </trkpt>
      <trkpt lat="47.96601" lon="6.17274">
        <ele>257</ele>
        <time>2022-05-23T05:13:17Z</time>
      </trkpt>
      <trkpt lat="47.96618" lon="6.17289">
        <ele>258</ele>
        <time>2022-05-23T05:13:20Z</time>
      </trkpt>
      <trkpt lat="47.96658" lon="6.17302">
        <ele>259</ele>
        <time>2022-05-23T05:13:28Z</time>
      </trkpt>
      <trkpt lat="47.96666" lon="6.17309">
        <ele>259</ele>
        <time>2022-05-23T05:13:29Z</time>
      </trkpt>
      <trkpt lat="47.96674" lon="6.17323">
        <ele>257</ele>
        <time>2022-05-23T05:13:32Z</time>
      </trkpt>
      <trkpt lat="47.96678" lon="6.17337">
        <ele>256</ele>
        <time>2022-05-23T05:13:33Z</time>
      </trkpt>
      <trkpt lat="47.96676" lon="6.17308">
        <ele>258</ele>
        <time>2022-05-23T05:13:37Z</time>
      </trkpt>
      <trkpt lat="47.96673" lon="6.17323">
        <ele>257</ele>
        <time>2022-05-23T05:13:39Z</time>
      </trkpt>
      <trkpt lat="47.9668" lon="6.17314">
        <ele>258</ele>
        <time>2022-05-23T05:13:40Z</time>
      </trkpt>
      <trkpt lat="47.9669" lon="6.17319">
        <ele>257</ele>
        <time>2022-05-23T05:13:42Z</time>
      </trkpt>
      <trkpt lat="47.9668" lon="6.17319">
        <ele>257</ele>
        <time>2022-05-23T05:13:44Z</time>
      </trkpt>
      <trkpt lat="47.96688" lon="6.1733">
        <ele>256</ele>
        <time>2022-05-23T05:13:46Z</time>
      </trkpt>
      <trkpt lat="47.96681" lon="6.17314">
        <ele>258</ele>
        <time>2022-05-23T05:13:48Z</time>
      </trkpt>
      <trkpt lat="47.96683" lon="6.17328">
        <ele>257</ele>
        <time>2022-05-23T05:13:50Z</time>
      </trkpt>
      <trkpt lat="47.9668" lon="6.17314">
        <ele>258</ele>
        <time>2022-05-23T05:13:52Z</time>
      </trkpt>
      <trkpt lat="47.96686" lon="6.17333">
        <ele>256</ele>
        <time>2022-05-23T05:13:54Z</time>
      </trkpt>
      <trkpt lat="47.9669" lon="6.1732">
        <ele>257</ele>
        <time>2022-05-23T05:13:56Z</time>
      </trkpt>
      <trkpt lat="47.9668" lon="6.17324">
        <ele>257</ele>
        <time>2022-05-23T05:13:58Z</time>
      </trkpt>
      <trkpt lat="47.96709" lon="6.17314">
        <ele>257</ele>
        <time>2022-05-23T05:14:03Z</time>
      </trkpt>
      <trkpt lat="47.96764" lon="6.17307">
        <ele>256</ele>
        <time>2022-05-23T05:14:13Z</time>
      </trkpt>
      <trkpt lat="47.9681" lon="6.17294">
        <ele>256</ele>
        <time>2022-05-23T05:14:21Z</time>
      </trkpt>
      <trkpt lat="47.96915" lon="6.17273">
        <ele>256</ele>
        <time>2022-05-23T05:14:40Z</time>
      </trkpt>
      <trkpt lat="47.96951" lon="6.1728">
        <ele>258</ele>
        <time>2022-05-23T05:14:46Z</time>
      </trkpt>
      <trkpt lat="47.96991" lon="6.17298">
        <ele>258</ele>
        <time>2022-05-23T05:14:54Z</time>
      </trkpt>
      <trkpt lat="47.97037" lon="6.17331">
        <ele>258</ele>
        <time>2022-05-23T05:15:03Z</time>
      </trkpt>
      <trkpt lat="47.97056" lon="6.17356">
        <ele>259</ele>
        <time>2022-05-23T05:15:07Z</time>
      </trkpt>
      <trkpt lat="47.97074" lon="6.17394">
        <ele>259</ele>
        <time>2022-05-23T05:15:13Z</time>
      </trkpt>
      <trkpt lat="47.9709" lon="6.17449">
        <ele>258</ele>
        <time>2022-05-23T05:15:20Z</time>
      </trkpt>
      <trkpt lat="47.97102" lon="6.17505">
        <ele>258</ele>
        <time>2022-05-23T05:15:27Z</time>
      </trkpt>
      <trkpt lat="47.97113" lon="6.17575">
        <ele>258</ele>
        <time>2022-05-23T05:15:36Z</time>
      </trkpt>
      <trkpt lat="47.97117" lon="6.17642">
        <ele>258</ele>
        <time>2022-05-23T05:15:44Z</time>
      </trkpt>
      <trkpt lat="47.97116" lon="6.17712">
        <ele>258</ele>
        <time>2022-05-23T05:15:52Z</time>
      </trkpt>
      <trkpt lat="47.97121" lon="6.17815">
        <ele>260</ele>
        <time>2022-05-23T05:16:04Z</time>
      </trkpt>
      <trkpt lat="47.97118" lon="6.18018">
        <ele>260</ele>
        <time>2022-05-23T05:16:29Z</time>
      </trkpt>
      <trkpt lat="47.97102" lon="6.18168">
        <ele>262</ele>
        <time>2022-05-23T05:16:47Z</time>
      </trkpt>
      <trkpt lat="47.97065" lon="6.18407">
        <ele>260</ele>
        <time>2022-05-23T05:17:16Z</time>
      </trkpt>
      <trkpt lat="47.97063" lon="6.18435">
        <ele>260</ele>
        <time>2022-05-23T05:17:19Z</time>
      </trkpt>
      <trkpt lat="47.97042" lon="6.18539">
        <ele>260</ele>
        <time>2022-05-23T05:17:32Z</time>
      </trkpt>
      <trkpt lat="47.97042" lon="6.18553">
        <ele>260</ele>
        <time>2022-05-23T05:17:34Z</time>
      </trkpt>
      <trkpt lat="47.97033" lon="6.18601">
        <ele>260</ele>
        <time>2022-05-23T05:17:40Z</time>
      </trkpt>
      <trkpt lat="47.97029" lon="6.18647">
        <ele>260</ele>
        <time>2022-05-23T05:17:45Z</time>
      </trkpt>
      <trkpt lat="47.97004" lon="6.188">
        <ele>259</ele>
        <time>2022-05-23T05:18:04Z</time>
      </trkpt>
      <trkpt lat="47.96971" lon="6.19053">
        <ele>259</ele>
        <time>2022-05-23T05:18:35Z</time>
      </trkpt>
      <trkpt lat="47.96963" lon="6.19153">
        <ele>262</ele>
        <time>2022-05-23T05:18:47Z</time>
      </trkpt>
      <trkpt lat="47.96964" lon="6.19171">
        <ele>262</ele>
        <time>2022-05-23T05:18:49Z</time>
      </trkpt>
      <trkpt lat="47.96976" lon="6.19235">
        <ele>261</ele>
        <time>2022-05-23T05:18:57Z</time>
      </trkpt>
      <trkpt lat="47.96987" lon="6.19276">
        <ele>261</ele>
        <time>2022-05-23T05:19:02Z</time>
      </trkpt>
      <trkpt lat="47.97016" lon="6.19342">
        <ele>260</ele>
        <time>2022-05-23T05:19:12Z</time>
      </trkpt>
      <trkpt lat="47.97033" lon="6.19366">
        <ele>262</ele>
        <time>2022-05-23T05:19:16Z</time>
      </trkpt>
      <trkpt lat="47.97068" lon="6.19405">
        <ele>260</ele>
        <time>2022-05-23T05:19:23Z</time>
      </trkpt>
      <trkpt lat="47.97097" lon="6.19431">
        <ele>258</ele>
        <time>2022-05-23T05:19:29Z</time>
      </trkpt>
      <trkpt lat="47.97108" lon="6.19438">
        <ele>259</ele>
        <time>2022-05-23T05:19:32Z</time>
      </trkpt>
      <trkpt lat="47.97127" lon="6.19458">
        <ele>259</ele>
        <time>2022-05-23T05:19:36Z</time>
      </trkpt>
      <trkpt lat="47.97159" lon="6.19483">
        <ele>257</ele>
        <time>2022-05-23T05:19:42Z</time>
      </trkpt>
      <trkpt lat="47.97179" lon="6.19503">
        <ele>256</ele>
        <time>2022-05-23T05:19:46Z</time>
      </trkpt>
      <trkpt lat="47.97192" lon="6.19511">
        <ele>256</ele>
        <time>2022-05-23T05:19:49Z</time>
      </trkpt>
      <trkpt lat="47.97272" lon="6.19574">
        <ele>257</ele>
        <time>2022-05-23T05:20:05Z</time>
      </trkpt>
      <trkpt lat="47.97273" lon="6.1959">
        <ele>256</ele>
        <time>2022-05-23T05:20:07Z</time>
      </trkpt>
      <trkpt lat="47.97262" lon="6.19616">
        <ele>257</ele>
        <time>2022-05-23T05:20:11Z</time>
      </trkpt>
      <trkpt lat="47.97261" lon="6.19637">
        <ele>258</ele>
        <time>2022-05-23T05:20:13Z</time>
      </trkpt>
      <trkpt lat="47.97266" lon="6.19649">
        <ele>258</ele>
        <time>2022-05-23T05:20:15Z</time>
      </trkpt>
      <trkpt lat="47.97295" lon="6.1968">
        <ele>258</ele>
        <time>2022-05-23T05:20:21Z</time>
      </trkpt>
      <trkpt lat="47.97322" lon="6.19704">
        <ele>257</ele>
        <time>2022-05-23T05:20:27Z</time>
      </trkpt>
      <trkpt lat="47.9734" lon="6.19729">
        <ele>257</ele>
        <time>2022-05-23T05:20:31Z</time>
      </trkpt>
      <trkpt lat="47.97357" lon="6.19766">
        <ele>258</ele>
        <time>2022-05-23T05:20:36Z</time>
      </trkpt>
      <trkpt lat="47.97358" lon="6.19796">
        <ele>259</ele>
        <time>2022-05-23T05:20:40Z</time>
      </trkpt>
      <trkpt lat="47.97364" lon="6.19809">
        <ele>259</ele>
        <time>2022-05-23T05:20:42Z</time>
      </trkpt>
      <trkpt lat="47.9737" lon="6.19837">
        <ele>260</ele>
        <time>2022-05-23T05:20:45Z</time>
      </trkpt>
      <trkpt lat="47.97379" lon="6.19841">
        <ele>259</ele>
        <time>2022-05-23T05:20:47Z</time>
      </trkpt>
      <trkpt lat="47.97383" lon="6.19856">
        <ele>260</ele>
        <time>2022-05-23T05:20:49Z</time>
      </trkpt>
      <trkpt lat="47.97395" lon="6.19878">
        <ele>260</ele>
        <time>2022-05-23T05:20:52Z</time>
      </trkpt>
      <trkpt lat="47.97406" lon="6.1992">
        <ele>261</ele>
        <time>2022-05-23T05:20:58Z</time>
      </trkpt>
      <trkpt lat="47.97425" lon="6.19972">
        <ele>260</ele>
        <time>2022-05-23T05:21:05Z</time>
      </trkpt>
      <trkpt lat="47.97441" lon="6.2001">
        <ele>260</ele>
        <time>2022-05-23T05:21:10Z</time>
      </trkpt>
      <trkpt lat="47.97479" lon="6.20067">
        <ele>258</ele>
        <time>2022-05-23T05:21:20Z</time>
      </trkpt>
      <trkpt lat="47.97487" lon="6.20075">
        <ele>257</ele>
        <time>2022-05-23T05:21:21Z</time>
      </trkpt>
      <trkpt lat="47.97504" lon="6.20057">
        <ele>257</ele>
        <time>2022-05-23T05:21:25Z</time>
      </trkpt>
      <trkpt lat="47.97522" lon="6.20049">
        <ele>258</ele>
        <time>2022-05-23T05:21:28Z</time>
      </trkpt>
      <trkpt lat="47.97532" lon="6.2004">
        <ele>258</ele>
        <time>2022-05-23T05:21:31Z</time>
      </trkpt>
      <trkpt lat="47.97543" lon="6.20042">
        <ele>259</ele>
        <time>2022-05-23T05:21:33Z</time>
      </trkpt>
      <trkpt lat="47.9756" lon="6.20056">
        <ele>259</ele>
        <time>2022-05-23T05:21:36Z</time>
      </trkpt>
      <trkpt lat="47.9757" lon="6.20057">
        <ele>259</ele>
        <time>2022-05-23T05:21:38Z</time>
      </trkpt>
      <trkpt lat="47.97597" lon="6.20078">
        <ele>261</ele>
        <time>2022-05-23T05:21:43Z</time>
      </trkpt>
      <trkpt lat="47.97607" lon="6.2008">
        <ele>263</ele>
        <time>2022-05-23T05:21:45Z</time>
      </trkpt>
      <trkpt lat="47.97616" lon="6.20086">
        <ele>264</ele>
        <time>2022-05-23T05:21:47Z</time>
      </trkpt>
      <trkpt lat="47.97632" lon="6.20104">
        <ele>266</ele>
        <time>2022-05-23T05:21:50Z</time>
      </trkpt>
      <trkpt lat="47.97659" lon="6.20128">
        <ele>268</ele>
        <time>2022-05-23T05:21:56Z</time>
      </trkpt>
      <trkpt lat="47.97666" lon="6.20139">
        <ele>268</ele>
        <time>2022-05-23T05:21:58Z</time>
      </trkpt>
      <trkpt lat="47.97676" lon="6.20165">
        <ele>268</ele>
        <time>2022-05-23T05:22:01Z</time>
      </trkpt>
      <trkpt lat="47.97696" lon="6.20197">
        <ele>269</ele>
        <time>2022-05-23T05:22:06Z</time>
      </trkpt>
      <trkpt lat="47.97717" lon="6.20238">
        <ele>268</ele>
        <time>2022-05-23T05:22:13Z</time>
      </trkpt>
      <trkpt lat="47.97742" lon="6.2032">
        <ele>266</ele>
        <time>2022-05-23T05:22:23Z</time>
      </trkpt>
      <trkpt lat="47.97814" lon="6.20515">
        <ele>270</ele>
        <time>2022-05-23T05:22:50Z</time>
      </trkpt>
      <trkpt lat="47.97819" lon="6.20544">
        <ele>269</ele>
        <time>2022-05-23T05:22:53Z</time>
      </trkpt>
      <trkpt lat="47.97826" lon="6.20626">
        <ele>265</ele>
        <time>2022-05-23T05:23:03Z</time>
      </trkpt>
      <trkpt lat="47.97831" lon="6.20727">
        <ele>262</ele>
        <time>2022-05-23T05:23:15Z</time>
      </trkpt>
      <trkpt lat="47.97826" lon="6.20775">
        <ele>262</ele>
        <time>2022-05-23T05:23:21Z</time>
      </trkpt>
      <trkpt lat="47.97825" lon="6.20839">
        <ele>263</ele>
        <time>2022-05-23T05:23:29Z</time>
      </trkpt>
      <trkpt lat="47.97815" lon="6.20917">
        <ele>261</ele>
        <time>2022-05-23T05:23:38Z</time>
      </trkpt>
      <trkpt lat="47.97808" lon="6.20945">
        <ele>261</ele>
        <time>2022-05-23T05:23:42Z</time>
      </trkpt>
      <trkpt lat="47.97777" lon="6.21117">
        <ele>261</ele>
        <time>2022-05-23T05:24:03Z</time>
      </trkpt>
      <trkpt lat="47.97772" lon="6.21188">
        <ele>262</ele>
        <time>2022-05-23T05:24:12Z</time>
      </trkpt>
      <trkpt lat="47.97774" lon="6.21237">
        <ele>263</ele>
        <time>2022-05-23T05:24:17Z</time>
      </trkpt>
      <trkpt lat="47.97782" lon="6.21292">
        <ele>266</ele>
        <time>2022-05-23T05:24:24Z</time>
      </trkpt>
      <trkpt lat="47.97801" lon="6.21353">
        <ele>269</ele>
        <time>2022-05-23T05:24:32Z</time>
      </trkpt>
      <trkpt lat="47.97811" lon="6.21414">
        <ele>268</ele>
        <time>2022-05-23T05:24:40Z</time>
      </trkpt>
      <trkpt lat="47.97821" lon="6.21443">
        <ele>268</ele>
        <time>2022-05-23T05:24:43Z</time>
      </trkpt>
      <trkpt lat="47.9784" lon="6.21484">
        <ele>269</ele>
        <time>2022-05-23T05:24:49Z</time>
      </trkpt>
      <trkpt lat="47.9785" lon="6.21514">
        <ele>270</ele>
        <time>2022-05-23T05:24:53Z</time>
      </trkpt>
      <trkpt lat="47.97868" lon="6.21555">
        <ele>270</ele>
        <time>2022-05-23T05:24:59Z</time>
      </trkpt>
      <trkpt lat="47.97887" lon="6.21587">
        <ele>270</ele>
        <time>2022-05-23T05:25:04Z</time>
      </trkpt>
      <trkpt lat="47.97905" lon="6.21608">
        <ele>270</ele>
        <time>2022-05-23T05:25:08Z</time>
      </trkpt>
      <trkpt lat="47.97944" lon="6.21636">
        <ele>271</ele>
        <time>2022-05-23T05:25:16Z</time>
      </trkpt>
      <trkpt lat="47.97976" lon="6.21636">
        <ele>275</ele>
        <time>2022-05-23T05:25:22Z</time>
      </trkpt>
      <trkpt lat="47.97986" lon="6.21638">
        <ele>276</ele>
        <time>2022-05-23T05:25:24Z</time>
      </trkpt>
      <trkpt lat="47.98005" lon="6.21649">
        <ele>275</ele>
        <time>2022-05-23T05:25:27Z</time>
      </trkpt>
      <trkpt lat="47.98014" lon="6.21651">
        <ele>276</ele>
        <time>2022-05-23T05:25:29Z</time>
      </trkpt>
      <trkpt lat="47.98053" lon="6.21673">
        <ele>276</ele>
        <time>2022-05-23T05:25:36Z</time>
      </trkpt>
      <trkpt lat="47.98099" lon="6.21706">
        <ele>277</ele>
        <time>2022-05-23T05:25:45Z</time>
      </trkpt>
      <trkpt lat="47.98127" lon="6.21738">
        <ele>277</ele>
        <time>2022-05-23T05:25:52Z</time>
      </trkpt>
      <trkpt lat="47.98152" lon="6.21774">
        <ele>277</ele>
        <time>2022-05-23T05:25:58Z</time>
      </trkpt>
      <trkpt lat="47.98166" lon="6.21799">
        <ele>275</ele>
        <time>2022-05-23T05:26:02Z</time>
      </trkpt>
      <trkpt lat="47.98176" lon="6.21826">
        <ele>274</ele>
        <time>2022-05-23T05:26:05Z</time>
      </trkpt>
      <trkpt lat="47.98184" lon="6.21837">
        <ele>274</ele>
        <time>2022-05-23T05:26:07Z</time>
      </trkpt>
      <trkpt lat="47.98187" lon="6.2185">
        <ele>274</ele>
        <time>2022-05-23T05:26:09Z</time>
      </trkpt>
      <trkpt lat="47.98194" lon="6.21862">
        <ele>274</ele>
        <time>2022-05-23T05:26:11Z</time>
      </trkpt>
      <trkpt lat="47.98212" lon="6.21934">
        <ele>270</ele>
        <time>2022-05-23T05:26:20Z</time>
      </trkpt>
      <trkpt lat="47.9824" lon="6.22003">
        <ele>271</ele>
        <time>2022-05-23T05:26:30Z</time>
      </trkpt>
      <trkpt lat="47.98255" lon="6.22072">
        <ele>272</ele>
        <time>2022-05-23T05:26:38Z</time>
      </trkpt>
      <trkpt lat="47.98256" lon="6.22087">
        <ele>272</ele>
        <time>2022-05-23T05:26:40Z</time>
      </trkpt>
      <trkpt lat="47.9824" lon="6.22193">
        <ele>275</ele>
        <time>2022-05-23T05:26:53Z</time>
      </trkpt>
      <trkpt lat="47.98236" lon="6.22208">
        <ele>274</ele>
        <time>2022-05-23T05:26:55Z</time>
      </trkpt>
      <trkpt lat="47.98233" lon="6.22282">
        <ele>275</ele>
        <time>2022-05-23T05:27:04Z</time>
      </trkpt>
      <trkpt lat="47.98227" lon="6.22327">
        <ele>274</ele>
        <time>2022-05-23T05:27:09Z</time>
      </trkpt>
      <trkpt lat="47.98229" lon="6.2237">
        <ele>272</ele>
        <time>2022-05-23T05:27:14Z</time>
      </trkpt>
      <trkpt lat="47.98242" lon="6.22425">
        <ele>270</ele>
        <time>2022-05-23T05:27:21Z</time>
      </trkpt>
      <trkpt lat="47.98258" lon="6.22449">
        <ele>270</ele>
        <time>2022-05-23T05:27:25Z</time>
      </trkpt>
      <trkpt lat="47.98263" lon="6.22464">
        <ele>270</ele>
        <time>2022-05-23T05:27:27Z</time>
      </trkpt>
      <trkpt lat="47.98269" lon="6.22473">
        <ele>270</ele>
        <time>2022-05-23T05:27:29Z</time>
      </trkpt>
      <trkpt lat="47.98288" lon="6.22493">
        <ele>271</ele>
        <time>2022-05-23T05:27:33Z</time>
      </trkpt>
      <trkpt lat="47.98306" lon="6.22508">
        <ele>271</ele>
        <time>2022-05-23T05:27:37Z</time>
      </trkpt>
      <trkpt lat="47.98328" lon="6.22517">
        <ele>272</ele>
        <time>2022-05-23T05:27:41Z</time>
      </trkpt>
      <trkpt lat="47.98338" lon="6.22525">
        <ele>272</ele>
        <time>2022-05-23T05:27:43Z</time>
      </trkpt>
      <trkpt lat="47.98347" lon="6.22524">
        <ele>273</ele>
        <time>2022-05-23T05:27:44Z</time>
      </trkpt>
      <trkpt lat="47.98366" lon="6.22514">
        <ele>276</ele>
        <time>2022-05-23T05:27:48Z</time>
      </trkpt>
      <trkpt lat="47.98357" lon="6.22523">
        <ele>273</ele>
        <time>2022-05-23T05:27:50Z</time>
      </trkpt>
      <trkpt lat="47.98363" lon="6.22508">
        <ele>276</ele>
        <time>2022-05-23T05:27:52Z</time>
      </trkpt>
      <trkpt lat="47.98346" lon="6.22531">
        <ele>271</ele>
        <time>2022-05-23T05:27:56Z</time>
      </trkpt>
      <trkpt lat="47.98355" lon="6.22538">
        <ele>271</ele>
        <time>2022-05-23T05:27:58Z</time>
      </trkpt>
      <trkpt lat="47.98397" lon="6.22558">
        <ele>270</ele>
        <time>2022-05-23T05:28:06Z</time>
      </trkpt>
      <trkpt lat="47.9843" lon="6.22577">
        <ele>269</ele>
        <time>2022-05-23T05:28:12Z</time>
      </trkpt>
      <trkpt lat="47.98467" lon="6.22589">
        <ele>269</ele>
        <time>2022-05-23T05:28:19Z</time>
      </trkpt>
      <trkpt lat="47.98595" lon="6.2265">
        <ele>271</ele>
        <time>2022-05-23T05:28:43Z</time>
      </trkpt>
      <trkpt lat="47.98647" lon="6.22678">
        <ele>270</ele>
        <time>2022-05-23T05:28:52Z</time>
      </trkpt>
      <trkpt lat="47.98668" lon="6.22684">
        <ele>270</ele>
        <time>2022-05-23T05:28:56Z</time>
      </trkpt>
      <trkpt lat="47.98677" lon="6.22692">
        <ele>270</ele>
        <time>2022-05-23T05:28:58Z</time>
      </trkpt>
      <trkpt lat="47.98701" lon="6.227">
        <ele>270</ele>
        <time>2022-05-23T05:29:02Z</time>
      </trkpt>
      <trkpt lat="47.98718" lon="6.22711">
        <ele>269</ele>
        <time>2022-05-23T05:29:06Z</time>
      </trkpt>
      <trkpt lat="47.98748" lon="6.22722">
        <ele>269</ele>
        <time>2022-05-23T05:29:11Z</time>
      </trkpt>
      <trkpt lat="47.98781" lon="6.22728">
        <ele>269</ele>
        <time>2022-05-23T05:29:17Z</time>
      </trkpt>
      <trkpt lat="47.98829" lon="6.22742">
        <ele>269</ele>
        <time>2022-05-23T05:29:26Z</time>
      </trkpt>
      <trkpt lat="47.98864" lon="6.22745">
        <ele>270</ele>
        <time>2022-05-23T05:29:32Z</time>
      </trkpt>
      <trkpt lat="47.98919" lon="6.22757">
        <ele>272</ele>
        <time>2022-05-23T05:29:42Z</time>
      </trkpt>
      <trkpt lat="47.98929" lon="6.22756">
        <ele>271</ele>
        <time>2022-05-23T05:29:44Z</time>
      </trkpt>
      <trkpt lat="47.98949" lon="6.2276">
        <ele>270</ele>
        <time>2022-05-23T05:29:47Z</time>
      </trkpt>
      <trkpt lat="47.9897" lon="6.22755">
        <ele>269</ele>
        <time>2022-05-23T05:29:51Z</time>
      </trkpt>
      <trkpt lat="47.99038" lon="6.22717">
        <ele>273</ele>
        <time>2022-05-23T05:30:04Z</time>
      </trkpt>
      <trkpt lat="47.99047" lon="6.22706">
        <ele>274</ele>
        <time>2022-05-23T05:30:06Z</time>
      </trkpt>
      <trkpt lat="47.99068" lon="6.2269">
        <ele>274</ele>
        <time>2022-05-23T05:30:10Z</time>
      </trkpt>
      <trkpt lat="47.99096" lon="6.22654">
        <ele>277</ele>
        <time>2022-05-23T05:30:17Z</time>
      </trkpt>
      <trkpt lat="47.99135" lon="6.22625">
        <ele>278</ele>
        <time>2022-05-23T05:30:25Z</time>
      </trkpt>
      <trkpt lat="47.99154" lon="6.22618">
        <ele>277</ele>
        <time>2022-05-23T05:30:28Z</time>
      </trkpt>
      <trkpt lat="47.99174" lon="6.22617">
        <ele>275</ele>
        <time>2022-05-23T05:30:32Z</time>
      </trkpt>
      <trkpt lat="47.99196" lon="6.22608">
        <ele>276</ele>
        <time>2022-05-23T05:30:36Z</time>
      </trkpt>
      <trkpt lat="47.99217" lon="6.22615">
        <ele>274</ele>
        <time>2022-05-23T05:30:40Z</time>
      </trkpt>
      <trkpt lat="47.99245" lon="6.22646">
        <ele>268</ele>
        <time>2022-05-23T05:30:46Z</time>
      </trkpt>
      <trkpt lat="47.99257" lon="6.2267">
        <ele>266</ele>
        <time>2022-05-23T05:30:49Z</time>
      </trkpt>
      <trkpt lat="47.99267" lon="6.22701">
        <ele>267</ele>
        <time>2022-05-23T05:30:53Z</time>
      </trkpt>
      <trkpt lat="47.99275" lon="6.22715">
        <ele>268</ele>
        <time>2022-05-23T05:30:56Z</time>
      </trkpt>
      <trkpt lat="47.99326" lon="6.22787">
        <ele>271</ele>
        <time>2022-05-23T05:31:08Z</time>
      </trkpt>
      <trkpt lat="47.99344" lon="6.22806">
        <ele>272</ele>
        <time>2022-05-23T05:31:12Z</time>
      </trkpt>
      <trkpt lat="47.99399" lon="6.22852">
        <ele>274</ele>
        <time>2022-05-23T05:31:23Z</time>
      </trkpt>
      <trkpt lat="47.99429" lon="6.22866">
        <ele>276</ele>
        <time>2022-05-23T05:31:29Z</time>
      </trkpt>
      <trkpt lat="47.9944" lon="6.22867">
        <ele>278</ele>
        <time>2022-05-23T05:31:31Z</time>
      </trkpt>
      <trkpt lat="47.99482" lon="6.22883">
        <ele>281</ele>
        <time>2022-05-23T05:31:38Z</time>
      </trkpt>
      <trkpt lat="47.99511" lon="6.22902">
        <ele>281</ele>
        <time>2022-05-23T05:31:44Z</time>
      </trkpt>
      <trkpt lat="47.99523" lon="6.22911">
        <ele>281</ele>
        <time>2022-05-23T05:31:46Z</time>
      </trkpt>
      <trkpt lat="47.99551" lon="6.22943">
        <ele>283</ele>
        <time>2022-05-23T05:31:53Z</time>
      </trkpt>
      <trkpt lat="47.9958" lon="6.22996">
        <ele>281</ele>
        <time>2022-05-23T05:32:01Z</time>
      </trkpt>
      <trkpt lat="47.99598" lon="6.23053">
        <ele>282</ele>
        <time>2022-05-23T05:32:08Z</time>
      </trkpt>
      <trkpt lat="47.99604" lon="6.23064">
        <ele>282</ele>
        <time>2022-05-23T05:32:10Z</time>
      </trkpt>
      <trkpt lat="47.99614" lon="6.23097">
        <ele>282</ele>
        <time>2022-05-23T05:32:14Z</time>
      </trkpt>
      <trkpt lat="47.9962" lon="6.2316">
        <ele>279</ele>
        <time>2022-05-23T05:32:22Z</time>
      </trkpt>
      <trkpt lat="47.99628" lon="6.23214">
        <ele>275</ele>
        <time>2022-05-23T05:32:29Z</time>
      </trkpt>
      <trkpt lat="47.99633" lon="6.2323">
        <ele>273</ele>
        <time>2022-05-23T05:32:31Z</time>
      </trkpt>
      <trkpt lat="47.9964" lon="6.23241">
        <ele>272</ele>
        <time>2022-05-23T05:32:32Z</time>
      </trkpt>
      <trkpt lat="47.99649" lon="6.23248">
        <ele>271</ele>
        <time>2022-05-23T05:32:34Z</time>
      </trkpt>
      <trkpt lat="47.99661" lon="6.23251">
        <ele>271</ele>
        <time>2022-05-23T05:32:36Z</time>
      </trkpt>
      <trkpt lat="47.99725" lon="6.23169">
        <ele>278</ele>
        <time>2022-05-23T05:32:51Z</time>
      </trkpt>
      <trkpt lat="47.99736" lon="6.23162">
        <ele>278</ele>
        <time>2022-05-23T05:32:54Z</time>
      </trkpt>
      <trkpt lat="47.99744" lon="6.23152">
        <ele>279</ele>
        <time>2022-05-23T05:32:55Z</time>
      </trkpt>
      <trkpt lat="47.99763" lon="6.23136">
        <ele>282</ele>
        <time>2022-05-23T05:32:59Z</time>
      </trkpt>
      <trkpt lat="47.99785" lon="6.23127">
        <ele>283</ele>
        <time>2022-05-23T05:33:03Z</time>
      </trkpt>
      <trkpt lat="47.99809" lon="6.23127">
        <ele>283</ele>
        <time>2022-05-23T05:33:08Z</time>
      </trkpt>
      <trkpt lat="47.99838" lon="6.23139">
        <ele>281</ele>
        <time>2022-05-23T05:33:13Z</time>
      </trkpt>
      <trkpt lat="47.99893" lon="6.232">
        <ele>276</ele>
        <time>2022-05-23T05:33:25Z</time>
      </trkpt>
      <trkpt lat="47.99898" lon="6.23214">
        <ele>275</ele>
        <time>2022-05-23T05:33:27Z</time>
      </trkpt>
      <trkpt lat="47.99887" lon="6.2324">
        <ele>271</ele>
        <time>2022-05-23T05:33:31Z</time>
      </trkpt>
      <trkpt lat="47.99892" lon="6.23256">
        <ele>271</ele>
        <time>2022-05-23T05:33:33Z</time>
      </trkpt>
      <trkpt lat="47.99904" lon="6.23262">
        <ele>271</ele>
        <time>2022-05-23T05:33:35Z</time>
      </trkpt>
      <trkpt lat="47.99921" lon="6.23279">
        <ele>272</ele>
        <time>2022-05-23T05:33:39Z</time>
      </trkpt>
      <trkpt lat="47.99935" lon="6.23298">
        <ele>274</ele>
        <time>2022-05-23T05:33:42Z</time>
      </trkpt>
      <trkpt lat="47.99977" lon="6.23345">
        <ele>276</ele>
        <time>2022-05-23T05:33:51Z</time>
      </trkpt>
      <trkpt lat="47.99994" lon="6.2336">
        <ele>276</ele>
        <time>2022-05-23T05:33:55Z</time>
      </trkpt>
      <trkpt lat="48.00034" lon="6.23386">
        <ele>276</ele>
        <time>2022-05-23T05:34:03Z</time>
      </trkpt>
      <trkpt lat="48.00063" lon="6.234">
        <ele>275</ele>
        <time>2022-05-23T05:34:08Z</time>
      </trkpt>
      <trkpt lat="48.00083" lon="6.23406">
        <ele>275</ele>
        <time>2022-05-23T05:34:12Z</time>
      </trkpt>
      <trkpt lat="48.00113" lon="6.23409">
        <ele>275</ele>
        <time>2022-05-23T05:34:17Z</time>
      </trkpt>
      <trkpt lat="48.00133" lon="6.23406">
        <ele>276</ele>
        <time>2022-05-23T05:34:21Z</time>
      </trkpt>
      <trkpt lat="48.00183" lon="6.23407">
        <ele>277</ele>
        <time>2022-05-23T05:34:30Z</time>
      </trkpt>
      <trkpt lat="48.0032" lon="6.23404">
        <ele>278</ele>
        <time>2022-05-23T05:34:54Z</time>
      </trkpt>
      <trkpt lat="48.00374" lon="6.23397">
        <ele>276</ele>
        <time>2022-05-23T05:35:04Z</time>
      </trkpt>
      <trkpt lat="48.00424" lon="6.23381">
        <ele>276</ele>
        <time>2022-05-23T05:35:13Z</time>
      </trkpt>
      <trkpt lat="48.00464" lon="6.2338">
        <ele>277</ele>
        <time>2022-05-23T05:35:20Z</time>
      </trkpt>
      <trkpt lat="48.00453" lon="6.23379">
        <ele>277</ele>
        <time>2022-05-23T05:35:22Z</time>
      </trkpt>
      <trkpt lat="48.00434" lon="6.2338">
        <ele>276</ele>
        <time>2022-05-23T05:35:25Z</time>
      </trkpt>
      <trkpt lat="48.00447" lon="6.23383">
        <ele>276</ele>
        <time>2022-05-23T05:35:28Z</time>
      </trkpt>
      <trkpt lat="48.00495" lon="6.23381">
        <ele>277</ele>
        <time>2022-05-23T05:35:36Z</time>
      </trkpt>
      <trkpt lat="48.00508" lon="6.23385">
        <ele>277</ele>
        <time>2022-05-23T05:35:38Z</time>
      </trkpt>
      <trkpt lat="48.00537" lon="6.23388">
        <ele>277</ele>
        <time>2022-05-23T05:35:44Z</time>
      </trkpt>
      <trkpt lat="48.0057" lon="6.23401">
        <ele>276</ele>
        <time>2022-05-23T05:35:50Z</time>
      </trkpt>
      <trkpt lat="48.00598" lon="6.23416">
        <ele>275</ele>
        <time>2022-05-23T05:35:55Z</time>
      </trkpt>
      <trkpt lat="48.00634" lon="6.2344">
        <ele>275</ele>
        <time>2022-05-23T05:36:02Z</time>
      </trkpt>
      <trkpt lat="48.0067" lon="6.23469">
        <ele>274</ele>
        <time>2022-05-23T05:36:09Z</time>
      </trkpt>
      <trkpt lat="48.00706" lon="6.23494">
        <ele>275</ele>
        <time>2022-05-23T05:36:16Z</time>
      </trkpt>
      <trkpt lat="48.0075" lon="6.23538">
        <ele>275</ele>
        <time>2022-05-23T05:36:26Z</time>
      </trkpt>
      <trkpt lat="48.00892" lon="6.23729">
        <ele>281</ele>
        <time>2022-05-23T05:37:00Z</time>
      </trkpt>
      <trkpt lat="48.00964" lon="6.23837">
        <ele>280</ele>
        <time>2022-05-23T05:37:18Z</time>
      </trkpt>
      <trkpt lat="48.00987" lon="6.23862">
        <ele>281</ele>
        <time>2022-05-23T05:37:23Z</time>
      </trkpt>
      <trkpt lat="48.00999" lon="6.2387">
        <ele>281</ele>
        <time>2022-05-23T05:37:25Z</time>
      </trkpt>
      <trkpt lat="48.01022" lon="6.23878">
        <ele>281</ele>
        <time>2022-05-23T05:37:29Z</time>
      </trkpt>
      <trkpt lat="48.01045" lon="6.23879">
        <ele>281</ele>
        <time>2022-05-23T05:37:34Z</time>
      </trkpt>
      <trkpt lat="48.01186" lon="6.23854">
        <ele>281</ele>
        <time>2022-05-23T05:37:59Z</time>
      </trkpt>
      <trkpt lat="48.01234" lon="6.23854">
        <ele>279</ele>
        <time>2022-05-23T05:38:07Z</time>
      </trkpt>
      <trkpt lat="48.0128" lon="6.23865">
        <ele>279</ele>
        <time>2022-05-23T05:38:16Z</time>
      </trkpt>
      <trkpt lat="48.01347" lon="6.23892">
        <ele>280</ele>
        <time>2022-05-23T05:38:28Z</time>
      </trkpt>
      <trkpt lat="48.01388" lon="6.23915">
        <ele>281</ele>
        <time>2022-05-23T05:38:36Z</time>
      </trkpt>
      <trkpt lat="48.01418" lon="6.23936">
        <ele>283</ele>
        <time>2022-05-23T05:38:42Z</time>
      </trkpt>
      <trkpt lat="48.01459" lon="6.23956">
        <ele>281</ele>
        <time>2022-05-23T05:38:49Z</time>
      </trkpt>
      <trkpt lat="48.01507" lon="6.23974">
        <ele>277</ele>
        <time>2022-05-23T05:38:58Z</time>
      </trkpt>
      <trkpt lat="48.01549" lon="6.23997">
        <ele>278</ele>
        <time>2022-05-23T05:39:06Z</time>
      </trkpt>
      <trkpt lat="48.01587" lon="6.24043">
        <ele>279</ele>
        <time>2022-05-23T05:39:15Z</time>
      </trkpt>
      <trkpt lat="48.01637" lon="6.24087">
        <ele>283</ele>
        <time>2022-05-23T05:39:25Z</time>
      </trkpt>
      <trkpt lat="48.01662" lon="6.24115">
        <ele>284</ele>
        <time>2022-05-23T05:39:31Z</time>
      </trkpt>
      <trkpt lat="48.0175" lon="6.24197">
        <ele>284</ele>
        <time>2022-05-23T05:39:49Z</time>
      </trkpt>
      <trkpt lat="48.01797" lon="6.24236">
        <ele>287</ele>
        <time>2022-05-23T05:39:59Z</time>
      </trkpt>
      <trkpt lat="48.01853" lon="6.24287">
        <ele>289</ele>
        <time>2022-05-23T05:40:10Z</time>
      </trkpt>
      <trkpt lat="48.0187" lon="6.24299">
        <ele>289</ele>
        <time>2022-05-23T05:40:14Z</time>
      </trkpt>
      <trkpt lat="48.01888" lon="6.24307">
        <ele>289</ele>
        <time>2022-05-23T05:40:17Z</time>
      </trkpt>
      <trkpt lat="48.01908" lon="6.24312">
        <ele>289</ele>
        <time>2022-05-23T05:40:21Z</time>
      </trkpt>
      <trkpt lat="48.01946" lon="6.24317">
        <ele>287</ele>
        <time>2022-05-23T05:40:27Z</time>
      </trkpt>
      <trkpt lat="48.01956" lon="6.24315">
        <ele>286</ele>
        <time>2022-05-23T05:40:29Z</time>
      </trkpt>
      <trkpt lat="48.02042" lon="6.24328">
        <ele>283</ele>
        <time>2022-05-23T05:40:45Z</time>
      </trkpt>
      <trkpt lat="48.0206" lon="6.24336">
        <ele>283</ele>
        <time>2022-05-23T05:40:48Z</time>
      </trkpt>
      <trkpt lat="48.02081" lon="6.24352">
        <ele>284</ele>
        <time>2022-05-23T05:40:52Z</time>
      </trkpt>
      <trkpt lat="48.02098" lon="6.24368">
        <ele>286</ele>
        <time>2022-05-23T05:40:56Z</time>
      </trkpt>
      <trkpt lat="48.02105" lon="6.24379">
        <ele>287</ele>
        <time>2022-05-23T05:40:58Z</time>
      </trkpt>
      <trkpt lat="48.02135" lon="6.24439">
        <ele>288</ele>
        <time>2022-05-23T05:41:06Z</time>
      </trkpt>
      <trkpt lat="48.02185" lon="6.24564">
        <ele>285</ele>
        <time>2022-05-23T05:41:24Z</time>
      </trkpt>
      <trkpt lat="48.02217" lon="6.24632">
        <ele>286</ele>
        <time>2022-05-23T05:41:34Z</time>
      </trkpt>
      <trkpt lat="48.02241" lon="6.24695">
        <ele>284</ele>
        <time>2022-05-23T05:41:42Z</time>
      </trkpt>
      <trkpt lat="48.02277" lon="6.24775">
        <ele>286</ele>
        <time>2022-05-23T05:41:54Z</time>
      </trkpt>
      <trkpt lat="48.02309" lon="6.24863">
        <ele>286</ele>
        <time>2022-05-23T05:42:06Z</time>
      </trkpt>
      <trkpt lat="48.02328" lon="6.24982">
        <ele>283</ele>
        <time>2022-05-23T05:42:20Z</time>
      </trkpt>
      <trkpt lat="48.02328" lon="6.25044">
        <ele>284</ele>
        <time>2022-05-23T05:42:28Z</time>
      </trkpt>
      <trkpt lat="48.02306" lon="6.25113">
        <ele>288</ele>
        <time>2022-05-23T05:42:37Z</time>
      </trkpt>
      <trkpt lat="48.02289" lon="6.25152">
        <ele>289</ele>
        <time>2022-05-23T05:42:42Z</time>
      </trkpt>
      <trkpt lat="48.02205" lon="6.25268">
        <ele>290</ele>
        <time>2022-05-23T05:43:03Z</time>
      </trkpt>
      <trkpt lat="48.02184" lon="6.25305">
        <ele>288</ele>
        <time>2022-05-23T05:43:08Z</time>
      </trkpt>
      <trkpt lat="48.02178" lon="6.25317">
        <ele>287</ele>
        <time>2022-05-23T05:43:10Z</time>
      </trkpt>
      <trkpt lat="48.0217" lon="6.25344">
        <ele>286</ele>
        <time>2022-05-23T05:43:14Z</time>
      </trkpt>
      <trkpt lat="48.02167" lon="6.25372">
        <ele>286</ele>
        <time>2022-05-23T05:43:17Z</time>
      </trkpt>
      <trkpt lat="48.02169" lon="6.25387">
        <ele>286</ele>
        <time>2022-05-23T05:43:19Z</time>
      </trkpt>
      <trkpt lat="48.02184" lon="6.25426">
        <ele>288</ele>
        <time>2022-05-23T05:43:24Z</time>
      </trkpt>
      <trkpt lat="48.02266" lon="6.25594">
        <ele>288</ele>
        <time>2022-05-23T05:43:49Z</time>
      </trkpt>
      <trkpt lat="48.02309" lon="6.2569">
        <ele>289</ele>
        <time>2022-05-23T05:44:03Z</time>
      </trkpt>
      <trkpt lat="48.02365" lon="6.25805">
        <ele>290</ele>
        <time>2022-05-23T05:44:20Z</time>
      </trkpt>
      <trkpt lat="48.02374" lon="6.25829">
        <ele>290</ele>
        <time>2022-05-23T05:44:23Z</time>
      </trkpt>
      <trkpt lat="48.02417" lon="6.25919">
        <ele>286</ele>
        <time>2022-05-23T05:44:36Z</time>
      </trkpt>
      <trkpt lat="48.02436" lon="6.25953">
        <ele>291</ele>
        <time>2022-05-23T05:44:41Z</time>
      </trkpt>
      <trkpt lat="48.02466" lon="6.26025">
        <ele>295</ele>
        <time>2022-05-23T05:44:51Z</time>
      </trkpt>
      <trkpt lat="48.02528" lon="6.26141">
        <ele>292</ele>
        <time>2022-05-23T05:45:09Z</time>
      </trkpt>
      <trkpt lat="48.02534" lon="6.26157">
        <ele>291</ele>
        <time>2022-05-23T05:45:11Z</time>
      </trkpt>
      <trkpt lat="48.02543" lon="6.26172">
        <ele>291</ele>
        <time>2022-05-23T05:45:14Z</time>
      </trkpt>
      <trkpt lat="48.02553" lon="6.26181">
        <ele>292</ele>
        <time>2022-05-23T05:45:16Z</time>
      </trkpt>
      <trkpt lat="48.02578" lon="6.26183">
        <ele>291</ele>
        <time>2022-05-23T05:45:20Z</time>
      </trkpt>
      <trkpt lat="48.02605" lon="6.26174">
        <ele>290</ele>
        <time>2022-05-23T05:45:25Z</time>
      </trkpt>
      <trkpt lat="48.02649" lon="6.26153">
        <ele>291</ele>
        <time>2022-05-23T05:45:33Z</time>
      </trkpt>
      <trkpt lat="48.02696" lon="6.26137">
        <ele>293</ele>
        <time>2022-05-23T05:45:42Z</time>
      </trkpt>
      <trkpt lat="48.02755" lon="6.26111">
        <ele>292</ele>
        <time>2022-05-23T05:45:53Z</time>
      </trkpt>
      <trkpt lat="48.02794" lon="6.26097">
        <ele>290</ele>
        <time>2022-05-23T05:46:00Z</time>
      </trkpt>
      <trkpt lat="48.02831" lon="6.26088">
        <ele>289</ele>
        <time>2022-05-23T05:46:07Z</time>
      </trkpt>
      <trkpt lat="48.02854" lon="6.26087">
        <ele>290</ele>
        <time>2022-05-23T05:46:11Z</time>
      </trkpt>
      <trkpt lat="48.02889" lon="6.26091">
        <ele>294</ele>
        <time>2022-05-23T05:46:17Z</time>
      </trkpt>
      <trkpt lat="48.02929" lon="6.26103">
        <ele>297</ele>
        <time>2022-05-23T05:46:24Z</time>
      </trkpt>
      <trkpt lat="48.02966" lon="6.26118">
        <ele>296</ele>
        <time>2022-05-23T05:46:31Z</time>
      </trkpt>
      <trkpt lat="48.0302" lon="6.26156">
        <ele>296</ele>
        <time>2022-05-23T05:46:42Z</time>
      </trkpt>
      <trkpt lat="48.03066" lon="6.262">
        <ele>298</ele>
        <time>2022-05-23T05:46:52Z</time>
      </trkpt>
      <trkpt lat="48.03083" lon="6.26211">
        <ele>297</ele>
        <time>2022-05-23T05:46:55Z</time>
      </trkpt>
      <trkpt lat="48.03093" lon="6.26222">
        <ele>298</ele>
        <time>2022-05-23T05:46:57Z</time>
      </trkpt>
      <trkpt lat="48.03112" lon="6.26236">
        <ele>298</ele>
        <time>2022-05-23T05:47:01Z</time>
      </trkpt>
      <trkpt lat="48.0312" lon="6.26246">
        <ele>297</ele>
        <time>2022-05-23T05:47:03Z</time>
      </trkpt>
      <trkpt lat="48.03141" lon="6.2626">
        <ele>297</ele>
        <time>2022-05-23T05:47:07Z</time>
      </trkpt>
      <trkpt lat="48.03227" lon="6.2634">
        <ele>297</ele>
        <time>2022-05-23T05:47:25Z</time>
      </trkpt>
      <trkpt lat="48.03264" lon="6.26367">
        <ele>298</ele>
        <time>2022-05-23T05:47:32Z</time>
      </trkpt>
      <trkpt lat="48.03291" lon="6.26396">
        <ele>297</ele>
        <time>2022-05-23T05:47:38Z</time>
      </trkpt>
      <trkpt lat="48.03345" lon="6.26443">
        <ele>296</ele>
        <time>2022-05-23T05:47:49Z</time>
      </trkpt>
      <trkpt lat="48.0336" lon="6.26459">
        <ele>297</ele>
        <time>2022-05-23T05:47:52Z</time>
      </trkpt>
      <trkpt lat="48.03427" lon="6.26514">
        <ele>295</ele>
        <time>2022-05-23T05:48:06Z</time>
      </trkpt>
      <trkpt lat="48.03451" lon="6.26538">
        <ele>298</ele>
        <time>2022-05-23T05:48:11Z</time>
      </trkpt>
      <trkpt lat="48.03489" lon="6.26566">
        <ele>299</ele>
        <time>2022-05-23T05:48:19Z</time>
      </trkpt>
      <trkpt lat="48.03499" lon="6.26577">
        <ele>298</ele>
        <time>2022-05-23T05:48:21Z</time>
      </trkpt>
      <trkpt lat="48.03534" lon="6.26598">
        <ele>299</ele>
        <time>2022-05-23T05:48:28Z</time>
      </trkpt>
      <trkpt lat="48.03547" lon="6.26601">
        <ele>299</ele>
        <time>2022-05-23T05:48:30Z</time>
      </trkpt>
      <trkpt lat="48.03559" lon="6.26599">
        <ele>298</ele>
        <time>2022-05-23T05:48:32Z</time>
      </trkpt>
      <trkpt lat="48.03567" lon="6.26595">
        <ele>296</ele>
        <time>2022-05-23T05:48:34Z</time>
      </trkpt>
      <trkpt lat="48.03558" lon="6.26594">
        <ele>297</ele>
        <time>2022-05-23T05:48:35Z</time>
      </trkpt>
      <trkpt lat="48.03545" lon="6.26587">
        <ele>296</ele>
        <time>2022-05-23T05:48:38Z</time>
      </trkpt>
      <trkpt lat="48.03555" lon="6.26589">
        <ele>296</ele>
        <time>2022-05-23T05:48:39Z</time>
      </trkpt>
      <trkpt lat="48.03555" lon="6.26575">
        <ele>295</ele>
        <time>2022-05-23T05:48:41Z</time>
      </trkpt>
      <trkpt lat="48.03551" lon="6.26556">
        <ele>296</ele>
        <time>2022-05-23T05:48:43Z</time>
      </trkpt>
      <trkpt lat="48.03557" lon="6.26566">
        <ele>295</ele>
        <time>2022-05-23T05:48:45Z</time>
      </trkpt>
      <trkpt lat="48.0356" lon="6.2658">
        <ele>294</ele>
        <time>2022-05-23T05:48:47Z</time>
      </trkpt>
      <trkpt lat="48.03554" lon="6.26569">
        <ele>295</ele>
        <time>2022-05-23T05:48:48Z</time>
      </trkpt>
      <trkpt lat="48.03561" lon="6.26584">
        <ele>294</ele>
        <time>2022-05-23T05:48:51Z</time>
      </trkpt>
      <trkpt lat="48.03571" lon="6.26581">
        <ele>294</ele>
        <time>2022-05-23T05:48:52Z</time>
      </trkpt>
      <trkpt lat="48.03561" lon="6.26583">
        <ele>294</ele>
        <time>2022-05-23T05:48:54Z</time>
      </trkpt>
      <trkpt lat="48.03558" lon="6.26569">
        <ele>295</ele>
        <time>2022-05-23T05:48:56Z</time>
      </trkpt>
      <trkpt lat="48.03548" lon="6.26557">
        <ele>296</ele>
        <time>2022-05-23T05:48:58Z</time>
      </trkpt>
      <trkpt lat="48.03561" lon="6.26579">
        <ele>294</ele>
        <time>2022-05-23T05:49:02Z</time>
      </trkpt>
      <trkpt lat="48.03572" lon="6.26578">
        <ele>294</ele>
        <time>2022-05-23T05:49:04Z</time>
      </trkpt>
      <trkpt lat="48.03581" lon="6.26567">
        <ele>294</ele>
        <time>2022-05-23T05:49:06Z</time>
      </trkpt>
      <trkpt lat="48.0363" lon="6.26467">
        <ele>298</ele>
        <time>2022-05-23T05:49:21Z</time>
      </trkpt>
      <trkpt lat="48.03679" lon="6.26388">
        <ele>296</ele>
        <time>2022-05-23T05:49:33Z</time>
      </trkpt>
      <trkpt lat="48.03714" lon="6.26326">
        <ele>296</ele>
        <time>2022-05-23T05:49:43Z</time>
      </trkpt>
      <trkpt lat="48.03795" lon="6.26173">
        <ele>292</ele>
        <time>2022-05-23T05:50:06Z</time>
      </trkpt>
      <trkpt lat="48.03847" lon="6.26086">
        <ele>295</ele>
        <time>2022-05-23T05:50:20Z</time>
      </trkpt>
      <trkpt lat="48.03853" lon="6.26071">
        <ele>297</ele>
        <time>2022-05-23T05:50:22Z</time>
      </trkpt>
      <trkpt lat="48.03868" lon="6.26046">
        <ele>299</ele>
        <time>2022-05-23T05:50:26Z</time>
      </trkpt>
      <trkpt lat="48.03872" lon="6.26034">
        <ele>300</ele>
        <time>2022-05-23T05:50:28Z</time>
      </trkpt>
      <trkpt lat="48.03886" lon="6.26014">
        <ele>300</ele>
        <time>2022-05-23T05:50:31Z</time>
      </trkpt>
      <trkpt lat="48.03905" lon="6.25973">
        <ele>297</ele>
        <time>2022-05-23T05:50:37Z</time>
      </trkpt>
      <trkpt lat="48.03922" lon="6.25946">
        <ele>295</ele>
        <time>2022-05-23T05:50:42Z</time>
      </trkpt>
      <trkpt lat="48.03927" lon="6.25934">
        <ele>295</ele>
        <time>2022-05-23T05:50:43Z</time>
      </trkpt>
      <trkpt lat="48.03946" lon="6.2591">
        <ele>297</ele>
        <time>2022-05-23T05:50:48Z</time>
      </trkpt>
      <trkpt lat="48.03976" lon="6.25858">
        <ele>298</ele>
        <time>2022-05-23T05:50:56Z</time>
      </trkpt>
      <trkpt lat="48.03995" lon="6.25837">
        <ele>297</ele>
        <time>2022-05-23T05:51:00Z</time>
      </trkpt>
      <trkpt lat="48.04014" lon="6.25824">
        <ele>299</ele>
        <time>2022-05-23T05:51:04Z</time>
      </trkpt>
      <trkpt lat="48.04043" lon="6.25811">
        <ele>301</ele>
        <time>2022-05-23T05:51:09Z</time>
      </trkpt>
      <trkpt lat="48.04087" lon="6.25811">
        <ele>301</ele>
        <time>2022-05-23T05:51:17Z</time>
      </trkpt>
      <trkpt lat="48.04135" lon="6.25817">
        <ele>299</ele>
        <time>2022-05-23T05:51:26Z</time>
      </trkpt>
      <trkpt lat="48.04174" lon="6.25833">
        <ele>297</ele>
        <time>2022-05-23T05:51:33Z</time>
      </trkpt>
      <trkpt lat="48.04201" lon="6.25856">
        <ele>300</ele>
        <time>2022-05-23T05:51:38Z</time>
      </trkpt>
      <trkpt lat="48.04275" lon="6.25943">
        <ele>303</ele>
        <time>2022-05-23T05:51:55Z</time>
      </trkpt>
      <trkpt lat="48.043" lon="6.25966">
        <ele>302</ele>
        <time>2022-05-23T05:52:00Z</time>
      </trkpt>
      <trkpt lat="48.0432" lon="6.25991">
        <ele>301</ele>
        <time>2022-05-23T05:52:05Z</time>
      </trkpt>
      <trkpt lat="48.04339" lon="6.26009">
        <ele>300</ele>
        <time>2022-05-23T05:52:09Z</time>
      </trkpt>
      <trkpt lat="48.04379" lon="6.26062">
        <ele>301</ele>
        <time>2022-05-23T05:52:18Z</time>
      </trkpt>
      <trkpt lat="48.04386" lon="6.26076">
        <ele>300</ele>
        <time>2022-05-23T05:52:21Z</time>
      </trkpt>
      <trkpt lat="48.04403" lon="6.26118">
        <ele>299</ele>
        <time>2022-05-23T05:52:26Z</time>
      </trkpt>
      <trkpt lat="48.04421" lon="6.2619">
        <ele>297</ele>
        <time>2022-05-23T05:52:36Z</time>
      </trkpt>
      <trkpt lat="48.04441" lon="6.26319">
        <ele>300</ele>
        <time>2022-05-23T05:52:51Z</time>
      </trkpt>
      <trkpt lat="48.04457" lon="6.26466">
        <ele>300</ele>
        <time>2022-05-23T05:53:09Z</time>
      </trkpt>
      <trkpt lat="48.04467" lon="6.26517">
        <ele>299</ele>
        <time>2022-05-23T05:53:15Z</time>
      </trkpt>
      <trkpt lat="48.04469" lon="6.26551">
        <ele>299</ele>
        <time>2022-05-23T05:53:19Z</time>
      </trkpt>
      <trkpt lat="48.04484" lon="6.26639">
        <ele>297</ele>
        <time>2022-05-23T05:53:30Z</time>
      </trkpt>
      <trkpt lat="48.04506" lon="6.26719">
        <ele>296</ele>
        <time>2022-05-23T05:53:40Z</time>
      </trkpt>
      <trkpt lat="48.04525" lon="6.26769">
        <ele>296</ele>
        <time>2022-05-23T05:53:47Z</time>
      </trkpt>
      <trkpt lat="48.04538" lon="6.26793">
        <ele>296</ele>
        <time>2022-05-23T05:53:51Z</time>
      </trkpt>
      <trkpt lat="48.04654" lon="6.26982">
        <ele>295</ele>
        <time>2022-05-23T05:54:21Z</time>
      </trkpt>
      <trkpt lat="48.04714" lon="6.27109">
        <ele>301</ele>
        <time>2022-05-23T05:54:40Z</time>
      </trkpt>
      <trkpt lat="48.04813" lon="6.27334">
        <ele>306</ele>
        <time>2022-05-23T05:55:12Z</time>
      </trkpt>
      <trkpt lat="48.04845" lon="6.27394">
        <ele>302</ele>
        <time>2022-05-23T05:55:21Z</time>
      </trkpt>
      <trkpt lat="48.04863" lon="6.2741">
        <ele>301</ele>
        <time>2022-05-23T05:55:25Z</time>
      </trkpt>
      <trkpt lat="48.04883" lon="6.27423">
        <ele>300</ele>
        <time>2022-05-23T05:55:29Z</time>
      </trkpt>
      <trkpt lat="48.04916" lon="6.27429">
        <ele>296</ele>
        <time>2022-05-23T05:55:35Z</time>
      </trkpt>
      <trkpt lat="48.04927" lon="6.27428">
        <ele>296</ele>
        <time>2022-05-23T05:55:37Z</time>
      </trkpt>
      <trkpt lat="48.04937" lon="6.27426">
        <ele>296</ele>
        <time>2022-05-23T05:55:38Z</time>
      </trkpt>
      <trkpt lat="48.05077" lon="6.27364">
        <ele>297</ele>
        <time>2022-05-23T05:56:04Z</time>
      </trkpt>
      <trkpt lat="48.05135" lon="6.27345">
        <ele>298</ele>
        <time>2022-05-23T05:56:15Z</time>
      </trkpt>
      <trkpt lat="48.0516" lon="6.27342">
        <ele>298</ele>
        <time>2022-05-23T05:56:19Z</time>
      </trkpt>
      <trkpt lat="48.05179" lon="6.27347">
        <ele>298</ele>
        <time>2022-05-23T05:56:23Z</time>
      </trkpt>
      <trkpt lat="48.05245" lon="6.27345">
        <ele>295</ele>
        <time>2022-05-23T05:56:35Z</time>
      </trkpt>
      <trkpt lat="48.0535" lon="6.27357">
        <ele>296</ele>
        <time>2022-05-23T05:56:53Z</time>
      </trkpt>
      <trkpt lat="48.05424" lon="6.27375">
        <ele>299</ele>
        <time>2022-05-23T05:57:07Z</time>
      </trkpt>
      <trkpt lat="48.05509" lon="6.2739">
        <ele>300</ele>
        <time>2022-05-23T05:57:22Z</time>
      </trkpt>
      <trkpt lat="48.05529" lon="6.27398">
        <ele>300</ele>
        <time>2022-05-23T05:57:26Z</time>
      </trkpt>
      <trkpt lat="48.05614" lon="6.27421">
        <ele>299</ele>
        <time>2022-05-23T05:57:41Z</time>
      </trkpt>
      <trkpt lat="48.05801" lon="6.27462">
        <ele>296</ele>
        <time>2022-05-23T05:58:15Z</time>
      </trkpt>
      <trkpt lat="48.05837" lon="6.27468">
        <ele>296</ele>
        <time>2022-05-23T05:58:21Z</time>
      </trkpt>
      <trkpt lat="48.05931" lon="6.27496">
        <ele>296</ele>
        <time>2022-05-23T05:58:38Z</time>
      </trkpt>
      <trkpt lat="48.05971" lon="6.275">
        <ele>297</ele>
        <time>2022-05-23T05:58:45Z</time>
      </trkpt>
      <trkpt lat="48.06002" lon="6.27507">
        <ele>298</ele>
        <time>2022-05-23T05:58:51Z</time>
      </trkpt>
      <trkpt lat="48.0601" lon="6.27512">
        <ele>298</ele>
        <time>2022-05-23T05:58:52Z</time>
      </trkpt>
      <trkpt lat="48.06025" lon="6.27511">
        <ele>299</ele>
        <time>2022-05-23T05:58:55Z</time>
      </trkpt>
      <trkpt lat="48.06037" lon="6.27516">
        <ele>299</ele>
        <time>2022-05-23T05:58:57Z</time>
      </trkpt>
      <trkpt lat="48.06069" lon="6.2752">
        <ele>300</ele>
        <time>2022-05-23T05:59:03Z</time>
      </trkpt>
      <trkpt lat="48.06089" lon="6.27519">
        <ele>301</ele>
        <time>2022-05-23T05:59:07Z</time>
      </trkpt>
      <trkpt lat="48.06129" lon="6.27513">
        <ele>301</ele>
        <time>2022-05-23T05:59:14Z</time>
      </trkpt>
      <trkpt lat="48.0614" lon="6.27514">
        <ele>301</ele>
        <time>2022-05-23T05:59:16Z</time>
      </trkpt>
      <trkpt lat="48.06183" lon="6.27508">
        <ele>301</ele>
        <time>2022-05-23T05:59:23Z</time>
      </trkpt>
      <trkpt lat="48.06217" lon="6.27506">
        <ele>300</ele>
        <time>2022-05-23T05:59:29Z</time>
      </trkpt>
      <trkpt lat="48.06301" lon="6.27492">
        <ele>299</ele>
        <time>2022-05-23T05:59:44Z</time>
      </trkpt>
      <trkpt lat="48.06364" lon="6.27489">
        <ele>300</ele>
        <time>2022-05-23T05:59:56Z</time>
      </trkpt>
      <trkpt lat="48.06398" lon="6.27493">
        <ele>300</ele>
        <time>2022-05-23T06:00:02Z</time>
      </trkpt>
      <trkpt lat="48.06423" lon="6.27498">
        <ele>300</ele>
        <time>2022-05-23T06:00:06Z</time>
      </trkpt>
      <trkpt lat="48.06477" lon="6.27521">
        <ele>298</ele>
        <time>2022-05-23T06:00:16Z</time>
      </trkpt>
      <trkpt lat="48.06498" lon="6.27537">
        <ele>297</ele>
        <time>2022-05-23T06:00:20Z</time>
      </trkpt>
      <trkpt lat="48.06518" lon="6.27559">
        <ele>297</ele>
        <time>2022-05-23T06:00:25Z</time>
      </trkpt>
      <trkpt lat="48.06539" lon="6.27595">
        <ele>298</ele>
        <time>2022-05-23T06:00:30Z</time>
      </trkpt>
      <trkpt lat="48.06558" lon="6.27644">
        <ele>298</ele>
        <time>2022-05-23T06:00:37Z</time>
      </trkpt>
      <trkpt lat="48.0657" lon="6.27683">
        <ele>298</ele>
        <time>2022-05-23T06:00:42Z</time>
      </trkpt>
      <trkpt lat="48.06586" lon="6.27709">
        <ele>299</ele>
        <time>2022-05-23T06:00:47Z</time>
      </trkpt>
      <trkpt lat="48.06606" lon="6.27775">
        <ele>302</ele>
        <time>2022-05-23T06:00:55Z</time>
      </trkpt>
      <trkpt lat="48.06684" lon="6.27995">
        <ele>303</ele>
        <time>2022-05-23T06:01:25Z</time>
      </trkpt>
      <trkpt lat="48.06722" lon="6.28078">
        <ele>307</ele>
        <time>2022-05-23T06:01:37Z</time>
      </trkpt>
      <trkpt lat="48.06746" lon="6.28119">
        <ele>304</ele>
        <time>2022-05-23T06:01:43Z</time>
      </trkpt>
      <trkpt lat="48.06755" lon="6.28133">
        <ele>303</ele>
        <time>2022-05-23T06:01:45Z</time>
      </trkpt>
      <trkpt lat="48.06804" lon="6.28189">
        <ele>305</ele>
        <time>2022-05-23T06:01:56Z</time>
      </trkpt>
      <trkpt lat="48.06909" lon="6.28279">
        <ele>305</ele>
        <time>2022-05-23T06:02:18Z</time>
      </trkpt>
      <trkpt lat="48.06926" lon="6.2829">
        <ele>305</ele>
        <time>2022-05-23T06:02:21Z</time>
      </trkpt>
      <trkpt lat="48.06968" lon="6.2833">
        <ele>306</ele>
        <time>2022-05-23T06:02:30Z</time>
      </trkpt>
      <trkpt lat="48.07077" lon="6.28482">
        <ele>305</ele>
        <time>2022-05-23T06:02:57Z</time>
      </trkpt>
      <trkpt lat="48.07132" lon="6.28576">
        <ele>304</ele>
        <time>2022-05-23T06:03:12Z</time>
      </trkpt>
      <trkpt lat="48.07176" lon="6.28637">
        <ele>303</ele>
        <time>2022-05-23T06:03:22Z</time>
      </trkpt>
      <trkpt lat="48.07184" lon="6.28645">
        <ele>304</ele>
        <time>2022-05-23T06:03:24Z</time>
      </trkpt>
      <trkpt lat="48.07256" lon="6.28757">
        <ele>302</ele>
        <time>2022-05-23T06:03:42Z</time>
      </trkpt>
      <trkpt lat="48.07276" lon="6.28793">
        <ele>306</ele>
        <time>2022-05-23T06:03:48Z</time>
      </trkpt>
      <trkpt lat="48.07325" lon="6.2893">
        <ele>305</ele>
        <time>2022-05-23T06:04:06Z</time>
      </trkpt>
      <trkpt lat="48.07372" lon="6.29086">
        <ele>307</ele>
        <time>2022-05-23T06:04:27Z</time>
      </trkpt>
      <trkpt lat="48.07412" lon="6.29203">
        <ele>307</ele>
        <time>2022-05-23T06:04:42Z</time>
      </trkpt>
      <trkpt lat="48.0743" lon="6.29253">
        <ele>307</ele>
        <time>2022-05-23T06:04:49Z</time>
      </trkpt>
      <trkpt lat="48.07451" lon="6.293">
        <ele>306</ele>
        <time>2022-05-23T06:04:56Z</time>
      </trkpt>
      <trkpt lat="48.07479" lon="6.29334">
        <ele>305</ele>
        <time>2022-05-23T06:05:02Z</time>
      </trkpt>
      <trkpt lat="48.0749" lon="6.29341">
        <ele>305</ele>
        <time>2022-05-23T06:05:04Z</time>
      </trkpt>
      <trkpt lat="48.07515" lon="6.29351">
        <ele>306</ele>
        <time>2022-05-23T06:05:09Z</time>
      </trkpt>
      <trkpt lat="48.07542" lon="6.29357">
        <ele>306</ele>
        <time>2022-05-23T06:05:14Z</time>
      </trkpt>
      <trkpt lat="48.07577" lon="6.29361">
        <ele>307</ele>
        <time>2022-05-23T06:05:20Z</time>
      </trkpt>
      <trkpt lat="48.07649" lon="6.29376">
        <ele>308</ele>
        <time>2022-05-23T06:05:33Z</time>
      </trkpt>
      <trkpt lat="48.07769" lon="6.29392">
        <ele>308</ele>
        <time>2022-05-23T06:05:54Z</time>
      </trkpt>
      <trkpt lat="48.07819" lon="6.29407">
        <ele>305</ele>
        <time>2022-05-23T06:06:04Z</time>
      </trkpt>
      <trkpt lat="48.07837" lon="6.29415">
        <ele>304</ele>
        <time>2022-05-23T06:06:07Z</time>
      </trkpt>
      <trkpt lat="48.07882" lon="6.29445">
        <ele>305</ele>
        <time>2022-05-23T06:06:16Z</time>
      </trkpt>
      <trkpt lat="48.07915" lon="6.29476">
        <ele>304</ele>
        <time>2022-05-23T06:06:23Z</time>
      </trkpt>
      <trkpt lat="48.0794" lon="6.29507">
        <ele>306</ele>
        <time>2022-05-23T06:06:28Z</time>
      </trkpt>
      <trkpt lat="48.0802" lon="6.29635">
        <ele>307</ele>
        <time>2022-05-23T06:06:49Z</time>
      </trkpt>
      <trkpt lat="48.08025" lon="6.29648">
        <ele>307</ele>
        <time>2022-05-23T06:06:51Z</time>
      </trkpt>
      <trkpt lat="48.08077" lon="6.29737">
        <ele>305</ele>
        <time>2022-05-23T06:07:05Z</time>
      </trkpt>
      <trkpt lat="48.08268" lon="6.30081">
        <ele>308</ele>
        <time>2022-05-23T06:07:58Z</time>
      </trkpt>
      <trkpt lat="48.08286" lon="6.30107">
        <ele>308</ele>
        <time>2022-05-23T06:08:03Z</time>
      </trkpt>
      <trkpt lat="48.08322" lon="6.30171">
        <ele>309</ele>
        <time>2022-05-23T06:08:13Z</time>
      </trkpt>
      <trkpt lat="48.08351" lon="6.30231">
        <ele>308</ele>
        <time>2022-05-23T06:08:21Z</time>
      </trkpt>
      <trkpt lat="48.08398" lon="6.30319">
        <ele>306</ele>
        <time>2022-05-23T06:08:35Z</time>
      </trkpt>
      <trkpt lat="48.08455" lon="6.30403">
        <ele>306</ele>
        <time>2022-05-23T06:08:49Z</time>
      </trkpt>
      <trkpt lat="48.08457" lon="6.3042">
        <ele>306</ele>
        <time>2022-05-23T06:08:51Z</time>
      </trkpt>
      <trkpt lat="48.08418" lon="6.305">
        <ele>306</ele>
        <time>2022-05-23T06:09:03Z</time>
      </trkpt>
      <trkpt lat="48.08404" lon="6.30537">
        <ele>306</ele>
        <time>2022-05-23T06:09:08Z</time>
      </trkpt>
      <trkpt lat="48.08413" lon="6.30555">
        <ele>306</ele>
        <time>2022-05-23T06:09:11Z</time>
      </trkpt>
      <trkpt lat="48.0843" lon="6.30573">
        <ele>306</ele>
        <time>2022-05-23T06:09:14Z</time>
      </trkpt>
      <trkpt lat="48.08457" lon="6.30618">
        <ele>309</ele>
        <time>2022-05-23T06:09:21Z</time>
      </trkpt>
      <trkpt lat="48.08465" lon="6.30644">
        <ele>311</ele>
        <time>2022-05-23T06:09:25Z</time>
      </trkpt>
      <trkpt lat="48.08475" lon="6.3066">
        <ele>312</ele>
        <time>2022-05-23T06:09:27Z</time>
      </trkpt>
      <trkpt lat="48.08546" lon="6.30838">
        <ele>319</ele>
        <time>2022-05-23T06:09:52Z</time>
      </trkpt>
      <trkpt lat="48.08553" lon="6.30849">
        <ele>319</ele>
        <time>2022-05-23T06:09:54Z</time>
      </trkpt>
      <trkpt lat="48.08572" lon="6.30903">
        <ele>322</ele>
        <time>2022-05-23T06:10:01Z</time>
      </trkpt>
      <trkpt lat="48.08621" lon="6.31026">
        <ele>328</ele>
        <time>2022-05-23T06:10:18Z</time>
      </trkpt>
      <trkpt lat="48.08638" lon="6.31063">
        <ele>331</ele>
        <time>2022-05-23T06:10:24Z</time>
      </trkpt>
      <trkpt lat="48.08642" lon="6.31077">
        <ele>333</ele>
        <time>2022-05-23T06:10:25Z</time>
      </trkpt>
      <trkpt lat="48.08659" lon="6.31113">
        <ele>336</ele>
        <time>2022-05-23T06:10:31Z</time>
      </trkpt>
      <trkpt lat="48.0869" lon="6.31192">
        <ele>341</ele>
        <time>2022-05-23T06:10:41Z</time>
      </trkpt>
      <trkpt lat="48.08715" lon="6.31239">
        <ele>342</ele>
        <time>2022-05-23T06:10:49Z</time>
      </trkpt>
      <trkpt lat="48.08797" lon="6.31362">
        <ele>344</ele>
        <time>2022-05-23T06:11:09Z</time>
      </trkpt>
      <trkpt lat="48.0883" lon="6.31418">
        <ele>346</ele>
        <time>2022-05-23T06:11:18Z</time>
      </trkpt>
      <trkpt lat="48.08913" lon="6.31544">
        <ele>346</ele>
        <time>2022-05-23T06:11:39Z</time>
      </trkpt>
      <trkpt lat="48.08962" lon="6.31615">
        <ele>345</ele>
        <time>2022-05-23T06:11:51Z</time>
      </trkpt>
      <trkpt lat="48.08973" lon="6.31627">
        <ele>345</ele>
        <time>2022-05-23T06:11:54Z</time>
      </trkpt>
      <trkpt lat="48.09037" lon="6.31731">
        <ele>341</ele>
        <time>2022-05-23T06:12:11Z</time>
      </trkpt>
      <trkpt lat="48.09203" lon="6.31975">
        <ele>339</ele>
        <time>2022-05-23T06:12:52Z</time>
      </trkpt>
      <trkpt lat="48.09294" lon="6.32112">
        <ele>342</ele>
        <time>2022-05-23T06:13:15Z</time>
      </trkpt>
      <trkpt lat="48.09307" lon="6.32135">
        <ele>343</ele>
        <time>2022-05-23T06:13:18Z</time>
      </trkpt>
      <trkpt lat="48.09358" lon="6.32208">
        <ele>344</ele>
        <time>2022-05-23T06:13:31Z</time>
      </trkpt>
      <trkpt lat="48.09437" lon="6.32328">
        <ele>348</ele>
        <time>2022-05-23T06:13:51Z</time>
      </trkpt>
      <trkpt lat="48.09842" lon="6.32916">
        <ele>367</ele>
        <time>2022-05-23T06:15:31Z</time>
      </trkpt>
      <trkpt lat="48.09857" lon="6.3294">
        <ele>367</ele>
        <time>2022-05-23T06:15:35Z</time>
      </trkpt>
      <trkpt lat="48.09867" lon="6.32963">
        <ele>367</ele>
        <time>2022-05-23T06:15:39Z</time>
      </trkpt>
      <trkpt lat="48.09857" lon="6.32959">
        <ele>367</ele>
        <time>2022-05-23T06:15:40Z</time>
      </trkpt>
      <trkpt lat="48.09865" lon="6.32967">
        <ele>367</ele>
        <time>2022-05-23T06:15:42Z</time>
      </trkpt>
      <trkpt lat="48.09906" lon="6.33028">
        <ele>368</ele>
        <time>2022-05-23T06:15:52Z</time>
      </trkpt>
      <trkpt lat="48.09951" lon="6.33078">
        <ele>365</ele>
        <time>2022-05-23T06:16:02Z</time>
      </trkpt>
      <trkpt lat="48.10013" lon="6.3318">
        <ele>361</ele>
        <time>2022-05-23T06:16:19Z</time>
      </trkpt>
      <trkpt lat="48.10362" lon="6.33721">
        <ele>360</ele>
        <time>2022-05-23T06:17:48Z</time>
      </trkpt>
      <trkpt lat="48.10472" lon="6.33885">
        <ele>364</ele>
        <time>2022-05-23T06:18:16Z</time>
      </trkpt>
      <trkpt lat="48.10622" lon="6.34116">
        <ele>365</ele>
        <time>2022-05-23T06:18:54Z</time>
      </trkpt>
      <trkpt lat="48.10716" lon="6.34254">
        <ele>368</ele>
        <time>2022-05-23T06:19:17Z</time>
      </trkpt>
      <trkpt lat="48.10771" lon="6.34342">
        <ele>372</ele>
        <time>2022-05-23T06:19:32Z</time>
      </trkpt>
      <trkpt lat="48.10787" lon="6.34361">
        <ele>372</ele>
        <time>2022-05-23T06:19:35Z</time>
      </trkpt>
      <trkpt lat="48.10864" lon="6.34481">
        <ele>369</ele>
        <time>2022-05-23T06:19:55Z</time>
      </trkpt>
      <trkpt lat="48.10918" lon="6.34559">
        <ele>367</ele>
        <time>2022-05-23T06:20:09Z</time>
      </trkpt>
      <trkpt lat="48.11" lon="6.34688">
        <ele>372</ele>
        <time>2022-05-23T06:20:30Z</time>
      </trkpt>
      <trkpt lat="48.11036" lon="6.3474">
        <ele>375</ele>
        <time>2022-05-23T06:20:39Z</time>
      </trkpt>
      <trkpt lat="48.11048" lon="6.34763">
        <ele>376</ele>
        <time>2022-05-23T06:20:42Z</time>
      </trkpt>
      <trkpt lat="48.11077" lon="6.34802">
        <ele>379</ele>
        <time>2022-05-23T06:20:49Z</time>
      </trkpt>
      <trkpt lat="48.11089" lon="6.34823">
        <ele>380</ele>
        <time>2022-05-23T06:20:52Z</time>
      </trkpt>
      <trkpt lat="48.11151" lon="6.34912">
        <ele>387</ele>
        <time>2022-05-23T06:21:08Z</time>
      </trkpt>
      <trkpt lat="48.11324" lon="6.35171">
        <ele>410</ele>
        <time>2022-05-23T06:21:51Z</time>
      </trkpt>
      <trkpt lat="48.11337" lon="6.35194">
        <ele>412</ele>
        <time>2022-05-23T06:21:55Z</time>
      </trkpt>
      <trkpt lat="48.11352" lon="6.35233">
        <ele>414</ele>
        <time>2022-05-23T06:22:00Z</time>
      </trkpt>
      <trkpt lat="48.1138" lon="6.35294">
        <ele>416</ele>
        <time>2022-05-23T06:22:09Z</time>
      </trkpt>
      <trkpt lat="48.11414" lon="6.35421">
        <ele>421</ele>
        <time>2022-05-23T06:22:25Z</time>
      </trkpt>
      <trkpt lat="48.11441" lon="6.35467">
        <ele>422</ele>
        <time>2022-05-23T06:22:32Z</time>
      </trkpt>
      <trkpt lat="48.11488" lon="6.35523">
        <ele>422</ele>
        <time>2022-05-23T06:22:43Z</time>
      </trkpt>
      <trkpt lat="48.11514" lon="6.35558">
        <ele>424</ele>
        <time>2022-05-23T06:22:49Z</time>
      </trkpt>
      <trkpt lat="48.11522" lon="6.3557">
        <ele>425</ele>
        <time>2022-05-23T06:22:51Z</time>
      </trkpt>
      <trkpt lat="48.11528" lon="6.35585">
        <ele>425</ele>
        <time>2022-05-23T06:22:53Z</time>
      </trkpt>
      <trkpt lat="48.11531" lon="6.35602">
        <ele>427</ele>
        <time>2022-05-23T06:22:55Z</time>
      </trkpt>
      <trkpt lat="48.11527" lon="6.35636">
        <ele>428</ele>
        <time>2022-05-23T06:23:00Z</time>
      </trkpt>
      <trkpt lat="48.11504" lon="6.35689">
        <ele>428</ele>
        <time>2022-05-23T06:23:07Z</time>
      </trkpt>
      <trkpt lat="48.11498" lon="6.35721">
        <ele>429</ele>
        <time>2022-05-23T06:23:11Z</time>
      </trkpt>
      <trkpt lat="48.11502" lon="6.35758">
        <ele>431</ele>
        <time>2022-05-23T06:23:15Z</time>
      </trkpt>
      <trkpt lat="48.11509" lon="6.35784">
        <ele>430</ele>
        <time>2022-05-23T06:23:19Z</time>
      </trkpt>
      <trkpt lat="48.11536" lon="6.35842">
        <ele>430</ele>
        <time>2022-05-23T06:23:27Z</time>
      </trkpt>
      <trkpt lat="48.11554" lon="6.35866">
        <ele>429</ele>
        <time>2022-05-23T06:23:31Z</time>
      </trkpt>
      <trkpt lat="48.11564" lon="6.35874">
        <ele>429</ele>
        <time>2022-05-23T06:23:33Z</time>
      </trkpt>
      <trkpt lat="48.11595" lon="6.35894">
        <ele>429</ele>
        <time>2022-05-23T06:23:40Z</time>
      </trkpt>
      <trkpt lat="48.11641" lon="6.35915">
        <ele>427</ele>
        <time>2022-05-23T06:23:48Z</time>
      </trkpt>
      <trkpt lat="48.11653" lon="6.35916">
        <ele>427</ele>
        <time>2022-05-23T06:23:50Z</time>
      </trkpt>
      <trkpt lat="48.11702" lon="6.35895">
        <ele>431</ele>
        <time>2022-05-23T06:23:59Z</time>
      </trkpt>
      <trkpt lat="48.11723" lon="6.35888">
        <ele>433</ele>
        <time>2022-05-23T06:24:03Z</time>
      </trkpt>
      <trkpt lat="48.11734" lon="6.35887">
        <ele>434</ele>
        <time>2022-05-23T06:24:05Z</time>
      </trkpt>
      <trkpt lat="48.11744" lon="6.35888">
        <ele>434</ele>
        <time>2022-05-23T06:24:07Z</time>
      </trkpt>
      <trkpt lat="48.11763" lon="6.35895">
        <ele>434</ele>
        <time>2022-05-23T06:24:10Z</time>
      </trkpt>
      <trkpt lat="48.1179" lon="6.35912">
        <ele>435</ele>
        <time>2022-05-23T06:24:16Z</time>
      </trkpt>
      <trkpt lat="48.11831" lon="6.35967">
        <ele>434</ele>
        <time>2022-05-23T06:24:25Z</time>
      </trkpt>
      <trkpt lat="48.11836" lon="6.35978">
        <ele>434</ele>
        <time>2022-05-23T06:24:27Z</time>
      </trkpt>
      <trkpt lat="48.11851" lon="6.35998">
        <ele>434</ele>
        <time>2022-05-23T06:24:30Z</time>
      </trkpt>
      <trkpt lat="48.11894" lon="6.36039">
        <ele>437</ele>
        <time>2022-05-23T06:24:40Z</time>
      </trkpt>
      <trkpt lat="48.11903" lon="6.36052">
        <ele>437</ele>
        <time>2022-05-23T06:24:42Z</time>
      </trkpt>
      <trkpt lat="48.11922" lon="6.3609">
        <ele>437</ele>
        <time>2022-05-23T06:24:47Z</time>
      </trkpt>
      <trkpt lat="48.11987" lon="6.36175">
        <ele>430</ele>
        <time>2022-05-23T06:25:03Z</time>
      </trkpt>
      <trkpt lat="48.12095" lon="6.363">
        <ele>428</ele>
        <time>2022-05-23T06:25:27Z</time>
      </trkpt>
      <trkpt lat="48.12115" lon="6.36318">
        <ele>428</ele>
        <time>2022-05-23T06:25:31Z</time>
      </trkpt>
      <trkpt lat="48.12125" lon="6.36324">
        <ele>428</ele>
        <time>2022-05-23T06:25:33Z</time>
      </trkpt>
      <trkpt lat="48.12145" lon="6.36328">
        <ele>428</ele>
        <time>2022-05-23T06:25:37Z</time>
      </trkpt>
      <trkpt lat="48.12158" lon="6.36322">
        <ele>429</ele>
        <time>2022-05-23T06:25:39Z</time>
      </trkpt>
      <trkpt lat="48.1223" lon="6.36249">
        <ele>427</ele>
        <time>2022-05-23T06:25:55Z</time>
      </trkpt>
      <trkpt lat="48.12276" lon="6.36212">
        <ele>427</ele>
        <time>2022-05-23T06:26:04Z</time>
      </trkpt>
      <trkpt lat="48.12303" lon="6.36194">
        <ele>426</ele>
        <time>2022-05-23T06:26:09Z</time>
      </trkpt>
      <trkpt lat="48.12313" lon="6.36192">
        <ele>426</ele>
        <time>2022-05-23T06:26:11Z</time>
      </trkpt>
      <trkpt lat="48.12324" lon="6.36194">
        <ele>426</ele>
        <time>2022-05-23T06:26:13Z</time>
      </trkpt>
      <trkpt lat="48.12334" lon="6.362">
        <ele>426</ele>
        <time>2022-05-23T06:26:15Z</time>
      </trkpt>
      <trkpt lat="48.12451" lon="6.36291">
        <ele>434</ele>
        <time>2022-05-23T06:26:38Z</time>
      </trkpt>
      <trkpt lat="48.12462" lon="6.36297">
        <ele>434</ele>
        <time>2022-05-23T06:26:40Z</time>
      </trkpt>
      <trkpt lat="48.12504" lon="6.36329">
        <ele>435</ele>
        <time>2022-05-23T06:26:49Z</time>
      </trkpt>
      <trkpt lat="48.12512" lon="6.36338">
        <ele>435</ele>
        <time>2022-05-23T06:26:51Z</time>
      </trkpt>
      <trkpt lat="48.12522" lon="6.36343">
        <ele>434</ele>
        <time>2022-05-23T06:26:52Z</time>
      </trkpt>
      <trkpt lat="48.12533" lon="6.36341">
        <ele>433</ele>
        <time>2022-05-23T06:26:54Z</time>
      </trkpt>
      <trkpt lat="48.12542" lon="6.36344">
        <ele>432</ele>
        <time>2022-05-23T06:26:56Z</time>
      </trkpt>
      <trkpt lat="48.12533" lon="6.36357">
        <ele>434</ele>
        <time>2022-05-23T06:26:58Z</time>
      </trkpt>
      <trkpt lat="48.1254" lon="6.36368">
        <ele>433</ele>
        <time>2022-05-23T06:27:00Z</time>
      </trkpt>
      <trkpt lat="48.12558" lon="6.36387">
        <ele>433</ele>
        <time>2022-05-23T06:27:04Z</time>
      </trkpt>
      <trkpt lat="48.12573" lon="6.36412">
        <ele>433</ele>
        <time>2022-05-23T06:27:08Z</time>
      </trkpt>
      <trkpt lat="48.12585" lon="6.36439">
        <ele>433</ele>
        <time>2022-05-23T06:27:12Z</time>
      </trkpt>
      <trkpt lat="48.12597" lon="6.36483">
        <ele>433</ele>
        <time>2022-05-23T06:27:17Z</time>
      </trkpt>
      <trkpt lat="48.12604" lon="6.36541">
        <ele>432</ele>
        <time>2022-05-23T06:27:24Z</time>
      </trkpt>
      <trkpt lat="48.12598" lon="6.36766">
        <ele>420</ele>
        <time>2022-05-23T06:27:51Z</time>
      </trkpt>
      <trkpt lat="48.12605" lon="6.36812">
        <ele>419</ele>
        <time>2022-05-23T06:27:57Z</time>
      </trkpt>
      <trkpt lat="48.12611" lon="6.36833">
        <ele>419</ele>
        <time>2022-05-23T06:28:00Z</time>
      </trkpt>
      <trkpt lat="48.12635" lon="6.36891">
        <ele>420</ele>
        <time>2022-05-23T06:28:08Z</time>
      </trkpt>
      <trkpt lat="48.12663" lon="6.36934">
        <ele>422</ele>
        <time>2022-05-23T06:28:15Z</time>
      </trkpt>
      <trkpt lat="48.12698" lon="6.3698">
        <ele>426</ele>
        <time>2022-05-23T06:28:23Z</time>
      </trkpt>
      <trkpt lat="48.12728" lon="6.37027">
        <ele>428</ele>
        <time>2022-05-23T06:28:31Z</time>
      </trkpt>
      <trkpt lat="48.1284" lon="6.37176">
        <ele>431</ele>
        <time>2022-05-23T06:28:57Z</time>
      </trkpt>
      <trkpt lat="48.12892" lon="6.37251">
        <ele>436</ele>
        <time>2022-05-23T06:29:10Z</time>
      </trkpt>
      <trkpt lat="48.12921" lon="6.37311">
        <ele>438</ele>
        <time>2022-05-23T06:29:19Z</time>
      </trkpt>
      <trkpt lat="48.1302" lon="6.37553">
        <ele>440</ele>
        <time>2022-05-23T06:29:53Z</time>
      </trkpt>
      <trkpt lat="48.13118" lon="6.37778">
        <ele>447</ele>
        <time>2022-05-23T06:30:25Z</time>
      </trkpt>
      <trkpt lat="48.13128" lon="6.37779">
        <ele>448</ele>
        <time>2022-05-23T06:30:26Z</time>
      </trkpt>
      <trkpt lat="48.13138" lon="6.37771">
        <ele>448</ele>
        <time>2022-05-23T06:30:28Z</time>
      </trkpt>
      <trkpt lat="48.13162" lon="6.37739">
        <ele>450</ele>
        <time>2022-05-23T06:30:34Z</time>
      </trkpt>
      <trkpt lat="48.13176" lon="6.37716">
        <ele>452</ele>
        <time>2022-05-23T06:30:38Z</time>
      </trkpt>
      <trkpt lat="48.13184" lon="6.37708">
        <ele>453</ele>
        <time>2022-05-23T06:30:40Z</time>
      </trkpt>
      <trkpt lat="48.13167" lon="6.3772">
        <ele>451</ele>
        <time>2022-05-23T06:30:43Z</time>
      </trkpt>
      <trkpt lat="48.13163" lon="6.37732">
        <ele>450</ele>
        <time>2022-05-23T06:30:45Z</time>
      </trkpt>
      <trkpt lat="48.13147" lon="6.37757">
        <ele>449</ele>
        <time>2022-05-23T06:30:49Z</time>
      </trkpt>
      <trkpt lat="48.13123" lon="6.37788">
        <ele>448</ele>
        <time>2022-05-23T06:30:54Z</time>
      </trkpt>
      <trkpt lat="48.13126" lon="6.37803">
        <ele>448</ele>
        <time>2022-05-23T06:30:56Z</time>
      </trkpt>
      <trkpt lat="48.13181" lon="6.37916">
        <ele>450</ele>
        <time>2022-05-23T06:31:13Z</time>
      </trkpt>
      <trkpt lat="48.13243" lon="6.3802">
        <ele>448</ele>
        <time>2022-05-23T06:31:29Z</time>
      </trkpt>
      <trkpt lat="48.13287" lon="6.38107">
        <ele>443</ele>
        <time>2022-05-23T06:31:42Z</time>
      </trkpt>
      <trkpt lat="48.13341" lon="6.38194">
        <ele>445</ele>
        <time>2022-05-23T06:31:56Z</time>
      </trkpt>
      <trkpt lat="48.13365" lon="6.38226">
        <ele>451</ele>
        <time>2022-05-23T06:32:02Z</time>
      </trkpt>
      <trkpt lat="48.13393" lon="6.3825">
        <ele>455</ele>
        <time>2022-05-23T06:32:08Z</time>
      </trkpt>
      <trkpt lat="48.13444" lon="6.38275">
        <ele>461</ele>
        <time>2022-05-23T06:32:17Z</time>
      </trkpt>
      <trkpt lat="48.13454" lon="6.38277">
        <ele>461</ele>
        <time>2022-05-23T06:32:19Z</time>
      </trkpt>
      <trkpt lat="48.13482" lon="6.38289">
        <ele>463</ele>
        <time>2022-05-23T06:32:24Z</time>
      </trkpt>
      <trkpt lat="48.13515" lon="6.38306">
        <ele>465</ele>
        <time>2022-05-23T06:32:31Z</time>
      </trkpt>
      <trkpt lat="48.13553" lon="6.38334">
        <ele>466</ele>
        <time>2022-05-23T06:32:38Z</time>
      </trkpt>
      <trkpt lat="48.13607" lon="6.3839">
        <ele>468</ele>
        <time>2022-05-23T06:32:50Z</time>
      </trkpt>
      <trkpt lat="48.13645" lon="6.38452">
        <ele>468</ele>
        <time>2022-05-23T06:33:00Z</time>
      </trkpt>
      <trkpt lat="48.13662" lon="6.38496">
        <ele>468</ele>
        <time>2022-05-23T06:33:06Z</time>
      </trkpt>
      <trkpt lat="48.1367" lon="6.38529">
        <ele>468</ele>
        <time>2022-05-23T06:33:10Z</time>
      </trkpt>
      <trkpt lat="48.13676" lon="6.38564">
        <ele>467</ele>
        <time>2022-05-23T06:33:14Z</time>
      </trkpt>
      <trkpt lat="48.13678" lon="6.38599">
        <ele>466</ele>
        <time>2022-05-23T06:33:18Z</time>
      </trkpt>
      <trkpt lat="48.13676" lon="6.38655">
        <ele>463</ele>
        <time>2022-05-23T06:33:25Z</time>
      </trkpt>
      <trkpt lat="48.13662" lon="6.38783">
        <ele>458</ele>
        <time>2022-05-23T06:33:41Z</time>
      </trkpt>
      <trkpt lat="48.13657" lon="6.38851">
        <ele>457</ele>
        <time>2022-05-23T06:33:49Z</time>
      </trkpt>
      <trkpt lat="48.13662" lon="6.38892">
        <ele>457</ele>
        <time>2022-05-23T06:33:54Z</time>
      </trkpt>
      <trkpt lat="48.13677" lon="6.38944">
        <ele>458</ele>
        <time>2022-05-23T06:34:00Z</time>
      </trkpt>
      <trkpt lat="48.13718" lon="6.39066">
        <ele>460</ele>
        <time>2022-05-23T06:34:17Z</time>
      </trkpt>
      <trkpt lat="48.13738" lon="6.39118">
        <ele>461</ele>
        <time>2022-05-23T06:34:24Z</time>
      </trkpt>
      <trkpt lat="48.1375" lon="6.3914">
        <ele>461</ele>
        <time>2022-05-23T06:34:27Z</time>
      </trkpt>
      <trkpt lat="48.1386" lon="6.3929">
        <ele>460</ele>
        <time>2022-05-23T06:34:53Z</time>
      </trkpt>
      <trkpt lat="48.13947" lon="6.39398">
        <ele>464</ele>
        <time>2022-05-23T06:35:14Z</time>
      </trkpt>
      <trkpt lat="48.13966" lon="6.39415">
        <ele>466</ele>
        <time>2022-05-23T06:35:18Z</time>
      </trkpt>
      <trkpt lat="48.13977" lon="6.39421">
        <ele>467</ele>
        <time>2022-05-23T06:35:20Z</time>
      </trkpt>
      <trkpt lat="48.14" lon="6.39426">
        <ele>468</ele>
        <time>2022-05-23T06:35:24Z</time>
      </trkpt>
      <trkpt lat="48.14087" lon="6.39414">
        <ele>470</ele>
        <time>2022-05-23T06:35:39Z</time>
      </trkpt>
      <trkpt lat="48.14111" lon="6.39412">
        <ele>471</ele>
        <time>2022-05-23T06:35:44Z</time>
      </trkpt>
      <trkpt lat="48.14135" lon="6.39414">
        <ele>472</ele>
        <time>2022-05-23T06:35:48Z</time>
      </trkpt>
      <trkpt lat="48.14168" lon="6.39432">
        <ele>472</ele>
        <time>2022-05-23T06:35:54Z</time>
      </trkpt>
      <trkpt lat="48.14259" lon="6.39492">
        <ele>469</ele>
        <time>2022-05-23T06:36:12Z</time>
      </trkpt>
      <trkpt lat="48.14314" lon="6.39532">
        <ele>466</ele>
        <time>2022-05-23T06:36:23Z</time>
      </trkpt>
      <trkpt lat="48.14371" lon="6.39569">
        <ele>466</ele>
        <time>2022-05-23T06:36:34Z</time>
      </trkpt>
      <trkpt lat="48.14419" lon="6.39606">
        <ele>467</ele>
        <time>2022-05-23T06:36:43Z</time>
      </trkpt>
      <trkpt lat="48.14462" lon="6.39656">
        <ele>470</ele>
        <time>2022-05-23T06:36:53Z</time>
      </trkpt>
      <trkpt lat="48.14491" lon="6.39699">
        <ele>471</ele>
        <time>2022-05-23T06:37:00Z</time>
      </trkpt>
      <trkpt lat="48.14544" lon="6.39805">
        <ele>469</ele>
        <time>2022-05-23T06:37:16Z</time>
      </trkpt>
      <trkpt lat="48.14595" lon="6.39887">
        <ele>467</ele>
        <time>2022-05-23T06:37:29Z</time>
      </trkpt>
      <trkpt lat="48.14609" lon="6.39923">
        <ele>466</ele>
        <time>2022-05-23T06:37:34Z</time>
      </trkpt>
      <trkpt lat="48.14616" lon="6.39966">
        <ele>464</ele>
        <time>2022-05-23T06:37:40Z</time>
      </trkpt>
      <trkpt lat="48.14636" lon="6.40192">
        <ele>455</ele>
        <time>2022-05-23T06:38:07Z</time>
      </trkpt>
      <trkpt lat="48.14638" lon="6.40237">
        <ele>450</ele>
        <time>2022-05-23T06:38:12Z</time>
      </trkpt>
      <trkpt lat="48.1465" lon="6.40311">
        <ele>447</ele>
        <time>2022-05-23T06:38:21Z</time>
      </trkpt>
      <trkpt lat="48.1466" lon="6.40343">
        <ele>446</ele>
        <time>2022-05-23T06:38:25Z</time>
      </trkpt>
      <trkpt lat="48.14673" lon="6.40371">
        <ele>447</ele>
        <time>2022-05-23T06:38:29Z</time>
      </trkpt>
      <trkpt lat="48.14716" lon="6.40428">
        <ele>453</ele>
        <time>2022-05-23T06:38:39Z</time>
      </trkpt>
      <trkpt lat="48.1475" lon="6.40458">
        <ele>457</ele>
        <time>2022-05-23T06:38:46Z</time>
      </trkpt>
      <trkpt lat="48.14776" lon="6.40477">
        <ele>459</ele>
        <time>2022-05-23T06:38:52Z</time>
      </trkpt>
      <trkpt lat="48.14811" lon="6.40509">
        <ele>460</ele>
        <time>2022-05-23T06:38:59Z</time>
      </trkpt>
      <trkpt lat="48.14841" lon="6.40543">
        <ele>461</ele>
        <time>2022-05-23T06:39:06Z</time>
      </trkpt>
      <trkpt lat="48.15048" lon="6.40947">
        <ele>467</ele>
        <time>2022-05-23T06:40:06Z</time>
      </trkpt>
      <trkpt lat="48.15074" lon="6.41005">
        <ele>465</ele>
        <time>2022-05-23T06:40:14Z</time>
      </trkpt>
      <trkpt lat="48.15092" lon="6.41064">
        <ele>467</ele>
        <time>2022-05-23T06:40:22Z</time>
      </trkpt>
      <trkpt lat="48.15094" lon="6.41097">
        <ele>468</ele>
        <time>2022-05-23T06:40:26Z</time>
      </trkpt>
      <trkpt lat="48.151" lon="6.41124">
        <ele>469</ele>
        <time>2022-05-23T06:40:29Z</time>
      </trkpt>
      <trkpt lat="48.15105" lon="6.41168">
        <ele>470</ele>
        <time>2022-05-23T06:40:35Z</time>
      </trkpt>
      <trkpt lat="48.1511" lon="6.41197">
        <ele>470</ele>
        <time>2022-05-23T06:40:38Z</time>
      </trkpt>
      <trkpt lat="48.15122" lon="6.41241">
        <ele>470</ele>
        <time>2022-05-23T06:40:44Z</time>
      </trkpt>
      <trkpt lat="48.15237" lon="6.41495">
        <ele>465</ele>
        <time>2022-05-23T06:41:20Z</time>
      </trkpt>
      <trkpt lat="48.15251" lon="6.41519">
        <ele>465</ele>
        <time>2022-05-23T06:41:24Z</time>
      </trkpt>
      <trkpt lat="48.1528" lon="6.4159">
        <ele>467</ele>
        <time>2022-05-23T06:41:34Z</time>
      </trkpt>
      <trkpt lat="48.15328" lon="6.41689">
        <ele>466</ele>
        <time>2022-05-23T06:41:48Z</time>
      </trkpt>
      <trkpt lat="48.15421" lon="6.41901">
        <ele>461</ele>
        <time>2022-05-23T06:42:19Z</time>
      </trkpt>
      <trkpt lat="48.15446" lon="6.41948">
        <ele>463</ele>
        <time>2022-05-23T06:42:26Z</time>
      </trkpt>
      <trkpt lat="48.15456" lon="6.41975">
        <ele>463</ele>
        <time>2022-05-23T06:42:29Z</time>
      </trkpt>
      <trkpt lat="48.15509" lon="6.42094">
        <ele>463</ele>
        <time>2022-05-23T06:42:46Z</time>
      </trkpt>
      <trkpt lat="48.15631" lon="6.42357">
        <ele>455</ele>
        <time>2022-05-23T06:43:24Z</time>
      </trkpt>
      <trkpt lat="48.1567" lon="6.42453">
        <ele>455</ele>
        <time>2022-05-23T06:43:38Z</time>
      </trkpt>
      <trkpt lat="48.15697" lon="6.42505">
        <ele>455</ele>
        <time>2022-05-23T06:43:46Z</time>
      </trkpt>
      <trkpt lat="48.15727" lon="6.42541">
        <ele>454</ele>
        <time>2022-05-23T06:43:52Z</time>
      </trkpt>
      <trkpt lat="48.15808" lon="6.42622">
        <ele>449</ele>
        <time>2022-05-23T06:44:10Z</time>
      </trkpt>
      <trkpt lat="48.15839" lon="6.42661">
        <ele>447</ele>
        <time>2022-05-23T06:44:17Z</time>
      </trkpt>
      <trkpt lat="48.1595" lon="6.42848">
        <ele>451</ele>
        <time>2022-05-23T06:44:47Z</time>
      </trkpt>
      <trkpt lat="48.16011" lon="6.42972">
        <ele>454</ele>
        <time>2022-05-23T06:45:05Z</time>
      </trkpt>
      <trkpt lat="48.16055" lon="6.43043">
        <ele>454</ele>
        <time>2022-05-23T06:45:16Z</time>
      </trkpt>
      <trkpt lat="48.16073" lon="6.43064">
        <ele>454</ele>
        <time>2022-05-23T06:45:20Z</time>
      </trkpt>
      <trkpt lat="48.1615" lon="6.43129">
        <ele>453</ele>
        <time>2022-05-23T06:45:36Z</time>
      </trkpt>
      <trkpt lat="48.16238" lon="6.4318">
        <ele>449</ele>
        <time>2022-05-23T06:45:53Z</time>
      </trkpt>
      <trkpt lat="48.16254" lon="6.43186">
        <ele>448</ele>
        <time>2022-05-23T06:45:56Z</time>
      </trkpt>
      <trkpt lat="48.16261" lon="6.43197">
        <ele>446</ele>
        <time>2022-05-23T06:45:58Z</time>
      </trkpt>
      <trkpt lat="48.16321" lon="6.43232">
        <ele>439</ele>
        <time>2022-05-23T06:46:09Z</time>
      </trkpt>
      <trkpt lat="48.16359" lon="6.43251">
        <ele>436</ele>
        <time>2022-05-23T06:46:16Z</time>
      </trkpt>
      <trkpt lat="48.16387" lon="6.43271">
        <ele>435</ele>
        <time>2022-05-23T06:46:22Z</time>
      </trkpt>
      <trkpt lat="48.16464" lon="6.43316">
        <ele>431</ele>
        <time>2022-05-23T06:46:37Z</time>
      </trkpt>
      <trkpt lat="48.16631" lon="6.43408">
        <ele>418</ele>
        <time>2022-05-23T06:47:08Z</time>
      </trkpt>
      <trkpt lat="48.16717" lon="6.43459">
        <ele>412</ele>
        <time>2022-05-23T06:47:25Z</time>
      </trkpt>
      <trkpt lat="48.16788" lon="6.43496">
        <ele>406</ele>
        <time>2022-05-23T06:47:38Z</time>
      </trkpt>
      <trkpt lat="48.16816" lon="6.43504">
        <ele>404</ele>
        <time>2022-05-23T06:47:43Z</time>
      </trkpt>
      <trkpt lat="48.16832" lon="6.43503">
        <ele>403</ele>
        <time>2022-05-23T06:47:46Z</time>
      </trkpt>
      <trkpt lat="48.16848" lon="6.43499">
        <ele>402</ele>
        <time>2022-05-23T06:47:49Z</time>
      </trkpt>
      <trkpt lat="48.16862" lon="6.4349">
        <ele>401</ele>
        <time>2022-05-23T06:47:52Z</time>
      </trkpt>
      <trkpt lat="48.16894" lon="6.43475">
        <ele>398</ele>
        <time>2022-05-23T06:47:58Z</time>
      </trkpt>
      <trkpt lat="48.16904" lon="6.43474">
        <ele>397</ele>
        <time>2022-05-23T06:47:59Z</time>
      </trkpt>
      <trkpt lat="48.16921" lon="6.43478">
        <ele>396</ele>
        <time>2022-05-23T06:48:02Z</time>
      </trkpt>
      <trkpt lat="48.1694" lon="6.43487">
        <ele>394</ele>
        <time>2022-05-23T06:48:06Z</time>
      </trkpt>
      <trkpt lat="48.16958" lon="6.43501">
        <ele>394</ele>
        <time>2022-05-23T06:48:10Z</time>
      </trkpt>
      <trkpt lat="48.1698" lon="6.43527">
        <ele>391</ele>
        <time>2022-05-23T06:48:14Z</time>
      </trkpt>
      <trkpt lat="48.16997" lon="6.43534">
        <ele>390</ele>
        <time>2022-05-23T06:48:18Z</time>
      </trkpt>
      <trkpt lat="48.17012" lon="6.43528">
        <ele>389</ele>
        <time>2022-05-23T06:48:20Z</time>
      </trkpt>
      <trkpt lat="48.17036" lon="6.43511">
        <ele>387</ele>
        <time>2022-05-23T06:48:25Z</time>
      </trkpt>
      <trkpt lat="48.17047" lon="6.43506">
        <ele>387</ele>
        <time>2022-05-23T06:48:27Z</time>
      </trkpt>
      <trkpt lat="48.17059" lon="6.43509">
        <ele>386</ele>
        <time>2022-05-23T06:48:29Z</time>
      </trkpt>
      <trkpt lat="48.17081" lon="6.43574">
        <ele>380</ele>
        <time>2022-05-23T06:48:38Z</time>
      </trkpt>
      <trkpt lat="48.17098" lon="6.43616">
        <ele>378</ele>
        <time>2022-05-23T06:48:44Z</time>
      </trkpt>
      <trkpt lat="48.17108" lon="6.43638">
        <ele>376</ele>
        <time>2022-05-23T06:48:47Z</time>
      </trkpt>
      <trkpt lat="48.17148" lon="6.43708">
        <ele>374</ele>
        <time>2022-05-23T06:48:58Z</time>
      </trkpt>
      <trkpt lat="48.17153" lon="6.43721">
        <ele>374</ele>
        <time>2022-05-23T06:49:00Z</time>
      </trkpt>
      <trkpt lat="48.17156" lon="6.43736">
        <ele>374</ele>
        <time>2022-05-23T06:49:02Z</time>
      </trkpt>
      <trkpt lat="48.1719" lon="6.43826">
        <ele>370</ele>
        <time>2022-05-23T06:49:14Z</time>
      </trkpt>
      <trkpt lat="48.17212" lon="6.43908">
        <ele>368</ele>
        <time>2022-05-23T06:49:24Z</time>
      </trkpt>
      <trkpt lat="48.17221" lon="6.4393">
        <ele>367</ele>
        <time>2022-05-23T06:49:27Z</time>
      </trkpt>
      <trkpt lat="48.17226" lon="6.43957">
        <ele>366</ele>
        <time>2022-05-23T06:49:31Z</time>
      </trkpt>
      <trkpt lat="48.17228" lon="6.44018">
        <ele>362</ele>
        <time>2022-05-23T06:49:38Z</time>
      </trkpt>
      <trkpt lat="48.17226" lon="6.44046">
        <ele>360</ele>
        <time>2022-05-23T06:49:41Z</time>
      </trkpt>
      <trkpt lat="48.17216" lon="6.44102">
        <ele>355</ele>
        <time>2022-05-23T06:49:48Z</time>
      </trkpt>
      <trkpt lat="48.1722" lon="6.44117">
        <ele>354</ele>
        <time>2022-05-23T06:49:50Z</time>
      </trkpt>
      <trkpt lat="48.17221" lon="6.44141">
        <ele>352</ele>
        <time>2022-05-23T06:49:53Z</time>
      </trkpt>
      <trkpt lat="48.17225" lon="6.44161">
        <ele>350</ele>
        <time>2022-05-23T06:49:55Z</time>
      </trkpt>
      <trkpt lat="48.1724" lon="6.44218">
        <ele>346</ele>
        <time>2022-05-23T06:50:03Z</time>
      </trkpt>
      <trkpt lat="48.17238" lon="6.44233">
        <ele>345</ele>
        <time>2022-05-23T06:50:04Z</time>
      </trkpt>
      <trkpt lat="48.17242" lon="6.44298">
        <ele>340</ele>
        <time>2022-05-23T06:50:12Z</time>
      </trkpt>
      <trkpt lat="48.17232" lon="6.44306">
        <ele>340</ele>
        <time>2022-05-23T06:50:14Z</time>
      </trkpt>
      <trkpt lat="48.17201" lon="6.44306">
        <ele>341</ele>
        <time>2022-05-23T06:50:20Z</time>
      </trkpt>
      <trkpt lat="48.17205" lon="6.44327">
        <ele>340</ele>
        <time>2022-05-23T06:50:22Z</time>
      </trkpt>
      <trkpt lat="48.17213" lon="6.44334">
        <ele>339</ele>
        <time>2022-05-23T06:50:24Z</time>
      </trkpt>
      <trkpt lat="48.17222" lon="6.44337">
        <ele>339</ele>
        <time>2022-05-23T06:50:26Z</time>
      </trkpt>
      <trkpt lat="48.17232" lon="6.44336">
        <ele>339</ele>
        <time>2022-05-23T06:50:27Z</time>
      </trkpt>
      <trkpt lat="48.17263" lon="6.44347">
        <ele>338</ele>
        <time>2022-05-23T06:50:33Z</time>
      </trkpt>
      <trkpt lat="48.17302" lon="6.44354">
        <ele>338</ele>
        <time>2022-05-23T06:50:40Z</time>
      </trkpt>
      <trkpt lat="48.17346" lon="6.44367">
        <ele>337</ele>
        <time>2022-05-23T06:50:48Z</time>
      </trkpt>
      <trkpt lat="48.1738" lon="6.4437">
        <ele>338</ele>
        <time>2022-05-23T06:50:54Z</time>
      </trkpt>
      <trkpt lat="48.17391" lon="6.44375">
        <ele>337</ele>
        <time>2022-05-23T06:50:56Z</time>
      </trkpt>
      <trkpt lat="48.17458" lon="6.44386">
        <ele>336</ele>
        <time>2022-05-23T06:51:08Z</time>
      </trkpt>
      <trkpt lat="48.17479" lon="6.44392">
        <ele>336</ele>
        <time>2022-05-23T06:51:12Z</time>
      </trkpt>
      <trkpt lat="48.17488" lon="6.4439">
        <ele>336</ele>
        <time>2022-05-23T06:51:14Z</time>
      </trkpt>
      <trkpt lat="48.17517" lon="6.44405">
        <ele>335</ele>
        <time>2022-05-23T06:51:19Z</time>
      </trkpt>
      <trkpt lat="48.17552" lon="6.44415">
        <ele>333</ele>
        <time>2022-05-23T06:51:25Z</time>
      </trkpt>
      <trkpt lat="48.17584" lon="6.44421">
        <ele>332</ele>
        <time>2022-05-23T06:51:31Z</time>
      </trkpt>
      <trkpt lat="48.17591" lon="6.44436">
        <ele>331</ele>
        <time>2022-05-23T06:51:33Z</time>
      </trkpt>
      <trkpt lat="48.17589" lon="6.44456">
        <ele>330</ele>
        <time>2022-05-23T06:51:36Z</time>
      </trkpt>
      <trkpt lat="48.17592" lon="6.44472">
        <ele>329</ele>
        <time>2022-05-23T06:51:38Z</time>
      </trkpt>
      <trkpt lat="48.17622" lon="6.44575">
        <ele>326</ele>
        <time>2022-05-23T06:51:51Z</time>
      </trkpt>
      <trkpt lat="48.17627" lon="6.44587">
        <ele>326</ele>
        <time>2022-05-23T06:51:53Z</time>
      </trkpt>
      <trkpt lat="48.17645" lon="6.44596">
        <ele>326</ele>
        <time>2022-05-23T06:51:56Z</time>
      </trkpt>
      <trkpt lat="48.17636" lon="6.44616">
        <ele>326</ele>
        <time>2022-05-23T06:51:59Z</time>
      </trkpt>
      <trkpt lat="48.17645" lon="6.44645">
        <ele>326</ele>
        <time>2022-05-23T06:52:03Z</time>
      </trkpt>
      <trkpt lat="48.17639" lon="6.4466">
        <ele>326</ele>
        <time>2022-05-23T06:52:05Z</time>
      </trkpt>
      <trkpt lat="48.17637" lon="6.44675">
        <ele>327</ele>
        <time>2022-05-23T06:52:07Z</time>
      </trkpt>
      <trkpt lat="48.17626" lon="6.44703">
        <ele>327</ele>
        <time>2022-05-23T06:52:10Z</time>
      </trkpt>
      <trkpt lat="48.17597" lon="6.44769">
        <ele>327</ele>
        <time>2022-05-23T06:52:20Z</time>
      </trkpt>
      <trkpt lat="48.17588" lon="6.44779">
        <ele>327</ele>
        <time>2022-05-23T06:52:22Z</time>
      </trkpt>
      <trkpt lat="48.17557" lon="6.448">
        <ele>325</ele>
        <time>2022-05-23T06:52:28Z</time>
      </trkpt>
      <trkpt lat="48.17536" lon="6.44802">
        <ele>325</ele>
        <time>2022-05-23T06:52:32Z</time>
      </trkpt>
      <trkpt lat="48.17528" lon="6.44811">
        <ele>324</ele>
        <time>2022-05-23T06:52:33Z</time>
      </trkpt>
      <trkpt lat="48.17527" lon="6.4484">
        <ele>323</ele>
        <time>2022-05-23T06:52:37Z</time>
      </trkpt>
      <trkpt lat="48.17513" lon="6.44898">
        <ele>324</ele>
        <time>2022-05-23T06:52:44Z</time>
      </trkpt>
      <trkpt lat="48.17503" lon="6.44905">
        <ele>324</ele>
        <time>2022-05-23T06:52:46Z</time>
      </trkpt>
      <trkpt lat="48.17494" lon="6.449">
        <ele>323</ele>
        <time>2022-05-23T06:52:48Z</time>
      </trkpt>
      <trkpt lat="48.17484" lon="6.44903">
        <ele>323</ele>
        <time>2022-05-23T06:52:50Z</time>
      </trkpt>
      <trkpt lat="48.17464" lon="6.44896">
        <ele>323</ele>
        <time>2022-05-23T06:52:53Z</time>
      </trkpt>
      <trkpt lat="48.17446" lon="6.44885">
        <ele>322</ele>
        <time>2022-05-23T06:52:57Z</time>
      </trkpt>
      <trkpt lat="48.17408" lon="6.44856">
        <ele>321</ele>
        <time>2022-05-23T06:53:04Z</time>
      </trkpt>
      <trkpt lat="48.17413" lon="6.44841">
        <ele>320</ele>
        <time>2022-05-23T06:53:06Z</time>
      </trkpt>
      <trkpt lat="48.17414" lon="6.44827">
        <ele>320</ele>
        <time>2022-05-23T06:53:08Z</time>
      </trkpt>
      <trkpt lat="48.17401" lon="6.44839">
        <ele>321</ele>
        <time>2022-05-23T06:53:11Z</time>
      </trkpt>
      <trkpt lat="48.1739" lon="6.44867">
        <ele>322</ele>
        <time>2022-05-23T06:53:15Z</time>
      </trkpt>
      <trkpt lat="48.17355" lon="6.44898">
        <ele>324</ele>
        <time>2022-05-23T06:53:22Z</time>
      </trkpt>
      <trkpt lat="48.17341" lon="6.44926">
        <ele>326</ele>
        <time>2022-05-23T06:53:26Z</time>
      </trkpt>
      <trkpt lat="48.17332" lon="6.44952">
        <ele>327</ele>
        <time>2022-05-23T06:53:29Z</time>
      </trkpt>
      <trkpt lat="48.17346" lon="6.44975">
        <ele>327</ele>
        <time>2022-05-23T06:53:33Z</time>
      </trkpt>
      <trkpt lat="48.17354" lon="6.44982">
        <ele>327</ele>
        <time>2022-05-23T06:53:35Z</time>
      </trkpt>
      <trkpt lat="48.17368" lon="6.45007">
        <ele>327</ele>
        <time>2022-05-23T06:53:39Z</time>
      </trkpt>
      <trkpt lat="48.17403" lon="6.45047">
        <ele>326</ele>
        <time>2022-05-23T06:53:47Z</time>
      </trkpt>
      <trkpt lat="48.1741" lon="6.45007">
        <ele>326</ele>
        <time>2022-05-23T06:53:51Z</time>
      </trkpt>
      <trkpt lat="48.17409" lon="6.45023">
        <ele>326</ele>
        <time>2022-05-23T06:53:53Z</time>
      </trkpt>
      <trkpt lat="48.17414" lon="6.45049">
        <ele>326</ele>
        <time>2022-05-23T06:53:57Z</time>
      </trkpt>
      <trkpt lat="48.17409" lon="6.45038">
        <ele>326</ele>
        <time>2022-05-23T06:53:58Z</time>
      </trkpt>
      <trkpt lat="48.17411" lon="6.45052">
        <ele>326</ele>
        <time>2022-05-23T06:54:00Z</time>
      </trkpt>
      <trkpt lat="48.17413" lon="6.45038">
        <ele>326</ele>
        <time>2022-05-23T06:54:02Z</time>
      </trkpt>
      <trkpt lat="48.17412" lon="6.45053">
        <ele>326</ele>
        <time>2022-05-23T06:54:03Z</time>
      </trkpt>
      <trkpt lat="48.18843" lon="6.47052">
        <ele>382</ele>
        <time>2022-05-23T06:59:51Z</time>
      </trkpt>
      <trkpt lat="48.18846" lon="6.47038">
        <ele>382</ele>
        <time>2022-05-23T06:59:53Z</time>
      </trkpt>
      <trkpt lat="48.18856" lon="6.47046">
        <ele>381</ele>
        <time>2022-05-23T06:59:55Z</time>
      </trkpt>
      <trkpt lat="48.18861" lon="6.4706">
        <ele>381</ele>
        <time>2022-05-23T06:59:57Z</time>
      </trkpt>
      <trkpt lat="48.18851" lon="6.47084">
        <ele>382</ele>
        <time>2022-05-23T07:00:00Z</time>
      </trkpt>
      <trkpt lat="48.18869" lon="6.47066">
        <ele>381</ele>
        <time>2022-05-23T07:00:04Z</time>
      </trkpt>
      <trkpt lat="48.18889" lon="6.47055">
        <ele>380</ele>
        <time>2022-05-23T07:00:08Z</time>
      </trkpt>
      <trkpt lat="48.18908" lon="6.47053">
        <ele>379</ele>
        <time>2022-05-23T07:00:11Z</time>
      </trkpt>
      <trkpt lat="48.18919" lon="6.47055">
        <ele>378</ele>
        <time>2022-05-23T07:00:13Z</time>
      </trkpt>
      <trkpt lat="48.18933" lon="6.4706">
        <ele>376</ele>
        <time>2022-05-23T07:00:16Z</time>
      </trkpt>
      <trkpt lat="48.18947" lon="6.47069">
        <ele>375</ele>
        <time>2022-05-23T07:00:19Z</time>
      </trkpt>
      <trkpt lat="48.18973" lon="6.47091">
        <ele>371</ele>
        <time>2022-05-23T07:00:24Z</time>
      </trkpt>
      <trkpt lat="48.18996" lon="6.47122">
        <ele>368</ele>
        <time>2022-05-23T07:00:29Z</time>
      </trkpt>
      <trkpt lat="48.19016" lon="6.47163">
        <ele>366</ele>
        <time>2022-05-23T07:00:35Z</time>
      </trkpt>
      <trkpt lat="48.19007" lon="6.4717">
        <ele>367</ele>
        <time>2022-05-23T07:00:37Z</time>
      </trkpt>
      <trkpt lat="48.19013" lon="6.47185">
        <ele>367</ele>
        <time>2022-05-23T07:00:39Z</time>
      </trkpt>
      <trkpt lat="48.19016" lon="6.47201">
        <ele>367</ele>
        <time>2022-05-23T07:00:41Z</time>
      </trkpt>
      <trkpt lat="48.19028" lon="6.47206">
        <ele>366</ele>
        <time>2022-05-23T07:00:43Z</time>
      </trkpt>
      <trkpt lat="48.19038" lon="6.47198">
        <ele>365</ele>
        <time>2022-05-23T07:00:45Z</time>
      </trkpt>
      <trkpt lat="48.19042" lon="6.47185">
        <ele>365</ele>
        <time>2022-05-23T07:00:47Z</time>
      </trkpt>
      <trkpt lat="48.19047" lon="6.47196">
        <ele>364</ele>
        <time>2022-05-23T07:00:49Z</time>
      </trkpt>
      <trkpt lat="48.19041" lon="6.47176">
        <ele>364</ele>
        <time>2022-05-23T07:00:51Z</time>
      </trkpt>
      <trkpt lat="48.19053" lon="6.4715">
        <ele>363</ele>
        <time>2022-05-23T07:00:55Z</time>
      </trkpt>
      <trkpt lat="48.19062" lon="6.4714">
        <ele>362</ele>
        <time>2022-05-23T07:00:57Z</time>
      </trkpt>
      <trkpt lat="48.19065" lon="6.47127">
        <ele>362</ele>
        <time>2022-05-23T07:00:59Z</time>
      </trkpt>
      <trkpt lat="48.19057" lon="6.47117">
        <ele>362</ele>
        <time>2022-05-23T07:01:01Z</time>
      </trkpt>
      <trkpt lat="48.19052" lon="6.47104">
        <ele>362</ele>
        <time>2022-05-23T07:01:02Z</time>
      </trkpt>
      <trkpt lat="48.19029" lon="6.47067">
        <ele>365</ele>
        <time>2022-05-23T07:01:08Z</time>
      </trkpt>
      <trkpt lat="48.19006" lon="6.47022">
        <ele>368</ele>
        <time>2022-05-23T07:01:15Z</time>
      </trkpt>
      <trkpt lat="48.18992" lon="6.46977">
        <ele>369</ele>
        <time>2022-05-23T07:01:21Z</time>
      </trkpt>
      <trkpt lat="48.19001" lon="6.46979">
        <ele>368</ele>
        <time>2022-05-23T07:01:23Z</time>
      </trkpt>
      <trkpt lat="48.18982" lon="6.46943">
        <ele>370</ele>
        <time>2022-05-23T07:01:28Z</time>
      </trkpt>
      <trkpt lat="48.18953" lon="6.46902">
        <ele>373</ele>
        <time>2022-05-23T07:01:35Z</time>
      </trkpt>
      <trkpt lat="48.18862" lon="6.468">
        <ele>380</ele>
        <time>2022-05-23T07:01:55Z</time>
      </trkpt>
      <trkpt lat="48.18838" lon="6.46778">
        <ele>381</ele>
        <time>2022-05-23T07:02:00Z</time>
      </trkpt>
      <trkpt lat="48.18814" lon="6.46749">
        <ele>381</ele>
        <time>2022-05-23T07:02:06Z</time>
      </trkpt>
      <trkpt lat="48.18805" lon="6.46683">
        <ele>381</ele>
        <time>2022-05-23T07:02:14Z</time>
      </trkpt>
      <trkpt lat="48.18798" lon="6.46528">
        <ele>382</ele>
        <time>2022-05-23T07:02:32Z</time>
      </trkpt>
      <trkpt lat="48.18799" lon="6.46493">
        <ele>382</ele>
        <time>2022-05-23T07:02:36Z</time>
      </trkpt>
      <trkpt lat="48.1881" lon="6.46469">
        <ele>381</ele>
        <time>2022-05-23T07:02:40Z</time>
      </trkpt>
      <trkpt lat="48.18807" lon="6.46441">
        <ele>382</ele>
        <time>2022-05-23T07:02:43Z</time>
      </trkpt>
      <trkpt lat="48.18817" lon="6.46416">
        <ele>381</ele>
        <time>2022-05-23T07:02:47Z</time>
      </trkpt>
      <trkpt lat="48.1895" lon="6.4618">
        <ele>363</ele>
        <time>2022-05-23T07:03:23Z</time>
      </trkpt>
      <trkpt lat="48.1907" lon="6.4596">
        <ele>355</ele>
        <time>2022-05-23T07:03:57Z</time>
      </trkpt>
      <trkpt lat="48.19081" lon="6.45944">
        <ele>354</ele>
        <time>2022-05-23T07:04:00Z</time>
      </trkpt>
      <trkpt lat="48.19211" lon="6.45713">
        <ele>344</ele>
        <time>2022-05-23T07:04:36Z</time>
      </trkpt>
      <trkpt lat="48.19235" lon="6.45676">
        <ele>342</ele>
        <time>2022-05-23T07:04:42Z</time>
      </trkpt>
      <trkpt lat="48.1924" lon="6.45664">
        <ele>341</ele>
        <time>2022-05-23T07:04:43Z</time>
      </trkpt>
      <trkpt lat="48.19166" lon="6.45564">
        <ele>340</ele>
        <time>2022-05-23T07:05:01Z</time>
      </trkpt>
      <trkpt lat="48.19145" lon="6.45528">
        <ele>340</ele>
        <time>2022-05-23T07:05:07Z</time>
      </trkpt>
      <trkpt lat="48.19127" lon="6.45488">
        <ele>340</ele>
        <time>2022-05-23T07:05:13Z</time>
      </trkpt>
      <trkpt lat="48.19108" lon="6.45418">
        <ele>343</ele>
        <time>2022-05-23T07:05:22Z</time>
      </trkpt>
      <trkpt lat="48.19102" lon="6.45376">
        <ele>345</ele>
        <time>2022-05-23T07:05:27Z</time>
      </trkpt>
      <trkpt lat="48.19103" lon="6.45331">
        <ele>346</ele>
        <time>2022-05-23T07:05:32Z</time>
      </trkpt>
      <trkpt lat="48.19099" lon="6.45267">
        <ele>349</ele>
        <time>2022-05-23T07:05:40Z</time>
      </trkpt>
      <trkpt lat="48.19094" lon="6.45238">
        <ele>350</ele>
        <time>2022-05-23T07:05:43Z</time>
      </trkpt>
      <trkpt lat="48.19076" lon="6.45226">
        <ele>352</ele>
        <time>2022-05-23T07:05:47Z</time>
      </trkpt>
      <trkpt lat="48.1906" lon="6.45209">
        <ele>352</ele>
        <time>2022-05-23T07:05:50Z</time>
      </trkpt>
      <trkpt lat="48.18992" lon="6.45124">
        <ele>357</ele>
        <time>2022-05-23T07:06:06Z</time>
      </trkpt>
      <trkpt lat="48.18955" lon="6.45093">
        <ele>362</ele>
        <time>2022-05-23T07:06:13Z</time>
      </trkpt>
      <trkpt lat="48.18913" lon="6.45052">
        <ele>367</ele>
        <time>2022-05-23T07:06:22Z</time>
      </trkpt>
      <trkpt lat="48.18891" lon="6.4502">
        <ele>366</ele>
        <time>2022-05-23T07:06:28Z</time>
      </trkpt>
      <trkpt lat="48.18901" lon="6.45019">
        <ele>366</ele>
        <time>2022-05-23T07:06:30Z</time>
      </trkpt>
      <trkpt lat="48.18889" lon="6.45016">
        <ele>366</ele>
        <time>2022-05-23T07:06:32Z</time>
      </trkpt>
      <trkpt lat="48.18881" lon="6.44992">
        <ele>365</ele>
        <time>2022-05-23T07:06:35Z</time>
      </trkpt>
      <trkpt lat="48.18866" lon="6.44971">
        <ele>364</ele>
        <time>2022-05-23T07:06:39Z</time>
      </trkpt>
      <trkpt lat="48.18839" lon="6.44949">
        <ele>363</ele>
        <time>2022-05-23T07:06:44Z</time>
      </trkpt>
      <trkpt lat="48.18829" lon="6.44943">
        <ele>363</ele>
        <time>2022-05-23T07:06:46Z</time>
      </trkpt>
      <trkpt lat="48.18806" lon="6.44937">
        <ele>364</ele>
        <time>2022-05-23T07:06:50Z</time>
      </trkpt>
      <trkpt lat="48.18787" lon="6.44922">
        <ele>364</ele>
        <time>2022-05-23T07:06:54Z</time>
      </trkpt>
      <trkpt lat="48.18782" lon="6.44908">
        <ele>363</ele>
        <time>2022-05-23T07:06:56Z</time>
      </trkpt>
      <trkpt lat="48.18777" lon="6.4488">
        <ele>360</ele>
        <time>2022-05-23T07:06:59Z</time>
      </trkpt>
      <trkpt lat="48.18771" lon="6.44869">
        <ele>359</ele>
        <time>2022-05-23T07:07:01Z</time>
      </trkpt>
      <trkpt lat="48.18759" lon="6.44864">
        <ele>360</ele>
        <time>2022-05-23T07:07:03Z</time>
      </trkpt>
      <trkpt lat="48.18698" lon="6.4486">
        <ele>357</ele>
        <time>2022-05-23T07:07:14Z</time>
      </trkpt>
      <trkpt lat="48.18672" lon="6.44861">
        <ele>356</ele>
        <time>2022-05-23T07:07:19Z</time>
      </trkpt>
      <trkpt lat="48.18656" lon="6.44869">
        <ele>356</ele>
        <time>2022-05-23T07:07:22Z</time>
      </trkpt>
      <trkpt lat="48.18603" lon="6.44861">
        <ele>350</ele>
        <time>2022-05-23T07:07:31Z</time>
      </trkpt>
      <trkpt lat="48.18572" lon="6.4486">
        <ele>347</ele>
        <time>2022-05-23T07:07:37Z</time>
      </trkpt>
      <trkpt lat="48.18556" lon="6.44864">
        <ele>345</ele>
        <time>2022-05-23T07:07:40Z</time>
      </trkpt>
      <trkpt lat="48.18511" lon="6.44885">
        <ele>341</ele>
        <time>2022-05-23T07:07:48Z</time>
      </trkpt>
      <trkpt lat="48.18498" lon="6.44884">
        <ele>340</ele>
        <time>2022-05-23T07:07:50Z</time>
      </trkpt>
      <trkpt lat="48.18487" lon="6.44888">
        <ele>340</ele>
        <time>2022-05-23T07:07:52Z</time>
      </trkpt>
      <trkpt lat="48.18476" lon="6.44862">
        <ele>337</ele>
        <time>2022-05-23T07:07:56Z</time>
      </trkpt>
      <trkpt lat="48.18462" lon="6.44862">
        <ele>336</ele>
        <time>2022-05-23T07:07:58Z</time>
      </trkpt>
      <trkpt lat="48.18389" lon="6.44847">
        <ele>332</ele>
        <time>2022-05-23T07:08:11Z</time>
      </trkpt>
      <trkpt lat="48.18379" lon="6.44847">
        <ele>332</ele>
        <time>2022-05-23T07:08:13Z</time>
      </trkpt>
      <trkpt lat="48.18342" lon="6.44837">
        <ele>330</ele>
        <time>2022-05-23T07:08:20Z</time>
      </trkpt>
      <trkpt lat="48.18334" lon="6.4483">
        <ele>330</ele>
        <time>2022-05-23T07:08:22Z</time>
      </trkpt>
      <trkpt lat="48.18323" lon="6.44811">
        <ele>329</ele>
        <time>2022-05-23T07:08:25Z</time>
      </trkpt>
      <trkpt lat="48.18311" lon="6.44781">
        <ele>327</ele>
        <time>2022-05-23T07:08:29Z</time>
      </trkpt>
      <trkpt lat="48.18296" lon="6.44775">
        <ele>327</ele>
        <time>2022-05-23T07:08:31Z</time>
      </trkpt>
      <trkpt lat="48.18227" lon="6.4479">
        <ele>327</ele>
        <time>2022-05-23T07:08:44Z</time>
      </trkpt>
      <trkpt lat="48.18198" lon="6.44792">
        <ele>327</ele>
        <time>2022-05-23T07:08:49Z</time>
      </trkpt>
      <trkpt lat="48.18189" lon="6.448">
        <ele>328</ele>
        <time>2022-05-23T07:08:51Z</time>
      </trkpt>
      <trkpt lat="48.18165" lon="6.44807">
        <ele>328</ele>
        <time>2022-05-23T07:08:55Z</time>
      </trkpt>
      <trkpt lat="48.18139" lon="6.4481">
        <ele>328</ele>
        <time>2022-05-23T07:09:00Z</time>
      </trkpt>
      <trkpt lat="48.1807" lon="6.44838">
        <ele>327</ele>
        <time>2022-05-23T07:09:13Z</time>
      </trkpt>
      <trkpt lat="48.1804" lon="6.44862">
        <ele>328</ele>
        <time>2022-05-23T07:09:19Z</time>
      </trkpt>
      <trkpt lat="48.18015" lon="6.4489">
        <ele>329</ele>
        <time>2022-05-23T07:09:24Z</time>
      </trkpt>
      <trkpt lat="48.18009" lon="6.44902">
        <ele>329</ele>
        <time>2022-05-23T07:09:26Z</time>
      </trkpt>
      <trkpt lat="48.17989" lon="6.44917">
        <ele>329</ele>
        <time>2022-05-23T07:09:30Z</time>
      </trkpt>
      <trkpt lat="48.17977" lon="6.44924">
        <ele>330</ele>
        <time>2022-05-23T07:09:32Z</time>
      </trkpt>
      <trkpt lat="48.17966" lon="6.44927">
        <ele>330</ele>
        <time>2022-05-23T07:09:34Z</time>
      </trkpt>
      <trkpt lat="48.17947" lon="6.44917">
        <ele>327</ele>
        <time>2022-05-23T07:09:38Z</time>
      </trkpt>
      <trkpt lat="48.17929" lon="6.44938">
        <ele>329</ele>
        <time>2022-05-23T07:09:42Z</time>
      </trkpt>
      <trkpt lat="48.17917" lon="6.44946">
        <ele>329</ele>
        <time>2022-05-23T07:09:44Z</time>
      </trkpt>
      <trkpt lat="48.17895" lon="6.44968">
        <ele>330</ele>
        <time>2022-05-23T07:09:49Z</time>
      </trkpt>
      <trkpt lat="48.17823" lon="6.45017">
        <ele>329</ele>
        <time>2022-05-23T07:10:03Z</time>
      </trkpt>
      <trkpt lat="48.17754" lon="6.45023">
        <ele>328</ele>
        <time>2022-05-23T07:10:15Z</time>
      </trkpt>
      <trkpt lat="48.17742" lon="6.4502">
        <ele>327</ele>
        <time>2022-05-23T07:10:17Z</time>
      </trkpt>
      <trkpt lat="48.17664" lon="6.45014">
        <ele>324</ele>
        <time>2022-05-23T07:10:31Z</time>
      </trkpt>
      <trkpt lat="48.17653" lon="6.45011">
        <ele>325</ele>
        <time>2022-05-23T07:10:33Z</time>
      </trkpt>
      <trkpt lat="48.17551" lon="6.44958">
        <ele>325</ele>
        <time>2022-05-23T07:10:53Z</time>
      </trkpt>
      <trkpt lat="48.17432" lon="6.44877">
        <ele>321</ele>
        <time>2022-05-23T07:11:16Z</time>
      </trkpt>
      <trkpt lat="48.17419" lon="6.44872">
        <ele>321</ele>
        <time>2022-05-23T07:11:18Z</time>
      </trkpt>
      <trkpt lat="48.1741" lon="6.44864">
        <ele>321</ele>
        <time>2022-05-23T07:11:20Z</time>
      </trkpt>
      <trkpt lat="48.1738" lon="6.44851">
        <ele>322</ele>
        <time>2022-05-23T07:11:26Z</time>
      </trkpt>
      <trkpt lat="48.1739" lon="6.44853">
        <ele>322</ele>
        <time>2022-05-23T07:11:27Z</time>
      </trkpt>
      <trkpt lat="48.17381" lon="6.44849">
        <ele>322</ele>
        <time>2022-05-23T07:11:29Z</time>
      </trkpt>
      <trkpt lat="48.17364" lon="6.44916">
        <ele>325</ele>
        <time>2022-05-23T07:11:38Z</time>
      </trkpt>
      <trkpt lat="48.17356" lon="6.44924">
        <ele>325</ele>
        <time>2022-05-23T07:11:39Z</time>
      </trkpt>
      <trkpt lat="48.17353" lon="6.44938">
        <ele>326</ele>
        <time>2022-05-23T07:11:41Z</time>
      </trkpt>
      <trkpt lat="48.17342" lon="6.44961">
        <ele>327</ele>
        <time>2022-05-23T07:11:44Z</time>
      </trkpt>
      <trkpt lat="48.17342" lon="6.44978">
        <ele>327</ele>
        <time>2022-05-23T07:11:46Z</time>
      </trkpt>
      <trkpt lat="48.17333" lon="6.44972">
        <ele>327</ele>
        <time>2022-05-23T07:11:48Z</time>
      </trkpt>
      <trkpt lat="48.17315" lon="6.44967">
        <ele>328</ele>
        <time>2022-05-23T07:11:51Z</time>
      </trkpt>
      <trkpt lat="48.17303" lon="6.44967">
        <ele>328</ele>
        <time>2022-05-23T07:11:54Z</time>
      </trkpt>
      <trkpt lat="48.17295" lon="6.44962">
        <ele>328</ele>
        <time>2022-05-23T07:11:55Z</time>
      </trkpt>
      <trkpt lat="48.1729" lon="6.44945">
        <ele>328</ele>
        <time>2022-05-23T07:11:57Z</time>
      </trkpt>
      <trkpt lat="48.17284" lon="6.44851">
        <ele>326</ele>
        <time>2022-05-23T07:12:09Z</time>
      </trkpt>
      <trkpt lat="48.17287" lon="6.44822">
        <ele>325</ele>
        <time>2022-05-23T07:12:12Z</time>
      </trkpt>
      <trkpt lat="48.17278" lon="6.44818">
        <ele>326</ele>
        <time>2022-05-23T07:12:14Z</time>
      </trkpt>
      <trkpt lat="48.17259" lon="6.44823">
        <ele>327</ele>
        <time>2022-05-23T07:12:17Z</time>
      </trkpt>
      <trkpt lat="48.17221" lon="6.44819">
        <ele>327</ele>
        <time>2022-05-23T07:12:24Z</time>
      </trkpt>
      <trkpt lat="48.17171" lon="6.44818">
        <ele>326</ele>
        <time>2022-05-23T07:12:33Z</time>
      </trkpt>
      <trkpt lat="48.17149" lon="6.44812">
        <ele>326</ele>
        <time>2022-05-23T07:12:37Z</time>
      </trkpt>
      <trkpt lat="48.17118" lon="6.44809">
        <ele>326</ele>
        <time>2022-05-23T07:12:42Z</time>
      </trkpt>
      <trkpt lat="48.17108" lon="6.44811">
        <ele>325</ele>
        <time>2022-05-23T07:12:44Z</time>
      </trkpt>
      <trkpt lat="48.17083" lon="6.44809">
        <ele>325</ele>
        <time>2022-05-23T07:12:49Z</time>
      </trkpt>
      <trkpt lat="48.17041" lon="6.4481">
        <ele>326</ele>
        <time>2022-05-23T07:12:56Z</time>
      </trkpt>
      <trkpt lat="48.1702" lon="6.44819">
        <ele>326</ele>
        <time>2022-05-23T07:13:00Z</time>
      </trkpt>
      <trkpt lat="48.17002" lon="6.4483">
        <ele>326</ele>
        <time>2022-05-23T07:13:03Z</time>
      </trkpt>
      <trkpt lat="48.16992" lon="6.44832">
        <ele>326</ele>
        <time>2022-05-23T07:13:05Z</time>
      </trkpt>
      <trkpt lat="48.1695" lon="6.44855">
        <ele>327</ele>
        <time>2022-05-23T07:13:13Z</time>
      </trkpt>
      <trkpt lat="48.1693" lon="6.44862">
        <ele>327</ele>
        <time>2022-05-23T07:13:17Z</time>
      </trkpt>
      <trkpt lat="48.16901" lon="6.44888">
        <ele>327</ele>
        <time>2022-05-23T07:13:23Z</time>
      </trkpt>
      <trkpt lat="48.16886" lon="6.44908">
        <ele>326</ele>
        <time>2022-05-23T07:13:26Z</time>
      </trkpt>
      <trkpt lat="48.16825" lon="6.44964">
        <ele>325</ele>
        <time>2022-05-23T07:13:39Z</time>
      </trkpt>
      <trkpt lat="48.16763" lon="6.45039">
        <ele>326</ele>
        <time>2022-05-23T07:13:53Z</time>
      </trkpt>
      <trkpt lat="48.16714" lon="6.45123">
        <ele>326</ele>
        <time>2022-05-23T07:14:07Z</time>
      </trkpt>
      <trkpt lat="48.16705" lon="6.45119">
        <ele>325</ele>
        <time>2022-05-23T07:14:08Z</time>
      </trkpt>
      <trkpt lat="48.16696" lon="6.4512">
        <ele>325</ele>
        <time>2022-05-23T07:14:10Z</time>
      </trkpt>
      <trkpt lat="48.16658" lon="6.45179">
        <ele>325</ele>
        <time>2022-05-23T07:14:20Z</time>
      </trkpt>
      <trkpt lat="48.16624" lon="6.45239">
        <ele>323</ele>
        <time>2022-05-23T07:14:29Z</time>
      </trkpt>
      <trkpt lat="48.16615" lon="6.45249">
        <ele>323</ele>
        <time>2022-05-23T07:14:31Z</time>
      </trkpt>
      <trkpt lat="48.16609" lon="6.4526">
        <ele>323</ele>
        <time>2022-05-23T07:14:33Z</time>
      </trkpt>
      <trkpt lat="48.16565" lon="6.45311">
        <ele>324</ele>
        <time>2022-05-23T07:14:42Z</time>
      </trkpt>
      <trkpt lat="48.16547" lon="6.45328">
        <ele>325</ele>
        <time>2022-05-23T07:14:46Z</time>
      </trkpt>
      <trkpt lat="48.16509" lon="6.45377">
        <ele>326</ele>
        <time>2022-05-23T07:14:55Z</time>
      </trkpt>
      <trkpt lat="48.16482" lon="6.45405">
        <ele>326</ele>
        <time>2022-05-23T07:15:01Z</time>
      </trkpt>
      <trkpt lat="48.16386" lon="6.45527">
        <ele>330</ele>
        <time>2022-05-23T07:15:23Z</time>
      </trkpt>
      <trkpt lat="48.16369" lon="6.45543">
        <ele>331</ele>
        <time>2022-05-23T07:15:27Z</time>
      </trkpt>
      <trkpt lat="48.16284" lon="6.45603">
        <ele>331</ele>
        <time>2022-05-23T07:15:44Z</time>
      </trkpt>
      <trkpt lat="48.16256" lon="6.45628">
        <ele>331</ele>
        <time>2022-05-23T07:15:49Z</time>
      </trkpt>
      <trkpt lat="48.16245" lon="6.45634">
        <ele>331</ele>
        <time>2022-05-23T07:15:52Z</time>
      </trkpt>
      <trkpt lat="48.16234" lon="6.45631">
        <ele>331</ele>
        <time>2022-05-23T07:15:54Z</time>
      </trkpt>
      <trkpt lat="48.16226" lon="6.45637">
        <ele>331</ele>
        <time>2022-05-23T07:15:55Z</time>
      </trkpt>
      <trkpt lat="48.16231" lon="6.4565">
        <ele>332</ele>
        <time>2022-05-23T07:15:57Z</time>
      </trkpt>
      <trkpt lat="48.16226" lon="6.45665">
        <ele>333</ele>
        <time>2022-05-23T07:15:59Z</time>
      </trkpt>
      <trkpt lat="48.16225" lon="6.45725">
        <ele>337</ele>
        <time>2022-05-23T07:16:06Z</time>
      </trkpt>
      <trkpt lat="48.16217" lon="6.45733">
        <ele>338</ele>
        <time>2022-05-23T07:16:08Z</time>
      </trkpt>
      <trkpt lat="48.16212" lon="6.45745">
        <ele>339</ele>
        <time>2022-05-23T07:16:09Z</time>
      </trkpt>
      <trkpt lat="48.16205" lon="6.45754">
        <ele>340</ele>
        <time>2022-05-23T07:16:11Z</time>
      </trkpt>
      <trkpt lat="48.16197" lon="6.45761">
        <ele>341</ele>
        <time>2022-05-23T07:16:13Z</time>
      </trkpt>
      <trkpt lat="48.16178" lon="6.45766">
        <ele>343</ele>
        <time>2022-05-23T07:16:16Z</time>
      </trkpt>
      <trkpt lat="48.16148" lon="6.45771">
        <ele>345</ele>
        <time>2022-05-23T07:16:21Z</time>
      </trkpt>
      <trkpt lat="48.16139" lon="6.4577">
        <ele>345</ele>
        <time>2022-05-23T07:16:23Z</time>
      </trkpt>
      <trkpt lat="48.16091" lon="6.45781">
        <ele>347</ele>
        <time>2022-05-23T07:16:32Z</time>
      </trkpt>
      <trkpt lat="48.16071" lon="6.45788">
        <ele>348</ele>
        <time>2022-05-23T07:16:35Z</time>
      </trkpt>
      <trkpt lat="48.16052" lon="6.45798">
        <ele>349</ele>
        <time>2022-05-23T07:16:39Z</time>
      </trkpt>
      <trkpt lat="48.16042" lon="6.458">
        <ele>349</ele>
        <time>2022-05-23T07:16:41Z</time>
      </trkpt>
      <trkpt lat="48.16032" lon="6.45798">
        <ele>349</ele>
        <time>2022-05-23T07:16:43Z</time>
      </trkpt>
      <trkpt lat="48.16018" lon="6.45818">
        <ele>352</ele>
        <time>2022-05-23T07:16:46Z</time>
      </trkpt>
      <trkpt lat="48.15975" lon="6.45857">
        <ele>356</ele>
        <time>2022-05-23T07:16:55Z</time>
      </trkpt>
      <trkpt lat="48.15948" lon="6.45872">
        <ele>357</ele>
        <time>2022-05-23T07:17:00Z</time>
      </trkpt>
      <trkpt lat="48.15936" lon="6.45875">
        <ele>357</ele>
        <time>2022-05-23T07:17:02Z</time>
      </trkpt>
      <trkpt lat="48.15916" lon="6.45873">
        <ele>356</ele>
        <time>2022-05-23T07:17:06Z</time>
      </trkpt>
      <trkpt lat="48.15908" lon="6.45882">
        <ele>357</ele>
        <time>2022-05-23T07:17:08Z</time>
      </trkpt>
      <trkpt lat="48.15907" lon="6.45896">
        <ele>359</ele>
        <time>2022-05-23T07:17:09Z</time>
      </trkpt>
      <trkpt lat="48.1591" lon="6.45909">
        <ele>360</ele>
        <time>2022-05-23T07:17:11Z</time>
      </trkpt>
      <trkpt lat="48.1589" lon="6.45941">
        <ele>363</ele>
        <time>2022-05-23T07:17:16Z</time>
      </trkpt>
      <trkpt lat="48.15867" lon="6.4597">
        <ele>364</ele>
        <time>2022-05-23T07:17:21Z</time>
      </trkpt>
      <trkpt lat="48.15855" lon="6.45991">
        <ele>365</ele>
        <time>2022-05-23T07:17:25Z</time>
      </trkpt>
      <trkpt lat="48.1585" lon="6.46005">
        <ele>366</ele>
        <time>2022-05-23T07:17:27Z</time>
      </trkpt>
      <trkpt lat="48.15834" lon="6.46022">
        <ele>367</ele>
        <time>2022-05-23T07:17:30Z</time>
      </trkpt>
      <trkpt lat="48.15805" lon="6.46081">
        <ele>372</ele>
        <time>2022-05-23T07:17:39Z</time>
      </trkpt>
      <trkpt lat="48.1577" lon="6.46132">
        <ele>377</ele>
        <time>2022-05-23T07:17:47Z</time>
      </trkpt>
      <trkpt lat="48.15761" lon="6.46139">
        <ele>376</ele>
        <time>2022-05-23T07:17:49Z</time>
      </trkpt>
      <trkpt lat="48.15748" lon="6.46161">
        <ele>377</ele>
        <time>2022-05-23T07:17:53Z</time>
      </trkpt>
      <trkpt lat="48.15733" lon="6.4618">
        <ele>379</ele>
        <time>2022-05-23T07:17:56Z</time>
      </trkpt>
      <trkpt lat="48.15706" lon="6.46206">
        <ele>381</ele>
        <time>2022-05-23T07:18:02Z</time>
      </trkpt>
      <trkpt lat="48.15683" lon="6.46235">
        <ele>383</ele>
        <time>2022-05-23T07:18:07Z</time>
      </trkpt>
      <trkpt lat="48.15652" lon="6.46263">
        <ele>384</ele>
        <time>2022-05-23T07:18:14Z</time>
      </trkpt>
      <trkpt lat="48.15631" lon="6.46278">
        <ele>384</ele>
        <time>2022-05-23T07:18:18Z</time>
      </trkpt>
      <trkpt lat="48.15615" lon="6.46296">
        <ele>386</ele>
        <time>2022-05-23T07:18:21Z</time>
      </trkpt>
      <trkpt lat="48.15593" lon="6.46312">
        <ele>385</ele>
        <time>2022-05-23T07:18:26Z</time>
      </trkpt>
      <trkpt lat="48.15566" lon="6.46348">
        <ele>388</ele>
        <time>2022-05-23T07:18:32Z</time>
      </trkpt>
      <trkpt lat="48.15541" lon="6.46373">
        <ele>387</ele>
        <time>2022-05-23T07:18:38Z</time>
      </trkpt>
      <trkpt lat="48.15516" lon="6.46403">
        <ele>386</ele>
        <time>2022-05-23T07:18:43Z</time>
      </trkpt>
      <trkpt lat="48.15511" lon="6.46415">
        <ele>387</ele>
        <time>2022-05-23T07:18:45Z</time>
      </trkpt>
      <trkpt lat="48.15486" lon="6.4645">
        <ele>386</ele>
        <time>2022-05-23T07:18:51Z</time>
      </trkpt>
      <trkpt lat="48.15482" lon="6.46462">
        <ele>387</ele>
        <time>2022-05-23T07:18:53Z</time>
      </trkpt>
      <trkpt lat="48.15435" lon="6.46545">
        <ele>387</ele>
        <time>2022-05-23T07:19:06Z</time>
      </trkpt>
      <trkpt lat="48.15379" lon="6.46613">
        <ele>380</ele>
        <time>2022-05-23T07:19:18Z</time>
      </trkpt>
      <trkpt lat="48.15244" lon="6.46813">
        <ele>372</ele>
        <time>2022-05-23T07:19:52Z</time>
      </trkpt>
      <trkpt lat="48.15152" lon="6.46936">
        <ele>367</ele>
        <time>2022-05-23T07:20:14Z</time>
      </trkpt>
      <trkpt lat="48.15131" lon="6.46981">
        <ele>369</ele>
        <time>2022-05-23T07:20:21Z</time>
      </trkpt>
      <trkpt lat="48.15119" lon="6.47035">
        <ele>371</ele>
        <time>2022-05-23T07:20:27Z</time>
      </trkpt>
      <trkpt lat="48.15099" lon="6.47083">
        <ele>374</ele>
        <time>2022-05-23T07:20:34Z</time>
      </trkpt>
      <trkpt lat="48.15048" lon="6.47154">
        <ele>375</ele>
        <time>2022-05-23T07:20:46Z</time>
      </trkpt>
      <trkpt lat="48.15036" lon="6.47175">
        <ele>375</ele>
        <time>2022-05-23T07:20:50Z</time>
      </trkpt>
      <trkpt lat="48.14993" lon="6.47267">
        <ele>377</ele>
        <time>2022-05-23T07:21:03Z</time>
      </trkpt>
      <trkpt lat="48.14989" lon="6.47281">
        <ele>378</ele>
        <time>2022-05-23T07:21:05Z</time>
      </trkpt>
      <trkpt lat="48.14979" lon="6.47289">
        <ele>377</ele>
        <time>2022-05-23T07:21:07Z</time>
      </trkpt>
      <trkpt lat="48.14971" lon="6.47303">
        <ele>377</ele>
        <time>2022-05-23T07:21:09Z</time>
      </trkpt>
      <trkpt lat="48.1496" lon="6.47335">
        <ele>378</ele>
        <time>2022-05-23T07:21:13Z</time>
      </trkpt>
      <trkpt lat="48.14952" lon="6.47345">
        <ele>378</ele>
        <time>2022-05-23T07:21:15Z</time>
      </trkpt>
      <trkpt lat="48.14932" lon="6.47386">
        <ele>379</ele>
        <time>2022-05-23T07:21:21Z</time>
      </trkpt>
      <trkpt lat="48.14891" lon="6.4746">
        <ele>382</ele>
        <time>2022-05-23T07:21:33Z</time>
      </trkpt>
      <trkpt lat="48.14859" lon="6.47533">
        <ele>384</ele>
        <time>2022-05-23T07:21:43Z</time>
      </trkpt>
      <trkpt lat="48.14836" lon="6.47618">
        <ele>386</ele>
        <time>2022-05-23T07:21:54Z</time>
      </trkpt>
      <trkpt lat="48.14832" lon="6.47647">
        <ele>387</ele>
        <time>2022-05-23T07:21:57Z</time>
      </trkpt>
      <trkpt lat="48.14809" lon="6.47715">
        <ele>386</ele>
        <time>2022-05-23T07:22:07Z</time>
      </trkpt>
      <trkpt lat="48.14786" lon="6.47762">
        <ele>384</ele>
        <time>2022-05-23T07:22:13Z</time>
      </trkpt>
      <trkpt lat="48.14764" lon="6.47797">
        <ele>382</ele>
        <time>2022-05-23T07:22:19Z</time>
      </trkpt>
      <trkpt lat="48.14757" lon="6.47814">
        <ele>381</ele>
        <time>2022-05-23T07:22:22Z</time>
      </trkpt>
      <trkpt lat="48.1475" lon="6.47823">
        <ele>381</ele>
        <time>2022-05-23T07:22:23Z</time>
      </trkpt>
      <trkpt lat="48.14745" lon="6.47838">
        <ele>381</ele>
        <time>2022-05-23T07:22:25Z</time>
      </trkpt>
      <trkpt lat="48.14717" lon="6.47887">
        <ele>380</ele>
        <time>2022-05-23T07:22:33Z</time>
      </trkpt>
      <trkpt lat="48.14703" lon="6.4792">
        <ele>379</ele>
        <time>2022-05-23T07:22:37Z</time>
      </trkpt>
      <trkpt lat="48.14655" lon="6.48014">
        <ele>379</ele>
        <time>2022-05-23T07:22:51Z</time>
      </trkpt>
      <trkpt lat="48.14645" lon="6.48045">
        <ele>380</ele>
        <time>2022-05-23T07:22:56Z</time>
      </trkpt>
      <trkpt lat="48.14607" lon="6.48117">
        <ele>381</ele>
        <time>2022-05-23T07:23:06Z</time>
      </trkpt>
      <trkpt lat="48.14582" lon="6.4817">
        <ele>379</ele>
        <time>2022-05-23T07:23:14Z</time>
      </trkpt>
      <trkpt lat="48.14566" lon="6.48212">
        <ele>378</ele>
        <time>2022-05-23T07:23:20Z</time>
      </trkpt>
      <trkpt lat="48.14551" lon="6.4824">
        <ele>377</ele>
        <time>2022-05-23T07:23:24Z</time>
      </trkpt>
      <trkpt lat="48.14544" lon="6.48271">
        <ele>377</ele>
        <time>2022-05-23T07:23:28Z</time>
      </trkpt>
      <trkpt lat="48.14521" lon="6.48336">
        <ele>374</ele>
        <time>2022-05-23T07:23:37Z</time>
      </trkpt>
      <trkpt lat="48.14515" lon="6.48374">
        <ele>373</ele>
        <time>2022-05-23T07:23:41Z</time>
      </trkpt>
      <trkpt lat="48.14489" lon="6.48466">
        <ele>370</ele>
        <time>2022-05-23T07:23:53Z</time>
      </trkpt>
      <trkpt lat="48.14464" lon="6.48601">
        <ele>364</ele>
        <time>2022-05-23T07:24:10Z</time>
      </trkpt>
      <trkpt lat="48.14464" lon="6.48685">
        <ele>361</ele>
        <time>2022-05-23T07:24:20Z</time>
      </trkpt>
      <trkpt lat="48.14468" lon="6.48708">
        <ele>359</ele>
        <time>2022-05-23T07:24:23Z</time>
      </trkpt>
      <trkpt lat="48.14492" lon="6.48773">
        <ele>358</ele>
        <time>2022-05-23T07:24:32Z</time>
      </trkpt>
      <trkpt lat="48.14509" lon="6.48808">
        <ele>357</ele>
        <time>2022-05-23T07:24:37Z</time>
      </trkpt>
      <trkpt lat="48.14518" lon="6.48849">
        <ele>353</ele>
        <time>2022-05-23T07:24:42Z</time>
      </trkpt>
      <trkpt lat="48.14533" lon="6.48885">
        <ele>351</ele>
        <time>2022-05-23T07:24:47Z</time>
      </trkpt>
      <trkpt lat="48.1455" lon="6.48973">
        <ele>348</ele>
        <time>2022-05-23T07:24:58Z</time>
      </trkpt>
      <trkpt lat="48.14566" lon="6.49028">
        <ele>349</ele>
        <time>2022-05-23T07:25:05Z</time>
      </trkpt>
      <trkpt lat="48.14569" lon="6.49051">
        <ele>348</ele>
        <time>2022-05-23T07:25:08Z</time>
      </trkpt>
      <trkpt lat="48.14587" lon="6.49104">
        <ele>348</ele>
        <time>2022-05-23T07:25:15Z</time>
      </trkpt>
      <trkpt lat="48.14615" lon="6.49207">
        <ele>346</ele>
        <time>2022-05-23T07:25:28Z</time>
      </trkpt>
      <trkpt lat="48.14628" lon="6.4924">
        <ele>345</ele>
        <time>2022-05-23T07:25:32Z</time>
      </trkpt>
      <trkpt lat="48.14673" lon="6.49298">
        <ele>345</ele>
        <time>2022-05-23T07:25:43Z</time>
      </trkpt>
      <trkpt lat="48.1469" lon="6.49324">
        <ele>344</ele>
        <time>2022-05-23T07:25:47Z</time>
      </trkpt>
      <trkpt lat="48.14704" lon="6.49351">
        <ele>344</ele>
        <time>2022-05-23T07:25:51Z</time>
      </trkpt>
      <trkpt lat="48.14743" lon="6.49453">
        <ele>343</ele>
        <time>2022-05-23T07:26:05Z</time>
      </trkpt>
      <trkpt lat="48.14766" lon="6.49532">
        <ele>341</ele>
        <time>2022-05-23T07:26:16Z</time>
      </trkpt>
      <trkpt lat="48.14789" lon="6.49662">
        <ele>341</ele>
        <time>2022-05-23T07:26:32Z</time>
      </trkpt>
      <trkpt lat="48.14789" lon="6.49677">
        <ele>340</ele>
        <time>2022-05-23T07:26:33Z</time>
      </trkpt>
      <trkpt lat="48.14795" lon="6.49706">
        <ele>341</ele>
        <time>2022-05-23T07:26:37Z</time>
      </trkpt>
      <trkpt lat="48.14801" lon="6.49776">
        <ele>340</ele>
        <time>2022-05-23T07:26:45Z</time>
      </trkpt>
      <trkpt lat="48.14795" lon="6.49899">
        <ele>340</ele>
        <time>2022-05-23T07:27:00Z</time>
      </trkpt>
      <trkpt lat="48.14791" lon="6.49936">
        <ele>339</ele>
        <time>2022-05-23T07:27:04Z</time>
      </trkpt>
      <trkpt lat="48.14783" lon="6.49972">
        <ele>338</ele>
        <time>2022-05-23T07:27:09Z</time>
      </trkpt>
      <trkpt lat="48.14765" lon="6.49997">
        <ele>336</ele>
        <time>2022-05-23T07:27:13Z</time>
      </trkpt>
      <trkpt lat="48.14742" lon="6.50036">
        <ele>337</ele>
        <time>2022-05-23T07:27:19Z</time>
      </trkpt>
      <trkpt lat="48.14648" lon="6.50276">
        <ele>343</ele>
        <time>2022-05-23T07:27:52Z</time>
      </trkpt>
      <trkpt lat="48.14565" lon="6.50412">
        <ele>337</ele>
        <time>2022-05-23T07:28:14Z</time>
      </trkpt>
      <trkpt lat="48.14498" lon="6.50544">
        <ele>336</ele>
        <time>2022-05-23T07:28:34Z</time>
      </trkpt>
      <trkpt lat="48.14463" lon="6.50597">
        <ele>336</ele>
        <time>2022-05-23T07:28:43Z</time>
      </trkpt>
      <trkpt lat="48.1442" lon="6.50655">
        <ele>336</ele>
        <time>2022-05-23T07:28:53Z</time>
      </trkpt>
      <trkpt lat="48.14412" lon="6.5067">
        <ele>336</ele>
        <time>2022-05-23T07:28:55Z</time>
      </trkpt>
      <trkpt lat="48.144" lon="6.50706">
        <ele>337</ele>
        <time>2022-05-23T07:29:00Z</time>
      </trkpt>
      <trkpt lat="48.14379" lon="6.50804">
        <ele>338</ele>
        <time>2022-05-23T07:29:12Z</time>
      </trkpt>
      <trkpt lat="48.14374" lon="6.50837">
        <ele>339</ele>
        <time>2022-05-23T07:29:17Z</time>
      </trkpt>
      <trkpt lat="48.14366" lon="6.50864">
        <ele>340</ele>
        <time>2022-05-23T07:29:20Z</time>
      </trkpt>
      <trkpt lat="48.14351" lon="6.50906">
        <ele>339</ele>
        <time>2022-05-23T07:29:26Z</time>
      </trkpt>
      <trkpt lat="48.14323" lon="6.50962">
        <ele>339</ele>
        <time>2022-05-23T07:29:34Z</time>
      </trkpt>
      <trkpt lat="48.14311" lon="6.51001">
        <ele>339</ele>
        <time>2022-05-23T07:29:39Z</time>
      </trkpt>
      <trkpt lat="48.14308" lon="6.51015">
        <ele>340</ele>
        <time>2022-05-23T07:29:41Z</time>
      </trkpt>
      <trkpt lat="48.14311" lon="6.51048">
        <ele>343</ele>
        <time>2022-05-23T07:29:45Z</time>
      </trkpt>
      <trkpt lat="48.14308" lon="6.51086">
        <ele>346</ele>
        <time>2022-05-23T07:29:49Z</time>
      </trkpt>
      <trkpt lat="48.14304" lon="6.51101">
        <ele>348</ele>
        <time>2022-05-23T07:29:51Z</time>
      </trkpt>
      <trkpt lat="48.14288" lon="6.51141">
        <ele>351</ele>
        <time>2022-05-23T07:29:57Z</time>
      </trkpt>
      <trkpt lat="48.14264" lon="6.51172">
        <ele>351</ele>
        <time>2022-05-23T07:30:02Z</time>
      </trkpt>
      <trkpt lat="48.14242" lon="6.51189">
        <ele>352</ele>
        <time>2022-05-23T07:30:07Z</time>
      </trkpt>
      <trkpt lat="48.14233" lon="6.51199">
        <ele>352</ele>
        <time>2022-05-23T07:30:09Z</time>
      </trkpt>
      <trkpt lat="48.14195" lon="6.51221">
        <ele>349</ele>
        <time>2022-05-23T07:30:16Z</time>
      </trkpt>
      <trkpt lat="48.14187" lon="6.51241">
        <ele>350</ele>
        <time>2022-05-23T07:30:19Z</time>
      </trkpt>
      <trkpt lat="48.14176" lon="6.51245">
        <ele>348</ele>
        <time>2022-05-23T07:30:21Z</time>
      </trkpt>
      <trkpt lat="48.14167" lon="6.51236">
        <ele>345</ele>
        <time>2022-05-23T07:30:23Z</time>
      </trkpt>
      <trkpt lat="48.14135" lon="6.51248">
        <ele>342</ele>
        <time>2022-05-23T07:30:29Z</time>
      </trkpt>
      <trkpt lat="48.14128" lon="6.51264">
        <ele>344</ele>
        <time>2022-05-23T07:30:31Z</time>
      </trkpt>
      <trkpt lat="48.14094" lon="6.51268">
        <ele>340</ele>
        <time>2022-05-23T07:30:37Z</time>
      </trkpt>
      <trkpt lat="48.14084" lon="6.51272">
        <ele>339</ele>
        <time>2022-05-23T07:30:39Z</time>
      </trkpt>
      <trkpt lat="48.14042" lon="6.51299">
        <ele>343</ele>
        <time>2022-05-23T07:30:47Z</time>
      </trkpt>
      <trkpt lat="48.13993" lon="6.51336">
        <ele>349</ele>
        <time>2022-05-23T07:30:57Z</time>
      </trkpt>
      <trkpt lat="48.13959" lon="6.5137">
        <ele>354</ele>
        <time>2022-05-23T07:31:04Z</time>
      </trkpt>
      <trkpt lat="48.13901" lon="6.5141">
        <ele>354</ele>
        <time>2022-05-23T07:31:15Z</time>
      </trkpt>
      <trkpt lat="48.13881" lon="6.51427">
        <ele>355</ele>
        <time>2022-05-23T07:31:19Z</time>
      </trkpt>
      <trkpt lat="48.13861" lon="6.51441">
        <ele>355</ele>
        <time>2022-05-23T07:31:23Z</time>
      </trkpt>
      <trkpt lat="48.1385" lon="6.51445">
        <ele>354</ele>
        <time>2022-05-23T07:31:25Z</time>
      </trkpt>
      <trkpt lat="48.13831" lon="6.5146">
        <ele>356</ele>
        <time>2022-05-23T07:31:29Z</time>
      </trkpt>
      <trkpt lat="48.13778" lon="6.51482">
        <ele>358</ele>
        <time>2022-05-23T07:31:39Z</time>
      </trkpt>
      <trkpt lat="48.13682" lon="6.5151">
        <ele>355</ele>
        <time>2022-05-23T07:31:56Z</time>
      </trkpt>
      <trkpt lat="48.13648" lon="6.51514">
        <ele>353</ele>
        <time>2022-05-23T07:32:02Z</time>
      </trkpt>
      <trkpt lat="48.13635" lon="6.51519">
        <ele>354</ele>
        <time>2022-05-23T07:32:05Z</time>
      </trkpt>
      <trkpt lat="48.13602" lon="6.51525">
        <ele>354</ele>
        <time>2022-05-23T07:32:11Z</time>
      </trkpt>
      <trkpt lat="48.13555" lon="6.5154">
        <ele>355</ele>
        <time>2022-05-23T07:32:19Z</time>
      </trkpt>
      <trkpt lat="48.13498" lon="6.51549">
        <ele>356</ele>
        <time>2022-05-23T07:32:30Z</time>
      </trkpt>
      <trkpt lat="48.13392" lon="6.51573">
        <ele>356</ele>
        <time>2022-05-23T07:32:49Z</time>
      </trkpt>
      <trkpt lat="48.13374" lon="6.5158">
        <ele>355</ele>
        <time>2022-05-23T07:32:52Z</time>
      </trkpt>
      <trkpt lat="48.13301" lon="6.5162">
        <ele>361</ele>
        <time>2022-05-23T07:33:06Z</time>
      </trkpt>
      <trkpt lat="48.13226" lon="6.51636">
        <ele>361</ele>
        <time>2022-05-23T07:33:19Z</time>
      </trkpt>
      <trkpt lat="48.13174" lon="6.51643">
        <ele>360</ele>
        <time>2022-05-23T07:33:28Z</time>
      </trkpt>
      <trkpt lat="48.13155" lon="6.5165">
        <ele>360</ele>
        <time>2022-05-23T07:33:32Z</time>
      </trkpt>
      <trkpt lat="48.13044" lon="6.51675">
        <ele>354</ele>
        <time>2022-05-23T07:33:52Z</time>
      </trkpt>
      <trkpt lat="48.13004" lon="6.51688">
        <ele>356</ele>
        <time>2022-05-23T07:33:59Z</time>
      </trkpt>
      <trkpt lat="48.12913" lon="6.51727">
        <ele>358</ele>
        <time>2022-05-23T07:34:16Z</time>
      </trkpt>
      <trkpt lat="48.12887" lon="6.51747">
        <ele>356</ele>
        <time>2022-05-23T07:34:21Z</time>
      </trkpt>
      <trkpt lat="48.12871" lon="6.51765">
        <ele>357</ele>
        <time>2022-05-23T07:34:25Z</time>
      </trkpt>
      <trkpt lat="48.12832" lon="6.51837">
        <ele>364</ele>
        <time>2022-05-23T07:34:36Z</time>
      </trkpt>
      <trkpt lat="48.12812" lon="6.51888">
        <ele>365</ele>
        <time>2022-05-23T07:34:43Z</time>
      </trkpt>
      <trkpt lat="48.12803" lon="6.51931">
        <ele>365</ele>
        <time>2022-05-23T07:34:48Z</time>
      </trkpt>
      <trkpt lat="48.12796" lon="6.52025">
        <ele>367</ele>
        <time>2022-05-23T07:34:59Z</time>
      </trkpt>
      <trkpt lat="48.12785" lon="6.52071">
        <ele>365</ele>
        <time>2022-05-23T07:35:05Z</time>
      </trkpt>
      <trkpt lat="48.12775" lon="6.52104">
        <ele>364</ele>
        <time>2022-05-23T07:35:10Z</time>
      </trkpt>
      <trkpt lat="48.12763" lon="6.5213">
        <ele>363</ele>
        <time>2022-05-23T07:35:13Z</time>
      </trkpt>
      <trkpt lat="48.12743" lon="6.52185">
        <ele>362</ele>
        <time>2022-05-23T07:35:21Z</time>
      </trkpt>
      <trkpt lat="48.12735" lon="6.522">
        <ele>362</ele>
        <time>2022-05-23T07:35:23Z</time>
      </trkpt>
      <trkpt lat="48.12731" lon="6.52216">
        <ele>362</ele>
        <time>2022-05-23T07:35:25Z</time>
      </trkpt>
      <trkpt lat="48.1271" lon="6.5227">
        <ele>361</ele>
        <time>2022-05-23T07:35:32Z</time>
      </trkpt>
      <trkpt lat="48.12676" lon="6.52383">
        <ele>362</ele>
        <time>2022-05-23T07:35:47Z</time>
      </trkpt>
      <trkpt lat="48.12655" lon="6.52437">
        <ele>361</ele>
        <time>2022-05-23T07:35:55Z</time>
      </trkpt>
      <trkpt lat="48.12641" lon="6.52483">
        <ele>362</ele>
        <time>2022-05-23T07:36:01Z</time>
      </trkpt>
      <trkpt lat="48.12626" lon="6.52568">
        <ele>362</ele>
        <time>2022-05-23T07:36:11Z</time>
      </trkpt>
      <trkpt lat="48.12616" lon="6.52596">
        <ele>360</ele>
        <time>2022-05-23T07:36:15Z</time>
      </trkpt>
      <trkpt lat="48.12606" lon="6.52641">
        <ele>357</ele>
        <time>2022-05-23T07:36:20Z</time>
      </trkpt>
      <trkpt lat="48.12571" lon="6.52732">
        <ele>355</ele>
        <time>2022-05-23T07:36:33Z</time>
      </trkpt>
      <trkpt lat="48.12553" lon="6.5277">
        <ele>355</ele>
        <time>2022-05-23T07:36:38Z</time>
      </trkpt>
      <trkpt lat="48.12528" lon="6.52817">
        <ele>354</ele>
        <time>2022-05-23T07:36:46Z</time>
      </trkpt>
      <trkpt lat="48.12513" lon="6.52839">
        <ele>353</ele>
        <time>2022-05-23T07:36:49Z</time>
      </trkpt>
      <trkpt lat="48.12497" lon="6.52871">
        <ele>353</ele>
        <time>2022-05-23T07:36:54Z</time>
      </trkpt>
      <trkpt lat="48.12482" lon="6.52919">
        <ele>354</ele>
        <time>2022-05-23T07:37:00Z</time>
      </trkpt>
      <trkpt lat="48.12471" lon="6.52968">
        <ele>354</ele>
        <time>2022-05-23T07:37:07Z</time>
      </trkpt>
      <trkpt lat="48.1247" lon="6.52986">
        <ele>354</ele>
        <time>2022-05-23T07:37:09Z</time>
      </trkpt>
      <trkpt lat="48.12472" lon="6.53129">
        <ele>355</ele>
        <time>2022-05-23T07:37:26Z</time>
      </trkpt>
      <trkpt lat="48.12476" lon="6.53158">
        <ele>355</ele>
        <time>2022-05-23T07:37:29Z</time>
      </trkpt>
      <trkpt lat="48.12489" lon="6.53217">
        <ele>353</ele>
        <time>2022-05-23T07:37:37Z</time>
      </trkpt>
      <trkpt lat="48.12494" lon="6.53235">
        <ele>352</ele>
        <time>2022-05-23T07:37:39Z</time>
      </trkpt>
      <trkpt lat="48.12506" lon="6.53256">
        <ele>352</ele>
        <time>2022-05-23T07:37:42Z</time>
      </trkpt>
      <trkpt lat="48.12508" lon="6.5327">
        <ele>352</ele>
        <time>2022-05-23T07:37:44Z</time>
      </trkpt>
      <trkpt lat="48.12482" lon="6.53354">
        <ele>349</ele>
        <time>2022-05-23T07:37:55Z</time>
      </trkpt>
      <trkpt lat="48.12481" lon="6.53371">
        <ele>349</ele>
        <time>2022-05-23T07:37:57Z</time>
      </trkpt>
      <trkpt lat="48.12461" lon="6.53408">
        <ele>350</ele>
        <time>2022-05-23T07:38:03Z</time>
      </trkpt>
      <trkpt lat="48.12439" lon="6.53464">
        <ele>351</ele>
        <time>2022-05-23T07:38:10Z</time>
      </trkpt>
      <trkpt lat="48.12428" lon="6.53461">
        <ele>351</ele>
        <time>2022-05-23T07:38:12Z</time>
      </trkpt>
      <trkpt lat="48.12404" lon="6.53427">
        <ele>350</ele>
        <time>2022-05-23T07:38:18Z</time>
      </trkpt>
      <trkpt lat="48.12386" lon="6.53408">
        <ele>349</ele>
        <time>2022-05-23T07:38:22Z</time>
      </trkpt>
      <trkpt lat="48.12387" lon="6.53392">
        <ele>349</ele>
        <time>2022-05-23T07:38:24Z</time>
      </trkpt>
      <trkpt lat="48.12392" lon="6.53404">
        <ele>349</ele>
        <time>2022-05-23T07:38:26Z</time>
      </trkpt>
      <trkpt lat="48.12429" lon="6.53455">
        <ele>351</ele>
        <time>2022-05-23T07:38:35Z</time>
      </trkpt>
      <trkpt lat="48.12428" lon="6.53472">
        <ele>351</ele>
        <time>2022-05-23T07:38:37Z</time>
      </trkpt>
      <trkpt lat="48.124" lon="6.53517">
        <ele>351</ele>
        <time>2022-05-23T07:38:44Z</time>
      </trkpt>
      <trkpt lat="48.12385" lon="6.53536">
        <ele>351</ele>
        <time>2022-05-23T07:38:47Z</time>
      </trkpt>
      <trkpt lat="48.12374" lon="6.53563">
        <ele>352</ele>
        <time>2022-05-23T07:38:51Z</time>
      </trkpt>
      <trkpt lat="48.1235" lon="6.53631">
        <ele>353</ele>
        <time>2022-05-23T07:39:00Z</time>
      </trkpt>
      <trkpt lat="48.12342" lon="6.53675">
        <ele>353</ele>
        <time>2022-05-23T07:39:06Z</time>
      </trkpt>
      <trkpt lat="48.1233" lon="6.537">
        <ele>353</ele>
        <time>2022-05-23T07:39:09Z</time>
      </trkpt>
      <trkpt lat="48.12317" lon="6.53745">
        <ele>353</ele>
        <time>2022-05-23T07:39:15Z</time>
      </trkpt>
      <trkpt lat="48.12302" lon="6.53773">
        <ele>353</ele>
        <time>2022-05-23T07:39:19Z</time>
      </trkpt>
      <trkpt lat="48.12297" lon="6.53792">
        <ele>353</ele>
        <time>2022-05-23T07:39:22Z</time>
      </trkpt>
      <trkpt lat="48.12289" lon="6.5381">
        <ele>353</ele>
        <time>2022-05-23T07:39:24Z</time>
      </trkpt>
      <trkpt lat="48.12268" lon="6.5387">
        <ele>354</ele>
        <time>2022-05-23T07:39:33Z</time>
      </trkpt>
      <trkpt lat="48.12242" lon="6.5396">
        <ele>354</ele>
        <time>2022-05-23T07:39:44Z</time>
      </trkpt>
      <trkpt lat="48.12237" lon="6.53986">
        <ele>353</ele>
        <time>2022-05-23T07:39:47Z</time>
      </trkpt>
      <trkpt lat="48.12234" lon="6.54057">
        <ele>352</ele>
        <time>2022-05-23T07:39:56Z</time>
      </trkpt>
      <trkpt lat="48.12242" lon="6.54124">
        <ele>352</ele>
        <time>2022-05-23T07:40:04Z</time>
      </trkpt>
      <trkpt lat="48.12249" lon="6.5415">
        <ele>352</ele>
        <time>2022-05-23T07:40:07Z</time>
      </trkpt>
      <trkpt lat="48.1225" lon="6.54219">
        <ele>352</ele>
        <time>2022-05-23T07:40:15Z</time>
      </trkpt>
      <trkpt lat="48.12229" lon="6.54391">
        <ele>357</ele>
        <time>2022-05-23T07:40:36Z</time>
      </trkpt>
      <trkpt lat="48.1223" lon="6.54467">
        <ele>363</ele>
        <time>2022-05-23T07:40:45Z</time>
      </trkpt>
      <trkpt lat="48.12213" lon="6.54589">
        <ele>366</ele>
        <time>2022-05-23T07:41:00Z</time>
      </trkpt>
      <trkpt lat="48.12194" lon="6.5469">
        <ele>363</ele>
        <time>2022-05-23T07:41:12Z</time>
      </trkpt>
      <trkpt lat="48.12194" lon="6.54708">
        <ele>364</ele>
        <time>2022-05-23T07:41:15Z</time>
      </trkpt>
      <trkpt lat="48.12188" lon="6.54757">
        <ele>363</ele>
        <time>2022-05-23T07:41:21Z</time>
      </trkpt>
      <trkpt lat="48.1219" lon="6.54772">
        <ele>365</ele>
        <time>2022-05-23T07:41:22Z</time>
      </trkpt>
      <trkpt lat="48.12186" lon="6.54806">
        <ele>365</ele>
        <time>2022-05-23T07:41:26Z</time>
      </trkpt>
      <trkpt lat="48.12181" lon="6.54821">
        <ele>365</ele>
        <time>2022-05-23T07:41:28Z</time>
      </trkpt>
      <trkpt lat="48.12176" lon="6.54869">
        <ele>365</ele>
        <time>2022-05-23T07:41:34Z</time>
      </trkpt>
      <trkpt lat="48.1217" lon="6.54898">
        <ele>364</ele>
        <time>2022-05-23T07:41:38Z</time>
      </trkpt>
      <trkpt lat="48.12155" lon="6.54944">
        <ele>363</ele>
        <time>2022-05-23T07:41:44Z</time>
      </trkpt>
      <trkpt lat="48.12143" lon="6.55007">
        <ele>361</ele>
        <time>2022-05-23T07:41:52Z</time>
      </trkpt>
      <trkpt lat="48.12113" lon="6.5511">
        <ele>359</ele>
        <time>2022-05-23T07:42:05Z</time>
      </trkpt>
      <trkpt lat="48.12081" lon="6.55194">
        <ele>358</ele>
        <time>2022-05-23T07:42:17Z</time>
      </trkpt>
      <trkpt lat="48.12065" lon="6.55254">
        <ele>360</ele>
        <time>2022-05-23T07:42:24Z</time>
      </trkpt>
      <trkpt lat="48.12003" lon="6.55401">
        <ele>358</ele>
        <time>2022-05-23T07:42:45Z</time>
      </trkpt>
      <trkpt lat="48.11976" lon="6.55451">
        <ele>360</ele>
        <time>2022-05-23T07:42:52Z</time>
      </trkpt>
      <trkpt lat="48.11952" lon="6.55487">
        <ele>360</ele>
        <time>2022-05-23T07:42:59Z</time>
      </trkpt>
      <trkpt lat="48.11917" lon="6.55559">
        <ele>358</ele>
        <time>2022-05-23T07:43:09Z</time>
      </trkpt>
      <trkpt lat="48.11908" lon="6.5557">
        <ele>358</ele>
        <time>2022-05-23T07:43:11Z</time>
      </trkpt>
      <trkpt lat="48.11883" lon="6.55629">
        <ele>361</ele>
        <time>2022-05-23T07:43:19Z</time>
      </trkpt>
      <trkpt lat="48.11865" lon="6.55685">
        <ele>362</ele>
        <time>2022-05-23T07:43:27Z</time>
      </trkpt>
      <trkpt lat="48.11864" lon="6.557">
        <ele>363</ele>
        <time>2022-05-23T07:43:29Z</time>
      </trkpt>
      <trkpt lat="48.11857" lon="6.55729">
        <ele>365</ele>
        <time>2022-05-23T07:43:32Z</time>
      </trkpt>
      <trkpt lat="48.11827" lon="6.55797">
        <ele>365</ele>
        <time>2022-05-23T07:43:42Z</time>
      </trkpt>
      <trkpt lat="48.11819" lon="6.55825">
        <ele>366</ele>
        <time>2022-05-23T07:43:46Z</time>
      </trkpt>
      <trkpt lat="48.11798" lon="6.55873">
        <ele>365</ele>
        <time>2022-05-23T07:43:52Z</time>
      </trkpt>
      <trkpt lat="48.1179" lon="6.559">
        <ele>366</ele>
        <time>2022-05-23T07:43:56Z</time>
      </trkpt>
      <trkpt lat="48.11776" lon="6.55927">
        <ele>364</ele>
        <time>2022-05-23T07:44:00Z</time>
      </trkpt>
      <trkpt lat="48.11756" lon="6.55978">
        <ele>364</ele>
        <time>2022-05-23T07:44:07Z</time>
      </trkpt>
      <trkpt lat="48.11725" lon="6.56088">
        <ele>371</ele>
        <time>2022-05-23T07:44:21Z</time>
      </trkpt>
      <trkpt lat="48.11722" lon="6.56134">
        <ele>376</ele>
        <time>2022-05-23T07:44:27Z</time>
      </trkpt>
      <trkpt lat="48.11708" lon="6.56161">
        <ele>375</ele>
        <time>2022-05-23T07:44:31Z</time>
      </trkpt>
      <trkpt lat="48.11697" lon="6.5619">
        <ele>373</ele>
        <time>2022-05-23T07:44:35Z</time>
      </trkpt>
      <trkpt lat="48.1166" lon="6.56327">
        <ele>371</ele>
        <time>2022-05-23T07:44:52Z</time>
      </trkpt>
      <trkpt lat="48.11628" lon="6.56403">
        <ele>372</ele>
        <time>2022-05-23T07:45:03Z</time>
      </trkpt>
      <trkpt lat="48.11596" lon="6.56489">
        <ele>370</ele>
        <time>2022-05-23T07:45:15Z</time>
      </trkpt>
      <trkpt lat="48.11565" lon="6.56534">
        <ele>369</ele>
        <time>2022-05-23T07:45:22Z</time>
      </trkpt>
      <trkpt lat="48.11502" lon="6.56644">
        <ele>361</ele>
        <time>2022-05-23T07:45:40Z</time>
      </trkpt>
      <trkpt lat="48.11476" lon="6.56703">
        <ele>360</ele>
        <time>2022-05-23T07:45:48Z</time>
      </trkpt>
      <trkpt lat="48.11424" lon="6.56801">
        <ele>352</ele>
        <time>2022-05-23T07:46:03Z</time>
      </trkpt>
      <trkpt lat="48.11417" lon="6.56817">
        <ele>350</ele>
        <time>2022-05-23T07:46:05Z</time>
      </trkpt>
      <trkpt lat="48.1141" lon="6.56846">
        <ele>350</ele>
        <time>2022-05-23T07:46:09Z</time>
      </trkpt>
      <trkpt lat="48.11393" lon="6.56864">
        <ele>351</ele>
        <time>2022-05-23T07:46:12Z</time>
      </trkpt>
      <trkpt lat="48.11378" lon="6.56889">
        <ele>352</ele>
        <time>2022-05-23T07:46:16Z</time>
      </trkpt>
      <trkpt lat="48.11334" lon="6.56984">
        <ele>353</ele>
        <time>2022-05-23T07:46:30Z</time>
      </trkpt>
      <trkpt lat="48.1122" lon="6.57211">
        <ele>355</ele>
        <time>2022-05-23T07:47:04Z</time>
      </trkpt>
      <trkpt lat="48.11199" lon="6.57259">
        <ele>355</ele>
        <time>2022-05-23T07:47:11Z</time>
      </trkpt>
      <trkpt lat="48.1119" lon="6.57294">
        <ele>356</ele>
        <time>2022-05-23T07:47:15Z</time>
      </trkpt>
      <trkpt lat="48.1118" lon="6.5736">
        <ele>357</ele>
        <time>2022-05-23T07:47:23Z</time>
      </trkpt>
      <trkpt lat="48.11177" lon="6.57402">
        <ele>358</ele>
        <time>2022-05-23T07:47:28Z</time>
      </trkpt>
      <trkpt lat="48.1118" lon="6.57433">
        <ele>360</ele>
        <time>2022-05-23T07:47:32Z</time>
      </trkpt>
      <trkpt lat="48.11176" lon="6.57477">
        <ele>362</ele>
        <time>2022-05-23T07:47:37Z</time>
      </trkpt>
      <trkpt lat="48.11183" lon="6.57505">
        <ele>366</ele>
        <time>2022-05-23T07:47:41Z</time>
      </trkpt>
      <trkpt lat="48.11153" lon="6.57622">
        <ele>372</ele>
        <time>2022-05-23T07:47:56Z</time>
      </trkpt>
      <trkpt lat="48.11143" lon="6.57647">
        <ele>373</ele>
        <time>2022-05-23T07:47:59Z</time>
      </trkpt>
      <trkpt lat="48.11136" lon="6.57697">
        <ele>377</ele>
        <time>2022-05-23T07:48:05Z</time>
      </trkpt>
      <trkpt lat="48.11129" lon="6.57714">
        <ele>376</ele>
        <time>2022-05-23T07:48:08Z</time>
      </trkpt>
      <trkpt lat="48.11113" lon="6.5778">
        <ele>377</ele>
        <time>2022-05-23T07:48:16Z</time>
      </trkpt>
      <trkpt lat="48.11098" lon="6.57864">
        <ele>379</ele>
        <time>2022-05-23T07:48:26Z</time>
      </trkpt>
      <trkpt lat="48.1109" lon="6.57895">
        <ele>377</ele>
        <time>2022-05-23T07:48:30Z</time>
      </trkpt>
      <trkpt lat="48.11022" lon="6.58051">
        <ele>372</ele>
        <time>2022-05-23T07:48:52Z</time>
      </trkpt>
      <trkpt lat="48.10969" lon="6.58269">
        <ele>374</ele>
        <time>2022-05-23T07:49:20Z</time>
      </trkpt>
      <trkpt lat="48.10955" lon="6.58304">
        <ele>371</ele>
        <time>2022-05-23T07:49:25Z</time>
      </trkpt>
      <trkpt lat="48.10931" lon="6.58351">
        <ele>364</ele>
        <time>2022-05-23T07:49:32Z</time>
      </trkpt>
      <trkpt lat="48.10912" lon="6.58395">
        <ele>359</ele>
        <time>2022-05-23T07:49:38Z</time>
      </trkpt>
      <trkpt lat="48.10889" lon="6.58484">
        <ele>359</ele>
        <time>2022-05-23T07:49:49Z</time>
      </trkpt>
      <trkpt lat="48.10875" lon="6.58573">
        <ele>361</ele>
        <time>2022-05-23T07:50:00Z</time>
      </trkpt>
      <trkpt lat="48.1087" lon="6.58586">
        <ele>361</ele>
        <time>2022-05-23T07:50:02Z</time>
      </trkpt>
      <trkpt lat="48.10849" lon="6.58619">
        <ele>359</ele>
        <time>2022-05-23T07:50:07Z</time>
      </trkpt>
      <trkpt lat="48.10793" lon="6.58668">
        <ele>357</ele>
        <time>2022-05-23T07:50:19Z</time>
      </trkpt>
      <trkpt lat="48.10776" lon="6.5869">
        <ele>356</ele>
        <time>2022-05-23T07:50:23Z</time>
      </trkpt>
      <trkpt lat="48.10756" lon="6.58731">
        <ele>356</ele>
        <time>2022-05-23T07:50:29Z</time>
      </trkpt>
      <trkpt lat="48.10729" lon="6.58804">
        <ele>358</ele>
        <time>2022-05-23T07:50:39Z</time>
      </trkpt>
      <trkpt lat="48.1071" lon="6.58864">
        <ele>359</ele>
        <time>2022-05-23T07:50:47Z</time>
      </trkpt>
      <trkpt lat="48.10683" lon="6.58992">
        <ele>361</ele>
        <time>2022-05-23T07:51:03Z</time>
      </trkpt>
      <trkpt lat="48.10581" lon="6.59218">
        <ele>359</ele>
        <time>2022-05-23T07:51:35Z</time>
      </trkpt>
      <trkpt lat="48.10575" lon="6.59235">
        <ele>360</ele>
        <time>2022-05-23T07:51:37Z</time>
      </trkpt>
      <trkpt lat="48.10561" lon="6.59298">
        <ele>364</ele>
        <time>2022-05-23T07:51:45Z</time>
      </trkpt>
      <trkpt lat="48.10545" lon="6.5934">
        <ele>367</ele>
        <time>2022-05-23T07:51:51Z</time>
      </trkpt>
      <trkpt lat="48.1054" lon="6.59367">
        <ele>369</ele>
        <time>2022-05-23T07:51:54Z</time>
      </trkpt>
      <trkpt lat="48.10518" lon="6.5945">
        <ele>372</ele>
        <time>2022-05-23T07:52:05Z</time>
      </trkpt>
      <trkpt lat="48.10508" lon="6.59496">
        <ele>373</ele>
        <time>2022-05-23T07:52:11Z</time>
      </trkpt>
      <trkpt lat="48.10505" lon="6.59529">
        <ele>374</ele>
        <time>2022-05-23T07:52:15Z</time>
      </trkpt>
      <trkpt lat="48.10483" lon="6.59624">
        <ele>374</ele>
        <time>2022-05-23T07:52:27Z</time>
      </trkpt>
      <trkpt lat="48.10481" lon="6.59642">
        <ele>375</ele>
        <time>2022-05-23T07:52:29Z</time>
      </trkpt>
      <trkpt lat="48.10447" lon="6.59712">
        <ele>372</ele>
        <time>2022-05-23T07:52:39Z</time>
      </trkpt>
      <trkpt lat="48.10404" lon="6.59829">
        <ele>370</ele>
        <time>2022-05-23T07:52:55Z</time>
      </trkpt>
      <trkpt lat="48.10386" lon="6.59854">
        <ele>368</ele>
        <time>2022-05-23T07:52:59Z</time>
      </trkpt>
      <trkpt lat="48.10365" lon="6.59869">
        <ele>365</ele>
        <time>2022-05-23T07:53:03Z</time>
      </trkpt>
      <trkpt lat="48.10354" lon="6.59874">
        <ele>363</ele>
        <time>2022-05-23T07:53:06Z</time>
      </trkpt>
      <trkpt lat="48.10238" lon="6.59907">
        <ele>357</ele>
        <time>2022-05-23T07:53:27Z</time>
      </trkpt>
      <trkpt lat="48.10192" lon="6.59918">
        <ele>359</ele>
        <time>2022-05-23T07:53:35Z</time>
      </trkpt>
      <trkpt lat="48.10094" lon="6.59915">
        <ele>362</ele>
        <time>2022-05-23T07:53:52Z</time>
      </trkpt>
      <trkpt lat="48.1006" lon="6.5992">
        <ele>362</ele>
        <time>2022-05-23T07:53:58Z</time>
      </trkpt>
      <trkpt lat="48.10036" lon="6.59931">
        <ele>361</ele>
        <time>2022-05-23T07:54:03Z</time>
      </trkpt>
      <trkpt lat="48.10028" lon="6.59939">
        <ele>361</ele>
        <time>2022-05-23T07:54:05Z</time>
      </trkpt>
      <trkpt lat="48.10001" lon="6.59954">
        <ele>361</ele>
        <time>2022-05-23T07:54:10Z</time>
      </trkpt>
      <trkpt lat="48.09963" lon="6.5998">
        <ele>362</ele>
        <time>2022-05-23T07:54:17Z</time>
      </trkpt>
      <trkpt lat="48.09909" lon="6.60006">
        <ele>363</ele>
        <time>2022-05-23T07:54:27Z</time>
      </trkpt>
      <trkpt lat="48.09889" lon="6.60018">
        <ele>363</ele>
        <time>2022-05-23T07:54:31Z</time>
      </trkpt>
      <trkpt lat="48.09826" lon="6.60043">
        <ele>365</ele>
        <time>2022-05-23T07:54:43Z</time>
      </trkpt>
      <trkpt lat="48.09806" lon="6.60056">
        <ele>366</ele>
        <time>2022-05-23T07:54:46Z</time>
      </trkpt>
      <trkpt lat="48.09726" lon="6.60132">
        <ele>369</ele>
        <time>2022-05-23T07:55:03Z</time>
      </trkpt>
      <trkpt lat="48.09712" lon="6.60154">
        <ele>369</ele>
        <time>2022-05-23T07:55:07Z</time>
      </trkpt>
      <trkpt lat="48.09697" lon="6.6019">
        <ele>370</ele>
        <time>2022-05-23T07:55:12Z</time>
      </trkpt>
      <trkpt lat="48.09672" lon="6.60268">
        <ele>373</ele>
        <time>2022-05-23T07:55:22Z</time>
      </trkpt>
      <trkpt lat="48.09666" lon="6.60295">
        <ele>374</ele>
        <time>2022-05-23T07:55:26Z</time>
      </trkpt>
      <trkpt lat="48.0966" lon="6.60337">
        <ele>374</ele>
        <time>2022-05-23T07:55:31Z</time>
      </trkpt>
      <trkpt lat="48.09656" lon="6.60539">
        <ele>378</ele>
        <time>2022-05-23T07:55:55Z</time>
      </trkpt>
      <trkpt lat="48.09639" lon="6.60666">
        <ele>378</ele>
        <time>2022-05-23T07:56:10Z</time>
      </trkpt>
      <trkpt lat="48.09622" lon="6.6077">
        <ele>380</ele>
        <time>2022-05-23T07:56:23Z</time>
      </trkpt>
      <trkpt lat="48.09609" lon="6.60874">
        <ele>382</ele>
        <time>2022-05-23T07:56:35Z</time>
      </trkpt>
      <trkpt lat="48.09602" lon="6.609">
        <ele>382</ele>
        <time>2022-05-23T07:56:39Z</time>
      </trkpt>
      <trkpt lat="48.0957" lon="6.60962">
        <ele>383</ele>
        <time>2022-05-23T07:56:48Z</time>
      </trkpt>
      <trkpt lat="48.09553" lon="6.61007">
        <ele>383</ele>
        <time>2022-05-23T07:56:54Z</time>
      </trkpt>
      <trkpt lat="48.09546" lon="6.61017">
        <ele>383</ele>
        <time>2022-05-23T07:56:56Z</time>
      </trkpt>
      <trkpt lat="48.09543" lon="6.61033">
        <ele>384</ele>
        <time>2022-05-23T07:56:58Z</time>
      </trkpt>
      <trkpt lat="48.09537" lon="6.61045">
        <ele>384</ele>
        <time>2022-05-23T07:57:00Z</time>
      </trkpt>
      <trkpt lat="48.09525" lon="6.61053">
        <ele>384</ele>
        <time>2022-05-23T07:57:02Z</time>
      </trkpt>
      <trkpt lat="48.09495" lon="6.61042">
        <ele>382</ele>
        <time>2022-05-23T07:57:08Z</time>
      </trkpt>
      <trkpt lat="48.09474" lon="6.61038">
        <ele>382</ele>
        <time>2022-05-23T07:57:11Z</time>
      </trkpt>
      <trkpt lat="48.09405" lon="6.61055">
        <ele>383</ele>
        <time>2022-05-23T07:57:24Z</time>
      </trkpt>
      <trkpt lat="48.09396" lon="6.61054">
        <ele>383</ele>
        <time>2022-05-23T07:57:25Z</time>
      </trkpt>
      <trkpt lat="48.09353" lon="6.61062">
        <ele>384</ele>
        <time>2022-05-23T07:57:33Z</time>
      </trkpt>
      <trkpt lat="48.09338" lon="6.61062">
        <ele>384</ele>
        <time>2022-05-23T07:57:36Z</time>
      </trkpt>
      <trkpt lat="48.09303" lon="6.61052">
        <ele>384</ele>
        <time>2022-05-23T07:57:42Z</time>
      </trkpt>
      <trkpt lat="48.09272" lon="6.61035">
        <ele>384</ele>
        <time>2022-05-23T07:57:48Z</time>
      </trkpt>
      <trkpt lat="48.0925" lon="6.61027">
        <ele>384</ele>
        <time>2022-05-23T07:57:52Z</time>
      </trkpt>
      <trkpt lat="48.09202" lon="6.61018">
        <ele>384</ele>
        <time>2022-05-23T07:58:01Z</time>
      </trkpt>
      <trkpt lat="48.0919" lon="6.61012">
        <ele>384</ele>
        <time>2022-05-23T07:58:03Z</time>
      </trkpt>
      <trkpt lat="48.09147" lon="6.61">
        <ele>384</ele>
        <time>2022-05-23T07:58:11Z</time>
      </trkpt>
      <trkpt lat="48.09115" lon="6.60995">
        <ele>383</ele>
        <time>2022-05-23T07:58:16Z</time>
      </trkpt>
      <trkpt lat="48.09065" lon="6.60983">
        <ele>382</ele>
        <time>2022-05-23T07:58:25Z</time>
      </trkpt>
      <trkpt lat="48.09046" lon="6.60987">
        <ele>383</ele>
        <time>2022-05-23T07:58:29Z</time>
      </trkpt>
      <trkpt lat="48.08987" lon="6.61007">
        <ele>388</ele>
        <time>2022-05-23T07:58:40Z</time>
      </trkpt>
      <trkpt lat="48.08928" lon="6.61022">
        <ele>392</ele>
        <time>2022-05-23T07:58:50Z</time>
      </trkpt>
      <trkpt lat="48.08882" lon="6.61019">
        <ele>390</ele>
        <time>2022-05-23T07:58:58Z</time>
      </trkpt>
      <trkpt lat="48.08871" lon="6.61016">
        <ele>389</ele>
        <time>2022-05-23T07:59:00Z</time>
      </trkpt>
      <trkpt lat="48.08859" lon="6.61019">
        <ele>389</ele>
        <time>2022-05-23T07:59:03Z</time>
      </trkpt>
      <trkpt lat="48.08847" lon="6.61018">
        <ele>388</ele>
        <time>2022-05-23T07:59:05Z</time>
      </trkpt>
      <trkpt lat="48.0877" lon="6.61029">
        <ele>386</ele>
        <time>2022-05-23T07:59:18Z</time>
      </trkpt>
      <trkpt lat="48.08746" lon="6.61034">
        <ele>385</ele>
        <time>2022-05-23T07:59:23Z</time>
      </trkpt>
      <trkpt lat="48.08723" lon="6.61043">
        <ele>385</ele>
        <time>2022-05-23T07:59:27Z</time>
      </trkpt>
      <trkpt lat="48.08686" lon="6.6105">
        <ele>384</ele>
        <time>2022-05-23T07:59:34Z</time>
      </trkpt>
      <trkpt lat="48.08663" lon="6.61059">
        <ele>384</ele>
        <time>2022-05-23T07:59:38Z</time>
      </trkpt>
      <trkpt lat="48.08628" lon="6.61068">
        <ele>384</ele>
        <time>2022-05-23T07:59:44Z</time>
      </trkpt>
      <trkpt lat="48.08511" lon="6.61124">
        <ele>386</ele>
        <time>2022-05-23T08:00:06Z</time>
      </trkpt>
      <trkpt lat="48.08377" lon="6.61172">
        <ele>386</ele>
        <time>2022-05-23T08:00:31Z</time>
      </trkpt>
      <trkpt lat="48.08367" lon="6.61179">
        <ele>387</ele>
        <time>2022-05-23T08:00:33Z</time>
      </trkpt>
      <trkpt lat="48.08332" lon="6.61216">
        <ele>388</ele>
        <time>2022-05-23T08:00:40Z</time>
      </trkpt>
      <trkpt lat="48.08217" lon="6.61365">
        <ele>391</ele>
        <time>2022-05-23T08:01:07Z</time>
      </trkpt>
      <trkpt lat="48.0816" lon="6.61414">
        <ele>391</ele>
        <time>2022-05-23T08:01:19Z</time>
      </trkpt>
      <trkpt lat="48.0812" lon="6.61438">
        <ele>393</ele>
        <time>2022-05-23T08:01:27Z</time>
      </trkpt>
      <trkpt lat="48.08083" lon="6.61468">
        <ele>392</ele>
        <time>2022-05-23T08:01:34Z</time>
      </trkpt>
      <trkpt lat="48.08052" lon="6.61548">
        <ele>396</ele>
        <time>2022-05-23T08:01:45Z</time>
      </trkpt>
      <trkpt lat="48.08031" lon="6.61585">
        <ele>399</ele>
        <time>2022-05-23T08:01:51Z</time>
      </trkpt>
      <trkpt lat="48.08023" lon="6.61594">
        <ele>399</ele>
        <time>2022-05-23T08:01:53Z</time>
      </trkpt>
      <trkpt lat="48.08003" lon="6.61607">
        <ele>398</ele>
        <time>2022-05-23T08:01:56Z</time>
      </trkpt>
      <trkpt lat="48.07957" lon="6.61644">
        <ele>396</ele>
        <time>2022-05-23T08:02:06Z</time>
      </trkpt>
      <trkpt lat="48.07942" lon="6.61667">
        <ele>396</ele>
        <time>2022-05-23T08:02:10Z</time>
      </trkpt>
      <trkpt lat="48.07917" lon="6.61726">
        <ele>398</ele>
        <time>2022-05-23T08:02:18Z</time>
      </trkpt>
      <trkpt lat="48.07909" lon="6.61736">
        <ele>399</ele>
        <time>2022-05-23T08:02:20Z</time>
      </trkpt>
      <trkpt lat="48.07878" lon="6.61754">
        <ele>398</ele>
        <time>2022-05-23T08:02:26Z</time>
      </trkpt>
      <trkpt lat="48.07858" lon="6.61769">
        <ele>398</ele>
        <time>2022-05-23T08:02:30Z</time>
      </trkpt>
      <trkpt lat="48.07749" lon="6.61833">
        <ele>399</ele>
        <time>2022-05-23T08:02:50Z</time>
      </trkpt>
      <trkpt lat="48.0772" lon="6.61844">
        <ele>400</ele>
        <time>2022-05-23T08:02:56Z</time>
      </trkpt>
      <trkpt lat="48.07605" lon="6.61876">
        <ele>407</ele>
        <time>2022-05-23T08:03:17Z</time>
      </trkpt>
      <trkpt lat="48.07563" lon="6.61895">
        <ele>410</ele>
        <time>2022-05-23T08:03:24Z</time>
      </trkpt>
      <trkpt lat="48.07498" lon="6.61916">
        <ele>413</ele>
        <time>2022-05-23T08:03:36Z</time>
      </trkpt>
      <trkpt lat="48.0745" lon="6.61939">
        <ele>413</ele>
        <time>2022-05-23T08:03:45Z</time>
      </trkpt>
      <trkpt lat="48.07427" lon="6.61963">
        <ele>414</ele>
        <time>2022-05-23T08:03:50Z</time>
      </trkpt>
      <trkpt lat="48.0738" lon="6.6203">
        <ele>419</ele>
        <time>2022-05-23T08:04:02Z</time>
      </trkpt>
      <trkpt lat="48.07361" lon="6.6204">
        <ele>417</ele>
        <time>2022-05-23T08:04:05Z</time>
      </trkpt>
      <trkpt lat="48.07329" lon="6.62052">
        <ele>414</ele>
        <time>2022-05-23T08:04:11Z</time>
      </trkpt>
      <trkpt lat="48.07303" lon="6.62076">
        <ele>415</ele>
        <time>2022-05-23T08:04:17Z</time>
      </trkpt>
      <trkpt lat="48.07281" lon="6.62107">
        <ele>417</ele>
        <time>2022-05-23T08:04:22Z</time>
      </trkpt>
      <trkpt lat="48.0724" lon="6.62181">
        <ele>420</ele>
        <time>2022-05-23T08:04:33Z</time>
      </trkpt>
      <trkpt lat="48.07224" lon="6.62202">
        <ele>420</ele>
        <time>2022-05-23T08:04:37Z</time>
      </trkpt>
      <trkpt lat="48.07214" lon="6.6221">
        <ele>420</ele>
        <time>2022-05-23T08:04:39Z</time>
      </trkpt>
      <trkpt lat="48.072" lon="6.62231">
        <ele>421</ele>
        <time>2022-05-23T08:04:43Z</time>
      </trkpt>
      <trkpt lat="48.07164" lon="6.62256">
        <ele>421</ele>
        <time>2022-05-23T08:04:50Z</time>
      </trkpt>
      <trkpt lat="48.07119" lon="6.62296">
        <ele>426</ele>
        <time>2022-05-23T08:04:59Z</time>
      </trkpt>
      <trkpt lat="48.07101" lon="6.62309">
        <ele>427</ele>
        <time>2022-05-23T08:05:03Z</time>
      </trkpt>
      <trkpt lat="48.07092" lon="6.62306">
        <ele>426</ele>
        <time>2022-05-23T08:05:04Z</time>
      </trkpt>
      <trkpt lat="48.07062" lon="6.62348">
        <ele>427</ele>
        <time>2022-05-23T08:05:12Z</time>
      </trkpt>
      <trkpt lat="48.07046" lon="6.62388">
        <ele>428</ele>
        <time>2022-05-23T08:05:17Z</time>
      </trkpt>
      <trkpt lat="48.07037" lon="6.62389">
        <ele>427</ele>
        <time>2022-05-23T08:05:19Z</time>
      </trkpt>
      <trkpt lat="48.07036" lon="6.62374">
        <ele>425</ele>
        <time>2022-05-23T08:05:21Z</time>
      </trkpt>
      <trkpt lat="48.07026" lon="6.62359">
        <ele>423</ele>
        <time>2022-05-23T08:05:23Z</time>
      </trkpt>
      <trkpt lat="48.07031" lon="6.62326">
        <ele>421</ele>
        <time>2022-05-23T08:05:27Z</time>
      </trkpt>
      <trkpt lat="48.07046" lon="6.62285">
        <ele>419</ele>
        <time>2022-05-23T08:05:33Z</time>
      </trkpt>
      <trkpt lat="48.0706" lon="6.62278">
        <ele>419</ele>
        <time>2022-05-23T08:05:35Z</time>
      </trkpt>
      <trkpt lat="48.0706" lon="6.62292">
        <ele>421</ele>
        <time>2022-05-23T08:05:37Z</time>
      </trkpt>
      <trkpt lat="48.07057" lon="6.62306">
        <ele>422</ele>
        <time>2022-05-23T08:05:39Z</time>
      </trkpt>
      <trkpt lat="48.0705" lon="6.62295">
        <ele>420</ele>
        <time>2022-05-23T08:05:41Z</time>
      </trkpt>
      <trkpt lat="48.07053" lon="6.6228">
        <ele>419</ele>
        <time>2022-05-23T08:05:42Z</time>
      </trkpt>
      <trkpt lat="48.07045" lon="6.62286">
        <ele>419</ele>
        <time>2022-05-23T08:05:44Z</time>
      </trkpt>
      <trkpt lat="48.07036" lon="6.62288">
        <ele>418</ele>
        <time>2022-05-23T08:05:46Z</time>
      </trkpt>
      <trkpt lat="48.07036" lon="6.62274">
        <ele>417</ele>
        <time>2022-05-23T08:05:47Z</time>
      </trkpt>
      <trkpt lat="48.07028" lon="6.62281">
        <ele>417</ele>
        <time>2022-05-23T08:05:49Z</time>
      </trkpt>
      <trkpt lat="48.07031" lon="6.62296">
        <ele>418</ele>
        <time>2022-05-23T08:05:51Z</time>
      </trkpt>
      <trkpt lat="48.07029" lon="6.62279">
        <ele>417</ele>
        <time>2022-05-23T08:05:53Z</time>
      </trkpt>
      <trkpt lat="48.07017" lon="6.62289">
        <ele>416</ele>
        <time>2022-05-23T08:05:55Z</time>
      </trkpt>
      <trkpt lat="48.07032" lon="6.62288">
        <ele>418</ele>
        <time>2022-05-23T08:05:58Z</time>
      </trkpt>
      <trkpt lat="48.07039" lon="6.62278">
        <ele>417</ele>
        <time>2022-05-23T08:06:00Z</time>
      </trkpt>
      <trkpt lat="48.07051" lon="6.6227">
        <ele>418</ele>
        <time>2022-05-23T08:06:02Z</time>
      </trkpt>
      <trkpt lat="48.07043" lon="6.62263">
        <ele>416</ele>
        <time>2022-05-23T08:06:04Z</time>
      </trkpt>
      <trkpt lat="48.07038" lon="6.62251">
        <ele>415</ele>
        <time>2022-05-23T08:06:05Z</time>
      </trkpt>
      <trkpt lat="48.07031" lon="6.62283">
        <ele>417</ele>
        <time>2022-05-23T08:06:09Z</time>
      </trkpt>
      <trkpt lat="48.0704" lon="6.62287">
        <ele>418</ele>
        <time>2022-05-23T08:06:11Z</time>
      </trkpt>
      <trkpt lat="48.07048" lon="6.62294">
        <ele>420</ele>
        <time>2022-05-23T08:06:13Z</time>
      </trkpt>
      <trkpt lat="48.07054" lon="6.62283">
        <ele>419</ele>
        <time>2022-05-23T08:06:14Z</time>
      </trkpt>
      <trkpt lat="48.07055" lon="6.62297">
        <ele>421</ele>
        <time>2022-05-23T08:06:16Z</time>
      </trkpt>
      <trkpt lat="48.07065" lon="6.62287">
        <ele>421</ele>
        <time>2022-05-23T08:06:18Z</time>
      </trkpt>
      <trkpt lat="48.07054" lon="6.6229">
        <ele>420</ele>
        <time>2022-05-23T08:06:20Z</time>
      </trkpt>
      <trkpt lat="48.07058" lon="6.62302">
        <ele>422</ele>
        <time>2022-05-23T08:06:22Z</time>
      </trkpt>
      <trkpt lat="48.07064" lon="6.62292">
        <ele>421</ele>
        <time>2022-05-23T08:06:23Z</time>
      </trkpt>
      <trkpt lat="48.07057" lon="6.62302">
        <ele>422</ele>
        <time>2022-05-23T08:06:25Z</time>
      </trkpt>
      <trkpt lat="48.07051" lon="6.62331">
        <ele>424</ele>
        <time>2022-05-23T08:06:29Z</time>
      </trkpt>
      <trkpt lat="48.07038" lon="6.62355">
        <ele>424</ele>
        <time>2022-05-23T08:06:32Z</time>
      </trkpt>
      <trkpt lat="48.07033" lon="6.62383">
        <ele>426</ele>
        <time>2022-05-23T08:06:36Z</time>
      </trkpt>
      <trkpt lat="48.07025" lon="6.62409">
        <ele>426</ele>
        <time>2022-05-23T08:06:39Z</time>
      </trkpt>
      <trkpt lat="48.07016" lon="6.62419">
        <ele>426</ele>
        <time>2022-05-23T08:06:41Z</time>
      </trkpt>
      <trkpt lat="48.07004" lon="6.62422">
        <ele>424</ele>
        <time>2022-05-23T08:06:43Z</time>
      </trkpt>
      <trkpt lat="48.06992" lon="6.62416">
        <ele>423</ele>
        <time>2022-05-23T08:06:46Z</time>
      </trkpt>
      <trkpt lat="48.06983" lon="6.62408">
        <ele>422</ele>
        <time>2022-05-23T08:06:47Z</time>
      </trkpt>
      <trkpt lat="48.06976" lon="6.62383">
        <ele>420</ele>
        <time>2022-05-23T08:06:51Z</time>
      </trkpt>
      <trkpt lat="48.06977" lon="6.62321">
        <ele>416</ele>
        <time>2022-05-23T08:06:58Z</time>
      </trkpt>
      <trkpt lat="48.06975" lon="6.62283">
        <ele>414</ele>
        <time>2022-05-23T08:07:03Z</time>
      </trkpt>
      <trkpt lat="48.06978" lon="6.62235">
        <ele>413</ele>
        <time>2022-05-23T08:07:08Z</time>
      </trkpt>
      <trkpt lat="48.0697" lon="6.622">
        <ele>412</ele>
        <time>2022-05-23T08:07:13Z</time>
      </trkpt>
      <trkpt lat="48.06962" lon="6.62186">
        <ele>411</ele>
        <time>2022-05-23T08:07:15Z</time>
      </trkpt>
      <trkpt lat="48.06853" lon="6.62038">
        <ele>411</ele>
        <time>2022-05-23T08:07:41Z</time>
      </trkpt>
      <trkpt lat="48.06755" lon="6.61913">
        <ele>412</ele>
        <time>2022-05-23T08:08:04Z</time>
      </trkpt>
      <trkpt lat="48.06749" lon="6.61901">
        <ele>413</ele>
        <time>2022-05-23T08:08:06Z</time>
      </trkpt>
      <trkpt lat="48.06705" lon="6.61843">
        <ele>413</ele>
        <time>2022-05-23T08:08:16Z</time>
      </trkpt>
      <trkpt lat="48.06658" lon="6.61793">
        <ele>411</ele>
        <time>2022-05-23T08:08:27Z</time>
      </trkpt>
      <trkpt lat="48.06628" lon="6.61763">
        <ele>409</ele>
        <time>2022-05-23T08:08:33Z</time>
      </trkpt>
      <trkpt lat="48.06605" lon="6.61744">
        <ele>408</ele>
        <time>2022-05-23T08:08:38Z</time>
      </trkpt>
      <trkpt lat="48.06555" lon="6.61691">
        <ele>407</ele>
        <time>2022-05-23T08:08:49Z</time>
      </trkpt>
      <trkpt lat="48.06514" lon="6.6162">
        <ele>407</ele>
        <time>2022-05-23T08:09:00Z</time>
      </trkpt>
      <trkpt lat="48.0649" lon="6.61572">
        <ele>408</ele>
        <time>2022-05-23T08:09:07Z</time>
      </trkpt>
      <trkpt lat="48.06482" lon="6.61561">
        <ele>408</ele>
        <time>2022-05-23T08:09:09Z</time>
      </trkpt>
      <trkpt lat="48.06438" lon="6.6146">
        <ele>408</ele>
        <time>2022-05-23T08:09:23Z</time>
      </trkpt>
      <trkpt lat="48.06411" lon="6.61421">
        <ele>408</ele>
        <time>2022-05-23T08:09:30Z</time>
      </trkpt>
      <trkpt lat="48.06401" lon="6.61409">
        <ele>409</ele>
        <time>2022-05-23T08:09:32Z</time>
      </trkpt>
      <trkpt lat="48.06377" lon="6.61392">
        <ele>409</ele>
        <time>2022-05-23T08:09:37Z</time>
      </trkpt>
      <trkpt lat="48.06355" lon="6.61382">
        <ele>410</ele>
        <time>2022-05-23T08:09:41Z</time>
      </trkpt>
      <trkpt lat="48.06281" lon="6.61369">
        <ele>412</ele>
        <time>2022-05-23T08:09:54Z</time>
      </trkpt>
      <trkpt lat="48.06198" lon="6.61358">
        <ele>415</ele>
        <time>2022-05-23T08:10:09Z</time>
      </trkpt>
      <trkpt lat="48.06164" lon="6.61352">
        <ele>416</ele>
        <time>2022-05-23T08:10:15Z</time>
      </trkpt>
      <trkpt lat="48.06153" lon="6.61348">
        <ele>416</ele>
        <time>2022-05-23T08:10:17Z</time>
      </trkpt>
      <trkpt lat="48.06087" lon="6.61312">
        <ele>418</ele>
        <time>2022-05-23T08:10:30Z</time>
      </trkpt>
      <trkpt lat="48.06046" lon="6.61278">
        <ele>418</ele>
        <time>2022-05-23T08:10:38Z</time>
      </trkpt>
      <trkpt lat="48.05993" lon="6.6124">
        <ele>419</ele>
        <time>2022-05-23T08:10:48Z</time>
      </trkpt>
      <trkpt lat="48.05974" lon="6.61214">
        <ele>420</ele>
        <time>2022-05-23T08:10:53Z</time>
      </trkpt>
      <trkpt lat="48.05949" lon="6.61168">
        <ele>420</ele>
        <time>2022-05-23T08:11:00Z</time>
      </trkpt>
      <trkpt lat="48.05914" lon="6.61093">
        <ele>416</ele>
        <time>2022-05-23T08:11:11Z</time>
      </trkpt>
      <trkpt lat="48.05898" lon="6.61068">
        <ele>417</ele>
        <time>2022-05-23T08:11:15Z</time>
      </trkpt>
      <trkpt lat="48.0588" lon="6.61046">
        <ele>419</ele>
        <time>2022-05-23T08:11:19Z</time>
      </trkpt>
      <trkpt lat="48.05861" lon="6.61026">
        <ele>421</ele>
        <time>2022-05-23T08:11:23Z</time>
      </trkpt>
      <trkpt lat="48.05839" lon="6.61009">
        <ele>423</ele>
        <time>2022-05-23T08:11:28Z</time>
      </trkpt>
      <trkpt lat="48.0583" lon="6.60999">
        <ele>422</ele>
        <time>2022-05-23T08:11:30Z</time>
      </trkpt>
      <trkpt lat="48.05806" lon="6.60985">
        <ele>425</ele>
        <time>2022-05-23T08:11:34Z</time>
      </trkpt>
      <trkpt lat="48.05783" lon="6.60966">
        <ele>425</ele>
        <time>2022-05-23T08:11:39Z</time>
      </trkpt>
      <trkpt lat="48.05724" lon="6.60907">
        <ele>427</ele>
        <time>2022-05-23T08:11:52Z</time>
      </trkpt>
      <trkpt lat="48.05667" lon="6.60844">
        <ele>430</ele>
        <time>2022-05-23T08:12:04Z</time>
      </trkpt>
      <trkpt lat="48.05653" lon="6.60813">
        <ele>428</ele>
        <time>2022-05-23T08:12:09Z</time>
      </trkpt>
      <trkpt lat="48.0563" lon="6.60744">
        <ele>425</ele>
        <time>2022-05-23T08:12:18Z</time>
      </trkpt>
      <trkpt lat="48.05601" lon="6.60702">
        <ele>426</ele>
        <time>2022-05-23T08:12:25Z</time>
      </trkpt>
      <trkpt lat="48.05589" lon="6.60694">
        <ele>428</ele>
        <time>2022-05-23T08:12:27Z</time>
      </trkpt>
      <trkpt lat="48.05568" lon="6.60672">
        <ele>427</ele>
        <time>2022-05-23T08:12:32Z</time>
      </trkpt>
      <trkpt lat="48.05544" lon="6.60655">
        <ele>428</ele>
        <time>2022-05-23T08:12:37Z</time>
      </trkpt>
      <trkpt lat="48.0552" lon="6.60633">
        <ele>428</ele>
        <time>2022-05-23T08:12:42Z</time>
      </trkpt>
      <trkpt lat="48.05484" lon="6.60592">
        <ele>424</ele>
        <time>2022-05-23T08:12:50Z</time>
      </trkpt>
      <trkpt lat="48.0546" lon="6.6057">
        <ele>423</ele>
        <time>2022-05-23T08:12:55Z</time>
      </trkpt>
      <trkpt lat="48.05429" lon="6.60536">
        <ele>422</ele>
        <time>2022-05-23T08:13:01Z</time>
      </trkpt>
      <trkpt lat="48.05409" lon="6.6052">
        <ele>424</ele>
        <time>2022-05-23T08:13:05Z</time>
      </trkpt>
      <trkpt lat="48.05392" lon="6.60501">
        <ele>424</ele>
        <time>2022-05-23T08:13:09Z</time>
      </trkpt>
      <trkpt lat="48.0538" lon="6.60474">
        <ele>425</ele>
        <time>2022-05-23T08:13:13Z</time>
      </trkpt>
      <trkpt lat="48.05376" lon="6.60459">
        <ele>425</ele>
        <time>2022-05-23T08:13:15Z</time>
      </trkpt>
      <trkpt lat="48.05376" lon="6.60427">
        <ele>423</ele>
        <time>2022-05-23T08:13:19Z</time>
      </trkpt>
      <trkpt lat="48.05382" lon="6.60396">
        <ele>420</ele>
        <time>2022-05-23T08:13:23Z</time>
      </trkpt>
      <trkpt lat="48.05389" lon="6.60333">
        <ele>415</ele>
        <time>2022-05-23T08:13:30Z</time>
      </trkpt>
      <trkpt lat="48.05383" lon="6.60304">
        <ele>412</ele>
        <time>2022-05-23T08:13:34Z</time>
      </trkpt>
      <trkpt lat="48.05377" lon="6.60293">
        <ele>412</ele>
        <time>2022-05-23T08:13:36Z</time>
      </trkpt>
      <trkpt lat="48.05357" lon="6.60278">
        <ele>413</ele>
        <time>2022-05-23T08:13:40Z</time>
      </trkpt>
      <trkpt lat="48.05321" lon="6.60243">
        <ele>412</ele>
        <time>2022-05-23T08:13:47Z</time>
      </trkpt>
      <trkpt lat="48.05301" lon="6.60228">
        <ele>411</ele>
        <time>2022-05-23T08:13:51Z</time>
      </trkpt>
      <trkpt lat="48.0528" lon="6.60219">
        <ele>411</ele>
        <time>2022-05-23T08:13:55Z</time>
      </trkpt>
      <trkpt lat="48.05268" lon="6.60217">
        <ele>411</ele>
        <time>2022-05-23T08:13:57Z</time>
      </trkpt>
      <trkpt lat="48.05244" lon="6.60207">
        <ele>411</ele>
        <time>2022-05-23T08:14:02Z</time>
      </trkpt>
      <trkpt lat="48.05174" lon="6.60185">
        <ele>410</ele>
        <time>2022-05-23T08:14:14Z</time>
      </trkpt>
      <trkpt lat="48.05125" lon="6.60177">
        <ele>412</ele>
        <time>2022-05-23T08:14:23Z</time>
      </trkpt>
      <trkpt lat="48.05095" lon="6.60178">
        <ele>414</ele>
        <time>2022-05-23T08:14:28Z</time>
      </trkpt>
      <trkpt lat="48.05034" lon="6.60156">
        <ele>419</ele>
        <time>2022-05-23T08:14:40Z</time>
      </trkpt>
      <trkpt lat="48.05018" lon="6.6014">
        <ele>419</ele>
        <time>2022-05-23T08:14:43Z</time>
      </trkpt>
      <trkpt lat="48.04996" lon="6.60099">
        <ele>416</ele>
        <time>2022-05-23T08:14:49Z</time>
      </trkpt>
      <trkpt lat="48.04986" lon="6.60065">
        <ele>415</ele>
        <time>2022-05-23T08:14:54Z</time>
      </trkpt>
      <trkpt lat="48.04983" lon="6.60016">
        <ele>415</ele>
        <time>2022-05-23T08:15:00Z</time>
      </trkpt>
      <trkpt lat="48.04989" lon="6.59929">
        <ele>409</ele>
        <time>2022-05-23T08:15:10Z</time>
      </trkpt>
      <trkpt lat="48.04986" lon="6.59889">
        <ele>407</ele>
        <time>2022-05-23T08:15:15Z</time>
      </trkpt>
      <trkpt lat="48.04974" lon="6.59843">
        <ele>405</ele>
        <time>2022-05-23T08:15:21Z</time>
      </trkpt>
      <trkpt lat="48.04965" lon="6.59826">
        <ele>404</ele>
        <time>2022-05-23T08:15:23Z</time>
      </trkpt>
      <trkpt lat="48.04954" lon="6.59813">
        <ele>404</ele>
        <time>2022-05-23T08:15:26Z</time>
      </trkpt>
      <trkpt lat="48.04797" lon="6.59666">
        <ele>401</ele>
        <time>2022-05-23T08:15:59Z</time>
      </trkpt>
      <trkpt lat="48.04785" lon="6.59661">
        <ele>401</ele>
        <time>2022-05-23T08:16:01Z</time>
      </trkpt>
      <trkpt lat="48.04772" lon="6.59659">
        <ele>401</ele>
        <time>2022-05-23T08:16:03Z</time>
      </trkpt>
      <trkpt lat="48.04633" lon="6.59663">
        <ele>396</ele>
        <time>2022-05-23T08:16:28Z</time>
      </trkpt>
      <trkpt lat="48.04596" lon="6.59666">
        <ele>397</ele>
        <time>2022-05-23T08:16:35Z</time>
      </trkpt>
      <trkpt lat="48.04578" lon="6.59663">
        <ele>398</ele>
        <time>2022-05-23T08:16:38Z</time>
      </trkpt>
      <trkpt lat="48.04569" lon="6.59659">
        <ele>399</ele>
        <time>2022-05-23T08:16:39Z</time>
      </trkpt>
      <trkpt lat="48.04551" lon="6.59647">
        <ele>401</ele>
        <time>2022-05-23T08:16:43Z</time>
      </trkpt>
      <trkpt lat="48.04494" lon="6.59587">
        <ele>396</ele>
        <time>2022-05-23T08:16:55Z</time>
      </trkpt>
      <trkpt lat="48.04467" lon="6.59563">
        <ele>396</ele>
        <time>2022-05-23T08:17:01Z</time>
      </trkpt>
      <trkpt lat="48.04419" lon="6.59529">
        <ele>395</ele>
        <time>2022-05-23T08:17:10Z</time>
      </trkpt>
      <trkpt lat="48.0441" lon="6.59519">
        <ele>395</ele>
        <time>2022-05-23T08:17:12Z</time>
      </trkpt>
      <trkpt lat="48.04382" lon="6.59474">
        <ele>393</ele>
        <time>2022-05-23T08:17:20Z</time>
      </trkpt>
      <trkpt lat="48.04366" lon="6.59454">
        <ele>392</ele>
        <time>2022-05-23T08:17:23Z</time>
      </trkpt>
      <trkpt lat="48.0433" lon="6.59426">
        <ele>390</ele>
        <time>2022-05-23T08:17:31Z</time>
      </trkpt>
      <trkpt lat="48.04312" lon="6.59415">
        <ele>390</ele>
        <time>2022-05-23T08:17:34Z</time>
      </trkpt>
      <trkpt lat="48.04284" lon="6.59404">
        <ele>391</ele>
        <time>2022-05-23T08:17:39Z</time>
      </trkpt>
      <trkpt lat="48.04223" lon="6.5939">
        <ele>393</ele>
        <time>2022-05-23T08:17:50Z</time>
      </trkpt>
      <trkpt lat="48.04182" lon="6.59376">
        <ele>393</ele>
        <time>2022-05-23T08:17:58Z</time>
      </trkpt>
      <trkpt lat="48.04157" lon="6.59371">
        <ele>393</ele>
        <time>2022-05-23T08:18:02Z</time>
      </trkpt>
      <trkpt lat="48.04145" lon="6.5937">
        <ele>393</ele>
        <time>2022-05-23T08:18:04Z</time>
      </trkpt>
      <trkpt lat="48.04114" lon="6.59376">
        <ele>394</ele>
        <time>2022-05-23T08:18:10Z</time>
      </trkpt>
      <trkpt lat="48.04058" lon="6.59392">
        <ele>398</ele>
        <time>2022-05-23T08:18:20Z</time>
      </trkpt>
      <trkpt lat="48.04026" lon="6.59393">
        <ele>397</ele>
        <time>2022-05-23T08:18:26Z</time>
      </trkpt>
      <trkpt lat="48.03986" lon="6.59383">
        <ele>393</ele>
        <time>2022-05-23T08:18:33Z</time>
      </trkpt>
      <trkpt lat="48.03958" lon="6.5937">
        <ele>390</ele>
        <time>2022-05-23T08:18:38Z</time>
      </trkpt>
      <trkpt lat="48.03929" lon="6.5936">
        <ele>388</ele>
        <time>2022-05-23T08:18:43Z</time>
      </trkpt>
      <trkpt lat="48.03816" lon="6.59356">
        <ele>384</ele>
        <time>2022-05-23T08:19:04Z</time>
      </trkpt>
      <trkpt lat="48.03789" lon="6.5935">
        <ele>382</ele>
        <time>2022-05-23T08:19:08Z</time>
      </trkpt>
      <trkpt lat="48.03737" lon="6.59346">
        <ele>380</ele>
        <time>2022-05-23T08:19:18Z</time>
      </trkpt>
      <trkpt lat="48.03688" lon="6.59349">
        <ele>381</ele>
        <time>2022-05-23T08:19:26Z</time>
      </trkpt>
      <trkpt lat="48.03665" lon="6.59357">
        <ele>381</ele>
        <time>2022-05-23T08:19:31Z</time>
      </trkpt>
      <trkpt lat="48.03581" lon="6.59402">
        <ele>384</ele>
        <time>2022-05-23T08:19:46Z</time>
      </trkpt>
      <trkpt lat="48.03541" lon="6.59413">
        <ele>383</ele>
        <time>2022-05-23T08:19:54Z</time>
      </trkpt>
      <trkpt lat="48.03505" lon="6.59428">
        <ele>382</ele>
        <time>2022-05-23T08:20:00Z</time>
      </trkpt>
      <trkpt lat="48.0348" lon="6.59442">
        <ele>383</ele>
        <time>2022-05-23T08:20:05Z</time>
      </trkpt>
      <trkpt lat="48.03457" lon="6.5946">
        <ele>383</ele>
        <time>2022-05-23T08:20:10Z</time>
      </trkpt>
      <trkpt lat="48.03437" lon="6.59481">
        <ele>383</ele>
        <time>2022-05-23T08:20:14Z</time>
      </trkpt>
      <trkpt lat="48.03411" lon="6.59517">
        <ele>384</ele>
        <time>2022-05-23T08:20:20Z</time>
      </trkpt>
      <trkpt lat="48.03348" lon="6.59639">
        <ele>388</ele>
        <time>2022-05-23T08:20:39Z</time>
      </trkpt>
      <trkpt lat="48.03293" lon="6.59683">
        <ele>387</ele>
        <time>2022-05-23T08:20:50Z</time>
      </trkpt>
      <trkpt lat="48.03278" lon="6.59699">
        <ele>388</ele>
        <time>2022-05-23T08:20:53Z</time>
      </trkpt>
      <trkpt lat="48.03251" lon="6.59719">
        <ele>387</ele>
        <time>2022-05-23T08:20:58Z</time>
      </trkpt>
      <trkpt lat="48.03212" lon="6.59741">
        <ele>386</ele>
        <time>2022-05-23T08:21:06Z</time>
      </trkpt>
      <trkpt lat="48.03106" lon="6.59794">
        <ele>386</ele>
        <time>2022-05-23T08:21:26Z</time>
      </trkpt>
      <trkpt lat="48.03087" lon="6.5979">
        <ele>386</ele>
        <time>2022-05-23T08:21:29Z</time>
      </trkpt>
      <trkpt lat="48.03021" lon="6.59768">
        <ele>385</ele>
        <time>2022-05-23T08:21:41Z</time>
      </trkpt>
      <trkpt lat="48.02973" lon="6.59749">
        <ele>385</ele>
        <time>2022-05-23T08:21:50Z</time>
      </trkpt>
      <trkpt lat="48.0278" lon="6.5969">
        <ele>387</ele>
        <time>2022-05-23T08:22:25Z</time>
      </trkpt>
      <trkpt lat="48.02701" lon="6.59663">
        <ele>387</ele>
        <time>2022-05-23T08:22:40Z</time>
      </trkpt>
      <trkpt lat="48.02648" lon="6.59642">
        <ele>387</ele>
        <time>2022-05-23T08:22:49Z</time>
      </trkpt>
      <trkpt lat="48.02555" lon="6.59615">
        <ele>386</ele>
        <time>2022-05-23T08:23:06Z</time>
      </trkpt>
      <trkpt lat="48.02531" lon="6.59613">
        <ele>386</ele>
        <time>2022-05-23T08:23:10Z</time>
      </trkpt>
      <trkpt lat="48.02507" lon="6.59621">
        <ele>385</ele>
        <time>2022-05-23T08:23:15Z</time>
      </trkpt>
      <trkpt lat="48.02496" lon="6.59629">
        <ele>385</ele>
        <time>2022-05-23T08:23:17Z</time>
      </trkpt>
      <trkpt lat="48.02449" lon="6.59684">
        <ele>385</ele>
        <time>2022-05-23T08:23:28Z</time>
      </trkpt>
      <trkpt lat="48.02423" lon="6.5972">
        <ele>386</ele>
        <time>2022-05-23T08:23:34Z</time>
      </trkpt>
      <trkpt lat="48.02399" lon="6.5976">
        <ele>387</ele>
        <time>2022-05-23T08:23:40Z</time>
      </trkpt>
      <trkpt lat="48.02296" lon="6.59956">
        <ele>387</ele>
        <time>2022-05-23T08:24:10Z</time>
      </trkpt>
      <trkpt lat="48.0229" lon="6.5997">
        <ele>387</ele>
        <time>2022-05-23T08:24:12Z</time>
      </trkpt>
      <trkpt lat="48.02272" lon="6.60061">
        <ele>389</ele>
        <time>2022-05-23T08:24:23Z</time>
      </trkpt>
      <trkpt lat="48.0223" lon="6.60157">
        <ele>390</ele>
        <time>2022-05-23T08:24:37Z</time>
      </trkpt>
      <trkpt lat="48.02198" lon="6.60259">
        <ele>389</ele>
        <time>2022-05-23T08:24:50Z</time>
      </trkpt>
      <trkpt lat="48.02182" lon="6.60302">
        <ele>390</ele>
        <time>2022-05-23T08:24:56Z</time>
      </trkpt>
      <trkpt lat="48.02164" lon="6.60324">
        <ele>389</ele>
        <time>2022-05-23T08:25:00Z</time>
      </trkpt>
      <trkpt lat="48.02155" lon="6.60328">
        <ele>389</ele>
        <time>2022-05-23T08:25:02Z</time>
      </trkpt>
      <trkpt lat="48.02159" lon="6.60357">
        <ele>391</ele>
        <time>2022-05-23T08:25:05Z</time>
      </trkpt>
      <trkpt lat="48.0215" lon="6.60401">
        <ele>392</ele>
        <time>2022-05-23T08:25:11Z</time>
      </trkpt>
      <trkpt lat="48.02149" lon="6.6043">
        <ele>393</ele>
        <time>2022-05-23T08:25:14Z</time>
      </trkpt>
      <trkpt lat="48.02146" lon="6.60447">
        <ele>393</ele>
        <time>2022-05-23T08:25:16Z</time>
      </trkpt>
      <trkpt lat="48.02145" lon="6.60537">
        <ele>394</ele>
        <time>2022-05-23T08:25:27Z</time>
      </trkpt>
      <trkpt lat="48.02149" lon="6.60596">
        <ele>395</ele>
        <time>2022-05-23T08:25:34Z</time>
      </trkpt>
      <trkpt lat="48.02146" lon="6.60626">
        <ele>394</ele>
        <time>2022-05-23T08:25:38Z</time>
      </trkpt>
      <trkpt lat="48.02146" lon="6.60689">
        <ele>395</ele>
        <time>2022-05-23T08:25:45Z</time>
      </trkpt>
      <trkpt lat="48.02144" lon="6.60707">
        <ele>395</ele>
        <time>2022-05-23T08:25:48Z</time>
      </trkpt>
      <trkpt lat="48.02144" lon="6.60808">
        <ele>396</ele>
        <time>2022-05-23T08:26:00Z</time>
      </trkpt>
      <trkpt lat="48.0215" lon="6.60856">
        <ele>396</ele>
        <time>2022-05-23T08:26:05Z</time>
      </trkpt>
      <trkpt lat="48.02148" lon="6.6092">
        <ele>396</ele>
        <time>2022-05-23T08:26:13Z</time>
      </trkpt>
      <trkpt lat="48.02151" lon="6.60935">
        <ele>397</ele>
        <time>2022-05-23T08:26:15Z</time>
      </trkpt>
      <trkpt lat="48.02143" lon="6.60962">
        <ele>397</ele>
        <time>2022-05-23T08:26:18Z</time>
      </trkpt>
      <trkpt lat="48.02135" lon="6.60969">
        <ele>398</ele>
        <time>2022-05-23T08:26:20Z</time>
      </trkpt>
      <trkpt lat="48.02127" lon="6.60984">
        <ele>398</ele>
        <time>2022-05-23T08:26:22Z</time>
      </trkpt>
      <trkpt lat="48.02131" lon="6.61017">
        <ele>399</ele>
        <time>2022-05-23T08:26:26Z</time>
      </trkpt>
      <trkpt lat="48.0211" lon="6.61076">
        <ele>398</ele>
        <time>2022-05-23T08:26:34Z</time>
      </trkpt>
      <trkpt lat="48.02088" lon="6.61163">
        <ele>399</ele>
        <time>2022-05-23T08:26:45Z</time>
      </trkpt>
      <trkpt lat="48.0207" lon="6.61212">
        <ele>400</ele>
        <time>2022-05-23T08:26:52Z</time>
      </trkpt>
      <trkpt lat="48.01993" lon="6.61468">
        <ele>399</ele>
        <time>2022-05-23T08:27:25Z</time>
      </trkpt>
      <trkpt lat="48.01987" lon="6.61487">
        <ele>398</ele>
        <time>2022-05-23T08:27:28Z</time>
      </trkpt>
      <trkpt lat="48.01954" lon="6.61559">
        <ele>398</ele>
        <time>2022-05-23T08:27:38Z</time>
      </trkpt>
      <trkpt lat="48.01923" lon="6.61597">
        <ele>397</ele>
        <time>2022-05-23T08:27:45Z</time>
      </trkpt>
      <trkpt lat="48.01917" lon="6.61609">
        <ele>397</ele>
        <time>2022-05-23T08:27:47Z</time>
      </trkpt>
      <trkpt lat="48.01925" lon="6.61635">
        <ele>398</ele>
        <time>2022-05-23T08:27:51Z</time>
      </trkpt>
      <trkpt lat="48.01923" lon="6.61663">
        <ele>398</ele>
        <time>2022-05-23T08:27:54Z</time>
      </trkpt>
      <trkpt lat="48.01815" lon="6.61918">
        <ele>411</ele>
        <time>2022-05-23T08:28:30Z</time>
      </trkpt>
      <trkpt lat="48.01797" lon="6.61986">
        <ele>414</ele>
        <time>2022-05-23T08:28:39Z</time>
      </trkpt>
      <trkpt lat="48.01785" lon="6.62069">
        <ele>415</ele>
        <time>2022-05-23T08:28:49Z</time>
      </trkpt>
      <trkpt lat="48.01776" lon="6.62106">
        <ele>415</ele>
        <time>2022-05-23T08:28:53Z</time>
      </trkpt>
      <trkpt lat="48.01763" lon="6.62143">
        <ele>414</ele>
        <time>2022-05-23T08:28:58Z</time>
      </trkpt>
      <trkpt lat="48.01736" lon="6.62193">
        <ele>412</ele>
        <time>2022-05-23T08:29:06Z</time>
      </trkpt>
      <trkpt lat="48.01636" lon="6.62356">
        <ele>406</ele>
        <time>2022-05-23T08:29:32Z</time>
      </trkpt>
      <trkpt lat="48.01601" lon="6.62418">
        <ele>402</ele>
        <time>2022-05-23T08:29:42Z</time>
      </trkpt>
      <trkpt lat="48.0157" lon="6.62485">
        <ele>404</ele>
        <time>2022-05-23T08:29:52Z</time>
      </trkpt>
      <trkpt lat="48.01555" lon="6.62523">
        <ele>404</ele>
        <time>2022-05-23T08:29:57Z</time>
      </trkpt>
      <trkpt lat="48.01527" lon="6.62631">
        <ele>400</ele>
        <time>2022-05-23T08:30:11Z</time>
      </trkpt>
      <trkpt lat="48.01507" lon="6.62739">
        <ele>392</ele>
        <time>2022-05-23T08:30:24Z</time>
      </trkpt>
      <trkpt lat="48.01487" lon="6.62826">
        <ele>389</ele>
        <time>2022-05-23T08:30:35Z</time>
      </trkpt>
      <trkpt lat="48.01472" lon="6.62867">
        <ele>389</ele>
        <time>2022-05-23T08:30:41Z</time>
      </trkpt>
      <trkpt lat="48.01409" lon="6.62988">
        <ele>389</ele>
        <time>2022-05-23T08:30:59Z</time>
      </trkpt>
      <trkpt lat="48.01351" lon="6.63133">
        <ele>389</ele>
        <time>2022-05-23T08:31:19Z</time>
      </trkpt>
      <trkpt lat="48.01317" lon="6.63261">
        <ele>385</ele>
        <time>2022-05-23T08:31:35Z</time>
      </trkpt>
      <trkpt lat="48.01303" lon="6.63336">
        <ele>385</ele>
        <time>2022-05-23T08:31:45Z</time>
      </trkpt>
      <trkpt lat="48.01307" lon="6.63385">
        <ele>386</ele>
        <time>2022-05-23T08:31:50Z</time>
      </trkpt>
      <trkpt lat="48.01308" lon="6.6367">
        <ele>401</ele>
        <time>2022-05-23T08:32:24Z</time>
      </trkpt>
      <trkpt lat="48.01312" lon="6.63683">
        <ele>401</ele>
        <time>2022-05-23T08:32:26Z</time>
      </trkpt>
      <trkpt lat="48.01336" lon="6.6388">
        <ele>394</ele>
        <time>2022-05-23T08:32:50Z</time>
      </trkpt>
      <trkpt lat="48.01334" lon="6.63919">
        <ele>392</ele>
        <time>2022-05-23T08:32:55Z</time>
      </trkpt>
      <trkpt lat="48.01309" lon="6.64125">
        <ele>390</ele>
        <time>2022-05-23T08:33:19Z</time>
      </trkpt>
      <trkpt lat="48.01307" lon="6.64194">
        <ele>390</ele>
        <time>2022-05-23T08:33:28Z</time>
      </trkpt>
      <trkpt lat="48.01308" lon="6.64211">
        <ele>390</ele>
        <time>2022-05-23T08:33:30Z</time>
      </trkpt>
      <trkpt lat="48.01319" lon="6.64273">
        <ele>391</ele>
        <time>2022-05-23T08:33:37Z</time>
      </trkpt>
      <trkpt lat="48.01334" lon="6.6434">
        <ele>394</ele>
        <time>2022-05-23T08:33:46Z</time>
      </trkpt>
      <trkpt lat="48.01349" lon="6.64391">
        <ele>394</ele>
        <time>2022-05-23T08:33:52Z</time>
      </trkpt>
      <trkpt lat="48.01384" lon="6.6447">
        <ele>393</ele>
        <time>2022-05-23T08:34:04Z</time>
      </trkpt>
      <trkpt lat="48.0143" lon="6.64561">
        <ele>390</ele>
        <time>2022-05-23T08:34:17Z</time>
      </trkpt>
      <trkpt lat="48.01453" lon="6.64615">
        <ele>390</ele>
        <time>2022-05-23T08:34:25Z</time>
      </trkpt>
      <trkpt lat="48.01513" lon="6.64834">
        <ele>393</ele>
        <time>2022-05-23T08:34:53Z</time>
      </trkpt>
      <trkpt lat="48.01545" lon="6.64905">
        <ele>391</ele>
        <time>2022-05-23T08:35:03Z</time>
      </trkpt>
      <trkpt lat="48.01575" lon="6.64988">
        <ele>388</ele>
        <time>2022-05-23T08:35:14Z</time>
      </trkpt>
      <trkpt lat="48.01635" lon="6.65131">
        <ele>390</ele>
        <time>2022-05-23T08:35:35Z</time>
      </trkpt>
      <trkpt lat="48.01704" lon="6.6523">
        <ele>388</ele>
        <time>2022-05-23T08:35:52Z</time>
      </trkpt>
      <trkpt lat="48.01727" lon="6.65258">
        <ele>388</ele>
        <time>2022-05-23T08:35:57Z</time>
      </trkpt>
      <trkpt lat="48.0179" lon="6.65347">
        <ele>389</ele>
        <time>2022-05-23T08:36:12Z</time>
      </trkpt>
      <trkpt lat="48.01814" lon="6.65375">
        <ele>389</ele>
        <time>2022-05-23T08:36:18Z</time>
      </trkpt>
      <trkpt lat="48.01897" lon="6.65487">
        <ele>390</ele>
        <time>2022-05-23T08:36:38Z</time>
      </trkpt>
      <trkpt lat="48.01939" lon="6.65551">
        <ele>390</ele>
        <time>2022-05-23T08:36:48Z</time>
      </trkpt>
      <trkpt lat="48.01959" lon="6.65575">
        <ele>391</ele>
        <time>2022-05-23T08:36:53Z</time>
      </trkpt>
      <trkpt lat="48.01981" lon="6.65594">
        <ele>392</ele>
        <time>2022-05-23T08:36:57Z</time>
      </trkpt>
      <trkpt lat="48.0199" lon="6.65608">
        <ele>392</ele>
        <time>2022-05-23T08:37:00Z</time>
      </trkpt>
      <trkpt lat="48.02038" lon="6.65666">
        <ele>390</ele>
        <time>2022-05-23T08:37:11Z</time>
      </trkpt>
      <trkpt lat="48.0212" lon="6.65782">
        <ele>391</ele>
        <time>2022-05-23T08:37:31Z</time>
      </trkpt>
      <trkpt lat="48.02168" lon="6.65841">
        <ele>390</ele>
        <time>2022-05-23T08:37:42Z</time>
      </trkpt>
      <trkpt lat="48.0225" lon="6.65956">
        <ele>393</ele>
        <time>2022-05-23T08:38:02Z</time>
      </trkpt>
      <trkpt lat="48.02268" lon="6.65971">
        <ele>393</ele>
        <time>2022-05-23T08:38:05Z</time>
      </trkpt>
      <trkpt lat="48.02272" lon="6.65986">
        <ele>393</ele>
        <time>2022-05-23T08:38:07Z</time>
      </trkpt>
      <trkpt lat="48.02281" lon="6.65996">
        <ele>393</ele>
        <time>2022-05-23T08:38:09Z</time>
      </trkpt>
      <trkpt lat="48.02295" lon="6.6602">
        <ele>393</ele>
        <time>2022-05-23T08:38:13Z</time>
      </trkpt>
      <trkpt lat="48.02306" lon="6.66048">
        <ele>393</ele>
        <time>2022-05-23T08:38:17Z</time>
      </trkpt>
      <trkpt lat="48.02318" lon="6.66123">
        <ele>393</ele>
        <time>2022-05-23T08:38:26Z</time>
      </trkpt>
      <trkpt lat="48.02329" lon="6.66167">
        <ele>394</ele>
        <time>2022-05-23T08:38:32Z</time>
      </trkpt>
      <trkpt lat="48.02334" lon="6.66414">
        <ele>393</ele>
        <time>2022-05-23T08:39:01Z</time>
      </trkpt>
      <trkpt lat="48.0234" lon="6.66481">
        <ele>394</ele>
        <time>2022-05-23T08:39:09Z</time>
      </trkpt>
      <trkpt lat="48.0235" lon="6.66517">
        <ele>394</ele>
        <time>2022-05-23T08:39:14Z</time>
      </trkpt>
      <trkpt lat="48.02357" lon="6.66532">
        <ele>394</ele>
        <time>2022-05-23T08:39:16Z</time>
      </trkpt>
      <trkpt lat="48.02359" lon="6.66551">
        <ele>394</ele>
        <time>2022-05-23T08:39:18Z</time>
      </trkpt>
      <trkpt lat="48.02364" lon="6.66569">
        <ele>394</ele>
        <time>2022-05-23T08:39:21Z</time>
      </trkpt>
      <trkpt lat="48.02389" lon="6.66642">
        <ele>395</ele>
        <time>2022-05-23T08:39:30Z</time>
      </trkpt>
      <trkpt lat="48.02389" lon="6.66656">
        <ele>396</ele>
        <time>2022-05-23T08:39:32Z</time>
      </trkpt>
      <trkpt lat="48.02388" lon="6.66639">
        <ele>395</ele>
        <time>2022-05-23T08:39:34Z</time>
      </trkpt>
      <trkpt lat="48.02356" lon="6.66547">
        <ele>394</ele>
        <time>2022-05-23T08:39:46Z</time>
      </trkpt>
      <trkpt lat="48.02349" lon="6.66532">
        <ele>394</ele>
        <time>2022-05-23T08:39:49Z</time>
      </trkpt>
      <trkpt lat="48.0234" lon="6.66524">
        <ele>394</ele>
        <time>2022-05-23T08:39:50Z</time>
      </trkpt>
      <trkpt lat="48.02328" lon="6.66527">
        <ele>394</ele>
        <time>2022-05-23T08:39:53Z</time>
      </trkpt>
      <trkpt lat="48.02318" lon="6.66533">
        <ele>394</ele>
        <time>2022-05-23T08:39:55Z</time>
      </trkpt>
      <trkpt lat="48.02305" lon="6.66534">
        <ele>394</ele>
        <time>2022-05-23T08:39:57Z</time>
      </trkpt>
      <trkpt lat="48.02281" lon="6.66545">
        <ele>394</ele>
        <time>2022-05-23T08:40:01Z</time>
      </trkpt>
      <trkpt lat="48.02241" lon="6.66559">
        <ele>394</ele>
        <time>2022-05-23T08:40:09Z</time>
      </trkpt>
      <trkpt lat="48.0218" lon="6.66576">
        <ele>395</ele>
        <time>2022-05-23T08:40:20Z</time>
      </trkpt>
      <trkpt lat="48.02117" lon="6.66587">
        <ele>393</ele>
        <time>2022-05-23T08:40:31Z</time>
      </trkpt>
      <trkpt lat="48.02084" lon="6.66598">
        <ele>392</ele>
        <time>2022-05-23T08:40:37Z</time>
      </trkpt>
      <trkpt lat="48.02001" lon="6.66615">
        <ele>391</ele>
        <time>2022-05-23T08:40:52Z</time>
      </trkpt>
      <trkpt lat="48.01944" lon="6.66631">
        <ele>391</ele>
        <time>2022-05-23T08:41:02Z</time>
      </trkpt>
      <trkpt lat="48.01933" lon="6.66632">
        <ele>391</ele>
        <time>2022-05-23T08:41:04Z</time>
      </trkpt>
      <trkpt lat="48.01911" lon="6.66643">
        <ele>391</ele>
        <time>2022-05-23T08:41:08Z</time>
      </trkpt>
      <trkpt lat="48.01901" lon="6.66651">
        <ele>391</ele>
        <time>2022-05-23T08:41:10Z</time>
      </trkpt>
      <trkpt lat="48.01848" lon="6.66702">
        <ele>392</ele>
        <time>2022-05-23T08:41:22Z</time>
      </trkpt>
      <trkpt lat="48.0181" lon="6.66718">
        <ele>392</ele>
        <time>2022-05-23T08:41:29Z</time>
      </trkpt>
      <trkpt lat="48.01783" lon="6.6674">
        <ele>392</ele>
        <time>2022-05-23T08:41:34Z</time>
      </trkpt>
      <trkpt lat="48.01705" lon="6.66824">
        <ele>394</ele>
        <time>2022-05-23T08:41:51Z</time>
      </trkpt>
      <trkpt lat="48.01687" lon="6.66849">
        <ele>395</ele>
        <time>2022-05-23T08:41:56Z</time>
      </trkpt>
      <trkpt lat="48.01673" lon="6.66878">
        <ele>395</ele>
        <time>2022-05-23T08:42:00Z</time>
      </trkpt>
      <trkpt lat="48.01663" lon="6.66886">
        <ele>395</ele>
        <time>2022-05-23T08:42:02Z</time>
      </trkpt>
      <trkpt lat="48.01653" lon="6.6689">
        <ele>396</ele>
        <time>2022-05-23T08:42:04Z</time>
      </trkpt>
      <trkpt lat="48.01648" lon="6.66903">
        <ele>396</ele>
        <time>2022-05-23T08:42:05Z</time>
      </trkpt>
      <trkpt lat="48.01645" lon="6.66933">
        <ele>396</ele>
        <time>2022-05-23T08:42:09Z</time>
      </trkpt>
      <trkpt lat="48.01645" lon="6.66992">
        <ele>396</ele>
        <time>2022-05-23T08:42:16Z</time>
      </trkpt>
      <trkpt lat="48.01647" lon="6.6701">
        <ele>396</ele>
        <time>2022-05-23T08:42:18Z</time>
      </trkpt>
      <trkpt lat="48.01674" lon="6.67135">
        <ele>395</ele>
        <time>2022-05-23T08:42:34Z</time>
      </trkpt>
      <trkpt lat="48.01682" lon="6.6716">
        <ele>395</ele>
        <time>2022-05-23T08:42:37Z</time>
      </trkpt>
      <trkpt lat="48.01683" lon="6.67175">
        <ele>394</ele>
        <time>2022-05-23T08:42:39Z</time>
      </trkpt>
      <trkpt lat="48.01692" lon="6.672">
        <ele>394</ele>
        <time>2022-05-23T08:42:42Z</time>
      </trkpt>
      <trkpt lat="48.01695" lon="6.67239">
        <ele>393</ele>
        <time>2022-05-23T08:42:47Z</time>
      </trkpt>
      <trkpt lat="48.01696" lon="6.67303">
        <ele>392</ele>
        <time>2022-05-23T08:42:55Z</time>
      </trkpt>
      <trkpt lat="48.01685" lon="6.67509">
        <ele>391</ele>
        <time>2022-05-23T08:43:19Z</time>
      </trkpt>
      <trkpt lat="48.01689" lon="6.67586">
        <ele>390</ele>
        <time>2022-05-23T08:43:28Z</time>
      </trkpt>
      <trkpt lat="48.01702" lon="6.67676">
        <ele>390</ele>
        <time>2022-05-23T08:43:39Z</time>
      </trkpt>
      <trkpt lat="48.01714" lon="6.67734">
        <ele>391</ele>
        <time>2022-05-23T08:43:47Z</time>
      </trkpt>
      <trkpt lat="48.01718" lon="6.67765">
        <ele>391</ele>
        <time>2022-05-23T08:43:50Z</time>
      </trkpt>
      <trkpt lat="48.0174" lon="6.67858">
        <ele>393</ele>
        <time>2022-05-23T08:44:02Z</time>
      </trkpt>
      <trkpt lat="48.01784" lon="6.68072">
        <ele>395</ele>
        <time>2022-05-23T08:44:29Z</time>
      </trkpt>
      <trkpt lat="48.0179" lon="6.68121">
        <ele>395</ele>
        <time>2022-05-23T08:44:35Z</time>
      </trkpt>
      <trkpt lat="48.01793" lon="6.68171">
        <ele>395</ele>
        <time>2022-05-23T08:44:41Z</time>
      </trkpt>
      <trkpt lat="48.01792" lon="6.68237">
        <ele>395</ele>
        <time>2022-05-23T08:44:49Z</time>
      </trkpt>
      <trkpt lat="48.01783" lon="6.68321">
        <ele>394</ele>
        <time>2022-05-23T08:44:59Z</time>
      </trkpt>
      <trkpt lat="48.01762" lon="6.6846">
        <ele>392</ele>
        <time>2022-05-23T08:45:16Z</time>
      </trkpt>
      <trkpt lat="48.01753" lon="6.68537">
        <ele>391</ele>
        <time>2022-05-23T08:45:25Z</time>
      </trkpt>
      <trkpt lat="48.01738" lon="6.68629">
        <ele>393</ele>
        <time>2022-05-23T08:45:36Z</time>
      </trkpt>
      <trkpt lat="48.01704" lon="6.68883">
        <ele>396</ele>
        <time>2022-05-23T08:46:07Z</time>
      </trkpt>
      <trkpt lat="48.01606" lon="6.69545">
        <ele>395</ele>
        <time>2022-05-23T08:47:28Z</time>
      </trkpt>
      <trkpt lat="48.01567" lon="6.69824">
        <ele>397</ele>
        <time>2022-05-23T08:48:02Z</time>
      </trkpt>
      <trkpt lat="48.01551" lon="6.6989">
        <ele>397</ele>
        <time>2022-05-23T08:48:10Z</time>
      </trkpt>
      <trkpt lat="48.01524" lon="6.69969">
        <ele>396</ele>
        <time>2022-05-23T08:48:21Z</time>
      </trkpt>
      <trkpt lat="48.01503" lon="6.70012">
        <ele>396</ele>
        <time>2022-05-23T08:48:27Z</time>
      </trkpt>
      <trkpt lat="48.01478" lon="6.70055">
        <ele>396</ele>
        <time>2022-05-23T08:48:34Z</time>
      </trkpt>
      <trkpt lat="48.01441" lon="6.70106">
        <ele>397</ele>
        <time>2022-05-23T08:48:43Z</time>
      </trkpt>
      <trkpt lat="48.01409" lon="6.7014">
        <ele>398</ele>
        <time>2022-05-23T08:48:50Z</time>
      </trkpt>
      <trkpt lat="48.01392" lon="6.70154">
        <ele>399</ele>
        <time>2022-05-23T08:48:53Z</time>
      </trkpt>
      <trkpt lat="48.01345" lon="6.70187">
        <ele>400</ele>
        <time>2022-05-23T08:49:02Z</time>
      </trkpt>
      <trkpt lat="48.01333" lon="6.70193">
        <ele>400</ele>
        <time>2022-05-23T08:49:05Z</time>
      </trkpt>
      <trkpt lat="48.01243" lon="6.70228">
        <ele>401</ele>
        <time>2022-05-23T08:49:21Z</time>
      </trkpt>
      <trkpt lat="48.01196" lon="6.70251">
        <ele>401</ele>
        <time>2022-05-23T08:49:30Z</time>
      </trkpt>
      <trkpt lat="48.01054" lon="6.70302">
        <ele>400</ele>
        <time>2022-05-23T08:49:56Z</time>
      </trkpt>
      <trkpt lat="48.0092" lon="6.70334">
        <ele>401</ele>
        <time>2022-05-23T08:50:20Z</time>
      </trkpt>
      <trkpt lat="48.00907" lon="6.70334">
        <ele>401</ele>
        <time>2022-05-23T08:50:22Z</time>
      </trkpt>
      <trkpt lat="48.00773" lon="6.70361">
        <ele>401</ele>
        <time>2022-05-23T08:50:46Z</time>
      </trkpt>
      <trkpt lat="48.00761" lon="6.70366">
        <ele>401</ele>
        <time>2022-05-23T08:50:49Z</time>
      </trkpt>
      <trkpt lat="48.00739" lon="6.70368">
        <ele>402</ele>
        <time>2022-05-23T08:50:53Z</time>
      </trkpt>
      <trkpt lat="48.00673" lon="6.70382">
        <ele>403</ele>
        <time>2022-05-23T08:51:04Z</time>
      </trkpt>
      <trkpt lat="48.00664" lon="6.70387">
        <ele>403</ele>
        <time>2022-05-23T08:51:06Z</time>
      </trkpt>
      <trkpt lat="48.00654" lon="6.70387">
        <ele>404</ele>
        <time>2022-05-23T08:51:08Z</time>
      </trkpt>
      <trkpt lat="48.0065" lon="6.704">
        <ele>404</ele>
        <time>2022-05-23T08:51:10Z</time>
      </trkpt>
      <trkpt lat="48.00666" lon="6.70473">
        <ele>404</ele>
        <time>2022-05-23T08:51:19Z</time>
      </trkpt>
      <trkpt lat="48.00667" lon="6.70504">
        <ele>404</ele>
        <time>2022-05-23T08:51:22Z</time>
      </trkpt>
      <trkpt lat="48.00681" lon="6.70609">
        <ele>404</ele>
        <time>2022-05-23T08:51:35Z</time>
      </trkpt>
      <trkpt lat="48.00684" lon="6.70686">
        <ele>402</ele>
        <time>2022-05-23T08:51:44Z</time>
      </trkpt>
      <trkpt lat="48.0069" lon="6.70735">
        <ele>401</ele>
        <time>2022-05-23T08:51:50Z</time>
      </trkpt>
      <trkpt lat="48.00697" lon="6.70848">
        <ele>402</ele>
        <time>2022-05-23T08:52:04Z</time>
      </trkpt>
      <trkpt lat="48.00702" lon="6.70882">
        <ele>402</ele>
        <time>2022-05-23T08:52:08Z</time>
      </trkpt>
      <trkpt lat="48.00711" lon="6.71032">
        <ele>402</ele>
        <time>2022-05-23T08:52:26Z</time>
      </trkpt>
      <trkpt lat="48.00713" lon="6.71093">
        <ele>402</ele>
        <time>2022-05-23T08:52:33Z</time>
      </trkpt>
      <trkpt lat="48.00709" lon="6.71122">
        <ele>402</ele>
        <time>2022-05-23T08:52:37Z</time>
      </trkpt>
      <trkpt lat="48.00711" lon="6.71139">
        <ele>402</ele>
        <time>2022-05-23T08:52:39Z</time>
      </trkpt>
      <trkpt lat="48.0072" lon="6.71168">
        <ele>402</ele>
        <time>2022-05-23T08:52:43Z</time>
      </trkpt>
      <trkpt lat="48.00731" lon="6.7126">
        <ele>402</ele>
        <time>2022-05-23T08:52:54Z</time>
      </trkpt>
      <trkpt lat="48.00743" lon="6.7131">
        <ele>403</ele>
        <time>2022-05-23T08:53:00Z</time>
      </trkpt>
      <trkpt lat="48.00749" lon="6.71326">
        <ele>404</ele>
        <time>2022-05-23T08:53:02Z</time>
      </trkpt>
      <trkpt lat="48.00778" lon="6.71465">
        <ele>405</ele>
        <time>2022-05-23T08:53:19Z</time>
      </trkpt>
      <trkpt lat="48.00785" lon="6.71584">
        <ele>406</ele>
        <time>2022-05-23T08:53:34Z</time>
      </trkpt>
      <trkpt lat="48.00784" lon="6.71618">
        <ele>406</ele>
        <time>2022-05-23T08:53:38Z</time>
      </trkpt>
      <trkpt lat="48.00792" lon="6.71659">
        <ele>405</ele>
        <time>2022-05-23T08:53:43Z</time>
      </trkpt>
      <trkpt lat="48.00825" lon="6.71649">
        <ele>405</ele>
        <time>2022-05-23T08:53:49Z</time>
      </trkpt>
      <trkpt lat="48.00835" lon="6.71652">
        <ele>405</ele>
        <time>2022-05-23T08:53:51Z</time>
      </trkpt>
      <trkpt lat="48.00842" lon="6.71661">
        <ele>405</ele>
        <time>2022-05-23T08:53:52Z</time>
      </trkpt>
      <trkpt lat="48.00849" lon="6.71677">
        <ele>405</ele>
        <time>2022-05-23T08:53:55Z</time>
      </trkpt>
      <trkpt lat="48.00845" lon="6.71715">
        <ele>405</ele>
        <time>2022-05-23T08:53:59Z</time>
      </trkpt>
      <trkpt lat="48.0085" lon="6.71742">
        <ele>406</ele>
        <time>2022-05-23T08:54:02Z</time>
      </trkpt>
      <trkpt lat="48.0085" lon="6.71771">
        <ele>406</ele>
        <time>2022-05-23T08:54:06Z</time>
      </trkpt>
      <trkpt lat="48.00856" lon="6.7182">
        <ele>406</ele>
        <time>2022-05-23T08:54:12Z</time>
      </trkpt>
      <trkpt lat="48.00864" lon="6.7187">
        <ele>405</ele>
        <time>2022-05-23T08:54:18Z</time>
      </trkpt>
      <trkpt lat="48.00866" lon="6.71901">
        <ele>405</ele>
        <time>2022-05-23T08:54:22Z</time>
      </trkpt>
      <trkpt lat="48.00864" lon="6.71946">
        <ele>405</ele>
        <time>2022-05-23T08:54:27Z</time>
      </trkpt>
      <trkpt lat="48.00868" lon="6.72015">
        <ele>405</ele>
        <time>2022-05-23T08:54:35Z</time>
      </trkpt>
      <trkpt lat="48.00873" lon="6.72051">
        <ele>405</ele>
        <time>2022-05-23T08:54:40Z</time>
      </trkpt>
      <trkpt lat="48.00885" lon="6.72095">
        <ele>405</ele>
        <time>2022-05-23T08:54:45Z</time>
      </trkpt>
      <trkpt lat="48.00892" lon="6.72139">
        <ele>406</ele>
        <time>2022-05-23T08:54:51Z</time>
      </trkpt>
      <trkpt lat="48.00906" lon="6.7218">
        <ele>406</ele>
        <time>2022-05-23T08:54:56Z</time>
      </trkpt>
      <trkpt lat="48.0092" lon="6.72206">
        <ele>406</ele>
        <time>2022-05-23T08:55:00Z</time>
      </trkpt>
      <trkpt lat="48.0098" lon="6.7237">
        <ele>408</ele>
        <time>2022-05-23T08:55:22Z</time>
      </trkpt>
      <trkpt lat="48.00998" lon="6.72411">
        <ele>409</ele>
        <time>2022-05-23T08:55:28Z</time>
      </trkpt>
      <trkpt lat="48.01102" lon="6.72602">
        <ele>412</ele>
        <time>2022-05-23T08:55:58Z</time>
      </trkpt>
      <trkpt lat="48.01139" lon="6.72664">
        <ele>412</ele>
        <time>2022-05-23T08:56:07Z</time>
      </trkpt>
      <trkpt lat="48.01183" lon="6.72746">
        <ele>413</ele>
        <time>2022-05-23T08:56:20Z</time>
      </trkpt>
      <trkpt lat="48.01191" lon="6.72756">
        <ele>413</ele>
        <time>2022-05-23T08:56:22Z</time>
      </trkpt>
      <trkpt lat="48.01247" lon="6.7286">
        <ele>418</ele>
        <time>2022-05-23T08:56:38Z</time>
      </trkpt>
      <trkpt lat="48.01256" lon="6.72887">
        <ele>419</ele>
        <time>2022-05-23T08:56:41Z</time>
      </trkpt>
      <trkpt lat="48.01262" lon="6.72916">
        <ele>419</ele>
        <time>2022-05-23T08:56:45Z</time>
      </trkpt>
      <trkpt lat="48.01298" lon="6.73125">
        <ele>422</ele>
        <time>2022-05-23T08:57:11Z</time>
      </trkpt>
      <trkpt lat="48.0132" lon="6.73228">
        <ele>422</ele>
        <time>2022-05-23T08:57:23Z</time>
      </trkpt>
      <trkpt lat="48.01419" lon="6.73478">
        <ele>419</ele>
        <time>2022-05-23T08:57:58Z</time>
      </trkpt>
      <trkpt lat="48.01481" lon="6.73627">
        <ele>422</ele>
        <time>2022-05-23T08:58:19Z</time>
      </trkpt>
      <trkpt lat="48.01523" lon="6.7372">
        <ele>424</ele>
        <time>2022-05-23T08:58:32Z</time>
      </trkpt>
      <trkpt lat="48.01541" lon="6.73777">
        <ele>425</ele>
        <time>2022-05-23T08:58:40Z</time>
      </trkpt>
      <trkpt lat="48.01549" lon="6.73791">
        <ele>425</ele>
        <time>2022-05-23T08:58:42Z</time>
      </trkpt>
      <trkpt lat="48.01581" lon="6.73892">
        <ele>426</ele>
        <time>2022-05-23T08:58:55Z</time>
      </trkpt>
      <trkpt lat="48.01584" lon="6.73908">
        <ele>427</ele>
        <time>2022-05-23T08:58:57Z</time>
      </trkpt>
      <trkpt lat="48.0159" lon="6.73922">
        <ele>427</ele>
        <time>2022-05-23T08:58:59Z</time>
      </trkpt>
      <trkpt lat="48.01598" lon="6.73969">
        <ele>428</ele>
        <time>2022-05-23T08:59:05Z</time>
      </trkpt>
      <trkpt lat="48.01612" lon="6.74116">
        <ele>430</ele>
        <time>2022-05-23T08:59:23Z</time>
      </trkpt>
      <trkpt lat="48.01622" lon="6.7412">
        <ele>430</ele>
        <time>2022-05-23T08:59:25Z</time>
      </trkpt>
      <trkpt lat="48.0163" lon="6.74127">
        <ele>430</ele>
        <time>2022-05-23T08:59:26Z</time>
      </trkpt>
      <trkpt lat="48.01643" lon="6.74132">
        <ele>430</ele>
        <time>2022-05-23T08:59:29Z</time>
      </trkpt>
      <trkpt lat="48.01633" lon="6.74129">
        <ele>430</ele>
        <time>2022-05-23T08:59:30Z</time>
      </trkpt>
      <trkpt lat="48.01627" lon="6.74119">
        <ele>430</ele>
        <time>2022-05-23T08:59:32Z</time>
      </trkpt>
      <trkpt lat="48.01611" lon="6.74115">
        <ele>430</ele>
        <time>2022-05-23T08:59:35Z</time>
      </trkpt>
      <trkpt lat="48.01609" lon="6.74131">
        <ele>430</ele>
        <time>2022-05-23T08:59:37Z</time>
      </trkpt>
      <trkpt lat="48.01614" lon="6.7418">
        <ele>431</ele>
        <time>2022-05-23T08:59:43Z</time>
      </trkpt>
      <trkpt lat="48.01616" lon="6.74239">
        <ele>432</ele>
        <time>2022-05-23T08:59:50Z</time>
      </trkpt>
      <trkpt lat="48.01625" lon="6.74296">
        <ele>433</ele>
        <time>2022-05-23T08:59:57Z</time>
      </trkpt>
      <trkpt lat="48.01627" lon="6.74324">
        <ele>433</ele>
        <time>2022-05-23T09:00:00Z</time>
      </trkpt>
      <trkpt lat="48.01645" lon="6.74423">
        <ele>435</ele>
        <time>2022-05-23T09:00:12Z</time>
      </trkpt>
      <trkpt lat="48.01665" lon="6.74482">
        <ele>436</ele>
        <time>2022-05-23T09:00:20Z</time>
      </trkpt>
      <trkpt lat="48.01667" lon="6.74496">
        <ele>436</ele>
        <time>2022-05-23T09:00:22Z</time>
      </trkpt>
      <trkpt lat="48.01702" lon="6.74606">
        <ele>436</ele>
        <time>2022-05-23T09:00:36Z</time>
      </trkpt>
      <trkpt lat="48.01728" lon="6.74753">
        <ele>436</ele>
        <time>2022-05-23T09:00:54Z</time>
      </trkpt>
      <trkpt lat="48.01726" lon="6.74784">
        <ele>436</ele>
        <time>2022-05-23T09:00:58Z</time>
      </trkpt>
      <trkpt lat="48.01721" lon="6.74814">
        <ele>436</ele>
        <time>2022-05-23T09:01:02Z</time>
      </trkpt>
      <trkpt lat="48.01703" lon="6.74867">
        <ele>437</ele>
        <time>2022-05-23T09:01:09Z</time>
      </trkpt>
      <trkpt lat="48.01676" lon="6.74918">
        <ele>438</ele>
        <time>2022-05-23T09:01:17Z</time>
      </trkpt>
      <trkpt lat="48.01661" lon="6.74939">
        <ele>441</ele>
        <time>2022-05-23T09:01:20Z</time>
      </trkpt>
      <trkpt lat="48.01628" lon="6.74967">
        <ele>446</ele>
        <time>2022-05-23T09:01:27Z</time>
      </trkpt>
      <trkpt lat="48.0159" lon="6.74975">
        <ele>449</ele>
        <time>2022-05-23T09:01:34Z</time>
      </trkpt>
      <trkpt lat="48.01521" lon="6.74975">
        <ele>456</ele>
        <time>2022-05-23T09:01:46Z</time>
      </trkpt>
      <trkpt lat="48.01491" lon="6.7497">
        <ele>459</ele>
        <time>2022-05-23T09:01:52Z</time>
      </trkpt>
      <trkpt lat="48.01453" lon="6.74957">
        <ele>460</ele>
        <time>2022-05-23T09:01:58Z</time>
      </trkpt>
      <trkpt lat="48.01433" lon="6.74953">
        <ele>462</ele>
        <time>2022-05-23T09:02:02Z</time>
      </trkpt>
      <trkpt lat="48.01406" lon="6.74961">
        <ele>464</ele>
        <time>2022-05-23T09:02:07Z</time>
      </trkpt>
      <trkpt lat="48.01382" lon="6.74984">
        <ele>466</ele>
        <time>2022-05-23T09:02:12Z</time>
      </trkpt>
      <trkpt lat="48.01373" lon="6.7501">
        <ele>468</ele>
        <time>2022-05-23T09:02:15Z</time>
      </trkpt>
      <trkpt lat="48.01371" lon="6.75025">
        <ele>469</ele>
        <time>2022-05-23T09:02:17Z</time>
      </trkpt>
      <trkpt lat="48.01376" lon="6.75054">
        <ele>472</ele>
        <time>2022-05-23T09:02:21Z</time>
      </trkpt>
      <trkpt lat="48.01374" lon="6.75111">
        <ele>475</ele>
        <time>2022-05-23T09:02:28Z</time>
      </trkpt>
      <trkpt lat="48.01367" lon="6.75124">
        <ele>476</ele>
        <time>2022-05-23T09:02:30Z</time>
      </trkpt>
      <trkpt lat="48.01347" lon="6.75189">
        <ele>480</ele>
        <time>2022-05-23T09:02:38Z</time>
      </trkpt>
      <trkpt lat="48.0132" lon="6.7523">
        <ele>481</ele>
        <time>2022-05-23T09:02:45Z</time>
      </trkpt>
      <trkpt lat="48.01278" lon="6.75266">
        <ele>486</ele>
        <time>2022-05-23T09:02:54Z</time>
      </trkpt>
      <trkpt lat="48.01208" lon="6.75317">
        <ele>492</ele>
        <time>2022-05-23T09:03:07Z</time>
      </trkpt>
      <trkpt lat="48.01183" lon="6.75344">
        <ele>493</ele>
        <time>2022-05-23T09:03:13Z</time>
      </trkpt>
      <trkpt lat="48.01177" lon="6.75355">
        <ele>494</ele>
        <time>2022-05-23T09:03:15Z</time>
      </trkpt>
      <trkpt lat="48.0117" lon="6.75382">
        <ele>495</ele>
        <time>2022-05-23T09:03:18Z</time>
      </trkpt>
      <trkpt lat="48.0117" lon="6.75423">
        <ele>498</ele>
        <time>2022-05-23T09:03:23Z</time>
      </trkpt>
      <trkpt lat="48.01187" lon="6.75502">
        <ele>503</ele>
        <time>2022-05-23T09:03:33Z</time>
      </trkpt>
      <trkpt lat="48.01194" lon="6.75567">
        <ele>504</ele>
        <time>2022-05-23T09:03:41Z</time>
      </trkpt>
      <trkpt lat="48.01205" lon="6.75609">
        <ele>504</ele>
        <time>2022-05-23T09:03:46Z</time>
      </trkpt>
      <trkpt lat="48.01258" lon="6.7568">
        <ele>512</ele>
        <time>2022-05-23T09:03:59Z</time>
      </trkpt>
      <trkpt lat="48.01274" lon="6.75708">
        <ele>513</ele>
        <time>2022-05-23T09:04:03Z</time>
      </trkpt>
      <trkpt lat="48.01288" lon="6.7574">
        <ele>514</ele>
        <time>2022-05-23T09:04:08Z</time>
      </trkpt>
      <trkpt lat="48.01316" lon="6.75818">
        <ele>513</ele>
        <time>2022-05-23T09:04:18Z</time>
      </trkpt>
      <trkpt lat="48.0133" lon="6.75847">
        <ele>513</ele>
        <time>2022-05-23T09:04:22Z</time>
      </trkpt>
      <trkpt lat="48.01362" lon="6.75926">
        <ele>516</ele>
        <time>2022-05-23T09:04:33Z</time>
      </trkpt>
      <trkpt lat="48.014" lon="6.76041">
        <ele>520</ele>
        <time>2022-05-23T09:04:49Z</time>
      </trkpt>
      <trkpt lat="48.01425" lon="6.76097">
        <ele>522</ele>
        <time>2022-05-23T09:04:57Z</time>
      </trkpt>
      <trkpt lat="48.01443" lon="6.76159">
        <ele>521</ele>
        <time>2022-05-23T09:05:05Z</time>
      </trkpt>
      <trkpt lat="48.01452" lon="6.76185">
        <ele>521</ele>
        <time>2022-05-23T09:05:08Z</time>
      </trkpt>
      <trkpt lat="48.0146" lon="6.76199">
        <ele>521</ele>
        <time>2022-05-23T09:05:10Z</time>
      </trkpt>
      <trkpt lat="48.01469" lon="6.76211">
        <ele>521</ele>
        <time>2022-05-23T09:05:13Z</time>
      </trkpt>
      <trkpt lat="48.0148" lon="6.7622">
        <ele>521</ele>
        <time>2022-05-23T09:05:15Z</time>
      </trkpt>
      <trkpt lat="48.01491" lon="6.76226">
        <ele>522</ele>
        <time>2022-05-23T09:05:17Z</time>
      </trkpt>
      <trkpt lat="48.01501" lon="6.76235">
        <ele>521</ele>
        <time>2022-05-23T09:05:19Z</time>
      </trkpt>
      <trkpt lat="48.01512" lon="6.7624">
        <ele>522</ele>
        <time>2022-05-23T09:05:21Z</time>
      </trkpt>
      <trkpt lat="48.01556" lon="6.76283">
        <ele>519</ele>
        <time>2022-05-23T09:05:30Z</time>
      </trkpt>
      <trkpt lat="48.01581" lon="6.76314">
        <ele>516</ele>
        <time>2022-05-23T09:05:36Z</time>
      </trkpt>
      <trkpt lat="48.01742" lon="6.76488">
        <ele>515</ele>
        <time>2022-05-23T09:06:12Z</time>
      </trkpt>
      <trkpt lat="48.01747" lon="6.76501">
        <ele>513</ele>
        <time>2022-05-23T09:06:13Z</time>
      </trkpt>
      <trkpt lat="48.01756" lon="6.76544">
        <ele>512</ele>
        <time>2022-05-23T09:06:19Z</time>
      </trkpt>
      <trkpt lat="48.01755" lon="6.76573">
        <ele>510</ele>
        <time>2022-05-23T09:06:22Z</time>
      </trkpt>
      <trkpt lat="48.01761" lon="6.76632">
        <ele>512</ele>
        <time>2022-05-23T09:06:29Z</time>
      </trkpt>
      <trkpt lat="48.01764" lon="6.76693">
        <ele>513</ele>
        <time>2022-05-23T09:06:37Z</time>
      </trkpt>
      <trkpt lat="48.01771" lon="6.76737">
        <ele>514</ele>
        <time>2022-05-23T09:06:42Z</time>
      </trkpt>
      <trkpt lat="48.01783" lon="6.76776">
        <ele>515</ele>
        <time>2022-05-23T09:06:47Z</time>
      </trkpt>
      <trkpt lat="48.01835" lon="6.76899">
        <ele>520</ele>
        <time>2022-05-23T09:07:04Z</time>
      </trkpt>
      <trkpt lat="48.01893" lon="6.77045">
        <ele>520</ele>
        <time>2022-05-23T09:07:25Z</time>
      </trkpt>
      <trkpt lat="48.01975" lon="6.77273">
        <ele>519</ele>
        <time>2022-05-23T09:07:55Z</time>
      </trkpt>
      <trkpt lat="48.01988" lon="6.77296">
        <ele>519</ele>
        <time>2022-05-23T09:07:59Z</time>
      </trkpt>
      <trkpt lat="48.01996" lon="6.77305">
        <ele>519</ele>
        <time>2022-05-23T09:08:01Z</time>
      </trkpt>
      <trkpt lat="48.02087" lon="6.77392">
        <ele>526</ele>
        <time>2022-05-23T09:08:20Z</time>
      </trkpt>
      <trkpt lat="48.02116" lon="6.77426">
        <ele>526</ele>
        <time>2022-05-23T09:08:26Z</time>
      </trkpt>
      <trkpt lat="48.02132" lon="6.77453">
        <ele>527</ele>
        <time>2022-05-23T09:08:31Z</time>
      </trkpt>
      <trkpt lat="48.02189" lon="6.77571">
        <ele>531</ele>
        <time>2022-05-23T09:08:48Z</time>
      </trkpt>
      <trkpt lat="48.02194" lon="6.77588">
        <ele>532</ele>
        <time>2022-05-23T09:08:50Z</time>
      </trkpt>
      <trkpt lat="48.02211" lon="6.77675">
        <ele>534</ele>
        <time>2022-05-23T09:09:01Z</time>
      </trkpt>
      <trkpt lat="48.02256" lon="6.77861">
        <ele>539</ele>
        <time>2022-05-23T09:09:25Z</time>
      </trkpt>
      <trkpt lat="48.02261" lon="6.7789">
        <ele>539</ele>
        <time>2022-05-23T09:09:28Z</time>
      </trkpt>
      <trkpt lat="48.0227" lon="6.77918">
        <ele>541</ele>
        <time>2022-05-23T09:09:32Z</time>
      </trkpt>
      <trkpt lat="48.02274" lon="6.7795">
        <ele>541</ele>
        <time>2022-05-23T09:09:36Z</time>
      </trkpt>
      <trkpt lat="48.02284" lon="6.77998">
        <ele>543</ele>
        <time>2022-05-23T09:09:42Z</time>
      </trkpt>
      <trkpt lat="48.02288" lon="6.7805">
        <ele>544</ele>
        <time>2022-05-23T09:09:48Z</time>
      </trkpt>
      <trkpt lat="48.02288" lon="6.78097">
        <ele>544</ele>
        <time>2022-05-23T09:09:54Z</time>
      </trkpt>
      <trkpt lat="48.02284" lon="6.78142">
        <ele>542</ele>
        <time>2022-05-23T09:09:59Z</time>
      </trkpt>
      <trkpt lat="48.02283" lon="6.78238">
        <ele>541</ele>
        <time>2022-05-23T09:10:10Z</time>
      </trkpt>
      <trkpt lat="48.02287" lon="6.78306">
        <ele>541</ele>
        <time>2022-05-23T09:10:19Z</time>
      </trkpt>
      <trkpt lat="48.02294" lon="6.78356">
        <ele>542</ele>
        <time>2022-05-23T09:10:25Z</time>
      </trkpt>
      <trkpt lat="48.02294" lon="6.78372">
        <ele>542</ele>
        <time>2022-05-23T09:10:27Z</time>
      </trkpt>
      <trkpt lat="48.02287" lon="6.78425">
        <ele>541</ele>
        <time>2022-05-23T09:10:33Z</time>
      </trkpt>
      <trkpt lat="48.02282" lon="6.7844">
        <ele>541</ele>
        <time>2022-05-23T09:10:35Z</time>
      </trkpt>
      <trkpt lat="48.02265" lon="6.78521">
        <ele>542</ele>
        <time>2022-05-23T09:10:45Z</time>
      </trkpt>
      <trkpt lat="48.02265" lon="6.78535">
        <ele>542</ele>
        <time>2022-05-23T09:10:47Z</time>
      </trkpt>
      <trkpt lat="48.02254" lon="6.7862">
        <ele>542</ele>
        <time>2022-05-23T09:10:57Z</time>
      </trkpt>
      <trkpt lat="48.02244" lon="6.78737">
        <ele>541</ele>
        <time>2022-05-23T09:11:11Z</time>
      </trkpt>
      <trkpt lat="48.02245" lon="6.78777">
        <ele>541</ele>
        <time>2022-05-23T09:11:16Z</time>
      </trkpt>
      <trkpt lat="48.02248" lon="6.78795">
        <ele>541</ele>
        <time>2022-05-23T09:11:18Z</time>
      </trkpt>
      <trkpt lat="48.02257" lon="6.78832">
        <ele>544</ele>
        <time>2022-05-23T09:11:23Z</time>
      </trkpt>
      <trkpt lat="48.02287" lon="6.7892">
        <ele>548</ele>
        <time>2022-05-23T09:11:34Z</time>
      </trkpt>
      <trkpt lat="48.02329" lon="6.79032">
        <ele>545</ele>
        <time>2022-05-23T09:11:50Z</time>
      </trkpt>
      <trkpt lat="48.02364" lon="6.79094">
        <ele>548</ele>
        <time>2022-05-23T09:11:59Z</time>
      </trkpt>
      <trkpt lat="48.02378" lon="6.79115">
        <ele>549</ele>
        <time>2022-05-23T09:12:03Z</time>
      </trkpt>
      <trkpt lat="48.02394" lon="6.79133">
        <ele>550</ele>
        <time>2022-05-23T09:12:06Z</time>
      </trkpt>
      <trkpt lat="48.02421" lon="6.79173">
        <ele>550</ele>
        <time>2022-05-23T09:12:13Z</time>
      </trkpt>
      <trkpt lat="48.0253" lon="6.79361">
        <ele>554</ele>
        <time>2022-05-23T09:12:43Z</time>
      </trkpt>
      <trkpt lat="48.0255" lon="6.79403">
        <ele>556</ele>
        <time>2022-05-23T09:12:49Z</time>
      </trkpt>
      <trkpt lat="48.02557" lon="6.79438">
        <ele>556</ele>
        <time>2022-05-23T09:12:53Z</time>
      </trkpt>
      <trkpt lat="48.02565" lon="6.79622">
        <ele>557</ele>
        <time>2022-05-23T09:13:15Z</time>
      </trkpt>
      <trkpt lat="48.02564" lon="6.79654">
        <ele>557</ele>
        <time>2022-05-23T09:13:19Z</time>
      </trkpt>
      <trkpt lat="48.02567" lon="6.79701">
        <ele>557</ele>
        <time>2022-05-23T09:13:25Z</time>
      </trkpt>
      <trkpt lat="48.02568" lon="6.7978">
        <ele>556</ele>
        <time>2022-05-23T09:13:34Z</time>
      </trkpt>
      <trkpt lat="48.02556" lon="6.79911">
        <ele>557</ele>
        <time>2022-05-23T09:13:50Z</time>
      </trkpt>
      <trkpt lat="48.02538" lon="6.80064">
        <ele>559</ele>
        <time>2022-05-23T09:14:08Z</time>
      </trkpt>
      <trkpt lat="48.02537" lon="6.80098">
        <ele>560</ele>
        <time>2022-05-23T09:14:12Z</time>
      </trkpt>
      <trkpt lat="48.02524" lon="6.802">
        <ele>562</ele>
        <time>2022-05-23T09:14:25Z</time>
      </trkpt>
      <trkpt lat="48.02511" lon="6.80371">
        <ele>568</ele>
        <time>2022-05-23T09:14:45Z</time>
      </trkpt>
      <trkpt lat="48.02513" lon="6.80445">
        <ele>569</ele>
        <time>2022-05-23T09:14:54Z</time>
      </trkpt>
      <trkpt lat="48.02518" lon="6.80505">
        <ele>569</ele>
        <time>2022-05-23T09:15:01Z</time>
      </trkpt>
      <trkpt lat="48.02545" lon="6.80667">
        <ele>571</ele>
        <time>2022-05-23T09:15:21Z</time>
      </trkpt>
      <trkpt lat="48.02623" lon="6.81041">
        <ele>571</ele>
        <time>2022-05-23T09:16:08Z</time>
      </trkpt>
      <trkpt lat="48.02643" lon="6.8113">
        <ele>572</ele>
        <time>2022-05-23T09:16:19Z</time>
      </trkpt>
      <trkpt lat="48.02655" lon="6.81171">
        <ele>573</ele>
        <time>2022-05-23T09:16:24Z</time>
      </trkpt>
      <trkpt lat="48.02827" lon="6.81576">
        <ele>585</ele>
        <time>2022-05-23T09:17:21Z</time>
      </trkpt>
      <trkpt lat="48.02857" lon="6.81641">
        <ele>589</ele>
        <time>2022-05-23T09:17:31Z</time>
      </trkpt>
      <trkpt lat="48.02888" lon="6.81716">
        <ele>591</ele>
        <time>2022-05-23T09:17:41Z</time>
      </trkpt>
      <trkpt lat="48.02903" lon="6.81761">
        <ele>590</ele>
        <time>2022-05-23T09:17:47Z</time>
      </trkpt>
      <trkpt lat="48.02925" lon="6.81836">
        <ele>591</ele>
        <time>2022-05-23T09:17:57Z</time>
      </trkpt>
      <trkpt lat="48.02951" lon="6.81975">
        <ele>598</ele>
        <time>2022-05-23T09:18:14Z</time>
      </trkpt>
      <trkpt lat="48.02962" lon="6.82013">
        <ele>598</ele>
        <time>2022-05-23T09:18:19Z</time>
      </trkpt>
      <trkpt lat="48.02967" lon="6.82043">
        <ele>597</ele>
        <time>2022-05-23T09:18:23Z</time>
      </trkpt>
      <trkpt lat="48.02986" lon="6.82116">
        <ele>594</ele>
        <time>2022-05-23T09:18:32Z</time>
      </trkpt>
      <trkpt lat="48.03045" lon="6.82266">
        <ele>597</ele>
        <time>2022-05-23T09:18:53Z</time>
      </trkpt>
      <trkpt lat="48.03061" lon="6.82313">
        <ele>598</ele>
        <time>2022-05-23T09:18:59Z</time>
      </trkpt>
      <trkpt lat="48.03112" lon="6.82439">
        <ele>599</ele>
        <time>2022-05-23T09:19:17Z</time>
      </trkpt>
      <trkpt lat="48.03126" lon="6.82483">
        <ele>597</ele>
        <time>2022-05-23T09:19:22Z</time>
      </trkpt>
      <trkpt lat="48.03148" lon="6.82536">
        <ele>594</ele>
        <time>2022-05-23T09:19:30Z</time>
      </trkpt>
      <trkpt lat="48.03185" lon="6.82637">
        <ele>596</ele>
        <time>2022-05-23T09:19:43Z</time>
      </trkpt>
      <trkpt lat="48.03218" lon="6.82738">
        <ele>599</ele>
        <time>2022-05-23T09:19:57Z</time>
      </trkpt>
      <trkpt lat="48.0328" lon="6.82965">
        <ele>602</ele>
        <time>2022-05-23T09:20:26Z</time>
      </trkpt>
      <trkpt lat="48.03293" lon="6.83059">
        <ele>602</ele>
        <time>2022-05-23T09:20:37Z</time>
      </trkpt>
      <trkpt lat="48.03302" lon="6.83104">
        <ele>602</ele>
        <time>2022-05-23T09:20:43Z</time>
      </trkpt>
      <trkpt lat="48.0332" lon="6.83175">
        <ele>604</ele>
        <time>2022-05-23T09:20:52Z</time>
      </trkpt>
      <trkpt lat="48.03378" lon="6.83372">
        <ele>619</ele>
        <time>2022-05-23T09:21:18Z</time>
      </trkpt>
      <trkpt lat="48.03385" lon="6.83414">
        <ele>619</ele>
        <time>2022-05-23T09:21:23Z</time>
      </trkpt>
      <trkpt lat="48.03385" lon="6.83429">
        <ele>619</ele>
        <time>2022-05-23T09:21:25Z</time>
      </trkpt>
      <trkpt lat="48.03373" lon="6.83516">
        <ele>612</ele>
        <time>2022-05-23T09:21:35Z</time>
      </trkpt>
      <trkpt lat="48.03377" lon="6.83561">
        <ele>614</ele>
        <time>2022-05-23T09:21:41Z</time>
      </trkpt>
      <trkpt lat="48.03399" lon="6.83626">
        <ele>620</ele>
        <time>2022-05-23T09:21:49Z</time>
      </trkpt>
      <trkpt lat="48.03407" lon="6.83668">
        <ele>622</ele>
        <time>2022-05-23T09:21:54Z</time>
      </trkpt>
      <trkpt lat="48.03408" lon="6.83697">
        <ele>622</ele>
        <time>2022-05-23T09:21:58Z</time>
      </trkpt>
      <trkpt lat="48.03416" lon="6.83739">
        <ele>625</ele>
        <time>2022-05-23T09:22:03Z</time>
      </trkpt>
      <trkpt lat="48.03428" lon="6.83829">
        <ele>630</ele>
        <time>2022-05-23T09:22:14Z</time>
      </trkpt>
      <trkpt lat="48.03435" lon="6.83948">
        <ele>631</ele>
        <time>2022-05-23T09:22:28Z</time>
      </trkpt>
      <trkpt lat="48.03432" lon="6.83961">
        <ele>629</ele>
        <time>2022-05-23T09:22:30Z</time>
      </trkpt>
      <trkpt lat="48.03443" lon="6.84017">
        <ele>633</ele>
        <time>2022-05-23T09:22:37Z</time>
      </trkpt>
      <trkpt lat="48.03455" lon="6.84058">
        <ele>637</ele>
        <time>2022-05-23T09:22:42Z</time>
      </trkpt>
      <trkpt lat="48.03473" lon="6.84091">
        <ele>644</ele>
        <time>2022-05-23T09:22:47Z</time>
      </trkpt>
      <trkpt lat="48.03478" lon="6.84105">
        <ele>646</ele>
        <time>2022-05-23T09:22:49Z</time>
      </trkpt>
      <trkpt lat="48.03483" lon="6.84212">
        <ele>651</ele>
        <time>2022-05-23T09:23:02Z</time>
      </trkpt>
      <trkpt lat="48.03471" lon="6.84345">
        <ele>655</ele>
        <time>2022-05-23T09:23:18Z</time>
      </trkpt>
      <trkpt lat="48.03471" lon="6.84417">
        <ele>656</ele>
        <time>2022-05-23T09:23:26Z</time>
      </trkpt>
      <trkpt lat="48.03478" lon="6.84536">
        <ele>658</ele>
        <time>2022-05-23T09:23:41Z</time>
      </trkpt>
      <trkpt lat="48.03482" lon="6.84566">
        <ele>660</ele>
        <time>2022-05-23T09:23:44Z</time>
      </trkpt>
      <trkpt lat="48.03484" lon="6.84695">
        <ele>666</ele>
        <time>2022-05-23T09:24:00Z</time>
      </trkpt>
      <trkpt lat="48.03495" lon="6.84794">
        <ele>670</ele>
        <time>2022-05-23T09:24:12Z</time>
      </trkpt>
      <trkpt lat="48.03504" lon="6.84853">
        <ele>672</ele>
        <time>2022-05-23T09:24:19Z</time>
      </trkpt>
      <trkpt lat="48.03508" lon="6.84911">
        <ele>676</ele>
        <time>2022-05-23T09:24:26Z</time>
      </trkpt>
      <trkpt lat="48.03526" lon="6.84999">
        <ele>679</ele>
        <time>2022-05-23T09:24:37Z</time>
      </trkpt>
      <trkpt lat="48.03537" lon="6.85039">
        <ele>680</ele>
        <time>2022-05-23T09:24:42Z</time>
      </trkpt>
      <trkpt lat="48.03548" lon="6.85066">
        <ele>681</ele>
        <time>2022-05-23T09:24:45Z</time>
      </trkpt>
      <trkpt lat="48.03575" lon="6.8511">
        <ele>683</ele>
        <time>2022-05-23T09:24:53Z</time>
      </trkpt>
      <trkpt lat="48.03611" lon="6.85134">
        <ele>687</ele>
        <time>2022-05-23T09:25:00Z</time>
      </trkpt>
      <trkpt lat="48.0362" lon="6.85138">
        <ele>688</ele>
        <time>2022-05-23T09:25:01Z</time>
      </trkpt>
      <trkpt lat="48.0366" lon="6.85147">
        <ele>693</ele>
        <time>2022-05-23T09:25:08Z</time>
      </trkpt>
      <trkpt lat="48.0367" lon="6.85153">
        <ele>693</ele>
        <time>2022-05-23T09:25:10Z</time>
      </trkpt>
      <trkpt lat="48.03708" lon="6.85184">
        <ele>699</ele>
        <time>2022-05-23T09:25:18Z</time>
      </trkpt>
      <trkpt lat="48.03725" lon="6.85204">
        <ele>701</ele>
        <time>2022-05-23T09:25:22Z</time>
      </trkpt>
      <trkpt lat="48.03744" lon="6.8522">
        <ele>705</ele>
        <time>2022-05-23T09:25:26Z</time>
      </trkpt>
      <trkpt lat="48.03747" lon="6.85233">
        <ele>704</ele>
        <time>2022-05-23T09:25:27Z</time>
      </trkpt>
      <trkpt lat="48.03759" lon="6.85258">
        <ele>704</ele>
        <time>2022-05-23T09:25:31Z</time>
      </trkpt>
      <trkpt lat="48.03788" lon="6.85354">
        <ele>698</ele>
        <time>2022-05-23T09:25:44Z</time>
      </trkpt>
      <trkpt lat="48.03803" lon="6.85396">
        <ele>700</ele>
        <time>2022-05-23T09:25:49Z</time>
      </trkpt>
      <trkpt lat="48.03854" lon="6.85527">
        <ele>711</ele>
        <time>2022-05-23T09:26:07Z</time>
      </trkpt>
      <trkpt lat="48.03871" lon="6.85583">
        <ele>717</ele>
        <time>2022-05-23T09:26:15Z</time>
      </trkpt>
      <trkpt lat="48.03884" lon="6.85639">
        <ele>717</ele>
        <time>2022-05-23T09:26:22Z</time>
      </trkpt>
      <trkpt lat="48.03896" lon="6.85666">
        <ele>718</ele>
        <time>2022-05-23T09:26:26Z</time>
      </trkpt>
      <trkpt lat="48.03925" lon="6.85709">
        <ele>720</ele>
        <time>2022-05-23T09:26:33Z</time>
      </trkpt>
      <trkpt lat="48.03956" lon="6.85741">
        <ele>723</ele>
        <time>2022-05-23T09:26:40Z</time>
      </trkpt>
      <trkpt lat="48.03982" lon="6.85763">
        <ele>726</ele>
        <time>2022-05-23T09:26:45Z</time>
      </trkpt>
      <trkpt lat="48.03995" lon="6.85782">
        <ele>726</ele>
        <time>2022-05-23T09:26:48Z</time>
      </trkpt>
      <trkpt lat="48.04019" lon="6.85809">
        <ele>727</ele>
        <time>2022-05-23T09:26:53Z</time>
      </trkpt>
      <trkpt lat="48.0404" lon="6.85839">
        <ele>727</ele>
        <time>2022-05-23T09:26:59Z</time>
      </trkpt>
      <trkpt lat="48.0409" lon="6.8589">
        <ele>731</ele>
        <time>2022-05-23T09:27:09Z</time>
      </trkpt>
      <trkpt lat="48.0412" lon="6.85926">
        <ele>733</ele>
        <time>2022-05-23T09:27:16Z</time>
      </trkpt>
      <trkpt lat="48.0413" lon="6.85949">
        <ele>734</ele>
        <time>2022-05-23T09:27:19Z</time>
      </trkpt>
      <trkpt lat="48.04143" lon="6.8597">
        <ele>735</ele>
        <time>2022-05-23T09:27:23Z</time>
      </trkpt>
      <trkpt lat="48.04176" lon="6.86078">
        <ele>737</ele>
        <time>2022-05-23T09:27:37Z</time>
      </trkpt>
      <trkpt lat="48.04193" lon="6.86148">
        <ele>740</ele>
        <time>2022-05-23T09:27:46Z</time>
      </trkpt>
      <trkpt lat="48.04206" lon="6.86219">
        <ele>739</ele>
        <time>2022-05-23T09:27:55Z</time>
      </trkpt>
      <trkpt lat="48.04224" lon="6.8629">
        <ele>740</ele>
        <time>2022-05-23T09:28:04Z</time>
      </trkpt>
      <trkpt lat="48.04243" lon="6.86339">
        <ele>741</ele>
        <time>2022-05-23T09:28:10Z</time>
      </trkpt>
      <trkpt lat="48.04256" lon="6.8636">
        <ele>742</ele>
        <time>2022-05-23T09:28:14Z</time>
      </trkpt>
      <trkpt lat="48.04284" lon="6.86401">
        <ele>745</ele>
        <time>2022-05-23T09:28:21Z</time>
      </trkpt>
      <trkpt lat="48.04315" lon="6.86437">
        <ele>746</ele>
        <time>2022-05-23T09:28:28Z</time>
      </trkpt>
      <trkpt lat="48.04333" lon="6.86451">
        <ele>747</ele>
        <time>2022-05-23T09:28:31Z</time>
      </trkpt>
      <trkpt lat="48.04381" lon="6.86476">
        <ele>752</ele>
        <time>2022-05-23T09:28:40Z</time>
      </trkpt>
      <trkpt lat="48.04439" lon="6.86512">
        <ele>757</ele>
        <time>2022-05-23T09:28:52Z</time>
      </trkpt>
      <trkpt lat="48.04464" lon="6.86532">
        <ele>759</ele>
        <time>2022-05-23T09:28:57Z</time>
      </trkpt>
      <trkpt lat="48.04488" lon="6.86556">
        <ele>759</ele>
        <time>2022-05-23T09:29:02Z</time>
      </trkpt>
      <trkpt lat="48.04521" lon="6.8661">
        <ele>762</ele>
        <time>2022-05-23T09:29:10Z</time>
      </trkpt>
      <trkpt lat="48.04532" lon="6.86635">
        <ele>763</ele>
        <time>2022-05-23T09:29:14Z</time>
      </trkpt>
      <trkpt lat="48.04559" lon="6.86681">
        <ele>765</ele>
        <time>2022-05-23T09:29:21Z</time>
      </trkpt>
      <trkpt lat="48.04573" lon="6.86699">
        <ele>765</ele>
        <time>2022-05-23T09:29:25Z</time>
      </trkpt>
      <trkpt lat="48.04591" lon="6.86713">
        <ele>766</ele>
        <time>2022-05-23T09:29:28Z</time>
      </trkpt>
      <trkpt lat="48.04601" lon="6.86717">
        <ele>766</ele>
        <time>2022-05-23T09:29:30Z</time>
      </trkpt>
      <trkpt lat="48.04641" lon="6.86725">
        <ele>767</ele>
        <time>2022-05-23T09:29:37Z</time>
      </trkpt>
      <trkpt lat="48.0466" lon="6.86718">
        <ele>768</ele>
        <time>2022-05-23T09:29:41Z</time>
      </trkpt>
      <trkpt lat="48.04683" lon="6.86691">
        <ele>770</ele>
        <time>2022-05-23T09:29:46Z</time>
      </trkpt>
      <trkpt lat="48.0469" lon="6.86679">
        <ele>771</ele>
        <time>2022-05-23T09:29:48Z</time>
      </trkpt>
      <trkpt lat="48.04707" lon="6.86663">
        <ele>772</ele>
        <time>2022-05-23T09:29:51Z</time>
      </trkpt>
      <trkpt lat="48.04749" lon="6.86634">
        <ele>780</ele>
        <time>2022-05-23T09:30:00Z</time>
      </trkpt>
      <trkpt lat="48.04784" lon="6.86605">
        <ele>791</ele>
        <time>2022-05-23T09:30:07Z</time>
      </trkpt>
      <trkpt lat="48.04803" lon="6.86595">
        <ele>796</ele>
        <time>2022-05-23T09:30:10Z</time>
      </trkpt>
      <trkpt lat="48.04833" lon="6.86592">
        <ele>800</ele>
        <time>2022-05-23T09:30:16Z</time>
      </trkpt>
      <trkpt lat="48.04854" lon="6.86594">
        <ele>801</ele>
        <time>2022-05-23T09:30:19Z</time>
      </trkpt>
      <trkpt lat="48.04932" lon="6.86617">
        <ele>798</ele>
        <time>2022-05-23T09:30:34Z</time>
      </trkpt>
      <trkpt lat="48.04943" lon="6.86616">
        <ele>798</ele>
        <time>2022-05-23T09:30:36Z</time>
      </trkpt>
      <trkpt lat="48.04954" lon="6.8662">
        <ele>797</ele>
        <time>2022-05-23T09:30:38Z</time>
      </trkpt>
      <trkpt lat="48.04972" lon="6.86619">
        <ele>797</ele>
        <time>2022-05-23T09:30:41Z</time>
      </trkpt>
      <trkpt lat="48.04992" lon="6.86623">
        <ele>795</ele>
        <time>2022-05-23T09:30:44Z</time>
      </trkpt>
      <trkpt lat="48.05024" lon="6.86616">
        <ele>797</ele>
        <time>2022-05-23T09:30:50Z</time>
      </trkpt>
      <trkpt lat="48.05064" lon="6.86595">
        <ele>799</ele>
        <time>2022-05-23T09:30:58Z</time>
      </trkpt>
      <trkpt lat="48.05091" lon="6.86568">
        <ele>800</ele>
        <time>2022-05-23T09:31:03Z</time>
      </trkpt>
      <trkpt lat="48.05111" lon="6.86537">
        <ele>801</ele>
        <time>2022-05-23T09:31:09Z</time>
      </trkpt>
      <trkpt lat="48.05138" lon="6.86478">
        <ele>800</ele>
        <time>2022-05-23T09:31:17Z</time>
      </trkpt>
      <trkpt lat="48.05135" lon="6.86465">
        <ele>798</ele>
        <time>2022-05-23T09:31:19Z</time>
      </trkpt>
      <trkpt lat="48.05156" lon="6.86446">
        <ele>797</ele>
        <time>2022-05-23T09:31:23Z</time>
      </trkpt>
      <trkpt lat="48.05165" lon="6.8643">
        <ele>796</ele>
        <time>2022-05-23T09:31:26Z</time>
      </trkpt>
      <trkpt lat="48.05185" lon="6.86387">
        <ele>793</ele>
        <time>2022-05-23T09:31:32Z</time>
      </trkpt>
      <trkpt lat="48.05214" lon="6.86311">
        <ele>785</ele>
        <time>2022-05-23T09:31:42Z</time>
      </trkpt>
      <trkpt lat="48.05225" lon="6.86294">
        <ele>784</ele>
        <time>2022-05-23T09:31:45Z</time>
      </trkpt>
      <trkpt lat="48.05238" lon="6.8628">
        <ele>783</ele>
        <time>2022-05-23T09:31:48Z</time>
      </trkpt>
      <trkpt lat="48.05253" lon="6.8627">
        <ele>784</ele>
        <time>2022-05-23T09:31:51Z</time>
      </trkpt>
      <trkpt lat="48.05347" lon="6.86221">
        <ele>784</ele>
        <time>2022-05-23T09:32:08Z</time>
      </trkpt>
      <trkpt lat="48.05393" lon="6.862">
        <ele>781</ele>
        <time>2022-05-23T09:32:17Z</time>
      </trkpt>
      <trkpt lat="48.05422" lon="6.86171">
        <ele>777</ele>
        <time>2022-05-23T09:32:23Z</time>
      </trkpt>
      <trkpt lat="48.05446" lon="6.86178">
        <ele>779</ele>
        <time>2022-05-23T09:32:28Z</time>
      </trkpt>
      <trkpt lat="48.05515" lon="6.86138">
        <ele>775</ele>
        <time>2022-05-23T09:32:41Z</time>
      </trkpt>
      <trkpt lat="48.05536" lon="6.86115">
        <ele>774</ele>
        <time>2022-05-23T09:32:45Z</time>
      </trkpt>
      <trkpt lat="48.05559" lon="6.86062">
        <ele>770</ele>
        <time>2022-05-23T09:32:53Z</time>
      </trkpt>
      <trkpt lat="48.05579" lon="6.86027">
        <ele>768</ele>
        <time>2022-05-23T09:32:58Z</time>
      </trkpt>
      <trkpt lat="48.05609" lon="6.85989">
        <ele>770</ele>
        <time>2022-05-23T09:33:05Z</time>
      </trkpt>
      <trkpt lat="48.0563" lon="6.85951">
        <ele>768</ele>
        <time>2022-05-23T09:33:11Z</time>
      </trkpt>
      <trkpt lat="48.05664" lon="6.85908">
        <ele>768</ele>
        <time>2022-05-23T09:33:19Z</time>
      </trkpt>
      <trkpt lat="48.05679" lon="6.85884">
        <ele>767</ele>
        <time>2022-05-23T09:33:23Z</time>
      </trkpt>
      <trkpt lat="48.0572" lon="6.85805">
        <ele>762</ele>
        <time>2022-05-23T09:33:35Z</time>
      </trkpt>
      <trkpt lat="48.05747" lon="6.85777">
        <ele>762</ele>
        <time>2022-05-23T09:33:41Z</time>
      </trkpt>
      <trkpt lat="48.05761" lon="6.85766">
        <ele>761</ele>
        <time>2022-05-23T09:33:44Z</time>
      </trkpt>
      <trkpt lat="48.05776" lon="6.85759">
        <ele>761</ele>
        <time>2022-05-23T09:33:46Z</time>
      </trkpt>
      <trkpt lat="48.05857" lon="6.85742">
        <ele>760</ele>
        <time>2022-05-23T09:34:01Z</time>
      </trkpt>
      <trkpt lat="48.0589" lon="6.85729">
        <ele>756</ele>
        <time>2022-05-23T09:34:07Z</time>
      </trkpt>
      <trkpt lat="48.05906" lon="6.85729">
        <ele>755</ele>
        <time>2022-05-23T09:34:10Z</time>
      </trkpt>
      <trkpt lat="48.0594" lon="6.85746">
        <ele>757</ele>
        <time>2022-05-23T09:34:16Z</time>
      </trkpt>
      <trkpt lat="48.0596" lon="6.85745">
        <ele>756</ele>
        <time>2022-05-23T09:34:20Z</time>
      </trkpt>
      <trkpt lat="48.05969" lon="6.85742">
        <ele>755</ele>
        <time>2022-05-23T09:34:21Z</time>
      </trkpt>
      <trkpt lat="48.06024" lon="6.8571">
        <ele>743</ele>
        <time>2022-05-23T09:34:32Z</time>
      </trkpt>
      <trkpt lat="48.06077" lon="6.85697">
        <ele>736</ele>
        <time>2022-05-23T09:34:42Z</time>
      </trkpt>
      <trkpt lat="48.06087" lon="6.85698">
        <ele>734</ele>
        <time>2022-05-23T09:34:43Z</time>
      </trkpt>
      <trkpt lat="48.06101" lon="6.85711">
        <ele>733</ele>
        <time>2022-05-23T09:34:46Z</time>
      </trkpt>
      <trkpt lat="48.06113" lon="6.85735">
        <ele>735</ele>
        <time>2022-05-23T09:34:50Z</time>
      </trkpt>
      <trkpt lat="48.06129" lon="6.85775">
        <ele>737</ele>
        <time>2022-05-23T09:34:55Z</time>
      </trkpt>
      <trkpt lat="48.06142" lon="6.85832">
        <ele>741</ele>
        <time>2022-05-23T09:35:02Z</time>
      </trkpt>
      <trkpt lat="48.06148" lon="6.85844">
        <ele>741</ele>
        <time>2022-05-23T09:35:04Z</time>
      </trkpt>
      <trkpt lat="48.06156" lon="6.85853">
        <ele>740</ele>
        <time>2022-05-23T09:35:06Z</time>
      </trkpt>
      <trkpt lat="48.06174" lon="6.85864">
        <ele>738</ele>
        <time>2022-05-23T09:35:10Z</time>
      </trkpt>
      <trkpt lat="48.06193" lon="6.85872">
        <ele>739</ele>
        <time>2022-05-23T09:35:13Z</time>
      </trkpt>
      <trkpt lat="48.06204" lon="6.85873">
        <ele>738</ele>
        <time>2022-05-23T09:35:15Z</time>
      </trkpt>
      <trkpt lat="48.06233" lon="6.85866">
        <ele>735</ele>
        <time>2022-05-23T09:35:20Z</time>
      </trkpt>
      <trkpt lat="48.06271" lon="6.85848">
        <ele>728</ele>
        <time>2022-05-23T09:35:27Z</time>
      </trkpt>
      <trkpt lat="48.06291" lon="6.85847">
        <ele>726</ele>
        <time>2022-05-23T09:35:31Z</time>
      </trkpt>
      <trkpt lat="48.06307" lon="6.85862">
        <ele>727</ele>
        <time>2022-05-23T09:35:34Z</time>
      </trkpt>
      <trkpt lat="48.06333" lon="6.85904">
        <ele>730</ele>
        <time>2022-05-23T09:35:41Z</time>
      </trkpt>
      <trkpt lat="48.06341" lon="6.85913">
        <ele>730</ele>
        <time>2022-05-23T09:35:43Z</time>
      </trkpt>
      <trkpt lat="48.06358" lon="6.85927">
        <ele>729</ele>
        <time>2022-05-23T09:35:46Z</time>
      </trkpt>
      <trkpt lat="48.06376" lon="6.85937">
        <ele>727</ele>
        <time>2022-05-23T09:35:50Z</time>
      </trkpt>
      <trkpt lat="48.06384" lon="6.85945">
        <ele>727</ele>
        <time>2022-05-23T09:35:51Z</time>
      </trkpt>
      <trkpt lat="48.06411" lon="6.85994">
        <ele>728</ele>
        <time>2022-05-23T09:35:59Z</time>
      </trkpt>
      <trkpt lat="48.06455" lon="6.86043">
        <ele>718</ele>
        <time>2022-05-23T09:36:09Z</time>
      </trkpt>
      <trkpt lat="48.0647" lon="6.86066">
        <ele>713</ele>
        <time>2022-05-23T09:36:13Z</time>
      </trkpt>
      <trkpt lat="48.06475" lon="6.8608">
        <ele>712</ele>
        <time>2022-05-23T09:36:14Z</time>
      </trkpt>
      <trkpt lat="48.06479" lon="6.86112">
        <ele>709</ele>
        <time>2022-05-23T09:36:18Z</time>
      </trkpt>
      <trkpt lat="48.0646" lon="6.86208">
        <ele>713</ele>
        <time>2022-05-23T09:36:30Z</time>
      </trkpt>
      <trkpt lat="48.06456" lon="6.86275">
        <ele>705</ele>
        <time>2022-05-23T09:36:38Z</time>
      </trkpt>
      <trkpt lat="48.06434" lon="6.86338">
        <ele>703</ele>
        <time>2022-05-23T09:36:47Z</time>
      </trkpt>
      <trkpt lat="48.06432" lon="6.86372">
        <ele>702</ele>
        <time>2022-05-23T09:36:51Z</time>
      </trkpt>
      <trkpt lat="48.06435" lon="6.86389">
        <ele>700</ele>
        <time>2022-05-23T09:36:53Z</time>
      </trkpt>
      <trkpt lat="48.0645" lon="6.86418">
        <ele>695</ele>
        <time>2022-05-23T09:36:57Z</time>
      </trkpt>
      <trkpt lat="48.06498" lon="6.86478">
        <ele>688</ele>
        <time>2022-05-23T09:37:08Z</time>
      </trkpt>
      <trkpt lat="48.06522" lon="6.86519">
        <ele>685</ele>
        <time>2022-05-23T09:37:15Z</time>
      </trkpt>
      <trkpt lat="48.06543" lon="6.86563">
        <ele>682</ele>
        <time>2022-05-23T09:37:21Z</time>
      </trkpt>
      <trkpt lat="48.06614" lon="6.86737">
        <ele>678</ele>
        <time>2022-05-23T09:37:45Z</time>
      </trkpt>
      <trkpt lat="48.06681" lon="6.86914">
        <ele>677</ele>
        <time>2022-05-23T09:38:10Z</time>
      </trkpt>
      <trkpt lat="48.0669" lon="6.86931">
        <ele>677</ele>
        <time>2022-05-23T09:38:12Z</time>
      </trkpt>
      <trkpt lat="48.06726" lon="6.87032">
        <ele>677</ele>
        <time>2022-05-23T09:38:26Z</time>
      </trkpt>
      <trkpt lat="48.06818" lon="6.87265">
        <ele>674</ele>
        <time>2022-05-23T09:38:58Z</time>
      </trkpt>
      <trkpt lat="48.06829" lon="6.87273">
        <ele>673</ele>
        <time>2022-05-23T09:39:00Z</time>
      </trkpt>
      <trkpt lat="48.06835" lon="6.87283">
        <ele>673</ele>
        <time>2022-05-23T09:39:02Z</time>
      </trkpt>
      <trkpt lat="48.06838" lon="6.873">
        <ele>673</ele>
        <time>2022-05-23T09:39:04Z</time>
      </trkpt>
      <trkpt lat="48.06856" lon="6.87334">
        <ele>672</ele>
        <time>2022-05-23T09:39:09Z</time>
      </trkpt>
      <trkpt lat="48.06878" lon="6.8737">
        <ele>672</ele>
        <time>2022-05-23T09:39:15Z</time>
      </trkpt>
      <trkpt lat="48.06917" lon="6.87426">
        <ele>671</ele>
        <time>2022-05-23T09:39:24Z</time>
      </trkpt>
      <trkpt lat="48.06953" lon="6.87485">
        <ele>669</ele>
        <time>2022-05-23T09:39:34Z</time>
      </trkpt>
      <trkpt lat="48.06974" lon="6.87527">
        <ele>669</ele>
        <time>2022-05-23T09:39:40Z</time>
      </trkpt>
      <trkpt lat="48.06985" lon="6.87554">
        <ele>670</ele>
        <time>2022-05-23T09:39:44Z</time>
      </trkpt>
      <trkpt lat="48.07" lon="6.87618">
        <ele>670</ele>
        <time>2022-05-23T09:39:52Z</time>
      </trkpt>
      <trkpt lat="48.07023" lon="6.87695">
        <ele>670</ele>
        <time>2022-05-23T09:40:02Z</time>
      </trkpt>
      <trkpt lat="48.07023" lon="6.87709">
        <ele>671</ele>
        <time>2022-05-23T09:40:04Z</time>
      </trkpt>
      <trkpt lat="48.07028" lon="6.87722">
        <ele>671</ele>
        <time>2022-05-23T09:40:05Z</time>
      </trkpt>
      <trkpt lat="48.07044" lon="6.8772">
        <ele>670</ele>
        <time>2022-05-23T09:40:08Z</time>
      </trkpt>
      <trkpt lat="48.07053" lon="6.87714">
        <ele>670</ele>
        <time>2022-05-23T09:40:10Z</time>
      </trkpt>
      <trkpt lat="48.07061" lon="6.87701">
        <ele>669</ele>
        <time>2022-05-23T09:40:12Z</time>
      </trkpt>
      <trkpt lat="48.07071" lon="6.87693">
        <ele>669</ele>
        <time>2022-05-23T09:40:14Z</time>
      </trkpt>
      <trkpt lat="48.07083" lon="6.87688">
        <ele>668</ele>
        <time>2022-05-23T09:40:16Z</time>
      </trkpt>
      <trkpt lat="48.07119" lon="6.87657">
        <ele>667</ele>
        <time>2022-05-23T09:40:24Z</time>
      </trkpt>
      <trkpt lat="48.07106" lon="6.87624">
        <ele>667</ele>
        <time>2022-05-23T09:40:28Z</time>
      </trkpt>
      <trkpt lat="48.071" lon="6.87635">
        <ele>668</ele>
        <time>2022-05-23T09:40:30Z</time>
      </trkpt>
      <trkpt lat="48.07119" lon="6.87648">
        <ele>667</ele>
        <time>2022-05-23T09:40:34Z</time>
      </trkpt>
      <trkpt lat="48.07129" lon="6.87647">
        <ele>667</ele>
        <time>2022-05-23T09:40:36Z</time>
      </trkpt>
      <trkpt lat="48.07154" lon="6.87624">
        <ele>666</ele>
        <time>2022-05-23T09:40:41Z</time>
      </trkpt>
      <trkpt lat="48.07173" lon="6.87601">
        <ele>665</ele>
        <time>2022-05-23T09:40:45Z</time>
      </trkpt>
      <trkpt lat="48.07226" lon="6.87559">
        <ele>663</ele>
        <time>2022-05-23T09:40:56Z</time>
      </trkpt>
      <trkpt lat="48.07252" lon="6.87534">
        <ele>662</ele>
        <time>2022-05-23T09:41:01Z</time>
      </trkpt>
      <trkpt lat="48.07272" lon="6.87521">
        <ele>662</ele>
        <time>2022-05-23T09:41:05Z</time>
      </trkpt>
      <trkpt lat="48.07282" lon="6.87525">
        <ele>661</ele>
        <time>2022-05-23T09:41:07Z</time>
      </trkpt>
      <trkpt lat="48.073" lon="6.87564">
        <ele>661</ele>
        <time>2022-05-23T09:41:13Z</time>
      </trkpt>
      <trkpt lat="48.07336" lon="6.87631">
        <ele>662</ele>
        <time>2022-05-23T09:41:23Z</time>
      </trkpt>
      <trkpt lat="48.07363" lon="6.87692">
        <ele>662</ele>
        <time>2022-05-23T09:41:32Z</time>
      </trkpt>
      <trkpt lat="48.07371" lon="6.87721">
        <ele>662</ele>
        <time>2022-05-23T09:41:35Z</time>
      </trkpt>
      <trkpt lat="48.0737" lon="6.87707">
        <ele>662</ele>
        <time>2022-05-23T09:41:37Z</time>
      </trkpt>
      <trkpt lat="48.07329" lon="6.87638">
        <ele>662</ele>
        <time>2022-05-23T09:41:48Z</time>
      </trkpt>
      <trkpt lat="48.07313" lon="6.87592">
        <ele>661</ele>
        <time>2022-05-23T09:41:54Z</time>
      </trkpt>
      <trkpt lat="48.07285" lon="6.87533">
        <ele>661</ele>
        <time>2022-05-23T09:42:03Z</time>
      </trkpt>
      <trkpt lat="48.07282" lon="6.87516">
        <ele>661</ele>
        <time>2022-05-23T09:42:05Z</time>
      </trkpt>
      <trkpt lat="48.07266" lon="6.87489">
        <ele>662</ele>
        <time>2022-05-23T09:42:09Z</time>
      </trkpt>
      <trkpt lat="48.07246" lon="6.87446">
        <ele>662</ele>
        <time>2022-05-23T09:42:15Z</time>
      </trkpt>
      <trkpt lat="48.07205" lon="6.87376">
        <ele>662</ele>
        <time>2022-05-23T09:42:26Z</time>
      </trkpt>
      <trkpt lat="48.07164" lon="6.87296">
        <ele>663</ele>
        <time>2022-05-23T09:42:38Z</time>
      </trkpt>
      <trkpt lat="48.07156" lon="6.87266">
        <ele>663</ele>
        <time>2022-05-23T09:42:42Z</time>
      </trkpt>
      <trkpt lat="48.07139" lon="6.87278">
        <ele>664</ele>
        <time>2022-05-23T09:42:46Z</time>
      </trkpt>
      <trkpt lat="48.07133" lon="6.87289">
        <ele>664</ele>
        <time>2022-05-23T09:42:47Z</time>
      </trkpt>
      <trkpt lat="48.07136" lon="6.87275">
        <ele>664</ele>
        <time>2022-05-23T09:42:49Z</time>
      </trkpt>
      <trkpt lat="48.07144" lon="6.87267">
        <ele>664</ele>
        <time>2022-05-23T09:42:51Z</time>
      </trkpt>
      <trkpt lat="48.07136" lon="6.87276">
        <ele>664</ele>
        <time>2022-05-23T09:42:52Z</time>
      </trkpt>
      <trkpt lat="48.07125" lon="6.873">
        <ele>665</ele>
        <time>2022-05-23T09:42:56Z</time>
      </trkpt>
      <trkpt lat="48.07118" lon="6.87325">
        <ele>665</ele>
        <time>2022-05-23T09:42:59Z</time>
      </trkpt>
      <trkpt lat="48.07106" lon="6.87346">
        <ele>666</ele>
        <time>2022-05-23T09:43:02Z</time>
      </trkpt>
      <trkpt lat="48.07097" lon="6.87349">
        <ele>666</ele>
        <time>2022-05-23T09:43:04Z</time>
      </trkpt>
      <trkpt lat="48.07077" lon="6.87377">
        <ele>667</ele>
        <time>2022-05-23T09:43:09Z</time>
      </trkpt>
      <trkpt lat="48.07068" lon="6.87383">
        <ele>667</ele>
        <time>2022-05-23T09:43:11Z</time>
      </trkpt>
      <trkpt lat="48.07053" lon="6.87402">
        <ele>667</ele>
        <time>2022-05-23T09:43:14Z</time>
      </trkpt>
      <trkpt lat="48.07029" lon="6.87423">
        <ele>667</ele>
        <time>2022-05-23T09:43:19Z</time>
      </trkpt>
      <trkpt lat="48.07043" lon="6.87416">
        <ele>666</ele>
        <time>2022-05-23T09:43:22Z</time>
      </trkpt>
      <trkpt lat="48.07049" lon="6.87405">
        <ele>667</ele>
        <time>2022-05-23T09:43:23Z</time>
      </trkpt>
      <trkpt lat="48.07058" lon="6.87398">
        <ele>667</ele>
        <time>2022-05-23T09:43:25Z</time>
      </trkpt>
      <trkpt lat="48.07066" lon="6.87393">
        <ele>666</ele>
        <time>2022-05-23T09:43:27Z</time>
      </trkpt>
      <trkpt lat="48.07077" lon="6.87391">
        <ele>666</ele>
        <time>2022-05-23T09:43:29Z</time>
      </trkpt>
      <trkpt lat="48.0708" lon="6.87377">
        <ele>667</ele>
        <time>2022-05-23T09:43:31Z</time>
      </trkpt>
      <trkpt lat="48.07086" lon="6.87368">
        <ele>667</ele>
        <time>2022-05-23T09:43:32Z</time>
      </trkpt>
      <trkpt lat="48.07101" lon="6.87349">
        <ele>666</ele>
        <time>2022-05-23T09:43:36Z</time>
      </trkpt>
      <trkpt lat="48.07125" lon="6.87326">
        <ele>665</ele>
        <time>2022-05-23T09:43:41Z</time>
      </trkpt>
      <trkpt lat="48.07122" lon="6.87311">
        <ele>665</ele>
        <time>2022-05-23T09:43:42Z</time>
      </trkpt>
      <trkpt lat="48.07123" lon="6.87297">
        <ele>665</ele>
        <time>2022-05-23T09:43:44Z</time>
      </trkpt>
      <trkpt lat="48.07142" lon="6.87287">
        <ele>664</ele>
        <time>2022-05-23T09:43:48Z</time>
      </trkpt>
      <trkpt lat="48.07147" lon="6.87276">
        <ele>663</ele>
        <time>2022-05-23T09:43:49Z</time>
      </trkpt>
      <trkpt lat="48.07144" lon="6.87263">
        <ele>663</ele>
        <time>2022-05-23T09:43:51Z</time>
      </trkpt>
      <trkpt lat="48.0715" lon="6.87252">
        <ele>663</ele>
        <time>2022-05-23T09:43:53Z</time>
      </trkpt>
      <trkpt lat="48.07147" lon="6.87238">
        <ele>663</ele>
        <time>2022-05-23T09:43:54Z</time>
      </trkpt>
      <trkpt lat="48.07141" lon="6.87226">
        <ele>664</ele>
        <time>2022-05-23T09:43:56Z</time>
      </trkpt>
      <trkpt lat="48.07135" lon="6.87181">
        <ele>664</ele>
        <time>2022-05-23T09:44:02Z</time>
      </trkpt>
      <trkpt lat="48.07135" lon="6.87166">
        <ele>665</ele>
        <time>2022-05-23T09:44:03Z</time>
      </trkpt>
      <trkpt lat="48.07139" lon="6.87152">
        <ele>664</ele>
        <time>2022-05-23T09:44:05Z</time>
      </trkpt>
      <trkpt lat="48.07137" lon="6.87136">
        <ele>664</ele>
        <time>2022-05-23T09:44:07Z</time>
      </trkpt>
      <trkpt lat="48.07138" lon="6.87088">
        <ele>664</ele>
        <time>2022-05-23T09:44:13Z</time>
      </trkpt>
      <trkpt lat="48.07145" lon="6.87022">
        <ele>663</ele>
        <time>2022-05-23T09:44:21Z</time>
      </trkpt>
      <trkpt lat="48.07149" lon="6.86932">
        <ele>662</ele>
        <time>2022-05-23T09:44:32Z</time>
      </trkpt>
      <trkpt lat="48.07155" lon="6.86864">
        <ele>662</ele>
        <time>2022-05-23T09:44:40Z</time>
      </trkpt>
      <trkpt lat="48.07166" lon="6.86784">
        <ele>662</ele>
        <time>2022-05-23T09:44:49Z</time>
      </trkpt>
      <trkpt lat="48.0717" lon="6.86772">
        <ele>662</ele>
        <time>2022-05-23T09:44:51Z</time>
      </trkpt>
      <trkpt lat="48.07179" lon="6.86762">
        <ele>663</ele>
        <time>2022-05-23T09:44:53Z</time>
      </trkpt>
      <trkpt lat="48.07182" lon="6.86749">
        <ele>663</ele>
        <time>2022-05-23T09:44:55Z</time>
      </trkpt>
      <trkpt lat="48.07182" lon="6.8673">
        <ele>663</ele>
        <time>2022-05-23T09:44:57Z</time>
      </trkpt>
      <trkpt lat="48.07174" lon="6.86719">
        <ele>663</ele>
        <time>2022-05-23T09:44:59Z</time>
      </trkpt>
      <trkpt lat="48.07165" lon="6.86714">
        <ele>662</ele>
        <time>2022-05-23T09:45:01Z</time>
      </trkpt>
      <trkpt lat="48.07153" lon="6.86719">
        <ele>662</ele>
        <time>2022-05-23T09:45:03Z</time>
      </trkpt>
      <trkpt lat="48.07147" lon="6.86734">
        <ele>661</ele>
        <time>2022-05-23T09:45:05Z</time>
      </trkpt>
      <trkpt lat="48.07147" lon="6.86751">
        <ele>662</ele>
        <time>2022-05-23T09:45:07Z</time>
      </trkpt>
      <trkpt lat="48.07154" lon="6.86768">
        <ele>662</ele>
        <time>2022-05-23T09:45:09Z</time>
      </trkpt>
      <trkpt lat="48.07153" lon="6.86803">
        <ele>662</ele>
        <time>2022-05-23T09:45:13Z</time>
      </trkpt>
      <trkpt lat="48.07163" lon="6.86802">
        <ele>662</ele>
        <time>2022-05-23T09:45:15Z</time>
      </trkpt>
      <trkpt lat="48.07167" lon="6.86775">
        <ele>662</ele>
        <time>2022-05-23T09:45:18Z</time>
      </trkpt>
      <trkpt lat="48.07177" lon="6.86747">
        <ele>663</ele>
        <time>2022-05-23T09:45:22Z</time>
      </trkpt>
      <trkpt lat="48.07177" lon="6.8673">
        <ele>663</ele>
        <time>2022-05-23T09:45:24Z</time>
      </trkpt>
      <trkpt lat="48.07173" lon="6.86682">
        <ele>663</ele>
        <time>2022-05-23T09:45:30Z</time>
      </trkpt>
      <trkpt lat="48.07169" lon="6.8667">
        <ele>662</ele>
        <time>2022-05-23T09:45:32Z</time>
      </trkpt>
      <trkpt lat="48.0716" lon="6.86663">
        <ele>662</ele>
        <time>2022-05-23T09:45:33Z</time>
      </trkpt>
      <trkpt lat="48.07158" lon="6.86633">
        <ele>662</ele>
        <time>2022-05-23T09:45:37Z</time>
      </trkpt>
      <trkpt lat="48.07145" lon="6.86613">
        <ele>662</ele>
        <time>2022-05-23T09:45:40Z</time>
      </trkpt>
      <trkpt lat="48.0714" lon="6.86586">
        <ele>662</ele>
        <time>2022-05-23T09:45:44Z</time>
      </trkpt>
      <trkpt lat="48.07134" lon="6.86597">
        <ele>661</ele>
        <time>2022-05-23T09:45:45Z</time>
      </trkpt>
      <trkpt lat="48.07136" lon="6.86583">
        <ele>662</ele>
        <time>2022-05-23T09:45:47Z</time>
      </trkpt>
      <trkpt lat="48.07144" lon="6.86576">
        <ele>662</ele>
        <time>2022-05-23T09:45:49Z</time>
      </trkpt>
      <trkpt lat="48.07131" lon="6.86563">
        <ele>661</ele>
        <time>2022-05-23T09:45:51Z</time>
      </trkpt>
      <trkpt lat="48.07139" lon="6.86573">
        <ele>662</ele>
        <time>2022-05-23T09:45:53Z</time>
      </trkpt>
      <trkpt lat="48.07133" lon="6.86605">
        <ele>661</ele>
        <time>2022-05-23T09:45:57Z</time>
      </trkpt>
      <trkpt lat="48.07132" lon="6.86634">
        <ele>661</ele>
        <time>2022-05-23T09:46:01Z</time>
      </trkpt>
      <trkpt lat="48.07127" lon="6.86646">
        <ele>661</ele>
        <time>2022-05-23T09:46:02Z</time>
      </trkpt>
      <trkpt lat="48.07132" lon="6.86659">
        <ele>661</ele>
        <time>2022-05-23T09:46:04Z</time>
      </trkpt>
      <trkpt lat="48.07133" lon="6.86673">
        <ele>661</ele>
        <time>2022-05-23T09:46:06Z</time>
      </trkpt>
      <trkpt lat="48.07125" lon="6.86682">
        <ele>661</ele>
        <time>2022-05-23T09:46:08Z</time>
      </trkpt>
      <trkpt lat="48.07123" lon="6.8674">
        <ele>661</ele>
        <time>2022-05-23T09:46:15Z</time>
      </trkpt>
      <trkpt lat="48.07114" lon="6.86749">
        <ele>661</ele>
        <time>2022-05-23T09:46:16Z</time>
      </trkpt>
      <trkpt lat="48.07102" lon="6.86752">
        <ele>660</ele>
        <time>2022-05-23T09:46:19Z</time>
      </trkpt>
      <trkpt lat="48.07111" lon="6.86748">
        <ele>661</ele>
        <time>2022-05-23T09:46:20Z</time>
      </trkpt>
      <trkpt lat="48.07116" lon="6.86766">
        <ele>661</ele>
        <time>2022-05-23T09:46:23Z</time>
      </trkpt>
      <trkpt lat="48.07114" lon="6.8681">
        <ele>661</ele>
        <time>2022-05-23T09:46:28Z</time>
      </trkpt>
      <trkpt lat="48.07116" lon="6.8684">
        <ele>661</ele>
        <time>2022-05-23T09:46:31Z</time>
      </trkpt>
      <trkpt lat="48.0712" lon="6.86854">
        <ele>662</ele>
        <time>2022-05-23T09:46:33Z</time>
      </trkpt>
      <trkpt lat="48.07128" lon="6.86862">
        <ele>662</ele>
        <time>2022-05-23T09:46:35Z</time>
      </trkpt>
      <trkpt lat="48.07137" lon="6.86862">
        <ele>662</ele>
        <time>2022-05-23T09:46:37Z</time>
      </trkpt>
      <trkpt lat="48.07147" lon="6.86866">
        <ele>662</ele>
        <time>2022-05-23T09:46:38Z</time>
      </trkpt>
      <trkpt lat="48.07146" lon="6.86912">
        <ele>662</ele>
        <time>2022-05-23T09:46:44Z</time>
      </trkpt>
      <trkpt lat="48.07131" lon="6.87093">
        <ele>664</ele>
        <time>2022-05-23T09:47:06Z</time>
      </trkpt>
      <trkpt lat="48.07139" lon="6.87177">
        <ele>664</ele>
        <time>2022-05-23T09:47:16Z</time>
      </trkpt>
      <trkpt lat="48.07152" lon="6.87235">
        <ele>663</ele>
        <time>2022-05-23T09:47:23Z</time>
      </trkpt>
      <trkpt lat="48.07154" lon="6.87265">
        <ele>663</ele>
        <time>2022-05-23T09:47:27Z</time>
      </trkpt>
      <trkpt lat="48.07161" lon="6.87275">
        <ele>663</ele>
        <time>2022-05-23T09:47:28Z</time>
      </trkpt>
      <trkpt lat="48.07175" lon="6.87253">
        <ele>662</ele>
        <time>2022-05-23T09:47:32Z</time>
      </trkpt>
      <trkpt lat="48.07186" lon="6.8725">
        <ele>661</ele>
        <time>2022-05-23T09:47:34Z</time>
      </trkpt>
      <trkpt lat="48.07196" lon="6.87253">
        <ele>661</ele>
        <time>2022-05-23T09:47:36Z</time>
      </trkpt>
      <trkpt lat="48.07206" lon="6.87251">
        <ele>661</ele>
        <time>2022-05-23T09:47:37Z</time>
      </trkpt>
      <trkpt lat="48.0721" lon="6.87237">
        <ele>661</ele>
        <time>2022-05-23T09:47:39Z</time>
      </trkpt>
      <trkpt lat="48.0722" lon="6.87231">
        <ele>660</ele>
        <time>2022-05-23T09:47:41Z</time>
      </trkpt>
      <trkpt lat="48.0721" lon="6.87233">
        <ele>661</ele>
        <time>2022-05-23T09:47:43Z</time>
      </trkpt>
      <trkpt lat="48.07193" lon="6.87255">
        <ele>661</ele>
        <time>2022-05-23T09:47:47Z</time>
      </trkpt>
      <trkpt lat="48.07184" lon="6.87252">
        <ele>661</ele>
        <time>2022-05-23T09:47:49Z</time>
      </trkpt>
      <trkpt lat="48.07174" lon="6.87252">
        <ele>662</ele>
        <time>2022-05-23T09:47:50Z</time>
      </trkpt>
      <trkpt lat="48.07158" lon="6.8727">
        <ele>663</ele>
        <time>2022-05-23T09:47:54Z</time>
      </trkpt>
      <trkpt lat="48.07161" lon="6.87286">
        <ele>663</ele>
        <time>2022-05-23T09:47:56Z</time>
      </trkpt>
      <trkpt lat="48.07169" lon="6.87296">
        <ele>662</ele>
        <time>2022-05-23T09:47:58Z</time>
      </trkpt>
      <trkpt lat="48.07223" lon="6.87402">
        <ele>662</ele>
        <time>2022-05-23T09:48:14Z</time>
      </trkpt>
      <trkpt lat="48.07265" lon="6.8749">
        <ele>662</ele>
        <time>2022-05-23T09:48:26Z</time>
      </trkpt>
      <trkpt lat="48.07277" lon="6.87522">
        <ele>662</ele>
        <time>2022-05-23T09:48:31Z</time>
      </trkpt>
      <trkpt lat="48.07292" lon="6.87543">
        <ele>661</ele>
        <time>2022-05-23T09:48:35Z</time>
      </trkpt>
      <trkpt lat="48.07401" lon="6.87758">
        <ele>662</ele>
        <time>2022-05-23T09:49:07Z</time>
      </trkpt>
      <trkpt lat="48.07398" lon="6.87771">
        <ele>663</ele>
        <time>2022-05-23T09:49:08Z</time>
      </trkpt>
      <trkpt lat="48.0736" lon="6.87798">
        <ele>664</ele>
        <time>2022-05-23T09:49:16Z</time>
      </trkpt>
      <trkpt lat="48.07354" lon="6.8781">
        <ele>664</ele>
        <time>2022-05-23T09:49:17Z</time>
      </trkpt>
      <trkpt lat="48.0733" lon="6.87836">
        <ele>665</ele>
        <time>2022-05-23T09:49:23Z</time>
      </trkpt>
      <trkpt lat="48.07335" lon="6.87866">
        <ele>665</ele>
        <time>2022-05-23T09:49:26Z</time>
      </trkpt>
      <trkpt lat="48.07388" lon="6.87992">
        <ele>665</ele>
        <time>2022-05-23T09:49:44Z</time>
      </trkpt>
      <trkpt lat="48.07484" lon="6.88254">
        <ele>663</ele>
        <time>2022-05-23T09:50:20Z</time>
      </trkpt>
      <trkpt lat="48.07502" lon="6.88299">
        <ele>662</ele>
        <time>2022-05-23T09:50:26Z</time>
      </trkpt>
      <trkpt lat="48.0751" lon="6.88312">
        <ele>662</ele>
        <time>2022-05-23T09:50:28Z</time>
      </trkpt>
      <trkpt lat="48.07559" lon="6.88447">
        <ele>662</ele>
        <time>2022-05-23T09:50:46Z</time>
      </trkpt>
      <trkpt lat="48.07572" lon="6.88476">
        <ele>661</ele>
        <time>2022-05-23T09:50:50Z</time>
      </trkpt>
      <trkpt lat="48.07577" lon="6.88492">
        <ele>661</ele>
        <time>2022-05-23T09:50:53Z</time>
      </trkpt>
      <trkpt lat="48.07579" lon="6.88519">
        <ele>661</ele>
        <time>2022-05-23T09:50:56Z</time>
      </trkpt>
      <trkpt lat="48.07588" lon="6.88531">
        <ele>661</ele>
        <time>2022-05-23T09:50:58Z</time>
      </trkpt>
      <trkpt lat="48.07632" lon="6.88565">
        <ele>658</ele>
        <time>2022-05-23T09:51:07Z</time>
      </trkpt>
      <trkpt lat="48.07649" lon="6.88583">
        <ele>657</ele>
        <time>2022-05-23T09:51:10Z</time>
      </trkpt>
      <trkpt lat="48.07659" lon="6.88589">
        <ele>657</ele>
        <time>2022-05-23T09:51:12Z</time>
      </trkpt>
      <trkpt lat="48.07685" lon="6.88613">
        <ele>657</ele>
        <time>2022-05-23T09:51:18Z</time>
      </trkpt>
      <trkpt lat="48.07704" lon="6.88627">
        <ele>657</ele>
        <time>2022-05-23T09:51:22Z</time>
      </trkpt>
      <trkpt lat="48.07712" lon="6.88638">
        <ele>657</ele>
        <time>2022-05-23T09:51:23Z</time>
      </trkpt>
      <trkpt lat="48.0774" lon="6.88659">
        <ele>657</ele>
        <time>2022-05-23T09:51:29Z</time>
      </trkpt>
      <trkpt lat="48.07753" lon="6.88685">
        <ele>657</ele>
        <time>2022-05-23T09:51:33Z</time>
      </trkpt>
      <trkpt lat="48.07769" lon="6.88729">
        <ele>658</ele>
        <time>2022-05-23T09:51:39Z</time>
      </trkpt>
      <trkpt lat="48.07783" lon="6.88788">
        <ele>659</ele>
        <time>2022-05-23T09:51:46Z</time>
      </trkpt>
      <trkpt lat="48.07794" lon="6.88848">
        <ele>660</ele>
        <time>2022-05-23T09:51:54Z</time>
      </trkpt>
      <trkpt lat="48.07799" lon="6.8886">
        <ele>660</ele>
        <time>2022-05-23T09:51:55Z</time>
      </trkpt>
      <trkpt lat="48.07818" lon="6.88866">
        <ele>659</ele>
        <time>2022-05-23T09:51:59Z</time>
      </trkpt>
      <trkpt lat="48.07828" lon="6.88861">
        <ele>658</ele>
        <time>2022-05-23T09:52:01Z</time>
      </trkpt>
      <trkpt lat="48.0784" lon="6.88859">
        <ele>657</ele>
        <time>2022-05-23T09:52:03Z</time>
      </trkpt>
      <trkpt lat="48.0785" lon="6.88869">
        <ele>657</ele>
        <time>2022-05-23T09:52:05Z</time>
      </trkpt>
      <trkpt lat="48.07857" lon="6.88886">
        <ele>658</ele>
        <time>2022-05-23T09:52:07Z</time>
      </trkpt>
      <trkpt lat="48.07866" lon="6.88897">
        <ele>657</ele>
        <time>2022-05-23T09:52:09Z</time>
      </trkpt>
      <trkpt lat="48.07889" lon="6.88885">
        <ele>655</ele>
        <time>2022-05-23T09:52:14Z</time>
      </trkpt>
      <trkpt lat="48.079" lon="6.8889">
        <ele>655</ele>
        <time>2022-05-23T09:52:16Z</time>
      </trkpt>
      <trkpt lat="48.07916" lon="6.88912">
        <ele>654</ele>
        <time>2022-05-23T09:52:20Z</time>
      </trkpt>
      <trkpt lat="48.07916" lon="6.88897">
        <ele>654</ele>
        <time>2022-05-23T09:52:21Z</time>
      </trkpt>
      <trkpt lat="48.07906" lon="6.88889">
        <ele>654</ele>
        <time>2022-05-23T09:52:23Z</time>
      </trkpt>
      <trkpt lat="48.07935" lon="6.88901">
        <ele>653</ele>
        <time>2022-05-23T09:52:29Z</time>
      </trkpt>
      <trkpt lat="48.07926" lon="6.88901">
        <ele>653</ele>
        <time>2022-05-23T09:52:30Z</time>
      </trkpt>
      <trkpt lat="48.07916" lon="6.88905">
        <ele>654</ele>
        <time>2022-05-23T09:52:32Z</time>
      </trkpt>
      <trkpt lat="48.07901" lon="6.88883">
        <ele>655</ele>
        <time>2022-05-23T09:52:36Z</time>
      </trkpt>
      <trkpt lat="48.07892" lon="6.88877">
        <ele>655</ele>
        <time>2022-05-23T09:52:38Z</time>
      </trkpt>
      <trkpt lat="48.07875" lon="6.88891">
        <ele>657</ele>
        <time>2022-05-23T09:52:41Z</time>
      </trkpt>
      <trkpt lat="48.07866" lon="6.88891">
        <ele>657</ele>
        <time>2022-05-23T09:52:43Z</time>
      </trkpt>
      <trkpt lat="48.07846" lon="6.8886">
        <ele>657</ele>
        <time>2022-05-23T09:52:48Z</time>
      </trkpt>
      <trkpt lat="48.07837" lon="6.8885">
        <ele>657</ele>
        <time>2022-05-23T09:52:50Z</time>
      </trkpt>
      <trkpt lat="48.07809" lon="6.8883">
        <ele>658</ele>
        <time>2022-05-23T09:52:55Z</time>
      </trkpt>
      <trkpt lat="48.07799" lon="6.88826">
        <ele>659</ele>
        <time>2022-05-23T09:52:57Z</time>
      </trkpt>
      <trkpt lat="48.07792" lon="6.88839">
        <ele>660</ele>
        <time>2022-05-23T09:52:59Z</time>
      </trkpt>
      <trkpt lat="48.07797" lon="6.88854">
        <ele>660</ele>
        <time>2022-05-23T09:53:01Z</time>
      </trkpt>
      <trkpt lat="48.07806" lon="6.88866">
        <ele>660</ele>
        <time>2022-05-23T09:53:03Z</time>
      </trkpt>
      <trkpt lat="48.0781" lon="6.88882">
        <ele>661</ele>
        <time>2022-05-23T09:53:05Z</time>
      </trkpt>
      <trkpt lat="48.07836" lon="6.88935">
        <ele>662</ele>
        <time>2022-05-23T09:53:13Z</time>
      </trkpt>
      <trkpt lat="48.07881" lon="6.89043">
        <ele>665</ele>
        <time>2022-05-23T09:53:28Z</time>
      </trkpt>
      <trkpt lat="48.07911" lon="6.8913">
        <ele>668</ele>
        <time>2022-05-23T09:53:40Z</time>
      </trkpt>
      <trkpt lat="48.07948" lon="6.89265">
        <ele>667</ele>
        <time>2022-05-23T09:53:57Z</time>
      </trkpt>
      <trkpt lat="48.07999" lon="6.89418">
        <ele>666</ele>
        <time>2022-05-23T09:54:18Z</time>
      </trkpt>
      <trkpt lat="48.08063" lon="6.89581">
        <ele>667</ele>
        <time>2022-05-23T09:54:40Z</time>
      </trkpt>
      <trkpt lat="48.08086" lon="6.8966">
        <ele>669</ele>
        <time>2022-05-23T09:54:50Z</time>
      </trkpt>
      <trkpt lat="48.08115" lon="6.89735">
        <ele>671</ele>
        <time>2022-05-23T09:55:01Z</time>
      </trkpt>
      <trkpt lat="48.08162" lon="6.8987">
        <ele>669</ele>
        <time>2022-05-23T09:55:19Z</time>
      </trkpt>
      <trkpt lat="48.08195" lon="6.89949">
        <ele>670</ele>
        <time>2022-05-23T09:55:30Z</time>
      </trkpt>
      <trkpt lat="48.08215" lon="6.89987">
        <ele>671</ele>
        <time>2022-05-23T09:55:36Z</time>
      </trkpt>
      <trkpt lat="48.08273" lon="6.90113">
        <ele>675</ele>
        <time>2022-05-23T09:55:54Z</time>
      </trkpt>
      <trkpt lat="48.08295" lon="6.90168">
        <ele>675</ele>
        <time>2022-05-23T09:56:01Z</time>
      </trkpt>
      <trkpt lat="48.08308" lon="6.90241">
        <ele>677</ele>
        <time>2022-05-23T09:56:10Z</time>
      </trkpt>
      <trkpt lat="48.08308" lon="6.90287">
        <ele>678</ele>
        <time>2022-05-23T09:56:16Z</time>
      </trkpt>
      <trkpt lat="48.08302" lon="6.90318">
        <ele>679</ele>
        <time>2022-05-23T09:56:20Z</time>
      </trkpt>
      <trkpt lat="48.08307" lon="6.90331">
        <ele>679</ele>
        <time>2022-05-23T09:56:22Z</time>
      </trkpt>
      <trkpt lat="48.08316" lon="6.90338">
        <ele>678</ele>
        <time>2022-05-23T09:56:23Z</time>
      </trkpt>
      <trkpt lat="48.08321" lon="6.90353">
        <ele>678</ele>
        <time>2022-05-23T09:56:25Z</time>
      </trkpt>
      <trkpt lat="48.08323" lon="6.90367">
        <ele>678</ele>
        <time>2022-05-23T09:56:27Z</time>
      </trkpt>
      <trkpt lat="48.08322" lon="6.90382">
        <ele>679</ele>
        <time>2022-05-23T09:56:29Z</time>
      </trkpt>
      <trkpt lat="48.08336" lon="6.90503">
        <ele>685</ele>
        <time>2022-05-23T09:56:43Z</time>
      </trkpt>
      <trkpt lat="48.08343" lon="6.90599">
        <ele>686</ele>
        <time>2022-05-23T09:56:55Z</time>
      </trkpt>
      <trkpt lat="48.08341" lon="6.90672">
        <ele>688</ele>
        <time>2022-05-23T09:57:04Z</time>
      </trkpt>
      <trkpt lat="48.08325" lon="6.90748">
        <ele>692</ele>
        <time>2022-05-23T09:57:13Z</time>
      </trkpt>
      <trkpt lat="48.08319" lon="6.90812">
        <ele>694</ele>
        <time>2022-05-23T09:57:21Z</time>
      </trkpt>
      <trkpt lat="48.08324" lon="6.90874">
        <ele>692</ele>
        <time>2022-05-23T09:57:28Z</time>
      </trkpt>
      <trkpt lat="48.08328" lon="6.90889">
        <ele>691</ele>
        <time>2022-05-23T09:57:30Z</time>
      </trkpt>
      <trkpt lat="48.08347" lon="6.9093">
        <ele>691</ele>
        <time>2022-05-23T09:57:36Z</time>
      </trkpt>
      <trkpt lat="48.0836" lon="6.9095">
        <ele>692</ele>
        <time>2022-05-23T09:57:39Z</time>
      </trkpt>
      <trkpt lat="48.08379" lon="6.90968">
        <ele>694</ele>
        <time>2022-05-23T09:57:43Z</time>
      </trkpt>
      <trkpt lat="48.08431" lon="6.90991">
        <ele>697</ele>
        <time>2022-05-23T09:57:53Z</time>
      </trkpt>
      <trkpt lat="48.08452" lon="6.90993">
        <ele>698</ele>
        <time>2022-05-23T09:57:57Z</time>
      </trkpt>
      <trkpt lat="48.08462" lon="6.9099">
        <ele>698</ele>
        <time>2022-05-23T09:57:59Z</time>
      </trkpt>
      <trkpt lat="48.08472" lon="6.90998">
        <ele>699</ele>
        <time>2022-05-23T09:58:01Z</time>
      </trkpt>
      <trkpt lat="48.0848" lon="6.91025">
        <ele>701</ele>
        <time>2022-05-23T09:58:04Z</time>
      </trkpt>
      <trkpt lat="48.08485" lon="6.9106">
        <ele>705</ele>
        <time>2022-05-23T09:58:08Z</time>
      </trkpt>
      <trkpt lat="48.0849" lon="6.91137">
        <ele>711</ele>
        <time>2022-05-23T09:58:17Z</time>
      </trkpt>
      <trkpt lat="48.08485" lon="6.91184">
        <ele>713</ele>
        <time>2022-05-23T09:58:23Z</time>
      </trkpt>
      <trkpt lat="48.08467" lon="6.91237">
        <ele>712</ele>
        <time>2022-05-23T09:58:30Z</time>
      </trkpt>
      <trkpt lat="48.0846" lon="6.9125">
        <ele>711</ele>
        <time>2022-05-23T09:58:32Z</time>
      </trkpt>
      <trkpt lat="48.08432" lon="6.91367">
        <ele>710</ele>
        <time>2022-05-23T09:58:47Z</time>
      </trkpt>
      <trkpt lat="48.08418" lon="6.91458">
        <ele>710</ele>
        <time>2022-05-23T09:58:58Z</time>
      </trkpt>
      <trkpt lat="48.08414" lon="6.91566">
        <ele>715</ele>
        <time>2022-05-23T09:59:11Z</time>
      </trkpt>
      <trkpt lat="48.0841" lon="6.91598">
        <ele>716</ele>
        <time>2022-05-23T09:59:15Z</time>
      </trkpt>
      <trkpt lat="48.08392" lon="6.91676">
        <ele>718</ele>
        <time>2022-05-23T09:59:25Z</time>
      </trkpt>
      <trkpt lat="48.08371" lon="6.91742">
        <ele>719</ele>
        <time>2022-05-23T09:59:33Z</time>
      </trkpt>
      <trkpt lat="48.08364" lon="6.91799">
        <ele>717</ele>
        <time>2022-05-23T09:59:40Z</time>
      </trkpt>
      <trkpt lat="48.08365" lon="6.91831">
        <ele>717</ele>
        <time>2022-05-23T09:59:44Z</time>
      </trkpt>
      <trkpt lat="48.08356" lon="6.91899">
        <ele>716</ele>
        <time>2022-05-23T09:59:52Z</time>
      </trkpt>
      <trkpt lat="48.08349" lon="6.91979">
        <ele>717</ele>
        <time>2022-05-23T10:00:02Z</time>
      </trkpt>
      <trkpt lat="48.08348" lon="6.92057">
        <ele>717</ele>
        <time>2022-05-23T10:00:11Z</time>
      </trkpt>
      <trkpt lat="48.08343" lon="6.92127">
        <ele>717</ele>
        <time>2022-05-23T10:00:19Z</time>
      </trkpt>
      <trkpt lat="48.08311" lon="6.92307">
        <ele>714</ele>
        <time>2022-05-23T10:00:42Z</time>
      </trkpt>
      <trkpt lat="48.08304" lon="6.92371">
        <ele>715</ele>
        <time>2022-05-23T10:00:49Z</time>
      </trkpt>
      <trkpt lat="48.08305" lon="6.9242">
        <ele>717</ele>
        <time>2022-05-23T10:00:55Z</time>
      </trkpt>
      <trkpt lat="48.0831" lon="6.9245">
        <ele>717</ele>
        <time>2022-05-23T10:00:59Z</time>
      </trkpt>
      <trkpt lat="48.08323" lon="6.92496">
        <ele>718</ele>
        <time>2022-05-23T10:01:05Z</time>
      </trkpt>
      <trkpt lat="48.08364" lon="6.926">
        <ele>723</ele>
        <time>2022-05-23T10:01:19Z</time>
      </trkpt>
      <trkpt lat="48.08373" lon="6.92632">
        <ele>724</ele>
        <time>2022-05-23T10:01:23Z</time>
      </trkpt>
      <trkpt lat="48.08382" lon="6.9268">
        <ele>724</ele>
        <time>2022-05-23T10:01:29Z</time>
      </trkpt>
      <trkpt lat="48.08395" lon="6.92808">
        <ele>726</ele>
        <time>2022-05-23T10:01:45Z</time>
      </trkpt>
      <trkpt lat="48.08395" lon="6.92845">
        <ele>726</ele>
        <time>2022-05-23T10:01:49Z</time>
      </trkpt>
      <trkpt lat="48.08401" lon="6.92935">
        <ele>728</ele>
        <time>2022-05-23T10:02:00Z</time>
      </trkpt>
      <trkpt lat="48.08399" lon="6.93096">
        <ele>731</ele>
        <time>2022-05-23T10:02:19Z</time>
      </trkpt>
      <trkpt lat="48.08395" lon="6.93162">
        <ele>734</ele>
        <time>2022-05-23T10:02:27Z</time>
      </trkpt>
      <trkpt lat="48.08397" lon="6.93177">
        <ele>734</ele>
        <time>2022-05-23T10:02:29Z</time>
      </trkpt>
      <trkpt lat="48.08377" lon="6.9337">
        <ele>728</ele>
        <time>2022-05-23T10:02:52Z</time>
      </trkpt>
      <trkpt lat="48.08358" lon="6.93639">
        <ele>735</ele>
        <time>2022-05-23T10:03:24Z</time>
      </trkpt>
      <trkpt lat="48.08326" lon="6.94255">
        <ele>740</ele>
        <time>2022-05-23T10:04:37Z</time>
      </trkpt>
      <trkpt lat="48.08315" lon="6.94419">
        <ele>750</ele>
        <time>2022-05-23T10:04:57Z</time>
      </trkpt>
      <trkpt lat="48.08313" lon="6.9448">
        <ele>750</ele>
        <time>2022-05-23T10:05:04Z</time>
      </trkpt>
      <trkpt lat="48.08324" lon="6.94567">
        <ele>749</ele>
        <time>2022-05-23T10:05:15Z</time>
      </trkpt>
      <trkpt lat="48.08326" lon="6.946">
        <ele>748</ele>
        <time>2022-05-23T10:05:19Z</time>
      </trkpt>
      <trkpt lat="48.08325" lon="6.94633">
        <ele>747</ele>
        <time>2022-05-23T10:05:23Z</time>
      </trkpt>
      <trkpt lat="48.08316" lon="6.94677">
        <ele>746</ele>
        <time>2022-05-23T10:05:28Z</time>
      </trkpt>
      <trkpt lat="48.08305" lon="6.94703">
        <ele>746</ele>
        <time>2022-05-23T10:05:32Z</time>
      </trkpt>
      <trkpt lat="48.08292" lon="6.94726">
        <ele>747</ele>
        <time>2022-05-23T10:05:35Z</time>
      </trkpt>
      <trkpt lat="48.08275" lon="6.94743">
        <ele>747</ele>
        <time>2022-05-23T10:05:39Z</time>
      </trkpt>
      <trkpt lat="48.08256" lon="6.94759">
        <ele>749</ele>
        <time>2022-05-23T10:05:43Z</time>
      </trkpt>
      <trkpt lat="48.08199" lon="6.94796">
        <ele>758</ele>
        <time>2022-05-23T10:05:54Z</time>
      </trkpt>
      <trkpt lat="48.08165" lon="6.94822">
        <ele>765</ele>
        <time>2022-05-23T10:06:01Z</time>
      </trkpt>
      <trkpt lat="48.08146" lon="6.94832">
        <ele>766</ele>
        <time>2022-05-23T10:06:04Z</time>
      </trkpt>
      <trkpt lat="48.0811" lon="6.94862">
        <ele>771</ele>
        <time>2022-05-23T10:06:12Z</time>
      </trkpt>
      <trkpt lat="48.08052" lon="6.94893">
        <ele>776</ele>
        <time>2022-05-23T10:06:23Z</time>
      </trkpt>
      <trkpt lat="48.08005" lon="6.94926">
        <ele>783</ele>
        <time>2022-05-23T10:06:32Z</time>
      </trkpt>
      <trkpt lat="48.07962" lon="6.94966">
        <ele>788</ele>
        <time>2022-05-23T10:06:41Z</time>
      </trkpt>
      <trkpt lat="48.07945" lon="6.94977">
        <ele>787</ele>
        <time>2022-05-23T10:06:44Z</time>
      </trkpt>
      <trkpt lat="48.07927" lon="6.94993">
        <ele>788</ele>
        <time>2022-05-23T10:06:48Z</time>
      </trkpt>
      <trkpt lat="48.07877" lon="6.9504">
        <ele>794</ele>
        <time>2022-05-23T10:06:58Z</time>
      </trkpt>
      <trkpt lat="48.07869" lon="6.9505">
        <ele>796</ele>
        <time>2022-05-23T10:07:00Z</time>
      </trkpt>
      <trkpt lat="48.07832" lon="6.95081">
        <ele>798</ele>
        <time>2022-05-23T10:07:08Z</time>
      </trkpt>
      <trkpt lat="48.07826" lon="6.95091">
        <ele>801</ele>
        <time>2022-05-23T10:07:09Z</time>
      </trkpt>
      <trkpt lat="48.07763" lon="6.95131">
        <ele>806</ele>
        <time>2022-05-23T10:07:21Z</time>
      </trkpt>
      <trkpt lat="48.07743" lon="6.95136">
        <ele>804</ele>
        <time>2022-05-23T10:07:25Z</time>
      </trkpt>
      <trkpt lat="48.07709" lon="6.95162">
        <ele>812</ele>
        <time>2022-05-23T10:07:32Z</time>
      </trkpt>
      <trkpt lat="48.0769" lon="6.95172">
        <ele>813</ele>
        <time>2022-05-23T10:07:35Z</time>
      </trkpt>
      <trkpt lat="48.07672" lon="6.95188">
        <ele>818</ele>
        <time>2022-05-23T10:07:39Z</time>
      </trkpt>
      <trkpt lat="48.07635" lon="6.95211">
        <ele>823</ele>
        <time>2022-05-23T10:07:46Z</time>
      </trkpt>
      <trkpt lat="48.07606" lon="6.95221">
        <ele>822</ele>
        <time>2022-05-23T10:07:52Z</time>
      </trkpt>
      <trkpt lat="48.0758" lon="6.95242">
        <ele>826</ele>
        <time>2022-05-23T10:07:57Z</time>
      </trkpt>
      <trkpt lat="48.0757" lon="6.95247">
        <ele>826</ele>
        <time>2022-05-23T10:07:59Z</time>
      </trkpt>
      <trkpt lat="48.07532" lon="6.95264">
        <ele>827</ele>
        <time>2022-05-23T10:08:06Z</time>
      </trkpt>
      <trkpt lat="48.07523" lon="6.95265">
        <ele>826</ele>
        <time>2022-05-23T10:08:07Z</time>
      </trkpt>
      <trkpt lat="48.07494" lon="6.95279">
        <ele>827</ele>
        <time>2022-05-23T10:08:13Z</time>
      </trkpt>
      <trkpt lat="48.07487" lon="6.95289">
        <ele>830</ele>
        <time>2022-05-23T10:08:15Z</time>
      </trkpt>
      <trkpt lat="48.07478" lon="6.95293">
        <ele>829</ele>
        <time>2022-05-23T10:08:16Z</time>
      </trkpt>
      <trkpt lat="48.07452" lon="6.95315">
        <ele>833</ele>
        <time>2022-05-23T10:08:22Z</time>
      </trkpt>
      <trkpt lat="48.07433" lon="6.95326">
        <ele>834</ele>
        <time>2022-05-23T10:08:25Z</time>
      </trkpt>
      <trkpt lat="48.07399" lon="6.95354">
        <ele>838</ele>
        <time>2022-05-23T10:08:32Z</time>
      </trkpt>
      <trkpt lat="48.0739" lon="6.95362">
        <ele>839</ele>
        <time>2022-05-23T10:08:34Z</time>
      </trkpt>
      <trkpt lat="48.07375" lon="6.95384">
        <ele>844</ele>
        <time>2022-05-23T10:08:38Z</time>
      </trkpt>
      <trkpt lat="48.07359" lon="6.95396">
        <ele>844</ele>
        <time>2022-05-23T10:08:41Z</time>
      </trkpt>
      <trkpt lat="48.0734" lon="6.954">
        <ele>839</ele>
        <time>2022-05-23T10:08:44Z</time>
      </trkpt>
      <trkpt lat="48.07331" lon="6.95406">
        <ele>839</ele>
        <time>2022-05-23T10:08:46Z</time>
      </trkpt>
      <trkpt lat="48.07324" lon="6.95416">
        <ele>840</ele>
        <time>2022-05-23T10:08:48Z</time>
      </trkpt>
      <trkpt lat="48.07306" lon="6.9543">
        <ele>840</ele>
        <time>2022-05-23T10:08:51Z</time>
      </trkpt>
      <trkpt lat="48.0729" lon="6.9545">
        <ele>843</ele>
        <time>2022-05-23T10:08:55Z</time>
      </trkpt>
      <trkpt lat="48.07266" lon="6.95473">
        <ele>845</ele>
        <time>2022-05-23T10:09:00Z</time>
      </trkpt>
      <trkpt lat="48.07248" lon="6.95486">
        <ele>845</ele>
        <time>2022-05-23T10:09:04Z</time>
      </trkpt>
      <trkpt lat="48.07227" lon="6.95516">
        <ele>848</ele>
        <time>2022-05-23T10:09:09Z</time>
      </trkpt>
      <trkpt lat="48.07218" lon="6.95524">
        <ele>847</ele>
        <time>2022-05-23T10:09:11Z</time>
      </trkpt>
      <trkpt lat="48.0718" lon="6.95576">
        <ele>853</ele>
        <time>2022-05-23T10:09:20Z</time>
      </trkpt>
      <trkpt lat="48.07165" lon="6.95593">
        <ele>854</ele>
        <time>2022-05-23T10:09:23Z</time>
      </trkpt>
      <trkpt lat="48.07152" lon="6.95617">
        <ele>855</ele>
        <time>2022-05-23T10:09:27Z</time>
      </trkpt>
      <trkpt lat="48.07107" lon="6.95679">
        <ele>852</ele>
        <time>2022-05-23T10:09:38Z</time>
      </trkpt>
      <trkpt lat="48.07087" lon="6.9573">
        <ele>862</ele>
        <time>2022-05-23T10:09:45Z</time>
      </trkpt>
      <trkpt lat="48.07079" lon="6.95741">
        <ele>862</ele>
        <time>2022-05-23T10:09:47Z</time>
      </trkpt>
      <trkpt lat="48.0707" lon="6.95766">
        <ele>864</ele>
        <time>2022-05-23T10:09:50Z</time>
      </trkpt>
      <trkpt lat="48.07057" lon="6.95785">
        <ele>862</ele>
        <time>2022-05-23T10:09:53Z</time>
      </trkpt>
      <trkpt lat="48.07046" lon="6.9581">
        <ele>862</ele>
        <time>2022-05-23T10:09:57Z</time>
      </trkpt>
      <trkpt lat="48.07044" lon="6.95824">
        <ele>865</ele>
        <time>2022-05-23T10:09:59Z</time>
      </trkpt>
      <trkpt lat="48.0703" lon="6.95867">
        <ele>868</ele>
        <time>2022-05-23T10:10:04Z</time>
      </trkpt>
      <trkpt lat="48.07028" lon="6.9588">
        <ele>870</ele>
        <time>2022-05-23T10:10:06Z</time>
      </trkpt>
      <trkpt lat="48.07011" lon="6.95916">
        <ele>869</ele>
        <time>2022-05-23T10:10:11Z</time>
      </trkpt>
      <trkpt lat="48.06995" lon="6.9597">
        <ele>871</ele>
        <time>2022-05-23T10:10:18Z</time>
      </trkpt>
      <trkpt lat="48.06975" lon="6.96023">
        <ele>871</ele>
        <time>2022-05-23T10:10:25Z</time>
      </trkpt>
      <trkpt lat="48.0696" lon="6.9609">
        <ele>878</ele>
        <time>2022-05-23T10:10:34Z</time>
      </trkpt>
      <trkpt lat="48.06922" lon="6.96209">
        <ele>880</ele>
        <time>2022-05-23T10:10:49Z</time>
      </trkpt>
      <trkpt lat="48.06922" lon="6.96238">
        <ele>886</ele>
        <time>2022-05-23T10:10:53Z</time>
      </trkpt>
      <trkpt lat="48.06899" lon="6.96303">
        <ele>888</ele>
        <time>2022-05-23T10:11:02Z</time>
      </trkpt>
      <trkpt lat="48.0689" lon="6.96345">
        <ele>892</ele>
        <time>2022-05-23T10:11:07Z</time>
      </trkpt>
      <trkpt lat="48.0689" lon="6.96361">
        <ele>894</ele>
        <time>2022-05-23T10:11:09Z</time>
      </trkpt>
      <trkpt lat="48.06885" lon="6.96388">
        <ele>896</ele>
        <time>2022-05-23T10:11:12Z</time>
      </trkpt>
      <trkpt lat="48.06876" lon="6.96413">
        <ele>896</ele>
        <time>2022-05-23T10:11:16Z</time>
      </trkpt>
      <trkpt lat="48.06866" lon="6.96455">
        <ele>896</ele>
        <time>2022-05-23T10:11:21Z</time>
      </trkpt>
      <trkpt lat="48.06863" lon="6.9653">
        <ele>903</ele>
        <time>2022-05-23T10:11:30Z</time>
      </trkpt>
      <trkpt lat="48.06856" lon="6.96557">
        <ele>904</ele>
        <time>2022-05-23T10:11:33Z</time>
      </trkpt>
      <trkpt lat="48.06851" lon="6.96569">
        <ele>903</ele>
        <time>2022-05-23T10:11:35Z</time>
      </trkpt>
      <trkpt lat="48.06842" lon="6.96579">
        <ele>901</ele>
        <time>2022-05-23T10:11:37Z</time>
      </trkpt>
      <trkpt lat="48.06837" lon="6.9659">
        <ele>902</ele>
        <time>2022-05-23T10:11:38Z</time>
      </trkpt>
      <trkpt lat="48.068" lon="6.96634">
        <ele>904</ele>
        <time>2022-05-23T10:11:47Z</time>
      </trkpt>
      <trkpt lat="48.06782" lon="6.9665">
        <ele>902</ele>
        <time>2022-05-23T10:11:51Z</time>
      </trkpt>
      <trkpt lat="48.06763" lon="6.96679">
        <ele>903</ele>
        <time>2022-05-23T10:11:55Z</time>
      </trkpt>
      <trkpt lat="48.06749" lon="6.96702">
        <ele>904</ele>
        <time>2022-05-23T10:11:59Z</time>
      </trkpt>
      <trkpt lat="48.06745" lon="6.96715">
        <ele>906</ele>
        <time>2022-05-23T10:12:01Z</time>
      </trkpt>
      <trkpt lat="48.06722" lon="6.96745">
        <ele>906</ele>
        <time>2022-05-23T10:12:06Z</time>
      </trkpt>
      <trkpt lat="48.06711" lon="6.96771">
        <ele>909</ele>
        <time>2022-05-23T10:12:10Z</time>
      </trkpt>
      <trkpt lat="48.06697" lon="6.9679">
        <ele>908</ele>
        <time>2022-05-23T10:12:13Z</time>
      </trkpt>
      <trkpt lat="48.06693" lon="6.96804">
        <ele>910</ele>
        <time>2022-05-23T10:12:15Z</time>
      </trkpt>
      <trkpt lat="48.06675" lon="6.96839">
        <ele>911</ele>
        <time>2022-05-23T10:12:20Z</time>
      </trkpt>
      <trkpt lat="48.0666" lon="6.96857">
        <ele>909</ele>
        <time>2022-05-23T10:12:24Z</time>
      </trkpt>
      <trkpt lat="48.06648" lon="6.96884">
        <ele>911</ele>
        <time>2022-05-23T10:12:28Z</time>
      </trkpt>
      <trkpt lat="48.06641" lon="6.9691">
        <ele>915</ele>
        <time>2022-05-23T10:12:31Z</time>
      </trkpt>
      <trkpt lat="48.06621" lon="6.96941">
        <ele>915</ele>
        <time>2022-05-23T10:12:36Z</time>
      </trkpt>
      <trkpt lat="48.06574" lon="6.97038">
        <ele>922</ele>
        <time>2022-05-23T10:12:50Z</time>
      </trkpt>
      <trkpt lat="48.06558" lon="6.97089">
        <ele>927</ele>
        <time>2022-05-23T10:12:57Z</time>
      </trkpt>
      <trkpt lat="48.0653" lon="6.97154">
        <ele>929</ele>
        <time>2022-05-23T10:13:06Z</time>
      </trkpt>
      <trkpt lat="48.06517" lon="6.97192">
        <ele>931</ele>
        <time>2022-05-23T10:13:11Z</time>
      </trkpt>
      <trkpt lat="48.06488" lon="6.97252">
        <ele>928</ele>
        <time>2022-05-23T10:13:20Z</time>
      </trkpt>
      <trkpt lat="48.0648" lon="6.97279">
        <ele>929</ele>
        <time>2022-05-23T10:13:24Z</time>
      </trkpt>
      <trkpt lat="48.06466" lon="6.9735">
        <ele>933</ele>
        <time>2022-05-23T10:13:32Z</time>
      </trkpt>
      <trkpt lat="48.06468" lon="6.97469">
        <ele>942</ele>
        <time>2022-05-23T10:13:47Z</time>
      </trkpt>
      <trkpt lat="48.06471" lon="6.97499">
        <ele>944</ele>
        <time>2022-05-23T10:13:50Z</time>
      </trkpt>
      <trkpt lat="48.06477" lon="6.97527">
        <ele>945</ele>
        <time>2022-05-23T10:13:54Z</time>
      </trkpt>
      <trkpt lat="48.06486" lon="6.97553">
        <ele>948</ele>
        <time>2022-05-23T10:13:57Z</time>
      </trkpt>
      <trkpt lat="48.06498" lon="6.97574">
        <ele>953</ele>
        <time>2022-05-23T10:14:00Z</time>
      </trkpt>
      <trkpt lat="48.0651" lon="6.97616">
        <ele>956</ele>
        <time>2022-05-23T10:14:06Z</time>
      </trkpt>
      <trkpt lat="48.06512" lon="6.97644">
        <ele>956</ele>
        <time>2022-05-23T10:14:09Z</time>
      </trkpt>
      <trkpt lat="48.06506" lon="6.97732">
        <ele>959</ele>
        <time>2022-05-23T10:14:20Z</time>
      </trkpt>
      <trkpt lat="48.06507" lon="6.97773">
        <ele>962</ele>
        <time>2022-05-23T10:14:25Z</time>
      </trkpt>
      <trkpt lat="48.06515" lon="6.97814">
        <ele>967</ele>
        <time>2022-05-23T10:14:30Z</time>
      </trkpt>
      <trkpt lat="48.06531" lon="6.97868">
        <ele>971</ele>
        <time>2022-05-23T10:14:37Z</time>
      </trkpt>
      <trkpt lat="48.06545" lon="6.97905">
        <ele>972</ele>
        <time>2022-05-23T10:14:42Z</time>
      </trkpt>
      <trkpt lat="48.0658" lon="6.97978">
        <ele>985</ele>
        <time>2022-05-23T10:14:52Z</time>
      </trkpt>
      <trkpt lat="48.06582" lon="6.98006">
        <ele>985</ele>
        <time>2022-05-23T10:14:56Z</time>
      </trkpt>
      <trkpt lat="48.06576" lon="6.98018">
        <ele>985</ele>
        <time>2022-05-23T10:14:58Z</time>
      </trkpt>
      <trkpt lat="48.06568" lon="6.98026">
        <ele>985</ele>
        <time>2022-05-23T10:14:59Z</time>
      </trkpt>
      <trkpt lat="48.06557" lon="6.98032">
        <ele>983</ele>
        <time>2022-05-23T10:15:01Z</time>
      </trkpt>
      <trkpt lat="48.06529" lon="6.98044">
        <ele>981</ele>
        <time>2022-05-23T10:15:07Z</time>
      </trkpt>
      <trkpt lat="48.06473" lon="6.98062">
        <ele>980</ele>
        <time>2022-05-23T10:15:17Z</time>
      </trkpt>
      <trkpt lat="48.06454" lon="6.98071">
        <ele>980</ele>
        <time>2022-05-23T10:15:20Z</time>
      </trkpt>
      <trkpt lat="48.06447" lon="6.9808">
        <ele>983</ele>
        <time>2022-05-23T10:15:22Z</time>
      </trkpt>
      <trkpt lat="48.06429" lon="6.98094">
        <ele>985</ele>
        <time>2022-05-23T10:15:26Z</time>
      </trkpt>
      <trkpt lat="48.06413" lon="6.98114">
        <ele>990</ele>
        <time>2022-05-23T10:15:29Z</time>
      </trkpt>
      <trkpt lat="48.06377" lon="6.98143">
        <ele>986</ele>
        <time>2022-05-23T10:15:37Z</time>
      </trkpt>
      <trkpt lat="48.06364" lon="6.98167">
        <ele>988</ele>
        <time>2022-05-23T10:15:40Z</time>
      </trkpt>
      <trkpt lat="48.06341" lon="6.98191">
        <ele>987</ele>
        <time>2022-05-23T10:15:45Z</time>
      </trkpt>
      <trkpt lat="48.06299" lon="6.98249">
        <ele>991</ele>
        <time>2022-05-23T10:15:55Z</time>
      </trkpt>
      <trkpt lat="48.06274" lon="6.98275">
        <ele>990</ele>
        <time>2022-05-23T10:16:01Z</time>
      </trkpt>
      <trkpt lat="48.06237" lon="6.98324">
        <ele>988</ele>
        <time>2022-05-23T10:16:10Z</time>
      </trkpt>
      <trkpt lat="48.06226" lon="6.98348">
        <ele>990</ele>
        <time>2022-05-23T10:16:13Z</time>
      </trkpt>
      <trkpt lat="48.06211" lon="6.98403">
        <ele>999</ele>
        <time>2022-05-23T10:16:20Z</time>
      </trkpt>
      <trkpt lat="48.06205" lon="6.98415">
        <ele>999</ele>
        <time>2022-05-23T10:16:22Z</time>
      </trkpt>
      <trkpt lat="48.06194" lon="6.98452">
        <ele>993</ele>
        <time>2022-05-23T10:16:27Z</time>
      </trkpt>
      <trkpt lat="48.06192" lon="6.98495">
        <ele>995</ele>
        <time>2022-05-23T10:16:32Z</time>
      </trkpt>
      <trkpt lat="48.06212" lon="6.98591">
        <ele>1007</ele>
        <time>2022-05-23T10:16:44Z</time>
      </trkpt>
      <trkpt lat="48.06222" lon="6.98616">
        <ele>1010</ele>
        <time>2022-05-23T10:16:47Z</time>
      </trkpt>
      <trkpt lat="48.06238" lon="6.98634">
        <ele>1018</ele>
        <time>2022-05-23T10:16:51Z</time>
      </trkpt>
      <trkpt lat="48.06245" lon="6.98645">
        <ele>1020</ele>
        <time>2022-05-23T10:16:53Z</time>
      </trkpt>
      <trkpt lat="48.0625" lon="6.98659">
        <ele>1021</ele>
        <time>2022-05-23T10:16:54Z</time>
      </trkpt>
      <trkpt lat="48.06267" lon="6.98763">
        <ele>1021</ele>
        <time>2022-05-23T10:17:07Z</time>
      </trkpt>
      <trkpt lat="48.0628" lon="6.98806">
        <ele>1022</ele>
        <time>2022-05-23T10:17:13Z</time>
      </trkpt>
      <trkpt lat="48.063" lon="6.98855">
        <ele>1023</ele>
        <time>2022-05-23T10:17:20Z</time>
      </trkpt>
      <trkpt lat="48.0634" lon="6.98918">
        <ele>1026</ele>
        <time>2022-05-23T10:17:30Z</time>
      </trkpt>
      <trkpt lat="48.06364" lon="6.98968">
        <ele>1028</ele>
        <time>2022-05-23T10:17:37Z</time>
      </trkpt>
      <trkpt lat="48.06392" lon="6.99013">
        <ele>1034</ele>
        <time>2022-05-23T10:17:45Z</time>
      </trkpt>
      <trkpt lat="48.06414" lon="6.99043">
        <ele>1040</ele>
        <time>2022-05-23T10:17:50Z</time>
      </trkpt>
      <trkpt lat="48.06419" lon="6.99057">
        <ele>1039</ele>
        <time>2022-05-23T10:17:52Z</time>
      </trkpt>
      <trkpt lat="48.0642" lon="6.99071">
        <ele>1037</ele>
        <time>2022-05-23T10:17:53Z</time>
      </trkpt>
      <trkpt lat="48.06416" lon="6.99086">
        <ele>1033</ele>
        <time>2022-05-23T10:17:55Z</time>
      </trkpt>
      <trkpt lat="48.0639" lon="6.99155">
        <ele>1030</ele>
        <time>2022-05-23T10:18:05Z</time>
      </trkpt>
      <trkpt lat="48.06368" lon="6.99188">
        <ele>1029</ele>
        <time>2022-05-23T10:18:10Z</time>
      </trkpt>
      <trkpt lat="48.0635" lon="6.99207">
        <ele>1028</ele>
        <time>2022-05-23T10:18:14Z</time>
      </trkpt>
      <trkpt lat="48.06343" lon="6.99218">
        <ele>1029</ele>
        <time>2022-05-23T10:18:16Z</time>
      </trkpt>
      <trkpt lat="48.06338" lon="6.99229">
        <ele>1029</ele>
        <time>2022-05-23T10:18:18Z</time>
      </trkpt>
      <trkpt lat="48.06336" lon="6.99244">
        <ele>1031</ele>
        <time>2022-05-23T10:18:19Z</time>
      </trkpt>
      <trkpt lat="48.06342" lon="6.99305">
        <ele>1032</ele>
        <time>2022-05-23T10:18:27Z</time>
      </trkpt>
      <trkpt lat="48.06354" lon="6.99364">
        <ele>1032</ele>
        <time>2022-05-23T10:18:34Z</time>
      </trkpt>
      <trkpt lat="48.06359" lon="6.99378">
        <ele>1033</ele>
        <time>2022-05-23T10:18:36Z</time>
      </trkpt>
      <trkpt lat="48.06363" lon="6.99405">
        <ele>1033</ele>
        <time>2022-05-23T10:18:39Z</time>
      </trkpt>
      <trkpt lat="48.06383" lon="6.99485">
        <ele>1045</ele>
        <time>2022-05-23T10:18:49Z</time>
      </trkpt>
      <trkpt lat="48.06379" lon="6.99512">
        <ele>1048</ele>
        <time>2022-05-23T10:18:53Z</time>
      </trkpt>
      <trkpt lat="48.06371" lon="6.9952">
        <ele>1049</ele>
        <time>2022-05-23T10:18:54Z</time>
      </trkpt>
      <trkpt lat="48.0636" lon="6.99526">
        <ele>1049</ele>
        <time>2022-05-23T10:18:57Z</time>
      </trkpt>
      <trkpt lat="48.0633" lon="6.99536">
        <ele>1047</ele>
        <time>2022-05-23T10:19:02Z</time>
      </trkpt>
      <trkpt lat="48.0632" lon="6.99542">
        <ele>1048</ele>
        <time>2022-05-23T10:19:04Z</time>
      </trkpt>
      <trkpt lat="48.0629" lon="6.99543">
        <ele>1045</ele>
        <time>2022-05-23T10:19:09Z</time>
      </trkpt>
      <trkpt lat="48.06281" lon="6.99546">
        <ele>1045</ele>
        <time>2022-05-23T10:19:11Z</time>
      </trkpt>
      <trkpt lat="48.06238" lon="6.99577">
        <ele>1053</ele>
        <time>2022-05-23T10:19:19Z</time>
      </trkpt>
      <trkpt lat="48.06222" lon="6.99594">
        <ele>1057</ele>
        <time>2022-05-23T10:19:23Z</time>
      </trkpt>
      <trkpt lat="48.06208" lon="6.99616">
        <ele>1062</ele>
        <time>2022-05-23T10:19:27Z</time>
      </trkpt>
      <trkpt lat="48.06191" lon="6.99635">
        <ele>1066</ele>
        <time>2022-05-23T10:19:30Z</time>
      </trkpt>
      <trkpt lat="48.06181" lon="6.99635">
        <ele>1066</ele>
        <time>2022-05-23T10:19:32Z</time>
      </trkpt>
      <trkpt lat="48.06156" lon="6.99611">
        <ele>1062</ele>
        <time>2022-05-23T10:19:37Z</time>
      </trkpt>
      <trkpt lat="48.06133" lon="6.99581">
        <ele>1063</ele>
        <time>2022-05-23T10:19:43Z</time>
      </trkpt>
      <trkpt lat="48.06105" lon="6.9952">
        <ele>1064</ele>
        <time>2022-05-23T10:19:52Z</time>
      </trkpt>
      <trkpt lat="48.06094" lon="6.9948">
        <ele>1060</ele>
        <time>2022-05-23T10:19:57Z</time>
      </trkpt>
      <trkpt lat="48.06051" lon="6.99399">
        <ele>1054</ele>
        <time>2022-05-23T10:20:09Z</time>
      </trkpt>
      <trkpt lat="48.06033" lon="6.99381">
        <ele>1055</ele>
        <time>2022-05-23T10:20:13Z</time>
      </trkpt>
      <trkpt lat="48.06001" lon="6.99342">
        <ele>1053</ele>
        <time>2022-05-23T10:20:20Z</time>
      </trkpt>
      <trkpt lat="48.05991" lon="6.99335">
        <ele>1051</ele>
        <time>2022-05-23T10:20:22Z</time>
      </trkpt>
      <trkpt lat="48.05982" lon="6.99329">
        <ele>1050</ele>
        <time>2022-05-23T10:20:24Z</time>
      </trkpt>
      <trkpt lat="48.05952" lon="6.99321">
        <ele>1047</ele>
        <time>2022-05-23T10:20:29Z</time>
      </trkpt>
      <trkpt lat="48.05941" lon="6.99323">
        <ele>1048</ele>
        <time>2022-05-23T10:20:31Z</time>
      </trkpt>
      <trkpt lat="48.05924" lon="6.99335">
        <ele>1050</ele>
        <time>2022-05-23T10:20:35Z</time>
      </trkpt>
      <trkpt lat="48.05908" lon="6.99356">
        <ele>1053</ele>
        <time>2022-05-23T10:20:38Z</time>
      </trkpt>
      <trkpt lat="48.05871" lon="6.99443">
        <ele>1071</ele>
        <time>2022-05-23T10:20:51Z</time>
      </trkpt>
      <trkpt lat="48.05848" lon="6.99475">
        <ele>1080</ele>
        <time>2022-05-23T10:20:56Z</time>
      </trkpt>
      <trkpt lat="48.05839" lon="6.9948">
        <ele>1080</ele>
        <time>2022-05-23T10:20:58Z</time>
      </trkpt>
      <trkpt lat="48.05828" lon="6.99481">
        <ele>1079</ele>
        <time>2022-05-23T10:21:00Z</time>
      </trkpt>
      <trkpt lat="48.05798" lon="6.99477">
        <ele>1074</ele>
        <time>2022-05-23T10:21:05Z</time>
      </trkpt>
      <trkpt lat="48.05778" lon="6.99481">
        <ele>1074</ele>
        <time>2022-05-23T10:21:09Z</time>
      </trkpt>
      <trkpt lat="48.05749" lon="6.99496">
        <ele>1078</ele>
        <time>2022-05-23T10:21:14Z</time>
      </trkpt>
      <trkpt lat="48.05715" lon="6.9953">
        <ele>1078</ele>
        <time>2022-05-23T10:21:22Z</time>
      </trkpt>
      <trkpt lat="48.05693" lon="6.99556">
        <ele>1079</ele>
        <time>2022-05-23T10:21:27Z</time>
      </trkpt>
      <trkpt lat="48.05669" lon="6.99605">
        <ele>1086</ele>
        <time>2022-05-23T10:21:34Z</time>
      </trkpt>
      <trkpt lat="48.05649" lon="6.99654">
        <ele>1097</ele>
        <time>2022-05-23T10:21:41Z</time>
      </trkpt>
      <trkpt lat="48.05641" lon="6.99664">
        <ele>1098</ele>
        <time>2022-05-23T10:21:43Z</time>
      </trkpt>
      <trkpt lat="48.05632" lon="6.9967">
        <ele>1098</ele>
        <time>2022-05-23T10:21:44Z</time>
      </trkpt>
      <trkpt lat="48.056" lon="6.99665">
        <ele>1088</ele>
        <time>2022-05-23T10:21:50Z</time>
      </trkpt>
      <trkpt lat="48.0558" lon="6.99666">
        <ele>1083</ele>
        <time>2022-05-23T10:21:54Z</time>
      </trkpt>
      <trkpt lat="48.05559" lon="6.99674">
        <ele>1083</ele>
        <time>2022-05-23T10:21:57Z</time>
      </trkpt>
      <trkpt lat="48.05539" lon="6.99687">
        <ele>1085</ele>
        <time>2022-05-23T10:22:01Z</time>
      </trkpt>
      <trkpt lat="48.05522" lon="6.99704">
        <ele>1088</ele>
        <time>2022-05-23T10:22:05Z</time>
      </trkpt>
      <trkpt lat="48.05514" lon="6.99709">
        <ele>1089</ele>
        <time>2022-05-23T10:22:07Z</time>
      </trkpt>
      <trkpt lat="48.05492" lon="6.9974">
        <ele>1096</ele>
        <time>2022-05-23T10:22:12Z</time>
      </trkpt>
      <trkpt lat="48.0548" lon="6.99762">
        <ele>1103</ele>
        <time>2022-05-23T10:22:15Z</time>
      </trkpt>
      <trkpt lat="48.0547" lon="6.9977">
        <ele>1104</ele>
        <time>2022-05-23T10:22:17Z</time>
      </trkpt>
      <trkpt lat="48.05461" lon="6.99774">
        <ele>1104</ele>
        <time>2022-05-23T10:22:19Z</time>
      </trkpt>
      <trkpt lat="48.05431" lon="6.99771">
        <ele>1096</ele>
        <time>2022-05-23T10:22:24Z</time>
      </trkpt>
      <trkpt lat="48.05412" lon="6.99776">
        <ele>1094</ele>
        <time>2022-05-23T10:22:28Z</time>
      </trkpt>
      <trkpt lat="48.05383" lon="6.9979">
        <ele>1092</ele>
        <time>2022-05-23T10:22:33Z</time>
      </trkpt>
      <trkpt lat="48.05358" lon="6.99813">
        <ele>1094</ele>
        <time>2022-05-23T10:22:38Z</time>
      </trkpt>
      <trkpt lat="48.05336" lon="6.99842">
        <ele>1098</ele>
        <time>2022-05-23T10:22:44Z</time>
      </trkpt>
      <trkpt lat="48.05301" lon="6.99917">
        <ele>1105</ele>
        <time>2022-05-23T10:22:55Z</time>
      </trkpt>
      <trkpt lat="48.05292" lon="6.99926">
        <ele>1103</ele>
        <time>2022-05-23T10:22:56Z</time>
      </trkpt>
      <trkpt lat="48.05238" lon="7.00013">
        <ele>1100</ele>
        <time>2022-05-23T10:23:11Z</time>
      </trkpt>
      <trkpt lat="48.05229" lon="7.00038">
        <ele>1100</ele>
        <time>2022-05-23T10:23:14Z</time>
      </trkpt>
      <trkpt lat="48.05221" lon="7.00081">
        <ele>1104</ele>
        <time>2022-05-23T10:23:19Z</time>
      </trkpt>
      <trkpt lat="48.0522" lon="7.00111">
        <ele>1102</ele>
        <time>2022-05-23T10:23:23Z</time>
      </trkpt>
      <trkpt lat="48.05225" lon="7.0014">
        <ele>1103</ele>
        <time>2022-05-23T10:23:26Z</time>
      </trkpt>
      <trkpt lat="48.05244" lon="7.00178">
        <ele>1108</ele>
        <time>2022-05-23T10:23:32Z</time>
      </trkpt>
      <trkpt lat="48.05277" lon="7.00218">
        <ele>1113</ele>
        <time>2022-05-23T10:23:40Z</time>
      </trkpt>
      <trkpt lat="48.05295" lon="7.00233">
        <ele>1116</ele>
        <time>2022-05-23T10:23:43Z</time>
      </trkpt>
      <trkpt lat="48.05302" lon="7.00243">
        <ele>1116</ele>
        <time>2022-05-23T10:23:45Z</time>
      </trkpt>
      <trkpt lat="48.05333" lon="7.00274">
        <ele>1119</ele>
        <time>2022-05-23T10:23:52Z</time>
      </trkpt>
      <trkpt lat="48.05349" lon="7.00297">
        <ele>1117</ele>
        <time>2022-05-23T10:23:56Z</time>
      </trkpt>
      <trkpt lat="48.05371" lon="7.00329">
        <ele>1114</ele>
        <time>2022-05-23T10:24:01Z</time>
      </trkpt>
      <trkpt lat="48.0546" lon="7.00494">
        <ele>1109</ele>
        <time>2022-05-23T10:24:26Z</time>
      </trkpt>
      <trkpt lat="48.05506" lon="7.00573">
        <ele>1119</ele>
        <time>2022-05-23T10:24:39Z</time>
      </trkpt>
      <trkpt lat="48.05539" lon="7.0062">
        <ele>1120</ele>
        <time>2022-05-23T10:24:47Z</time>
      </trkpt>
      <trkpt lat="48.05547" lon="7.00627">
        <ele>1119</ele>
        <time>2022-05-23T10:24:48Z</time>
      </trkpt>
      <trkpt lat="48.05602" lon="7.007">
        <ele>1120</ele>
        <time>2022-05-23T10:25:02Z</time>
      </trkpt>
      <trkpt lat="48.05608" lon="7.00712">
        <ele>1121</ele>
        <time>2022-05-23T10:25:03Z</time>
      </trkpt>
      <trkpt lat="48.05644" lon="7.00755">
        <ele>1119</ele>
        <time>2022-05-23T10:25:12Z</time>
      </trkpt>
      <trkpt lat="48.05661" lon="7.00779">
        <ele>1117</ele>
        <time>2022-05-23T10:25:16Z</time>
      </trkpt>
      <trkpt lat="48.05677" lon="7.00816">
        <ele>1118</ele>
        <time>2022-05-23T10:25:21Z</time>
      </trkpt>
      <trkpt lat="48.05691" lon="7.00869">
        <ele>1120</ele>
        <time>2022-05-23T10:25:28Z</time>
      </trkpt>
      <trkpt lat="48.05697" lon="7.00912">
        <ele>1124</ele>
        <time>2022-05-23T10:25:33Z</time>
      </trkpt>
      <trkpt lat="48.05702" lon="7.00929">
        <ele>1123</ele>
        <time>2022-05-23T10:25:35Z</time>
      </trkpt>
      <trkpt lat="48.05705" lon="7.00965">
        <ele>1126</ele>
        <time>2022-05-23T10:25:39Z</time>
      </trkpt>
      <trkpt lat="48.05707" lon="7.01056">
        <ele>1136</ele>
        <time>2022-05-23T10:25:50Z</time>
      </trkpt>
      <trkpt lat="48.05718" lon="7.01084">
        <ele>1134</ele>
        <time>2022-05-23T10:25:54Z</time>
      </trkpt>
      <trkpt lat="48.05739" lon="7.01111">
        <ele>1131</ele>
        <time>2022-05-23T10:25:59Z</time>
      </trkpt>
      <trkpt lat="48.05759" lon="7.0112">
        <ele>1127</ele>
        <time>2022-05-23T10:26:03Z</time>
      </trkpt>
      <trkpt lat="48.05791" lon="7.0112">
        <ele>1124</ele>
        <time>2022-05-23T10:26:08Z</time>
      </trkpt>
      <trkpt lat="48.05831" lon="7.01137">
        <ele>1123</ele>
        <time>2022-05-23T10:26:16Z</time>
      </trkpt>
      <trkpt lat="48.05849" lon="7.01152">
        <ele>1125</ele>
        <time>2022-05-23T10:26:20Z</time>
      </trkpt>
      <trkpt lat="48.05879" lon="7.0117">
        <ele>1127</ele>
        <time>2022-05-23T10:26:25Z</time>
      </trkpt>
      <trkpt lat="48.0591" lon="7.01183">
        <ele>1127</ele>
        <time>2022-05-23T10:26:31Z</time>
      </trkpt>
      <trkpt lat="48.05934" lon="7.012">
        <ele>1127</ele>
        <time>2022-05-23T10:26:36Z</time>
      </trkpt>
      <trkpt lat="48.06017" lon="7.01284">
        <ele>1132</ele>
        <time>2022-05-23T10:26:54Z</time>
      </trkpt>
      <trkpt lat="48.06092" lon="7.01368">
        <ele>1135</ele>
        <time>2022-05-23T10:27:10Z</time>
      </trkpt>
      <trkpt lat="48.06125" lon="7.01398">
        <ele>1135</ele>
        <time>2022-05-23T10:27:17Z</time>
      </trkpt>
      <trkpt lat="48.06165" lon="7.0144">
        <ele>1134</ele>
        <time>2022-05-23T10:27:26Z</time>
      </trkpt>
      <trkpt lat="48.06203" lon="7.01499">
        <ele>1133</ele>
        <time>2022-05-23T10:27:36Z</time>
      </trkpt>
      <trkpt lat="48.06215" lon="7.01527">
        <ele>1133</ele>
        <time>2022-05-23T10:27:39Z</time>
      </trkpt>
      <trkpt lat="48.0623" lon="7.01554">
        <ele>1131</ele>
        <time>2022-05-23T10:27:44Z</time>
      </trkpt>
      <trkpt lat="48.0624" lon="7.01585">
        <ele>1131</ele>
        <time>2022-05-23T10:27:48Z</time>
      </trkpt>
      <trkpt lat="48.06273" lon="7.01711">
        <ele>1135</ele>
        <time>2022-05-23T10:28:04Z</time>
      </trkpt>
      <trkpt lat="48.06288" lon="7.01785">
        <ele>1136</ele>
        <time>2022-05-23T10:28:13Z</time>
      </trkpt>
      <trkpt lat="48.06291" lon="7.01853">
        <ele>1137</ele>
        <time>2022-05-23T10:28:21Z</time>
      </trkpt>
      <trkpt lat="48.06282" lon="7.01955">
        <ele>1137</ele>
        <time>2022-05-23T10:28:33Z</time>
      </trkpt>
      <trkpt lat="48.06273" lon="7.01988">
        <ele>1137</ele>
        <time>2022-05-23T10:28:38Z</time>
      </trkpt>
      <trkpt lat="48.06244" lon="7.02043">
        <ele>1141</ele>
        <time>2022-05-23T10:28:46Z</time>
      </trkpt>
      <trkpt lat="48.0624" lon="7.02057">
        <ele>1141</ele>
        <time>2022-05-23T10:28:48Z</time>
      </trkpt>
      <trkpt lat="48.0624" lon="7.02071">
        <ele>1141</ele>
        <time>2022-05-23T10:28:49Z</time>
      </trkpt>
      <trkpt lat="48.06244" lon="7.02086">
        <ele>1140</ele>
        <time>2022-05-23T10:28:51Z</time>
      </trkpt>
      <trkpt lat="48.06252" lon="7.02095">
        <ele>1140</ele>
        <time>2022-05-23T10:28:53Z</time>
      </trkpt>
      <trkpt lat="48.06285" lon="7.021">
        <ele>1137</ele>
        <time>2022-05-23T10:28:59Z</time>
      </trkpt>
      <trkpt lat="48.06305" lon="7.02118">
        <ele>1136</ele>
        <time>2022-05-23T10:29:03Z</time>
      </trkpt>
      <trkpt lat="48.06331" lon="7.02153">
        <ele>1136</ele>
        <time>2022-05-23T10:29:09Z</time>
      </trkpt>
      <trkpt lat="48.06373" lon="7.0222">
        <ele>1139</ele>
        <time>2022-05-23T10:29:20Z</time>
      </trkpt>
      <trkpt lat="48.06408" lon="7.02255">
        <ele>1140</ele>
        <time>2022-05-23T10:29:28Z</time>
      </trkpt>
      <trkpt lat="48.06417" lon="7.02285">
        <ele>1142</ele>
        <time>2022-05-23T10:29:32Z</time>
      </trkpt>
      <trkpt lat="48.06416" lon="7.02299">
        <ele>1143</ele>
        <time>2022-05-23T10:29:33Z</time>
      </trkpt>
      <trkpt lat="48.06411" lon="7.02313">
        <ele>1144</ele>
        <time>2022-05-23T10:29:35Z</time>
      </trkpt>
      <trkpt lat="48.06411" lon="7.02327">
        <ele>1146</ele>
        <time>2022-05-23T10:29:37Z</time>
      </trkpt>
      <trkpt lat="48.06392" lon="7.02339">
        <ele>1147</ele>
        <time>2022-05-23T10:29:41Z</time>
      </trkpt>
      <trkpt lat="48.06381" lon="7.02315">
        <ele>1146</ele>
        <time>2022-05-23T10:29:44Z</time>
      </trkpt>
      <trkpt lat="48.06388" lon="7.02307">
        <ele>1145</ele>
        <time>2022-05-23T10:29:46Z</time>
      </trkpt>
      <trkpt lat="48.06384" lon="7.02295">
        <ele>1144</ele>
        <time>2022-05-23T10:29:47Z</time>
      </trkpt>
      <trkpt lat="48.06385" lon="7.02312">
        <ele>1145</ele>
        <time>2022-05-23T10:29:49Z</time>
      </trkpt>
      <trkpt lat="48.06383" lon="7.02299">
        <ele>1144</ele>
        <time>2022-05-23T10:29:51Z</time>
      </trkpt>
      <trkpt lat="48.06374" lon="7.02294">
        <ele>1144</ele>
        <time>2022-05-23T10:29:53Z</time>
      </trkpt>
      <trkpt lat="48.06378" lon="7.02253">
        <ele>1142</ele>
        <time>2022-05-23T10:29:57Z</time>
      </trkpt>
      <trkpt lat="48.06371" lon="7.02244">
        <ele>1141</ele>
        <time>2022-05-23T10:29:59Z</time>
      </trkpt>
      <trkpt lat="48.06362" lon="7.02242">
        <ele>1142</ele>
        <time>2022-05-23T10:30:01Z</time>
      </trkpt>
      <trkpt lat="48.06375" lon="7.0231">
        <ele>1145</ele>
        <time>2022-05-23T10:30:09Z</time>
      </trkpt>
      <trkpt lat="48.0637" lon="7.02324">
        <ele>1147</ele>
        <time>2022-05-23T10:30:11Z</time>
      </trkpt>
      <trkpt lat="48.0637" lon="7.0234">
        <ele>1147</ele>
        <time>2022-05-23T10:30:13Z</time>
      </trkpt>
      <trkpt lat="48.06371" lon="7.02354">
        <ele>1147</ele>
        <time>2022-05-23T10:30:15Z</time>
      </trkpt>
      <trkpt lat="48.0638" lon="7.02392">
        <ele>1149</ele>
        <time>2022-05-23T10:30:19Z</time>
      </trkpt>
      <trkpt lat="48.06372" lon="7.02404">
        <ele>1148</ele>
        <time>2022-05-23T10:30:21Z</time>
      </trkpt>
      <trkpt lat="48.06369" lon="7.02417">
        <ele>1148</ele>
        <time>2022-05-23T10:30:23Z</time>
      </trkpt>
      <trkpt lat="48.06367" lon="7.02432">
        <ele>1146</ele>
        <time>2022-05-23T10:30:25Z</time>
      </trkpt>
      <trkpt lat="48.06369" lon="7.02464">
        <ele>1143</ele>
        <time>2022-05-23T10:30:29Z</time>
      </trkpt>
      <trkpt lat="48.06395" lon="7.02546">
        <ele>1142</ele>
        <time>2022-05-23T10:30:40Z</time>
      </trkpt>
      <trkpt lat="48.06414" lon="7.02638">
        <ele>1142</ele>
        <time>2022-05-23T10:30:51Z</time>
      </trkpt>
      <trkpt lat="48.06417" lon="7.02727">
        <ele>1133</ele>
        <time>2022-05-23T10:31:02Z</time>
      </trkpt>
      <trkpt lat="48.06423" lon="7.028">
        <ele>1133</ele>
        <time>2022-05-23T10:31:10Z</time>
      </trkpt>
      <trkpt lat="48.06421" lon="7.02847">
        <ele>1131</ele>
        <time>2022-05-23T10:31:16Z</time>
      </trkpt>
      <trkpt lat="48.06405" lon="7.02927">
        <ele>1119</ele>
        <time>2022-05-23T10:31:26Z</time>
      </trkpt>
      <trkpt lat="48.06391" lon="7.0297">
        <ele>1109</ele>
        <time>2022-05-23T10:31:32Z</time>
      </trkpt>
      <trkpt lat="48.06376" lon="7.02999">
        <ele>1097</ele>
        <time>2022-05-23T10:31:36Z</time>
      </trkpt>
      <trkpt lat="48.06369" lon="7.03029">
        <ele>1094</ele>
        <time>2022-05-23T10:31:40Z</time>
      </trkpt>
      <trkpt lat="48.06376" lon="7.03038">
        <ele>1102</ele>
        <time>2022-05-23T10:31:41Z</time>
      </trkpt>
      <trkpt lat="48.06391" lon="7.03118">
        <ele>1120</ele>
        <time>2022-05-23T10:31:51Z</time>
      </trkpt>
      <trkpt lat="48.06393" lon="7.03139">
        <ele>1122</ele>
        <time>2022-05-23T10:31:54Z</time>
      </trkpt>
      <trkpt lat="48.06387" lon="7.03181">
        <ele>1115</ele>
        <time>2022-05-23T10:31:59Z</time>
      </trkpt>
      <trkpt lat="48.06377" lon="7.03201">
        <ele>1107</ele>
        <time>2022-05-23T10:32:02Z</time>
      </trkpt>
      <trkpt lat="48.06367" lon="7.03247">
        <ele>1100</ele>
        <time>2022-05-23T10:32:08Z</time>
      </trkpt>
      <trkpt lat="48.06353" lon="7.03371">
        <ele>1090</ele>
        <time>2022-05-23T10:32:22Z</time>
      </trkpt>
      <trkpt lat="48.06355" lon="7.03396">
        <ele>1089</ele>
        <time>2022-05-23T10:32:25Z</time>
      </trkpt>
      <trkpt lat="48.06372" lon="7.03441">
        <ele>1098</ele>
        <time>2022-05-23T10:32:32Z</time>
      </trkpt>
      <trkpt lat="48.06378" lon="7.03466">
        <ele>1100</ele>
        <time>2022-05-23T10:32:35Z</time>
      </trkpt>
      <trkpt lat="48.06377" lon="7.03538">
        <ele>1099</ele>
        <time>2022-05-23T10:32:43Z</time>
      </trkpt>
      <trkpt lat="48.06365" lon="7.03579">
        <ele>1094</ele>
        <time>2022-05-23T10:32:49Z</time>
      </trkpt>
      <trkpt lat="48.06325" lon="7.03644">
        <ele>1083</ele>
        <time>2022-05-23T10:32:59Z</time>
      </trkpt>
      <trkpt lat="48.06313" lon="7.03668">
        <ele>1081</ele>
        <time>2022-05-23T10:33:03Z</time>
      </trkpt>
      <trkpt lat="48.06302" lon="7.03753">
        <ele>1085</ele>
        <time>2022-05-23T10:33:13Z</time>
      </trkpt>
      <trkpt lat="48.06283" lon="7.03821">
        <ele>1085</ele>
        <time>2022-05-23T10:33:22Z</time>
      </trkpt>
      <trkpt lat="48.06277" lon="7.03833">
        <ele>1085</ele>
        <time>2022-05-23T10:33:24Z</time>
      </trkpt>
      <trkpt lat="48.06246" lon="7.03877">
        <ele>1083</ele>
        <time>2022-05-23T10:33:31Z</time>
      </trkpt>
      <trkpt lat="48.06234" lon="7.03898">
        <ele>1083</ele>
        <time>2022-05-23T10:33:34Z</time>
      </trkpt>
      <trkpt lat="48.06165" lon="7.03978">
        <ele>1073</ele>
        <time>2022-05-23T10:33:50Z</time>
      </trkpt>
      <trkpt lat="48.06132" lon="7.04033">
        <ele>1069</ele>
        <time>2022-05-23T10:33:59Z</time>
      </trkpt>
      <trkpt lat="48.06109" lon="7.04084">
        <ele>1069</ele>
        <time>2022-05-23T10:34:06Z</time>
      </trkpt>
      <trkpt lat="48.06096" lon="7.04106">
        <ele>1066</ele>
        <time>2022-05-23T10:34:10Z</time>
      </trkpt>
      <trkpt lat="48.06088" lon="7.04115">
        <ele>1064</ele>
        <time>2022-05-23T10:34:11Z</time>
      </trkpt>
      <trkpt lat="48.06059" lon="7.04133">
        <ele>1051</ele>
        <time>2022-05-23T10:34:17Z</time>
      </trkpt>
      <trkpt lat="48.06046" lon="7.0415">
        <ele>1047</ele>
        <time>2022-05-23T10:34:20Z</time>
      </trkpt>
      <trkpt lat="48.06044" lon="7.04172">
        <ele>1050</ele>
        <time>2022-05-23T10:34:23Z</time>
      </trkpt>
      <trkpt lat="48.06076" lon="7.04286">
        <ele>1054</ele>
        <time>2022-05-23T10:34:37Z</time>
      </trkpt>
      <trkpt lat="48.06095" lon="7.04313">
        <ele>1052</ele>
        <time>2022-05-23T10:34:42Z</time>
      </trkpt>
      <trkpt lat="48.06112" lon="7.04323">
        <ele>1052</ele>
        <time>2022-05-23T10:34:45Z</time>
      </trkpt>
      <trkpt lat="48.06129" lon="7.04326">
        <ele>1054</ele>
        <time>2022-05-23T10:34:48Z</time>
      </trkpt>
      <trkpt lat="48.06166" lon="7.04324">
        <ele>1060</ele>
        <time>2022-05-23T10:34:55Z</time>
      </trkpt>
      <trkpt lat="48.06185" lon="7.04328">
        <ele>1059</ele>
        <time>2022-05-23T10:34:58Z</time>
      </trkpt>
      <trkpt lat="48.06299" lon="7.04364">
        <ele>1053</ele>
        <time>2022-05-23T10:35:19Z</time>
      </trkpt>
      <trkpt lat="48.06339" lon="7.04365">
        <ele>1052</ele>
        <time>2022-05-23T10:35:26Z</time>
      </trkpt>
      <trkpt lat="48.06432" lon="7.0436">
        <ele>1047</ele>
        <time>2022-05-23T10:35:43Z</time>
      </trkpt>
      <trkpt lat="48.06464" lon="7.04364">
        <ele>1043</ele>
        <time>2022-05-23T10:35:48Z</time>
      </trkpt>
      <trkpt lat="48.06495" lon="7.04377">
        <ele>1039</ele>
        <time>2022-05-23T10:35:54Z</time>
      </trkpt>
      <trkpt lat="48.06516" lon="7.04381">
        <ele>1035</ele>
        <time>2022-05-23T10:35:58Z</time>
      </trkpt>
      <trkpt lat="48.06527" lon="7.04379">
        <ele>1033</ele>
        <time>2022-05-23T10:36:00Z</time>
      </trkpt>
      <trkpt lat="48.06547" lon="7.0437">
        <ele>1030</ele>
        <time>2022-05-23T10:36:04Z</time>
      </trkpt>
      <trkpt lat="48.06565" lon="7.04353">
        <ele>1029</ele>
        <time>2022-05-23T10:36:07Z</time>
      </trkpt>
      <trkpt lat="48.06572" lon="7.04342">
        <ele>1030</ele>
        <time>2022-05-23T10:36:09Z</time>
      </trkpt>
      <trkpt lat="48.06609" lon="7.04262">
        <ele>1030</ele>
        <time>2022-05-23T10:36:21Z</time>
      </trkpt>
      <trkpt lat="48.06635" lon="7.04232">
        <ele>1027</ele>
        <time>2022-05-23T10:36:27Z</time>
      </trkpt>
      <trkpt lat="48.06665" lon="7.04215">
        <ele>1021</ele>
        <time>2022-05-23T10:36:32Z</time>
      </trkpt>
      <trkpt lat="48.06673" lon="7.04204">
        <ele>1020</ele>
        <time>2022-05-23T10:36:34Z</time>
      </trkpt>
      <trkpt lat="48.06685" lon="7.04179">
        <ele>1020</ele>
        <time>2022-05-23T10:36:38Z</time>
      </trkpt>
      <trkpt lat="48.06745" lon="7.04032">
        <ele>1016</ele>
        <time>2022-05-23T10:36:58Z</time>
      </trkpt>
      <trkpt lat="48.0676" lon="7.0399">
        <ele>1017</ele>
        <time>2022-05-23T10:37:04Z</time>
      </trkpt>
      <trkpt lat="48.06767" lon="7.03961">
        <ele>1018</ele>
        <time>2022-05-23T10:37:08Z</time>
      </trkpt>
      <trkpt lat="48.06777" lon="7.03887">
        <ele>1020</ele>
        <time>2022-05-23T10:37:17Z</time>
      </trkpt>
      <trkpt lat="48.06785" lon="7.03858">
        <ele>1019</ele>
        <time>2022-05-23T10:37:20Z</time>
      </trkpt>
      <trkpt lat="48.06801" lon="7.03819">
        <ele>1017</ele>
        <time>2022-05-23T10:37:26Z</time>
      </trkpt>
      <trkpt lat="48.06818" lon="7.03805">
        <ele>1014</ele>
        <time>2022-05-23T10:37:29Z</time>
      </trkpt>
      <trkpt lat="48.06839" lon="7.03806">
        <ele>1013</ele>
        <time>2022-05-23T10:37:33Z</time>
      </trkpt>
      <trkpt lat="48.06848" lon="7.03812">
        <ele>1014</ele>
        <time>2022-05-23T10:37:35Z</time>
      </trkpt>
      <trkpt lat="48.06855" lon="7.03821">
        <ele>1015</ele>
        <time>2022-05-23T10:37:36Z</time>
      </trkpt>
      <trkpt lat="48.06865" lon="7.03846">
        <ele>1017</ele>
        <time>2022-05-23T10:37:40Z</time>
      </trkpt>
      <trkpt lat="48.06866" lon="7.03871">
        <ele>1018</ele>
        <time>2022-05-23T10:37:43Z</time>
      </trkpt>
      <trkpt lat="48.06862" lon="7.03895">
        <ele>1018</ele>
        <time>2022-05-23T10:37:46Z</time>
      </trkpt>
      <trkpt lat="48.06839" lon="7.03959">
        <ele>1015</ele>
        <time>2022-05-23T10:37:55Z</time>
      </trkpt>
      <trkpt lat="48.06813" lon="7.04051">
        <ele>1009</ele>
        <time>2022-05-23T10:38:06Z</time>
      </trkpt>
      <trkpt lat="48.06777" lon="7.04156">
        <ele>1000</ele>
        <time>2022-05-23T10:38:20Z</time>
      </trkpt>
      <trkpt lat="48.0676" lon="7.0419">
        <ele>998</ele>
        <time>2022-05-23T10:38:25Z</time>
      </trkpt>
      <trkpt lat="48.06733" lon="7.04227">
        <ele>999</ele>
        <time>2022-05-23T10:38:32Z</time>
      </trkpt>
      <trkpt lat="48.06713" lon="7.04267">
        <ele>998</ele>
        <time>2022-05-23T10:38:38Z</time>
      </trkpt>
      <trkpt lat="48.06698" lon="7.04316">
        <ele>995</ele>
        <time>2022-05-23T10:38:44Z</time>
      </trkpt>
      <trkpt lat="48.06679" lon="7.04391">
        <ele>988</ele>
        <time>2022-05-23T10:38:54Z</time>
      </trkpt>
      <trkpt lat="48.06665" lon="7.04428">
        <ele>986</ele>
        <time>2022-05-23T10:38:59Z</time>
      </trkpt>
      <trkpt lat="48.06637" lon="7.04481">
        <ele>987</ele>
        <time>2022-05-23T10:39:07Z</time>
      </trkpt>
      <trkpt lat="48.06608" lon="7.04524">
        <ele>987</ele>
        <time>2022-05-23T10:39:14Z</time>
      </trkpt>
      <trkpt lat="48.06576" lon="7.04578">
        <ele>983</ele>
        <time>2022-05-23T10:39:23Z</time>
      </trkpt>
      <trkpt lat="48.06527" lon="7.04629">
        <ele>981</ele>
        <time>2022-05-23T10:39:33Z</time>
      </trkpt>
      <trkpt lat="48.065" lon="7.04653">
        <ele>980</ele>
        <time>2022-05-23T10:39:39Z</time>
      </trkpt>
      <trkpt lat="48.06472" lon="7.04672">
        <ele>975</ele>
        <time>2022-05-23T10:39:44Z</time>
      </trkpt>
      <trkpt lat="48.06462" lon="7.04674">
        <ele>975</ele>
        <time>2022-05-23T10:39:46Z</time>
      </trkpt>
      <trkpt lat="48.06441" lon="7.04672">
        <ele>976</ele>
        <time>2022-05-23T10:39:50Z</time>
      </trkpt>
      <trkpt lat="48.06389" lon="7.04662">
        <ele>978</ele>
        <time>2022-05-23T10:39:59Z</time>
      </trkpt>
      <trkpt lat="48.06366" lon="7.04664">
        <ele>977</ele>
        <time>2022-05-23T10:40:03Z</time>
      </trkpt>
      <trkpt lat="48.06326" lon="7.0467">
        <ele>974</ele>
        <time>2022-05-23T10:40:11Z</time>
      </trkpt>
      <trkpt lat="48.06286" lon="7.04684">
        <ele>970</ele>
        <time>2022-05-23T10:40:18Z</time>
      </trkpt>
      <trkpt lat="48.06237" lon="7.04693">
        <ele>968</ele>
        <time>2022-05-23T10:40:27Z</time>
      </trkpt>
      <trkpt lat="48.06217" lon="7.04689">
        <ele>969</ele>
        <time>2022-05-23T10:40:30Z</time>
      </trkpt>
      <trkpt lat="48.06183" lon="7.04665">
        <ele>974</ele>
        <time>2022-05-23T10:40:37Z</time>
      </trkpt>
      <trkpt lat="48.06167" lon="7.04659">
        <ele>976</ele>
        <time>2022-05-23T10:40:40Z</time>
      </trkpt>
      <trkpt lat="48.06153" lon="7.04665">
        <ele>973</ele>
        <time>2022-05-23T10:40:43Z</time>
      </trkpt>
      <trkpt lat="48.06146" lon="7.04679">
        <ele>970</ele>
        <time>2022-05-23T10:40:45Z</time>
      </trkpt>
      <trkpt lat="48.06145" lon="7.04693">
        <ele>967</ele>
        <time>2022-05-23T10:40:46Z</time>
      </trkpt>
      <trkpt lat="48.06148" lon="7.04707">
        <ele>964</ele>
        <time>2022-05-23T10:40:48Z</time>
      </trkpt>
      <trkpt lat="48.06155" lon="7.04717">
        <ele>962</ele>
        <time>2022-05-23T10:40:50Z</time>
      </trkpt>
      <trkpt lat="48.06166" lon="7.04722">
        <ele>961</ele>
        <time>2022-05-23T10:40:52Z</time>
      </trkpt>
      <trkpt lat="48.06175" lon="7.04721">
        <ele>962</ele>
        <time>2022-05-23T10:40:53Z</time>
      </trkpt>
      <trkpt lat="48.06183" lon="7.04713">
        <ele>963</ele>
        <time>2022-05-23T10:40:55Z</time>
      </trkpt>
      <trkpt lat="48.06174" lon="7.04712">
        <ele>964</ele>
        <time>2022-05-23T10:40:57Z</time>
      </trkpt>
      <trkpt lat="48.06165" lon="7.04719">
        <ele>962</ele>
        <time>2022-05-23T10:40:59Z</time>
      </trkpt>
      <trkpt lat="48.06155" lon="7.04718">
        <ele>962</ele>
        <time>2022-05-23T10:41:00Z</time>
      </trkpt>
      <trkpt lat="48.06135" lon="7.04708">
        <ele>963</ele>
        <time>2022-05-23T10:41:04Z</time>
      </trkpt>
      <trkpt lat="48.06118" lon="7.04694">
        <ele>965</ele>
        <time>2022-05-23T10:41:07Z</time>
      </trkpt>
      <trkpt lat="48.06129" lon="7.0469">
        <ele>966</ele>
        <time>2022-05-23T10:41:10Z</time>
      </trkpt>
      <trkpt lat="48.06137" lon="7.04701">
        <ele>965</ele>
        <time>2022-05-23T10:41:11Z</time>
      </trkpt>
      <trkpt lat="48.06144" lon="7.04717">
        <ele>962</ele>
        <time>2022-05-23T10:41:14Z</time>
      </trkpt>
      <trkpt lat="48.06155" lon="7.04725">
        <ele>960</ele>
        <time>2022-05-23T10:41:16Z</time>
      </trkpt>
      <trkpt lat="48.06179" lon="7.04724">
        <ele>961</ele>
        <time>2022-05-23T10:41:20Z</time>
      </trkpt>
      <trkpt lat="48.06201" lon="7.04717">
        <ele>962</ele>
        <time>2022-05-23T10:41:24Z</time>
      </trkpt>
      <trkpt lat="48.06227" lon="7.04714">
        <ele>963</ele>
        <time>2022-05-23T10:41:29Z</time>
      </trkpt>
      <trkpt lat="48.06286" lon="7.04712">
        <ele>963</ele>
        <time>2022-05-23T10:41:39Z</time>
      </trkpt>
      <trkpt lat="48.06334" lon="7.04717">
        <ele>962</ele>
        <time>2022-05-23T10:41:48Z</time>
      </trkpt>
      <trkpt lat="48.06351" lon="7.04729">
        <ele>960</ele>
        <time>2022-05-23T10:41:51Z</time>
      </trkpt>
      <trkpt lat="48.06366" lon="7.0475">
        <ele>956</ele>
        <time>2022-05-23T10:41:55Z</time>
      </trkpt>
      <trkpt lat="48.06378" lon="7.04793">
        <ele>950</ele>
        <time>2022-05-23T10:42:00Z</time>
      </trkpt>
      <trkpt lat="48.06388" lon="7.04819">
        <ele>947</ele>
        <time>2022-05-23T10:42:04Z</time>
      </trkpt>
      <trkpt lat="48.06395" lon="7.04829">
        <ele>946</ele>
        <time>2022-05-23T10:42:06Z</time>
      </trkpt>
      <trkpt lat="48.06421" lon="7.04851">
        <ele>944</ele>
        <time>2022-05-23T10:42:11Z</time>
      </trkpt>
      <trkpt lat="48.0644" lon="7.04851">
        <ele>943</ele>
        <time>2022-05-23T10:42:14Z</time>
      </trkpt>
      <trkpt lat="48.06476" lon="7.04839">
        <ele>943</ele>
        <time>2022-05-23T10:42:21Z</time>
      </trkpt>
      <trkpt lat="48.06489" lon="7.04828">
        <ele>944</ele>
        <time>2022-05-23T10:42:24Z</time>
      </trkpt>
      <trkpt lat="48.0651" lon="7.04799">
        <ele>947</ele>
        <time>2022-05-23T10:42:29Z</time>
      </trkpt>
      <trkpt lat="48.06537" lon="7.04777">
        <ele>945</ele>
        <time>2022-05-23T10:42:34Z</time>
      </trkpt>
      <trkpt lat="48.06552" lon="7.04769">
        <ele>943</ele>
        <time>2022-05-23T10:42:37Z</time>
      </trkpt>
      <trkpt lat="48.06571" lon="7.04766">
        <ele>940</ele>
        <time>2022-05-23T10:42:40Z</time>
      </trkpt>
      <trkpt lat="48.06592" lon="7.04771">
        <ele>937</ele>
        <time>2022-05-23T10:42:44Z</time>
      </trkpt>
      <trkpt lat="48.06624" lon="7.04786">
        <ele>934</ele>
        <time>2022-05-23T10:42:50Z</time>
      </trkpt>
      <trkpt lat="48.06645" lon="7.048">
        <ele>931</ele>
        <time>2022-05-23T10:42:54Z</time>
      </trkpt>
      <trkpt lat="48.06684" lon="7.04818">
        <ele>927</ele>
        <time>2022-05-23T10:43:01Z</time>
      </trkpt>
      <trkpt lat="48.06693" lon="7.0482">
        <ele>927</ele>
        <time>2022-05-23T10:43:03Z</time>
      </trkpt>
      <trkpt lat="48.06714" lon="7.04817">
        <ele>926</ele>
        <time>2022-05-23T10:43:07Z</time>
      </trkpt>
      <trkpt lat="48.06723" lon="7.04812">
        <ele>926</ele>
        <time>2022-05-23T10:43:09Z</time>
      </trkpt>
      <trkpt lat="48.06741" lon="7.04796">
        <ele>927</ele>
        <time>2022-05-23T10:43:12Z</time>
      </trkpt>
      <trkpt lat="48.06802" lon="7.04724">
        <ele>923</ele>
        <time>2022-05-23T10:43:26Z</time>
      </trkpt>
      <trkpt lat="48.06811" lon="7.04716">
        <ele>922</ele>
        <time>2022-05-23T10:43:28Z</time>
      </trkpt>
      <trkpt lat="48.06822" lon="7.04711">
        <ele>919</ele>
        <time>2022-05-23T10:43:30Z</time>
      </trkpt>
      <trkpt lat="48.06843" lon="7.04711">
        <ele>916</ele>
        <time>2022-05-23T10:43:34Z</time>
      </trkpt>
      <trkpt lat="48.06864" lon="7.04721">
        <ele>916</ele>
        <time>2022-05-23T10:43:38Z</time>
      </trkpt>
      <trkpt lat="48.06887" lon="7.04752">
        <ele>915</ele>
        <time>2022-05-23T10:43:43Z</time>
      </trkpt>
      <trkpt lat="48.069" lon="7.0478">
        <ele>915</ele>
        <time>2022-05-23T10:43:47Z</time>
      </trkpt>
      <trkpt lat="48.06912" lon="7.04854">
        <ele>915</ele>
        <time>2022-05-23T10:43:56Z</time>
      </trkpt>
      <trkpt lat="48.06911" lon="7.0487">
        <ele>915</ele>
        <time>2022-05-23T10:43:58Z</time>
      </trkpt>
      <trkpt lat="48.06862" lon="7.0514">
        <ele>907</ele>
        <time>2022-05-23T10:44:31Z</time>
      </trkpt>
      <trkpt lat="48.06852" lon="7.0523">
        <ele>904</ele>
        <time>2022-05-23T10:44:42Z</time>
      </trkpt>
      <trkpt lat="48.06843" lon="7.0535">
        <ele>899</ele>
        <time>2022-05-23T10:44:57Z</time>
      </trkpt>
      <trkpt lat="48.06834" lon="7.05379">
        <ele>897</ele>
        <time>2022-05-23T10:45:00Z</time>
      </trkpt>
      <trkpt lat="48.06799" lon="7.05453">
        <ele>891</ele>
        <time>2022-05-23T10:45:11Z</time>
      </trkpt>
      <trkpt lat="48.06785" lon="7.05478">
        <ele>888</ele>
        <time>2022-05-23T10:45:15Z</time>
      </trkpt>
      <trkpt lat="48.06762" lon="7.05511">
        <ele>883</ele>
        <time>2022-05-23T10:45:21Z</time>
      </trkpt>
      <trkpt lat="48.06737" lon="7.05559">
        <ele>880</ele>
        <time>2022-05-23T10:45:28Z</time>
      </trkpt>
      <trkpt lat="48.06702" lon="7.05667">
        <ele>878</ele>
        <time>2022-05-23T10:45:42Z</time>
      </trkpt>
      <trkpt lat="48.06686" lon="7.05742">
        <ele>877</ele>
        <time>2022-05-23T10:45:52Z</time>
      </trkpt>
      <trkpt lat="48.06685" lon="7.05759">
        <ele>876</ele>
        <time>2022-05-23T10:45:54Z</time>
      </trkpt>
      <trkpt lat="48.06689" lon="7.0579">
        <ele>874</ele>
        <time>2022-05-23T10:45:57Z</time>
      </trkpt>
      <trkpt lat="48.06692" lon="7.05805">
        <ele>874</ele>
        <time>2022-05-23T10:45:59Z</time>
      </trkpt>
      <trkpt lat="48.06703" lon="7.05832">
        <ele>873</ele>
        <time>2022-05-23T10:46:03Z</time>
      </trkpt>
      <trkpt lat="48.06715" lon="7.05856">
        <ele>872</ele>
        <time>2022-05-23T10:46:07Z</time>
      </trkpt>
      <trkpt lat="48.06729" lon="7.05876">
        <ele>871</ele>
        <time>2022-05-23T10:46:10Z</time>
      </trkpt>
      <trkpt lat="48.06744" lon="7.05891">
        <ele>871</ele>
        <time>2022-05-23T10:46:13Z</time>
      </trkpt>
      <trkpt lat="48.06765" lon="7.05903">
        <ele>873</ele>
        <time>2022-05-23T10:46:17Z</time>
      </trkpt>
      <trkpt lat="48.06773" lon="7.05912">
        <ele>873</ele>
        <time>2022-05-23T10:46:19Z</time>
      </trkpt>
      <trkpt lat="48.06779" lon="7.05935">
        <ele>873</ele>
        <time>2022-05-23T10:46:22Z</time>
      </trkpt>
      <trkpt lat="48.06778" lon="7.05949">
        <ele>873</ele>
        <time>2022-05-23T10:46:24Z</time>
      </trkpt>
      <trkpt lat="48.06767" lon="7.05968">
        <ele>871</ele>
        <time>2022-05-23T10:46:27Z</time>
      </trkpt>
      <trkpt lat="48.06759" lon="7.05974">
        <ele>870</ele>
        <time>2022-05-23T10:46:28Z</time>
      </trkpt>
      <trkpt lat="48.06734" lon="7.05987">
        <ele>866</ele>
        <time>2022-05-23T10:46:33Z</time>
      </trkpt>
      <trkpt lat="48.06699" lon="7.06012">
        <ele>863</ele>
        <time>2022-05-23T10:46:40Z</time>
      </trkpt>
      <trkpt lat="48.06661" lon="7.06025">
        <ele>860</ele>
        <time>2022-05-23T10:46:47Z</time>
      </trkpt>
      <trkpt lat="48.06622" lon="7.06029">
        <ele>859</ele>
        <time>2022-05-23T10:46:54Z</time>
      </trkpt>
      <trkpt lat="48.06602" lon="7.06026">
        <ele>857</ele>
        <time>2022-05-23T10:46:57Z</time>
      </trkpt>
      <trkpt lat="48.06554" lon="7.0601">
        <ele>853</ele>
        <time>2022-05-23T10:47:06Z</time>
      </trkpt>
      <trkpt lat="48.06518" lon="7.05992">
        <ele>850</ele>
        <time>2022-05-23T10:47:13Z</time>
      </trkpt>
      <trkpt lat="48.06492" lon="7.05986">
        <ele>847</ele>
        <time>2022-05-23T10:47:18Z</time>
      </trkpt>
      <trkpt lat="48.06473" lon="7.05987">
        <ele>844</ele>
        <time>2022-05-23T10:47:21Z</time>
      </trkpt>
      <trkpt lat="48.06446" lon="7.05999">
        <ele>842</ele>
        <time>2022-05-23T10:47:26Z</time>
      </trkpt>
      <trkpt lat="48.06427" lon="7.06026">
        <ele>843</ele>
        <time>2022-05-23T10:47:31Z</time>
      </trkpt>
      <trkpt lat="48.06404" lon="7.06066">
        <ele>843</ele>
        <time>2022-05-23T10:47:37Z</time>
      </trkpt>
      <trkpt lat="48.06377" lon="7.0612">
        <ele>840</ele>
        <time>2022-05-23T10:47:45Z</time>
      </trkpt>
      <trkpt lat="48.06352" lon="7.06207">
        <ele>836</ele>
        <time>2022-05-23T10:47:56Z</time>
      </trkpt>
      <trkpt lat="48.06339" lon="7.06262">
        <ele>833</ele>
        <time>2022-05-23T10:48:03Z</time>
      </trkpt>
      <trkpt lat="48.06336" lon="7.06315">
        <ele>832</ele>
        <time>2022-05-23T10:48:09Z</time>
      </trkpt>
      <trkpt lat="48.06347" lon="7.06411">
        <ele>834</ele>
        <time>2022-05-23T10:48:21Z</time>
      </trkpt>
      <trkpt lat="48.06356" lon="7.06467">
        <ele>831</ele>
        <time>2022-05-23T10:48:28Z</time>
      </trkpt>
      <trkpt lat="48.06447" lon="7.0674">
        <ele>821</ele>
        <time>2022-05-23T10:49:04Z</time>
      </trkpt>
      <trkpt lat="48.06455" lon="7.06857">
        <ele>812</ele>
        <time>2022-05-23T10:49:18Z</time>
      </trkpt>
      <trkpt lat="48.0646" lon="7.06885">
        <ele>811</ele>
        <time>2022-05-23T10:49:22Z</time>
      </trkpt>
      <trkpt lat="48.06469" lon="7.06911">
        <ele>809</ele>
        <time>2022-05-23T10:49:25Z</time>
      </trkpt>
      <trkpt lat="48.06481" lon="7.06933">
        <ele>808</ele>
        <time>2022-05-23T10:49:28Z</time>
      </trkpt>
      <trkpt lat="48.06532" lon="7.06999">
        <ele>804</ele>
        <time>2022-05-23T10:49:40Z</time>
      </trkpt>
      <trkpt lat="48.06554" lon="7.07017">
        <ele>804</ele>
        <time>2022-05-23T10:49:45Z</time>
      </trkpt>
      <trkpt lat="48.06578" lon="7.07042">
        <ele>802</ele>
        <time>2022-05-23T10:49:50Z</time>
      </trkpt>
      <trkpt lat="48.06593" lon="7.07054">
        <ele>800</ele>
        <time>2022-05-23T10:49:53Z</time>
      </trkpt>
      <trkpt lat="48.06609" lon="7.07063">
        <ele>798</ele>
        <time>2022-05-23T10:49:56Z</time>
      </trkpt>
      <trkpt lat="48.06627" lon="7.07063">
        <ele>797</ele>
        <time>2022-05-23T10:49:59Z</time>
      </trkpt>
      <trkpt lat="48.06642" lon="7.07053">
        <ele>799</ele>
        <time>2022-05-23T10:50:02Z</time>
      </trkpt>
      <trkpt lat="48.0665" lon="7.07045">
        <ele>800</ele>
        <time>2022-05-23T10:50:04Z</time>
      </trkpt>
      <trkpt lat="48.06676" lon="7.07005">
        <ele>806</ele>
        <time>2022-05-23T10:50:11Z</time>
      </trkpt>
      <trkpt lat="48.06694" lon="7.06992">
        <ele>809</ele>
        <time>2022-05-23T10:50:14Z</time>
      </trkpt>
      <trkpt lat="48.06712" lon="7.06995">
        <ele>808</ele>
        <time>2022-05-23T10:50:17Z</time>
      </trkpt>
      <trkpt lat="48.0672" lon="7.07002">
        <ele>807</ele>
        <time>2022-05-23T10:50:19Z</time>
      </trkpt>
      <trkpt lat="48.06726" lon="7.07015">
        <ele>805</ele>
        <time>2022-05-23T10:50:21Z</time>
      </trkpt>
      <trkpt lat="48.06729" lon="7.07031">
        <ele>803</ele>
        <time>2022-05-23T10:50:23Z</time>
      </trkpt>
      <trkpt lat="48.06726" lon="7.07077">
        <ele>797</ele>
        <time>2022-05-23T10:50:28Z</time>
      </trkpt>
      <trkpt lat="48.06728" lon="7.07107">
        <ele>794</ele>
        <time>2022-05-23T10:50:32Z</time>
      </trkpt>
      <trkpt lat="48.06751" lon="7.07224">
        <ele>784</ele>
        <time>2022-05-23T10:50:46Z</time>
      </trkpt>
      <trkpt lat="48.06761" lon="7.07249">
        <ele>784</ele>
        <time>2022-05-23T10:50:50Z</time>
      </trkpt>
      <trkpt lat="48.06774" lon="7.07271">
        <ele>783</ele>
        <time>2022-05-23T10:50:53Z</time>
      </trkpt>
      <trkpt lat="48.06799" lon="7.07294">
        <ele>785</ele>
        <time>2022-05-23T10:50:59Z</time>
      </trkpt>
      <trkpt lat="48.06814" lon="7.07311">
        <ele>786</ele>
        <time>2022-05-23T10:51:02Z</time>
      </trkpt>
      <trkpt lat="48.06828" lon="7.07332">
        <ele>785</ele>
        <time>2022-05-23T10:51:06Z</time>
      </trkpt>
      <trkpt lat="48.06858" lon="7.07398">
        <ele>783</ele>
        <time>2022-05-23T10:51:15Z</time>
      </trkpt>
      <trkpt lat="48.06894" lon="7.07469">
        <ele>783</ele>
        <time>2022-05-23T10:51:26Z</time>
      </trkpt>
      <trkpt lat="48.06895" lon="7.07485">
        <ele>781</ele>
        <time>2022-05-23T10:51:28Z</time>
      </trkpt>
      <trkpt lat="48.06888" lon="7.07516">
        <ele>780</ele>
        <time>2022-05-23T10:51:31Z</time>
      </trkpt>
      <trkpt lat="48.0688" lon="7.07526">
        <ele>780</ele>
        <time>2022-05-23T10:51:33Z</time>
      </trkpt>
      <trkpt lat="48.06871" lon="7.07532">
        <ele>780</ele>
        <time>2022-05-23T10:51:35Z</time>
      </trkpt>
      <trkpt lat="48.06862" lon="7.07533">
        <ele>778</ele>
        <time>2022-05-23T10:51:37Z</time>
      </trkpt>
      <trkpt lat="48.06822" lon="7.07529">
        <ele>772</ele>
        <time>2022-05-23T10:51:44Z</time>
      </trkpt>
      <trkpt lat="48.06782" lon="7.07535">
        <ele>767</ele>
        <time>2022-05-23T10:51:51Z</time>
      </trkpt>
      <trkpt lat="48.06764" lon="7.07541">
        <ele>765</ele>
        <time>2022-05-23T10:51:54Z</time>
      </trkpt>
      <trkpt lat="48.06749" lon="7.07554">
        <ele>765</ele>
        <time>2022-05-23T10:51:57Z</time>
      </trkpt>
      <trkpt lat="48.06723" lon="7.07601">
        <ele>766</ele>
        <time>2022-05-23T10:52:05Z</time>
      </trkpt>
      <trkpt lat="48.06693" lon="7.07644">
        <ele>765</ele>
        <time>2022-05-23T10:52:12Z</time>
      </trkpt>
      <trkpt lat="48.06668" lon="7.07669">
        <ele>762</ele>
        <time>2022-05-23T10:52:17Z</time>
      </trkpt>
      <trkpt lat="48.06642" lon="7.07687">
        <ele>761</ele>
        <time>2022-05-23T10:52:22Z</time>
      </trkpt>
      <trkpt lat="48.06583" lon="7.07716">
        <ele>757</ele>
        <time>2022-05-23T10:52:33Z</time>
      </trkpt>
      <trkpt lat="48.06551" lon="7.07726">
        <ele>752</ele>
        <time>2022-05-23T10:52:39Z</time>
      </trkpt>
      <trkpt lat="48.06508" lon="7.07734">
        <ele>746</ele>
        <time>2022-05-23T10:52:47Z</time>
      </trkpt>
      <trkpt lat="48.06459" lon="7.07753">
        <ele>742</ele>
        <time>2022-05-23T10:52:56Z</time>
      </trkpt>
      <trkpt lat="48.0645" lon="7.07757">
        <ele>741</ele>
        <time>2022-05-23T10:52:58Z</time>
      </trkpt>
      <trkpt lat="48.06433" lon="7.0777">
        <ele>741</ele>
        <time>2022-05-23T10:53:01Z</time>
      </trkpt>
      <trkpt lat="48.06418" lon="7.07787">
        <ele>741</ele>
        <time>2022-05-23T10:53:04Z</time>
      </trkpt>
      <trkpt lat="48.06408" lon="7.07809">
        <ele>741</ele>
        <time>2022-05-23T10:53:08Z</time>
      </trkpt>
      <trkpt lat="48.06379" lon="7.07894">
        <ele>737</ele>
        <time>2022-05-23T10:53:19Z</time>
      </trkpt>
      <trkpt lat="48.06365" lon="7.07945">
        <ele>734</ele>
        <time>2022-05-23T10:53:25Z</time>
      </trkpt>
      <trkpt lat="48.06355" lon="7.07999">
        <ele>733</ele>
        <time>2022-05-23T10:53:32Z</time>
      </trkpt>
      <trkpt lat="48.06355" lon="7.08083">
        <ele>738</ele>
        <time>2022-05-23T10:53:42Z</time>
      </trkpt>
      <trkpt lat="48.06352" lon="7.08097">
        <ele>739</ele>
        <time>2022-05-23T10:53:44Z</time>
      </trkpt>
      <trkpt lat="48.0634" lon="7.0812">
        <ele>738</ele>
        <time>2022-05-23T10:53:47Z</time>
      </trkpt>
      <trkpt lat="48.06332" lon="7.0813">
        <ele>737</ele>
        <time>2022-05-23T10:53:49Z</time>
      </trkpt>
      <trkpt lat="48.06314" lon="7.08143">
        <ele>735</ele>
        <time>2022-05-23T10:53:53Z</time>
      </trkpt>
      <trkpt lat="48.06302" lon="7.08147">
        <ele>734</ele>
        <time>2022-05-23T10:53:55Z</time>
      </trkpt>
      <trkpt lat="48.0624" lon="7.08142">
        <ele>721</ele>
        <time>2022-05-23T10:54:06Z</time>
      </trkpt>
      <trkpt lat="48.06221" lon="7.08146">
        <ele>718</ele>
        <time>2022-05-23T10:54:09Z</time>
      </trkpt>
      <trkpt lat="48.06194" lon="7.08164">
        <ele>716</ele>
        <time>2022-05-23T10:54:15Z</time>
      </trkpt>
      <trkpt lat="48.0616" lon="7.08192">
        <ele>711</ele>
        <time>2022-05-23T10:54:22Z</time>
      </trkpt>
      <trkpt lat="48.06144" lon="7.08225">
        <ele>709</ele>
        <time>2022-05-23T10:54:26Z</time>
      </trkpt>
      <trkpt lat="48.06132" lon="7.08311">
        <ele>711</ele>
        <time>2022-05-23T10:54:37Z</time>
      </trkpt>
      <trkpt lat="48.06124" lon="7.08352">
        <ele>711</ele>
        <time>2022-05-23T10:54:42Z</time>
      </trkpt>
      <trkpt lat="48.06098" lon="7.08431">
        <ele>707</ele>
        <time>2022-05-23T10:54:52Z</time>
      </trkpt>
      <trkpt lat="48.06084" lon="7.08487">
        <ele>706</ele>
        <time>2022-05-23T10:54:59Z</time>
      </trkpt>
      <trkpt lat="48.06065" lon="7.0865">
        <ele>701</ele>
        <time>2022-05-23T10:55:19Z</time>
      </trkpt>
      <trkpt lat="48.06063" lon="7.08679">
        <ele>699</ele>
        <time>2022-05-23T10:55:23Z</time>
      </trkpt>
      <trkpt lat="48.06065" lon="7.08739">
        <ele>700</ele>
        <time>2022-05-23T10:55:30Z</time>
      </trkpt>
      <trkpt lat="48.06062" lon="7.08814">
        <ele>699</ele>
        <time>2022-05-23T10:55:39Z</time>
      </trkpt>
      <trkpt lat="48.06059" lon="7.08829">
        <ele>698</ele>
        <time>2022-05-23T10:55:41Z</time>
      </trkpt>
      <trkpt lat="48.06043" lon="7.08885">
        <ele>695</ele>
        <time>2022-05-23T10:55:48Z</time>
      </trkpt>
      <trkpt lat="48.06016" lon="7.0895">
        <ele>692</ele>
        <time>2022-05-23T10:55:57Z</time>
      </trkpt>
      <trkpt lat="48.05964" lon="7.09044">
        <ele>680</ele>
        <time>2022-05-23T10:56:11Z</time>
      </trkpt>
      <trkpt lat="48.05957" lon="7.09071">
        <ele>678</ele>
        <time>2022-05-23T10:56:15Z</time>
      </trkpt>
      <trkpt lat="48.05954" lon="7.09099">
        <ele>677</ele>
        <time>2022-05-23T10:56:18Z</time>
      </trkpt>
      <trkpt lat="48.05958" lon="7.09141">
        <ele>676</ele>
        <time>2022-05-23T10:56:23Z</time>
      </trkpt>
      <trkpt lat="48.05964" lon="7.09167">
        <ele>677</ele>
        <time>2022-05-23T10:56:27Z</time>
      </trkpt>
      <trkpt lat="48.05988" lon="7.09229">
        <ele>673</ele>
        <time>2022-05-23T10:56:35Z</time>
      </trkpt>
      <trkpt lat="48.06017" lon="7.09276">
        <ele>670</ele>
        <time>2022-05-23T10:56:43Z</time>
      </trkpt>
      <trkpt lat="48.06037" lon="7.093">
        <ele>667</ele>
        <time>2022-05-23T10:56:47Z</time>
      </trkpt>
      <trkpt lat="48.06062" lon="7.09323">
        <ele>665</ele>
        <time>2022-05-23T10:56:52Z</time>
      </trkpt>
      <trkpt lat="48.06091" lon="7.09344">
        <ele>662</ele>
        <time>2022-05-23T10:56:58Z</time>
      </trkpt>
      <trkpt lat="48.06108" lon="7.09349">
        <ele>660</ele>
        <time>2022-05-23T10:57:01Z</time>
      </trkpt>
      <trkpt lat="48.06126" lon="7.09349">
        <ele>659</ele>
        <time>2022-05-23T10:57:04Z</time>
      </trkpt>
      <trkpt lat="48.06153" lon="7.0934">
        <ele>659</ele>
        <time>2022-05-23T10:57:09Z</time>
      </trkpt>
      <trkpt lat="48.06189" lon="7.09314">
        <ele>666</ele>
        <time>2022-05-23T10:57:17Z</time>
      </trkpt>
      <trkpt lat="48.06209" lon="7.0931">
        <ele>669</ele>
        <time>2022-05-23T10:57:20Z</time>
      </trkpt>
      <trkpt lat="48.06219" lon="7.09312">
        <ele>669</ele>
        <time>2022-05-23T10:57:22Z</time>
      </trkpt>
      <trkpt lat="48.06237" lon="7.09326">
        <ele>666</ele>
        <time>2022-05-23T10:57:26Z</time>
      </trkpt>
      <trkpt lat="48.06245" lon="7.09336">
        <ele>664</ele>
        <time>2022-05-23T10:57:27Z</time>
      </trkpt>
      <trkpt lat="48.06252" lon="7.09348">
        <ele>662</ele>
        <time>2022-05-23T10:57:29Z</time>
      </trkpt>
      <trkpt lat="48.06268" lon="7.09389">
        <ele>657</ele>
        <time>2022-05-23T10:57:35Z</time>
      </trkpt>
      <trkpt lat="48.0629" lon="7.09423">
        <ele>654</ele>
        <time>2022-05-23T10:57:41Z</time>
      </trkpt>
      <trkpt lat="48.06308" lon="7.09439">
        <ele>652</ele>
        <time>2022-05-23T10:57:44Z</time>
      </trkpt>
      <trkpt lat="48.06327" lon="7.09449">
        <ele>652</ele>
        <time>2022-05-23T10:57:48Z</time>
      </trkpt>
      <trkpt lat="48.06348" lon="7.09452">
        <ele>651</ele>
        <time>2022-05-23T10:57:52Z</time>
      </trkpt>
      <trkpt lat="48.06379" lon="7.09449">
        <ele>652</ele>
        <time>2022-05-23T10:57:57Z</time>
      </trkpt>
      <trkpt lat="48.06431" lon="7.09426">
        <ele>655</ele>
        <time>2022-05-23T10:58:07Z</time>
      </trkpt>
      <trkpt lat="48.0647" lon="7.09405">
        <ele>653</ele>
        <time>2022-05-23T10:58:14Z</time>
      </trkpt>
      <trkpt lat="48.06501" lon="7.09394">
        <ele>649</ele>
        <time>2022-05-23T10:58:20Z</time>
      </trkpt>
      <trkpt lat="48.06522" lon="7.09395">
        <ele>648</ele>
        <time>2022-05-23T10:58:24Z</time>
      </trkpt>
      <trkpt lat="48.06532" lon="7.09399">
        <ele>646</ele>
        <time>2022-05-23T10:58:25Z</time>
      </trkpt>
      <trkpt lat="48.0656" lon="7.09419">
        <ele>639</ele>
        <time>2022-05-23T10:58:31Z</time>
      </trkpt>
      <trkpt lat="48.0657" lon="7.09422">
        <ele>637</ele>
        <time>2022-05-23T10:58:33Z</time>
      </trkpt>
      <trkpt lat="48.0659" lon="7.0942">
        <ele>638</ele>
        <time>2022-05-23T10:58:36Z</time>
      </trkpt>
      <trkpt lat="48.06618" lon="7.09404">
        <ele>645</ele>
        <time>2022-05-23T10:58:42Z</time>
      </trkpt>
      <trkpt lat="48.06629" lon="7.09404">
        <ele>646</ele>
        <time>2022-05-23T10:58:44Z</time>
      </trkpt>
      <trkpt lat="48.06638" lon="7.09407">
        <ele>646</ele>
        <time>2022-05-23T10:58:45Z</time>
      </trkpt>
      <trkpt lat="48.06647" lon="7.09415">
        <ele>645</ele>
        <time>2022-05-23T10:58:47Z</time>
      </trkpt>
      <trkpt lat="48.06654" lon="7.09428">
        <ele>643</ele>
        <time>2022-05-23T10:58:49Z</time>
      </trkpt>
      <trkpt lat="48.0666" lon="7.09455">
        <ele>638</ele>
        <time>2022-05-23T10:58:52Z</time>
      </trkpt>
      <trkpt lat="48.0668" lon="7.09651">
        <ele>626</ele>
        <time>2022-05-23T10:59:16Z</time>
      </trkpt>
      <trkpt lat="48.06679" lon="7.09682">
        <ele>626</ele>
        <time>2022-05-23T10:59:20Z</time>
      </trkpt>
      <trkpt lat="48.06668" lon="7.0974">
        <ele>623</ele>
        <time>2022-05-23T10:59:27Z</time>
      </trkpt>
      <trkpt lat="48.06642" lon="7.09801">
        <ele>617</ele>
        <time>2022-05-23T10:59:36Z</time>
      </trkpt>
      <trkpt lat="48.06637" lon="7.09828">
        <ele>616</ele>
        <time>2022-05-23T10:59:39Z</time>
      </trkpt>
      <trkpt lat="48.06639" lon="7.09856">
        <ele>613</ele>
        <time>2022-05-23T10:59:42Z</time>
      </trkpt>
      <trkpt lat="48.0665" lon="7.09878">
        <ele>612</ele>
        <time>2022-05-23T10:59:45Z</time>
      </trkpt>
      <trkpt lat="48.06668" lon="7.09887">
        <ele>612</ele>
        <time>2022-05-23T10:59:49Z</time>
      </trkpt>
      <trkpt lat="48.06688" lon="7.09886">
        <ele>611</ele>
        <time>2022-05-23T10:59:52Z</time>
      </trkpt>
      <trkpt lat="48.06756" lon="7.09863">
        <ele>615</ele>
        <time>2022-05-23T11:00:05Z</time>
      </trkpt>
      <trkpt lat="48.06776" lon="7.09864">
        <ele>616</ele>
        <time>2022-05-23T11:00:08Z</time>
      </trkpt>
      <trkpt lat="48.06786" lon="7.09867">
        <ele>616</ele>
        <time>2022-05-23T11:00:10Z</time>
      </trkpt>
      <trkpt lat="48.06824" lon="7.09891">
        <ele>610</ele>
        <time>2022-05-23T11:00:18Z</time>
      </trkpt>
      <trkpt lat="48.06854" lon="7.09906">
        <ele>605</ele>
        <time>2022-05-23T11:00:23Z</time>
      </trkpt>
      <trkpt lat="48.06884" lon="7.09912">
        <ele>603</ele>
        <time>2022-05-23T11:00:29Z</time>
      </trkpt>
      <trkpt lat="48.06966" lon="7.09904">
        <ele>602</ele>
        <time>2022-05-23T11:00:43Z</time>
      </trkpt>
      <trkpt lat="48.07079" lon="7.09886">
        <ele>599</ele>
        <time>2022-05-23T11:01:03Z</time>
      </trkpt>
      <trkpt lat="48.0711" lon="7.09886">
        <ele>601</ele>
        <time>2022-05-23T11:01:09Z</time>
      </trkpt>
      <trkpt lat="48.07131" lon="7.09889">
        <ele>601</ele>
        <time>2022-05-23T11:01:13Z</time>
      </trkpt>
      <trkpt lat="48.07161" lon="7.09899">
        <ele>600</ele>
        <time>2022-05-23T11:01:18Z</time>
      </trkpt>
      <trkpt lat="48.07181" lon="7.0991">
        <ele>600</ele>
        <time>2022-05-23T11:01:22Z</time>
      </trkpt>
      <trkpt lat="48.07191" lon="7.09919">
        <ele>599</ele>
        <time>2022-05-23T11:01:24Z</time>
      </trkpt>
      <trkpt lat="48.07229" lon="7.09975">
        <ele>592</ele>
        <time>2022-05-23T11:01:33Z</time>
      </trkpt>
      <trkpt lat="48.07256" lon="7.10004">
        <ele>587</ele>
        <time>2022-05-23T11:01:39Z</time>
      </trkpt>
      <trkpt lat="48.07274" lon="7.10019">
        <ele>588</ele>
        <time>2022-05-23T11:01:43Z</time>
      </trkpt>
      <trkpt lat="48.07286" lon="7.10035">
        <ele>589</ele>
        <time>2022-05-23T11:01:46Z</time>
      </trkpt>
      <trkpt lat="48.07289" lon="7.10056">
        <ele>588</ele>
        <time>2022-05-23T11:01:48Z</time>
      </trkpt>
      <trkpt lat="48.07285" lon="7.10075">
        <ele>587</ele>
        <time>2022-05-23T11:01:51Z</time>
      </trkpt>
      <trkpt lat="48.07273" lon="7.10087">
        <ele>587</ele>
        <time>2022-05-23T11:01:53Z</time>
      </trkpt>
      <trkpt lat="48.07259" lon="7.10094">
        <ele>587</ele>
        <time>2022-05-23T11:01:56Z</time>
      </trkpt>
      <trkpt lat="48.07244" lon="7.10092">
        <ele>586</ele>
        <time>2022-05-23T11:01:59Z</time>
      </trkpt>
      <trkpt lat="48.07198" lon="7.10067">
        <ele>582</ele>
        <time>2022-05-23T11:02:07Z</time>
      </trkpt>
      <trkpt lat="48.07163" lon="7.10052">
        <ele>578</ele>
        <time>2022-05-23T11:02:14Z</time>
      </trkpt>
      <trkpt lat="48.07145" lon="7.10053">
        <ele>576</ele>
        <time>2022-05-23T11:02:17Z</time>
      </trkpt>
      <trkpt lat="48.0713" lon="7.10067">
        <ele>574</ele>
        <time>2022-05-23T11:02:20Z</time>
      </trkpt>
      <trkpt lat="48.07101" lon="7.10115">
        <ele>574</ele>
        <time>2022-05-23T11:02:28Z</time>
      </trkpt>
      <trkpt lat="48.07056" lon="7.10164">
        <ele>570</ele>
        <time>2022-05-23T11:02:38Z</time>
      </trkpt>
      <trkpt lat="48.06976" lon="7.1026">
        <ele>562</ele>
        <time>2022-05-23T11:02:56Z</time>
      </trkpt>
      <trkpt lat="48.06963" lon="7.1028">
        <ele>561</ele>
        <time>2022-05-23T11:02:59Z</time>
      </trkpt>
      <trkpt lat="48.06958" lon="7.10292">
        <ele>561</ele>
        <time>2022-05-23T11:03:01Z</time>
      </trkpt>
      <trkpt lat="48.06937" lon="7.10354">
        <ele>562</ele>
        <time>2022-05-23T11:03:09Z</time>
      </trkpt>
      <trkpt lat="48.0692" lon="7.10369">
        <ele>561</ele>
        <time>2022-05-23T11:03:13Z</time>
      </trkpt>
      <trkpt lat="48.0691" lon="7.10369">
        <ele>560</ele>
        <time>2022-05-23T11:03:15Z</time>
      </trkpt>
      <trkpt lat="48.06901" lon="7.10366">
        <ele>559</ele>
        <time>2022-05-23T11:03:16Z</time>
      </trkpt>
      <trkpt lat="48.06848" lon="7.10325">
        <ele>550</ele>
        <time>2022-05-23T11:03:27Z</time>
      </trkpt>
      <trkpt lat="48.06838" lon="7.1032">
        <ele>549</ele>
        <time>2022-05-23T11:03:29Z</time>
      </trkpt>
      <trkpt lat="48.06819" lon="7.10316">
        <ele>547</ele>
        <time>2022-05-23T11:03:32Z</time>
      </trkpt>
      <trkpt lat="48.06799" lon="7.10323">
        <ele>546</ele>
        <time>2022-05-23T11:03:36Z</time>
      </trkpt>
      <trkpt lat="48.06772" lon="7.10339">
        <ele>545</ele>
        <time>2022-05-23T11:03:41Z</time>
      </trkpt>
      <trkpt lat="48.06709" lon="7.10379">
        <ele>545</ele>
        <time>2022-05-23T11:03:53Z</time>
      </trkpt>
      <trkpt lat="48.06648" lon="7.10427">
        <ele>542</ele>
        <time>2022-05-23T11:04:05Z</time>
      </trkpt>
      <trkpt lat="48.06618" lon="7.1044">
        <ele>541</ele>
        <time>2022-05-23T11:04:11Z</time>
      </trkpt>
      <trkpt lat="48.06565" lon="7.10441">
        <ele>536</ele>
        <time>2022-05-23T11:04:20Z</time>
      </trkpt>
      <trkpt lat="48.06533" lon="7.10431">
        <ele>532</ele>
        <time>2022-05-23T11:04:26Z</time>
      </trkpt>
      <trkpt lat="48.06503" lon="7.10411">
        <ele>528</ele>
        <time>2022-05-23T11:04:32Z</time>
      </trkpt>
      <trkpt lat="48.06481" lon="7.10408">
        <ele>526</ele>
        <time>2022-05-23T11:04:36Z</time>
      </trkpt>
      <trkpt lat="48.0647" lon="7.10412">
        <ele>526</ele>
        <time>2022-05-23T11:04:38Z</time>
      </trkpt>
      <trkpt lat="48.06452" lon="7.10429">
        <ele>527</ele>
        <time>2022-05-23T11:04:42Z</time>
      </trkpt>
      <trkpt lat="48.06445" lon="7.10441">
        <ele>527</ele>
        <time>2022-05-23T11:04:44Z</time>
      </trkpt>
      <trkpt lat="48.06429" lon="7.10484">
        <ele>529</ele>
        <time>2022-05-23T11:04:50Z</time>
      </trkpt>
      <trkpt lat="48.06421" lon="7.10496">
        <ele>528</ele>
        <time>2022-05-23T11:04:52Z</time>
      </trkpt>
      <trkpt lat="48.06412" lon="7.10505">
        <ele>528</ele>
        <time>2022-05-23T11:04:53Z</time>
      </trkpt>
      <trkpt lat="48.06401" lon="7.10511">
        <ele>526</ele>
        <time>2022-05-23T11:04:56Z</time>
      </trkpt>
      <trkpt lat="48.06378" lon="7.10515">
        <ele>523</ele>
        <time>2022-05-23T11:05:00Z</time>
      </trkpt>
      <trkpt lat="48.06345" lon="7.10511">
        <ele>518</ele>
        <time>2022-05-23T11:05:06Z</time>
      </trkpt>
      <trkpt lat="48.06336" lon="7.10506">
        <ele>517</ele>
        <time>2022-05-23T11:05:07Z</time>
      </trkpt>
      <trkpt lat="48.06327" lon="7.10486">
        <ele>514</ele>
        <time>2022-05-23T11:05:10Z</time>
      </trkpt>
      <trkpt lat="48.0633" lon="7.10461">
        <ele>512</ele>
        <time>2022-05-23T11:05:13Z</time>
      </trkpt>
      <trkpt lat="48.06351" lon="7.10419">
        <ele>512</ele>
        <time>2022-05-23T11:05:19Z</time>
      </trkpt>
      <trkpt lat="48.06364" lon="7.104">
        <ele>513</ele>
        <time>2022-05-23T11:05:23Z</time>
      </trkpt>
      <trkpt lat="48.0638" lon="7.10385">
        <ele>513</ele>
        <time>2022-05-23T11:05:26Z</time>
      </trkpt>
      <trkpt lat="48.06425" lon="7.10359">
        <ele>516</ele>
        <time>2022-05-23T11:05:35Z</time>
      </trkpt>
      <trkpt lat="48.06432" lon="7.10351">
        <ele>515</ele>
        <time>2022-05-23T11:05:36Z</time>
      </trkpt>
      <trkpt lat="48.06441" lon="7.10329">
        <ele>514</ele>
        <time>2022-05-23T11:05:39Z</time>
      </trkpt>
      <trkpt lat="48.06441" lon="7.10302">
        <ele>513</ele>
        <time>2022-05-23T11:05:42Z</time>
      </trkpt>
      <trkpt lat="48.06434" lon="7.10278">
        <ele>512</ele>
        <time>2022-05-23T11:05:46Z</time>
      </trkpt>
      <trkpt lat="48.06426" lon="7.10256">
        <ele>511</ele>
        <time>2022-05-23T11:05:49Z</time>
      </trkpt>
      <trkpt lat="48.06414" lon="7.10238">
        <ele>512</ele>
        <time>2022-05-23T11:05:52Z</time>
      </trkpt>
      <trkpt lat="48.06399" lon="7.10238">
        <ele>511</ele>
        <time>2022-05-23T11:05:54Z</time>
      </trkpt>
      <trkpt lat="48.06368" lon="7.10257">
        <ele>509</ele>
        <time>2022-05-23T11:06:00Z</time>
      </trkpt>
      <trkpt lat="48.06298" lon="7.1032">
        <ele>502</ele>
        <time>2022-05-23T11:06:15Z</time>
      </trkpt>
      <trkpt lat="48.06264" lon="7.10346">
        <ele>501</ele>
        <time>2022-05-23T11:06:22Z</time>
      </trkpt>
      <trkpt lat="48.06248" lon="7.10354">
        <ele>500</ele>
        <time>2022-05-23T11:06:25Z</time>
      </trkpt>
      <trkpt lat="48.06231" lon="7.10353">
        <ele>499</ele>
        <time>2022-05-23T11:06:28Z</time>
      </trkpt>
      <trkpt lat="48.0621" lon="7.1033">
        <ele>498</ele>
        <time>2022-05-23T11:06:32Z</time>
      </trkpt>
      <trkpt lat="48.06177" lon="7.10287">
        <ele>497</ele>
        <time>2022-05-23T11:06:40Z</time>
      </trkpt>
      <trkpt lat="48.06159" lon="7.1027">
        <ele>496</ele>
        <time>2022-05-23T11:06:44Z</time>
      </trkpt>
      <trkpt lat="48.06128" lon="7.10256">
        <ele>495</ele>
        <time>2022-05-23T11:06:50Z</time>
      </trkpt>
      <trkpt lat="48.06118" lon="7.10247">
        <ele>494</ele>
        <time>2022-05-23T11:06:52Z</time>
      </trkpt>
      <trkpt lat="48.0605" lon="7.10201">
        <ele>491</ele>
        <time>2022-05-23T11:07:05Z</time>
      </trkpt>
      <trkpt lat="48.05955" lon="7.10153">
        <ele>489</ele>
        <time>2022-05-23T11:07:23Z</time>
      </trkpt>
      <trkpt lat="48.05941" lon="7.10151">
        <ele>488</ele>
        <time>2022-05-23T11:07:25Z</time>
      </trkpt>
      <trkpt lat="48.05927" lon="7.10155">
        <ele>487</ele>
        <time>2022-05-23T11:07:28Z</time>
      </trkpt>
      <trkpt lat="48.05901" lon="7.10169">
        <ele>485</ele>
        <time>2022-05-23T11:07:33Z</time>
      </trkpt>
      <trkpt lat="48.0581" lon="7.1023">
        <ele>480</ele>
        <time>2022-05-23T11:07:50Z</time>
      </trkpt>
      <trkpt lat="48.05647" lon="7.10317">
        <ele>473</ele>
        <time>2022-05-23T11:08:21Z</time>
      </trkpt>
      <trkpt lat="48.05566" lon="7.10357">
        <ele>470</ele>
        <time>2022-05-23T11:08:36Z</time>
      </trkpt>
      <trkpt lat="48.0555" lon="7.10362">
        <ele>467</ele>
        <time>2022-05-23T11:08:39Z</time>
      </trkpt>
      <trkpt lat="48.05535" lon="7.1036">
        <ele>466</ele>
        <time>2022-05-23T11:08:42Z</time>
      </trkpt>
      <trkpt lat="48.05507" lon="7.10345">
        <ele>466</ele>
        <time>2022-05-23T11:08:47Z</time>
      </trkpt>
      <trkpt lat="48.05495" lon="7.10333">
        <ele>466</ele>
        <time>2022-05-23T11:08:50Z</time>
      </trkpt>
      <trkpt lat="48.05482" lon="7.10317">
        <ele>467</ele>
        <time>2022-05-23T11:08:53Z</time>
      </trkpt>
      <trkpt lat="48.05465" lon="7.10277">
        <ele>468</ele>
        <time>2022-05-23T11:08:58Z</time>
      </trkpt>
      <trkpt lat="48.05441" lon="7.10211">
        <ele>465</ele>
        <time>2022-05-23T11:09:07Z</time>
      </trkpt>
      <trkpt lat="48.05439" lon="7.10186">
        <ele>465</ele>
        <time>2022-05-23T11:09:10Z</time>
      </trkpt>
      <trkpt lat="48.0543" lon="7.10138">
        <ele>463</ele>
        <time>2022-05-23T11:09:16Z</time>
      </trkpt>
      <trkpt lat="48.05425" lon="7.10087">
        <ele>462</ele>
        <time>2022-05-23T11:09:22Z</time>
      </trkpt>
      <trkpt lat="48.05421" lon="7.10075">
        <ele>461</ele>
        <time>2022-05-23T11:09:24Z</time>
      </trkpt>
      <trkpt lat="48.05399" lon="7.10053">
        <ele>459</ele>
        <time>2022-05-23T11:09:29Z</time>
      </trkpt>
      <trkpt lat="48.05382" lon="7.10054">
        <ele>458</ele>
        <time>2022-05-23T11:09:32Z</time>
      </trkpt>
      <trkpt lat="48.05369" lon="7.10066">
        <ele>457</ele>
        <time>2022-05-23T11:09:34Z</time>
      </trkpt>
      <trkpt lat="48.0536" lon="7.10086">
        <ele>456</ele>
        <time>2022-05-23T11:09:37Z</time>
      </trkpt>
      <trkpt lat="48.05261" lon="7.10407">
        <ele>450</ele>
        <time>2022-05-23T11:10:19Z</time>
      </trkpt>
      <trkpt lat="48.05243" lon="7.10455">
        <ele>449</ele>
        <time>2022-05-23T11:10:26Z</time>
      </trkpt>
      <trkpt lat="48.05137" lon="7.10801">
        <ele>442</ele>
        <time>2022-05-23T11:11:11Z</time>
      </trkpt>
      <trkpt lat="48.05067" lon="7.1101">
        <ele>435</ele>
        <time>2022-05-23T11:11:39Z</time>
      </trkpt>
      <trkpt lat="48.05051" lon="7.11069">
        <ele>434</ele>
        <time>2022-05-23T11:11:47Z</time>
      </trkpt>
      <trkpt lat="48.05012" lon="7.11186">
        <ele>430</ele>
        <time>2022-05-23T11:12:02Z</time>
      </trkpt>
      <trkpt lat="48.04979" lon="7.11299">
        <ele>427</ele>
        <time>2022-05-23T11:12:17Z</time>
      </trkpt>
      <trkpt lat="48.04971" lon="7.11316">
        <ele>427</ele>
        <time>2022-05-23T11:12:19Z</time>
      </trkpt>
      <trkpt lat="48.04922" lon="7.11476">
        <ele>422</ele>
        <time>2022-05-23T11:12:40Z</time>
      </trkpt>
      <trkpt lat="48.04892" lon="7.11557">
        <ele>421</ele>
        <time>2022-05-23T11:12:51Z</time>
      </trkpt>
      <trkpt lat="48.04873" lon="7.11626">
        <ele>419</ele>
        <time>2022-05-23T11:13:00Z</time>
      </trkpt>
      <trkpt lat="48.04849" lon="7.11697">
        <ele>417</ele>
        <time>2022-05-23T11:13:10Z</time>
      </trkpt>
      <trkpt lat="48.04815" lon="7.11813">
        <ele>414</ele>
        <time>2022-05-23T11:13:25Z</time>
      </trkpt>
      <trkpt lat="48.04776" lon="7.11926">
        <ele>412</ele>
        <time>2022-05-23T11:13:40Z</time>
      </trkpt>
      <trkpt lat="48.04758" lon="7.11992">
        <ele>411</ele>
        <time>2022-05-23T11:13:48Z</time>
      </trkpt>
      <trkpt lat="48.0473" lon="7.1207">
        <ele>410</ele>
        <time>2022-05-23T11:13:59Z</time>
      </trkpt>
      <trkpt lat="48.04716" lon="7.12101">
        <ele>410</ele>
        <time>2022-05-23T11:14:03Z</time>
      </trkpt>
      <trkpt lat="48.04683" lon="7.12159">
        <ele>409</ele>
        <time>2022-05-23T11:14:12Z</time>
      </trkpt>
      <trkpt lat="48.0455" lon="7.12374">
        <ele>406</ele>
        <time>2022-05-23T11:14:47Z</time>
      </trkpt>
      <trkpt lat="48.04526" lon="7.12418">
        <ele>405</ele>
        <time>2022-05-23T11:14:54Z</time>
      </trkpt>
      <trkpt lat="48.04512" lon="7.1245">
        <ele>404</ele>
        <time>2022-05-23T11:14:58Z</time>
      </trkpt>
      <trkpt lat="48.04502" lon="7.12486">
        <ele>403</ele>
        <time>2022-05-23T11:15:03Z</time>
      </trkpt>
      <trkpt lat="48.04452" lon="7.12616">
        <ele>400</ele>
        <time>2022-05-23T11:15:21Z</time>
      </trkpt>
      <trkpt lat="48.04429" lon="7.12658">
        <ele>399</ele>
        <time>2022-05-23T11:15:27Z</time>
      </trkpt>
      <trkpt lat="48.04379" lon="7.12738">
        <ele>397</ele>
        <time>2022-05-23T11:15:40Z</time>
      </trkpt>
      <trkpt lat="48.0437" lon="7.1275">
        <ele>397</ele>
        <time>2022-05-23T11:15:43Z</time>
      </trkpt>
      <trkpt lat="48.04349" lon="7.12768">
        <ele>396</ele>
        <time>2022-05-23T11:15:47Z</time>
      </trkpt>
      <trkpt lat="48.04337" lon="7.12783">
        <ele>396</ele>
        <time>2022-05-23T11:15:50Z</time>
      </trkpt>
      <trkpt lat="48.04329" lon="7.12798">
        <ele>396</ele>
        <time>2022-05-23T11:15:52Z</time>
      </trkpt>
      <trkpt lat="48.04302" lon="7.12836">
        <ele>395</ele>
        <time>2022-05-23T11:15:59Z</time>
      </trkpt>
      <trkpt lat="48.04286" lon="7.12866">
        <ele>395</ele>
        <time>2022-05-23T11:16:03Z</time>
      </trkpt>
      <trkpt lat="48.04252" lon="7.12959">
        <ele>393</ele>
        <time>2022-05-23T11:16:16Z</time>
      </trkpt>
      <trkpt lat="48.04244" lon="7.12989">
        <ele>393</ele>
        <time>2022-05-23T11:16:20Z</time>
      </trkpt>
      <trkpt lat="48.04245" lon="7.13007">
        <ele>392</ele>
        <time>2022-05-23T11:16:22Z</time>
      </trkpt>
      <trkpt lat="48.04217" lon="7.1308">
        <ele>391</ele>
        <time>2022-05-23T11:16:32Z</time>
      </trkpt>
      <trkpt lat="48.04191" lon="7.13169">
        <ele>390</ele>
        <time>2022-05-23T11:16:43Z</time>
      </trkpt>
      <trkpt lat="48.04182" lon="7.13183">
        <ele>390</ele>
        <time>2022-05-23T11:16:46Z</time>
      </trkpt>
      <trkpt lat="48.04169" lon="7.13226">
        <ele>390</ele>
        <time>2022-05-23T11:16:51Z</time>
      </trkpt>
      <trkpt lat="48.04161" lon="7.13235">
        <ele>389</ele>
        <time>2022-05-23T11:16:53Z</time>
      </trkpt>
      <trkpt lat="48.04141" lon="7.13249">
        <ele>388</ele>
        <time>2022-05-23T11:16:57Z</time>
      </trkpt>
      <trkpt lat="48.04129" lon="7.13252">
        <ele>388</ele>
        <time>2022-05-23T11:16:59Z</time>
      </trkpt>
      <trkpt lat="48.04118" lon="7.13249">
        <ele>388</ele>
        <time>2022-05-23T11:17:01Z</time>
      </trkpt>
      <trkpt lat="48.04109" lon="7.13251">
        <ele>388</ele>
        <time>2022-05-23T11:17:03Z</time>
      </trkpt>
      <trkpt lat="48.04093" lon="7.13243">
        <ele>387</ele>
        <time>2022-05-23T11:17:06Z</time>
      </trkpt>
      <trkpt lat="48.04097" lon="7.13263">
        <ele>387</ele>
        <time>2022-05-23T11:17:08Z</time>
      </trkpt>
      <trkpt lat="48.04089" lon="7.13249">
        <ele>387</ele>
        <time>2022-05-23T11:17:10Z</time>
      </trkpt>
      <trkpt lat="48.04097" lon="7.13254">
        <ele>387</ele>
        <time>2022-05-23T11:17:12Z</time>
      </trkpt>
      <trkpt lat="48.04089" lon="7.13248">
        <ele>387</ele>
        <time>2022-05-23T11:17:13Z</time>
      </trkpt>
      <trkpt lat="48.04104" lon="7.13246">
        <ele>388</ele>
        <time>2022-05-23T11:17:16Z</time>
      </trkpt>
      <trkpt lat="48.0411" lon="7.13256">
        <ele>388</ele>
        <time>2022-05-23T11:17:18Z</time>
      </trkpt>
      <trkpt lat="48.04112" lon="7.13273">
        <ele>387</ele>
        <time>2022-05-23T11:17:20Z</time>
      </trkpt>
      <trkpt lat="48.04109" lon="7.13287">
        <ele>387</ele>
        <time>2022-05-23T11:17:22Z</time>
      </trkpt>
      <trkpt lat="48.04111" lon="7.13302">
        <ele>387</ele>
        <time>2022-05-23T11:17:23Z</time>
      </trkpt>
      <trkpt lat="48.04081" lon="7.13411">
        <ele>385</ele>
        <time>2022-05-23T11:17:37Z</time>
      </trkpt>
      <trkpt lat="48.04082" lon="7.13445">
        <ele>385</ele>
        <time>2022-05-23T11:17:41Z</time>
      </trkpt>
      <trkpt lat="48.04079" lon="7.13462">
        <ele>385</ele>
        <time>2022-05-23T11:17:44Z</time>
      </trkpt>
      <trkpt lat="48.04073" lon="7.13472">
        <ele>385</ele>
        <time>2022-05-23T11:17:45Z</time>
      </trkpt>
      <trkpt lat="48.04067" lon="7.13503">
        <ele>385</ele>
        <time>2022-05-23T11:17:49Z</time>
      </trkpt>
      <trkpt lat="48.04073" lon="7.13555">
        <ele>385</ele>
        <time>2022-05-23T11:17:55Z</time>
      </trkpt>
      <trkpt lat="48.04085" lon="7.13714">
        <ele>382</ele>
        <time>2022-05-23T11:18:14Z</time>
      </trkpt>
      <trkpt lat="48.04075" lon="7.13715">
        <ele>382</ele>
        <time>2022-05-23T11:18:16Z</time>
      </trkpt>
      <trkpt lat="48.04061" lon="7.13696">
        <ele>383</ele>
        <time>2022-05-23T11:18:19Z</time>
      </trkpt>
      <trkpt lat="48.04057" lon="7.13684">
        <ele>384</ele>
        <time>2022-05-23T11:18:21Z</time>
      </trkpt>
      <trkpt lat="48.04061" lon="7.13671">
        <ele>384</ele>
        <time>2022-05-23T11:18:23Z</time>
      </trkpt>
      <trkpt lat="48.04069" lon="7.13663">
        <ele>385</ele>
        <time>2022-05-23T11:18:24Z</time>
      </trkpt>
      <trkpt lat="48.04093" lon="7.1371">
        <ele>382</ele>
        <time>2022-05-23T11:18:31Z</time>
      </trkpt>
      <trkpt lat="48.04111" lon="7.13701">
        <ele>382</ele>
        <time>2022-05-23T11:18:35Z</time>
      </trkpt>
      <trkpt lat="48.04114" lon="7.13671">
        <ele>384</ele>
        <time>2022-05-23T11:18:38Z</time>
      </trkpt>
      <trkpt lat="48.04111" lon="7.1364">
        <ele>384</ele>
        <time>2022-05-23T11:18:42Z</time>
      </trkpt>
      <trkpt lat="48.0412" lon="7.13594">
        <ele>384</ele>
        <time>2022-05-23T11:18:48Z</time>
      </trkpt>
      <trkpt lat="48.04129" lon="7.1357">
        <ele>384</ele>
        <time>2022-05-23T11:18:51Z</time>
      </trkpt>
      <trkpt lat="48.04135" lon="7.13527">
        <ele>384</ele>
        <time>2022-05-23T11:18:56Z</time>
      </trkpt>
      <trkpt lat="48.04135" lon="7.13479">
        <ele>385</ele>
        <time>2022-05-23T11:19:02Z</time>
      </trkpt>
      <trkpt lat="48.04142" lon="7.13437">
        <ele>385</ele>
        <time>2022-05-23T11:19:07Z</time>
      </trkpt>
      <trkpt lat="48.0416" lon="7.13382">
        <ele>386</ele>
        <time>2022-05-23T11:19:15Z</time>
      </trkpt>
      <trkpt lat="48.04169" lon="7.1334">
        <ele>387</ele>
        <time>2022-05-23T11:19:20Z</time>
      </trkpt>
      <trkpt lat="48.0417" lon="7.13292">
        <ele>388</ele>
        <time>2022-05-23T11:19:25Z</time>
      </trkpt>
      <trkpt lat="48.04173" lon="7.13277">
        <ele>388</ele>
        <time>2022-05-23T11:19:27Z</time>
      </trkpt>
      <trkpt lat="48.04172" lon="7.1326">
        <ele>389</ele>
        <time>2022-05-23T11:19:29Z</time>
      </trkpt>
      <trkpt lat="48.04166" lon="7.13231">
        <ele>389</ele>
        <time>2022-05-23T11:19:33Z</time>
      </trkpt>
      <trkpt lat="48.04157" lon="7.13234">
        <ele>389</ele>
        <time>2022-05-23T11:19:35Z</time>
      </trkpt>
      <trkpt lat="48.04148" lon="7.13242">
        <ele>389</ele>
        <time>2022-05-23T11:19:36Z</time>
      </trkpt>
      <trkpt lat="48.04139" lon="7.13246">
        <ele>388</ele>
        <time>2022-05-23T11:19:38Z</time>
      </trkpt>
      <trkpt lat="48.04116" lon="7.13243">
        <ele>388</ele>
        <time>2022-05-23T11:19:42Z</time>
      </trkpt>
      <trkpt lat="48.04109" lon="7.13252">
        <ele>388</ele>
        <time>2022-05-23T11:19:44Z</time>
      </trkpt>
      <trkpt lat="48.04093" lon="7.13338">
        <ele>386</ele>
        <time>2022-05-23T11:19:55Z</time>
      </trkpt>
      <trkpt lat="48.04078" lon="7.13399">
        <ele>385</ele>
        <time>2022-05-23T11:20:02Z</time>
      </trkpt>
      <trkpt lat="48.04075" lon="7.13427">
        <ele>385</ele>
        <time>2022-05-23T11:20:06Z</time>
      </trkpt>
      <trkpt lat="48.04064" lon="7.1342">
        <ele>385</ele>
        <time>2022-05-23T11:20:08Z</time>
      </trkpt>
      <trkpt lat="48.04042" lon="7.13415">
        <ele>386</ele>
        <time>2022-05-23T11:20:12Z</time>
      </trkpt>
      <trkpt lat="48.03999" lon="7.13393">
        <ele>386</ele>
        <time>2022-05-23T11:20:20Z</time>
      </trkpt>
      <trkpt lat="48.0398" lon="7.13381">
        <ele>386</ele>
        <time>2022-05-23T11:20:23Z</time>
      </trkpt>
      <trkpt lat="48.03951" lon="7.13354">
        <ele>386</ele>
        <time>2022-05-23T11:20:30Z</time>
      </trkpt>
      <trkpt lat="48.03942" lon="7.1335">
        <ele>386</ele>
        <time>2022-05-23T11:20:31Z</time>
      </trkpt>
      <trkpt lat="48.03932" lon="7.1335">
        <ele>386</ele>
        <time>2022-05-23T11:20:33Z</time>
      </trkpt>
      <trkpt lat="48.03926" lon="7.13339">
        <ele>387</ele>
        <time>2022-05-23T11:20:35Z</time>
      </trkpt>
      <trkpt lat="48.03927" lon="7.13324">
        <ele>387</ele>
        <time>2022-05-23T11:20:36Z</time>
      </trkpt>
      <trkpt lat="48.03937" lon="7.13327">
        <ele>387</ele>
        <time>2022-05-23T11:20:38Z</time>
      </trkpt>
      <trkpt lat="48.03944" lon="7.13353">
        <ele>386</ele>
        <time>2022-05-23T11:20:42Z</time>
      </trkpt>
      <trkpt lat="48.03951" lon="7.13343">
        <ele>386</ele>
        <time>2022-05-23T11:20:43Z</time>
      </trkpt>
      <trkpt lat="48.03955" lon="7.13358">
        <ele>386</ele>
        <time>2022-05-23T11:20:45Z</time>
      </trkpt>
      <trkpt lat="48.03984" lon="7.13382">
        <ele>386</ele>
        <time>2022-05-23T11:20:51Z</time>
      </trkpt>
      <trkpt lat="48.03991" lon="7.13395">
        <ele>386</ele>
        <time>2022-05-23T11:20:53Z</time>
      </trkpt>
      <trkpt lat="48.04003" lon="7.13511">
        <ele>384</ele>
        <time>2022-05-23T11:21:07Z</time>
      </trkpt>
      <trkpt lat="48.04004" lon="7.13565">
        <ele>385</ele>
        <time>2022-05-23T11:21:14Z</time>
      </trkpt>
      <trkpt lat="48.03992" lon="7.13592">
        <ele>385</ele>
        <time>2022-05-23T11:21:17Z</time>
      </trkpt>
      <trkpt lat="48.03966" lon="7.13631">
        <ele>384</ele>
        <time>2022-05-23T11:21:24Z</time>
      </trkpt>
      <trkpt lat="48.03958" lon="7.13668">
        <ele>383</ele>
        <time>2022-05-23T11:21:29Z</time>
      </trkpt>
      <trkpt lat="48.03956" lon="7.13703">
        <ele>381</ele>
        <time>2022-05-23T11:21:33Z</time>
      </trkpt>
      <trkpt lat="48.03957" lon="7.13739">
        <ele>380</ele>
        <time>2022-05-23T11:21:37Z</time>
      </trkpt>
      <trkpt lat="48.03948" lon="7.13836">
        <ele>378</ele>
        <time>2022-05-23T11:21:49Z</time>
      </trkpt>
      <trkpt lat="48.03949" lon="7.13913">
        <ele>376</ele>
        <time>2022-05-23T11:21:58Z</time>
      </trkpt>
      <trkpt lat="48.03953" lon="7.1393">
        <ele>375</ele>
        <time>2022-05-23T11:22:00Z</time>
      </trkpt>
      <trkpt lat="48.03966" lon="7.13959">
        <ele>375</ele>
        <time>2022-05-23T11:22:04Z</time>
      </trkpt>
      <trkpt lat="48.03966" lon="7.13978">
        <ele>374</ele>
        <time>2022-05-23T11:22:06Z</time>
      </trkpt>
      <trkpt lat="48.0396" lon="7.13994">
        <ele>374</ele>
        <time>2022-05-23T11:22:09Z</time>
      </trkpt>
      <trkpt lat="48.03942" lon="7.14019">
        <ele>374</ele>
        <time>2022-05-23T11:22:13Z</time>
      </trkpt>
      <trkpt lat="48.03935" lon="7.14034">
        <ele>374</ele>
        <time>2022-05-23T11:22:15Z</time>
      </trkpt>
      <trkpt lat="48.03919" lon="7.14079">
        <ele>373</ele>
        <time>2022-05-23T11:22:21Z</time>
      </trkpt>
      <trkpt lat="48.03888" lon="7.14174">
        <ele>372</ele>
        <time>2022-05-23T11:22:34Z</time>
      </trkpt>
      <trkpt lat="48.03877" lon="7.14218">
        <ele>373</ele>
        <time>2022-05-23T11:22:39Z</time>
      </trkpt>
      <trkpt lat="48.03876" lon="7.14233">
        <ele>373</ele>
        <time>2022-05-23T11:22:41Z</time>
      </trkpt>
      <trkpt lat="48.03891" lon="7.14279">
        <ele>373</ele>
        <time>2022-05-23T11:22:47Z</time>
      </trkpt>
      <trkpt lat="48.03947" lon="7.14419">
        <ele>370</ele>
        <time>2022-05-23T11:23:07Z</time>
      </trkpt>
      <trkpt lat="48.03959" lon="7.14467">
        <ele>369</ele>
        <time>2022-05-23T11:23:13Z</time>
      </trkpt>
      <trkpt lat="48.03968" lon="7.14543">
        <ele>368</ele>
        <time>2022-05-23T11:23:22Z</time>
      </trkpt>
      <trkpt lat="48.0399" lon="7.14664">
        <ele>365</ele>
        <time>2022-05-23T11:23:37Z</time>
      </trkpt>
      <trkpt lat="48.04001" lon="7.14745">
        <ele>364</ele>
        <time>2022-05-23T11:23:47Z</time>
      </trkpt>
      <trkpt lat="48.04022" lon="7.14867">
        <ele>363</ele>
        <time>2022-05-23T11:24:02Z</time>
      </trkpt>
      <trkpt lat="48.04044" lon="7.14949">
        <ele>362</ele>
        <time>2022-05-23T11:24:12Z</time>
      </trkpt>
      <trkpt lat="48.04053" lon="7.14996">
        <ele>362</ele>
        <time>2022-05-23T11:24:18Z</time>
      </trkpt>
      <trkpt lat="48.04049" lon="7.15011">
        <ele>362</ele>
        <time>2022-05-23T11:24:20Z</time>
      </trkpt>
      <trkpt lat="48.04031" lon="7.15027">
        <ele>362</ele>
        <time>2022-05-23T11:24:24Z</time>
      </trkpt>
      <trkpt lat="48.04003" lon="7.15058">
        <ele>364</ele>
        <time>2022-05-23T11:24:30Z</time>
      </trkpt>
      <trkpt lat="48.03977" lon="7.15092">
        <ele>364</ele>
        <time>2022-05-23T11:24:36Z</time>
      </trkpt>
      <trkpt lat="48.03949" lon="7.15121">
        <ele>364</ele>
        <time>2022-05-23T11:24:42Z</time>
      </trkpt>
      <trkpt lat="48.03926" lon="7.15141">
        <ele>364</ele>
        <time>2022-05-23T11:24:47Z</time>
      </trkpt>
      <trkpt lat="48.03893" lon="7.15177">
        <ele>366</ele>
        <time>2022-05-23T11:24:54Z</time>
      </trkpt>
      <trkpt lat="48.03884" lon="7.15183">
        <ele>367</ele>
        <time>2022-05-23T11:24:56Z</time>
      </trkpt>
      <trkpt lat="48.03876" lon="7.15195">
        <ele>368</ele>
        <time>2022-05-23T11:24:58Z</time>
      </trkpt>
      <trkpt lat="48.03876" lon="7.15212">
        <ele>368</ele>
        <time>2022-05-23T11:25:00Z</time>
      </trkpt>
      <trkpt lat="48.03888" lon="7.15288">
        <ele>368</ele>
        <time>2022-05-23T11:25:09Z</time>
      </trkpt>
      <trkpt lat="48.03888" lon="7.15304">
        <ele>368</ele>
        <time>2022-05-23T11:25:11Z</time>
      </trkpt>
      <trkpt lat="48.03881" lon="7.15331">
        <ele>371</ele>
        <time>2022-05-23T11:25:14Z</time>
      </trkpt>
      <trkpt lat="48.03851" lon="7.15399">
        <ele>375</ele>
        <time>2022-05-23T11:25:24Z</time>
      </trkpt>
      <trkpt lat="48.03842" lon="7.15428">
        <ele>376</ele>
        <time>2022-05-23T11:25:28Z</time>
      </trkpt>
      <trkpt lat="48.03828" lon="7.15485">
        <ele>379</ele>
        <time>2022-05-23T11:25:35Z</time>
      </trkpt>
      <trkpt lat="48.03825" lon="7.15515">
        <ele>381</ele>
        <time>2022-05-23T11:25:39Z</time>
      </trkpt>
      <trkpt lat="48.03829" lon="7.15529">
        <ele>382</ele>
        <time>2022-05-23T11:25:41Z</time>
      </trkpt>
      <trkpt lat="48.03845" lon="7.15537">
        <ele>379</ele>
        <time>2022-05-23T11:25:44Z</time>
      </trkpt>
      <trkpt lat="48.03864" lon="7.15555">
        <ele>376</ele>
        <time>2022-05-23T11:25:48Z</time>
      </trkpt>
      <trkpt lat="48.03894" lon="7.15594">
        <ele>373</ele>
        <time>2022-05-23T11:25:55Z</time>
      </trkpt>
      <trkpt lat="48.03912" lon="7.1563">
        <ele>374</ele>
        <time>2022-05-23T11:26:00Z</time>
      </trkpt>
      <trkpt lat="48.03919" lon="7.1565">
        <ele>375</ele>
        <time>2022-05-23T11:26:03Z</time>
      </trkpt>
      <trkpt lat="48.03949" lon="7.15707">
        <ele>374</ele>
        <time>2022-05-23T11:26:11Z</time>
      </trkpt>
      <trkpt lat="48.03962" lon="7.15749">
        <ele>373</ele>
        <time>2022-05-23T11:26:17Z</time>
      </trkpt>
      <trkpt lat="48.03974" lon="7.15795">
        <ele>369</ele>
        <time>2022-05-23T11:26:23Z</time>
      </trkpt>
      <trkpt lat="48.03979" lon="7.15868">
        <ele>368</ele>
        <time>2022-05-23T11:26:31Z</time>
      </trkpt>
      <trkpt lat="48.04003" lon="7.15972">
        <ele>366</ele>
        <time>2022-05-23T11:26:45Z</time>
      </trkpt>
      <trkpt lat="48.04023" lon="7.16037">
        <ele>369</ele>
        <time>2022-05-23T11:26:53Z</time>
      </trkpt>
      <trkpt lat="48.04038" lon="7.16123">
        <ele>372</ele>
        <time>2022-05-23T11:27:04Z</time>
      </trkpt>
      <trkpt lat="48.04068" lon="7.16255">
        <ele>366</ele>
        <time>2022-05-23T11:27:20Z</time>
      </trkpt>
      <trkpt lat="48.04083" lon="7.163">
        <ele>362</ele>
        <time>2022-05-23T11:27:26Z</time>
      </trkpt>
      <trkpt lat="48.04092" lon="7.1635">
        <ele>363</ele>
        <time>2022-05-23T11:27:32Z</time>
      </trkpt>
      <trkpt lat="48.04092" lon="7.16416">
        <ele>365</ele>
        <time>2022-05-23T11:27:40Z</time>
      </trkpt>
      <trkpt lat="48.04104" lon="7.1651">
        <ele>363</ele>
        <time>2022-05-23T11:27:52Z</time>
      </trkpt>
      <trkpt lat="48.04091" lon="7.16585">
        <ele>366</ele>
        <time>2022-05-23T11:28:01Z</time>
      </trkpt>
      <trkpt lat="48.04082" lon="7.16613">
        <ele>366</ele>
        <time>2022-05-23T11:28:05Z</time>
      </trkpt>
      <trkpt lat="48.04063" lon="7.16649">
        <ele>372</ele>
        <time>2022-05-23T11:28:10Z</time>
      </trkpt>
      <trkpt lat="48.04049" lon="7.16687">
        <ele>376</ele>
        <time>2022-05-23T11:28:15Z</time>
      </trkpt>
      <trkpt lat="48.04041" lon="7.16698">
        <ele>379</ele>
        <time>2022-05-23T11:28:17Z</time>
      </trkpt>
      <trkpt lat="48.04011" lon="7.1676">
        <ele>386</ele>
        <time>2022-05-23T11:28:26Z</time>
      </trkpt>
      <trkpt lat="48.04008" lon="7.16774">
        <ele>385</ele>
        <time>2022-05-23T11:28:28Z</time>
      </trkpt>
      <trkpt lat="48.04001" lon="7.16784">
        <ele>387</ele>
        <time>2022-05-23T11:28:30Z</time>
      </trkpt>
      <trkpt lat="48.03988" lon="7.16829">
        <ele>386</ele>
        <time>2022-05-23T11:28:35Z</time>
      </trkpt>
      <trkpt lat="48.03964" lon="7.16885">
        <ele>382</ele>
        <time>2022-05-23T11:28:43Z</time>
      </trkpt>
      <trkpt lat="48.03942" lon="7.16928">
        <ele>381</ele>
        <time>2022-05-23T11:28:50Z</time>
      </trkpt>
      <trkpt lat="48.03932" lon="7.1694">
        <ele>381</ele>
        <time>2022-05-23T11:28:52Z</time>
      </trkpt>
      <trkpt lat="48.03899" lon="7.17">
        <ele>379</ele>
        <time>2022-05-23T11:29:01Z</time>
      </trkpt>
      <trkpt lat="48.03895" lon="7.17015">
        <ele>378</ele>
        <time>2022-05-23T11:29:03Z</time>
      </trkpt>
      <trkpt lat="48.03893" lon="7.17057">
        <ele>371</ele>
        <time>2022-05-23T11:29:08Z</time>
      </trkpt>
      <trkpt lat="48.03885" lon="7.17099">
        <ele>367</ele>
        <time>2022-05-23T11:29:14Z</time>
      </trkpt>
      <trkpt lat="48.03879" lon="7.17121">
        <ele>366</ele>
        <time>2022-05-23T11:29:16Z</time>
      </trkpt>
      <trkpt lat="48.03857" lon="7.17173">
        <ele>364</ele>
        <time>2022-05-23T11:29:24Z</time>
      </trkpt>
      <trkpt lat="48.03834" lon="7.17208">
        <ele>364</ele>
        <time>2022-05-23T11:29:29Z</time>
      </trkpt>
      <trkpt lat="48.03792" lon="7.17232">
        <ele>365</ele>
        <time>2022-05-23T11:29:37Z</time>
      </trkpt>
      <trkpt lat="48.03785" lon="7.17244">
        <ele>364</ele>
        <time>2022-05-23T11:29:39Z</time>
      </trkpt>
      <trkpt lat="48.03781" lon="7.17261">
        <ele>362</ele>
        <time>2022-05-23T11:29:42Z</time>
      </trkpt>
      <trkpt lat="48.03781" lon="7.17283">
        <ele>361</ele>
        <time>2022-05-23T11:29:44Z</time>
      </trkpt>
      <trkpt lat="48.03776" lon="7.17331">
        <ele>358</ele>
        <time>2022-05-23T11:29:50Z</time>
      </trkpt>
      <trkpt lat="48.03781" lon="7.17352">
        <ele>358</ele>
        <time>2022-05-23T11:29:53Z</time>
      </trkpt>
      <trkpt lat="48.03789" lon="7.17364">
        <ele>358</ele>
        <time>2022-05-23T11:29:55Z</time>
      </trkpt>
      <trkpt lat="48.03799" lon="7.1737">
        <ele>358</ele>
        <time>2022-05-23T11:29:57Z</time>
      </trkpt>
      <trkpt lat="48.038" lon="7.17384">
        <ele>358</ele>
        <time>2022-05-23T11:29:58Z</time>
      </trkpt>
      <trkpt lat="48.03696" lon="7.17454">
        <ele>365</ele>
        <time>2022-05-23T11:30:18Z</time>
      </trkpt>
      <trkpt lat="48.03688" lon="7.17463">
        <ele>366</ele>
        <time>2022-05-23T11:30:20Z</time>
      </trkpt>
      <trkpt lat="48.03683" lon="7.17478">
        <ele>367</ele>
        <time>2022-05-23T11:30:22Z</time>
      </trkpt>
      <trkpt lat="48.03686" lon="7.17493">
        <ele>367</ele>
        <time>2022-05-23T11:30:24Z</time>
      </trkpt>
      <trkpt lat="48.03692" lon="7.17506">
        <ele>367</ele>
        <time>2022-05-23T11:30:26Z</time>
      </trkpt>
      <trkpt lat="48.03716" lon="7.17547">
        <ele>365</ele>
        <time>2022-05-23T11:30:32Z</time>
      </trkpt>
      <trkpt lat="48.03748" lon="7.17578">
        <ele>363</ele>
        <time>2022-05-23T11:30:39Z</time>
      </trkpt>
      <trkpt lat="48.03774" lon="7.17593">
        <ele>361</ele>
        <time>2022-05-23T11:30:44Z</time>
      </trkpt>
      <trkpt lat="48.03788" lon="7.17604">
        <ele>360</ele>
        <time>2022-05-23T11:30:47Z</time>
      </trkpt>
      <trkpt lat="48.038" lon="7.17616">
        <ele>359</ele>
        <time>2022-05-23T11:30:50Z</time>
      </trkpt>
      <trkpt lat="48.03811" lon="7.17632">
        <ele>358</ele>
        <time>2022-05-23T11:30:52Z</time>
      </trkpt>
      <trkpt lat="48.0382" lon="7.1765">
        <ele>358</ele>
        <time>2022-05-23T11:30:55Z</time>
      </trkpt>
      <trkpt lat="48.03847" lon="7.17722">
        <ele>355</ele>
        <time>2022-05-23T11:31:05Z</time>
      </trkpt>
      <trkpt lat="48.03873" lon="7.17822">
        <ele>351</ele>
        <time>2022-05-23T11:31:18Z</time>
      </trkpt>
      <trkpt lat="48.03877" lon="7.17861">
        <ele>350</ele>
        <time>2022-05-23T11:31:22Z</time>
      </trkpt>
      <trkpt lat="48.0388" lon="7.17932">
        <ele>351</ele>
        <time>2022-05-23T11:31:31Z</time>
      </trkpt>
      <trkpt lat="48.03898" lon="7.18068">
        <ele>350</ele>
        <time>2022-05-23T11:31:47Z</time>
      </trkpt>
      <trkpt lat="48.0393" lon="7.18229">
        <ele>345</ele>
        <time>2022-05-23T11:32:07Z</time>
      </trkpt>
      <trkpt lat="48.03955" lon="7.18307">
        <ele>346</ele>
        <time>2022-05-23T11:32:18Z</time>
      </trkpt>
      <trkpt lat="48.03969" lon="7.18364">
        <ele>345</ele>
        <time>2022-05-23T11:32:25Z</time>
      </trkpt>
      <trkpt lat="48.03979" lon="7.18481">
        <ele>340</ele>
        <time>2022-05-23T11:32:39Z</time>
      </trkpt>
      <trkpt lat="48.04019" lon="7.18637">
        <ele>338</ele>
        <time>2022-05-23T11:32:59Z</time>
      </trkpt>
      <trkpt lat="48.04022" lon="7.18679">
        <ele>340</ele>
        <time>2022-05-23T11:33:04Z</time>
      </trkpt>
      <trkpt lat="48.04028" lon="7.18703">
        <ele>341</ele>
        <time>2022-05-23T11:33:07Z</time>
      </trkpt>
      <trkpt lat="48.04028" lon="7.18722">
        <ele>342</ele>
        <time>2022-05-23T11:33:09Z</time>
      </trkpt>
      <trkpt lat="48.04022" lon="7.18753">
        <ele>345</ele>
        <time>2022-05-23T11:33:13Z</time>
      </trkpt>
      <trkpt lat="48.04018" lon="7.18809">
        <ele>349</ele>
        <time>2022-05-23T11:33:20Z</time>
      </trkpt>
      <trkpt lat="48.04031" lon="7.18891">
        <ele>349</ele>
        <time>2022-05-23T11:33:30Z</time>
      </trkpt>
      <trkpt lat="48.04053" lon="7.19004">
        <ele>344</ele>
        <time>2022-05-23T11:33:44Z</time>
      </trkpt>
      <trkpt lat="48.04049" lon="7.19077">
        <ele>345</ele>
        <time>2022-05-23T11:33:52Z</time>
      </trkpt>
      <trkpt lat="48.04055" lon="7.19128">
        <ele>343</ele>
        <time>2022-05-23T11:33:58Z</time>
      </trkpt>
      <trkpt lat="48.04075" lon="7.19227">
        <ele>335</ele>
        <time>2022-05-23T11:34:11Z</time>
      </trkpt>
      <trkpt lat="48.04102" lon="7.19299">
        <ele>332</ele>
        <time>2022-05-23T11:34:21Z</time>
      </trkpt>
      <trkpt lat="48.04106" lon="7.19317">
        <ele>333</ele>
        <time>2022-05-23T11:34:23Z</time>
      </trkpt>
      <trkpt lat="48.04142" lon="7.19571">
        <ele>337</ele>
        <time>2022-05-23T11:34:54Z</time>
      </trkpt>
      <trkpt lat="48.04178" lon="7.19662">
        <ele>336</ele>
        <time>2022-05-23T11:35:06Z</time>
      </trkpt>
      <trkpt lat="48.04205" lon="7.19677">
        <ele>331</ele>
        <time>2022-05-23T11:35:11Z</time>
      </trkpt>
      <trkpt lat="48.04212" lon="7.19757">
        <ele>333</ele>
        <time>2022-05-23T11:35:21Z</time>
      </trkpt>
      <trkpt lat="48.04221" lon="7.19818">
        <ele>329</ele>
        <time>2022-05-23T11:35:28Z</time>
      </trkpt>
      <trkpt lat="48.04275" lon="7.20065">
        <ele>317</ele>
        <time>2022-05-23T11:35:59Z</time>
      </trkpt>
      <trkpt lat="48.04403" lon="7.20473">
        <ele>313</ele>
        <time>2022-05-23T11:36:53Z</time>
      </trkpt>
      <trkpt lat="48.04443" lon="7.20593">
        <ele>311</ele>
        <time>2022-05-23T11:37:09Z</time>
      </trkpt>
      <trkpt lat="48.04463" lon="7.20644">
        <ele>312</ele>
        <time>2022-05-23T11:37:16Z</time>
      </trkpt>
      <trkpt lat="48.04458" lon="7.20632">
        <ele>312</ele>
        <time>2022-05-23T11:37:18Z</time>
      </trkpt>
      <trkpt lat="48.04437" lon="7.20657">
        <ele>312</ele>
        <time>2022-05-23T11:37:22Z</time>
      </trkpt>
      <trkpt lat="48.04423" lon="7.20702">
        <ele>313</ele>
        <time>2022-05-23T11:37:28Z</time>
      </trkpt>
      <trkpt lat="48.04421" lon="7.2072">
        <ele>313</ele>
        <time>2022-05-23T11:37:30Z</time>
      </trkpt>
      <trkpt lat="48.04426" lon="7.20737">
        <ele>313</ele>
        <time>2022-05-23T11:37:33Z</time>
      </trkpt>
      <trkpt lat="48.04523" lon="7.20947">
        <ele>308</ele>
        <time>2022-05-23T11:38:03Z</time>
      </trkpt>
      <trkpt lat="48.04577" lon="7.21027">
        <ele>306</ele>
        <time>2022-05-23T11:38:17Z</time>
      </trkpt>
      <trkpt lat="48.04585" lon="7.21037">
        <ele>306</ele>
        <time>2022-05-23T11:38:18Z</time>
      </trkpt>
      <trkpt lat="48.04595" lon="7.2104">
        <ele>306</ele>
        <time>2022-05-23T11:38:20Z</time>
      </trkpt>
      <trkpt lat="48.04623" lon="7.21013">
        <ele>307</ele>
        <time>2022-05-23T11:38:26Z</time>
      </trkpt>
      <trkpt lat="48.0464" lon="7.21017">
        <ele>307</ele>
        <time>2022-05-23T11:38:29Z</time>
      </trkpt>
      <trkpt lat="48.04982" lon="7.21695">
        <ele>300</ele>
        <time>2022-05-23T11:40:10Z</time>
      </trkpt>
      <trkpt lat="48.04993" lon="7.21719">
        <ele>299</ele>
        <time>2022-05-23T11:40:14Z</time>
      </trkpt>
      <trkpt lat="48.0499" lon="7.21731">
        <ele>299</ele>
        <time>2022-05-23T11:40:15Z</time>
      </trkpt>
      <trkpt lat="48.05044" lon="7.21835">
        <ele>298</ele>
        <time>2022-05-23T11:40:31Z</time>
      </trkpt>
      <trkpt lat="48.0507" lon="7.21889">
        <ele>297</ele>
        <time>2022-05-23T11:40:39Z</time>
      </trkpt>
      <trkpt lat="48.05075" lon="7.21906">
        <ele>297</ele>
        <time>2022-05-23T11:40:41Z</time>
      </trkpt>
      <trkpt lat="48.05068" lon="7.21922">
        <ele>297</ele>
        <time>2022-05-23T11:40:43Z</time>
      </trkpt>
      <trkpt lat="48.05015" lon="7.21958">
        <ele>297</ele>
        <time>2022-05-23T11:40:54Z</time>
      </trkpt>
      <trkpt lat="48.0496" lon="7.2201">
        <ele>298</ele>
        <time>2022-05-23T11:41:05Z</time>
      </trkpt>
      <trkpt lat="48.0493" lon="7.22033">
        <ele>300</ele>
        <time>2022-05-23T11:41:11Z</time>
      </trkpt>
      <trkpt lat="48.04874" lon="7.22064">
        <ele>304</ele>
        <time>2022-05-23T11:41:22Z</time>
      </trkpt>
      <trkpt lat="48.04856" lon="7.22077">
        <ele>306</ele>
        <time>2022-05-23T11:41:25Z</time>
      </trkpt>
      <trkpt lat="48.04805" lon="7.2212">
        <ele>316</ele>
        <time>2022-05-23T11:41:36Z</time>
      </trkpt>
      <trkpt lat="48.04797" lon="7.2213">
        <ele>318</ele>
        <time>2022-05-23T11:41:38Z</time>
      </trkpt>
      <trkpt lat="48.04789" lon="7.22146">
        <ele>321</ele>
        <time>2022-05-23T11:41:40Z</time>
      </trkpt>
      <trkpt lat="48.04813" lon="7.22169">
        <ele>321</ele>
        <time>2022-05-23T11:41:45Z</time>
      </trkpt>
      <trkpt lat="48.0482" lon="7.22181">
        <ele>322</ele>
        <time>2022-05-23T11:41:47Z</time>
      </trkpt>
      <trkpt lat="48.04858" lon="7.22287">
        <ele>329</ele>
        <time>2022-05-23T11:42:01Z</time>
      </trkpt>
      <trkpt lat="48.04874" lon="7.22338">
        <ele>330</ele>
        <time>2022-05-23T11:42:08Z</time>
      </trkpt>
      <trkpt lat="48.04885" lon="7.2241">
        <ele>335</ele>
        <time>2022-05-23T11:42:17Z</time>
      </trkpt>
      <trkpt lat="48.04893" lon="7.22436">
        <ele>336</ele>
        <time>2022-05-23T11:42:20Z</time>
      </trkpt>
      <trkpt lat="48.04898" lon="7.22466">
        <ele>340</ele>
        <time>2022-05-23T11:42:24Z</time>
      </trkpt>
      <trkpt lat="48.04913" lon="7.22507">
        <ele>341</ele>
        <time>2022-05-23T11:42:29Z</time>
      </trkpt>
      <trkpt lat="48.04925" lon="7.22528">
        <ele>340</ele>
        <time>2022-05-23T11:42:33Z</time>
      </trkpt>
      <trkpt lat="48.04953" lon="7.22593">
        <ele>341</ele>
        <time>2022-05-23T11:42:42Z</time>
      </trkpt>
      <trkpt lat="48.04971" lon="7.22628">
        <ele>341</ele>
        <time>2022-05-23T11:42:47Z</time>
      </trkpt>
      <trkpt lat="48.04974" lon="7.22641">
        <ele>342</ele>
        <time>2022-05-23T11:42:49Z</time>
      </trkpt>
      <trkpt lat="48.04974" lon="7.22656">
        <ele>345</ele>
        <time>2022-05-23T11:42:51Z</time>
      </trkpt>
      <trkpt lat="48.04967" lon="7.22666">
        <ele>351</ele>
        <time>2022-05-23T11:42:52Z</time>
      </trkpt>
      <trkpt lat="48.04958" lon="7.22665">
        <ele>355</ele>
        <time>2022-05-23T11:42:54Z</time>
      </trkpt>
      <trkpt lat="48.04929" lon="7.22605">
        <ele>355</ele>
        <time>2022-05-23T11:43:03Z</time>
      </trkpt>
      <trkpt lat="48.04908" lon="7.22575">
        <ele>359</ele>
        <time>2022-05-23T11:43:08Z</time>
      </trkpt>
      <trkpt lat="48.049" lon="7.22568">
        <ele>362</ele>
        <time>2022-05-23T11:43:10Z</time>
      </trkpt>
      <trkpt lat="48.04892" lon="7.22549">
        <ele>362</ele>
        <time>2022-05-23T11:43:12Z</time>
      </trkpt>
      <trkpt lat="48.04883" lon="7.22547">
        <ele>367</ele>
        <time>2022-05-23T11:43:14Z</time>
      </trkpt>
      <trkpt lat="48.04864" lon="7.22515">
        <ele>370</ele>
        <time>2022-05-23T11:43:19Z</time>
      </trkpt>
      <trkpt lat="48.04828" lon="7.22438">
        <ele>372</ele>
        <time>2022-05-23T11:43:30Z</time>
      </trkpt>
      <trkpt lat="48.04795" lon="7.22379">
        <ele>372</ele>
        <time>2022-05-23T11:43:39Z</time>
      </trkpt>
      <trkpt lat="48.04772" lon="7.22353">
        <ele>374</ele>
        <time>2022-05-23T11:43:44Z</time>
      </trkpt>
      <trkpt lat="48.04754" lon="7.2234">
        <ele>377</ele>
        <time>2022-05-23T11:43:48Z</time>
      </trkpt>
      <trkpt lat="48.04744" lon="7.22336">
        <ele>378</ele>
        <time>2022-05-23T11:43:50Z</time>
      </trkpt>
      <trkpt lat="48.04726" lon="7.22342">
        <ele>379</ele>
        <time>2022-05-23T11:43:53Z</time>
      </trkpt>
      <trkpt lat="48.04698" lon="7.22357">
        <ele>384</ele>
        <time>2022-05-23T11:43:58Z</time>
      </trkpt>
      <trkpt lat="48.04679" lon="7.2236">
        <ele>385</ele>
        <time>2022-05-23T11:44:02Z</time>
      </trkpt>
      <trkpt lat="48.0466" lon="7.22367">
        <ele>387</ele>
        <time>2022-05-23T11:44:05Z</time>
      </trkpt>
      <trkpt lat="48.04631" lon="7.22383">
        <ele>389</ele>
        <time>2022-05-23T11:44:11Z</time>
      </trkpt>
      <trkpt lat="48.04608" lon="7.22409">
        <ele>395</ele>
        <time>2022-05-23T11:44:16Z</time>
      </trkpt>
      <trkpt lat="48.04595" lon="7.22431">
        <ele>399</ele>
        <time>2022-05-23T11:44:19Z</time>
      </trkpt>
      <trkpt lat="48.0458" lon="7.22484">
        <ele>410</ele>
        <time>2022-05-23T11:44:26Z</time>
      </trkpt>
      <trkpt lat="48.04543" lon="7.22497">
        <ele>409</ele>
        <time>2022-05-23T11:44:33Z</time>
      </trkpt>
      <trkpt lat="48.04535" lon="7.22503">
        <ele>410</ele>
        <time>2022-05-23T11:44:35Z</time>
      </trkpt>
      <trkpt lat="48.04488" lon="7.22522">
        <ele>411</ele>
        <time>2022-05-23T11:44:43Z</time>
      </trkpt>
      <trkpt lat="48.04472" lon="7.2254">
        <ele>416</ele>
        <time>2022-05-23T11:44:47Z</time>
      </trkpt>
      <trkpt lat="48.04461" lon="7.22564">
        <ele>421</ele>
        <time>2022-05-23T11:44:50Z</time>
      </trkpt>
      <trkpt lat="48.04449" lon="7.22563">
        <ele>421</ele>
        <time>2022-05-23T11:44:52Z</time>
      </trkpt>
      <trkpt lat="48.04447" lon="7.22577">
        <ele>423</ele>
        <time>2022-05-23T11:44:54Z</time>
      </trkpt>
      <trkpt lat="48.04432" lon="7.22595">
        <ele>427</ele>
        <time>2022-05-23T11:44:58Z</time>
      </trkpt>
      <trkpt lat="48.04422" lon="7.22596">
        <ele>426</ele>
        <time>2022-05-23T11:44:59Z</time>
      </trkpt>
      <trkpt lat="48.04406" lon="7.22576">
        <ele>425</ele>
        <time>2022-05-23T11:45:03Z</time>
      </trkpt>
      <trkpt lat="48.04391" lon="7.22542">
        <ele>425</ele>
        <time>2022-05-23T11:45:08Z</time>
      </trkpt>
      <trkpt lat="48.04375" lon="7.22524">
        <ele>427</ele>
        <time>2022-05-23T11:45:11Z</time>
      </trkpt>
      <trkpt lat="48.04341" lon="7.22497">
        <ele>431</ele>
        <time>2022-05-23T11:45:18Z</time>
      </trkpt>
      <trkpt lat="48.04323" lon="7.22488">
        <ele>433</ele>
        <time>2022-05-23T11:45:22Z</time>
      </trkpt>
      <trkpt lat="48.04309" lon="7.22485">
        <ele>435</ele>
        <time>2022-05-23T11:45:24Z</time>
      </trkpt>
      <trkpt lat="48.04295" lon="7.22477">
        <ele>436</ele>
        <time>2022-05-23T11:45:27Z</time>
      </trkpt>
      <trkpt lat="48.04266" lon="7.22478">
        <ele>442</ele>
        <time>2022-05-23T11:45:32Z</time>
      </trkpt>
      <trkpt lat="48.04258" lon="7.22483">
        <ele>445</ele>
        <time>2022-05-23T11:45:34Z</time>
      </trkpt>
      <trkpt lat="48.04229" lon="7.22489">
        <ele>450</ele>
        <time>2022-05-23T11:45:39Z</time>
      </trkpt>
      <trkpt lat="48.04205" lon="7.22488">
        <ele>452</ele>
        <time>2022-05-23T11:45:43Z</time>
      </trkpt>
      <trkpt lat="48.04217" lon="7.22489">
        <ele>451</ele>
        <time>2022-05-23T11:45:45Z</time>
      </trkpt>
      <trkpt lat="48.04208" lon="7.22494">
        <ele>454</ele>
        <time>2022-05-23T11:45:47Z</time>
      </trkpt>
      <trkpt lat="48.04189" lon="7.22493">
        <ele>455</ele>
        <time>2022-05-23T11:45:50Z</time>
      </trkpt>
      <trkpt lat="48.04181" lon="7.22497">
        <ele>457</ele>
        <time>2022-05-23T11:45:52Z</time>
      </trkpt>
      <trkpt lat="48.04172" lon="7.22502">
        <ele>459</ele>
        <time>2022-05-23T11:45:53Z</time>
      </trkpt>
      <trkpt lat="48.04152" lon="7.2252">
        <ele>468</ele>
        <time>2022-05-23T11:45:58Z</time>
      </trkpt>
      <trkpt lat="48.04142" lon="7.22525">
        <ele>470</ele>
        <time>2022-05-23T11:45:59Z</time>
      </trkpt>
      <trkpt lat="48.04076" lon="7.22572">
        <ele>486</ele>
        <time>2022-05-23T11:46:12Z</time>
      </trkpt>
      <trkpt lat="48.04052" lon="7.22624">
        <ele>500</ele>
        <time>2022-05-23T11:46:20Z</time>
      </trkpt>
      <trkpt lat="48.04037" lon="7.22641">
        <ele>503</ele>
        <time>2022-05-23T11:46:23Z</time>
      </trkpt>
      <trkpt lat="48.04028" lon="7.22665">
        <ele>507</ele>
        <time>2022-05-23T11:46:27Z</time>
      </trkpt>
      <trkpt lat="48.03988" lon="7.22725">
        <ele>520</ele>
        <time>2022-05-23T11:46:37Z</time>
      </trkpt>
      <trkpt lat="48.03962" lon="7.22744">
        <ele>524</ele>
        <time>2022-05-23T11:46:42Z</time>
      </trkpt>
      <trkpt lat="48.03955" lon="7.22754">
        <ele>525</ele>
        <time>2022-05-23T11:46:44Z</time>
      </trkpt>
      <trkpt lat="48.03946" lon="7.22758">
        <ele>526</ele>
        <time>2022-05-23T11:46:45Z</time>
      </trkpt>
      <trkpt lat="48.03938" lon="7.22769">
        <ele>529</ele>
        <time>2022-05-23T11:46:47Z</time>
      </trkpt>
      <trkpt lat="48.0393" lon="7.22758">
        <ele>525</ele>
        <time>2022-05-23T11:46:49Z</time>
      </trkpt>
      <trkpt lat="48.03903" lon="7.22773">
        <ele>531</ele>
        <time>2022-05-23T11:46:54Z</time>
      </trkpt>
      <trkpt lat="48.03897" lon="7.22761">
        <ele>530</ele>
        <time>2022-05-23T11:46:56Z</time>
      </trkpt>
      <trkpt lat="48.03891" lon="7.22689">
        <ele>529</ele>
        <time>2022-05-23T11:47:05Z</time>
      </trkpt>
      <trkpt lat="48.03884" lon="7.2266">
        <ele>531</ele>
        <time>2022-05-23T11:47:08Z</time>
      </trkpt>
      <trkpt lat="48.0388" lon="7.22617">
        <ele>537</ele>
        <time>2022-05-23T11:47:13Z</time>
      </trkpt>
      <trkpt lat="48.0388" lon="7.22589">
        <ele>540</ele>
        <time>2022-05-23T11:47:17Z</time>
      </trkpt>
      <trkpt lat="48.03885" lon="7.22562">
        <ele>539</ele>
        <time>2022-05-23T11:47:20Z</time>
      </trkpt>
      <trkpt lat="48.03885" lon="7.2249">
        <ele>544</ele>
        <time>2022-05-23T11:47:29Z</time>
      </trkpt>
      <trkpt lat="48.03886" lon="7.22475">
        <ele>544</ele>
        <time>2022-05-23T11:47:31Z</time>
      </trkpt>
      <trkpt lat="48.0389" lon="7.22461">
        <ele>543</ele>
        <time>2022-05-23T11:47:32Z</time>
      </trkpt>
      <trkpt lat="48.03888" lon="7.22431">
        <ele>546</ele>
        <time>2022-05-23T11:47:36Z</time>
      </trkpt>
      <trkpt lat="48.03876" lon="7.22391">
        <ele>550</ele>
        <time>2022-05-23T11:47:41Z</time>
      </trkpt>
      <trkpt lat="48.03867" lon="7.2232">
        <ele>549</ele>
        <time>2022-05-23T11:47:50Z</time>
      </trkpt>
      <trkpt lat="48.03863" lon="7.22308">
        <ele>550</ele>
        <time>2022-05-23T11:47:51Z</time>
      </trkpt>
      <trkpt lat="48.03856" lon="7.22299">
        <ele>551</ele>
        <time>2022-05-23T11:47:53Z</time>
      </trkpt>
      <trkpt lat="48.0386" lon="7.22319">
        <ele>552</ele>
        <time>2022-05-23T11:47:55Z</time>
      </trkpt>
      <trkpt lat="48.03862" lon="7.22349">
        <ele>553</ele>
        <time>2022-05-23T11:47:59Z</time>
      </trkpt>
      <trkpt lat="48.0386" lon="7.22378">
        <ele>555</ele>
        <time>2022-05-23T11:48:03Z</time>
      </trkpt>
      <trkpt lat="48.03856" lon="7.22392">
        <ele>558</ele>
        <time>2022-05-23T11:48:04Z</time>
      </trkpt>
      <trkpt lat="48.03855" lon="7.22419">
        <ele>559</ele>
        <time>2022-05-23T11:48:08Z</time>
      </trkpt>
      <trkpt lat="48.0385" lon="7.22433">
        <ele>561</ele>
        <time>2022-05-23T11:48:09Z</time>
      </trkpt>
      <trkpt lat="48.03836" lon="7.22514">
        <ele>564</ele>
        <time>2022-05-23T11:48:19Z</time>
      </trkpt>
      <trkpt lat="48.03828" lon="7.2254">
        <ele>568</ele>
        <time>2022-05-23T11:48:23Z</time>
      </trkpt>
      <trkpt lat="48.03827" lon="7.22555">
        <ele>568</ele>
        <time>2022-05-23T11:48:25Z</time>
      </trkpt>
      <trkpt lat="48.03825" lon="7.22541">
        <ele>569</ele>
        <time>2022-05-23T11:48:26Z</time>
      </trkpt>
      <trkpt lat="48.03827" lon="7.22511">
        <ele>569</ele>
        <time>2022-05-23T11:48:30Z</time>
      </trkpt>
      <trkpt lat="48.03842" lon="7.22432">
        <ele>564</ele>
        <time>2022-05-23T11:48:40Z</time>
      </trkpt>
      <trkpt lat="48.03853" lon="7.22344">
        <ele>556</ele>
        <time>2022-05-23T11:48:50Z</time>
      </trkpt>
      <trkpt lat="48.03853" lon="7.2233">
        <ele>555</ele>
        <time>2022-05-23T11:48:52Z</time>
      </trkpt>
      <trkpt lat="48.03848" lon="7.22299">
        <ele>554</ele>
        <time>2022-05-23T11:48:56Z</time>
      </trkpt>
      <trkpt lat="48.03823" lon="7.2228">
        <ele>562</ele>
        <time>2022-05-23T11:49:01Z</time>
      </trkpt>
      <trkpt lat="48.03808" lon="7.22263">
        <ele>567</ele>
        <time>2022-05-23T11:49:04Z</time>
      </trkpt>
      <trkpt lat="48.03801" lon="7.22235">
        <ele>569</ele>
        <time>2022-05-23T11:49:08Z</time>
      </trkpt>
      <trkpt lat="48.03798" lon="7.22206">
        <ele>570</ele>
        <time>2022-05-23T11:49:11Z</time>
      </trkpt>
      <trkpt lat="48.03807" lon="7.2215">
        <ele>568</ele>
        <time>2022-05-23T11:49:18Z</time>
      </trkpt>
      <trkpt lat="48.03802" lon="7.22122">
        <ele>574</ele>
        <time>2022-05-23T11:49:21Z</time>
      </trkpt>
      <trkpt lat="48.03805" lon="7.22108">
        <ele>575</ele>
        <time>2022-05-23T11:49:23Z</time>
      </trkpt>
      <trkpt lat="48.03809" lon="7.22095">
        <ele>575</ele>
        <time>2022-05-23T11:49:25Z</time>
      </trkpt>
      <trkpt lat="48.03823" lon="7.22075">
        <ele>572</ele>
        <time>2022-05-23T11:49:28Z</time>
      </trkpt>
      <trkpt lat="48.03843" lon="7.22024">
        <ele>568</ele>
        <time>2022-05-23T11:49:35Z</time>
      </trkpt>
      <trkpt lat="48.0384" lon="7.2201">
        <ele>571</ele>
        <time>2022-05-23T11:49:37Z</time>
      </trkpt>
      <trkpt lat="48.0379" lon="7.21942">
        <ele>580</ele>
        <time>2022-05-23T11:49:49Z</time>
      </trkpt>
      <trkpt lat="48.03781" lon="7.21938">
        <ele>581</ele>
        <time>2022-05-23T11:49:51Z</time>
      </trkpt>
      <trkpt lat="48.03772" lon="7.21939">
        <ele>583</ele>
        <time>2022-05-23T11:49:52Z</time>
      </trkpt>
      <trkpt lat="48.03749" lon="7.21952">
        <ele>589</ele>
        <time>2022-05-23T11:49:57Z</time>
      </trkpt>
      <trkpt lat="48.03746" lon="7.21966">
        <ele>591</ele>
        <time>2022-05-23T11:49:59Z</time>
      </trkpt>
      <trkpt lat="48.03747" lon="7.2198">
        <ele>593</ele>
        <time>2022-05-23T11:50:00Z</time>
      </trkpt>
      <trkpt lat="48.03754" lon="7.22007">
        <ele>595</ele>
        <time>2022-05-23T11:50:04Z</time>
      </trkpt>
      <trkpt lat="48.03753" lon="7.22049">
        <ele>596</ele>
        <time>2022-05-23T11:50:09Z</time>
      </trkpt>
      <trkpt lat="48.03729" lon="7.22111">
        <ele>602</ele>
        <time>2022-05-23T11:50:17Z</time>
      </trkpt>
      <trkpt lat="48.03728" lon="7.22125">
        <ele>602</ele>
        <time>2022-05-23T11:50:19Z</time>
      </trkpt>
      <trkpt lat="48.03716" lon="7.22163">
        <ele>607</ele>
        <time>2022-05-23T11:50:24Z</time>
      </trkpt>
      <trkpt lat="48.03679" lon="7.22247">
        <ele>627</ele>
        <time>2022-05-23T11:50:36Z</time>
      </trkpt>
      <trkpt lat="48.03672" lon="7.22257">
        <ele>632</ele>
        <time>2022-05-23T11:50:38Z</time>
      </trkpt>
      <trkpt lat="48.03665" lon="7.22282">
        <ele>636</ele>
        <time>2022-05-23T11:50:41Z</time>
      </trkpt>
      <trkpt lat="48.0366" lon="7.22339">
        <ele>639</ele>
        <time>2022-05-23T11:50:48Z</time>
      </trkpt>
      <trkpt lat="48.0365" lon="7.22379">
        <ele>645</ele>
        <time>2022-05-23T11:50:53Z</time>
      </trkpt>
      <trkpt lat="48.03649" lon="7.22392">
        <ele>647</ele>
        <time>2022-05-23T11:50:54Z</time>
      </trkpt>
      <trkpt lat="48.0365" lon="7.2242">
        <ele>650</ele>
        <time>2022-05-23T11:50:58Z</time>
      </trkpt>
      <trkpt lat="48.03648" lon="7.22434">
        <ele>651</ele>
        <time>2022-05-23T11:50:59Z</time>
      </trkpt>
      <trkpt lat="48.03654" lon="7.22523">
        <ele>656</ele>
        <time>2022-05-23T11:51:10Z</time>
      </trkpt>
      <trkpt lat="48.0365" lon="7.2255">
        <ele>659</ele>
        <time>2022-05-23T11:51:13Z</time>
      </trkpt>
      <trkpt lat="48.03648" lon="7.22592">
        <ele>662</ele>
        <time>2022-05-23T11:51:18Z</time>
      </trkpt>
      <trkpt lat="48.03637" lon="7.22645">
        <ele>668</ele>
        <time>2022-05-23T11:51:25Z</time>
      </trkpt>
      <trkpt lat="48.03605" lon="7.22748">
        <ele>685</ele>
        <time>2022-05-23T11:51:38Z</time>
      </trkpt>
      <trkpt lat="48.03603" lon="7.22776">
        <ele>685</ele>
        <time>2022-05-23T11:51:42Z</time>
      </trkpt>
      <trkpt lat="48.03588" lon="7.22828">
        <ele>693</ele>
        <time>2022-05-23T11:51:48Z</time>
      </trkpt>
      <trkpt lat="48.03586" lon="7.22884">
        <ele>700</ele>
        <time>2022-05-23T11:51:55Z</time>
      </trkpt>
      <trkpt lat="48.03575" lon="7.22963">
        <ele>712</ele>
        <time>2022-05-23T11:52:05Z</time>
      </trkpt>
      <trkpt lat="48.03576" lon="7.22977">
        <ele>713</ele>
        <time>2022-05-23T11:52:06Z</time>
      </trkpt>
      <trkpt lat="48.03587" lon="7.2298">
        <ele>706</ele>
        <time>2022-05-23T11:52:08Z</time>
      </trkpt>
      <trkpt lat="48.0358" lon="7.22994">
        <ele>711</ele>
        <time>2022-05-23T11:52:10Z</time>
      </trkpt>
      <trkpt lat="48.03582" lon="7.23024">
        <ele>714</ele>
        <time>2022-05-23T11:52:14Z</time>
      </trkpt>
      <trkpt lat="48.03588" lon="7.23051">
        <ele>716</ele>
        <time>2022-05-23T11:52:17Z</time>
      </trkpt>
      <trkpt lat="48.03588" lon="7.23065">
        <ele>719</ele>
        <time>2022-05-23T11:52:19Z</time>
      </trkpt>
      <trkpt lat="48.03593" lon="7.23093">
        <ele>723</ele>
        <time>2022-05-23T11:52:23Z</time>
      </trkpt>
      <trkpt lat="48.03605" lon="7.23114">
        <ele>724</ele>
        <time>2022-05-23T11:52:26Z</time>
      </trkpt>
      <trkpt lat="48.03633" lon="7.23149">
        <ele>721</ele>
        <time>2022-05-23T11:52:32Z</time>
      </trkpt>
      <trkpt lat="48.03647" lon="7.23201">
        <ele>729</ele>
        <time>2022-05-23T11:52:39Z</time>
      </trkpt>
      <trkpt lat="48.03647" lon="7.23246">
        <ele>741</ele>
        <time>2022-05-23T11:52:44Z</time>
      </trkpt>
      <trkpt lat="48.0365" lon="7.23273">
        <ele>747</ele>
        <time>2022-05-23T11:52:48Z</time>
      </trkpt>
      <trkpt lat="48.03654" lon="7.23285">
        <ele>749</ele>
        <time>2022-05-23T11:52:49Z</time>
      </trkpt>
      <trkpt lat="48.03668" lon="7.23322">
        <ele>753</ele>
        <time>2022-05-23T11:52:54Z</time>
      </trkpt>
      <trkpt lat="48.03686" lon="7.23357">
        <ele>761</ele>
        <time>2022-05-23T11:52:59Z</time>
      </trkpt>
      <trkpt lat="48.03702" lon="7.23376">
        <ele>763</ele>
        <time>2022-05-23T11:53:03Z</time>
      </trkpt>
      <trkpt lat="48.03711" lon="7.23381">
        <ele>762</ele>
        <time>2022-05-23T11:53:05Z</time>
      </trkpt>
      <trkpt lat="48.03726" lon="7.23395">
        <ele>763</ele>
        <time>2022-05-23T11:53:08Z</time>
      </trkpt>
      <trkpt lat="48.0374" lon="7.23414">
        <ele>766</ele>
        <time>2022-05-23T11:53:11Z</time>
      </trkpt>
      <trkpt lat="48.03757" lon="7.23467">
        <ele>768</ele>
        <time>2022-05-23T11:53:18Z</time>
      </trkpt>
      <trkpt lat="48.03763" lon="7.23512">
        <ele>771</ele>
        <time>2022-05-23T11:53:24Z</time>
      </trkpt>
      <trkpt lat="48.03784" lon="7.23585">
        <ele>768</ele>
        <time>2022-05-23T11:53:33Z</time>
      </trkpt>
      <trkpt lat="48.03792" lon="7.23596">
        <ele>765</ele>
        <time>2022-05-23T11:53:35Z</time>
      </trkpt>
      <trkpt lat="48.03801" lon="7.23635">
        <ele>766</ele>
        <time>2022-05-23T11:53:40Z</time>
      </trkpt>
      <trkpt lat="48.03838" lon="7.23712">
        <ele>758</ele>
        <time>2022-05-23T11:53:51Z</time>
      </trkpt>
      <trkpt lat="48.03868" lon="7.23784">
        <ele>750</ele>
        <time>2022-05-23T11:54:01Z</time>
      </trkpt>
      <trkpt lat="48.03868" lon="7.23799">
        <ele>751</ele>
        <time>2022-05-23T11:54:03Z</time>
      </trkpt>
      <trkpt lat="48.03853" lon="7.23841">
        <ele>758</ele>
        <time>2022-05-23T11:54:09Z</time>
      </trkpt>
      <trkpt lat="48.03843" lon="7.23913">
        <ele>752</ele>
        <time>2022-05-23T11:54:18Z</time>
      </trkpt>
      <trkpt lat="48.03839" lon="7.23958">
        <ele>750</ele>
        <time>2022-05-23T11:54:23Z</time>
      </trkpt>
      <trkpt lat="48.0384" lon="7.23986">
        <ele>747</ele>
        <time>2022-05-23T11:54:26Z</time>
      </trkpt>
      <trkpt lat="48.03843" lon="7.23999">
        <ele>744</ele>
        <time>2022-05-23T11:54:28Z</time>
      </trkpt>
      <trkpt lat="48.03836" lon="7.24047">
        <ele>742</ele>
        <time>2022-05-23T11:54:34Z</time>
      </trkpt>
      <trkpt lat="48.0382" lon="7.241">
        <ele>739</ele>
        <time>2022-05-23T11:54:41Z</time>
      </trkpt>
      <trkpt lat="48.03814" lon="7.24113">
        <ele>737</ele>
        <time>2022-05-23T11:54:43Z</time>
      </trkpt>
      <trkpt lat="48.03806" lon="7.24119">
        <ele>738</ele>
        <time>2022-05-23T11:54:44Z</time>
      </trkpt>
      <trkpt lat="48.03799" lon="7.24129">
        <ele>737</ele>
        <time>2022-05-23T11:54:46Z</time>
      </trkpt>
      <trkpt lat="48.0377" lon="7.24134">
        <ele>744</ele>
        <time>2022-05-23T11:54:51Z</time>
      </trkpt>
      <trkpt lat="48.03745" lon="7.24157">
        <ele>742</ele>
        <time>2022-05-23T11:54:56Z</time>
      </trkpt>
      <trkpt lat="48.03735" lon="7.24163">
        <ele>741</ele>
        <time>2022-05-23T11:54:58Z</time>
      </trkpt>
      <trkpt lat="48.03723" lon="7.24161">
        <ele>742</ele>
        <time>2022-05-23T11:55:00Z</time>
      </trkpt>
      <trkpt lat="48.03714" lon="7.24166">
        <ele>741</ele>
        <time>2022-05-23T11:55:02Z</time>
      </trkpt>
      <trkpt lat="48.03689" lon="7.24197">
        <ele>736</ele>
        <time>2022-05-23T11:55:08Z</time>
      </trkpt>
      <trkpt lat="48.03668" lon="7.24211">
        <ele>736</ele>
        <time>2022-05-23T11:55:12Z</time>
      </trkpt>
      <trkpt lat="48.03647" lon="7.2422">
        <ele>733</ele>
        <time>2022-05-23T11:55:16Z</time>
      </trkpt>
      <trkpt lat="48.03616" lon="7.2425">
        <ele>728</ele>
        <time>2022-05-23T11:55:23Z</time>
      </trkpt>
      <trkpt lat="48.03614" lon="7.24237">
        <ele>729</ele>
        <time>2022-05-23T11:55:24Z</time>
      </trkpt>
      <trkpt lat="48.03624" lon="7.24233">
        <ele>730</ele>
        <time>2022-05-23T11:55:26Z</time>
      </trkpt>
      <trkpt lat="48.0365" lon="7.24213">
        <ele>735</ele>
        <time>2022-05-23T11:55:31Z</time>
      </trkpt>
      <trkpt lat="48.03633" lon="7.24231">
        <ele>731</ele>
        <time>2022-05-23T11:55:35Z</time>
      </trkpt>
      <trkpt lat="48.03623" lon="7.24237">
        <ele>730</ele>
        <time>2022-05-23T11:55:37Z</time>
      </trkpt>
      <trkpt lat="48.03615" lon="7.24231">
        <ele>730</ele>
        <time>2022-05-23T11:55:38Z</time>
      </trkpt>
      <trkpt lat="48.03633" lon="7.24227">
        <ele>731</ele>
        <time>2022-05-23T11:55:42Z</time>
      </trkpt>
      <trkpt lat="48.03642" lon="7.24217">
        <ele>733</ele>
        <time>2022-05-23T11:55:44Z</time>
      </trkpt>
      <trkpt lat="48.03651" lon="7.24212">
        <ele>735</ele>
        <time>2022-05-23T11:55:45Z</time>
      </trkpt>
      <trkpt lat="48.03644" lon="7.24221">
        <ele>733</ele>
        <time>2022-05-23T11:55:47Z</time>
      </trkpt>
      <trkpt lat="48.03635" lon="7.24227">
        <ele>731</ele>
        <time>2022-05-23T11:55:49Z</time>
      </trkpt>
      <trkpt lat="48.03628" lon="7.24237">
        <ele>730</ele>
        <time>2022-05-23T11:55:50Z</time>
      </trkpt>
      <trkpt lat="48.03618" lon="7.24236">
        <ele>730</ele>
        <time>2022-05-23T11:55:52Z</time>
      </trkpt>
      <trkpt lat="48.03614" lon="7.24249">
        <ele>728</ele>
        <time>2022-05-23T11:55:54Z</time>
      </trkpt>
      <trkpt lat="48.03608" lon="7.24257">
        <ele>729</ele>
        <time>2022-05-23T11:55:55Z</time>
      </trkpt>
      <trkpt lat="48.03608" lon="7.2424">
        <ele>729</ele>
        <time>2022-05-23T11:55:57Z</time>
      </trkpt>
      <trkpt lat="48.03613" lon="7.24253">
        <ele>729</ele>
        <time>2022-05-23T11:55:59Z</time>
      </trkpt>
      <trkpt lat="48.03606" lon="7.24228">
        <ele>730</ele>
        <time>2022-05-23T11:56:02Z</time>
      </trkpt>
      <trkpt lat="48.03615" lon="7.24234">
        <ele>730</ele>
        <time>2022-05-23T11:56:04Z</time>
      </trkpt>
      <trkpt lat="48.03612" lon="7.24249">
        <ele>728</ele>
        <time>2022-05-23T11:56:06Z</time>
      </trkpt>
      <trkpt lat="48.03601" lon="7.24251">
        <ele>728</ele>
        <time>2022-05-23T11:56:08Z</time>
      </trkpt>
      <trkpt lat="48.03564" lon="7.2427">
        <ele>728</ele>
        <time>2022-05-23T11:56:15Z</time>
      </trkpt>
      <trkpt lat="48.03535" lon="7.24288">
        <ele>726</ele>
        <time>2022-05-23T11:56:21Z</time>
      </trkpt>
      <trkpt lat="48.03526" lon="7.24291">
        <ele>724</ele>
        <time>2022-05-23T11:56:22Z</time>
      </trkpt>
      <trkpt lat="48.03509" lon="7.24306">
        <ele>724</ele>
        <time>2022-05-23T11:56:26Z</time>
      </trkpt>
      <trkpt lat="48.03447" lon="7.24377">
        <ele>720</ele>
        <time>2022-05-23T11:56:40Z</time>
      </trkpt>
      <trkpt lat="48.03411" lon="7.24455">
        <ele>719</ele>
        <time>2022-05-23T11:56:51Z</time>
      </trkpt>
      <trkpt lat="48.03401" lon="7.24487">
        <ele>719</ele>
        <time>2022-05-23T11:56:55Z</time>
      </trkpt>
      <trkpt lat="48.03374" lon="7.24553">
        <ele>713</ele>
        <time>2022-05-23T11:57:04Z</time>
      </trkpt>
      <trkpt lat="48.03343" lon="7.24656">
        <ele>704</ele>
        <time>2022-05-23T11:57:18Z</time>
      </trkpt>
      <trkpt lat="48.03345" lon="7.24674">
        <ele>704</ele>
        <time>2022-05-23T11:57:20Z</time>
      </trkpt>
      <trkpt lat="48.03359" lon="7.24718">
        <ele>701</ele>
        <time>2022-05-23T11:57:26Z</time>
      </trkpt>
      <trkpt lat="48.03361" lon="7.24733">
        <ele>699</ele>
        <time>2022-05-23T11:57:27Z</time>
      </trkpt>
      <trkpt lat="48.0337" lon="7.2474">
        <ele>700</ele>
        <time>2022-05-23T11:57:29Z</time>
      </trkpt>
      <trkpt lat="48.0339" lon="7.24746">
        <ele>700</ele>
        <time>2022-05-23T11:57:33Z</time>
      </trkpt>
      <trkpt lat="48.03466" lon="7.24734">
        <ele>707</ele>
        <time>2022-05-23T11:57:46Z</time>
      </trkpt>
      <trkpt lat="48.03476" lon="7.24739">
        <ele>706</ele>
        <time>2022-05-23T11:57:48Z</time>
      </trkpt>
      <trkpt lat="48.03503" lon="7.24797">
        <ele>692</ele>
        <time>2022-05-23T11:57:57Z</time>
      </trkpt>
      <trkpt lat="48.03515" lon="7.24808">
        <ele>693</ele>
        <time>2022-05-23T11:57:59Z</time>
      </trkpt>
      <trkpt lat="48.03532" lon="7.2483">
        <ele>692</ele>
        <time>2022-05-23T11:58:03Z</time>
      </trkpt>
      <trkpt lat="48.03536" lon="7.24848">
        <ele>692</ele>
        <time>2022-05-23T11:58:06Z</time>
      </trkpt>
      <trkpt lat="48.03523" lon="7.24878">
        <ele>688</ele>
        <time>2022-05-23T11:58:10Z</time>
      </trkpt>
      <trkpt lat="48.03516" lon="7.24908">
        <ele>684</ele>
        <time>2022-05-23T11:58:14Z</time>
      </trkpt>
      <trkpt lat="48.03508" lon="7.24924">
        <ele>683</ele>
        <time>2022-05-23T11:58:16Z</time>
      </trkpt>
      <trkpt lat="48.035" lon="7.24934">
        <ele>681</ele>
        <time>2022-05-23T11:58:18Z</time>
      </trkpt>
      <trkpt lat="48.03488" lon="7.24958">
        <ele>681</ele>
        <time>2022-05-23T11:58:21Z</time>
      </trkpt>
      <trkpt lat="48.03465" lon="7.24988">
        <ele>677</ele>
        <time>2022-05-23T11:58:27Z</time>
      </trkpt>
      <trkpt lat="48.03441" lon="7.25028">
        <ele>674</ele>
        <time>2022-05-23T11:58:33Z</time>
      </trkpt>
      <trkpt lat="48.0342" lon="7.25048">
        <ele>670</ele>
        <time>2022-05-23T11:58:38Z</time>
      </trkpt>
      <trkpt lat="48.0341" lon="7.2506">
        <ele>669</ele>
        <time>2022-05-23T11:58:40Z</time>
      </trkpt>
      <trkpt lat="48.03404" lon="7.25072">
        <ele>670</ele>
        <time>2022-05-23T11:58:42Z</time>
      </trkpt>
      <trkpt lat="48.03382" lon="7.25088">
        <ele>667</ele>
        <time>2022-05-23T11:58:46Z</time>
      </trkpt>
      <trkpt lat="48.03372" lon="7.25091">
        <ele>665</ele>
        <time>2022-05-23T11:58:48Z</time>
      </trkpt>
      <trkpt lat="48.0334" lon="7.25121">
        <ele>662</ele>
        <time>2022-05-23T11:58:55Z</time>
      </trkpt>
      <trkpt lat="48.03309" lon="7.25138">
        <ele>659</ele>
        <time>2022-05-23T11:59:00Z</time>
      </trkpt>
      <trkpt lat="48.03307" lon="7.25152">
        <ele>662</ele>
        <time>2022-05-23T11:59:02Z</time>
      </trkpt>
      <trkpt lat="48.03311" lon="7.25167">
        <ele>665</ele>
        <time>2022-05-23T11:59:04Z</time>
      </trkpt>
      <trkpt lat="48.03311" lon="7.25181">
        <ele>666</ele>
        <time>2022-05-23T11:59:06Z</time>
      </trkpt>
      <trkpt lat="48.03304" lon="7.25226">
        <ele>667</ele>
        <time>2022-05-23T11:59:11Z</time>
      </trkpt>
      <trkpt lat="48.03306" lon="7.25254">
        <ele>668</ele>
        <time>2022-05-23T11:59:15Z</time>
      </trkpt>
      <trkpt lat="48.03333" lon="7.25349">
        <ele>670</ele>
        <time>2022-05-23T11:59:27Z</time>
      </trkpt>
      <trkpt lat="48.03347" lon="7.25389">
        <ele>669</ele>
        <time>2022-05-23T11:59:32Z</time>
      </trkpt>
      <trkpt lat="48.03374" lon="7.25452">
        <ele>669</ele>
        <time>2022-05-23T11:59:41Z</time>
      </trkpt>
      <trkpt lat="48.0338" lon="7.2549">
        <ele>667</ele>
        <time>2022-05-23T11:59:46Z</time>
      </trkpt>
      <trkpt lat="48.03379" lon="7.25657">
        <ele>657</ele>
        <time>2022-05-23T12:00:06Z</time>
      </trkpt>
      <trkpt lat="48.03393" lon="7.25762">
        <ele>655</ele>
        <time>2022-05-23T12:00:18Z</time>
      </trkpt>
      <trkpt lat="48.03405" lon="7.25821">
        <ele>655</ele>
        <time>2022-05-23T12:00:26Z</time>
      </trkpt>
      <trkpt lat="48.03415" lon="7.2585">
        <ele>657</ele>
        <time>2022-05-23T12:00:30Z</time>
      </trkpt>
      <trkpt lat="48.03426" lon="7.25936">
        <ele>655</ele>
        <time>2022-05-23T12:00:40Z</time>
      </trkpt>
      <trkpt lat="48.03435" lon="7.25963">
        <ele>654</ele>
        <time>2022-05-23T12:00:44Z</time>
      </trkpt>
      <trkpt lat="48.03447" lon="7.25989">
        <ele>653</ele>
        <time>2022-05-23T12:00:47Z</time>
      </trkpt>
      <trkpt lat="48.03449" lon="7.26002">
        <ele>651</ele>
        <time>2022-05-23T12:00:49Z</time>
      </trkpt>
      <trkpt lat="48.03466" lon="7.26049">
        <ele>648</ele>
        <time>2022-05-23T12:00:55Z</time>
      </trkpt>
      <trkpt lat="48.03465" lon="7.26109">
        <ele>641</ele>
        <time>2022-05-23T12:01:02Z</time>
      </trkpt>
      <trkpt lat="48.03457" lon="7.26146">
        <ele>636</ele>
        <time>2022-05-23T12:01:07Z</time>
      </trkpt>
      <trkpt lat="48.03445" lon="7.26175">
        <ele>633</ele>
        <time>2022-05-23T12:01:11Z</time>
      </trkpt>
      <trkpt lat="48.03435" lon="7.26187">
        <ele>633</ele>
        <time>2022-05-23T12:01:13Z</time>
      </trkpt>
      <trkpt lat="48.03418" lon="7.26218">
        <ele>632</ele>
        <time>2022-05-23T12:01:18Z</time>
      </trkpt>
      <trkpt lat="48.03414" lon="7.26234">
        <ele>631</ele>
        <time>2022-05-23T12:01:20Z</time>
      </trkpt>
      <trkpt lat="48.03412" lon="7.26251">
        <ele>630</ele>
        <time>2022-05-23T12:01:22Z</time>
      </trkpt>
      <trkpt lat="48.03418" lon="7.26325">
        <ele>625</ele>
        <time>2022-05-23T12:01:31Z</time>
      </trkpt>
      <trkpt lat="48.03415" lon="7.26338">
        <ele>625</ele>
        <time>2022-05-23T12:01:33Z</time>
      </trkpt>
      <trkpt lat="48.0339" lon="7.26376">
        <ele>624</ele>
        <time>2022-05-23T12:01:39Z</time>
      </trkpt>
      <trkpt lat="48.03383" lon="7.26427">
        <ele>623</ele>
        <time>2022-05-23T12:01:45Z</time>
      </trkpt>
      <trkpt lat="48.03378" lon="7.26444">
        <ele>623</ele>
        <time>2022-05-23T12:01:48Z</time>
      </trkpt>
      <trkpt lat="48.03377" lon="7.26524">
        <ele>620</ele>
        <time>2022-05-23T12:01:57Z</time>
      </trkpt>
      <trkpt lat="48.0337" lon="7.26599">
        <ele>617</ele>
        <time>2022-05-23T12:02:06Z</time>
      </trkpt>
      <trkpt lat="48.0337" lon="7.26638">
        <ele>615</ele>
        <time>2022-05-23T12:02:11Z</time>
      </trkpt>
      <trkpt lat="48.03365" lon="7.26681">
        <ele>614</ele>
        <time>2022-05-23T12:02:16Z</time>
      </trkpt>
      <trkpt lat="48.03366" lon="7.26717">
        <ele>610</ele>
        <time>2022-05-23T12:02:20Z</time>
      </trkpt>
      <trkpt lat="48.0336" lon="7.26758">
        <ele>608</ele>
        <time>2022-05-23T12:02:25Z</time>
      </trkpt>
      <trkpt lat="48.03337" lon="7.2684">
        <ele>605</ele>
        <time>2022-05-23T12:02:36Z</time>
      </trkpt>
      <trkpt lat="48.03322" lon="7.26876">
        <ele>606</ele>
        <time>2022-05-23T12:02:41Z</time>
      </trkpt>
      <trkpt lat="48.03307" lon="7.26902">
        <ele>607</ele>
        <time>2022-05-23T12:02:45Z</time>
      </trkpt>
      <trkpt lat="48.03308" lon="7.26916">
        <ele>605</ele>
        <time>2022-05-23T12:02:47Z</time>
      </trkpt>
      <trkpt lat="48.03317" lon="7.26912">
        <ele>602</ele>
        <time>2022-05-23T12:02:48Z</time>
      </trkpt>
      <trkpt lat="48.03331" lon="7.26886">
        <ele>601</ele>
        <time>2022-05-23T12:02:52Z</time>
      </trkpt>
      <trkpt lat="48.03382" lon="7.26812">
        <ele>593</ele>
        <time>2022-05-23T12:03:05Z</time>
      </trkpt>
      <trkpt lat="48.03405" lon="7.26772">
        <ele>590</ele>
        <time>2022-05-23T12:03:11Z</time>
      </trkpt>
      <trkpt lat="48.03422" lon="7.26731">
        <ele>589</ele>
        <time>2022-05-23T12:03:17Z</time>
      </trkpt>
      <trkpt lat="48.03435" lon="7.26684">
        <ele>588</ele>
        <time>2022-05-23T12:03:23Z</time>
      </trkpt>
      <trkpt lat="48.0345" lon="7.26658">
        <ele>585</ele>
        <time>2022-05-23T12:03:27Z</time>
      </trkpt>
      <trkpt lat="48.03457" lon="7.26641">
        <ele>584</ele>
        <time>2022-05-23T12:03:29Z</time>
      </trkpt>
      <trkpt lat="48.03463" lon="7.26608">
        <ele>585</ele>
        <time>2022-05-23T12:03:33Z</time>
      </trkpt>
      <trkpt lat="48.03475" lon="7.26579">
        <ele>583</ele>
        <time>2022-05-23T12:03:38Z</time>
      </trkpt>
      <trkpt lat="48.03483" lon="7.26549">
        <ele>584</ele>
        <time>2022-05-23T12:03:41Z</time>
      </trkpt>
      <trkpt lat="48.03489" lon="7.26538">
        <ele>583</ele>
        <time>2022-05-23T12:03:43Z</time>
      </trkpt>
      <trkpt lat="48.03517" lon="7.26516">
        <ele>577</ele>
        <time>2022-05-23T12:03:49Z</time>
      </trkpt>
      <trkpt lat="48.03536" lon="7.26513">
        <ele>572</ele>
        <time>2022-05-23T12:03:52Z</time>
      </trkpt>
      <trkpt lat="48.03555" lon="7.26502">
        <ele>568</ele>
        <time>2022-05-23T12:03:56Z</time>
      </trkpt>
      <trkpt lat="48.03575" lon="7.26486">
        <ele>563</ele>
        <time>2022-05-23T12:04:00Z</time>
      </trkpt>
      <trkpt lat="48.03609" lon="7.26445">
        <ele>557</ele>
        <time>2022-05-23T12:04:08Z</time>
      </trkpt>
      <trkpt lat="48.03614" lon="7.26432">
        <ele>556</ele>
        <time>2022-05-23T12:04:09Z</time>
      </trkpt>
      <trkpt lat="48.03638" lon="7.26392">
        <ele>554</ele>
        <time>2022-05-23T12:04:16Z</time>
      </trkpt>
      <trkpt lat="48.03648" lon="7.26388">
        <ele>552</ele>
        <time>2022-05-23T12:04:18Z</time>
      </trkpt>
      <trkpt lat="48.03673" lon="7.26398">
        <ele>548</ele>
        <time>2022-05-23T12:04:22Z</time>
      </trkpt>
      <trkpt lat="48.03682" lon="7.26391">
        <ele>551</ele>
        <time>2022-05-23T12:04:24Z</time>
      </trkpt>
      <trkpt lat="48.03708" lon="7.26417">
        <ele>552</ele>
        <time>2022-05-23T12:04:30Z</time>
      </trkpt>
      <trkpt lat="48.03691" lon="7.26402">
        <ele>551</ele>
        <time>2022-05-23T12:04:33Z</time>
      </trkpt>
      <trkpt lat="48.0368" lon="7.26398">
        <ele>549</ele>
        <time>2022-05-23T12:04:35Z</time>
      </trkpt>
      <trkpt lat="48.0367" lon="7.26399">
        <ele>547</ele>
        <time>2022-05-23T12:04:37Z</time>
      </trkpt>
      <trkpt lat="48.03664" lon="7.26414">
        <ele>545</ele>
        <time>2022-05-23T12:04:39Z</time>
      </trkpt>
      <trkpt lat="48.03657" lon="7.26446">
        <ele>545</ele>
        <time>2022-05-23T12:04:43Z</time>
      </trkpt>
      <trkpt lat="48.03656" lon="7.26505">
        <ele>541</ele>
        <time>2022-05-23T12:04:50Z</time>
      </trkpt>
      <trkpt lat="48.03652" lon="7.26528">
        <ele>539</ele>
        <time>2022-05-23T12:04:53Z</time>
      </trkpt>
      <trkpt lat="48.03623" lon="7.26568">
        <ele>541</ele>
        <time>2022-05-23T12:05:00Z</time>
      </trkpt>
      <trkpt lat="48.03611" lon="7.26589">
        <ele>541</ele>
        <time>2022-05-23T12:05:03Z</time>
      </trkpt>
      <trkpt lat="48.03605" lon="7.26609">
        <ele>539</ele>
        <time>2022-05-23T12:05:06Z</time>
      </trkpt>
      <trkpt lat="48.03601" lon="7.2665">
        <ele>534</ele>
        <time>2022-05-23T12:05:11Z</time>
      </trkpt>
      <trkpt lat="48.03599" lon="7.26768">
        <ele>519</ele>
        <time>2022-05-23T12:05:25Z</time>
      </trkpt>
      <trkpt lat="48.03594" lon="7.26854">
        <ele>513</ele>
        <time>2022-05-23T12:05:35Z</time>
      </trkpt>
      <trkpt lat="48.03601" lon="7.26933">
        <ele>505</ele>
        <time>2022-05-23T12:05:44Z</time>
      </trkpt>
      <trkpt lat="48.03599" lon="7.2699">
        <ele>500</ele>
        <time>2022-05-23T12:05:51Z</time>
      </trkpt>
      <trkpt lat="48.0358" lon="7.27075">
        <ele>495</ele>
        <time>2022-05-23T12:06:02Z</time>
      </trkpt>
      <trkpt lat="48.03568" lon="7.27092">
        <ele>495</ele>
        <time>2022-05-23T12:06:05Z</time>
      </trkpt>
      <trkpt lat="48.03556" lon="7.27115">
        <ele>493</ele>
        <time>2022-05-23T12:06:08Z</time>
      </trkpt>
      <trkpt lat="48.03547" lon="7.27143">
        <ele>490</ele>
        <time>2022-05-23T12:06:12Z</time>
      </trkpt>
      <trkpt lat="48.03541" lon="7.27191">
        <ele>484</ele>
        <time>2022-05-23T12:06:18Z</time>
      </trkpt>
      <trkpt lat="48.03527" lon="7.27256">
        <ele>479</ele>
        <time>2022-05-23T12:06:26Z</time>
      </trkpt>
      <trkpt lat="48.03525" lon="7.27273">
        <ele>477</ele>
        <time>2022-05-23T12:06:28Z</time>
      </trkpt>
      <trkpt lat="48.03527" lon="7.27294">
        <ele>473</ele>
        <time>2022-05-23T12:06:30Z</time>
      </trkpt>
      <trkpt lat="48.03517" lon="7.27343">
        <ele>466</ele>
        <time>2022-05-23T12:06:37Z</time>
      </trkpt>
      <trkpt lat="48.03505" lon="7.2738">
        <ele>459</ele>
        <time>2022-05-23T12:06:41Z</time>
      </trkpt>
      <trkpt lat="48.03494" lon="7.27426">
        <ele>452</ele>
        <time>2022-05-23T12:06:47Z</time>
      </trkpt>
      <trkpt lat="48.03407" lon="7.27606">
        <ele>431</ele>
        <time>2022-05-23T12:07:14Z</time>
      </trkpt>
      <trkpt lat="48.0339" lon="7.27623">
        <ele>429</ele>
        <time>2022-05-23T12:07:17Z</time>
      </trkpt>
      <trkpt lat="48.03357" lon="7.27633">
        <ele>429</ele>
        <time>2022-05-23T12:07:23Z</time>
      </trkpt>
      <trkpt lat="48.03319" lon="7.27657">
        <ele>423</ele>
        <time>2022-05-23T12:07:31Z</time>
      </trkpt>
      <trkpt lat="48.03254" lon="7.27706">
        <ele>412</ele>
        <time>2022-05-23T12:07:44Z</time>
      </trkpt>
      <trkpt lat="48.03243" lon="7.27725">
        <ele>407</ele>
        <time>2022-05-23T12:07:47Z</time>
      </trkpt>
      <trkpt lat="48.03216" lon="7.27884">
        <ele>390</ele>
        <time>2022-05-23T12:08:06Z</time>
      </trkpt>
      <trkpt lat="48.03215" lon="7.27902">
        <ele>388</ele>
        <time>2022-05-23T12:08:08Z</time>
      </trkpt>
      <trkpt lat="48.03217" lon="7.27918">
        <ele>387</ele>
        <time>2022-05-23T12:08:10Z</time>
      </trkpt>
      <trkpt lat="48.03228" lon="7.27924">
        <ele>386</ele>
        <time>2022-05-23T12:08:12Z</time>
      </trkpt>
      <trkpt lat="48.03238" lon="7.27923">
        <ele>386</ele>
        <time>2022-05-23T12:08:14Z</time>
      </trkpt>
      <trkpt lat="48.03248" lon="7.27926">
        <ele>386</ele>
        <time>2022-05-23T12:08:16Z</time>
      </trkpt>
      <trkpt lat="48.0326" lon="7.27933">
        <ele>385</ele>
        <time>2022-05-23T12:08:18Z</time>
      </trkpt>
      <trkpt lat="48.03321" lon="7.27958">
        <ele>379</ele>
        <time>2022-05-23T12:08:29Z</time>
      </trkpt>
      <trkpt lat="48.03346" lon="7.27966">
        <ele>378</ele>
        <time>2022-05-23T12:08:34Z</time>
      </trkpt>
      <trkpt lat="48.03404" lon="7.27971">
        <ele>375</ele>
        <time>2022-05-23T12:08:44Z</time>
      </trkpt>
      <trkpt lat="48.03431" lon="7.27964">
        <ele>375</ele>
        <time>2022-05-23T12:08:49Z</time>
      </trkpt>
      <trkpt lat="48.03456" lon="7.27964">
        <ele>375</ele>
        <time>2022-05-23T12:08:54Z</time>
      </trkpt>
      <trkpt lat="48.03468" lon="7.27973">
        <ele>374</ele>
        <time>2022-05-23T12:08:56Z</time>
      </trkpt>
      <trkpt lat="48.03497" lon="7.27985">
        <ele>374</ele>
        <time>2022-05-23T12:09:01Z</time>
      </trkpt>
      <trkpt lat="48.03508" lon="7.27983">
        <ele>374</ele>
        <time>2022-05-23T12:09:03Z</time>
      </trkpt>
      <trkpt lat="48.03519" lon="7.27986">
        <ele>374</ele>
        <time>2022-05-23T12:09:05Z</time>
      </trkpt>
      <trkpt lat="48.03571" lon="7.28008">
        <ele>373</ele>
        <time>2022-05-23T12:09:15Z</time>
      </trkpt>
      <trkpt lat="48.03579" lon="7.28017">
        <ele>373</ele>
        <time>2022-05-23T12:09:17Z</time>
      </trkpt>
      <trkpt lat="48.03583" lon="7.28029">
        <ele>372</ele>
        <time>2022-05-23T12:09:18Z</time>
      </trkpt>
      <trkpt lat="48.03582" lon="7.28063">
        <ele>369</ele>
        <time>2022-05-23T12:09:22Z</time>
      </trkpt>
      <trkpt lat="48.03596" lon="7.28095">
        <ele>365</ele>
        <time>2022-05-23T12:09:27Z</time>
      </trkpt>
      <trkpt lat="48.03602" lon="7.28128">
        <ele>361</ele>
        <time>2022-05-23T12:09:31Z</time>
      </trkpt>
      <trkpt lat="48.03609" lon="7.28141">
        <ele>359</ele>
        <time>2022-05-23T12:09:33Z</time>
      </trkpt>
      <trkpt lat="48.03634" lon="7.2815">
        <ele>358</ele>
        <time>2022-05-23T12:09:38Z</time>
      </trkpt>
      <trkpt lat="48.03646" lon="7.28152">
        <ele>358</ele>
        <time>2022-05-23T12:09:40Z</time>
      </trkpt>
      <trkpt lat="48.03657" lon="7.28167">
        <ele>356</ele>
        <time>2022-05-23T12:09:42Z</time>
      </trkpt>
      <trkpt lat="48.03661" lon="7.28179">
        <ele>355</ele>
        <time>2022-05-23T12:09:44Z</time>
      </trkpt>
      <trkpt lat="48.03668" lon="7.28309">
        <ele>350</ele>
        <time>2022-05-23T12:09:59Z</time>
      </trkpt>
      <trkpt lat="48.03672" lon="7.28338">
        <ele>349</ele>
        <time>2022-05-23T12:10:03Z</time>
      </trkpt>
      <trkpt lat="48.03682" lon="7.28344">
        <ele>349</ele>
        <time>2022-05-23T12:10:05Z</time>
      </trkpt>
      <trkpt lat="48.03763" lon="7.28331">
        <ele>350</ele>
        <time>2022-05-23T12:10:19Z</time>
      </trkpt>
      <trkpt lat="48.03774" lon="7.28334">
        <ele>350</ele>
        <time>2022-05-23T12:10:21Z</time>
      </trkpt>
      <trkpt lat="48.03791" lon="7.28346">
        <ele>350</ele>
        <time>2022-05-23T12:10:25Z</time>
      </trkpt>
      <trkpt lat="48.03821" lon="7.28391">
        <ele>349</ele>
        <time>2022-05-23T12:10:32Z</time>
      </trkpt>
      <trkpt lat="48.03838" lon="7.2841">
        <ele>348</ele>
        <time>2022-05-23T12:10:36Z</time>
      </trkpt>
      <trkpt lat="48.03853" lon="7.28415">
        <ele>348</ele>
        <time>2022-05-23T12:10:39Z</time>
      </trkpt>
      <trkpt lat="48.03873" lon="7.28427">
        <ele>348</ele>
        <time>2022-05-23T12:10:43Z</time>
      </trkpt>
      <trkpt lat="48.03982" lon="7.28503">
        <ele>344</ele>
        <time>2022-05-23T12:11:04Z</time>
      </trkpt>
      <trkpt lat="48.03993" lon="7.28508">
        <ele>343</ele>
        <time>2022-05-23T12:11:06Z</time>
      </trkpt>
      <trkpt lat="48.04015" lon="7.28511">
        <ele>343</ele>
        <time>2022-05-23T12:11:10Z</time>
      </trkpt>
      <trkpt lat="48.04047" lon="7.28507">
        <ele>342</ele>
        <time>2022-05-23T12:11:16Z</time>
      </trkpt>
      <trkpt lat="48.04068" lon="7.28508">
        <ele>342</ele>
        <time>2022-05-23T12:11:19Z</time>
      </trkpt>
      <trkpt lat="48.04064" lon="7.28538">
        <ele>339</ele>
        <time>2022-05-23T12:11:23Z</time>
      </trkpt>
      <trkpt lat="48.04072" lon="7.28599">
        <ele>332</ele>
        <time>2022-05-23T12:11:31Z</time>
      </trkpt>
      <trkpt lat="48.04095" lon="7.28658">
        <ele>327</ele>
        <time>2022-05-23T12:11:39Z</time>
      </trkpt>
      <trkpt lat="48.04102" lon="7.28701">
        <ele>322</ele>
        <time>2022-05-23T12:11:44Z</time>
      </trkpt>
      <trkpt lat="48.04114" lon="7.28829">
        <ele>310</ele>
        <time>2022-05-23T12:11:59Z</time>
      </trkpt>
      <trkpt lat="48.04115" lon="7.28919">
        <ele>303</ele>
        <time>2022-05-23T12:12:10Z</time>
      </trkpt>
      <trkpt lat="48.04113" lon="7.28952">
        <ele>300</ele>
        <time>2022-05-23T12:12:14Z</time>
      </trkpt>
      <trkpt lat="48.04115" lon="7.28969">
        <ele>298</ele>
        <time>2022-05-23T12:12:16Z</time>
      </trkpt>
      <trkpt lat="48.04152" lon="7.29118">
        <ele>288</ele>
        <time>2022-05-23T12:12:35Z</time>
      </trkpt>
      <trkpt lat="48.04144" lon="7.29135">
        <ele>286</ele>
        <time>2022-05-23T12:12:37Z</time>
      </trkpt>
      <trkpt lat="48.0412" lon="7.29158">
        <ele>282</ele>
        <time>2022-05-23T12:12:42Z</time>
      </trkpt>
      <trkpt lat="48.0411" lon="7.29171">
        <ele>280</ele>
        <time>2022-05-23T12:12:45Z</time>
      </trkpt>
      <trkpt lat="48.04105" lon="7.29191">
        <ele>278</ele>
        <time>2022-05-23T12:12:47Z</time>
      </trkpt>
      <trkpt lat="48.041" lon="7.2926">
        <ele>272</ele>
        <time>2022-05-23T12:12:56Z</time>
      </trkpt>
      <trkpt lat="48.04101" lon="7.29304">
        <ele>270</ele>
        <time>2022-05-23T12:13:01Z</time>
      </trkpt>
      <trkpt lat="48.0411" lon="7.29366">
        <ele>265</ele>
        <time>2022-05-23T12:13:08Z</time>
      </trkpt>
      <trkpt lat="48.0412" lon="7.29478">
        <ele>256</ele>
        <time>2022-05-23T12:13:22Z</time>
      </trkpt>
      <trkpt lat="48.04137" lon="7.2955">
        <ele>249</ele>
        <time>2022-05-23T12:13:31Z</time>
      </trkpt>
      <trkpt lat="48.04151" lon="7.29587">
        <ele>245</ele>
        <time>2022-05-23T12:13:36Z</time>
      </trkpt>
      <trkpt lat="48.04162" lon="7.29606">
        <ele>243</ele>
        <time>2022-05-23T12:13:39Z</time>
      </trkpt>
      <trkpt lat="48.04177" lon="7.29618">
        <ele>241</ele>
        <time>2022-05-23T12:13:42Z</time>
      </trkpt>
      <trkpt lat="48.04214" lon="7.29638">
        <ele>239</ele>
        <time>2022-05-23T12:13:49Z</time>
      </trkpt>
      <trkpt lat="48.04243" lon="7.2965">
        <ele>239</ele>
        <time>2022-05-23T12:13:54Z</time>
      </trkpt>
      <trkpt lat="48.04271" lon="7.29667">
        <ele>237</ele>
        <time>2022-05-23T12:14:00Z</time>
      </trkpt>
      <trkpt lat="48.04295" lon="7.29689">
        <ele>236</ele>
        <time>2022-05-23T12:14:05Z</time>
      </trkpt>
      <trkpt lat="48.0434" lon="7.29741">
        <ele>233</ele>
        <time>2022-05-23T12:14:15Z</time>
      </trkpt>
      <trkpt lat="48.04396" lon="7.29795">
        <ele>232</ele>
        <time>2022-05-23T12:14:27Z</time>
      </trkpt>
      <trkpt lat="48.04406" lon="7.29808">
        <ele>232</ele>
        <time>2022-05-23T12:14:29Z</time>
      </trkpt>
      <trkpt lat="48.04417" lon="7.29841">
        <ele>232</ele>
        <time>2022-05-23T12:14:33Z</time>
      </trkpt>
      <trkpt lat="48.04424" lon="7.29879">
        <ele>231</ele>
        <time>2022-05-23T12:14:38Z</time>
      </trkpt>
      <trkpt lat="48.0444" lon="7.29934">
        <ele>229</ele>
        <time>2022-05-23T12:14:45Z</time>
      </trkpt>
      <trkpt lat="48.04443" lon="7.29954">
        <ele>228</ele>
        <time>2022-05-23T12:14:48Z</time>
      </trkpt>
      <trkpt lat="48.04441" lon="7.29996">
        <ele>225</ele>
        <time>2022-05-23T12:14:53Z</time>
      </trkpt>
      <trkpt lat="48.04421" lon="7.30115">
        <ele>220</ele>
        <time>2022-05-23T12:15:07Z</time>
      </trkpt>
      <trkpt lat="48.0441" lon="7.30199">
        <ele>217</ele>
        <time>2022-05-23T12:15:17Z</time>
      </trkpt>
      <trkpt lat="48.04397" lon="7.30256">
        <ele>216</ele>
        <time>2022-05-23T12:15:25Z</time>
      </trkpt>
      <trkpt lat="48.0438" lon="7.30303">
        <ele>214</ele>
        <time>2022-05-23T12:15:31Z</time>
      </trkpt>
      <trkpt lat="48.04377" lon="7.3032">
        <ele>213</ele>
        <time>2022-05-23T12:15:33Z</time>
      </trkpt>
      <trkpt lat="48.04371" lon="7.30331">
        <ele>213</ele>
        <time>2022-05-23T12:15:35Z</time>
      </trkpt>
      <trkpt lat="48.0436" lon="7.30337">
        <ele>212</ele>
        <time>2022-05-23T12:15:37Z</time>
      </trkpt>
      <trkpt lat="48.04361" lon="7.30354">
        <ele>212</ele>
        <time>2022-05-23T12:15:39Z</time>
      </trkpt>
      <trkpt lat="48.04354" lon="7.30404">
        <ele>211</ele>
        <time>2022-05-23T12:15:45Z</time>
      </trkpt>
      <trkpt lat="48.04344" lon="7.30429">
        <ele>211</ele>
        <time>2022-05-23T12:15:48Z</time>
      </trkpt>
      <trkpt lat="48.04342" lon="7.30444">
        <ele>210</ele>
        <time>2022-05-23T12:15:50Z</time>
      </trkpt>
      <trkpt lat="48.04332" lon="7.30474">
        <ele>210</ele>
        <time>2022-05-23T12:15:54Z</time>
      </trkpt>
      <trkpt lat="48.04326" lon="7.30501">
        <ele>210</ele>
        <time>2022-05-23T12:15:58Z</time>
      </trkpt>
      <trkpt lat="48.04322" lon="7.30513">
        <ele>210</ele>
        <time>2022-05-23T12:15:59Z</time>
      </trkpt>
      <trkpt lat="48.04315" lon="7.30524">
        <ele>210</ele>
        <time>2022-05-23T12:16:01Z</time>
      </trkpt>
      <trkpt lat="48.04311" lon="7.30553">
        <ele>210</ele>
        <time>2022-05-23T12:16:05Z</time>
      </trkpt>
      <trkpt lat="48.04305" lon="7.30565">
        <ele>210</ele>
        <time>2022-05-23T12:16:06Z</time>
      </trkpt>
      <trkpt lat="48.04301" lon="7.30611">
        <ele>210</ele>
        <time>2022-05-23T12:16:12Z</time>
      </trkpt>
      <trkpt lat="48.04294" lon="7.3062">
        <ele>210</ele>
        <time>2022-05-23T12:16:13Z</time>
      </trkpt>
      <trkpt lat="48.04287" lon="7.30635">
        <ele>209</ele>
        <time>2022-05-23T12:16:16Z</time>
      </trkpt>
      <trkpt lat="48.0427" lon="7.30692">
        <ele>208</ele>
        <time>2022-05-23T12:16:23Z</time>
      </trkpt>
      <trkpt lat="48.04262" lon="7.30702">
        <ele>208</ele>
        <time>2022-05-23T12:16:25Z</time>
      </trkpt>
      <trkpt lat="48.04257" lon="7.30714">
        <ele>208</ele>
        <time>2022-05-23T12:16:27Z</time>
      </trkpt>
      <trkpt lat="48.04237" lon="7.30785">
        <ele>206</ele>
        <time>2022-05-23T12:16:36Z</time>
      </trkpt>
      <trkpt lat="48.04222" lon="7.30884">
        <ele>205</ele>
        <time>2022-05-23T12:16:48Z</time>
      </trkpt>
      <trkpt lat="48.04221" lon="7.30916">
        <ele>205</ele>
        <time>2022-05-23T12:16:52Z</time>
      </trkpt>
      <trkpt lat="48.04213" lon="7.30963">
        <ele>204</ele>
        <time>2022-05-23T12:16:57Z</time>
      </trkpt>
      <trkpt lat="48.04213" lon="7.30979">
        <ele>204</ele>
        <time>2022-05-23T12:16:59Z</time>
      </trkpt>
      <trkpt lat="48.04158" lon="7.31149">
        <ele>202</ele>
        <time>2022-05-23T12:17:22Z</time>
      </trkpt>
      <trkpt lat="48.0414" lon="7.31295">
        <ele>196</ele>
        <time>2022-05-23T12:17:39Z</time>
      </trkpt>
      <trkpt lat="48.04131" lon="7.31339">
        <ele>194</ele>
        <time>2022-05-23T12:17:45Z</time>
      </trkpt>
      <trkpt lat="48.04123" lon="7.31417">
        <ele>193</ele>
        <time>2022-05-23T12:17:54Z</time>
      </trkpt>
      <trkpt lat="48.04107" lon="7.31504">
        <ele>193</ele>
        <time>2022-05-23T12:18:05Z</time>
      </trkpt>
      <trkpt lat="48.04048" lon="7.31943">
        <ele>190</ele>
        <time>2022-05-23T12:18:58Z</time>
      </trkpt>
      <trkpt lat="48.04046" lon="7.31962">
        <ele>190</ele>
        <time>2022-05-23T12:19:01Z</time>
      </trkpt>
      <trkpt lat="48.04047" lon="7.32011">
        <ele>190</ele>
        <time>2022-05-23T12:19:06Z</time>
      </trkpt>
      <trkpt lat="48.04043" lon="7.32024">
        <ele>190</ele>
        <time>2022-05-23T12:19:08Z</time>
      </trkpt>
      <trkpt lat="48.04035" lon="7.32034">
        <ele>190</ele>
        <time>2022-05-23T12:19:10Z</time>
      </trkpt>
      <trkpt lat="48.04049" lon="7.32164">
        <ele>190</ele>
        <time>2022-05-23T12:19:26Z</time>
      </trkpt>
      <trkpt lat="48.04053" lon="7.3235">
        <ele>189</ele>
        <time>2022-05-23T12:19:48Z</time>
      </trkpt>
      <trkpt lat="48.04065" lon="7.32374">
        <ele>189</ele>
        <time>2022-05-23T12:19:51Z</time>
      </trkpt>
      <trkpt lat="48.04074" lon="7.32384">
        <ele>189</ele>
        <time>2022-05-23T12:19:53Z</time>
      </trkpt>
      <trkpt lat="48.04104" lon="7.32394">
        <ele>189</ele>
        <time>2022-05-23T12:19:59Z</time>
      </trkpt>
      <trkpt lat="48.04095" lon="7.32386">
        <ele>189</ele>
        <time>2022-05-23T12:20:01Z</time>
      </trkpt>
      <trkpt lat="48.04076" lon="7.32381">
        <ele>189</ele>
        <time>2022-05-23T12:20:04Z</time>
      </trkpt>
      <trkpt lat="48.04067" lon="7.32376">
        <ele>189</ele>
        <time>2022-05-23T12:20:06Z</time>
      </trkpt>
      <trkpt lat="48.04057" lon="7.32376">
        <ele>189</ele>
        <time>2022-05-23T12:20:08Z</time>
      </trkpt>
      <trkpt lat="48.04048" lon="7.32383">
        <ele>190</ele>
        <time>2022-05-23T12:20:09Z</time>
      </trkpt>
      <trkpt lat="48.04005" lon="7.32375">
        <ele>190</ele>
        <time>2022-05-23T12:20:17Z</time>
      </trkpt>
      <trkpt lat="48.03987" lon="7.32365">
        <ele>190</ele>
        <time>2022-05-23T12:20:21Z</time>
      </trkpt>
      <trkpt lat="48.03964" lon="7.32337">
        <ele>190</ele>
        <time>2022-05-23T12:20:26Z</time>
      </trkpt>
      <trkpt lat="48.03956" lon="7.32331">
        <ele>191</ele>
        <time>2022-05-23T12:20:27Z</time>
      </trkpt>
      <trkpt lat="48.03945" lon="7.32356">
        <ele>191</ele>
        <time>2022-05-23T12:20:31Z</time>
      </trkpt>
      <trkpt lat="48.03898" lon="7.32528">
        <ele>190</ele>
        <time>2022-05-23T12:20:53Z</time>
      </trkpt>
      <trkpt lat="48.03882" lon="7.32611">
        <ele>188</ele>
        <time>2022-05-23T12:21:03Z</time>
      </trkpt>
      <trkpt lat="48.03852" lon="7.32718">
        <ele>189</ele>
        <time>2022-05-23T12:21:17Z</time>
      </trkpt>
      <trkpt lat="48.03839" lon="7.32938">
        <ele>188</ele>
        <time>2022-05-23T12:21:43Z</time>
      </trkpt>
      <trkpt lat="48.03838" lon="7.32994">
        <ele>187</ele>
        <time>2022-05-23T12:21:50Z</time>
      </trkpt>
      <trkpt lat="48.03846" lon="7.33088">
        <ele>188</ele>
        <time>2022-05-23T12:22:01Z</time>
      </trkpt>
      <trkpt lat="48.03845" lon="7.33146">
        <ele>188</ele>
        <time>2022-05-23T12:22:08Z</time>
      </trkpt>
      <trkpt lat="48.03839" lon="7.33188">
        <ele>188</ele>
        <time>2022-05-23T12:22:13Z</time>
      </trkpt>
      <trkpt lat="48.03806" lon="7.33292">
        <ele>189</ele>
        <time>2022-05-23T12:22:27Z</time>
      </trkpt>
      <trkpt lat="48.03798" lon="7.33334">
        <ele>189</ele>
        <time>2022-05-23T12:22:32Z</time>
      </trkpt>
      <trkpt lat="48.03755" lon="7.33502">
        <ele>188</ele>
        <time>2022-05-23T12:22:54Z</time>
      </trkpt>
      <trkpt lat="48.03678" lon="7.3379">
        <ele>188</ele>
        <time>2022-05-23T12:23:31Z</time>
      </trkpt>
      <trkpt lat="48.03653" lon="7.33965">
        <ele>188</ele>
        <time>2022-05-23T12:23:52Z</time>
      </trkpt>
      <trkpt lat="48.034" lon="7.34609">
        <ele>189</ele>
        <time>2022-05-23T12:25:21Z</time>
      </trkpt>
      <trkpt lat="48.03385" lon="7.3465">
        <ele>189</ele>
        <time>2022-05-23T12:25:26Z</time>
      </trkpt>
      <trkpt lat="48.03378" lon="7.34678">
        <ele>189</ele>
        <time>2022-05-23T12:25:30Z</time>
      </trkpt>
      <trkpt lat="48.03377" lon="7.34692">
        <ele>189</ele>
        <time>2022-05-23T12:25:32Z</time>
      </trkpt>
      <trkpt lat="48.03368" lon="7.34689">
        <ele>189</ele>
        <time>2022-05-23T12:25:33Z</time>
      </trkpt>
      <trkpt lat="48.03437" lon="7.34709">
        <ele>191</ele>
        <time>2022-05-23T12:25:46Z</time>
      </trkpt>
      <trkpt lat="48.03466" lon="7.34726">
        <ele>191</ele>
        <time>2022-05-23T12:25:51Z</time>
      </trkpt>
      <trkpt lat="48.03526" lon="7.34768">
        <ele>191</ele>
        <time>2022-05-23T12:26:03Z</time>
      </trkpt>
      <trkpt lat="48.03545" lon="7.34775">
        <ele>190</ele>
        <time>2022-05-23T12:26:07Z</time>
      </trkpt>
      <trkpt lat="48.0358" lon="7.34803">
        <ele>190</ele>
        <time>2022-05-23T12:26:14Z</time>
      </trkpt>
      <trkpt lat="48.03619" lon="7.34826">
        <ele>190</ele>
        <time>2022-05-23T12:26:21Z</time>
      </trkpt>
      <trkpt lat="48.03646" lon="7.34839">
        <ele>190</ele>
        <time>2022-05-23T12:26:26Z</time>
      </trkpt>
      <trkpt lat="48.03665" lon="7.34853">
        <ele>190</ele>
        <time>2022-05-23T12:26:30Z</time>
      </trkpt>
      <trkpt lat="48.03703" lon="7.34872">
        <ele>190</ele>
        <time>2022-05-23T12:26:37Z</time>
      </trkpt>
      <trkpt lat="48.03722" lon="7.34885">
        <ele>189</ele>
        <time>2022-05-23T12:26:41Z</time>
      </trkpt>
      <trkpt lat="48.0375" lon="7.34906">
        <ele>189</ele>
        <time>2022-05-23T12:26:46Z</time>
      </trkpt>
      <trkpt lat="48.03783" lon="7.34943">
        <ele>189</ele>
        <time>2022-05-23T12:26:54Z</time>
      </trkpt>
      <trkpt lat="48.03813" lon="7.34983">
        <ele>190</ele>
        <time>2022-05-23T12:27:01Z</time>
      </trkpt>
      <trkpt lat="48.0387" lon="7.35034">
        <ele>191</ele>
        <time>2022-05-23T12:27:13Z</time>
      </trkpt>
      <trkpt lat="48.03976" lon="7.35102">
        <ele>189</ele>
        <time>2022-05-23T12:27:33Z</time>
      </trkpt>
      <trkpt lat="48.04068" lon="7.35175">
        <ele>190</ele>
        <time>2022-05-23T12:27:52Z</time>
      </trkpt>
      <trkpt lat="48.04112" lon="7.35202">
        <ele>190</ele>
        <time>2022-05-23T12:28:00Z</time>
      </trkpt>
      <trkpt lat="48.04152" lon="7.35234">
        <ele>191</ele>
        <time>2022-05-23T12:28:08Z</time>
      </trkpt>
      <trkpt lat="48.04201" lon="7.35267">
        <ele>191</ele>
        <time>2022-05-23T12:28:18Z</time>
      </trkpt>
      <trkpt lat="48.0427" lon="7.35312">
        <ele>192</ele>
        <time>2022-05-23T12:28:31Z</time>
      </trkpt>
      <trkpt lat="48.04283" lon="7.35317">
        <ele>193</ele>
        <time>2022-05-23T12:28:33Z</time>
      </trkpt>
      <trkpt lat="48.04304" lon="7.35336">
        <ele>193</ele>
        <time>2022-05-23T12:28:38Z</time>
      </trkpt>
      <trkpt lat="48.04335" lon="7.35353">
        <ele>194</ele>
        <time>2022-05-23T12:28:44Z</time>
      </trkpt>
      <trkpt lat="48.0437" lon="7.35377">
        <ele>195</ele>
        <time>2022-05-23T12:28:51Z</time>
      </trkpt>
      <trkpt lat="48.04421" lon="7.35407">
        <ele>196</ele>
        <time>2022-05-23T12:29:00Z</time>
      </trkpt>
      <trkpt lat="48.04443" lon="7.35416">
        <ele>195</ele>
        <time>2022-05-23T12:29:04Z</time>
      </trkpt>
      <trkpt lat="48.04474" lon="7.35438">
        <ele>193</ele>
        <time>2022-05-23T12:29:11Z</time>
      </trkpt>
      <trkpt lat="48.04495" lon="7.35465">
        <ele>191</ele>
        <time>2022-05-23T12:29:15Z</time>
      </trkpt>
      <trkpt lat="48.04504" lon="7.35469">
        <ele>191</ele>
        <time>2022-05-23T12:29:17Z</time>
      </trkpt>
      <trkpt lat="48.04519" lon="7.35489">
        <ele>191</ele>
        <time>2022-05-23T12:29:21Z</time>
      </trkpt>
      <trkpt lat="48.04533" lon="7.35514">
        <ele>191</ele>
        <time>2022-05-23T12:29:25Z</time>
      </trkpt>
      <trkpt lat="48.04572" lon="7.3557">
        <ele>192</ele>
        <time>2022-05-23T12:29:34Z</time>
      </trkpt>
      <trkpt lat="48.04586" lon="7.35597">
        <ele>192</ele>
        <time>2022-05-23T12:29:38Z</time>
      </trkpt>
      <trkpt lat="48.04603" lon="7.35622">
        <ele>192</ele>
        <time>2022-05-23T12:29:42Z</time>
      </trkpt>
      <trkpt lat="48.04622" lon="7.35638">
        <ele>193</ele>
        <time>2022-05-23T12:29:46Z</time>
      </trkpt>
      <trkpt lat="48.0467" lon="7.35652">
        <ele>196</ele>
        <time>2022-05-23T12:29:55Z</time>
      </trkpt>
      <trkpt lat="48.04702" lon="7.35656">
        <ele>196</ele>
        <time>2022-05-23T12:30:01Z</time>
      </trkpt>
      <trkpt lat="48.04711" lon="7.35661">
        <ele>196</ele>
        <time>2022-05-23T12:30:02Z</time>
      </trkpt>
      <trkpt lat="48.04723" lon="7.35663">
        <ele>196</ele>
        <time>2022-05-23T12:30:05Z</time>
      </trkpt>
      <trkpt lat="48.04753" lon="7.35675">
        <ele>196</ele>
        <time>2022-05-23T12:30:10Z</time>
      </trkpt>
      <trkpt lat="48.04773" lon="7.35684">
        <ele>195</ele>
        <time>2022-05-23T12:30:14Z</time>
      </trkpt>
      <trkpt lat="48.04777" lon="7.35697">
        <ele>194</ele>
        <time>2022-05-23T12:30:16Z</time>
      </trkpt>
      <trkpt lat="48.04786" lon="7.35701">
        <ele>193</ele>
        <time>2022-05-23T12:30:17Z</time>
      </trkpt>
      <trkpt lat="48.04795" lon="7.35712">
        <ele>193</ele>
        <time>2022-05-23T12:30:19Z</time>
      </trkpt>
      <trkpt lat="48.04812" lon="7.35749">
        <ele>191</ele>
        <time>2022-05-23T12:30:25Z</time>
      </trkpt>
      <trkpt lat="48.04862" lon="7.359">
        <ele>191</ele>
        <time>2022-05-23T12:30:45Z</time>
      </trkpt>
      <trkpt lat="48.04866" lon="7.35935">
        <ele>192</ele>
        <time>2022-05-23T12:30:49Z</time>
      </trkpt>
      <trkpt lat="48.04886" lon="7.36016">
        <ele>193</ele>
        <time>2022-05-23T12:30:59Z</time>
      </trkpt>
      <trkpt lat="48.04896" lon="7.36044">
        <ele>193</ele>
        <time>2022-05-23T12:31:03Z</time>
      </trkpt>
      <trkpt lat="48.04903" lon="7.36075">
        <ele>193</ele>
        <time>2022-05-23T12:31:07Z</time>
      </trkpt>
      <trkpt lat="48.0491" lon="7.36088">
        <ele>192</ele>
        <time>2022-05-23T12:31:09Z</time>
      </trkpt>
      <trkpt lat="48.04926" lon="7.36134">
        <ele>192</ele>
        <time>2022-05-23T12:31:15Z</time>
      </trkpt>
      <trkpt lat="48.04939" lon="7.36195">
        <ele>192</ele>
        <time>2022-05-23T12:31:23Z</time>
      </trkpt>
      <trkpt lat="48.04951" lon="7.36227">
        <ele>191</ele>
        <time>2022-05-23T12:31:27Z</time>
      </trkpt>
      <trkpt lat="48.0498" lon="7.36339">
        <ele>190</ele>
        <time>2022-05-23T12:31:41Z</time>
      </trkpt>
      <trkpt lat="48.05007" lon="7.3643">
        <ele>189</ele>
        <time>2022-05-23T12:31:53Z</time>
      </trkpt>
      <trkpt lat="48.05025" lon="7.36487">
        <ele>191</ele>
        <time>2022-05-23T12:32:01Z</time>
      </trkpt>
      <trkpt lat="48.05073" lon="7.36619">
        <ele>187</ele>
        <time>2022-05-23T12:32:18Z</time>
      </trkpt>
      <trkpt lat="48.05096" lon="7.36675">
        <ele>186</ele>
        <time>2022-05-23T12:32:26Z</time>
      </trkpt>
      <trkpt lat="48.05109" lon="7.36698">
        <ele>187</ele>
        <time>2022-05-23T12:32:30Z</time>
      </trkpt>
      <trkpt lat="48.05113" lon="7.36712">
        <ele>188</ele>
        <time>2022-05-23T12:32:32Z</time>
      </trkpt>
      <trkpt lat="48.05115" lon="7.36737">
        <ele>188</ele>
        <time>2022-05-23T12:32:35Z</time>
      </trkpt>
      <trkpt lat="48.05122" lon="7.36748">
        <ele>189</ele>
        <time>2022-05-23T12:32:37Z</time>
      </trkpt>
      <trkpt lat="48.05105" lon="7.36736">
        <ele>188</ele>
        <time>2022-05-23T12:32:40Z</time>
      </trkpt>
      <trkpt lat="48.05096" lon="7.36742">
        <ele>187</ele>
        <time>2022-05-23T12:32:42Z</time>
      </trkpt>
      <trkpt lat="48.05063" lon="7.36753">
        <ele>187</ele>
        <time>2022-05-23T12:32:48Z</time>
      </trkpt>
      <trkpt lat="48.05052" lon="7.36762">
        <ele>188</ele>
        <time>2022-05-23T12:32:50Z</time>
      </trkpt>
      <trkpt lat="48.0503" lon="7.36772">
        <ele>188</ele>
        <time>2022-05-23T12:32:54Z</time>
      </trkpt>
      <trkpt lat="48.05007" lon="7.36779">
        <ele>189</ele>
        <time>2022-05-23T12:32:58Z</time>
      </trkpt>
      <trkpt lat="48.04982" lon="7.3679">
        <ele>189</ele>
        <time>2022-05-23T12:33:03Z</time>
      </trkpt>
      <trkpt lat="48.04973" lon="7.36798">
        <ele>188</ele>
        <time>2022-05-23T12:33:05Z</time>
      </trkpt>
      <trkpt lat="48.04976" lon="7.36812">
        <ele>189</ele>
        <time>2022-05-23T12:33:06Z</time>
      </trkpt>
      <trkpt lat="48.04998" lon="7.36849">
        <ele>191</ele>
        <time>2022-05-23T12:33:12Z</time>
      </trkpt>
      <trkpt lat="48.05008" lon="7.36881">
        <ele>192</ele>
        <time>2022-05-23T12:33:16Z</time>
      </trkpt>
      <trkpt lat="48.05015" lon="7.36914">
        <ele>193</ele>
        <time>2022-05-23T12:33:21Z</time>
      </trkpt>
      <trkpt lat="48.05014" lon="7.37036">
        <ele>196</ele>
        <time>2022-05-23T12:33:35Z</time>
      </trkpt>
      <trkpt lat="48.05" lon="7.37088">
        <ele>197</ele>
        <time>2022-05-23T12:33:42Z</time>
      </trkpt>
      <trkpt lat="48.05001" lon="7.37102">
        <ele>196</ele>
        <time>2022-05-23T12:33:43Z</time>
      </trkpt>
      <trkpt lat="48.05005" lon="7.37115">
        <ele>195</ele>
        <time>2022-05-23T12:33:45Z</time>
      </trkpt>
      <trkpt lat="48.05012" lon="7.37124">
        <ele>195</ele>
        <time>2022-05-23T12:33:47Z</time>
      </trkpt>
      <trkpt lat="48.05066" lon="7.3715">
        <ele>193</ele>
        <time>2022-05-23T12:33:57Z</time>
      </trkpt>
      <trkpt lat="48.05099" lon="7.37161">
        <ele>193</ele>
        <time>2022-05-23T12:34:03Z</time>
      </trkpt>
      <trkpt lat="48.05132" lon="7.37157">
        <ele>193</ele>
        <time>2022-05-23T12:34:09Z</time>
      </trkpt>
      <trkpt lat="48.05143" lon="7.37165">
        <ele>193</ele>
        <time>2022-05-23T12:34:11Z</time>
      </trkpt>
      <trkpt lat="48.05149" lon="7.37175">
        <ele>193</ele>
        <time>2022-05-23T12:34:13Z</time>
      </trkpt>
      <trkpt lat="48.05153" lon="7.3719">
        <ele>193</ele>
        <time>2022-05-23T12:34:14Z</time>
      </trkpt>
      <trkpt lat="48.05154" lon="7.37209">
        <ele>193</ele>
        <time>2022-05-23T12:34:17Z</time>
      </trkpt>
      <trkpt lat="48.05143" lon="7.37252">
        <ele>193</ele>
        <time>2022-05-23T12:34:22Z</time>
      </trkpt>
      <trkpt lat="48.05137" lon="7.37264">
        <ele>192</ele>
        <time>2022-05-23T12:34:24Z</time>
      </trkpt>
      <trkpt lat="48.05136" lon="7.37278">
        <ele>192</ele>
        <time>2022-05-23T12:34:26Z</time>
      </trkpt>
      <trkpt lat="48.05119" lon="7.37293">
        <ele>191</ele>
        <time>2022-05-23T12:34:29Z</time>
      </trkpt>
      <trkpt lat="48.05105" lon="7.37293">
        <ele>191</ele>
        <time>2022-05-23T12:34:32Z</time>
      </trkpt>
      <trkpt lat="48.05085" lon="7.37272">
        <ele>192</ele>
        <time>2022-05-23T12:34:36Z</time>
      </trkpt>
      <trkpt lat="48.05066" lon="7.37264">
        <ele>192</ele>
        <time>2022-05-23T12:34:40Z</time>
      </trkpt>
      <trkpt lat="48.05046" lon="7.3725">
        <ele>193</ele>
        <time>2022-05-23T12:34:43Z</time>
      </trkpt>
      <trkpt lat="48.04988" lon="7.3722">
        <ele>193</ele>
        <time>2022-05-23T12:34:54Z</time>
      </trkpt>
      <trkpt lat="48.04978" lon="7.37217">
        <ele>193</ele>
        <time>2022-05-23T12:34:56Z</time>
      </trkpt>
      <trkpt lat="48.04968" lon="7.37219">
        <ele>192</ele>
        <time>2022-05-23T12:34:58Z</time>
      </trkpt>
      <trkpt lat="48.0496" lon="7.37226">
        <ele>192</ele>
        <time>2022-05-23T12:35:00Z</time>
      </trkpt>
      <trkpt lat="48.0495" lon="7.37251">
        <ele>193</ele>
        <time>2022-05-23T12:35:03Z</time>
      </trkpt>
      <trkpt lat="48.04943" lon="7.37315">
        <ele>196</ele>
        <time>2022-05-23T12:35:11Z</time>
      </trkpt>
      <trkpt lat="48.04945" lon="7.37333">
        <ele>197</ele>
        <time>2022-05-23T12:35:13Z</time>
      </trkpt>
      <trkpt lat="48.04954" lon="7.37367">
        <ele>198</ele>
        <time>2022-05-23T12:35:17Z</time>
      </trkpt>
      <trkpt lat="48.0496" lon="7.37414">
        <ele>199</ele>
        <time>2022-05-23T12:35:23Z</time>
      </trkpt>
      <trkpt lat="48.04966" lon="7.37493">
        <ele>198</ele>
        <time>2022-05-23T12:35:32Z</time>
      </trkpt>
      <trkpt lat="48.04963" lon="7.37511">
        <ele>198</ele>
        <time>2022-05-23T12:35:35Z</time>
      </trkpt>
      <trkpt lat="48.0495" lon="7.37545">
        <ele>197</ele>
        <time>2022-05-23T12:35:39Z</time>
      </trkpt>
      <trkpt lat="48.04933" lon="7.37604">
        <ele>197</ele>
        <time>2022-05-23T12:35:47Z</time>
      </trkpt>
      <trkpt lat="48.04931" lon="7.37634">
        <ele>196</ele>
        <time>2022-05-23T12:35:51Z</time>
      </trkpt>
      <trkpt lat="48.04917" lon="7.37658">
        <ele>196</ele>
        <time>2022-05-23T12:35:54Z</time>
      </trkpt>
      <trkpt lat="48.04886" lon="7.37743">
        <ele>196</ele>
        <time>2022-05-23T12:36:06Z</time>
      </trkpt>
      <trkpt lat="48.04856" lon="7.37816">
        <ele>197</ele>
        <time>2022-05-23T12:36:16Z</time>
      </trkpt>
      <trkpt lat="48.04835" lon="7.37876">
        <ele>198</ele>
        <time>2022-05-23T12:36:24Z</time>
      </trkpt>
      <trkpt lat="48.04825" lon="7.37919">
        <ele>198</ele>
        <time>2022-05-23T12:36:30Z</time>
      </trkpt>
      <trkpt lat="48.04808" lon="7.37954">
        <ele>197</ele>
        <time>2022-05-23T12:36:35Z</time>
      </trkpt>
      <trkpt lat="48.04789" lon="7.38012">
        <ele>196</ele>
        <time>2022-05-23T12:36:42Z</time>
      </trkpt>
      <trkpt lat="48.04774" lon="7.38076">
        <ele>197</ele>
        <time>2022-05-23T12:36:50Z</time>
      </trkpt>
      <trkpt lat="48.04729" lon="7.38231">
        <ele>196</ele>
        <time>2022-05-23T12:37:11Z</time>
      </trkpt>
      <trkpt lat="48.04703" lon="7.38339">
        <ele>199</ele>
        <time>2022-05-23T12:37:24Z</time>
      </trkpt>
      <trkpt lat="48.04692" lon="7.38375">
        <ele>199</ele>
        <time>2022-05-23T12:37:29Z</time>
      </trkpt>
      <trkpt lat="48.04666" lon="7.38442">
        <ele>198</ele>
        <time>2022-05-23T12:37:38Z</time>
      </trkpt>
      <trkpt lat="48.04657" lon="7.38478">
        <ele>198</ele>
        <time>2022-05-23T12:37:43Z</time>
      </trkpt>
      <trkpt lat="48.0465" lon="7.38495">
        <ele>198</ele>
        <time>2022-05-23T12:37:45Z</time>
      </trkpt>
      <trkpt lat="48.04643" lon="7.38532">
        <ele>199</ele>
        <time>2022-05-23T12:37:50Z</time>
      </trkpt>
      <trkpt lat="48.04634" lon="7.38557">
        <ele>199</ele>
        <time>2022-05-23T12:37:53Z</time>
      </trkpt>
      <trkpt lat="48.04632" lon="7.38575">
        <ele>199</ele>
        <time>2022-05-23T12:37:55Z</time>
      </trkpt>
      <trkpt lat="48.04618" lon="7.38618">
        <ele>199</ele>
        <time>2022-05-23T12:38:01Z</time>
      </trkpt>
      <trkpt lat="48.04589" lon="7.38733">
        <ele>197</ele>
        <time>2022-05-23T12:38:15Z</time>
      </trkpt>
      <trkpt lat="48.04572" lon="7.3879">
        <ele>196</ele>
        <time>2022-05-23T12:38:23Z</time>
      </trkpt>
      <trkpt lat="48.0456" lon="7.38841">
        <ele>195</ele>
        <time>2022-05-23T12:38:29Z</time>
      </trkpt>
      <trkpt lat="48.04555" lon="7.38853">
        <ele>194</ele>
        <time>2022-05-23T12:38:31Z</time>
      </trkpt>
      <trkpt lat="48.04542" lon="7.3891">
        <ele>193</ele>
        <time>2022-05-23T12:38:38Z</time>
      </trkpt>
      <trkpt lat="48.0454" lon="7.38951">
        <ele>192</ele>
        <time>2022-05-23T12:38:43Z</time>
      </trkpt>
      <trkpt lat="48.04545" lon="7.39005">
        <ele>190</ele>
        <time>2022-05-23T12:38:50Z</time>
      </trkpt>
      <trkpt lat="48.04543" lon="7.39025">
        <ele>190</ele>
        <time>2022-05-23T12:38:52Z</time>
      </trkpt>
      <trkpt lat="48.0452" lon="7.3911">
        <ele>188</ele>
        <time>2022-05-23T12:39:03Z</time>
      </trkpt>
      <trkpt lat="48.04512" lon="7.39167">
        <ele>187</ele>
        <time>2022-05-23T12:39:10Z</time>
      </trkpt>
      <trkpt lat="48.0451" lon="7.39202">
        <ele>187</ele>
        <time>2022-05-23T12:39:14Z</time>
      </trkpt>
      <trkpt lat="48.04511" lon="7.39287">
        <ele>187</ele>
        <time>2022-05-23T12:39:24Z</time>
      </trkpt>
      <trkpt lat="48.04507" lon="7.39355">
        <ele>187</ele>
        <time>2022-05-23T12:39:32Z</time>
      </trkpt>
      <trkpt lat="48.04503" lon="7.39368">
        <ele>187</ele>
        <time>2022-05-23T12:39:34Z</time>
      </trkpt>
      <trkpt lat="48.0449" lon="7.3946">
        <ele>187</ele>
        <time>2022-05-23T12:39:45Z</time>
      </trkpt>
      <trkpt lat="48.04478" lon="7.39507">
        <ele>187</ele>
        <time>2022-05-23T12:39:51Z</time>
      </trkpt>
      <trkpt lat="48.04476" lon="7.39523">
        <ele>187</ele>
        <time>2022-05-23T12:39:53Z</time>
      </trkpt>
      <trkpt lat="48.04471" lon="7.39537">
        <ele>187</ele>
        <time>2022-05-23T12:39:55Z</time>
      </trkpt>
      <trkpt lat="48.04433" lon="7.39717">
        <ele>188</ele>
        <time>2022-05-23T12:40:17Z</time>
      </trkpt>
      <trkpt lat="48.04428" lon="7.39729">
        <ele>188</ele>
        <time>2022-05-23T12:40:19Z</time>
      </trkpt>
      <trkpt lat="48.04428" lon="7.39755">
        <ele>188</ele>
        <time>2022-05-23T12:40:22Z</time>
      </trkpt>
      <trkpt lat="48.04413" lon="7.39843">
        <ele>187</ele>
        <time>2022-05-23T12:40:33Z</time>
      </trkpt>
      <trkpt lat="48.04406" lon="7.39956">
        <ele>186</ele>
        <time>2022-05-23T12:40:46Z</time>
      </trkpt>
      <trkpt lat="48.04407" lon="7.40054">
        <ele>187</ele>
        <time>2022-05-23T12:40:58Z</time>
      </trkpt>
      <trkpt lat="48.04401" lon="7.40108">
        <ele>187</ele>
        <time>2022-05-23T12:41:05Z</time>
      </trkpt>
      <trkpt lat="48.04376" lon="7.40254">
        <ele>188</ele>
        <time>2022-05-23T12:41:23Z</time>
      </trkpt>
      <trkpt lat="48.04303" lon="7.40615">
        <ele>189</ele>
        <time>2022-05-23T12:42:07Z</time>
      </trkpt>
      <trkpt lat="48.04266" lon="7.40854">
        <ele>189</ele>
        <time>2022-05-23T12:42:37Z</time>
      </trkpt>
      <trkpt lat="48.04262" lon="7.40923">
        <ele>190</ele>
        <time>2022-05-23T12:42:45Z</time>
      </trkpt>
      <trkpt lat="48.04269" lon="7.40933">
        <ele>190</ele>
        <time>2022-05-23T12:42:47Z</time>
      </trkpt>
      <trkpt lat="48.04309" lon="7.40927">
        <ele>190</ele>
        <time>2022-05-23T12:42:54Z</time>
      </trkpt>
      <trkpt lat="48.04349" lon="7.40926">
        <ele>191</ele>
        <time>2022-05-23T12:43:01Z</time>
      </trkpt>
      <trkpt lat="48.04357" lon="7.40932">
        <ele>191</ele>
        <time>2022-05-23T12:43:02Z</time>
      </trkpt>
      <trkpt lat="48.04361" lon="7.40945">
        <ele>190</ele>
        <time>2022-05-23T12:43:04Z</time>
      </trkpt>
      <trkpt lat="48.04328" lon="7.41006">
        <ele>189</ele>
        <time>2022-05-23T12:43:13Z</time>
      </trkpt>
      <trkpt lat="48.04306" lon="7.41067">
        <ele>188</ele>
        <time>2022-05-23T12:43:22Z</time>
      </trkpt>
      <trkpt lat="48.04298" lon="7.41102">
        <ele>189</ele>
        <time>2022-05-23T12:43:26Z</time>
      </trkpt>
      <trkpt lat="48.0428" lon="7.41211">
        <ele>190</ele>
        <time>2022-05-23T12:43:39Z</time>
      </trkpt>
      <trkpt lat="48.04276" lon="7.41273">
        <ele>191</ele>
        <time>2022-05-23T12:43:47Z</time>
      </trkpt>
      <trkpt lat="48.04261" lon="7.41389">
        <ele>192</ele>
        <time>2022-05-23T12:44:01Z</time>
      </trkpt>
      <trkpt lat="48.04255" lon="7.414">
        <ele>192</ele>
        <time>2022-05-23T12:44:03Z</time>
      </trkpt>
      <trkpt lat="48.04254" lon="7.41442">
        <ele>192</ele>
        <time>2022-05-23T12:44:08Z</time>
      </trkpt>
      <trkpt lat="48.04245" lon="7.4149">
        <ele>192</ele>
        <time>2022-05-23T12:44:14Z</time>
      </trkpt>
      <trkpt lat="48.04243" lon="7.41525">
        <ele>192</ele>
        <time>2022-05-23T12:44:18Z</time>
      </trkpt>
      <trkpt lat="48.04244" lon="7.41559">
        <ele>193</ele>
        <time>2022-05-23T12:44:22Z</time>
      </trkpt>
      <trkpt lat="48.04251" lon="7.41592">
        <ele>193</ele>
        <time>2022-05-23T12:44:26Z</time>
      </trkpt>
      <trkpt lat="48.04246" lon="7.41606">
        <ele>193</ele>
        <time>2022-05-23T12:44:28Z</time>
      </trkpt>
      <trkpt lat="48.04234" lon="7.41697">
        <ele>192</ele>
        <time>2022-05-23T12:44:39Z</time>
      </trkpt>
      <trkpt lat="48.04232" lon="7.41729">
        <ele>190</ele>
        <time>2022-05-23T12:44:43Z</time>
      </trkpt>
      <trkpt lat="48.04238" lon="7.4179">
        <ele>189</ele>
        <time>2022-05-23T12:44:50Z</time>
      </trkpt>
      <trkpt lat="48.04247" lon="7.4185">
        <ele>189</ele>
        <time>2022-05-23T12:44:57Z</time>
      </trkpt>
      <trkpt lat="48.04247" lon="7.41879">
        <ele>190</ele>
        <time>2022-05-23T12:45:01Z</time>
      </trkpt>
      <trkpt lat="48.04252" lon="7.41911">
        <ele>191</ele>
        <time>2022-05-23T12:45:05Z</time>
      </trkpt>
      <trkpt lat="48.04251" lon="7.41941">
        <ele>191</ele>
        <time>2022-05-23T12:45:08Z</time>
      </trkpt>
      <trkpt lat="48.04245" lon="7.41989">
        <ele>190</ele>
        <time>2022-05-23T12:45:14Z</time>
      </trkpt>
      <trkpt lat="48.04232" lon="7.42038">
        <ele>190</ele>
        <time>2022-05-23T12:45:20Z</time>
      </trkpt>
      <trkpt lat="48.04213" lon="7.42083">
        <ele>190</ele>
        <time>2022-05-23T12:45:27Z</time>
      </trkpt>
      <trkpt lat="48.04196" lon="7.4211">
        <ele>190</ele>
        <time>2022-05-23T12:45:31Z</time>
      </trkpt>
      <trkpt lat="48.04165" lon="7.42144">
        <ele>190</ele>
        <time>2022-05-23T12:45:38Z</time>
      </trkpt>
      <trkpt lat="48.04058" lon="7.42203">
        <ele>190</ele>
        <time>2022-05-23T12:45:58Z</time>
      </trkpt>
      <trkpt lat="48.03971" lon="7.42247">
        <ele>190</ele>
        <time>2022-05-23T12:46:15Z</time>
      </trkpt>
      <trkpt lat="48.03904" lon="7.4229">
        <ele>189</ele>
        <time>2022-05-23T12:46:27Z</time>
      </trkpt>
      <trkpt lat="48.03874" lon="7.42317">
        <ele>189</ele>
        <time>2022-05-23T12:46:34Z</time>
      </trkpt>
      <trkpt lat="48.03821" lon="7.42373">
        <ele>190</ele>
        <time>2022-05-23T12:46:45Z</time>
      </trkpt>
      <trkpt lat="48.03763" lon="7.42457">
        <ele>190</ele>
        <time>2022-05-23T12:47:00Z</time>
      </trkpt>
      <trkpt lat="48.03732" lon="7.42512">
        <ele>191</ele>
        <time>2022-05-23T12:47:08Z</time>
      </trkpt>
      <trkpt lat="48.03692" lon="7.42597">
        <ele>190</ele>
        <time>2022-05-23T12:47:21Z</time>
      </trkpt>
      <trkpt lat="48.03652" lon="7.42663">
        <ele>189</ele>
        <time>2022-05-23T12:47:31Z</time>
      </trkpt>
      <trkpt lat="48.03639" lon="7.42691">
        <ele>189</ele>
        <time>2022-05-23T12:47:35Z</time>
      </trkpt>
      <trkpt lat="48.03615" lon="7.42779">
        <ele>189</ele>
        <time>2022-05-23T12:47:47Z</time>
      </trkpt>
      <trkpt lat="48.03592" lon="7.42905">
        <ele>190</ele>
        <time>2022-05-23T12:48:02Z</time>
      </trkpt>
      <trkpt lat="48.03583" lon="7.42939">
        <ele>191</ele>
        <time>2022-05-23T12:48:06Z</time>
      </trkpt>
      <trkpt lat="48.03559" lon="7.43001">
        <ele>191</ele>
        <time>2022-05-23T12:48:15Z</time>
      </trkpt>
      <trkpt lat="48.03536" lon="7.43041">
        <ele>190</ele>
        <time>2022-05-23T12:48:21Z</time>
      </trkpt>
      <trkpt lat="48.03519" lon="7.43067">
        <ele>190</ele>
        <time>2022-05-23T12:48:26Z</time>
      </trkpt>
      <trkpt lat="48.03491" lon="7.43099">
        <ele>190</ele>
        <time>2022-05-23T12:48:32Z</time>
      </trkpt>
      <trkpt lat="48.03302" lon="7.43268">
        <ele>189</ele>
        <time>2022-05-23T12:49:11Z</time>
      </trkpt>
      <trkpt lat="48.0323" lon="7.43336">
        <ele>189</ele>
        <time>2022-05-23T12:49:26Z</time>
      </trkpt>
      <trkpt lat="48.03195" lon="7.43381">
        <ele>189</ele>
        <time>2022-05-23T12:49:34Z</time>
      </trkpt>
      <trkpt lat="48.03101" lon="7.43493">
        <ele>191</ele>
        <time>2022-05-23T12:49:56Z</time>
      </trkpt>
      <trkpt lat="48.03068" lon="7.43542">
        <ele>191</ele>
        <time>2022-05-23T12:50:04Z</time>
      </trkpt>
      <trkpt lat="48.03061" lon="7.43556">
        <ele>190</ele>
        <time>2022-05-23T12:50:06Z</time>
      </trkpt>
      <trkpt lat="48.03047" lon="7.43604">
        <ele>190</ele>
        <time>2022-05-23T12:50:12Z</time>
      </trkpt>
      <trkpt lat="48.02983" lon="7.43913">
        <ele>191</ele>
        <time>2022-05-23T12:50:51Z</time>
      </trkpt>
      <trkpt lat="48.02977" lon="7.43928">
        <ele>191</ele>
        <time>2022-05-23T12:50:53Z</time>
      </trkpt>
      <trkpt lat="48.02922" lon="7.44031">
        <ele>191</ele>
        <time>2022-05-23T12:51:09Z</time>
      </trkpt>
      <trkpt lat="48.02918" lon="7.44043">
        <ele>192</ele>
        <time>2022-05-23T12:51:10Z</time>
      </trkpt>
      <trkpt lat="48.0292" lon="7.44061">
        <ele>192</ele>
        <time>2022-05-23T12:51:12Z</time>
      </trkpt>
      <trkpt lat="48.02943" lon="7.44106">
        <ele>192</ele>
        <time>2022-05-23T12:51:19Z</time>
      </trkpt>
      <trkpt lat="48.0295" lon="7.44133">
        <ele>192</ele>
        <time>2022-05-23T12:51:23Z</time>
      </trkpt>
      <trkpt lat="48.02953" lon="7.4416">
        <ele>192</ele>
        <time>2022-05-23T12:51:26Z</time>
      </trkpt>
      <trkpt lat="48.02947" lon="7.44305">
        <ele>190</ele>
        <time>2022-05-23T12:51:43Z</time>
      </trkpt>
      <trkpt lat="48.0295" lon="7.44427">
        <ele>190</ele>
        <time>2022-05-23T12:51:58Z</time>
      </trkpt>
      <trkpt lat="48.02949" lon="7.44503">
        <ele>190</ele>
        <time>2022-05-23T12:52:07Z</time>
      </trkpt>
      <trkpt lat="48.02954" lon="7.44546">
        <ele>190</ele>
        <time>2022-05-23T12:52:12Z</time>
      </trkpt>
      <trkpt lat="48.03058" lon="7.44918">
        <ele>191</ele>
        <time>2022-05-23T12:53:00Z</time>
      </trkpt>
      <trkpt lat="48.03071" lon="7.44982">
        <ele>192</ele>
        <time>2022-05-23T12:53:08Z</time>
      </trkpt>
      <trkpt lat="48.03076" lon="7.45027">
        <ele>192</ele>
        <time>2022-05-23T12:53:13Z</time>
      </trkpt>
      <trkpt lat="48.03076" lon="7.45061">
        <ele>192</ele>
        <time>2022-05-23T12:53:17Z</time>
      </trkpt>
      <trkpt lat="48.0306" lon="7.45167">
        <ele>191</ele>
        <time>2022-05-23T12:53:30Z</time>
      </trkpt>
      <trkpt lat="48.03022" lon="7.4538">
        <ele>193</ele>
        <time>2022-05-23T12:53:56Z</time>
      </trkpt>
      <trkpt lat="48.02929" lon="7.45965">
        <ele>193</ele>
        <time>2022-05-23T12:55:08Z</time>
      </trkpt>
      <trkpt lat="48.02943" lon="7.45947">
        <ele>194</ele>
        <time>2022-05-23T12:55:11Z</time>
      </trkpt>
      <trkpt lat="48.0298" lon="7.45963">
        <ele>194</ele>
        <time>2022-05-23T12:55:18Z</time>
      </trkpt>
      <trkpt lat="48.02959" lon="7.45959">
        <ele>194</ele>
        <time>2022-05-23T12:55:22Z</time>
      </trkpt>
      <trkpt lat="48.02949" lon="7.45952">
        <ele>194</ele>
        <time>2022-05-23T12:55:24Z</time>
      </trkpt>
      <trkpt lat="48.0294" lon="7.4595">
        <ele>194</ele>
        <time>2022-05-23T12:55:25Z</time>
      </trkpt>
      <trkpt lat="48.02931" lon="7.45958">
        <ele>193</ele>
        <time>2022-05-23T12:55:27Z</time>
      </trkpt>
      <trkpt lat="48.02903" lon="7.46145">
        <ele>194</ele>
        <time>2022-05-23T12:55:50Z</time>
      </trkpt>
      <trkpt lat="48.02889" lon="7.46284">
        <ele>194</ele>
        <time>2022-05-23T12:56:07Z</time>
      </trkpt>
      <trkpt lat="48.02864" lon="7.46477">
        <ele>193</ele>
        <time>2022-05-23T12:56:30Z</time>
      </trkpt>
      <trkpt lat="48.02864" lon="7.46491">
        <ele>193</ele>
        <time>2022-05-23T12:56:32Z</time>
      </trkpt>
      <trkpt lat="48.02858" lon="7.46524">
        <ele>193</ele>
        <time>2022-05-23T12:56:36Z</time>
      </trkpt>
      <trkpt lat="48.02833" lon="7.46748">
        <ele>194</ele>
        <time>2022-05-23T12:57:03Z</time>
      </trkpt>
      <trkpt lat="48.02826" lon="7.4679">
        <ele>194</ele>
        <time>2022-05-23T12:57:08Z</time>
      </trkpt>
      <trkpt lat="48.02798" lon="7.4703">
        <ele>196</ele>
        <time>2022-05-23T12:57:37Z</time>
      </trkpt>
      <trkpt lat="48.0279" lon="7.47081">
        <ele>196</ele>
        <time>2022-05-23T12:57:43Z</time>
      </trkpt>
      <trkpt lat="48.02773" lon="7.47324">
        <ele>199</ele>
        <time>2022-05-23T12:58:12Z</time>
      </trkpt>
      <trkpt lat="48.02771" lon="7.47394">
        <ele>197</ele>
        <time>2022-05-23T12:58:21Z</time>
      </trkpt>
      <trkpt lat="48.02764" lon="7.47464">
        <ele>197</ele>
        <time>2022-05-23T12:58:29Z</time>
      </trkpt>
      <trkpt lat="48.02761" lon="7.47579">
        <ele>197</ele>
        <time>2022-05-23T12:58:43Z</time>
      </trkpt>
      <trkpt lat="48.02768" lon="7.47698">
        <ele>197</ele>
        <time>2022-05-23T12:58:57Z</time>
      </trkpt>
      <trkpt lat="48.02772" lon="7.47828">
        <ele>198</ele>
        <time>2022-05-23T12:59:13Z</time>
      </trkpt>
      <trkpt lat="48.02775" lon="7.47845">
        <ele>198</ele>
        <time>2022-05-23T12:59:15Z</time>
      </trkpt>
      <trkpt lat="48.02776" lon="7.47938">
        <ele>197</ele>
        <time>2022-05-23T12:59:26Z</time>
      </trkpt>
      <trkpt lat="48.02787" lon="7.48095">
        <ele>195</ele>
        <time>2022-05-23T12:59:45Z</time>
      </trkpt>
      <trkpt lat="48.02788" lon="7.48185">
        <ele>194</ele>
        <time>2022-05-23T12:59:55Z</time>
      </trkpt>
      <trkpt lat="48.02794" lon="7.4827">
        <ele>194</ele>
        <time>2022-05-23T13:00:05Z</time>
      </trkpt>
      <trkpt lat="48.02794" lon="7.48343">
        <ele>192</ele>
        <time>2022-05-23T13:00:14Z</time>
      </trkpt>
      <trkpt lat="48.02805" lon="7.48582">
        <ele>194</ele>
        <time>2022-05-23T13:00:43Z</time>
      </trkpt>
      <trkpt lat="48.02805" lon="7.48657">
        <ele>195</ele>
        <time>2022-05-23T13:00:52Z</time>
      </trkpt>
      <trkpt lat="48.02807" lon="7.4869">
        <ele>196</ele>
        <time>2022-05-23T13:00:55Z</time>
      </trkpt>
      <trkpt lat="48.0281" lon="7.48703">
        <ele>196</ele>
        <time>2022-05-23T13:00:57Z</time>
      </trkpt>
      <trkpt lat="48.0282" lon="7.48938">
        <ele>191</ele>
        <time>2022-05-23T13:01:25Z</time>
      </trkpt>
      <trkpt lat="48.02828" lon="7.49267">
        <ele>192</ele>
        <time>2022-05-23T13:02:04Z</time>
      </trkpt>
      <trkpt lat="48.02825" lon="7.49453">
        <ele>191</ele>
        <time>2022-05-23T13:02:26Z</time>
      </trkpt>
      <trkpt lat="48.02832" lon="7.49524">
        <ele>190</ele>
        <time>2022-05-23T13:02:35Z</time>
      </trkpt>
      <trkpt lat="48.02847" lon="7.49566">
        <ele>190</ele>
        <time>2022-05-23T13:02:41Z</time>
      </trkpt>
      <trkpt lat="48.02864" lon="7.49602">
        <ele>190</ele>
        <time>2022-05-23T13:02:46Z</time>
      </trkpt>
      <trkpt lat="48.02912" lon="7.49675">
        <ele>191</ele>
        <time>2022-05-23T13:02:58Z</time>
      </trkpt>
      <trkpt lat="48.02907" lon="7.49689">
        <ele>191</ele>
        <time>2022-05-23T13:03:00Z</time>
      </trkpt>
      <trkpt lat="48.02885" lon="7.49722">
        <ele>192</ele>
        <time>2022-05-23T13:03:05Z</time>
      </trkpt>
      <trkpt lat="48.02838" lon="7.49807">
        <ele>194</ele>
        <time>2022-05-23T13:03:19Z</time>
      </trkpt>
      <trkpt lat="48.02833" lon="7.49823">
        <ele>194</ele>
        <time>2022-05-23T13:03:21Z</time>
      </trkpt>
      <trkpt lat="48.02828" lon="7.49841">
        <ele>194</ele>
        <time>2022-05-23T13:03:23Z</time>
      </trkpt>
      <trkpt lat="48.02829" lon="7.49989">
        <ele>192</ele>
        <time>2022-05-23T13:03:41Z</time>
      </trkpt>
      <trkpt lat="48.02827" lon="7.50007">
        <ele>192</ele>
        <time>2022-05-23T13:03:43Z</time>
      </trkpt>
      <trkpt lat="48.02819" lon="7.50042">
        <ele>191</ele>
        <time>2022-05-23T13:03:47Z</time>
      </trkpt>
      <trkpt lat="48.02808" lon="7.50075">
        <ele>191</ele>
        <time>2022-05-23T13:03:52Z</time>
      </trkpt>
      <trkpt lat="48.028" lon="7.50092">
        <ele>191</ele>
        <time>2022-05-23T13:03:54Z</time>
      </trkpt>
      <trkpt lat="48.02778" lon="7.50126">
        <ele>190</ele>
        <time>2022-05-23T13:04:00Z</time>
      </trkpt>
      <trkpt lat="48.0277" lon="7.50177">
        <ele>190</ele>
        <time>2022-05-23T13:04:06Z</time>
      </trkpt>
      <trkpt lat="48.02764" lon="7.50189">
        <ele>190</ele>
        <time>2022-05-23T13:04:08Z</time>
      </trkpt>
      <trkpt lat="48.02742" lon="7.50192">
        <ele>190</ele>
        <time>2022-05-23T13:04:12Z</time>
      </trkpt>
      <trkpt lat="48.0273" lon="7.50199">
        <ele>190</ele>
        <time>2022-05-23T13:04:14Z</time>
      </trkpt>
      <trkpt lat="48.02675" lon="7.50286">
        <ele>190</ele>
        <time>2022-05-23T13:04:28Z</time>
      </trkpt>
      <trkpt lat="48.02656" lon="7.50325">
        <ele>191</ele>
        <time>2022-05-23T13:04:34Z</time>
      </trkpt>
      <trkpt lat="48.02659" lon="7.5034">
        <ele>191</ele>
        <time>2022-05-23T13:04:36Z</time>
      </trkpt>
      <trkpt lat="48.02678" lon="7.50354">
        <ele>191</ele>
        <time>2022-05-23T13:04:40Z</time>
      </trkpt>
      <trkpt lat="48.02708" lon="7.50371">
        <ele>191</ele>
        <time>2022-05-23T13:04:45Z</time>
      </trkpt>
      <trkpt lat="48.02726" lon="7.50387">
        <ele>191</ele>
        <time>2022-05-23T13:04:49Z</time>
      </trkpt>
      <trkpt lat="48.02722" lon="7.50624">
        <ele>191</ele>
        <time>2022-05-23T13:05:17Z</time>
      </trkpt>
      <trkpt lat="48.02711" lon="7.50685">
        <ele>192</ele>
        <time>2022-05-23T13:05:25Z</time>
      </trkpt>
      <trkpt lat="48.02694" lon="7.50818">
        <ele>192</ele>
        <time>2022-05-23T13:05:41Z</time>
      </trkpt>
      <trkpt lat="48.0274" lon="7.50819">
        <ele>192</ele>
        <time>2022-05-23T13:05:49Z</time>
      </trkpt>
      <trkpt lat="48.02759" lon="7.50823">
        <ele>191</ele>
        <time>2022-05-23T13:05:52Z</time>
      </trkpt>
      <trkpt lat="48.02757" lon="7.50837">
        <ele>191</ele>
        <time>2022-05-23T13:05:54Z</time>
      </trkpt>
      <trkpt lat="48.02726" lon="7.50914">
        <ele>191</ele>
        <time>2022-05-23T13:06:05Z</time>
      </trkpt>
      <trkpt lat="48.02636" lon="7.51116">
        <ele>191</ele>
        <time>2022-05-23T13:06:34Z</time>
      </trkpt>
      <trkpt lat="48.02601" lon="7.51189">
        <ele>191</ele>
        <time>2022-05-23T13:06:44Z</time>
      </trkpt>
      <trkpt lat="48.0242" lon="7.51591">
        <ele>192</ele>
        <time>2022-05-23T13:07:42Z</time>
      </trkpt>
      <trkpt lat="48.02414" lon="7.51626">
        <ele>192</ele>
        <time>2022-05-23T13:07:46Z</time>
      </trkpt>
      <trkpt lat="48.02406" lon="7.51634">
        <ele>192</ele>
        <time>2022-05-23T13:07:48Z</time>
      </trkpt>
      <trkpt lat="48.02396" lon="7.51662">
        <ele>192</ele>
        <time>2022-05-23T13:07:52Z</time>
      </trkpt>
      <trkpt lat="48.02383" lon="7.51689">
        <ele>192</ele>
        <time>2022-05-23T13:07:56Z</time>
      </trkpt>
      <trkpt lat="48.02351" lon="7.51743">
        <ele>192</ele>
        <time>2022-05-23T13:08:04Z</time>
      </trkpt>
      <trkpt lat="48.02328" lon="7.51804">
        <ele>193</ele>
        <time>2022-05-23T13:08:13Z</time>
      </trkpt>
      <trkpt lat="48.02313" lon="7.51832">
        <ele>193</ele>
        <time>2022-05-23T13:08:17Z</time>
      </trkpt>
      <trkpt lat="48.02295" lon="7.51851">
        <ele>193</ele>
        <time>2022-05-23T13:08:21Z</time>
      </trkpt>
      <trkpt lat="48.02287" lon="7.51865">
        <ele>192</ele>
        <time>2022-05-23T13:08:23Z</time>
      </trkpt>
      <trkpt lat="48.02265" lon="7.51919">
        <ele>191</ele>
        <time>2022-05-23T13:08:31Z</time>
      </trkpt>
      <trkpt lat="48.02248" lon="7.51941">
        <ele>191</ele>
        <time>2022-05-23T13:08:35Z</time>
      </trkpt>
      <trkpt lat="48.02237" lon="7.5195">
        <ele>191</ele>
        <time>2022-05-23T13:08:37Z</time>
      </trkpt>
      <trkpt lat="48.02203" lon="7.5199">
        <ele>192</ele>
        <time>2022-05-23T13:08:45Z</time>
      </trkpt>
      <trkpt lat="48.02156" lon="7.52039">
        <ele>192</ele>
        <time>2022-05-23T13:08:55Z</time>
      </trkpt>
      <trkpt lat="48.02138" lon="7.52054">
        <ele>192</ele>
        <time>2022-05-23T13:08:58Z</time>
      </trkpt>
      <trkpt lat="48.0213" lon="7.52065">
        <ele>192</ele>
        <time>2022-05-23T13:09:00Z</time>
      </trkpt>
      <trkpt lat="48.02073" lon="7.52112">
        <ele>192</ele>
        <time>2022-05-23T13:09:12Z</time>
      </trkpt>
      <trkpt lat="48.02049" lon="7.52116">
        <ele>192</ele>
        <time>2022-05-23T13:09:16Z</time>
      </trkpt>
      <trkpt lat="48.02039" lon="7.52114">
        <ele>192</ele>
        <time>2022-05-23T13:09:18Z</time>
      </trkpt>
      <trkpt lat="48.02031" lon="7.52123">
        <ele>192</ele>
        <time>2022-05-23T13:09:20Z</time>
      </trkpt>
      <trkpt lat="48.02015" lon="7.5217">
        <ele>193</ele>
        <time>2022-05-23T13:09:26Z</time>
      </trkpt>
      <trkpt lat="48.02012" lon="7.52185">
        <ele>193</ele>
        <time>2022-05-23T13:09:28Z</time>
      </trkpt>
      <trkpt lat="48.02016" lon="7.52197">
        <ele>193</ele>
        <time>2022-05-23T13:09:30Z</time>
      </trkpt>
      <trkpt lat="48.02035" lon="7.52213">
        <ele>192</ele>
        <time>2022-05-23T13:09:33Z</time>
      </trkpt>
      <trkpt lat="48.02047" lon="7.52234">
        <ele>192</ele>
        <time>2022-05-23T13:09:37Z</time>
      </trkpt>
      <trkpt lat="48.02055" lon="7.52223">
        <ele>192</ele>
        <time>2022-05-23T13:09:39Z</time>
      </trkpt>
      <trkpt lat="48.02048" lon="7.5224">
        <ele>192</ele>
        <time>2022-05-23T13:09:41Z</time>
      </trkpt>
      <trkpt lat="48.02046" lon="7.52226">
        <ele>192</ele>
        <time>2022-05-23T13:09:43Z</time>
      </trkpt>
      <trkpt lat="48.0204" lon="7.52211">
        <ele>192</ele>
        <time>2022-05-23T13:09:45Z</time>
      </trkpt>
      <trkpt lat="48.02029" lon="7.52208">
        <ele>192</ele>
        <time>2022-05-23T13:09:47Z</time>
      </trkpt>
      <trkpt lat="48.02019" lon="7.522">
        <ele>192</ele>
        <time>2022-05-23T13:09:49Z</time>
      </trkpt>
      <trkpt lat="48.02009" lon="7.522">
        <ele>193</ele>
        <time>2022-05-23T13:09:51Z</time>
      </trkpt>
      <trkpt lat="48.02004" lon="7.52214">
        <ele>192</ele>
        <time>2022-05-23T13:09:53Z</time>
      </trkpt>
      <trkpt lat="48.01999" lon="7.52243">
        <ele>192</ele>
        <time>2022-05-23T13:09:56Z</time>
      </trkpt>
      <trkpt lat="48.01999" lon="7.52259">
        <ele>192</ele>
        <time>2022-05-23T13:09:58Z</time>
      </trkpt>
      <trkpt lat="48.02012" lon="7.52397">
        <ele>192</ele>
        <time>2022-05-23T13:10:15Z</time>
      </trkpt>
      <trkpt lat="48.02011" lon="7.52412">
        <ele>191</ele>
        <time>2022-05-23T13:10:16Z</time>
      </trkpt>
      <trkpt lat="48.02006" lon="7.52427">
        <ele>191</ele>
        <time>2022-05-23T13:10:18Z</time>
      </trkpt>
      <trkpt lat="48.0198" lon="7.52476">
        <ele>193</ele>
        <time>2022-05-23T13:10:26Z</time>
      </trkpt>
      <trkpt lat="48.01948" lon="7.52528">
        <ele>194</ele>
        <time>2022-05-23T13:10:34Z</time>
      </trkpt>
      <trkpt lat="48.01945" lon="7.52546">
        <ele>194</ele>
        <time>2022-05-23T13:10:36Z</time>
      </trkpt>
      <trkpt lat="48.01927" lon="7.52563">
        <ele>194</ele>
        <time>2022-05-23T13:10:40Z</time>
      </trkpt>
      <trkpt lat="48.01905" lon="7.5262">
        <ele>194</ele>
        <time>2022-05-23T13:10:48Z</time>
      </trkpt>
      <trkpt lat="48.01891" lon="7.52641">
        <ele>194</ele>
        <time>2022-05-23T13:10:52Z</time>
      </trkpt>
      <trkpt lat="48.01829" lon="7.52759">
        <ele>194</ele>
        <time>2022-05-23T13:11:09Z</time>
      </trkpt>
      <trkpt lat="48.01821" lon="7.52764">
        <ele>194</ele>
        <time>2022-05-23T13:11:11Z</time>
      </trkpt>
      <trkpt lat="48.01803" lon="7.5275">
        <ele>193</ele>
        <time>2022-05-23T13:11:15Z</time>
      </trkpt>
      <trkpt lat="48.01779" lon="7.52723">
        <ele>193</ele>
        <time>2022-05-23T13:11:20Z</time>
      </trkpt>
      <trkpt lat="48.0177" lon="7.52719">
        <ele>193</ele>
        <time>2022-05-23T13:11:22Z</time>
      </trkpt>
      <trkpt lat="48.01756" lon="7.52745">
        <ele>192</ele>
        <time>2022-05-23T13:11:26Z</time>
      </trkpt>
      <trkpt lat="48.01746" lon="7.52772">
        <ele>192</ele>
        <time>2022-05-23T13:11:29Z</time>
      </trkpt>
      <trkpt lat="48.01738" lon="7.52782">
        <ele>192</ele>
        <time>2022-05-23T13:11:31Z</time>
      </trkpt>
      <trkpt lat="48.01673" lon="7.52897">
        <ele>195</ele>
        <time>2022-05-23T13:11:49Z</time>
      </trkpt>
      <trkpt lat="48.01665" lon="7.52907">
        <ele>196</ele>
        <time>2022-05-23T13:11:51Z</time>
      </trkpt>
      <trkpt lat="48.0162" lon="7.52863">
        <ele>194</ele>
        <time>2022-05-23T13:12:00Z</time>
      </trkpt>
      <trkpt lat="48.01573" lon="7.52809">
        <ele>194</ele>
        <time>2022-05-23T13:12:11Z</time>
      </trkpt>
      <trkpt lat="48.01584" lon="7.5278">
        <ele>194</ele>
        <time>2022-05-23T13:12:15Z</time>
      </trkpt>
      <trkpt lat="48.01591" lon="7.52769">
        <ele>194</ele>
        <time>2022-05-23T13:12:17Z</time>
      </trkpt>
      <trkpt lat="48.01609" lon="7.52717">
        <ele>194</ele>
        <time>2022-05-23T13:12:24Z</time>
      </trkpt>
      <trkpt lat="48.01629" lon="7.52683">
        <ele>193</ele>
        <time>2022-05-23T13:12:29Z</time>
      </trkpt>
      <trkpt lat="48.01638" lon="7.52676">
        <ele>193</ele>
        <time>2022-05-23T13:12:31Z</time>
      </trkpt>
      <trkpt lat="48.01644" lon="7.52664">
        <ele>193</ele>
        <time>2022-05-23T13:12:33Z</time>
      </trkpt>
      <trkpt lat="48.01659" lon="7.52685">
        <ele>193</ele>
        <time>2022-05-23T13:12:36Z</time>
      </trkpt>
      <trkpt lat="48.01668" lon="7.52689">
        <ele>193</ele>
        <time>2022-05-23T13:12:38Z</time>
      </trkpt>
      <trkpt lat="48.01677" lon="7.527">
        <ele>193</ele>
        <time>2022-05-23T13:12:40Z</time>
      </trkpt>
      <trkpt lat="48.01683" lon="7.52709">
        <ele>193</ele>
        <time>2022-05-23T13:12:42Z</time>
      </trkpt>
      <trkpt lat="48.01687" lon="7.52722">
        <ele>193</ele>
        <time>2022-05-23T13:12:43Z</time>
      </trkpt>
      <trkpt lat="48.017" lon="7.52717">
        <ele>193</ele>
        <time>2022-05-23T13:12:46Z</time>
      </trkpt>
      <trkpt lat="48.01688" lon="7.52726">
        <ele>193</ele>
        <time>2022-05-23T13:12:48Z</time>
      </trkpt>
      <trkpt lat="48.0165" lon="7.528">
        <ele>194</ele>
        <time>2022-05-23T13:12:59Z</time>
      </trkpt>
      <trkpt lat="48.01628" lon="7.52836">
        <ele>194</ele>
        <time>2022-05-23T13:13:05Z</time>
      </trkpt>
      <trkpt lat="48.01621" lon="7.5285">
        <ele>194</ele>
        <time>2022-05-23T13:13:07Z</time>
      </trkpt>
      <trkpt lat="48.01626" lon="7.52862">
        <ele>194</ele>
        <time>2022-05-23T13:13:09Z</time>
      </trkpt>
      <trkpt lat="48.01641" lon="7.52881">
        <ele>195</ele>
        <time>2022-05-23T13:13:12Z</time>
      </trkpt>
      <trkpt lat="48.01664" lon="7.52903">
        <ele>196</ele>
        <time>2022-05-23T13:13:17Z</time>
      </trkpt>
      <trkpt lat="48.01685" lon="7.52934">
        <ele>196</ele>
        <time>2022-05-23T13:13:22Z</time>
      </trkpt>
      <trkpt lat="48.01702" lon="7.52953">
        <ele>196</ele>
        <time>2022-05-23T13:13:26Z</time>
      </trkpt>
      <trkpt lat="48.01708" lon="7.52964">
        <ele>196</ele>
        <time>2022-05-23T13:13:28Z</time>
      </trkpt>
      <trkpt lat="48.01751" lon="7.53013">
        <ele>197</ele>
        <time>2022-05-23T13:13:37Z</time>
      </trkpt>
      <trkpt lat="48.01766" lon="7.53036">
        <ele>196</ele>
        <time>2022-05-23T13:13:41Z</time>
      </trkpt>
      <trkpt lat="48.01805" lon="7.53085">
        <ele>194</ele>
        <time>2022-05-23T13:13:50Z</time>
      </trkpt>
      <trkpt lat="48.01815" lon="7.53093">
        <ele>194</ele>
        <time>2022-05-23T13:13:52Z</time>
      </trkpt>
      <trkpt lat="48.01839" lon="7.53123">
        <ele>194</ele>
        <time>2022-05-23T13:13:58Z</time>
      </trkpt>
      <trkpt lat="48.01867" lon="7.53164">
        <ele>194</ele>
        <time>2022-05-23T13:14:05Z</time>
      </trkpt>
      <trkpt lat="48.01876" lon="7.53167">
        <ele>194</ele>
        <time>2022-05-23T13:14:07Z</time>
      </trkpt>
      <trkpt lat="48.01897" lon="7.53163">
        <ele>194</ele>
        <time>2022-05-23T13:14:10Z</time>
      </trkpt>
      <trkpt lat="48.01956" lon="7.53057">
        <ele>194</ele>
        <time>2022-05-23T13:14:27Z</time>
      </trkpt>
      <trkpt lat="48.01966" lon="7.53059">
        <ele>194</ele>
        <time>2022-05-23T13:14:29Z</time>
      </trkpt>
      <trkpt lat="48.01974" lon="7.53067">
        <ele>194</ele>
        <time>2022-05-23T13:14:30Z</time>
      </trkpt>
      <trkpt lat="48.02013" lon="7.53119">
        <ele>193</ele>
        <time>2022-05-23T13:14:40Z</time>
      </trkpt>
      <trkpt lat="48.02018" lon="7.53132">
        <ele>193</ele>
        <time>2022-05-23T13:14:41Z</time>
      </trkpt>
      <trkpt lat="48.02011" lon="7.53158">
        <ele>193</ele>
        <time>2022-05-23T13:14:45Z</time>
      </trkpt>
      <trkpt lat="48.01999" lon="7.53185">
        <ele>193</ele>
        <time>2022-05-23T13:14:49Z</time>
      </trkpt>
      <trkpt lat="48.01994" lon="7.53213">
        <ele>194</ele>
        <time>2022-05-23T13:14:52Z</time>
      </trkpt>
      <trkpt lat="48.01988" lon="7.53229">
        <ele>194</ele>
        <time>2022-05-23T13:14:54Z</time>
      </trkpt>
      <trkpt lat="48.01979" lon="7.53241">
        <ele>194</ele>
        <time>2022-05-23T13:14:56Z</time>
      </trkpt>
      <trkpt lat="48.01943" lon="7.53316">
        <ele>195</ele>
        <time>2022-05-23T13:15:07Z</time>
      </trkpt>
      <trkpt lat="48.01932" lon="7.53347">
        <ele>196</ele>
        <time>2022-05-23T13:15:11Z</time>
      </trkpt>
      <trkpt lat="48.01903" lon="7.53442">
        <ele>196</ele>
        <time>2022-05-23T13:15:24Z</time>
      </trkpt>
      <trkpt lat="48.01887" lon="7.53521">
        <ele>196</ele>
        <time>2022-05-23T13:15:34Z</time>
      </trkpt>
      <trkpt lat="48.01904" lon="7.53434">
        <ele>196</ele>
        <time>2022-05-23T13:15:44Z</time>
      </trkpt>
      <trkpt lat="48.01887" lon="7.53424">
        <ele>195</ele>
        <time>2022-05-23T13:15:48Z</time>
      </trkpt>
      <trkpt lat="48.01875" lon="7.53422">
        <ele>195</ele>
        <time>2022-05-23T13:15:50Z</time>
      </trkpt>
      <trkpt lat="48.01884" lon="7.53423">
        <ele>195</ele>
        <time>2022-05-23T13:15:51Z</time>
      </trkpt>
      <trkpt lat="48.01891" lon="7.53431">
        <ele>196</ele>
        <time>2022-05-23T13:15:53Z</time>
      </trkpt>
      <trkpt lat="48.01901" lon="7.53428">
        <ele>196</ele>
        <time>2022-05-23T13:15:55Z</time>
      </trkpt>
      <trkpt lat="48.01903" lon="7.53444">
        <ele>196</ele>
        <time>2022-05-23T13:15:57Z</time>
      </trkpt>
      <trkpt lat="48.0189" lon="7.535">
        <ele>196</ele>
        <time>2022-05-23T13:16:04Z</time>
      </trkpt>
      <trkpt lat="48.0188" lon="7.53594">
        <ele>194</ele>
        <time>2022-05-23T13:16:15Z</time>
      </trkpt>
      <trkpt lat="48.01873" lon="7.53738">
        <ele>193</ele>
        <time>2022-05-23T13:16:32Z</time>
      </trkpt>
      <trkpt lat="48.01865" lon="7.53801">
        <ele>192</ele>
        <time>2022-05-23T13:16:40Z</time>
      </trkpt>
      <trkpt lat="48.01858" lon="7.5391">
        <ele>191</ele>
        <time>2022-05-23T13:16:53Z</time>
      </trkpt>
      <trkpt lat="48.0186" lon="7.53952">
        <ele>191</ele>
        <time>2022-05-23T13:16:58Z</time>
      </trkpt>
      <trkpt lat="48.01858" lon="7.54034">
        <ele>191</ele>
        <time>2022-05-23T13:17:08Z</time>
      </trkpt>
      <trkpt lat="48.01849" lon="7.54035">
        <ele>191</ele>
        <time>2022-05-23T13:17:09Z</time>
      </trkpt>
      <trkpt lat="48.01844" lon="7.54022">
        <ele>191</ele>
        <time>2022-05-23T13:17:11Z</time>
      </trkpt>
      <trkpt lat="48.0185" lon="7.53992">
        <ele>191</ele>
        <time>2022-05-23T13:17:15Z</time>
      </trkpt>
      <trkpt lat="48.01851" lon="7.53926">
        <ele>191</ele>
        <time>2022-05-23T13:17:23Z</time>
      </trkpt>
      <trkpt lat="48.01849" lon="7.53911">
        <ele>191</ele>
        <time>2022-05-23T13:17:25Z</time>
      </trkpt>
      <trkpt lat="48.01843" lon="7.53897">
        <ele>191</ele>
        <time>2022-05-23T13:17:27Z</time>
      </trkpt>
      <trkpt lat="48.01809" lon="7.53892">
        <ele>192</ele>
        <time>2022-05-23T13:17:33Z</time>
      </trkpt>
      <trkpt lat="48.01726" lon="7.53872">
        <ele>193</ele>
        <time>2022-05-23T13:17:48Z</time>
      </trkpt>
      <trkpt lat="48.01708" lon="7.53867">
        <ele>193</ele>
        <time>2022-05-23T13:17:51Z</time>
      </trkpt>
      <trkpt lat="48.0169" lon="7.53857">
        <ele>194</ele>
        <time>2022-05-23T13:17:54Z</time>
      </trkpt>
      <trkpt lat="48.01671" lon="7.53853">
        <ele>194</ele>
        <time>2022-05-23T13:17:58Z</time>
      </trkpt>
      <trkpt lat="48.01679" lon="7.53866">
        <ele>194</ele>
        <time>2022-05-23T13:18:00Z</time>
      </trkpt>
      <trkpt lat="48.0168" lon="7.53881">
        <ele>193</ele>
        <time>2022-05-23T13:18:02Z</time>
      </trkpt>
      <trkpt lat="48.01675" lon="7.53912">
        <ele>193</ele>
        <time>2022-05-23T13:18:05Z</time>
      </trkpt>
      <trkpt lat="48.01634" lon="7.54096">
        <ele>191</ele>
        <time>2022-05-23T13:18:28Z</time>
      </trkpt>
      <trkpt lat="48.01612" lon="7.54173">
        <ele>191</ele>
        <time>2022-05-23T13:18:38Z</time>
      </trkpt>
      <trkpt lat="48.01611" lon="7.54191">
        <ele>191</ele>
        <time>2022-05-23T13:18:41Z</time>
      </trkpt>
      <trkpt lat="48.01614" lon="7.54207">
        <ele>191</ele>
        <time>2022-05-23T13:18:43Z</time>
      </trkpt>
      <trkpt lat="48.01612" lon="7.54236">
        <ele>191</ele>
        <time>2022-05-23T13:18:46Z</time>
      </trkpt>
      <trkpt lat="48.01616" lon="7.54269">
        <ele>191</ele>
        <time>2022-05-23T13:18:50Z</time>
      </trkpt>
      <trkpt lat="48.01616" lon="7.54305">
        <ele>191</ele>
        <time>2022-05-23T13:18:54Z</time>
      </trkpt>
      <trkpt lat="48.01623" lon="7.54318">
        <ele>191</ele>
        <time>2022-05-23T13:18:56Z</time>
      </trkpt>
      <trkpt lat="48.01646" lon="7.5432">
        <ele>191</ele>
        <time>2022-05-23T13:19:00Z</time>
      </trkpt>
      <trkpt lat="48.01655" lon="7.54323">
        <ele>191</ele>
        <time>2022-05-23T13:19:02Z</time>
      </trkpt>
      <trkpt lat="48.01655" lon="7.54488">
        <ele>192</ele>
        <time>2022-05-23T13:19:22Z</time>
      </trkpt>
      <trkpt lat="48.01649" lon="7.54709">
        <ele>190</ele>
        <time>2022-05-23T13:19:48Z</time>
      </trkpt>
      <trkpt lat="48.01655" lon="7.54782">
        <ele>189</ele>
        <time>2022-05-23T13:19:57Z</time>
      </trkpt>
      <trkpt lat="48.01658" lon="7.548">
        <ele>189</ele>
        <time>2022-05-23T13:19:59Z</time>
      </trkpt>
      <trkpt lat="48.01665" lon="7.54814">
        <ele>190</ele>
        <time>2022-05-23T13:20:01Z</time>
      </trkpt>
      <trkpt lat="48.0166" lon="7.54876">
        <ele>190</ele>
        <time>2022-05-23T13:20:08Z</time>
      </trkpt>
      <trkpt lat="48.01661" lon="7.54982">
        <ele>191</ele>
        <time>2022-05-23T13:20:21Z</time>
      </trkpt>
      <trkpt lat="48.01664" lon="7.55018">
        <ele>191</ele>
        <time>2022-05-23T13:20:25Z</time>
      </trkpt>
      <trkpt lat="48.0167" lon="7.55211">
        <ele>189</ele>
        <time>2022-05-23T13:20:48Z</time>
      </trkpt>
      <trkpt lat="48.01664" lon="7.55238">
        <ele>189</ele>
        <time>2022-05-23T13:20:52Z</time>
      </trkpt>
      <trkpt lat="48.01656" lon="7.55312">
        <ele>189</ele>
        <time>2022-05-23T13:21:01Z</time>
      </trkpt>
      <trkpt lat="48.01649" lon="7.55329">
        <ele>189</ele>
        <time>2022-05-23T13:21:03Z</time>
      </trkpt>
      <trkpt lat="48.01643" lon="7.55358">
        <ele>189</ele>
        <time>2022-05-23T13:21:07Z</time>
      </trkpt>
      <trkpt lat="48.01627" lon="7.55381">
        <ele>189</ele>
        <time>2022-05-23T13:21:11Z</time>
      </trkpt>
      <trkpt lat="48.01606" lon="7.55418">
        <ele>189</ele>
        <time>2022-05-23T13:21:16Z</time>
      </trkpt>
      <trkpt lat="48.01602" lon="7.55433">
        <ele>190</ele>
        <time>2022-05-23T13:21:18Z</time>
      </trkpt>
      <trkpt lat="48.01597" lon="7.55545">
        <ele>191</ele>
        <time>2022-05-23T13:21:32Z</time>
      </trkpt>
      <trkpt lat="48.01584" lon="7.55626">
        <ele>189</ele>
        <time>2022-05-23T13:21:42Z</time>
      </trkpt>
      <trkpt lat="48.01529" lon="7.5579">
        <ele>187</ele>
        <time>2022-05-23T13:22:03Z</time>
      </trkpt>
      <trkpt lat="48.01525" lon="7.55808">
        <ele>187</ele>
        <time>2022-05-23T13:22:06Z</time>
      </trkpt>
      <trkpt lat="48.01523" lon="7.55846">
        <ele>187</ele>
        <time>2022-05-23T13:22:10Z</time>
      </trkpt>
      <trkpt lat="48.01525" lon="7.56095">
        <ele>187</ele>
        <time>2022-05-23T13:22:40Z</time>
      </trkpt>
      <trkpt lat="48.01545" lon="7.5644">
        <ele>186</ele>
        <time>2022-05-23T13:23:21Z</time>
      </trkpt>
      <trkpt lat="48.0154" lon="7.56487">
        <ele>186</ele>
        <time>2022-05-23T13:23:27Z</time>
      </trkpt>
      <trkpt lat="48.01517" lon="7.5656">
        <ele>187</ele>
        <time>2022-05-23T13:23:36Z</time>
      </trkpt>
      <trkpt lat="48.01515" lon="7.56578">
        <ele>188</ele>
        <time>2022-05-23T13:23:39Z</time>
      </trkpt>
      <trkpt lat="48.01516" lon="7.56597">
        <ele>188</ele>
        <time>2022-05-23T13:23:41Z</time>
      </trkpt>
      <trkpt lat="48.01534" lon="7.56664">
        <ele>188</ele>
        <time>2022-05-23T13:23:49Z</time>
      </trkpt>
      <trkpt lat="48.01571" lon="7.56783">
        <ele>186</ele>
        <time>2022-05-23T13:24:05Z</time>
      </trkpt>
      <trkpt lat="48.016" lon="7.56864">
        <ele>186</ele>
        <time>2022-05-23T13:24:16Z</time>
      </trkpt>
      <trkpt lat="48.01617" lon="7.56889">
        <ele>187</ele>
        <time>2022-05-23T13:24:20Z</time>
      </trkpt>
      <trkpt lat="48.01713" lon="7.5699">
        <ele>187</ele>
        <time>2022-05-23T13:24:41Z</time>
      </trkpt>
      <trkpt lat="48.01749" lon="7.57024">
        <ele>187</ele>
        <time>2022-05-23T13:24:49Z</time>
      </trkpt>
      <trkpt lat="48.01757" lon="7.57037">
        <ele>187</ele>
        <time>2022-05-23T13:24:51Z</time>
      </trkpt>
      <trkpt lat="48.01746" lon="7.57079">
        <ele>188</ele>
        <time>2022-05-23T13:24:56Z</time>
      </trkpt>
      <trkpt lat="48.01741" lon="7.57136">
        <ele>189</ele>
        <time>2022-05-23T13:25:03Z</time>
      </trkpt>
      <trkpt lat="48.01758" lon="7.57235">
        <ele>189</ele>
        <time>2022-05-23T13:25:15Z</time>
      </trkpt>
      <trkpt lat="48.01772" lon="7.5729">
        <ele>189</ele>
        <time>2022-05-23T13:25:22Z</time>
      </trkpt>
      <trkpt lat="48.01791" lon="7.57342">
        <ele>190</ele>
        <time>2022-05-23T13:25:29Z</time>
      </trkpt>
      <trkpt lat="48.01843" lon="7.57438">
        <ele>190</ele>
        <time>2022-05-23T13:25:44Z</time>
      </trkpt>
      <trkpt lat="48.01871" lon="7.57496">
        <ele>188</ele>
        <time>2022-05-23T13:25:52Z</time>
      </trkpt>
      <trkpt lat="48.01921" lon="7.57578">
        <ele>193</ele>
        <time>2022-05-23T13:26:06Z</time>
      </trkpt>
      <trkpt lat="48.01978" lon="7.57679">
        <ele>191</ele>
        <time>2022-05-23T13:26:21Z</time>
      </trkpt>
      <trkpt lat="48.01987" lon="7.5769">
        <ele>191</ele>
        <time>2022-05-23T13:26:23Z</time>
      </trkpt>
      <trkpt lat="48.02037" lon="7.57787">
        <ele>191</ele>
        <time>2022-05-23T13:26:38Z</time>
      </trkpt>
      <trkpt lat="48.02058" lon="7.57817">
        <ele>191</ele>
        <time>2022-05-23T13:26:43Z</time>
      </trkpt>
      <trkpt lat="48.02076" lon="7.57828">
        <ele>191</ele>
        <time>2022-05-23T13:26:47Z</time>
      </trkpt>
      <trkpt lat="48.02084" lon="7.57836">
        <ele>191</ele>
        <time>2022-05-23T13:26:48Z</time>
      </trkpt>
      <trkpt lat="48.0209" lon="7.57852">
        <ele>192</ele>
        <time>2022-05-23T13:26:51Z</time>
      </trkpt>
      <trkpt lat="48.02091" lon="7.57883">
        <ele>192</ele>
        <time>2022-05-23T13:26:54Z</time>
      </trkpt>
      <trkpt lat="48.02135" lon="7.57959">
        <ele>193</ele>
        <time>2022-05-23T13:27:06Z</time>
      </trkpt>
      <trkpt lat="48.02135" lon="7.58012">
        <ele>192</ele>
        <time>2022-05-23T13:27:12Z</time>
      </trkpt>
      <trkpt lat="48.02162" lon="7.58039">
        <ele>190</ele>
        <time>2022-05-23T13:27:18Z</time>
      </trkpt>
      <trkpt lat="48.02191" lon="7.58053">
        <ele>188</ele>
        <time>2022-05-23T13:27:24Z</time>
      </trkpt>
      <trkpt lat="48.02357" lon="7.58343">
        <ele>184</ele>
        <time>2022-05-23T13:28:09Z</time>
      </trkpt>
      <trkpt lat="48.02386" lon="7.58398">
        <ele>189</ele>
        <time>2022-05-23T13:28:17Z</time>
      </trkpt>
      <trkpt lat="48.02412" lon="7.58465">
        <ele>192</ele>
        <time>2022-05-23T13:28:27Z</time>
      </trkpt>
      <trkpt lat="48.0242" lon="7.58476">
        <ele>193</ele>
        <time>2022-05-23T13:28:29Z</time>
      </trkpt>
      <trkpt lat="48.02438" lon="7.58515">
        <ele>195</ele>
        <time>2022-05-23T13:28:34Z</time>
      </trkpt>
      <trkpt lat="48.02486" lon="7.58667">
        <ele>188</ele>
        <time>2022-05-23T13:28:54Z</time>
      </trkpt>
      <trkpt lat="48.02487" lon="7.58684">
        <ele>188</ele>
        <time>2022-05-23T13:28:56Z</time>
      </trkpt>
      <trkpt lat="48.02495" lon="7.58715">
        <ele>187</ele>
        <time>2022-05-23T13:29:00Z</time>
      </trkpt>
      <trkpt lat="48.02499" lon="7.58764">
        <ele>186</ele>
        <time>2022-05-23T13:29:06Z</time>
      </trkpt>
      <trkpt lat="48.02496" lon="7.58794">
        <ele>186</ele>
        <time>2022-05-23T13:29:10Z</time>
      </trkpt>
      <trkpt lat="48.02505" lon="7.58786">
        <ele>186</ele>
        <time>2022-05-23T13:29:12Z</time>
      </trkpt>
      <trkpt lat="48.02521" lon="7.58789">
        <ele>187</ele>
        <time>2022-05-23T13:29:14Z</time>
      </trkpt>
      <trkpt lat="48.02534" lon="7.58795">
        <ele>187</ele>
        <time>2022-05-23T13:29:17Z</time>
      </trkpt>
      <trkpt lat="48.02539" lon="7.58811">
        <ele>187</ele>
        <time>2022-05-23T13:29:19Z</time>
      </trkpt>
      <trkpt lat="48.02548" lon="7.58823">
        <ele>187</ele>
        <time>2022-05-23T13:29:21Z</time>
      </trkpt>
      <trkpt lat="48.02569" lon="7.58831">
        <ele>188</ele>
        <time>2022-05-23T13:29:25Z</time>
      </trkpt>
      <trkpt lat="48.02591" lon="7.58834">
        <ele>188</ele>
        <time>2022-05-23T13:29:29Z</time>
      </trkpt>
      <trkpt lat="48.02602" lon="7.58828">
        <ele>188</ele>
        <time>2022-05-23T13:29:31Z</time>
      </trkpt>
      <trkpt lat="48.02611" lon="7.58819">
        <ele>189</ele>
        <time>2022-05-23T13:29:33Z</time>
      </trkpt>
      <trkpt lat="48.0262" lon="7.58829">
        <ele>188</ele>
        <time>2022-05-23T13:29:35Z</time>
      </trkpt>
      <trkpt lat="48.0262" lon="7.58845">
        <ele>189</ele>
        <time>2022-05-23T13:29:37Z</time>
      </trkpt>
      <trkpt lat="48.02632" lon="7.58889">
        <ele>189</ele>
        <time>2022-05-23T13:29:42Z</time>
      </trkpt>
      <trkpt lat="48.02633" lon="7.58903">
        <ele>189</ele>
        <time>2022-05-23T13:29:44Z</time>
      </trkpt>
      <trkpt lat="48.0266" lon="7.58959">
        <ele>189</ele>
        <time>2022-05-23T13:29:52Z</time>
      </trkpt>
      <trkpt lat="48.02684" lon="7.59001">
        <ele>189</ele>
        <time>2022-05-23T13:29:59Z</time>
      </trkpt>
      <trkpt lat="48.02691" lon="7.59017">
        <ele>189</ele>
        <time>2022-05-23T13:30:01Z</time>
      </trkpt>
      <trkpt lat="48.027" lon="7.59052">
        <ele>188</ele>
        <time>2022-05-23T13:30:06Z</time>
      </trkpt>
      <trkpt lat="48.02713" lon="7.59074">
        <ele>188</ele>
        <time>2022-05-23T13:30:09Z</time>
      </trkpt>
      <trkpt lat="48.02714" lon="7.59118">
        <ele>188</ele>
        <time>2022-05-23T13:30:14Z</time>
      </trkpt>
      <trkpt lat="48.02733" lon="7.59201">
        <ele>189</ele>
        <time>2022-05-23T13:30:25Z</time>
      </trkpt>
      <trkpt lat="48.02763" lon="7.59284">
        <ele>188</ele>
        <time>2022-05-23T13:30:36Z</time>
      </trkpt>
      <trkpt lat="48.02777" lon="7.59312">
        <ele>188</ele>
        <time>2022-05-23T13:30:40Z</time>
      </trkpt>
      <trkpt lat="48.02796" lon="7.59364">
        <ele>188</ele>
        <time>2022-05-23T13:30:47Z</time>
      </trkpt>
      <trkpt lat="48.02838" lon="7.59461">
        <ele>188</ele>
        <time>2022-05-23T13:31:01Z</time>
      </trkpt>
      <trkpt lat="48.02858" lon="7.59521">
        <ele>188</ele>
        <time>2022-05-23T13:31:09Z</time>
      </trkpt>
      <trkpt lat="48.029" lon="7.59715">
        <ele>188</ele>
        <time>2022-05-23T13:31:33Z</time>
      </trkpt>
      <trkpt lat="48.02949" lon="7.60031">
        <ele>186</ele>
        <time>2022-05-23T13:32:12Z</time>
      </trkpt>
      <trkpt lat="48.0296" lon="7.60057">
        <ele>186</ele>
        <time>2022-05-23T13:32:16Z</time>
      </trkpt>
      <trkpt lat="48.02954" lon="7.60067">
        <ele>185</ele>
        <time>2022-05-23T13:32:17Z</time>
      </trkpt>
      <trkpt lat="48.02922" lon="7.60071">
        <ele>185</ele>
        <time>2022-05-23T13:32:23Z</time>
      </trkpt>
      <trkpt lat="48.02854" lon="7.60094">
        <ele>187</ele>
        <time>2022-05-23T13:32:35Z</time>
      </trkpt>
      <trkpt lat="48.02808" lon="7.601">
        <ele>188</ele>
        <time>2022-05-23T13:32:43Z</time>
      </trkpt>
      <trkpt lat="48.02743" lon="7.60118">
        <ele>188</ele>
        <time>2022-05-23T13:32:55Z</time>
      </trkpt>
      <trkpt lat="48.0269" lon="7.6014">
        <ele>188</ele>
        <time>2022-05-23T13:33:05Z</time>
      </trkpt>
      <trkpt lat="48.02661" lon="7.60157">
        <ele>188</ele>
        <time>2022-05-23T13:33:11Z</time>
      </trkpt>
      <trkpt lat="48.02651" lon="7.6016">
        <ele>188</ele>
        <time>2022-05-23T13:33:12Z</time>
      </trkpt>
      <trkpt lat="48.02629" lon="7.60177">
        <ele>187</ele>
        <time>2022-05-23T13:33:17Z</time>
      </trkpt>
      <trkpt lat="48.02601" lon="7.60209">
        <ele>187</ele>
        <time>2022-05-23T13:33:23Z</time>
      </trkpt>
      <trkpt lat="48.02567" lon="7.60255">
        <ele>186</ele>
        <time>2022-05-23T13:33:31Z</time>
      </trkpt>
      <trkpt lat="48.02332" lon="7.60583">
        <ele>187</ele>
        <time>2022-05-23T13:34:28Z</time>
      </trkpt>
      <trkpt lat="48.02324" lon="7.60593">
        <ele>187</ele>
        <time>2022-05-23T13:34:30Z</time>
      </trkpt>
      <trkpt lat="48.02314" lon="7.60588">
        <ele>187</ele>
        <time>2022-05-23T13:34:32Z</time>
      </trkpt>
      <trkpt lat="48.02299" lon="7.6061">
        <ele>187</ele>
        <time>2022-05-23T13:34:36Z</time>
      </trkpt>
      <trkpt lat="48.02297" lon="7.60629">
        <ele>187</ele>
        <time>2022-05-23T13:34:38Z</time>
      </trkpt>
      <trkpt lat="48.02272" lon="7.60656">
        <ele>188</ele>
        <time>2022-05-23T13:34:44Z</time>
      </trkpt>
      <trkpt lat="48.0227" lon="7.60671">
        <ele>189</ele>
        <time>2022-05-23T13:34:45Z</time>
      </trkpt>
      <trkpt lat="48.0226" lon="7.60697">
        <ele>189</ele>
        <time>2022-05-23T13:34:49Z</time>
      </trkpt>
      <trkpt lat="48.02213" lon="7.60785">
        <ele>189</ele>
        <time>2022-05-23T13:35:02Z</time>
      </trkpt>
      <trkpt lat="48.02159" lon="7.60899">
        <ele>189</ele>
        <time>2022-05-23T13:35:19Z</time>
      </trkpt>
      <trkpt lat="48.02137" lon="7.60939">
        <ele>190</ele>
        <time>2022-05-23T13:35:25Z</time>
      </trkpt>
      <trkpt lat="48.02075" lon="7.61247">
        <ele>193</ele>
        <time>2022-05-23T13:36:04Z</time>
      </trkpt>
      <trkpt lat="48.02069" lon="7.61259">
        <ele>193</ele>
        <time>2022-05-23T13:36:05Z</time>
      </trkpt>
      <trkpt lat="48.02079" lon="7.61261">
        <ele>193</ele>
        <time>2022-05-23T13:36:07Z</time>
      </trkpt>
      <trkpt lat="48.02099" lon="7.61271">
        <ele>192</ele>
        <time>2022-05-23T13:36:11Z</time>
      </trkpt>
      <trkpt lat="48.02141" lon="7.61286">
        <ele>191</ele>
        <time>2022-05-23T13:36:19Z</time>
      </trkpt>
      <trkpt lat="48.02174" lon="7.61308">
        <ele>190</ele>
        <time>2022-05-23T13:36:25Z</time>
      </trkpt>
      <trkpt lat="48.02194" lon="7.61328">
        <ele>189</ele>
        <time>2022-05-23T13:36:29Z</time>
      </trkpt>
      <trkpt lat="48.02249" lon="7.61415">
        <ele>188</ele>
        <time>2022-05-23T13:36:43Z</time>
      </trkpt>
      <trkpt lat="48.02253" lon="7.61427">
        <ele>188</ele>
        <time>2022-05-23T13:36:45Z</time>
      </trkpt>
      <trkpt lat="48.02253" lon="7.61446">
        <ele>189</ele>
        <time>2022-05-23T13:36:47Z</time>
      </trkpt>
      <trkpt lat="48.02204" lon="7.61644">
        <ele>192</ele>
        <time>2022-05-23T13:37:12Z</time>
      </trkpt>
      <trkpt lat="48.02127" lon="7.62049">
        <ele>190</ele>
        <time>2022-05-23T13:38:03Z</time>
      </trkpt>
      <trkpt lat="48.02073" lon="7.62306">
        <ele>191</ele>
        <time>2022-05-23T13:38:35Z</time>
      </trkpt>
      <trkpt lat="48.02015" lon="7.62604">
        <ele>191</ele>
        <time>2022-05-23T13:39:12Z</time>
      </trkpt>
      <trkpt lat="48.01926" lon="7.62912">
        <ele>191</ele>
        <time>2022-05-23T13:39:51Z</time>
      </trkpt>
      <trkpt lat="48.01924" lon="7.62926">
        <ele>191</ele>
        <time>2022-05-23T13:39:53Z</time>
      </trkpt>
      <trkpt lat="48.01901" lon="7.63006">
        <ele>192</ele>
        <time>2022-05-23T13:40:04Z</time>
      </trkpt>
      <trkpt lat="48.01881" lon="7.63093">
        <ele>192</ele>
        <time>2022-05-23T13:40:15Z</time>
      </trkpt>
      <trkpt lat="48.01863" lon="7.63201">
        <ele>191</ele>
        <time>2022-05-23T13:40:28Z</time>
      </trkpt>
      <trkpt lat="48.0185" lon="7.63353">
        <ele>192</ele>
        <time>2022-05-23T13:40:46Z</time>
      </trkpt>
      <trkpt lat="48.01832" lon="7.63496">
        <ele>192</ele>
        <time>2022-05-23T13:41:03Z</time>
      </trkpt>
      <trkpt lat="48.0182" lon="7.63561">
        <ele>191</ele>
        <time>2022-05-23T13:41:11Z</time>
      </trkpt>
      <trkpt lat="48.01759" lon="7.63786">
        <ele>192</ele>
        <time>2022-05-23T13:41:40Z</time>
      </trkpt>
      <trkpt lat="48.01754" lon="7.63819">
        <ele>192</ele>
        <time>2022-05-23T13:41:44Z</time>
      </trkpt>
      <trkpt lat="48.01703" lon="7.64005">
        <ele>194</ele>
        <time>2022-05-23T13:42:08Z</time>
      </trkpt>
      <trkpt lat="48.0168" lon="7.64078">
        <ele>194</ele>
        <time>2022-05-23T13:42:18Z</time>
      </trkpt>
      <trkpt lat="48.01674" lon="7.6409">
        <ele>194</ele>
        <time>2022-05-23T13:42:20Z</time>
      </trkpt>
      <trkpt lat="48.01666" lon="7.64098">
        <ele>194</ele>
        <time>2022-05-23T13:42:21Z</time>
      </trkpt>
      <trkpt lat="48.01621" lon="7.64086">
        <ele>194</ele>
        <time>2022-05-23T13:42:29Z</time>
      </trkpt>
      <trkpt lat="48.01609" lon="7.64086">
        <ele>194</ele>
        <time>2022-05-23T13:42:32Z</time>
      </trkpt>
      <trkpt lat="48.01597" lon="7.64092">
        <ele>194</ele>
        <time>2022-05-23T13:42:34Z</time>
      </trkpt>
      <trkpt lat="48.0159" lon="7.64106">
        <ele>194</ele>
        <time>2022-05-23T13:42:36Z</time>
      </trkpt>
      <trkpt lat="48.01579" lon="7.64159">
        <ele>194</ele>
        <time>2022-05-23T13:42:42Z</time>
      </trkpt>
      <trkpt lat="48.01564" lon="7.64209">
        <ele>194</ele>
        <time>2022-05-23T13:42:49Z</time>
      </trkpt>
      <trkpt lat="48.01558" lon="7.64246">
        <ele>194</ele>
        <time>2022-05-23T13:42:54Z</time>
      </trkpt>
      <trkpt lat="48.01552" lon="7.64258">
        <ele>194</ele>
        <time>2022-05-23T13:42:55Z</time>
      </trkpt>
      <trkpt lat="48.01552" lon="7.64293">
        <ele>194</ele>
        <time>2022-05-23T13:42:59Z</time>
      </trkpt>
      <trkpt lat="48.01542" lon="7.64363">
        <ele>194</ele>
        <time>2022-05-23T13:43:08Z</time>
      </trkpt>
      <trkpt lat="48.01542" lon="7.64396">
        <ele>194</ele>
        <time>2022-05-23T13:43:12Z</time>
      </trkpt>
      <trkpt lat="48.01554" lon="7.64424">
        <ele>193</ele>
        <time>2022-05-23T13:43:16Z</time>
      </trkpt>
      <trkpt lat="48.01601" lon="7.64472">
        <ele>194</ele>
        <time>2022-05-23T13:43:26Z</time>
      </trkpt>
      <trkpt lat="48.01631" lon="7.64493">
        <ele>194</ele>
        <time>2022-05-23T13:43:32Z</time>
      </trkpt>
      <trkpt lat="48.01644" lon="7.64512">
        <ele>194</ele>
        <time>2022-05-23T13:43:35Z</time>
      </trkpt>
      <trkpt lat="48.01651" lon="7.64528">
        <ele>194</ele>
        <time>2022-05-23T13:43:37Z</time>
      </trkpt>
      <trkpt lat="48.0166" lon="7.64563">
        <ele>194</ele>
        <time>2022-05-23T13:43:42Z</time>
      </trkpt>
      <trkpt lat="48.01665" lon="7.64607">
        <ele>194</ele>
        <time>2022-05-23T13:43:47Z</time>
      </trkpt>
      <trkpt lat="48.01662" lon="7.64637">
        <ele>194</ele>
        <time>2022-05-23T13:43:51Z</time>
      </trkpt>
      <trkpt lat="48.01627" lon="7.64724">
        <ele>193</ele>
        <time>2022-05-23T13:44:03Z</time>
      </trkpt>
      <trkpt lat="48.01597" lon="7.64816">
        <ele>192</ele>
        <time>2022-05-23T13:44:15Z</time>
      </trkpt>
      <trkpt lat="48.01564" lon="7.64935">
        <ele>192</ele>
        <time>2022-05-23T13:44:30Z</time>
      </trkpt>
      <trkpt lat="48.01551" lon="7.64998">
        <ele>192</ele>
        <time>2022-05-23T13:44:38Z</time>
      </trkpt>
      <trkpt lat="48.01539" lon="7.65043">
        <ele>192</ele>
        <time>2022-05-23T13:44:44Z</time>
      </trkpt>
      <trkpt lat="48.01474" lon="7.6522">
        <ele>192</ele>
        <time>2022-05-23T13:45:08Z</time>
      </trkpt>
      <trkpt lat="48.01434" lon="7.65349">
        <ele>192</ele>
        <time>2022-05-23T13:45:25Z</time>
      </trkpt>
      <trkpt lat="48.01331" lon="7.65655">
        <ele>192</ele>
        <time>2022-05-23T13:46:06Z</time>
      </trkpt>
      <trkpt lat="48.01319" lon="7.65681">
        <ele>193</ele>
        <time>2022-05-23T13:46:10Z</time>
      </trkpt>
      <trkpt lat="48.01296" lon="7.65714">
        <ele>194</ele>
        <time>2022-05-23T13:46:15Z</time>
      </trkpt>
      <trkpt lat="48.0126" lon="7.65749">
        <ele>195</ele>
        <time>2022-05-23T13:46:23Z</time>
      </trkpt>
      <trkpt lat="48.01271" lon="7.65746">
        <ele>195</ele>
        <time>2022-05-23T13:46:25Z</time>
      </trkpt>
      <trkpt lat="48.0126" lon="7.65747">
        <ele>195</ele>
        <time>2022-05-23T13:46:27Z</time>
      </trkpt>
      <trkpt lat="48.01231" lon="7.65772">
        <ele>196</ele>
        <time>2022-05-23T13:46:33Z</time>
      </trkpt>
      <trkpt lat="48.01193" lon="7.65817">
        <ele>197</ele>
        <time>2022-05-23T13:46:41Z</time>
      </trkpt>
      <trkpt lat="48.01177" lon="7.65841">
        <ele>197</ele>
        <time>2022-05-23T13:46:45Z</time>
      </trkpt>
      <trkpt lat="48.01115" lon="7.65921">
        <ele>197</ele>
        <time>2022-05-23T13:47:00Z</time>
      </trkpt>
      <trkpt lat="48.01097" lon="7.65953">
        <ele>196</ele>
        <time>2022-05-23T13:47:05Z</time>
      </trkpt>
      <trkpt lat="48.01086" lon="7.65984">
        <ele>196</ele>
        <time>2022-05-23T13:47:09Z</time>
      </trkpt>
      <trkpt lat="48.01073" lon="7.66038">
        <ele>197</ele>
        <time>2022-05-23T13:47:16Z</time>
      </trkpt>
      <trkpt lat="48.01065" lon="7.66083">
        <ele>198</ele>
        <time>2022-05-23T13:47:21Z</time>
      </trkpt>
      <trkpt lat="48.01061" lon="7.66133">
        <ele>199</ele>
        <time>2022-05-23T13:47:27Z</time>
      </trkpt>
      <trkpt lat="48.01071" lon="7.66198">
        <ele>199</ele>
        <time>2022-05-23T13:47:35Z</time>
      </trkpt>
      <trkpt lat="48.01078" lon="7.66226">
        <ele>198</ele>
        <time>2022-05-23T13:47:39Z</time>
      </trkpt>
      <trkpt lat="48.0108" lon="7.66257">
        <ele>197</ele>
        <time>2022-05-23T13:47:43Z</time>
      </trkpt>
      <trkpt lat="48.01078" lon="7.66304">
        <ele>198</ele>
        <time>2022-05-23T13:47:48Z</time>
      </trkpt>
      <trkpt lat="48.01087" lon="7.66305">
        <ele>198</ele>
        <time>2022-05-23T13:47:50Z</time>
      </trkpt>
      <trkpt lat="48.01077" lon="7.66305">
        <ele>199</ele>
        <time>2022-05-23T13:47:52Z</time>
      </trkpt>
      <trkpt lat="48.01071" lon="7.66316">
        <ele>199</ele>
        <time>2022-05-23T13:47:53Z</time>
      </trkpt>
      <trkpt lat="48.01065" lon="7.66371">
        <ele>200</ele>
        <time>2022-05-23T13:48:00Z</time>
      </trkpt>
      <trkpt lat="48.01069" lon="7.66421">
        <ele>201</ele>
        <time>2022-05-23T13:48:06Z</time>
      </trkpt>
      <trkpt lat="48.01087" lon="7.66462">
        <ele>202</ele>
        <time>2022-05-23T13:48:12Z</time>
      </trkpt>
      <trkpt lat="48.01098" lon="7.66502">
        <ele>203</ele>
        <time>2022-05-23T13:48:17Z</time>
      </trkpt>
      <trkpt lat="48.01104" lon="7.66516">
        <ele>203</ele>
        <time>2022-05-23T13:48:19Z</time>
      </trkpt>
      <trkpt lat="48.01111" lon="7.66581">
        <ele>202</ele>
        <time>2022-05-23T13:48:27Z</time>
      </trkpt>
      <trkpt lat="48.01122" lon="7.66629">
        <ele>199</ele>
        <time>2022-05-23T13:48:33Z</time>
      </trkpt>
      <trkpt lat="48.01152" lon="7.667">
        <ele>196</ele>
        <time>2022-05-23T13:48:43Z</time>
      </trkpt>
      <trkpt lat="48.01184" lon="7.668">
        <ele>195</ele>
        <time>2022-05-23T13:48:56Z</time>
      </trkpt>
      <trkpt lat="48.0119" lon="7.66832">
        <ele>195</ele>
        <time>2022-05-23T13:49:00Z</time>
      </trkpt>
      <trkpt lat="48.0119" lon="7.66922">
        <ele>194</ele>
        <time>2022-05-23T13:49:11Z</time>
      </trkpt>
      <trkpt lat="48.01196" lon="7.66969">
        <ele>195</ele>
        <time>2022-05-23T13:49:16Z</time>
      </trkpt>
      <trkpt lat="48.012" lon="7.66982">
        <ele>195</ele>
        <time>2022-05-23T13:49:18Z</time>
      </trkpt>
      <trkpt lat="48.01209" lon="7.66988">
        <ele>194</ele>
        <time>2022-05-23T13:49:20Z</time>
      </trkpt>
      <trkpt lat="48.01216" lon="7.67">
        <ele>194</ele>
        <time>2022-05-23T13:49:22Z</time>
      </trkpt>
      <trkpt lat="48.01246" lon="7.67103">
        <ele>193</ele>
        <time>2022-05-23T13:49:35Z</time>
      </trkpt>
      <trkpt lat="48.01258" lon="7.67133">
        <ele>193</ele>
        <time>2022-05-23T13:49:39Z</time>
      </trkpt>
      <trkpt lat="48.01266" lon="7.67146">
        <ele>193</ele>
        <time>2022-05-23T13:49:41Z</time>
      </trkpt>
      <trkpt lat="48.01269" lon="7.67159">
        <ele>193</ele>
        <time>2022-05-23T13:49:43Z</time>
      </trkpt>
      <trkpt lat="48.01284" lon="7.67276">
        <ele>194</ele>
        <time>2022-05-23T13:49:57Z</time>
      </trkpt>
      <trkpt lat="48.01284" lon="7.67318">
        <ele>193</ele>
        <time>2022-05-23T13:50:02Z</time>
      </trkpt>
      <trkpt lat="48.01288" lon="7.67387">
        <ele>192</ele>
        <time>2022-05-23T13:50:10Z</time>
      </trkpt>
      <trkpt lat="48.01303" lon="7.67495">
        <ele>192</ele>
        <time>2022-05-23T13:50:24Z</time>
      </trkpt>
      <trkpt lat="48.01304" lon="7.67529">
        <ele>192</ele>
        <time>2022-05-23T13:50:28Z</time>
      </trkpt>
      <trkpt lat="48.01313" lon="7.67572">
        <ele>193</ele>
        <time>2022-05-23T13:50:33Z</time>
      </trkpt>
      <trkpt lat="48.01336" lon="7.67656">
        <ele>192</ele>
        <time>2022-05-23T13:50:44Z</time>
      </trkpt>
      <trkpt lat="48.01359" lon="7.67724">
        <ele>192</ele>
        <time>2022-05-23T13:50:53Z</time>
      </trkpt>
      <trkpt lat="48.01405" lon="7.67838">
        <ele>193</ele>
        <time>2022-05-23T13:51:09Z</time>
      </trkpt>
      <trkpt lat="48.01426" lon="7.67902">
        <ele>192</ele>
        <time>2022-05-23T13:51:17Z</time>
      </trkpt>
      <trkpt lat="48.01457" lon="7.67953">
        <ele>192</ele>
        <time>2022-05-23T13:51:25Z</time>
      </trkpt>
      <trkpt lat="48.01491" lon="7.68018">
        <ele>192</ele>
        <time>2022-05-23T13:51:35Z</time>
      </trkpt>
      <trkpt lat="48.01512" lon="7.68053">
        <ele>192</ele>
        <time>2022-05-23T13:51:41Z</time>
      </trkpt>
      <trkpt lat="48.01526" lon="7.6808">
        <ele>192</ele>
        <time>2022-05-23T13:51:45Z</time>
      </trkpt>
      <trkpt lat="48.01535" lon="7.68104">
        <ele>192</ele>
        <time>2022-05-23T13:51:48Z</time>
      </trkpt>
      <trkpt lat="48.01521" lon="7.6807">
        <ele>192</ele>
        <time>2022-05-23T13:51:53Z</time>
      </trkpt>
      <trkpt lat="48.01458" lon="7.67956">
        <ele>192</ele>
        <time>2022-05-23T13:52:10Z</time>
      </trkpt>
      <trkpt lat="48.01433" lon="7.67919">
        <ele>192</ele>
        <time>2022-05-23T13:52:17Z</time>
      </trkpt>
      <trkpt lat="48.01421" lon="7.67916">
        <ele>192</ele>
        <time>2022-05-23T13:52:19Z</time>
      </trkpt>
      <trkpt lat="48.01305" lon="7.6814">
        <ele>193</ele>
        <time>2022-05-23T13:52:53Z</time>
      </trkpt>
      <trkpt lat="48.01236" lon="7.68281">
        <ele>199</ele>
        <time>2022-05-23T13:53:13Z</time>
      </trkpt>
      <trkpt lat="48.0122" lon="7.683">
        <ele>202</ele>
        <time>2022-05-23T13:53:17Z</time>
      </trkpt>
      <trkpt lat="48.01202" lon="7.68312">
        <ele>205</ele>
        <time>2022-05-23T13:53:21Z</time>
      </trkpt>
      <trkpt lat="48.01196" lon="7.68321">
        <ele>206</ele>
        <time>2022-05-23T13:53:22Z</time>
      </trkpt>
      <trkpt lat="48.01203" lon="7.68335">
        <ele>205</ele>
        <time>2022-05-23T13:53:24Z</time>
      </trkpt>
      <trkpt lat="48.01244" lon="7.68386">
        <ele>206</ele>
        <time>2022-05-23T13:53:34Z</time>
      </trkpt>
      <trkpt lat="48.01274" lon="7.68413">
        <ele>204</ele>
        <time>2022-05-23T13:53:40Z</time>
      </trkpt>
      <trkpt lat="48.01281" lon="7.68423">
        <ele>204</ele>
        <time>2022-05-23T13:53:42Z</time>
      </trkpt>
      <trkpt lat="48.01299" lon="7.6846">
        <ele>205</ele>
        <time>2022-05-23T13:53:47Z</time>
      </trkpt>
      <trkpt lat="48.01312" lon="7.6852">
        <ele>206</ele>
        <time>2022-05-23T13:53:55Z</time>
      </trkpt>
      <trkpt lat="48.01321" lon="7.68529">
        <ele>204</ele>
        <time>2022-05-23T13:53:56Z</time>
      </trkpt>
      <trkpt lat="48.01323" lon="7.68543">
        <ele>205</ele>
        <time>2022-05-23T13:53:58Z</time>
      </trkpt>
      <trkpt lat="48.01317" lon="7.68553">
        <ele>206</ele>
        <time>2022-05-23T13:54:00Z</time>
      </trkpt>
      <trkpt lat="48.01293" lon="7.68578">
        <ele>212</ele>
        <time>2022-05-23T13:54:05Z</time>
      </trkpt>
      <trkpt lat="48.01276" lon="7.68592">
        <ele>215</ele>
        <time>2022-05-23T13:54:08Z</time>
      </trkpt>
      <trkpt lat="48.0125" lon="7.68609">
        <ele>220</ele>
        <time>2022-05-23T13:54:13Z</time>
      </trkpt>
      <trkpt lat="48.0124" lon="7.68613">
        <ele>221</ele>
        <time>2022-05-23T13:54:15Z</time>
      </trkpt>
      <trkpt lat="48.01188" lon="7.68649">
        <ele>226</ele>
        <time>2022-05-23T13:54:26Z</time>
      </trkpt>
      <trkpt lat="48.0117" lon="7.68657">
        <ele>227</ele>
        <time>2022-05-23T13:54:29Z</time>
      </trkpt>
      <trkpt lat="48.01125" lon="7.68684">
        <ele>232</ele>
        <time>2022-05-23T13:54:38Z</time>
      </trkpt>
      <trkpt lat="48.01074" lon="7.68727">
        <ele>236</ele>
        <time>2022-05-23T13:54:48Z</time>
      </trkpt>
      <trkpt lat="48.01021" lon="7.68786">
        <ele>242</ele>
        <time>2022-05-23T13:55:00Z</time>
      </trkpt>
      <trkpt lat="48.01001" lon="7.68816">
        <ele>242</ele>
        <time>2022-05-23T13:55:05Z</time>
      </trkpt>
      <trkpt lat="48.00976" lon="7.68864">
        <ele>243</ele>
        <time>2022-05-23T13:55:12Z</time>
      </trkpt>
      <trkpt lat="48.0092" lon="7.69023">
        <ele>241</ele>
        <time>2022-05-23T13:55:33Z</time>
      </trkpt>
      <trkpt lat="48.00923" lon="7.69036">
        <ele>242</ele>
        <time>2022-05-23T13:55:35Z</time>
      </trkpt>
      <trkpt lat="48.00963" lon="7.69064">
        <ele>243</ele>
        <time>2022-05-23T13:55:43Z</time>
      </trkpt>
      <trkpt lat="48.00964" lon="7.6908">
        <ele>244</ele>
        <time>2022-05-23T13:55:45Z</time>
      </trkpt>
      <trkpt lat="48.00938" lon="7.69121">
        <ele>246</ele>
        <time>2022-05-23T13:55:51Z</time>
      </trkpt>
      <trkpt lat="48.0093" lon="7.69128">
        <ele>246</ele>
        <time>2022-05-23T13:55:53Z</time>
      </trkpt>
      <trkpt lat="48.00925" lon="7.69141">
        <ele>247</ele>
        <time>2022-05-23T13:55:55Z</time>
      </trkpt>
      <trkpt lat="48.00892" lon="7.69175">
        <ele>249</ele>
        <time>2022-05-23T13:56:02Z</time>
      </trkpt>
      <trkpt lat="48.00886" lon="7.69186">
        <ele>251</ele>
        <time>2022-05-23T13:56:04Z</time>
      </trkpt>
      <trkpt lat="48.00869" lon="7.69201">
        <ele>252</ele>
        <time>2022-05-23T13:56:07Z</time>
      </trkpt>
      <trkpt lat="48.00863" lon="7.69211">
        <ele>254</ele>
        <time>2022-05-23T13:56:09Z</time>
      </trkpt>
      <trkpt lat="48.00836" lon="7.69231">
        <ele>257</ele>
        <time>2022-05-23T13:56:14Z</time>
      </trkpt>
      <trkpt lat="48.00827" lon="7.69233">
        <ele>258</ele>
        <time>2022-05-23T13:56:16Z</time>
      </trkpt>
      <trkpt lat="48.00799" lon="7.6922">
        <ele>258</ele>
        <time>2022-05-23T13:56:21Z</time>
      </trkpt>
      <trkpt lat="48.0079" lon="7.69211">
        <ele>258</ele>
        <time>2022-05-23T13:56:23Z</time>
      </trkpt>
      <trkpt lat="48.00763" lon="7.69193">
        <ele>258</ele>
        <time>2022-05-23T13:56:28Z</time>
      </trkpt>
      <trkpt lat="48.00753" lon="7.69197">
        <ele>259</ele>
        <time>2022-05-23T13:56:30Z</time>
      </trkpt>
      <trkpt lat="48.00735" lon="7.69233">
        <ele>259</ele>
        <time>2022-05-23T13:56:35Z</time>
      </trkpt>
      <trkpt lat="48.00724" lon="7.69241">
        <ele>259</ele>
        <time>2022-05-23T13:56:38Z</time>
      </trkpt>
      <trkpt lat="48.007" lon="7.69216">
        <ele>257</ele>
        <time>2022-05-23T13:56:43Z</time>
      </trkpt>
      <trkpt lat="48.00656" lon="7.69188">
        <ele>253</ele>
        <time>2022-05-23T13:56:51Z</time>
      </trkpt>
      <trkpt lat="48.00626" lon="7.69161">
        <ele>248</ele>
        <time>2022-05-23T13:56:58Z</time>
      </trkpt>
      <trkpt lat="48.00602" lon="7.69144">
        <ele>246</ele>
        <time>2022-05-23T13:57:02Z</time>
      </trkpt>
      <trkpt lat="48.00587" lon="7.69143">
        <ele>243</ele>
        <time>2022-05-23T13:57:05Z</time>
      </trkpt>
      <trkpt lat="48.00572" lon="7.69147">
        <ele>241</ele>
        <time>2022-05-23T13:57:08Z</time>
      </trkpt>
      <trkpt lat="48.00525" lon="7.69162">
        <ele>237</ele>
        <time>2022-05-23T13:57:16Z</time>
      </trkpt>
      <trkpt lat="48.00516" lon="7.69169">
        <ele>237</ele>
        <time>2022-05-23T13:57:18Z</time>
      </trkpt>
      <trkpt lat="48.0051" lon="7.69293">
        <ele>234</ele>
        <time>2022-05-23T13:57:33Z</time>
      </trkpt>
      <trkpt lat="48.005" lon="7.69383">
        <ele>232</ele>
        <time>2022-05-23T13:57:44Z</time>
      </trkpt>
      <trkpt lat="48.00501" lon="7.69417">
        <ele>232</ele>
        <time>2022-05-23T13:57:48Z</time>
      </trkpt>
      <trkpt lat="48.00489" lon="7.6946">
        <ele>232</ele>
        <time>2022-05-23T13:57:53Z</time>
      </trkpt>
      <trkpt lat="48.00475" lon="7.69498">
        <ele>231</ele>
        <time>2022-05-23T13:57:58Z</time>
      </trkpt>
      <trkpt lat="48.00463" lon="7.69522">
        <ele>231</ele>
        <time>2022-05-23T13:58:02Z</time>
      </trkpt>
      <trkpt lat="48.00371" lon="7.69672">
        <ele>228</ele>
        <time>2022-05-23T13:58:26Z</time>
      </trkpt>
      <trkpt lat="48.00341" lon="7.69727">
        <ele>227</ele>
        <time>2022-05-23T13:58:35Z</time>
      </trkpt>
      <trkpt lat="48.0034" lon="7.69772">
        <ele>228</ele>
        <time>2022-05-23T13:58:40Z</time>
      </trkpt>
      <trkpt lat="48.00343" lon="7.69878">
        <ele>229</ele>
        <time>2022-05-23T13:58:53Z</time>
      </trkpt>
      <trkpt lat="48.00332" lon="7.70074">
        <ele>226</ele>
        <time>2022-05-23T13:59:16Z</time>
      </trkpt>
      <trkpt lat="48.00332" lon="7.7016">
        <ele>225</ele>
        <time>2022-05-23T13:59:26Z</time>
      </trkpt>
      <trkpt lat="48.00324" lon="7.7017">
        <ele>225</ele>
        <time>2022-05-23T13:59:28Z</time>
      </trkpt>
      <trkpt lat="48.00284" lon="7.70169">
        <ele>224</ele>
        <time>2022-05-23T13:59:35Z</time>
      </trkpt>
      <trkpt lat="48.0026" lon="7.70171">
        <ele>223</ele>
        <time>2022-05-23T13:59:40Z</time>
      </trkpt>
      <trkpt lat="48.00158" lon="7.70196">
        <ele>228</ele>
        <time>2022-05-23T13:59:58Z</time>
      </trkpt>
      <trkpt lat="48.00137" lon="7.70198">
        <ele>230</ele>
        <time>2022-05-23T14:00:02Z</time>
      </trkpt>
      <trkpt lat="48.00127" lon="7.70202">
        <ele>231</ele>
        <time>2022-05-23T14:00:04Z</time>
      </trkpt>
      <trkpt lat="48.00121" lon="7.70212">
        <ele>232</ele>
        <time>2022-05-23T14:00:05Z</time>
      </trkpt>
      <trkpt lat="48.00123" lon="7.70256">
        <ele>231</ele>
        <time>2022-05-23T14:00:10Z</time>
      </trkpt>
      <trkpt lat="48.00133" lon="7.70362">
        <ele>233</ele>
        <time>2022-05-23T14:00:23Z</time>
      </trkpt>
      <trkpt lat="48.00136" lon="7.70445">
        <ele>233</ele>
        <time>2022-05-23T14:00:33Z</time>
      </trkpt>
      <trkpt lat="48.00133" lon="7.7063">
        <ele>234</ele>
        <time>2022-05-23T14:00:55Z</time>
      </trkpt>
      <trkpt lat="48.00136" lon="7.70651">
        <ele>234</ele>
        <time>2022-05-23T14:00:58Z</time>
      </trkpt>
      <trkpt lat="48.00135" lon="7.70735">
        <ele>232</ele>
        <time>2022-05-23T14:01:08Z</time>
      </trkpt>
      <trkpt lat="48.00133" lon="7.7075">
        <ele>231</ele>
        <time>2022-05-23T14:01:09Z</time>
      </trkpt>
      <trkpt lat="48.00131" lon="7.70859">
        <ele>230</ele>
        <time>2022-05-23T14:01:22Z</time>
      </trkpt>
      <trkpt lat="48.00079" lon="7.70986">
        <ele>230</ele>
        <time>2022-05-23T14:01:40Z</time>
      </trkpt>
      <trkpt lat="48.00042" lon="7.71066">
        <ele>230</ele>
        <time>2022-05-23T14:01:52Z</time>
      </trkpt>
      <trkpt lat="47.99971" lon="7.71209">
        <ele>223</ele>
        <time>2022-05-23T14:02:13Z</time>
      </trkpt>
      <trkpt lat="47.99904" lon="7.71329">
        <ele>217</ele>
        <time>2022-05-23T14:02:32Z</time>
      </trkpt>
      <trkpt lat="47.99857" lon="7.71403">
        <ele>212</ele>
        <time>2022-05-23T14:02:44Z</time>
      </trkpt>
      <trkpt lat="47.99854" lon="7.71416">
        <ele>212</ele>
        <time>2022-05-23T14:02:45Z</time>
      </trkpt>
      <trkpt lat="47.99878" lon="7.71443">
        <ele>210</ele>
        <time>2022-05-23T14:02:51Z</time>
      </trkpt>
      <trkpt lat="47.99911" lon="7.71471">
        <ele>209</ele>
        <time>2022-05-23T14:02:57Z</time>
      </trkpt>
      <trkpt lat="47.99979" lon="7.71514">
        <ele>210</ele>
        <time>2022-05-23T14:03:11Z</time>
      </trkpt>
      <trkpt lat="48.00007" lon="7.71537">
        <ele>211</ele>
        <time>2022-05-23T14:03:16Z</time>
      </trkpt>
      <trkpt lat="48.00017" lon="7.71541">
        <ele>211</ele>
        <time>2022-05-23T14:03:18Z</time>
      </trkpt>
      <trkpt lat="48.00047" lon="7.7157">
        <ele>214</ele>
        <time>2022-05-23T14:03:24Z</time>
      </trkpt>
      <trkpt lat="48.00055" lon="7.71583">
        <ele>215</ele>
        <time>2022-05-23T14:03:27Z</time>
      </trkpt>
      <trkpt lat="48.00053" lon="7.71601">
        <ele>214</ele>
        <time>2022-05-23T14:03:29Z</time>
      </trkpt>
      <trkpt lat="48.00034" lon="7.71664">
        <ele>210</ele>
        <time>2022-05-23T14:03:37Z</time>
      </trkpt>
      <trkpt lat="47.99997" lon="7.71771">
        <ele>208</ele>
        <time>2022-05-23T14:03:51Z</time>
      </trkpt>
      <trkpt lat="47.99991" lon="7.71805">
        <ele>208</ele>
        <time>2022-05-23T14:03:55Z</time>
      </trkpt>
      <trkpt lat="47.99985" lon="7.71819">
        <ele>207</ele>
        <time>2022-05-23T14:03:57Z</time>
      </trkpt>
      <trkpt lat="47.99974" lon="7.71866">
        <ele>206</ele>
        <time>2022-05-23T14:04:03Z</time>
      </trkpt>
      <trkpt lat="47.99964" lon="7.71895">
        <ele>205</ele>
        <time>2022-05-23T14:04:07Z</time>
      </trkpt>
      <trkpt lat="47.99965" lon="7.71913">
        <ele>205</ele>
        <time>2022-05-23T14:04:09Z</time>
      </trkpt>
      <trkpt lat="47.9996" lon="7.71959">
        <ele>205</ele>
        <time>2022-05-23T14:04:15Z</time>
      </trkpt>
      <trkpt lat="47.99954" lon="7.72063">
        <ele>205</ele>
        <time>2022-05-23T14:04:27Z</time>
      </trkpt>
      <trkpt lat="47.99943" lon="7.72163">
        <ele>202</ele>
        <time>2022-05-23T14:04:39Z</time>
      </trkpt>
      <trkpt lat="47.99932" lon="7.723">
        <ele>203</ele>
        <time>2022-05-23T14:04:56Z</time>
      </trkpt>
      <trkpt lat="47.99899" lon="7.72761">
        <ele>203</ele>
        <time>2022-05-23T14:05:51Z</time>
      </trkpt>
      <trkpt lat="47.99903" lon="7.72971">
        <ele>203</ele>
        <time>2022-05-23T14:06:16Z</time>
      </trkpt>
      <trkpt lat="47.99912" lon="7.73176">
        <ele>207</ele>
        <time>2022-05-23T14:06:41Z</time>
      </trkpt>
      <trkpt lat="47.99915" lon="7.73321">
        <ele>203</ele>
        <time>2022-05-23T14:06:58Z</time>
      </trkpt>
      <trkpt lat="47.9991" lon="7.73487">
        <ele>206</ele>
        <time>2022-05-23T14:07:18Z</time>
      </trkpt>
      <trkpt lat="47.99896" lon="7.73653">
        <ele>206</ele>
        <time>2022-05-23T14:07:38Z</time>
      </trkpt>
      <trkpt lat="47.99889" lon="7.73699">
        <ele>208</ele>
        <time>2022-05-23T14:07:43Z</time>
      </trkpt>
      <trkpt lat="47.99875" lon="7.73706">
        <ele>210</ele>
        <time>2022-05-23T14:07:46Z</time>
      </trkpt>
      <trkpt lat="47.99879" lon="7.73693">
        <ele>209</ele>
        <time>2022-05-23T14:07:47Z</time>
      </trkpt>
      <trkpt lat="47.99888" lon="7.73719">
        <ele>208</ele>
        <time>2022-05-23T14:07:51Z</time>
      </trkpt>
      <trkpt lat="47.99887" lon="7.73736">
        <ele>209</ele>
        <time>2022-05-23T14:07:53Z</time>
      </trkpt>
      <trkpt lat="47.99873" lon="7.73808">
        <ele>213</ele>
        <time>2022-05-23T14:08:02Z</time>
      </trkpt>
      <trkpt lat="47.9986" lon="7.73896">
        <ele>215</ele>
        <time>2022-05-23T14:08:13Z</time>
      </trkpt>
      <trkpt lat="47.99828" lon="7.74031">
        <ele>215</ele>
        <time>2022-05-23T14:08:30Z</time>
      </trkpt>
      <trkpt lat="47.99803" lon="7.74111">
        <ele>214</ele>
        <time>2022-05-23T14:08:40Z</time>
      </trkpt>
      <trkpt lat="47.99787" lon="7.74209">
        <ele>213</ele>
        <time>2022-05-23T14:08:52Z</time>
      </trkpt>
      <trkpt lat="47.99763" lon="7.74301">
        <ele>213</ele>
        <time>2022-05-23T14:09:04Z</time>
      </trkpt>
      <trkpt lat="47.99756" lon="7.74364">
        <ele>215</ele>
        <time>2022-05-23T14:09:12Z</time>
      </trkpt>
      <trkpt lat="47.99756" lon="7.74474">
        <ele>219</ele>
        <time>2022-05-23T14:09:25Z</time>
      </trkpt>
      <trkpt lat="47.99774" lon="7.74564">
        <ele>219</ele>
        <time>2022-05-23T14:09:36Z</time>
      </trkpt>
      <trkpt lat="47.99778" lon="7.74655">
        <ele>220</ele>
        <time>2022-05-23T14:09:47Z</time>
      </trkpt>
      <trkpt lat="47.99776" lon="7.74726">
        <ele>221</ele>
        <time>2022-05-23T14:09:55Z</time>
      </trkpt>
      <trkpt lat="47.99778" lon="7.74782">
        <ele>221</ele>
        <time>2022-05-23T14:10:02Z</time>
      </trkpt>
      <trkpt lat="47.99785" lon="7.74867">
        <ele>220</ele>
        <time>2022-05-23T14:10:12Z</time>
      </trkpt>
      <trkpt lat="47.99787" lon="7.75012">
        <ele>219</ele>
        <time>2022-05-23T14:10:29Z</time>
      </trkpt>
      <trkpt lat="47.99793" lon="7.75092">
        <ele>217</ele>
        <time>2022-05-23T14:10:39Z</time>
      </trkpt>
      <trkpt lat="47.99794" lon="7.75171">
        <ele>218</ele>
        <time>2022-05-23T14:10:48Z</time>
      </trkpt>
      <trkpt lat="47.99801" lon="7.75285">
        <ele>219</ele>
        <time>2022-05-23T14:11:02Z</time>
      </trkpt>
      <trkpt lat="47.99803" lon="7.75499">
        <ele>219</ele>
        <time>2022-05-23T14:11:27Z</time>
      </trkpt>
      <trkpt lat="47.99808" lon="7.75575">
        <ele>221</ele>
        <time>2022-05-23T14:11:37Z</time>
      </trkpt>
      <trkpt lat="47.99817" lon="7.75643">
        <ele>222</ele>
        <time>2022-05-23T14:11:45Z</time>
      </trkpt>
      <trkpt lat="47.99834" lon="7.7572">
        <ele>222</ele>
        <time>2022-05-23T14:11:54Z</time>
      </trkpt>
      <trkpt lat="47.99862" lon="7.75811">
        <ele>222</ele>
        <time>2022-05-23T14:12:06Z</time>
      </trkpt>
      <trkpt lat="47.99899" lon="7.75914">
        <ele>221</ele>
        <time>2022-05-23T14:12:20Z</time>
      </trkpt>
      <trkpt lat="47.99917" lon="7.75976">
        <ele>220</ele>
        <time>2022-05-23T14:12:28Z</time>
      </trkpt>
      <trkpt lat="47.99935" lon="7.76053">
        <ele>222</ele>
        <time>2022-05-23T14:12:38Z</time>
      </trkpt>
      <trkpt lat="47.9994" lon="7.76098">
        <ele>224</ele>
        <time>2022-05-23T14:12:43Z</time>
      </trkpt>
      <trkpt lat="47.99942" lon="7.76155">
        <ele>227</ele>
        <time>2022-05-23T14:12:50Z</time>
      </trkpt>
      <trkpt lat="47.99939" lon="7.76245">
        <ele>230</ele>
        <time>2022-05-23T14:13:01Z</time>
      </trkpt>
      <trkpt lat="47.99937" lon="7.76275">
        <ele>230</ele>
        <time>2022-05-23T14:13:05Z</time>
      </trkpt>
      <trkpt lat="47.9993" lon="7.76315">
        <ele>229</ele>
        <time>2022-05-23T14:13:10Z</time>
      </trkpt>
      <trkpt lat="47.99928" lon="7.76354">
        <ele>228</ele>
        <time>2022-05-23T14:13:14Z</time>
      </trkpt>
      <trkpt lat="47.99922" lon="7.7638">
        <ele>228</ele>
        <time>2022-05-23T14:13:17Z</time>
      </trkpt>
      <trkpt lat="47.99908" lon="7.7642">
        <ele>227</ele>
        <time>2022-05-23T14:13:23Z</time>
      </trkpt>
      <trkpt lat="47.99889" lon="7.76465">
        <ele>228</ele>
        <time>2022-05-23T14:13:29Z</time>
      </trkpt>
      <trkpt lat="47.99793" lon="7.76604">
        <ele>229</ele>
        <time>2022-05-23T14:13:53Z</time>
      </trkpt>
      <trkpt lat="47.99776" lon="7.76632">
        <ele>228</ele>
        <time>2022-05-23T14:13:57Z</time>
      </trkpt>
      <trkpt lat="47.99748" lon="7.76694">
        <ele>227</ele>
        <time>2022-05-23T14:14:06Z</time>
      </trkpt>
      <trkpt lat="47.99726" lon="7.76762">
        <ele>228</ele>
        <time>2022-05-23T14:14:15Z</time>
      </trkpt>
      <trkpt lat="47.99714" lon="7.7683">
        <ele>229</ele>
        <time>2022-05-23T14:14:24Z</time>
      </trkpt>
      <trkpt lat="47.99699" lon="7.76882">
        <ele>229</ele>
        <time>2022-05-23T14:14:30Z</time>
      </trkpt>
      <trkpt lat="47.99635" lon="7.7705">
        <ele>228</ele>
        <time>2022-05-23T14:14:53Z</time>
      </trkpt>
      <trkpt lat="47.99629" lon="7.77061">
        <ele>228</ele>
        <time>2022-05-23T14:14:55Z</time>
      </trkpt>
      <trkpt lat="47.9961" lon="7.77119">
        <ele>229</ele>
        <time>2022-05-23T14:15:03Z</time>
      </trkpt>
      <trkpt lat="47.99569" lon="7.77214">
        <ele>230</ele>
        <time>2022-05-23T14:15:16Z</time>
      </trkpt>
      <trkpt lat="47.99549" lon="7.77268">
        <ele>231</ele>
        <time>2022-05-23T14:15:24Z</time>
      </trkpt>
      <trkpt lat="47.99542" lon="7.77294">
        <ele>230</ele>
        <time>2022-05-23T14:15:27Z</time>
      </trkpt>
      <trkpt lat="47.99516" lon="7.7736">
        <ele>230</ele>
        <time>2022-05-23T14:15:36Z</time>
      </trkpt>
      <trkpt lat="47.99487" lon="7.77489">
        <ele>231</ele>
        <time>2022-05-23T14:15:52Z</time>
      </trkpt>
      <trkpt lat="47.99484" lon="7.77538">
        <ele>232</ele>
        <time>2022-05-23T14:15:58Z</time>
      </trkpt>
      <trkpt lat="47.99493" lon="7.77659">
        <ele>234</ele>
        <time>2022-05-23T14:16:13Z</time>
      </trkpt>
      <trkpt lat="47.99506" lon="7.77752">
        <ele>234</ele>
        <time>2022-05-23T14:16:24Z</time>
      </trkpt>
      <trkpt lat="47.99522" lon="7.77917">
        <ele>233</ele>
        <time>2022-05-23T14:16:44Z</time>
      </trkpt>
      <trkpt lat="47.99518" lon="7.77983">
        <ele>232</ele>
        <time>2022-05-23T14:16:52Z</time>
      </trkpt>
      <trkpt lat="47.99505" lon="7.78057">
        <ele>234</ele>
        <time>2022-05-23T14:17:01Z</time>
      </trkpt>
      <trkpt lat="47.995" lon="7.78163">
        <ele>232</ele>
        <time>2022-05-23T14:17:13Z</time>
      </trkpt>
      <trkpt lat="47.99502" lon="7.78194">
        <ele>233</ele>
        <time>2022-05-23T14:17:17Z</time>
      </trkpt>
      <trkpt lat="47.995" lon="7.78248">
        <ele>234</ele>
        <time>2022-05-23T14:17:24Z</time>
      </trkpt>
      <trkpt lat="47.99503" lon="7.78293">
        <ele>234</ele>
        <time>2022-05-23T14:17:29Z</time>
      </trkpt>
      <trkpt lat="47.99503" lon="7.78569">
        <ele>234</ele>
        <time>2022-05-23T14:18:02Z</time>
      </trkpt>
      <trkpt lat="47.99507" lon="7.78697">
        <ele>233</ele>
        <time>2022-05-23T14:18:17Z</time>
      </trkpt>
      <trkpt lat="47.99504" lon="7.78857">
        <ele>233</ele>
        <time>2022-05-23T14:18:36Z</time>
      </trkpt>
      <trkpt lat="47.99495" lon="7.78886">
        <ele>233</ele>
        <time>2022-05-23T14:18:40Z</time>
      </trkpt>
      <trkpt lat="47.99497" lon="7.78901">
        <ele>233</ele>
        <time>2022-05-23T14:18:42Z</time>
      </trkpt>
      <trkpt lat="47.99502" lon="7.78914">
        <ele>233</ele>
        <time>2022-05-23T14:18:44Z</time>
      </trkpt>
      <trkpt lat="47.99503" lon="7.78928">
        <ele>233</ele>
        <time>2022-05-23T14:18:45Z</time>
      </trkpt>
      <trkpt lat="47.99502" lon="7.78973">
        <ele>234</ele>
        <time>2022-05-23T14:18:51Z</time>
      </trkpt>
      <trkpt lat="47.99506" lon="7.79056">
        <ele>234</ele>
        <time>2022-05-23T14:19:01Z</time>
      </trkpt>
      <trkpt lat="47.99506" lon="7.79124">
        <ele>236</ele>
        <time>2022-05-23T14:19:09Z</time>
      </trkpt>
      <trkpt lat="47.99502" lon="7.79189">
        <ele>237</ele>
        <time>2022-05-23T14:19:16Z</time>
      </trkpt>
      <trkpt lat="47.99504" lon="7.79236">
        <ele>236</ele>
        <time>2022-05-23T14:19:22Z</time>
      </trkpt>
      <trkpt lat="47.99502" lon="7.79318">
        <ele>237</ele>
        <time>2022-05-23T14:19:32Z</time>
      </trkpt>
      <trkpt lat="47.99504" lon="7.79363">
        <ele>237</ele>
        <time>2022-05-23T14:19:37Z</time>
      </trkpt>
      <trkpt lat="47.99502" lon="7.79385">
        <ele>236</ele>
        <time>2022-05-23T14:19:40Z</time>
      </trkpt>
      <trkpt lat="47.99514" lon="7.79555">
        <ele>239</ele>
        <time>2022-05-23T14:20:00Z</time>
      </trkpt>
      <trkpt lat="47.99517" lon="7.79697">
        <ele>239</ele>
        <time>2022-05-23T14:20:17Z</time>
      </trkpt>
      <trkpt lat="47.99515" lon="7.79834">
        <ele>237</ele>
        <time>2022-05-23T14:20:33Z</time>
      </trkpt>
      <trkpt lat="47.99512" lon="7.79848">
        <ele>237</ele>
        <time>2022-05-23T14:20:35Z</time>
      </trkpt>
      <trkpt lat="47.99515" lon="7.79864">
        <ele>238</ele>
        <time>2022-05-23T14:20:37Z</time>
      </trkpt>
      <trkpt lat="47.99509" lon="7.79961">
        <ele>239</ele>
        <time>2022-05-23T14:20:49Z</time>
      </trkpt>
      <trkpt lat="47.99509" lon="7.79994">
        <ele>240</ele>
        <time>2022-05-23T14:20:53Z</time>
      </trkpt>
      <trkpt lat="47.99505" lon="7.80026">
        <ele>241</ele>
        <time>2022-05-23T14:20:57Z</time>
      </trkpt>
      <trkpt lat="47.99497" lon="7.80051">
        <ele>242</ele>
        <time>2022-05-23T14:21:00Z</time>
      </trkpt>
      <trkpt lat="47.99497" lon="7.80079">
        <ele>243</ele>
        <time>2022-05-23T14:21:03Z</time>
      </trkpt>
      <trkpt lat="47.99485" lon="7.80155">
        <ele>242</ele>
        <time>2022-05-23T14:21:12Z</time>
      </trkpt>
      <trkpt lat="47.99468" lon="7.80231">
        <ele>242</ele>
        <time>2022-05-23T14:21:22Z</time>
      </trkpt>
      <trkpt lat="47.99461" lon="7.80261">
        <ele>242</ele>
        <time>2022-05-23T14:21:26Z</time>
      </trkpt>
      <trkpt lat="47.99403" lon="7.80453">
        <ele>244</ele>
        <time>2022-05-23T14:21:51Z</time>
      </trkpt>
      <trkpt lat="47.99385" lon="7.80521">
        <ele>244</ele>
        <time>2022-05-23T14:22:00Z</time>
      </trkpt>
      <trkpt lat="47.99359" lon="7.80628">
        <ele>244</ele>
        <time>2022-05-23T14:22:13Z</time>
      </trkpt>
      <trkpt lat="47.99317" lon="7.80842">
        <ele>248</ele>
        <time>2022-05-23T14:22:40Z</time>
      </trkpt>
      <trkpt lat="47.99292" lon="7.80935">
        <ele>249</ele>
        <time>2022-05-23T14:22:52Z</time>
      </trkpt>
      <trkpt lat="47.99286" lon="7.80983">
        <ele>250</ele>
        <time>2022-05-23T14:22:57Z</time>
      </trkpt>
      <trkpt lat="47.99287" lon="7.81027">
        <ele>252</ele>
        <time>2022-05-23T14:23:03Z</time>
      </trkpt>
      <trkpt lat="47.99283" lon="7.81073">
        <ele>252</ele>
        <time>2022-05-23T14:23:08Z</time>
      </trkpt>
      <trkpt lat="47.99259" lon="7.81151">
        <ele>254</ele>
        <time>2022-05-23T14:23:18Z</time>
      </trkpt>
      <trkpt lat="47.99247" lon="7.81213">
        <ele>255</ele>
        <time>2022-05-23T14:23:26Z</time>
      </trkpt>
      <trkpt lat="47.99214" lon="7.81292">
        <ele>255</ele>
        <time>2022-05-23T14:23:37Z</time>
      </trkpt>
      <trkpt lat="47.99143" lon="7.81534">
        <ele>253</ele>
        <time>2022-05-23T14:24:09Z</time>
      </trkpt>
      <trkpt lat="47.99145" lon="7.81547">
        <ele>253</ele>
        <time>2022-05-23T14:24:10Z</time>
      </trkpt>
      <trkpt lat="47.99151" lon="7.81559">
        <ele>253</ele>
        <time>2022-05-23T14:24:12Z</time>
      </trkpt>
      <trkpt lat="47.99154" lon="7.81572">
        <ele>253</ele>
        <time>2022-05-23T14:24:14Z</time>
      </trkpt>
      <trkpt lat="47.9917" lon="7.81589">
        <ele>253</ele>
        <time>2022-05-23T14:24:17Z</time>
      </trkpt>
      <trkpt lat="47.99192" lon="7.81633">
        <ele>253</ele>
        <time>2022-05-23T14:24:24Z</time>
      </trkpt>
      <trkpt lat="47.99201" lon="7.81638">
        <ele>253</ele>
        <time>2022-05-23T14:24:25Z</time>
      </trkpt>
      <trkpt lat="47.99226" lon="7.81668">
        <ele>253</ele>
        <time>2022-05-23T14:24:31Z</time>
      </trkpt>
      <trkpt lat="47.99243" lon="7.81684">
        <ele>253</ele>
        <time>2022-05-23T14:24:35Z</time>
      </trkpt>
      <trkpt lat="47.99282" lon="7.81738">
        <ele>252</ele>
        <time>2022-05-23T14:24:44Z</time>
      </trkpt>
      <trkpt lat="47.99289" lon="7.81751">
        <ele>252</ele>
        <time>2022-05-23T14:24:46Z</time>
      </trkpt>
      <trkpt lat="47.99299" lon="7.8178">
        <ele>252</ele>
        <time>2022-05-23T14:24:50Z</time>
      </trkpt>
      <trkpt lat="47.99298" lon="7.81794">
        <ele>252</ele>
        <time>2022-05-23T14:24:52Z</time>
      </trkpt>
      <trkpt lat="47.99287" lon="7.81828">
        <ele>252</ele>
        <time>2022-05-23T14:24:56Z</time>
      </trkpt>
      <trkpt lat="47.99242" lon="7.81927">
        <ele>253</ele>
        <time>2022-05-23T14:25:10Z</time>
      </trkpt>
      <trkpt lat="47.99196" lon="7.82015">
        <ele>255</ele>
        <time>2022-05-23T14:25:24Z</time>
      </trkpt>
      <trkpt lat="47.99157" lon="7.82082">
        <ele>255</ele>
        <time>2022-05-23T14:25:34Z</time>
      </trkpt>
      <trkpt lat="47.99143" lon="7.82138">
        <ele>256</ele>
        <time>2022-05-23T14:25:41Z</time>
      </trkpt>
      <trkpt lat="47.99138" lon="7.8217">
        <ele>255</ele>
        <time>2022-05-23T14:25:45Z</time>
      </trkpt>
      <trkpt lat="47.99115" lon="7.82235">
        <ele>257</ele>
        <time>2022-05-23T14:25:54Z</time>
      </trkpt>
      <trkpt lat="47.99104" lon="7.8226">
        <ele>258</ele>
        <time>2022-05-23T14:25:58Z</time>
      </trkpt>
      <trkpt lat="47.99096" lon="7.8227">
        <ele>258</ele>
        <time>2022-05-23T14:26:00Z</time>
      </trkpt>
      <trkpt lat="47.99083" lon="7.82294">
        <ele>259</ele>
        <time>2022-05-23T14:26:03Z</time>
      </trkpt>
      <trkpt lat="47.9906" lon="7.82348">
        <ele>260</ele>
        <time>2022-05-23T14:26:11Z</time>
      </trkpt>
      <trkpt lat="47.99061" lon="7.82362">
        <ele>260</ele>
        <time>2022-05-23T14:26:12Z</time>
      </trkpt>
      <trkpt lat="47.99066" lon="7.82378">
        <ele>261</ele>
        <time>2022-05-23T14:26:15Z</time>
      </trkpt>
      <trkpt lat="47.99073" lon="7.8239">
        <ele>261</ele>
        <time>2022-05-23T14:26:16Z</time>
      </trkpt>
      <trkpt lat="47.99073" lon="7.8245">
        <ele>261</ele>
        <time>2022-05-23T14:26:24Z</time>
      </trkpt>
      <trkpt lat="47.99082" lon="7.82476">
        <ele>260</ele>
        <time>2022-05-23T14:26:27Z</time>
      </trkpt>
      <trkpt lat="47.99072" lon="7.82473">
        <ele>260</ele>
        <time>2022-05-23T14:26:29Z</time>
      </trkpt>
      <trkpt lat="47.99067" lon="7.82462">
        <ele>260</ele>
        <time>2022-05-23T14:26:31Z</time>
      </trkpt>
      <trkpt lat="47.99065" lon="7.82447">
        <ele>261</ele>
        <time>2022-05-23T14:26:32Z</time>
      </trkpt>
      <trkpt lat="47.99073" lon="7.82374">
        <ele>261</ele>
        <time>2022-05-23T14:26:41Z</time>
      </trkpt>
      <trkpt lat="47.99062" lon="7.82367">
        <ele>260</ele>
        <time>2022-05-23T14:26:43Z</time>
      </trkpt>
      <trkpt lat="47.9906" lon="7.82351">
        <ele>260</ele>
        <time>2022-05-23T14:26:45Z</time>
      </trkpt>
      <trkpt lat="47.99081" lon="7.82295">
        <ele>259</ele>
        <time>2022-05-23T14:26:53Z</time>
      </trkpt>
      <trkpt lat="47.99102" lon="7.82262">
        <ele>258</ele>
        <time>2022-05-23T14:26:58Z</time>
      </trkpt>
      <trkpt lat="47.99117" lon="7.82232">
        <ele>257</ele>
        <time>2022-05-23T14:27:03Z</time>
      </trkpt>
      <trkpt lat="47.99132" lon="7.82183">
        <ele>256</ele>
        <time>2022-05-23T14:27:09Z</time>
      </trkpt>
      <trkpt lat="47.9914" lon="7.82131">
        <ele>256</ele>
        <time>2022-05-23T14:27:16Z</time>
      </trkpt>
      <trkpt lat="47.99151" lon="7.82107">
        <ele>256</ele>
        <time>2022-05-23T14:27:19Z</time>
      </trkpt>
      <trkpt lat="47.9916" lon="7.82103">
        <ele>255</ele>
        <time>2022-05-23T14:27:21Z</time>
      </trkpt>
      <trkpt lat="47.99187" lon="7.8212">
        <ele>255</ele>
        <time>2022-05-23T14:27:26Z</time>
      </trkpt>
      <trkpt lat="47.99196" lon="7.82129">
        <ele>255</ele>
        <time>2022-05-23T14:27:28Z</time>
      </trkpt>
      <trkpt lat="47.99227" lon="7.82144">
        <ele>255</ele>
        <time>2022-05-23T14:27:34Z</time>
      </trkpt>
      <trkpt lat="47.99247" lon="7.82158">
        <ele>255</ele>
        <time>2022-05-23T14:27:38Z</time>
      </trkpt>
      <trkpt lat="47.99297" lon="7.82183">
        <ele>256</ele>
        <time>2022-05-23T14:27:47Z</time>
      </trkpt>
      <trkpt lat="47.99349" lon="7.82202">
        <ele>256</ele>
        <time>2022-05-23T14:27:56Z</time>
      </trkpt>
      <trkpt lat="47.99369" lon="7.82206">
        <ele>256</ele>
        <time>2022-05-23T14:28:00Z</time>
      </trkpt>
      <trkpt lat="47.99371" lon="7.82221">
        <ele>257</ele>
        <time>2022-05-23T14:28:02Z</time>
      </trkpt>
      <trkpt lat="47.99357" lon="7.82301">
        <ele>257</ele>
        <time>2022-05-23T14:28:12Z</time>
      </trkpt>
      <trkpt lat="47.99343" lon="7.82343">
        <ele>256</ele>
        <time>2022-05-23T14:28:17Z</time>
      </trkpt>
      <trkpt lat="47.99331" lon="7.82406">
        <ele>257</ele>
        <time>2022-05-23T14:28:25Z</time>
      </trkpt>
      <trkpt lat="47.99312" lon="7.82467">
        <ele>256</ele>
        <time>2022-05-23T14:28:33Z</time>
      </trkpt>
      <trkpt lat="47.9927" lon="7.82551">
        <ele>256</ele>
        <time>2022-05-23T14:28:46Z</time>
      </trkpt>
      <trkpt lat="47.99211" lon="7.8265">
        <ele>256</ele>
        <time>2022-05-23T14:29:01Z</time>
      </trkpt>
      <trkpt lat="47.99181" lon="7.82716">
        <ele>255</ele>
        <time>2022-05-23T14:29:11Z</time>
      </trkpt>
      <trkpt lat="47.99156" lon="7.82786">
        <ele>256</ele>
        <time>2022-05-23T14:29:20Z</time>
      </trkpt>
      <trkpt lat="47.99121" lon="7.82873">
        <ele>258</ele>
        <time>2022-05-23T14:29:32Z</time>
      </trkpt>
      <trkpt lat="47.99094" lon="7.82989">
        <ele>261</ele>
        <time>2022-05-23T14:29:47Z</time>
      </trkpt>
      <trkpt lat="47.99081" lon="7.83029">
        <ele>261</ele>
        <time>2022-05-23T14:29:52Z</time>
      </trkpt>
      <trkpt lat="47.99132" lon="7.83066">
        <ele>261</ele>
        <time>2022-05-23T14:30:02Z</time>
      </trkpt>
      <trkpt lat="47.99156" lon="7.83089">
        <ele>262</ele>
        <time>2022-05-23T14:30:07Z</time>
      </trkpt>
      <trkpt lat="47.99216" lon="7.83128">
        <ele>262</ele>
        <time>2022-05-23T14:30:19Z</time>
      </trkpt>
      <trkpt lat="47.99224" lon="7.83123">
        <ele>262</ele>
        <time>2022-05-23T14:30:21Z</time>
      </trkpt>
      <trkpt lat="47.99215" lon="7.83127">
        <ele>262</ele>
        <time>2022-05-23T14:30:22Z</time>
      </trkpt>
      <trkpt lat="47.99216" lon="7.83098">
        <ele>262</ele>
        <time>2022-05-23T14:30:26Z</time>
      </trkpt>
      <trkpt lat="47.99219" lon="7.83085">
        <ele>263</ele>
        <time>2022-05-23T14:30:27Z</time>
      </trkpt>
      <trkpt lat="47.99236" lon="7.8307">
        <ele>263</ele>
        <time>2022-05-23T14:30:31Z</time>
      </trkpt>
      <trkpt lat="47.99241" lon="7.83055">
        <ele>262</ele>
        <time>2022-05-23T14:30:33Z</time>
      </trkpt>
      <trkpt lat="47.99247" lon="7.8301">
        <ele>261</ele>
        <time>2022-05-23T14:30:38Z</time>
      </trkpt>
      <trkpt lat="47.99255" lon="7.83005">
        <ele>261</ele>
        <time>2022-05-23T14:30:40Z</time>
      </trkpt>
      <trkpt lat="47.99263" lon="7.83012">
        <ele>262</ele>
        <time>2022-05-23T14:30:42Z</time>
      </trkpt>
      <trkpt lat="47.99255" lon="7.83002">
        <ele>261</ele>
        <time>2022-05-23T14:30:43Z</time>
      </trkpt>
      <trkpt lat="47.99232" lon="7.82995">
        <ele>261</ele>
        <time>2022-05-23T14:30:48Z</time>
      </trkpt>
      <trkpt lat="47.99223" lon="7.8299">
        <ele>261</ele>
        <time>2022-05-23T14:30:49Z</time>
      </trkpt>
      <trkpt lat="47.99212" lon="7.82988">
        <ele>261</ele>
        <time>2022-05-23T14:30:51Z</time>
      </trkpt>
      <trkpt lat="47.99204" lon="7.82982">
        <ele>261</ele>
        <time>2022-05-23T14:30:53Z</time>
      </trkpt>
      <trkpt lat="47.99214" lon="7.82981">
        <ele>261</ele>
        <time>2022-05-23T14:30:55Z</time>
      </trkpt>
      <trkpt lat="47.9924" lon="7.83005">
        <ele>261</ele>
        <time>2022-05-23T14:31:00Z</time>
      </trkpt>
      <trkpt lat="47.99246" lon="7.83021">
        <ele>261</ele>
        <time>2022-05-23T14:31:02Z</time>
      </trkpt>
      <trkpt lat="47.99244" lon="7.83052">
        <ele>262</ele>
        <time>2022-05-23T14:31:06Z</time>
      </trkpt>
      <trkpt lat="47.99249" lon="7.83067">
        <ele>263</ele>
        <time>2022-05-23T14:31:08Z</time>
      </trkpt>
      <trkpt lat="47.9927" lon="7.83084">
        <ele>263</ele>
        <time>2022-05-23T14:31:12Z</time>
      </trkpt>
      <trkpt lat="47.99292" lon="7.83113">
        <ele>263</ele>
        <time>2022-05-23T14:31:17Z</time>
      </trkpt>
      <trkpt lat="47.99297" lon="7.83123">
        <ele>263</ele>
        <time>2022-05-23T14:31:19Z</time>
      </trkpt>
      <trkpt lat="47.99302" lon="7.83137">
        <ele>262</ele>
        <time>2022-05-23T14:31:21Z</time>
      </trkpt>
      <trkpt lat="47.99295" lon="7.83183">
        <ele>261</ele>
        <time>2022-05-23T14:31:26Z</time>
      </trkpt>
      <trkpt lat="47.9929" lon="7.83196">
        <ele>262</ele>
        <time>2022-05-23T14:31:28Z</time>
      </trkpt>
      <trkpt lat="47.99298" lon="7.83211">
        <ele>261</ele>
        <time>2022-05-23T14:31:31Z</time>
      </trkpt>
      <trkpt lat="47.9934" lon="7.83241">
        <ele>261</ele>
        <time>2022-05-23T14:31:39Z</time>
      </trkpt>
      <trkpt lat="47.99373" lon="7.8326">
        <ele>262</ele>
        <time>2022-05-23T14:31:45Z</time>
      </trkpt>
      <trkpt lat="47.99407" lon="7.83286">
        <ele>263</ele>
        <time>2022-05-23T14:31:52Z</time>
      </trkpt>
      <trkpt lat="47.99441" lon="7.83323">
        <ele>265</ele>
        <time>2022-05-23T14:31:59Z</time>
      </trkpt>
      <trkpt lat="47.99469" lon="7.83335">
        <ele>266</ele>
        <time>2022-05-23T14:32:05Z</time>
      </trkpt>
      <trkpt lat="47.99476" lon="7.83347">
        <ele>265</ele>
        <time>2022-05-23T14:32:06Z</time>
      </trkpt>
      <trkpt lat="47.99494" lon="7.83366">
        <ele>265</ele>
        <time>2022-05-23T14:32:10Z</time>
      </trkpt>
      <trkpt lat="47.99535" lon="7.83389">
        <ele>266</ele>
        <time>2022-05-23T14:32:18Z</time>
      </trkpt>
      <trkpt lat="47.99566" lon="7.8341">
        <ele>267</ele>
        <time>2022-05-23T14:32:24Z</time>
      </trkpt>
      <trkpt lat="47.99587" lon="7.8342">
        <ele>268</ele>
        <time>2022-05-23T14:32:28Z</time>
      </trkpt>
      <trkpt lat="47.99593" lon="7.83433">
        <ele>268</ele>
        <time>2022-05-23T14:32:30Z</time>
      </trkpt>
      <trkpt lat="47.99593" lon="7.83447">
        <ele>268</ele>
        <time>2022-05-23T14:32:32Z</time>
      </trkpt>
      <trkpt lat="47.99588" lon="7.8346">
        <ele>268</ele>
        <time>2022-05-23T14:32:33Z</time>
      </trkpt>
      <trkpt lat="47.99579" lon="7.83464">
        <ele>267</ele>
        <time>2022-05-23T14:32:35Z</time>
      </trkpt>
      <trkpt lat="47.99582" lon="7.83478">
        <ele>267</ele>
        <time>2022-05-23T14:32:37Z</time>
      </trkpt>
      <trkpt lat="47.99581" lon="7.83492">
        <ele>267</ele>
        <time>2022-05-23T14:32:39Z</time>
      </trkpt>
      <trkpt lat="47.99584" lon="7.83478">
        <ele>267</ele>
        <time>2022-05-23T14:32:40Z</time>
      </trkpt>
      <trkpt lat="47.9959" lon="7.83467">
        <ele>267</ele>
        <time>2022-05-23T14:32:42Z</time>
      </trkpt>
      <trkpt lat="47.99576" lon="7.83485">
        <ele>267</ele>
        <time>2022-05-23T14:32:45Z</time>
      </trkpt>
      <trkpt lat="47.99548" lon="7.83541">
        <ele>266</ele>
        <time>2022-05-23T14:32:54Z</time>
      </trkpt>
      <trkpt lat="47.99564" lon="7.83522">
        <ele>266</ele>
        <time>2022-05-23T14:32:57Z</time>
      </trkpt>
      <trkpt lat="47.99571" lon="7.83495">
        <ele>266</ele>
        <time>2022-05-23T14:33:01Z</time>
      </trkpt>
      <trkpt lat="47.99562" lon="7.83522">
        <ele>266</ele>
        <time>2022-05-23T14:33:04Z</time>
      </trkpt>
      <trkpt lat="47.99555" lon="7.83534">
        <ele>266</ele>
        <time>2022-05-23T14:33:06Z</time>
      </trkpt>
      <trkpt lat="47.99548" lon="7.8356">
        <ele>267</ele>
        <time>2022-05-23T14:33:10Z</time>
      </trkpt>
      <trkpt lat="47.99539" lon="7.83553">
        <ele>266</ele>
        <time>2022-05-23T14:33:11Z</time>
      </trkpt>
      <trkpt lat="47.99532" lon="7.83543">
        <ele>266</ele>
        <time>2022-05-23T14:33:13Z</time>
      </trkpt>
      <trkpt lat="47.99514" lon="7.83532">
        <ele>265</ele>
        <time>2022-05-23T14:33:17Z</time>
      </trkpt>
      <trkpt lat="47.99506" lon="7.83538">
        <ele>265</ele>
        <time>2022-05-23T14:33:18Z</time>
      </trkpt>
      <trkpt lat="47.99497" lon="7.83531">
        <ele>264</ele>
        <time>2022-05-23T14:33:20Z</time>
      </trkpt>
      <trkpt lat="47.99513" lon="7.83507">
        <ele>263</ele>
        <time>2022-05-23T14:33:24Z</time>
      </trkpt>
      <trkpt lat="47.99513" lon="7.83521">
        <ele>264</ele>
        <time>2022-05-23T14:33:26Z</time>
      </trkpt>
      <trkpt lat="47.99513" lon="7.83506">
        <ele>263</ele>
        <time>2022-05-23T14:33:27Z</time>
      </trkpt>
      <trkpt lat="47.99522" lon="7.83513">
        <ele>264</ele>
        <time>2022-05-23T14:33:29Z</time>
      </trkpt>
      <trkpt lat="47.99527" lon="7.83526">
        <ele>265</ele>
        <time>2022-05-23T14:33:31Z</time>
      </trkpt>
      <trkpt lat="47.99549" lon="7.83552">
        <ele>267</ele>
        <time>2022-05-23T14:33:36Z</time>
      </trkpt>
      <trkpt lat="47.99557" lon="7.83544">
        <ele>267</ele>
        <time>2022-05-23T14:33:38Z</time>
      </trkpt>
      <trkpt lat="47.99566" lon="7.83518">
        <ele>266</ele>
        <time>2022-05-23T14:33:41Z</time>
      </trkpt>
      <trkpt lat="47.99567" lon="7.83504">
        <ele>266</ele>
        <time>2022-05-23T14:33:43Z</time>
      </trkpt>
      <trkpt lat="47.9958" lon="7.8348">
        <ele>267</ele>
        <time>2022-05-23T14:33:47Z</time>
      </trkpt>
      <trkpt lat="47.99589" lon="7.83474">
        <ele>267</ele>
        <time>2022-05-23T14:33:48Z</time>
      </trkpt>
      <trkpt lat="47.99591" lon="7.8346">
        <ele>268</ele>
        <time>2022-05-23T14:33:50Z</time>
      </trkpt>
      <trkpt lat="47.99596" lon="7.83449">
        <ele>268</ele>
        <time>2022-05-23T14:33:52Z</time>
      </trkpt>
      <trkpt lat="47.99596" lon="7.83435">
        <ele>268</ele>
        <time>2022-05-23T14:33:53Z</time>
      </trkpt>
      <trkpt lat="47.9959" lon="7.83422">
        <ele>268</ele>
        <time>2022-05-23T14:33:55Z</time>
      </trkpt>
      <trkpt lat="47.99569" lon="7.83397">
        <ele>267</ele>
        <time>2022-05-23T14:34:00Z</time>
      </trkpt>
      <trkpt lat="47.99561" lon="7.83416">
        <ele>267</ele>
        <time>2022-05-23T14:34:03Z</time>
      </trkpt>
      <trkpt lat="47.99568" lon="7.83396">
        <ele>267</ele>
        <time>2022-05-23T14:34:05Z</time>
      </trkpt>
      <trkpt lat="47.99561" lon="7.83404">
        <ele>267</ele>
        <time>2022-05-23T14:34:07Z</time>
      </trkpt>
      <trkpt lat="47.99557" lon="7.83392">
        <ele>267</ele>
        <time>2022-05-23T14:34:08Z</time>
      </trkpt>
      <trkpt lat="47.99567" lon="7.8339">
        <ele>267</ele>
        <time>2022-05-23T14:34:10Z</time>
      </trkpt>
      <trkpt lat="47.99211" lon="7.82917">
        <ele>259</ele>
        <time>2022-05-23T14:35:35Z</time>
      </trkpt>
      <trkpt lat="47.99199" lon="7.82958">
        <ele>260</ele>
        <time>2022-05-23T14:35:40Z</time>
      </trkpt>
      <trkpt lat="47.99204" lon="7.82971">
        <ele>260</ele>
        <time>2022-05-23T14:35:42Z</time>
      </trkpt>
      <trkpt lat="47.99211" lon="7.82982">
        <ele>261</ele>
        <time>2022-05-23T14:35:44Z</time>
      </trkpt>
      <trkpt lat="47.9923" lon="7.82995">
        <ele>261</ele>
        <time>2022-05-23T14:35:48Z</time>
      </trkpt>
      <trkpt lat="47.99246" lon="7.83013">
        <ele>261</ele>
        <time>2022-05-23T14:35:51Z</time>
      </trkpt>
      <trkpt lat="47.9924" lon="7.83044">
        <ele>262</ele>
        <time>2022-05-23T14:35:55Z</time>
      </trkpt>
      <trkpt lat="47.99244" lon="7.8306">
        <ele>262</ele>
        <time>2022-05-23T14:35:57Z</time>
      </trkpt>
      <trkpt lat="47.99251" lon="7.83071">
        <ele>263</ele>
        <time>2022-05-23T14:35:59Z</time>
      </trkpt>
      <trkpt lat="47.99263" lon="7.8308">
        <ele>263</ele>
        <time>2022-05-23T14:36:01Z</time>
      </trkpt>
      <trkpt lat="47.99297" lon="7.83118">
        <ele>263</ele>
        <time>2022-05-23T14:36:09Z</time>
      </trkpt>
      <trkpt lat="47.99305" lon="7.83142">
        <ele>262</ele>
        <time>2022-05-23T14:36:12Z</time>
      </trkpt>
      <trkpt lat="47.99289" lon="7.83182">
        <ele>262</ele>
        <time>2022-05-23T14:36:18Z</time>
      </trkpt>
      <trkpt lat="47.99286" lon="7.83198">
        <ele>262</ele>
        <time>2022-05-23T14:36:20Z</time>
      </trkpt>
      <trkpt lat="47.99296" lon="7.83209">
        <ele>261</ele>
        <time>2022-05-23T14:36:22Z</time>
      </trkpt>
      <trkpt lat="47.99349" lon="7.83241">
        <ele>261</ele>
        <time>2022-05-23T14:36:32Z</time>
      </trkpt>
      <trkpt lat="47.99414" lon="7.83291">
        <ele>263</ele>
        <time>2022-05-23T14:36:45Z</time>
      </trkpt>
      <trkpt lat="47.99439" lon="7.83316">
        <ele>265</ele>
        <time>2022-05-23T14:36:50Z</time>
      </trkpt>
      <trkpt lat="47.99451" lon="7.83322">
        <ele>265</ele>
        <time>2022-05-23T14:36:53Z</time>
      </trkpt>
      <trkpt lat="47.99459" lon="7.83329">
        <ele>265</ele>
        <time>2022-05-23T14:36:54Z</time>
      </trkpt>
      <trkpt lat="47.99467" lon="7.83345">
        <ele>265</ele>
        <time>2022-05-23T14:36:57Z</time>
      </trkpt>
      <trkpt lat="47.99477" lon="7.83352">
        <ele>265</ele>
        <time>2022-05-23T14:36:59Z</time>
      </trkpt>
      <trkpt lat="47.99486" lon="7.83365">
        <ele>265</ele>
        <time>2022-05-23T14:37:01Z</time>
      </trkpt>
      <trkpt lat="47.99497" lon="7.83369">
        <ele>265</ele>
        <time>2022-05-23T14:37:03Z</time>
      </trkpt>
      <trkpt lat="47.99547" lon="7.83399">
        <ele>266</ele>
        <time>2022-05-23T14:37:12Z</time>
      </trkpt>
      <trkpt lat="47.99574" lon="7.83421">
        <ele>267</ele>
        <time>2022-05-23T14:37:18Z</time>
      </trkpt>
      <trkpt lat="47.99584" lon="7.83423">
        <ele>268</ele>
        <time>2022-05-23T14:37:20Z</time>
      </trkpt>
      <trkpt lat="47.99588" lon="7.83437">
        <ele>268</ele>
        <time>2022-05-23T14:37:21Z</time>
      </trkpt>
      <trkpt lat="47.99582" lon="7.83467">
        <ele>267</ele>
        <time>2022-05-23T14:37:25Z</time>
      </trkpt>
      <trkpt lat="47.99583" lon="7.8348">
        <ele>267</ele>
        <time>2022-05-23T14:37:27Z</time>
      </trkpt>
      <trkpt lat="47.9958" lon="7.83494">
        <ele>267</ele>
        <time>2022-05-23T14:37:28Z</time>
      </trkpt>
      <trkpt lat="47.99572" lon="7.83501">
        <ele>266</ele>
        <time>2022-05-23T14:37:30Z</time>
      </trkpt>
      <trkpt lat="47.99574" lon="7.83488">
        <ele>267</ele>
        <time>2022-05-23T14:37:32Z</time>
      </trkpt>
      <trkpt lat="47.99585" lon="7.83483">
        <ele>267</ele>
        <time>2022-05-23T14:37:34Z</time>
      </trkpt>
      <trkpt lat="47.99595" lon="7.83458">
        <ele>268</ele>
        <time>2022-05-23T14:37:37Z</time>
      </trkpt>
      <trkpt lat="47.99603" lon="7.83452">
        <ele>268</ele>
        <time>2022-05-23T14:37:39Z</time>
      </trkpt>
      <trkpt lat="47.99612" lon="7.83455">
        <ele>268</ele>
        <time>2022-05-23T14:37:40Z</time>
      </trkpt>
      <trkpt lat="47.99622" lon="7.83465">
        <ele>268</ele>
        <time>2022-05-23T14:37:43Z</time>
      </trkpt>
      <trkpt lat="47.99642" lon="7.83475">
        <ele>268</ele>
        <time>2022-05-23T14:37:46Z</time>
      </trkpt>
      <trkpt lat="47.99665" lon="7.83477">
        <ele>268</ele>
        <time>2022-05-23T14:37:50Z</time>
      </trkpt>
      <trkpt lat="47.99694" lon="7.83484">
        <ele>268</ele>
        <time>2022-05-23T14:37:56Z</time>
      </trkpt>
      <trkpt lat="47.99714" lon="7.83515">
        <ele>268</ele>
        <time>2022-05-23T14:38:01Z</time>
      </trkpt>
      <trkpt lat="47.99723" lon="7.83525">
        <ele>269</ele>
        <time>2022-05-23T14:38:03Z</time>
      </trkpt>
      <trkpt lat="47.99773" lon="7.83558">
        <ele>270</ele>
        <time>2022-05-23T14:38:13Z</time>
      </trkpt>
      <trkpt lat="47.9981" lon="7.83586">
        <ele>269</ele>
        <time>2022-05-23T14:38:20Z</time>
      </trkpt>
      <trkpt lat="47.99831" lon="7.83598">
        <ele>268</ele>
        <time>2022-05-23T14:38:24Z</time>
      </trkpt>
      <trkpt lat="47.99841" lon="7.8359">
        <ele>268</ele>
        <time>2022-05-23T14:38:26Z</time>
      </trkpt>
      <trkpt lat="47.99848" lon="7.83581">
        <ele>268</ele>
        <time>2022-05-23T14:38:28Z</time>
      </trkpt>
      <trkpt lat="47.99854" lon="7.83551">
        <ele>267</ele>
        <time>2022-05-23T14:38:31Z</time>
      </trkpt>
      <trkpt lat="47.99874" lon="7.83498">
        <ele>265</ele>
        <time>2022-05-23T14:38:39Z</time>
      </trkpt>
      <trkpt lat="47.99894" lon="7.83464">
        <ele>265</ele>
        <time>2022-05-23T14:38:44Z</time>
      </trkpt>
      <trkpt lat="47.99929" lon="7.83388">
        <ele>264</ele>
        <time>2022-05-23T14:38:55Z</time>
      </trkpt>
      <trkpt lat="47.99948" lon="7.83339">
        <ele>263</ele>
        <time>2022-05-23T14:39:02Z</time>
      </trkpt>
      <trkpt lat="47.99978" lon="7.83248">
        <ele>262</ele>
        <time>2022-05-23T14:39:14Z</time>
      </trkpt>
      <trkpt lat="47.99985" lon="7.83237">
        <ele>262</ele>
        <time>2022-05-23T14:39:16Z</time>
      </trkpt>
      <trkpt lat="47.99995" lon="7.83231">
        <ele>262</ele>
        <time>2022-05-23T14:39:17Z</time>
      </trkpt>
      <trkpt lat="48.00012" lon="7.83192">
        <ele>261</ele>
        <time>2022-05-23T14:39:23Z</time>
      </trkpt>
      <trkpt lat="48.00021" lon="7.8318">
        <ele>261</ele>
        <time>2022-05-23T14:39:25Z</time>
      </trkpt>
      <trkpt lat="48.00034" lon="7.83153">
        <ele>260</ele>
        <time>2022-05-23T14:39:29Z</time>
      </trkpt>
      <trkpt lat="48.00043" lon="7.83127">
        <ele>260</ele>
        <time>2022-05-23T14:39:33Z</time>
      </trkpt>
      <trkpt lat="48.00052" lon="7.83098">
        <ele>259</ele>
        <time>2022-05-23T14:39:36Z</time>
      </trkpt>
      <trkpt lat="48.00047" lon="7.83085">
        <ele>259</ele>
        <time>2022-05-23T14:39:38Z</time>
      </trkpt>
      <trkpt lat="48.00039" lon="7.83077">
        <ele>259</ele>
        <time>2022-05-23T14:39:40Z</time>
      </trkpt>
      <trkpt lat="48.00042" lon="7.83063">
        <ele>259</ele>
        <time>2022-05-23T14:39:42Z</time>
      </trkpt>
      <trkpt lat="48.00075" lon="7.82976">
        <ele>259</ele>
        <time>2022-05-23T14:39:54Z</time>
      </trkpt>
      <trkpt lat="48.00091" lon="7.82918">
        <ele>258</ele>
        <time>2022-05-23T14:40:01Z</time>
      </trkpt>
      <trkpt lat="48.00101" lon="7.82891">
        <ele>257</ele>
        <time>2022-05-23T14:40:05Z</time>
      </trkpt>
      <trkpt lat="48.00146" lon="7.82721">
        <ele>257</ele>
        <time>2022-05-23T14:40:26Z</time>
      </trkpt>
      <trkpt lat="48.00184" lon="7.826">
        <ele>254</ele>
        <time>2022-05-23T14:40:42Z</time>
      </trkpt>
      <trkpt lat="48.00203" lon="7.8252">
        <ele>254</ele>
        <time>2022-05-23T14:40:52Z</time>
      </trkpt>
      <trkpt lat="48.00227" lon="7.82469">
        <ele>255</ele>
        <time>2022-05-23T14:41:00Z</time>
      </trkpt>
      <trkpt lat="48.00247" lon="7.82436">
        <ele>255</ele>
        <time>2022-05-23T14:41:05Z</time>
      </trkpt>
      <trkpt lat="48.00252" lon="7.82423">
        <ele>255</ele>
        <time>2022-05-23T14:41:07Z</time>
      </trkpt>
      <trkpt lat="48.00282" lon="7.82377">
        <ele>255</ele>
        <time>2022-05-23T14:41:15Z</time>
      </trkpt>
      <trkpt lat="48.00333" lon="7.82319">
        <ele>256</ele>
        <time>2022-05-23T14:41:26Z</time>
      </trkpt>
      <trkpt lat="48.00351" lon="7.82272">
        <ele>256</ele>
        <time>2022-05-23T14:41:32Z</time>
      </trkpt>
      <trkpt lat="48.00352" lon="7.82243">
        <ele>255</ele>
        <time>2022-05-23T14:41:36Z</time>
      </trkpt>
      <trkpt lat="48.0035" lon="7.82227">
        <ele>255</ele>
        <time>2022-05-23T14:41:38Z</time>
      </trkpt>
      <trkpt lat="48.00368" lon="7.82219">
        <ele>254</ele>
        <time>2022-05-23T14:41:41Z</time>
      </trkpt>
      <trkpt lat="48.0039" lon="7.82199">
        <ele>253</ele>
        <time>2022-05-23T14:41:46Z</time>
      </trkpt>
      <trkpt lat="48.00399" lon="7.82199">
        <ele>253</ele>
        <time>2022-05-23T14:41:47Z</time>
      </trkpt>
      <trkpt lat="48.00406" lon="7.82214">
        <ele>253</ele>
        <time>2022-05-23T14:41:50Z</time>
      </trkpt>
      <trkpt lat="48.00416" lon="7.82222">
        <ele>253</ele>
        <time>2022-05-23T14:41:52Z</time>
      </trkpt>
      <trkpt lat="48.00436" lon="7.82226">
        <ele>253</ele>
        <time>2022-05-23T14:41:55Z</time>
      </trkpt>
      <trkpt lat="48.00485" lon="7.82171">
        <ele>252</ele>
        <time>2022-05-23T14:42:06Z</time>
      </trkpt>
      <trkpt lat="48.00522" lon="7.8214">
        <ele>253</ele>
        <time>2022-05-23T14:42:14Z</time>
      </trkpt>
      <trkpt lat="48.00561" lon="7.82085">
        <ele>254</ele>
        <time>2022-05-23T14:42:23Z</time>
      </trkpt>
      <trkpt lat="48.00581" lon="7.8205">
        <ele>253</ele>
        <time>2022-05-23T14:42:29Z</time>
      </trkpt>
      <trkpt lat="48.00618" lon="7.81971">
        <ele>252</ele>
        <time>2022-05-23T14:42:40Z</time>
      </trkpt>
      <trkpt lat="48.00655" lon="7.81873">
        <ele>251</ele>
        <time>2022-05-23T14:42:54Z</time>
      </trkpt>
      <trkpt lat="48.0068" lon="7.81815">
        <ele>251</ele>
        <time>2022-05-23T14:43:02Z</time>
      </trkpt>
      <trkpt lat="48.00688" lon="7.81804">
        <ele>251</ele>
        <time>2022-05-23T14:43:04Z</time>
      </trkpt>
      <trkpt lat="48.00689" lon="7.81789">
        <ele>251</ele>
        <time>2022-05-23T14:43:05Z</time>
      </trkpt>
      <trkpt lat="48.00713" lon="7.8174">
        <ele>250</ele>
        <time>2022-05-23T14:43:13Z</time>
      </trkpt>
      <trkpt lat="48.00722" lon="7.81714">
        <ele>249</ele>
        <time>2022-05-23T14:43:16Z</time>
      </trkpt>
      <trkpt lat="48.00731" lon="7.81701">
        <ele>249</ele>
        <time>2022-05-23T14:43:18Z</time>
      </trkpt>
      <trkpt lat="48.00758" lon="7.81644">
        <ele>248</ele>
        <time>2022-05-23T14:43:27Z</time>
      </trkpt>
      <trkpt lat="48.00793" lon="7.81583">
        <ele>246</ele>
        <time>2022-05-23T14:43:36Z</time>
      </trkpt>
      <trkpt lat="48.00811" lon="7.8156">
        <ele>245</ele>
        <time>2022-05-23T14:43:41Z</time>
      </trkpt>
      <trkpt lat="48.00845" lon="7.81495">
        <ele>246</ele>
        <time>2022-05-23T14:43:50Z</time>
      </trkpt>
      <trkpt lat="48.00853" lon="7.81486">
        <ele>246</ele>
        <time>2022-05-23T14:43:52Z</time>
      </trkpt>
      <trkpt lat="48.00947" lon="7.81336">
        <ele>244</ele>
        <time>2022-05-23T14:44:17Z</time>
      </trkpt>
      <trkpt lat="48.0096" lon="7.8131">
        <ele>244</ele>
        <time>2022-05-23T14:44:20Z</time>
      </trkpt>
      <trkpt lat="48.00975" lon="7.81293">
        <ele>245</ele>
        <time>2022-05-23T14:44:24Z</time>
      </trkpt>
      <trkpt lat="48.00988" lon="7.81291">
        <ele>245</ele>
        <time>2022-05-23T14:44:26Z</time>
      </trkpt>
      <trkpt lat="48.00982" lon="7.81311">
        <ele>244</ele>
        <time>2022-05-23T14:44:29Z</time>
      </trkpt>
      <trkpt lat="48.00984" lon="7.81295">
        <ele>245</ele>
        <time>2022-05-23T14:44:31Z</time>
      </trkpt>
      <trkpt lat="48.00998" lon="7.81289">
        <ele>245</ele>
        <time>2022-05-23T14:44:33Z</time>
      </trkpt>
      <trkpt lat="48.00984" lon="7.81301">
        <ele>245</ele>
        <time>2022-05-23T14:44:36Z</time>
      </trkpt>
      <trkpt lat="48.01005" lon="7.81319">
        <ele>244</ele>
        <time>2022-05-23T14:44:40Z</time>
      </trkpt>
      <trkpt lat="48.00999" lon="7.81309">
        <ele>245</ele>
        <time>2022-05-23T14:44:42Z</time>
      </trkpt>
      <trkpt lat="48.00988" lon="7.81313">
        <ele>244</ele>
        <time>2022-05-23T14:44:44Z</time>
      </trkpt>
      <trkpt lat="48.00987" lon="7.81299">
        <ele>245</ele>
        <time>2022-05-23T14:44:46Z</time>
      </trkpt>
      <trkpt lat="48.0099" lon="7.81286">
        <ele>245</ele>
        <time>2022-05-23T14:44:47Z</time>
      </trkpt>
      <trkpt lat="48.00985" lon="7.81299">
        <ele>245</ele>
        <time>2022-05-23T14:44:49Z</time>
      </trkpt>
      <trkpt lat="48.00976" lon="7.81293">
        <ele>245</ele>
        <time>2022-05-23T14:44:51Z</time>
      </trkpt>
      <trkpt lat="48.00975" lon="7.81318">
        <ele>244</ele>
        <time>2022-05-23T14:44:54Z</time>
      </trkpt>
      <trkpt lat="48.00967" lon="7.81328">
        <ele>244</ele>
        <time>2022-05-23T14:44:56Z</time>
      </trkpt>
      <trkpt lat="48.00955" lon="7.81352">
        <ele>244</ele>
        <time>2022-05-23T14:44:59Z</time>
      </trkpt>
      <trkpt lat="48.00938" lon="7.81379">
        <ele>244</ele>
        <time>2022-05-23T14:45:04Z</time>
      </trkpt>
      <trkpt lat="48.00898" lon="7.81427">
        <ele>244</ele>
        <time>2022-05-23T14:45:13Z</time>
      </trkpt>
      <trkpt lat="48.00866" lon="7.81475">
        <ele>245</ele>
        <time>2022-05-23T14:45:21Z</time>
      </trkpt>
      <trkpt lat="48.00859" lon="7.81482">
        <ele>246</ele>
        <time>2022-05-23T14:45:22Z</time>
      </trkpt>
      <trkpt lat="48.00805" lon="7.8157">
        <ele>245</ele>
        <time>2022-05-23T14:45:37Z</time>
      </trkpt>
      <trkpt lat="48.00782" lon="7.81615">
        <ele>247</ele>
        <time>2022-05-23T14:45:43Z</time>
      </trkpt>
      <trkpt lat="48.00757" lon="7.81652">
        <ele>249</ele>
        <time>2022-05-23T14:45:50Z</time>
      </trkpt>
      <trkpt lat="48.00728" lon="7.81718">
        <ele>249</ele>
        <time>2022-05-23T14:45:59Z</time>
      </trkpt>
      <trkpt lat="48.00725" lon="7.81734">
        <ele>249</ele>
        <time>2022-05-23T14:46:01Z</time>
      </trkpt>
      <trkpt lat="48.00713" lon="7.81759">
        <ele>250</ele>
        <time>2022-05-23T14:46:05Z</time>
      </trkpt>
      <trkpt lat="48.00705" lon="7.81788">
        <ele>250</ele>
        <time>2022-05-23T14:46:08Z</time>
      </trkpt>
      <trkpt lat="48.00689" lon="7.8181">
        <ele>251</ele>
        <time>2022-05-23T14:46:12Z</time>
      </trkpt>
      <trkpt lat="48.00679" lon="7.81837">
        <ele>251</ele>
        <time>2022-05-23T14:46:16Z</time>
      </trkpt>
      <trkpt lat="48.00666" lon="7.8186">
        <ele>251</ele>
        <time>2022-05-23T14:46:20Z</time>
      </trkpt>
      <trkpt lat="48.00613" lon="7.81991">
        <ele>252</ele>
        <time>2022-05-23T14:46:38Z</time>
      </trkpt>
      <trkpt lat="48.00592" lon="7.82037">
        <ele>253</ele>
        <time>2022-05-23T14:46:44Z</time>
      </trkpt>
      <trkpt lat="48.00564" lon="7.82083">
        <ele>254</ele>
        <time>2022-05-23T14:46:52Z</time>
      </trkpt>
      <trkpt lat="48.0055" lon="7.82111">
        <ele>253</ele>
        <time>2022-05-23T14:46:56Z</time>
      </trkpt>
      <trkpt lat="48.00519" lon="7.82151">
        <ele>252</ele>
        <time>2022-05-23T14:47:03Z</time>
      </trkpt>
      <trkpt lat="48.00463" lon="7.82202">
        <ele>253</ele>
        <time>2022-05-23T14:47:15Z</time>
      </trkpt>
      <trkpt lat="48.00455" lon="7.82217">
        <ele>253</ele>
        <time>2022-05-23T14:47:17Z</time>
      </trkpt>
      <trkpt lat="48.00436" lon="7.82239">
        <ele>254</ele>
        <time>2022-05-23T14:47:21Z</time>
      </trkpt>
      <trkpt lat="48.00423" lon="7.82238">
        <ele>254</ele>
        <time>2022-05-23T14:47:24Z</time>
      </trkpt>
      <trkpt lat="48.004" lon="7.82221">
        <ele>254</ele>
        <time>2022-05-23T14:47:28Z</time>
      </trkpt>
      <trkpt lat="48.00389" lon="7.82223">
        <ele>254</ele>
        <time>2022-05-23T14:47:30Z</time>
      </trkpt>
      <trkpt lat="48.00381" lon="7.82231">
        <ele>254</ele>
        <time>2022-05-23T14:47:32Z</time>
      </trkpt>
      <trkpt lat="48.00372" lon="7.82228">
        <ele>254</ele>
        <time>2022-05-23T14:47:34Z</time>
      </trkpt>
      <trkpt lat="48.00368" lon="7.82241">
        <ele>255</ele>
        <time>2022-05-23T14:47:35Z</time>
      </trkpt>
      <trkpt lat="48.00349" lon="7.82273">
        <ele>256</ele>
        <time>2022-05-23T14:47:40Z</time>
      </trkpt>
      <trkpt lat="48.00344" lon="7.82286">
        <ele>256</ele>
        <time>2022-05-23T14:47:42Z</time>
      </trkpt>
      <trkpt lat="48.00343" lon="7.82301">
        <ele>256</ele>
        <time>2022-05-23T14:47:44Z</time>
      </trkpt>
      <trkpt lat="48.00331" lon="7.82328">
        <ele>256</ele>
        <time>2022-05-23T14:47:48Z</time>
      </trkpt>
      <trkpt lat="48.00273" lon="7.824">
        <ele>255</ele>
        <time>2022-05-23T14:48:01Z</time>
      </trkpt>
      <trkpt lat="48.00265" lon="7.82406">
        <ele>255</ele>
        <time>2022-05-23T14:48:03Z</time>
      </trkpt>
      <trkpt lat="48.00246" lon="7.82429">
        <ele>255</ele>
        <time>2022-05-23T14:48:07Z</time>
      </trkpt>
      <trkpt lat="48.0022" lon="7.82473">
        <ele>255</ele>
        <time>2022-05-23T14:48:14Z</time>
      </trkpt>
      <trkpt lat="48.00217" lon="7.82486">
        <ele>255</ele>
        <time>2022-05-23T14:48:16Z</time>
      </trkpt>
      <trkpt lat="48.00199" lon="7.82528">
        <ele>254</ele>
        <time>2022-05-23T14:48:22Z</time>
      </trkpt>
      <trkpt lat="48.00183" lon="7.82604">
        <ele>254</ele>
        <time>2022-05-23T14:48:31Z</time>
      </trkpt>
      <trkpt lat="48.00172" lon="7.82634">
        <ele>255</ele>
        <time>2022-05-23T14:48:35Z</time>
      </trkpt>
      <trkpt lat="48.0016" lon="7.82678">
        <ele>255</ele>
        <time>2022-05-23T14:48:41Z</time>
      </trkpt>
      <trkpt lat="48.00148" lon="7.82707">
        <ele>257</ele>
        <time>2022-05-23T14:48:45Z</time>
      </trkpt>
      <trkpt lat="48.00117" lon="7.82842">
        <ele>257</ele>
        <time>2022-05-23T14:49:02Z</time>
      </trkpt>
      <trkpt lat="48.00094" lon="7.82931">
        <ele>258</ele>
        <time>2022-05-23T14:49:13Z</time>
      </trkpt>
      <trkpt lat="48.00059" lon="7.83027">
        <ele>259</ele>
        <time>2022-05-23T14:49:26Z</time>
      </trkpt>
      <trkpt lat="48.00015" lon="7.83132">
        <ele>260</ele>
        <time>2022-05-23T14:49:41Z</time>
      </trkpt>
      <trkpt lat="47.99976" lon="7.83247">
        <ele>262</ele>
        <time>2022-05-23T14:49:57Z</time>
      </trkpt>
      <trkpt lat="47.99944" lon="7.83325">
        <ele>263</ele>
        <time>2022-05-23T14:50:07Z</time>
      </trkpt>
      <trkpt lat="47.99896" lon="7.83463">
        <ele>265</ele>
        <time>2022-05-23T14:50:26Z</time>
      </trkpt>
      <trkpt lat="47.9987" lon="7.83516">
        <ele>266</ele>
        <time>2022-05-23T14:50:34Z</time>
      </trkpt>
      <trkpt lat="47.99839" lon="7.83565">
        <ele>267</ele>
        <time>2022-05-23T14:50:42Z</time>
      </trkpt>
      <trkpt lat="47.99828" lon="7.83587">
        <ele>268</ele>
        <time>2022-05-23T14:50:45Z</time>
      </trkpt>
      <trkpt lat="47.99824" lon="7.83602">
        <ele>268</ele>
        <time>2022-05-23T14:50:47Z</time>
      </trkpt>
      <trkpt lat="47.99831" lon="7.83611">
        <ele>268</ele>
        <time>2022-05-23T14:50:49Z</time>
      </trkpt>
      <trkpt lat="47.99872" lon="7.83634">
        <ele>267</ele>
        <time>2022-05-23T14:50:56Z</time>
      </trkpt>
      <trkpt lat="47.99904" lon="7.8366">
        <ele>267</ele>
        <time>2022-05-23T14:51:03Z</time>
      </trkpt>
      <trkpt lat="47.99934" lon="7.83677">
        <ele>267</ele>
        <time>2022-05-23T14:51:09Z</time>
      </trkpt>
      <trkpt lat="47.99944" lon="7.83687">
        <ele>267</ele>
        <time>2022-05-23T14:51:11Z</time>
      </trkpt>
      <trkpt lat="47.99966" lon="7.83701">
        <ele>268</ele>
        <time>2022-05-23T14:51:15Z</time>
      </trkpt>
      <trkpt lat="48.0002" lon="7.83746">
        <ele>268</ele>
        <time>2022-05-23T14:51:26Z</time>
      </trkpt>
      <trkpt lat="48.0001" lon="7.83748">
        <ele>268</ele>
        <time>2022-05-23T14:51:28Z</time>
      </trkpt>
      <trkpt lat="47.99989" lon="7.83736">
        <ele>268</ele>
        <time>2022-05-23T14:51:32Z</time>
      </trkpt>
      <trkpt lat="47.99972" lon="7.83722">
        <ele>268</ele>
        <time>2022-05-23T14:51:35Z</time>
      </trkpt>
      <trkpt lat="47.99922" lon="7.83692">
        <ele>268</ele>
        <time>2022-05-23T14:51:45Z</time>
      </trkpt>
      <trkpt lat="47.99912" lon="7.83682">
        <ele>267</ele>
        <time>2022-05-23T14:51:47Z</time>
      </trkpt>
      <trkpt lat="47.99836" lon="7.83624">
        <ele>267</ele>
        <time>2022-05-23T14:52:02Z</time>
      </trkpt>
      <trkpt lat="47.99817" lon="7.83605">
        <ele>269</ele>
        <time>2022-05-23T14:52:06Z</time>
      </trkpt>
      <trkpt lat="47.99756" lon="7.83562">
        <ele>270</ele>
        <time>2022-05-23T14:52:18Z</time>
      </trkpt>
      <trkpt lat="47.99736" lon="7.83546">
        <ele>270</ele>
        <time>2022-05-23T14:52:22Z</time>
      </trkpt>
      <trkpt lat="47.99729" lon="7.83537">
        <ele>269</ele>
        <time>2022-05-23T14:52:24Z</time>
      </trkpt>
      <trkpt lat="47.99701" lon="7.8352">
        <ele>268</ele>
        <time>2022-05-23T14:52:29Z</time>
      </trkpt>
      <trkpt lat="47.9968" lon="7.83498">
        <ele>268</ele>
        <time>2022-05-23T14:52:34Z</time>
      </trkpt>
      <trkpt lat="47.99619" lon="7.83454">
        <ele>268</ele>
        <time>2022-05-23T14:52:46Z</time>
      </trkpt>
      <trkpt lat="47.996" lon="7.83445">
        <ele>268</ele>
        <time>2022-05-23T14:52:49Z</time>
      </trkpt>
      <trkpt lat="47.99593" lon="7.83455">
        <ele>268</ele>
        <time>2022-05-23T14:52:51Z</time>
      </trkpt>
      <trkpt lat="47.99588" lon="7.83469">
        <ele>267</ele>
        <time>2022-05-23T14:52:53Z</time>
      </trkpt>
      <trkpt lat="47.99586" lon="7.83484">
        <ele>267</ele>
        <time>2022-05-23T14:52:55Z</time>
      </trkpt>
      <trkpt lat="47.99564" lon="7.83536">
        <ele>267</ele>
        <time>2022-05-23T14:53:02Z</time>
      </trkpt>
      <trkpt lat="47.99538" lon="7.83587">
        <ele>268</ele>
        <time>2022-05-23T14:53:10Z</time>
      </trkpt>
      <trkpt lat="47.99545" lon="7.83563">
        <ele>267</ele>
        <time>2022-05-23T14:53:13Z</time>
      </trkpt>
      <trkpt lat="47.99555" lon="7.83562">
        <ele>267</ele>
        <time>2022-05-23T14:53:15Z</time>
      </trkpt>
      <trkpt lat="47.99584" lon="7.83588">
        <ele>268</ele>
        <time>2022-05-23T14:53:21Z</time>
      </trkpt>
      <trkpt lat="47.99593" lon="7.83591">
        <ele>269</ele>
        <time>2022-05-23T14:53:22Z</time>
      </trkpt>
      <trkpt lat="47.99602" lon="7.836">
        <ele>269</ele>
        <time>2022-05-23T14:53:24Z</time>
      </trkpt>
      <trkpt lat="47.99615" lon="7.83604">
        <ele>269</ele>
        <time>2022-05-23T14:53:27Z</time>
      </trkpt>
      <trkpt lat="47.99634" lon="7.83622">
        <ele>270</ele>
        <time>2022-05-23T14:53:31Z</time>
      </trkpt>
      <trkpt lat="47.99651" lon="7.83644">
        <ele>270</ele>
        <time>2022-05-23T14:53:35Z</time>
      </trkpt>
      <trkpt lat="47.9966" lon="7.83645">
        <ele>270</ele>
        <time>2022-05-23T14:53:36Z</time>
      </trkpt>
      <trkpt lat="47.99665" lon="7.83628">
        <ele>270</ele>
        <time>2022-05-23T14:53:39Z</time>
      </trkpt>
      <trkpt lat="47.99672" lon="7.83617">
        <ele>270</ele>
        <time>2022-05-23T14:53:40Z</time>
      </trkpt>
      <trkpt lat="47.99685" lon="7.83568">
        <ele>270</ele>
        <time>2022-05-23T14:53:47Z</time>
      </trkpt>
      <trkpt lat="47.99703" lon="7.83525">
        <ele>269</ele>
        <time>2022-05-23T14:53:53Z</time>
      </trkpt>
      <trkpt lat="47.99715" lon="7.83524">
        <ele>268</ele>
        <time>2022-05-23T14:53:55Z</time>
      </trkpt>
      <trkpt lat="47.99724" lon="7.83529">
        <ele>269</ele>
        <time>2022-05-23T14:53:57Z</time>
      </trkpt>
      <trkpt lat="47.99777" lon="7.83573">
        <ele>270</ele>
        <time>2022-05-23T14:54:07Z</time>
      </trkpt>
      <trkpt lat="47.99789" lon="7.83577">
        <ele>270</ele>
        <time>2022-05-23T14:54:09Z</time>
      </trkpt>
      <trkpt lat="47.99818" lon="7.836">
        <ele>269</ele>
        <time>2022-05-23T14:54:15Z</time>
      </trkpt>
      <trkpt lat="47.99919" lon="7.83669">
        <ele>267</ele>
        <time>2022-05-23T14:54:35Z</time>
      </trkpt>
      <trkpt lat="48.00006" lon="7.8374">
        <ele>268</ele>
        <time>2022-05-23T14:54:53Z</time>
      </trkpt>
      <trkpt lat="48.00036" lon="7.83758">
        <ele>268</ele>
        <time>2022-05-23T14:54:58Z</time>
      </trkpt>
      <trkpt lat="48.00075" lon="7.83787">
        <ele>268</ele>
        <time>2022-05-23T14:55:06Z</time>
      </trkpt>
      <trkpt lat="48.00095" lon="7.83799">
        <ele>268</ele>
        <time>2022-05-23T14:55:10Z</time>
      </trkpt>
      <trkpt lat="48.0012" lon="7.83827">
        <ele>268</ele>
        <time>2022-05-23T14:55:16Z</time>
      </trkpt>
      <trkpt lat="48.00139" lon="7.83838">
        <ele>268</ele>
        <time>2022-05-23T14:55:19Z</time>
      </trkpt>
      <trkpt lat="48.0016" lon="7.83845">
        <ele>268</ele>
        <time>2022-05-23T14:55:23Z</time>
      </trkpt>
      <trkpt lat="48.00199" lon="7.83864">
        <ele>268</ele>
        <time>2022-05-23T14:55:30Z</time>
      </trkpt>
      <trkpt lat="48.00224" lon="7.83877">
        <ele>268</ele>
        <time>2022-05-23T14:55:35Z</time>
      </trkpt>
      <trkpt lat="48.00237" lon="7.83887">
        <ele>268</ele>
        <time>2022-05-23T14:55:38Z</time>
      </trkpt>
      <trkpt lat="48.00248" lon="7.83901">
        <ele>267</ele>
        <time>2022-05-23T14:55:40Z</time>
      </trkpt>
      <trkpt lat="48.00252" lon="7.83913">
        <ele>267</ele>
        <time>2022-05-23T14:55:42Z</time>
      </trkpt>
      <trkpt lat="48.00255" lon="7.83938">
        <ele>267</ele>
        <time>2022-05-23T14:55:45Z</time>
      </trkpt>
      <trkpt lat="48.00271" lon="7.83979">
        <ele>267</ele>
        <time>2022-05-23T14:55:51Z</time>
      </trkpt>
      <trkpt lat="48.00291" lon="7.84021">
        <ele>267</ele>
        <time>2022-05-23T14:55:57Z</time>
      </trkpt>
      <trkpt lat="48.00305" lon="7.84043">
        <ele>267</ele>
        <time>2022-05-23T14:56:00Z</time>
      </trkpt>
      <trkpt lat="48.00341" lon="7.84124">
        <ele>264</ele>
        <time>2022-05-23T14:56:12Z</time>
      </trkpt>
      <trkpt lat="48.00378" lon="7.84178">
        <ele>264</ele>
        <time>2022-05-23T14:56:21Z</time>
      </trkpt>
      <trkpt lat="48.00403" lon="7.8421">
        <ele>264</ele>
        <time>2022-05-23T14:56:27Z</time>
      </trkpt>
      <trkpt lat="48.00448" lon="7.84285">
        <ele>263</ele>
        <time>2022-05-23T14:56:39Z</time>
      </trkpt>
      <trkpt lat="48.00482" lon="7.84334">
        <ele>264</ele>
        <time>2022-05-23T14:56:47Z</time>
      </trkpt>
      <trkpt lat="48.00523" lon="7.84406">
        <ele>263</ele>
        <time>2022-05-23T14:56:59Z</time>
      </trkpt>
      <trkpt lat="48.00532" lon="7.84418">
        <ele>263</ele>
        <time>2022-05-23T14:57:01Z</time>
      </trkpt>
      <trkpt lat="48.00612" lon="7.84425">
        <ele>263</ele>
        <time>2022-05-23T14:57:15Z</time>
      </trkpt>
      <trkpt lat="48.00622" lon="7.84431">
        <ele>262</ele>
        <time>2022-05-23T14:57:17Z</time>
      </trkpt>
      <trkpt lat="48.00638" lon="7.84453">
        <ele>261</ele>
        <time>2022-05-23T14:57:21Z</time>
      </trkpt>
      <trkpt lat="48.0071" lon="7.84538">
        <ele>260</ele>
        <time>2022-05-23T14:57:37Z</time>
      </trkpt>
      <trkpt lat="48.00719" lon="7.84553">
        <ele>260</ele>
        <time>2022-05-23T14:57:39Z</time>
      </trkpt>
      <trkpt lat="48.00759" lon="7.84603">
        <ele>260</ele>
        <time>2022-05-23T14:57:49Z</time>
      </trkpt>
      <trkpt lat="48.00899" lon="7.8477">
        <ele>258</ele>
        <time>2022-05-23T14:58:21Z</time>
      </trkpt>
      <trkpt lat="48.00914" lon="7.84791">
        <ele>258</ele>
        <time>2022-05-23T14:58:24Z</time>
      </trkpt>
      <trkpt lat="48.00933" lon="7.84804">
        <ele>257</ele>
        <time>2022-05-23T14:58:28Z</time>
      </trkpt>
      <trkpt lat="48.00988" lon="7.84818">
        <ele>255</ele>
        <time>2022-05-23T14:58:38Z</time>
      </trkpt>
      <trkpt lat="48.00996" lon="7.84826">
        <ele>255</ele>
        <time>2022-05-23T14:58:40Z</time>
      </trkpt>
      <trkpt lat="48.01019" lon="7.84855">
        <ele>255</ele>
        <time>2022-05-23T14:58:45Z</time>
      </trkpt>
      <trkpt lat="48.01026" lon="7.84872">
        <ele>256</ele>
        <time>2022-05-23T14:58:47Z</time>
      </trkpt>
      <trkpt lat="48.01047" lon="7.849">
        <ele>256</ele>
        <time>2022-05-23T14:58:52Z</time>
      </trkpt>
      <trkpt lat="48.01072" lon="7.84942">
        <ele>255</ele>
        <time>2022-05-23T14:58:59Z</time>
      </trkpt>
      <trkpt lat="48.01107" lon="7.84993">
        <ele>253</ele>
        <time>2022-05-23T14:59:08Z</time>
      </trkpt>
      <trkpt lat="48.01179" lon="7.85087">
        <ele>253</ele>
        <time>2022-05-23T14:59:25Z</time>
      </trkpt>
      <trkpt lat="48.01211" lon="7.85138">
        <ele>253</ele>
        <time>2022-05-23T14:59:33Z</time>
      </trkpt>
      <trkpt lat="48.01239" lon="7.85175">
        <ele>253</ele>
        <time>2022-05-23T14:59:40Z</time>
      </trkpt>
      <trkpt lat="48.01286" lon="7.85251">
        <ele>251</ele>
        <time>2022-05-23T14:59:52Z</time>
      </trkpt>
      <trkpt lat="48.01303" lon="7.85275">
        <ele>251</ele>
        <time>2022-05-23T14:59:56Z</time>
      </trkpt>
      <trkpt lat="48.01318" lon="7.85291">
        <ele>252</ele>
        <time>2022-05-23T15:00:00Z</time>
      </trkpt>
      <trkpt lat="48.01368" lon="7.85361">
        <ele>255</ele>
        <time>2022-05-23T15:00:12Z</time>
      </trkpt>
      <trkpt lat="48.01383" lon="7.85386">
        <ele>255</ele>
        <time>2022-05-23T15:00:16Z</time>
      </trkpt>
      <trkpt lat="48.01408" lon="7.85438">
        <ele>254</ele>
        <time>2022-05-23T15:00:23Z</time>
      </trkpt>
      <trkpt lat="48.01407" lon="7.85451">
        <ele>254</ele>
        <time>2022-05-23T15:00:25Z</time>
      </trkpt>
      <trkpt lat="48.01394" lon="7.85471">
        <ele>255</ele>
        <time>2022-05-23T15:00:28Z</time>
      </trkpt>
      <trkpt lat="48.01397" lon="7.85442">
        <ele>255</ele>
        <time>2022-05-23T15:00:32Z</time>
      </trkpt>
      <trkpt lat="48.01389" lon="7.85417">
        <ele>255</ele>
        <time>2022-05-23T15:00:35Z</time>
      </trkpt>
      <trkpt lat="48.01399" lon="7.85419">
        <ele>255</ele>
        <time>2022-05-23T15:00:37Z</time>
      </trkpt>
      <trkpt lat="48.01402" lon="7.85434">
        <ele>255</ele>
        <time>2022-05-23T15:00:39Z</time>
      </trkpt>
      <trkpt lat="48.01408" lon="7.85445">
        <ele>254</ele>
        <time>2022-05-23T15:00:40Z</time>
      </trkpt>
      <trkpt lat="48.01417" lon="7.85453">
        <ele>254</ele>
        <time>2022-05-23T15:00:42Z</time>
      </trkpt>
      <trkpt lat="48.01428" lon="7.85456">
        <ele>254</ele>
        <time>2022-05-23T15:00:44Z</time>
      </trkpt>
      <trkpt lat="48.01444" lon="7.85441">
        <ele>254</ele>
        <time>2022-05-23T15:00:48Z</time>
      </trkpt>
      <trkpt lat="48.01454" lon="7.85439">
        <ele>254</ele>
        <time>2022-05-23T15:00:49Z</time>
      </trkpt>
      <trkpt lat="48.01474" lon="7.85427">
        <ele>255</ele>
        <time>2022-05-23T15:00:53Z</time>
      </trkpt>
      <trkpt lat="48.01496" lon="7.85409">
        <ele>255</ele>
        <time>2022-05-23T15:00:58Z</time>
      </trkpt>
      <trkpt lat="48.01529" lon="7.85391">
        <ele>255</ele>
        <time>2022-05-23T15:01:04Z</time>
      </trkpt>
      <trkpt lat="48.01535" lon="7.85405">
        <ele>254</ele>
        <time>2022-05-23T15:01:06Z</time>
      </trkpt>
      <trkpt lat="48.01536" lon="7.85479">
        <ele>254</ele>
        <time>2022-05-23T15:01:15Z</time>
      </trkpt>
      <trkpt lat="48.01539" lon="7.85493">
        <ele>254</ele>
        <time>2022-05-23T15:01:16Z</time>
      </trkpt>
      <trkpt lat="48.01555" lon="7.85514">
        <ele>253</ele>
        <time>2022-05-23T15:01:20Z</time>
      </trkpt>
      <trkpt lat="48.01599" lon="7.85536">
        <ele>252</ele>
        <time>2022-05-23T15:01:28Z</time>
      </trkpt>
      <trkpt lat="48.01619" lon="7.85537">
        <ele>251</ele>
        <time>2022-05-23T15:01:32Z</time>
      </trkpt>
      <trkpt lat="48.01649" lon="7.85551">
        <ele>250</ele>
        <time>2022-05-23T15:01:38Z</time>
      </trkpt>
      <trkpt lat="48.01673" lon="7.85558">
        <ele>250</ele>
        <time>2022-05-23T15:01:42Z</time>
      </trkpt>
      <trkpt lat="48.01705" lon="7.85575">
        <ele>249</ele>
        <time>2022-05-23T15:01:48Z</time>
      </trkpt>
      <trkpt lat="48.01715" lon="7.85576">
        <ele>249</ele>
        <time>2022-05-23T15:01:50Z</time>
      </trkpt>
      <trkpt lat="48.01756" lon="7.85596">
        <ele>249</ele>
        <time>2022-05-23T15:01:57Z</time>
      </trkpt>
      <trkpt lat="48.01767" lon="7.85596">
        <ele>249</ele>
        <time>2022-05-23T15:01:59Z</time>
      </trkpt>
      <trkpt lat="48.01779" lon="7.856">
        <ele>249</ele>
        <time>2022-05-23T15:02:02Z</time>
      </trkpt>
      <trkpt lat="48.01829" lon="7.85628">
        <ele>250</ele>
        <time>2022-05-23T15:02:11Z</time>
      </trkpt>
      <trkpt lat="48.01849" lon="7.85642">
        <ele>250</ele>
        <time>2022-05-23T15:02:15Z</time>
      </trkpt>
      <trkpt lat="48.01874" lon="7.85646">
        <ele>250</ele>
        <time>2022-05-23T15:02:20Z</time>
      </trkpt>
      <trkpt lat="48.01895" lon="7.85656">
        <ele>250</ele>
        <time>2022-05-23T15:02:23Z</time>
      </trkpt>
      <trkpt lat="48.01906" lon="7.85656">
        <ele>250</ele>
        <time>2022-05-23T15:02:25Z</time>
      </trkpt>
      <trkpt lat="48.01908" lon="7.8567">
        <ele>250</ele>
        <time>2022-05-23T15:02:27Z</time>
      </trkpt>
      <trkpt lat="48.01904" lon="7.85698">
        <ele>249</ele>
        <time>2022-05-23T15:02:31Z</time>
      </trkpt>
      <trkpt lat="48.01905" lon="7.85726">
        <ele>248</ele>
        <time>2022-05-23T15:02:34Z</time>
      </trkpt>
      <trkpt lat="48.01912" lon="7.85754">
        <ele>247</ele>
        <time>2022-05-23T15:02:37Z</time>
      </trkpt>
      <trkpt lat="48.01918" lon="7.85766">
        <ele>247</ele>
        <time>2022-05-23T15:02:39Z</time>
      </trkpt>
      <trkpt lat="48.01937" lon="7.85784">
        <ele>247</ele>
        <time>2022-05-23T15:02:43Z</time>
      </trkpt>
      <trkpt lat="48.01947" lon="7.85789">
        <ele>248</ele>
        <time>2022-05-23T15:02:45Z</time>
      </trkpt>
      <trkpt lat="48.01976" lon="7.85799">
        <ele>248</ele>
        <time>2022-05-23T15:02:50Z</time>
      </trkpt>
      <trkpt lat="48.02008" lon="7.85814">
        <ele>249</ele>
        <time>2022-05-23T15:02:56Z</time>
      </trkpt>
      <trkpt lat="48.02029" lon="7.8582">
        <ele>249</ele>
        <time>2022-05-23T15:03:00Z</time>
      </trkpt>
      <trkpt lat="48.02038" lon="7.85826">
        <ele>249</ele>
        <time>2022-05-23T15:03:02Z</time>
      </trkpt>
      <trkpt lat="48.0204" lon="7.85844">
        <ele>249</ele>
        <time>2022-05-23T15:03:04Z</time>
      </trkpt>
      <trkpt lat="48.02035" lon="7.85896">
        <ele>249</ele>
        <time>2022-05-23T15:03:10Z</time>
      </trkpt>
      <trkpt lat="48.02031" lon="7.85913">
        <ele>249</ele>
        <time>2022-05-23T15:03:12Z</time>
      </trkpt>
      <trkpt lat="48.02033" lon="7.85931">
        <ele>249</ele>
        <time>2022-05-23T15:03:15Z</time>
      </trkpt>
      <trkpt lat="48.02044" lon="7.85937">
        <ele>249</ele>
        <time>2022-05-23T15:03:17Z</time>
      </trkpt>
      <trkpt lat="48.02053" lon="7.85937">
        <ele>249</ele>
        <time>2022-05-23T15:03:18Z</time>
      </trkpt>
      <trkpt lat="48.02095" lon="7.85946">
        <ele>248</ele>
        <time>2022-05-23T15:03:26Z</time>
      </trkpt>
      <trkpt lat="48.02106" lon="7.85953">
        <ele>248</ele>
        <time>2022-05-23T15:03:28Z</time>
      </trkpt>
      <trkpt lat="48.02114" lon="7.85995">
        <ele>249</ele>
        <time>2022-05-23T15:03:33Z</time>
      </trkpt>
      <trkpt lat="48.02112" lon="7.86038">
        <ele>251</ele>
        <time>2022-05-23T15:03:38Z</time>
      </trkpt>
      <trkpt lat="48.02106" lon="7.8605">
        <ele>251</ele>
        <time>2022-05-23T15:03:40Z</time>
      </trkpt>
      <trkpt lat="48.02086" lon="7.86052">
        <ele>251</ele>
        <time>2022-05-23T15:03:44Z</time>
      </trkpt>
      <trkpt lat="48.02055" lon="7.8605">
        <ele>251</ele>
        <time>2022-05-23T15:03:49Z</time>
      </trkpt>
      <trkpt lat="48.02044" lon="7.86052">
        <ele>251</ele>
        <time>2022-05-23T15:03:51Z</time>
      </trkpt>
      <trkpt lat="48.02011" lon="7.86081">
        <ele>253</ele>
        <time>2022-05-23T15:03:58Z</time>
      </trkpt>
      <trkpt lat="48.01991" lon="7.86076">
        <ele>253</ele>
        <time>2022-05-23T15:04:02Z</time>
      </trkpt>
      <trkpt lat="48.01996" lon="7.86108">
        <ele>256</ele>
        <time>2022-05-23T15:04:05Z</time>
      </trkpt>
      <trkpt lat="48.02006" lon="7.86118">
        <ele>257</ele>
        <time>2022-05-23T15:04:08Z</time>
      </trkpt>
      <trkpt lat="48.02053" lon="7.86144">
        <ele>259</ele>
        <time>2022-05-23T15:04:17Z</time>
      </trkpt>
      <trkpt lat="48.02093" lon="7.86172">
        <ele>260</ele>
        <time>2022-05-23T15:04:24Z</time>
      </trkpt>
      <trkpt lat="48.02146" lon="7.86192">
        <ele>258</ele>
        <time>2022-05-23T15:04:34Z</time>
      </trkpt>
      <trkpt lat="48.02156" lon="7.86199">
        <ele>258</ele>
        <time>2022-05-23T15:04:36Z</time>
      </trkpt>
      <trkpt lat="48.02165" lon="7.86211">
        <ele>258</ele>
        <time>2022-05-23T15:04:38Z</time>
      </trkpt>
      <trkpt lat="48.02205" lon="7.86237">
        <ele>255</ele>
        <time>2022-05-23T15:04:46Z</time>
      </trkpt>
      <trkpt lat="48.02228" lon="7.86245">
        <ele>253</ele>
        <time>2022-05-23T15:04:50Z</time>
      </trkpt>
      <trkpt lat="48.02241" lon="7.86253">
        <ele>252</ele>
        <time>2022-05-23T15:04:53Z</time>
      </trkpt>
      <trkpt lat="48.0228" lon="7.8627">
        <ele>251</ele>
        <time>2022-05-23T15:05:00Z</time>
      </trkpt>
      <trkpt lat="48.02292" lon="7.86277">
        <ele>251</ele>
        <time>2022-05-23T15:05:02Z</time>
      </trkpt>
      <trkpt lat="48.02308" lon="7.86293">
        <ele>252</ele>
        <time>2022-05-23T15:05:06Z</time>
      </trkpt>
      <trkpt lat="48.0236" lon="7.86319">
        <ele>252</ele>
        <time>2022-05-23T15:05:15Z</time>
      </trkpt>
      <trkpt lat="48.02382" lon="7.86324">
        <ele>253</ele>
        <time>2022-05-23T15:05:19Z</time>
      </trkpt>
      <trkpt lat="48.02415" lon="7.8632">
        <ele>254</ele>
        <time>2022-05-23T15:05:25Z</time>
      </trkpt>
      <trkpt lat="48.02461" lon="7.86323">
        <ele>254</ele>
        <time>2022-05-23T15:05:33Z</time>
      </trkpt>
      <trkpt lat="48.02473" lon="7.86332">
        <ele>254</ele>
        <time>2022-05-23T15:05:36Z</time>
      </trkpt>
      <trkpt lat="48.02495" lon="7.86343">
        <ele>254</ele>
        <time>2022-05-23T15:05:40Z</time>
      </trkpt>
      <trkpt lat="48.02504" lon="7.86351">
        <ele>254</ele>
        <time>2022-05-23T15:05:42Z</time>
      </trkpt>
      <trkpt lat="48.0257" lon="7.86379">
        <ele>255</ele>
        <time>2022-05-23T15:05:54Z</time>
      </trkpt>
      <trkpt lat="48.02589" lon="7.8639">
        <ele>256</ele>
        <time>2022-05-23T15:05:58Z</time>
      </trkpt>
      <trkpt lat="48.02598" lon="7.86398">
        <ele>256</ele>
        <time>2022-05-23T15:06:00Z</time>
      </trkpt>
      <trkpt lat="48.0262" lon="7.86407">
        <ele>257</ele>
        <time>2022-05-23T15:06:04Z</time>
      </trkpt>
      <trkpt lat="48.0263" lon="7.86415">
        <ele>258</ele>
        <time>2022-05-23T15:06:06Z</time>
      </trkpt>
      <trkpt lat="48.02693" lon="7.86442">
        <ele>257</ele>
        <time>2022-05-23T15:06:17Z</time>
      </trkpt>
      <trkpt lat="48.02734" lon="7.86455">
        <ele>256</ele>
        <time>2022-05-23T15:06:25Z</time>
      </trkpt>
      <trkpt lat="48.02789" lon="7.86481">
        <ele>255</ele>
        <time>2022-05-23T15:06:35Z</time>
      </trkpt>
      <trkpt lat="48.02826" lon="7.86502">
        <ele>255</ele>
        <time>2022-05-23T15:06:42Z</time>
      </trkpt>
      <trkpt lat="48.02849" lon="7.8652">
        <ele>254</ele>
        <time>2022-05-23T15:06:47Z</time>
      </trkpt>
      <trkpt lat="48.02919" lon="7.86593">
        <ele>255</ele>
        <time>2022-05-23T15:07:02Z</time>
      </trkpt>
      <trkpt lat="48.0299" lon="7.86635">
        <ele>254</ele>
        <time>2022-05-23T15:07:15Z</time>
      </trkpt>
      <trkpt lat="48.03044" lon="7.86672">
        <ele>253</ele>
        <time>2022-05-23T15:07:26Z</time>
      </trkpt>
      <trkpt lat="48.03054" lon="7.86685">
        <ele>253</ele>
        <time>2022-05-23T15:07:28Z</time>
      </trkpt>
      <trkpt lat="48.03047" lon="7.86735">
        <ele>255</ele>
        <time>2022-05-23T15:07:34Z</time>
      </trkpt>
      <trkpt lat="48.03051" lon="7.86749">
        <ele>255</ele>
        <time>2022-05-23T15:07:36Z</time>
      </trkpt>
      <trkpt lat="48.03124" lon="7.86793">
        <ele>250</ele>
        <time>2022-05-23T15:07:50Z</time>
      </trkpt>
      <trkpt lat="48.0319" lon="7.86841">
        <ele>247</ele>
        <time>2022-05-23T15:08:03Z</time>
      </trkpt>
      <trkpt lat="48.0322" lon="7.86859">
        <ele>245</ele>
        <time>2022-05-23T15:08:09Z</time>
      </trkpt>
      <trkpt lat="48.03269" lon="7.86899">
        <ele>243</ele>
        <time>2022-05-23T15:08:19Z</time>
      </trkpt>
      <trkpt lat="48.0328" lon="7.86896">
        <ele>242</ele>
        <time>2022-05-23T15:08:21Z</time>
      </trkpt>
      <trkpt lat="48.03291" lon="7.86888">
        <ele>242</ele>
        <time>2022-05-23T15:08:23Z</time>
      </trkpt>
      <trkpt lat="48.03303" lon="7.8689">
        <ele>242</ele>
        <time>2022-05-23T15:08:25Z</time>
      </trkpt>
      <trkpt lat="48.03341" lon="7.86914">
        <ele>242</ele>
        <time>2022-05-23T15:08:33Z</time>
      </trkpt>
      <trkpt lat="48.03369" lon="7.86925">
        <ele>242</ele>
        <time>2022-05-23T15:08:38Z</time>
      </trkpt>
      <trkpt lat="48.03449" lon="7.86968">
        <ele>241</ele>
        <time>2022-05-23T15:08:53Z</time>
      </trkpt>
      <trkpt lat="48.03469" lon="7.86991">
        <ele>242</ele>
        <time>2022-05-23T15:08:57Z</time>
      </trkpt>
      <trkpt lat="48.0348" lon="7.86999">
        <ele>242</ele>
        <time>2022-05-23T15:09:00Z</time>
      </trkpt>
      <trkpt lat="48.03541" lon="7.87033">
        <ele>242</ele>
        <time>2022-05-23T15:09:11Z</time>
      </trkpt>
      <trkpt lat="48.03548" lon="7.87044">
        <ele>242</ele>
        <time>2022-05-23T15:09:13Z</time>
      </trkpt>
      <trkpt lat="48.03551" lon="7.87057">
        <ele>242</ele>
        <time>2022-05-23T15:09:15Z</time>
      </trkpt>
      <trkpt lat="48.03563" lon="7.87064">
        <ele>242</ele>
        <time>2022-05-23T15:09:17Z</time>
      </trkpt>
      <trkpt lat="48.03613" lon="7.87088">
        <ele>243</ele>
        <time>2022-05-23T15:09:26Z</time>
      </trkpt>
      <trkpt lat="48.03623" lon="7.8709">
        <ele>243</ele>
        <time>2022-05-23T15:09:28Z</time>
      </trkpt>
      <trkpt lat="48.03633" lon="7.87084">
        <ele>244</ele>
        <time>2022-05-23T15:09:30Z</time>
      </trkpt>
      <trkpt lat="48.03692" lon="7.8711">
        <ele>244</ele>
        <time>2022-05-23T15:09:41Z</time>
      </trkpt>
      <trkpt lat="48.03702" lon="7.87111">
        <ele>245</ele>
        <time>2022-05-23T15:09:43Z</time>
      </trkpt>
      <trkpt lat="48.03722" lon="7.87119">
        <ele>245</ele>
        <time>2022-05-23T15:09:46Z</time>
      </trkpt>
      <trkpt lat="48.03752" lon="7.87139">
        <ele>247</ele>
        <time>2022-05-23T15:09:52Z</time>
      </trkpt>
      <trkpt lat="48.0381" lon="7.87159">
        <ele>246</ele>
        <time>2022-05-23T15:10:03Z</time>
      </trkpt>
      <trkpt lat="48.03819" lon="7.87164">
        <ele>246</ele>
        <time>2022-05-23T15:10:04Z</time>
      </trkpt>
      <trkpt lat="48.03828" lon="7.87164">
        <ele>246</ele>
        <time>2022-05-23T15:10:06Z</time>
      </trkpt>
      <trkpt lat="48.03848" lon="7.87178">
        <ele>246</ele>
        <time>2022-05-23T15:10:10Z</time>
      </trkpt>
      <trkpt lat="48.03921" lon="7.87215">
        <ele>244</ele>
        <time>2022-05-23T15:10:24Z</time>
      </trkpt>
      <trkpt lat="48.03974" lon="7.87245">
        <ele>242</ele>
        <time>2022-05-23T15:10:34Z</time>
      </trkpt>
      <trkpt lat="48.04065" lon="7.87299">
        <ele>244</ele>
        <time>2022-05-23T15:10:51Z</time>
      </trkpt>
      <trkpt lat="48.04098" lon="7.87322">
        <ele>244</ele>
        <time>2022-05-23T15:10:58Z</time>
      </trkpt>
      <trkpt lat="48.04117" lon="7.87331">
        <ele>244</ele>
        <time>2022-05-23T15:11:01Z</time>
      </trkpt>
      <trkpt lat="48.04138" lon="7.87346">
        <ele>244</ele>
        <time>2022-05-23T15:11:05Z</time>
      </trkpt>
      <trkpt lat="48.04182" lon="7.87364">
        <ele>244</ele>
        <time>2022-05-23T15:11:14Z</time>
      </trkpt>
      <trkpt lat="48.04207" lon="7.87371">
        <ele>243</ele>
        <time>2022-05-23T15:11:18Z</time>
      </trkpt>
      <trkpt lat="48.04265" lon="7.87402">
        <ele>241</ele>
        <time>2022-05-23T15:11:29Z</time>
      </trkpt>
      <trkpt lat="48.04308" lon="7.87421">
        <ele>240</ele>
        <time>2022-05-23T15:11:37Z</time>
      </trkpt>
      <trkpt lat="48.0434" lon="7.87428">
        <ele>240</ele>
        <time>2022-05-23T15:11:43Z</time>
      </trkpt>
      <trkpt lat="48.04351" lon="7.87437">
        <ele>241</ele>
        <time>2022-05-23T15:11:45Z</time>
      </trkpt>
      <trkpt lat="48.04356" lon="7.87448">
        <ele>241</ele>
        <time>2022-05-23T15:11:47Z</time>
      </trkpt>
      <trkpt lat="48.04373" lon="7.87451">
        <ele>241</ele>
        <time>2022-05-23T15:11:50Z</time>
      </trkpt>
      <trkpt lat="48.04383" lon="7.87459">
        <ele>242</ele>
        <time>2022-05-23T15:11:52Z</time>
      </trkpt>
      <trkpt lat="48.04393" lon="7.87462">
        <ele>242</ele>
        <time>2022-05-23T15:11:53Z</time>
      </trkpt>
      <trkpt lat="48.04432" lon="7.87467">
        <ele>242</ele>
        <time>2022-05-23T15:12:00Z</time>
      </trkpt>
      <trkpt lat="48.04525" lon="7.87492">
        <ele>240</ele>
        <time>2022-05-23T15:12:17Z</time>
      </trkpt>
      <trkpt lat="48.04548" lon="7.87513">
        <ele>239</ele>
        <time>2022-05-23T15:12:22Z</time>
      </trkpt>
      <trkpt lat="48.04585" lon="7.8756">
        <ele>238</ele>
        <time>2022-05-23T15:12:31Z</time>
      </trkpt>
      <trkpt lat="48.04597" lon="7.87572">
        <ele>237</ele>
        <time>2022-05-23T15:12:33Z</time>
      </trkpt>
      <trkpt lat="48.0462" lon="7.87575">
        <ele>236</ele>
        <time>2022-05-23T15:12:37Z</time>
      </trkpt>
      <trkpt lat="48.04623" lon="7.87561">
        <ele>236</ele>
        <time>2022-05-23T15:12:39Z</time>
      </trkpt>
      <trkpt lat="48.04624" lon="7.87528">
        <ele>236</ele>
        <time>2022-05-23T15:12:43Z</time>
      </trkpt>
      <trkpt lat="48.04633" lon="7.87523">
        <ele>236</ele>
        <time>2022-05-23T15:12:45Z</time>
      </trkpt>
      <trkpt lat="48.04653" lon="7.87531">
        <ele>235</ele>
        <time>2022-05-23T15:12:48Z</time>
      </trkpt>
      <trkpt lat="48.04662" lon="7.87539">
        <ele>235</ele>
        <time>2022-05-23T15:12:50Z</time>
      </trkpt>
      <trkpt lat="48.04672" lon="7.87553">
        <ele>234</ele>
        <time>2022-05-23T15:12:53Z</time>
      </trkpt>
      <trkpt lat="48.04732" lon="7.87701">
        <ele>233</ele>
        <time>2022-05-23T15:13:13Z</time>
      </trkpt>
      <trkpt lat="48.0475" lon="7.87727">
        <ele>234</ele>
        <time>2022-05-23T15:13:18Z</time>
      </trkpt>
      <trkpt lat="48.04772" lon="7.87767">
        <ele>234</ele>
        <time>2022-05-23T15:13:24Z</time>
      </trkpt>
      <trkpt lat="48.04784" lon="7.87772">
        <ele>234</ele>
        <time>2022-05-23T15:13:26Z</time>
      </trkpt>
      <trkpt lat="48.04852" lon="7.87785">
        <ele>234</ele>
        <time>2022-05-23T15:13:38Z</time>
      </trkpt>
      <trkpt lat="48.04884" lon="7.87756">
        <ele>234</ele>
        <time>2022-05-23T15:13:45Z</time>
      </trkpt>
      <trkpt lat="48.04944" lon="7.87774">
        <ele>235</ele>
        <time>2022-05-23T15:13:56Z</time>
      </trkpt>
      <trkpt lat="48.05053" lon="7.87801">
        <ele>234</ele>
        <time>2022-05-23T15:14:16Z</time>
      </trkpt>
      <trkpt lat="48.05112" lon="7.87819">
        <ele>234</ele>
        <time>2022-05-23T15:14:26Z</time>
      </trkpt>
      <trkpt lat="48.05122" lon="7.8782">
        <ele>234</ele>
        <time>2022-05-23T15:14:28Z</time>
      </trkpt>
      <trkpt lat="48.05131" lon="7.87814">
        <ele>234</ele>
        <time>2022-05-23T15:14:30Z</time>
      </trkpt>
      <trkpt lat="48.05151" lon="7.87779">
        <ele>234</ele>
        <time>2022-05-23T15:14:35Z</time>
      </trkpt>
      <trkpt lat="48.0516" lon="7.8777">
        <ele>234</ele>
        <time>2022-05-23T15:14:37Z</time>
      </trkpt>
      <trkpt lat="48.05204" lon="7.87773">
        <ele>235</ele>
        <time>2022-05-23T15:14:45Z</time>
      </trkpt>
      <trkpt lat="48.05225" lon="7.87763">
        <ele>235</ele>
        <time>2022-05-23T15:14:49Z</time>
      </trkpt>
      <trkpt lat="48.05235" lon="7.87755">
        <ele>235</ele>
        <time>2022-05-23T15:14:51Z</time>
      </trkpt>
      <trkpt lat="48.05247" lon="7.87754">
        <ele>235</ele>
        <time>2022-05-23T15:14:53Z</time>
      </trkpt>
      <trkpt lat="48.0527" lon="7.87767">
        <ele>235</ele>
        <time>2022-05-23T15:14:57Z</time>
      </trkpt>
      <trkpt lat="48.05374" lon="7.87798">
        <ele>233</ele>
        <time>2022-05-23T15:15:16Z</time>
      </trkpt>
      <trkpt lat="48.05384" lon="7.87796">
        <ele>233</ele>
        <time>2022-05-23T15:15:18Z</time>
      </trkpt>
      <trkpt lat="48.05387" lon="7.87759">
        <ele>233</ele>
        <time>2022-05-23T15:15:23Z</time>
      </trkpt>
      <trkpt lat="48.05396" lon="7.8775">
        <ele>233</ele>
        <time>2022-05-23T15:15:24Z</time>
      </trkpt>
      <trkpt lat="48.05452" lon="7.87764">
        <ele>233</ele>
        <time>2022-05-23T15:15:35Z</time>
      </trkpt>
      <trkpt lat="48.05476" lon="7.87773">
        <ele>232</ele>
        <time>2022-05-23T15:15:39Z</time>
      </trkpt>
      <trkpt lat="48.05591" lon="7.87804">
        <ele>233</ele>
        <time>2022-05-23T15:16:00Z</time>
      </trkpt>
      <trkpt lat="48.05619" lon="7.87814">
        <ele>233</ele>
        <time>2022-05-23T15:16:05Z</time>
      </trkpt>
      <trkpt lat="48.0567" lon="7.87826">
        <ele>234</ele>
        <time>2022-05-23T15:16:14Z</time>
      </trkpt>
      <trkpt lat="48.05749" lon="7.87852">
        <ele>233</ele>
        <time>2022-05-23T15:16:28Z</time>
      </trkpt>
      <trkpt lat="48.0585" lon="7.87881">
        <ele>233</ele>
        <time>2022-05-23T15:16:47Z</time>
      </trkpt>
      <trkpt lat="48.05899" lon="7.87894">
        <ele>235</ele>
        <time>2022-05-23T15:16:56Z</time>
      </trkpt>
      <trkpt lat="48.05933" lon="7.87895">
        <ele>235</ele>
        <time>2022-05-23T15:17:02Z</time>
      </trkpt>
      <trkpt lat="48.05942" lon="7.87905">
        <ele>234</ele>
        <time>2022-05-23T15:17:04Z</time>
      </trkpt>
      <trkpt lat="48.0595" lon="7.87948">
        <ele>234</ele>
        <time>2022-05-23T15:17:09Z</time>
      </trkpt>
      <trkpt lat="48.05951" lon="7.8793">
        <ele>234</ele>
        <time>2022-05-23T15:17:11Z</time>
      </trkpt>
      <trkpt lat="48.05949" lon="7.87915">
        <ele>234</ele>
        <time>2022-05-23T15:17:13Z</time>
      </trkpt>
      <trkpt lat="48.05943" lon="7.87902">
        <ele>234</ele>
        <time>2022-05-23T15:17:15Z</time>
      </trkpt>
      <trkpt lat="48.05922" lon="7.87893">
        <ele>235</ele>
        <time>2022-05-23T15:17:19Z</time>
      </trkpt>
      <trkpt lat="48.05912" lon="7.87885">
        <ele>235</ele>
        <time>2022-05-23T15:17:21Z</time>
      </trkpt>
      <trkpt lat="48.05903" lon="7.87889">
        <ele>235</ele>
        <time>2022-05-23T15:17:22Z</time>
      </trkpt>
      <trkpt lat="48.05896" lon="7.87898">
        <ele>234</ele>
        <time>2022-05-23T15:17:24Z</time>
      </trkpt>
      <trkpt lat="48.05885" lon="7.8792">
        <ele>234</ele>
        <time>2022-05-23T15:17:27Z</time>
      </trkpt>
      <trkpt lat="48.05884" lon="7.87934">
        <ele>234</ele>
        <time>2022-05-23T15:17:29Z</time>
      </trkpt>
      <trkpt lat="48.05882" lon="7.87979">
        <ele>234</ele>
        <time>2022-05-23T15:17:34Z</time>
      </trkpt>
      <trkpt lat="48.05888" lon="7.8816">
        <ele>236</ele>
        <time>2022-05-23T15:17:56Z</time>
      </trkpt>
      <trkpt lat="48.05891" lon="7.88379">
        <ele>237</ele>
        <time>2022-05-23T15:18:22Z</time>
      </trkpt>
      <trkpt lat="48.05898" lon="7.88487">
        <ele>238</ele>
        <time>2022-05-23T15:18:35Z</time>
      </trkpt>
      <trkpt lat="48.05903" lon="7.88667">
        <ele>240</ele>
        <time>2022-05-23T15:18:56Z</time>
      </trkpt>
      <trkpt lat="48.05922" lon="7.88941">
        <ele>243</ele>
        <time>2022-05-23T15:19:29Z</time>
      </trkpt>
      <trkpt lat="48.0595" lon="7.89158">
        <ele>244</ele>
        <time>2022-05-23T15:19:55Z</time>
      </trkpt>
      <trkpt lat="48.05981" lon="7.89336">
        <ele>247</ele>
        <time>2022-05-23T15:20:17Z</time>
      </trkpt>
      <trkpt lat="48.06014" lon="7.89486">
        <ele>246</ele>
        <time>2022-05-23T15:20:36Z</time>
      </trkpt>
      <trkpt lat="48.06043" lon="7.89595">
        <ele>247</ele>
        <time>2022-05-23T15:20:50Z</time>
      </trkpt>
      <trkpt lat="48.0605" lon="7.89639">
        <ele>248</ele>
        <time>2022-05-23T15:20:55Z</time>
      </trkpt>
      <trkpt lat="48.06049" lon="7.89684">
        <ele>249</ele>
        <time>2022-05-23T15:21:01Z</time>
      </trkpt>
      <trkpt lat="48.06036" lon="7.89774">
        <ele>251</ele>
        <time>2022-05-23T15:21:12Z</time>
      </trkpt>
      <trkpt lat="48.06033" lon="7.89844">
        <ele>252</ele>
        <time>2022-05-23T15:21:20Z</time>
      </trkpt>
      <trkpt lat="48.06036" lon="7.89892">
        <ele>252</ele>
        <time>2022-05-23T15:21:26Z</time>
      </trkpt>
      <trkpt lat="48.06047" lon="7.89961">
        <ele>254</ele>
        <time>2022-05-23T15:21:34Z</time>
      </trkpt>
      <trkpt lat="48.06041" lon="7.8999">
        <ele>253</ele>
        <time>2022-05-23T15:21:38Z</time>
      </trkpt>
      <trkpt lat="48.06041" lon="7.90009">
        <ele>253</ele>
        <time>2022-05-23T15:21:40Z</time>
      </trkpt>
      <trkpt lat="48.06045" lon="7.90021">
        <ele>253</ele>
        <time>2022-05-23T15:21:42Z</time>
      </trkpt>
      <trkpt lat="48.06053" lon="7.90031">
        <ele>253</ele>
        <time>2022-05-23T15:21:43Z</time>
      </trkpt>
      <trkpt lat="48.06068" lon="7.90069">
        <ele>252</ele>
        <time>2022-05-23T15:21:49Z</time>
      </trkpt>
      <trkpt lat="48.06064" lon="7.90054">
        <ele>253</ele>
        <time>2022-05-23T15:21:51Z</time>
      </trkpt>
      <trkpt lat="48.06131" lon="7.89988">
        <ele>254</ele>
        <time>2022-05-23T15:22:05Z</time>
      </trkpt>
      <trkpt lat="48.06147" lon="7.89973">
        <ele>253</ele>
        <time>2022-05-23T15:22:08Z</time>
      </trkpt>
      <trkpt lat="48.06159" lon="7.89968">
        <ele>253</ele>
        <time>2022-05-23T15:22:10Z</time>
      </trkpt>
      <trkpt lat="48.06167" lon="7.89976">
        <ele>252</ele>
        <time>2022-05-23T15:22:12Z</time>
      </trkpt>
      <trkpt lat="48.0624" lon="7.90131">
        <ele>251</ele>
        <time>2022-05-23T15:22:35Z</time>
      </trkpt>
      <trkpt lat="48.06327" lon="7.903">
        <ele>253</ele>
        <time>2022-05-23T15:23:00Z</time>
      </trkpt>
      <trkpt lat="48.06336" lon="7.90311">
        <ele>253</ele>
        <time>2022-05-23T15:23:02Z</time>
      </trkpt>
      <trkpt lat="48.06362" lon="7.90358">
        <ele>253</ele>
        <time>2022-05-23T15:23:09Z</time>
      </trkpt>
      <trkpt lat="48.06422" lon="7.90453">
        <ele>250</ele>
        <time>2022-05-23T15:23:25Z</time>
      </trkpt>
      <trkpt lat="48.06487" lon="7.90546">
        <ele>248</ele>
        <time>2022-05-23T15:23:41Z</time>
      </trkpt>
      <trkpt lat="48.06576" lon="7.90664">
        <ele>249</ele>
        <time>2022-05-23T15:24:02Z</time>
      </trkpt>
      <trkpt lat="48.0678" lon="7.90927">
        <ele>250</ele>
        <time>2022-05-23T15:24:50Z</time>
      </trkpt>
      <trkpt lat="48.06834" lon="7.90995">
        <ele>250</ele>
        <time>2022-05-23T15:25:03Z</time>
      </trkpt>
      <trkpt lat="48.06858" lon="7.91021">
        <ele>250</ele>
        <time>2022-05-23T15:25:08Z</time>
      </trkpt>
      <trkpt lat="48.06873" lon="7.91046">
        <ele>250</ele>
        <time>2022-05-23T15:25:12Z</time>
      </trkpt>
      <trkpt lat="48.06896" lon="7.91077">
        <ele>249</ele>
        <time>2022-05-23T15:25:17Z</time>
      </trkpt>
      <trkpt lat="48.06935" lon="7.91118">
        <ele>248</ele>
        <time>2022-05-23T15:25:26Z</time>
      </trkpt>
      <trkpt lat="48.06952" lon="7.91141">
        <ele>247</ele>
        <time>2022-05-23T15:25:30Z</time>
      </trkpt>
      <trkpt lat="48.06979" lon="7.91184">
        <ele>246</ele>
        <time>2022-05-23T15:25:37Z</time>
      </trkpt>
      <trkpt lat="48.0704" lon="7.91264">
        <ele>242</ele>
        <time>2022-05-23T15:25:51Z</time>
      </trkpt>
      <trkpt lat="48.07089" lon="7.91339">
        <ele>242</ele>
        <time>2022-05-23T15:26:04Z</time>
      </trkpt>
      <trkpt lat="48.07133" lon="7.91412">
        <ele>240</ele>
        <time>2022-05-23T15:26:16Z</time>
      </trkpt>
      <trkpt lat="48.07186" lon="7.9151">
        <ele>240</ele>
        <time>2022-05-23T15:26:30Z</time>
      </trkpt>
      <trkpt lat="48.07218" lon="7.9158">
        <ele>242</ele>
        <time>2022-05-23T15:26:41Z</time>
      </trkpt>
      <trkpt lat="48.07249" lon="7.91674">
        <ele>245</ele>
        <time>2022-05-23T15:26:53Z</time>
      </trkpt>
      <trkpt lat="48.07305" lon="7.91978">
        <ele>254</ele>
        <time>2022-05-23T15:27:31Z</time>
      </trkpt>
      <trkpt lat="48.07324" lon="7.92013">
        <ele>251</ele>
        <time>2022-05-23T15:27:36Z</time>
      </trkpt>
      <trkpt lat="48.0735" lon="7.92047">
        <ele>251</ele>
        <time>2022-05-23T15:27:42Z</time>
      </trkpt>
      <trkpt lat="48.0739" lon="7.92093">
        <ele>248</ele>
        <time>2022-05-23T15:27:51Z</time>
      </trkpt>
      <trkpt lat="48.07403" lon="7.92101">
        <ele>246</ele>
        <time>2022-05-23T15:27:54Z</time>
      </trkpt>
      <trkpt lat="48.07446" lon="7.92223">
        <ele>253</ele>
        <time>2022-05-23T15:28:10Z</time>
      </trkpt>
      <trkpt lat="48.07464" lon="7.9231">
        <ele>252</ele>
        <time>2022-05-23T15:28:21Z</time>
      </trkpt>
      <trkpt lat="48.07477" lon="7.92341">
        <ele>250</ele>
        <time>2022-05-23T15:28:25Z</time>
      </trkpt>
      <trkpt lat="48.07548" lon="7.9246">
        <ele>245</ele>
        <time>2022-05-23T15:28:44Z</time>
      </trkpt>
      <trkpt lat="48.07595" lon="7.92525">
        <ele>247</ele>
        <time>2022-05-23T15:28:55Z</time>
      </trkpt>
      <trkpt lat="48.07602" lon="7.92538">
        <ele>249</ele>
        <time>2022-05-23T15:28:57Z</time>
      </trkpt>
      <trkpt lat="48.07642" lon="7.92591">
        <ele>252</ele>
        <time>2022-05-23T15:29:07Z</time>
      </trkpt>
      <trkpt lat="48.07657" lon="7.92615">
        <ele>255</ele>
        <time>2022-05-23T15:29:11Z</time>
      </trkpt>
      <trkpt lat="48.07716" lon="7.92732">
        <ele>262</ele>
        <time>2022-05-23T15:29:28Z</time>
      </trkpt>
      <trkpt lat="48.07752" lon="7.92826">
        <ele>258</ele>
        <time>2022-05-23T15:29:41Z</time>
      </trkpt>
      <trkpt lat="48.07802" lon="7.92964">
        <ele>259</ele>
        <time>2022-05-23T15:30:00Z</time>
      </trkpt>
      <trkpt lat="48.0783" lon="7.93068">
        <ele>261</ele>
        <time>2022-05-23T15:30:13Z</time>
      </trkpt>
      <trkpt lat="48.07839" lon="7.93119">
        <ele>262</ele>
        <time>2022-05-23T15:30:19Z</time>
      </trkpt>
      <trkpt lat="48.07855" lon="7.93263">
        <ele>265</ele>
        <time>2022-05-23T15:30:37Z</time>
      </trkpt>
      <trkpt lat="48.07869" lon="7.93331">
        <ele>263</ele>
        <time>2022-05-23T15:30:45Z</time>
      </trkpt>
      <trkpt lat="48.07887" lon="7.93395">
        <ele>259</ele>
        <time>2022-05-23T15:30:53Z</time>
      </trkpt>
      <trkpt lat="48.07898" lon="7.93426">
        <ele>257</ele>
        <time>2022-05-23T15:30:58Z</time>
      </trkpt>
      <trkpt lat="48.07929" lon="7.93497">
        <ele>261</ele>
        <time>2022-05-23T15:31:08Z</time>
      </trkpt>
      <trkpt lat="48.07994" lon="7.93622">
        <ele>261</ele>
        <time>2022-05-23T15:31:27Z</time>
      </trkpt>
      <trkpt lat="48.08009" lon="7.93646">
        <ele>259</ele>
        <time>2022-05-23T15:31:30Z</time>
      </trkpt>
      <trkpt lat="48.08033" lon="7.93698">
        <ele>261</ele>
        <time>2022-05-23T15:31:38Z</time>
      </trkpt>
      <trkpt lat="48.08062" lon="7.93789">
        <ele>263</ele>
        <time>2022-05-23T15:31:50Z</time>
      </trkpt>
      <trkpt lat="48.08083" lon="7.93914">
        <ele>272</ele>
        <time>2022-05-23T15:32:05Z</time>
      </trkpt>
      <trkpt lat="48.08093" lon="7.93945">
        <ele>273</ele>
        <time>2022-05-23T15:32:09Z</time>
      </trkpt>
      <trkpt lat="48.08133" lon="7.94041">
        <ele>269</ele>
        <time>2022-05-23T15:32:23Z</time>
      </trkpt>
      <trkpt lat="48.08142" lon="7.9404">
        <ele>265</ele>
        <time>2022-05-23T15:32:24Z</time>
      </trkpt>
      <trkpt lat="48.08151" lon="7.94051">
        <ele>262</ele>
        <time>2022-05-23T15:32:26Z</time>
      </trkpt>
      <trkpt lat="48.08162" lon="7.94054">
        <ele>258</ele>
        <time>2022-05-23T15:32:28Z</time>
      </trkpt>
      <trkpt lat="48.08172" lon="7.94044">
        <ele>255</ele>
        <time>2022-05-23T15:32:31Z</time>
      </trkpt>
      <trkpt lat="48.08176" lon="7.94031">
        <ele>254</ele>
        <time>2022-05-23T15:32:32Z</time>
      </trkpt>
      <trkpt lat="48.08185" lon="7.9397">
        <ele>252</ele>
        <time>2022-05-23T15:32:40Z</time>
      </trkpt>
      <trkpt lat="48.082" lon="7.93909">
        <ele>250</ele>
        <time>2022-05-23T15:32:47Z</time>
      </trkpt>
      <trkpt lat="48.08205" lon="7.93881">
        <ele>249</ele>
        <time>2022-05-23T15:32:51Z</time>
      </trkpt>
      <trkpt lat="48.08203" lon="7.93868">
        <ele>249</ele>
        <time>2022-05-23T15:32:53Z</time>
      </trkpt>
      <trkpt lat="48.08207" lon="7.93855">
        <ele>248</ele>
        <time>2022-05-23T15:32:54Z</time>
      </trkpt>
      <trkpt lat="48.08228" lon="7.93862">
        <ele>247</ele>
        <time>2022-05-23T15:32:58Z</time>
      </trkpt>
      <trkpt lat="48.08327" lon="7.93924">
        <ele>245</ele>
        <time>2022-05-23T15:33:17Z</time>
      </trkpt>
      <trkpt lat="48.08366" lon="7.93954">
        <ele>247</ele>
        <time>2022-05-23T15:33:25Z</time>
      </trkpt>
      <trkpt lat="48.08441" lon="7.93996">
        <ele>248</ele>
        <time>2022-05-23T15:33:39Z</time>
      </trkpt>
      <trkpt lat="48.08486" lon="7.94027">
        <ele>250</ele>
        <time>2022-05-23T15:33:48Z</time>
      </trkpt>
      <trkpt lat="48.08534" lon="7.94056">
        <ele>249</ele>
        <time>2022-05-23T15:33:57Z</time>
      </trkpt>
      <trkpt lat="48.08552" lon="7.9407">
        <ele>248</ele>
        <time>2022-05-23T15:34:01Z</time>
      </trkpt>
      <trkpt lat="48.08681" lon="7.94148">
        <ele>249</ele>
        <time>2022-05-23T15:34:26Z</time>
      </trkpt>
      <trkpt lat="48.08705" lon="7.9417">
        <ele>249</ele>
        <time>2022-05-23T15:34:31Z</time>
      </trkpt>
      <trkpt lat="48.08818" lon="7.94253">
        <ele>250</ele>
        <time>2022-05-23T15:34:53Z</time>
      </trkpt>
      <trkpt lat="48.08871" lon="7.94297">
        <ele>250</ele>
        <time>2022-05-23T15:35:04Z</time>
      </trkpt>
      <trkpt lat="48.08923" lon="7.94332">
        <ele>250</ele>
        <time>2022-05-23T15:35:14Z</time>
      </trkpt>
      <trkpt lat="48.08933" lon="7.94342">
        <ele>250</ele>
        <time>2022-05-23T15:35:16Z</time>
      </trkpt>
      <trkpt lat="48.08966" lon="7.94354">
        <ele>251</ele>
        <time>2022-05-23T15:35:22Z</time>
      </trkpt>
      <trkpt lat="48.08982" lon="7.94373">
        <ele>251</ele>
        <time>2022-05-23T15:35:26Z</time>
      </trkpt>
      <trkpt lat="48.09009" lon="7.94444">
        <ele>252</ele>
        <time>2022-05-23T15:35:35Z</time>
      </trkpt>
      <trkpt lat="48.09038" lon="7.94554">
        <ele>251</ele>
        <time>2022-05-23T15:35:49Z</time>
      </trkpt>
      <trkpt lat="48.09058" lon="7.94651">
        <ele>252</ele>
        <time>2022-05-23T15:36:02Z</time>
      </trkpt>
      <trkpt lat="48.09088" lon="7.94777">
        <ele>255</ele>
        <time>2022-05-23T15:36:17Z</time>
      </trkpt>
      <trkpt lat="48.09087" lon="7.94791">
        <ele>256</ele>
        <time>2022-05-23T15:36:19Z</time>
      </trkpt>
      <trkpt lat="48.0909" lon="7.94806">
        <ele>256</ele>
        <time>2022-05-23T15:36:21Z</time>
      </trkpt>
      <trkpt lat="48.09136" lon="7.94882">
        <ele>257</ele>
        <time>2022-05-23T15:36:33Z</time>
      </trkpt>
      <trkpt lat="48.09146" lon="7.9489">
        <ele>257</ele>
        <time>2022-05-23T15:36:35Z</time>
      </trkpt>
      <trkpt lat="48.09215" lon="7.94968">
        <ele>259</ele>
        <time>2022-05-23T15:36:51Z</time>
      </trkpt>
      <trkpt lat="48.0923" lon="7.94991">
        <ele>257</ele>
        <time>2022-05-23T15:36:54Z</time>
      </trkpt>
      <trkpt lat="48.09263" lon="7.95052">
        <ele>258</ele>
        <time>2022-05-23T15:37:04Z</time>
      </trkpt>
      <trkpt lat="48.09278" lon="7.95074">
        <ele>258</ele>
        <time>2022-05-23T15:37:07Z</time>
      </trkpt>
      <trkpt lat="48.09305" lon="7.95208">
        <ele>261</ele>
        <time>2022-05-23T15:37:24Z</time>
      </trkpt>
      <trkpt lat="48.09315" lon="7.95283">
        <ele>262</ele>
        <time>2022-05-23T15:37:33Z</time>
      </trkpt>
      <trkpt lat="48.09315" lon="7.95299">
        <ele>262</ele>
        <time>2022-05-23T15:37:35Z</time>
      </trkpt>
      <trkpt lat="48.09329" lon="7.95357">
        <ele>263</ele>
        <time>2022-05-23T15:37:42Z</time>
      </trkpt>
      <trkpt lat="48.0934" lon="7.95423">
        <ele>263</ele>
        <time>2022-05-23T15:37:50Z</time>
      </trkpt>
      <trkpt lat="48.09348" lon="7.95525">
        <ele>262</ele>
        <time>2022-05-23T15:38:03Z</time>
      </trkpt>
      <trkpt lat="48.09359" lon="7.95575">
        <ele>262</ele>
        <time>2022-05-23T15:38:09Z</time>
      </trkpt>
      <trkpt lat="48.09358" lon="7.95593">
        <ele>262</ele>
        <time>2022-05-23T15:38:11Z</time>
      </trkpt>
      <trkpt lat="48.09361" lon="7.95644">
        <ele>263</ele>
        <time>2022-05-23T15:38:17Z</time>
      </trkpt>
      <trkpt lat="48.09366" lon="7.95692">
        <ele>264</ele>
        <time>2022-05-23T15:38:23Z</time>
      </trkpt>
      <trkpt lat="48.09367" lon="7.95756">
        <ele>265</ele>
        <time>2022-05-23T15:38:31Z</time>
      </trkpt>
      <trkpt lat="48.09378" lon="7.9579">
        <ele>265</ele>
        <time>2022-05-23T15:38:35Z</time>
      </trkpt>
      <trkpt lat="48.09384" lon="7.958">
        <ele>265</ele>
        <time>2022-05-23T15:38:37Z</time>
      </trkpt>
      <trkpt lat="48.09394" lon="7.95829">
        <ele>265</ele>
        <time>2022-05-23T15:38:41Z</time>
      </trkpt>
      <trkpt lat="48.09409" lon="7.95862">
        <ele>266</ele>
        <time>2022-05-23T15:38:45Z</time>
      </trkpt>
      <trkpt lat="48.09411" lon="7.95878">
        <ele>266</ele>
        <time>2022-05-23T15:38:47Z</time>
      </trkpt>
      <trkpt lat="48.09392" lon="7.95914">
        <ele>266</ele>
        <time>2022-05-23T15:38:53Z</time>
      </trkpt>
      <trkpt lat="48.09403" lon="7.9594">
        <ele>266</ele>
        <time>2022-05-23T15:38:56Z</time>
      </trkpt>
      <trkpt lat="48.09416" lon="7.95963">
        <ele>266</ele>
        <time>2022-05-23T15:39:00Z</time>
      </trkpt>
      <trkpt lat="48.09432" lon="7.96003">
        <ele>265</ele>
        <time>2022-05-23T15:39:05Z</time>
      </trkpt>
      <trkpt lat="48.09424" lon="7.96017">
        <ele>266</ele>
        <time>2022-05-23T15:39:08Z</time>
      </trkpt>
      <trkpt lat="48.09415" lon="7.96027">
        <ele>267</ele>
        <time>2022-05-23T15:39:10Z</time>
      </trkpt>
      <trkpt lat="48.09409" lon="7.96041">
        <ele>268</ele>
        <time>2022-05-23T15:39:12Z</time>
      </trkpt>
      <trkpt lat="48.09395" lon="7.96063">
        <ele>269</ele>
        <time>2022-05-23T15:39:15Z</time>
      </trkpt>
      <trkpt lat="48.09393" lon="7.96077">
        <ele>269</ele>
        <time>2022-05-23T15:39:17Z</time>
      </trkpt>
      <trkpt lat="48.09362" lon="7.96116">
        <ele>270</ele>
        <time>2022-05-23T15:39:24Z</time>
      </trkpt>
      <trkpt lat="48.09339" lon="7.96168">
        <ele>271</ele>
        <time>2022-05-23T15:39:32Z</time>
      </trkpt>
      <trkpt lat="48.09315" lon="7.9621">
        <ele>271</ele>
        <time>2022-05-23T15:39:38Z</time>
      </trkpt>
      <trkpt lat="48.09292" lon="7.96239">
        <ele>272</ele>
        <time>2022-05-23T15:39:43Z</time>
      </trkpt>
      <trkpt lat="48.09279" lon="7.9626">
        <ele>272</ele>
        <time>2022-05-23T15:39:47Z</time>
      </trkpt>
      <trkpt lat="48.09273" lon="7.96272">
        <ele>273</ele>
        <time>2022-05-23T15:39:49Z</time>
      </trkpt>
      <trkpt lat="48.0927" lon="7.96304">
        <ele>273</ele>
        <time>2022-05-23T15:39:52Z</time>
      </trkpt>
      <trkpt lat="48.09255" lon="7.96326">
        <ele>274</ele>
        <time>2022-05-23T15:39:56Z</time>
      </trkpt>
      <trkpt lat="48.09246" lon="7.96334">
        <ele>274</ele>
        <time>2022-05-23T15:39:58Z</time>
      </trkpt>
      <trkpt lat="48.0924" lon="7.96345">
        <ele>274</ele>
        <time>2022-05-23T15:40:00Z</time>
      </trkpt>
      <trkpt lat="48.092" lon="7.96395">
        <ele>276</ele>
        <time>2022-05-23T15:40:09Z</time>
      </trkpt>
      <trkpt lat="48.09204" lon="7.96407">
        <ele>276</ele>
        <time>2022-05-23T15:40:11Z</time>
      </trkpt>
      <trkpt lat="48.09219" lon="7.96429">
        <ele>276</ele>
        <time>2022-05-23T15:40:14Z</time>
      </trkpt>
      <trkpt lat="48.09224" lon="7.96444">
        <ele>276</ele>
        <time>2022-05-23T15:40:16Z</time>
      </trkpt>
      <trkpt lat="48.0922" lon="7.96457">
        <ele>276</ele>
        <time>2022-05-23T15:40:18Z</time>
      </trkpt>
      <trkpt lat="48.09211" lon="7.96464">
        <ele>277</ele>
        <time>2022-05-23T15:40:20Z</time>
      </trkpt>
      <trkpt lat="48.09198" lon="7.96489">
        <ele>277</ele>
        <time>2022-05-23T15:40:24Z</time>
      </trkpt>
      <trkpt lat="48.09173" lon="7.96519">
        <ele>277</ele>
        <time>2022-05-23T15:40:29Z</time>
      </trkpt>
      <trkpt lat="48.09148" lon="7.96555">
        <ele>278</ele>
        <time>2022-05-23T15:40:35Z</time>
      </trkpt>
      <trkpt lat="48.09136" lon="7.96583">
        <ele>279</ele>
        <time>2022-05-23T15:40:39Z</time>
      </trkpt>
      <trkpt lat="48.09134" lon="7.96597">
        <ele>280</ele>
        <time>2022-05-23T15:40:41Z</time>
      </trkpt>
      <trkpt lat="48.09106" lon="7.96663">
        <ele>282</ele>
        <time>2022-05-23T15:40:50Z</time>
      </trkpt>
      <trkpt lat="48.09103" lon="7.96677">
        <ele>282</ele>
        <time>2022-05-23T15:40:52Z</time>
      </trkpt>
      <trkpt lat="48.09104" lon="7.9671">
        <ele>283</ele>
        <time>2022-05-23T15:40:56Z</time>
      </trkpt>
      <trkpt lat="48.09112" lon="7.96741">
        <ele>283</ele>
        <time>2022-05-23T15:41:00Z</time>
      </trkpt>
      <trkpt lat="48.09111" lon="7.96776">
        <ele>284</ele>
        <time>2022-05-23T15:41:04Z</time>
      </trkpt>
      <trkpt lat="48.09113" lon="7.96808">
        <ele>286</ele>
        <time>2022-05-23T15:41:08Z</time>
      </trkpt>
      <trkpt lat="48.09129" lon="7.96893">
        <ele>289</ele>
        <time>2022-05-23T15:41:19Z</time>
      </trkpt>
      <trkpt lat="48.09139" lon="7.96934">
        <ele>291</ele>
        <time>2022-05-23T15:41:24Z</time>
      </trkpt>
      <trkpt lat="48.0914" lon="7.96965">
        <ele>292</ele>
        <time>2022-05-23T15:41:27Z</time>
      </trkpt>
      <trkpt lat="48.09151" lon="7.97038">
        <ele>296</ele>
        <time>2022-05-23T15:41:36Z</time>
      </trkpt>
      <trkpt lat="48.09152" lon="7.97094">
        <ele>300</ele>
        <time>2022-05-23T15:41:43Z</time>
      </trkpt>
      <trkpt lat="48.09158" lon="7.97156">
        <ele>303</ele>
        <time>2022-05-23T15:41:50Z</time>
      </trkpt>
      <trkpt lat="48.09165" lon="7.97197">
        <ele>304</ele>
        <time>2022-05-23T15:41:55Z</time>
      </trkpt>
      <trkpt lat="48.09157" lon="7.97204">
        <ele>304</ele>
        <time>2022-05-23T15:41:57Z</time>
      </trkpt>
      <trkpt lat="48.09144" lon="7.97257">
        <ele>308</ele>
        <time>2022-05-23T15:42:04Z</time>
      </trkpt>
      <trkpt lat="48.09144" lon="7.97286">
        <ele>309</ele>
        <time>2022-05-23T15:42:07Z</time>
      </trkpt>
      <trkpt lat="48.09152" lon="7.97329">
        <ele>309</ele>
        <time>2022-05-23T15:42:13Z</time>
      </trkpt>
      <trkpt lat="48.09191" lon="7.97434">
        <ele>314</ele>
        <time>2022-05-23T15:42:27Z</time>
      </trkpt>
      <trkpt lat="48.09198" lon="7.97445">
        <ele>314</ele>
        <time>2022-05-23T15:42:29Z</time>
      </trkpt>
      <trkpt lat="48.09263" lon="7.97515">
        <ele>315</ele>
        <time>2022-05-23T15:42:43Z</time>
      </trkpt>
      <trkpt lat="48.09287" lon="7.9755">
        <ele>317</ele>
        <time>2022-05-23T15:42:49Z</time>
      </trkpt>
      <trkpt lat="48.09316" lon="7.97601">
        <ele>318</ele>
        <time>2022-05-23T15:42:57Z</time>
      </trkpt>
      <trkpt lat="48.09369" lon="7.97707">
        <ele>320</ele>
        <time>2022-05-23T15:43:13Z</time>
      </trkpt>
      <trkpt lat="48.09384" lon="7.97751">
        <ele>321</ele>
        <time>2022-05-23T15:43:18Z</time>
      </trkpt>
      <trkpt lat="48.0939" lon="7.97807">
        <ele>321</ele>
        <time>2022-05-23T15:43:25Z</time>
      </trkpt>
      <trkpt lat="48.09386" lon="7.97885">
        <ele>324</ele>
        <time>2022-05-23T15:43:34Z</time>
      </trkpt>
      <trkpt lat="48.09383" lon="7.97898">
        <ele>325</ele>
        <time>2022-05-23T15:43:36Z</time>
      </trkpt>
      <trkpt lat="48.09384" lon="7.97917">
        <ele>326</ele>
        <time>2022-05-23T15:43:38Z</time>
      </trkpt>
      <trkpt lat="48.09391" lon="7.97947">
        <ele>326</ele>
        <time>2022-05-23T15:43:42Z</time>
      </trkpt>
      <trkpt lat="48.09382" lon="7.9796">
        <ele>329</ele>
        <time>2022-05-23T15:43:44Z</time>
      </trkpt>
      <trkpt lat="48.09376" lon="7.97989">
        <ele>331</ele>
        <time>2022-05-23T15:43:48Z</time>
      </trkpt>
      <trkpt lat="48.09369" lon="7.98048">
        <ele>335</ele>
        <time>2022-05-23T15:43:55Z</time>
      </trkpt>
      <trkpt lat="48.09353" lon="7.98121">
        <ele>342</ele>
        <time>2022-05-23T15:44:04Z</time>
      </trkpt>
      <trkpt lat="48.09347" lon="7.98193">
        <ele>349</ele>
        <time>2022-05-23T15:44:13Z</time>
      </trkpt>
      <trkpt lat="48.0935" lon="7.98208">
        <ele>349</ele>
        <time>2022-05-23T15:44:15Z</time>
      </trkpt>
      <trkpt lat="48.09342" lon="7.98282">
        <ele>354</ele>
        <time>2022-05-23T15:44:24Z</time>
      </trkpt>
      <trkpt lat="48.09338" lon="7.98295">
        <ele>355</ele>
        <time>2022-05-23T15:44:25Z</time>
      </trkpt>
      <trkpt lat="48.09319" lon="7.98326">
        <ele>362</ele>
        <time>2022-05-23T15:44:30Z</time>
      </trkpt>
      <trkpt lat="48.09279" lon="7.98369">
        <ele>376</ele>
        <time>2022-05-23T15:44:39Z</time>
      </trkpt>
      <trkpt lat="48.0927" lon="7.98375">
        <ele>379</ele>
        <time>2022-05-23T15:44:41Z</time>
      </trkpt>
      <trkpt lat="48.09248" lon="7.98401">
        <ele>383</ele>
        <time>2022-05-23T15:44:46Z</time>
      </trkpt>
      <trkpt lat="48.09187" lon="7.98443">
        <ele>399</ele>
        <time>2022-05-23T15:44:58Z</time>
      </trkpt>
      <trkpt lat="48.09179" lon="7.98452">
        <ele>401</ele>
        <time>2022-05-23T15:45:00Z</time>
      </trkpt>
      <trkpt lat="48.09174" lon="7.98464">
        <ele>402</ele>
        <time>2022-05-23T15:45:01Z</time>
      </trkpt>
      <trkpt lat="48.09176" lon="7.98477">
        <ele>401</ele>
        <time>2022-05-23T15:45:03Z</time>
      </trkpt>
      <trkpt lat="48.09199" lon="7.98507">
        <ele>395</ele>
        <time>2022-05-23T15:45:08Z</time>
      </trkpt>
      <trkpt lat="48.09204" lon="7.9852">
        <ele>396</ele>
        <time>2022-05-23T15:45:10Z</time>
      </trkpt>
      <trkpt lat="48.09211" lon="7.98529">
        <ele>397</ele>
        <time>2022-05-23T15:45:12Z</time>
      </trkpt>
      <trkpt lat="48.09221" lon="7.98534">
        <ele>396</ele>
        <time>2022-05-23T15:45:14Z</time>
      </trkpt>
      <trkpt lat="48.09265" lon="7.9857">
        <ele>400</ele>
        <time>2022-05-23T15:45:22Z</time>
      </trkpt>
      <trkpt lat="48.09274" lon="7.98575">
        <ele>401</ele>
        <time>2022-05-23T15:45:24Z</time>
      </trkpt>
      <trkpt lat="48.09313" lon="7.98585">
        <ele>405</ele>
        <time>2022-05-23T15:45:31Z</time>
      </trkpt>
      <trkpt lat="48.09381" lon="7.98592">
        <ele>403</ele>
        <time>2022-05-23T15:45:43Z</time>
      </trkpt>
      <trkpt lat="48.09397" lon="7.98611">
        <ele>401</ele>
        <time>2022-05-23T15:45:47Z</time>
      </trkpt>
      <trkpt lat="48.09399" lon="7.98627">
        <ele>401</ele>
        <time>2022-05-23T15:45:49Z</time>
      </trkpt>
      <trkpt lat="48.09385" lon="7.98648">
        <ele>404</ele>
        <time>2022-05-23T15:45:52Z</time>
      </trkpt>
      <trkpt lat="48.09369" lon="7.98661">
        <ele>409</ele>
        <time>2022-05-23T15:45:56Z</time>
      </trkpt>
      <trkpt lat="48.09359" lon="7.98666">
        <ele>411</ele>
        <time>2022-05-23T15:45:58Z</time>
      </trkpt>
      <trkpt lat="48.09307" lon="7.98707">
        <ele>417</ele>
        <time>2022-05-23T15:46:08Z</time>
      </trkpt>
      <trkpt lat="48.09271" lon="7.9873">
        <ele>420</ele>
        <time>2022-05-23T15:46:15Z</time>
      </trkpt>
      <trkpt lat="48.0926" lon="7.98734">
        <ele>422</ele>
        <time>2022-05-23T15:46:17Z</time>
      </trkpt>
      <trkpt lat="48.0922" lon="7.9874">
        <ele>425</ele>
        <time>2022-05-23T15:46:24Z</time>
      </trkpt>
      <trkpt lat="48.09191" lon="7.98747">
        <ele>427</ele>
        <time>2022-05-23T15:46:29Z</time>
      </trkpt>
      <trkpt lat="48.09133" lon="7.98755">
        <ele>433</ele>
        <time>2022-05-23T15:46:40Z</time>
      </trkpt>
      <trkpt lat="48.09086" lon="7.98775">
        <ele>437</ele>
        <time>2022-05-23T15:46:48Z</time>
      </trkpt>
      <trkpt lat="48.09047" lon="7.98788">
        <ele>438</ele>
        <time>2022-05-23T15:46:56Z</time>
      </trkpt>
      <trkpt lat="48.09018" lon="7.98794">
        <ele>439</ele>
        <time>2022-05-23T15:47:01Z</time>
      </trkpt>
      <trkpt lat="48.08999" lon="7.98792">
        <ele>440</ele>
        <time>2022-05-23T15:47:04Z</time>
      </trkpt>
      <trkpt lat="48.08991" lon="7.98785">
        <ele>441</ele>
        <time>2022-05-23T15:47:06Z</time>
      </trkpt>
      <trkpt lat="48.08952" lon="7.98735">
        <ele>450</ele>
        <time>2022-05-23T15:47:15Z</time>
      </trkpt>
      <trkpt lat="48.08934" lon="7.98721">
        <ele>452</ele>
        <time>2022-05-23T15:47:19Z</time>
      </trkpt>
      <trkpt lat="48.08917" lon="7.98712">
        <ele>454</ele>
        <time>2022-05-23T15:47:22Z</time>
      </trkpt>
      <trkpt lat="48.08906" lon="7.98711">
        <ele>455</ele>
        <time>2022-05-23T15:47:24Z</time>
      </trkpt>
      <trkpt lat="48.08887" lon="7.98705">
        <ele>458</ele>
        <time>2022-05-23T15:47:27Z</time>
      </trkpt>
      <trkpt lat="48.08868" lon="7.98704">
        <ele>459</ele>
        <time>2022-05-23T15:47:31Z</time>
      </trkpt>
      <trkpt lat="48.08858" lon="7.98698">
        <ele>462</ele>
        <time>2022-05-23T15:47:32Z</time>
      </trkpt>
      <trkpt lat="48.0884" lon="7.98693">
        <ele>466</ele>
        <time>2022-05-23T15:47:36Z</time>
      </trkpt>
      <trkpt lat="48.08831" lon="7.987">
        <ele>464</ele>
        <time>2022-05-23T15:47:37Z</time>
      </trkpt>
      <trkpt lat="48.08822" lon="7.98702">
        <ele>465</ele>
        <time>2022-05-23T15:47:39Z</time>
      </trkpt>
      <trkpt lat="48.08813" lon="7.987">
        <ele>467</ele>
        <time>2022-05-23T15:47:41Z</time>
      </trkpt>
      <trkpt lat="48.08793" lon="7.98706">
        <ele>469</ele>
        <time>2022-05-23T15:47:44Z</time>
      </trkpt>
      <trkpt lat="48.08774" lon="7.98715">
        <ele>469</ele>
        <time>2022-05-23T15:47:48Z</time>
      </trkpt>
      <trkpt lat="48.08755" lon="7.98715">
        <ele>472</ele>
        <time>2022-05-23T15:47:51Z</time>
      </trkpt>
      <trkpt lat="48.08737" lon="7.98733">
        <ele>469</ele>
        <time>2022-05-23T15:47:55Z</time>
      </trkpt>
      <trkpt lat="48.08728" lon="7.98735">
        <ele>471</ele>
        <time>2022-05-23T15:47:57Z</time>
      </trkpt>
      <trkpt lat="48.08708" lon="7.9875">
        <ele>470</ele>
        <time>2022-05-23T15:48:01Z</time>
      </trkpt>
      <trkpt lat="48.08699" lon="7.98752">
        <ele>471</ele>
        <time>2022-05-23T15:48:02Z</time>
      </trkpt>
      <trkpt lat="48.08655" lon="7.98787">
        <ele>471</ele>
        <time>2022-05-23T15:48:11Z</time>
      </trkpt>
      <trkpt lat="48.08625" lon="7.98796">
        <ele>475</ele>
        <time>2022-05-23T15:48:17Z</time>
      </trkpt>
      <trkpt lat="48.08615" lon="7.98795">
        <ele>477</ele>
        <time>2022-05-23T15:48:18Z</time>
      </trkpt>
      <trkpt lat="48.08597" lon="7.98801">
        <ele>480</ele>
        <time>2022-05-23T15:48:22Z</time>
      </trkpt>
      <trkpt lat="48.08571" lon="7.98821">
        <ele>479</ele>
        <time>2022-05-23T15:48:27Z</time>
      </trkpt>
      <trkpt lat="48.08485" lon="7.98856">
        <ele>486</ele>
        <time>2022-05-23T15:48:43Z</time>
      </trkpt>
      <trkpt lat="48.08464" lon="7.98862">
        <ele>489</ele>
        <time>2022-05-23T15:48:47Z</time>
      </trkpt>
      <trkpt lat="48.08445" lon="7.98872">
        <ele>491</ele>
        <time>2022-05-23T15:48:50Z</time>
      </trkpt>
      <trkpt lat="48.08435" lon="7.98874">
        <ele>492</ele>
        <time>2022-05-23T15:48:52Z</time>
      </trkpt>
      <trkpt lat="48.08398" lon="7.989">
        <ele>494</ele>
        <time>2022-05-23T15:48:59Z</time>
      </trkpt>
      <trkpt lat="48.08355" lon="7.98937">
        <ele>499</ele>
        <time>2022-05-23T15:49:08Z</time>
      </trkpt>
      <trkpt lat="48.08346" lon="7.98942">
        <ele>501</ele>
        <time>2022-05-23T15:49:10Z</time>
      </trkpt>
      <trkpt lat="48.08338" lon="7.98951">
        <ele>501</ele>
        <time>2022-05-23T15:49:12Z</time>
      </trkpt>
      <trkpt lat="48.0832" lon="7.98961">
        <ele>504</ele>
        <time>2022-05-23T15:49:15Z</time>
      </trkpt>
      <trkpt lat="48.08312" lon="7.98969">
        <ele>505</ele>
        <time>2022-05-23T15:49:17Z</time>
      </trkpt>
      <trkpt lat="48.08203" lon="7.99034">
        <ele>522</ele>
        <time>2022-05-23T15:49:38Z</time>
      </trkpt>
      <trkpt lat="48.08147" lon="7.99058">
        <ele>527</ele>
        <time>2022-05-23T15:49:48Z</time>
      </trkpt>
      <trkpt lat="48.08129" lon="7.99062">
        <ele>528</ele>
        <time>2022-05-23T15:49:51Z</time>
      </trkpt>
      <trkpt lat="48.08109" lon="7.99062">
        <ele>531</ele>
        <time>2022-05-23T15:49:55Z</time>
      </trkpt>
      <trkpt lat="48.08069" lon="7.99057">
        <ele>540</ele>
        <time>2022-05-23T15:50:02Z</time>
      </trkpt>
      <trkpt lat="48.08031" lon="7.9906">
        <ele>546</ele>
        <time>2022-05-23T15:50:09Z</time>
      </trkpt>
      <trkpt lat="48.07985" lon="7.99078">
        <ele>547</ele>
        <time>2022-05-23T15:50:17Z</time>
      </trkpt>
      <trkpt lat="48.07975" lon="7.99077">
        <ele>549</ele>
        <time>2022-05-23T15:50:19Z</time>
      </trkpt>
      <trkpt lat="48.07956" lon="7.99084">
        <ele>549</ele>
        <time>2022-05-23T15:50:22Z</time>
      </trkpt>
      <trkpt lat="48.07889" lon="7.99094">
        <ele>562</ele>
        <time>2022-05-23T15:50:34Z</time>
      </trkpt>
      <trkpt lat="48.0778" lon="7.99159">
        <ele>569</ele>
        <time>2022-05-23T15:50:55Z</time>
      </trkpt>
      <trkpt lat="48.0777" lon="7.9916">
        <ele>571</ele>
        <time>2022-05-23T15:50:57Z</time>
      </trkpt>
      <trkpt lat="48.07752" lon="7.99173">
        <ele>572</ele>
        <time>2022-05-23T15:51:01Z</time>
      </trkpt>
      <trkpt lat="48.07678" lon="7.99212">
        <ele>584</ele>
        <time>2022-05-23T15:51:15Z</time>
      </trkpt>
      <trkpt lat="48.07604" lon="7.99246">
        <ele>591</ele>
        <time>2022-05-23T15:51:28Z</time>
      </trkpt>
      <trkpt lat="48.07568" lon="7.9927">
        <ele>598</ele>
        <time>2022-05-23T15:51:35Z</time>
      </trkpt>
      <trkpt lat="48.07561" lon="7.9928">
        <ele>599</ele>
        <time>2022-05-23T15:51:37Z</time>
      </trkpt>
      <trkpt lat="48.07535" lon="7.99303">
        <ele>602</ele>
        <time>2022-05-23T15:51:42Z</time>
      </trkpt>
      <trkpt lat="48.07516" lon="7.99313">
        <ele>604</ele>
        <time>2022-05-23T15:51:46Z</time>
      </trkpt>
      <trkpt lat="48.07501" lon="7.99329">
        <ele>603</ele>
        <time>2022-05-23T15:51:49Z</time>
      </trkpt>
      <trkpt lat="48.07474" lon="7.99348">
        <ele>609</ele>
        <time>2022-05-23T15:51:55Z</time>
      </trkpt>
      <trkpt lat="48.07449" lon="7.99371">
        <ele>612</ele>
        <time>2022-05-23T15:52:00Z</time>
      </trkpt>
      <trkpt lat="48.07431" lon="7.99383">
        <ele>612</ele>
        <time>2022-05-23T15:52:03Z</time>
      </trkpt>
      <trkpt lat="48.07413" lon="7.99392">
        <ele>611</ele>
        <time>2022-05-23T15:52:07Z</time>
      </trkpt>
      <trkpt lat="48.07403" lon="7.99394">
        <ele>613</ele>
        <time>2022-05-23T15:52:08Z</time>
      </trkpt>
      <trkpt lat="48.07395" lon="7.99402">
        <ele>612</ele>
        <time>2022-05-23T15:52:10Z</time>
      </trkpt>
      <trkpt lat="48.07375" lon="7.99415">
        <ele>613</ele>
        <time>2022-05-23T15:52:14Z</time>
      </trkpt>
      <trkpt lat="48.07368" lon="7.99426">
        <ele>614</ele>
        <time>2022-05-23T15:52:16Z</time>
      </trkpt>
      <trkpt lat="48.07367" lon="7.99454">
        <ele>615</ele>
        <time>2022-05-23T15:52:19Z</time>
      </trkpt>
      <trkpt lat="48.07359" lon="7.99462">
        <ele>616</ele>
        <time>2022-05-23T15:52:21Z</time>
      </trkpt>
      <trkpt lat="48.07356" lon="7.99475">
        <ele>616</ele>
        <time>2022-05-23T15:52:23Z</time>
      </trkpt>
      <trkpt lat="48.07347" lon="7.99475">
        <ele>616</ele>
        <time>2022-05-23T15:52:24Z</time>
      </trkpt>
      <trkpt lat="48.07338" lon="7.99471">
        <ele>616</ele>
        <time>2022-05-23T15:52:26Z</time>
      </trkpt>
      <trkpt lat="48.08084" lon="7.9875">
        <ele>634</ele>
        <time>2022-05-23T15:55:04Z</time>
      </trkpt>
      <trkpt lat="48.08091" lon="7.98758">
        <ele>632</ele>
        <time>2022-05-23T15:55:05Z</time>
      </trkpt>
      <trkpt lat="48.08084" lon="7.9879">
        <ele>629</ele>
        <time>2022-05-23T15:55:09Z</time>
      </trkpt>
      <trkpt lat="48.08075" lon="7.98801">
        <ele>629</ele>
        <time>2022-05-23T15:55:11Z</time>
      </trkpt>
      <trkpt lat="48.0802" lon="7.98852">
        <ele>630</ele>
        <time>2022-05-23T15:55:23Z</time>
      </trkpt>
      <trkpt lat="48.07983" lon="7.98893">
        <ele>622</ele>
        <time>2022-05-23T15:55:31Z</time>
      </trkpt>
      <trkpt lat="48.07973" lon="7.98897">
        <ele>622</ele>
        <time>2022-05-23T15:55:33Z</time>
      </trkpt>
      <trkpt lat="48.07963" lon="7.98905">
        <ele>621</ele>
        <time>2022-05-23T15:55:35Z</time>
      </trkpt>
      <trkpt lat="48.07928" lon="7.98914">
        <ele>622</ele>
        <time>2022-05-23T15:55:41Z</time>
      </trkpt>
      <trkpt lat="48.07897" lon="7.9893">
        <ele>621</ele>
        <time>2022-05-23T15:55:47Z</time>
      </trkpt>
      <trkpt lat="48.07832" lon="7.98949">
        <ele>625</ele>
        <time>2022-05-23T15:55:59Z</time>
      </trkpt>
      <trkpt lat="48.07842" lon="7.98952">
        <ele>623</ele>
        <time>2022-05-23T15:56:01Z</time>
      </trkpt>
      <trkpt lat="48.07868" lon="7.9895">
        <ele>619</ele>
        <time>2022-05-23T15:56:05Z</time>
      </trkpt>
      <trkpt lat="48.07925" lon="7.98957">
        <ele>606</ele>
        <time>2022-05-23T15:56:16Z</time>
      </trkpt>
      <trkpt lat="48.07958" lon="7.98948">
        <ele>604</ele>
        <time>2022-05-23T15:56:22Z</time>
      </trkpt>
      <trkpt lat="48.08028" lon="7.9892">
        <ele>603</ele>
        <time>2022-05-23T15:56:34Z</time>
      </trkpt>
      <trkpt lat="48.08087" lon="7.98908">
        <ele>594</ele>
        <time>2022-05-23T15:56:45Z</time>
      </trkpt>
      <trkpt lat="48.08137" lon="7.98903">
        <ele>584</ele>
        <time>2022-05-23T15:56:54Z</time>
      </trkpt>
      <trkpt lat="48.08151" lon="7.98898">
        <ele>583</ele>
        <time>2022-05-23T15:56:57Z</time>
      </trkpt>
      <trkpt lat="48.08183" lon="7.9886">
        <ele>586</ele>
        <time>2022-05-23T15:57:04Z</time>
      </trkpt>
      <trkpt lat="48.08224" lon="7.98834">
        <ele>581</ele>
        <time>2022-05-23T15:57:12Z</time>
      </trkpt>
      <trkpt lat="48.0825" lon="7.98813">
        <ele>578</ele>
        <time>2022-05-23T15:57:17Z</time>
      </trkpt>
      <trkpt lat="48.08308" lon="7.9878">
        <ele>571</ele>
        <time>2022-05-23T15:57:28Z</time>
      </trkpt>
      <trkpt lat="48.08342" lon="7.98764">
        <ele>565</ele>
        <time>2022-05-23T15:57:34Z</time>
      </trkpt>
      <trkpt lat="48.08375" lon="7.98731">
        <ele>561</ele>
        <time>2022-05-23T15:57:41Z</time>
      </trkpt>
      <trkpt lat="48.08413" lon="7.98668">
        <ele>562</ele>
        <time>2022-05-23T15:57:51Z</time>
      </trkpt>
      <trkpt lat="48.08451" lon="7.9863">
        <ele>553</ele>
        <time>2022-05-23T15:58:00Z</time>
      </trkpt>
      <trkpt lat="48.08468" lon="7.98621">
        <ele>551</ele>
        <time>2022-05-23T15:58:03Z</time>
      </trkpt>
      <trkpt lat="48.08478" lon="7.98619">
        <ele>549</ele>
        <time>2022-05-23T15:58:05Z</time>
      </trkpt>
      <trkpt lat="48.08518" lon="7.98618">
        <ele>543</ele>
        <time>2022-05-23T15:58:12Z</time>
      </trkpt>
      <trkpt lat="48.08554" lon="7.98612">
        <ele>537</ele>
        <time>2022-05-23T15:58:18Z</time>
      </trkpt>
      <trkpt lat="48.08619" lon="7.98586">
        <ele>531</ele>
        <time>2022-05-23T15:58:30Z</time>
      </trkpt>
      <trkpt lat="48.0866" lon="7.98562">
        <ele>525</ele>
        <time>2022-05-23T15:58:38Z</time>
      </trkpt>
      <trkpt lat="48.08689" lon="7.98548">
        <ele>524</ele>
        <time>2022-05-23T15:58:43Z</time>
      </trkpt>
      <trkpt lat="48.08705" lon="7.98537">
        <ele>523</ele>
        <time>2022-05-23T15:58:47Z</time>
      </trkpt>
      <trkpt lat="48.08731" lon="7.98509">
        <ele>525</ele>
        <time>2022-05-23T15:58:52Z</time>
      </trkpt>
      <trkpt lat="48.08744" lon="7.98478">
        <ele>524</ele>
        <time>2022-05-23T15:58:57Z</time>
      </trkpt>
      <trkpt lat="48.0876" lon="7.98452">
        <ele>519</ele>
        <time>2022-05-23T15:59:01Z</time>
      </trkpt>
      <trkpt lat="48.08771" lon="7.98448">
        <ele>516</ele>
        <time>2022-05-23T15:59:03Z</time>
      </trkpt>
      <trkpt lat="48.08783" lon="7.98457">
        <ele>513</ele>
        <time>2022-05-23T15:59:05Z</time>
      </trkpt>
      <trkpt lat="48.08813" lon="7.98544">
        <ele>506</ele>
        <time>2022-05-23T15:59:17Z</time>
      </trkpt>
      <trkpt lat="48.08812" lon="7.9856">
        <ele>506</ele>
        <time>2022-05-23T15:59:19Z</time>
      </trkpt>
      <trkpt lat="48.08798" lon="7.98574">
        <ele>509</ele>
        <time>2022-05-23T15:59:22Z</time>
      </trkpt>
      <trkpt lat="48.08759" lon="7.98602">
        <ele>511</ele>
        <time>2022-05-23T15:59:29Z</time>
      </trkpt>
      <trkpt lat="48.08679" lon="7.9865">
        <ele>508</ele>
        <time>2022-05-23T15:59:45Z</time>
      </trkpt>
      <trkpt lat="48.08651" lon="7.98678">
        <ele>506</ele>
        <time>2022-05-23T15:59:51Z</time>
      </trkpt>
      <trkpt lat="48.08574" lon="7.98789">
        <ele>488</ele>
        <time>2022-05-23T16:00:10Z</time>
      </trkpt>
      <trkpt lat="48.08573" lon="7.98807">
        <ele>483</ele>
        <time>2022-05-23T16:00:12Z</time>
      </trkpt>
      <trkpt lat="48.086" lon="7.98807">
        <ele>477</ele>
        <time>2022-05-23T16:00:17Z</time>
      </trkpt>
      <trkpt lat="48.0862" lon="7.98793">
        <ele>477</ele>
        <time>2022-05-23T16:00:21Z</time>
      </trkpt>
      <trkpt lat="48.08678" lon="7.98765">
        <ele>472</ele>
        <time>2022-05-23T16:00:32Z</time>
      </trkpt>
      <trkpt lat="48.08749" lon="7.98721">
        <ele>471</ele>
        <time>2022-05-23T16:00:45Z</time>
      </trkpt>
      <trkpt lat="48.08778" lon="7.98708">
        <ele>471</ele>
        <time>2022-05-23T16:00:51Z</time>
      </trkpt>
      <trkpt lat="48.08808" lon="7.98701">
        <ele>468</ele>
        <time>2022-05-23T16:00:56Z</time>
      </trkpt>
      <trkpt lat="48.08828" lon="7.98699">
        <ele>465</ele>
        <time>2022-05-23T16:01:00Z</time>
      </trkpt>
      <trkpt lat="48.08868" lon="7.98701">
        <ele>461</ele>
        <time>2022-05-23T16:01:07Z</time>
      </trkpt>
      <trkpt lat="48.08901" lon="7.98708">
        <ele>456</ele>
        <time>2022-05-23T16:01:13Z</time>
      </trkpt>
      <trkpt lat="48.08933" lon="7.98719">
        <ele>453</ele>
        <time>2022-05-23T16:01:18Z</time>
      </trkpt>
      <trkpt lat="48.0896" lon="7.98741">
        <ele>449</ele>
        <time>2022-05-23T16:01:24Z</time>
      </trkpt>
      <trkpt lat="48.08995" lon="7.98787">
        <ele>441</ele>
        <time>2022-05-23T16:01:32Z</time>
      </trkpt>
      <trkpt lat="48.09004" lon="7.98792">
        <ele>440</ele>
        <time>2022-05-23T16:01:34Z</time>
      </trkpt>
      <trkpt lat="48.09014" lon="7.98794">
        <ele>439</ele>
        <time>2022-05-23T16:01:36Z</time>
      </trkpt>
      <trkpt lat="48.09043" lon="7.98788">
        <ele>438</ele>
        <time>2022-05-23T16:01:41Z</time>
      </trkpt>
      <trkpt lat="48.09072" lon="7.98774">
        <ele>439</ele>
        <time>2022-05-23T16:01:46Z</time>
      </trkpt>
      <trkpt lat="48.09128" lon="7.98753">
        <ele>434</ele>
        <time>2022-05-23T16:01:57Z</time>
      </trkpt>
      <trkpt lat="48.09178" lon="7.98743">
        <ele>427</ele>
        <time>2022-05-23T16:02:06Z</time>
      </trkpt>
      <trkpt lat="48.09241" lon="7.98734">
        <ele>424</ele>
        <time>2022-05-23T16:02:17Z</time>
      </trkpt>
      <trkpt lat="48.09252" lon="7.98731">
        <ele>423</ele>
        <time>2022-05-23T16:02:19Z</time>
      </trkpt>
      <trkpt lat="48.0929" lon="7.98713">
        <ele>418</ele>
        <time>2022-05-23T16:02:26Z</time>
      </trkpt>
      <trkpt lat="48.09389" lon="7.98644">
        <ele>403</ele>
        <time>2022-05-23T16:02:45Z</time>
      </trkpt>
      <trkpt lat="48.09397" lon="7.98629">
        <ele>402</ele>
        <time>2022-05-23T16:02:48Z</time>
      </trkpt>
      <trkpt lat="48.09396" lon="7.98613">
        <ele>402</ele>
        <time>2022-05-23T16:02:50Z</time>
      </trkpt>
      <trkpt lat="48.09386" lon="7.98604">
        <ele>403</ele>
        <time>2022-05-23T16:02:52Z</time>
      </trkpt>
      <trkpt lat="48.09371" lon="7.98601">
        <ele>404</ele>
        <time>2022-05-23T16:02:54Z</time>
      </trkpt>
      <trkpt lat="48.09298" lon="7.98596">
        <ele>406</ele>
        <time>2022-05-23T16:03:07Z</time>
      </trkpt>
      <trkpt lat="48.09278" lon="7.98591">
        <ele>405</ele>
        <time>2022-05-23T16:03:11Z</time>
      </trkpt>
      <trkpt lat="48.09257" lon="7.98579">
        <ele>402</ele>
        <time>2022-05-23T16:03:15Z</time>
      </trkpt>
      <trkpt lat="48.09224" lon="7.98553">
        <ele>399</ele>
        <time>2022-05-23T16:03:22Z</time>
      </trkpt>
      <trkpt lat="48.09205" lon="7.98534">
        <ele>399</ele>
        <time>2022-05-23T16:03:26Z</time>
      </trkpt>
      <trkpt lat="48.09186" lon="7.98506">
        <ele>398</ele>
        <time>2022-05-23T16:03:30Z</time>
      </trkpt>
      <trkpt lat="48.09184" lon="7.98492">
        <ele>398</ele>
        <time>2022-05-23T16:03:32Z</time>
      </trkpt>
      <trkpt lat="48.09177" lon="7.98481">
        <ele>400</ele>
        <time>2022-05-23T16:03:34Z</time>
      </trkpt>
      <trkpt lat="48.09175" lon="7.98457">
        <ele>402</ele>
        <time>2022-05-23T16:03:37Z</time>
      </trkpt>
      <trkpt lat="48.0919" lon="7.98438">
        <ele>398</ele>
        <time>2022-05-23T16:03:40Z</time>
      </trkpt>
      <trkpt lat="48.09215" lon="7.98426">
        <ele>391</ele>
        <time>2022-05-23T16:03:45Z</time>
      </trkpt>
      <trkpt lat="48.09247" lon="7.98401">
        <ele>383</ele>
        <time>2022-05-23T16:03:51Z</time>
      </trkpt>
      <trkpt lat="48.09259" lon="7.98396">
        <ele>380</ele>
        <time>2022-05-23T16:03:54Z</time>
      </trkpt>
      <trkpt lat="48.09284" lon="7.98369">
        <ele>375</ele>
        <time>2022-05-23T16:03:59Z</time>
      </trkpt>
      <trkpt lat="48.0933" lon="7.98326">
        <ele>358</ele>
        <time>2022-05-23T16:04:09Z</time>
      </trkpt>
      <trkpt lat="48.09339" lon="7.98307">
        <ele>355</ele>
        <time>2022-05-23T16:04:11Z</time>
      </trkpt>
      <trkpt lat="48.09343" lon="7.98287">
        <ele>354</ele>
        <time>2022-05-23T16:04:14Z</time>
      </trkpt>
      <trkpt lat="48.09343" lon="7.98253">
        <ele>352</ele>
        <time>2022-05-23T16:04:18Z</time>
      </trkpt>
      <trkpt lat="48.09387" lon="7.984">
        <ele>355</ele>
        <time>2022-05-23T16:04:37Z</time>
      </trkpt>
      <trkpt lat="48.09401" lon="7.98424">
        <ele>359</ele>
        <time>2022-05-23T16:04:41Z</time>
      </trkpt>
      <trkpt lat="48.09411" lon="7.98423">
        <ele>357</ele>
        <time>2022-05-23T16:04:43Z</time>
      </trkpt>
      <trkpt lat="48.09421" lon="7.98431">
        <ele>359</ele>
        <time>2022-05-23T16:04:45Z</time>
      </trkpt>
      <trkpt lat="48.09428" lon="7.98445">
        <ele>362</ele>
        <time>2022-05-23T16:04:47Z</time>
      </trkpt>
      <trkpt lat="48.09492" lon="7.98486">
        <ele>363</ele>
        <time>2022-05-23T16:04:59Z</time>
      </trkpt>
      <trkpt lat="48.09537" lon="7.98526">
        <ele>361</ele>
        <time>2022-05-23T16:05:08Z</time>
      </trkpt>
      <trkpt lat="48.09561" lon="7.98558">
        <ele>357</ele>
        <time>2022-05-23T16:05:14Z</time>
      </trkpt>
      <trkpt lat="48.09581" lon="7.98593">
        <ele>354</ele>
        <time>2022-05-23T16:05:20Z</time>
      </trkpt>
      <trkpt lat="48.09584" lon="7.98606">
        <ele>354</ele>
        <time>2022-05-23T16:05:21Z</time>
      </trkpt>
      <trkpt lat="48.09609" lon="7.98655">
        <ele>357</ele>
        <time>2022-05-23T16:05:29Z</time>
      </trkpt>
      <trkpt lat="48.0962" lon="7.98656">
        <ele>357</ele>
        <time>2022-05-23T16:05:31Z</time>
      </trkpt>
      <trkpt lat="48.09654" lon="7.98638">
        <ele>355</ele>
        <time>2022-05-23T16:05:37Z</time>
      </trkpt>
      <trkpt lat="48.09665" lon="7.98628">
        <ele>354</ele>
        <time>2022-05-23T16:05:39Z</time>
      </trkpt>
      <trkpt lat="48.09691" lon="7.98591">
        <ele>351</ele>
        <time>2022-05-23T16:05:46Z</time>
      </trkpt>
      <trkpt lat="48.09703" lon="7.98598">
        <ele>351</ele>
        <time>2022-05-23T16:05:48Z</time>
      </trkpt>
      <trkpt lat="48.09729" lon="7.9864">
        <ele>354</ele>
        <time>2022-05-23T16:05:55Z</time>
      </trkpt>
      <trkpt lat="48.0979" lon="7.98696">
        <ele>357</ele>
        <time>2022-05-23T16:06:08Z</time>
      </trkpt>
      <trkpt lat="48.09814" lon="7.98741">
        <ele>360</ele>
        <time>2022-05-23T16:06:14Z</time>
      </trkpt>
      <trkpt lat="48.09824" lon="7.98767">
        <ele>361</ele>
        <time>2022-05-23T16:06:18Z</time>
      </trkpt>
      <trkpt lat="48.09845" lon="7.98803">
        <ele>361</ele>
        <time>2022-05-23T16:06:24Z</time>
      </trkpt>
      <trkpt lat="48.09864" lon="7.98875">
        <ele>364</ele>
        <time>2022-05-23T16:06:33Z</time>
      </trkpt>
      <trkpt lat="48.09878" lon="7.98898">
        <ele>364</ele>
        <time>2022-05-23T16:06:36Z</time>
      </trkpt>
      <trkpt lat="48.09922" lon="7.98939">
        <ele>365</ele>
        <time>2022-05-23T16:06:46Z</time>
      </trkpt>
      <trkpt lat="48.09988" lon="7.99006">
        <ele>369</ele>
        <time>2022-05-23T16:07:00Z</time>
      </trkpt>
      <trkpt lat="48.09997" lon="7.9901">
        <ele>369</ele>
        <time>2022-05-23T16:07:02Z</time>
      </trkpt>
      <trkpt lat="48.10103" lon="7.98841">
        <ele>348</ele>
        <time>2022-05-23T16:07:29Z</time>
      </trkpt>
      <trkpt lat="48.10122" lon="7.98813">
        <ele>344</ele>
        <time>2022-05-23T16:07:34Z</time>
      </trkpt>
      <trkpt lat="48.10141" lon="7.98797">
        <ele>342</ele>
        <time>2022-05-23T16:07:38Z</time>
      </trkpt>
      <trkpt lat="48.10194" lon="7.98629">
        <ele>333</ele>
        <time>2022-05-23T16:08:00Z</time>
      </trkpt>
      <trkpt lat="48.10235" lon="7.98537">
        <ele>326</ele>
        <time>2022-05-23T16:08:13Z</time>
      </trkpt>
      <trkpt lat="48.10297" lon="7.98438">
        <ele>317</ele>
        <time>2022-05-23T16:08:29Z</time>
      </trkpt>
      <trkpt lat="48.10328" lon="7.98397">
        <ele>313</ele>
        <time>2022-05-23T16:08:36Z</time>
      </trkpt>
      <trkpt lat="48.10355" lon="7.98373">
        <ele>308</ele>
        <time>2022-05-23T16:08:42Z</time>
      </trkpt>
      <trkpt lat="48.10419" lon="7.98332">
        <ele>301</ele>
        <time>2022-05-23T16:08:54Z</time>
      </trkpt>
      <trkpt lat="48.10431" lon="7.9833">
        <ele>300</ele>
        <time>2022-05-23T16:08:57Z</time>
      </trkpt>
      <trkpt lat="48.10466" lon="7.98365">
        <ele>301</ele>
        <time>2022-05-23T16:09:04Z</time>
      </trkpt>
      <trkpt lat="48.10503" lon="7.98407">
        <ele>302</ele>
        <time>2022-05-23T16:09:12Z</time>
      </trkpt>
      <trkpt lat="48.10511" lon="7.9842">
        <ele>302</ele>
        <time>2022-05-23T16:09:14Z</time>
      </trkpt>
      <trkpt lat="48.10545" lon="7.9851">
        <ele>301</ele>
        <time>2022-05-23T16:09:27Z</time>
      </trkpt>
      <trkpt lat="48.10582" lon="7.98575">
        <ele>304</ele>
        <time>2022-05-23T16:09:37Z</time>
      </trkpt>
      <trkpt lat="48.10598" lon="7.98594">
        <ele>304</ele>
        <time>2022-05-23T16:09:40Z</time>
      </trkpt>
      <trkpt lat="48.10621" lon="7.98629">
        <ele>304</ele>
        <time>2022-05-23T16:09:46Z</time>
      </trkpt>
      <trkpt lat="48.10653" lon="7.98671">
        <ele>305</ele>
        <time>2022-05-23T16:09:54Z</time>
      </trkpt>
      <trkpt lat="48.10702" lon="7.98722">
        <ele>305</ele>
        <time>2022-05-23T16:10:05Z</time>
      </trkpt>
      <trkpt lat="48.10726" lon="7.98753">
        <ele>305</ele>
        <time>2022-05-23T16:10:10Z</time>
      </trkpt>
      <trkpt lat="48.10746" lon="7.98787">
        <ele>306</ele>
        <time>2022-05-23T16:10:16Z</time>
      </trkpt>
      <trkpt lat="48.10767" lon="7.98847">
        <ele>307</ele>
        <time>2022-05-23T16:10:24Z</time>
      </trkpt>
      <trkpt lat="48.10793" lon="7.98944">
        <ele>309</ele>
        <time>2022-05-23T16:10:36Z</time>
      </trkpt>
      <trkpt lat="48.10817" lon="7.99013">
        <ele>309</ele>
        <time>2022-05-23T16:10:45Z</time>
      </trkpt>
      <trkpt lat="48.10819" lon="7.99028">
        <ele>310</ele>
        <time>2022-05-23T16:10:47Z</time>
      </trkpt>
      <trkpt lat="48.1082" lon="7.99043">
        <ele>311</ele>
        <time>2022-05-23T16:10:49Z</time>
      </trkpt>
      <trkpt lat="48.10814" lon="7.99087">
        <ele>313</ele>
        <time>2022-05-23T16:10:54Z</time>
      </trkpt>
      <trkpt lat="48.10784" lon="7.99151">
        <ele>316</ele>
        <time>2022-05-23T16:11:03Z</time>
      </trkpt>
      <trkpt lat="48.10846" lon="7.99206">
        <ele>319</ele>
        <time>2022-05-23T16:11:16Z</time>
      </trkpt>
      <trkpt lat="48.10876" lon="7.99246">
        <ele>318</ele>
        <time>2022-05-23T16:11:23Z</time>
      </trkpt>
      <trkpt lat="48.10894" lon="7.99265">
        <ele>317</ele>
        <time>2022-05-23T16:11:27Z</time>
      </trkpt>
      <trkpt lat="48.10916" lon="7.99277">
        <ele>315</ele>
        <time>2022-05-23T16:11:32Z</time>
      </trkpt>
      <trkpt lat="48.10929" lon="7.99277">
        <ele>314</ele>
        <time>2022-05-23T16:11:34Z</time>
      </trkpt>
      <trkpt lat="48.10961" lon="7.99268">
        <ele>310</ele>
        <time>2022-05-23T16:11:40Z</time>
      </trkpt>
      <trkpt lat="48.10976" lon="7.9928">
        <ele>309</ele>
        <time>2022-05-23T16:11:43Z</time>
      </trkpt>
      <trkpt lat="48.10991" lon="7.99311">
        <ele>309</ele>
        <time>2022-05-23T16:11:47Z</time>
      </trkpt>
      <trkpt lat="48.10999" lon="7.99354">
        <ele>310</ele>
        <time>2022-05-23T16:11:53Z</time>
      </trkpt>
      <trkpt lat="48.11007" lon="7.9937">
        <ele>311</ele>
        <time>2022-05-23T16:11:55Z</time>
      </trkpt>
      <trkpt lat="48.1102" lon="7.99372">
        <ele>311</ele>
        <time>2022-05-23T16:11:57Z</time>
      </trkpt>
      <trkpt lat="48.11029" lon="7.99366">
        <ele>311</ele>
        <time>2022-05-23T16:11:59Z</time>
      </trkpt>
      <trkpt lat="48.11047" lon="7.99345">
        <ele>311</ele>
        <time>2022-05-23T16:12:03Z</time>
      </trkpt>
      <trkpt lat="48.11068" lon="7.99314">
        <ele>310</ele>
        <time>2022-05-23T16:12:08Z</time>
      </trkpt>
      <trkpt lat="48.11079" lon="7.99306">
        <ele>309</ele>
        <time>2022-05-23T16:12:10Z</time>
      </trkpt>
      <trkpt lat="48.11099" lon="7.99305">
        <ele>309</ele>
        <time>2022-05-23T16:12:14Z</time>
      </trkpt>
      <trkpt lat="48.11109" lon="7.99308">
        <ele>309</ele>
        <time>2022-05-23T16:12:16Z</time>
      </trkpt>
      <trkpt lat="48.11118" lon="7.99314">
        <ele>310</ele>
        <time>2022-05-23T16:12:18Z</time>
      </trkpt>
      <trkpt lat="48.11136" lon="7.99327">
        <ele>310</ele>
        <time>2022-05-23T16:12:21Z</time>
      </trkpt>
      <trkpt lat="48.11199" lon="7.99385">
        <ele>310</ele>
        <time>2022-05-23T16:12:34Z</time>
      </trkpt>
      <trkpt lat="48.11232" lon="7.99419">
        <ele>310</ele>
        <time>2022-05-23T16:12:41Z</time>
      </trkpt>
      <trkpt lat="48.11239" lon="7.9943">
        <ele>310</ele>
        <time>2022-05-23T16:12:43Z</time>
      </trkpt>
      <trkpt lat="48.11249" lon="7.99455">
        <ele>310</ele>
        <time>2022-05-23T16:12:47Z</time>
      </trkpt>
      <trkpt lat="48.1126" lon="7.99497">
        <ele>309</ele>
        <time>2022-05-23T16:12:52Z</time>
      </trkpt>
      <trkpt lat="48.11269" lon="7.99511">
        <ele>310</ele>
        <time>2022-05-23T16:12:54Z</time>
      </trkpt>
      <trkpt lat="48.1129" lon="7.99523">
        <ele>309</ele>
        <time>2022-05-23T16:12:58Z</time>
      </trkpt>
      <trkpt lat="48.1139" lon="7.99558">
        <ele>308</ele>
        <time>2022-05-23T16:13:17Z</time>
      </trkpt>
      <trkpt lat="48.11408" lon="7.99575">
        <ele>309</ele>
        <time>2022-05-23T16:13:20Z</time>
      </trkpt>
      <trkpt lat="48.11433" lon="7.99609">
        <ele>310</ele>
        <time>2022-05-23T16:13:26Z</time>
      </trkpt>
      <trkpt lat="48.11443" lon="7.99618">
        <ele>310</ele>
        <time>2022-05-23T16:13:28Z</time>
      </trkpt>
      <trkpt lat="48.11463" lon="7.99631">
        <ele>310</ele>
        <time>2022-05-23T16:13:32Z</time>
      </trkpt>
      <trkpt lat="48.115" lon="7.99648">
        <ele>310</ele>
        <time>2022-05-23T16:13:39Z</time>
      </trkpt>
      <trkpt lat="48.11539" lon="7.99677">
        <ele>309</ele>
        <time>2022-05-23T16:13:47Z</time>
      </trkpt>
      <trkpt lat="48.11574" lon="7.99697">
        <ele>308</ele>
        <time>2022-05-23T16:13:54Z</time>
      </trkpt>
      <trkpt lat="48.11624" lon="7.99753">
        <ele>308</ele>
        <time>2022-05-23T16:14:05Z</time>
      </trkpt>
      <trkpt lat="48.11652" lon="7.99776">
        <ele>308</ele>
        <time>2022-05-23T16:14:10Z</time>
      </trkpt>
      <trkpt lat="48.11666" lon="7.99774">
        <ele>307</ele>
        <time>2022-05-23T16:14:13Z</time>
      </trkpt>
      <trkpt lat="48.11677" lon="7.99767">
        <ele>306</ele>
        <time>2022-05-23T16:14:15Z</time>
      </trkpt>
      <trkpt lat="48.11686" lon="7.99773">
        <ele>305</ele>
        <time>2022-05-23T16:14:17Z</time>
      </trkpt>
      <trkpt lat="48.11708" lon="7.99827">
        <ele>305</ele>
        <time>2022-05-23T16:14:24Z</time>
      </trkpt>
      <trkpt lat="48.11723" lon="7.99854">
        <ele>303</ele>
        <time>2022-05-23T16:14:29Z</time>
      </trkpt>
      <trkpt lat="48.11784" lon="7.99938">
        <ele>299</ele>
        <time>2022-05-23T16:14:43Z</time>
      </trkpt>
      <trkpt lat="48.11874" lon="8.00052">
        <ele>295</ele>
        <time>2022-05-23T16:15:04Z</time>
      </trkpt>
      <trkpt lat="48.11898" lon="8.00071">
        <ele>294</ele>
        <time>2022-05-23T16:15:09Z</time>
      </trkpt>
      <trkpt lat="48.11949" lon="8.00093">
        <ele>294</ele>
        <time>2022-05-23T16:15:19Z</time>
      </trkpt>
      <trkpt lat="48.11967" lon="8.00107">
        <ele>295</ele>
        <time>2022-05-23T16:15:22Z</time>
      </trkpt>
      <trkpt lat="48.11982" lon="8.00129">
        <ele>295</ele>
        <time>2022-05-23T16:15:26Z</time>
      </trkpt>
      <trkpt lat="48.12007" lon="8.00175">
        <ele>295</ele>
        <time>2022-05-23T16:15:33Z</time>
      </trkpt>
      <trkpt lat="48.12021" lon="8.00195">
        <ele>295</ele>
        <time>2022-05-23T16:15:36Z</time>
      </trkpt>
      <trkpt lat="48.12037" lon="8.00209">
        <ele>296</ele>
        <time>2022-05-23T16:15:40Z</time>
      </trkpt>
      <trkpt lat="48.12079" lon="8.00222">
        <ele>296</ele>
        <time>2022-05-23T16:15:47Z</time>
      </trkpt>
      <trkpt lat="48.121" lon="8.00238">
        <ele>296</ele>
        <time>2022-05-23T16:15:51Z</time>
      </trkpt>
      <trkpt lat="48.12129" lon="8.00235">
        <ele>297</ele>
        <time>2022-05-23T16:15:57Z</time>
      </trkpt>
      <trkpt lat="48.12157" lon="8.00263">
        <ele>298</ele>
        <time>2022-05-23T16:16:03Z</time>
      </trkpt>
      <trkpt lat="48.12177" lon="8.00297">
        <ele>298</ele>
        <time>2022-05-23T16:16:08Z</time>
      </trkpt>
      <trkpt lat="48.12183" lon="8.00325">
        <ele>298</ele>
        <time>2022-05-23T16:16:12Z</time>
      </trkpt>
      <trkpt lat="48.12171" lon="8.00323">
        <ele>298</ele>
        <time>2022-05-23T16:16:14Z</time>
      </trkpt>
      <trkpt lat="48.12162" lon="8.0033">
        <ele>298</ele>
        <time>2022-05-23T16:16:15Z</time>
      </trkpt>
      <trkpt lat="48.12164" lon="8.00348">
        <ele>298</ele>
        <time>2022-05-23T16:16:18Z</time>
      </trkpt>
      <trkpt lat="48.12155" lon="8.00358">
        <ele>298</ele>
        <time>2022-05-23T16:16:20Z</time>
      </trkpt>
      <trkpt lat="48.12146" lon="8.00361">
        <ele>298</ele>
        <time>2022-05-23T16:16:21Z</time>
      </trkpt>
      <trkpt lat="48.12148" lon="8.00348">
        <ele>298</ele>
        <time>2022-05-23T16:16:23Z</time>
      </trkpt>
      <trkpt lat="48.12152" lon="8.0036">
        <ele>298</ele>
        <time>2022-05-23T16:16:24Z</time>
      </trkpt>
      <trkpt lat="48.12161" lon="8.00367">
        <ele>298</ele>
        <time>2022-05-23T16:16:26Z</time>
      </trkpt>
      <trkpt lat="48.12175" lon="8.00387">
        <ele>299</ele>
        <time>2022-05-23T16:16:30Z</time>
      </trkpt>
      <trkpt lat="48.12168" lon="8.00405">
        <ele>299</ele>
        <time>2022-05-23T16:16:32Z</time>
      </trkpt>
      <trkpt lat="48.12147" lon="8.00345">
        <ele>298</ele>
        <time>2022-05-23T16:16:40Z</time>
      </trkpt>
      <trkpt lat="48.12133" lon="8.00365">
        <ele>298</ele>
        <time>2022-05-23T16:16:44Z</time>
      </trkpt>
      <trkpt lat="48.12148" lon="8.00348">
        <ele>298</ele>
        <time>2022-05-23T16:16:47Z</time>
      </trkpt>
      <trkpt lat="48.12139" lon="8.00343">
        <ele>297</ele>
        <time>2022-05-23T16:16:49Z</time>
      </trkpt>
      <trkpt lat="48.12159" lon="8.00347">
        <ele>298</ele>
        <time>2022-05-23T16:16:52Z</time>
      </trkpt>
      <trkpt lat="48.12166" lon="8.00337">
        <ele>298</ele>
        <time>2022-05-23T16:16:54Z</time>
      </trkpt>
      <trkpt lat="48.1217" lon="8.00324">
        <ele>298</ele>
        <time>2022-05-23T16:16:56Z</time>
      </trkpt>
      <trkpt lat="48.12179" lon="8.00318">
        <ele>298</ele>
        <time>2022-05-23T16:16:57Z</time>
      </trkpt>
      <trkpt lat="48.12186" lon="8.00329">
        <ele>298</ele>
        <time>2022-05-23T16:16:59Z</time>
      </trkpt>
      <trkpt lat="48.12193" lon="8.00373">
        <ele>299</ele>
        <time>2022-05-23T16:17:05Z</time>
      </trkpt>
      <trkpt lat="48.12209" lon="8.00415">
        <ele>300</ele>
        <time>2022-05-23T16:17:10Z</time>
      </trkpt>
      <trkpt lat="48.12214" lon="8.00449">
        <ele>300</ele>
        <time>2022-05-23T16:17:15Z</time>
      </trkpt>
      <trkpt lat="48.122" lon="8.00529">
        <ele>300</ele>
        <time>2022-05-23T16:17:24Z</time>
      </trkpt>
      <trkpt lat="48.1219" lon="8.00563">
        <ele>301</ele>
        <time>2022-05-23T16:17:29Z</time>
      </trkpt>
      <trkpt lat="48.12184" lon="8.00596">
        <ele>301</ele>
        <time>2022-05-23T16:17:33Z</time>
      </trkpt>
      <trkpt lat="48.12182" lon="8.00648">
        <ele>303</ele>
        <time>2022-05-23T16:17:39Z</time>
      </trkpt>
      <trkpt lat="48.12183" lon="8.00705">
        <ele>303</ele>
        <time>2022-05-23T16:17:46Z</time>
      </trkpt>
      <trkpt lat="48.12171" lon="8.00813">
        <ele>304</ele>
        <time>2022-05-23T16:17:59Z</time>
      </trkpt>
      <trkpt lat="48.1217" lon="8.00851">
        <ele>304</ele>
        <time>2022-05-23T16:18:03Z</time>
      </trkpt>
      <trkpt lat="48.1215" lon="8.00938">
        <ele>303</ele>
        <time>2022-05-23T16:18:14Z</time>
      </trkpt>
      <trkpt lat="48.12142" lon="8.01026">
        <ele>304</ele>
        <time>2022-05-23T16:18:25Z</time>
      </trkpt>
      <trkpt lat="48.12112" lon="8.01124">
        <ele>305</ele>
        <time>2022-05-23T16:18:38Z</time>
      </trkpt>
      <trkpt lat="48.12101" lon="8.01177">
        <ele>305</ele>
        <time>2022-05-23T16:18:44Z</time>
      </trkpt>
      <trkpt lat="48.12089" lon="8.0125">
        <ele>305</ele>
        <time>2022-05-23T16:18:53Z</time>
      </trkpt>
      <trkpt lat="48.12087" lon="8.01286">
        <ele>306</ele>
        <time>2022-05-23T16:18:57Z</time>
      </trkpt>
      <trkpt lat="48.12006" lon="8.01446">
        <ele>306</ele>
        <time>2022-05-23T16:19:21Z</time>
      </trkpt>
      <trkpt lat="48.11998" lon="8.01459">
        <ele>306</ele>
        <time>2022-05-23T16:19:23Z</time>
      </trkpt>
      <trkpt lat="48.11985" lon="8.01465">
        <ele>306</ele>
        <time>2022-05-23T16:19:26Z</time>
      </trkpt>
      <trkpt lat="48.11959" lon="8.0152">
        <ele>307</ele>
        <time>2022-05-23T16:19:34Z</time>
      </trkpt>
      <trkpt lat="48.1194" lon="8.01629">
        <ele>308</ele>
        <time>2022-05-23T16:19:47Z</time>
      </trkpt>
      <trkpt lat="48.11904" lon="8.01775">
        <ele>310</ele>
        <time>2022-05-23T16:20:06Z</time>
      </trkpt>
      <trkpt lat="48.11893" lon="8.01831">
        <ele>310</ele>
        <time>2022-05-23T16:20:13Z</time>
      </trkpt>
      <trkpt lat="48.11832" lon="8.01994">
        <ele>313</ele>
        <time>2022-05-23T16:20:35Z</time>
      </trkpt>
      <trkpt lat="48.11802" lon="8.02067">
        <ele>313</ele>
        <time>2022-05-23T16:20:45Z</time>
      </trkpt>
      <trkpt lat="48.11798" lon="8.02079">
        <ele>313</ele>
        <time>2022-05-23T16:20:47Z</time>
      </trkpt>
      <trkpt lat="48.11796" lon="8.02125">
        <ele>314</ele>
        <time>2022-05-23T16:20:52Z</time>
      </trkpt>
      <trkpt lat="48.11786" lon="8.02186">
        <ele>315</ele>
        <time>2022-05-23T16:20:59Z</time>
      </trkpt>
      <trkpt lat="48.11742" lon="8.02292">
        <ele>316</ele>
        <time>2022-05-23T16:21:14Z</time>
      </trkpt>
      <trkpt lat="48.11697" lon="8.02428">
        <ele>319</ele>
        <time>2022-05-23T16:21:32Z</time>
      </trkpt>
      <trkpt lat="48.11695" lon="8.02444">
        <ele>320</ele>
        <time>2022-05-23T16:21:34Z</time>
      </trkpt>
      <trkpt lat="48.11688" lon="8.02456">
        <ele>321</ele>
        <time>2022-05-23T16:21:36Z</time>
      </trkpt>
      <trkpt lat="48.11651" lon="8.02555">
        <ele>321</ele>
        <time>2022-05-23T16:21:50Z</time>
      </trkpt>
      <trkpt lat="48.11609" lon="8.02641">
        <ele>320</ele>
        <time>2022-05-23T16:22:02Z</time>
      </trkpt>
      <trkpt lat="48.1158" lon="8.02686">
        <ele>319</ele>
        <time>2022-05-23T16:22:10Z</time>
      </trkpt>
      <trkpt lat="48.11569" lon="8.02698">
        <ele>319</ele>
        <time>2022-05-23T16:22:12Z</time>
      </trkpt>
      <trkpt lat="48.11524" lon="8.02777">
        <ele>320</ele>
        <time>2022-05-23T16:22:24Z</time>
      </trkpt>
      <trkpt lat="48.1148" lon="8.02844">
        <ele>321</ele>
        <time>2022-05-23T16:22:36Z</time>
      </trkpt>
      <trkpt lat="48.1139" lon="8.02959">
        <ele>322</ele>
        <time>2022-05-23T16:22:57Z</time>
      </trkpt>
      <trkpt lat="48.11371" lon="8.02995">
        <ele>323</ele>
        <time>2022-05-23T16:23:02Z</time>
      </trkpt>
      <trkpt lat="48.11351" lon="8.02997">
        <ele>323</ele>
        <time>2022-05-23T16:23:06Z</time>
      </trkpt>
      <trkpt lat="48.11333" lon="8.03011">
        <ele>324</ele>
        <time>2022-05-23T16:23:09Z</time>
      </trkpt>
      <trkpt lat="48.11324" lon="8.0301">
        <ele>324</ele>
        <time>2022-05-23T16:23:11Z</time>
      </trkpt>
      <trkpt lat="48.11304" lon="8.0302">
        <ele>324</ele>
        <time>2022-05-23T16:23:15Z</time>
      </trkpt>
      <trkpt lat="48.11237" lon="8.03083">
        <ele>324</ele>
        <time>2022-05-23T16:23:29Z</time>
      </trkpt>
      <trkpt lat="48.11229" lon="8.03093">
        <ele>324</ele>
        <time>2022-05-23T16:23:31Z</time>
      </trkpt>
      <trkpt lat="48.11222" lon="8.03105">
        <ele>325</ele>
        <time>2022-05-23T16:23:33Z</time>
      </trkpt>
      <trkpt lat="48.11212" lon="8.03136">
        <ele>325</ele>
        <time>2022-05-23T16:23:37Z</time>
      </trkpt>
      <trkpt lat="48.11195" lon="8.03232">
        <ele>325</ele>
        <time>2022-05-23T16:23:48Z</time>
      </trkpt>
      <trkpt lat="48.11186" lon="8.03267">
        <ele>326</ele>
        <time>2022-05-23T16:23:53Z</time>
      </trkpt>
      <trkpt lat="48.11179" lon="8.03277">
        <ele>326</ele>
        <time>2022-05-23T16:23:55Z</time>
      </trkpt>
      <trkpt lat="48.11162" lon="8.03347">
        <ele>327</ele>
        <time>2022-05-23T16:24:03Z</time>
      </trkpt>
      <trkpt lat="48.11143" lon="8.03382">
        <ele>328</ele>
        <time>2022-05-23T16:24:09Z</time>
      </trkpt>
      <trkpt lat="48.11113" lon="8.03428">
        <ele>328</ele>
        <time>2022-05-23T16:24:16Z</time>
      </trkpt>
      <trkpt lat="48.11079" lon="8.03515">
        <ele>329</ele>
        <time>2022-05-23T16:24:28Z</time>
      </trkpt>
      <trkpt lat="48.11072" lon="8.03528">
        <ele>329</ele>
        <time>2022-05-23T16:24:30Z</time>
      </trkpt>
      <trkpt lat="48.11018" lon="8.03595">
        <ele>330</ele>
        <time>2022-05-23T16:24:43Z</time>
      </trkpt>
      <trkpt lat="48.10949" lon="8.0371">
        <ele>331</ele>
        <time>2022-05-23T16:25:01Z</time>
      </trkpt>
      <trkpt lat="48.10916" lon="8.0376">
        <ele>331</ele>
        <time>2022-05-23T16:25:10Z</time>
      </trkpt>
      <trkpt lat="48.10887" lon="8.03792">
        <ele>332</ele>
        <time>2022-05-23T16:25:16Z</time>
      </trkpt>
      <trkpt lat="48.10857" lon="8.03819">
        <ele>333</ele>
        <time>2022-05-23T16:25:22Z</time>
      </trkpt>
      <trkpt lat="48.10825" lon="8.03842">
        <ele>333</ele>
        <time>2022-05-23T16:25:29Z</time>
      </trkpt>
      <trkpt lat="48.10797" lon="8.03873">
        <ele>333</ele>
        <time>2022-05-23T16:25:35Z</time>
      </trkpt>
      <trkpt lat="48.10783" lon="8.03902">
        <ele>334</ele>
        <time>2022-05-23T16:25:39Z</time>
      </trkpt>
      <trkpt lat="48.10759" lon="8.03983">
        <ele>335</ele>
        <time>2022-05-23T16:25:50Z</time>
      </trkpt>
      <trkpt lat="48.10745" lon="8.04013">
        <ele>335</ele>
        <time>2022-05-23T16:25:54Z</time>
      </trkpt>
      <trkpt lat="48.10723" lon="8.04055">
        <ele>335</ele>
        <time>2022-05-23T16:26:00Z</time>
      </trkpt>
      <trkpt lat="48.107" lon="8.04092">
        <ele>336</ele>
        <time>2022-05-23T16:26:06Z</time>
      </trkpt>
      <trkpt lat="48.10667" lon="8.04137">
        <ele>337</ele>
        <time>2022-05-23T16:26:14Z</time>
      </trkpt>
      <trkpt lat="48.10652" lon="8.04165">
        <ele>338</ele>
        <time>2022-05-23T16:26:18Z</time>
      </trkpt>
      <trkpt lat="48.10641" lon="8.04197">
        <ele>338</ele>
        <time>2022-05-23T16:26:23Z</time>
      </trkpt>
      <trkpt lat="48.10618" lon="8.04296">
        <ele>339</ele>
        <time>2022-05-23T16:26:35Z</time>
      </trkpt>
      <trkpt lat="48.10612" lon="8.04313">
        <ele>340</ele>
        <time>2022-05-23T16:26:37Z</time>
      </trkpt>
      <trkpt lat="48.10595" lon="8.04344">
        <ele>340</ele>
        <time>2022-05-23T16:26:42Z</time>
      </trkpt>
      <trkpt lat="48.10552" lon="8.04386">
        <ele>340</ele>
        <time>2022-05-23T16:26:51Z</time>
      </trkpt>
      <trkpt lat="48.10526" lon="8.04427">
        <ele>340</ele>
        <time>2022-05-23T16:26:58Z</time>
      </trkpt>
      <trkpt lat="48.10493" lon="8.04508">
        <ele>340</ele>
        <time>2022-05-23T16:27:09Z</time>
      </trkpt>
      <trkpt lat="48.10448" lon="8.04597">
        <ele>342</ele>
        <time>2022-05-23T16:27:23Z</time>
      </trkpt>
      <trkpt lat="48.10401" lon="8.04716">
        <ele>343</ele>
        <time>2022-05-23T16:27:39Z</time>
      </trkpt>
      <trkpt lat="48.10389" lon="8.0474">
        <ele>343</ele>
        <time>2022-05-23T16:27:43Z</time>
      </trkpt>
      <trkpt lat="48.10362" lon="8.04777">
        <ele>344</ele>
        <time>2022-05-23T16:27:49Z</time>
      </trkpt>
      <trkpt lat="48.10347" lon="8.04793">
        <ele>344</ele>
        <time>2022-05-23T16:27:52Z</time>
      </trkpt>
      <trkpt lat="48.10309" lon="8.04812">
        <ele>344</ele>
        <time>2022-05-23T16:27:59Z</time>
      </trkpt>
      <trkpt lat="48.10277" lon="8.04839">
        <ele>345</ele>
        <time>2022-05-23T16:28:06Z</time>
      </trkpt>
      <trkpt lat="48.10245" lon="8.04884">
        <ele>347</ele>
        <time>2022-05-23T16:28:14Z</time>
      </trkpt>
      <trkpt lat="48.10214" lon="8.04953">
        <ele>351</ele>
        <time>2022-05-23T16:28:24Z</time>
      </trkpt>
      <trkpt lat="48.10178" lon="8.05007">
        <ele>353</ele>
        <time>2022-05-23T16:28:33Z</time>
      </trkpt>
      <trkpt lat="48.10166" lon="8.05087">
        <ele>352</ele>
        <time>2022-05-23T16:28:43Z</time>
      </trkpt>
      <trkpt lat="48.10156" lon="8.05116">
        <ele>353</ele>
        <time>2022-05-23T16:28:46Z</time>
      </trkpt>
      <trkpt lat="48.10142" lon="8.05175">
        <ele>354</ele>
        <time>2022-05-23T16:28:54Z</time>
      </trkpt>
      <trkpt lat="48.1013" lon="8.05205">
        <ele>354</ele>
        <time>2022-05-23T16:28:58Z</time>
      </trkpt>
      <trkpt lat="48.10116" lon="8.05232">
        <ele>354</ele>
        <time>2022-05-23T16:29:02Z</time>
      </trkpt>
      <trkpt lat="48.10081" lon="8.05291">
        <ele>354</ele>
        <time>2022-05-23T16:29:11Z</time>
      </trkpt>
      <trkpt lat="48.10076" lon="8.05306">
        <ele>353</ele>
        <time>2022-05-23T16:29:13Z</time>
      </trkpt>
      <trkpt lat="48.10078" lon="8.05339">
        <ele>352</ele>
        <time>2022-05-23T16:29:17Z</time>
      </trkpt>
      <trkpt lat="48.10076" lon="8.05368">
        <ele>353</ele>
        <time>2022-05-23T16:29:21Z</time>
      </trkpt>
      <trkpt lat="48.10062" lon="8.05397">
        <ele>353</ele>
        <time>2022-05-23T16:29:25Z</time>
      </trkpt>
      <trkpt lat="48.10033" lon="8.05495">
        <ele>356</ele>
        <time>2022-05-23T16:29:38Z</time>
      </trkpt>
      <trkpt lat="48.10038" lon="8.05508">
        <ele>356</ele>
        <time>2022-05-23T16:29:40Z</time>
      </trkpt>
      <trkpt lat="48.10035" lon="8.05566">
        <ele>357</ele>
        <time>2022-05-23T16:29:47Z</time>
      </trkpt>
      <trkpt lat="48.1004" lon="8.0564">
        <ele>359</ele>
        <time>2022-05-23T16:29:55Z</time>
      </trkpt>
      <trkpt lat="48.10036" lon="8.05656">
        <ele>360</ele>
        <time>2022-05-23T16:29:57Z</time>
      </trkpt>
      <trkpt lat="48.10031" lon="8.05669">
        <ele>360</ele>
        <time>2022-05-23T16:29:59Z</time>
      </trkpt>
      <trkpt lat="48.09987" lon="8.05749">
        <ele>360</ele>
        <time>2022-05-23T16:30:11Z</time>
      </trkpt>
      <trkpt lat="48.0998" lon="8.05757">
        <ele>360</ele>
        <time>2022-05-23T16:30:13Z</time>
      </trkpt>
      <trkpt lat="48.09968" lon="8.05784">
        <ele>360</ele>
        <time>2022-05-23T16:30:17Z</time>
      </trkpt>
      <trkpt lat="48.09918" lon="8.05825">
        <ele>360</ele>
        <time>2022-05-23T16:30:27Z</time>
      </trkpt>
      <trkpt lat="48.0991" lon="8.05834">
        <ele>360</ele>
        <time>2022-05-23T16:30:29Z</time>
      </trkpt>
      <trkpt lat="48.09879" lon="8.05888">
        <ele>360</ele>
        <time>2022-05-23T16:30:37Z</time>
      </trkpt>
      <trkpt lat="48.09862" lon="8.0593">
        <ele>360</ele>
        <time>2022-05-23T16:30:43Z</time>
      </trkpt>
      <trkpt lat="48.09849" lon="8.05977">
        <ele>360</ele>
        <time>2022-05-23T16:30:49Z</time>
      </trkpt>
      <trkpt lat="48.09823" lon="8.06026">
        <ele>360</ele>
        <time>2022-05-23T16:30:57Z</time>
      </trkpt>
      <trkpt lat="48.09747" lon="8.06104">
        <ele>363</ele>
        <time>2022-05-23T16:31:13Z</time>
      </trkpt>
      <trkpt lat="48.09705" lon="8.06151">
        <ele>368</ele>
        <time>2022-05-23T16:31:22Z</time>
      </trkpt>
      <trkpt lat="48.09608" lon="8.06307">
        <ele>369</ele>
        <time>2022-05-23T16:31:48Z</time>
      </trkpt>
      <trkpt lat="48.09581" lon="8.06342">
        <ele>368</ele>
        <time>2022-05-23T16:31:54Z</time>
      </trkpt>
      <trkpt lat="48.09553" lon="8.06373">
        <ele>370</ele>
        <time>2022-05-23T16:32:00Z</time>
      </trkpt>
      <trkpt lat="48.09483" lon="8.06433">
        <ele>368</ele>
        <time>2022-05-23T16:32:15Z</time>
      </trkpt>
      <trkpt lat="48.09454" lon="8.06464">
        <ele>368</ele>
        <time>2022-05-23T16:32:21Z</time>
      </trkpt>
      <trkpt lat="48.09444" lon="8.06471">
        <ele>368</ele>
        <time>2022-05-23T16:32:23Z</time>
      </trkpt>
      <trkpt lat="48.09432" lon="8.06475">
        <ele>367</ele>
        <time>2022-05-23T16:32:25Z</time>
      </trkpt>
      <trkpt lat="48.09396" lon="8.06479">
        <ele>367</ele>
        <time>2022-05-23T16:32:31Z</time>
      </trkpt>
      <trkpt lat="48.09385" lon="8.06483">
        <ele>368</ele>
        <time>2022-05-23T16:32:33Z</time>
      </trkpt>
      <trkpt lat="48.09378" lon="8.06491">
        <ele>368</ele>
        <time>2022-05-23T16:32:35Z</time>
      </trkpt>
      <trkpt lat="48.09372" lon="8.06503">
        <ele>368</ele>
        <time>2022-05-23T16:32:37Z</time>
      </trkpt>
      <trkpt lat="48.09362" lon="8.06543">
        <ele>368</ele>
        <time>2022-05-23T16:32:42Z</time>
      </trkpt>
      <trkpt lat="48.09351" lon="8.06573">
        <ele>368</ele>
        <time>2022-05-23T16:32:46Z</time>
      </trkpt>
      <trkpt lat="48.09292" lon="8.0667">
        <ele>371</ele>
        <time>2022-05-23T16:33:02Z</time>
      </trkpt>
      <trkpt lat="48.09253" lon="8.06743">
        <ele>372</ele>
        <time>2022-05-23T16:33:13Z</time>
      </trkpt>
      <trkpt lat="48.09232" lon="8.06777">
        <ele>374</ele>
        <time>2022-05-23T16:33:18Z</time>
      </trkpt>
      <trkpt lat="48.09216" lon="8.06816">
        <ele>375</ele>
        <time>2022-05-23T16:33:24Z</time>
      </trkpt>
      <trkpt lat="48.09176" lon="8.06929">
        <ele>379</ele>
        <time>2022-05-23T16:33:39Z</time>
      </trkpt>
      <trkpt lat="48.09169" lon="8.06997">
        <ele>380</ele>
        <time>2022-05-23T16:33:47Z</time>
      </trkpt>
      <trkpt lat="48.09175" lon="8.07106">
        <ele>391</ele>
        <time>2022-05-23T16:34:00Z</time>
      </trkpt>
      <trkpt lat="48.0915" lon="8.07224">
        <ele>388</ele>
        <time>2022-05-23T16:34:15Z</time>
      </trkpt>
      <trkpt lat="48.091" lon="8.07403">
        <ele>387</ele>
        <time>2022-05-23T16:34:38Z</time>
      </trkpt>
      <trkpt lat="48.09081" lon="8.07534">
        <ele>387</ele>
        <time>2022-05-23T16:34:54Z</time>
      </trkpt>
      <trkpt lat="48.09069" lon="8.07655">
        <ele>391</ele>
        <time>2022-05-23T16:35:08Z</time>
      </trkpt>
      <trkpt lat="48.09068" lon="8.077">
        <ele>391</ele>
        <time>2022-05-23T16:35:14Z</time>
      </trkpt>
      <trkpt lat="48.09061" lon="8.07758">
        <ele>392</ele>
        <time>2022-05-23T16:35:21Z</time>
      </trkpt>
      <trkpt lat="48.09054" lon="8.07862">
        <ele>403</ele>
        <time>2022-05-23T16:35:33Z</time>
      </trkpt>
      <trkpt lat="48.09049" lon="8.07896">
        <ele>404</ele>
        <time>2022-05-23T16:35:37Z</time>
      </trkpt>
      <trkpt lat="48.09041" lon="8.07928">
        <ele>404</ele>
        <time>2022-05-23T16:35:41Z</time>
      </trkpt>
      <trkpt lat="48.09031" lon="8.07956">
        <ele>403</ele>
        <time>2022-05-23T16:35:45Z</time>
      </trkpt>
      <trkpt lat="48.09017" lon="8.07983">
        <ele>399</ele>
        <time>2022-05-23T16:35:49Z</time>
      </trkpt>
      <trkpt lat="48.09008" lon="8.08012">
        <ele>398</ele>
        <time>2022-05-23T16:35:53Z</time>
      </trkpt>
      <trkpt lat="48.08993" lon="8.08032">
        <ele>396</ele>
        <time>2022-05-23T16:35:56Z</time>
      </trkpt>
      <trkpt lat="48.0896" lon="8.08067">
        <ele>396</ele>
        <time>2022-05-23T16:36:04Z</time>
      </trkpt>
      <trkpt lat="48.08874" lon="8.08142">
        <ele>398</ele>
        <time>2022-05-23T16:36:21Z</time>
      </trkpt>
      <trkpt lat="48.08806" lon="8.08206">
        <ele>401</ele>
        <time>2022-05-23T16:36:36Z</time>
      </trkpt>
      <trkpt lat="48.08753" lon="8.0825">
        <ele>397</ele>
        <time>2022-05-23T16:36:46Z</time>
      </trkpt>
      <trkpt lat="48.08742" lon="8.08257">
        <ele>398</ele>
        <time>2022-05-23T16:36:49Z</time>
      </trkpt>
      <trkpt lat="48.087" lon="8.0827">
        <ele>402</ele>
        <time>2022-05-23T16:36:56Z</time>
      </trkpt>
      <trkpt lat="48.08689" lon="8.08267">
        <ele>403</ele>
        <time>2022-05-23T16:36:58Z</time>
      </trkpt>
      <trkpt lat="48.08682" lon="8.08259">
        <ele>404</ele>
        <time>2022-05-23T16:37:00Z</time>
      </trkpt>
      <trkpt lat="48.08661" lon="8.08258">
        <ele>407</ele>
        <time>2022-05-23T16:37:03Z</time>
      </trkpt>
      <trkpt lat="48.0865" lon="8.08261">
        <ele>409</ele>
        <time>2022-05-23T16:37:05Z</time>
      </trkpt>
      <trkpt lat="48.08632" lon="8.08269">
        <ele>411</ele>
        <time>2022-05-23T16:37:09Z</time>
      </trkpt>
      <trkpt lat="48.08613" lon="8.08283">
        <ele>412</ele>
        <time>2022-05-23T16:37:13Z</time>
      </trkpt>
      <trkpt lat="48.08596" lon="8.08303">
        <ele>409</ele>
        <time>2022-05-23T16:37:16Z</time>
      </trkpt>
      <trkpt lat="48.08582" lon="8.08329">
        <ele>403</ele>
        <time>2022-05-23T16:37:20Z</time>
      </trkpt>
      <trkpt lat="48.08572" lon="8.08357">
        <ele>403</ele>
        <time>2022-05-23T16:37:24Z</time>
      </trkpt>
      <trkpt lat="48.08569" lon="8.08373">
        <ele>402</ele>
        <time>2022-05-23T16:37:26Z</time>
      </trkpt>
      <trkpt lat="48.08568" lon="8.0839">
        <ele>401</ele>
        <time>2022-05-23T16:37:28Z</time>
      </trkpt>
      <trkpt lat="48.08573" lon="8.08441">
        <ele>401</ele>
        <time>2022-05-23T16:37:34Z</time>
      </trkpt>
      <trkpt lat="48.08571" lon="8.08478">
        <ele>402</ele>
        <time>2022-05-23T16:37:39Z</time>
      </trkpt>
      <trkpt lat="48.08558" lon="8.08507">
        <ele>403</ele>
        <time>2022-05-23T16:37:43Z</time>
      </trkpt>
      <trkpt lat="48.08525" lon="8.08562">
        <ele>404</ele>
        <time>2022-05-23T16:37:52Z</time>
      </trkpt>
      <trkpt lat="48.08519" lon="8.08595">
        <ele>406</ele>
        <time>2022-05-23T16:37:56Z</time>
      </trkpt>
      <trkpt lat="48.08517" lon="8.08633">
        <ele>408</ele>
        <time>2022-05-23T16:38:00Z</time>
      </trkpt>
      <trkpt lat="48.0851" lon="8.08666">
        <ele>408</ele>
        <time>2022-05-23T16:38:04Z</time>
      </trkpt>
      <trkpt lat="48.08423" lon="8.08865">
        <ele>417</ele>
        <time>2022-05-23T16:38:33Z</time>
      </trkpt>
      <trkpt lat="48.084" lon="8.08912">
        <ele>418</ele>
        <time>2022-05-23T16:38:40Z</time>
      </trkpt>
      <trkpt lat="48.08349" lon="8.09001">
        <ele>420</ele>
        <time>2022-05-23T16:38:53Z</time>
      </trkpt>
      <trkpt lat="48.08332" lon="8.09024">
        <ele>418</ele>
        <time>2022-05-23T16:38:58Z</time>
      </trkpt>
      <trkpt lat="48.08323" lon="8.09032">
        <ele>418</ele>
        <time>2022-05-23T16:38:59Z</time>
      </trkpt>
      <trkpt lat="48.08303" lon="8.09042">
        <ele>416</ele>
        <time>2022-05-23T16:39:03Z</time>
      </trkpt>
      <trkpt lat="48.08255" lon="8.09056">
        <ele>407</ele>
        <time>2022-05-23T16:39:12Z</time>
      </trkpt>
      <trkpt lat="48.08228" lon="8.09079">
        <ele>408</ele>
        <time>2022-05-23T16:39:17Z</time>
      </trkpt>
      <trkpt lat="48.08205" lon="8.09108">
        <ele>410</ele>
        <time>2022-05-23T16:39:23Z</time>
      </trkpt>
      <trkpt lat="48.08187" lon="8.09125">
        <ele>409</ele>
        <time>2022-05-23T16:39:27Z</time>
      </trkpt>
      <trkpt lat="48.08165" lon="8.09139">
        <ele>408</ele>
        <time>2022-05-23T16:39:31Z</time>
      </trkpt>
      <trkpt lat="48.08104" lon="8.09171">
        <ele>408</ele>
        <time>2022-05-23T16:39:42Z</time>
      </trkpt>
      <trkpt lat="48.08083" lon="8.09187">
        <ele>408</ele>
        <time>2022-05-23T16:39:46Z</time>
      </trkpt>
      <trkpt lat="48.08066" lon="8.09213">
        <ele>409</ele>
        <time>2022-05-23T16:39:51Z</time>
      </trkpt>
      <trkpt lat="48.08039" lon="8.09271">
        <ele>410</ele>
        <time>2022-05-23T16:39:59Z</time>
      </trkpt>
      <trkpt lat="48.08021" lon="8.09292">
        <ele>411</ele>
        <time>2022-05-23T16:40:03Z</time>
      </trkpt>
      <trkpt lat="48.08005" lon="8.09306">
        <ele>411</ele>
        <time>2022-05-23T16:40:07Z</time>
      </trkpt>
      <trkpt lat="48.07954" lon="8.0934">
        <ele>413</ele>
        <time>2022-05-23T16:40:16Z</time>
      </trkpt>
      <trkpt lat="48.07917" lon="8.0937">
        <ele>415</ele>
        <time>2022-05-23T16:40:24Z</time>
      </trkpt>
      <trkpt lat="48.07848" lon="8.09409">
        <ele>415</ele>
        <time>2022-05-23T16:40:37Z</time>
      </trkpt>
      <trkpt lat="48.07783" lon="8.09467">
        <ele>416</ele>
        <time>2022-05-23T16:40:51Z</time>
      </trkpt>
      <trkpt lat="48.07777" lon="8.09477">
        <ele>416</ele>
        <time>2022-05-23T16:40:52Z</time>
      </trkpt>
      <trkpt lat="48.07731" lon="8.0952">
        <ele>416</ele>
        <time>2022-05-23T16:41:02Z</time>
      </trkpt>
      <trkpt lat="48.07711" lon="8.09535">
        <ele>416</ele>
        <time>2022-05-23T16:41:06Z</time>
      </trkpt>
      <trkpt lat="48.07669" lon="8.09559">
        <ele>416</ele>
        <time>2022-05-23T16:41:14Z</time>
      </trkpt>
      <trkpt lat="48.07595" lon="8.09584">
        <ele>417</ele>
        <time>2022-05-23T16:41:27Z</time>
      </trkpt>
      <trkpt lat="48.07562" lon="8.09589">
        <ele>418</ele>
        <time>2022-05-23T16:41:33Z</time>
      </trkpt>
      <trkpt lat="48.07542" lon="8.09584">
        <ele>419</ele>
        <time>2022-05-23T16:41:37Z</time>
      </trkpt>
      <trkpt lat="48.07479" lon="8.09554">
        <ele>421</ele>
        <time>2022-05-23T16:41:49Z</time>
      </trkpt>
      <trkpt lat="48.0746" lon="8.09551">
        <ele>422</ele>
        <time>2022-05-23T16:41:52Z</time>
      </trkpt>
      <trkpt lat="48.07439" lon="8.09556">
        <ele>423</ele>
        <time>2022-05-23T16:41:56Z</time>
      </trkpt>
      <trkpt lat="48.07419" lon="8.09565">
        <ele>424</ele>
        <time>2022-05-23T16:41:59Z</time>
      </trkpt>
      <trkpt lat="48.07401" lon="8.09583">
        <ele>425</ele>
        <time>2022-05-23T16:42:03Z</time>
      </trkpt>
      <trkpt lat="48.07368" lon="8.09625">
        <ele>425</ele>
        <time>2022-05-23T16:42:11Z</time>
      </trkpt>
      <trkpt lat="48.07293" lon="8.0976">
        <ele>430</ele>
        <time>2022-05-23T16:42:32Z</time>
      </trkpt>
      <trkpt lat="48.07275" lon="8.09781">
        <ele>430</ele>
        <time>2022-05-23T16:42:36Z</time>
      </trkpt>
      <trkpt lat="48.07206" lon="8.09838">
        <ele>429</ele>
        <time>2022-05-23T16:42:50Z</time>
      </trkpt>
      <trkpt lat="48.07154" lon="8.09895">
        <ele>435</ele>
        <time>2022-05-23T16:43:01Z</time>
      </trkpt>
      <trkpt lat="48.07136" lon="8.09911">
        <ele>436</ele>
        <time>2022-05-23T16:43:05Z</time>
      </trkpt>
      <trkpt lat="48.07125" lon="8.09914">
        <ele>436</ele>
        <time>2022-05-23T16:43:07Z</time>
      </trkpt>
      <trkpt lat="48.07105" lon="8.0991">
        <ele>435</ele>
        <time>2022-05-23T16:43:11Z</time>
      </trkpt>
      <trkpt lat="48.07059" lon="8.09882">
        <ele>432</ele>
        <time>2022-05-23T16:43:20Z</time>
      </trkpt>
      <trkpt lat="48.07037" lon="8.09876">
        <ele>431</ele>
        <time>2022-05-23T16:43:24Z</time>
      </trkpt>
      <trkpt lat="48.07014" lon="8.09872">
        <ele>431</ele>
        <time>2022-05-23T16:43:28Z</time>
      </trkpt>
      <trkpt lat="48.06984" lon="8.09873">
        <ele>431</ele>
        <time>2022-05-23T16:43:33Z</time>
      </trkpt>
      <trkpt lat="48.06811" lon="8.0989">
        <ele>437</ele>
        <time>2022-05-23T16:44:04Z</time>
      </trkpt>
      <trkpt lat="48.066" lon="8.09938">
        <ele>441</ele>
        <time>2022-05-23T16:44:42Z</time>
      </trkpt>
      <trkpt lat="48.06569" lon="8.09947">
        <ele>441</ele>
        <time>2022-05-23T16:44:47Z</time>
      </trkpt>
      <trkpt lat="48.0654" lon="8.09962">
        <ele>442</ele>
        <time>2022-05-23T16:44:53Z</time>
      </trkpt>
      <trkpt lat="48.06524" lon="8.09976">
        <ele>443</ele>
        <time>2022-05-23T16:44:56Z</time>
      </trkpt>
      <trkpt lat="48.06483" lon="8.10045">
        <ele>448</ele>
        <time>2022-05-23T16:45:07Z</time>
      </trkpt>
      <trkpt lat="48.06468" lon="8.10066">
        <ele>449</ele>
        <time>2022-05-23T16:45:11Z</time>
      </trkpt>
      <trkpt lat="48.06449" lon="8.10101">
        <ele>454</ele>
        <time>2022-05-23T16:45:16Z</time>
      </trkpt>
      <trkpt lat="48.06442" lon="8.1011">
        <ele>456</ele>
        <time>2022-05-23T16:45:18Z</time>
      </trkpt>
      <trkpt lat="48.06433" lon="8.10114">
        <ele>457</ele>
        <time>2022-05-23T16:45:20Z</time>
      </trkpt>
      <trkpt lat="48.06422" lon="8.10139">
        <ele>462</ele>
        <time>2022-05-23T16:45:23Z</time>
      </trkpt>
      <trkpt lat="48.06435" lon="8.10128">
        <ele>460</ele>
        <time>2022-05-23T16:45:26Z</time>
      </trkpt>
      <trkpt lat="48.06453" lon="8.10106">
        <ele>455</ele>
        <time>2022-05-23T16:45:30Z</time>
      </trkpt>
      <trkpt lat="48.06526" lon="8.09981">
        <ele>443</ele>
        <time>2022-05-23T16:45:50Z</time>
      </trkpt>
      <trkpt lat="48.06551" lon="8.0996">
        <ele>442</ele>
        <time>2022-05-23T16:45:55Z</time>
      </trkpt>
      <trkpt lat="48.06566" lon="8.09953">
        <ele>442</ele>
        <time>2022-05-23T16:45:58Z</time>
      </trkpt>
      <trkpt lat="48.06729" lon="8.09913">
        <ele>437</ele>
        <time>2022-05-23T16:46:27Z</time>
      </trkpt>
      <trkpt lat="48.06817" lon="8.09895">
        <ele>437</ele>
        <time>2022-05-23T16:46:43Z</time>
      </trkpt>
      <trkpt lat="48.06987" lon="8.09879">
        <ele>431</ele>
        <time>2022-05-23T16:47:13Z</time>
      </trkpt>
      <trkpt lat="48.07032" lon="8.09881">
        <ele>431</ele>
        <time>2022-05-23T16:47:21Z</time>
      </trkpt>
      <trkpt lat="48.07064" lon="8.09893">
        <ele>432</ele>
        <time>2022-05-23T16:47:27Z</time>
      </trkpt>
      <trkpt lat="48.07114" lon="8.09921">
        <ele>437</ele>
        <time>2022-05-23T16:47:36Z</time>
      </trkpt>
      <trkpt lat="48.07134" lon="8.09919">
        <ele>437</ele>
        <time>2022-05-23T16:47:40Z</time>
      </trkpt>
      <trkpt lat="48.07153" lon="8.09902">
        <ele>436</ele>
        <time>2022-05-23T16:47:44Z</time>
      </trkpt>
      <trkpt lat="48.07216" lon="8.09834">
        <ele>428</ele>
        <time>2022-05-23T16:47:58Z</time>
      </trkpt>
      <trkpt lat="48.07264" lon="8.09797">
        <ele>430</ele>
        <time>2022-05-23T16:48:07Z</time>
      </trkpt>
      <trkpt lat="48.07284" lon="8.09777">
        <ele>430</ele>
        <time>2022-05-23T16:48:12Z</time>
      </trkpt>
      <trkpt lat="48.07309" lon="8.09741">
        <ele>430</ele>
        <time>2022-05-23T16:48:18Z</time>
      </trkpt>
      <trkpt lat="48.07367" lon="8.09635">
        <ele>425</ele>
        <time>2022-05-23T16:48:34Z</time>
      </trkpt>
      <trkpt lat="48.07393" lon="8.096">
        <ele>425</ele>
        <time>2022-05-23T16:48:40Z</time>
      </trkpt>
      <trkpt lat="48.07422" lon="8.09571">
        <ele>424</ele>
        <time>2022-05-23T16:48:47Z</time>
      </trkpt>
      <trkpt lat="48.07442" lon="8.0956">
        <ele>423</ele>
        <time>2022-05-23T16:48:50Z</time>
      </trkpt>
      <trkpt lat="48.07465" lon="8.09556">
        <ele>422</ele>
        <time>2022-05-23T16:48:54Z</time>
      </trkpt>
      <trkpt lat="48.07488" lon="8.09561">
        <ele>421</ele>
        <time>2022-05-23T16:48:59Z</time>
      </trkpt>
      <trkpt lat="48.07541" lon="8.0959">
        <ele>419</ele>
        <time>2022-05-23T16:49:09Z</time>
      </trkpt>
      <trkpt lat="48.07562" lon="8.09596">
        <ele>418</ele>
        <time>2022-05-23T16:49:12Z</time>
      </trkpt>
      <trkpt lat="48.07574" lon="8.09596">
        <ele>418</ele>
        <time>2022-05-23T16:49:15Z</time>
      </trkpt>
      <trkpt lat="48.07633" lon="8.0958">
        <ele>416</ele>
        <time>2022-05-23T16:49:25Z</time>
      </trkpt>
      <trkpt lat="48.07667" lon="8.09568">
        <ele>416</ele>
        <time>2022-05-23T16:49:31Z</time>
      </trkpt>
      <trkpt lat="48.077" lon="8.0955">
        <ele>416</ele>
        <time>2022-05-23T16:49:38Z</time>
      </trkpt>
      <trkpt lat="48.07729" lon="8.09528">
        <ele>416</ele>
        <time>2022-05-23T16:49:43Z</time>
      </trkpt>
      <trkpt lat="48.07803" lon="8.0946">
        <ele>416</ele>
        <time>2022-05-23T16:49:59Z</time>
      </trkpt>
      <trkpt lat="48.07812" lon="8.09454">
        <ele>416</ele>
        <time>2022-05-23T16:50:01Z</time>
      </trkpt>
      <trkpt lat="48.07818" lon="8.09443">
        <ele>416</ele>
        <time>2022-05-23T16:50:02Z</time>
      </trkpt>
      <trkpt lat="48.0787" lon="8.09392">
        <ele>415</ele>
        <time>2022-05-23T16:50:13Z</time>
      </trkpt>
      <trkpt lat="48.07893" lon="8.09388">
        <ele>415</ele>
        <time>2022-05-23T16:50:18Z</time>
      </trkpt>
      <trkpt lat="48.07915" lon="8.09376">
        <ele>415</ele>
        <time>2022-05-23T16:50:22Z</time>
      </trkpt>
      <trkpt lat="48.07924" lon="8.09376">
        <ele>415</ele>
        <time>2022-05-23T16:50:23Z</time>
      </trkpt>
      <trkpt lat="48.07926" lon="8.09426">
        <ele>419</ele>
        <time>2022-05-23T16:50:29Z</time>
      </trkpt>
      <trkpt lat="48.07933" lon="8.09489">
        <ele>421</ele>
        <time>2022-05-23T16:50:37Z</time>
      </trkpt>
      <trkpt lat="48.07937" lon="8.09502">
        <ele>422</ele>
        <time>2022-05-23T16:50:39Z</time>
      </trkpt>
      <trkpt lat="48.07945" lon="8.09562">
        <ele>424</ele>
        <time>2022-05-23T16:50:46Z</time>
      </trkpt>
      <trkpt lat="48.07948" lon="8.0961">
        <ele>427</ele>
        <time>2022-05-23T16:50:52Z</time>
      </trkpt>
      <trkpt lat="48.07944" lon="8.09639">
        <ele>430</ele>
        <time>2022-05-23T16:50:55Z</time>
      </trkpt>
      <trkpt lat="48.07933" lon="8.09681">
        <ele>433</ele>
        <time>2022-05-23T16:51:00Z</time>
      </trkpt>
      <trkpt lat="48.07932" lon="8.0971">
        <ele>435</ele>
        <time>2022-05-23T16:51:04Z</time>
      </trkpt>
      <trkpt lat="48.07935" lon="8.09726">
        <ele>437</ele>
        <time>2022-05-23T16:51:06Z</time>
      </trkpt>
      <trkpt lat="48.07944" lon="8.09752">
        <ele>439</ele>
        <time>2022-05-23T16:51:09Z</time>
      </trkpt>
      <trkpt lat="48.07951" lon="8.09762">
        <ele>439</ele>
        <time>2022-05-23T16:51:11Z</time>
      </trkpt>
      <trkpt lat="48.0796" lon="8.09767">
        <ele>439</ele>
        <time>2022-05-23T16:51:13Z</time>
      </trkpt>
      <trkpt lat="48.07974" lon="8.0979">
        <ele>440</ele>
        <time>2022-05-23T16:51:16Z</time>
      </trkpt>
      <trkpt lat="48.07978" lon="8.09803">
        <ele>440</ele>
        <time>2022-05-23T16:51:18Z</time>
      </trkpt>
      <trkpt lat="48.07984" lon="8.09905">
        <ele>443</ele>
        <time>2022-05-23T16:51:30Z</time>
      </trkpt>
      <trkpt lat="48.07976" lon="8.10006">
        <ele>450</ele>
        <time>2022-05-23T16:51:42Z</time>
      </trkpt>
      <trkpt lat="48.07978" lon="8.10047">
        <ele>451</ele>
        <time>2022-05-23T16:51:47Z</time>
      </trkpt>
      <trkpt lat="48.07985" lon="8.1009">
        <ele>453</ele>
        <time>2022-05-23T16:51:53Z</time>
      </trkpt>
      <trkpt lat="48.07989" lon="8.10134">
        <ele>456</ele>
        <time>2022-05-23T16:51:58Z</time>
      </trkpt>
      <trkpt lat="48.07988" lon="8.10147">
        <ele>457</ele>
        <time>2022-05-23T16:51:59Z</time>
      </trkpt>
      <trkpt lat="48.0797" lon="8.10213">
        <ele>461</ele>
        <time>2022-05-23T16:52:08Z</time>
      </trkpt>
      <trkpt lat="48.07962" lon="8.10221">
        <ele>460</ele>
        <time>2022-05-23T16:52:10Z</time>
      </trkpt>
      <trkpt lat="48.07957" lon="8.1025">
        <ele>462</ele>
        <time>2022-05-23T16:52:13Z</time>
      </trkpt>
      <trkpt lat="48.07952" lon="8.10263">
        <ele>463</ele>
        <time>2022-05-23T16:52:15Z</time>
      </trkpt>
      <trkpt lat="48.07947" lon="8.10304">
        <ele>468</ele>
        <time>2022-05-23T16:52:20Z</time>
      </trkpt>
      <trkpt lat="48.07947" lon="8.10333">
        <ele>473</ele>
        <time>2022-05-23T16:52:23Z</time>
      </trkpt>
      <trkpt lat="48.07972" lon="8.1038">
        <ele>480</ele>
        <time>2022-05-23T16:52:30Z</time>
      </trkpt>
      <trkpt lat="48.07974" lon="8.1041">
        <ele>481</ele>
        <time>2022-05-23T16:52:34Z</time>
      </trkpt>
      <trkpt lat="48.07971" lon="8.10426">
        <ele>481</ele>
        <time>2022-05-23T16:52:36Z</time>
      </trkpt>
      <trkpt lat="48.07972" lon="8.10455">
        <ele>482</ele>
        <time>2022-05-23T16:52:39Z</time>
      </trkpt>
      <trkpt lat="48.07975" lon="8.10469">
        <ele>482</ele>
        <time>2022-05-23T16:52:41Z</time>
      </trkpt>
      <trkpt lat="48.07993" lon="8.10507">
        <ele>479</ele>
        <time>2022-05-23T16:52:47Z</time>
      </trkpt>
      <trkpt lat="48.07996" lon="8.10535">
        <ele>478</ele>
        <time>2022-05-23T16:52:50Z</time>
      </trkpt>
      <trkpt lat="48.08003" lon="8.10564">
        <ele>478</ele>
        <time>2022-05-23T16:52:54Z</time>
      </trkpt>
      <trkpt lat="48.08009" lon="8.10574">
        <ele>481</ele>
        <time>2022-05-23T16:52:55Z</time>
      </trkpt>
      <trkpt lat="48.08019" lon="8.10601">
        <ele>485</ele>
        <time>2022-05-23T16:52:59Z</time>
      </trkpt>
      <trkpt lat="48.0804" lon="8.10636">
        <ele>490</ele>
        <time>2022-05-23T16:53:05Z</time>
      </trkpt>
      <trkpt lat="48.08063" lon="8.10685">
        <ele>488</ele>
        <time>2022-05-23T16:53:12Z</time>
      </trkpt>
      <trkpt lat="48.08071" lon="8.1071">
        <ele>485</ele>
        <time>2022-05-23T16:53:15Z</time>
      </trkpt>
      <trkpt lat="48.08078" lon="8.10721">
        <ele>483</ele>
        <time>2022-05-23T16:53:17Z</time>
      </trkpt>
      <trkpt lat="48.08099" lon="8.10769">
        <ele>485</ele>
        <time>2022-05-23T16:53:24Z</time>
      </trkpt>
      <trkpt lat="48.08131" lon="8.10828">
        <ele>493</ele>
        <time>2022-05-23T16:53:33Z</time>
      </trkpt>
      <trkpt lat="48.08136" lon="8.10858">
        <ele>494</ele>
        <time>2022-05-23T16:53:36Z</time>
      </trkpt>
      <trkpt lat="48.08137" lon="8.10967">
        <ele>499</ele>
        <time>2022-05-23T16:53:49Z</time>
      </trkpt>
      <trkpt lat="48.08134" lon="8.10984">
        <ele>500</ele>
        <time>2022-05-23T16:53:51Z</time>
      </trkpt>
      <trkpt lat="48.08136" lon="8.11013">
        <ele>501</ele>
        <time>2022-05-23T16:53:55Z</time>
      </trkpt>
      <trkpt lat="48.08134" lon="8.11046">
        <ele>501</ele>
        <time>2022-05-23T16:53:59Z</time>
      </trkpt>
      <trkpt lat="48.0813" lon="8.11075">
        <ele>500</ele>
        <time>2022-05-23T16:54:02Z</time>
      </trkpt>
      <trkpt lat="48.08117" lon="8.11113">
        <ele>501</ele>
        <time>2022-05-23T16:54:07Z</time>
      </trkpt>
      <trkpt lat="48.08117" lon="8.11128">
        <ele>502</ele>
        <time>2022-05-23T16:54:09Z</time>
      </trkpt>
      <trkpt lat="48.08121" lon="8.11155">
        <ele>504</ele>
        <time>2022-05-23T16:54:13Z</time>
      </trkpt>
      <trkpt lat="48.08139" lon="8.11206">
        <ele>507</ele>
        <time>2022-05-23T16:54:19Z</time>
      </trkpt>
      <trkpt lat="48.08143" lon="8.11255">
        <ele>508</ele>
        <time>2022-05-23T16:54:25Z</time>
      </trkpt>
      <trkpt lat="48.0813" lon="8.11363">
        <ele>510</ele>
        <time>2022-05-23T16:54:38Z</time>
      </trkpt>
      <trkpt lat="48.0812" lon="8.11403">
        <ele>509</ele>
        <time>2022-05-23T16:54:43Z</time>
      </trkpt>
      <trkpt lat="48.08121" lon="8.11417">
        <ele>509</ele>
        <time>2022-05-23T16:54:45Z</time>
      </trkpt>
      <trkpt lat="48.0811" lon="8.11523">
        <ele>510</ele>
        <time>2022-05-23T16:54:58Z</time>
      </trkpt>
      <trkpt lat="48.08111" lon="8.11565">
        <ele>511</ele>
        <time>2022-05-23T16:55:03Z</time>
      </trkpt>
      <trkpt lat="48.08103" lon="8.11624">
        <ele>510</ele>
        <time>2022-05-23T16:55:10Z</time>
      </trkpt>
      <trkpt lat="48.08096" lon="8.11654">
        <ele>508</ele>
        <time>2022-05-23T16:55:14Z</time>
      </trkpt>
      <trkpt lat="48.08093" lon="8.11684">
        <ele>508</ele>
        <time>2022-05-23T16:55:17Z</time>
      </trkpt>
      <trkpt lat="48.08105" lon="8.1176">
        <ele>515</ele>
        <time>2022-05-23T16:55:27Z</time>
      </trkpt>
      <trkpt lat="48.08109" lon="8.11831">
        <ele>520</ele>
        <time>2022-05-23T16:55:35Z</time>
      </trkpt>
      <trkpt lat="48.08144" lon="8.11918">
        <ele>529</ele>
        <time>2022-05-23T16:55:47Z</time>
      </trkpt>
      <trkpt lat="48.08151" lon="8.11929">
        <ele>530</ele>
        <time>2022-05-23T16:55:49Z</time>
      </trkpt>
      <trkpt lat="48.08159" lon="8.11971">
        <ele>530</ele>
        <time>2022-05-23T16:55:54Z</time>
      </trkpt>
      <trkpt lat="48.08164" lon="8.12028">
        <ele>530</ele>
        <time>2022-05-23T16:56:01Z</time>
      </trkpt>
      <trkpt lat="48.08165" lon="8.12087">
        <ele>531</ele>
        <time>2022-05-23T16:56:08Z</time>
      </trkpt>
      <trkpt lat="48.08181" lon="8.12173">
        <ele>539</ele>
        <time>2022-05-23T16:56:19Z</time>
      </trkpt>
      <trkpt lat="48.08181" lon="8.12203">
        <ele>537</ele>
        <time>2022-05-23T16:56:22Z</time>
      </trkpt>
      <trkpt lat="48.08186" lon="8.12216">
        <ele>539</ele>
        <time>2022-05-23T16:56:24Z</time>
      </trkpt>
      <trkpt lat="48.08185" lon="8.1223">
        <ele>537</ele>
        <time>2022-05-23T16:56:26Z</time>
      </trkpt>
      <trkpt lat="48.08203" lon="8.12298">
        <ele>539</ele>
        <time>2022-05-23T16:56:34Z</time>
      </trkpt>
      <trkpt lat="48.08193" lon="8.12372">
        <ele>533</ele>
        <time>2022-05-23T16:56:43Z</time>
      </trkpt>
      <trkpt lat="48.08175" lon="8.12427">
        <ele>530</ele>
        <time>2022-05-23T16:56:51Z</time>
      </trkpt>
      <trkpt lat="48.08169" lon="8.12454">
        <ele>531</ele>
        <time>2022-05-23T16:56:54Z</time>
      </trkpt>
      <trkpt lat="48.0817" lon="8.12469">
        <ele>532</ele>
        <time>2022-05-23T16:56:56Z</time>
      </trkpt>
      <trkpt lat="48.08162" lon="8.12527">
        <ele>538</ele>
        <time>2022-05-23T16:57:03Z</time>
      </trkpt>
      <trkpt lat="48.08136" lon="8.12608">
        <ele>552</ele>
        <time>2022-05-23T16:57:13Z</time>
      </trkpt>
      <trkpt lat="48.0811" lon="8.12717">
        <ele>573</ele>
        <time>2022-05-23T16:57:27Z</time>
      </trkpt>
      <trkpt lat="48.0811" lon="8.1279">
        <ele>583</ele>
        <time>2022-05-23T16:57:36Z</time>
      </trkpt>
      <trkpt lat="48.08113" lon="8.12817">
        <ele>586</ele>
        <time>2022-05-23T16:57:39Z</time>
      </trkpt>
      <trkpt lat="48.08112" lon="8.1286">
        <ele>591</ele>
        <time>2022-05-23T16:57:44Z</time>
      </trkpt>
      <trkpt lat="48.08114" lon="8.12873">
        <ele>593</ele>
        <time>2022-05-23T16:57:46Z</time>
      </trkpt>
      <trkpt lat="48.08108" lon="8.12886">
        <ele>594</ele>
        <time>2022-05-23T16:57:48Z</time>
      </trkpt>
      <trkpt lat="48.08116" lon="8.12929">
        <ele>600</ele>
        <time>2022-05-23T16:57:53Z</time>
      </trkpt>
      <trkpt lat="48.08139" lon="8.12973">
        <ele>604</ele>
        <time>2022-05-23T16:58:00Z</time>
      </trkpt>
      <trkpt lat="48.08153" lon="8.12994">
        <ele>604</ele>
        <time>2022-05-23T16:58:03Z</time>
      </trkpt>
      <trkpt lat="48.08159" lon="8.13022">
        <ele>602</ele>
        <time>2022-05-23T16:58:07Z</time>
      </trkpt>
      <trkpt lat="48.08157" lon="8.13051">
        <ele>602</ele>
        <time>2022-05-23T16:58:10Z</time>
      </trkpt>
      <trkpt lat="48.08165" lon="8.13092">
        <ele>598</ele>
        <time>2022-05-23T16:58:15Z</time>
      </trkpt>
      <trkpt lat="48.08165" lon="8.13121">
        <ele>600</ele>
        <time>2022-05-23T16:58:19Z</time>
      </trkpt>
      <trkpt lat="48.08151" lon="8.13191">
        <ele>610</ele>
        <time>2022-05-23T16:58:27Z</time>
      </trkpt>
      <trkpt lat="48.08134" lon="8.13244">
        <ele>618</ele>
        <time>2022-05-23T16:58:34Z</time>
      </trkpt>
      <trkpt lat="48.08133" lon="8.13258">
        <ele>618</ele>
        <time>2022-05-23T16:58:36Z</time>
      </trkpt>
      <trkpt lat="48.08136" lon="8.13272">
        <ele>617</ele>
        <time>2022-05-23T16:58:38Z</time>
      </trkpt>
      <trkpt lat="48.08132" lon="8.13315">
        <ele>616</ele>
        <time>2022-05-23T16:58:43Z</time>
      </trkpt>
      <trkpt lat="48.08121" lon="8.13339">
        <ele>618</ele>
        <time>2022-05-23T16:58:46Z</time>
      </trkpt>
      <trkpt lat="48.08112" lon="8.13345">
        <ele>620</ele>
        <time>2022-05-23T16:58:48Z</time>
      </trkpt>
      <trkpt lat="48.08103" lon="8.13341">
        <ele>619</ele>
        <time>2022-05-23T16:58:50Z</time>
      </trkpt>
      <trkpt lat="48.08084" lon="8.13338">
        <ele>619</ele>
        <time>2022-05-23T16:58:53Z</time>
      </trkpt>
      <trkpt lat="48.08076" lon="8.1333">
        <ele>621</ele>
        <time>2022-05-23T16:58:55Z</time>
      </trkpt>
      <trkpt lat="48.08067" lon="8.13331">
        <ele>624</ele>
        <time>2022-05-23T16:58:57Z</time>
      </trkpt>
      <trkpt lat="48.0804" lon="8.13345">
        <ele>634</ele>
        <time>2022-05-23T16:59:02Z</time>
      </trkpt>
      <trkpt lat="48.08033" lon="8.13357">
        <ele>638</ele>
        <time>2022-05-23T16:59:04Z</time>
      </trkpt>
      <trkpt lat="48.08044" lon="8.13353">
        <ele>634</ele>
        <time>2022-05-23T16:59:06Z</time>
      </trkpt>
      <trkpt lat="48.08054" lon="8.13354">
        <ele>632</ele>
        <time>2022-05-23T16:59:07Z</time>
      </trkpt>
      <trkpt lat="48.08072" lon="8.13366">
        <ele>631</ele>
        <time>2022-05-23T16:59:11Z</time>
      </trkpt>
      <trkpt lat="48.08082" lon="8.13368">
        <ele>629</ele>
        <time>2022-05-23T16:59:13Z</time>
      </trkpt>
      <trkpt lat="48.081" lon="8.13377">
        <ele>631</ele>
        <time>2022-05-23T16:59:16Z</time>
      </trkpt>
      <trkpt lat="48.08121" lon="8.13378">
        <ele>630</ele>
        <time>2022-05-23T16:59:20Z</time>
      </trkpt>
      <trkpt lat="48.08131" lon="8.13376">
        <ele>629</ele>
        <time>2022-05-23T16:59:22Z</time>
      </trkpt>
      <trkpt lat="48.0814" lon="8.13371">
        <ele>627</ele>
        <time>2022-05-23T16:59:23Z</time>
      </trkpt>
      <trkpt lat="48.08149" lon="8.13371">
        <ele>627</ele>
        <time>2022-05-23T16:59:25Z</time>
      </trkpt>
      <trkpt lat="48.08159" lon="8.13375">
        <ele>627</ele>
        <time>2022-05-23T16:59:27Z</time>
      </trkpt>
      <trkpt lat="48.08214" lon="8.13409">
        <ele>636</ele>
        <time>2022-05-23T16:59:37Z</time>
      </trkpt>
      <trkpt lat="48.08233" lon="8.13417">
        <ele>636</ele>
        <time>2022-05-23T16:59:41Z</time>
      </trkpt>
      <trkpt lat="48.0825" lon="8.13431">
        <ele>638</ele>
        <time>2022-05-23T16:59:44Z</time>
      </trkpt>
      <trkpt lat="48.08257" lon="8.13441">
        <ele>640</ele>
        <time>2022-05-23T16:59:46Z</time>
      </trkpt>
      <trkpt lat="48.08266" lon="8.13448">
        <ele>641</ele>
        <time>2022-05-23T16:59:48Z</time>
      </trkpt>
      <trkpt lat="48.08271" lon="8.13459">
        <ele>643</ele>
        <time>2022-05-23T16:59:49Z</time>
      </trkpt>
      <trkpt lat="48.08292" lon="8.13489">
        <ele>646</ele>
        <time>2022-05-23T16:59:55Z</time>
      </trkpt>
      <trkpt lat="48.08315" lon="8.13535">
        <ele>651</ele>
        <time>2022-05-23T17:00:01Z</time>
      </trkpt>
      <trkpt lat="48.0832" lon="8.13548">
        <ele>652</ele>
        <time>2022-05-23T17:00:03Z</time>
      </trkpt>
      <trkpt lat="48.08324" lon="8.13578">
        <ele>655</ele>
        <time>2022-05-23T17:00:07Z</time>
      </trkpt>
      <trkpt lat="48.08319" lon="8.13634">
        <ele>666</ele>
        <time>2022-05-23T17:00:14Z</time>
      </trkpt>
      <trkpt lat="48.08327" lon="8.13642">
        <ele>665</ele>
        <time>2022-05-23T17:00:15Z</time>
      </trkpt>
      <trkpt lat="48.08337" lon="8.13643">
        <ele>665</ele>
        <time>2022-05-23T17:00:17Z</time>
      </trkpt>
      <trkpt lat="48.08345" lon="8.1365">
        <ele>669</ele>
        <time>2022-05-23T17:00:19Z</time>
      </trkpt>
      <trkpt lat="48.08345" lon="8.13664">
        <ele>672</ele>
        <time>2022-05-23T17:00:20Z</time>
      </trkpt>
      <trkpt lat="48.08323" lon="8.13746">
        <ele>683</ele>
        <time>2022-05-23T17:00:31Z</time>
      </trkpt>
      <trkpt lat="48.08305" lon="8.13753">
        <ele>689</ele>
        <time>2022-05-23T17:00:34Z</time>
      </trkpt>
      <trkpt lat="48.08296" lon="8.13745">
        <ele>690</ele>
        <time>2022-05-23T17:00:36Z</time>
      </trkpt>
      <trkpt lat="48.08272" lon="8.13683">
        <ele>686</ele>
        <time>2022-05-23T17:00:45Z</time>
      </trkpt>
      <trkpt lat="48.08216" lon="8.13603">
        <ele>693</ele>
        <time>2022-05-23T17:00:58Z</time>
      </trkpt>
      <trkpt lat="48.08201" lon="8.13584">
        <ele>694</ele>
        <time>2022-05-23T17:01:02Z</time>
      </trkpt>
      <trkpt lat="48.08183" lon="8.1357">
        <ele>697</ele>
        <time>2022-05-23T17:01:05Z</time>
      </trkpt>
      <trkpt lat="48.08165" lon="8.1356">
        <ele>700</ele>
        <time>2022-05-23T17:01:09Z</time>
      </trkpt>
      <trkpt lat="48.08134" lon="8.13556">
        <ele>703</ele>
        <time>2022-05-23T17:01:14Z</time>
      </trkpt>
      <trkpt lat="48.08125" lon="8.13559">
        <ele>706</ele>
        <time>2022-05-23T17:01:16Z</time>
      </trkpt>
      <trkpt lat="48.08115" lon="8.13558">
        <ele>708</ele>
        <time>2022-05-23T17:01:18Z</time>
      </trkpt>
      <trkpt lat="48.08095" lon="8.13561">
        <ele>713</ele>
        <time>2022-05-23T17:01:21Z</time>
      </trkpt>
      <trkpt lat="48.08048" lon="8.13542">
        <ele>705</ele>
        <time>2022-05-23T17:01:30Z</time>
      </trkpt>
      <trkpt lat="48.08018" lon="8.13543">
        <ele>706</ele>
        <time>2022-05-23T17:01:35Z</time>
      </trkpt>
      <trkpt lat="48.08008" lon="8.13545">
        <ele>707</ele>
        <time>2022-05-23T17:01:37Z</time>
      </trkpt>
      <trkpt lat="48.0799" lon="8.13555">
        <ele>712</ele>
        <time>2022-05-23T17:01:41Z</time>
      </trkpt>
      <trkpt lat="48.0798" lon="8.13557">
        <ele>712</ele>
        <time>2022-05-23T17:01:42Z</time>
      </trkpt>
      <trkpt lat="48.07963" lon="8.13571">
        <ele>718</ele>
        <time>2022-05-23T17:01:46Z</time>
      </trkpt>
      <trkpt lat="48.07943" lon="8.13578">
        <ele>720</ele>
        <time>2022-05-23T17:01:49Z</time>
      </trkpt>
      <trkpt lat="48.07935" lon="8.13586">
        <ele>724</ele>
        <time>2022-05-23T17:01:51Z</time>
      </trkpt>
      <trkpt lat="48.07925" lon="8.1359">
        <ele>725</ele>
        <time>2022-05-23T17:01:53Z</time>
      </trkpt>
      <trkpt lat="48.07916" lon="8.1359">
        <ele>725</ele>
        <time>2022-05-23T17:01:55Z</time>
      </trkpt>
      <trkpt lat="48.07895" lon="8.13596">
        <ele>736</ele>
        <time>2022-05-23T17:01:58Z</time>
      </trkpt>
      <trkpt lat="48.07877" lon="8.13595">
        <ele>742</ele>
        <time>2022-05-23T17:02:02Z</time>
      </trkpt>
      <trkpt lat="48.07859" lon="8.13588">
        <ele>745</ele>
        <time>2022-05-23T17:02:05Z</time>
      </trkpt>
      <trkpt lat="48.07851" lon="8.13579">
        <ele>744</ele>
        <time>2022-05-23T17:02:07Z</time>
      </trkpt>
      <trkpt lat="48.07844" lon="8.13569">
        <ele>743</ele>
        <time>2022-05-23T17:02:08Z</time>
      </trkpt>
      <trkpt lat="48.07841" lon="8.13556">
        <ele>738</ele>
        <time>2022-05-23T17:02:10Z</time>
      </trkpt>
      <trkpt lat="48.07822" lon="8.13524">
        <ele>728</ele>
        <time>2022-05-23T17:02:15Z</time>
      </trkpt>
      <trkpt lat="48.07812" lon="8.13516">
        <ele>725</ele>
        <time>2022-05-23T17:02:17Z</time>
      </trkpt>
      <trkpt lat="48.07793" lon="8.13515">
        <ele>726</ele>
        <time>2022-05-23T17:02:21Z</time>
      </trkpt>
      <trkpt lat="48.07764" lon="8.13518">
        <ele>730</ele>
        <time>2022-05-23T17:02:26Z</time>
      </trkpt>
      <trkpt lat="48.07754" lon="8.13521">
        <ele>731</ele>
        <time>2022-05-23T17:02:28Z</time>
      </trkpt>
      <trkpt lat="48.07745" lon="8.13528">
        <ele>734</ele>
        <time>2022-05-23T17:02:29Z</time>
      </trkpt>
      <trkpt lat="48.07731" lon="8.1357">
        <ele>744</ele>
        <time>2022-05-23T17:02:35Z</time>
      </trkpt>
      <trkpt lat="48.07714" lon="8.13609">
        <ele>750</ele>
        <time>2022-05-23T17:02:40Z</time>
      </trkpt>
      <trkpt lat="48.07707" lon="8.1362">
        <ele>750</ele>
        <time>2022-05-23T17:02:42Z</time>
      </trkpt>
      <trkpt lat="48.07698" lon="8.13628">
        <ele>749</ele>
        <time>2022-05-23T17:02:44Z</time>
      </trkpt>
      <trkpt lat="48.07675" lon="8.13692">
        <ele>756</ele>
        <time>2022-05-23T17:02:53Z</time>
      </trkpt>
      <trkpt lat="48.07668" lon="8.13702">
        <ele>757</ele>
        <time>2022-05-23T17:02:54Z</time>
      </trkpt>
      <trkpt lat="48.07652" lon="8.13718">
        <ele>764</ele>
        <time>2022-05-23T17:02:58Z</time>
      </trkpt>
      <trkpt lat="48.07632" lon="8.13725">
        <ele>766</ele>
        <time>2022-05-23T17:03:02Z</time>
      </trkpt>
      <trkpt lat="48.07623" lon="8.13731">
        <ele>767</ele>
        <time>2022-05-23T17:03:03Z</time>
      </trkpt>
      <trkpt lat="48.07603" lon="8.13734">
        <ele>766</ele>
        <time>2022-05-23T17:03:07Z</time>
      </trkpt>
      <trkpt lat="48.07596" lon="8.13743">
        <ele>765</ele>
        <time>2022-05-23T17:03:09Z</time>
      </trkpt>
      <trkpt lat="48.07591" lon="8.13755">
        <ele>766</ele>
        <time>2022-05-23T17:03:10Z</time>
      </trkpt>
      <trkpt lat="48.07581" lon="8.13761">
        <ele>767</ele>
        <time>2022-05-23T17:03:12Z</time>
      </trkpt>
      <trkpt lat="48.07562" lon="8.13766">
        <ele>773</ele>
        <time>2022-05-23T17:03:16Z</time>
      </trkpt>
      <trkpt lat="48.07553" lon="8.13766">
        <ele>776</ele>
        <time>2022-05-23T17:03:17Z</time>
      </trkpt>
      <trkpt lat="48.07534" lon="8.13774">
        <ele>781</ele>
        <time>2022-05-23T17:03:21Z</time>
      </trkpt>
      <trkpt lat="48.07518" lon="8.13793">
        <ele>782</ele>
        <time>2022-05-23T17:03:24Z</time>
      </trkpt>
      <trkpt lat="48.07511" lon="8.13805">
        <ele>782</ele>
        <time>2022-05-23T17:03:26Z</time>
      </trkpt>
      <trkpt lat="48.07496" lon="8.13846">
        <ele>781</ele>
        <time>2022-05-23T17:03:32Z</time>
      </trkpt>
      <trkpt lat="48.07475" lon="8.13872">
        <ele>790</ele>
        <time>2022-05-23T17:03:37Z</time>
      </trkpt>
      <trkpt lat="48.07464" lon="8.13895">
        <ele>792</ele>
        <time>2022-05-23T17:03:40Z</time>
      </trkpt>
      <trkpt lat="48.07453" lon="8.13936">
        <ele>795</ele>
        <time>2022-05-23T17:03:45Z</time>
      </trkpt>
      <trkpt lat="48.07431" lon="8.13962">
        <ele>794</ele>
        <time>2022-05-23T17:03:50Z</time>
      </trkpt>
      <trkpt lat="48.07421" lon="8.13967">
        <ele>792</ele>
        <time>2022-05-23T17:03:52Z</time>
      </trkpt>
      <trkpt lat="48.07414" lon="8.13975">
        <ele>793</ele>
        <time>2022-05-23T17:03:54Z</time>
      </trkpt>
      <trkpt lat="48.07405" lon="8.1398">
        <ele>797</ele>
        <time>2022-05-23T17:03:55Z</time>
      </trkpt>
      <trkpt lat="48.07401" lon="8.13993">
        <ele>798</ele>
        <time>2022-05-23T17:03:57Z</time>
      </trkpt>
      <trkpt lat="48.07394" lon="8.14049">
        <ele>803</ele>
        <time>2022-05-23T17:04:04Z</time>
      </trkpt>
      <trkpt lat="48.07388" lon="8.14059">
        <ele>804</ele>
        <time>2022-05-23T17:04:05Z</time>
      </trkpt>
      <trkpt lat="48.07386" lon="8.14075">
        <ele>804</ele>
        <time>2022-05-23T17:04:07Z</time>
      </trkpt>
      <trkpt lat="48.07357" lon="8.14132">
        <ele>804</ele>
        <time>2022-05-23T17:04:16Z</time>
      </trkpt>
      <trkpt lat="48.07351" lon="8.14141">
        <ele>804</ele>
        <time>2022-05-23T17:04:17Z</time>
      </trkpt>
      <trkpt lat="48.07332" lon="8.14151">
        <ele>802</ele>
        <time>2022-05-23T17:04:21Z</time>
      </trkpt>
      <trkpt lat="48.07308" lon="8.14176">
        <ele>814</ele>
        <time>2022-05-23T17:04:26Z</time>
      </trkpt>
      <trkpt lat="48.07298" lon="8.14181">
        <ele>818</ele>
        <time>2022-05-23T17:04:28Z</time>
      </trkpt>
      <trkpt lat="48.0729" lon="8.14189">
        <ele>822</ele>
        <time>2022-05-23T17:04:30Z</time>
      </trkpt>
      <trkpt lat="48.07284" lon="8.142">
        <ele>824</ele>
        <time>2022-05-23T17:04:31Z</time>
      </trkpt>
      <trkpt lat="48.07276" lon="8.14207">
        <ele>826</ele>
        <time>2022-05-23T17:04:33Z</time>
      </trkpt>
      <trkpt lat="48.07274" lon="8.14221">
        <ele>825</ele>
        <time>2022-05-23T17:04:35Z</time>
      </trkpt>
      <trkpt lat="48.07264" lon="8.14246">
        <ele>824</ele>
        <time>2022-05-23T17:04:38Z</time>
      </trkpt>
      <trkpt lat="48.07268" lon="8.14263">
        <ele>825</ele>
        <time>2022-05-23T17:04:40Z</time>
      </trkpt>
      <trkpt lat="48.07258" lon="8.14271">
        <ele>825</ele>
        <time>2022-05-23T17:04:42Z</time>
      </trkpt>
      <trkpt lat="48.07238" lon="8.14275">
        <ele>829</ele>
        <time>2022-05-23T17:04:46Z</time>
      </trkpt>
      <trkpt lat="48.0723" lon="8.14282">
        <ele>833</ele>
        <time>2022-05-23T17:04:48Z</time>
      </trkpt>
      <trkpt lat="48.0723" lon="8.14296">
        <ele>834</ele>
        <time>2022-05-23T17:04:49Z</time>
      </trkpt>
      <trkpt lat="48.07243" lon="8.14336">
        <ele>830</ele>
        <time>2022-05-23T17:04:55Z</time>
      </trkpt>
      <trkpt lat="48.07241" lon="8.14365">
        <ele>832</ele>
        <time>2022-05-23T17:04:58Z</time>
      </trkpt>
      <trkpt lat="48.07223" lon="8.14449">
        <ele>840</ele>
        <time>2022-05-23T17:05:09Z</time>
      </trkpt>
      <trkpt lat="48.07217" lon="8.14461">
        <ele>842</ele>
        <time>2022-05-23T17:05:10Z</time>
      </trkpt>
      <trkpt lat="48.07214" lon="8.14476">
        <ele>842</ele>
        <time>2022-05-23T17:05:12Z</time>
      </trkpt>
      <trkpt lat="48.07191" lon="8.14502">
        <ele>842</ele>
        <time>2022-05-23T17:05:17Z</time>
      </trkpt>
      <trkpt lat="48.07178" lon="8.14523">
        <ele>842</ele>
        <time>2022-05-23T17:05:21Z</time>
      </trkpt>
      <trkpt lat="48.07161" lon="8.14539">
        <ele>843</ele>
        <time>2022-05-23T17:05:24Z</time>
      </trkpt>
      <trkpt lat="48.07151" lon="8.14543">
        <ele>845</ele>
        <time>2022-05-23T17:05:26Z</time>
      </trkpt>
      <trkpt lat="48.07142" lon="8.14551">
        <ele>847</ele>
        <time>2022-05-23T17:05:28Z</time>
      </trkpt>
      <trkpt lat="48.07126" lon="8.14605">
        <ele>847</ele>
        <time>2022-05-23T17:05:35Z</time>
      </trkpt>
      <trkpt lat="48.07104" lon="8.14636">
        <ele>846</ele>
        <time>2022-05-23T17:05:40Z</time>
      </trkpt>
      <trkpt lat="48.07088" lon="8.14651">
        <ele>843</ele>
        <time>2022-05-23T17:05:44Z</time>
      </trkpt>
      <trkpt lat="48.07025" lon="8.14729">
        <ele>846</ele>
        <time>2022-05-23T17:05:58Z</time>
      </trkpt>
      <trkpt lat="48.07017" lon="8.14734">
        <ele>846</ele>
        <time>2022-05-23T17:06:00Z</time>
      </trkpt>
      <trkpt lat="48.06986" lon="8.1479">
        <ele>848</ele>
        <time>2022-05-23T17:06:09Z</time>
      </trkpt>
      <trkpt lat="48.06981" lon="8.14804">
        <ele>850</ele>
        <time>2022-05-23T17:06:10Z</time>
      </trkpt>
      <trkpt lat="48.06979" lon="8.14849">
        <ele>853</ele>
        <time>2022-05-23T17:06:16Z</time>
      </trkpt>
      <trkpt lat="48.06981" lon="8.14894">
        <ele>857</ele>
        <time>2022-05-23T17:06:21Z</time>
      </trkpt>
      <trkpt lat="48.06991" lon="8.14936">
        <ele>858</ele>
        <time>2022-05-23T17:06:26Z</time>
      </trkpt>
      <trkpt lat="48.06996" lon="8.14947">
        <ele>857</ele>
        <time>2022-05-23T17:06:28Z</time>
      </trkpt>
      <trkpt lat="48.07004" lon="8.14957">
        <ele>857</ele>
        <time>2022-05-23T17:06:30Z</time>
      </trkpt>
      <trkpt lat="48.07028" lon="8.14982">
        <ele>860</ele>
        <time>2022-05-23T17:06:35Z</time>
      </trkpt>
      <trkpt lat="48.07048" lon="8.15016">
        <ele>863</ele>
        <time>2022-05-23T17:06:40Z</time>
      </trkpt>
      <trkpt lat="48.07075" lon="8.15074">
        <ele>859</ele>
        <time>2022-05-23T17:06:49Z</time>
      </trkpt>
      <trkpt lat="48.07067" lon="8.15079">
        <ele>861</ele>
        <time>2022-05-23T17:06:50Z</time>
      </trkpt>
      <trkpt lat="48.07043" lon="8.15057">
        <ele>865</ele>
        <time>2022-05-23T17:06:55Z</time>
      </trkpt>
      <trkpt lat="48.06989" lon="8.15026">
        <ele>870</ele>
        <time>2022-05-23T17:07:06Z</time>
      </trkpt>
      <trkpt lat="48.06967" lon="8.14999">
        <ele>874</ele>
        <time>2022-05-23T17:07:11Z</time>
      </trkpt>
      <trkpt lat="48.06935" lon="8.14926">
        <ele>878</ele>
        <time>2022-05-23T17:07:21Z</time>
      </trkpt>
      <trkpt lat="48.06929" lon="8.14899">
        <ele>877</ele>
        <time>2022-05-23T17:07:25Z</time>
      </trkpt>
      <trkpt lat="48.0691" lon="8.14847">
        <ele>875</ele>
        <time>2022-05-23T17:07:32Z</time>
      </trkpt>
      <trkpt lat="48.06907" lon="8.14834">
        <ele>874</ele>
        <time>2022-05-23T17:07:33Z</time>
      </trkpt>
      <trkpt lat="48.06909" lon="8.14762">
        <ele>877</ele>
        <time>2022-05-23T17:07:42Z</time>
      </trkpt>
      <trkpt lat="48.06913" lon="8.14735">
        <ele>877</ele>
        <time>2022-05-23T17:07:45Z</time>
      </trkpt>
      <trkpt lat="48.06925" lon="8.14694">
        <ele>877</ele>
        <time>2022-05-23T17:07:50Z</time>
      </trkpt>
      <trkpt lat="48.0693" lon="8.14666">
        <ele>878</ele>
        <time>2022-05-23T17:07:54Z</time>
      </trkpt>
      <trkpt lat="48.06928" lon="8.14652">
        <ele>879</ele>
        <time>2022-05-23T17:07:56Z</time>
      </trkpt>
      <trkpt lat="48.06923" lon="8.1464">
        <ele>880</ele>
        <time>2022-05-23T17:07:57Z</time>
      </trkpt>
      <trkpt lat="48.06914" lon="8.14633">
        <ele>881</ele>
        <time>2022-05-23T17:07:59Z</time>
      </trkpt>
      <trkpt lat="48.06902" lon="8.14611">
        <ele>879</ele>
        <time>2022-05-23T17:08:02Z</time>
      </trkpt>
      <trkpt lat="48.06893" lon="8.14603">
        <ele>878</ele>
        <time>2022-05-23T17:08:04Z</time>
      </trkpt>
      <trkpt lat="48.06876" lon="8.14579">
        <ele>875</ele>
        <time>2022-05-23T17:08:08Z</time>
      </trkpt>
      <trkpt lat="48.06873" lon="8.14559">
        <ele>872</ele>
        <time>2022-05-23T17:08:11Z</time>
      </trkpt>
      <trkpt lat="48.06877" lon="8.14536">
        <ele>870</ele>
        <time>2022-05-23T17:08:14Z</time>
      </trkpt>
      <trkpt lat="48.06883" lon="8.1445">
        <ele>861</ele>
        <time>2022-05-23T17:08:24Z</time>
      </trkpt>
      <trkpt lat="48.06886" lon="8.14437">
        <ele>860</ele>
        <time>2022-05-23T17:08:26Z</time>
      </trkpt>
      <trkpt lat="48.06885" lon="8.14423">
        <ele>859</ele>
        <time>2022-05-23T17:08:27Z</time>
      </trkpt>
      <trkpt lat="48.06876" lon="8.14428">
        <ele>857</ele>
        <time>2022-05-23T17:08:29Z</time>
      </trkpt>
      <trkpt lat="48.06865" lon="8.14457">
        <ele>859</ele>
        <time>2022-05-23T17:08:33Z</time>
      </trkpt>
      <trkpt lat="48.06848" lon="8.1448">
        <ele>859</ele>
        <time>2022-05-23T17:08:37Z</time>
      </trkpt>
      <trkpt lat="48.06818" lon="8.14498">
        <ele>857</ele>
        <time>2022-05-23T17:08:43Z</time>
      </trkpt>
      <trkpt lat="48.06761" lon="8.14547">
        <ele>861</ele>
        <time>2022-05-23T17:08:54Z</time>
      </trkpt>
      <trkpt lat="48.06729" lon="8.14607">
        <ele>871</ele>
        <time>2022-05-23T17:09:04Z</time>
      </trkpt>
      <trkpt lat="48.06708" lon="8.14617">
        <ele>870</ele>
        <time>2022-05-23T17:09:08Z</time>
      </trkpt>
      <trkpt lat="48.06683" lon="8.14611">
        <ele>863</ele>
        <time>2022-05-23T17:09:12Z</time>
      </trkpt>
      <trkpt lat="48.0667" lon="8.14614">
        <ele>862</ele>
        <time>2022-05-23T17:09:14Z</time>
      </trkpt>
      <trkpt lat="48.06661" lon="8.14622">
        <ele>861</ele>
        <time>2022-05-23T17:09:16Z</time>
      </trkpt>
      <trkpt lat="48.06647" lon="8.14664">
        <ele>864</ele>
        <time>2022-05-23T17:09:22Z</time>
      </trkpt>
      <trkpt lat="48.06644" lon="8.14683">
        <ele>863</ele>
        <time>2022-05-23T17:09:24Z</time>
      </trkpt>
      <trkpt lat="48.06645" lon="8.1472">
        <ele>864</ele>
        <time>2022-05-23T17:09:29Z</time>
      </trkpt>
      <trkpt lat="48.0666" lon="8.1483">
        <ele>867</ele>
        <time>2022-05-23T17:09:42Z</time>
      </trkpt>
      <trkpt lat="48.06667" lon="8.14843">
        <ele>868</ele>
        <time>2022-05-23T17:09:44Z</time>
      </trkpt>
      <trkpt lat="48.06684" lon="8.14893">
        <ele>871</ele>
        <time>2022-05-23T17:09:51Z</time>
      </trkpt>
      <trkpt lat="48.06669" lon="8.14911">
        <ele>865</ele>
        <time>2022-05-23T17:09:54Z</time>
      </trkpt>
      <trkpt lat="48.0666" lon="8.14915">
        <ele>865</ele>
        <time>2022-05-23T17:09:56Z</time>
      </trkpt>
      <trkpt lat="48.06646" lon="8.14913">
        <ele>867</ele>
        <time>2022-05-23T17:09:58Z</time>
      </trkpt>
      <trkpt lat="48.06626" lon="8.149">
        <ele>868</ele>
        <time>2022-05-23T17:10:02Z</time>
      </trkpt>
      <trkpt lat="48.06608" lon="8.14893">
        <ele>868</ele>
        <time>2022-05-23T17:10:05Z</time>
      </trkpt>
      <trkpt lat="48.06592" lon="8.14876">
        <ele>864</ele>
        <time>2022-05-23T17:10:09Z</time>
      </trkpt>
      <trkpt lat="48.06546" lon="8.1484">
        <ele>855</ele>
        <time>2022-05-23T17:10:18Z</time>
      </trkpt>
      <trkpt lat="48.06536" lon="8.14842">
        <ele>856</ele>
        <time>2022-05-23T17:10:20Z</time>
      </trkpt>
      <trkpt lat="48.06519" lon="8.14855">
        <ele>861</ele>
        <time>2022-05-23T17:10:23Z</time>
      </trkpt>
      <trkpt lat="48.06453" lon="8.14873">
        <ele>868</ele>
        <time>2022-05-23T17:10:35Z</time>
      </trkpt>
      <trkpt lat="48.06424" lon="8.14887">
        <ele>869</ele>
        <time>2022-05-23T17:10:41Z</time>
      </trkpt>
      <trkpt lat="48.06413" lon="8.14886">
        <ele>870</ele>
        <time>2022-05-23T17:10:43Z</time>
      </trkpt>
      <trkpt lat="48.06406" lon="8.14875">
        <ele>871</ele>
        <time>2022-05-23T17:10:44Z</time>
      </trkpt>
      <trkpt lat="48.06386" lon="8.14808">
        <ele>876</ele>
        <time>2022-05-23T17:10:53Z</time>
      </trkpt>
      <trkpt lat="48.06376" lon="8.14785">
        <ele>880</ele>
        <time>2022-05-23T17:10:56Z</time>
      </trkpt>
      <trkpt lat="48.06362" lon="8.14764">
        <ele>884</ele>
        <time>2022-05-23T17:11:00Z</time>
      </trkpt>
      <trkpt lat="48.06359" lon="8.1475">
        <ele>884</ele>
        <time>2022-05-23T17:11:02Z</time>
      </trkpt>
      <trkpt lat="48.06366" lon="8.14741">
        <ele>885</ele>
        <time>2022-05-23T17:11:03Z</time>
      </trkpt>
      <trkpt lat="48.06393" lon="8.14727">
        <ele>883</ele>
        <time>2022-05-23T17:11:08Z</time>
      </trkpt>
      <trkpt lat="48.06412" lon="8.14725">
        <ele>881</ele>
        <time>2022-05-23T17:11:12Z</time>
      </trkpt>
      <trkpt lat="48.06429" lon="8.14713">
        <ele>878</ele>
        <time>2022-05-23T17:11:15Z</time>
      </trkpt>
      <trkpt lat="48.06437" lon="8.14687">
        <ele>879</ele>
        <time>2022-05-23T17:11:19Z</time>
      </trkpt>
      <trkpt lat="48.06437" lon="8.14645">
        <ele>884</ele>
        <time>2022-05-23T17:11:24Z</time>
      </trkpt>
      <trkpt lat="48.06434" lon="8.1463">
        <ele>886</ele>
        <time>2022-05-23T17:11:25Z</time>
      </trkpt>
      <trkpt lat="48.06416" lon="8.14581">
        <ele>895</ele>
        <time>2022-05-23T17:11:32Z</time>
      </trkpt>
      <trkpt lat="48.06409" lon="8.14572">
        <ele>895</ele>
        <time>2022-05-23T17:11:34Z</time>
      </trkpt>
      <trkpt lat="48.06381" lon="8.14559">
        <ele>895</ele>
        <time>2022-05-23T17:11:39Z</time>
      </trkpt>
      <trkpt lat="48.06362" lon="8.14558">
        <ele>896</ele>
        <time>2022-05-23T17:11:42Z</time>
      </trkpt>
      <trkpt lat="48.06353" lon="8.14563">
        <ele>898</ele>
        <time>2022-05-23T17:11:44Z</time>
      </trkpt>
      <trkpt lat="48.06337" lon="8.1458">
        <ele>903</ele>
        <time>2022-05-23T17:11:47Z</time>
      </trkpt>
      <trkpt lat="48.0631" lon="8.14618">
        <ele>905</ele>
        <time>2022-05-23T17:11:54Z</time>
      </trkpt>
      <trkpt lat="48.06292" lon="8.14631">
        <ele>907</ele>
        <time>2022-05-23T17:11:58Z</time>
      </trkpt>
      <trkpt lat="48.06245" lon="8.14655">
        <ele>914</ele>
        <time>2022-05-23T17:12:06Z</time>
      </trkpt>
      <trkpt lat="48.06245" lon="8.1467">
        <ele>914</ele>
        <time>2022-05-23T17:12:08Z</time>
      </trkpt>
      <trkpt lat="48.06236" lon="8.14676">
        <ele>915</ele>
        <time>2022-05-23T17:12:10Z</time>
      </trkpt>
      <trkpt lat="48.06214" lon="8.14704">
        <ele>918</ele>
        <time>2022-05-23T17:12:15Z</time>
      </trkpt>
      <trkpt lat="48.06205" lon="8.1471">
        <ele>919</ele>
        <time>2022-05-23T17:12:17Z</time>
      </trkpt>
      <trkpt lat="48.06177" lon="8.14752">
        <ele>923</ele>
        <time>2022-05-23T17:12:24Z</time>
      </trkpt>
      <trkpt lat="48.0616" lon="8.14768">
        <ele>925</ele>
        <time>2022-05-23T17:12:28Z</time>
      </trkpt>
      <trkpt lat="48.06141" lon="8.14778">
        <ele>924</ele>
        <time>2022-05-23T17:12:31Z</time>
      </trkpt>
      <trkpt lat="48.06131" lon="8.14778">
        <ele>924</ele>
        <time>2022-05-23T17:12:33Z</time>
      </trkpt>
      <trkpt lat="48.06102" lon="8.14769">
        <ele>924</ele>
        <time>2022-05-23T17:12:38Z</time>
      </trkpt>
      <trkpt lat="48.06104" lon="8.14797">
        <ele>924</ele>
        <time>2022-05-23T17:12:41Z</time>
      </trkpt>
      <trkpt lat="48.06101" lon="8.14843">
        <ele>923</ele>
        <time>2022-05-23T17:12:47Z</time>
      </trkpt>
      <trkpt lat="48.06112" lon="8.14941">
        <ele>927</ele>
        <time>2022-05-23T17:12:59Z</time>
      </trkpt>
      <trkpt lat="48.06116" lon="8.14954">
        <ele>928</ele>
        <time>2022-05-23T17:13:01Z</time>
      </trkpt>
      <trkpt lat="48.06115" lon="8.14969">
        <ele>929</ele>
        <time>2022-05-23T17:13:02Z</time>
      </trkpt>
      <trkpt lat="48.06121" lon="8.15029">
        <ele>932</ele>
        <time>2022-05-23T17:13:10Z</time>
      </trkpt>
      <trkpt lat="48.06125" lon="8.15146">
        <ele>935</ele>
        <time>2022-05-23T17:13:23Z</time>
      </trkpt>
      <trkpt lat="48.06131" lon="8.15232">
        <ele>946</ele>
        <time>2022-05-23T17:13:34Z</time>
      </trkpt>
      <trkpt lat="48.06151" lon="8.15372">
        <ele>967</ele>
        <time>2022-05-23T17:13:51Z</time>
      </trkpt>
      <trkpt lat="48.06162" lon="8.15414">
        <ele>973</ele>
        <time>2022-05-23T17:13:56Z</time>
      </trkpt>
      <trkpt lat="48.06175" lon="8.15452">
        <ele>974</ele>
        <time>2022-05-23T17:14:01Z</time>
      </trkpt>
      <trkpt lat="48.062" lon="8.15498">
        <ele>975</ele>
        <time>2022-05-23T17:14:08Z</time>
      </trkpt>
      <trkpt lat="48.06222" lon="8.15528">
        <ele>977</ele>
        <time>2022-05-23T17:14:14Z</time>
      </trkpt>
      <trkpt lat="48.0623" lon="8.15535">
        <ele>978</ele>
        <time>2022-05-23T17:14:15Z</time>
      </trkpt>
      <trkpt lat="48.06236" lon="8.15547">
        <ele>978</ele>
        <time>2022-05-23T17:14:17Z</time>
      </trkpt>
      <trkpt lat="48.0627" lon="8.15571">
        <ele>981</ele>
        <time>2022-05-23T17:14:24Z</time>
      </trkpt>
      <trkpt lat="48.06306" lon="8.15586">
        <ele>985</ele>
        <time>2022-05-23T17:14:30Z</time>
      </trkpt>
      <trkpt lat="48.06323" lon="8.156">
        <ele>987</ele>
        <time>2022-05-23T17:14:34Z</time>
      </trkpt>
      <trkpt lat="48.06354" lon="8.15634">
        <ele>989</ele>
        <time>2022-05-23T17:14:41Z</time>
      </trkpt>
      <trkpt lat="48.06376" lon="8.15665">
        <ele>992</ele>
        <time>2022-05-23T17:14:46Z</time>
      </trkpt>
      <trkpt lat="48.06387" lon="8.15688">
        <ele>993</ele>
        <time>2022-05-23T17:14:49Z</time>
      </trkpt>
      <trkpt lat="48.064" lon="8.15745">
        <ele>995</ele>
        <time>2022-05-23T17:14:56Z</time>
      </trkpt>
      <trkpt lat="48.06412" lon="8.15824">
        <ele>999</ele>
        <time>2022-05-23T17:15:06Z</time>
      </trkpt>
      <trkpt lat="48.06413" lon="8.15883">
        <ele>1002</ele>
        <time>2022-05-23T17:15:13Z</time>
      </trkpt>
      <trkpt lat="48.06424" lon="8.1607">
        <ele>1015</ele>
        <time>2022-05-23T17:15:35Z</time>
      </trkpt>
      <trkpt lat="48.0642" lon="8.16113">
        <ele>1019</ele>
        <time>2022-05-23T17:15:41Z</time>
      </trkpt>
      <trkpt lat="48.06398" lon="8.16268">
        <ele>1028</ele>
        <time>2022-05-23T17:15:59Z</time>
      </trkpt>
      <trkpt lat="48.06396" lon="8.16326">
        <ele>1028</ele>
        <time>2022-05-23T17:16:06Z</time>
      </trkpt>
      <trkpt lat="48.06401" lon="8.16354">
        <ele>1029</ele>
        <time>2022-05-23T17:16:10Z</time>
      </trkpt>
      <trkpt lat="48.06402" lon="8.16383">
        <ele>1030</ele>
        <time>2022-05-23T17:16:13Z</time>
      </trkpt>
      <trkpt lat="48.06396" lon="8.16472">
        <ele>1041</ele>
        <time>2022-05-23T17:16:24Z</time>
      </trkpt>
      <trkpt lat="48.06402" lon="8.16499">
        <ele>1045</ele>
        <time>2022-05-23T17:16:27Z</time>
      </trkpt>
      <trkpt lat="48.06403" lon="8.16527">
        <ele>1047</ele>
        <time>2022-05-23T17:16:31Z</time>
      </trkpt>
      <trkpt lat="48.06395" lon="8.16581">
        <ele>1050</ele>
        <time>2022-05-23T17:16:37Z</time>
      </trkpt>
      <trkpt lat="48.06384" lon="8.16623">
        <ele>1052</ele>
        <time>2022-05-23T17:16:43Z</time>
      </trkpt>
      <trkpt lat="48.06386" lon="8.16637">
        <ele>1052</ele>
        <time>2022-05-23T17:16:44Z</time>
      </trkpt>
      <trkpt lat="48.06383" lon="8.16651">
        <ele>1053</ele>
        <time>2022-05-23T17:16:46Z</time>
      </trkpt>
      <trkpt lat="48.0638" lon="8.16726">
        <ele>1057</ele>
        <time>2022-05-23T17:16:55Z</time>
      </trkpt>
      <trkpt lat="48.06383" lon="8.1674">
        <ele>1058</ele>
        <time>2022-05-23T17:16:57Z</time>
      </trkpt>
      <trkpt lat="48.06389" lon="8.16751">
        <ele>1058</ele>
        <time>2022-05-23T17:16:58Z</time>
      </trkpt>
      <trkpt lat="48.06408" lon="8.16763">
        <ele>1057</ele>
        <time>2022-05-23T17:17:02Z</time>
      </trkpt>
      <trkpt lat="48.06427" lon="8.16764">
        <ele>1057</ele>
        <time>2022-05-23T17:17:05Z</time>
      </trkpt>
      <trkpt lat="48.06436" lon="8.16767">
        <ele>1057</ele>
        <time>2022-05-23T17:17:07Z</time>
      </trkpt>
      <trkpt lat="48.06454" lon="8.16782">
        <ele>1059</ele>
        <time>2022-05-23T17:17:11Z</time>
      </trkpt>
      <trkpt lat="48.06467" lon="8.16805">
        <ele>1061</ele>
        <time>2022-05-23T17:17:14Z</time>
      </trkpt>
      <trkpt lat="48.06468" lon="8.16819">
        <ele>1062</ele>
        <time>2022-05-23T17:17:16Z</time>
      </trkpt>
      <trkpt lat="48.0646" lon="8.16848">
        <ele>1063</ele>
        <time>2022-05-23T17:17:20Z</time>
      </trkpt>
      <trkpt lat="48.06459" lon="8.16861">
        <ele>1064</ele>
        <time>2022-05-23T17:17:21Z</time>
      </trkpt>
      <trkpt lat="48.06439" lon="8.16931">
        <ele>1066</ele>
        <time>2022-05-23T17:17:30Z</time>
      </trkpt>
      <trkpt lat="48.06425" lon="8.17005">
        <ele>1066</ele>
        <time>2022-05-23T17:17:39Z</time>
      </trkpt>
      <trkpt lat="48.06419" lon="8.17111">
        <ele>1070</ele>
        <time>2022-05-23T17:17:52Z</time>
      </trkpt>
      <trkpt lat="48.06419" lon="8.17189">
        <ele>1067</ele>
        <time>2022-05-23T17:18:01Z</time>
      </trkpt>
      <trkpt lat="48.06413" lon="8.17234">
        <ele>1067</ele>
        <time>2022-05-23T17:18:07Z</time>
      </trkpt>
      <trkpt lat="48.06404" lon="8.17278">
        <ele>1067</ele>
        <time>2022-05-23T17:18:12Z</time>
      </trkpt>
      <trkpt lat="48.06378" lon="8.17357">
        <ele>1065</ele>
        <time>2022-05-23T17:18:23Z</time>
      </trkpt>
      <trkpt lat="48.06362" lon="8.17393">
        <ele>1064</ele>
        <time>2022-05-23T17:18:28Z</time>
      </trkpt>
      <trkpt lat="48.06355" lon="8.17403">
        <ele>1065</ele>
        <time>2022-05-23T17:18:30Z</time>
      </trkpt>
      <trkpt lat="48.06363" lon="8.17393">
        <ele>1064</ele>
        <time>2022-05-23T17:18:32Z</time>
      </trkpt>
      <trkpt lat="48.06368" lon="8.17382">
        <ele>1064</ele>
        <time>2022-05-23T17:18:33Z</time>
      </trkpt>
      <trkpt lat="48.06314" lon="8.17468">
        <ele>1062</ele>
        <time>2022-05-23T17:18:47Z</time>
      </trkpt>
      <trkpt lat="48.06289" lon="8.17536">
        <ele>1056</ele>
        <time>2022-05-23T17:18:56Z</time>
      </trkpt>
      <trkpt lat="48.06286" lon="8.17552">
        <ele>1054</ele>
        <time>2022-05-23T17:18:58Z</time>
      </trkpt>
      <trkpt lat="48.06288" lon="8.17606">
        <ele>1049</ele>
        <time>2022-05-23T17:19:05Z</time>
      </trkpt>
      <trkpt lat="48.06286" lon="8.17655">
        <ele>1048</ele>
        <time>2022-05-23T17:19:11Z</time>
      </trkpt>
      <trkpt lat="48.06277" lon="8.17682">
        <ele>1049</ele>
        <time>2022-05-23T17:19:14Z</time>
      </trkpt>
      <trkpt lat="48.06253" lon="8.17737">
        <ele>1050</ele>
        <time>2022-05-23T17:19:22Z</time>
      </trkpt>
      <trkpt lat="48.06234" lon="8.17791">
        <ele>1053</ele>
        <time>2022-05-23T17:19:29Z</time>
      </trkpt>
      <trkpt lat="48.06192" lon="8.17867">
        <ele>1056</ele>
        <time>2022-05-23T17:19:41Z</time>
      </trkpt>
      <trkpt lat="48.06112" lon="8.17995">
        <ele>1050</ele>
        <time>2022-05-23T17:20:02Z</time>
      </trkpt>
      <trkpt lat="48.0609" lon="8.18042">
        <ele>1050</ele>
        <time>2022-05-23T17:20:09Z</time>
      </trkpt>
      <trkpt lat="48.06085" lon="8.1806">
        <ele>1051</ele>
        <time>2022-05-23T17:20:11Z</time>
      </trkpt>
      <trkpt lat="48.06078" lon="8.18098">
        <ele>1053</ele>
        <time>2022-05-23T17:20:16Z</time>
      </trkpt>
      <trkpt lat="48.06077" lon="8.18117">
        <ele>1054</ele>
        <time>2022-05-23T17:20:18Z</time>
      </trkpt>
      <trkpt lat="48.06076" lon="8.18177">
        <ele>1056</ele>
        <time>2022-05-23T17:20:25Z</time>
      </trkpt>
      <trkpt lat="48.0608" lon="8.1822">
        <ele>1058</ele>
        <time>2022-05-23T17:20:30Z</time>
      </trkpt>
      <trkpt lat="48.06091" lon="8.18279">
        <ele>1058</ele>
        <time>2022-05-23T17:20:38Z</time>
      </trkpt>
      <trkpt lat="48.06115" lon="8.18365">
        <ele>1053</ele>
        <time>2022-05-23T17:20:49Z</time>
      </trkpt>
      <trkpt lat="48.06141" lon="8.18442">
        <ele>1048</ele>
        <time>2022-05-23T17:20:59Z</time>
      </trkpt>
      <trkpt lat="48.06145" lon="8.18461">
        <ele>1047</ele>
        <time>2022-05-23T17:21:01Z</time>
      </trkpt>
      <trkpt lat="48.06146" lon="8.18483">
        <ele>1044</ele>
        <time>2022-05-23T17:21:04Z</time>
      </trkpt>
      <trkpt lat="48.06143" lon="8.18504">
        <ele>1043</ele>
        <time>2022-05-23T17:21:06Z</time>
      </trkpt>
      <trkpt lat="48.06138" lon="8.18524">
        <ele>1043</ele>
        <time>2022-05-23T17:21:09Z</time>
      </trkpt>
      <trkpt lat="48.06123" lon="8.18563">
        <ele>1042</ele>
        <time>2022-05-23T17:21:14Z</time>
      </trkpt>
      <trkpt lat="48.06083" lon="8.18651">
        <ele>1042</ele>
        <time>2022-05-23T17:21:27Z</time>
      </trkpt>
      <trkpt lat="48.06041" lon="8.18725">
        <ele>1033</ele>
        <time>2022-05-23T17:21:39Z</time>
      </trkpt>
      <trkpt lat="48.06014" lon="8.1878">
        <ele>1027</ele>
        <time>2022-05-23T17:21:47Z</time>
      </trkpt>
      <trkpt lat="48.05994" lon="8.18833">
        <ele>1024</ele>
        <time>2022-05-23T17:21:54Z</time>
      </trkpt>
      <trkpt lat="48.05977" lon="8.18887">
        <ele>1020</ele>
        <time>2022-05-23T17:22:01Z</time>
      </trkpt>
      <trkpt lat="48.05957" lon="8.18939">
        <ele>1016</ele>
        <time>2022-05-23T17:22:08Z</time>
      </trkpt>
      <trkpt lat="48.05939" lon="8.18978">
        <ele>1012</ele>
        <time>2022-05-23T17:22:14Z</time>
      </trkpt>
      <trkpt lat="48.05908" lon="8.1903">
        <ele>1010</ele>
        <time>2022-05-23T17:22:22Z</time>
      </trkpt>
      <trkpt lat="48.05851" lon="8.191">
        <ele>1008</ele>
        <time>2022-05-23T17:22:35Z</time>
      </trkpt>
      <trkpt lat="48.05788" lon="8.19165">
        <ele>1000</ele>
        <time>2022-05-23T17:22:49Z</time>
      </trkpt>
      <trkpt lat="48.05708" lon="8.19232">
        <ele>989</ele>
        <time>2022-05-23T17:23:05Z</time>
      </trkpt>
      <trkpt lat="48.05634" lon="8.19278">
        <ele>979</ele>
        <time>2022-05-23T17:23:19Z</time>
      </trkpt>
      <trkpt lat="48.05608" lon="8.1929">
        <ele>977</ele>
        <time>2022-05-23T17:23:24Z</time>
      </trkpt>
      <trkpt lat="48.05556" lon="8.19307">
        <ele>971</ele>
        <time>2022-05-23T17:23:34Z</time>
      </trkpt>
      <trkpt lat="48.05517" lon="8.19323">
        <ele>965</ele>
        <time>2022-05-23T17:23:41Z</time>
      </trkpt>
      <trkpt lat="48.0544" lon="8.19362">
        <ele>951</ele>
        <time>2022-05-23T17:23:55Z</time>
      </trkpt>
      <trkpt lat="48.05359" lon="8.19418">
        <ele>939</ele>
        <time>2022-05-23T17:24:11Z</time>
      </trkpt>
      <trkpt lat="48.05292" lon="8.19471">
        <ele>936</ele>
        <time>2022-05-23T17:24:25Z</time>
      </trkpt>
      <trkpt lat="48.05192" lon="8.1956">
        <ele>919</ele>
        <time>2022-05-23T17:24:45Z</time>
      </trkpt>
      <trkpt lat="48.05055" lon="8.19692">
        <ele>902</ele>
        <time>2022-05-23T17:25:14Z</time>
      </trkpt>
      <trkpt lat="48.05039" lon="8.19717">
        <ele>899</ele>
        <time>2022-05-23T17:25:18Z</time>
      </trkpt>
      <trkpt lat="48.05018" lon="8.19759">
        <ele>895</ele>
        <time>2022-05-23T17:25:25Z</time>
      </trkpt>
      <trkpt lat="48.04926" lon="8.20009">
        <ele>881</ele>
        <time>2022-05-23T17:25:59Z</time>
      </trkpt>
      <trkpt lat="48.04918" lon="8.20057">
        <ele>876</ele>
        <time>2022-05-23T17:26:05Z</time>
      </trkpt>
      <trkpt lat="48.04918" lon="8.20126">
        <ele>872</ele>
        <time>2022-05-23T17:26:13Z</time>
      </trkpt>
      <trkpt lat="48.04915" lon="8.20145">
        <ele>871</ele>
        <time>2022-05-23T17:26:15Z</time>
      </trkpt>
      <trkpt lat="48.04903" lon="8.20158">
        <ele>869</ele>
        <time>2022-05-23T17:26:18Z</time>
      </trkpt>
      <trkpt lat="48.04873" lon="8.20165">
        <ele>866</ele>
        <time>2022-05-23T17:26:23Z</time>
      </trkpt>
      <trkpt lat="48.04853" lon="8.20177">
        <ele>864</ele>
        <time>2022-05-23T17:26:27Z</time>
      </trkpt>
      <trkpt lat="48.04819" lon="8.20188">
        <ele>862</ele>
        <time>2022-05-23T17:26:33Z</time>
      </trkpt>
      <trkpt lat="48.04808" lon="8.20194">
        <ele>862</ele>
        <time>2022-05-23T17:26:35Z</time>
      </trkpt>
      <trkpt lat="48.04745" lon="8.20252">
        <ele>863</ele>
        <time>2022-05-23T17:26:48Z</time>
      </trkpt>
      <trkpt lat="48.04727" lon="8.20265">
        <ele>869</ele>
        <time>2022-05-23T17:26:52Z</time>
      </trkpt>
      <trkpt lat="48.04719" lon="8.20276">
        <ele>873</ele>
        <time>2022-05-23T17:26:54Z</time>
      </trkpt>
      <trkpt lat="48.04721" lon="8.20292">
        <ele>873</ele>
        <time>2022-05-23T17:26:56Z</time>
      </trkpt>
      <trkpt lat="48.04731" lon="8.20321">
        <ele>872</ele>
        <time>2022-05-23T17:27:00Z</time>
      </trkpt>
      <trkpt lat="48.04743" lon="8.2037">
        <ele>875</ele>
        <time>2022-05-23T17:27:06Z</time>
      </trkpt>
      <trkpt lat="48.04775" lon="8.20471">
        <ele>881</ele>
        <time>2022-05-23T17:27:19Z</time>
      </trkpt>
      <trkpt lat="48.04796" lon="8.20528">
        <ele>878</ele>
        <time>2022-05-23T17:27:27Z</time>
      </trkpt>
      <trkpt lat="48.04849" lon="8.20718">
        <ele>869</ele>
        <time>2022-05-23T17:27:51Z</time>
      </trkpt>
      <trkpt lat="48.04856" lon="8.20731">
        <ele>868</ele>
        <time>2022-05-23T17:27:53Z</time>
      </trkpt>
      <trkpt lat="48.04866" lon="8.20731">
        <ele>867</ele>
        <time>2022-05-23T17:27:55Z</time>
      </trkpt>
      <trkpt lat="48.04877" lon="8.20725">
        <ele>865</ele>
        <time>2022-05-23T17:27:57Z</time>
      </trkpt>
      <trkpt lat="48.04892" lon="8.20684">
        <ele>863</ele>
        <time>2022-05-23T17:28:03Z</time>
      </trkpt>
      <trkpt lat="48.04899" lon="8.20671">
        <ele>862</ele>
        <time>2022-05-23T17:28:05Z</time>
      </trkpt>
      <trkpt lat="48.04909" lon="8.2066">
        <ele>862</ele>
        <time>2022-05-23T17:28:07Z</time>
      </trkpt>
      <trkpt lat="48.0493" lon="8.20645">
        <ele>861</ele>
        <time>2022-05-23T17:28:11Z</time>
      </trkpt>
      <trkpt lat="48.04947" lon="8.20628">
        <ele>861</ele>
        <time>2022-05-23T17:28:15Z</time>
      </trkpt>
      <trkpt lat="48.04957" lon="8.2063">
        <ele>861</ele>
        <time>2022-05-23T17:28:17Z</time>
      </trkpt>
      <trkpt lat="48.04964" lon="8.20642">
        <ele>861</ele>
        <time>2022-05-23T17:28:18Z</time>
      </trkpt>
      <trkpt lat="48.05024" lon="8.20853">
        <ele>856</ele>
        <time>2022-05-23T17:28:46Z</time>
      </trkpt>
      <trkpt lat="48.05037" lon="8.20878">
        <ele>856</ele>
        <time>2022-05-23T17:28:50Z</time>
      </trkpt>
      <trkpt lat="48.05038" lon="8.20892">
        <ele>856</ele>
        <time>2022-05-23T17:28:51Z</time>
      </trkpt>
      <trkpt lat="48.05052" lon="8.20936">
        <ele>857</ele>
        <time>2022-05-23T17:28:57Z</time>
      </trkpt>
      <trkpt lat="48.05064" lon="8.20995">
        <ele>860</ele>
        <time>2022-05-23T17:29:04Z</time>
      </trkpt>
      <trkpt lat="48.05061" lon="8.2098">
        <ele>860</ele>
        <time>2022-05-23T17:29:06Z</time>
      </trkpt>
      <trkpt lat="48.05047" lon="8.20955">
        <ele>858</ele>
        <time>2022-05-23T17:29:10Z</time>
      </trkpt>
      <trkpt lat="48.05037" lon="8.20925">
        <ele>857</ele>
        <time>2022-05-23T17:29:14Z</time>
      </trkpt>
      <trkpt lat="48.05021" lon="8.20866">
        <ele>856</ele>
        <time>2022-05-23T17:29:22Z</time>
      </trkpt>
      <trkpt lat="48.05002" lon="8.20812">
        <ele>857</ele>
        <time>2022-05-23T17:29:29Z</time>
      </trkpt>
      <trkpt lat="48.04997" lon="8.20785">
        <ele>858</ele>
        <time>2022-05-23T17:29:32Z</time>
      </trkpt>
      <trkpt lat="48.04988" lon="8.20759">
        <ele>859</ele>
        <time>2022-05-23T17:29:36Z</time>
      </trkpt>
      <trkpt lat="48.04981" lon="8.20726">
        <ele>859</ele>
        <time>2022-05-23T17:29:40Z</time>
      </trkpt>
      <trkpt lat="48.04969" lon="8.20701">
        <ele>860</ele>
        <time>2022-05-23T17:29:43Z</time>
      </trkpt>
      <trkpt lat="48.04958" lon="8.20662">
        <ele>861</ele>
        <time>2022-05-23T17:29:49Z</time>
      </trkpt>
      <trkpt lat="48.04955" lon="8.20648">
        <ele>861</ele>
        <time>2022-05-23T17:29:50Z</time>
      </trkpt>
      <trkpt lat="48.04956" lon="8.20633">
        <ele>861</ele>
        <time>2022-05-23T17:29:52Z</time>
      </trkpt>
      <trkpt lat="48.04949" lon="8.20621">
        <ele>861</ele>
        <time>2022-05-23T17:29:54Z</time>
      </trkpt>
      <trkpt lat="48.04946" lon="8.20607">
        <ele>861</ele>
        <time>2022-05-23T17:29:56Z</time>
      </trkpt>
      <trkpt lat="48.04936" lon="8.20583">
        <ele>861</ele>
        <time>2022-05-23T17:29:59Z</time>
      </trkpt>
      <trkpt lat="48.04958" lon="8.20625">
        <ele>861</ele>
        <time>2022-05-23T17:30:05Z</time>
      </trkpt>
      <trkpt lat="48.04968" lon="8.20634">
        <ele>861</ele>
        <time>2022-05-23T17:30:07Z</time>
      </trkpt>
      <trkpt lat="48.04975" lon="8.20624">
        <ele>861</ele>
        <time>2022-05-23T17:30:09Z</time>
      </trkpt>
      <trkpt lat="48.04993" lon="8.2061">
        <ele>862</ele>
        <time>2022-05-23T17:30:13Z</time>
      </trkpt>
      <trkpt lat="48.05003" lon="8.20606">
        <ele>862</ele>
        <time>2022-05-23T17:30:15Z</time>
      </trkpt>
      <trkpt lat="48.05034" lon="8.20602">
        <ele>864</ele>
        <time>2022-05-23T17:30:20Z</time>
      </trkpt>
      <trkpt lat="48.05053" lon="8.20609">
        <ele>864</ele>
        <time>2022-05-23T17:30:24Z</time>
      </trkpt>
      <trkpt lat="48.05063" lon="8.20605">
        <ele>865</ele>
        <time>2022-05-23T17:30:26Z</time>
      </trkpt>
      <trkpt lat="48.05073" lon="8.20609">
        <ele>865</ele>
        <time>2022-05-23T17:30:27Z</time>
      </trkpt>
      <trkpt lat="48.05078" lon="8.20595">
        <ele>866</ele>
        <time>2022-05-23T17:30:29Z</time>
      </trkpt>
      <trkpt lat="48.05071" lon="8.20586">
        <ele>866</ele>
        <time>2022-05-23T17:30:31Z</time>
      </trkpt>
      <trkpt lat="48.05067" lon="8.20572">
        <ele>867</ele>
        <time>2022-05-23T17:30:33Z</time>
      </trkpt>
      <trkpt lat="48.05073" lon="8.20561">
        <ele>868</ele>
        <time>2022-05-23T17:30:34Z</time>
      </trkpt>
      <trkpt lat="48.05082" lon="8.20578">
        <ele>867</ele>
        <time>2022-05-23T17:30:37Z</time>
      </trkpt>
      <trkpt lat="48.0511" lon="8.20568">
        <ele>867</ele>
        <time>2022-05-23T17:30:42Z</time>
      </trkpt>
      <trkpt lat="48.0513" lon="8.20554">
        <ele>868</ele>
        <time>2022-05-23T17:30:46Z</time>
      </trkpt>
      <trkpt lat="48.05149" lon="8.20546">
        <ele>868</ele>
        <time>2022-05-23T17:30:50Z</time>
      </trkpt>
      <trkpt lat="48.05168" lon="8.20557">
        <ele>866</ele>
        <time>2022-05-23T17:30:53Z</time>
      </trkpt>
      <trkpt lat="48.05181" lon="8.20577">
        <ele>864</ele>
        <time>2022-05-23T17:30:56Z</time>
      </trkpt>
      <trkpt lat="48.0517" lon="8.20574">
        <ele>865</ele>
        <time>2022-05-23T17:30:58Z</time>
      </trkpt>
      <trkpt lat="48.05163" lon="8.20566">
        <ele>866</ele>
        <time>2022-05-23T17:31:00Z</time>
      </trkpt>
      <trkpt lat="48.05154" lon="8.20563">
        <ele>866</ele>
        <time>2022-05-23T17:31:02Z</time>
      </trkpt>
      <trkpt lat="48.05147" lon="8.20554">
        <ele>867</ele>
        <time>2022-05-23T17:31:03Z</time>
      </trkpt>
      <trkpt lat="48.05157" lon="8.20548">
        <ele>868</ele>
        <time>2022-05-23T17:31:05Z</time>
      </trkpt>
      <trkpt lat="48.05148" lon="8.20538">
        <ele>869</ele>
        <time>2022-05-23T17:31:07Z</time>
      </trkpt>
      <trkpt lat="48.05156" lon="8.20561">
        <ele>866</ele>
        <time>2022-05-23T17:31:10Z</time>
      </trkpt>
      <trkpt lat="48.05176" lon="8.20574">
        <ele>864</ele>
        <time>2022-05-23T17:31:14Z</time>
      </trkpt>
      <trkpt lat="48.05195" lon="8.20598">
        <ele>863</ele>
        <time>2022-05-23T17:31:19Z</time>
      </trkpt>
      <trkpt lat="48.05201" lon="8.20609">
        <ele>863</ele>
        <time>2022-05-23T17:31:20Z</time>
      </trkpt>
      <trkpt lat="48.05229" lon="8.20639">
        <ele>862</ele>
        <time>2022-05-23T17:31:26Z</time>
      </trkpt>
      <trkpt lat="48.05242" lon="8.20662">
        <ele>861</ele>
        <time>2022-05-23T17:31:30Z</time>
      </trkpt>
      <trkpt lat="48.05268" lon="8.20692">
        <ele>862</ele>
        <time>2022-05-23T17:31:36Z</time>
      </trkpt>
      <trkpt lat="48.0527" lon="8.20707">
        <ele>863</ele>
        <time>2022-05-23T17:31:38Z</time>
      </trkpt>
      <trkpt lat="48.05261" lon="8.20718">
        <ele>862</ele>
        <time>2022-05-23T17:31:40Z</time>
      </trkpt>
      <trkpt lat="48.05248" lon="8.20747">
        <ele>861</ele>
        <time>2022-05-23T17:31:44Z</time>
      </trkpt>
      <trkpt lat="48.05211" lon="8.20845">
        <ele>863</ele>
        <time>2022-05-23T17:31:57Z</time>
      </trkpt>
      <trkpt lat="48.05185" lon="8.20884">
        <ele>864</ele>
        <time>2022-05-23T17:32:04Z</time>
      </trkpt>
      <trkpt lat="48.05175" lon="8.20893">
        <ele>863</ele>
        <time>2022-05-23T17:32:06Z</time>
      </trkpt>
      <trkpt lat="48.05111" lon="8.20975">
        <ele>866</ele>
        <time>2022-05-23T17:32:21Z</time>
      </trkpt>
      <trkpt lat="48.05065" lon="8.21077">
        <ele>864</ele>
        <time>2022-05-23T17:32:36Z</time>
      </trkpt>
      <trkpt lat="48.05063" lon="8.21092">
        <ele>864</ele>
        <time>2022-05-23T17:32:37Z</time>
      </trkpt>
      <trkpt lat="48.05057" lon="8.21108">
        <ele>864</ele>
        <time>2022-05-23T17:32:40Z</time>
      </trkpt>
      <trkpt lat="48.05039" lon="8.21182">
        <ele>864</ele>
        <time>2022-05-23T17:32:49Z</time>
      </trkpt>
      <trkpt lat="48.05014" lon="8.2124">
        <ele>860</ele>
        <time>2022-05-23T17:32:57Z</time>
      </trkpt>
      <trkpt lat="48.04992" lon="8.21324">
        <ele>859</ele>
        <time>2022-05-23T17:33:08Z</time>
      </trkpt>
      <trkpt lat="48.04974" lon="8.21431">
        <ele>858</ele>
        <time>2022-05-23T17:33:21Z</time>
      </trkpt>
      <trkpt lat="48.04974" lon="8.21504">
        <ele>856</ele>
        <time>2022-05-23T17:33:30Z</time>
      </trkpt>
      <trkpt lat="48.0497" lon="8.21554">
        <ele>855</ele>
        <time>2022-05-23T17:33:36Z</time>
      </trkpt>
      <trkpt lat="48.04959" lon="8.21591">
        <ele>854</ele>
        <time>2022-05-23T17:33:40Z</time>
      </trkpt>
      <trkpt lat="48.04944" lon="8.21623">
        <ele>853</ele>
        <time>2022-05-23T17:33:45Z</time>
      </trkpt>
      <trkpt lat="48.04934" lon="8.21629">
        <ele>853</ele>
        <time>2022-05-23T17:33:47Z</time>
      </trkpt>
      <trkpt lat="48.04926" lon="8.21638">
        <ele>852</ele>
        <time>2022-05-23T17:33:49Z</time>
      </trkpt>
      <trkpt lat="48.0493" lon="8.21651">
        <ele>853</ele>
        <time>2022-05-23T17:33:51Z</time>
      </trkpt>
      <trkpt lat="48.04942" lon="8.21651">
        <ele>854</ele>
        <time>2022-05-23T17:33:53Z</time>
      </trkpt>
      <trkpt lat="48.04947" lon="8.2164">
        <ele>854</ele>
        <time>2022-05-23T17:33:54Z</time>
      </trkpt>
      <trkpt lat="48.04956" lon="8.21638">
        <ele>854</ele>
        <time>2022-05-23T17:33:56Z</time>
      </trkpt>
      <trkpt lat="48.04965" lon="8.2164">
        <ele>855</ele>
        <time>2022-05-23T17:33:57Z</time>
      </trkpt>
      <trkpt lat="48.04957" lon="8.21631">
        <ele>854</ele>
        <time>2022-05-23T17:33:59Z</time>
      </trkpt>
      <trkpt lat="48.04928" lon="8.21623">
        <ele>852</ele>
        <time>2022-05-23T17:34:04Z</time>
      </trkpt>
      <trkpt lat="48.04909" lon="8.21624">
        <ele>851</ele>
        <time>2022-05-23T17:34:08Z</time>
      </trkpt>
      <trkpt lat="48.04898" lon="8.21622">
        <ele>851</ele>
        <time>2022-05-23T17:34:10Z</time>
      </trkpt>
      <trkpt lat="48.04844" lon="8.21628">
        <ele>851</ele>
        <time>2022-05-23T17:34:19Z</time>
      </trkpt>
      <trkpt lat="48.04833" lon="8.21621">
        <ele>852</ele>
        <time>2022-05-23T17:34:22Z</time>
      </trkpt>
      <trkpt lat="48.04834" lon="8.21603">
        <ele>852</ele>
        <time>2022-05-23T17:34:24Z</time>
      </trkpt>
      <trkpt lat="48.04827" lon="8.21589">
        <ele>852</ele>
        <time>2022-05-23T17:34:26Z</time>
      </trkpt>
      <trkpt lat="48.04816" lon="8.21588">
        <ele>852</ele>
        <time>2022-05-23T17:34:28Z</time>
      </trkpt>
      <trkpt lat="48.04807" lon="8.2158">
        <ele>852</ele>
        <time>2022-05-23T17:34:30Z</time>
      </trkpt>
      <trkpt lat="48.04809" lon="8.2153">
        <ele>853</ele>
        <time>2022-05-23T17:34:36Z</time>
      </trkpt>
      <trkpt lat="48.04804" lon="8.21517">
        <ele>853</ele>
        <time>2022-05-23T17:34:37Z</time>
      </trkpt>
      <trkpt lat="48.04782" lon="8.21509">
        <ele>854</ele>
        <time>2022-05-23T17:34:41Z</time>
      </trkpt>
      <trkpt lat="48.04754" lon="8.21521">
        <ele>854</ele>
        <time>2022-05-23T17:34:47Z</time>
      </trkpt>
      <trkpt lat="48.04745" lon="8.21518">
        <ele>854</ele>
        <time>2022-05-23T17:34:48Z</time>
      </trkpt>
      <trkpt lat="48.04743" lon="8.21503">
        <ele>855</ele>
        <time>2022-05-23T17:34:50Z</time>
      </trkpt>
      <trkpt lat="48.04734" lon="8.21498">
        <ele>855</ele>
        <time>2022-05-23T17:34:52Z</time>
      </trkpt>
      <trkpt lat="48.04722" lon="8.2156">
        <ele>854</ele>
        <time>2022-05-23T17:34:59Z</time>
      </trkpt>
      <trkpt lat="48.04715" lon="8.21688">
        <ele>855</ele>
        <time>2022-05-23T17:35:15Z</time>
      </trkpt>
      <trkpt lat="48.04717" lon="8.21719">
        <ele>855</ele>
        <time>2022-05-23T17:35:18Z</time>
      </trkpt>
      <trkpt lat="48.04726" lon="8.21769">
        <ele>852</ele>
        <time>2022-05-23T17:35:25Z</time>
      </trkpt>
      <trkpt lat="48.04743" lon="8.21816">
        <ele>848</ele>
        <time>2022-05-23T17:35:31Z</time>
      </trkpt>
      <trkpt lat="48.04756" lon="8.21839">
        <ele>847</ele>
        <time>2022-05-23T17:35:35Z</time>
      </trkpt>
      <trkpt lat="48.04754" lon="8.21825">
        <ele>847</ele>
        <time>2022-05-23T17:35:36Z</time>
      </trkpt>
      <trkpt lat="48.04747" lon="8.21815">
        <ele>847</ele>
        <time>2022-05-23T17:35:38Z</time>
      </trkpt>
      <trkpt lat="48.04729" lon="8.21776">
        <ele>851</ele>
        <time>2022-05-23T17:35:44Z</time>
      </trkpt>
      <trkpt lat="48.04721" lon="8.21745">
        <ele>853</ele>
        <time>2022-05-23T17:35:48Z</time>
      </trkpt>
      <trkpt lat="48.04712" lon="8.21684">
        <ele>856</ele>
        <time>2022-05-23T17:35:55Z</time>
      </trkpt>
      <trkpt lat="48.04712" lon="8.21633">
        <ele>855</ele>
        <time>2022-05-23T17:36:01Z</time>
      </trkpt>
      <trkpt lat="48.04728" lon="8.21535">
        <ele>854</ele>
        <time>2022-05-23T17:36:13Z</time>
      </trkpt>
      <trkpt lat="48.0471" lon="8.21526">
        <ele>855</ele>
        <time>2022-05-23T17:36:16Z</time>
      </trkpt>
      <trkpt lat="48.04701" lon="8.21532">
        <ele>856</ele>
        <time>2022-05-23T17:36:18Z</time>
      </trkpt>
      <trkpt lat="48.04698" lon="8.21563">
        <ele>855</ele>
        <time>2022-05-23T17:36:22Z</time>
      </trkpt>
      <trkpt lat="48.04699" lon="8.21633">
        <ele>856</ele>
        <time>2022-05-23T17:36:30Z</time>
      </trkpt>
      <trkpt lat="48.04696" lon="8.21666">
        <ele>858</ele>
        <time>2022-05-23T17:36:34Z</time>
      </trkpt>
      <trkpt lat="48.04659" lon="8.21825">
        <ele>863</ele>
        <time>2022-05-23T17:36:54Z</time>
      </trkpt>
      <trkpt lat="48.04641" lon="8.22019">
        <ele>864</ele>
        <time>2022-05-23T17:37:18Z</time>
      </trkpt>
      <trkpt lat="48.0463" lon="8.22076">
        <ele>865</ele>
        <time>2022-05-23T17:37:25Z</time>
      </trkpt>
      <trkpt lat="48.04554" lon="8.2231">
        <ele>849</ele>
        <time>2022-05-23T17:37:56Z</time>
      </trkpt>
      <trkpt lat="48.04533" lon="8.2239">
        <ele>847</ele>
        <time>2022-05-23T17:38:06Z</time>
      </trkpt>
      <trkpt lat="48.04521" lon="8.22424">
        <ele>847</ele>
        <time>2022-05-23T17:38:10Z</time>
      </trkpt>
      <trkpt lat="48.04518" lon="8.22441">
        <ele>847</ele>
        <time>2022-05-23T17:38:12Z</time>
      </trkpt>
      <trkpt lat="48.04479" lon="8.22545">
        <ele>848</ele>
        <time>2022-05-23T17:38:27Z</time>
      </trkpt>
      <trkpt lat="48.0446" lon="8.22611">
        <ele>848</ele>
        <time>2022-05-23T17:38:35Z</time>
      </trkpt>
      <trkpt lat="48.04449" lon="8.22639">
        <ele>851</ele>
        <time>2022-05-23T17:38:39Z</time>
      </trkpt>
      <trkpt lat="48.04431" lon="8.22704">
        <ele>852</ele>
        <time>2022-05-23T17:38:47Z</time>
      </trkpt>
      <trkpt lat="48.04423" lon="8.22757">
        <ele>850</ele>
        <time>2022-05-23T17:38:54Z</time>
      </trkpt>
      <trkpt lat="48.0442" lon="8.22848">
        <ele>845</ele>
        <time>2022-05-23T17:39:05Z</time>
      </trkpt>
      <trkpt lat="48.04433" lon="8.23037">
        <ele>843</ele>
        <time>2022-05-23T17:39:27Z</time>
      </trkpt>
      <trkpt lat="48.04431" lon="8.231">
        <ele>842</ele>
        <time>2022-05-23T17:39:35Z</time>
      </trkpt>
      <trkpt lat="48.04422" lon="8.23159">
        <ele>843</ele>
        <time>2022-05-23T17:39:42Z</time>
      </trkpt>
      <trkpt lat="48.04408" lon="8.2321">
        <ele>842</ele>
        <time>2022-05-23T17:39:49Z</time>
      </trkpt>
      <trkpt lat="48.04387" lon="8.23272">
        <ele>842</ele>
        <time>2022-05-23T17:39:57Z</time>
      </trkpt>
      <trkpt lat="48.04383" lon="8.23301">
        <ele>840</ele>
        <time>2022-05-23T17:40:00Z</time>
      </trkpt>
      <trkpt lat="48.04378" lon="8.23318">
        <ele>839</ele>
        <time>2022-05-23T17:40:03Z</time>
      </trkpt>
      <trkpt lat="48.04378" lon="8.23334">
        <ele>838</ele>
        <time>2022-05-23T17:40:04Z</time>
      </trkpt>
      <trkpt lat="48.04372" lon="8.2338">
        <ele>837</ele>
        <time>2022-05-23T17:40:10Z</time>
      </trkpt>
      <trkpt lat="48.04371" lon="8.23425">
        <ele>836</ele>
        <time>2022-05-23T17:40:15Z</time>
      </trkpt>
      <trkpt lat="48.04373" lon="8.23467">
        <ele>837</ele>
        <time>2022-05-23T17:40:20Z</time>
      </trkpt>
      <trkpt lat="48.04386" lon="8.23527">
        <ele>838</ele>
        <time>2022-05-23T17:40:28Z</time>
      </trkpt>
      <trkpt lat="48.04446" lon="8.23682">
        <ele>837</ele>
        <time>2022-05-23T17:40:49Z</time>
      </trkpt>
      <trkpt lat="48.04463" lon="8.23739">
        <ele>837</ele>
        <time>2022-05-23T17:40:57Z</time>
      </trkpt>
      <trkpt lat="48.04473" lon="8.23787">
        <ele>839</ele>
        <time>2022-05-23T17:41:03Z</time>
      </trkpt>
      <trkpt lat="48.04483" lon="8.23873">
        <ele>840</ele>
        <time>2022-05-23T17:41:13Z</time>
      </trkpt>
      <trkpt lat="48.04488" lon="8.23889">
        <ele>838</ele>
        <time>2022-05-23T17:41:15Z</time>
      </trkpt>
      <trkpt lat="48.04491" lon="8.23921">
        <ele>837</ele>
        <time>2022-05-23T17:41:19Z</time>
      </trkpt>
      <trkpt lat="48.04502" lon="8.23978">
        <ele>833</ele>
        <time>2022-05-23T17:41:26Z</time>
      </trkpt>
      <trkpt lat="48.04537" lon="8.24075">
        <ele>834</ele>
        <time>2022-05-23T17:41:39Z</time>
      </trkpt>
      <trkpt lat="48.04579" lon="8.24171">
        <ele>831</ele>
        <time>2022-05-23T17:41:53Z</time>
      </trkpt>
      <trkpt lat="48.0459" lon="8.24218">
        <ele>830</ele>
        <time>2022-05-23T17:41:59Z</time>
      </trkpt>
      <trkpt lat="48.04596" lon="8.24271">
        <ele>830</ele>
        <time>2022-05-23T17:42:05Z</time>
      </trkpt>
      <trkpt lat="48.04595" lon="8.24399">
        <ele>832</ele>
        <time>2022-05-23T17:42:20Z</time>
      </trkpt>
      <trkpt lat="48.04597" lon="8.24438">
        <ele>833</ele>
        <time>2022-05-23T17:42:25Z</time>
      </trkpt>
      <trkpt lat="48.04609" lon="8.24519">
        <ele>834</ele>
        <time>2022-05-23T17:42:35Z</time>
      </trkpt>
      <trkpt lat="48.04628" lon="8.24618">
        <ele>832</ele>
        <time>2022-05-23T17:42:47Z</time>
      </trkpt>
      <trkpt lat="48.04644" lon="8.24726">
        <ele>828</ele>
        <time>2022-05-23T17:43:00Z</time>
      </trkpt>
      <trkpt lat="48.04695" lon="8.25012">
        <ele>828</ele>
        <time>2022-05-23T17:43:35Z</time>
      </trkpt>
      <trkpt lat="48.04708" lon="8.251">
        <ele>830</ele>
        <time>2022-05-23T17:43:46Z</time>
      </trkpt>
      <trkpt lat="48.04711" lon="8.25173">
        <ele>832</ele>
        <time>2022-05-23T17:43:55Z</time>
      </trkpt>
      <trkpt lat="48.04709" lon="8.25207">
        <ele>831</ele>
        <time>2022-05-23T17:43:59Z</time>
      </trkpt>
      <trkpt lat="48.0469" lon="8.25291">
        <ele>829</ele>
        <time>2022-05-23T17:44:09Z</time>
      </trkpt>
      <trkpt lat="48.04631" lon="8.25454">
        <ele>828</ele>
        <time>2022-05-23T17:44:31Z</time>
      </trkpt>
      <trkpt lat="48.04572" lon="8.25608">
        <ele>822</ele>
        <time>2022-05-23T17:44:53Z</time>
      </trkpt>
      <trkpt lat="48.04553" lon="8.25673">
        <ele>823</ele>
        <time>2022-05-23T17:45:01Z</time>
      </trkpt>
      <trkpt lat="48.04512" lon="8.25775">
        <ele>823</ele>
        <time>2022-05-23T17:45:15Z</time>
      </trkpt>
      <trkpt lat="48.04499" lon="8.25819">
        <ele>823</ele>
        <time>2022-05-23T17:45:21Z</time>
      </trkpt>
      <trkpt lat="48.04485" lon="8.25902">
        <ele>820</ele>
        <time>2022-05-23T17:45:31Z</time>
      </trkpt>
      <trkpt lat="48.04467" lon="8.26038">
        <ele>825</ele>
        <time>2022-05-23T17:45:48Z</time>
      </trkpt>
      <trkpt lat="48.04443" lon="8.26132">
        <ele>824</ele>
        <time>2022-05-23T17:46:00Z</time>
      </trkpt>
      <trkpt lat="48.04384" lon="8.26391">
        <ele>820</ele>
        <time>2022-05-23T17:46:32Z</time>
      </trkpt>
      <trkpt lat="48.04365" lon="8.26461">
        <ele>821</ele>
        <time>2022-05-23T17:46:41Z</time>
      </trkpt>
      <trkpt lat="48.04346" lon="8.26545">
        <ele>821</ele>
        <time>2022-05-23T17:46:52Z</time>
      </trkpt>
      <trkpt lat="48.04337" lon="8.26604">
        <ele>821</ele>
        <time>2022-05-23T17:46:59Z</time>
      </trkpt>
      <trkpt lat="48.04329" lon="8.26696">
        <ele>821</ele>
        <time>2022-05-23T17:47:10Z</time>
      </trkpt>
      <trkpt lat="48.04328" lon="8.26832">
        <ele>814</ele>
        <time>2022-05-23T17:47:26Z</time>
      </trkpt>
      <trkpt lat="48.04336" lon="8.26909">
        <ele>811</ele>
        <time>2022-05-23T17:47:35Z</time>
      </trkpt>
      <trkpt lat="48.04336" lon="8.26928">
        <ele>811</ele>
        <time>2022-05-23T17:47:38Z</time>
      </trkpt>
      <trkpt lat="48.04322" lon="8.27003">
        <ele>814</ele>
        <time>2022-05-23T17:47:47Z</time>
      </trkpt>
      <trkpt lat="48.04316" lon="8.27014">
        <ele>814</ele>
        <time>2022-05-23T17:47:49Z</time>
      </trkpt>
      <trkpt lat="48.04306" lon="8.27025">
        <ele>816</ele>
        <time>2022-05-23T17:47:51Z</time>
      </trkpt>
      <trkpt lat="48.04293" lon="8.27053">
        <ele>818</ele>
        <time>2022-05-23T17:47:55Z</time>
      </trkpt>
      <trkpt lat="48.04276" lon="8.27126">
        <ele>821</ele>
        <time>2022-05-23T17:48:04Z</time>
      </trkpt>
      <trkpt lat="48.04262" lon="8.27225">
        <ele>826</ele>
        <time>2022-05-23T17:48:16Z</time>
      </trkpt>
      <trkpt lat="48.04253" lon="8.27377">
        <ele>823</ele>
        <time>2022-05-23T17:48:34Z</time>
      </trkpt>
      <trkpt lat="48.04251" lon="8.27487">
        <ele>817</ele>
        <time>2022-05-23T17:48:47Z</time>
      </trkpt>
      <trkpt lat="48.04253" lon="8.2752">
        <ele>816</ele>
        <time>2022-05-23T17:48:51Z</time>
      </trkpt>
      <trkpt lat="48.04251" lon="8.27577">
        <ele>819</ele>
        <time>2022-05-23T17:48:58Z</time>
      </trkpt>
      <trkpt lat="48.04247" lon="8.27614">
        <ele>822</ele>
        <time>2022-05-23T17:49:02Z</time>
      </trkpt>
      <trkpt lat="48.04249" lon="8.27632">
        <ele>822</ele>
        <time>2022-05-23T17:49:05Z</time>
      </trkpt>
      <trkpt lat="48.04247" lon="8.277">
        <ele>825</ele>
        <time>2022-05-23T17:49:13Z</time>
      </trkpt>
      <trkpt lat="48.0425" lon="8.27717">
        <ele>824</ele>
        <time>2022-05-23T17:49:15Z</time>
      </trkpt>
      <trkpt lat="48.04251" lon="8.27803">
        <ele>825</ele>
        <time>2022-05-23T17:49:25Z</time>
      </trkpt>
      <trkpt lat="48.04257" lon="8.27927">
        <ele>831</ele>
        <time>2022-05-23T17:49:40Z</time>
      </trkpt>
      <trkpt lat="48.04277" lon="8.28055">
        <ele>827</ele>
        <time>2022-05-23T17:49:56Z</time>
      </trkpt>
      <trkpt lat="48.04283" lon="8.28067">
        <ele>825</ele>
        <time>2022-05-23T17:49:57Z</time>
      </trkpt>
      <trkpt lat="48.04286" lon="8.28086">
        <ele>824</ele>
        <time>2022-05-23T17:50:00Z</time>
      </trkpt>
      <trkpt lat="48.04286" lon="8.28121">
        <ele>826</ele>
        <time>2022-05-23T17:50:04Z</time>
      </trkpt>
      <trkpt lat="48.04283" lon="8.28152">
        <ele>829</ele>
        <time>2022-05-23T17:50:07Z</time>
      </trkpt>
      <trkpt lat="48.04302" lon="8.28312">
        <ele>820</ele>
        <time>2022-05-23T17:50:27Z</time>
      </trkpt>
      <trkpt lat="48.04326" lon="8.28401">
        <ele>808</ele>
        <time>2022-05-23T17:50:38Z</time>
      </trkpt>
      <trkpt lat="48.04341" lon="8.28431">
        <ele>805</ele>
        <time>2022-05-23T17:50:43Z</time>
      </trkpt>
      <trkpt lat="48.04372" lon="8.28507">
        <ele>804</ele>
        <time>2022-05-23T17:50:53Z</time>
      </trkpt>
      <trkpt lat="48.04393" lon="8.28571">
        <ele>803</ele>
        <time>2022-05-23T17:51:02Z</time>
      </trkpt>
      <trkpt lat="48.04411" lon="8.28687">
        <ele>804</ele>
        <time>2022-05-23T17:51:16Z</time>
      </trkpt>
      <trkpt lat="48.04417" lon="8.28764">
        <ele>804</ele>
        <time>2022-05-23T17:51:25Z</time>
      </trkpt>
      <trkpt lat="48.04429" lon="8.28854">
        <ele>805</ele>
        <time>2022-05-23T17:51:36Z</time>
      </trkpt>
      <trkpt lat="48.04429" lon="8.28868">
        <ele>806</ele>
        <time>2022-05-23T17:51:38Z</time>
      </trkpt>
      <trkpt lat="48.04433" lon="8.2888">
        <ele>806</ele>
        <time>2022-05-23T17:51:39Z</time>
      </trkpt>
      <trkpt lat="48.04436" lon="8.28927">
        <ele>806</ele>
        <time>2022-05-23T17:51:45Z</time>
      </trkpt>
      <trkpt lat="48.04443" lon="8.28956">
        <ele>805</ele>
        <time>2022-05-23T17:51:49Z</time>
      </trkpt>
      <trkpt lat="48.04449" lon="8.29002">
        <ele>804</ele>
        <time>2022-05-23T17:51:54Z</time>
      </trkpt>
      <trkpt lat="48.04455" lon="8.29066">
        <ele>805</ele>
        <time>2022-05-23T17:52:02Z</time>
      </trkpt>
      <trkpt lat="48.04453" lon="8.29079">
        <ele>805</ele>
        <time>2022-05-23T17:52:03Z</time>
      </trkpt>
      <trkpt lat="48.04455" lon="8.29194">
        <ele>806</ele>
        <time>2022-05-23T17:52:17Z</time>
      </trkpt>
      <trkpt lat="48.04453" lon="8.29222">
        <ele>806</ele>
        <time>2022-05-23T17:52:21Z</time>
      </trkpt>
      <trkpt lat="48.04456" lon="8.2927">
        <ele>805</ele>
        <time>2022-05-23T17:52:26Z</time>
      </trkpt>
      <trkpt lat="48.04465" lon="8.29325">
        <ele>803</ele>
        <time>2022-05-23T17:52:33Z</time>
      </trkpt>
      <trkpt lat="48.04473" lon="8.29431">
        <ele>802</ele>
        <time>2022-05-23T17:52:46Z</time>
      </trkpt>
      <trkpt lat="48.04476" lon="8.29446">
        <ele>802</ele>
        <time>2022-05-23T17:52:48Z</time>
      </trkpt>
      <trkpt lat="48.04475" lon="8.29475">
        <ele>802</ele>
        <time>2022-05-23T17:52:51Z</time>
      </trkpt>
      <trkpt lat="48.04479" lon="8.29548">
        <ele>802</ele>
        <time>2022-05-23T17:53:00Z</time>
      </trkpt>
      <trkpt lat="48.04479" lon="8.29608">
        <ele>801</ele>
        <time>2022-05-23T17:53:07Z</time>
      </trkpt>
      <trkpt lat="48.04491" lon="8.29686">
        <ele>800</ele>
        <time>2022-05-23T17:53:16Z</time>
      </trkpt>
      <trkpt lat="48.04501" lon="8.29728">
        <ele>800</ele>
        <time>2022-05-23T17:53:22Z</time>
      </trkpt>
      <trkpt lat="48.04499" lon="8.29741">
        <ele>800</ele>
        <time>2022-05-23T17:53:23Z</time>
      </trkpt>
      <trkpt lat="48.04501" lon="8.29755">
        <ele>800</ele>
        <time>2022-05-23T17:53:25Z</time>
      </trkpt>
      <trkpt lat="48.045" lon="8.29838">
        <ele>799</ele>
        <time>2022-05-23T17:53:35Z</time>
      </trkpt>
      <trkpt lat="48.04506" lon="8.29914">
        <ele>799</ele>
        <time>2022-05-23T17:53:44Z</time>
      </trkpt>
      <trkpt lat="48.04504" lon="8.29929">
        <ele>799</ele>
        <time>2022-05-23T17:53:46Z</time>
      </trkpt>
      <trkpt lat="48.04503" lon="8.30023">
        <ele>801</ele>
        <time>2022-05-23T17:53:57Z</time>
      </trkpt>
      <trkpt lat="48.04507" lon="8.30087">
        <ele>802</ele>
        <time>2022-05-23T17:54:05Z</time>
      </trkpt>
      <trkpt lat="48.04505" lon="8.30135">
        <ele>800</ele>
        <time>2022-05-23T17:54:10Z</time>
      </trkpt>
      <trkpt lat="48.04507" lon="8.3015">
        <ele>799</ele>
        <time>2022-05-23T17:54:12Z</time>
      </trkpt>
      <trkpt lat="48.04536" lon="8.30158">
        <ele>801</ele>
        <time>2022-05-23T17:54:17Z</time>
      </trkpt>
      <trkpt lat="48.04541" lon="8.30171">
        <ele>801</ele>
        <time>2022-05-23T17:54:19Z</time>
      </trkpt>
      <trkpt lat="48.04551" lon="8.30245">
        <ele>799</ele>
        <time>2022-05-23T17:54:28Z</time>
      </trkpt>
      <trkpt lat="48.04524" lon="8.30323">
        <ele>798</ele>
        <time>2022-05-23T17:54:39Z</time>
      </trkpt>
      <trkpt lat="48.04518" lon="8.30355">
        <ele>798</ele>
        <time>2022-05-23T17:54:43Z</time>
      </trkpt>
      <trkpt lat="48.04523" lon="8.30368">
        <ele>798</ele>
        <time>2022-05-23T17:54:44Z</time>
      </trkpt>
      <trkpt lat="48.04533" lon="8.30369">
        <ele>799</ele>
        <time>2022-05-23T17:54:46Z</time>
      </trkpt>
      <trkpt lat="48.04542" lon="8.30376">
        <ele>799</ele>
        <time>2022-05-23T17:54:48Z</time>
      </trkpt>
      <trkpt lat="48.04552" lon="8.30401">
        <ele>799</ele>
        <time>2022-05-23T17:54:51Z</time>
      </trkpt>
      <trkpt lat="48.04545" lon="8.30415">
        <ele>799</ele>
        <time>2022-05-23T17:54:53Z</time>
      </trkpt>
      <trkpt lat="48.04518" lon="8.30523">
        <ele>798</ele>
        <time>2022-05-23T17:55:07Z</time>
      </trkpt>
      <trkpt lat="48.04499" lon="8.30583">
        <ele>799</ele>
        <time>2022-05-23T17:55:15Z</time>
      </trkpt>
      <trkpt lat="48.04493" lon="8.30595">
        <ele>800</ele>
        <time>2022-05-23T17:55:17Z</time>
      </trkpt>
      <trkpt lat="48.04491" lon="8.30625">
        <ele>802</ele>
        <time>2022-05-23T17:55:20Z</time>
      </trkpt>
      <trkpt lat="48.0448" lon="8.30666">
        <ele>804</ele>
        <time>2022-05-23T17:55:26Z</time>
      </trkpt>
      <trkpt lat="48.04459" lon="8.30714">
        <ele>807</ele>
        <time>2022-05-23T17:55:33Z</time>
      </trkpt>
      <trkpt lat="48.04449" lon="8.30755">
        <ele>809</ele>
        <time>2022-05-23T17:55:38Z</time>
      </trkpt>
      <trkpt lat="48.04428" lon="8.30805">
        <ele>811</ele>
        <time>2022-05-23T17:55:45Z</time>
      </trkpt>
      <trkpt lat="48.0442" lon="8.30816">
        <ele>811</ele>
        <time>2022-05-23T17:55:47Z</time>
      </trkpt>
      <trkpt lat="48.04385" lon="8.30896">
        <ele>818</ele>
        <time>2022-05-23T17:55:58Z</time>
      </trkpt>
      <trkpt lat="48.04344" lon="8.30936">
        <ele>817</ele>
        <time>2022-05-23T17:56:07Z</time>
      </trkpt>
      <trkpt lat="48.04324" lon="8.30965">
        <ele>817</ele>
        <time>2022-05-23T17:56:12Z</time>
      </trkpt>
      <trkpt lat="48.04316" lon="8.30973">
        <ele>817</ele>
        <time>2022-05-23T17:56:13Z</time>
      </trkpt>
      <trkpt lat="48.0429" lon="8.31017">
        <ele>821</ele>
        <time>2022-05-23T17:56:20Z</time>
      </trkpt>
      <trkpt lat="48.04281" lon="8.31025">
        <ele>821</ele>
        <time>2022-05-23T17:56:22Z</time>
      </trkpt>
      <trkpt lat="48.04256" lon="8.31063">
        <ele>822</ele>
        <time>2022-05-23T17:56:29Z</time>
      </trkpt>
      <trkpt lat="48.04223" lon="8.31134">
        <ele>824</ele>
        <time>2022-05-23T17:56:39Z</time>
      </trkpt>
      <trkpt lat="48.04215" lon="8.31144">
        <ele>824</ele>
        <time>2022-05-23T17:56:41Z</time>
      </trkpt>
      <trkpt lat="48.04205" lon="8.31168">
        <ele>827</ele>
        <time>2022-05-23T17:56:44Z</time>
      </trkpt>
      <trkpt lat="48.04197" lon="8.31178">
        <ele>827</ele>
        <time>2022-05-23T17:56:46Z</time>
      </trkpt>
      <trkpt lat="48.04179" lon="8.31212">
        <ele>830</ele>
        <time>2022-05-23T17:56:51Z</time>
      </trkpt>
      <trkpt lat="48.04176" lon="8.3124">
        <ele>833</ele>
        <time>2022-05-23T17:56:54Z</time>
      </trkpt>
      <trkpt lat="48.04192" lon="8.31261">
        <ele>839</ele>
        <time>2022-05-23T17:56:58Z</time>
      </trkpt>
      <trkpt lat="48.04209" lon="8.31296">
        <ele>845</ele>
        <time>2022-05-23T17:57:03Z</time>
      </trkpt>
      <trkpt lat="48.04215" lon="8.31323">
        <ele>850</ele>
        <time>2022-05-23T17:57:07Z</time>
      </trkpt>
      <trkpt lat="48.04221" lon="8.31398">
        <ele>854</ele>
        <time>2022-05-23T17:57:16Z</time>
      </trkpt>
      <trkpt lat="48.04229" lon="8.31442">
        <ele>857</ele>
        <time>2022-05-23T17:57:21Z</time>
      </trkpt>
      <trkpt lat="48.04265" lon="8.31534">
        <ele>868</ele>
        <time>2022-05-23T17:57:34Z</time>
      </trkpt>
      <trkpt lat="48.04269" lon="8.31551">
        <ele>869</ele>
        <time>2022-05-23T17:57:36Z</time>
      </trkpt>
      <trkpt lat="48.04271" lon="8.31603">
        <ele>867</ele>
        <time>2022-05-23T17:57:42Z</time>
      </trkpt>
      <trkpt lat="48.04281" lon="8.31709">
        <ele>869</ele>
        <time>2022-05-23T17:57:55Z</time>
      </trkpt>
      <trkpt lat="48.04298" lon="8.31768">
        <ele>872</ele>
        <time>2022-05-23T17:58:03Z</time>
      </trkpt>
      <trkpt lat="48.04313" lon="8.31809">
        <ele>873</ele>
        <time>2022-05-23T17:58:08Z</time>
      </trkpt>
      <trkpt lat="48.04419" lon="8.32012">
        <ele>868</ele>
        <time>2022-05-23T17:58:39Z</time>
      </trkpt>
      <trkpt lat="48.04439" lon="8.32043">
        <ele>875</ele>
        <time>2022-05-23T17:58:44Z</time>
      </trkpt>
      <trkpt lat="48.04443" lon="8.32055">
        <ele>877</ele>
        <time>2022-05-23T17:58:46Z</time>
      </trkpt>
      <trkpt lat="48.04443" lon="8.32039">
        <ele>876</ele>
        <time>2022-05-23T17:58:47Z</time>
      </trkpt>
      <trkpt lat="48.04451" lon="8.32044">
        <ele>878</ele>
        <time>2022-05-23T17:58:49Z</time>
      </trkpt>
      <trkpt lat="48.04448" lon="8.32056">
        <ele>878</ele>
        <time>2022-05-23T17:58:51Z</time>
      </trkpt>
      <trkpt lat="48.04437" lon="8.32067">
        <ele>876</ele>
        <time>2022-05-23T17:58:53Z</time>
      </trkpt>
      <trkpt lat="48.0445" lon="8.32079">
        <ele>880</ele>
        <time>2022-05-23T17:58:56Z</time>
      </trkpt>
      <trkpt lat="48.04459" lon="8.32103">
        <ele>885</ele>
        <time>2022-05-23T17:58:59Z</time>
      </trkpt>
      <trkpt lat="48.04466" lon="8.32128">
        <ele>889</ele>
        <time>2022-05-23T17:59:02Z</time>
      </trkpt>
      <trkpt lat="48.0448" lon="8.32209">
        <ele>898</ele>
        <time>2022-05-23T17:59:12Z</time>
      </trkpt>
      <trkpt lat="48.04489" lon="8.32233">
        <ele>901</ele>
        <time>2022-05-23T17:59:15Z</time>
      </trkpt>
      <trkpt lat="48.04495" lon="8.3226">
        <ele>903</ele>
        <time>2022-05-23T17:59:19Z</time>
      </trkpt>
      <trkpt lat="48.0451" lon="8.32296">
        <ele>911</ele>
        <time>2022-05-23T17:59:24Z</time>
      </trkpt>
      <trkpt lat="48.04534" lon="8.32375">
        <ele>921</ele>
        <time>2022-05-23T17:59:34Z</time>
      </trkpt>
      <trkpt lat="48.04583" lon="8.32445">
        <ele>931</ele>
        <time>2022-05-23T17:59:46Z</time>
      </trkpt>
      <trkpt lat="48.04612" lon="8.32504">
        <ele>938</ele>
        <time>2022-05-23T17:59:55Z</time>
      </trkpt>
      <trkpt lat="48.04627" lon="8.32523">
        <ele>942</ele>
        <time>2022-05-23T17:59:58Z</time>
      </trkpt>
      <trkpt lat="48.04658" lon="8.3258">
        <ele>948</ele>
        <time>2022-05-23T18:00:07Z</time>
      </trkpt>
      <trkpt lat="48.04677" lon="8.32627">
        <ele>952</ele>
        <time>2022-05-23T18:00:14Z</time>
      </trkpt>
      <trkpt lat="48.04707" lon="8.32685">
        <ele>957</ele>
        <time>2022-05-23T18:00:22Z</time>
      </trkpt>
      <trkpt lat="48.0472" lon="8.32723">
        <ele>958</ele>
        <time>2022-05-23T18:00:27Z</time>
      </trkpt>
      <trkpt lat="48.04735" lon="8.32744">
        <ele>960</ele>
        <time>2022-05-23T18:00:31Z</time>
      </trkpt>
      <trkpt lat="48.04774" lon="8.32841">
        <ele>963</ele>
        <time>2022-05-23T18:00:45Z</time>
      </trkpt>
      <trkpt lat="48.04789" lon="8.32897">
        <ele>967</ele>
        <time>2022-05-23T18:00:52Z</time>
      </trkpt>
      <trkpt lat="48.04808" lon="8.3293">
        <ele>970</ele>
        <time>2022-05-23T18:00:57Z</time>
      </trkpt>
      <trkpt lat="48.04811" lon="8.32944">
        <ele>971</ele>
        <time>2022-05-23T18:00:59Z</time>
      </trkpt>
      <trkpt lat="48.04826" lon="8.32984">
        <ele>973</ele>
        <time>2022-05-23T18:01:04Z</time>
      </trkpt>
      <trkpt lat="48.0487" lon="8.33084">
        <ele>975</ele>
        <time>2022-05-23T18:01:18Z</time>
      </trkpt>
      <trkpt lat="48.04883" lon="8.33106">
        <ele>975</ele>
        <time>2022-05-23T18:01:22Z</time>
      </trkpt>
      <trkpt lat="48.049" lon="8.33143">
        <ele>976</ele>
        <time>2022-05-23T18:01:27Z</time>
      </trkpt>
      <trkpt lat="48.04922" lon="8.33197">
        <ele>978</ele>
        <time>2022-05-23T18:01:35Z</time>
      </trkpt>
      <trkpt lat="48.04926" lon="8.33213">
        <ele>979</ele>
        <time>2022-05-23T18:01:37Z</time>
      </trkpt>
      <trkpt lat="48.04941" lon="8.3325">
        <ele>981</ele>
        <time>2022-05-23T18:01:42Z</time>
      </trkpt>
      <trkpt lat="48.04945" lon="8.33267">
        <ele>981</ele>
        <time>2022-05-23T18:01:44Z</time>
      </trkpt>
      <trkpt lat="48.04958" lon="8.33365">
        <ele>979</ele>
        <time>2022-05-23T18:01:56Z</time>
      </trkpt>
      <trkpt lat="48.0497" lon="8.33429">
        <ele>977</ele>
        <time>2022-05-23T18:02:04Z</time>
      </trkpt>
      <trkpt lat="48.04993" lon="8.33504">
        <ele>973</ele>
        <time>2022-05-23T18:02:14Z</time>
      </trkpt>
      <trkpt lat="48.05017" lon="8.33565">
        <ele>972</ele>
        <time>2022-05-23T18:02:22Z</time>
      </trkpt>
      <trkpt lat="48.05033" lon="8.33596">
        <ele>971</ele>
        <time>2022-05-23T18:02:27Z</time>
      </trkpt>
      <trkpt lat="48.05055" lon="8.33621">
        <ele>968</ele>
        <time>2022-05-23T18:02:32Z</time>
      </trkpt>
      <trkpt lat="48.05082" lon="8.33643">
        <ele>964</ele>
        <time>2022-05-23T18:02:37Z</time>
      </trkpt>
      <trkpt lat="48.05101" lon="8.33671">
        <ele>962</ele>
        <time>2022-05-23T18:02:42Z</time>
      </trkpt>
      <trkpt lat="48.05119" lon="8.33723">
        <ele>961</ele>
        <time>2022-05-23T18:02:49Z</time>
      </trkpt>
      <trkpt lat="48.05138" lon="8.33831">
        <ele>961</ele>
        <time>2022-05-23T18:03:02Z</time>
      </trkpt>
      <trkpt lat="48.05146" lon="8.33851">
        <ele>960</ele>
        <time>2022-05-23T18:03:05Z</time>
      </trkpt>
      <trkpt lat="48.05145" lon="8.33866">
        <ele>960</ele>
        <time>2022-05-23T18:03:07Z</time>
      </trkpt>
      <trkpt lat="48.05179" lon="8.33954">
        <ele>959</ele>
        <time>2022-05-23T18:03:19Z</time>
      </trkpt>
      <trkpt lat="48.0521" lon="8.34017">
        <ele>961</ele>
        <time>2022-05-23T18:03:28Z</time>
      </trkpt>
      <trkpt lat="48.05241" lon="8.34097">
        <ele>961</ele>
        <time>2022-05-23T18:03:39Z</time>
      </trkpt>
      <trkpt lat="48.05261" lon="8.34135">
        <ele>960</ele>
        <time>2022-05-23T18:03:45Z</time>
      </trkpt>
      <trkpt lat="48.05283" lon="8.34186">
        <ele>958</ele>
        <time>2022-05-23T18:03:52Z</time>
      </trkpt>
      <trkpt lat="48.05304" lon="8.34243">
        <ele>955</ele>
        <time>2022-05-23T18:04:00Z</time>
      </trkpt>
      <trkpt lat="48.05344" lon="8.34423">
        <ele>941</ele>
        <time>2022-05-23T18:04:22Z</time>
      </trkpt>
      <trkpt lat="48.05361" lon="8.34478">
        <ele>942</ele>
        <time>2022-05-23T18:04:29Z</time>
      </trkpt>
      <trkpt lat="48.05403" lon="8.34583">
        <ele>943</ele>
        <time>2022-05-23T18:04:44Z</time>
      </trkpt>
      <trkpt lat="48.05458" lon="8.34744">
        <ele>943</ele>
        <time>2022-05-23T18:05:06Z</time>
      </trkpt>
      <trkpt lat="48.05475" lon="8.34787">
        <ele>942</ele>
        <time>2022-05-23T18:05:11Z</time>
      </trkpt>
      <trkpt lat="48.0549" lon="8.34813">
        <ele>942</ele>
        <time>2022-05-23T18:05:16Z</time>
      </trkpt>
      <trkpt lat="48.05536" lon="8.34877">
        <ele>941</ele>
        <time>2022-05-23T18:05:27Z</time>
      </trkpt>
      <trkpt lat="48.05547" lon="8.34902">
        <ele>940</ele>
        <time>2022-05-23T18:05:30Z</time>
      </trkpt>
      <trkpt lat="48.05634" lon="8.35051">
        <ele>936</ele>
        <time>2022-05-23T18:05:54Z</time>
      </trkpt>
      <trkpt lat="48.05671" lon="8.35129">
        <ele>933</ele>
        <time>2022-05-23T18:06:05Z</time>
      </trkpt>
      <trkpt lat="48.05701" lon="8.35227">
        <ele>931</ele>
        <time>2022-05-23T18:06:18Z</time>
      </trkpt>
      <trkpt lat="48.05734" lon="8.3536">
        <ele>931</ele>
        <time>2022-05-23T18:06:35Z</time>
      </trkpt>
      <trkpt lat="48.05747" lon="8.35402">
        <ele>929</ele>
        <time>2022-05-23T18:06:40Z</time>
      </trkpt>
      <trkpt lat="48.05753" lon="8.35437">
        <ele>928</ele>
        <time>2022-05-23T18:06:45Z</time>
      </trkpt>
      <trkpt lat="48.05748" lon="8.35457">
        <ele>926</ele>
        <time>2022-05-23T18:06:47Z</time>
      </trkpt>
      <trkpt lat="48.05728" lon="8.35484">
        <ele>925</ele>
        <time>2022-05-23T18:06:52Z</time>
      </trkpt>
      <trkpt lat="48.057" lon="8.35493">
        <ele>925</ele>
        <time>2022-05-23T18:06:57Z</time>
      </trkpt>
      <trkpt lat="48.05648" lon="8.35505">
        <ele>924</ele>
        <time>2022-05-23T18:07:06Z</time>
      </trkpt>
      <trkpt lat="48.05622" lon="8.3552">
        <ele>921</ele>
        <time>2022-05-23T18:07:11Z</time>
      </trkpt>
      <trkpt lat="48.05595" lon="8.35541">
        <ele>918</ele>
        <time>2022-05-23T18:07:17Z</time>
      </trkpt>
      <trkpt lat="48.05555" lon="8.3556">
        <ele>916</ele>
        <time>2022-05-23T18:07:24Z</time>
      </trkpt>
      <trkpt lat="48.05506" lon="8.35581">
        <ele>915</ele>
        <time>2022-05-23T18:07:33Z</time>
      </trkpt>
      <trkpt lat="48.0541" lon="8.35601">
        <ele>918</ele>
        <time>2022-05-23T18:07:51Z</time>
      </trkpt>
      <trkpt lat="48.05372" lon="8.35615">
        <ele>918</ele>
        <time>2022-05-23T18:07:58Z</time>
      </trkpt>
      <trkpt lat="48.05291" lon="8.35634">
        <ele>917</ele>
        <time>2022-05-23T18:08:12Z</time>
      </trkpt>
      <trkpt lat="48.05235" lon="8.3566">
        <ele>914</ele>
        <time>2022-05-23T18:08:23Z</time>
      </trkpt>
      <trkpt lat="48.05219" lon="8.3566">
        <ele>913</ele>
        <time>2022-05-23T18:08:25Z</time>
      </trkpt>
      <trkpt lat="48.05188" lon="8.35669">
        <ele>911</ele>
        <time>2022-05-23T18:08:31Z</time>
      </trkpt>
      <trkpt lat="48.05164" lon="8.35682">
        <ele>909</ele>
        <time>2022-05-23T18:08:36Z</time>
      </trkpt>
      <trkpt lat="48.0515" lon="8.35696">
        <ele>906</ele>
        <time>2022-05-23T18:08:39Z</time>
      </trkpt>
      <trkpt lat="48.0514" lon="8.35713">
        <ele>905</ele>
        <time>2022-05-23T18:08:41Z</time>
      </trkpt>
      <trkpt lat="48.05132" lon="8.35734">
        <ele>904</ele>
        <time>2022-05-23T18:08:44Z</time>
      </trkpt>
      <trkpt lat="48.05122" lon="8.35785">
        <ele>901</ele>
        <time>2022-05-23T18:08:51Z</time>
      </trkpt>
      <trkpt lat="48.0512" lon="8.35808">
        <ele>900</ele>
        <time>2022-05-23T18:08:53Z</time>
      </trkpt>
      <trkpt lat="48.0511" lon="8.3585">
        <ele>897</ele>
        <time>2022-05-23T18:08:59Z</time>
      </trkpt>
      <trkpt lat="48.05089" lon="8.35981">
        <ele>888</ele>
        <time>2022-05-23T18:09:15Z</time>
      </trkpt>
      <trkpt lat="48.05083" lon="8.36077">
        <ele>885</ele>
        <time>2022-05-23T18:09:26Z</time>
      </trkpt>
      <trkpt lat="48.05077" lon="8.36095">
        <ele>884</ele>
        <time>2022-05-23T18:09:28Z</time>
      </trkpt>
      <trkpt lat="48.05065" lon="8.36101">
        <ele>882</ele>
        <time>2022-05-23T18:09:31Z</time>
      </trkpt>
      <trkpt lat="48.05052" lon="8.36103">
        <ele>881</ele>
        <time>2022-05-23T18:09:33Z</time>
      </trkpt>
      <trkpt lat="48.05007" lon="8.36119">
        <ele>876</ele>
        <time>2022-05-23T18:09:41Z</time>
      </trkpt>
      <trkpt lat="48.04987" lon="8.36139">
        <ele>876</ele>
        <time>2022-05-23T18:09:46Z</time>
      </trkpt>
      <trkpt lat="48.04969" lon="8.36168">
        <ele>876</ele>
        <time>2022-05-23T18:09:50Z</time>
      </trkpt>
      <trkpt lat="48.04951" lon="8.36226">
        <ele>876</ele>
        <time>2022-05-23T18:09:58Z</time>
      </trkpt>
      <trkpt lat="48.04941" lon="8.3633">
        <ele>872</ele>
        <time>2022-05-23T18:10:10Z</time>
      </trkpt>
      <trkpt lat="48.04907" lon="8.36408">
        <ele>872</ele>
        <time>2022-05-23T18:10:21Z</time>
      </trkpt>
      <trkpt lat="48.04882" lon="8.36505">
        <ele>867</ele>
        <time>2022-05-23T18:10:34Z</time>
      </trkpt>
      <trkpt lat="48.04852" lon="8.36591">
        <ele>858</ele>
        <time>2022-05-23T18:10:45Z</time>
      </trkpt>
      <trkpt lat="48.04839" lon="8.36642">
        <ele>855</ele>
        <time>2022-05-23T18:10:52Z</time>
      </trkpt>
      <trkpt lat="48.04827" lon="8.36716">
        <ele>854</ele>
        <time>2022-05-23T18:11:01Z</time>
      </trkpt>
      <trkpt lat="48.04822" lon="8.36766">
        <ele>855</ele>
        <time>2022-05-23T18:11:07Z</time>
      </trkpt>
      <trkpt lat="48.04822" lon="8.36788">
        <ele>855</ele>
        <time>2022-05-23T18:11:10Z</time>
      </trkpt>
      <trkpt lat="48.04829" lon="8.36899">
        <ele>853</ele>
        <time>2022-05-23T18:11:23Z</time>
      </trkpt>
      <trkpt lat="48.04845" lon="8.3706">
        <ele>857</ele>
        <time>2022-05-23T18:11:42Z</time>
      </trkpt>
      <trkpt lat="48.04845" lon="8.37131">
        <ele>856</ele>
        <time>2022-05-23T18:11:51Z</time>
      </trkpt>
      <trkpt lat="48.04838" lon="8.37176">
        <ele>854</ele>
        <time>2022-05-23T18:11:56Z</time>
      </trkpt>
      <trkpt lat="48.04818" lon="8.37253">
        <ele>851</ele>
        <time>2022-05-23T18:12:06Z</time>
      </trkpt>
      <trkpt lat="48.0481" lon="8.37293">
        <ele>850</ele>
        <time>2022-05-23T18:12:11Z</time>
      </trkpt>
      <trkpt lat="48.04775" lon="8.37412">
        <ele>844</ele>
        <time>2022-05-23T18:12:26Z</time>
      </trkpt>
      <trkpt lat="48.04762" lon="8.3747">
        <ele>840</ele>
        <time>2022-05-23T18:12:34Z</time>
      </trkpt>
      <trkpt lat="48.04749" lon="8.37581">
        <ele>837</ele>
        <time>2022-05-23T18:12:47Z</time>
      </trkpt>
      <trkpt lat="48.0475" lon="8.37614">
        <ele>839</ele>
        <time>2022-05-23T18:12:51Z</time>
      </trkpt>
      <trkpt lat="48.04746" lon="8.37677">
        <ele>842</ele>
        <time>2022-05-23T18:12:58Z</time>
      </trkpt>
      <trkpt lat="48.04742" lon="8.37695">
        <ele>842</ele>
        <time>2022-05-23T18:13:01Z</time>
      </trkpt>
      <trkpt lat="48.04736" lon="8.3776">
        <ele>843</ele>
        <time>2022-05-23T18:13:09Z</time>
      </trkpt>
      <trkpt lat="48.04735" lon="8.37784">
        <ele>842</ele>
        <time>2022-05-23T18:13:11Z</time>
      </trkpt>
      <trkpt lat="48.04738" lon="8.37832">
        <ele>840</ele>
        <time>2022-05-23T18:13:17Z</time>
      </trkpt>
      <trkpt lat="48.04755" lon="8.37941">
        <ele>836</ele>
        <time>2022-05-23T18:13:30Z</time>
      </trkpt>
      <trkpt lat="48.04759" lon="8.38015">
        <ele>832</ele>
        <time>2022-05-23T18:13:39Z</time>
      </trkpt>
      <trkpt lat="48.04762" lon="8.38039">
        <ele>830</ele>
        <time>2022-05-23T18:13:42Z</time>
      </trkpt>
      <trkpt lat="48.04774" lon="8.38078">
        <ele>827</ele>
        <time>2022-05-23T18:13:47Z</time>
      </trkpt>
      <trkpt lat="48.04777" lon="8.38101">
        <ele>827</ele>
        <time>2022-05-23T18:13:50Z</time>
      </trkpt>
      <trkpt lat="48.04779" lon="8.38122">
        <ele>828</ele>
        <time>2022-05-23T18:13:53Z</time>
      </trkpt>
      <trkpt lat="48.04775" lon="8.38165">
        <ele>829</ele>
        <time>2022-05-23T18:13:58Z</time>
      </trkpt>
      <trkpt lat="48.04759" lon="8.38243">
        <ele>828</ele>
        <time>2022-05-23T18:14:07Z</time>
      </trkpt>
      <trkpt lat="48.04737" lon="8.38327">
        <ele>827</ele>
        <time>2022-05-23T18:14:18Z</time>
      </trkpt>
      <trkpt lat="48.04723" lon="8.38365">
        <ele>828</ele>
        <time>2022-05-23T18:14:23Z</time>
      </trkpt>
      <trkpt lat="48.04718" lon="8.38395">
        <ele>827</ele>
        <time>2022-05-23T18:14:27Z</time>
      </trkpt>
      <trkpt lat="48.04705" lon="8.38424">
        <ele>827</ele>
        <time>2022-05-23T18:14:31Z</time>
      </trkpt>
      <trkpt lat="48.04688" lon="8.38474">
        <ele>824</ele>
        <time>2022-05-23T18:14:38Z</time>
      </trkpt>
      <trkpt lat="48.04681" lon="8.38518">
        <ele>822</ele>
        <time>2022-05-23T18:14:43Z</time>
      </trkpt>
      <trkpt lat="48.04666" lon="8.38585">
        <ele>821</ele>
        <time>2022-05-23T18:14:52Z</time>
      </trkpt>
      <trkpt lat="48.04638" lon="8.38663">
        <ele>823</ele>
        <time>2022-05-23T18:15:02Z</time>
      </trkpt>
      <trkpt lat="48.04603" lon="8.38734">
        <ele>820</ele>
        <time>2022-05-23T18:15:13Z</time>
      </trkpt>
      <trkpt lat="48.04592" lon="8.38778">
        <ele>816</ele>
        <time>2022-05-23T18:15:18Z</time>
      </trkpt>
      <trkpt lat="48.04577" lon="8.3882">
        <ele>812</ele>
        <time>2022-05-23T18:15:24Z</time>
      </trkpt>
      <trkpt lat="48.04556" lon="8.38893">
        <ele>809</ele>
        <time>2022-05-23T18:15:33Z</time>
      </trkpt>
      <trkpt lat="48.04539" lon="8.38962">
        <ele>807</ele>
        <time>2022-05-23T18:15:42Z</time>
      </trkpt>
      <trkpt lat="48.04529" lon="8.39018">
        <ele>808</ele>
        <time>2022-05-23T18:15:49Z</time>
      </trkpt>
      <trkpt lat="48.04527" lon="8.39071">
        <ele>809</ele>
        <time>2022-05-23T18:15:55Z</time>
      </trkpt>
      <trkpt lat="48.04521" lon="8.39108">
        <ele>808</ele>
        <time>2022-05-23T18:16:00Z</time>
      </trkpt>
      <trkpt lat="48.0451" lon="8.39225">
        <ele>806</ele>
        <time>2022-05-23T18:16:14Z</time>
      </trkpt>
      <trkpt lat="48.04496" lon="8.39331">
        <ele>804</ele>
        <time>2022-05-23T18:16:27Z</time>
      </trkpt>
      <trkpt lat="48.04488" lon="8.395">
        <ele>808</ele>
        <time>2022-05-23T18:16:47Z</time>
      </trkpt>
      <trkpt lat="48.04458" lon="8.39645">
        <ele>805</ele>
        <time>2022-05-23T18:17:05Z</time>
      </trkpt>
      <trkpt lat="48.04443" lon="8.39772">
        <ele>800</ele>
        <time>2022-05-23T18:17:20Z</time>
      </trkpt>
      <trkpt lat="48.04429" lon="8.3982">
        <ele>796</ele>
        <time>2022-05-23T18:17:27Z</time>
      </trkpt>
      <trkpt lat="48.04418" lon="8.399">
        <ele>792</ele>
        <time>2022-05-23T18:17:36Z</time>
      </trkpt>
      <trkpt lat="48.0442" lon="8.39965">
        <ele>791</ele>
        <time>2022-05-23T18:17:44Z</time>
      </trkpt>
      <trkpt lat="48.04425" lon="8.40002">
        <ele>791</ele>
        <time>2022-05-23T18:17:48Z</time>
      </trkpt>
      <trkpt lat="48.04432" lon="8.40107">
        <ele>792</ele>
        <time>2022-05-23T18:18:01Z</time>
      </trkpt>
      <trkpt lat="48.04444" lon="8.40182">
        <ele>794</ele>
        <time>2022-05-23T18:18:10Z</time>
      </trkpt>
      <trkpt lat="48.04442" lon="8.40221">
        <ele>792</ele>
        <time>2022-05-23T18:18:15Z</time>
      </trkpt>
      <trkpt lat="48.04435" lon="8.4028">
        <ele>789</ele>
        <time>2022-05-23T18:18:22Z</time>
      </trkpt>
      <trkpt lat="48.04434" lon="8.40342">
        <ele>786</ele>
        <time>2022-05-23T18:18:29Z</time>
      </trkpt>
      <trkpt lat="48.04428" lon="8.40394">
        <ele>784</ele>
        <time>2022-05-23T18:18:36Z</time>
      </trkpt>
      <trkpt lat="48.04429" lon="8.40412">
        <ele>784</ele>
        <time>2022-05-23T18:18:38Z</time>
      </trkpt>
      <trkpt lat="48.04426" lon="8.40464">
        <ele>782</ele>
        <time>2022-05-23T18:18:44Z</time>
      </trkpt>
      <trkpt lat="48.04421" lon="8.40511">
        <ele>779</ele>
        <time>2022-05-23T18:18:50Z</time>
      </trkpt>
      <trkpt lat="48.04415" lon="8.4054">
        <ele>778</ele>
        <time>2022-05-23T18:18:53Z</time>
      </trkpt>
      <trkpt lat="48.04398" lon="8.40583">
        <ele>778</ele>
        <time>2022-05-23T18:18:59Z</time>
      </trkpt>
      <trkpt lat="48.04384" lon="8.40627">
        <ele>780</ele>
        <time>2022-05-23T18:19:05Z</time>
      </trkpt>
      <trkpt lat="48.04378" lon="8.40675">
        <ele>779</ele>
        <time>2022-05-23T18:19:11Z</time>
      </trkpt>
      <trkpt lat="48.04379" lon="8.40719">
        <ele>779</ele>
        <time>2022-05-23T18:19:16Z</time>
      </trkpt>
      <trkpt lat="48.04391" lon="8.40743">
        <ele>780</ele>
        <time>2022-05-23T18:19:20Z</time>
      </trkpt>
      <trkpt lat="48.04399" lon="8.40784">
        <ele>781</ele>
        <time>2022-05-23T18:19:25Z</time>
      </trkpt>
      <trkpt lat="48.044" lon="8.408">
        <ele>780</ele>
        <time>2022-05-23T18:19:27Z</time>
      </trkpt>
      <trkpt lat="48.04397" lon="8.40847">
        <ele>778</ele>
        <time>2022-05-23T18:19:32Z</time>
      </trkpt>
      <trkpt lat="48.04391" lon="8.4088">
        <ele>778</ele>
        <time>2022-05-23T18:19:36Z</time>
      </trkpt>
      <trkpt lat="48.04385" lon="8.40894">
        <ele>777</ele>
        <time>2022-05-23T18:19:38Z</time>
      </trkpt>
      <trkpt lat="48.04369" lon="8.40916">
        <ele>774</ele>
        <time>2022-05-23T18:19:42Z</time>
      </trkpt>
      <trkpt lat="48.04352" lon="8.40953">
        <ele>773</ele>
        <time>2022-05-23T18:19:47Z</time>
      </trkpt>
      <trkpt lat="48.04349" lon="8.40967">
        <ele>773</ele>
        <time>2022-05-23T18:19:49Z</time>
      </trkpt>
      <trkpt lat="48.04331" lon="8.41004">
        <ele>774</ele>
        <time>2022-05-23T18:19:55Z</time>
      </trkpt>
      <trkpt lat="48.04316" lon="8.41022">
        <ele>776</ele>
        <time>2022-05-23T18:19:58Z</time>
      </trkpt>
      <trkpt lat="48.04307" lon="8.41023">
        <ele>775</ele>
        <time>2022-05-23T18:20:00Z</time>
      </trkpt>
      <trkpt lat="48.04286" lon="8.41076">
        <ele>778</ele>
        <time>2022-05-23T18:20:07Z</time>
      </trkpt>
      <trkpt lat="48.04263" lon="8.41124">
        <ele>777</ele>
        <time>2022-05-23T18:20:14Z</time>
      </trkpt>
      <trkpt lat="48.04254" lon="8.4115">
        <ele>776</ele>
        <time>2022-05-23T18:20:18Z</time>
      </trkpt>
      <trkpt lat="48.04247" lon="8.41192">
        <ele>777</ele>
        <time>2022-05-23T18:20:23Z</time>
      </trkpt>
      <trkpt lat="48.04249" lon="8.41301">
        <ele>777</ele>
        <time>2022-05-23T18:20:36Z</time>
      </trkpt>
      <trkpt lat="48.04258" lon="8.41358">
        <ele>772</ele>
        <time>2022-05-23T18:20:43Z</time>
      </trkpt>
      <trkpt lat="48.04262" lon="8.41374">
        <ele>771</ele>
        <time>2022-05-23T18:20:45Z</time>
      </trkpt>
      <trkpt lat="48.04288" lon="8.41429">
        <ele>766</ele>
        <time>2022-05-23T18:20:53Z</time>
      </trkpt>
      <trkpt lat="48.04307" lon="8.41482">
        <ele>765</ele>
        <time>2022-05-23T18:21:00Z</time>
      </trkpt>
      <trkpt lat="48.04314" lon="8.41494">
        <ele>766</ele>
        <time>2022-05-23T18:21:02Z</time>
      </trkpt>
      <trkpt lat="48.04359" lon="8.41552">
        <ele>768</ele>
        <time>2022-05-23T18:21:12Z</time>
      </trkpt>
      <trkpt lat="48.04475" lon="8.41725">
        <ele>762</ele>
        <time>2022-05-23T18:21:41Z</time>
      </trkpt>
      <trkpt lat="48.04515" lon="8.41779">
        <ele>760</ele>
        <time>2022-05-23T18:21:51Z</time>
      </trkpt>
      <trkpt lat="48.04533" lon="8.41798">
        <ele>758</ele>
        <time>2022-05-23T18:21:55Z</time>
      </trkpt>
      <trkpt lat="48.04541" lon="8.41811">
        <ele>757</ele>
        <time>2022-05-23T18:21:57Z</time>
      </trkpt>
      <trkpt lat="48.04537" lon="8.41823">
        <ele>756</ele>
        <time>2022-05-23T18:21:59Z</time>
      </trkpt>
      <trkpt lat="48.0453" lon="8.41834">
        <ele>755</ele>
        <time>2022-05-23T18:22:00Z</time>
      </trkpt>
      <trkpt lat="48.04522" lon="8.41865">
        <ele>753</ele>
        <time>2022-05-23T18:22:04Z</time>
      </trkpt>
      <trkpt lat="48.04514" lon="8.41877">
        <ele>753</ele>
        <time>2022-05-23T18:22:06Z</time>
      </trkpt>
      <trkpt lat="48.04399" lon="8.41992">
        <ele>750</ele>
        <time>2022-05-23T18:22:31Z</time>
      </trkpt>
      <trkpt lat="48.04372" lon="8.42016">
        <ele>750</ele>
        <time>2022-05-23T18:22:37Z</time>
      </trkpt>
      <trkpt lat="48.04355" lon="8.42025">
        <ele>750</ele>
        <time>2022-05-23T18:22:40Z</time>
      </trkpt>
      <trkpt lat="48.04336" lon="8.42031">
        <ele>750</ele>
        <time>2022-05-23T18:22:43Z</time>
      </trkpt>
      <trkpt lat="48.04233" lon="8.42057">
        <ele>752</ele>
        <time>2022-05-23T18:23:02Z</time>
      </trkpt>
      <trkpt lat="48.04213" lon="8.4207">
        <ele>752</ele>
        <time>2022-05-23T18:23:06Z</time>
      </trkpt>
      <trkpt lat="48.04197" lon="8.42089">
        <ele>753</ele>
        <time>2022-05-23T18:23:09Z</time>
      </trkpt>
      <trkpt lat="48.04137" lon="8.42185">
        <ele>759</ele>
        <time>2022-05-23T18:23:25Z</time>
      </trkpt>
      <trkpt lat="48.04129" lon="8.42194">
        <ele>760</ele>
        <time>2022-05-23T18:23:27Z</time>
      </trkpt>
      <trkpt lat="48.04057" lon="8.42315">
        <ele>765</ele>
        <time>2022-05-23T18:23:46Z</time>
      </trkpt>
      <trkpt lat="48.04027" lon="8.42354">
        <ele>765</ele>
        <time>2022-05-23T18:23:53Z</time>
      </trkpt>
      <trkpt lat="48.04017" lon="8.42361">
        <ele>765</ele>
        <time>2022-05-23T18:23:55Z</time>
      </trkpt>
      <trkpt lat="48.04007" lon="8.42363">
        <ele>765</ele>
        <time>2022-05-23T18:23:57Z</time>
      </trkpt>
      <trkpt lat="48.03986" lon="8.42357">
        <ele>764</ele>
        <time>2022-05-23T18:24:01Z</time>
      </trkpt>
      <trkpt lat="48.03959" lon="8.42338">
        <ele>762</ele>
        <time>2022-05-23T18:24:06Z</time>
      </trkpt>
      <trkpt lat="48.0392" lon="8.42302">
        <ele>759</ele>
        <time>2022-05-23T18:24:14Z</time>
      </trkpt>
      <trkpt lat="48.03913" lon="8.42293">
        <ele>759</ele>
        <time>2022-05-23T18:24:16Z</time>
      </trkpt>
      <trkpt lat="48.03904" lon="8.42295">
        <ele>758</ele>
        <time>2022-05-23T18:24:17Z</time>
      </trkpt>
      <trkpt lat="48.03902" lon="8.42327">
        <ele>757</ele>
        <time>2022-05-23T18:24:21Z</time>
      </trkpt>
      <trkpt lat="48.03893" lon="8.42378">
        <ele>755</ele>
        <time>2022-05-23T18:24:28Z</time>
      </trkpt>
      <trkpt lat="48.0388" lon="8.42444">
        <ele>753</ele>
        <time>2022-05-23T18:24:36Z</time>
      </trkpt>
      <trkpt lat="48.0387" lon="8.42481">
        <ele>751</ele>
        <time>2022-05-23T18:24:40Z</time>
      </trkpt>
      <trkpt lat="48.0386" lon="8.42544">
        <ele>749</ele>
        <time>2022-05-23T18:24:48Z</time>
      </trkpt>
      <trkpt lat="48.03856" lon="8.4298">
        <ele>746</ele>
        <time>2022-05-23T18:25:40Z</time>
      </trkpt>
      <trkpt lat="48.03865" lon="8.43003">
        <ele>747</ele>
        <time>2022-05-23T18:25:43Z</time>
      </trkpt>
      <trkpt lat="48.0389" lon="8.43022">
        <ele>750</ele>
        <time>2022-05-23T18:25:48Z</time>
      </trkpt>
      <trkpt lat="48.0391" lon="8.43032">
        <ele>752</ele>
        <time>2022-05-23T18:25:52Z</time>
      </trkpt>
      <trkpt lat="48.03917" lon="8.43039">
        <ele>753</ele>
        <time>2022-05-23T18:25:53Z</time>
      </trkpt>
      <trkpt lat="48.03927" lon="8.43044">
        <ele>753</ele>
        <time>2022-05-23T18:25:55Z</time>
      </trkpt>
      <trkpt lat="48.03933" lon="8.43054">
        <ele>754</ele>
        <time>2022-05-23T18:25:57Z</time>
      </trkpt>
      <trkpt lat="48.03942" lon="8.43058">
        <ele>755</ele>
        <time>2022-05-23T18:25:59Z</time>
      </trkpt>
      <trkpt lat="48.03959" lon="8.43071">
        <ele>756</ele>
        <time>2022-05-23T18:26:02Z</time>
      </trkpt>
      <trkpt lat="48.03978" lon="8.4308">
        <ele>758</ele>
        <time>2022-05-23T18:26:06Z</time>
      </trkpt>
      <trkpt lat="48.04013" lon="8.43105">
        <ele>760</ele>
        <time>2022-05-23T18:26:12Z</time>
      </trkpt>
      <trkpt lat="48.04021" lon="8.43112">
        <ele>760</ele>
        <time>2022-05-23T18:26:14Z</time>
      </trkpt>
      <trkpt lat="48.04031" lon="8.43135">
        <ele>760</ele>
        <time>2022-05-23T18:26:17Z</time>
      </trkpt>
      <trkpt lat="48.04039" lon="8.43198">
        <ele>759</ele>
        <time>2022-05-23T18:26:25Z</time>
      </trkpt>
      <trkpt lat="48.04038" lon="8.43217">
        <ele>759</ele>
        <time>2022-05-23T18:26:27Z</time>
      </trkpt>
      <trkpt lat="48.0406" lon="8.43539">
        <ele>758</ele>
        <time>2022-05-23T18:27:06Z</time>
      </trkpt>
      <trkpt lat="48.04058" lon="8.43555">
        <ele>758</ele>
        <time>2022-05-23T18:27:08Z</time>
      </trkpt>
      <trkpt lat="48.04043" lon="8.43574">
        <ele>757</ele>
        <time>2022-05-23T18:27:11Z</time>
      </trkpt>
      <trkpt lat="48.04032" lon="8.43604">
        <ele>757</ele>
        <time>2022-05-23T18:27:15Z</time>
      </trkpt>
      <trkpt lat="48.04009" lon="8.43676">
        <ele>756</ele>
        <time>2022-05-23T18:27:25Z</time>
      </trkpt>
      <trkpt lat="48.03994" lon="8.43742">
        <ele>755</ele>
        <time>2022-05-23T18:27:33Z</time>
      </trkpt>
      <trkpt lat="48.03988" lon="8.43758">
        <ele>754</ele>
        <time>2022-05-23T18:27:35Z</time>
      </trkpt>
      <trkpt lat="48.03977" lon="8.43761">
        <ele>753</ele>
        <time>2022-05-23T18:27:37Z</time>
      </trkpt>
      <trkpt lat="48.03919" lon="8.43721">
        <ele>750</ele>
        <time>2022-05-23T18:27:49Z</time>
      </trkpt>
      <trkpt lat="48.03905" lon="8.4372">
        <ele>749</ele>
        <time>2022-05-23T18:27:51Z</time>
      </trkpt>
      <trkpt lat="48.03893" lon="8.43734">
        <ele>748</ele>
        <time>2022-05-23T18:27:54Z</time>
      </trkpt>
      <trkpt lat="48.0384" lon="8.43926">
        <ele>746</ele>
        <time>2022-05-23T18:28:19Z</time>
      </trkpt>
      <trkpt lat="48.03828" lon="8.43959">
        <ele>746</ele>
        <time>2022-05-23T18:28:23Z</time>
      </trkpt>
      <trkpt lat="48.03744" lon="8.44135">
        <ele>740</ele>
        <time>2022-05-23T18:28:49Z</time>
      </trkpt>
      <trkpt lat="48.03715" lon="8.44189">
        <ele>738</ele>
        <time>2022-05-23T18:28:57Z</time>
      </trkpt>
      <trkpt lat="48.03691" lon="8.44226">
        <ele>738</ele>
        <time>2022-05-23T18:29:03Z</time>
      </trkpt>
      <trkpt lat="48.03592" lon="8.44353">
        <ele>733</ele>
        <time>2022-05-23T18:29:26Z</time>
      </trkpt>
      <trkpt lat="48.03491" lon="8.44496">
        <ele>730</ele>
        <time>2022-05-23T18:29:51Z</time>
      </trkpt>
      <trkpt lat="48.03467" lon="8.44536">
        <ele>728</ele>
        <time>2022-05-23T18:29:57Z</time>
      </trkpt>
      <trkpt lat="48.03447" lon="8.44578">
        <ele>727</ele>
        <time>2022-05-23T18:30:04Z</time>
      </trkpt>
      <trkpt lat="48.034" lon="8.44702">
        <ele>725</ele>
        <time>2022-05-23T18:30:21Z</time>
      </trkpt>
      <trkpt lat="48.0334" lon="8.44898">
        <ele>719</ele>
        <time>2022-05-23T18:30:46Z</time>
      </trkpt>
      <trkpt lat="48.03317" lon="8.44984">
        <ele>718</ele>
        <time>2022-05-23T18:30:57Z</time>
      </trkpt>
      <trkpt lat="48.03263" lon="8.45126">
        <ele>712</ele>
        <time>2022-05-23T18:31:17Z</time>
      </trkpt>
      <trkpt lat="48.03262" lon="8.45155">
        <ele>711</ele>
        <time>2022-05-23T18:31:20Z</time>
      </trkpt>
      <trkpt lat="48.03269" lon="8.45194">
        <ele>709</ele>
        <time>2022-05-23T18:31:25Z</time>
      </trkpt>
      <trkpt lat="48.03267" lon="8.45214">
        <ele>708</ele>
        <time>2022-05-23T18:31:27Z</time>
      </trkpt>
      <trkpt lat="48.03252" lon="8.45247">
        <ele>707</ele>
        <time>2022-05-23T18:31:32Z</time>
      </trkpt>
      <trkpt lat="48.0325" lon="8.45271">
        <ele>706</ele>
        <time>2022-05-23T18:31:35Z</time>
      </trkpt>
      <trkpt lat="48.03252" lon="8.45296">
        <ele>706</ele>
        <time>2022-05-23T18:31:38Z</time>
      </trkpt>
      <trkpt lat="48.03251" lon="8.45322">
        <ele>705</ele>
        <time>2022-05-23T18:31:41Z</time>
      </trkpt>
      <trkpt lat="48.03234" lon="8.45414">
        <ele>704</ele>
        <time>2022-05-23T18:31:52Z</time>
      </trkpt>
      <trkpt lat="48.0323" lon="8.45554">
        <ele>704</ele>
        <time>2022-05-23T18:32:09Z</time>
      </trkpt>
      <trkpt lat="48.03224" lon="8.45591">
        <ele>703</ele>
        <time>2022-05-23T18:32:14Z</time>
      </trkpt>
      <trkpt lat="48.03222" lon="8.45629">
        <ele>703</ele>
        <time>2022-05-23T18:32:18Z</time>
      </trkpt>
      <trkpt lat="48.03221" lon="8.45612">
        <ele>703</ele>
        <time>2022-05-23T18:32:20Z</time>
      </trkpt>
      <trkpt lat="48.03213" lon="8.456">
        <ele>703</ele>
        <time>2022-05-23T18:32:22Z</time>
      </trkpt>
      <trkpt lat="48.03182" lon="8.45617">
        <ele>702</ele>
        <time>2022-05-23T18:32:28Z</time>
      </trkpt>
      <trkpt lat="48.03172" lon="8.45618">
        <ele>701</ele>
        <time>2022-05-23T18:32:30Z</time>
      </trkpt>
      <trkpt lat="48.03149" lon="8.45628">
        <ele>700</ele>
        <time>2022-05-23T18:32:34Z</time>
      </trkpt>
      <trkpt lat="48.03139" lon="8.45652">
        <ele>700</ele>
        <time>2022-05-23T18:32:37Z</time>
      </trkpt>
      <trkpt lat="48.03148" lon="8.45661">
        <ele>700</ele>
        <time>2022-05-23T18:32:39Z</time>
      </trkpt>
      <trkpt lat="48.03166" lon="8.45693">
        <ele>701</ele>
        <time>2022-05-23T18:32:44Z</time>
      </trkpt>
      <trkpt lat="48.03173" lon="8.4574">
        <ele>702</ele>
        <time>2022-05-23T18:32:50Z</time>
      </trkpt>
      <trkpt lat="48.03175" lon="8.45802">
        <ele>703</ele>
        <time>2022-05-23T18:32:57Z</time>
      </trkpt>
      <trkpt lat="48.03171" lon="8.45957">
        <ele>701</ele>
        <time>2022-05-23T18:33:16Z</time>
      </trkpt>
      <trkpt lat="48.03175" lon="8.46012">
        <ele>699</ele>
        <time>2022-05-23T18:33:22Z</time>
      </trkpt>
      <trkpt lat="48.03181" lon="8.46051">
        <ele>697</ele>
        <time>2022-05-23T18:33:27Z</time>
      </trkpt>
      <trkpt lat="48.03191" lon="8.4609">
        <ele>695</ele>
        <time>2022-05-23T18:33:32Z</time>
      </trkpt>
      <trkpt lat="48.03211" lon="8.4614">
        <ele>693</ele>
        <time>2022-05-23T18:33:39Z</time>
      </trkpt>
      <trkpt lat="48.03231" lon="8.46177">
        <ele>692</ele>
        <time>2022-05-23T18:33:45Z</time>
      </trkpt>
      <trkpt lat="48.03237" lon="8.46187">
        <ele>692</ele>
        <time>2022-05-23T18:33:46Z</time>
      </trkpt>
      <trkpt lat="48.03246" lon="8.46193">
        <ele>692</ele>
        <time>2022-05-23T18:33:48Z</time>
      </trkpt>
      <trkpt lat="48.03258" lon="8.46216">
        <ele>693</ele>
        <time>2022-05-23T18:33:52Z</time>
      </trkpt>
      <trkpt lat="48.03275" lon="8.4623">
        <ele>693</ele>
        <time>2022-05-23T18:33:55Z</time>
      </trkpt>
      <trkpt lat="48.03282" lon="8.46239">
        <ele>694</ele>
        <time>2022-05-23T18:33:57Z</time>
      </trkpt>
      <trkpt lat="48.03334" lon="8.46331">
        <ele>697</ele>
        <time>2022-05-23T18:34:11Z</time>
      </trkpt>
      <trkpt lat="48.03361" lon="8.46391">
        <ele>695</ele>
        <time>2022-05-23T18:34:20Z</time>
      </trkpt>
      <trkpt lat="48.03367" lon="8.46418">
        <ele>694</ele>
        <time>2022-05-23T18:34:23Z</time>
      </trkpt>
      <trkpt lat="48.03373" lon="8.46489">
        <ele>693</ele>
        <time>2022-05-23T18:34:32Z</time>
      </trkpt>
      <trkpt lat="48.03373" lon="8.46518">
        <ele>692</ele>
        <time>2022-05-23T18:34:35Z</time>
      </trkpt>
      <trkpt lat="48.03366" lon="8.46574">
        <ele>692</ele>
        <time>2022-05-23T18:34:42Z</time>
      </trkpt>
      <trkpt lat="48.03355" lon="8.46614">
        <ele>693</ele>
        <time>2022-05-23T18:34:47Z</time>
      </trkpt>
      <trkpt lat="48.03326" lon="8.46685">
        <ele>694</ele>
        <time>2022-05-23T18:34:57Z</time>
      </trkpt>
      <trkpt lat="48.03296" lon="8.46739">
        <ele>694</ele>
        <time>2022-05-23T18:35:05Z</time>
      </trkpt>
      <trkpt lat="48.03258" lon="8.46803">
        <ele>694</ele>
        <time>2022-05-23T18:35:15Z</time>
      </trkpt>
      <trkpt lat="48.03232" lon="8.46833">
        <ele>694</ele>
        <time>2022-05-23T18:35:21Z</time>
      </trkpt>
      <trkpt lat="48.0322" lon="8.46841">
        <ele>694</ele>
        <time>2022-05-23T18:35:24Z</time>
      </trkpt>
      <trkpt lat="48.03195" lon="8.46849">
        <ele>695</ele>
        <time>2022-05-23T18:35:28Z</time>
      </trkpt>
      <trkpt lat="48.03158" lon="8.46867">
        <ele>695</ele>
        <time>2022-05-23T18:35:35Z</time>
      </trkpt>
      <trkpt lat="48.03149" lon="8.46872">
        <ele>695</ele>
        <time>2022-05-23T18:35:37Z</time>
      </trkpt>
      <trkpt lat="48.0314" lon="8.46884">
        <ele>695</ele>
        <time>2022-05-23T18:35:39Z</time>
      </trkpt>
      <trkpt lat="48.03135" lon="8.469">
        <ele>695</ele>
        <time>2022-05-23T18:35:41Z</time>
      </trkpt>
      <trkpt lat="48.03125" lon="8.46992">
        <ele>696</ele>
        <time>2022-05-23T18:35:52Z</time>
      </trkpt>
      <trkpt lat="48.03117" lon="8.47038">
        <ele>696</ele>
        <time>2022-05-23T18:35:58Z</time>
      </trkpt>
      <trkpt lat="48.03115" lon="8.47089">
        <ele>697</ele>
        <time>2022-05-23T18:36:04Z</time>
      </trkpt>
      <trkpt lat="48.03106" lon="8.47099">
        <ele>696</ele>
        <time>2022-05-23T18:36:06Z</time>
      </trkpt>
      <trkpt lat="48.03103" lon="8.47117">
        <ele>696</ele>
        <time>2022-05-23T18:36:08Z</time>
      </trkpt>
      <trkpt lat="48.0311" lon="8.47126">
        <ele>696</ele>
        <time>2022-05-23T18:36:10Z</time>
      </trkpt>
      <trkpt lat="48.03132" lon="8.47117">
        <ele>698</ele>
        <time>2022-05-23T18:36:14Z</time>
      </trkpt>
      <trkpt lat="48.03123" lon="8.47111">
        <ele>697</ele>
        <time>2022-05-23T18:36:15Z</time>
      </trkpt>
      <trkpt lat="48.03113" lon="8.47112">
        <ele>697</ele>
        <time>2022-05-23T18:36:17Z</time>
      </trkpt>
      <trkpt lat="48.03104" lon="8.47109">
        <ele>696</ele>
        <time>2022-05-23T18:36:19Z</time>
      </trkpt>
      <trkpt lat="48.03095" lon="8.4712">
        <ele>696</ele>
        <time>2022-05-23T18:36:21Z</time>
      </trkpt>
      <trkpt lat="48.03106" lon="8.47202">
        <ele>696</ele>
        <time>2022-05-23T18:36:31Z</time>
      </trkpt>
      <trkpt lat="48.03117" lon="8.47235">
        <ele>697</ele>
        <time>2022-05-23T18:36:35Z</time>
      </trkpt>
      <trkpt lat="48.03128" lon="8.4729">
        <ele>697</ele>
        <time>2022-05-23T18:36:42Z</time>
      </trkpt>
      <trkpt lat="48.03139" lon="8.47324">
        <ele>698</ele>
        <time>2022-05-23T18:36:47Z</time>
      </trkpt>
      <trkpt lat="48.03142" lon="8.47342">
        <ele>698</ele>
        <time>2022-05-23T18:36:49Z</time>
      </trkpt>
      <trkpt lat="48.03158" lon="8.47392">
        <ele>699</ele>
        <time>2022-05-23T18:36:55Z</time>
      </trkpt>
      <trkpt lat="48.0317" lon="8.4744">
        <ele>699</ele>
        <time>2022-05-23T18:37:02Z</time>
      </trkpt>
      <trkpt lat="48.03179" lon="8.47492">
        <ele>698</ele>
        <time>2022-05-23T18:37:08Z</time>
      </trkpt>
      <trkpt lat="48.03186" lon="8.47549">
        <ele>698</ele>
        <time>2022-05-23T18:37:15Z</time>
      </trkpt>
      <trkpt lat="48.03191" lon="8.47638">
        <ele>699</ele>
        <time>2022-05-23T18:37:25Z</time>
      </trkpt>
      <trkpt lat="48.03189" lon="8.47716">
        <ele>700</ele>
        <time>2022-05-23T18:37:35Z</time>
      </trkpt>
      <trkpt lat="48.03201" lon="8.47738">
        <ele>702</ele>
        <time>2022-05-23T18:37:38Z</time>
      </trkpt>
      <trkpt lat="48.03213" lon="8.4803">
        <ele>707</ele>
        <time>2022-05-23T18:38:13Z</time>
      </trkpt>
      <trkpt lat="48.03214" lon="8.48118">
        <ele>707</ele>
        <time>2022-05-23T18:38:23Z</time>
      </trkpt>
      <trkpt lat="48.03209" lon="8.48191">
        <ele>707</ele>
        <time>2022-05-23T18:38:32Z</time>
      </trkpt>
      <trkpt lat="48.03195" lon="8.48265">
        <ele>706</ele>
        <time>2022-05-23T18:38:41Z</time>
      </trkpt>
      <trkpt lat="48.03168" lon="8.4836">
        <ele>703</ele>
        <time>2022-05-23T18:38:54Z</time>
      </trkpt>
      <trkpt lat="48.03143" lon="8.48458">
        <ele>703</ele>
        <time>2022-05-23T18:39:06Z</time>
      </trkpt>
      <trkpt lat="48.03141" lon="8.48475">
        <ele>704</ele>
        <time>2022-05-23T18:39:08Z</time>
      </trkpt>
      <trkpt lat="48.03141" lon="8.48493">
        <ele>704</ele>
        <time>2022-05-23T18:39:10Z</time>
      </trkpt>
      <trkpt lat="48.03148" lon="8.48539">
        <ele>705</ele>
        <time>2022-05-23T18:39:16Z</time>
      </trkpt>
      <trkpt lat="48.03153" lon="8.48645">
        <ele>710</ele>
        <time>2022-05-23T18:39:28Z</time>
      </trkpt>
      <trkpt lat="48.0316" lon="8.48719">
        <ele>710</ele>
        <time>2022-05-23T18:39:37Z</time>
      </trkpt>
      <trkpt lat="48.03161" lon="8.48793">
        <ele>711</ele>
        <time>2022-05-23T18:39:46Z</time>
      </trkpt>
      <trkpt lat="48.03158" lon="8.4884">
        <ele>713</ele>
        <time>2022-05-23T18:39:52Z</time>
      </trkpt>
      <trkpt lat="48.03138" lon="8.48924">
        <ele>717</ele>
        <time>2022-05-23T18:40:02Z</time>
      </trkpt>
      <trkpt lat="48.03105" lon="8.49029">
        <ele>710</ele>
        <time>2022-05-23T18:40:16Z</time>
      </trkpt>
      <trkpt lat="48.03086" lon="8.49116">
        <ele>709</ele>
        <time>2022-05-23T18:40:27Z</time>
      </trkpt>
      <trkpt lat="48.0307" lon="8.49217">
        <ele>719</ele>
        <time>2022-05-23T18:40:39Z</time>
      </trkpt>
      <trkpt lat="48.03077" lon="8.49249">
        <ele>721</ele>
        <time>2022-05-23T18:40:43Z</time>
      </trkpt>
      <trkpt lat="48.0308" lon="8.49327">
        <ele>720</ele>
        <time>2022-05-23T18:40:53Z</time>
      </trkpt>
      <trkpt lat="48.03102" lon="8.4952">
        <ele>720</ele>
        <time>2022-05-23T18:41:16Z</time>
      </trkpt>
      <trkpt lat="48.0311" lon="8.49578">
        <ele>720</ele>
        <time>2022-05-23T18:41:23Z</time>
      </trkpt>
      <trkpt lat="48.03134" lon="8.49695">
        <ele>719</ele>
        <time>2022-05-23T18:41:38Z</time>
      </trkpt>
      <trkpt lat="48.03151" lon="8.4982">
        <ele>716</ele>
        <time>2022-05-23T18:41:53Z</time>
      </trkpt>
      <trkpt lat="48.0316" lon="8.49941">
        <ele>712</ele>
        <time>2022-05-23T18:42:07Z</time>
      </trkpt>
      <trkpt lat="48.03157" lon="8.49989">
        <ele>712</ele>
        <time>2022-05-23T18:42:13Z</time>
      </trkpt>
      <trkpt lat="48.03147" lon="8.50055">
        <ele>707</ele>
        <time>2022-05-23T18:42:21Z</time>
      </trkpt>
      <trkpt lat="48.03134" lon="8.50102">
        <ele>704</ele>
        <time>2022-05-23T18:42:27Z</time>
      </trkpt>
      <trkpt lat="48.03111" lon="8.50158">
        <ele>703</ele>
        <time>2022-05-23T18:42:35Z</time>
      </trkpt>
      <trkpt lat="48.03081" lon="8.50222">
        <ele>704</ele>
        <time>2022-05-23T18:42:44Z</time>
      </trkpt>
      <trkpt lat="48.03062" lon="8.50257">
        <ele>704</ele>
        <time>2022-05-23T18:42:50Z</time>
      </trkpt>
      <trkpt lat="48.0304" lon="8.50366">
        <ele>705</ele>
        <time>2022-05-23T18:43:03Z</time>
      </trkpt>
      <trkpt lat="48.03023" lon="8.50481">
        <ele>703</ele>
        <time>2022-05-23T18:43:17Z</time>
      </trkpt>
      <trkpt lat="48.0301" lon="8.50607">
        <ele>703</ele>
        <time>2022-05-23T18:43:32Z</time>
      </trkpt>
      <trkpt lat="48.02987" lon="8.50784">
        <ele>702</ele>
        <time>2022-05-23T18:43:54Z</time>
      </trkpt>
      <trkpt lat="48.02982" lon="8.50835">
        <ele>703</ele>
        <time>2022-05-23T18:44:00Z</time>
      </trkpt>
      <trkpt lat="48.02982" lon="8.50869">
        <ele>704</ele>
        <time>2022-05-23T18:44:04Z</time>
      </trkpt>
      <trkpt lat="48.02979" lon="8.50902">
        <ele>704</ele>
        <time>2022-05-23T18:44:08Z</time>
      </trkpt>
      <trkpt lat="48.0293" lon="8.51279">
        <ele>703</ele>
        <time>2022-05-23T18:44:54Z</time>
      </trkpt>
      <trkpt lat="48.02926" lon="8.51292">
        <ele>703</ele>
        <time>2022-05-23T18:44:55Z</time>
      </trkpt>
      <trkpt lat="48.02919" lon="8.51303">
        <ele>703</ele>
        <time>2022-05-23T18:44:57Z</time>
      </trkpt>
      <trkpt lat="48.02915" lon="8.51318">
        <ele>702</ele>
        <time>2022-05-23T18:44:59Z</time>
      </trkpt>
      <trkpt lat="48.02874" lon="8.51627">
        <ele>704</ele>
        <time>2022-05-23T18:45:37Z</time>
      </trkpt>
      <trkpt lat="48.02861" lon="8.51667">
        <ele>704</ele>
        <time>2022-05-23T18:45:42Z</time>
      </trkpt>
      <trkpt lat="48.02855" lon="8.51726">
        <ele>704</ele>
        <time>2022-05-23T18:45:49Z</time>
      </trkpt>
      <trkpt lat="48.02845" lon="8.51754">
        <ele>705</ele>
        <time>2022-05-23T18:45:53Z</time>
      </trkpt>
      <trkpt lat="48.02843" lon="8.51785">
        <ele>704</ele>
        <time>2022-05-23T18:45:56Z</time>
      </trkpt>
      <trkpt lat="48.02838" lon="8.51802">
        <ele>704</ele>
        <time>2022-05-23T18:45:59Z</time>
      </trkpt>
      <trkpt lat="48.02821" lon="8.51832">
        <ele>704</ele>
        <time>2022-05-23T18:46:03Z</time>
      </trkpt>
      <trkpt lat="48.02803" lon="8.51856">
        <ele>704</ele>
        <time>2022-05-23T18:46:08Z</time>
      </trkpt>
      <trkpt lat="48.02728" lon="8.51921">
        <ele>704</ele>
        <time>2022-05-23T18:46:23Z</time>
      </trkpt>
      <trkpt lat="48.02691" lon="8.51969">
        <ele>704</ele>
        <time>2022-05-23T18:46:32Z</time>
      </trkpt>
      <trkpt lat="48.02657" lon="8.51964">
        <ele>705</ele>
        <time>2022-05-23T18:46:38Z</time>
      </trkpt>
      <trkpt lat="48.02469" lon="8.51926">
        <ele>711</ele>
        <time>2022-05-23T18:47:12Z</time>
      </trkpt>
      <trkpt lat="48.02458" lon="8.5193">
        <ele>711</ele>
        <time>2022-05-23T18:47:14Z</time>
      </trkpt>
      <trkpt lat="48.02452" lon="8.52064">
        <ele>712</ele>
        <time>2022-05-23T18:47:30Z</time>
      </trkpt>
      <trkpt lat="48.02436" lon="8.52185">
        <ele>713</ele>
        <time>2022-05-23T18:47:44Z</time>
      </trkpt>
      <trkpt lat="48.02428" lon="8.52221">
        <ele>713</ele>
        <time>2022-05-23T18:47:49Z</time>
      </trkpt>
      <trkpt lat="48.02408" lon="8.52287">
        <ele>712</ele>
        <time>2022-05-23T18:47:57Z</time>
      </trkpt>
      <trkpt lat="48.02362" lon="8.52406">
        <ele>711</ele>
        <time>2022-05-23T18:48:14Z</time>
      </trkpt>
      <trkpt lat="48.0234" lon="8.52472">
        <ele>711</ele>
        <time>2022-05-23T18:48:23Z</time>
      </trkpt>
      <trkpt lat="48.02336" lon="8.52605">
        <ele>706</ele>
        <time>2022-05-23T18:48:38Z</time>
      </trkpt>
      <trkpt lat="48.02331" lon="8.52617">
        <ele>706</ele>
        <time>2022-05-23T18:48:40Z</time>
      </trkpt>
      <trkpt lat="48.023" lon="8.5264">
        <ele>705</ele>
        <time>2022-05-23T18:48:46Z</time>
      </trkpt>
      <trkpt lat="48.02294" lon="8.52655">
        <ele>705</ele>
        <time>2022-05-23T18:48:48Z</time>
      </trkpt>
      <trkpt lat="48.02343" lon="8.52796">
        <ele>703</ele>
        <time>2022-05-23T18:49:07Z</time>
      </trkpt>
      <trkpt lat="48.02363" lon="8.52874">
        <ele>702</ele>
        <time>2022-05-23T18:49:17Z</time>
      </trkpt>
      <trkpt lat="48.02377" lon="8.52907">
        <ele>702</ele>
        <time>2022-05-23T18:49:22Z</time>
      </trkpt>
      <trkpt lat="48.02381" lon="8.52922">
        <ele>702</ele>
        <time>2022-05-23T18:49:24Z</time>
      </trkpt>
      <trkpt lat="48.02373" lon="8.52951">
        <ele>702</ele>
        <time>2022-05-23T18:49:27Z</time>
      </trkpt>
      <trkpt lat="48.02376" lon="8.52966">
        <ele>702</ele>
        <time>2022-05-23T18:49:29Z</time>
      </trkpt>
      <trkpt lat="48.02385" lon="8.52958">
        <ele>702</ele>
        <time>2022-05-23T18:49:31Z</time>
      </trkpt>
      <trkpt lat="48.02394" lon="8.52957">
        <ele>703</ele>
        <time>2022-05-23T18:49:33Z</time>
      </trkpt>
      <trkpt lat="48.02362" lon="8.5299">
        <ele>702</ele>
        <time>2022-05-23T18:49:40Z</time>
      </trkpt>
      <trkpt lat="48.02357" lon="8.53003">
        <ele>702</ele>
        <time>2022-05-23T18:49:42Z</time>
      </trkpt>
      <trkpt lat="48.02359" lon="8.53017">
        <ele>702</ele>
        <time>2022-05-23T18:49:43Z</time>
      </trkpt>
      <trkpt lat="48.0237" lon="8.53041">
        <ele>703</ele>
        <time>2022-05-23T18:49:47Z</time>
      </trkpt>
      <trkpt lat="48.02385" lon="8.53064">
        <ele>703</ele>
        <time>2022-05-23T18:49:50Z</time>
      </trkpt>
      <trkpt lat="48.02406" lon="8.53077">
        <ele>703</ele>
        <time>2022-05-23T18:49:55Z</time>
      </trkpt>
      <trkpt lat="48.02415" lon="8.53086">
        <ele>703</ele>
        <time>2022-05-23T18:49:56Z</time>
      </trkpt>
      <trkpt lat="48.02421" lon="8.53099">
        <ele>703</ele>
        <time>2022-05-23T18:49:58Z</time>
      </trkpt>
      <trkpt lat="48.02429" lon="8.53128">
        <ele>704</ele>
        <time>2022-05-23T18:50:02Z</time>
      </trkpt>
      <trkpt lat="48.02434" lon="8.53158">
        <ele>705</ele>
        <time>2022-05-23T18:50:06Z</time>
      </trkpt>
      <trkpt lat="48.02438" lon="8.53219">
        <ele>707</ele>
        <time>2022-05-23T18:50:13Z</time>
      </trkpt>
      <trkpt lat="48.02448" lon="8.53245">
        <ele>707</ele>
        <time>2022-05-23T18:50:17Z</time>
      </trkpt>
      <trkpt lat="48.0246" lon="8.53304">
        <ele>708</ele>
        <time>2022-05-23T18:50:24Z</time>
      </trkpt>
      <trkpt lat="48.02481" lon="8.5336">
        <ele>710</ele>
        <time>2022-05-23T18:50:32Z</time>
      </trkpt>
      <trkpt lat="48.02498" lon="8.53416">
        <ele>711</ele>
        <time>2022-05-23T18:50:39Z</time>
      </trkpt>
      <trkpt lat="48.02507" lon="8.53462">
        <ele>712</ele>
        <time>2022-05-23T18:50:45Z</time>
      </trkpt>
      <trkpt lat="48.02529" lon="8.53542">
        <ele>712</ele>
        <time>2022-05-23T18:50:55Z</time>
      </trkpt>
      <trkpt lat="48.02551" lon="8.53651">
        <ele>710</ele>
        <time>2022-05-23T18:51:08Z</time>
      </trkpt>
      <trkpt lat="48.02581" lon="8.53711">
        <ele>709</ele>
        <time>2022-05-23T18:51:17Z</time>
      </trkpt>
      <trkpt lat="48.02599" lon="8.53753">
        <ele>709</ele>
        <time>2022-05-23T18:51:23Z</time>
      </trkpt>
      <trkpt lat="48.02634" lon="8.53874">
        <ele>709</ele>
        <time>2022-05-23T18:51:39Z</time>
      </trkpt>
      <trkpt lat="48.02652" lon="8.53969">
        <ele>710</ele>
        <time>2022-05-23T18:51:51Z</time>
      </trkpt>
      <trkpt lat="48.02661" lon="8.54034">
        <ele>709</ele>
        <time>2022-05-23T18:51:59Z</time>
      </trkpt>
      <trkpt lat="48.02665" lon="8.54049">
        <ele>709</ele>
        <time>2022-05-23T18:52:01Z</time>
      </trkpt>
      <trkpt lat="48.02685" lon="8.54212">
        <ele>712</ele>
        <time>2022-05-23T18:52:20Z</time>
      </trkpt>
      <trkpt lat="48.02713" lon="8.5441">
        <ele>718</ele>
        <time>2022-05-23T18:52:44Z</time>
      </trkpt>
      <trkpt lat="48.02733" lon="8.54595">
        <ele>720</ele>
        <time>2022-05-23T18:53:07Z</time>
      </trkpt>
      <trkpt lat="48.02771" lon="8.54897">
        <ele>721</ele>
        <time>2022-05-23T18:53:43Z</time>
      </trkpt>
      <trkpt lat="48.02772" lon="8.54917">
        <ele>721</ele>
        <time>2022-05-23T18:53:46Z</time>
      </trkpt>
      <trkpt lat="48.02761" lon="8.54996">
        <ele>721</ele>
        <time>2022-05-23T18:53:55Z</time>
      </trkpt>
      <trkpt lat="48.02746" lon="8.55068">
        <ele>724</ele>
        <time>2022-05-23T18:54:04Z</time>
      </trkpt>
      <trkpt lat="48.02734" lon="8.55149">
        <ele>725</ele>
        <time>2022-05-23T18:54:14Z</time>
      </trkpt>
      <trkpt lat="48.02734" lon="8.55202">
        <ele>725</ele>
        <time>2022-05-23T18:54:20Z</time>
      </trkpt>
      <trkpt lat="48.02727" lon="8.55297">
        <ele>726</ele>
        <time>2022-05-23T18:54:32Z</time>
      </trkpt>
      <trkpt lat="48.02729" lon="8.55356">
        <ele>726</ele>
        <time>2022-05-23T18:54:39Z</time>
      </trkpt>
      <trkpt lat="48.02736" lon="8.55386">
        <ele>725</ele>
        <time>2022-05-23T18:54:43Z</time>
      </trkpt>
      <trkpt lat="48.02771" lon="8.55478">
        <ele>726</ele>
        <time>2022-05-23T18:54:55Z</time>
      </trkpt>
      <trkpt lat="48.0278" lon="8.55506">
        <ele>728</ele>
        <time>2022-05-23T18:54:59Z</time>
      </trkpt>
      <trkpt lat="48.02782" lon="8.5552">
        <ele>728</ele>
        <time>2022-05-23T18:55:01Z</time>
      </trkpt>
      <trkpt lat="48.02791" lon="8.55528">
        <ele>728</ele>
        <time>2022-05-23T18:55:02Z</time>
      </trkpt>
      <trkpt lat="48.02801" lon="8.55531">
        <ele>728</ele>
        <time>2022-05-23T18:55:04Z</time>
      </trkpt>
      <trkpt lat="48.02808" lon="8.55544">
        <ele>729</ele>
        <time>2022-05-23T18:55:06Z</time>
      </trkpt>
      <trkpt lat="48.02811" lon="8.55742">
        <ele>733</ele>
        <time>2022-05-23T18:55:30Z</time>
      </trkpt>
      <trkpt lat="48.02818" lon="8.55804">
        <ele>734</ele>
        <time>2022-05-23T18:55:37Z</time>
      </trkpt>
      <trkpt lat="48.02875" lon="8.55811">
        <ele>738</ele>
        <time>2022-05-23T18:55:47Z</time>
      </trkpt>
      <trkpt lat="48.02894" lon="8.55817">
        <ele>740</ele>
        <time>2022-05-23T18:55:51Z</time>
      </trkpt>
      <trkpt lat="48.029" lon="8.55828">
        <ele>741</ele>
        <time>2022-05-23T18:55:53Z</time>
      </trkpt>
      <trkpt lat="48.02908" lon="8.55886">
        <ele>743</ele>
        <time>2022-05-23T18:56:00Z</time>
      </trkpt>
      <trkpt lat="48.0292" lon="8.55944">
        <ele>746</ele>
        <time>2022-05-23T18:56:07Z</time>
      </trkpt>
      <trkpt lat="48.0294" lon="8.5608">
        <ele>750</ele>
        <time>2022-05-23T18:56:23Z</time>
      </trkpt>
      <trkpt lat="48.02954" lon="8.56148">
        <ele>748</ele>
        <time>2022-05-23T18:56:32Z</time>
      </trkpt>
      <trkpt lat="48.02961" lon="8.56254">
        <ele>747</ele>
        <time>2022-05-23T18:56:45Z</time>
      </trkpt>
      <trkpt lat="48.02975" lon="8.56295">
        <ele>750</ele>
        <time>2022-05-23T18:56:50Z</time>
      </trkpt>
      <trkpt lat="48.0298" lon="8.56338">
        <ele>751</ele>
        <time>2022-05-23T18:56:55Z</time>
      </trkpt>
      <trkpt lat="48.02985" lon="8.56352">
        <ele>752</ele>
        <time>2022-05-23T18:56:57Z</time>
      </trkpt>
      <trkpt lat="48.03009" lon="8.56465">
        <ele>759</ele>
        <time>2022-05-23T18:57:11Z</time>
      </trkpt>
      <trkpt lat="48.03011" lon="8.56526">
        <ele>764</ele>
        <time>2022-05-23T18:57:19Z</time>
      </trkpt>
      <trkpt lat="48.02991" lon="8.56621">
        <ele>768</ele>
        <time>2022-05-23T18:57:30Z</time>
      </trkpt>
      <trkpt lat="48.02982" lon="8.56694">
        <ele>773</ele>
        <time>2022-05-23T18:57:39Z</time>
      </trkpt>
      <trkpt lat="48.02995" lon="8.56749">
        <ele>776</ele>
        <time>2022-05-23T18:57:46Z</time>
      </trkpt>
      <trkpt lat="48.03007" lon="8.56775">
        <ele>777</ele>
        <time>2022-05-23T18:57:50Z</time>
      </trkpt>
      <trkpt lat="48.03008" lon="8.56788">
        <ele>777</ele>
        <time>2022-05-23T18:57:51Z</time>
      </trkpt>
      <trkpt lat="48.03019" lon="8.56828">
        <ele>778</ele>
        <time>2022-05-23T18:57:57Z</time>
      </trkpt>
      <trkpt lat="48.03021" lon="8.56859">
        <ele>778</ele>
        <time>2022-05-23T18:58:00Z</time>
      </trkpt>
      <trkpt lat="48.03018" lon="8.56873">
        <ele>778</ele>
        <time>2022-05-23T18:58:02Z</time>
      </trkpt>
      <trkpt lat="48.03007" lon="8.56882">
        <ele>778</ele>
        <time>2022-05-23T18:58:04Z</time>
      </trkpt>
      <trkpt lat="48.02974" lon="8.56886">
        <ele>778</ele>
        <time>2022-05-23T18:58:10Z</time>
      </trkpt>
      <trkpt lat="48.02962" lon="8.56885">
        <ele>777</ele>
        <time>2022-05-23T18:58:12Z</time>
      </trkpt>
      <trkpt lat="48.02925" lon="8.56892">
        <ele>777</ele>
        <time>2022-05-23T18:58:19Z</time>
      </trkpt>
      <trkpt lat="48.0289" lon="8.56892">
        <ele>776</ele>
        <time>2022-05-23T18:58:25Z</time>
      </trkpt>
      <trkpt lat="48.02862" lon="8.56895">
        <ele>776</ele>
        <time>2022-05-23T18:58:30Z</time>
      </trkpt>
      <trkpt lat="48.02828" lon="8.56902">
        <ele>776</ele>
        <time>2022-05-23T18:58:36Z</time>
      </trkpt>
      <trkpt lat="48.02777" lon="8.56921">
        <ele>774</ele>
        <time>2022-05-23T18:58:46Z</time>
      </trkpt>
      <trkpt lat="48.0275" lon="8.56926">
        <ele>773</ele>
        <time>2022-05-23T18:58:50Z</time>
      </trkpt>
      <trkpt lat="48.02638" lon="8.56934">
        <ele>768</ele>
        <time>2022-05-23T18:59:10Z</time>
      </trkpt>
      <trkpt lat="48.02611" lon="8.56948">
        <ele>767</ele>
        <time>2022-05-23T18:59:16Z</time>
      </trkpt>
      <trkpt lat="48.02599" lon="8.56961">
        <ele>766</ele>
        <time>2022-05-23T18:59:18Z</time>
      </trkpt>
      <trkpt lat="48.02591" lon="8.56979">
        <ele>765</ele>
        <time>2022-05-23T18:59:21Z</time>
      </trkpt>
      <trkpt lat="48.02577" lon="8.57048">
        <ele>762</ele>
        <time>2022-05-23T18:59:29Z</time>
      </trkpt>
      <trkpt lat="48.02563" lon="8.57149">
        <ele>760</ele>
        <time>2022-05-23T18:59:42Z</time>
      </trkpt>
      <trkpt lat="48.02551" lon="8.57199">
        <ele>759</ele>
        <time>2022-05-23T18:59:48Z</time>
      </trkpt>
      <trkpt lat="48.02539" lon="8.57268">
        <ele>757</ele>
        <time>2022-05-23T18:59:56Z</time>
      </trkpt>
      <trkpt lat="48.02534" lon="8.57284">
        <ele>756</ele>
        <time>2022-05-23T18:59:58Z</time>
      </trkpt>
      <trkpt lat="48.02548" lon="8.57308">
        <ele>755</ele>
        <time>2022-05-23T19:00:02Z</time>
      </trkpt>
      <trkpt lat="48.02535" lon="8.57373">
        <ele>754</ele>
        <time>2022-05-23T19:00:10Z</time>
      </trkpt>
      <trkpt lat="48.02526" lon="8.57433">
        <ele>754</ele>
        <time>2022-05-23T19:00:18Z</time>
      </trkpt>
      <trkpt lat="48.0251" lon="8.57589">
        <ele>752</ele>
        <time>2022-05-23T19:00:36Z</time>
      </trkpt>
      <trkpt lat="48.02481" lon="8.57925">
        <ele>747</ele>
        <time>2022-05-23T19:01:17Z</time>
      </trkpt>
      <trkpt lat="48.02475" lon="8.58031">
        <ele>746</ele>
        <time>2022-05-23T19:01:29Z</time>
      </trkpt>
      <trkpt lat="48.02467" lon="8.58098">
        <ele>744</ele>
        <time>2022-05-23T19:01:38Z</time>
      </trkpt>
      <trkpt lat="48.02454" lon="8.5814">
        <ele>742</ele>
        <time>2022-05-23T19:01:43Z</time>
      </trkpt>
      <trkpt lat="48.02425" lon="8.58194">
        <ele>742</ele>
        <time>2022-05-23T19:01:51Z</time>
      </trkpt>
      <trkpt lat="48.02401" lon="8.5826">
        <ele>745</ele>
        <time>2022-05-23T19:02:00Z</time>
      </trkpt>
      <trkpt lat="48.02394" lon="8.58298">
        <ele>746</ele>
        <time>2022-05-23T19:02:05Z</time>
      </trkpt>
      <trkpt lat="48.0239" lon="8.58356">
        <ele>748</ele>
        <time>2022-05-23T19:02:12Z</time>
      </trkpt>
      <trkpt lat="48.02391" lon="8.58435">
        <ele>751</ele>
        <time>2022-05-23T19:02:21Z</time>
      </trkpt>
      <trkpt lat="48.02395" lon="8.58462">
        <ele>750</ele>
        <time>2022-05-23T19:02:25Z</time>
      </trkpt>
      <trkpt lat="48.02398" lon="8.58588">
        <ele>746</ele>
        <time>2022-05-23T19:02:40Z</time>
      </trkpt>
      <trkpt lat="48.02407" lon="8.58679">
        <ele>742</ele>
        <time>2022-05-23T19:02:50Z</time>
      </trkpt>
      <trkpt lat="48.0241" lon="8.5877">
        <ele>736</ele>
        <time>2022-05-23T19:03:01Z</time>
      </trkpt>
      <trkpt lat="48.02435" lon="8.58942">
        <ele>733</ele>
        <time>2022-05-23T19:03:22Z</time>
      </trkpt>
      <trkpt lat="48.02461" lon="8.59074">
        <ele>732</ele>
        <time>2022-05-23T19:03:39Z</time>
      </trkpt>
      <trkpt lat="48.02454" lon="8.59086">
        <ele>732</ele>
        <time>2022-05-23T19:03:41Z</time>
      </trkpt>
      <trkpt lat="48.02456" lon="8.591">
        <ele>732</ele>
        <time>2022-05-23T19:03:42Z</time>
      </trkpt>
      <trkpt lat="48.02488" lon="8.59187">
        <ele>735</ele>
        <time>2022-05-23T19:03:54Z</time>
      </trkpt>
      <trkpt lat="48.02514" lon="8.59236">
        <ele>737</ele>
        <time>2022-05-23T19:04:01Z</time>
      </trkpt>
      <trkpt lat="48.02553" lon="8.59285">
        <ele>739</ele>
        <time>2022-05-23T19:04:11Z</time>
      </trkpt>
      <trkpt lat="48.02589" lon="8.59322">
        <ele>739</ele>
        <time>2022-05-23T19:04:18Z</time>
      </trkpt>
      <trkpt lat="48.02627" lon="8.59367">
        <ele>740</ele>
        <time>2022-05-23T19:04:27Z</time>
      </trkpt>
      <trkpt lat="48.02658" lon="8.5942">
        <ele>741</ele>
        <time>2022-05-23T19:04:35Z</time>
      </trkpt>
      <trkpt lat="48.02698" lon="8.59496">
        <ele>741</ele>
        <time>2022-05-23T19:04:47Z</time>
      </trkpt>
      <trkpt lat="48.02704" lon="8.5951">
        <ele>741</ele>
        <time>2022-05-23T19:04:49Z</time>
      </trkpt>
      <trkpt lat="48.02706" lon="8.59526">
        <ele>741</ele>
        <time>2022-05-23T19:04:51Z</time>
      </trkpt>
      <trkpt lat="48.02694" lon="8.59552">
        <ele>740</ele>
        <time>2022-05-23T19:04:55Z</time>
      </trkpt>
      <trkpt lat="48.02677" lon="8.59577">
        <ele>739</ele>
        <time>2022-05-23T19:04:59Z</time>
      </trkpt>
      <trkpt lat="48.02595" lon="8.59665">
        <ele>736</ele>
        <time>2022-05-23T19:05:17Z</time>
      </trkpt>
      <trkpt lat="48.02585" lon="8.59681">
        <ele>735</ele>
        <time>2022-05-23T19:05:19Z</time>
      </trkpt>
      <trkpt lat="48.02562" lon="8.59761">
        <ele>735</ele>
        <time>2022-05-23T19:05:30Z</time>
      </trkpt>
      <trkpt lat="48.02596" lon="8.59875">
        <ele>737</ele>
        <time>2022-05-23T19:05:45Z</time>
      </trkpt>
      <trkpt lat="48.02597" lon="8.59891">
        <ele>737</ele>
        <time>2022-05-23T19:05:46Z</time>
      </trkpt>
      <trkpt lat="48.02593" lon="8.59936">
        <ele>739</ele>
        <time>2022-05-23T19:05:52Z</time>
      </trkpt>
      <trkpt lat="48.02587" lon="8.60081">
        <ele>747</ele>
        <time>2022-05-23T19:06:09Z</time>
      </trkpt>
      <trkpt lat="48.02588" lon="8.60113">
        <ele>747</ele>
        <time>2022-05-23T19:06:13Z</time>
      </trkpt>
      <trkpt lat="48.02586" lon="8.60127">
        <ele>747</ele>
        <time>2022-05-23T19:06:15Z</time>
      </trkpt>
      <trkpt lat="48.02588" lon="8.60143">
        <ele>746</ele>
        <time>2022-05-23T19:06:17Z</time>
      </trkpt>
      <trkpt lat="48.02593" lon="8.60157">
        <ele>746</ele>
        <time>2022-05-23T19:06:18Z</time>
      </trkpt>
      <trkpt lat="48.02608" lon="8.6018">
        <ele>746</ele>
        <time>2022-05-23T19:06:22Z</time>
      </trkpt>
      <trkpt lat="48.02638" lon="8.60195">
        <ele>747</ele>
        <time>2022-05-23T19:06:28Z</time>
      </trkpt>
      <trkpt lat="48.02647" lon="8.60196">
        <ele>747</ele>
        <time>2022-05-23T19:06:30Z</time>
      </trkpt>
      <trkpt lat="48.0268" lon="8.6021">
        <ele>747</ele>
        <time>2022-05-23T19:06:36Z</time>
      </trkpt>
      <trkpt lat="48.0269" lon="8.60219">
        <ele>747</ele>
        <time>2022-05-23T19:06:38Z</time>
      </trkpt>
      <trkpt lat="48.02698" lon="8.60232">
        <ele>747</ele>
        <time>2022-05-23T19:06:40Z</time>
      </trkpt>
      <trkpt lat="48.02714" lon="8.60284">
        <ele>746</ele>
        <time>2022-05-23T19:06:47Z</time>
      </trkpt>
      <trkpt lat="48.02719" lon="8.60315">
        <ele>745</ele>
        <time>2022-05-23T19:06:50Z</time>
      </trkpt>
      <trkpt lat="48.02759" lon="8.60482">
        <ele>741</ele>
        <time>2022-05-23T19:07:12Z</time>
      </trkpt>
      <trkpt lat="48.02769" lon="8.60492">
        <ele>741</ele>
        <time>2022-05-23T19:07:14Z</time>
      </trkpt>
      <trkpt lat="48.02809" lon="8.6047">
        <ele>742</ele>
        <time>2022-05-23T19:07:21Z</time>
      </trkpt>
      <trkpt lat="48.028" lon="8.60464">
        <ele>742</ele>
        <time>2022-05-23T19:07:23Z</time>
      </trkpt>
      <trkpt lat="48.02779" lon="8.60481">
        <ele>741</ele>
        <time>2022-05-23T19:07:27Z</time>
      </trkpt>
      <trkpt lat="48.02759" lon="8.60488">
        <ele>741</ele>
        <time>2022-05-23T19:07:31Z</time>
      </trkpt>
      <trkpt lat="48.02756" lon="8.60506">
        <ele>740</ele>
        <time>2022-05-23T19:07:33Z</time>
      </trkpt>
      <trkpt lat="48.02763" lon="8.6052">
        <ele>740</ele>
        <time>2022-05-23T19:07:35Z</time>
      </trkpt>
      <trkpt lat="48.02792" lon="8.60609">
        <ele>739</ele>
        <time>2022-05-23T19:07:47Z</time>
      </trkpt>
      <trkpt lat="48.02822" lon="8.60763">
        <ele>741</ele>
        <time>2022-05-23T19:08:06Z</time>
      </trkpt>
      <trkpt lat="48.02827" lon="8.60775">
        <ele>741</ele>
        <time>2022-05-23T19:08:08Z</time>
      </trkpt>
      <trkpt lat="48.02826" lon="8.6079">
        <ele>741</ele>
        <time>2022-05-23T19:08:10Z</time>
      </trkpt>
      <trkpt lat="48.02837" lon="8.60818">
        <ele>742</ele>
        <time>2022-05-23T19:08:13Z</time>
      </trkpt>
      <trkpt lat="48.0284" lon="8.60834">
        <ele>743</ele>
        <time>2022-05-23T19:08:15Z</time>
      </trkpt>
      <trkpt lat="48.02853" lon="8.60874">
        <ele>743</ele>
        <time>2022-05-23T19:08:21Z</time>
      </trkpt>
      <trkpt lat="48.02868" lon="8.60912">
        <ele>743</ele>
        <time>2022-05-23T19:08:26Z</time>
      </trkpt>
      <trkpt lat="48.02872" lon="8.60956">
        <ele>744</ele>
        <time>2022-05-23T19:08:31Z</time>
      </trkpt>
      <trkpt lat="48.02882" lon="8.60998">
        <ele>745</ele>
        <time>2022-05-23T19:08:37Z</time>
      </trkpt>
      <trkpt lat="48.02885" lon="8.61026">
        <ele>746</ele>
        <time>2022-05-23T19:08:40Z</time>
      </trkpt>
      <trkpt lat="48.02893" lon="8.61057">
        <ele>746</ele>
        <time>2022-05-23T19:08:44Z</time>
      </trkpt>
      <trkpt lat="48.02911" lon="8.6122">
        <ele>747</ele>
        <time>2022-05-23T19:09:04Z</time>
      </trkpt>
      <trkpt lat="48.02915" lon="8.61235">
        <ele>748</ele>
        <time>2022-05-23T19:09:05Z</time>
      </trkpt>
      <trkpt lat="48.02922" lon="8.61244">
        <ele>748</ele>
        <time>2022-05-23T19:09:07Z</time>
      </trkpt>
      <trkpt lat="48.0292" lon="8.61295">
        <ele>747</ele>
        <time>2022-05-23T19:09:13Z</time>
      </trkpt>
      <trkpt lat="48.02902" lon="8.61339">
        <ele>747</ele>
        <time>2022-05-23T19:09:19Z</time>
      </trkpt>
      <trkpt lat="48.02888" lon="8.61398">
        <ele>747</ele>
        <time>2022-05-23T19:09:27Z</time>
      </trkpt>
      <trkpt lat="48.02884" lon="8.61431">
        <ele>747</ele>
        <time>2022-05-23T19:09:31Z</time>
      </trkpt>
      <trkpt lat="48.0286" lon="8.61532">
        <ele>750</ele>
        <time>2022-05-23T19:09:43Z</time>
      </trkpt>
      <trkpt lat="48.02849" lon="8.61614">
        <ele>751</ele>
        <time>2022-05-23T19:09:53Z</time>
      </trkpt>
      <trkpt lat="48.02839" lon="8.61627">
        <ele>750</ele>
        <time>2022-05-23T19:09:56Z</time>
      </trkpt>
      <trkpt lat="48.02807" lon="8.61766">
        <ele>752</ele>
        <time>2022-05-23T19:10:13Z</time>
      </trkpt>
      <trkpt lat="48.02786" lon="8.61844">
        <ele>753</ele>
        <time>2022-05-23T19:10:23Z</time>
      </trkpt>
      <trkpt lat="48.02776" lon="8.6187">
        <ele>753</ele>
        <time>2022-05-23T19:10:27Z</time>
      </trkpt>
      <trkpt lat="48.02761" lon="8.61928">
        <ele>755</ele>
        <time>2022-05-23T19:10:34Z</time>
      </trkpt>
      <trkpt lat="48.02753" lon="8.61938">
        <ele>755</ele>
        <time>2022-05-23T19:10:36Z</time>
      </trkpt>
      <trkpt lat="48.02744" lon="8.61938">
        <ele>756</ele>
        <time>2022-05-23T19:10:38Z</time>
      </trkpt>
      <trkpt lat="48.02727" lon="8.6195">
        <ele>757</ele>
        <time>2022-05-23T19:10:41Z</time>
      </trkpt>
      <trkpt lat="48.02744" lon="8.61968">
        <ele>756</ele>
        <time>2022-05-23T19:10:45Z</time>
      </trkpt>
      <trkpt lat="48.02747" lon="8.61983">
        <ele>756</ele>
        <time>2022-05-23T19:10:47Z</time>
      </trkpt>
      <trkpt lat="48.02719" lon="8.62108">
        <ele>759</ele>
        <time>2022-05-23T19:11:02Z</time>
      </trkpt>
      <trkpt lat="48.0271" lon="8.62162">
        <ele>760</ele>
        <time>2022-05-23T19:11:09Z</time>
      </trkpt>
      <trkpt lat="48.02708" lon="8.62195">
        <ele>760</ele>
        <time>2022-05-23T19:11:13Z</time>
      </trkpt>
      <trkpt lat="48.02708" lon="8.62395">
        <ele>760</ele>
        <time>2022-05-23T19:11:37Z</time>
      </trkpt>
      <trkpt lat="48.02719" lon="8.62576">
        <ele>767</ele>
        <time>2022-05-23T19:11:58Z</time>
      </trkpt>
      <trkpt lat="48.02722" lon="8.62766">
        <ele>769</ele>
        <time>2022-05-23T19:12:21Z</time>
      </trkpt>
      <trkpt lat="48.02216" lon="8.62237">
        <ele>812</ele>
        <time>2022-05-23T19:14:11Z</time>
      </trkpt>
      <trkpt lat="48.022" lon="8.6226">
        <ele>811</ele>
        <time>2022-05-23T19:14:15Z</time>
      </trkpt>
      <trkpt lat="48.02204" lon="8.62273">
        <ele>812</ele>
        <time>2022-05-23T19:14:16Z</time>
      </trkpt>
      <trkpt lat="48.02229" lon="8.62304">
        <ele>815</ele>
        <time>2022-05-23T19:14:22Z</time>
      </trkpt>
      <trkpt lat="48.02245" lon="8.62354">
        <ele>817</ele>
        <time>2022-05-23T19:14:29Z</time>
      </trkpt>
      <trkpt lat="48.02251" lon="8.62389">
        <ele>817</ele>
        <time>2022-05-23T19:14:33Z</time>
      </trkpt>
      <trkpt lat="48.02259" lon="8.62555">
        <ele>814</ele>
        <time>2022-05-23T19:14:53Z</time>
      </trkpt>
      <trkpt lat="48.02268" lon="8.62641">
        <ele>810</ele>
        <time>2022-05-23T19:15:03Z</time>
      </trkpt>
      <trkpt lat="48.02282" lon="8.62703">
        <ele>806</ele>
        <time>2022-05-23T19:15:11Z</time>
      </trkpt>
      <trkpt lat="48.02314" lon="8.62805">
        <ele>801</ele>
        <time>2022-05-23T19:15:24Z</time>
      </trkpt>
      <trkpt lat="48.02335" lon="8.62856">
        <ele>800</ele>
        <time>2022-05-23T19:15:32Z</time>
      </trkpt>
      <trkpt lat="48.02358" lon="8.62938">
        <ele>799</ele>
        <time>2022-05-23T19:15:42Z</time>
      </trkpt>
      <trkpt lat="48.02362" lon="8.62965">
        <ele>800</ele>
        <time>2022-05-23T19:15:45Z</time>
      </trkpt>
      <trkpt lat="48.02363" lon="8.63008">
        <ele>802</ele>
        <time>2022-05-23T19:15:51Z</time>
      </trkpt>
      <trkpt lat="48.0236" lon="8.6304">
        <ele>802</ele>
        <time>2022-05-23T19:15:54Z</time>
      </trkpt>
      <trkpt lat="48.02368" lon="8.63086">
        <ele>801</ele>
        <time>2022-05-23T19:16:00Z</time>
      </trkpt>
      <trkpt lat="48.02368" lon="8.63105">
        <ele>800</ele>
        <time>2022-05-23T19:16:02Z</time>
      </trkpt>
      <trkpt lat="48.02374" lon="8.6312">
        <ele>800</ele>
        <time>2022-05-23T19:16:04Z</time>
      </trkpt>
      <trkpt lat="48.02391" lon="8.63143">
        <ele>800</ele>
        <time>2022-05-23T19:16:09Z</time>
      </trkpt>
      <trkpt lat="48.0242" lon="8.6321">
        <ele>797</ele>
        <time>2022-05-23T19:16:18Z</time>
      </trkpt>
      <trkpt lat="48.02428" lon="8.63221">
        <ele>796</ele>
        <time>2022-05-23T19:16:20Z</time>
      </trkpt>
      <trkpt lat="48.02437" lon="8.63227">
        <ele>795</ele>
        <time>2022-05-23T19:16:22Z</time>
      </trkpt>
      <trkpt lat="48.02457" lon="8.6323">
        <ele>795</ele>
        <time>2022-05-23T19:16:25Z</time>
      </trkpt>
      <trkpt lat="48.02481" lon="8.63226">
        <ele>795</ele>
        <time>2022-05-23T19:16:30Z</time>
      </trkpt>
      <trkpt lat="48.02511" lon="8.63206">
        <ele>796</ele>
        <time>2022-05-23T19:16:35Z</time>
      </trkpt>
      <trkpt lat="48.02558" lon="8.63183">
        <ele>793</ele>
        <time>2022-05-23T19:16:44Z</time>
      </trkpt>
      <trkpt lat="48.02581" lon="8.63174">
        <ele>791</ele>
        <time>2022-05-23T19:16:48Z</time>
      </trkpt>
      <trkpt lat="48.02593" lon="8.63173">
        <ele>790</ele>
        <time>2022-05-23T19:16:51Z</time>
      </trkpt>
      <trkpt lat="48.02603" lon="8.63161">
        <ele>788</ele>
        <time>2022-05-23T19:16:53Z</time>
      </trkpt>
      <trkpt lat="48.0263" lon="8.6315">
        <ele>784</ele>
        <time>2022-05-23T19:16:58Z</time>
      </trkpt>
      <trkpt lat="48.02639" lon="8.63137">
        <ele>782</ele>
        <time>2022-05-23T19:17:00Z</time>
      </trkpt>
      <trkpt lat="48.02644" lon="8.6312">
        <ele>781</ele>
        <time>2022-05-23T19:17:02Z</time>
      </trkpt>
      <trkpt lat="48.02668" lon="8.63083">
        <ele>775</ele>
        <time>2022-05-23T19:17:08Z</time>
      </trkpt>
      <trkpt lat="48.02686" lon="8.63066">
        <ele>774</ele>
        <time>2022-05-23T19:17:12Z</time>
      </trkpt>
      <trkpt lat="48.02696" lon="8.63062">
        <ele>774</ele>
        <time>2022-05-23T19:17:14Z</time>
      </trkpt>
      <trkpt lat="48.02705" lon="8.63062">
        <ele>774</ele>
        <time>2022-05-23T19:17:16Z</time>
      </trkpt>
      <trkpt lat="48.02712" lon="8.6307">
        <ele>774</ele>
        <time>2022-05-23T19:17:17Z</time>
      </trkpt>
      <trkpt lat="48.02721" lon="8.63147">
        <ele>776</ele>
        <time>2022-05-23T19:17:27Z</time>
      </trkpt>
      <trkpt lat="48.0274" lon="8.63236">
        <ele>778</ele>
        <time>2022-05-23T19:17:38Z</time>
      </trkpt>
      <trkpt lat="48.02762" lon="8.6331">
        <ele>778</ele>
        <time>2022-05-23T19:17:47Z</time>
      </trkpt>
      <trkpt lat="48.02793" lon="8.63439">
        <ele>776</ele>
        <time>2022-05-23T19:18:04Z</time>
      </trkpt>
      <trkpt lat="48.02824" lon="8.6354">
        <ele>776</ele>
        <time>2022-05-23T19:18:17Z</time>
      </trkpt>
      <trkpt lat="48.02878" lon="8.63734">
        <ele>775</ele>
        <time>2022-05-23T19:18:42Z</time>
      </trkpt>
      <trkpt lat="48.02898" lon="8.63816">
        <ele>777</ele>
        <time>2022-05-23T19:18:52Z</time>
      </trkpt>
      <trkpt lat="48.02908" lon="8.63844">
        <ele>777</ele>
        <time>2022-05-23T19:18:56Z</time>
      </trkpt>
      <trkpt lat="48.02913" lon="8.63874">
        <ele>776</ele>
        <time>2022-05-23T19:19:00Z</time>
      </trkpt>
      <trkpt lat="48.02926" lon="8.63915">
        <ele>776</ele>
        <time>2022-05-23T19:19:05Z</time>
      </trkpt>
      <trkpt lat="48.02942" lon="8.63988">
        <ele>776</ele>
        <time>2022-05-23T19:19:14Z</time>
      </trkpt>
      <trkpt lat="48.02945" lon="8.64019">
        <ele>775</ele>
        <time>2022-05-23T19:19:18Z</time>
      </trkpt>
      <trkpt lat="48.02945" lon="8.64081">
        <ele>774</ele>
        <time>2022-05-23T19:19:25Z</time>
      </trkpt>
      <trkpt lat="48.02932" lon="8.6431">
        <ele>771</ele>
        <time>2022-05-23T19:19:53Z</time>
      </trkpt>
      <trkpt lat="48.02923" lon="8.64413">
        <ele>771</ele>
        <time>2022-05-23T19:20:05Z</time>
      </trkpt>
      <trkpt lat="48.02907" lon="8.64525">
        <ele>769</ele>
        <time>2022-05-23T19:20:19Z</time>
      </trkpt>
      <trkpt lat="48.02896" lon="8.64572">
        <ele>769</ele>
        <time>2022-05-23T19:20:25Z</time>
      </trkpt>
      <trkpt lat="48.02881" lon="8.64615">
        <ele>770</ele>
        <time>2022-05-23T19:20:30Z</time>
      </trkpt>
      <trkpt lat="48.02839" lon="8.64702">
        <ele>771</ele>
        <time>2022-05-23T19:20:43Z</time>
      </trkpt>
      <trkpt lat="48.02819" lon="8.64738">
        <ele>772</ele>
        <time>2022-05-23T19:20:49Z</time>
      </trkpt>
      <trkpt lat="48.02773" lon="8.64806">
        <ele>769</ele>
        <time>2022-05-23T19:21:00Z</time>
      </trkpt>
      <trkpt lat="48.02768" lon="8.64822">
        <ele>768</ele>
        <time>2022-05-23T19:21:02Z</time>
      </trkpt>
      <trkpt lat="48.02769" lon="8.64839">
        <ele>769</ele>
        <time>2022-05-23T19:21:04Z</time>
      </trkpt>
      <trkpt lat="48.02781" lon="8.64866">
        <ele>770</ele>
        <time>2022-05-23T19:21:08Z</time>
      </trkpt>
      <trkpt lat="48.02792" lon="8.64906">
        <ele>771</ele>
        <time>2022-05-23T19:21:13Z</time>
      </trkpt>
      <trkpt lat="48.02828" lon="8.65063">
        <ele>774</ele>
        <time>2022-05-23T19:21:33Z</time>
      </trkpt>
      <trkpt lat="48.02825" lon="8.6508">
        <ele>773</ele>
        <time>2022-05-23T19:21:35Z</time>
      </trkpt>
      <trkpt lat="48.02815" lon="8.65084">
        <ele>773</ele>
        <time>2022-05-23T19:21:37Z</time>
      </trkpt>
      <trkpt lat="48.02806" lon="8.65094">
        <ele>773</ele>
        <time>2022-05-23T19:21:39Z</time>
      </trkpt>
      <trkpt lat="48.02775" lon="8.65113">
        <ele>772</ele>
        <time>2022-05-23T19:21:45Z</time>
      </trkpt>
      <trkpt lat="48.02646" lon="8.65179">
        <ele>771</ele>
        <time>2022-05-23T19:22:09Z</time>
      </trkpt>
      <trkpt lat="48.02582" lon="8.65217">
        <ele>770</ele>
        <time>2022-05-23T19:22:21Z</time>
      </trkpt>
      <trkpt lat="48.02553" lon="8.65228">
        <ele>769</ele>
        <time>2022-05-23T19:22:27Z</time>
      </trkpt>
      <trkpt lat="48.0248" lon="8.65263">
        <ele>768</ele>
        <time>2022-05-23T19:22:40Z</time>
      </trkpt>
      <trkpt lat="48.02291" lon="8.65365">
        <ele>770</ele>
        <time>2022-05-23T19:23:16Z</time>
      </trkpt>
      <trkpt lat="48.02272" lon="8.65381">
        <ele>771</ele>
        <time>2022-05-23T19:23:20Z</time>
      </trkpt>
      <trkpt lat="48.02249" lon="8.65409">
        <ele>773</ele>
        <time>2022-05-23T19:23:25Z</time>
      </trkpt>
      <trkpt lat="48.02195" lon="8.65456">
        <ele>773</ele>
        <time>2022-05-23T19:23:36Z</time>
      </trkpt>
      <trkpt lat="48.02167" lon="8.65479">
        <ele>773</ele>
        <time>2022-05-23T19:23:42Z</time>
      </trkpt>
      <trkpt lat="48.02108" lon="8.65517">
        <ele>771</ele>
        <time>2022-05-23T19:23:54Z</time>
      </trkpt>
      <trkpt lat="48.02091" lon="8.65532">
        <ele>771</ele>
        <time>2022-05-23T19:23:57Z</time>
      </trkpt>
      <trkpt lat="48.02059" lon="8.65565">
        <ele>772</ele>
        <time>2022-05-23T19:24:04Z</time>
      </trkpt>
      <trkpt lat="48.02009" lon="8.65628">
        <ele>774</ele>
        <time>2022-05-23T19:24:16Z</time>
      </trkpt>
      <trkpt lat="48.01971" lon="8.65691">
        <ele>773</ele>
        <time>2022-05-23T19:24:26Z</time>
      </trkpt>
      <trkpt lat="48.01936" lon="8.65764">
        <ele>770</ele>
        <time>2022-05-23T19:24:36Z</time>
      </trkpt>
      <trkpt lat="48.01911" lon="8.6585">
        <ele>770</ele>
        <time>2022-05-23T19:24:48Z</time>
      </trkpt>
      <trkpt lat="48.019" lon="8.65907">
        <ele>772</ele>
        <time>2022-05-23T19:24:55Z</time>
      </trkpt>
      <trkpt lat="48.01855" lon="8.65958">
        <ele>773</ele>
        <time>2022-05-23T19:25:05Z</time>
      </trkpt>
      <trkpt lat="48.01824" lon="8.66001">
        <ele>772</ele>
        <time>2022-05-23T19:25:12Z</time>
      </trkpt>
      <trkpt lat="48.01781" lon="8.66053">
        <ele>771</ele>
        <time>2022-05-23T19:25:22Z</time>
      </trkpt>
      <trkpt lat="48.01751" lon="8.66075">
        <ele>768</ele>
        <time>2022-05-23T19:25:28Z</time>
      </trkpt>
      <trkpt lat="48.01723" lon="8.66087">
        <ele>767</ele>
        <time>2022-05-23T19:25:33Z</time>
      </trkpt>
      <trkpt lat="48.01649" lon="8.66102">
        <ele>765</ele>
        <time>2022-05-23T19:25:46Z</time>
      </trkpt>
      <trkpt lat="48.01622" lon="8.6611">
        <ele>762</ele>
        <time>2022-05-23T19:25:51Z</time>
      </trkpt>
      <trkpt lat="48.01587" lon="8.66126">
        <ele>759</ele>
        <time>2022-05-23T19:25:58Z</time>
      </trkpt>
      <trkpt lat="48.01517" lon="8.66164">
        <ele>758</ele>
        <time>2022-05-23T19:26:11Z</time>
      </trkpt>
      <trkpt lat="48.015" lon="8.66175">
        <ele>758</ele>
        <time>2022-05-23T19:26:14Z</time>
      </trkpt>
      <trkpt lat="48.01485" lon="8.66191">
        <ele>757</ele>
        <time>2022-05-23T19:26:18Z</time>
      </trkpt>
      <trkpt lat="48.01457" lon="8.66249">
        <ele>755</ele>
        <time>2022-05-23T19:26:26Z</time>
      </trkpt>
      <trkpt lat="48.01402" lon="8.66379">
        <ele>753</ele>
        <time>2022-05-23T19:26:45Z</time>
      </trkpt>
      <trkpt lat="48.01344" lon="8.66493">
        <ele>750</ele>
        <time>2022-05-23T19:27:02Z</time>
      </trkpt>
      <trkpt lat="48.01327" lon="8.66534">
        <ele>749</ele>
        <time>2022-05-23T19:27:07Z</time>
      </trkpt>
      <trkpt lat="48.01307" lon="8.66573">
        <ele>748</ele>
        <time>2022-05-23T19:27:13Z</time>
      </trkpt>
      <trkpt lat="48.01297" lon="8.66587">
        <ele>748</ele>
        <time>2022-05-23T19:27:16Z</time>
      </trkpt>
      <trkpt lat="48.01287" lon="8.66596">
        <ele>748</ele>
        <time>2022-05-23T19:27:18Z</time>
      </trkpt>
      <trkpt lat="48.01267" lon="8.66593">
        <ele>746</ele>
        <time>2022-05-23T19:27:21Z</time>
      </trkpt>
      <trkpt lat="48.01258" lon="8.66604">
        <ele>746</ele>
        <time>2022-05-23T19:27:23Z</time>
      </trkpt>
      <trkpt lat="48.01251" lon="8.66669">
        <ele>746</ele>
        <time>2022-05-23T19:27:31Z</time>
      </trkpt>
      <trkpt lat="48.01253" lon="8.66688">
        <ele>746</ele>
        <time>2022-05-23T19:27:33Z</time>
      </trkpt>
      <trkpt lat="48.0127" lon="8.66759">
        <ele>749</ele>
        <time>2022-05-23T19:27:42Z</time>
      </trkpt>
      <trkpt lat="48.01282" lon="8.66797">
        <ele>752</ele>
        <time>2022-05-23T19:27:47Z</time>
      </trkpt>
      <trkpt lat="48.01293" lon="8.66854">
        <ele>755</ele>
        <time>2022-05-23T19:27:54Z</time>
      </trkpt>
      <trkpt lat="48.0131" lon="8.66909">
        <ele>758</ele>
        <time>2022-05-23T19:28:02Z</time>
      </trkpt>
      <trkpt lat="48.01318" lon="8.66952">
        <ele>761</ele>
        <time>2022-05-23T19:28:07Z</time>
      </trkpt>
      <trkpt lat="48.01337" lon="8.67018">
        <ele>765</ele>
        <time>2022-05-23T19:28:16Z</time>
      </trkpt>
      <trkpt lat="48.01342" lon="8.67031">
        <ele>766</ele>
        <time>2022-05-23T19:28:17Z</time>
      </trkpt>
      <trkpt lat="48.0135" lon="8.67039">
        <ele>767</ele>
        <time>2022-05-23T19:28:19Z</time>
      </trkpt>
      <trkpt lat="48.01371" lon="8.67136">
        <ele>770</ele>
        <time>2022-05-23T19:28:31Z</time>
      </trkpt>
      <trkpt lat="48.01376" lon="8.67148">
        <ele>771</ele>
        <time>2022-05-23T19:28:33Z</time>
      </trkpt>
      <trkpt lat="48.0141" lon="8.67205">
        <ele>775</ele>
        <time>2022-05-23T19:28:42Z</time>
      </trkpt>
      <trkpt lat="48.0143" lon="8.67252">
        <ele>778</ele>
        <time>2022-05-23T19:28:49Z</time>
      </trkpt>
      <trkpt lat="48.01435" lon="8.67281">
        <ele>780</ele>
        <time>2022-05-23T19:28:52Z</time>
      </trkpt>
      <trkpt lat="48.01432" lon="8.67351">
        <ele>783</ele>
        <time>2022-05-23T19:29:00Z</time>
      </trkpt>
      <trkpt lat="48.01428" lon="8.6738">
        <ele>785</ele>
        <time>2022-05-23T19:29:04Z</time>
      </trkpt>
      <trkpt lat="48.01395" lon="8.67476">
        <ele>789</ele>
        <time>2022-05-23T19:29:17Z</time>
      </trkpt>
      <trkpt lat="48.01375" lon="8.67542">
        <ele>790</ele>
        <time>2022-05-23T19:29:25Z</time>
      </trkpt>
      <trkpt lat="48.01363" lon="8.67598">
        <ele>790</ele>
        <time>2022-05-23T19:29:32Z</time>
      </trkpt>
      <trkpt lat="48.01296" lon="8.6802">
        <ele>780</ele>
        <time>2022-05-23T19:30:24Z</time>
      </trkpt>
      <trkpt lat="48.01295" lon="8.68041">
        <ele>780</ele>
        <time>2022-05-23T19:30:27Z</time>
      </trkpt>
      <trkpt lat="48.013" lon="8.68164">
        <ele>782</ele>
        <time>2022-05-23T19:30:41Z</time>
      </trkpt>
      <trkpt lat="48.01308" lon="8.68222">
        <ele>783</ele>
        <time>2022-05-23T19:30:48Z</time>
      </trkpt>
      <trkpt lat="48.01318" lon="8.68263">
        <ele>784</ele>
        <time>2022-05-23T19:30:54Z</time>
      </trkpt>
      <trkpt lat="48.01328" lon="8.68345">
        <ele>786</ele>
        <time>2022-05-23T19:31:03Z</time>
      </trkpt>
      <trkpt lat="48.0134" lon="8.68408">
        <ele>787</ele>
        <time>2022-05-23T19:31:11Z</time>
      </trkpt>
      <trkpt lat="48.01355" lon="8.68511">
        <ele>791</ele>
        <time>2022-05-23T19:31:24Z</time>
      </trkpt>
      <trkpt lat="48.01359" lon="8.68525">
        <ele>793</ele>
        <time>2022-05-23T19:31:26Z</time>
      </trkpt>
      <trkpt lat="48.0136" lon="8.68555">
        <ele>795</ele>
        <time>2022-05-23T19:31:29Z</time>
      </trkpt>
      <trkpt lat="48.01366" lon="8.68581">
        <ele>797</ele>
        <time>2022-05-23T19:31:32Z</time>
      </trkpt>
      <trkpt lat="48.01365" lon="8.68596">
        <ele>798</ele>
        <time>2022-05-23T19:31:34Z</time>
      </trkpt>
      <trkpt lat="48.01369" lon="8.68639">
        <ele>801</ele>
        <time>2022-05-23T19:31:39Z</time>
      </trkpt>
      <trkpt lat="48.01369" lon="8.68668">
        <ele>803</ele>
        <time>2022-05-23T19:31:43Z</time>
      </trkpt>
      <trkpt lat="48.01363" lon="8.68711">
        <ele>804</ele>
        <time>2022-05-23T19:31:48Z</time>
      </trkpt>
      <trkpt lat="48.01335" lon="8.68803">
        <ele>812</ele>
        <time>2022-05-23T19:32:00Z</time>
      </trkpt>
      <trkpt lat="48.01338" lon="8.68818">
        <ele>814</ele>
        <time>2022-05-23T19:32:02Z</time>
      </trkpt>
      <trkpt lat="48.01379" lon="8.68866">
        <ele>817</ele>
        <time>2022-05-23T19:32:11Z</time>
      </trkpt>
      <trkpt lat="48.01392" lon="8.68888">
        <ele>819</ele>
        <time>2022-05-23T19:32:15Z</time>
      </trkpt>
      <trkpt lat="48.01411" lon="8.68906">
        <ele>819</ele>
        <time>2022-05-23T19:32:19Z</time>
      </trkpt>
      <trkpt lat="48.0143" lon="8.68944">
        <ele>823</ele>
        <time>2022-05-23T19:32:24Z</time>
      </trkpt>
      <trkpt lat="48.0144" lon="8.68971">
        <ele>826</ele>
        <time>2022-05-23T19:32:28Z</time>
      </trkpt>
      <trkpt lat="48.01445" lon="8.69017">
        <ele>832</ele>
        <time>2022-05-23T19:32:34Z</time>
      </trkpt>
      <trkpt lat="48.01456" lon="8.69057">
        <ele>834</ele>
        <time>2022-05-23T19:32:39Z</time>
      </trkpt>
      <trkpt lat="48.01462" lon="8.69101">
        <ele>836</ele>
        <time>2022-05-23T19:32:44Z</time>
      </trkpt>
      <trkpt lat="48.01461" lon="8.69131">
        <ele>837</ele>
        <time>2022-05-23T19:32:48Z</time>
      </trkpt>
      <trkpt lat="48.01458" lon="8.69145">
        <ele>838</ele>
        <time>2022-05-23T19:32:49Z</time>
      </trkpt>
      <trkpt lat="48.0146" lon="8.69159">
        <ele>838</ele>
        <time>2022-05-23T19:32:51Z</time>
      </trkpt>
      <trkpt lat="48.01458" lon="8.69191">
        <ele>840</ele>
        <time>2022-05-23T19:32:55Z</time>
      </trkpt>
      <trkpt lat="48.01461" lon="8.69205">
        <ele>841</ele>
        <time>2022-05-23T19:32:57Z</time>
      </trkpt>
      <trkpt lat="48.01462" lon="8.69252">
        <ele>843</ele>
        <time>2022-05-23T19:33:02Z</time>
      </trkpt>
      <trkpt lat="48.01469" lon="8.69282">
        <ele>842</ele>
        <time>2022-05-23T19:33:06Z</time>
      </trkpt>
      <trkpt lat="48.01469" lon="8.69314">
        <ele>843</ele>
        <time>2022-05-23T19:33:10Z</time>
      </trkpt>
      <trkpt lat="48.01473" lon="8.69331">
        <ele>843</ele>
        <time>2022-05-23T19:33:12Z</time>
      </trkpt>
      <trkpt lat="48.01473" lon="8.69374">
        <ele>842</ele>
        <time>2022-05-23T19:33:17Z</time>
      </trkpt>
      <trkpt lat="48.01476" lon="8.69389">
        <ele>841</ele>
        <time>2022-05-23T19:33:19Z</time>
      </trkpt>
      <trkpt lat="48.01487" lon="8.69418">
        <ele>839</ele>
        <time>2022-05-23T19:33:23Z</time>
      </trkpt>
      <trkpt lat="48.01484" lon="8.69431">
        <ele>839</ele>
        <time>2022-05-23T19:33:25Z</time>
      </trkpt>
      <trkpt lat="48.01476" lon="8.69437">
        <ele>840</ele>
        <time>2022-05-23T19:33:26Z</time>
      </trkpt>
      <trkpt lat="48.01481" lon="8.69424">
        <ele>839</ele>
        <time>2022-05-23T19:33:28Z</time>
      </trkpt>
      <trkpt lat="48.01472" lon="8.69439">
        <ele>840</ele>
        <time>2022-05-23T19:33:30Z</time>
      </trkpt>
      <trkpt lat="48.01487" lon="8.69471">
        <ele>838</ele>
        <time>2022-05-23T19:33:35Z</time>
      </trkpt>
      <trkpt lat="48.01499" lon="8.6951">
        <ele>837</ele>
        <time>2022-05-23T19:33:40Z</time>
      </trkpt>
      <trkpt lat="48.01499" lon="8.69524">
        <ele>837</ele>
        <time>2022-05-23T19:33:42Z</time>
      </trkpt>
      <trkpt lat="48.01508" lon="8.69587">
        <ele>834</ele>
        <time>2022-05-23T19:33:50Z</time>
      </trkpt>
      <trkpt lat="48.01505" lon="8.6966">
        <ele>830</ele>
        <time>2022-05-23T19:33:58Z</time>
      </trkpt>
      <trkpt lat="48.01508" lon="8.69718">
        <ele>827</ele>
        <time>2022-05-23T19:34:05Z</time>
      </trkpt>
      <trkpt lat="48.01512" lon="8.69737">
        <ele>825</ele>
        <time>2022-05-23T19:34:08Z</time>
      </trkpt>
      <trkpt lat="48.01546" lon="8.69847">
        <ele>810</ele>
        <time>2022-05-23T19:34:22Z</time>
      </trkpt>
      <trkpt lat="48.01555" lon="8.699">
        <ele>805</ele>
        <time>2022-05-23T19:34:28Z</time>
      </trkpt>
      <trkpt lat="48.01564" lon="8.69934">
        <ele>800</ele>
        <time>2022-05-23T19:34:33Z</time>
      </trkpt>
      <trkpt lat="48.01565" lon="8.69949">
        <ele>800</ele>
        <time>2022-05-23T19:34:35Z</time>
      </trkpt>
      <trkpt lat="48.01588" lon="8.69989">
        <ele>792</ele>
        <time>2022-05-23T19:34:41Z</time>
      </trkpt>
      <trkpt lat="48.01611" lon="8.70054">
        <ele>786</ele>
        <time>2022-05-23T19:34:50Z</time>
      </trkpt>
      <trkpt lat="48.01649" lon="8.70134">
        <ele>776</ele>
        <time>2022-05-23T19:35:01Z</time>
      </trkpt>
      <trkpt lat="48.01698" lon="8.70199">
        <ele>763</ele>
        <time>2022-05-23T19:35:13Z</time>
      </trkpt>
      <trkpt lat="48.01714" lon="8.70227">
        <ele>758</ele>
        <time>2022-05-23T19:35:17Z</time>
      </trkpt>
      <trkpt lat="48.0173" lon="8.70279">
        <ele>753</ele>
        <time>2022-05-23T19:35:24Z</time>
      </trkpt>
      <trkpt lat="48.01735" lon="8.7032">
        <ele>750</ele>
        <time>2022-05-23T19:35:29Z</time>
      </trkpt>
      <trkpt lat="48.01737" lon="8.70407">
        <ele>740</ele>
        <time>2022-05-23T19:35:39Z</time>
      </trkpt>
      <trkpt lat="48.01741" lon="8.70427">
        <ele>738</ele>
        <time>2022-05-23T19:35:42Z</time>
      </trkpt>
      <trkpt lat="48.01769" lon="8.70488">
        <ele>733</ele>
        <time>2022-05-23T19:35:51Z</time>
      </trkpt>
      <trkpt lat="48.01774" lon="8.70504">
        <ele>732</ele>
        <time>2022-05-23T19:35:53Z</time>
      </trkpt>
      <trkpt lat="48.01777" lon="8.70522">
        <ele>731</ele>
        <time>2022-05-23T19:35:55Z</time>
      </trkpt>
      <trkpt lat="48.01782" lon="8.70619">
        <ele>727</ele>
        <time>2022-05-23T19:36:07Z</time>
      </trkpt>
      <trkpt lat="48.018" lon="8.70692">
        <ele>723</ele>
        <time>2022-05-23T19:36:16Z</time>
      </trkpt>
      <trkpt lat="48.01804" lon="8.70797">
        <ele>720</ele>
        <time>2022-05-23T19:36:28Z</time>
      </trkpt>
      <trkpt lat="48.01808" lon="8.70812">
        <ele>720</ele>
        <time>2022-05-23T19:36:30Z</time>
      </trkpt>
      <trkpt lat="48.01829" lon="8.70861">
        <ele>720</ele>
        <time>2022-05-23T19:36:37Z</time>
      </trkpt>
      <trkpt lat="48.0185" lon="8.70935">
        <ele>722</ele>
        <time>2022-05-23T19:36:47Z</time>
      </trkpt>
      <trkpt lat="48.01852" lon="8.70949">
        <ele>722</ele>
        <time>2022-05-23T19:36:49Z</time>
      </trkpt>
      <trkpt lat="48.01852" lon="8.70997">
        <ele>720</ele>
        <time>2022-05-23T19:36:54Z</time>
      </trkpt>
      <trkpt lat="48.01859" lon="8.71024">
        <ele>720</ele>
        <time>2022-05-23T19:36:58Z</time>
      </trkpt>
      <trkpt lat="48.0186" lon="8.71059">
        <ele>718</ele>
        <time>2022-05-23T19:37:02Z</time>
      </trkpt>
      <trkpt lat="48.01868" lon="8.71104">
        <ele>718</ele>
        <time>2022-05-23T19:37:07Z</time>
      </trkpt>
      <trkpt lat="48.01869" lon="8.71121">
        <ele>717</ele>
        <time>2022-05-23T19:37:09Z</time>
      </trkpt>
      <trkpt lat="48.01864" lon="8.71153">
        <ele>716</ele>
        <time>2022-05-23T19:37:13Z</time>
      </trkpt>
      <trkpt lat="48.01857" lon="8.71165">
        <ele>716</ele>
        <time>2022-05-23T19:37:15Z</time>
      </trkpt>
      <trkpt lat="48.01848" lon="8.7117">
        <ele>715</ele>
        <time>2022-05-23T19:37:17Z</time>
      </trkpt>
      <trkpt lat="48.0184" lon="8.71183">
        <ele>714</ele>
        <time>2022-05-23T19:37:19Z</time>
      </trkpt>
      <trkpt lat="48.0183" lon="8.71277">
        <ele>710</ele>
        <time>2022-05-23T19:37:30Z</time>
      </trkpt>
      <trkpt lat="48.01838" lon="8.71331">
        <ele>708</ele>
        <time>2022-05-23T19:37:37Z</time>
      </trkpt>
      <trkpt lat="48.01854" lon="8.71379">
        <ele>708</ele>
        <time>2022-05-23T19:37:43Z</time>
      </trkpt>
      <trkpt lat="48.01867" lon="8.71436">
        <ele>707</ele>
        <time>2022-05-23T19:37:51Z</time>
      </trkpt>
      <trkpt lat="48.01875" lon="8.71442">
        <ele>706</ele>
        <time>2022-05-23T19:37:52Z</time>
      </trkpt>
      <trkpt lat="48.01858" lon="8.71484">
        <ele>708</ele>
        <time>2022-05-23T19:37:58Z</time>
      </trkpt>
      <trkpt lat="48.01848" lon="8.71528">
        <ele>708</ele>
        <time>2022-05-23T19:38:03Z</time>
      </trkpt>
      <trkpt lat="48.01851" lon="8.71558">
        <ele>708</ele>
        <time>2022-05-23T19:38:07Z</time>
      </trkpt>
      <trkpt lat="48.01868" lon="8.71634">
        <ele>706</ele>
        <time>2022-05-23T19:38:17Z</time>
      </trkpt>
      <trkpt lat="48.01869" lon="8.71685">
        <ele>704</ele>
        <time>2022-05-23T19:38:23Z</time>
      </trkpt>
      <trkpt lat="48.01861" lon="8.71756">
        <ele>703</ele>
        <time>2022-05-23T19:38:31Z</time>
      </trkpt>
      <trkpt lat="48.0185" lon="8.71812">
        <ele>703</ele>
        <time>2022-05-23T19:38:38Z</time>
      </trkpt>
      <trkpt lat="48.01813" lon="8.72053">
        <ele>697</ele>
        <time>2022-05-23T19:39:08Z</time>
      </trkpt>
      <trkpt lat="48.0181" lon="8.72101">
        <ele>696</ele>
        <time>2022-05-23T19:39:13Z</time>
      </trkpt>
      <trkpt lat="48.01815" lon="8.72181">
        <ele>697</ele>
        <time>2022-05-23T19:39:23Z</time>
      </trkpt>
      <trkpt lat="48.0179" lon="8.72216">
        <ele>697</ele>
        <time>2022-05-23T19:39:29Z</time>
      </trkpt>
      <trkpt lat="48.01685" lon="8.72315">
        <ele>696</ele>
        <time>2022-05-23T19:39:51Z</time>
      </trkpt>
      <trkpt lat="48.01657" lon="8.72346">
        <ele>696</ele>
        <time>2022-05-23T19:39:57Z</time>
      </trkpt>
      <trkpt lat="48.01649" lon="8.7236">
        <ele>696</ele>
        <time>2022-05-23T19:40:00Z</time>
      </trkpt>
      <trkpt lat="48.01578" lon="8.72555">
        <ele>694</ele>
        <time>2022-05-23T19:40:26Z</time>
      </trkpt>
      <trkpt lat="48.0155" lon="8.72619">
        <ele>694</ele>
        <time>2022-05-23T19:40:35Z</time>
      </trkpt>
      <trkpt lat="48.01546" lon="8.72633">
        <ele>695</ele>
        <time>2022-05-23T19:40:37Z</time>
      </trkpt>
      <trkpt lat="48.01539" lon="8.72644">
        <ele>695</ele>
        <time>2022-05-23T19:40:39Z</time>
      </trkpt>
      <trkpt lat="48.01488" lon="8.72661">
        <ele>697</ele>
        <time>2022-05-23T19:40:48Z</time>
      </trkpt>
      <trkpt lat="48.01417" lon="8.72693">
        <ele>697</ele>
        <time>2022-05-23T19:41:01Z</time>
      </trkpt>
      <trkpt lat="48.01315" lon="8.72751">
        <ele>699</ele>
        <time>2022-05-23T19:41:21Z</time>
      </trkpt>
      <trkpt lat="48.01265" lon="8.72783">
        <ele>703</ele>
        <time>2022-05-23T19:41:30Z</time>
      </trkpt>
      <trkpt lat="48.01235" lon="8.72809">
        <ele>702</ele>
        <time>2022-05-23T19:41:36Z</time>
      </trkpt>
      <trkpt lat="48.01216" lon="8.72818">
        <ele>702</ele>
        <time>2022-05-23T19:41:40Z</time>
      </trkpt>
      <trkpt lat="48.01198" lon="8.7282">
        <ele>703</ele>
        <time>2022-05-23T19:41:43Z</time>
      </trkpt>
      <trkpt lat="48.01148" lon="8.72817">
        <ele>707</ele>
        <time>2022-05-23T19:41:52Z</time>
      </trkpt>
      <trkpt lat="48.01129" lon="8.7282">
        <ele>709</ele>
        <time>2022-05-23T19:41:55Z</time>
      </trkpt>
      <trkpt lat="48.01109" lon="8.72828">
        <ele>709</ele>
        <time>2022-05-23T19:41:59Z</time>
      </trkpt>
      <trkpt lat="48.01072" lon="8.72854">
        <ele>709</ele>
        <time>2022-05-23T19:42:06Z</time>
      </trkpt>
      <trkpt lat="48.01015" lon="8.72882">
        <ele>710</ele>
        <time>2022-05-23T19:42:17Z</time>
      </trkpt>
      <trkpt lat="48.0092" lon="8.72941">
        <ele>710</ele>
        <time>2022-05-23T19:42:35Z</time>
      </trkpt>
      <trkpt lat="48.00868" lon="8.72966">
        <ele>711</ele>
        <time>2022-05-23T19:42:45Z</time>
      </trkpt>
      <trkpt lat="48.00795" lon="8.72995">
        <ele>711</ele>
        <time>2022-05-23T19:42:59Z</time>
      </trkpt>
      <trkpt lat="48.00655" lon="8.73042">
        <ele>707</ele>
        <time>2022-05-23T19:43:24Z</time>
      </trkpt>
      <trkpt lat="48.00632" lon="8.73045">
        <ele>706</ele>
        <time>2022-05-23T19:43:28Z</time>
      </trkpt>
      <trkpt lat="48.00583" lon="8.73043">
        <ele>705</ele>
        <time>2022-05-23T19:43:37Z</time>
      </trkpt>
      <trkpt lat="48.00426" lon="8.73015">
        <ele>698</ele>
        <time>2022-05-23T19:44:05Z</time>
      </trkpt>
      <trkpt lat="48.00375" lon="8.73012">
        <ele>699</ele>
        <time>2022-05-23T19:44:14Z</time>
      </trkpt>
      <trkpt lat="48.00369" lon="8.73024">
        <ele>698</ele>
        <time>2022-05-23T19:44:16Z</time>
      </trkpt>
      <trkpt lat="48.00371" lon="8.73043">
        <ele>697</ele>
        <time>2022-05-23T19:44:18Z</time>
      </trkpt>
      <trkpt lat="48.00377" lon="8.73063">
        <ele>696</ele>
        <time>2022-05-23T19:44:21Z</time>
      </trkpt>
      <trkpt lat="48.00389" lon="8.73137">
        <ele>692</ele>
        <time>2022-05-23T19:44:30Z</time>
      </trkpt>
      <trkpt lat="48.00394" lon="8.73156">
        <ele>691</ele>
        <time>2022-05-23T19:44:32Z</time>
      </trkpt>
      <trkpt lat="48.00391" lon="8.7317">
        <ele>690</ele>
        <time>2022-05-23T19:44:34Z</time>
      </trkpt>
      <trkpt lat="48.00315" lon="8.73229">
        <ele>688</ele>
        <time>2022-05-23T19:44:49Z</time>
      </trkpt>
      <trkpt lat="48.00304" lon="8.73235">
        <ele>688</ele>
        <time>2022-05-23T19:44:51Z</time>
      </trkpt>
      <trkpt lat="48.00251" lon="8.73254">
        <ele>688</ele>
        <time>2022-05-23T19:45:01Z</time>
      </trkpt>
      <trkpt lat="48.00243" lon="8.73263">
        <ele>687</ele>
        <time>2022-05-23T19:45:03Z</time>
      </trkpt>
      <trkpt lat="48.00242" lon="8.73278">
        <ele>687</ele>
        <time>2022-05-23T19:45:05Z</time>
      </trkpt>
      <trkpt lat="48.00245" lon="8.73313">
        <ele>686</ele>
        <time>2022-05-23T19:45:09Z</time>
      </trkpt>
      <trkpt lat="48.00261" lon="8.7345">
        <ele>685</ele>
        <time>2022-05-23T19:45:25Z</time>
      </trkpt>
      <trkpt lat="48.00258" lon="8.73469">
        <ele>686</ele>
        <time>2022-05-23T19:45:28Z</time>
      </trkpt>
      <trkpt lat="48.00237" lon="8.73492">
        <ele>686</ele>
        <time>2022-05-23T19:45:32Z</time>
      </trkpt>
      <trkpt lat="48.00215" lon="8.73501">
        <ele>686</ele>
        <time>2022-05-23T19:45:36Z</time>
      </trkpt>
      <trkpt lat="48.00204" lon="8.73499">
        <ele>685</ele>
        <time>2022-05-23T19:45:38Z</time>
      </trkpt>
      <trkpt lat="48.00175" lon="8.73475">
        <ele>684</ele>
        <time>2022-05-23T19:45:44Z</time>
      </trkpt>
      <trkpt lat="48.00129" lon="8.73443">
        <ele>683</ele>
        <time>2022-05-23T19:45:53Z</time>
      </trkpt>
      <trkpt lat="48.001" lon="8.73425">
        <ele>683</ele>
        <time>2022-05-23T19:45:59Z</time>
      </trkpt>
      <trkpt lat="48.00081" lon="8.73417">
        <ele>683</ele>
        <time>2022-05-23T19:46:02Z</time>
      </trkpt>
      <trkpt lat="48.00029" lon="8.73379">
        <ele>682</ele>
        <time>2022-05-23T19:46:13Z</time>
      </trkpt>
      <trkpt lat="48.0001" lon="8.73371">
        <ele>682</ele>
        <time>2022-05-23T19:46:16Z</time>
      </trkpt>
      <trkpt lat="47.99959" lon="8.73357">
        <ele>681</ele>
        <time>2022-05-23T19:46:25Z</time>
      </trkpt>
      <trkpt lat="47.99937" lon="8.73355">
        <ele>680</ele>
        <time>2022-05-23T19:46:29Z</time>
      </trkpt>
      <trkpt lat="47.99905" lon="8.73358">
        <ele>680</ele>
        <time>2022-05-23T19:46:35Z</time>
      </trkpt>
      <trkpt lat="47.99884" lon="8.73363">
        <ele>680</ele>
        <time>2022-05-23T19:46:39Z</time>
      </trkpt>
      <trkpt lat="47.99841" lon="8.73381">
        <ele>681</ele>
        <time>2022-05-23T19:46:47Z</time>
      </trkpt>
      <trkpt lat="47.99784" lon="8.73415">
        <ele>686</ele>
        <time>2022-05-23T19:46:58Z</time>
      </trkpt>
      <trkpt lat="47.9976" lon="8.73442">
        <ele>685</ele>
        <time>2022-05-23T19:47:03Z</time>
      </trkpt>
      <trkpt lat="47.99686" lon="8.73604">
        <ele>681</ele>
        <time>2022-05-23T19:47:26Z</time>
      </trkpt>
      <trkpt lat="47.99652" lon="8.73652">
        <ele>681</ele>
        <time>2022-05-23T19:47:35Z</time>
      </trkpt>
      <trkpt lat="47.99619" lon="8.73691">
        <ele>683</ele>
        <time>2022-05-23T19:47:42Z</time>
      </trkpt>
      <trkpt lat="47.99613" lon="8.73703">
        <ele>683</ele>
        <time>2022-05-23T19:47:44Z</time>
      </trkpt>
      <trkpt lat="47.99597" lon="8.73723">
        <ele>682</ele>
        <time>2022-05-23T19:47:48Z</time>
      </trkpt>
      <trkpt lat="47.99563" lon="8.73755">
        <ele>681</ele>
        <time>2022-05-23T19:47:55Z</time>
      </trkpt>
      <trkpt lat="47.9955" lon="8.73782">
        <ele>681</ele>
        <time>2022-05-23T19:47:59Z</time>
      </trkpt>
      <trkpt lat="47.99547" lon="8.73795">
        <ele>681</ele>
        <time>2022-05-23T19:48:01Z</time>
      </trkpt>
      <trkpt lat="47.99551" lon="8.7381">
        <ele>680</ele>
        <time>2022-05-23T19:48:02Z</time>
      </trkpt>
      <trkpt lat="47.99626" lon="8.73803">
        <ele>679</ele>
        <time>2022-05-23T19:48:16Z</time>
      </trkpt>
      <trkpt lat="47.99649" lon="8.73797">
        <ele>678</ele>
        <time>2022-05-23T19:48:20Z</time>
      </trkpt>
      <trkpt lat="47.9967" lon="8.73787">
        <ele>677</ele>
        <time>2022-05-23T19:48:24Z</time>
      </trkpt>
      <trkpt lat="47.99701" lon="8.73766">
        <ele>677</ele>
        <time>2022-05-23T19:48:30Z</time>
      </trkpt>
      <trkpt lat="47.99695" lon="8.73782">
        <ele>678</ele>
        <time>2022-05-23T19:48:32Z</time>
      </trkpt>
      <trkpt lat="47.99647" lon="8.73809">
        <ele>678</ele>
        <time>2022-05-23T19:48:41Z</time>
      </trkpt>
      <trkpt lat="47.99577" lon="8.73823">
        <ele>680</ele>
        <time>2022-05-23T19:48:54Z</time>
      </trkpt>
      <trkpt lat="47.99567" lon="8.73828">
        <ele>680</ele>
        <time>2022-05-23T19:48:56Z</time>
      </trkpt>
      <trkpt lat="47.99559" lon="8.73839">
        <ele>680</ele>
        <time>2022-05-23T19:48:58Z</time>
      </trkpt>
      <trkpt lat="47.9955" lon="8.73867">
        <ele>679</ele>
        <time>2022-05-23T19:49:01Z</time>
      </trkpt>
      <trkpt lat="47.99531" lon="8.73904">
        <ele>678</ele>
        <time>2022-05-23T19:49:07Z</time>
      </trkpt>
      <trkpt lat="47.99505" lon="8.73931">
        <ele>678</ele>
        <time>2022-05-23T19:49:13Z</time>
      </trkpt>
      <trkpt lat="47.99449" lon="8.73977">
        <ele>679</ele>
        <time>2022-05-23T19:49:24Z</time>
      </trkpt>
      <trkpt lat="47.99433" lon="8.73997">
        <ele>679</ele>
        <time>2022-05-23T19:49:28Z</time>
      </trkpt>
      <trkpt lat="47.99413" lon="8.74035">
        <ele>677</ele>
        <time>2022-05-23T19:49:33Z</time>
      </trkpt>
      <trkpt lat="47.99369" lon="8.74155">
        <ele>678</ele>
        <time>2022-05-23T19:49:50Z</time>
      </trkpt>
      <trkpt lat="47.99367" lon="8.74169">
        <ele>678</ele>
        <time>2022-05-23T19:49:51Z</time>
      </trkpt>
      <trkpt lat="47.99382" lon="8.74207">
        <ele>678</ele>
        <time>2022-05-23T19:49:57Z</time>
      </trkpt>
      <trkpt lat="47.99382" lon="8.74222">
        <ele>678</ele>
        <time>2022-05-23T19:49:58Z</time>
      </trkpt>
      <trkpt lat="47.99366" lon="8.74242">
        <ele>679</ele>
        <time>2022-05-23T19:50:02Z</time>
      </trkpt>
      <trkpt lat="47.99353" lon="8.74266">
        <ele>679</ele>
        <time>2022-05-23T19:50:06Z</time>
      </trkpt>
      <trkpt lat="47.99334" lon="8.74342">
        <ele>676</ele>
        <time>2022-05-23T19:50:15Z</time>
      </trkpt>
      <trkpt lat="47.9933" lon="8.74372">
        <ele>676</ele>
        <time>2022-05-23T19:50:19Z</time>
      </trkpt>
      <trkpt lat="47.99318" lon="8.74539">
        <ele>676</ele>
        <time>2022-05-23T19:50:39Z</time>
      </trkpt>
      <trkpt lat="47.99307" lon="8.74599">
        <ele>675</ele>
        <time>2022-05-23T19:50:46Z</time>
      </trkpt>
      <trkpt lat="47.99281" lon="8.74692">
        <ele>673</ele>
        <time>2022-05-23T19:50:58Z</time>
      </trkpt>
      <trkpt lat="47.99253" lon="8.74915">
        <ele>670</ele>
        <time>2022-05-23T19:51:25Z</time>
      </trkpt>
      <trkpt lat="47.99246" lon="8.75066">
        <ele>671</ele>
        <time>2022-05-23T19:51:44Z</time>
      </trkpt>
      <trkpt lat="47.99238" lon="8.75118">
        <ele>671</ele>
        <time>2022-05-23T19:51:50Z</time>
      </trkpt>
      <trkpt lat="47.99201" lon="8.7563">
        <ele>669</ele>
        <time>2022-05-23T19:52:51Z</time>
      </trkpt>
      <trkpt lat="47.99193" lon="8.75694">
        <ele>669</ele>
        <time>2022-05-23T19:52:59Z</time>
      </trkpt>
      <trkpt lat="47.99194" lon="8.75714">
        <ele>668</ele>
        <time>2022-05-23T19:53:01Z</time>
      </trkpt>
      <trkpt lat="47.99201" lon="8.7573">
        <ele>669</ele>
        <time>2022-05-23T19:53:04Z</time>
      </trkpt>
      <trkpt lat="47.99239" lon="8.75774">
        <ele>669</ele>
        <time>2022-05-23T19:53:12Z</time>
      </trkpt>
      <trkpt lat="47.99246" lon="8.75785">
        <ele>669</ele>
        <time>2022-05-23T19:53:14Z</time>
      </trkpt>
      <trkpt lat="47.9925" lon="8.75798">
        <ele>670</ele>
        <time>2022-05-23T19:53:16Z</time>
      </trkpt>
      <trkpt lat="47.99251" lon="8.75826">
        <ele>670</ele>
        <time>2022-05-23T19:53:19Z</time>
      </trkpt>
      <trkpt lat="47.99243" lon="8.75815">
        <ele>670</ele>
        <time>2022-05-23T19:53:21Z</time>
      </trkpt>
      <trkpt lat="47.99167" lon="8.7581">
        <ele>669</ele>
        <time>2022-05-23T19:53:34Z</time>
      </trkpt>
      <trkpt lat="47.99166" lon="8.7586">
        <ele>670</ele>
        <time>2022-05-23T19:53:40Z</time>
      </trkpt>
      <trkpt lat="47.99167" lon="8.75951">
        <ele>670</ele>
        <time>2022-05-23T19:53:51Z</time>
      </trkpt>
      <trkpt lat="47.99174" lon="8.76063">
        <ele>669</ele>
        <time>2022-05-23T19:54:05Z</time>
      </trkpt>
      <trkpt lat="47.99174" lon="8.76149">
        <ele>670</ele>
        <time>2022-05-23T19:54:15Z</time>
      </trkpt>
      <trkpt lat="47.99176" lon="8.76186">
        <ele>670</ele>
        <time>2022-05-23T19:54:19Z</time>
      </trkpt>
      <trkpt lat="47.99183" lon="8.76239">
        <ele>669</ele>
        <time>2022-05-23T19:54:26Z</time>
      </trkpt>
      <trkpt lat="47.99188" lon="8.76273">
        <ele>669</ele>
        <time>2022-05-23T19:54:30Z</time>
      </trkpt>
      <trkpt lat="47.99197" lon="8.76303">
        <ele>669</ele>
        <time>2022-05-23T19:54:34Z</time>
      </trkpt>
      <trkpt lat="47.99221" lon="8.76356">
        <ele>668</ele>
        <time>2022-05-23T19:54:41Z</time>
      </trkpt>
      <trkpt lat="47.99242" lon="8.76422">
        <ele>667</ele>
        <time>2022-05-23T19:54:50Z</time>
      </trkpt>
      <trkpt lat="47.99254" lon="8.76493">
        <ele>666</ele>
        <time>2022-05-23T19:54:59Z</time>
      </trkpt>
      <trkpt lat="47.99248" lon="8.7671">
        <ele>665</ele>
        <time>2022-05-23T19:55:25Z</time>
      </trkpt>
      <trkpt lat="47.99257" lon="8.76785">
        <ele>664</ele>
        <time>2022-05-23T19:55:34Z</time>
      </trkpt>
      <trkpt lat="47.99278" lon="8.76852">
        <ele>663</ele>
        <time>2022-05-23T19:55:43Z</time>
      </trkpt>
      <trkpt lat="47.99309" lon="8.76909">
        <ele>664</ele>
        <time>2022-05-23T19:55:51Z</time>
      </trkpt>
      <trkpt lat="47.99334" lon="8.76939">
        <ele>664</ele>
        <time>2022-05-23T19:55:57Z</time>
      </trkpt>
      <trkpt lat="47.99363" lon="8.76962">
        <ele>664</ele>
        <time>2022-05-23T19:56:03Z</time>
      </trkpt>
      <trkpt lat="47.99403" lon="8.77002">
        <ele>663</ele>
        <time>2022-05-23T19:56:11Z</time>
      </trkpt>
      <trkpt lat="47.99421" lon="8.77025">
        <ele>663</ele>
        <time>2022-05-23T19:56:16Z</time>
      </trkpt>
      <trkpt lat="47.99444" lon="8.77067">
        <ele>663</ele>
        <time>2022-05-23T19:56:22Z</time>
      </trkpt>
      <trkpt lat="47.99458" lon="8.77097">
        <ele>662</ele>
        <time>2022-05-23T19:56:26Z</time>
      </trkpt>
      <trkpt lat="47.99481" lon="8.7716">
        <ele>661</ele>
        <time>2022-05-23T19:56:35Z</time>
      </trkpt>
      <trkpt lat="47.99518" lon="8.77322">
        <ele>662</ele>
        <time>2022-05-23T19:56:55Z</time>
      </trkpt>
      <trkpt lat="47.99517" lon="8.77353">
        <ele>661</ele>
        <time>2022-05-23T19:56:59Z</time>
      </trkpt>
      <trkpt lat="47.99509" lon="8.77362">
        <ele>661</ele>
        <time>2022-05-23T19:57:01Z</time>
      </trkpt>
      <trkpt lat="47.99453" lon="8.77355">
        <ele>660</ele>
        <time>2022-05-23T19:57:11Z</time>
      </trkpt>
      <trkpt lat="47.99404" lon="8.77354">
        <ele>659</ele>
        <time>2022-05-23T19:57:20Z</time>
      </trkpt>
      <trkpt lat="47.99402" lon="8.77374">
        <ele>659</ele>
        <time>2022-05-23T19:57:22Z</time>
      </trkpt>
      <trkpt lat="47.99431" lon="8.77497">
        <ele>657</ele>
        <time>2022-05-23T19:57:38Z</time>
      </trkpt>
      <trkpt lat="47.9943" lon="8.77511">
        <ele>657</ele>
        <time>2022-05-23T19:57:39Z</time>
      </trkpt>
      <trkpt lat="47.99421" lon="8.77518">
        <ele>657</ele>
        <time>2022-05-23T19:57:41Z</time>
      </trkpt>
      <trkpt lat="47.99363" lon="8.77537">
        <ele>658</ele>
        <time>2022-05-23T19:57:52Z</time>
      </trkpt>
      <trkpt lat="47.99354" lon="8.77549">
        <ele>658</ele>
        <time>2022-05-23T19:57:54Z</time>
      </trkpt>
      <trkpt lat="47.99404" lon="8.77909">
        <ele>657</ele>
        <time>2022-05-23T19:58:38Z</time>
      </trkpt>
      <trkpt lat="47.99428" lon="8.77984">
        <ele>655</ele>
        <time>2022-05-23T19:58:47Z</time>
      </trkpt>
      <trkpt lat="47.99463" lon="8.78107">
        <ele>656</ele>
        <time>2022-05-23T19:59:03Z</time>
      </trkpt>
      <trkpt lat="47.99456" lon="8.78204">
        <ele>656</ele>
        <time>2022-05-23T19:59:15Z</time>
      </trkpt>
      <trkpt lat="47.99433" lon="8.78284">
        <ele>655</ele>
        <time>2022-05-23T19:59:25Z</time>
      </trkpt>
      <trkpt lat="47.99408" lon="8.78349">
        <ele>654</ele>
        <time>2022-05-23T19:59:34Z</time>
      </trkpt>
      <trkpt lat="47.99384" lon="8.78393">
        <ele>654</ele>
        <time>2022-05-23T19:59:41Z</time>
      </trkpt>
      <trkpt lat="47.99366" lon="8.7842">
        <ele>653</ele>
        <time>2022-05-23T19:59:46Z</time>
      </trkpt>
      <trkpt lat="47.99356" lon="8.78431">
        <ele>653</ele>
        <time>2022-05-23T19:59:48Z</time>
      </trkpt>
      <trkpt lat="47.99299" lon="8.78483">
        <ele>653</ele>
        <time>2022-05-23T20:00:00Z</time>
      </trkpt>
      <trkpt lat="47.99269" lon="8.78518">
        <ele>653</ele>
        <time>2022-05-23T20:00:06Z</time>
      </trkpt>
      <trkpt lat="47.99266" lon="8.78536">
        <ele>653</ele>
        <time>2022-05-23T20:00:09Z</time>
      </trkpt>
      <trkpt lat="47.99271" lon="8.78553">
        <ele>653</ele>
        <time>2022-05-23T20:00:11Z</time>
      </trkpt>
      <trkpt lat="47.99284" lon="8.7858">
        <ele>651</ele>
        <time>2022-05-23T20:00:15Z</time>
      </trkpt>
      <trkpt lat="47.99287" lon="8.78596">
        <ele>652</ele>
        <time>2022-05-23T20:00:17Z</time>
      </trkpt>
      <trkpt lat="47.9928" lon="8.78666">
        <ele>654</ele>
        <time>2022-05-23T20:00:25Z</time>
      </trkpt>
      <trkpt lat="47.99256" lon="8.78744">
        <ele>653</ele>
        <time>2022-05-23T20:00:35Z</time>
      </trkpt>
      <trkpt lat="47.99155" lon="8.79">
        <ele>650</ele>
        <time>2022-05-23T20:01:11Z</time>
      </trkpt>
      <trkpt lat="47.99135" lon="8.79061">
        <ele>651</ele>
        <time>2022-05-23T20:01:19Z</time>
      </trkpt>
      <trkpt lat="47.99132" lon="8.79095">
        <ele>651</ele>
        <time>2022-05-23T20:01:23Z</time>
      </trkpt>
      <trkpt lat="47.99135" lon="8.79123">
        <ele>652</ele>
        <time>2022-05-23T20:01:26Z</time>
      </trkpt>
      <trkpt lat="47.99146" lon="8.7916">
        <ele>653</ele>
        <time>2022-05-23T20:01:31Z</time>
      </trkpt>
      <trkpt lat="47.99162" lon="8.79187">
        <ele>654</ele>
        <time>2022-05-23T20:01:35Z</time>
      </trkpt>
      <trkpt lat="47.99164" lon="8.79205">
        <ele>655</ele>
        <time>2022-05-23T20:01:38Z</time>
      </trkpt>
      <trkpt lat="47.99153" lon="8.79233">
        <ele>655</ele>
        <time>2022-05-23T20:01:42Z</time>
      </trkpt>
      <trkpt lat="47.99146" lon="8.79266">
        <ele>655</ele>
        <time>2022-05-23T20:01:46Z</time>
      </trkpt>
      <trkpt lat="47.99151" lon="8.79294">
        <ele>656</ele>
        <time>2022-05-23T20:01:49Z</time>
      </trkpt>
      <trkpt lat="47.99165" lon="8.79332">
        <ele>658</ele>
        <time>2022-05-23T20:01:54Z</time>
      </trkpt>
      <trkpt lat="47.99162" lon="8.79345">
        <ele>658</ele>
        <time>2022-05-23T20:01:56Z</time>
      </trkpt>
      <trkpt lat="47.99135" lon="8.794">
        <ele>658</ele>
        <time>2022-05-23T20:02:04Z</time>
      </trkpt>
      <trkpt lat="47.99081" lon="8.7953">
        <ele>659</ele>
        <time>2022-05-23T20:02:22Z</time>
      </trkpt>
      <trkpt lat="47.99049" lon="8.79593">
        <ele>662</ele>
        <time>2022-05-23T20:02:32Z</time>
      </trkpt>
      <trkpt lat="47.99029" lon="8.79642">
        <ele>664</ele>
        <time>2022-05-23T20:02:38Z</time>
      </trkpt>
      <trkpt lat="47.98985" lon="8.79727">
        <ele>660</ele>
        <time>2022-05-23T20:02:51Z</time>
      </trkpt>
      <trkpt lat="47.98961" lon="8.79782">
        <ele>659</ele>
        <time>2022-05-23T20:02:59Z</time>
      </trkpt>
      <trkpt lat="47.98947" lon="8.79804">
        <ele>658</ele>
        <time>2022-05-23T20:03:03Z</time>
      </trkpt>
      <trkpt lat="47.98936" lon="8.79807">
        <ele>656</ele>
        <time>2022-05-23T20:03:05Z</time>
      </trkpt>
      <trkpt lat="47.98927" lon="8.798">
        <ele>655</ele>
        <time>2022-05-23T20:03:07Z</time>
      </trkpt>
      <trkpt lat="47.98905" lon="8.79826">
        <ele>653</ele>
        <time>2022-05-23T20:03:11Z</time>
      </trkpt>
      <trkpt lat="47.98875" lon="8.79891">
        <ele>653</ele>
        <time>2022-05-23T20:03:21Z</time>
      </trkpt>
      <trkpt lat="47.98865" lon="8.79895">
        <ele>652</ele>
        <time>2022-05-23T20:03:23Z</time>
      </trkpt>
      <trkpt lat="47.98854" lon="8.79907">
        <ele>651</ele>
        <time>2022-05-23T20:03:25Z</time>
      </trkpt>
      <trkpt lat="47.98823" lon="8.79988">
        <ele>650</ele>
        <time>2022-05-23T20:03:36Z</time>
      </trkpt>
      <trkpt lat="47.98821" lon="8.80004">
        <ele>650</ele>
        <time>2022-05-23T20:03:38Z</time>
      </trkpt>
      <trkpt lat="47.98817" lon="8.80015">
        <ele>650</ele>
        <time>2022-05-23T20:03:40Z</time>
      </trkpt>
      <trkpt lat="47.98779" lon="8.80058">
        <ele>650</ele>
        <time>2022-05-23T20:03:48Z</time>
      </trkpt>
      <trkpt lat="47.98736" lon="8.80097">
        <ele>648</ele>
        <time>2022-05-23T20:03:57Z</time>
      </trkpt>
      <trkpt lat="47.98679" lon="8.80134">
        <ele>648</ele>
        <time>2022-05-23T20:04:08Z</time>
      </trkpt>
      <trkpt lat="47.98643" lon="8.80149">
        <ele>647</ele>
        <time>2022-05-23T20:04:15Z</time>
      </trkpt>
      <trkpt lat="47.98607" lon="8.80159">
        <ele>646</ele>
        <time>2022-05-23T20:04:21Z</time>
      </trkpt>
      <trkpt lat="47.98584" lon="8.80162">
        <ele>645</ele>
        <time>2022-05-23T20:04:25Z</time>
      </trkpt>
      <trkpt lat="47.98574" lon="8.8016">
        <ele>645</ele>
        <time>2022-05-23T20:04:27Z</time>
      </trkpt>
      <trkpt lat="47.98554" lon="8.8015">
        <ele>644</ele>
        <time>2022-05-23T20:04:31Z</time>
      </trkpt>
      <trkpt lat="47.98536" lon="8.8015">
        <ele>644</ele>
        <time>2022-05-23T20:04:34Z</time>
      </trkpt>
      <trkpt lat="47.98525" lon="8.80146">
        <ele>644</ele>
        <time>2022-05-23T20:04:36Z</time>
      </trkpt>
      <trkpt lat="47.98514" lon="8.80148">
        <ele>643</ele>
        <time>2022-05-23T20:04:38Z</time>
      </trkpt>
      <trkpt lat="47.98507" lon="8.8016">
        <ele>643</ele>
        <time>2022-05-23T20:04:40Z</time>
      </trkpt>
      <trkpt lat="47.98504" lon="8.80176">
        <ele>643</ele>
        <time>2022-05-23T20:04:42Z</time>
      </trkpt>
      <trkpt lat="47.98507" lon="8.80189">
        <ele>643</ele>
        <time>2022-05-23T20:04:44Z</time>
      </trkpt>
      <trkpt lat="47.98496" lon="8.80244">
        <ele>643</ele>
        <time>2022-05-23T20:04:51Z</time>
      </trkpt>
      <trkpt lat="47.98491" lon="8.80261">
        <ele>644</ele>
        <time>2022-05-23T20:04:53Z</time>
      </trkpt>
      <trkpt lat="47.98484" lon="8.80274">
        <ele>644</ele>
        <time>2022-05-23T20:04:55Z</time>
      </trkpt>
      <trkpt lat="47.98484" lon="8.80289">
        <ele>644</ele>
        <time>2022-05-23T20:04:57Z</time>
      </trkpt>
      <trkpt lat="47.98464" lon="8.80345">
        <ele>644</ele>
        <time>2022-05-23T20:05:04Z</time>
      </trkpt>
      <trkpt lat="47.9845" lon="8.80371">
        <ele>645</ele>
        <time>2022-05-23T20:05:08Z</time>
      </trkpt>
      <trkpt lat="47.98447" lon="8.80392">
        <ele>644</ele>
        <time>2022-05-23T20:05:11Z</time>
      </trkpt>
      <trkpt lat="47.98426" lon="8.80447">
        <ele>644</ele>
        <time>2022-05-23T20:05:18Z</time>
      </trkpt>
      <trkpt lat="47.98394" lon="8.80561">
        <ele>646</ele>
        <time>2022-05-23T20:05:33Z</time>
      </trkpt>
      <trkpt lat="47.98391" lon="8.80603">
        <ele>645</ele>
        <time>2022-05-23T20:05:38Z</time>
      </trkpt>
      <trkpt lat="47.98404" lon="8.80735">
        <ele>641</ele>
        <time>2022-05-23T20:05:54Z</time>
      </trkpt>
      <trkpt lat="47.98398" lon="8.8085">
        <ele>644</ele>
        <time>2022-05-23T20:06:08Z</time>
      </trkpt>
      <trkpt lat="47.98388" lon="8.80825">
        <ele>644</ele>
        <time>2022-05-23T20:06:11Z</time>
      </trkpt>
      <trkpt lat="47.9838" lon="8.80818">
        <ele>645</ele>
        <time>2022-05-23T20:06:13Z</time>
      </trkpt>
      <trkpt lat="47.98395" lon="8.80853">
        <ele>644</ele>
        <time>2022-05-23T20:06:18Z</time>
      </trkpt>
      <trkpt lat="47.98403" lon="8.80847">
        <ele>643</ele>
        <time>2022-05-23T20:06:19Z</time>
      </trkpt>
      <trkpt lat="47.98401" lon="8.80893">
        <ele>644</ele>
        <time>2022-05-23T20:06:25Z</time>
      </trkpt>
      <trkpt lat="47.9841" lon="8.80985">
        <ele>644</ele>
        <time>2022-05-23T20:06:36Z</time>
      </trkpt>
      <trkpt lat="47.98427" lon="8.81079">
        <ele>646</ele>
        <time>2022-05-23T20:06:47Z</time>
      </trkpt>
      <trkpt lat="47.98429" lon="8.81111">
        <ele>645</ele>
        <time>2022-05-23T20:06:51Z</time>
      </trkpt>
      <trkpt lat="47.98457" lon="8.81275">
        <ele>644</ele>
        <time>2022-05-23T20:07:11Z</time>
      </trkpt>
      <trkpt lat="47.98476" lon="8.81348">
        <ele>645</ele>
        <time>2022-05-23T20:07:21Z</time>
      </trkpt>
      <trkpt lat="47.98497" lon="8.81416">
        <ele>644</ele>
        <time>2022-05-23T20:07:30Z</time>
      </trkpt>
      <trkpt lat="47.9853" lon="8.8149">
        <ele>645</ele>
        <time>2022-05-23T20:07:40Z</time>
      </trkpt>
      <trkpt lat="47.9856" lon="8.81574">
        <ele>644</ele>
        <time>2022-05-23T20:07:52Z</time>
      </trkpt>
      <trkpt lat="47.98583" lon="8.81679">
        <ele>646</ele>
        <time>2022-05-23T20:08:05Z</time>
      </trkpt>
      <trkpt lat="47.98593" lon="8.81705">
        <ele>647</ele>
        <time>2022-05-23T20:08:08Z</time>
      </trkpt>
      <trkpt lat="47.98608" lon="8.81725">
        <ele>647</ele>
        <time>2022-05-23T20:08:12Z</time>
      </trkpt>
      <trkpt lat="47.98621" lon="8.81748">
        <ele>647</ele>
        <time>2022-05-23T20:08:15Z</time>
      </trkpt>
      <trkpt lat="47.98644" lon="8.81803">
        <ele>647</ele>
        <time>2022-05-23T20:08:23Z</time>
      </trkpt>
      <trkpt lat="47.98666" lon="8.81837">
        <ele>646</ele>
        <time>2022-05-23T20:08:29Z</time>
      </trkpt>
      <trkpt lat="47.98689" lon="8.81889">
        <ele>647</ele>
        <time>2022-05-23T20:08:36Z</time>
      </trkpt>
      <trkpt lat="47.98692" lon="8.81902">
        <ele>647</ele>
        <time>2022-05-23T20:08:38Z</time>
      </trkpt>
      <trkpt lat="47.98686" lon="8.8193">
        <ele>646</ele>
        <time>2022-05-23T20:08:41Z</time>
      </trkpt>
      <trkpt lat="47.98689" lon="8.81959">
        <ele>645</ele>
        <time>2022-05-23T20:08:45Z</time>
      </trkpt>
      <trkpt lat="47.98687" lon="8.81975">
        <ele>644</ele>
        <time>2022-05-23T20:08:47Z</time>
      </trkpt>
      <trkpt lat="47.98692" lon="8.82026">
        <ele>644</ele>
        <time>2022-05-23T20:08:53Z</time>
      </trkpt>
      <trkpt lat="47.98706" lon="8.82108">
        <ele>645</ele>
        <time>2022-05-23T20:09:03Z</time>
      </trkpt>
      <trkpt lat="47.98447" lon="8.81869">
        <ele>648</ele>
        <time>2022-05-23T20:09:57Z</time>
      </trkpt>
      <trkpt lat="47.98449" lon="8.81863">
        <ele>648</ele>
        <time>2022-05-23T20:09:58Z</time>
      </trkpt>
      <trkpt lat="47.98487" lon="8.81847">
        <ele>648</ele>
        <time>2022-05-23T20:10:05Z</time>
      </trkpt>
      <trkpt lat="47.98543" lon="8.81818">
        <ele>647</ele>
        <time>2022-05-23T20:10:16Z</time>
      </trkpt>
      <trkpt lat="47.98567" lon="8.8181">
        <ele>647</ele>
        <time>2022-05-23T20:10:20Z</time>
      </trkpt>
      <trkpt lat="47.98571" lon="8.81805">
        <ele>646</ele>
        <time>2022-05-23T20:10:21Z</time>
      </trkpt>
      <trkpt lat="47.98627" lon="8.81765">
        <ele>647</ele>
        <time>2022-05-23T20:10:32Z</time>
      </trkpt>
      <trkpt lat="47.98639" lon="8.81809">
        <ele>646</ele>
        <time>2022-05-23T20:10:38Z</time>
      </trkpt>
      <trkpt lat="47.98653" lon="8.81831">
        <ele>646</ele>
        <time>2022-05-23T20:10:41Z</time>
      </trkpt>
      <trkpt lat="47.9868" lon="8.81918">
        <ele>646</ele>
        <time>2022-05-23T20:10:53Z</time>
      </trkpt>
      <trkpt lat="47.98673" lon="8.8194">
        <ele>645</ele>
        <time>2022-05-23T20:10:55Z</time>
      </trkpt>
      <trkpt lat="47.98685" lon="8.81995">
        <ele>644</ele>
        <time>2022-05-23T20:11:02Z</time>
      </trkpt>
      <trkpt lat="47.98706" lon="8.82143">
        <ele>645</ele>
        <time>2022-05-23T20:11:20Z</time>
      </trkpt>
      <trkpt lat="47.98704" lon="8.82318">
        <ele>643</ele>
        <time>2022-05-23T20:11:41Z</time>
      </trkpt>
      <trkpt lat="47.98699" lon="8.82325">
        <ele>643</ele>
        <time>2022-05-23T20:11:42Z</time>
      </trkpt>
      <trkpt lat="47.98699" lon="8.82341">
        <ele>643</ele>
        <time>2022-05-23T20:11:44Z</time>
      </trkpt>
      <trkpt lat="47.98758" lon="8.82636">
        <ele>645</ele>
        <time>2022-05-23T20:12:21Z</time>
      </trkpt>
      <trkpt lat="47.98775" lon="8.82675">
        <ele>644</ele>
        <time>2022-05-23T20:12:27Z</time>
      </trkpt>
      <trkpt lat="47.9891" lon="8.82888">
        <ele>643</ele>
        <time>2022-05-23T20:13:01Z</time>
      </trkpt>
      <trkpt lat="47.98976" lon="8.82989">
        <ele>643</ele>
        <time>2022-05-23T20:13:18Z</time>
      </trkpt>
      <trkpt lat="47.99028" lon="8.83037">
        <ele>643</ele>
        <time>2022-05-23T20:13:29Z</time>
      </trkpt>
      <trkpt lat="47.99063" lon="8.83058">
        <ele>644</ele>
        <time>2022-05-23T20:13:36Z</time>
      </trkpt>
      <trkpt lat="47.99105" lon="8.83074">
        <ele>645</ele>
        <time>2022-05-23T20:13:44Z</time>
      </trkpt>
      <trkpt lat="47.99203" lon="8.83085">
        <ele>644</ele>
        <time>2022-05-23T20:14:01Z</time>
      </trkpt>
      <trkpt lat="47.99559" lon="8.83106">
        <ele>641</ele>
        <time>2022-05-23T20:15:04Z</time>
      </trkpt>
      <trkpt lat="47.99699" lon="8.83121">
        <ele>641</ele>
        <time>2022-05-23T20:15:29Z</time>
      </trkpt>
      <trkpt lat="47.99816" lon="8.83117">
        <ele>640</ele>
        <time>2022-05-23T20:15:50Z</time>
      </trkpt>
      <trkpt lat="48.00107" lon="8.83067">
        <ele>639</ele>
        <time>2022-05-23T20:16:42Z</time>
      </trkpt>
      <trkpt lat="48.00132" lon="8.83058">
        <ele>639</ele>
        <time>2022-05-23T20:16:47Z</time>
      </trkpt>
      <trkpt lat="48.00173" lon="8.83035">
        <ele>638</ele>
        <time>2022-05-23T20:16:55Z</time>
      </trkpt>
      <trkpt lat="48.00187" lon="8.82997">
        <ele>637</ele>
        <time>2022-05-23T20:17:00Z</time>
      </trkpt>
      <trkpt lat="48.00191" lon="8.82957">
        <ele>637</ele>
        <time>2022-05-23T20:17:05Z</time>
      </trkpt>
      <trkpt lat="48.00169" lon="8.82881">
        <ele>638</ele>
        <time>2022-05-23T20:17:15Z</time>
      </trkpt>
      <trkpt lat="48.00163" lon="8.8278">
        <ele>639</ele>
        <time>2022-05-23T20:17:27Z</time>
      </trkpt>
      <trkpt lat="48.00179" lon="8.8278">
        <ele>639</ele>
        <time>2022-05-23T20:17:29Z</time>
      </trkpt>
      <trkpt lat="48.00201" lon="8.82793">
        <ele>638</ele>
        <time>2022-05-23T20:17:34Z</time>
      </trkpt>
      <trkpt lat="48.002" lon="8.82808">
        <ele>638</ele>
        <time>2022-05-23T20:17:36Z</time>
      </trkpt>
      <trkpt lat="48.00206" lon="8.82825">
        <ele>638</ele>
        <time>2022-05-23T20:17:38Z</time>
      </trkpt>
      <trkpt lat="48.00225" lon="8.8284">
        <ele>637</ele>
        <time>2022-05-23T20:17:42Z</time>
      </trkpt>
      <trkpt lat="48.00356" lon="8.82904">
        <ele>639</ele>
        <time>2022-05-23T20:18:06Z</time>
      </trkpt>
      <trkpt lat="48.00422" lon="8.82945">
        <ele>639</ele>
        <time>2022-05-23T20:18:19Z</time>
      </trkpt>
      <trkpt lat="48.00476" lon="8.82991">
        <ele>639</ele>
        <time>2022-05-23T20:18:30Z</time>
      </trkpt>
      <trkpt lat="48.00513" lon="8.83036">
        <ele>639</ele>
        <time>2022-05-23T20:18:38Z</time>
      </trkpt>
      <trkpt lat="48.00577" lon="8.83131">
        <ele>639</ele>
        <time>2022-05-23T20:18:54Z</time>
      </trkpt>
      <trkpt lat="48.00611" lon="8.83196">
        <ele>638</ele>
        <time>2022-05-23T20:19:04Z</time>
      </trkpt>
      <trkpt lat="48.00642" lon="8.83269">
        <ele>637</ele>
        <time>2022-05-23T20:19:15Z</time>
      </trkpt>
      <trkpt lat="48.00678" lon="8.83413">
        <ele>637</ele>
        <time>2022-05-23T20:19:33Z</time>
      </trkpt>
      <trkpt lat="48.00695" lon="8.83513">
        <ele>637</ele>
        <time>2022-05-23T20:19:45Z</time>
      </trkpt>
      <trkpt lat="48.00697" lon="8.83631">
        <ele>636</ele>
        <time>2022-05-23T20:19:59Z</time>
      </trkpt>
      <trkpt lat="48.00692" lon="8.83771">
        <ele>637</ele>
        <time>2022-05-23T20:20:16Z</time>
      </trkpt>
      <trkpt lat="48.00679" lon="8.83847">
        <ele>637</ele>
        <time>2022-05-23T20:20:25Z</time>
      </trkpt>
      <trkpt lat="48.00658" lon="8.83928">
        <ele>637</ele>
        <time>2022-05-23T20:20:36Z</time>
      </trkpt>
      <trkpt lat="48.00565" lon="8.8423">
        <ele>639</ele>
        <time>2022-05-23T20:21:15Z</time>
      </trkpt>
      <trkpt lat="48.00552" lon="8.84289">
        <ele>640</ele>
        <time>2022-05-23T20:21:23Z</time>
      </trkpt>
      <trkpt lat="48.00541" lon="8.84354">
        <ele>640</ele>
        <time>2022-05-23T20:21:31Z</time>
      </trkpt>
      <trkpt lat="48.00531" lon="8.84486">
        <ele>641</ele>
        <time>2022-05-23T20:21:46Z</time>
      </trkpt>
      <trkpt lat="48.0054" lon="8.84626">
        <ele>640</ele>
        <time>2022-05-23T20:22:03Z</time>
      </trkpt>
      <trkpt lat="48.00564" lon="8.84764">
        <ele>640</ele>
        <time>2022-05-23T20:22:20Z</time>
      </trkpt>
      <trkpt lat="48.00581" lon="8.84827">
        <ele>641</ele>
        <time>2022-05-23T20:22:28Z</time>
      </trkpt>
      <trkpt lat="48.00625" lon="8.84939">
        <ele>642</ele>
        <time>2022-05-23T20:22:44Z</time>
      </trkpt>
      <trkpt lat="48.0066" lon="8.8501">
        <ele>642</ele>
        <time>2022-05-23T20:22:54Z</time>
      </trkpt>
      <trkpt lat="48.00686" lon="8.85037">
        <ele>642</ele>
        <time>2022-05-23T20:23:00Z</time>
      </trkpt>
      <trkpt lat="48.00688" lon="8.85047">
        <ele>642</ele>
        <time>2022-05-23T20:23:01Z</time>
      </trkpt>
      <trkpt lat="48.00672" lon="8.85162">
        <ele>640</ele>
        <time>2022-05-23T20:23:15Z</time>
      </trkpt>
      <trkpt lat="48.00647" lon="8.85154">
        <ele>640</ele>
        <time>2022-05-23T20:23:20Z</time>
      </trkpt>
      <trkpt lat="48.00632" lon="8.85159">
        <ele>640</ele>
        <time>2022-05-23T20:23:22Z</time>
      </trkpt>
      <trkpt lat="48.00607" lon="8.85184">
        <ele>640</ele>
        <time>2022-05-23T20:23:28Z</time>
      </trkpt>
      <trkpt lat="48.00566" lon="8.85211">
        <ele>640</ele>
        <time>2022-05-23T20:23:36Z</time>
      </trkpt>
      <trkpt lat="48.00583" lon="8.85299">
        <ele>638</ele>
        <time>2022-05-23T20:23:46Z</time>
      </trkpt>
      <trkpt lat="48.00597" lon="8.85336">
        <ele>638</ele>
        <time>2022-05-23T20:23:52Z</time>
      </trkpt>
      <trkpt lat="48.00628" lon="8.85378">
        <ele>638</ele>
        <time>2022-05-23T20:23:59Z</time>
      </trkpt>
      <trkpt lat="48.00661" lon="8.85408">
        <ele>638</ele>
        <time>2022-05-23T20:24:06Z</time>
      </trkpt>
      <trkpt lat="48.00714" lon="8.85494">
        <ele>637</ele>
        <time>2022-05-23T20:24:20Z</time>
      </trkpt>
      <trkpt lat="48.00787" lon="8.85616">
        <ele>637</ele>
        <time>2022-05-23T20:24:39Z</time>
      </trkpt>
      <trkpt lat="48.0086" lon="8.8577">
        <ele>636</ele>
        <time>2022-05-23T20:25:02Z</time>
      </trkpt>
      <trkpt lat="48.00993" lon="8.85991">
        <ele>635</ele>
        <time>2022-05-23T20:25:37Z</time>
      </trkpt>
      <trkpt lat="48.01038" lon="8.86019">
        <ele>634</ele>
        <time>2022-05-23T20:25:46Z</time>
      </trkpt>
      <trkpt lat="48.01324" lon="8.86335">
        <ele>634</ele>
        <time>2022-05-23T20:26:49Z</time>
      </trkpt>
      <trkpt lat="48.01361" lon="8.8639">
        <ele>634</ele>
        <time>2022-05-23T20:26:58Z</time>
      </trkpt>
      <trkpt lat="48.01552" lon="8.86722">
        <ele>632</ele>
        <time>2022-05-23T20:27:50Z</time>
      </trkpt>
      <trkpt lat="48.01614" lon="8.86858">
        <ele>632</ele>
        <time>2022-05-23T20:28:10Z</time>
      </trkpt>
      <trkpt lat="48.01661" lon="8.86937">
        <ele>633</ele>
        <time>2022-05-23T20:28:23Z</time>
      </trkpt>
      <trkpt lat="48.01701" lon="8.86994">
        <ele>632</ele>
        <time>2022-05-23T20:28:32Z</time>
      </trkpt>
      <trkpt lat="48.0171" lon="8.87055">
        <ele>632</ele>
        <time>2022-05-23T20:28:40Z</time>
      </trkpt>
      <trkpt lat="48.01736" lon="8.8714">
        <ele>633</ele>
        <time>2022-05-23T20:28:51Z</time>
      </trkpt>
      <trkpt lat="48.01768" lon="8.87224">
        <ele>632</ele>
        <time>2022-05-23T20:29:03Z</time>
      </trkpt>
      <trkpt lat="48.01802" lon="8.87288">
        <ele>632</ele>
        <time>2022-05-23T20:29:12Z</time>
      </trkpt>
      <trkpt lat="48.01839" lon="8.87322">
        <ele>633</ele>
        <time>2022-05-23T20:29:20Z</time>
      </trkpt>
      <trkpt lat="48.01879" lon="8.87346">
        <ele>633</ele>
        <time>2022-05-23T20:29:28Z</time>
      </trkpt>
      <trkpt lat="48.01921" lon="8.87382">
        <ele>632</ele>
        <time>2022-05-23T20:29:36Z</time>
      </trkpt>
      <trkpt lat="48.01948" lon="8.87379">
        <ele>634</ele>
        <time>2022-05-23T20:29:41Z</time>
      </trkpt>
      <trkpt lat="48.02007" lon="8.8733">
        <ele>638</ele>
        <time>2022-05-23T20:29:53Z</time>
      </trkpt>
      <trkpt lat="48.02023" lon="8.8732">
        <ele>638</ele>
        <time>2022-05-23T20:29:56Z</time>
      </trkpt>
      <trkpt lat="48.02042" lon="8.87313">
        <ele>638</ele>
        <time>2022-05-23T20:30:00Z</time>
      </trkpt>
      <trkpt lat="48.02081" lon="8.87304">
        <ele>639</ele>
        <time>2022-05-23T20:30:07Z</time>
      </trkpt>
      <trkpt lat="48.02187" lon="8.87295">
        <ele>643</ele>
        <time>2022-05-23T20:30:26Z</time>
      </trkpt>
      <trkpt lat="48.02195" lon="8.87303">
        <ele>643</ele>
        <time>2022-05-23T20:30:27Z</time>
      </trkpt>
      <trkpt lat="48.02245" lon="8.87265">
        <ele>644</ele>
        <time>2022-05-23T20:30:37Z</time>
      </trkpt>
      <trkpt lat="48.02297" lon="8.87216">
        <ele>645</ele>
        <time>2022-05-23T20:30:48Z</time>
      </trkpt>
      <trkpt lat="48.02331" lon="8.87312">
        <ele>644</ele>
        <time>2022-05-23T20:31:01Z</time>
      </trkpt>
      <trkpt lat="48.02363" lon="8.87379">
        <ele>643</ele>
        <time>2022-05-23T20:31:11Z</time>
      </trkpt>
      <trkpt lat="48.02431" lon="8.8756">
        <ele>640</ele>
        <time>2022-05-23T20:31:36Z</time>
      </trkpt>
      <trkpt lat="48.02447" lon="8.87595">
        <ele>639</ele>
        <time>2022-05-23T20:31:41Z</time>
      </trkpt>
      <trkpt lat="48.02482" lon="8.87647">
        <ele>637</ele>
        <time>2022-05-23T20:31:49Z</time>
      </trkpt>
      <trkpt lat="48.02505" lon="8.87718">
        <ele>635</ele>
        <time>2022-05-23T20:31:59Z</time>
      </trkpt>
      <trkpt lat="48.02573" lon="8.87877">
        <ele>634</ele>
        <time>2022-05-23T20:32:21Z</time>
      </trkpt>
      <trkpt lat="48.02663" lon="8.88007">
        <ele>636</ele>
        <time>2022-05-23T20:32:44Z</time>
      </trkpt>
      <trkpt lat="48.02812" lon="8.88208">
        <ele>638</ele>
        <time>2022-05-23T20:33:19Z</time>
      </trkpt>
      <trkpt lat="48.02928" lon="8.88381">
        <ele>639</ele>
        <time>2022-05-23T20:33:48Z</time>
      </trkpt>
      <trkpt lat="48.0295" lon="8.88419">
        <ele>639</ele>
        <time>2022-05-23T20:33:54Z</time>
      </trkpt>
      <trkpt lat="48.03" lon="8.88523">
        <ele>639</ele>
        <time>2022-05-23T20:34:10Z</time>
      </trkpt>
      <trkpt lat="48.03043" lon="8.88597">
        <ele>638</ele>
        <time>2022-05-23T20:34:21Z</time>
      </trkpt>
      <trkpt lat="48.0305" lon="8.88628">
        <ele>638</ele>
        <time>2022-05-23T20:34:25Z</time>
      </trkpt>
      <trkpt lat="48.03074" lon="8.88621">
        <ele>638</ele>
        <time>2022-05-23T20:34:30Z</time>
      </trkpt>
      <trkpt lat="48.03111" lon="8.8862">
        <ele>638</ele>
        <time>2022-05-23T20:34:36Z</time>
      </trkpt>
      <trkpt lat="48.03176" lon="8.88635">
        <ele>638</ele>
        <time>2022-05-23T20:34:48Z</time>
      </trkpt>
      <trkpt lat="48.03234" lon="8.88666">
        <ele>639</ele>
        <time>2022-05-23T20:34:59Z</time>
      </trkpt>
      <trkpt lat="48.03236" lon="8.88675">
        <ele>639</ele>
        <time>2022-05-23T20:35:00Z</time>
      </trkpt>
      <trkpt lat="48.03304" lon="8.88721">
        <ele>638</ele>
        <time>2022-05-23T20:35:13Z</time>
      </trkpt>
      <trkpt lat="48.03332" lon="8.88747">
        <ele>638</ele>
        <time>2022-05-23T20:35:19Z</time>
      </trkpt>
      <trkpt lat="48.03334" lon="8.88764">
        <ele>638</ele>
        <time>2022-05-23T20:35:21Z</time>
      </trkpt>
      <trkpt lat="48.03341" lon="8.88774">
        <ele>638</ele>
        <time>2022-05-23T20:35:23Z</time>
      </trkpt>
      <trkpt lat="48.03338" lon="8.88785">
        <ele>638</ele>
        <time>2022-05-23T20:35:24Z</time>
      </trkpt>
      <trkpt lat="48.03468" lon="8.89011">
        <ele>635</ele>
        <time>2022-05-23T20:36:00Z</time>
      </trkpt>
      <trkpt lat="48.035" lon="8.8909">
        <ele>634</ele>
        <time>2022-05-23T20:36:11Z</time>
      </trkpt>
      <trkpt lat="48.03517" lon="8.89117">
        <ele>635</ele>
        <time>2022-05-23T20:36:15Z</time>
      </trkpt>
      <trkpt lat="48.03536" lon="8.89138">
        <ele>635</ele>
        <time>2022-05-23T20:36:19Z</time>
      </trkpt>
      <trkpt lat="48.03594" lon="8.89165">
        <ele>638</ele>
        <time>2022-05-23T20:36:30Z</time>
      </trkpt>
      <trkpt lat="48.0371" lon="8.89204">
        <ele>646</ele>
        <time>2022-05-23T20:36:51Z</time>
      </trkpt>
      <trkpt lat="48.03733" lon="8.89209">
        <ele>648</ele>
        <time>2022-05-23T20:36:55Z</time>
      </trkpt>
      <trkpt lat="48.03732" lon="8.89305">
        <ele>649</ele>
        <time>2022-05-23T20:37:07Z</time>
      </trkpt>
      <trkpt lat="48.03742" lon="8.89367">
        <ele>648</ele>
        <time>2022-05-23T20:37:14Z</time>
      </trkpt>
      <trkpt lat="48.03746" lon="8.89419">
        <ele>645</ele>
        <time>2022-05-23T20:37:21Z</time>
      </trkpt>
      <trkpt lat="48.03746" lon="8.89629">
        <ele>644</ele>
        <time>2022-05-23T20:37:46Z</time>
      </trkpt>
      <trkpt lat="48.03736" lon="8.89698">
        <ele>647</ele>
        <time>2022-05-23T20:37:54Z</time>
      </trkpt>
      <trkpt lat="48.03711" lon="8.89782">
        <ele>648</ele>
        <time>2022-05-23T20:38:05Z</time>
      </trkpt>
      <trkpt lat="48.03594" lon="8.90018">
        <ele>644</ele>
        <time>2022-05-23T20:38:40Z</time>
      </trkpt>
      <trkpt lat="48.03572" lon="8.90052">
        <ele>645</ele>
        <time>2022-05-23T20:38:46Z</time>
      </trkpt>
      <trkpt lat="48.03493" lon="8.90188">
        <ele>646</ele>
        <time>2022-05-23T20:39:07Z</time>
      </trkpt>
      <trkpt lat="48.03334" lon="8.90359">
        <ele>643</ele>
        <time>2022-05-23T20:39:42Z</time>
      </trkpt>
      <trkpt lat="48.03195" lon="8.9044">
        <ele>643</ele>
        <time>2022-05-23T20:40:08Z</time>
      </trkpt>
      <trkpt lat="48.03062" lon="8.90492">
        <ele>637</ele>
        <time>2022-05-23T20:40:33Z</time>
      </trkpt>
      <trkpt lat="48.03011" lon="8.9057">
        <ele>635</ele>
        <time>2022-05-23T20:40:46Z</time>
      </trkpt>
      <trkpt lat="48.0298" lon="8.90655">
        <ele>633</ele>
        <time>2022-05-23T20:40:57Z</time>
      </trkpt>
      <trkpt lat="48.0297" lon="8.9071">
        <ele>632</ele>
        <time>2022-05-23T20:41:04Z</time>
      </trkpt>
      <trkpt lat="48.02989" lon="8.90762">
        <ele>633</ele>
        <time>2022-05-23T20:41:11Z</time>
      </trkpt>
      <trkpt lat="48.03103" lon="8.90922">
        <ele>638</ele>
        <time>2022-05-23T20:41:39Z</time>
      </trkpt>
      <trkpt lat="48.03231" lon="8.91058">
        <ele>640</ele>
        <time>2022-05-23T20:42:07Z</time>
      </trkpt>
      <trkpt lat="48.03272" lon="8.91107">
        <ele>639</ele>
        <time>2022-05-23T20:42:16Z</time>
      </trkpt>
      <trkpt lat="48.03299" lon="8.91149">
        <ele>637</ele>
        <time>2022-05-23T20:42:23Z</time>
      </trkpt>
      <trkpt lat="48.03413" lon="8.91231">
        <ele>638</ele>
        <time>2022-05-23T20:42:46Z</time>
      </trkpt>
      <trkpt lat="48.03466" lon="8.91294">
        <ele>637</ele>
        <time>2022-05-23T20:42:58Z</time>
      </trkpt>
      <trkpt lat="48.03496" lon="8.91354">
        <ele>631</ele>
        <time>2022-05-23T20:43:07Z</time>
      </trkpt>
      <trkpt lat="48.03509" lon="8.91396">
        <ele>630</ele>
        <time>2022-05-23T20:43:12Z</time>
      </trkpt>
      <trkpt lat="48.03534" lon="8.91452">
        <ele>630</ele>
        <time>2022-05-23T20:43:20Z</time>
      </trkpt>
      <trkpt lat="48.03611" lon="8.91518">
        <ele>641</ele>
        <time>2022-05-23T20:43:36Z</time>
      </trkpt>
      <trkpt lat="48.03629" lon="8.91546">
        <ele>645</ele>
        <time>2022-05-23T20:43:41Z</time>
      </trkpt>
      <trkpt lat="48.03694" lon="8.91733">
        <ele>648</ele>
        <time>2022-05-23T20:44:06Z</time>
      </trkpt>
      <trkpt lat="48.03735" lon="8.91886">
        <ele>645</ele>
        <time>2022-05-23T20:44:25Z</time>
      </trkpt>
      <trkpt lat="48.03751" lon="8.91975">
        <ele>645</ele>
        <time>2022-05-23T20:44:36Z</time>
      </trkpt>
      <trkpt lat="48.03754" lon="8.9202">
        <ele>647</ele>
        <time>2022-05-23T20:44:42Z</time>
      </trkpt>
      <trkpt lat="48.03736" lon="8.92209">
        <ele>645</ele>
        <time>2022-05-23T20:45:04Z</time>
      </trkpt>
      <trkpt lat="48.03731" lon="8.92338">
        <ele>649</ele>
        <time>2022-05-23T20:45:20Z</time>
      </trkpt>
      <trkpt lat="48.037" lon="8.92487">
        <ele>649</ele>
        <time>2022-05-23T20:45:38Z</time>
      </trkpt>
      <trkpt lat="48.03671" lon="8.92567">
        <ele>648</ele>
        <time>2022-05-23T20:45:49Z</time>
      </trkpt>
      <trkpt lat="48.03434" lon="8.92932">
        <ele>640</ele>
        <time>2022-05-23T20:46:50Z</time>
      </trkpt>
      <trkpt lat="48.0333" lon="8.9304">
        <ele>634</ele>
        <time>2022-05-23T20:47:12Z</time>
      </trkpt>
      <trkpt lat="48.033" lon="8.93019">
        <ele>629</ele>
        <time>2022-05-23T20:47:18Z</time>
      </trkpt>
      <trkpt lat="48.03284" lon="8.93016">
        <ele>628</ele>
        <time>2022-05-23T20:47:21Z</time>
      </trkpt>
      <trkpt lat="48.0323" lon="8.93038">
        <ele>626</ele>
        <time>2022-05-23T20:47:31Z</time>
      </trkpt>
      <trkpt lat="48.03158" lon="8.93094">
        <ele>627</ele>
        <time>2022-05-23T20:47:45Z</time>
      </trkpt>
      <trkpt lat="48.03116" lon="8.93148">
        <ele>626</ele>
        <time>2022-05-23T20:47:55Z</time>
      </trkpt>
      <trkpt lat="48.03097" lon="8.93181">
        <ele>626</ele>
        <time>2022-05-23T20:48:00Z</time>
      </trkpt>
      <trkpt lat="48.03054" lon="8.93277">
        <ele>625</ele>
        <time>2022-05-23T20:48:14Z</time>
      </trkpt>
      <trkpt lat="48.0298" lon="8.93365">
        <ele>625</ele>
        <time>2022-05-23T20:48:31Z</time>
      </trkpt>
      <trkpt lat="48.02932" lon="8.93437">
        <ele>625</ele>
        <time>2022-05-23T20:48:43Z</time>
      </trkpt>
      <trkpt lat="48.02931" lon="8.93446">
        <ele>625</ele>
        <time>2022-05-23T20:48:44Z</time>
      </trkpt>
      <trkpt lat="48.02902" lon="8.93489">
        <ele>626</ele>
        <time>2022-05-23T20:48:51Z</time>
      </trkpt>
      <trkpt lat="48.02886" lon="8.93504">
        <ele>626</ele>
        <time>2022-05-23T20:48:55Z</time>
      </trkpt>
      <trkpt lat="48.02848" lon="8.93523">
        <ele>628</ele>
        <time>2022-05-23T20:49:02Z</time>
      </trkpt>
      <trkpt lat="48.02833" lon="8.93539">
        <ele>630</ele>
        <time>2022-05-23T20:49:05Z</time>
      </trkpt>
      <trkpt lat="48.02828" lon="8.93553">
        <ele>631</ele>
        <time>2022-05-23T20:49:07Z</time>
      </trkpt>
      <trkpt lat="48.02775" lon="8.93547">
        <ele>632</ele>
        <time>2022-05-23T20:49:17Z</time>
      </trkpt>
      <trkpt lat="48.02718" lon="8.93551">
        <ele>635</ele>
        <time>2022-05-23T20:49:27Z</time>
      </trkpt>
      <trkpt lat="48.02662" lon="8.93543">
        <ele>635</ele>
        <time>2022-05-23T20:49:37Z</time>
      </trkpt>
      <trkpt lat="48.02652" lon="8.93539">
        <ele>636</ele>
        <time>2022-05-23T20:49:39Z</time>
      </trkpt>
      <trkpt lat="48.0265" lon="8.93548">
        <ele>638</ele>
        <time>2022-05-23T20:49:40Z</time>
      </trkpt>
      <trkpt lat="48.02642" lon="8.93561">
        <ele>642</ele>
        <time>2022-05-23T20:49:42Z</time>
      </trkpt>
      <trkpt lat="48.02635" lon="8.93563">
        <ele>644</ele>
        <time>2022-05-23T20:49:43Z</time>
      </trkpt>
      <trkpt lat="48.02587" lon="8.93532">
        <ele>644</ele>
        <time>2022-05-23T20:49:52Z</time>
      </trkpt>
      <trkpt lat="48.02523" lon="8.93496">
        <ele>649</ele>
        <time>2022-05-23T20:50:04Z</time>
      </trkpt>
      <trkpt lat="48.02353" lon="8.9346">
        <ele>656</ele>
        <time>2022-05-23T20:50:35Z</time>
      </trkpt>
      <trkpt lat="48.02213" lon="8.9353">
        <ele>669</ele>
        <time>2022-05-23T20:51:01Z</time>
      </trkpt>
      <trkpt lat="48.02132" lon="8.93588">
        <ele>676</ele>
        <time>2022-05-23T20:51:17Z</time>
      </trkpt>
      <trkpt lat="48.02069" lon="8.93643">
        <ele>682</ele>
        <time>2022-05-23T20:51:30Z</time>
      </trkpt>
      <trkpt lat="48.02008" lon="8.93654">
        <ele>677</ele>
        <time>2022-05-23T20:51:41Z</time>
      </trkpt>
      <trkpt lat="48.01985" lon="8.93667">
        <ele>676</ele>
        <time>2022-05-23T20:51:46Z</time>
      </trkpt>
      <trkpt lat="48.01974" lon="8.93679">
        <ele>677</ele>
        <time>2022-05-23T20:51:48Z</time>
      </trkpt>
      <trkpt lat="48.01973" lon="8.937">
        <ele>682</ele>
        <time>2022-05-23T20:51:50Z</time>
      </trkpt>
      <trkpt lat="48.01982" lon="8.93711">
        <ele>687</ele>
        <time>2022-05-23T20:51:53Z</time>
      </trkpt>
      <trkpt lat="48.02082" lon="8.93684">
        <ele>696</ele>
        <time>2022-05-23T20:52:11Z</time>
      </trkpt>
      <trkpt lat="48.02156" lon="8.9364">
        <ele>696</ele>
        <time>2022-05-23T20:52:25Z</time>
      </trkpt>
      <trkpt lat="48.02279" lon="8.93608">
        <ele>703</ele>
        <time>2022-05-23T20:52:47Z</time>
      </trkpt>
      <trkpt lat="48.0243" lon="8.93631">
        <ele>711</ele>
        <time>2022-05-23T20:53:14Z</time>
      </trkpt>
      <trkpt lat="48.02485" lon="8.93647">
        <ele>710</ele>
        <time>2022-05-23T20:53:24Z</time>
      </trkpt>
      <trkpt lat="48.02495" lon="8.93659">
        <ele>712</ele>
        <time>2022-05-23T20:53:26Z</time>
      </trkpt>
      <trkpt lat="48.02504" lon="8.93682">
        <ele>716</ele>
        <time>2022-05-23T20:53:29Z</time>
      </trkpt>
      <trkpt lat="48.02518" lon="8.93766">
        <ele>728</ele>
        <time>2022-05-23T20:53:40Z</time>
      </trkpt>
      <trkpt lat="48.02564" lon="8.93863">
        <ele>727</ele>
        <time>2022-05-23T20:53:54Z</time>
      </trkpt>
      <trkpt lat="48.02569" lon="8.93946">
        <ele>740</ele>
        <time>2022-05-23T20:54:04Z</time>
      </trkpt>
      <trkpt lat="48.02597" lon="8.94021">
        <ele>741</ele>
        <time>2022-05-23T20:54:14Z</time>
      </trkpt>
      <trkpt lat="48.0262" lon="8.94106">
        <ele>751</ele>
        <time>2022-05-23T20:54:25Z</time>
      </trkpt>
      <trkpt lat="48.02627" lon="8.94117">
        <ele>752</ele>
        <time>2022-05-23T20:54:27Z</time>
      </trkpt>
      <trkpt lat="48.02676" lon="8.94136">
        <ele>746</ele>
        <time>2022-05-23T20:54:36Z</time>
      </trkpt>
      <trkpt lat="48.02697" lon="8.94181">
        <ele>752</ele>
        <time>2022-05-23T20:54:42Z</time>
      </trkpt>
      <trkpt lat="48.02761" lon="8.94424">
        <ele>766</ele>
        <time>2022-05-23T20:55:13Z</time>
      </trkpt>
      <trkpt lat="48.02793" lon="8.94495">
        <ele>766</ele>
        <time>2022-05-23T20:55:24Z</time>
      </trkpt>
      <trkpt lat="48.02823" lon="8.94643">
        <ele>773</ele>
        <time>2022-05-23T20:55:42Z</time>
      </trkpt>
      <trkpt lat="48.02925" lon="8.94866">
        <ele>772</ele>
        <time>2022-05-23T20:56:14Z</time>
      </trkpt>
      <trkpt lat="48.02972" lon="8.95041">
        <ele>773</ele>
        <time>2022-05-23T20:56:37Z</time>
      </trkpt>
      <trkpt lat="48.0298" lon="8.95051">
        <ele>772</ele>
        <time>2022-05-23T20:56:38Z</time>
      </trkpt>
      <trkpt lat="48.03016" lon="8.95054">
        <ele>771</ele>
        <time>2022-05-23T20:56:45Z</time>
      </trkpt>
      <trkpt lat="48.03199" lon="8.94992">
        <ele>775</ele>
        <time>2022-05-23T20:57:18Z</time>
      </trkpt>
      <trkpt lat="48.03258" lon="8.94959">
        <ele>778</ele>
        <time>2022-05-23T20:57:29Z</time>
      </trkpt>
      <trkpt lat="48.03301" lon="8.94939">
        <ele>776</ele>
        <time>2022-05-23T20:57:37Z</time>
      </trkpt>
      <trkpt lat="48.03357" lon="8.94936">
        <ele>774</ele>
        <time>2022-05-23T20:57:47Z</time>
      </trkpt>
      <trkpt lat="48.03588" lon="8.94955">
        <ele>772</ele>
        <time>2022-05-23T20:58:29Z</time>
      </trkpt>
      <trkpt lat="48.03866" lon="8.94964">
        <ele>774</ele>
        <time>2022-05-23T20:59:18Z</time>
      </trkpt>
      <trkpt lat="48.04084" lon="8.94977">
        <ele>781</ele>
        <time>2022-05-23T20:59:57Z</time>
      </trkpt>
      <trkpt lat="48.0443" lon="8.94986">
        <ele>781</ele>
        <time>2022-05-23T21:00:58Z</time>
      </trkpt>
      <trkpt lat="48.04472" lon="8.95014">
        <ele>783</ele>
        <time>2022-05-23T21:01:07Z</time>
      </trkpt>
      <trkpt lat="48.04635" lon="8.95113">
        <ele>780</ele>
        <time>2022-05-23T21:01:38Z</time>
      </trkpt>
      <trkpt lat="48.04676" lon="8.95131">
        <ele>779</ele>
        <time>2022-05-23T21:01:46Z</time>
      </trkpt>
      <trkpt lat="48.04718" lon="8.95129">
        <ele>778</ele>
        <time>2022-05-23T21:01:53Z</time>
      </trkpt>
      <trkpt lat="48.04729" lon="8.95134">
        <ele>778</ele>
        <time>2022-05-23T21:01:55Z</time>
      </trkpt>
      <trkpt lat="48.04735" lon="8.95148">
        <ele>778</ele>
        <time>2022-05-23T21:01:57Z</time>
      </trkpt>
      <trkpt lat="48.04767" lon="8.9515">
        <ele>778</ele>
        <time>2022-05-23T21:02:03Z</time>
      </trkpt>
      <trkpt lat="48.04772" lon="8.95142">
        <ele>777</ele>
        <time>2022-05-23T21:02:04Z</time>
      </trkpt>
      <trkpt lat="48.0478" lon="8.95138">
        <ele>776</ele>
        <time>2022-05-23T21:02:06Z</time>
      </trkpt>
      <trkpt lat="48.04798" lon="8.95143">
        <ele>775</ele>
        <time>2022-05-23T21:02:09Z</time>
      </trkpt>
      <trkpt lat="48.0478" lon="8.95138">
        <ele>776</ele>
        <time>2022-05-23T21:02:12Z</time>
      </trkpt>
      <trkpt lat="48.04772" lon="8.95142">
        <ele>777</ele>
        <time>2022-05-23T21:02:14Z</time>
      </trkpt>
      <trkpt lat="48.04767" lon="8.9515">
        <ele>778</ele>
        <time>2022-05-23T21:02:15Z</time>
      </trkpt>
      <trkpt lat="48.04735" lon="8.95148">
        <ele>778</ele>
        <time>2022-05-23T21:02:21Z</time>
      </trkpt>
      <trkpt lat="48.04735" lon="8.95158">
        <ele>778</ele>
        <time>2022-05-23T21:02:22Z</time>
      </trkpt>
      <trkpt lat="48.04725" lon="8.95178">
        <ele>777</ele>
        <time>2022-05-23T21:02:25Z</time>
      </trkpt>
      <trkpt lat="48.04686" lon="8.95171">
        <ele>775</ele>
        <time>2022-05-23T21:02:32Z</time>
      </trkpt>
      <trkpt lat="48.04632" lon="8.95193">
        <ele>768</ele>
        <time>2022-05-23T21:02:42Z</time>
      </trkpt>
      <trkpt lat="48.04575" lon="8.95173">
        <ele>767</ele>
        <time>2022-05-23T21:02:52Z</time>
      </trkpt>
      <trkpt lat="48.04522" lon="8.95183">
        <ele>766</ele>
        <time>2022-05-23T21:03:02Z</time>
      </trkpt>
      <trkpt lat="48.04503" lon="8.95198">
        <ele>764</ele>
        <time>2022-05-23T21:03:05Z</time>
      </trkpt>
      <trkpt lat="48.04457" lon="8.95256">
        <ele>759</ele>
        <time>2022-05-23T21:03:16Z</time>
      </trkpt>
      <trkpt lat="48.04374" lon="8.95305">
        <ele>757</ele>
        <time>2022-05-23T21:03:32Z</time>
      </trkpt>
      <trkpt lat="48.04347" lon="8.95347">
        <ele>753</ele>
        <time>2022-05-23T21:03:39Z</time>
      </trkpt>
      <trkpt lat="48.0429" lon="8.95487">
        <ele>748</ele>
        <time>2022-05-23T21:03:58Z</time>
      </trkpt>
      <trkpt lat="48.04281" lon="8.9553">
        <ele>744</ele>
        <time>2022-05-23T21:04:04Z</time>
      </trkpt>
      <trkpt lat="48.04285" lon="8.95572">
        <ele>739</ele>
        <time>2022-05-23T21:04:09Z</time>
      </trkpt>
      <trkpt lat="48.04315" lon="8.9571">
        <ele>725</ele>
        <time>2022-05-23T21:04:26Z</time>
      </trkpt>
      <trkpt lat="48.04335" lon="8.95741">
        <ele>725</ele>
        <time>2022-05-23T21:04:31Z</time>
      </trkpt>
      <trkpt lat="48.04383" lon="8.95743">
        <ele>726</ele>
        <time>2022-05-23T21:04:40Z</time>
      </trkpt>
      <trkpt lat="48.04397" lon="8.95749">
        <ele>726</ele>
        <time>2022-05-23T21:04:42Z</time>
      </trkpt>
      <trkpt lat="48.0442" lon="8.95772">
        <ele>725</ele>
        <time>2022-05-23T21:04:47Z</time>
      </trkpt>
      <trkpt lat="48.04457" lon="8.95865">
        <ele>711</ele>
        <time>2022-05-23T21:05:00Z</time>
      </trkpt>
      <trkpt lat="48.04476" lon="8.95871">
        <ele>710</ele>
        <time>2022-05-23T21:05:04Z</time>
      </trkpt>
      <trkpt lat="48.0451" lon="8.95867">
        <ele>711</ele>
        <time>2022-05-23T21:05:10Z</time>
      </trkpt>
      <trkpt lat="48.04556" lon="8.95799">
        <ele>721</ele>
        <time>2022-05-23T21:05:21Z</time>
      </trkpt>
      <trkpt lat="48.04574" lon="8.95795">
        <ele>721</ele>
        <time>2022-05-23T21:05:24Z</time>
      </trkpt>
      <trkpt lat="48.04585" lon="8.95801">
        <ele>721</ele>
        <time>2022-05-23T21:05:26Z</time>
      </trkpt>
      <trkpt lat="48.04595" lon="8.95827">
        <ele>720</ele>
        <time>2022-05-23T21:05:30Z</time>
      </trkpt>
      <trkpt lat="48.04618" lon="8.95942">
        <ele>704</ele>
        <time>2022-05-23T21:05:44Z</time>
      </trkpt>
      <trkpt lat="48.04634" lon="8.9597">
        <ele>700</ele>
        <time>2022-05-23T21:05:49Z</time>
      </trkpt>
      <trkpt lat="48.04654" lon="8.95991">
        <ele>699</ele>
        <time>2022-05-23T21:05:53Z</time>
      </trkpt>
      <trkpt lat="48.04775" lon="8.96039">
        <ele>699</ele>
        <time>2022-05-23T21:06:15Z</time>
      </trkpt>
      <trkpt lat="48.04934" lon="8.96131">
        <ele>686</ele>
        <time>2022-05-23T21:06:46Z</time>
      </trkpt>
      <trkpt lat="48.05152" lon="8.96282">
        <ele>660</ele>
        <time>2022-05-23T21:07:28Z</time>
      </trkpt>
      <trkpt lat="48.05172" lon="8.96284">
        <ele>661</ele>
        <time>2022-05-23T21:07:32Z</time>
      </trkpt>
      <trkpt lat="48.05211" lon="8.96278">
        <ele>667</ele>
        <time>2022-05-23T21:07:39Z</time>
      </trkpt>
      <trkpt lat="48.05225" lon="8.96287">
        <ele>665</ele>
        <time>2022-05-23T21:07:42Z</time>
      </trkpt>
      <trkpt lat="48.05265" lon="8.96335">
        <ele>652</ele>
        <time>2022-05-23T21:07:51Z</time>
      </trkpt>
      <trkpt lat="48.05291" lon="8.9635">
        <ele>651</ele>
        <time>2022-05-23T21:07:56Z</time>
      </trkpt>
      <trkpt lat="48.05361" lon="8.96373">
        <ele>653</ele>
        <time>2022-05-23T21:08:08Z</time>
      </trkpt>
      <trkpt lat="48.05379" lon="8.96385">
        <ele>650</ele>
        <time>2022-05-23T21:08:12Z</time>
      </trkpt>
      <trkpt lat="48.05404" lon="8.96425">
        <ele>640</ele>
        <time>2022-05-23T21:08:19Z</time>
      </trkpt>
      <trkpt lat="48.05395" lon="8.96446">
        <ele>636</ele>
        <time>2022-05-23T21:08:21Z</time>
      </trkpt>
      <trkpt lat="48.05377" lon="8.96453">
        <ele>634</ele>
        <time>2022-05-23T21:08:25Z</time>
      </trkpt>
      <trkpt lat="48.0533" lon="8.96411">
        <ele>642</ele>
        <time>2022-05-23T21:08:35Z</time>
      </trkpt>
      <trkpt lat="48.05259" lon="8.96363">
        <ele>642</ele>
        <time>2022-05-23T21:08:48Z</time>
      </trkpt>
      <trkpt lat="48.05248" lon="8.96357">
        <ele>642</ele>
        <time>2022-05-23T21:08:50Z</time>
      </trkpt>
      <trkpt lat="48.05237" lon="8.96366">
        <ele>638</ele>
        <time>2022-05-23T21:08:53Z</time>
      </trkpt>
      <trkpt lat="48.0524" lon="8.96375">
        <ele>635</ele>
        <time>2022-05-23T21:08:54Z</time>
      </trkpt>
      <trkpt lat="48.05264" lon="8.9639">
        <ele>633</ele>
        <time>2022-05-23T21:08:59Z</time>
      </trkpt>
      <trkpt lat="48.05313" lon="8.96438">
        <ele>631</ele>
        <time>2022-05-23T21:09:09Z</time>
      </trkpt>
      <trkpt lat="48.05365" lon="8.96518">
        <ele>622</ele>
        <time>2022-05-23T21:09:22Z</time>
      </trkpt>
      <trkpt lat="48.05384" lon="8.96558">
        <ele>621</ele>
        <time>2022-05-23T21:09:28Z</time>
      </trkpt>
      <trkpt lat="48.05455" lon="8.96673">
        <ele>628</ele>
        <time>2022-05-23T21:09:47Z</time>
      </trkpt>
      <trkpt lat="48.0546" lon="8.96706">
        <ele>624</ele>
        <time>2022-05-23T21:09:51Z</time>
      </trkpt>
      <trkpt lat="48.05457" lon="8.96724">
        <ele>620</ele>
        <time>2022-05-23T21:09:53Z</time>
      </trkpt>
      <trkpt lat="48.05445" lon="8.96745">
        <ele>615</ele>
        <time>2022-05-23T21:09:56Z</time>
      </trkpt>
      <trkpt lat="48.05321" lon="8.96786">
        <ele>611</ele>
        <time>2022-05-23T21:10:19Z</time>
      </trkpt>
      <trkpt lat="48.0526" lon="8.9682">
        <ele>612</ele>
        <time>2022-05-23T21:10:30Z</time>
      </trkpt>
      <trkpt lat="48.05215" lon="8.96861">
        <ele>616</ele>
        <time>2022-05-23T21:10:40Z</time>
      </trkpt>
      <trkpt lat="48.05188" lon="8.96897">
        <ele>620</ele>
        <time>2022-05-23T21:10:46Z</time>
      </trkpt>
      <trkpt lat="48.05141" lon="8.96953">
        <ele>625</ele>
        <time>2022-05-23T21:10:57Z</time>
      </trkpt>
      <trkpt lat="48.05096" lon="8.96993">
        <ele>629</ele>
        <time>2022-05-23T21:11:06Z</time>
      </trkpt>
      <trkpt lat="48.05073" lon="8.97004">
        <ele>630</ele>
        <time>2022-05-23T21:11:10Z</time>
      </trkpt>
      <trkpt lat="48.05047" lon="8.97003">
        <ele>630</ele>
        <time>2022-05-23T21:11:15Z</time>
      </trkpt>
      <trkpt lat="48.05007" lon="8.96983">
        <ele>631</ele>
        <time>2022-05-23T21:11:23Z</time>
      </trkpt>
      <trkpt lat="48.0495" lon="8.96972">
        <ele>634</ele>
        <time>2022-05-23T21:11:33Z</time>
      </trkpt>
      <trkpt lat="48.049" lon="8.9697">
        <ele>638</ele>
        <time>2022-05-23T21:11:42Z</time>
      </trkpt>
      <trkpt lat="48.04889" lon="8.96967">
        <ele>640</ele>
        <time>2022-05-23T21:11:44Z</time>
      </trkpt>
      <trkpt lat="48.04879" lon="8.97029">
        <ele>640</ele>
        <time>2022-05-23T21:11:51Z</time>
      </trkpt>
      <trkpt lat="48.04867" lon="8.97048">
        <ele>641</ele>
        <time>2022-05-23T21:11:54Z</time>
      </trkpt>
      <trkpt lat="48.04848" lon="8.9707">
        <ele>641</ele>
        <time>2022-05-23T21:11:59Z</time>
      </trkpt>
      <trkpt lat="48.04803" lon="8.971">
        <ele>654</ele>
        <time>2022-05-23T21:12:07Z</time>
      </trkpt>
      <trkpt lat="48.04787" lon="8.97129">
        <ele>658</ele>
        <time>2022-05-23T21:12:12Z</time>
      </trkpt>
      <trkpt lat="48.04765" lon="8.97291">
        <ele>646</ele>
        <time>2022-05-23T21:12:32Z</time>
      </trkpt>
      <trkpt lat="48.04776" lon="8.97391">
        <ele>632</ele>
        <time>2022-05-23T21:12:44Z</time>
      </trkpt>
      <trkpt lat="48.04772" lon="8.97474">
        <ele>630</ele>
        <time>2022-05-23T21:12:54Z</time>
      </trkpt>
      <trkpt lat="48.04754" lon="8.97611">
        <ele>635</ele>
        <time>2022-05-23T21:13:10Z</time>
      </trkpt>
      <trkpt lat="48.04756" lon="8.97667">
        <ele>634</ele>
        <time>2022-05-23T21:13:17Z</time>
      </trkpt>
      <trkpt lat="48.04777" lon="8.97868">
        <ele>639</ele>
        <time>2022-05-23T21:13:41Z</time>
      </trkpt>
      <trkpt lat="48.04812" lon="8.97988">
        <ele>631</ele>
        <time>2022-05-23T21:13:57Z</time>
      </trkpt>
      <trkpt lat="48.0486" lon="8.98087">
        <ele>628</ele>
        <time>2022-05-23T21:14:11Z</time>
      </trkpt>
      <trkpt lat="48.04887" lon="8.9812">
        <ele>630</ele>
        <time>2022-05-23T21:14:17Z</time>
      </trkpt>
      <trkpt lat="48.04914" lon="8.98146">
        <ele>628</ele>
        <time>2022-05-23T21:14:23Z</time>
      </trkpt>
      <trkpt lat="48.04965" lon="8.98173">
        <ele>623</ele>
        <time>2022-05-23T21:14:33Z</time>
      </trkpt>
      <trkpt lat="48.05016" lon="8.98183">
        <ele>620</ele>
        <time>2022-05-23T21:14:42Z</time>
      </trkpt>
      <trkpt lat="48.05098" lon="8.98182">
        <ele>622</ele>
        <time>2022-05-23T21:14:56Z</time>
      </trkpt>
      <trkpt lat="48.05371" lon="8.98213">
        <ele>623</ele>
        <time>2022-05-23T21:15:45Z</time>
      </trkpt>
      <trkpt lat="48.05418" lon="8.98224">
        <ele>620</ele>
        <time>2022-05-23T21:15:54Z</time>
      </trkpt>
      <trkpt lat="48.05475" lon="8.98261">
        <ele>615</ele>
        <time>2022-05-23T21:16:05Z</time>
      </trkpt>
      <trkpt lat="48.05533" lon="8.98334">
        <ele>613</ele>
        <time>2022-05-23T21:16:18Z</time>
      </trkpt>
      <trkpt lat="48.05545" lon="8.98359">
        <ele>612</ele>
        <time>2022-05-23T21:16:22Z</time>
      </trkpt>
      <trkpt lat="48.05557" lon="8.98431">
        <ele>612</ele>
        <time>2022-05-23T21:16:31Z</time>
      </trkpt>
      <trkpt lat="48.05559" lon="8.98547">
        <ele>607</ele>
        <time>2022-05-23T21:16:44Z</time>
      </trkpt>
      <trkpt lat="48.05622" lon="8.98586">
        <ele>608</ele>
        <time>2022-05-23T21:16:57Z</time>
      </trkpt>
      <trkpt lat="48.05648" lon="8.98594">
        <ele>611</ele>
        <time>2022-05-23T21:17:01Z</time>
      </trkpt>
      <trkpt lat="48.05659" lon="8.98539">
        <ele>611</ele>
        <time>2022-05-23T21:17:08Z</time>
      </trkpt>
      <trkpt lat="48.05665" lon="8.98536">
        <ele>611</ele>
        <time>2022-05-23T21:17:09Z</time>
      </trkpt>
      <trkpt lat="48.05703" lon="8.98553">
        <ele>627</ele>
        <time>2022-05-23T21:17:16Z</time>
      </trkpt>
      <trkpt lat="48.05687" lon="8.98711">
        <ele>624</ele>
        <time>2022-05-23T21:17:35Z</time>
      </trkpt>
      <trkpt lat="48.05692" lon="8.98812">
        <ele>636</ele>
        <time>2022-05-23T21:17:47Z</time>
      </trkpt>
      <trkpt lat="48.0562" lon="8.9891">
        <ele>644</ele>
        <time>2022-05-23T21:18:05Z</time>
      </trkpt>
      <trkpt lat="48.05535" lon="8.9892">
        <ele>631</ele>
        <time>2022-05-23T21:18:20Z</time>
      </trkpt>
      <trkpt lat="48.05499" lon="8.98941">
        <ele>630</ele>
        <time>2022-05-23T21:18:27Z</time>
      </trkpt>
      <trkpt lat="48.05462" lon="8.98995">
        <ele>633</ele>
        <time>2022-05-23T21:18:36Z</time>
      </trkpt>
      <trkpt lat="48.05446" lon="8.99035">
        <ele>630</ele>
        <time>2022-05-23T21:18:41Z</time>
      </trkpt>
      <trkpt lat="48.05428" lon="8.99128">
        <ele>627</ele>
        <time>2022-05-23T21:18:53Z</time>
      </trkpt>
      <trkpt lat="48.05429" lon="8.99204">
        <ele>625</ele>
        <time>2022-05-23T21:19:02Z</time>
      </trkpt>
      <trkpt lat="48.05436" lon="8.99241">
        <ele>625</ele>
        <time>2022-05-23T21:19:07Z</time>
      </trkpt>
      <trkpt lat="48.05462" lon="8.9931">
        <ele>621</ele>
        <time>2022-05-23T21:19:16Z</time>
      </trkpt>
      <trkpt lat="48.05504" lon="8.99381">
        <ele>616</ele>
        <time>2022-05-23T21:19:27Z</time>
      </trkpt>
      <trkpt lat="48.05531" lon="8.99406">
        <ele>614</ele>
        <time>2022-05-23T21:19:33Z</time>
      </trkpt>
      <trkpt lat="48.05547" lon="8.99409">
        <ele>614</ele>
        <time>2022-05-23T21:19:36Z</time>
      </trkpt>
      <trkpt lat="48.05575" lon="8.994">
        <ele>617</ele>
        <time>2022-05-23T21:19:41Z</time>
      </trkpt>
      <trkpt lat="48.05601" lon="8.9938">
        <ele>619</ele>
        <time>2022-05-23T21:19:46Z</time>
      </trkpt>
      <trkpt lat="48.05659" lon="8.99317">
        <ele>622</ele>
        <time>2022-05-23T21:19:59Z</time>
      </trkpt>
      <trkpt lat="48.05684" lon="8.9928">
        <ele>624</ele>
        <time>2022-05-23T21:20:05Z</time>
      </trkpt>
      <trkpt lat="48.05708" lon="8.99259">
        <ele>620</ele>
        <time>2022-05-23T21:20:10Z</time>
      </trkpt>
      <trkpt lat="48.05723" lon="8.99234">
        <ele>619</ele>
        <time>2022-05-23T21:20:14Z</time>
      </trkpt>
      <trkpt lat="48.0573" lon="8.99238">
        <ele>616</ele>
        <time>2022-05-23T21:20:15Z</time>
      </trkpt>
      <trkpt lat="48.05788" lon="8.99322">
        <ele>601</ele>
        <time>2022-05-23T21:20:30Z</time>
      </trkpt>
      <trkpt lat="48.05817" lon="8.99419">
        <ele>606</ele>
        <time>2022-05-23T21:20:42Z</time>
      </trkpt>
      <trkpt lat="48.0582" lon="8.99436">
        <ele>609</ele>
        <time>2022-05-23T21:20:44Z</time>
      </trkpt>
      <trkpt lat="48.05813" lon="8.99485">
        <ele>616</ele>
        <time>2022-05-23T21:20:50Z</time>
      </trkpt>
      <trkpt lat="48.05939" lon="8.99364">
        <ele>613</ele>
        <time>2022-05-23T21:21:17Z</time>
      </trkpt>
      <trkpt lat="48.05994" lon="8.9934">
        <ele>612</ele>
        <time>2022-05-23T21:21:27Z</time>
      </trkpt>
      <trkpt lat="48.06035" lon="8.99337">
        <ele>609</ele>
        <time>2022-05-23T21:21:35Z</time>
      </trkpt>
      <trkpt lat="48.0605" lon="8.99342">
        <ele>608</ele>
        <time>2022-05-23T21:21:37Z</time>
      </trkpt>
      <trkpt lat="48.06079" lon="8.9937">
        <ele>609</ele>
        <time>2022-05-23T21:21:43Z</time>
      </trkpt>
      <trkpt lat="48.06188" lon="8.99662">
        <ele>619</ele>
        <time>2022-05-23T21:22:23Z</time>
      </trkpt>
      <trkpt lat="48.06205" lon="8.99733">
        <ele>619</ele>
        <time>2022-05-23T21:22:32Z</time>
      </trkpt>
      <trkpt lat="48.06226" lon="8.99857">
        <ele>621</ele>
        <time>2022-05-23T21:22:47Z</time>
      </trkpt>
      <trkpt lat="48.0623" lon="9.0001">
        <ele>626</ele>
        <time>2022-05-23T21:23:06Z</time>
      </trkpt>
      <trkpt lat="48.06251" lon="9.00077">
        <ele>621</ele>
        <time>2022-05-23T21:23:14Z</time>
      </trkpt>
      <trkpt lat="48.06259" lon="9.00142">
        <ele>633</ele>
        <time>2022-05-23T21:23:22Z</time>
      </trkpt>
      <trkpt lat="48.0629" lon="9.00214">
        <ele>636</ele>
        <time>2022-05-23T21:23:32Z</time>
      </trkpt>
      <trkpt lat="48.06345" lon="9.00301">
        <ele>635</ele>
        <time>2022-05-23T21:23:47Z</time>
      </trkpt>
      <trkpt lat="48.06405" lon="9.00378">
        <ele>631</ele>
        <time>2022-05-23T21:24:01Z</time>
      </trkpt>
      <trkpt lat="48.06424" lon="9.00399">
        <ele>629</ele>
        <time>2022-05-23T21:24:05Z</time>
      </trkpt>
      <trkpt lat="48.0649" lon="9.00439">
        <ele>619</ele>
        <time>2022-05-23T21:24:18Z</time>
      </trkpt>
      <trkpt lat="48.06553" lon="9.00522">
        <ele>628</ele>
        <time>2022-05-23T21:24:33Z</time>
      </trkpt>
      <trkpt lat="48.06683" lon="9.00536">
        <ele>620</ele>
        <time>2022-05-23T21:24:56Z</time>
      </trkpt>
      <trkpt lat="48.06789" lon="9.00573">
        <ele>618</ele>
        <time>2022-05-23T21:25:15Z</time>
      </trkpt>
      <trkpt lat="48.0682" lon="9.00597">
        <ele>618</ele>
        <time>2022-05-23T21:25:21Z</time>
      </trkpt>
      <trkpt lat="48.06839" lon="9.00636">
        <ele>625</ele>
        <time>2022-05-23T21:25:27Z</time>
      </trkpt>
      <trkpt lat="48.06863" lon="9.00655">
        <ele>622</ele>
        <time>2022-05-23T21:25:32Z</time>
      </trkpt>
      <trkpt lat="48.06872" lon="9.00675">
        <ele>623</ele>
        <time>2022-05-23T21:25:35Z</time>
      </trkpt>
      <trkpt lat="48.06922" lon="9.00829">
        <ele>629</ele>
        <time>2022-05-23T21:25:55Z</time>
      </trkpt>
      <trkpt lat="48.06959" lon="9.00906">
        <ele>630</ele>
        <time>2022-05-23T21:26:06Z</time>
      </trkpt>
      <trkpt lat="48.06975" lon="9.0096">
        <ele>630</ele>
        <time>2022-05-23T21:26:13Z</time>
      </trkpt>
      <trkpt lat="48.06984" lon="9.01047">
        <ele>632</ele>
        <time>2022-05-23T21:26:24Z</time>
      </trkpt>
      <trkpt lat="48.06998" lon="9.01083">
        <ele>626</ele>
        <time>2022-05-23T21:26:29Z</time>
      </trkpt>
      <trkpt lat="48.07081" lon="9.01224">
        <ele>608</ele>
        <time>2022-05-23T21:26:51Z</time>
      </trkpt>
      <trkpt lat="48.07099" lon="9.01243">
        <ele>607</ele>
        <time>2022-05-23T21:26:55Z</time>
      </trkpt>
      <trkpt lat="48.07126" lon="9.0125">
        <ele>605</ele>
        <time>2022-05-23T21:27:00Z</time>
      </trkpt>
      <trkpt lat="48.07133" lon="9.01545">
        <ele>604</ele>
        <time>2022-05-23T21:27:35Z</time>
      </trkpt>
      <trkpt lat="48.07159" lon="9.01562">
        <ele>599</ele>
        <time>2022-05-23T21:27:40Z</time>
      </trkpt>
      <trkpt lat="48.07167" lon="9.01573">
        <ele>598</ele>
        <time>2022-05-23T21:27:42Z</time>
      </trkpt>
      <trkpt lat="48.07148" lon="9.01631">
        <ele>603</ele>
        <time>2022-05-23T21:27:50Z</time>
      </trkpt>
      <trkpt lat="48.07134" lon="9.01699">
        <ele>605</ele>
        <time>2022-05-23T21:27:58Z</time>
      </trkpt>
      <trkpt lat="48.07132" lon="9.01781">
        <ele>607</ele>
        <time>2022-05-23T21:28:08Z</time>
      </trkpt>
      <trkpt lat="48.07142" lon="9.0185">
        <ele>610</ele>
        <time>2022-05-23T21:28:16Z</time>
      </trkpt>
      <trkpt lat="48.07136" lon="9.01892">
        <ele>616</ele>
        <time>2022-05-23T21:28:21Z</time>
      </trkpt>
      <trkpt lat="48.07176" lon="9.0213">
        <ele>619</ele>
        <time>2022-05-23T21:28:51Z</time>
      </trkpt>
      <trkpt lat="48.0719" lon="9.02183">
        <ele>619</ele>
        <time>2022-05-23T21:28:57Z</time>
      </trkpt>
      <trkpt lat="48.07232" lon="9.02294">
        <ele>616</ele>
        <time>2022-05-23T21:29:13Z</time>
      </trkpt>
      <trkpt lat="48.0728" lon="9.02387">
        <ele>618</ele>
        <time>2022-05-23T21:29:27Z</time>
      </trkpt>
      <trkpt lat="48.07394" lon="9.025">
        <ele>612</ele>
        <time>2022-05-23T21:29:51Z</time>
      </trkpt>
      <trkpt lat="48.07488" lon="9.02602">
        <ele>616</ele>
        <time>2022-05-23T21:30:12Z</time>
      </trkpt>
      <trkpt lat="48.07608" lon="9.02712">
        <ele>613</ele>
        <time>2022-05-23T21:30:37Z</time>
      </trkpt>
      <trkpt lat="48.07717" lon="9.02776">
        <ele>604</ele>
        <time>2022-05-23T21:30:57Z</time>
      </trkpt>
      <trkpt lat="48.07783" lon="9.02845">
        <ele>601</ele>
        <time>2022-05-23T21:31:12Z</time>
      </trkpt>
      <trkpt lat="48.07906" lon="9.02948">
        <ele>596</ele>
        <time>2022-05-23T21:31:37Z</time>
      </trkpt>
      <trkpt lat="48.08012" lon="9.0309">
        <ele>598</ele>
        <time>2022-05-23T21:32:02Z</time>
      </trkpt>
      <trkpt lat="48.08015" lon="9.03122">
        <ele>598</ele>
        <time>2022-05-23T21:32:06Z</time>
      </trkpt>
      <trkpt lat="48.07982" lon="9.03332">
        <ele>599</ele>
        <time>2022-05-23T21:32:32Z</time>
      </trkpt>
      <trkpt lat="48.08034" lon="9.03396">
        <ele>597</ele>
        <time>2022-05-23T21:32:44Z</time>
      </trkpt>
      <trkpt lat="48.08066" lon="9.03425">
        <ele>596</ele>
        <time>2022-05-23T21:32:50Z</time>
      </trkpt>
      <trkpt lat="48.08079" lon="9.03442">
        <ele>595</ele>
        <time>2022-05-23T21:32:53Z</time>
      </trkpt>
      <trkpt lat="48.08115" lon="9.03496">
        <ele>593</ele>
        <time>2022-05-23T21:33:02Z</time>
      </trkpt>
      <trkpt lat="48.08116" lon="9.03511">
        <ele>593</ele>
        <time>2022-05-23T21:33:04Z</time>
      </trkpt>
      <trkpt lat="48.08146" lon="9.03526">
        <ele>593</ele>
        <time>2022-05-23T21:33:10Z</time>
      </trkpt>
      <trkpt lat="48.08082" lon="9.03731">
        <ele>608</ele>
        <time>2022-05-23T21:33:37Z</time>
      </trkpt>
      <trkpt lat="48.08079" lon="9.03751">
        <ele>613</ele>
        <time>2022-05-23T21:33:39Z</time>
      </trkpt>
      <trkpt lat="48.08084" lon="9.03767">
        <ele>616</ele>
        <time>2022-05-23T21:33:41Z</time>
      </trkpt>
      <trkpt lat="48.08151" lon="9.03874">
        <ele>617</ele>
        <time>2022-05-23T21:33:59Z</time>
      </trkpt>
      <trkpt lat="48.08203" lon="9.03931">
        <ele>618</ele>
        <time>2022-05-23T21:34:10Z</time>
      </trkpt>
      <trkpt lat="48.08417" lon="9.04141">
        <ele>617</ele>
        <time>2022-05-23T21:34:56Z</time>
      </trkpt>
      <trkpt lat="48.08441" lon="9.04169">
        <ele>618</ele>
        <time>2022-05-23T21:35:01Z</time>
      </trkpt>
      <trkpt lat="48.0853" lon="9.04311">
        <ele>623</ele>
        <time>2022-05-23T21:35:24Z</time>
      </trkpt>
      <trkpt lat="48.08578" lon="9.04337">
        <ele>610</ele>
        <time>2022-05-23T21:35:33Z</time>
      </trkpt>
      <trkpt lat="48.08606" lon="9.04371">
        <ele>611</ele>
        <time>2022-05-23T21:35:40Z</time>
      </trkpt>
      <trkpt lat="48.08637" lon="9.04445">
        <ele>612</ele>
        <time>2022-05-23T21:35:50Z</time>
      </trkpt>
      <trkpt lat="48.08687" lon="9.04501">
        <ele>604</ele>
        <time>2022-05-23T21:36:01Z</time>
      </trkpt>
      <trkpt lat="48.08732" lon="9.04595">
        <ele>598</ele>
        <time>2022-05-23T21:36:15Z</time>
      </trkpt>
      <trkpt lat="48.08783" lon="9.04771">
        <ele>599</ele>
        <time>2022-05-23T21:36:38Z</time>
      </trkpt>
      <trkpt lat="48.08818" lon="9.04952">
        <ele>605</ele>
        <time>2022-05-23T21:37:00Z</time>
      </trkpt>
      <trkpt lat="48.08886" lon="9.05133">
        <ele>611</ele>
        <time>2022-05-23T21:37:25Z</time>
      </trkpt>
      <trkpt lat="48.08901" lon="9.05198">
        <ele>614</ele>
        <time>2022-05-23T21:37:33Z</time>
      </trkpt>
      <trkpt lat="48.08955" lon="9.05358">
        <ele>626</ele>
        <time>2022-05-23T21:37:54Z</time>
      </trkpt>
      <trkpt lat="48.09029" lon="9.05527">
        <ele>624</ele>
        <time>2022-05-23T21:38:18Z</time>
      </trkpt>
      <trkpt lat="48.09074" lon="9.05663">
        <ele>616</ele>
        <time>2022-05-23T21:38:36Z</time>
      </trkpt>
      <trkpt lat="48.09084" lon="9.05765">
        <ele>613</ele>
        <time>2022-05-23T21:38:49Z</time>
      </trkpt>
      <trkpt lat="48.09069" lon="9.05868">
        <ele>621</ele>
        <time>2022-05-23T21:39:01Z</time>
      </trkpt>
      <trkpt lat="48.09031" lon="9.05865">
        <ele>633</ele>
        <time>2022-05-23T21:39:08Z</time>
      </trkpt>
      <trkpt lat="48.09001" lon="9.05885">
        <ele>642</ele>
        <time>2022-05-23T21:39:14Z</time>
      </trkpt>
      <trkpt lat="48.08973" lon="9.05946">
        <ele>653</ele>
        <time>2022-05-23T21:39:23Z</time>
      </trkpt>
      <trkpt lat="48.08953" lon="9.05955">
        <ele>659</ele>
        <time>2022-05-23T21:39:26Z</time>
      </trkpt>
      <trkpt lat="48.08918" lon="9.05937">
        <ele>665</ele>
        <time>2022-05-23T21:39:33Z</time>
      </trkpt>
      <trkpt lat="48.08879" lon="9.05874">
        <ele>677</ele>
        <time>2022-05-23T21:39:43Z</time>
      </trkpt>
      <trkpt lat="48.08837" lon="9.05833">
        <ele>684</ele>
        <time>2022-05-23T21:39:52Z</time>
      </trkpt>
      <trkpt lat="48.08806" lon="9.05827">
        <ele>690</ele>
        <time>2022-05-23T21:39:58Z</time>
      </trkpt>
      <trkpt lat="48.08789" lon="9.0583">
        <ele>692</ele>
        <time>2022-05-23T21:40:01Z</time>
      </trkpt>
      <trkpt lat="48.08703" lon="9.05777">
        <ele>710</ele>
        <time>2022-05-23T21:40:17Z</time>
      </trkpt>
      <trkpt lat="48.08677" lon="9.0573">
        <ele>712</ele>
        <time>2022-05-23T21:40:24Z</time>
      </trkpt>
      <trkpt lat="48.08654" lon="9.05713">
        <ele>718</ele>
        <time>2022-05-23T21:40:29Z</time>
      </trkpt>
      <trkpt lat="48.08617" lon="9.05701">
        <ele>725</ele>
        <time>2022-05-23T21:40:36Z</time>
      </trkpt>
      <trkpt lat="48.08588" lon="9.05702">
        <ele>730</ele>
        <time>2022-05-23T21:40:41Z</time>
      </trkpt>
      <trkpt lat="48.08555" lon="9.05718">
        <ele>735</ele>
        <time>2022-05-23T21:40:47Z</time>
      </trkpt>
      <trkpt lat="48.08499" lon="9.05733">
        <ele>743</ele>
        <time>2022-05-23T21:40:57Z</time>
      </trkpt>
      <trkpt lat="48.08436" lon="9.05734">
        <ele>743</ele>
        <time>2022-05-23T21:41:08Z</time>
      </trkpt>
      <trkpt lat="48.0838" lon="9.05765">
        <ele>745</ele>
        <time>2022-05-23T21:41:19Z</time>
      </trkpt>
      <trkpt lat="48.08356" lon="9.05753">
        <ele>744</ele>
        <time>2022-05-23T21:41:23Z</time>
      </trkpt>
      <trkpt lat="48.08267" lon="9.05631">
        <ele>752</ele>
        <time>2022-05-23T21:41:45Z</time>
      </trkpt>
      <trkpt lat="48.0825" lon="9.05622">
        <ele>752</ele>
        <time>2022-05-23T21:41:48Z</time>
      </trkpt>
      <trkpt lat="48.08168" lon="9.05493">
        <ele>758</ele>
        <time>2022-05-23T21:42:09Z</time>
      </trkpt>
      <trkpt lat="48.0819" lon="9.05587">
        <ele>758</ele>
        <time>2022-05-23T21:42:21Z</time>
      </trkpt>
      <trkpt lat="48.08192" lon="9.05632">
        <ele>760</ele>
        <time>2022-05-23T21:42:27Z</time>
      </trkpt>
      <trkpt lat="48.08206" lon="9.05711">
        <ele>763</ele>
        <time>2022-05-23T21:42:36Z</time>
      </trkpt>
      <trkpt lat="48.08218" lon="9.05966">
        <ele>781</ele>
        <time>2022-05-23T21:43:07Z</time>
      </trkpt>
      <trkpt lat="48.08244" lon="9.06085">
        <ele>793</ele>
        <time>2022-05-23T21:43:22Z</time>
      </trkpt>
      <trkpt lat="48.08265" lon="9.06242">
        <ele>806</ele>
        <time>2022-05-23T21:43:41Z</time>
      </trkpt>
      <trkpt lat="48.08305" lon="9.06431">
        <ele>796</ele>
        <time>2022-05-23T21:44:04Z</time>
      </trkpt>
      <trkpt lat="48.08306" lon="9.06462">
        <ele>792</ele>
        <time>2022-05-23T21:44:08Z</time>
      </trkpt>
      <trkpt lat="48.08263" lon="9.06546">
        <ele>792</ele>
        <time>2022-05-23T21:44:20Z</time>
      </trkpt>
      <trkpt lat="48.08259" lon="9.06564">
        <ele>791</ele>
        <time>2022-05-23T21:44:23Z</time>
      </trkpt>
      <trkpt lat="48.08217" lon="9.06607">
        <ele>799</ele>
        <time>2022-05-23T21:44:32Z</time>
      </trkpt>
      <trkpt lat="48.08188" lon="9.06674">
        <ele>804</ele>
        <time>2022-05-23T21:44:41Z</time>
      </trkpt>
      <trkpt lat="48.08207" lon="9.06724">
        <ele>796</ele>
        <time>2022-05-23T21:44:48Z</time>
      </trkpt>
      <trkpt lat="48.0821" lon="9.06753">
        <ele>793</ele>
        <time>2022-05-23T21:44:52Z</time>
      </trkpt>
      <trkpt lat="48.08206" lon="9.06765">
        <ele>794</ele>
        <time>2022-05-23T21:44:53Z</time>
      </trkpt>
      <trkpt lat="48.08159" lon="9.06823">
        <ele>805</ele>
        <time>2022-05-23T21:45:04Z</time>
      </trkpt>
      <trkpt lat="48.08151" lon="9.06885">
        <ele>802</ele>
        <time>2022-05-23T21:45:11Z</time>
      </trkpt>
      <trkpt lat="48.08152" lon="9.06926">
        <ele>799</ele>
        <time>2022-05-23T21:45:16Z</time>
      </trkpt>
      <trkpt lat="48.08144" lon="9.06959">
        <ele>796</ele>
        <time>2022-05-23T21:45:21Z</time>
      </trkpt>
      <trkpt lat="48.08127" lon="9.06995">
        <ele>796</ele>
        <time>2022-05-23T21:45:26Z</time>
      </trkpt>
      <trkpt lat="48.0812" lon="9.07027">
        <ele>792</ele>
        <time>2022-05-23T21:45:30Z</time>
      </trkpt>
      <trkpt lat="48.08117" lon="9.07124">
        <ele>777</ele>
        <time>2022-05-23T21:45:41Z</time>
      </trkpt>
      <trkpt lat="48.08113" lon="9.07147">
        <ele>775</ele>
        <time>2022-05-23T21:45:44Z</time>
      </trkpt>
      <trkpt lat="48.08096" lon="9.07174">
        <ele>777</ele>
        <time>2022-05-23T21:45:49Z</time>
      </trkpt>
      <trkpt lat="48.08082" lon="9.07187">
        <ele>780</ele>
        <time>2022-05-23T21:45:51Z</time>
      </trkpt>
      <trkpt lat="48.08071" lon="9.07188">
        <ele>778</ele>
        <time>2022-05-23T21:45:53Z</time>
      </trkpt>
      <trkpt lat="48.08047" lon="9.07173">
        <ele>777</ele>
        <time>2022-05-23T21:45:58Z</time>
      </trkpt>
      <trkpt lat="48.08016" lon="9.07139">
        <ele>779</ele>
        <time>2022-05-23T21:46:05Z</time>
      </trkpt>
      <trkpt lat="48.08007" lon="9.07115">
        <ele>781</ele>
        <time>2022-05-23T21:46:08Z</time>
      </trkpt>
      <trkpt lat="48.07986" lon="9.07103">
        <ele>784</ele>
        <time>2022-05-23T21:46:12Z</time>
      </trkpt>
      <trkpt lat="48.07972" lon="9.0713">
        <ele>781</ele>
        <time>2022-05-23T21:46:16Z</time>
      </trkpt>
      <trkpt lat="48.07965" lon="9.07163">
        <ele>777</ele>
        <time>2022-05-23T21:46:20Z</time>
      </trkpt>
      <trkpt lat="48.07926" lon="9.07391">
        <ele>758</ele>
        <time>2022-05-23T21:46:48Z</time>
      </trkpt>
      <trkpt lat="48.07903" lon="9.07426">
        <ele>758</ele>
        <time>2022-05-23T21:46:54Z</time>
      </trkpt>
      <trkpt lat="48.07892" lon="9.07435">
        <ele>758</ele>
        <time>2022-05-23T21:46:56Z</time>
      </trkpt>
      <trkpt lat="48.07885" lon="9.07483">
        <ele>754</ele>
        <time>2022-05-23T21:47:02Z</time>
      </trkpt>
      <trkpt lat="48.07842" lon="9.07578">
        <ele>754</ele>
        <time>2022-05-23T21:47:16Z</time>
      </trkpt>
      <trkpt lat="48.07824" lon="9.0763">
        <ele>753</ele>
        <time>2022-05-23T21:47:23Z</time>
      </trkpt>
      <trkpt lat="48.07805" lon="9.07713">
        <ele>749</ele>
        <time>2022-05-23T21:47:33Z</time>
      </trkpt>
      <trkpt lat="48.07792" lon="9.07746">
        <ele>747</ele>
        <time>2022-05-23T21:47:38Z</time>
      </trkpt>
      <trkpt lat="48.07769" lon="9.07782">
        <ele>744</ele>
        <time>2022-05-23T21:47:44Z</time>
      </trkpt>
      <trkpt lat="48.07755" lon="9.07791">
        <ele>743</ele>
        <time>2022-05-23T21:47:46Z</time>
      </trkpt>
      <trkpt lat="48.07743" lon="9.07787">
        <ele>741</ele>
        <time>2022-05-23T21:47:49Z</time>
      </trkpt>
      <trkpt lat="48.0771" lon="9.07761">
        <ele>737</ele>
        <time>2022-05-23T21:47:55Z</time>
      </trkpt>
      <trkpt lat="48.07701" lon="9.07769">
        <ele>733</ele>
        <time>2022-05-23T21:47:57Z</time>
      </trkpt>
      <trkpt lat="48.07729" lon="9.07826">
        <ele>732</ele>
        <time>2022-05-23T21:48:06Z</time>
      </trkpt>
      <trkpt lat="48.07744" lon="9.0787">
        <ele>726</ele>
        <time>2022-05-23T21:48:11Z</time>
      </trkpt>
      <trkpt lat="48.07754" lon="9.07884">
        <ele>725</ele>
        <time>2022-05-23T21:48:14Z</time>
      </trkpt>
      <trkpt lat="48.07765" lon="9.07907">
        <ele>721</ele>
        <time>2022-05-23T21:48:17Z</time>
      </trkpt>
      <trkpt lat="48.07793" lon="9.07936">
        <ele>717</ele>
        <time>2022-05-23T21:48:23Z</time>
      </trkpt>
      <trkpt lat="48.07813" lon="9.07985">
        <ele>703</ele>
        <time>2022-05-23T21:48:30Z</time>
      </trkpt>
      <trkpt lat="48.07851" lon="9.08016">
        <ele>691</ele>
        <time>2022-05-23T21:48:38Z</time>
      </trkpt>
      <trkpt lat="48.07869" lon="9.08019">
        <ele>684</ele>
        <time>2022-05-23T21:48:41Z</time>
      </trkpt>
      <trkpt lat="48.07886" lon="9.08013">
        <ele>680</ele>
        <time>2022-05-23T21:48:44Z</time>
      </trkpt>
      <trkpt lat="48.07912" lon="9.07991">
        <ele>675</ele>
        <time>2022-05-23T21:48:49Z</time>
      </trkpt>
      <trkpt lat="48.07934" lon="9.07963">
        <ele>670</ele>
        <time>2022-05-23T21:48:55Z</time>
      </trkpt>
      <trkpt lat="48.07979" lon="9.07892">
        <ele>661</ele>
        <time>2022-05-23T21:49:06Z</time>
      </trkpt>
      <trkpt lat="48.08013" lon="9.07826">
        <ele>659</ele>
        <time>2022-05-23T21:49:16Z</time>
      </trkpt>
      <trkpt lat="48.08038" lon="9.07801">
        <ele>653</ele>
        <time>2022-05-23T21:49:21Z</time>
      </trkpt>
      <trkpt lat="48.08097" lon="9.07757">
        <ele>639</ele>
        <time>2022-05-23T21:49:33Z</time>
      </trkpt>
      <trkpt lat="48.08115" lon="9.07756">
        <ele>634</ele>
        <time>2022-05-23T21:49:36Z</time>
      </trkpt>
      <trkpt lat="48.08132" lon="9.07764">
        <ele>628</ele>
        <time>2022-05-23T21:49:40Z</time>
      </trkpt>
      <trkpt lat="48.08094" lon="9.079">
        <ele>620</ele>
        <time>2022-05-23T21:49:57Z</time>
      </trkpt>
      <trkpt lat="48.0807" lon="9.07936">
        <ele>621</ele>
        <time>2022-05-23T21:50:03Z</time>
      </trkpt>
      <trkpt lat="48.08045" lon="9.08008">
        <ele>614</ele>
        <time>2022-05-23T21:50:13Z</time>
      </trkpt>
      <trkpt lat="48.07991" lon="9.08115">
        <ele>609</ele>
        <time>2022-05-23T21:50:29Z</time>
      </trkpt>
      <trkpt lat="48.07966" lon="9.08174">
        <ele>614</ele>
        <time>2022-05-23T21:50:37Z</time>
      </trkpt>
      <trkpt lat="48.07921" lon="9.08248">
        <ele>617</ele>
        <time>2022-05-23T21:50:49Z</time>
      </trkpt>
      <trkpt lat="48.07898" lon="9.08329">
        <ele>604</ele>
        <time>2022-05-23T21:50:59Z</time>
      </trkpt>
      <trkpt lat="48.07883" lon="9.08366">
        <ele>611</ele>
        <time>2022-05-23T21:51:05Z</time>
      </trkpt>
      <trkpt lat="48.07902" lon="9.08407">
        <ele>609</ele>
        <time>2022-05-23T21:51:10Z</time>
      </trkpt>
      <trkpt lat="48.07912" lon="9.08421">
        <ele>606</ele>
        <time>2022-05-23T21:51:13Z</time>
      </trkpt>
      <trkpt lat="48.07942" lon="9.08512">
        <ele>618</ele>
        <time>2022-05-23T21:51:25Z</time>
      </trkpt>
      <trkpt lat="48.08008" lon="9.08661">
        <ele>615</ele>
        <time>2022-05-23T21:51:46Z</time>
      </trkpt>
      <trkpt lat="48.08087" lon="9.08769">
        <ele>608</ele>
        <time>2022-05-23T21:52:05Z</time>
      </trkpt>
      <trkpt lat="48.08136" lon="9.08894">
        <ele>608</ele>
        <time>2022-05-23T21:52:22Z</time>
      </trkpt>
      <trkpt lat="48.08211" lon="9.09052">
        <ele>605</ele>
        <time>2022-05-23T21:52:46Z</time>
      </trkpt>
      <trkpt lat="48.08369" lon="9.09471">
        <ele>609</ele>
        <time>2022-05-23T21:53:43Z</time>
      </trkpt>
      <trkpt lat="48.08459" lon="9.09723">
        <ele>613</ele>
        <time>2022-05-23T21:54:17Z</time>
      </trkpt>
      <trkpt lat="48.08582" lon="9.09967">
        <ele>611</ele>
        <time>2022-05-23T21:54:53Z</time>
      </trkpt>
      <trkpt lat="48.08659" lon="9.10068">
        <ele>608</ele>
        <time>2022-05-23T21:55:11Z</time>
      </trkpt>
      <trkpt lat="48.08681" lon="9.10087">
        <ele>606</ele>
        <time>2022-05-23T21:55:16Z</time>
      </trkpt>
      <trkpt lat="48.08726" lon="9.10111">
        <ele>606</ele>
        <time>2022-05-23T21:55:24Z</time>
      </trkpt>
      <trkpt lat="48.08775" lon="9.10123">
        <ele>605</ele>
        <time>2022-05-23T21:55:33Z</time>
      </trkpt>
      <trkpt lat="48.08822" lon="9.10114">
        <ele>605</ele>
        <time>2022-05-23T21:55:42Z</time>
      </trkpt>
      <trkpt lat="48.08869" lon="9.10092">
        <ele>601</ele>
        <time>2022-05-23T21:55:50Z</time>
      </trkpt>
      <trkpt lat="48.08973" lon="9.10083">
        <ele>593</ele>
        <time>2022-05-23T21:56:09Z</time>
      </trkpt>
      <trkpt lat="48.08986" lon="9.10078">
        <ele>591</ele>
        <time>2022-05-23T21:56:11Z</time>
      </trkpt>
      <trkpt lat="48.08999" lon="9.10118">
        <ele>595</ele>
        <time>2022-05-23T21:56:16Z</time>
      </trkpt>
      <trkpt lat="48.09015" lon="9.10135">
        <ele>596</ele>
        <time>2022-05-23T21:56:20Z</time>
      </trkpt>
      <trkpt lat="48.09121" lon="9.10218">
        <ele>597</ele>
        <time>2022-05-23T21:56:41Z</time>
      </trkpt>
      <trkpt lat="48.09182" lon="9.10308">
        <ele>599</ele>
        <time>2022-05-23T21:56:56Z</time>
      </trkpt>
      <trkpt lat="48.09227" lon="9.10397">
        <ele>596</ele>
        <time>2022-05-23T21:57:10Z</time>
      </trkpt>
      <trkpt lat="48.0924" lon="9.10445">
        <ele>595</ele>
        <time>2022-05-23T21:57:16Z</time>
      </trkpt>
      <trkpt lat="48.09242" lon="9.10502">
        <ele>596</ele>
        <time>2022-05-23T21:57:23Z</time>
      </trkpt>
      <trkpt lat="48.09238" lon="9.10536">
        <ele>595</ele>
        <time>2022-05-23T21:57:27Z</time>
      </trkpt>
      <trkpt lat="48.09228" lon="9.10564">
        <ele>596</ele>
        <time>2022-05-23T21:57:31Z</time>
      </trkpt>
      <trkpt lat="48.09193" lon="9.10584">
        <ele>599</ele>
        <time>2022-05-23T21:57:37Z</time>
      </trkpt>
      <trkpt lat="48.09166" lon="9.10617">
        <ele>599</ele>
        <time>2022-05-23T21:57:43Z</time>
      </trkpt>
      <trkpt lat="48.09126" lon="9.10649">
        <ele>595</ele>
        <time>2022-05-23T21:57:52Z</time>
      </trkpt>
      <trkpt lat="48.09092" lon="9.10647">
        <ele>595</ele>
        <time>2022-05-23T21:57:58Z</time>
      </trkpt>
      <trkpt lat="48.09015" lon="9.10683">
        <ele>593</ele>
        <time>2022-05-23T21:58:12Z</time>
      </trkpt>
      <trkpt lat="48.08981" lon="9.10685">
        <ele>593</ele>
        <time>2022-05-23T21:58:18Z</time>
      </trkpt>
      <trkpt lat="48.08891" lon="9.1083">
        <ele>595</ele>
        <time>2022-05-23T21:58:41Z</time>
      </trkpt>
      <trkpt lat="48.08881" lon="9.10836">
        <ele>597</ele>
        <time>2022-05-23T21:58:43Z</time>
      </trkpt>
      <trkpt lat="48.08797" lon="9.10805">
        <ele>598</ele>
        <time>2022-05-23T21:58:59Z</time>
      </trkpt>
      <trkpt lat="48.08754" lon="9.10777">
        <ele>596</ele>
        <time>2022-05-23T21:59:07Z</time>
      </trkpt>
      <trkpt lat="48.08685" lon="9.10758">
        <ele>599</ele>
        <time>2022-05-23T21:59:20Z</time>
      </trkpt>
      <trkpt lat="48.08569" lon="9.10699">
        <ele>596</ele>
        <time>2022-05-23T21:59:41Z</time>
      </trkpt>
      <trkpt lat="48.08444" lon="9.10675">
        <ele>593</ele>
        <time>2022-05-23T22:00:04Z</time>
      </trkpt>
      <trkpt lat="48.08376" lon="9.10647">
        <ele>595</ele>
        <time>2022-05-23T22:00:16Z</time>
      </trkpt>
      <trkpt lat="48.08269" lon="9.1058">
        <ele>591</ele>
        <time>2022-05-23T22:00:37Z</time>
      </trkpt>
      <trkpt lat="48.08263" lon="9.10568">
        <ele>590</ele>
        <time>2022-05-23T22:00:39Z</time>
      </trkpt>
      <trkpt lat="48.08261" lon="9.10549">
        <ele>588</ele>
        <time>2022-05-23T22:00:41Z</time>
      </trkpt>
      <trkpt lat="48.08264" lon="9.10523">
        <ele>584</ele>
        <time>2022-05-23T22:00:44Z</time>
      </trkpt>
      <trkpt lat="48.08261" lon="9.10509">
        <ele>582</ele>
        <time>2022-05-23T22:00:46Z</time>
      </trkpt>
      <trkpt lat="48.08204" lon="9.10491">
        <ele>586</ele>
        <time>2022-05-23T22:00:56Z</time>
      </trkpt>
      <trkpt lat="48.08196" lon="9.10496">
        <ele>586</ele>
        <time>2022-05-23T22:00:58Z</time>
      </trkpt>
      <trkpt lat="48.08188" lon="9.10514">
        <ele>589</ele>
        <time>2022-05-23T22:01:00Z</time>
      </trkpt>
      <trkpt lat="48.08153" lon="9.10522">
        <ele>591</ele>
        <time>2022-05-23T22:01:07Z</time>
      </trkpt>
      <trkpt lat="48.08072" lon="9.10507">
        <ele>590</ele>
        <time>2022-05-23T22:01:21Z</time>
      </trkpt>
      <trkpt lat="48.08051" lon="9.10509">
        <ele>588</ele>
        <time>2022-05-23T22:01:25Z</time>
      </trkpt>
      <trkpt lat="48.08008" lon="9.10522">
        <ele>586</ele>
        <time>2022-05-23T22:01:33Z</time>
      </trkpt>
      <trkpt lat="48.0798" lon="9.10542">
        <ele>587</ele>
        <time>2022-05-23T22:01:38Z</time>
      </trkpt>
      <trkpt lat="48.07933" lon="9.10601">
        <ele>586</ele>
        <time>2022-05-23T22:01:49Z</time>
      </trkpt>
      <trkpt lat="48.07913" lon="9.10639">
        <ele>586</ele>
        <time>2022-05-23T22:01:55Z</time>
      </trkpt>
      <trkpt lat="48.07891" lon="9.10732">
        <ele>586</ele>
        <time>2022-05-23T22:02:07Z</time>
      </trkpt>
      <trkpt lat="48.07854" lon="9.10837">
        <ele>586</ele>
        <time>2022-05-23T22:02:21Z</time>
      </trkpt>
      <trkpt lat="48.07853" lon="9.1086">
        <ele>586</ele>
        <time>2022-05-23T22:02:24Z</time>
      </trkpt>
      <trkpt lat="48.07858" lon="9.10896">
        <ele>586</ele>
        <time>2022-05-23T22:02:28Z</time>
      </trkpt>
      <trkpt lat="48.07878" lon="9.10943">
        <ele>587</ele>
        <time>2022-05-23T22:02:35Z</time>
      </trkpt>
      <trkpt lat="48.07862" lon="9.10956">
        <ele>587</ele>
        <time>2022-05-23T22:02:38Z</time>
      </trkpt>
      <trkpt lat="48.07855" lon="9.10976">
        <ele>587</ele>
        <time>2022-05-23T22:02:41Z</time>
      </trkpt>
      <trkpt lat="48.07879" lon="9.11009">
        <ele>589</ele>
        <time>2022-05-23T22:02:46Z</time>
      </trkpt>
      <trkpt lat="48.07931" lon="9.11052">
        <ele>589</ele>
        <time>2022-05-23T22:02:57Z</time>
      </trkpt>
      <trkpt lat="48.07945" lon="9.11074">
        <ele>589</ele>
        <time>2022-05-23T22:03:01Z</time>
      </trkpt>
      <trkpt lat="48.0795" lon="9.11098">
        <ele>589</ele>
        <time>2022-05-23T22:03:03Z</time>
      </trkpt>
      <trkpt lat="48.07941" lon="9.11177">
        <ele>592</ele>
        <time>2022-05-23T22:03:13Z</time>
      </trkpt>
      <trkpt lat="48.07985" lon="9.11286">
        <ele>588</ele>
        <time>2022-05-23T22:03:28Z</time>
      </trkpt>
      <trkpt lat="48.07993" lon="9.11323">
        <ele>587</ele>
        <time>2022-05-23T22:03:33Z</time>
      </trkpt>
      <trkpt lat="48.07989" lon="9.11366">
        <ele>587</ele>
        <time>2022-05-23T22:03:38Z</time>
      </trkpt>
      <trkpt lat="48.07995" lon="9.11399">
        <ele>586</ele>
        <time>2022-05-23T22:03:42Z</time>
      </trkpt>
      <trkpt lat="48.07992" lon="9.11451">
        <ele>588</ele>
        <time>2022-05-23T22:03:48Z</time>
      </trkpt>
      <trkpt lat="48.07988" lon="9.11468">
        <ele>590</ele>
        <time>2022-05-23T22:03:50Z</time>
      </trkpt>
      <trkpt lat="48.07946" lon="9.11531">
        <ele>597</ele>
        <time>2022-05-23T22:04:01Z</time>
      </trkpt>
      <trkpt lat="48.07918" lon="9.11612">
        <ele>599</ele>
        <time>2022-05-23T22:04:12Z</time>
      </trkpt>
      <trkpt lat="48.07887" lon="9.11687">
        <ele>597</ele>
        <time>2022-05-23T22:04:22Z</time>
      </trkpt>
      <trkpt lat="48.0787" lon="9.11709">
        <ele>596</ele>
        <time>2022-05-23T22:04:26Z</time>
      </trkpt>
      <trkpt lat="48.07828" lon="9.11744">
        <ele>596</ele>
        <time>2022-05-23T22:04:35Z</time>
      </trkpt>
      <trkpt lat="48.07871" lon="9.11833">
        <ele>589</ele>
        <time>2022-05-23T22:04:48Z</time>
      </trkpt>
      <trkpt lat="48.07876" lon="9.11873">
        <ele>588</ele>
        <time>2022-05-23T22:04:53Z</time>
      </trkpt>
      <trkpt lat="48.07873" lon="9.11891">
        <ele>587</ele>
        <time>2022-05-23T22:04:55Z</time>
      </trkpt>
      <trkpt lat="48.07864" lon="9.11919">
        <ele>586</ele>
        <time>2022-05-23T22:04:59Z</time>
      </trkpt>
      <trkpt lat="48.07863" lon="9.11939">
        <ele>586</ele>
        <time>2022-05-23T22:05:01Z</time>
      </trkpt>
      <trkpt lat="48.07882" lon="9.11958">
        <ele>585</ele>
        <time>2022-05-23T22:05:05Z</time>
      </trkpt>
      <trkpt lat="48.07729" lon="9.12103">
        <ele>584</ele>
        <time>2022-05-23T22:05:37Z</time>
      </trkpt>
      <trkpt lat="48.0768" lon="9.12166">
        <ele>584</ele>
        <time>2022-05-23T22:05:49Z</time>
      </trkpt>
      <trkpt lat="48.07649" lon="9.12217">
        <ele>585</ele>
        <time>2022-05-23T22:05:57Z</time>
      </trkpt>
      <trkpt lat="48.07636" lon="9.12284">
        <ele>583</ele>
        <time>2022-05-23T22:06:05Z</time>
      </trkpt>
      <trkpt lat="48.07619" lon="9.12347">
        <ele>583</ele>
        <time>2022-05-23T22:06:13Z</time>
      </trkpt>
      <trkpt lat="48.0759" lon="9.12421">
        <ele>585</ele>
        <time>2022-05-23T22:06:24Z</time>
      </trkpt>
      <trkpt lat="48.07582" lon="9.12563">
        <ele>591</ele>
        <time>2022-05-23T22:06:40Z</time>
      </trkpt>
      <trkpt lat="48.07599" lon="9.1267">
        <ele>597</ele>
        <time>2022-05-23T22:06:54Z</time>
      </trkpt>
      <trkpt lat="48.07621" lon="9.12723">
        <ele>600</ele>
        <time>2022-05-23T22:07:01Z</time>
      </trkpt>
      <trkpt lat="48.0765" lon="9.12751">
        <ele>592</ele>
        <time>2022-05-23T22:07:07Z</time>
      </trkpt>
      <trkpt lat="48.07655" lon="9.12763">
        <ele>591</ele>
        <time>2022-05-23T22:07:09Z</time>
      </trkpt>
      <trkpt lat="48.07661" lon="9.12795">
        <ele>591</ele>
        <time>2022-05-23T22:07:13Z</time>
      </trkpt>
      <trkpt lat="48.07682" lon="9.12846">
        <ele>591</ele>
        <time>2022-05-23T22:07:20Z</time>
      </trkpt>
      <trkpt lat="48.0796" lon="9.13076">
        <ele>586</ele>
        <time>2022-05-23T22:08:16Z</time>
      </trkpt>
      <trkpt lat="48.08005" lon="9.13123">
        <ele>595</ele>
        <time>2022-05-23T22:08:26Z</time>
      </trkpt>
      <trkpt lat="48.08024" lon="9.1312">
        <ele>596</ele>
        <time>2022-05-23T22:08:30Z</time>
      </trkpt>
      <trkpt lat="48.0805" lon="9.13104">
        <ele>595</ele>
        <time>2022-05-23T22:08:35Z</time>
      </trkpt>
      <trkpt lat="48.08112" lon="9.13035">
        <ele>593</ele>
        <time>2022-05-23T22:08:48Z</time>
      </trkpt>
      <trkpt lat="48.08145" lon="9.12893">
        <ele>585</ele>
        <time>2022-05-23T22:09:06Z</time>
      </trkpt>
      <trkpt lat="48.08175" lon="9.1289">
        <ele>585</ele>
        <time>2022-05-23T22:09:12Z</time>
      </trkpt>
      <trkpt lat="48.08219" lon="9.12913">
        <ele>585</ele>
        <time>2022-05-23T22:09:20Z</time>
      </trkpt>
      <trkpt lat="48.08239" lon="9.12944">
        <ele>584</ele>
        <time>2022-05-23T22:09:25Z</time>
      </trkpt>
      <trkpt lat="48.08245" lon="9.12978">
        <ele>584</ele>
        <time>2022-05-23T22:09:29Z</time>
      </trkpt>
      <trkpt lat="48.08245" lon="9.13025">
        <ele>585</ele>
        <time>2022-05-23T22:09:35Z</time>
      </trkpt>
      <trkpt lat="48.08235" lon="9.13063">
        <ele>586</ele>
        <time>2022-05-23T22:09:40Z</time>
      </trkpt>
      <trkpt lat="48.08199" lon="9.13138">
        <ele>593</ele>
        <time>2022-05-23T22:09:51Z</time>
      </trkpt>
      <trkpt lat="48.08201" lon="9.13161">
        <ele>593</ele>
        <time>2022-05-23T22:09:53Z</time>
      </trkpt>
      <trkpt lat="48.08223" lon="9.13243">
        <ele>595</ele>
        <time>2022-05-23T22:10:04Z</time>
      </trkpt>
      <trkpt lat="48.08198" lon="9.13282">
        <ele>594</ele>
        <time>2022-05-23T22:10:10Z</time>
      </trkpt>
      <trkpt lat="48.08099" lon="9.13372">
        <ele>583</ele>
        <time>2022-05-23T22:10:31Z</time>
      </trkpt>
      <trkpt lat="48.08072" lon="9.13389">
        <ele>584</ele>
        <time>2022-05-23T22:10:36Z</time>
      </trkpt>
      <trkpt lat="48.08068" lon="9.13408">
        <ele>585</ele>
        <time>2022-05-23T22:10:38Z</time>
      </trkpt>
      <trkpt lat="48.08074" lon="9.13525">
        <ele>586</ele>
        <time>2022-05-23T22:10:52Z</time>
      </trkpt>
      <trkpt lat="48.08061" lon="9.1359">
        <ele>585</ele>
        <time>2022-05-23T22:11:00Z</time>
      </trkpt>
      <trkpt lat="48.08021" lon="9.13669">
        <ele>584</ele>
        <time>2022-05-23T22:11:12Z</time>
      </trkpt>
      <trkpt lat="48.07987" lon="9.13764">
        <ele>585</ele>
        <time>2022-05-23T22:11:25Z</time>
      </trkpt>
      <trkpt lat="48.07959" lon="9.13881">
        <ele>585</ele>
        <time>2022-05-23T22:11:40Z</time>
      </trkpt>
      <trkpt lat="48.07947" lon="9.14012">
        <ele>585</ele>
        <time>2022-05-23T22:11:56Z</time>
      </trkpt>
      <trkpt lat="48.07947" lon="9.14045">
        <ele>586</ele>
        <time>2022-05-23T22:11:59Z</time>
      </trkpt>
      <trkpt lat="48.0797" lon="9.1427">
        <ele>586</ele>
        <time>2022-05-23T22:12:26Z</time>
      </trkpt>
      <trkpt lat="48.07961" lon="9.14816">
        <ele>597</ele>
        <time>2022-05-23T22:13:31Z</time>
      </trkpt>
      <trkpt lat="48.07947" lon="9.14935">
        <ele>592</ele>
        <time>2022-05-23T22:13:46Z</time>
      </trkpt>
      <trkpt lat="48.07925" lon="9.15034">
        <ele>586</ele>
        <time>2022-05-23T22:13:58Z</time>
      </trkpt>
      <trkpt lat="48.07923" lon="9.15059">
        <ele>586</ele>
        <time>2022-05-23T22:14:01Z</time>
      </trkpt>
      <trkpt lat="48.07937" lon="9.15177">
        <ele>584</ele>
        <time>2022-05-23T22:14:15Z</time>
      </trkpt>
      <trkpt lat="48.07944" lon="9.15321">
        <ele>587</ele>
        <time>2022-05-23T22:14:33Z</time>
      </trkpt>
      <trkpt lat="48.0795" lon="9.15341">
        <ele>588</ele>
        <time>2022-05-23T22:14:35Z</time>
      </trkpt>
      <trkpt lat="48.0796" lon="9.15339">
        <ele>587</ele>
        <time>2022-05-23T22:14:37Z</time>
      </trkpt>
      <trkpt lat="48.07978" lon="9.15298">
        <ele>584</ele>
        <time>2022-05-23T22:14:43Z</time>
      </trkpt>
      <trkpt lat="48.07983" lon="9.15218">
        <ele>582</ele>
        <time>2022-05-23T22:14:52Z</time>
      </trkpt>
      <trkpt lat="48.08017" lon="9.15263">
        <ele>582</ele>
        <time>2022-05-23T22:15:00Z</time>
      </trkpt>
      <trkpt lat="48.08024" lon="9.15278">
        <ele>585</ele>
        <time>2022-05-23T22:15:03Z</time>
      </trkpt>
      <trkpt lat="48.07999" lon="9.15326">
        <ele>585</ele>
        <time>2022-05-23T22:15:10Z</time>
      </trkpt>
      <trkpt lat="48.07972" lon="9.15356">
        <ele>589</ele>
        <time>2022-05-23T22:15:16Z</time>
      </trkpt>
      <trkpt lat="48.07948" lon="9.1537">
        <ele>589</ele>
        <time>2022-05-23T22:15:20Z</time>
      </trkpt>
      <trkpt lat="48.07928" lon="9.15447">
        <ele>588</ele>
        <time>2022-05-23T22:15:30Z</time>
      </trkpt>
      <trkpt lat="48.07877" lon="9.15601">
        <ele>586</ele>
        <time>2022-05-23T22:15:51Z</time>
      </trkpt>
      <trkpt lat="48.0785" lon="9.15659">
        <ele>585</ele>
        <time>2022-05-23T22:15:59Z</time>
      </trkpt>
      <trkpt lat="48.07821" lon="9.157">
        <ele>585</ele>
        <time>2022-05-23T22:16:06Z</time>
      </trkpt>
      <trkpt lat="48.07781" lon="9.15747">
        <ele>584</ele>
        <time>2022-05-23T22:16:15Z</time>
      </trkpt>
      <trkpt lat="48.077" lon="9.15821">
        <ele>584</ele>
        <time>2022-05-23T22:16:32Z</time>
      </trkpt>
      <trkpt lat="48.07672" lon="9.15874">
        <ele>586</ele>
        <time>2022-05-23T22:16:40Z</time>
      </trkpt>
      <trkpt lat="48.07661" lon="9.15884">
        <ele>586</ele>
        <time>2022-05-23T22:16:42Z</time>
      </trkpt>
      <trkpt lat="48.07594" lon="9.15906">
        <ele>589</ele>
        <time>2022-05-23T22:16:55Z</time>
      </trkpt>
      <trkpt lat="48.07562" lon="9.15895">
        <ele>587</ele>
        <time>2022-05-23T22:17:00Z</time>
      </trkpt>
      <trkpt lat="48.07529" lon="9.15873">
        <ele>583</ele>
        <time>2022-05-23T22:17:07Z</time>
      </trkpt>
      <trkpt lat="48.07504" lon="9.15871">
        <ele>583</ele>
        <time>2022-05-23T22:17:11Z</time>
      </trkpt>
      <trkpt lat="48.07485" lon="9.15885">
        <ele>583</ele>
        <time>2022-05-23T22:17:15Z</time>
      </trkpt>
      <trkpt lat="48.07475" lon="9.15908">
        <ele>584</ele>
        <time>2022-05-23T22:17:18Z</time>
      </trkpt>
      <trkpt lat="48.07474" lon="9.15943">
        <ele>584</ele>
        <time>2022-05-23T22:17:23Z</time>
      </trkpt>
      <trkpt lat="48.07536" lon="9.16043">
        <ele>588</ele>
        <time>2022-05-23T22:17:39Z</time>
      </trkpt>
      <trkpt lat="48.07564" lon="9.16114">
        <ele>587</ele>
        <time>2022-05-23T22:17:49Z</time>
      </trkpt>
      <trkpt lat="48.07633" lon="9.16352">
        <ele>577</ele>
        <time>2022-05-23T22:18:19Z</time>
      </trkpt>
      <trkpt lat="48.07672" lon="9.16434">
        <ele>577</ele>
        <time>2022-05-23T22:18:31Z</time>
      </trkpt>
      <trkpt lat="48.0771" lon="9.16485">
        <ele>577</ele>
        <time>2022-05-23T22:18:40Z</time>
      </trkpt>
      <trkpt lat="48.07741" lon="9.16517">
        <ele>576</ele>
        <time>2022-05-23T22:18:47Z</time>
      </trkpt>
      <trkpt lat="48.07815" lon="9.16561">
        <ele>577</ele>
        <time>2022-05-23T22:19:01Z</time>
      </trkpt>
      <trkpt lat="48.07894" lon="9.1659">
        <ele>584</ele>
        <time>2022-05-23T22:19:16Z</time>
      </trkpt>
      <trkpt lat="48.07933" lon="9.1661">
        <ele>587</ele>
        <time>2022-05-23T22:19:23Z</time>
      </trkpt>
      <trkpt lat="48.07917" lon="9.16777">
        <ele>580</ele>
        <time>2022-05-23T22:19:43Z</time>
      </trkpt>
      <trkpt lat="48.07904" lon="9.16794">
        <ele>583</ele>
        <time>2022-05-23T22:19:46Z</time>
      </trkpt>
      <trkpt lat="48.07895" lon="9.16795">
        <ele>584</ele>
        <time>2022-05-23T22:19:48Z</time>
      </trkpt>
      <trkpt lat="48.0787" lon="9.16757">
        <ele>585</ele>
        <time>2022-05-23T22:19:54Z</time>
      </trkpt>
      <trkpt lat="48.07862" lon="9.1676">
        <ele>586</ele>
        <time>2022-05-23T22:19:56Z</time>
      </trkpt>
      <trkpt lat="48.07853" lon="9.16773">
        <ele>589</ele>
        <time>2022-05-23T22:19:58Z</time>
      </trkpt>
      <trkpt lat="48.07867" lon="9.16917">
        <ele>604</ele>
        <time>2022-05-23T22:20:15Z</time>
      </trkpt>
      <trkpt lat="48.07874" lon="9.17048">
        <ele>598</ele>
        <time>2022-05-23T22:20:31Z</time>
      </trkpt>
      <trkpt lat="48.07864" lon="9.17059">
        <ele>599</ele>
        <time>2022-05-23T22:20:33Z</time>
      </trkpt>
      <trkpt lat="48.07843" lon="9.17056">
        <ele>603</ele>
        <time>2022-05-23T22:20:37Z</time>
      </trkpt>
      <trkpt lat="48.07799" lon="9.17042">
        <ele>610</ele>
        <time>2022-05-23T22:20:45Z</time>
      </trkpt>
      <trkpt lat="48.0777" lon="9.17019">
        <ele>617</ele>
        <time>2022-05-23T22:20:51Z</time>
      </trkpt>
      <trkpt lat="48.07726" lon="9.16995">
        <ele>622</ele>
        <time>2022-05-23T22:20:59Z</time>
      </trkpt>
      <trkpt lat="48.0767" lon="9.17002">
        <ele>623</ele>
        <time>2022-05-23T22:21:09Z</time>
      </trkpt>
      <trkpt lat="48.07643" lon="9.17028">
        <ele>622</ele>
        <time>2022-05-23T22:21:15Z</time>
      </trkpt>
      <trkpt lat="48.07624" lon="9.1706">
        <ele>623</ele>
        <time>2022-05-23T22:21:20Z</time>
      </trkpt>
      <trkpt lat="48.07613" lon="9.17098">
        <ele>625</ele>
        <time>2022-05-23T22:21:25Z</time>
      </trkpt>
      <trkpt lat="48.0761" lon="9.17131">
        <ele>628</ele>
        <time>2022-05-23T22:21:29Z</time>
      </trkpt>
      <trkpt lat="48.0761" lon="9.17179">
        <ele>631</ele>
        <time>2022-05-23T22:21:34Z</time>
      </trkpt>
      <trkpt lat="48.07653" lon="9.17382">
        <ele>632</ele>
        <time>2022-05-23T22:22:00Z</time>
      </trkpt>
      <trkpt lat="48.07652" lon="9.17424">
        <ele>632</ele>
        <time>2022-05-23T22:22:05Z</time>
      </trkpt>
      <trkpt lat="48.07627" lon="9.17511">
        <ele>632</ele>
        <time>2022-05-23T22:22:16Z</time>
      </trkpt>
      <trkpt lat="48.0756" lon="9.1757">
        <ele>632</ele>
        <time>2022-05-23T22:22:30Z</time>
      </trkpt>
      <trkpt lat="48.07549" lon="9.17591">
        <ele>630</ele>
        <time>2022-05-23T22:22:33Z</time>
      </trkpt>
      <trkpt lat="48.07534" lon="9.17635">
        <ele>626</ele>
        <time>2022-05-23T22:22:39Z</time>
      </trkpt>
      <trkpt lat="48.07527" lon="9.17691">
        <ele>622</ele>
        <time>2022-05-23T22:22:46Z</time>
      </trkpt>
      <trkpt lat="48.07517" lon="9.17721">
        <ele>621</ele>
        <time>2022-05-23T22:22:50Z</time>
      </trkpt>
      <trkpt lat="48.07497" lon="9.17747">
        <ele>622</ele>
        <time>2022-05-23T22:22:54Z</time>
      </trkpt>
      <trkpt lat="48.07483" lon="9.17759">
        <ele>620</ele>
        <time>2022-05-23T22:22:57Z</time>
      </trkpt>
      <trkpt lat="48.07471" lon="9.17765">
        <ele>619</ele>
        <time>2022-05-23T22:22:59Z</time>
      </trkpt>
      <trkpt lat="48.07439" lon="9.17765">
        <ele>617</ele>
        <time>2022-05-23T22:23:05Z</time>
      </trkpt>
      <trkpt lat="48.07417" lon="9.17769">
        <ele>616</ele>
        <time>2022-05-23T22:23:09Z</time>
      </trkpt>
      <trkpt lat="48.07382" lon="9.17783">
        <ele>615</ele>
        <time>2022-05-23T22:23:15Z</time>
      </trkpt>
      <trkpt lat="48.07372" lon="9.17799">
        <ele>615</ele>
        <time>2022-05-23T22:23:18Z</time>
      </trkpt>
      <trkpt lat="48.07351" lon="9.1781">
        <ele>615</ele>
        <time>2022-05-23T22:23:22Z</time>
      </trkpt>
      <trkpt lat="48.07398" lon="9.17964">
        <ele>597</ele>
        <time>2022-05-23T22:23:42Z</time>
      </trkpt>
      <trkpt lat="48.07457" lon="9.18074">
        <ele>586</ele>
        <time>2022-05-23T22:23:59Z</time>
      </trkpt>
      <trkpt lat="48.07519" lon="9.18204">
        <ele>587</ele>
        <time>2022-05-23T22:24:18Z</time>
      </trkpt>
      <trkpt lat="48.07546" lon="9.1827">
        <ele>588</ele>
        <time>2022-05-23T22:24:27Z</time>
      </trkpt>
      <trkpt lat="48.07553" lon="9.18304">
        <ele>589</ele>
        <time>2022-05-23T22:24:31Z</time>
      </trkpt>
      <trkpt lat="48.07563" lon="9.18474">
        <ele>587</ele>
        <time>2022-05-23T22:24:52Z</time>
      </trkpt>
      <trkpt lat="48.07592" lon="9.18621">
        <ele>584</ele>
        <time>2022-05-23T22:25:10Z</time>
      </trkpt>
      <trkpt lat="48.07599" lon="9.18636">
        <ele>584</ele>
        <time>2022-05-23T22:25:12Z</time>
      </trkpt>
      <trkpt lat="48.07623" lon="9.18658">
        <ele>583</ele>
        <time>2022-05-23T22:25:17Z</time>
      </trkpt>
      <trkpt lat="48.0763" lon="9.18671">
        <ele>583</ele>
        <time>2022-05-23T22:25:19Z</time>
      </trkpt>
      <trkpt lat="48.0766" lon="9.18821">
        <ele>588</ele>
        <time>2022-05-23T22:25:38Z</time>
      </trkpt>
      <trkpt lat="48.07662" lon="9.18867">
        <ele>587</ele>
        <time>2022-05-23T22:25:43Z</time>
      </trkpt>
      <trkpt lat="48.07675" lon="9.18945">
        <ele>585</ele>
        <time>2022-05-23T22:25:53Z</time>
      </trkpt>
      <trkpt lat="48.07677" lon="9.1902">
        <ele>582</ele>
        <time>2022-05-23T22:26:02Z</time>
      </trkpt>
      <trkpt lat="48.07657" lon="9.19147">
        <ele>580</ele>
        <time>2022-05-23T22:26:17Z</time>
      </trkpt>
      <trkpt lat="48.07631" lon="9.19262">
        <ele>578</ele>
        <time>2022-05-23T22:26:32Z</time>
      </trkpt>
      <trkpt lat="48.07619" lon="9.1934">
        <ele>577</ele>
        <time>2022-05-23T22:26:41Z</time>
      </trkpt>
      <trkpt lat="48.07588" lon="9.19403">
        <ele>575</ele>
        <time>2022-05-23T22:26:50Z</time>
      </trkpt>
      <trkpt lat="48.07566" lon="9.19459">
        <ele>574</ele>
        <time>2022-05-23T22:26:58Z</time>
      </trkpt>
      <trkpt lat="48.07549" lon="9.19527">
        <ele>574</ele>
        <time>2022-05-23T22:27:07Z</time>
      </trkpt>
      <trkpt lat="48.07548" lon="9.19632">
        <ele>571</ele>
        <time>2022-05-23T22:27:19Z</time>
      </trkpt>
      <trkpt lat="48.07562" lon="9.19789">
        <ele>570</ele>
        <time>2022-05-23T22:27:38Z</time>
      </trkpt>
      <trkpt lat="48.07583" lon="9.19928">
        <ele>567</ele>
        <time>2022-05-23T22:27:55Z</time>
      </trkpt>
      <trkpt lat="48.07582" lon="9.2002">
        <ele>569</ele>
        <time>2022-05-23T22:28:06Z</time>
      </trkpt>
      <trkpt lat="48.0759" lon="9.201">
        <ele>572</ele>
        <time>2022-05-23T22:28:16Z</time>
      </trkpt>
      <trkpt lat="48.07604" lon="9.20179">
        <ele>572</ele>
        <time>2022-05-23T22:28:25Z</time>
      </trkpt>
      <trkpt lat="48.07615" lon="9.20298">
        <ele>571</ele>
        <time>2022-05-23T22:28:40Z</time>
      </trkpt>
      <trkpt lat="48.07632" lon="9.20382">
        <ele>570</ele>
        <time>2022-05-23T22:28:50Z</time>
      </trkpt>
      <trkpt lat="48.07669" lon="9.20448">
        <ele>570</ele>
        <time>2022-05-23T22:29:00Z</time>
      </trkpt>
      <trkpt lat="48.07684" lon="9.20489">
        <ele>570</ele>
        <time>2022-05-23T22:29:06Z</time>
      </trkpt>
      <trkpt lat="48.07707" lon="9.20519">
        <ele>571</ele>
        <time>2022-05-23T22:29:11Z</time>
      </trkpt>
      <trkpt lat="48.07739" lon="9.20584">
        <ele>573</ele>
        <time>2022-05-23T22:29:21Z</time>
      </trkpt>
      <trkpt lat="48.07772" lon="9.20606">
        <ele>573</ele>
        <time>2022-05-23T22:29:27Z</time>
      </trkpt>
      <trkpt lat="48.07835" lon="9.20689">
        <ele>574</ele>
        <time>2022-05-23T22:29:42Z</time>
      </trkpt>
      <trkpt lat="48.0786" lon="9.20714">
        <ele>575</ele>
        <time>2022-05-23T22:29:48Z</time>
      </trkpt>
      <trkpt lat="48.07933" lon="9.20766">
        <ele>573</ele>
        <time>2022-05-23T22:30:02Z</time>
      </trkpt>
      <trkpt lat="48.07991" lon="9.2079">
        <ele>571</ele>
        <time>2022-05-23T22:30:13Z</time>
      </trkpt>
      <trkpt lat="48.08064" lon="9.20805">
        <ele>572</ele>
        <time>2022-05-23T22:30:26Z</time>
      </trkpt>
      <trkpt lat="48.08078" lon="9.20833">
        <ele>573</ele>
        <time>2022-05-23T22:30:30Z</time>
      </trkpt>
      <trkpt lat="48.0808" lon="9.20856">
        <ele>575</ele>
        <time>2022-05-23T22:30:33Z</time>
      </trkpt>
      <trkpt lat="48.08075" lon="9.20891">
        <ele>579</ele>
        <time>2022-05-23T22:30:37Z</time>
      </trkpt>
      <trkpt lat="48.08072" lon="9.20985">
        <ele>590</ele>
        <time>2022-05-23T22:30:48Z</time>
      </trkpt>
      <trkpt lat="48.08073" lon="9.21031">
        <ele>593</ele>
        <time>2022-05-23T22:30:54Z</time>
      </trkpt>
      <trkpt lat="48.08078" lon="9.2106">
        <ele>594</ele>
        <time>2022-05-23T22:30:57Z</time>
      </trkpt>
      <trkpt lat="48.08096" lon="9.21123">
        <ele>598</ele>
        <time>2022-05-23T22:31:05Z</time>
      </trkpt>
      <trkpt lat="48.0813" lon="9.21183">
        <ele>606</ele>
        <time>2022-05-23T22:31:15Z</time>
      </trkpt>
      <trkpt lat="48.0816" lon="9.21245">
        <ele>611</ele>
        <time>2022-05-23T22:31:24Z</time>
      </trkpt>
      <trkpt lat="48.08175" lon="9.21278">
        <ele>614</ele>
        <time>2022-05-23T22:31:28Z</time>
      </trkpt>
      <trkpt lat="48.08219" lon="9.21393">
        <ele>622</ele>
        <time>2022-05-23T22:31:44Z</time>
      </trkpt>
      <trkpt lat="48.08242" lon="9.21488">
        <ele>621</ele>
        <time>2022-05-23T22:31:56Z</time>
      </trkpt>
      <trkpt lat="48.0824" lon="9.21579">
        <ele>621</ele>
        <time>2022-05-23T22:32:07Z</time>
      </trkpt>
      <trkpt lat="48.08295" lon="9.21582">
        <ele>622</ele>
        <time>2022-05-23T22:32:17Z</time>
      </trkpt>
      <trkpt lat="48.08315" lon="9.2159">
        <ele>623</ele>
        <time>2022-05-23T22:32:20Z</time>
      </trkpt>
      <trkpt lat="48.08324" lon="9.21611">
        <ele>624</ele>
        <time>2022-05-23T22:32:23Z</time>
      </trkpt>
      <trkpt lat="48.08337" lon="9.21625">
        <ele>624</ele>
        <time>2022-05-23T22:32:26Z</time>
      </trkpt>
      <trkpt lat="48.0835" lon="9.2162">
        <ele>622</ele>
        <time>2022-05-23T22:32:29Z</time>
      </trkpt>
      <trkpt lat="48.08412" lon="9.21556">
        <ele>607</ele>
        <time>2022-05-23T22:32:42Z</time>
      </trkpt>
      <trkpt lat="48.08431" lon="9.21541">
        <ele>603</ele>
        <time>2022-05-23T22:32:46Z</time>
      </trkpt>
      <trkpt lat="48.08473" lon="9.2153">
        <ele>595</ele>
        <time>2022-05-23T22:32:54Z</time>
      </trkpt>
      <trkpt lat="48.08485" lon="9.21533">
        <ele>592</ele>
        <time>2022-05-23T22:32:56Z</time>
      </trkpt>
      <trkpt lat="48.08506" lon="9.2158">
        <ele>589</ele>
        <time>2022-05-23T22:33:02Z</time>
      </trkpt>
      <trkpt lat="48.08526" lon="9.21581">
        <ele>588</ele>
        <time>2022-05-23T22:33:06Z</time>
      </trkpt>
      <trkpt lat="48.08538" lon="9.21601">
        <ele>588</ele>
        <time>2022-05-23T22:33:09Z</time>
      </trkpt>
      <trkpt lat="48.08559" lon="9.21681">
        <ele>588</ele>
        <time>2022-05-23T22:33:19Z</time>
      </trkpt>
      <trkpt lat="48.08525" lon="9.217">
        <ele>593</ele>
        <time>2022-05-23T22:33:26Z</time>
      </trkpt>
      <trkpt lat="48.0853" lon="9.21732">
        <ele>593</ele>
        <time>2022-05-23T22:33:30Z</time>
      </trkpt>
      <trkpt lat="48.08533" lon="9.21194">
        <ele>578</ele>
        <time>2022-05-23T22:34:34Z</time>
      </trkpt>
      <trkpt lat="48.08537" lon="9.2119">
        <ele>577</ele>
        <time>2022-05-23T22:34:35Z</time>
      </trkpt>
      <trkpt lat="48.08568" lon="9.2127">
        <ele>574</ele>
        <time>2022-05-23T22:34:46Z</time>
      </trkpt>
      <trkpt lat="48.08586" lon="9.2127">
        <ele>571</ele>
        <time>2022-05-23T22:34:49Z</time>
      </trkpt>
      <trkpt lat="48.08587" lon="9.21281">
        <ele>571</ele>
        <time>2022-05-23T22:34:50Z</time>
      </trkpt>
      <trkpt lat="48.08599" lon="9.21283">
        <ele>571</ele>
        <time>2022-05-23T22:34:52Z</time>
      </trkpt>
      <trkpt lat="48.0861" lon="9.21296">
        <ele>571</ele>
        <time>2022-05-23T22:34:55Z</time>
      </trkpt>
      <trkpt lat="48.08634" lon="9.21339">
        <ele>572</ele>
        <time>2022-05-23T22:35:01Z</time>
      </trkpt>
      <trkpt lat="48.08648" lon="9.21355">
        <ele>572</ele>
        <time>2022-05-23T22:35:04Z</time>
      </trkpt>
      <trkpt lat="48.08662" lon="9.21358">
        <ele>572</ele>
        <time>2022-05-23T22:35:07Z</time>
      </trkpt>
      <trkpt lat="48.08668" lon="9.2142">
        <ele>573</ele>
        <time>2022-05-23T22:35:14Z</time>
      </trkpt>
      <trkpt lat="48.08678" lon="9.21463">
        <ele>576</ele>
        <time>2022-05-23T22:35:20Z</time>
      </trkpt>
      <trkpt lat="48.08691" lon="9.21462">
        <ele>576</ele>
        <time>2022-05-23T22:35:22Z</time>
      </trkpt>
      <trkpt lat="48.08728" lon="9.21437">
        <ele>575</ele>
        <time>2022-05-23T22:35:29Z</time>
      </trkpt>
      <trkpt lat="48.08789" lon="9.2143">
        <ele>574</ele>
        <time>2022-05-23T22:35:40Z</time>
      </trkpt>
      <trkpt lat="48.08809" lon="9.21421">
        <ele>574</ele>
        <time>2022-05-23T22:35:44Z</time>
      </trkpt>
      <trkpt lat="48.08816" lon="9.21415">
        <ele>573</ele>
        <time>2022-05-23T22:35:45Z</time>
      </trkpt>
      <trkpt lat="48.08831" lon="9.2145">
        <ele>575</ele>
        <time>2022-05-23T22:35:50Z</time>
      </trkpt>
      <trkpt lat="48.08824" lon="9.21539">
        <ele>579</ele>
        <time>2022-05-23T22:36:01Z</time>
      </trkpt>
      <trkpt lat="48.08827" lon="9.21574">
        <ele>579</ele>
        <time>2022-05-23T22:36:05Z</time>
      </trkpt>
      <trkpt lat="48.08852" lon="9.2166">
        <ele>579</ele>
        <time>2022-05-23T22:36:16Z</time>
      </trkpt>
      <trkpt lat="48.08869" lon="9.21667">
        <ele>578</ele>
        <time>2022-05-23T22:36:20Z</time>
      </trkpt>
      <trkpt lat="48.08875" lon="9.21714">
        <ele>576</ele>
        <time>2022-05-23T22:36:25Z</time>
      </trkpt>
      <trkpt lat="48.08857" lon="9.21765">
        <ele>575</ele>
        <time>2022-05-23T22:36:32Z</time>
      </trkpt>
      <trkpt lat="48.08932" lon="9.22045">
        <ele>574</ele>
        <time>2022-05-23T22:37:08Z</time>
      </trkpt>
      <trkpt lat="48.08944" lon="9.22101">
        <ele>575</ele>
        <time>2022-05-23T22:37:15Z</time>
      </trkpt>
      <trkpt lat="48.08948" lon="9.22171">
        <ele>576</ele>
        <time>2022-05-23T22:37:23Z</time>
      </trkpt>
      <trkpt lat="48.08936" lon="9.2222">
        <ele>575</ele>
        <time>2022-05-23T22:37:29Z</time>
      </trkpt>
      <trkpt lat="48.08925" lon="9.22154">
        <ele>574</ele>
        <time>2022-05-23T22:37:38Z</time>
      </trkpt>
      <trkpt lat="48.09004" lon="9.22148">
        <ele>581</ele>
        <time>2022-05-23T22:37:52Z</time>
      </trkpt>
      <trkpt lat="48.09008" lon="9.22156">
        <ele>581</ele>
        <time>2022-05-23T22:37:53Z</time>
      </trkpt>
      <trkpt lat="48.09011" lon="9.2227">
        <ele>581</ele>
        <time>2022-05-23T22:38:06Z</time>
      </trkpt>
      <trkpt lat="48.09003" lon="9.22421">
        <ele>574</ele>
        <time>2022-05-23T22:38:24Z</time>
      </trkpt>
      <trkpt lat="48.09005" lon="9.22537">
        <ele>572</ele>
        <time>2022-05-23T22:38:38Z</time>
      </trkpt>
      <trkpt lat="48.09022" lon="9.22659">
        <ele>573</ele>
        <time>2022-05-23T22:38:53Z</time>
      </trkpt>
      <trkpt lat="48.09032" lon="9.22646">
        <ele>574</ele>
        <time>2022-05-23T22:38:55Z</time>
      </trkpt>
      <trkpt lat="48.09043" lon="9.22728">
        <ele>577</ele>
        <time>2022-05-23T22:39:05Z</time>
      </trkpt>
      <trkpt lat="48.09043" lon="9.22778">
        <ele>580</ele>
        <time>2022-05-23T22:39:11Z</time>
      </trkpt>
      <trkpt lat="48.09034" lon="9.22837">
        <ele>584</ele>
        <time>2022-05-23T22:39:18Z</time>
      </trkpt>
      <trkpt lat="48.09054" lon="9.22905">
        <ele>588</ele>
        <time>2022-05-23T22:39:27Z</time>
      </trkpt>
      <trkpt lat="48.09048" lon="9.22917">
        <ele>589</ele>
        <time>2022-05-23T22:39:29Z</time>
      </trkpt>
      <trkpt lat="48.09057" lon="9.22938">
        <ele>591</ele>
        <time>2022-05-23T22:39:32Z</time>
      </trkpt>
      <trkpt lat="48.09062" lon="9.23007">
        <ele>595</ele>
        <time>2022-05-23T22:39:40Z</time>
      </trkpt>
      <trkpt lat="48.09074" lon="9.23013">
        <ele>595</ele>
        <time>2022-05-23T22:39:42Z</time>
      </trkpt>
      <trkpt lat="48.09078" lon="9.23026">
        <ele>596</ele>
        <time>2022-05-23T22:39:44Z</time>
      </trkpt>
      <trkpt lat="48.09084" lon="9.23094">
        <ele>601</ele>
        <time>2022-05-23T22:39:52Z</time>
      </trkpt>
      <trkpt lat="48.09096" lon="9.23364">
        <ele>616</ele>
        <time>2022-05-23T22:40:24Z</time>
      </trkpt>
      <trkpt lat="48.09145" lon="9.23446">
        <ele>620</ele>
        <time>2022-05-23T22:40:38Z</time>
      </trkpt>
      <trkpt lat="48.0929" lon="9.23845">
        <ele>635</ele>
        <time>2022-05-23T22:41:32Z</time>
      </trkpt>
      <trkpt lat="48.09306" lon="9.23847">
        <ele>634</ele>
        <time>2022-05-23T22:41:34Z</time>
      </trkpt>
      <trkpt lat="48.09323" lon="9.23917">
        <ele>638</ele>
        <time>2022-05-23T22:41:43Z</time>
      </trkpt>
      <trkpt lat="48.09355" lon="9.23992">
        <ele>640</ele>
        <time>2022-05-23T22:41:54Z</time>
      </trkpt>
      <trkpt lat="48.09379" lon="9.24007">
        <ele>641</ele>
        <time>2022-05-23T22:41:58Z</time>
      </trkpt>
      <trkpt lat="48.09388" lon="9.24035">
        <ele>641</ele>
        <time>2022-05-23T22:42:02Z</time>
      </trkpt>
      <trkpt lat="48.09404" lon="9.2406">
        <ele>642</ele>
        <time>2022-05-23T22:42:06Z</time>
      </trkpt>
      <trkpt lat="48.09405" lon="9.24088">
        <ele>643</ele>
        <time>2022-05-23T22:42:10Z</time>
      </trkpt>
      <trkpt lat="48.09398" lon="9.24108">
        <ele>644</ele>
        <time>2022-05-23T22:42:12Z</time>
      </trkpt>
      <trkpt lat="48.09399" lon="9.24123">
        <ele>644</ele>
        <time>2022-05-23T22:42:14Z</time>
      </trkpt>
      <trkpt lat="48.09478" lon="9.24372">
        <ele>654</ele>
        <time>2022-05-23T22:42:47Z</time>
      </trkpt>
      <trkpt lat="48.09498" lon="9.24421">
        <ele>656</ele>
        <time>2022-05-23T22:42:54Z</time>
      </trkpt>
      <trkpt lat="48.0961" lon="9.24904">
        <ele>649</ele>
        <time>2022-05-23T22:43:54Z</time>
      </trkpt>
      <trkpt lat="48.09645" lon="9.25041">
        <ele>650</ele>
        <time>2022-05-23T22:44:12Z</time>
      </trkpt>
      <trkpt lat="48.09683" lon="9.25131">
        <ele>648</ele>
        <time>2022-05-23T22:44:24Z</time>
      </trkpt>
      <trkpt lat="48.09731" lon="9.25213">
        <ele>646</ele>
        <time>2022-05-23T22:44:37Z</time>
      </trkpt>
      <trkpt lat="48.09808" lon="9.25322">
        <ele>646</ele>
        <time>2022-05-23T22:44:56Z</time>
      </trkpt>
      <trkpt lat="48.09924" lon="9.25438">
        <ele>645</ele>
        <time>2022-05-23T22:45:21Z</time>
      </trkpt>
      <trkpt lat="48.10248" lon="9.25699">
        <ele>638</ele>
        <time>2022-05-23T22:46:27Z</time>
      </trkpt>
      <trkpt lat="48.10355" lon="9.2578">
        <ele>638</ele>
        <time>2022-05-23T22:46:48Z</time>
      </trkpt>
      <trkpt lat="48.10403" lon="9.25804">
        <ele>637</ele>
        <time>2022-05-23T22:46:57Z</time>
      </trkpt>
      <trkpt lat="48.10431" lon="9.258">
        <ele>636</ele>
        <time>2022-05-23T22:47:02Z</time>
      </trkpt>
      <trkpt lat="48.10455" lon="9.2581">
        <ele>634</ele>
        <time>2022-05-23T22:47:06Z</time>
      </trkpt>
      <trkpt lat="48.10483" lon="9.25863">
        <ele>633</ele>
        <time>2022-05-23T22:47:14Z</time>
      </trkpt>
      <trkpt lat="48.10528" lon="9.25982">
        <ele>634</ele>
        <time>2022-05-23T22:47:31Z</time>
      </trkpt>
      <trkpt lat="48.10576" lon="9.2614">
        <ele>633</ele>
        <time>2022-05-23T22:47:51Z</time>
      </trkpt>
      <trkpt lat="48.10614" lon="9.26363">
        <ele>633</ele>
        <time>2022-05-23T22:48:19Z</time>
      </trkpt>
      <trkpt lat="48.10633" lon="9.26505">
        <ele>633</ele>
        <time>2022-05-23T22:48:36Z</time>
      </trkpt>
      <trkpt lat="48.10655" lon="9.26784">
        <ele>625</ele>
        <time>2022-05-23T22:49:09Z</time>
      </trkpt>
      <trkpt lat="48.10672" lon="9.26879">
        <ele>625</ele>
        <time>2022-05-23T22:49:21Z</time>
      </trkpt>
      <trkpt lat="48.10701" lon="9.26983">
        <ele>621</ele>
        <time>2022-05-23T22:49:34Z</time>
      </trkpt>
      <trkpt lat="48.10749" lon="9.27103">
        <ele>616</ele>
        <time>2022-05-23T22:49:51Z</time>
      </trkpt>
      <trkpt lat="48.10805" lon="9.27175">
        <ele>611</ele>
        <time>2022-05-23T22:50:04Z</time>
      </trkpt>
      <trkpt lat="48.10846" lon="9.27243">
        <ele>608</ele>
        <time>2022-05-23T22:50:15Z</time>
      </trkpt>
      <trkpt lat="48.10879" lon="9.2727">
        <ele>606</ele>
        <time>2022-05-23T22:50:22Z</time>
      </trkpt>
      <trkpt lat="48.10894" lon="9.27291">
        <ele>604</ele>
        <time>2022-05-23T22:50:25Z</time>
      </trkpt>
      <trkpt lat="48.10892" lon="9.27305">
        <ele>605</ele>
        <time>2022-05-23T22:50:27Z</time>
      </trkpt>
      <trkpt lat="48.10911" lon="9.27343">
        <ele>603</ele>
        <time>2022-05-23T22:50:33Z</time>
      </trkpt>
      <trkpt lat="48.11005" lon="9.27284">
        <ele>602</ele>
        <time>2022-05-23T22:50:51Z</time>
      </trkpt>
      <trkpt lat="48.11059" lon="9.2726">
        <ele>603</ele>
        <time>2022-05-23T22:51:01Z</time>
      </trkpt>
      <trkpt lat="48.11076" lon="9.27244">
        <ele>603</ele>
        <time>2022-05-23T22:51:04Z</time>
      </trkpt>
      <trkpt lat="48.1109" lon="9.27226">
        <ele>604</ele>
        <time>2022-05-23T22:51:08Z</time>
      </trkpt>
      <trkpt lat="48.11122" lon="9.27219">
        <ele>606</ele>
        <time>2022-05-23T22:51:13Z</time>
      </trkpt>
      <trkpt lat="48.11123" lon="9.27258">
        <ele>606</ele>
        <time>2022-05-23T22:51:18Z</time>
      </trkpt>
      <trkpt lat="48.11164" lon="9.27326">
        <ele>611</ele>
        <time>2022-05-23T22:51:29Z</time>
      </trkpt>
      <trkpt lat="48.11228" lon="9.27464">
        <ele>620</ele>
        <time>2022-05-23T22:51:49Z</time>
      </trkpt>
      <trkpt lat="48.11284" lon="9.27548">
        <ele>622</ele>
        <time>2022-05-23T22:52:03Z</time>
      </trkpt>
      <trkpt lat="48.11324" lon="9.27664">
        <ele>621</ele>
        <time>2022-05-23T22:52:18Z</time>
      </trkpt>
      <trkpt lat="48.1135" lon="9.27724">
        <ele>623</ele>
        <time>2022-05-23T22:52:27Z</time>
      </trkpt>
      <trkpt lat="48.11369" lon="9.27755">
        <ele>624</ele>
        <time>2022-05-23T22:52:32Z</time>
      </trkpt>
      <trkpt lat="48.11407" lon="9.27795">
        <ele>625</ele>
        <time>2022-05-23T22:52:40Z</time>
      </trkpt>
      <trkpt lat="48.11481" lon="9.27859">
        <ele>627</ele>
        <time>2022-05-23T22:52:55Z</time>
      </trkpt>
      <trkpt lat="48.11536" lon="9.27887">
        <ele>626</ele>
        <time>2022-05-23T22:53:06Z</time>
      </trkpt>
      <trkpt lat="48.11546" lon="9.2789">
        <ele>625</ele>
        <time>2022-05-23T22:53:08Z</time>
      </trkpt>
      <trkpt lat="48.11619" lon="9.27937">
        <ele>621</ele>
        <time>2022-05-23T22:53:22Z</time>
      </trkpt>
      <trkpt lat="48.11725" lon="9.27946">
        <ele>619</ele>
        <time>2022-05-23T22:53:41Z</time>
      </trkpt>
      <trkpt lat="48.11849" lon="9.28001">
        <ele>619</ele>
        <time>2022-05-23T22:54:04Z</time>
      </trkpt>
      <trkpt lat="48.11883" lon="9.28052">
        <ele>623</ele>
        <time>2022-05-23T22:54:12Z</time>
      </trkpt>
      <trkpt lat="48.11895" lon="9.28106">
        <ele>627</ele>
        <time>2022-05-23T22:54:19Z</time>
      </trkpt>
      <trkpt lat="48.11894" lon="9.28122">
        <ele>627</ele>
        <time>2022-05-23T22:54:21Z</time>
      </trkpt>
      <trkpt lat="48.11854" lon="9.28223">
        <ele>629</ele>
        <time>2022-05-23T22:54:35Z</time>
      </trkpt>
      <trkpt lat="48.11851" lon="9.28254">
        <ele>629</ele>
        <time>2022-05-23T22:54:39Z</time>
      </trkpt>
      <trkpt lat="48.11868" lon="9.28276">
        <ele>629</ele>
        <time>2022-05-23T22:54:43Z</time>
      </trkpt>
      <trkpt lat="48.11922" lon="9.28271">
        <ele>630</ele>
        <time>2022-05-23T22:54:52Z</time>
      </trkpt>
      <trkpt lat="48.11947" lon="9.28275">
        <ele>631</ele>
        <time>2022-05-23T22:54:57Z</time>
      </trkpt>
      <trkpt lat="48.12092" lon="9.28314">
        <ele>637</ele>
        <time>2022-05-23T22:55:23Z</time>
      </trkpt>
      <trkpt lat="48.12208" lon="9.28357">
        <ele>642</ele>
        <time>2022-05-23T22:55:44Z</time>
      </trkpt>
      <trkpt lat="48.12263" lon="9.28394">
        <ele>643</ele>
        <time>2022-05-23T22:55:55Z</time>
      </trkpt>
      <trkpt lat="48.12325" lon="9.28456">
        <ele>648</ele>
        <time>2022-05-23T22:56:08Z</time>
      </trkpt>
      <trkpt lat="48.12436" lon="9.28613">
        <ele>644</ele>
        <time>2022-05-23T22:56:35Z</time>
      </trkpt>
      <trkpt lat="48.1249" lon="9.28674">
        <ele>641</ele>
        <time>2022-05-23T22:56:47Z</time>
      </trkpt>
      <trkpt lat="48.12524" lon="9.28729">
        <ele>643</ele>
        <time>2022-05-23T22:56:56Z</time>
      </trkpt>
      <trkpt lat="48.12556" lon="9.28756">
        <ele>643</ele>
        <time>2022-05-23T22:57:03Z</time>
      </trkpt>
      <trkpt lat="48.12619" lon="9.28781">
        <ele>644</ele>
        <time>2022-05-23T22:57:14Z</time>
      </trkpt>
      <trkpt lat="48.12765" lon="9.28801">
        <ele>649</ele>
        <time>2022-05-23T22:57:40Z</time>
      </trkpt>
      <trkpt lat="48.12815" lon="9.2882">
        <ele>652</ele>
        <time>2022-05-23T22:57:50Z</time>
      </trkpt>
      <trkpt lat="48.12878" lon="9.28871">
        <ele>658</ele>
        <time>2022-05-23T22:58:02Z</time>
      </trkpt>
      <trkpt lat="48.12934" lon="9.28884">
        <ele>659</ele>
        <time>2022-05-23T22:58:12Z</time>
      </trkpt>
      <trkpt lat="48.13023" lon="9.28943">
        <ele>668</ele>
        <time>2022-05-23T22:58:30Z</time>
      </trkpt>
      <trkpt lat="48.13051" lon="9.28954">
        <ele>669</ele>
        <time>2022-05-23T22:58:35Z</time>
      </trkpt>
      <trkpt lat="48.13107" lon="9.28999">
        <ele>670</ele>
        <time>2022-05-23T22:58:46Z</time>
      </trkpt>
      <trkpt lat="48.1315" lon="9.29052">
        <ele>674</ele>
        <time>2022-05-23T22:58:56Z</time>
      </trkpt>
      <trkpt lat="48.13181" lon="9.29059">
        <ele>675</ele>
        <time>2022-05-23T22:59:02Z</time>
      </trkpt>
      <trkpt lat="48.13219" lon="9.2905">
        <ele>677</ele>
        <time>2022-05-23T22:59:08Z</time>
      </trkpt>
      <trkpt lat="48.13257" lon="9.29062">
        <ele>679</ele>
        <time>2022-05-23T22:59:15Z</time>
      </trkpt>
      <trkpt lat="48.1328" lon="9.29082">
        <ele>681</ele>
        <time>2022-05-23T22:59:20Z</time>
      </trkpt>
      <trkpt lat="48.1331" lon="9.29092">
        <ele>685</ele>
        <time>2022-05-23T22:59:26Z</time>
      </trkpt>
      <trkpt lat="48.13454" lon="9.29049">
        <ele>698</ele>
        <time>2022-05-23T22:59:52Z</time>
      </trkpt>
      <trkpt lat="48.13522" lon="9.29046">
        <ele>704</ele>
        <time>2022-05-23T23:00:04Z</time>
      </trkpt>
      <trkpt lat="48.13566" lon="9.29066">
        <ele>705</ele>
        <time>2022-05-23T23:00:12Z</time>
      </trkpt>
      <trkpt lat="48.13642" lon="9.29071">
        <ele>708</ele>
        <time>2022-05-23T23:00:26Z</time>
      </trkpt>
      <trkpt lat="48.137" lon="9.29094">
        <ele>707</ele>
        <time>2022-05-23T23:00:36Z</time>
      </trkpt>
      <trkpt lat="48.137" lon="9.2919">
        <ele>707</ele>
        <time>2022-05-23T23:00:48Z</time>
      </trkpt>
      <trkpt lat="48.13799" lon="9.29263">
        <ele>701</ele>
        <time>2022-05-23T23:01:07Z</time>
      </trkpt>
      <trkpt lat="48.13831" lon="9.2954">
        <ele>690</ele>
        <time>2022-05-23T23:01:41Z</time>
      </trkpt>
      <trkpt lat="48.13819" lon="9.29571">
        <ele>691</ele>
        <time>2022-05-23T23:01:45Z</time>
      </trkpt>
      <trkpt lat="48.13807" lon="9.29641">
        <ele>693</ele>
        <time>2022-05-23T23:01:53Z</time>
      </trkpt>
      <trkpt lat="48.13807" lon="9.2967">
        <ele>694</ele>
        <time>2022-05-23T23:01:57Z</time>
      </trkpt>
      <trkpt lat="48.13828" lon="9.29775">
        <ele>689</ele>
        <time>2022-05-23T23:02:10Z</time>
      </trkpt>
      <trkpt lat="48.13827" lon="9.29844">
        <ele>684</ele>
        <time>2022-05-23T23:02:18Z</time>
      </trkpt>
      <trkpt lat="48.1378" lon="9.30045">
        <ele>674</ele>
        <time>2022-05-23T23:02:43Z</time>
      </trkpt>
      <trkpt lat="48.13785" lon="9.30123">
        <ele>670</ele>
        <time>2022-05-23T23:02:53Z</time>
      </trkpt>
      <trkpt lat="48.13784" lon="9.30197">
        <ele>666</ele>
        <time>2022-05-23T23:03:02Z</time>
      </trkpt>
      <trkpt lat="48.13768" lon="9.3025">
        <ele>662</ele>
        <time>2022-05-23T23:03:08Z</time>
      </trkpt>
      <trkpt lat="48.13755" lon="9.30277">
        <ele>658</ele>
        <time>2022-05-23T23:03:12Z</time>
      </trkpt>
      <trkpt lat="48.13701" lon="9.30346">
        <ele>654</ele>
        <time>2022-05-23T23:03:25Z</time>
      </trkpt>
      <trkpt lat="48.13683" lon="9.30359">
        <ele>654</ele>
        <time>2022-05-23T23:03:29Z</time>
      </trkpt>
      <trkpt lat="48.13672" lon="9.30358">
        <ele>654</ele>
        <time>2022-05-23T23:03:31Z</time>
      </trkpt>
      <trkpt lat="48.13661" lon="9.30367">
        <ele>654</ele>
        <time>2022-05-23T23:03:33Z</time>
      </trkpt>
      <trkpt lat="48.13599" lon="9.30442">
        <ele>648</ele>
        <time>2022-05-23T23:03:47Z</time>
      </trkpt>
      <trkpt lat="48.13566" lon="9.3051">
        <ele>647</ele>
        <time>2022-05-23T23:03:57Z</time>
      </trkpt>
      <trkpt lat="48.13524" lon="9.30651">
        <ele>650</ele>
        <time>2022-05-23T23:04:15Z</time>
      </trkpt>
      <trkpt lat="48.13501" lon="9.30684">
        <ele>647</ele>
        <time>2022-05-23T23:04:21Z</time>
      </trkpt>
      <trkpt lat="48.13473" lon="9.30745">
        <ele>646</ele>
        <time>2022-05-23T23:04:30Z</time>
      </trkpt>
      <trkpt lat="48.13462" lon="9.30792">
        <ele>648</ele>
        <time>2022-05-23T23:04:36Z</time>
      </trkpt>
      <trkpt lat="48.13468" lon="9.30858">
        <ele>656</ele>
        <time>2022-05-23T23:04:44Z</time>
      </trkpt>
      <trkpt lat="48.13464" lon="9.30882">
        <ele>657</ele>
        <time>2022-05-23T23:04:46Z</time>
      </trkpt>
      <trkpt lat="48.13439" lon="9.30965">
        <ele>656</ele>
        <time>2022-05-23T23:04:57Z</time>
      </trkpt>
      <trkpt lat="48.13413" lon="9.31102">
        <ele>656</ele>
        <time>2022-05-23T23:05:14Z</time>
      </trkpt>
      <trkpt lat="48.13381" lon="9.31192">
        <ele>658</ele>
        <time>2022-05-23T23:05:26Z</time>
      </trkpt>
      <trkpt lat="48.13341" lon="9.31132">
        <ele>651</ele>
        <time>2022-05-23T23:05:36Z</time>
      </trkpt>
      <trkpt lat="48.13381" lon="9.31192">
        <ele>658</ele>
        <time>2022-05-23T23:05:46Z</time>
      </trkpt>
      <trkpt lat="48.13332" lon="9.31358">
        <ele>662</ele>
        <time>2022-05-23T23:06:08Z</time>
      </trkpt>
      <trkpt lat="48.13314" lon="9.31399">
        <ele>663</ele>
        <time>2022-05-23T23:06:14Z</time>
      </trkpt>
      <trkpt lat="48.13226" lon="9.31625">
        <ele>661</ele>
        <time>2022-05-23T23:06:45Z</time>
      </trkpt>
      <trkpt lat="48.13168" lon="9.31857">
        <ele>654</ele>
        <time>2022-05-23T23:07:14Z</time>
      </trkpt>
      <trkpt lat="48.13144" lon="9.319">
        <ele>652</ele>
        <time>2022-05-23T23:07:21Z</time>
      </trkpt>
      <trkpt lat="48.13137" lon="9.31948">
        <ele>651</ele>
        <time>2022-05-23T23:07:27Z</time>
      </trkpt>
      <trkpt lat="48.13152" lon="9.32257">
        <ele>665</ele>
        <time>2022-05-23T23:08:04Z</time>
      </trkpt>
      <trkpt lat="48.13134" lon="9.3234">
        <ele>669</ele>
        <time>2022-05-23T23:08:14Z</time>
      </trkpt>
      <trkpt lat="48.13108" lon="9.32404">
        <ele>666</ele>
        <time>2022-05-23T23:08:23Z</time>
      </trkpt>
      <trkpt lat="48.13096" lon="9.3242">
        <ele>666</ele>
        <time>2022-05-23T23:08:26Z</time>
      </trkpt>
      <trkpt lat="48.12716" lon="9.32757">
        <ele>680</ele>
        <time>2022-05-23T23:09:44Z</time>
      </trkpt>
      <trkpt lat="48.12476" lon="9.32974">
        <ele>667</ele>
        <time>2022-05-23T23:10:34Z</time>
      </trkpt>
      <trkpt lat="48.12483" lon="9.33015">
        <ele>666</ele>
        <time>2022-05-23T23:10:39Z</time>
      </trkpt>
      <trkpt lat="48.1246" lon="9.33222">
        <ele>665</ele>
        <time>2022-05-23T23:11:04Z</time>
      </trkpt>
      <trkpt lat="48.12561" lon="9.33475">
        <ele>644</ele>
        <time>2022-05-23T23:11:39Z</time>
      </trkpt>
      <trkpt lat="48.12568" lon="9.33546">
        <ele>639</ele>
        <time>2022-05-23T23:11:48Z</time>
      </trkpt>
      <trkpt lat="48.12563" lon="9.33668">
        <ele>632</ele>
        <time>2022-05-23T23:12:02Z</time>
      </trkpt>
      <trkpt lat="48.12594" lon="9.33788">
        <ele>629</ele>
        <time>2022-05-23T23:12:17Z</time>
      </trkpt>
      <trkpt lat="48.12627" lon="9.33802">
        <ele>630</ele>
        <time>2022-05-23T23:12:24Z</time>
      </trkpt>
      <trkpt lat="48.12668" lon="9.33804">
        <ele>630</ele>
        <time>2022-05-23T23:12:31Z</time>
      </trkpt>
      <trkpt lat="48.12712" lon="9.33819">
        <ele>628</ele>
        <time>2022-05-23T23:12:39Z</time>
      </trkpt>
      <trkpt lat="48.12748" lon="9.33875">
        <ele>624</ele>
        <time>2022-05-23T23:12:48Z</time>
      </trkpt>
      <trkpt lat="48.12763" lon="9.33928">
        <ele>624</ele>
        <time>2022-05-23T23:12:55Z</time>
      </trkpt>
      <trkpt lat="48.12758" lon="9.34009">
        <ele>622</ele>
        <time>2022-05-23T23:13:05Z</time>
      </trkpt>
      <trkpt lat="48.12727" lon="9.34204">
        <ele>604</ele>
        <time>2022-05-23T23:13:28Z</time>
      </trkpt>
      <trkpt lat="48.12717" lon="9.34244">
        <ele>601</ele>
        <time>2022-05-23T23:13:33Z</time>
      </trkpt>
      <trkpt lat="48.12691" lon="9.34296">
        <ele>597</ele>
        <time>2022-05-23T23:13:41Z</time>
      </trkpt>
      <trkpt lat="48.1268" lon="9.3435">
        <ele>593</ele>
        <time>2022-05-23T23:13:48Z</time>
      </trkpt>
      <trkpt lat="48.12722" lon="9.34388">
        <ele>592</ele>
        <time>2022-05-23T23:13:57Z</time>
      </trkpt>
      <trkpt lat="48.12765" lon="9.34439">
        <ele>589</ele>
        <time>2022-05-23T23:14:06Z</time>
      </trkpt>
      <trkpt lat="48.12798" lon="9.34494">
        <ele>586</ele>
        <time>2022-05-23T23:14:15Z</time>
      </trkpt>
      <trkpt lat="48.12948" lon="9.34839">
        <ele>577</ele>
        <time>2022-05-23T23:15:04Z</time>
      </trkpt>
      <trkpt lat="48.12961" lon="9.34854">
        <ele>576</ele>
        <time>2022-05-23T23:15:07Z</time>
      </trkpt>
      <trkpt lat="48.12976" lon="9.34859">
        <ele>577</ele>
        <time>2022-05-23T23:15:10Z</time>
      </trkpt>
      <trkpt lat="48.13005" lon="9.34845">
        <ele>579</ele>
        <time>2022-05-23T23:15:15Z</time>
      </trkpt>
      <trkpt lat="48.13047" lon="9.34896">
        <ele>576</ele>
        <time>2022-05-23T23:15:25Z</time>
      </trkpt>
      <trkpt lat="48.13106" lon="9.34987">
        <ele>574</ele>
        <time>2022-05-23T23:15:40Z</time>
      </trkpt>
      <trkpt lat="48.13152" lon="9.3505">
        <ele>574</ele>
        <time>2022-05-23T23:15:51Z</time>
      </trkpt>
      <trkpt lat="48.132" lon="9.35094">
        <ele>574</ele>
        <time>2022-05-23T23:16:01Z</time>
      </trkpt>
      <trkpt lat="48.1319" lon="9.35109">
        <ele>574</ele>
        <time>2022-05-23T23:16:03Z</time>
      </trkpt>
      <trkpt lat="48.13206" lon="9.35109">
        <ele>574</ele>
        <time>2022-05-23T23:16:06Z</time>
      </trkpt>
      <trkpt lat="48.13312" lon="9.35166">
        <ele>573</ele>
        <time>2022-05-23T23:16:26Z</time>
      </trkpt>
      <trkpt lat="48.13314" lon="9.3516">
        <ele>573</ele>
        <time>2022-05-23T23:16:27Z</time>
      </trkpt>
      <trkpt lat="48.13559" lon="9.35295">
        <ele>573</ele>
        <time>2022-05-23T23:17:14Z</time>
      </trkpt>
      <trkpt lat="48.13627" lon="9.35337">
        <ele>576</ele>
        <time>2022-05-23T23:17:27Z</time>
      </trkpt>
      <trkpt lat="48.13728" lon="9.35405">
        <ele>578</ele>
        <time>2022-05-23T23:17:46Z</time>
      </trkpt>
      <trkpt lat="48.13756" lon="9.35451">
        <ele>577</ele>
        <time>2022-05-23T23:17:54Z</time>
      </trkpt>
      <trkpt lat="48.13766" lon="9.35474">
        <ele>576</ele>
        <time>2022-05-23T23:17:57Z</time>
      </trkpt>
      <trkpt lat="48.13842" lon="9.35589">
        <ele>577</ele>
        <time>2022-05-23T23:18:16Z</time>
      </trkpt>
      <trkpt lat="48.13854" lon="9.35617">
        <ele>577</ele>
        <time>2022-05-23T23:18:20Z</time>
      </trkpt>
      <trkpt lat="48.13859" lon="9.35669">
        <ele>576</ele>
        <time>2022-05-23T23:18:26Z</time>
      </trkpt>
      <trkpt lat="48.13845" lon="9.35752">
        <ele>573</ele>
        <time>2022-05-23T23:18:37Z</time>
      </trkpt>
      <trkpt lat="48.13846" lon="9.3583">
        <ele>570</ele>
        <time>2022-05-23T23:18:46Z</time>
      </trkpt>
      <trkpt lat="48.13838" lon="9.35847">
        <ele>569</ele>
        <time>2022-05-23T23:18:48Z</time>
      </trkpt>
      <trkpt lat="48.13848" lon="9.36087">
        <ele>565</ele>
        <time>2022-05-23T23:19:17Z</time>
      </trkpt>
      <trkpt lat="48.13846" lon="9.36211">
        <ele>565</ele>
        <time>2022-05-23T23:19:32Z</time>
      </trkpt>
      <trkpt lat="48.13887" lon="9.3623">
        <ele>565</ele>
        <time>2022-05-23T23:19:39Z</time>
      </trkpt>
      <trkpt lat="48.13943" lon="9.36244">
        <ele>565</ele>
        <time>2022-05-23T23:19:49Z</time>
      </trkpt>
      <trkpt lat="48.1402" lon="9.3622">
        <ele>568</ele>
        <time>2022-05-23T23:20:03Z</time>
      </trkpt>
      <trkpt lat="48.14167" lon="9.36425">
        <ele>569</ele>
        <time>2022-05-23T23:20:39Z</time>
      </trkpt>
      <trkpt lat="48.14255" lon="9.36594">
        <ele>572</ele>
        <time>2022-05-23T23:21:05Z</time>
      </trkpt>
      <trkpt lat="48.14384" lon="9.36809">
        <ele>570</ele>
        <time>2022-05-23T23:21:39Z</time>
      </trkpt>
      <trkpt lat="48.14444" lon="9.36904">
        <ele>570</ele>
        <time>2022-05-23T23:21:54Z</time>
      </trkpt>
      <trkpt lat="48.14618" lon="9.37141">
        <ele>570</ele>
        <time>2022-05-23T23:22:36Z</time>
      </trkpt>
      <trkpt lat="48.14617" lon="9.37173">
        <ele>569</ele>
        <time>2022-05-23T23:22:40Z</time>
      </trkpt>
      <trkpt lat="48.14639" lon="9.37166">
        <ele>570</ele>
        <time>2022-05-23T23:22:44Z</time>
      </trkpt>
      <trkpt lat="48.14659" lon="9.37193">
        <ele>570</ele>
        <time>2022-05-23T23:22:49Z</time>
      </trkpt>
      <trkpt lat="48.14708" lon="9.3723">
        <ele>571</ele>
        <time>2022-05-23T23:22:59Z</time>
      </trkpt>
      <trkpt lat="48.14736" lon="9.37247">
        <ele>571</ele>
        <time>2022-05-23T23:23:04Z</time>
      </trkpt>
      <trkpt lat="48.1475" lon="9.37251">
        <ele>571</ele>
        <time>2022-05-23T23:23:06Z</time>
      </trkpt>
      <trkpt lat="48.14754" lon="9.37246">
        <ele>571</ele>
        <time>2022-05-23T23:23:07Z</time>
      </trkpt>
      <trkpt lat="48.14772" lon="9.37249">
        <ele>571</ele>
        <time>2022-05-23T23:23:11Z</time>
      </trkpt>
      <trkpt lat="48.14803" lon="9.37246">
        <ele>571</ele>
        <time>2022-05-23T23:23:16Z</time>
      </trkpt>
      <trkpt lat="48.14843" lon="9.37232">
        <ele>571</ele>
        <time>2022-05-23T23:23:23Z</time>
      </trkpt>
      <trkpt lat="48.14871" lon="9.37235">
        <ele>570</ele>
        <time>2022-05-23T23:23:28Z</time>
      </trkpt>
      <trkpt lat="48.14897" lon="9.37264">
        <ele>570</ele>
        <time>2022-05-23T23:23:34Z</time>
      </trkpt>
      <trkpt lat="48.14908" lon="9.37299">
        <ele>570</ele>
        <time>2022-05-23T23:23:39Z</time>
      </trkpt>
      <trkpt lat="48.14913" lon="9.37415">
        <ele>572</ele>
        <time>2022-05-23T23:23:53Z</time>
      </trkpt>
      <trkpt lat="48.14912" lon="9.37485">
        <ele>573</ele>
        <time>2022-05-23T23:24:01Z</time>
      </trkpt>
      <trkpt lat="48.1494" lon="9.3749">
        <ele>573</ele>
        <time>2022-05-23T23:24:06Z</time>
      </trkpt>
      <trkpt lat="48.14958" lon="9.3749">
        <ele>573</ele>
        <time>2022-05-23T23:24:09Z</time>
      </trkpt>
      <trkpt lat="48.15014" lon="9.37484">
        <ele>571</ele>
        <time>2022-05-23T23:24:19Z</time>
      </trkpt>
      <trkpt lat="48.1505" lon="9.37442">
        <ele>568</ele>
        <time>2022-05-23T23:24:27Z</time>
      </trkpt>
      <trkpt lat="48.15134" lon="9.37304">
        <ele>568</ele>
        <time>2022-05-23T23:24:49Z</time>
      </trkpt>
      <trkpt lat="48.15185" lon="9.37237">
        <ele>569</ele>
        <time>2022-05-23T23:25:01Z</time>
      </trkpt>
      <trkpt lat="48.15269" lon="9.3731">
        <ele>570</ele>
        <time>2022-05-23T23:25:19Z</time>
      </trkpt>
      <trkpt lat="48.15303" lon="9.37242">
        <ele>573</ele>
        <time>2022-05-23T23:25:29Z</time>
      </trkpt>
      <trkpt lat="48.15326" lon="9.37227">
        <ele>574</ele>
        <time>2022-05-23T23:25:33Z</time>
      </trkpt>
      <trkpt lat="48.15594" lon="9.37248">
        <ele>589</ele>
        <time>2022-05-23T23:26:21Z</time>
      </trkpt>
      <trkpt lat="48.15793" lon="9.37209">
        <ele>611</ele>
        <time>2022-05-23T23:26:57Z</time>
      </trkpt>
      <trkpt lat="48.15981" lon="9.37145">
        <ele>644</ele>
        <time>2022-05-23T23:27:31Z</time>
      </trkpt>
      <trkpt lat="48.16038" lon="9.37116">
        <ele>659</ele>
        <time>2022-05-23T23:27:42Z</time>
      </trkpt>
      <trkpt lat="48.1605" lon="9.37113">
        <ele>662</ele>
        <time>2022-05-23T23:27:44Z</time>
      </trkpt>
      <trkpt lat="48.16058" lon="9.37123">
        <ele>663</ele>
        <time>2022-05-23T23:27:46Z</time>
      </trkpt>
      <trkpt lat="48.16126" lon="9.37286">
        <ele>663</ele>
        <time>2022-05-23T23:28:09Z</time>
      </trkpt>
      <trkpt lat="48.16282" lon="9.37751">
        <ele>674</ele>
        <time>2022-05-23T23:29:10Z</time>
      </trkpt>
      <trkpt lat="48.16297" lon="9.37818">
        <ele>672</ele>
        <time>2022-05-23T23:29:19Z</time>
      </trkpt>
      <trkpt lat="48.16306" lon="9.37817">
        <ele>674</ele>
        <time>2022-05-23T23:29:20Z</time>
      </trkpt>
      <trkpt lat="48.16294" lon="9.37705">
        <ele>680</ele>
        <time>2022-05-23T23:29:34Z</time>
      </trkpt>
      <trkpt lat="48.16293" lon="9.37601">
        <ele>683</ele>
        <time>2022-05-23T23:29:46Z</time>
      </trkpt>
      <trkpt lat="48.16307" lon="9.37391">
        <ele>702</ele>
        <time>2022-05-23T23:30:11Z</time>
      </trkpt>
      <trkpt lat="48.16336" lon="9.372">
        <ele>711</ele>
        <time>2022-05-23T23:30:34Z</time>
      </trkpt>
      <trkpt lat="48.16363" lon="9.37137">
        <ele>717</ele>
        <time>2022-05-23T23:30:43Z</time>
      </trkpt>
      <trkpt lat="48.16394" lon="9.37101">
        <ele>719</ele>
        <time>2022-05-23T23:30:50Z</time>
      </trkpt>
      <trkpt lat="48.16447" lon="9.37079">
        <ele>722</ele>
        <time>2022-05-23T23:31:00Z</time>
      </trkpt>
      <trkpt lat="48.16482" lon="9.37078">
        <ele>723</ele>
        <time>2022-05-23T23:31:06Z</time>
      </trkpt>
      <trkpt lat="48.16882" lon="9.37232">
        <ele>731</ele>
        <time>2022-05-23T23:32:20Z</time>
      </trkpt>
      <trkpt lat="48.17194" lon="9.37355">
        <ele>717</ele>
        <time>2022-05-23T23:33:17Z</time>
      </trkpt>
      <trkpt lat="48.17195" lon="9.37346">
        <ele>716</ele>
        <time>2022-05-23T23:33:18Z</time>
      </trkpt>
      <trkpt lat="48.17202" lon="9.37344">
        <ele>716</ele>
        <time>2022-05-23T23:33:20Z</time>
      </trkpt>
      <trkpt lat="48.17353" lon="9.37402">
        <ele>713</ele>
        <time>2022-05-23T23:33:47Z</time>
      </trkpt>
      <trkpt lat="48.1738" lon="9.37404">
        <ele>712</ele>
        <time>2022-05-23T23:33:52Z</time>
      </trkpt>
      <trkpt lat="48.17424" lon="9.37395">
        <ele>709</ele>
        <time>2022-05-23T23:34:00Z</time>
      </trkpt>
      <trkpt lat="48.17499" lon="9.37348">
        <ele>702</ele>
        <time>2022-05-23T23:34:15Z</time>
      </trkpt>
      <trkpt lat="48.17567" lon="9.37348">
        <ele>699</ele>
        <time>2022-05-23T23:34:27Z</time>
      </trkpt>
      <trkpt lat="48.17702" lon="9.3739">
        <ele>688</ele>
        <time>2022-05-23T23:34:51Z</time>
      </trkpt>
      <trkpt lat="48.17734" lon="9.3742">
        <ele>687</ele>
        <time>2022-05-23T23:34:58Z</time>
      </trkpt>
      <trkpt lat="48.1777" lon="9.37485">
        <ele>688</ele>
        <time>2022-05-23T23:35:08Z</time>
      </trkpt>
      <trkpt lat="48.17775" lon="9.37499">
        <ele>689</ele>
        <time>2022-05-23T23:35:10Z</time>
      </trkpt>
      <trkpt lat="48.17911" lon="9.37472">
        <ele>674</ele>
        <time>2022-05-23T23:35:34Z</time>
      </trkpt>
      <trkpt lat="48.17919" lon="9.37463">
        <ele>672</ele>
        <time>2022-05-23T23:35:36Z</time>
      </trkpt>
      <trkpt lat="48.17938" lon="9.37516">
        <ele>673</ele>
        <time>2022-05-23T23:35:43Z</time>
      </trkpt>
      <trkpt lat="48.18009" lon="9.37447">
        <ele>660</ele>
        <time>2022-05-23T23:35:58Z</time>
      </trkpt>
      <trkpt lat="48.18026" lon="9.37435">
        <ele>658</ele>
        <time>2022-05-23T23:36:01Z</time>
      </trkpt>
      <trkpt lat="48.18041" lon="9.37543">
        <ele>660</ele>
        <time>2022-05-23T23:36:15Z</time>
      </trkpt>
      <trkpt lat="48.18072" lon="9.37527">
        <ele>655</ele>
        <time>2022-05-23T23:36:20Z</time>
      </trkpt>
      <trkpt lat="48.18092" lon="9.37537">
        <ele>654</ele>
        <time>2022-05-23T23:36:24Z</time>
      </trkpt>
      <trkpt lat="48.18107" lon="9.37534">
        <ele>653</ele>
        <time>2022-05-23T23:36:27Z</time>
      </trkpt>
      <trkpt lat="48.1813" lon="9.37502">
        <ele>650</ele>
        <time>2022-05-23T23:36:32Z</time>
      </trkpt>
      <trkpt lat="48.18148" lon="9.37471">
        <ele>648</ele>
        <time>2022-05-23T23:36:37Z</time>
      </trkpt>
      <trkpt lat="48.18177" lon="9.37486">
        <ele>647</ele>
        <time>2022-05-23T23:36:43Z</time>
      </trkpt>
      <trkpt lat="48.18193" lon="9.37498">
        <ele>646</ele>
        <time>2022-05-23T23:36:46Z</time>
      </trkpt>
      <trkpt lat="48.18217" lon="9.37525">
        <ele>646</ele>
        <time>2022-05-23T23:36:51Z</time>
      </trkpt>
      <trkpt lat="48.18308" lon="9.37681">
        <ele>648</ele>
        <time>2022-05-23T23:37:16Z</time>
      </trkpt>
      <trkpt lat="48.18352" lon="9.37748">
        <ele>648</ele>
        <time>2022-05-23T23:37:27Z</time>
      </trkpt>
      <trkpt lat="48.18383" lon="9.37784">
        <ele>649</ele>
        <time>2022-05-23T23:37:34Z</time>
      </trkpt>
      <trkpt lat="48.18431" lon="9.37814">
        <ele>644</ele>
        <time>2022-05-23T23:37:43Z</time>
      </trkpt>
      <trkpt lat="48.18546" lon="9.37904">
        <ele>638</ele>
        <time>2022-05-23T23:38:06Z</time>
      </trkpt>
      <trkpt lat="48.18689" lon="9.37974">
        <ele>633</ele>
        <time>2022-05-23T23:38:33Z</time>
      </trkpt>
      <trkpt lat="48.18739" lon="9.38014">
        <ele>630</ele>
        <time>2022-05-23T23:38:43Z</time>
      </trkpt>
      <trkpt lat="48.18925" lon="9.38209">
        <ele>628</ele>
        <time>2022-05-23T23:39:24Z</time>
      </trkpt>
      <trkpt lat="48.18975" lon="9.38268">
        <ele>628</ele>
        <time>2022-05-23T23:39:35Z</time>
      </trkpt>
      <trkpt lat="48.19042" lon="9.38372">
        <ele>627</ele>
        <time>2022-05-23T23:39:52Z</time>
      </trkpt>
      <trkpt lat="48.1907" lon="9.38423">
        <ele>626</ele>
        <time>2022-05-23T23:40:00Z</time>
      </trkpt>
      <trkpt lat="48.19117" lon="9.38526">
        <ele>626</ele>
        <time>2022-05-23T23:40:15Z</time>
      </trkpt>
      <trkpt lat="48.19216" lon="9.38783">
        <ele>641</ele>
        <time>2022-05-23T23:40:50Z</time>
      </trkpt>
      <trkpt lat="48.19239" lon="9.38822">
        <ele>645</ele>
        <time>2022-05-23T23:40:56Z</time>
      </trkpt>
      <trkpt lat="48.19264" lon="9.38846">
        <ele>650</ele>
        <time>2022-05-23T23:41:01Z</time>
      </trkpt>
      <trkpt lat="48.19296" lon="9.38858">
        <ele>654</ele>
        <time>2022-05-23T23:41:07Z</time>
      </trkpt>
      <trkpt lat="48.19409" lon="9.3899">
        <ele>649</ele>
        <time>2022-05-23T23:41:33Z</time>
      </trkpt>
      <trkpt lat="48.19463" lon="9.39145">
        <ele>642</ele>
        <time>2022-05-23T23:41:53Z</time>
      </trkpt>
      <trkpt lat="48.19485" lon="9.39231">
        <ele>636</ele>
        <time>2022-05-23T23:42:04Z</time>
      </trkpt>
      <trkpt lat="48.19503" lon="9.39269">
        <ele>633</ele>
        <time>2022-05-23T23:42:10Z</time>
      </trkpt>
      <trkpt lat="48.19539" lon="9.39327">
        <ele>632</ele>
        <time>2022-05-23T23:42:19Z</time>
      </trkpt>
      <trkpt lat="48.19568" lon="9.39353">
        <ele>634</ele>
        <time>2022-05-23T23:42:25Z</time>
      </trkpt>
      <trkpt lat="48.19648" lon="9.39369">
        <ele>634</ele>
        <time>2022-05-23T23:42:40Z</time>
      </trkpt>
      <trkpt lat="48.19693" lon="9.3937">
        <ele>640</ele>
        <time>2022-05-23T23:42:48Z</time>
      </trkpt>
      <trkpt lat="48.19702" lon="9.39377">
        <ele>642</ele>
        <time>2022-05-23T23:42:49Z</time>
      </trkpt>
      <trkpt lat="48.19722" lon="9.3941">
        <ele>644</ele>
        <time>2022-05-23T23:42:55Z</time>
      </trkpt>
      <trkpt lat="48.19731" lon="9.39455">
        <ele>643</ele>
        <time>2022-05-23T23:43:00Z</time>
      </trkpt>
      <trkpt lat="48.19719" lon="9.39505">
        <ele>641</ele>
        <time>2022-05-23T23:43:07Z</time>
      </trkpt>
      <trkpt lat="48.19687" lon="9.39565">
        <ele>636</ele>
        <time>2022-05-23T23:43:16Z</time>
      </trkpt>
      <trkpt lat="48.19663" lon="9.39658">
        <ele>629</ele>
        <time>2022-05-23T23:43:28Z</time>
      </trkpt>
      <trkpt lat="48.19665" lon="9.3967">
        <ele>628</ele>
        <time>2022-05-23T23:43:29Z</time>
      </trkpt>
      <trkpt lat="48.19696" lon="9.39742">
        <ele>630</ele>
        <time>2022-05-23T23:43:39Z</time>
      </trkpt>
      <trkpt lat="48.19731" lon="9.39842">
        <ele>627</ele>
        <time>2022-05-23T23:43:53Z</time>
      </trkpt>
      <trkpt lat="48.19774" lon="9.39945">
        <ele>623</ele>
        <time>2022-05-23T23:44:07Z</time>
      </trkpt>
      <trkpt lat="48.19845" lon="9.40158">
        <ele>615</ele>
        <time>2022-05-23T23:44:35Z</time>
      </trkpt>
      <trkpt lat="48.19886" lon="9.40237">
        <ele>617</ele>
        <time>2022-05-23T23:44:47Z</time>
      </trkpt>
      <trkpt lat="48.19912" lon="9.40309">
        <ele>617</ele>
        <time>2022-05-23T23:44:57Z</time>
      </trkpt>
      <trkpt lat="48.19945" lon="9.40353">
        <ele>620</ele>
        <time>2022-05-23T23:45:05Z</time>
      </trkpt>
      <trkpt lat="48.19971" lon="9.40403">
        <ele>620</ele>
        <time>2022-05-23T23:45:12Z</time>
      </trkpt>
      <trkpt lat="48.20079" lon="9.40688">
        <ele>613</ele>
        <time>2022-05-23T23:45:51Z</time>
      </trkpt>
      <trkpt lat="48.20157" lon="9.40864">
        <ele>617</ele>
        <time>2022-05-23T23:46:16Z</time>
      </trkpt>
      <trkpt lat="48.20183" lon="9.40947">
        <ele>617</ele>
        <time>2022-05-23T23:46:27Z</time>
      </trkpt>
      <trkpt lat="48.20196" lon="9.41048">
        <ele>619</ele>
        <time>2022-05-23T23:46:39Z</time>
      </trkpt>
      <trkpt lat="48.20235" lon="9.41187">
        <ele>623</ele>
        <time>2022-05-23T23:46:57Z</time>
      </trkpt>
      <trkpt lat="48.20271" lon="9.41359">
        <ele>627</ele>
        <time>2022-05-23T23:47:19Z</time>
      </trkpt>
      <trkpt lat="48.20267" lon="9.41412">
        <ele>626</ele>
        <time>2022-05-23T23:47:25Z</time>
      </trkpt>
      <trkpt lat="48.20289" lon="9.41574">
        <ele>624</ele>
        <time>2022-05-23T23:47:44Z</time>
      </trkpt>
      <trkpt lat="48.20306" lon="9.41611">
        <ele>627</ele>
        <time>2022-05-23T23:47:50Z</time>
      </trkpt>
      <trkpt lat="48.20329" lon="9.41645">
        <ele>633</ele>
        <time>2022-05-23T23:47:56Z</time>
      </trkpt>
      <trkpt lat="48.20337" lon="9.41685">
        <ele>634</ele>
        <time>2022-05-23T23:48:00Z</time>
      </trkpt>
      <trkpt lat="48.20335" lon="9.4171">
        <ele>634</ele>
        <time>2022-05-23T23:48:03Z</time>
      </trkpt>
      <trkpt lat="48.20323" lon="9.41746">
        <ele>631</ele>
        <time>2022-05-23T23:48:08Z</time>
      </trkpt>
      <trkpt lat="48.20328" lon="9.41751">
        <ele>633</ele>
        <time>2022-05-23T23:48:09Z</time>
      </trkpt>
      <trkpt lat="48.20334" lon="9.41799">
        <ele>635</ele>
        <time>2022-05-23T23:48:15Z</time>
      </trkpt>
      <trkpt lat="48.20366" lon="9.41911">
        <ele>641</ele>
        <time>2022-05-23T23:48:30Z</time>
      </trkpt>
      <trkpt lat="48.20375" lon="9.41926">
        <ele>642</ele>
        <time>2022-05-23T23:48:32Z</time>
      </trkpt>
      <trkpt lat="48.20385" lon="9.41929">
        <ele>643</ele>
        <time>2022-05-23T23:48:34Z</time>
      </trkpt>
      <trkpt lat="48.20405" lon="9.41922">
        <ele>648</ele>
        <time>2022-05-23T23:48:37Z</time>
      </trkpt>
      <trkpt lat="48.20491" lon="9.41958">
        <ele>651</ele>
        <time>2022-05-23T23:48:53Z</time>
      </trkpt>
      <trkpt lat="48.2051" lon="9.41958">
        <ele>653</ele>
        <time>2022-05-23T23:48:57Z</time>
      </trkpt>
      <trkpt lat="48.2059" lon="9.42">
        <ele>660</ele>
        <time>2022-05-23T23:49:12Z</time>
      </trkpt>
      <trkpt lat="48.20619" lon="9.42001">
        <ele>660</ele>
        <time>2022-05-23T23:49:17Z</time>
      </trkpt>
      <trkpt lat="48.20661" lon="9.41978">
        <ele>664</ele>
        <time>2022-05-23T23:49:25Z</time>
      </trkpt>
      <trkpt lat="48.20684" lon="9.41956">
        <ele>668</ele>
        <time>2022-05-23T23:49:30Z</time>
      </trkpt>
      <trkpt lat="48.20694" lon="9.41932">
        <ele>672</ele>
        <time>2022-05-23T23:49:33Z</time>
      </trkpt>
      <trkpt lat="48.20785" lon="9.41989">
        <ele>666</ele>
        <time>2022-05-23T23:49:51Z</time>
      </trkpt>
      <trkpt lat="48.20827" lon="9.42038">
        <ele>660</ele>
        <time>2022-05-23T23:50:00Z</time>
      </trkpt>
      <trkpt lat="48.20854" lon="9.42092">
        <ele>653</ele>
        <time>2022-05-23T23:50:08Z</time>
      </trkpt>
      <trkpt lat="48.20905" lon="9.42226">
        <ele>645</ele>
        <time>2022-05-23T23:50:26Z</time>
      </trkpt>
      <trkpt lat="48.20924" lon="9.42261">
        <ele>644</ele>
        <time>2022-05-23T23:50:32Z</time>
      </trkpt>
      <trkpt lat="48.2095" lon="9.42291">
        <ele>640</ele>
        <time>2022-05-23T23:50:38Z</time>
      </trkpt>
      <trkpt lat="48.20983" lon="9.42307">
        <ele>636</ele>
        <time>2022-05-23T23:50:44Z</time>
      </trkpt>
      <trkpt lat="48.21059" lon="9.42302">
        <ele>633</ele>
        <time>2022-05-23T23:50:57Z</time>
      </trkpt>
      <trkpt lat="48.21113" lon="9.42312">
        <ele>628</ele>
        <time>2022-05-23T23:51:07Z</time>
      </trkpt>
      <trkpt lat="48.21348" lon="9.42415">
        <ele>603</ele>
        <time>2022-05-23T23:51:51Z</time>
      </trkpt>
      <trkpt lat="48.21424" lon="9.42472">
        <ele>593</ele>
        <time>2022-05-23T23:52:06Z</time>
      </trkpt>
      <trkpt lat="48.21457" lon="9.42513">
        <ele>585</ele>
        <time>2022-05-23T23:52:13Z</time>
      </trkpt>
      <trkpt lat="48.21494" lon="9.4258">
        <ele>581</ele>
        <time>2022-05-23T23:52:24Z</time>
      </trkpt>
      <trkpt lat="48.21526" lon="9.42697">
        <ele>578</ele>
        <time>2022-05-23T23:52:39Z</time>
      </trkpt>
      <trkpt lat="48.21549" lon="9.42762">
        <ele>580</ele>
        <time>2022-05-23T23:52:47Z</time>
      </trkpt>
      <trkpt lat="48.21564" lon="9.42789">
        <ele>581</ele>
        <time>2022-05-23T23:52:51Z</time>
      </trkpt>
      <trkpt lat="48.21585" lon="9.42812">
        <ele>581</ele>
        <time>2022-05-23T23:52:56Z</time>
      </trkpt>
      <trkpt lat="48.21925" lon="9.43046">
        <ele>582</ele>
        <time>2022-05-23T23:54:03Z</time>
      </trkpt>
      <trkpt lat="48.22067" lon="9.43171">
        <ele>594</ele>
        <time>2022-05-23T23:54:32Z</time>
      </trkpt>
      <trkpt lat="48.22105" lon="9.4322">
        <ele>591</ele>
        <time>2022-05-23T23:54:41Z</time>
      </trkpt>
      <trkpt lat="48.22171" lon="9.43266">
        <ele>588</ele>
        <time>2022-05-23T23:54:54Z</time>
      </trkpt>
      <trkpt lat="48.22196" lon="9.43299">
        <ele>592</ele>
        <time>2022-05-23T23:55:00Z</time>
      </trkpt>
      <trkpt lat="48.22271" lon="9.43503">
        <ele>585</ele>
        <time>2022-05-23T23:55:27Z</time>
      </trkpt>
      <trkpt lat="48.22308" lon="9.4365">
        <ele>580</ele>
        <time>2022-05-23T23:55:46Z</time>
      </trkpt>
      <trkpt lat="48.22359" lon="9.43736">
        <ele>575</ele>
        <time>2022-05-23T23:56:00Z</time>
      </trkpt>
      <trkpt lat="48.22388" lon="9.43797">
        <ele>575</ele>
        <time>2022-05-23T23:56:09Z</time>
      </trkpt>
      <trkpt lat="48.22481" lon="9.44018">
        <ele>568</ele>
        <time>2022-05-23T23:56:40Z</time>
      </trkpt>
      <trkpt lat="48.22581" lon="9.4427">
        <ele>556</ele>
        <time>2022-05-23T23:57:14Z</time>
      </trkpt>
      <trkpt lat="48.22589" lon="9.44305">
        <ele>558</ele>
        <time>2022-05-23T23:57:19Z</time>
      </trkpt>
      <trkpt lat="48.22592" lon="9.4435">
        <ele>561</ele>
        <time>2022-05-23T23:57:24Z</time>
      </trkpt>
      <trkpt lat="48.22587" lon="9.44443">
        <ele>566</ele>
        <time>2022-05-23T23:57:35Z</time>
      </trkpt>
      <trkpt lat="48.2261" lon="9.44562">
        <ele>571</ele>
        <time>2022-05-23T23:57:50Z</time>
      </trkpt>
      <trkpt lat="48.22638" lon="9.4461">
        <ele>569</ele>
        <time>2022-05-23T23:57:57Z</time>
      </trkpt>
      <trkpt lat="48.22647" lon="9.44637">
        <ele>566</ele>
        <time>2022-05-23T23:58:01Z</time>
      </trkpt>
      <trkpt lat="48.22658" lon="9.44739">
        <ele>568</ele>
        <time>2022-05-23T23:58:13Z</time>
      </trkpt>
      <trkpt lat="48.22678" lon="9.44801">
        <ele>572</ele>
        <time>2022-05-23T23:58:21Z</time>
      </trkpt>
      <trkpt lat="48.22708" lon="9.4484">
        <ele>572</ele>
        <time>2022-05-23T23:58:28Z</time>
      </trkpt>
      <trkpt lat="48.22726" lon="9.44853">
        <ele>571</ele>
        <time>2022-05-23T23:58:32Z</time>
      </trkpt>
      <trkpt lat="48.22791" lon="9.44862">
        <ele>566</ele>
        <time>2022-05-23T23:58:44Z</time>
      </trkpt>
      <trkpt lat="48.22809" lon="9.4487">
        <ele>565</ele>
        <time>2022-05-23T23:58:47Z</time>
      </trkpt>
      <trkpt lat="48.22836" lon="9.44904">
        <ele>560</ele>
        <time>2022-05-23T23:58:53Z</time>
      </trkpt>
      <trkpt lat="48.22843" lon="9.44932">
        <ele>559</ele>
        <time>2022-05-23T23:58:57Z</time>
      </trkpt>
      <trkpt lat="48.2284" lon="9.45055">
        <ele>562</ele>
        <time>2022-05-23T23:59:11Z</time>
      </trkpt>
      <trkpt lat="48.22845" lon="9.45122">
        <ele>563</ele>
        <time>2022-05-23T23:59:19Z</time>
      </trkpt>
      <trkpt lat="48.22891" lon="9.45238">
        <ele>552</ele>
        <time>2022-05-23T23:59:35Z</time>
      </trkpt>
      <trkpt lat="48.22899" lon="9.45303">
        <ele>549</ele>
        <time>2022-05-23T23:59:43Z</time>
      </trkpt>
      <trkpt lat="48.22898" lon="9.45368">
        <ele>550</ele>
        <time>2022-05-23T23:59:51Z</time>
      </trkpt>
      <trkpt lat="48.22915" lon="9.45472">
        <ele>547</ele>
        <time>2022-05-24T00:00:04Z</time>
      </trkpt>
      <trkpt lat="48.22915" lon="9.45597">
        <ele>555</ele>
        <time>2022-05-24T00:00:18Z</time>
      </trkpt>
      <trkpt lat="48.22924" lon="9.4564">
        <ele>558</ele>
        <time>2022-05-24T00:00:24Z</time>
      </trkpt>
      <trkpt lat="48.22957" lon="9.45713">
        <ele>560</ele>
        <time>2022-05-24T00:00:34Z</time>
      </trkpt>
      <trkpt lat="48.23072" lon="9.45864">
        <ele>549</ele>
        <time>2022-05-24T00:01:01Z</time>
      </trkpt>
      <trkpt lat="48.23096" lon="9.45928">
        <ele>550</ele>
        <time>2022-05-24T00:01:10Z</time>
      </trkpt>
      <trkpt lat="48.23125" lon="9.46023">
        <ele>550</ele>
        <time>2022-05-24T00:01:22Z</time>
      </trkpt>
      <trkpt lat="48.23136" lon="9.46037">
        <ele>548</ele>
        <time>2022-05-24T00:01:25Z</time>
      </trkpt>
      <trkpt lat="48.23196" lon="9.45991">
        <ele>542</ele>
        <time>2022-05-24T00:01:37Z</time>
      </trkpt>
      <trkpt lat="48.23204" lon="9.46003">
        <ele>542</ele>
        <time>2022-05-24T00:01:39Z</time>
      </trkpt>
      <trkpt lat="48.23213" lon="9.46011">
        <ele>542</ele>
        <time>2022-05-24T00:01:41Z</time>
      </trkpt>
      <trkpt lat="48.23265" lon="9.46013">
        <ele>541</ele>
        <time>2022-05-24T00:01:50Z</time>
      </trkpt>
      <trkpt lat="48.23273" lon="9.46059">
        <ele>541</ele>
        <time>2022-05-24T00:01:56Z</time>
      </trkpt>
      <trkpt lat="48.23281" lon="9.46089">
        <ele>541</ele>
        <time>2022-05-24T00:02:00Z</time>
      </trkpt>
      <trkpt lat="48.23287" lon="9.46094">
        <ele>541</ele>
        <time>2022-05-24T00:02:01Z</time>
      </trkpt>
      <trkpt lat="48.23326" lon="9.46091">
        <ele>540</ele>
        <time>2022-05-24T00:02:08Z</time>
      </trkpt>
      <trkpt lat="48.23352" lon="9.46111">
        <ele>541</ele>
        <time>2022-05-24T00:02:13Z</time>
      </trkpt>
      <trkpt lat="48.23364" lon="9.46109">
        <ele>541</ele>
        <time>2022-05-24T00:02:15Z</time>
      </trkpt>
      <trkpt lat="48.23373" lon="9.46116">
        <ele>541</ele>
        <time>2022-05-24T00:02:17Z</time>
      </trkpt>
      <trkpt lat="48.23384" lon="9.46179">
        <ele>544</ele>
        <time>2022-05-24T00:02:25Z</time>
      </trkpt>
      <trkpt lat="48.23397" lon="9.46204">
        <ele>546</ele>
        <time>2022-05-24T00:02:28Z</time>
      </trkpt>
      <trkpt lat="48.23413" lon="9.46205">
        <ele>547</ele>
        <time>2022-05-24T00:02:31Z</time>
      </trkpt>
      <trkpt lat="48.23425" lon="9.46196">
        <ele>547</ele>
        <time>2022-05-24T00:02:34Z</time>
      </trkpt>
      <trkpt lat="48.23436" lon="9.46199">
        <ele>548</ele>
        <time>2022-05-24T00:02:36Z</time>
      </trkpt>
      <trkpt lat="48.23519" lon="9.4616">
        <ele>552</ele>
        <time>2022-05-24T00:02:51Z</time>
      </trkpt>
      <trkpt lat="48.23563" lon="9.46134">
        <ele>556</ele>
        <time>2022-05-24T00:02:59Z</time>
      </trkpt>
      <trkpt lat="48.23619" lon="9.46091">
        <ele>559</ele>
        <time>2022-05-24T00:03:11Z</time>
      </trkpt>
      <trkpt lat="48.2369" lon="9.46057">
        <ele>564</ele>
        <time>2022-05-24T00:03:24Z</time>
      </trkpt>
      <trkpt lat="48.23766" lon="9.4601">
        <ele>572</ele>
        <time>2022-05-24T00:03:39Z</time>
      </trkpt>
      <trkpt lat="48.23819" lon="9.45967">
        <ele>580</ele>
        <time>2022-05-24T00:03:49Z</time>
      </trkpt>
      <trkpt lat="48.23884" lon="9.45887">
        <ele>589</ele>
        <time>2022-05-24T00:04:04Z</time>
      </trkpt>
      <trkpt lat="48.23943" lon="9.45872">
        <ele>600</ele>
        <time>2022-05-24T00:04:15Z</time>
      </trkpt>
      <trkpt lat="48.24093" lon="9.45891">
        <ele>626</ele>
        <time>2022-05-24T00:04:42Z</time>
      </trkpt>
      <trkpt lat="48.24222" lon="9.45918">
        <ele>647</ele>
        <time>2022-05-24T00:05:05Z</time>
      </trkpt>
      <trkpt lat="48.24249" lon="9.45936">
        <ele>649</ele>
        <time>2022-05-24T00:05:10Z</time>
      </trkpt>
      <trkpt lat="48.24317" lon="9.46002">
        <ele>653</ele>
        <time>2022-05-24T00:05:24Z</time>
      </trkpt>
      <trkpt lat="48.24362" lon="9.46032">
        <ele>654</ele>
        <time>2022-05-24T00:05:33Z</time>
      </trkpt>
      <trkpt lat="48.24407" lon="9.46045">
        <ele>656</ele>
        <time>2022-05-24T00:05:41Z</time>
      </trkpt>
      <trkpt lat="48.24529" lon="9.46087">
        <ele>659</ele>
        <time>2022-05-24T00:06:04Z</time>
      </trkpt>
      <trkpt lat="48.24568" lon="9.46112">
        <ele>662</ele>
        <time>2022-05-24T00:06:11Z</time>
      </trkpt>
      <trkpt lat="48.24607" lon="9.46154">
        <ele>668</ele>
        <time>2022-05-24T00:06:20Z</time>
      </trkpt>
      <trkpt lat="48.24612" lon="9.46147">
        <ele>668</ele>
        <time>2022-05-24T00:06:21Z</time>
      </trkpt>
      <trkpt lat="48.24631" lon="9.46143">
        <ele>670</ele>
        <time>2022-05-24T00:06:24Z</time>
      </trkpt>
      <trkpt lat="48.24677" lon="9.46153">
        <ele>675</ele>
        <time>2022-05-24T00:06:33Z</time>
      </trkpt>
      <trkpt lat="48.24837" lon="9.46217">
        <ele>682</ele>
        <time>2022-05-24T00:07:02Z</time>
      </trkpt>
      <trkpt lat="48.24926" lon="9.46265">
        <ele>690</ele>
        <time>2022-05-24T00:07:19Z</time>
      </trkpt>
      <trkpt lat="48.24974" lon="9.46299">
        <ele>696</ele>
        <time>2022-05-24T00:07:28Z</time>
      </trkpt>
      <trkpt lat="48.25278" lon="9.46573">
        <ele>705</ele>
        <time>2022-05-24T00:08:31Z</time>
      </trkpt>
      <trkpt lat="48.25335" lon="9.46647">
        <ele>705</ele>
        <time>2022-05-24T00:08:45Z</time>
      </trkpt>
      <trkpt lat="48.25436" lon="9.4679">
        <ele>708</ele>
        <time>2022-05-24T00:09:10Z</time>
      </trkpt>
      <trkpt lat="48.25565" lon="9.4695">
        <ele>710</ele>
        <time>2022-05-24T00:09:39Z</time>
      </trkpt>
      <trkpt lat="48.2557" lon="9.46963">
        <ele>710</ele>
        <time>2022-05-24T00:09:41Z</time>
      </trkpt>
      <trkpt lat="48.25676" lon="9.46999">
        <ele>710</ele>
        <time>2022-05-24T00:10:00Z</time>
      </trkpt>
      <trkpt lat="48.25862" lon="9.47084">
        <ele>699</ele>
        <time>2022-05-24T00:10:35Z</time>
      </trkpt>
      <trkpt lat="48.26028" lon="9.47178">
        <ele>677</ele>
        <time>2022-05-24T00:11:07Z</time>
      </trkpt>
      <trkpt lat="48.26112" lon="9.47234">
        <ele>675</ele>
        <time>2022-05-24T00:11:23Z</time>
      </trkpt>
      <trkpt lat="48.26123" lon="9.47236">
        <ele>676</ele>
        <time>2022-05-24T00:11:25Z</time>
      </trkpt>
      <trkpt lat="48.26123" lon="9.47261">
        <ele>674</ele>
        <time>2022-05-24T00:11:28Z</time>
      </trkpt>
      <trkpt lat="48.26277" lon="9.47407">
        <ele>660</ele>
        <time>2022-05-24T00:12:00Z</time>
      </trkpt>
      <trkpt lat="48.26487" lon="9.47531">
        <ele>647</ele>
        <time>2022-05-24T00:12:40Z</time>
      </trkpt>
      <trkpt lat="48.26575" lon="9.47622">
        <ele>633</ele>
        <time>2022-05-24T00:12:59Z</time>
      </trkpt>
      <trkpt lat="48.26592" lon="9.47631">
        <ele>632</ele>
        <time>2022-05-24T00:13:03Z</time>
      </trkpt>
      <trkpt lat="48.26615" lon="9.47622">
        <ele>631</ele>
        <time>2022-05-24T00:13:07Z</time>
      </trkpt>
      <trkpt lat="48.26641" lon="9.47652">
        <ele>630</ele>
        <time>2022-05-24T00:13:13Z</time>
      </trkpt>
      <trkpt lat="48.26687" lon="9.47673">
        <ele>631</ele>
        <time>2022-05-24T00:13:21Z</time>
      </trkpt>
      <trkpt lat="48.26772" lon="9.47683">
        <ele>635</ele>
        <time>2022-05-24T00:13:36Z</time>
      </trkpt>
      <trkpt lat="48.26815" lon="9.47674">
        <ele>638</ele>
        <time>2022-05-24T00:13:44Z</time>
      </trkpt>
      <trkpt lat="48.26868" lon="9.47654">
        <ele>642</ele>
        <time>2022-05-24T00:13:54Z</time>
      </trkpt>
      <trkpt lat="48.2696" lon="9.47596">
        <ele>645</ele>
        <time>2022-05-24T00:14:12Z</time>
      </trkpt>
      <trkpt lat="48.27046" lon="9.47557">
        <ele>650</ele>
        <time>2022-05-24T00:14:28Z</time>
      </trkpt>
      <trkpt lat="48.27314" lon="9.47507">
        <ele>666</ele>
        <time>2022-05-24T00:15:16Z</time>
      </trkpt>
      <trkpt lat="48.27341" lon="9.47507">
        <ele>667</ele>
        <time>2022-05-24T00:15:20Z</time>
      </trkpt>
      <trkpt lat="48.27365" lon="9.47513">
        <ele>667</ele>
        <time>2022-05-24T00:15:25Z</time>
      </trkpt>
      <trkpt lat="48.27426" lon="9.47544">
        <ele>667</ele>
        <time>2022-05-24T00:15:36Z</time>
      </trkpt>
      <trkpt lat="48.27465" lon="9.47536">
        <ele>669</ele>
        <time>2022-05-24T00:15:43Z</time>
      </trkpt>
      <trkpt lat="48.27552" lon="9.47499">
        <ele>671</ele>
        <time>2022-05-24T00:15:59Z</time>
      </trkpt>
      <trkpt lat="48.27562" lon="9.47501">
        <ele>671</ele>
        <time>2022-05-24T00:16:01Z</time>
      </trkpt>
      <trkpt lat="48.27577" lon="9.47463">
        <ele>674</ele>
        <time>2022-05-24T00:16:06Z</time>
      </trkpt>
      <trkpt lat="48.27601" lon="9.47439">
        <ele>676</ele>
        <time>2022-05-24T00:16:12Z</time>
      </trkpt>
      <trkpt lat="48.27719" lon="9.47346">
        <ele>684</ele>
        <time>2022-05-24T00:16:35Z</time>
      </trkpt>
      <trkpt lat="48.27749" lon="9.47339">
        <ele>685</ele>
        <time>2022-05-24T00:16:41Z</time>
      </trkpt>
      <trkpt lat="48.27898" lon="9.47385">
        <ele>692</ele>
        <time>2022-05-24T00:17:08Z</time>
      </trkpt>
      <trkpt lat="48.27952" lon="9.47389">
        <ele>695</ele>
        <time>2022-05-24T00:17:17Z</time>
      </trkpt>
      <trkpt lat="48.27995" lon="9.47368">
        <ele>698</ele>
        <time>2022-05-24T00:17:25Z</time>
      </trkpt>
      <trkpt lat="48.28026" lon="9.47334">
        <ele>699</ele>
        <time>2022-05-24T00:17:32Z</time>
      </trkpt>
      <trkpt lat="48.28077" lon="9.4725">
        <ele>702</ele>
        <time>2022-05-24T00:17:46Z</time>
      </trkpt>
      <trkpt lat="48.28102" lon="9.47218">
        <ele>702</ele>
        <time>2022-05-24T00:17:52Z</time>
      </trkpt>
      <trkpt lat="48.28241" lon="9.47099">
        <ele>707</ele>
        <time>2022-05-24T00:18:20Z</time>
      </trkpt>
      <trkpt lat="48.28232" lon="9.47083">
        <ele>707</ele>
        <time>2022-05-24T00:18:22Z</time>
      </trkpt>
      <trkpt lat="48.28309" lon="9.46981">
        <ele>709</ele>
        <time>2022-05-24T00:18:41Z</time>
      </trkpt>
      <trkpt lat="48.28574" lon="9.46692">
        <ele>709</ele>
        <time>2022-05-24T00:19:39Z</time>
      </trkpt>
      <trkpt lat="48.28598" lon="9.46672">
        <ele>707</ele>
        <time>2022-05-24T00:19:44Z</time>
      </trkpt>
      <trkpt lat="48.28783" lon="9.46583">
        <ele>704</ele>
        <time>2022-05-24T00:20:18Z</time>
      </trkpt>
      <trkpt lat="48.28811" lon="9.46564">
        <ele>704</ele>
        <time>2022-05-24T00:20:24Z</time>
      </trkpt>
      <trkpt lat="48.28978" lon="9.46482">
        <ele>705</ele>
        <time>2022-05-24T00:20:55Z</time>
      </trkpt>
      <trkpt lat="48.28983" lon="9.46501">
        <ele>706</ele>
        <time>2022-05-24T00:20:58Z</time>
      </trkpt>
      <trkpt lat="48.29117" lon="9.46409">
        <ele>704</ele>
        <time>2022-05-24T00:21:24Z</time>
      </trkpt>
      <trkpt lat="48.29206" lon="9.46339">
        <ele>701</ele>
        <time>2022-05-24T00:21:42Z</time>
      </trkpt>
      <trkpt lat="48.29321" lon="9.46234">
        <ele>705</ele>
        <time>2022-05-24T00:22:06Z</time>
      </trkpt>
      <trkpt lat="48.29364" lon="9.46183">
        <ele>709</ele>
        <time>2022-05-24T00:22:15Z</time>
      </trkpt>
      <trkpt lat="48.29421" lon="9.46087">
        <ele>712</ele>
        <time>2022-05-24T00:22:31Z</time>
      </trkpt>
      <trkpt lat="48.29486" lon="9.45968">
        <ele>712</ele>
        <time>2022-05-24T00:22:49Z</time>
      </trkpt>
      <trkpt lat="48.2954" lon="9.45898">
        <ele>708</ele>
        <time>2022-05-24T00:23:01Z</time>
      </trkpt>
      <trkpt lat="48.29707" lon="9.45729">
        <ele>697</ele>
        <time>2022-05-24T00:23:37Z</time>
      </trkpt>
      <trkpt lat="48.29737" lon="9.45688">
        <ele>698</ele>
        <time>2022-05-24T00:23:45Z</time>
      </trkpt>
      <trkpt lat="48.29756" lon="9.45722">
        <ele>699</ele>
        <time>2022-05-24T00:23:50Z</time>
      </trkpt>
      <trkpt lat="48.29761" lon="9.45743">
        <ele>699</ele>
        <time>2022-05-24T00:23:52Z</time>
      </trkpt>
      <trkpt lat="48.29769" lon="9.45938">
        <ele>697</ele>
        <time>2022-05-24T00:24:16Z</time>
      </trkpt>
      <trkpt lat="48.29763" lon="9.4602">
        <ele>698</ele>
        <time>2022-05-24T00:24:25Z</time>
      </trkpt>
      <trkpt lat="48.29746" lon="9.4609">
        <ele>701</ele>
        <time>2022-05-24T00:24:34Z</time>
      </trkpt>
      <trkpt lat="48.29812" lon="9.46162">
        <ele>707</ele>
        <time>2022-05-24T00:24:49Z</time>
      </trkpt>
      <trkpt lat="48.29869" lon="9.46205">
        <ele>710</ele>
        <time>2022-05-24T00:25:00Z</time>
      </trkpt>
      <trkpt lat="48.29949" lon="9.46245">
        <ele>714</ele>
        <time>2022-05-24T00:25:15Z</time>
      </trkpt>
      <trkpt lat="48.30014" lon="9.46312">
        <ele>720</ele>
        <time>2022-05-24T00:25:29Z</time>
      </trkpt>
      <trkpt lat="48.30038" lon="9.46322">
        <ele>721</ele>
        <time>2022-05-24T00:25:33Z</time>
      </trkpt>
      <trkpt lat="48.30116" lon="9.46365">
        <ele>724</ele>
        <time>2022-05-24T00:25:48Z</time>
      </trkpt>
      <trkpt lat="48.30215" lon="9.46383">
        <ele>725</ele>
        <time>2022-05-24T00:26:06Z</time>
      </trkpt>
      <trkpt lat="48.30262" lon="9.46413">
        <ele>727</ele>
        <time>2022-05-24T00:26:15Z</time>
      </trkpt>
      <trkpt lat="48.3035" lon="9.46447">
        <ele>727</ele>
        <time>2022-05-24T00:26:31Z</time>
      </trkpt>
      <trkpt lat="48.30374" lon="9.46458">
        <ele>724</ele>
        <time>2022-05-24T00:26:36Z</time>
      </trkpt>
      <trkpt lat="48.30386" lon="9.46467">
        <ele>722</ele>
        <time>2022-05-24T00:26:38Z</time>
      </trkpt>
      <trkpt lat="48.30406" lon="9.4647">
        <ele>720</ele>
        <time>2022-05-24T00:26:42Z</time>
      </trkpt>
      <trkpt lat="48.30438" lon="9.46481">
        <ele>718</ele>
        <time>2022-05-24T00:26:47Z</time>
      </trkpt>
      <trkpt lat="48.3076" lon="9.46564">
        <ele>718</ele>
        <time>2022-05-24T00:27:46Z</time>
      </trkpt>
      <trkpt lat="48.30851" lon="9.46592">
        <ele>720</ele>
        <time>2022-05-24T00:28:02Z</time>
      </trkpt>
      <trkpt lat="48.3094" lon="9.46601">
        <ele>718</ele>
        <time>2022-05-24T00:28:18Z</time>
      </trkpt>
      <trkpt lat="48.3103" lon="9.46602">
        <ele>718</ele>
        <time>2022-05-24T00:28:34Z</time>
      </trkpt>
      <trkpt lat="48.3115" lon="9.46616">
        <ele>715</ele>
        <time>2022-05-24T00:28:55Z</time>
      </trkpt>
      <trkpt lat="48.31394" lon="9.46658">
        <ele>706</ele>
        <time>2022-05-24T00:29:39Z</time>
      </trkpt>
      <trkpt lat="48.31453" lon="9.46655">
        <ele>706</ele>
        <time>2022-05-24T00:29:50Z</time>
      </trkpt>
      <trkpt lat="48.31511" lon="9.46646">
        <ele>706</ele>
        <time>2022-05-24T00:30:00Z</time>
      </trkpt>
      <trkpt lat="48.31568" lon="9.46662">
        <ele>706</ele>
        <time>2022-05-24T00:30:10Z</time>
      </trkpt>
      <trkpt lat="48.31705" lon="9.4673">
        <ele>703</ele>
        <time>2022-05-24T00:30:36Z</time>
      </trkpt>
      <trkpt lat="48.31762" lon="9.46769">
        <ele>702</ele>
        <time>2022-05-24T00:30:47Z</time>
      </trkpt>
      <trkpt lat="48.31861" lon="9.46875">
        <ele>702</ele>
        <time>2022-05-24T00:31:09Z</time>
      </trkpt>
      <trkpt lat="48.32002" lon="9.46961">
        <ele>694</ele>
        <time>2022-05-24T00:31:36Z</time>
      </trkpt>
      <trkpt lat="48.32051" lon="9.47007">
        <ele>692</ele>
        <time>2022-05-24T00:31:46Z</time>
      </trkpt>
      <trkpt lat="48.32079" lon="9.46997">
        <ele>691</ele>
        <time>2022-05-24T00:31:51Z</time>
      </trkpt>
      <trkpt lat="48.32088" lon="9.46997">
        <ele>690</ele>
        <time>2022-05-24T00:31:53Z</time>
      </trkpt>
      <trkpt lat="48.32095" lon="9.47005">
        <ele>689</ele>
        <time>2022-05-24T00:31:54Z</time>
      </trkpt>
      <trkpt lat="48.321" lon="9.47034">
        <ele>689</ele>
        <time>2022-05-24T00:31:58Z</time>
      </trkpt>
      <trkpt lat="48.32079" lon="9.47121">
        <ele>691</ele>
        <time>2022-05-24T00:32:09Z</time>
      </trkpt>
      <trkpt lat="48.32091" lon="9.47149">
        <ele>688</ele>
        <time>2022-05-24T00:32:13Z</time>
      </trkpt>
      <trkpt lat="48.321" lon="9.4715">
        <ele>687</ele>
        <time>2022-05-24T00:32:14Z</time>
      </trkpt>
      <trkpt lat="48.32114" lon="9.47139">
        <ele>687</ele>
        <time>2022-05-24T00:32:17Z</time>
      </trkpt>
      <trkpt lat="48.32146" lon="9.47095">
        <ele>683</ele>
        <time>2022-05-24T00:32:25Z</time>
      </trkpt>
      <trkpt lat="48.32158" lon="9.47074">
        <ele>680</ele>
        <time>2022-05-24T00:32:28Z</time>
      </trkpt>
      <trkpt lat="48.32268" lon="9.4697">
        <ele>682</ele>
        <time>2022-05-24T00:32:51Z</time>
      </trkpt>
      <trkpt lat="48.32308" lon="9.46944">
        <ele>682</ele>
        <time>2022-05-24T00:32:59Z</time>
      </trkpt>
      <trkpt lat="48.32368" lon="9.46924">
        <ele>684</ele>
        <time>2022-05-24T00:33:10Z</time>
      </trkpt>
      <trkpt lat="48.32449" lon="9.46908">
        <ele>689</ele>
        <time>2022-05-24T00:33:25Z</time>
      </trkpt>
      <trkpt lat="48.3251" lon="9.4684">
        <ele>688</ele>
        <time>2022-05-24T00:33:38Z</time>
      </trkpt>
      <trkpt lat="48.32526" lon="9.46835">
        <ele>688</ele>
        <time>2022-05-24T00:33:41Z</time>
      </trkpt>
      <trkpt lat="48.32558" lon="9.46846">
        <ele>690</ele>
        <time>2022-05-24T00:33:47Z</time>
      </trkpt>
      <trkpt lat="48.32644" lon="9.46913">
        <ele>694</ele>
        <time>2022-05-24T00:34:04Z</time>
      </trkpt>
      <trkpt lat="48.32728" lon="9.46936">
        <ele>698</ele>
        <time>2022-05-24T00:34:19Z</time>
      </trkpt>
      <trkpt lat="48.32779" lon="9.46972">
        <ele>705</ele>
        <time>2022-05-24T00:34:29Z</time>
      </trkpt>
      <trkpt lat="48.3298" lon="9.46963">
        <ele>703</ele>
        <time>2022-05-24T00:35:05Z</time>
      </trkpt>
      <trkpt lat="48.33058" lon="9.46945">
        <ele>701</ele>
        <time>2022-05-24T00:35:19Z</time>
      </trkpt>
      <trkpt lat="48.33209" lon="9.46985">
        <ele>708</ele>
        <time>2022-05-24T00:35:46Z</time>
      </trkpt>
      <trkpt lat="48.33202" lon="9.4713">
        <ele>710</ele>
        <time>2022-05-24T00:36:04Z</time>
      </trkpt>
      <trkpt lat="48.33237" lon="9.47279">
        <ele>716</ele>
        <time>2022-05-24T00:36:22Z</time>
      </trkpt>
      <trkpt lat="48.33253" lon="9.4738">
        <ele>722</ele>
        <time>2022-05-24T00:36:35Z</time>
      </trkpt>
      <trkpt lat="48.33448" lon="9.47464">
        <ele>720</ele>
        <time>2022-05-24T00:37:11Z</time>
      </trkpt>
      <trkpt lat="48.33524" lon="9.47517">
        <ele>720</ele>
        <time>2022-05-24T00:37:26Z</time>
      </trkpt>
      <trkpt lat="48.33581" lon="9.47549">
        <ele>722</ele>
        <time>2022-05-24T00:37:36Z</time>
      </trkpt>
      <trkpt lat="48.33828" lon="9.47591">
        <ele>723</ele>
        <time>2022-05-24T00:38:21Z</time>
      </trkpt>
      <trkpt lat="48.3385" lon="9.47591">
        <ele>723</ele>
        <time>2022-05-24T00:38:25Z</time>
      </trkpt>
      <trkpt lat="48.34088" lon="9.47569">
        <ele>722</ele>
        <time>2022-05-24T00:39:07Z</time>
      </trkpt>
      <trkpt lat="48.34211" lon="9.47552">
        <ele>718</ele>
        <time>2022-05-24T00:39:29Z</time>
      </trkpt>
      <trkpt lat="48.34258" lon="9.47526">
        <ele>717</ele>
        <time>2022-05-24T00:39:38Z</time>
      </trkpt>
      <trkpt lat="48.34284" lon="9.47527">
        <ele>718</ele>
        <time>2022-05-24T00:39:42Z</time>
      </trkpt>
      <trkpt lat="48.34314" lon="9.47545">
        <ele>720</ele>
        <time>2022-05-24T00:39:48Z</time>
      </trkpt>
      <trkpt lat="48.34362" lon="9.47602">
        <ele>721</ele>
        <time>2022-05-24T00:39:59Z</time>
      </trkpt>
      <trkpt lat="48.34431" lon="9.47642">
        <ele>719</ele>
        <time>2022-05-24T00:40:12Z</time>
      </trkpt>
      <trkpt lat="48.34473" lon="9.47652">
        <ele>716</ele>
        <time>2022-05-24T00:40:20Z</time>
      </trkpt>
      <trkpt lat="48.34518" lon="9.47653">
        <ele>713</ele>
        <time>2022-05-24T00:40:28Z</time>
      </trkpt>
      <trkpt lat="48.3463" lon="9.47618">
        <ele>709</ele>
        <time>2022-05-24T00:40:48Z</time>
      </trkpt>
      <trkpt lat="48.34655" lon="9.4762">
        <ele>707</ele>
        <time>2022-05-24T00:40:53Z</time>
      </trkpt>
      <trkpt lat="48.34688" lon="9.47597">
        <ele>706</ele>
        <time>2022-05-24T00:40:59Z</time>
      </trkpt>
      <trkpt lat="48.34852" lon="9.4754">
        <ele>704</ele>
        <time>2022-05-24T00:41:29Z</time>
      </trkpt>
      <trkpt lat="48.34887" lon="9.47552">
        <ele>703</ele>
        <time>2022-05-24T00:41:35Z</time>
      </trkpt>
      <trkpt lat="48.34967" lon="9.47598">
        <ele>703</ele>
        <time>2022-05-24T00:41:51Z</time>
      </trkpt>
      <trkpt lat="48.35015" lon="9.47619">
        <ele>703</ele>
        <time>2022-05-24T00:42:00Z</time>
      </trkpt>
      <trkpt lat="48.35142" lon="9.47621">
        <ele>705</ele>
        <time>2022-05-24T00:42:22Z</time>
      </trkpt>
      <trkpt lat="48.35158" lon="9.47613">
        <ele>706</ele>
        <time>2022-05-24T00:42:25Z</time>
      </trkpt>
      <trkpt lat="48.35175" lon="9.47594">
        <ele>705</ele>
        <time>2022-05-24T00:42:29Z</time>
      </trkpt>
      <trkpt lat="48.35201" lon="9.47516">
        <ele>703</ele>
        <time>2022-05-24T00:42:39Z</time>
      </trkpt>
      <trkpt lat="48.35216" lon="9.47511">
        <ele>702</ele>
        <time>2022-05-24T00:42:42Z</time>
      </trkpt>
      <trkpt lat="48.35226" lon="9.47519">
        <ele>701</ele>
        <time>2022-05-24T00:42:44Z</time>
      </trkpt>
      <trkpt lat="48.35238" lon="9.47543">
        <ele>699</ele>
        <time>2022-05-24T00:42:48Z</time>
      </trkpt>
      <trkpt lat="48.35246" lon="9.47577">
        <ele>698</ele>
        <time>2022-05-24T00:42:52Z</time>
      </trkpt>
      <trkpt lat="48.35266" lon="9.4762">
        <ele>696</ele>
        <time>2022-05-24T00:42:58Z</time>
      </trkpt>
      <trkpt lat="48.35299" lon="9.47641">
        <ele>696</ele>
        <time>2022-05-24T00:43:04Z</time>
      </trkpt>
      <trkpt lat="48.35361" lon="9.47639">
        <ele>697</ele>
        <time>2022-05-24T00:43:15Z</time>
      </trkpt>
      <trkpt lat="48.35388" lon="9.47641">
        <ele>697</ele>
        <time>2022-05-24T00:43:20Z</time>
      </trkpt>
      <trkpt lat="48.35458" lon="9.47671">
        <ele>697</ele>
        <time>2022-05-24T00:43:33Z</time>
      </trkpt>
      <trkpt lat="48.35475" lon="9.47684">
        <ele>697</ele>
        <time>2022-05-24T00:43:37Z</time>
      </trkpt>
      <trkpt lat="48.35516" lon="9.47677">
        <ele>698</ele>
        <time>2022-05-24T00:43:44Z</time>
      </trkpt>
      <trkpt lat="48.35525" lon="9.47682">
        <ele>698</ele>
        <time>2022-05-24T00:43:46Z</time>
      </trkpt>
      <trkpt lat="48.35534" lon="9.47703">
        <ele>696</ele>
        <time>2022-05-24T00:43:49Z</time>
      </trkpt>
      <trkpt lat="48.35578" lon="9.4787">
        <ele>681</ele>
        <time>2022-05-24T00:44:10Z</time>
      </trkpt>
      <trkpt lat="48.35608" lon="9.47872">
        <ele>676</ele>
        <time>2022-05-24T00:44:15Z</time>
      </trkpt>
      <trkpt lat="48.35639" lon="9.47856">
        <ele>676</ele>
        <time>2022-05-24T00:44:21Z</time>
      </trkpt>
      <trkpt lat="48.35757" lon="9.47764">
        <ele>665</ele>
        <time>2022-05-24T00:44:45Z</time>
      </trkpt>
      <trkpt lat="48.3578" lon="9.47762">
        <ele>659</ele>
        <time>2022-05-24T00:44:49Z</time>
      </trkpt>
      <trkpt lat="48.35803" lon="9.47766">
        <ele>652</ele>
        <time>2022-05-24T00:44:53Z</time>
      </trkpt>
      <trkpt lat="48.35945" lon="9.47747">
        <ele>628</ele>
        <time>2022-05-24T00:45:18Z</time>
      </trkpt>
      <trkpt lat="48.35963" lon="9.47737">
        <ele>628</ele>
        <time>2022-05-24T00:45:22Z</time>
      </trkpt>
      <trkpt lat="48.35975" lon="9.47737">
        <ele>626</ele>
        <time>2022-05-24T00:45:24Z</time>
      </trkpt>
      <trkpt lat="48.35983" lon="9.47753">
        <ele>624</ele>
        <time>2022-05-24T00:45:26Z</time>
      </trkpt>
      <trkpt lat="48.35983" lon="9.47783">
        <ele>623</ele>
        <time>2022-05-24T00:45:30Z</time>
      </trkpt>
      <trkpt lat="48.35999" lon="9.47817">
        <ele>620</ele>
        <time>2022-05-24T00:45:35Z</time>
      </trkpt>
      <trkpt lat="48.36015" lon="9.47847">
        <ele>620</ele>
        <time>2022-05-24T00:45:39Z</time>
      </trkpt>
      <trkpt lat="48.36061" lon="9.47912">
        <ele>622</ele>
        <time>2022-05-24T00:45:50Z</time>
      </trkpt>
      <trkpt lat="48.36105" lon="9.47863">
        <ele>624</ele>
        <time>2022-05-24T00:46:00Z</time>
      </trkpt>
      <trkpt lat="48.36139" lon="9.4781">
        <ele>625</ele>
        <time>2022-05-24T00:46:09Z</time>
      </trkpt>
      <trkpt lat="48.36167" lon="9.47791">
        <ele>627</ele>
        <time>2022-05-24T00:46:14Z</time>
      </trkpt>
      <trkpt lat="48.36183" lon="9.47792">
        <ele>628</ele>
        <time>2022-05-24T00:46:17Z</time>
      </trkpt>
      <trkpt lat="48.36213" lon="9.47807">
        <ele>631</ele>
        <time>2022-05-24T00:46:23Z</time>
      </trkpt>
      <trkpt lat="48.36222" lon="9.47795">
        <ele>632</ele>
        <time>2022-05-24T00:46:25Z</time>
      </trkpt>
      <trkpt lat="48.36257" lon="9.47784">
        <ele>637</ele>
        <time>2022-05-24T00:46:31Z</time>
      </trkpt>
      <trkpt lat="48.36366" lon="9.47803">
        <ele>652</ele>
        <time>2022-05-24T00:46:51Z</time>
      </trkpt>
      <trkpt lat="48.36471" lon="9.47864">
        <ele>660</ele>
        <time>2022-05-24T00:47:11Z</time>
      </trkpt>
      <trkpt lat="48.36575" lon="9.47956">
        <ele>663</ele>
        <time>2022-05-24T00:47:32Z</time>
      </trkpt>
      <trkpt lat="48.36605" lon="9.47987">
        <ele>665</ele>
        <time>2022-05-24T00:47:39Z</time>
      </trkpt>
      <trkpt lat="48.36631" lon="9.48024">
        <ele>669</ele>
        <time>2022-05-24T00:47:45Z</time>
      </trkpt>
      <trkpt lat="48.3668" lon="9.48124">
        <ele>673</ele>
        <time>2022-05-24T00:48:00Z</time>
      </trkpt>
      <trkpt lat="48.36732" lon="9.482">
        <ele>681</ele>
        <time>2022-05-24T00:48:13Z</time>
      </trkpt>
      <trkpt lat="48.36794" lon="9.48251">
        <ele>681</ele>
        <time>2022-05-24T00:48:25Z</time>
      </trkpt>
      <trkpt lat="48.36849" lon="9.48292">
        <ele>683</ele>
        <time>2022-05-24T00:48:36Z</time>
      </trkpt>
      <trkpt lat="48.36864" lon="9.48297">
        <ele>682</ele>
        <time>2022-05-24T00:48:39Z</time>
      </trkpt>
      <trkpt lat="48.36885" lon="9.48294">
        <ele>682</ele>
        <time>2022-05-24T00:48:43Z</time>
      </trkpt>
      <trkpt lat="48.36951" lon="9.48267">
        <ele>683</ele>
        <time>2022-05-24T00:48:55Z</time>
      </trkpt>
      <trkpt lat="48.36974" lon="9.48264">
        <ele>683</ele>
        <time>2022-05-24T00:48:59Z</time>
      </trkpt>
      <trkpt lat="48.37049" lon="9.48277">
        <ele>686</ele>
        <time>2022-05-24T00:49:12Z</time>
      </trkpt>
      <trkpt lat="48.37131" lon="9.48308">
        <ele>689</ele>
        <time>2022-05-24T00:49:27Z</time>
      </trkpt>
      <trkpt lat="48.37268" lon="9.48388">
        <ele>700</ele>
        <time>2022-05-24T00:49:54Z</time>
      </trkpt>
      <trkpt lat="48.37351" lon="9.48428">
        <ele>702</ele>
        <time>2022-05-24T00:50:09Z</time>
      </trkpt>
      <trkpt lat="48.37382" lon="9.48436">
        <ele>703</ele>
        <time>2022-05-24T00:50:15Z</time>
      </trkpt>
      <trkpt lat="48.37415" lon="9.48428">
        <ele>703</ele>
        <time>2022-05-24T00:50:21Z</time>
      </trkpt>
      <trkpt lat="48.37427" lon="9.48415">
        <ele>704</ele>
        <time>2022-05-24T00:50:23Z</time>
      </trkpt>
      <trkpt lat="48.37443" lon="9.48392">
        <ele>709</ele>
        <time>2022-05-24T00:50:27Z</time>
      </trkpt>
      <trkpt lat="48.37492" lon="9.48292">
        <ele>717</ele>
        <time>2022-05-24T00:50:42Z</time>
      </trkpt>
      <trkpt lat="48.37514" lon="9.48262">
        <ele>720</ele>
        <time>2022-05-24T00:50:47Z</time>
      </trkpt>
      <trkpt lat="48.37547" lon="9.48232">
        <ele>722</ele>
        <time>2022-05-24T00:50:54Z</time>
      </trkpt>
      <trkpt lat="48.3759" lon="9.48216">
        <ele>722</ele>
        <time>2022-05-24T00:51:02Z</time>
      </trkpt>
      <trkpt lat="48.37642" lon="9.48223">
        <ele>723</ele>
        <time>2022-05-24T00:51:11Z</time>
      </trkpt>
      <trkpt lat="48.37747" lon="9.4828">
        <ele>732</ele>
        <time>2022-05-24T00:51:31Z</time>
      </trkpt>
      <trkpt lat="48.37854" lon="9.48319">
        <ele>735</ele>
        <time>2022-05-24T00:51:51Z</time>
      </trkpt>
      <trkpt lat="48.37896" lon="9.48354">
        <ele>736</ele>
        <time>2022-05-24T00:51:59Z</time>
      </trkpt>
      <trkpt lat="48.37991" lon="9.48519">
        <ele>740</ele>
        <time>2022-05-24T00:52:25Z</time>
      </trkpt>
      <trkpt lat="48.38009" lon="9.48536">
        <ele>740</ele>
        <time>2022-05-24T00:52:29Z</time>
      </trkpt>
      <trkpt lat="48.38049" lon="9.48558">
        <ele>740</ele>
        <time>2022-05-24T00:52:36Z</time>
      </trkpt>
      <trkpt lat="48.38164" lon="9.48583">
        <ele>740</ele>
        <time>2022-05-24T00:52:57Z</time>
      </trkpt>
      <trkpt lat="48.38192" lon="9.48602">
        <ele>745</ele>
        <time>2022-05-24T00:53:03Z</time>
      </trkpt>
      <trkpt lat="48.38243" lon="9.48642">
        <ele>750</ele>
        <time>2022-05-24T00:53:13Z</time>
      </trkpt>
      <trkpt lat="48.38285" lon="9.48668">
        <ele>751</ele>
        <time>2022-05-24T00:53:21Z</time>
      </trkpt>
      <trkpt lat="48.38306" lon="9.48668">
        <ele>751</ele>
        <time>2022-05-24T00:53:25Z</time>
      </trkpt>
      <trkpt lat="48.38312" lon="9.48658">
        <ele>752</ele>
        <time>2022-05-24T00:53:26Z</time>
      </trkpt>
      <trkpt lat="48.38329" lon="9.48655">
        <ele>752</ele>
        <time>2022-05-24T00:53:29Z</time>
      </trkpt>
      <trkpt lat="48.38342" lon="9.48643">
        <ele>753</ele>
        <time>2022-05-24T00:53:32Z</time>
      </trkpt>
      <trkpt lat="48.38412" lon="9.48546">
        <ele>748</ele>
        <time>2022-05-24T00:53:49Z</time>
      </trkpt>
      <trkpt lat="48.38435" lon="9.48524">
        <ele>747</ele>
        <time>2022-05-24T00:53:54Z</time>
      </trkpt>
      <trkpt lat="48.38464" lon="9.48517">
        <ele>748</ele>
        <time>2022-05-24T00:53:59Z</time>
      </trkpt>
      <trkpt lat="48.3849" lon="9.4852">
        <ele>750</ele>
        <time>2022-05-24T00:54:04Z</time>
      </trkpt>
      <trkpt lat="48.3852" lon="9.48533">
        <ele>753</ele>
        <time>2022-05-24T00:54:09Z</time>
      </trkpt>
      <trkpt lat="48.38637" lon="9.4868">
        <ele>766</ele>
        <time>2022-05-24T00:54:36Z</time>
      </trkpt>
      <trkpt lat="48.38666" lon="9.48703">
        <ele>766</ele>
        <time>2022-05-24T00:54:42Z</time>
      </trkpt>
      <trkpt lat="48.38692" lon="9.48714">
        <ele>768</ele>
        <time>2022-05-24T00:54:47Z</time>
      </trkpt>
      <trkpt lat="48.38861" lon="9.48713">
        <ele>777</ele>
        <time>2022-05-24T00:55:17Z</time>
      </trkpt>
      <trkpt lat="48.38914" lon="9.48719">
        <ele>776</ele>
        <time>2022-05-24T00:55:26Z</time>
      </trkpt>
      <trkpt lat="48.38989" lon="9.48747">
        <ele>775</ele>
        <time>2022-05-24T00:55:40Z</time>
      </trkpt>
      <trkpt lat="48.39052" lon="9.48782">
        <ele>776</ele>
        <time>2022-05-24T00:55:52Z</time>
      </trkpt>
      <trkpt lat="48.39191" lon="9.48876">
        <ele>776</ele>
        <time>2022-05-24T00:56:19Z</time>
      </trkpt>
      <trkpt lat="48.39205" lon="9.48898">
        <ele>776</ele>
        <time>2022-05-24T00:56:23Z</time>
      </trkpt>
      <trkpt lat="48.39243" lon="9.48913">
        <ele>778</ele>
        <time>2022-05-24T00:56:30Z</time>
      </trkpt>
      <trkpt lat="48.39408" lon="9.48928">
        <ele>780</ele>
        <time>2022-05-24T00:56:59Z</time>
      </trkpt>
      <trkpt lat="48.39549" lon="9.48958">
        <ele>771</ele>
        <time>2022-05-24T00:57:25Z</time>
      </trkpt>
      <trkpt lat="48.39607" lon="9.48941">
        <ele>769</ele>
        <time>2022-05-24T00:57:35Z</time>
      </trkpt>
      <trkpt lat="48.39623" lon="9.48931">
        <ele>769</ele>
        <time>2022-05-24T00:57:38Z</time>
      </trkpt>
      <trkpt lat="48.39738" lon="9.48811">
        <ele>762</ele>
        <time>2022-05-24T00:58:03Z</time>
      </trkpt>
      <trkpt lat="48.39789" lon="9.48766">
        <ele>759</ele>
        <time>2022-05-24T00:58:14Z</time>
      </trkpt>
      <trkpt lat="48.39841" lon="9.48748">
        <ele>757</ele>
        <time>2022-05-24T00:58:23Z</time>
      </trkpt>
      <trkpt lat="48.39874" lon="9.48748">
        <ele>756</ele>
        <time>2022-05-24T00:58:29Z</time>
      </trkpt>
      <trkpt lat="48.39911" lon="9.48752">
        <ele>754</ele>
        <time>2022-05-24T00:58:36Z</time>
      </trkpt>
      <trkpt lat="48.40003" lon="9.48788">
        <ele>748</ele>
        <time>2022-05-24T00:58:52Z</time>
      </trkpt>
      <trkpt lat="48.40051" lon="9.488">
        <ele>739</ele>
        <time>2022-05-24T00:59:01Z</time>
      </trkpt>
      <trkpt lat="48.40126" lon="9.48813">
        <ele>730</ele>
        <time>2022-05-24T00:59:15Z</time>
      </trkpt>
      <trkpt lat="48.4023" lon="9.48863">
        <ele>726</ele>
        <time>2022-05-24T00:59:34Z</time>
      </trkpt>
      <trkpt lat="48.40298" lon="9.48888">
        <ele>723</ele>
        <time>2022-05-24T00:59:46Z</time>
      </trkpt>
      <trkpt lat="48.40343" lon="9.48894">
        <ele>722</ele>
        <time>2022-05-24T00:59:54Z</time>
      </trkpt>
      <trkpt lat="48.40357" lon="9.48887">
        <ele>722</ele>
        <time>2022-05-24T00:59:57Z</time>
      </trkpt>
      <trkpt lat="48.40422" lon="9.48889">
        <ele>721</ele>
        <time>2022-05-24T01:00:09Z</time>
      </trkpt>
      <trkpt lat="48.40426" lon="9.48895">
        <ele>720</ele>
        <time>2022-05-24T01:00:10Z</time>
      </trkpt>
      <trkpt lat="48.40473" lon="9.48882">
        <ele>719</ele>
        <time>2022-05-24T01:00:18Z</time>
      </trkpt>
      <trkpt lat="48.40632" lon="9.48829">
        <ele>712</ele>
        <time>2022-05-24T01:00:47Z</time>
      </trkpt>
      <trkpt lat="48.40672" lon="9.48823">
        <ele>710</ele>
        <time>2022-05-24T01:00:54Z</time>
      </trkpt>
      <trkpt lat="48.40712" lon="9.48828">
        <ele>708</ele>
        <time>2022-05-24T01:01:01Z</time>
      </trkpt>
      <trkpt lat="48.40747" lon="9.48844">
        <ele>706</ele>
        <time>2022-05-24T01:01:08Z</time>
      </trkpt>
      <trkpt lat="48.40873" lon="9.48933">
        <ele>705</ele>
        <time>2022-05-24T01:01:33Z</time>
      </trkpt>
      <trkpt lat="48.4091" lon="9.48954">
        <ele>705</ele>
        <time>2022-05-24T01:01:40Z</time>
      </trkpt>
      <trkpt lat="48.41069" lon="9.49035">
        <ele>704</ele>
        <time>2022-05-24T01:02:10Z</time>
      </trkpt>
      <trkpt lat="48.41082" lon="9.49052">
        <ele>704</ele>
        <time>2022-05-24T01:02:13Z</time>
      </trkpt>
      <trkpt lat="48.41107" lon="9.49124">
        <ele>703</ele>
        <time>2022-05-24T01:02:22Z</time>
      </trkpt>
      <trkpt lat="48.41115" lon="9.4913">
        <ele>703</ele>
        <time>2022-05-24T01:02:24Z</time>
      </trkpt>
      <trkpt lat="48.41147" lon="9.49139">
        <ele>702</ele>
        <time>2022-05-24T01:02:30Z</time>
      </trkpt>
      <trkpt lat="48.41151" lon="9.49195">
        <ele>703</ele>
        <time>2022-05-24T01:02:36Z</time>
      </trkpt>
      <trkpt lat="48.41164" lon="9.492">
        <ele>702</ele>
        <time>2022-05-24T01:02:39Z</time>
      </trkpt>
      <trkpt lat="48.4118" lon="9.49232">
        <ele>703</ele>
        <time>2022-05-24T01:02:43Z</time>
      </trkpt>
      <trkpt lat="48.41192" lon="9.49265">
        <ele>704</ele>
        <time>2022-05-24T01:02:48Z</time>
      </trkpt>
      <trkpt lat="48.4121" lon="9.49369">
        <ele>706</ele>
        <time>2022-05-24T01:03:01Z</time>
      </trkpt>
      <trkpt lat="48.41275" lon="9.49367">
        <ele>705</ele>
        <time>2022-05-24T01:03:12Z</time>
      </trkpt>
      <trkpt lat="48.4134" lon="9.49372">
        <ele>706</ele>
        <time>2022-05-24T01:03:24Z</time>
      </trkpt>
      <trkpt lat="48.41361" lon="9.49383">
        <ele>707</ele>
        <time>2022-05-24T01:03:28Z</time>
      </trkpt>
      <trkpt lat="48.41375" lon="9.49353">
        <ele>707</ele>
        <time>2022-05-24T01:03:32Z</time>
      </trkpt>
      <trkpt lat="48.41388" lon="9.49354">
        <ele>707</ele>
        <time>2022-05-24T01:03:34Z</time>
      </trkpt>
      <trkpt lat="48.41436" lon="9.49324">
        <ele>708</ele>
        <time>2022-05-24T01:03:44Z</time>
      </trkpt>
      <trkpt lat="48.41446" lon="9.49323">
        <ele>708</ele>
        <time>2022-05-24T01:03:45Z</time>
      </trkpt>
      <trkpt lat="48.41457" lon="9.49387">
        <ele>711</ele>
        <time>2022-05-24T01:03:53Z</time>
      </trkpt>
      <trkpt lat="48.41469" lon="9.49435">
        <ele>714</ele>
        <time>2022-05-24T01:03:59Z</time>
      </trkpt>
      <trkpt lat="48.41492" lon="9.49477">
        <ele>718</ele>
        <time>2022-05-24T01:04:06Z</time>
      </trkpt>
      <trkpt lat="48.41497" lon="9.49498">
        <ele>720</ele>
        <time>2022-05-24T01:04:08Z</time>
      </trkpt>
      <trkpt lat="48.41496" lon="9.49639">
        <ele>718</ele>
        <time>2022-05-24T01:04:25Z</time>
      </trkpt>
      <trkpt lat="48.41499" lon="9.49712">
        <ele>717</ele>
        <time>2022-05-24T01:04:34Z</time>
      </trkpt>
      <trkpt lat="48.41512" lon="9.49803">
        <ele>716</ele>
        <time>2022-05-24T01:04:45Z</time>
      </trkpt>
      <trkpt lat="48.41528" lon="9.4987">
        <ele>715</ele>
        <time>2022-05-24T01:04:53Z</time>
      </trkpt>
      <trkpt lat="48.41546" lon="9.49864">
        <ele>717</ele>
        <time>2022-05-24T01:04:56Z</time>
      </trkpt>
      <trkpt lat="48.41585" lon="9.49858">
        <ele>721</ele>
        <time>2022-05-24T01:05:03Z</time>
      </trkpt>
      <trkpt lat="48.41601" lon="9.4986">
        <ele>722</ele>
        <time>2022-05-24T01:05:06Z</time>
      </trkpt>
      <trkpt lat="48.41666" lon="9.49884">
        <ele>725</ele>
        <time>2022-05-24T01:05:18Z</time>
      </trkpt>
      <trkpt lat="48.41811" lon="9.49883">
        <ele>725</ele>
        <time>2022-05-24T01:05:44Z</time>
      </trkpt>
      <trkpt lat="48.41857" lon="9.49876">
        <ele>724</ele>
        <time>2022-05-24T01:05:52Z</time>
      </trkpt>
      <trkpt lat="48.4188" lon="9.4987">
        <ele>723</ele>
        <time>2022-05-24T01:05:56Z</time>
      </trkpt>
      <trkpt lat="48.41923" lon="9.49852">
        <ele>721</ele>
        <time>2022-05-24T01:06:04Z</time>
      </trkpt>
      <trkpt lat="48.42052" lon="9.49717">
        <ele>726</ele>
        <time>2022-05-24T01:06:32Z</time>
      </trkpt>
      <trkpt lat="48.4208" lon="9.49698">
        <ele>725</ele>
        <time>2022-05-24T01:06:37Z</time>
      </trkpt>
      <trkpt lat="48.42165" lon="9.49663">
        <ele>729</ele>
        <time>2022-05-24T01:06:53Z</time>
      </trkpt>
      <trkpt lat="48.4228" lon="9.49578">
        <ele>735</ele>
        <time>2022-05-24T01:07:16Z</time>
      </trkpt>
      <trkpt lat="48.42302" lon="9.49574">
        <ele>737</ele>
        <time>2022-05-24T01:07:20Z</time>
      </trkpt>
      <trkpt lat="48.42415" lon="9.49586">
        <ele>743</ele>
        <time>2022-05-24T01:07:40Z</time>
      </trkpt>
      <trkpt lat="48.4244" lon="9.49583">
        <ele>744</ele>
        <time>2022-05-24T01:07:45Z</time>
      </trkpt>
      <trkpt lat="48.42481" lon="9.49565">
        <ele>746</ele>
        <time>2022-05-24T01:07:52Z</time>
      </trkpt>
      <trkpt lat="48.4254" lon="9.49507">
        <ele>748</ele>
        <time>2022-05-24T01:08:05Z</time>
      </trkpt>
      <trkpt lat="48.42574" lon="9.49484">
        <ele>748</ele>
        <time>2022-05-24T01:08:11Z</time>
      </trkpt>
      <trkpt lat="48.42591" lon="9.49478">
        <ele>748</ele>
        <time>2022-05-24T01:08:14Z</time>
      </trkpt>
      <trkpt lat="48.4264" lon="9.49478">
        <ele>749</ele>
        <time>2022-05-24T01:08:23Z</time>
      </trkpt>
      <trkpt lat="48.42738" lon="9.49504">
        <ele>756</ele>
        <time>2022-05-24T01:08:41Z</time>
      </trkpt>
      <trkpt lat="48.42763" lon="9.49513">
        <ele>757</ele>
        <time>2022-05-24T01:08:45Z</time>
      </trkpt>
      <trkpt lat="48.42851" lon="9.49515">
        <ele>757</ele>
        <time>2022-05-24T01:09:01Z</time>
      </trkpt>
      <trkpt lat="48.42864" lon="9.49521">
        <ele>755</ele>
        <time>2022-05-24T01:09:03Z</time>
      </trkpt>
      <trkpt lat="48.42912" lon="9.49614">
        <ele>757</ele>
        <time>2022-05-24T01:09:17Z</time>
      </trkpt>
      <trkpt lat="48.42928" lon="9.49631">
        <ele>756</ele>
        <time>2022-05-24T01:09:21Z</time>
      </trkpt>
      <trkpt lat="48.42952" lon="9.49647">
        <ele>755</ele>
        <time>2022-05-24T01:09:26Z</time>
      </trkpt>
      <trkpt lat="48.43022" lon="9.49644">
        <ele>747</ele>
        <time>2022-05-24T01:09:38Z</time>
      </trkpt>
      <trkpt lat="48.43069" lon="9.49609">
        <ele>738</ele>
        <time>2022-05-24T01:09:47Z</time>
      </trkpt>
      <trkpt lat="48.43091" lon="9.49605">
        <ele>736</ele>
        <time>2022-05-24T01:09:51Z</time>
      </trkpt>
      <trkpt lat="48.4311" lon="9.49609">
        <ele>734</ele>
        <time>2022-05-24T01:09:55Z</time>
      </trkpt>
      <trkpt lat="48.43154" lon="9.49635">
        <ele>732</ele>
        <time>2022-05-24T01:10:03Z</time>
      </trkpt>
      <trkpt lat="48.43203" lon="9.49677">
        <ele>731</ele>
        <time>2022-05-24T01:10:13Z</time>
      </trkpt>
      <trkpt lat="48.43236" lon="9.49721">
        <ele>728</ele>
        <time>2022-05-24T01:10:21Z</time>
      </trkpt>
      <trkpt lat="48.43264" lon="9.49725">
        <ele>727</ele>
        <time>2022-05-24T01:10:26Z</time>
      </trkpt>
      <trkpt lat="48.43272" lon="9.49716">
        <ele>726</ele>
        <time>2022-05-24T01:10:28Z</time>
      </trkpt>
      <trkpt lat="48.43303" lon="9.49756">
        <ele>726</ele>
        <time>2022-05-24T01:10:35Z</time>
      </trkpt>
      <trkpt lat="48.43316" lon="9.49784">
        <ele>726</ele>
        <time>2022-05-24T01:10:39Z</time>
      </trkpt>
      <trkpt lat="48.43333" lon="9.49843">
        <ele>727</ele>
        <time>2022-05-24T01:10:47Z</time>
      </trkpt>
      <trkpt lat="48.43343" lon="9.49916">
        <ele>726</ele>
        <time>2022-05-24T01:10:55Z</time>
      </trkpt>
      <trkpt lat="48.43345" lon="9.50093">
        <ele>726</ele>
        <time>2022-05-24T01:11:16Z</time>
      </trkpt>
      <trkpt lat="48.43362" lon="9.50346">
        <ele>728</ele>
        <time>2022-05-24T01:11:46Z</time>
      </trkpt>
      <trkpt lat="48.43404" lon="9.50595">
        <ele>736</ele>
        <time>2022-05-24T01:12:17Z</time>
      </trkpt>
      <trkpt lat="48.43398" lon="9.50616">
        <ele>736</ele>
        <time>2022-05-24T01:12:19Z</time>
      </trkpt>
      <trkpt lat="48.4342" lon="9.50651">
        <ele>738</ele>
        <time>2022-05-24T01:12:25Z</time>
      </trkpt>
      <trkpt lat="48.43452" lon="9.50714">
        <ele>743</ele>
        <time>2022-05-24T01:12:34Z</time>
      </trkpt>
      <trkpt lat="48.43524" lon="9.50805">
        <ele>752</ele>
        <time>2022-05-24T01:12:51Z</time>
      </trkpt>
      <trkpt lat="48.43583" lon="9.50869">
        <ele>756</ele>
        <time>2022-05-24T01:13:04Z</time>
      </trkpt>
      <trkpt lat="48.43732" lon="9.51">
        <ele>763</ele>
        <time>2022-05-24T01:13:35Z</time>
      </trkpt>
      <trkpt lat="48.43772" lon="9.5107">
        <ele>764</ele>
        <time>2022-05-24T01:13:46Z</time>
      </trkpt>
      <trkpt lat="48.43831" lon="9.5115">
        <ele>768</ele>
        <time>2022-05-24T01:14:00Z</time>
      </trkpt>
      <trkpt lat="48.43891" lon="9.51222">
        <ele>776</ele>
        <time>2022-05-24T01:14:13Z</time>
      </trkpt>
      <trkpt lat="48.4392" lon="9.51247">
        <ele>779</ele>
        <time>2022-05-24T01:14:19Z</time>
      </trkpt>
      <trkpt lat="48.43943" lon="9.51257">
        <ele>782</ele>
        <time>2022-05-24T01:14:24Z</time>
      </trkpt>
      <trkpt lat="48.43981" lon="9.5125">
        <ele>786</ele>
        <time>2022-05-24T01:14:30Z</time>
      </trkpt>
      <trkpt lat="48.44022" lon="9.51222">
        <ele>788</ele>
        <time>2022-05-24T01:14:38Z</time>
      </trkpt>
      <trkpt lat="48.44044" lon="9.51213">
        <ele>788</ele>
        <time>2022-05-24T01:14:43Z</time>
      </trkpt>
      <trkpt lat="48.44047" lon="9.51201">
        <ele>788</ele>
        <time>2022-05-24T01:14:44Z</time>
      </trkpt>
      <trkpt lat="48.44085" lon="9.51141">
        <ele>786</ele>
        <time>2022-05-24T01:14:54Z</time>
      </trkpt>
      <trkpt lat="48.44105" lon="9.51121">
        <ele>784</ele>
        <time>2022-05-24T01:14:58Z</time>
      </trkpt>
      <trkpt lat="48.44161" lon="9.51084">
        <ele>779</ele>
        <time>2022-05-24T01:15:09Z</time>
      </trkpt>
      <trkpt lat="48.44195" lon="9.51052">
        <ele>776</ele>
        <time>2022-05-24T01:15:16Z</time>
      </trkpt>
      <trkpt lat="48.44276" lon="9.50938">
        <ele>773</ele>
        <time>2022-05-24T01:15:36Z</time>
      </trkpt>
      <trkpt lat="48.44384" lon="9.50826">
        <ele>769</ele>
        <time>2022-05-24T01:15:59Z</time>
      </trkpt>
      <trkpt lat="48.4447" lon="9.50745">
        <ele>770</ele>
        <time>2022-05-24T01:16:17Z</time>
      </trkpt>
      <trkpt lat="48.44613" lon="9.5059">
        <ele>774</ele>
        <time>2022-05-24T01:16:49Z</time>
      </trkpt>
      <trkpt lat="48.44628" lon="9.50571">
        <ele>774</ele>
        <time>2022-05-24T01:16:52Z</time>
      </trkpt>
      <trkpt lat="48.44563" lon="9.51192">
        <ele>770</ele>
        <time>2022-05-24T01:18:06Z</time>
      </trkpt>
      <trkpt lat="48.44562" lon="9.51296">
        <ele>769</ele>
        <time>2022-05-24T01:18:18Z</time>
      </trkpt>
      <trkpt lat="48.44581" lon="9.51471">
        <ele>769</ele>
        <time>2022-05-24T01:18:39Z</time>
      </trkpt>
      <trkpt lat="48.44591" lon="9.51526">
        <ele>768</ele>
        <time>2022-05-24T01:18:46Z</time>
      </trkpt>
      <trkpt lat="48.44668" lon="9.5184">
        <ele>767</ele>
        <time>2022-05-24T01:19:26Z</time>
      </trkpt>
      <trkpt lat="48.44684" lon="9.51966">
        <ele>767</ele>
        <time>2022-05-24T01:19:41Z</time>
      </trkpt>
      <trkpt lat="48.44689" lon="9.52067">
        <ele>769</ele>
        <time>2022-05-24T01:19:53Z</time>
      </trkpt>
      <trkpt lat="48.44686" lon="9.52126">
        <ele>768</ele>
        <time>2022-05-24T01:20:00Z</time>
      </trkpt>
      <trkpt lat="48.44665" lon="9.52259">
        <ele>764</ele>
        <time>2022-05-24T01:20:16Z</time>
      </trkpt>
      <trkpt lat="48.44665" lon="9.5239">
        <ele>768</ele>
        <time>2022-05-24T01:20:31Z</time>
      </trkpt>
      <trkpt lat="48.44691" lon="9.52503">
        <ele>769</ele>
        <time>2022-05-24T01:20:45Z</time>
      </trkpt>
      <trkpt lat="48.44728" lon="9.52746">
        <ele>770</ele>
        <time>2022-05-24T01:21:15Z</time>
      </trkpt>
      <trkpt lat="48.44755" lon="9.52846">
        <ele>773</ele>
        <time>2022-05-24T01:21:28Z</time>
      </trkpt>
      <trkpt lat="48.4479" lon="9.5292">
        <ele>778</ele>
        <time>2022-05-24T01:21:38Z</time>
      </trkpt>
      <trkpt lat="48.44932" lon="9.53145">
        <ele>787</ele>
        <time>2022-05-24T01:22:15Z</time>
      </trkpt>
      <trkpt lat="48.4497" lon="9.53214">
        <ele>789</ele>
        <time>2022-05-24T01:22:26Z</time>
      </trkpt>
      <trkpt lat="48.45042" lon="9.53437">
        <ele>784</ele>
        <time>2022-05-24T01:22:55Z</time>
      </trkpt>
      <trkpt lat="48.45068" lon="9.53497">
        <ele>785</ele>
        <time>2022-05-24T01:23:03Z</time>
      </trkpt>
      <trkpt lat="48.45091" lon="9.53536">
        <ele>785</ele>
        <time>2022-05-24T01:23:09Z</time>
      </trkpt>
      <trkpt lat="48.4524" lon="9.53699">
        <ele>784</ele>
        <time>2022-05-24T01:23:42Z</time>
      </trkpt>
      <trkpt lat="48.45251" lon="9.5371">
        <ele>784</ele>
        <time>2022-05-24T01:23:45Z</time>
      </trkpt>
      <trkpt lat="48.45274" lon="9.53716">
        <ele>784</ele>
        <time>2022-05-24T01:23:49Z</time>
      </trkpt>
      <trkpt lat="48.45482" lon="9.53711">
        <ele>784</ele>
        <time>2022-05-24T01:24:26Z</time>
      </trkpt>
      <trkpt lat="48.45569" lon="9.53714">
        <ele>788</ele>
        <time>2022-05-24T01:24:41Z</time>
      </trkpt>
      <trkpt lat="48.459" lon="9.53785">
        <ele>788</ele>
        <time>2022-05-24T01:25:41Z</time>
      </trkpt>
      <trkpt lat="48.46083" lon="9.53807">
        <ele>791</ele>
        <time>2022-05-24T01:26:13Z</time>
      </trkpt>
      <trkpt lat="48.46266" lon="9.53846">
        <ele>794</ele>
        <time>2022-05-24T01:26:46Z</time>
      </trkpt>
      <trkpt lat="48.46615" lon="9.53875">
        <ele>806</ele>
        <time>2022-05-24T01:27:48Z</time>
      </trkpt>
      <trkpt lat="48.46775" lon="9.53884">
        <ele>816</ele>
        <time>2022-05-24T01:28:17Z</time>
      </trkpt>
      <trkpt lat="48.46869" lon="9.53927">
        <ele>816</ele>
        <time>2022-05-24T01:28:34Z</time>
      </trkpt>
      <trkpt lat="48.46978" lon="9.5393">
        <ele>803</ele>
        <time>2022-05-24T01:28:54Z</time>
      </trkpt>
      <trkpt lat="48.47155" lon="9.53954">
        <ele>784</ele>
        <time>2022-05-24T01:29:25Z</time>
      </trkpt>
      <trkpt lat="48.47146" lon="9.54014">
        <ele>784</ele>
        <time>2022-05-24T01:29:33Z</time>
      </trkpt>
      <trkpt lat="48.47167" lon="9.54026">
        <ele>784</ele>
        <time>2022-05-24T01:29:37Z</time>
      </trkpt>
      <trkpt lat="48.4718" lon="9.54048">
        <ele>786</ele>
        <time>2022-05-24T01:29:40Z</time>
      </trkpt>
      <trkpt lat="48.47193" lon="9.5409">
        <ele>789</ele>
        <time>2022-05-24T01:29:46Z</time>
      </trkpt>
      <trkpt lat="48.47205" lon="9.54109">
        <ele>790</ele>
        <time>2022-05-24T01:29:49Z</time>
      </trkpt>
      <trkpt lat="48.47322" lon="9.54196">
        <ele>805</ele>
        <time>2022-05-24T01:30:12Z</time>
      </trkpt>
      <trkpt lat="48.47347" lon="9.54205">
        <ele>808</ele>
        <time>2022-05-24T01:30:16Z</time>
      </trkpt>
      <trkpt lat="48.47421" lon="9.54207">
        <ele>815</ele>
        <time>2022-05-24T01:30:30Z</time>
      </trkpt>
      <trkpt lat="48.47526" lon="9.54223">
        <ele>817</ele>
        <time>2022-05-24T01:30:48Z</time>
      </trkpt>
      <trkpt lat="48.47616" lon="9.54264">
        <ele>808</ele>
        <time>2022-05-24T01:31:05Z</time>
      </trkpt>
      <trkpt lat="48.47672" lon="9.54342">
        <ele>805</ele>
        <time>2022-05-24T01:31:19Z</time>
      </trkpt>
      <trkpt lat="48.47692" lon="9.5436">
        <ele>805</ele>
        <time>2022-05-24T01:31:23Z</time>
      </trkpt>
      <trkpt lat="48.47736" lon="9.54382">
        <ele>804</ele>
        <time>2022-05-24T01:31:31Z</time>
      </trkpt>
      <trkpt lat="48.47743" lon="9.54391">
        <ele>804</ele>
        <time>2022-05-24T01:31:33Z</time>
      </trkpt>
      <trkpt lat="48.4775" lon="9.54387">
        <ele>804</ele>
        <time>2022-05-24T01:31:34Z</time>
      </trkpt>
      <trkpt lat="48.4782" lon="9.54392">
        <ele>802</ele>
        <time>2022-05-24T01:31:47Z</time>
      </trkpt>
      <trkpt lat="48.47885" lon="9.54375">
        <ele>802</ele>
        <time>2022-05-24T01:31:58Z</time>
      </trkpt>
      <trkpt lat="48.47897" lon="9.54379">
        <ele>803</ele>
        <time>2022-05-24T01:32:00Z</time>
      </trkpt>
      <trkpt lat="48.47956" lon="9.54452">
        <ele>803</ele>
        <time>2022-05-24T01:32:14Z</time>
      </trkpt>
      <trkpt lat="48.47968" lon="9.5446">
        <ele>802</ele>
        <time>2022-05-24T01:32:16Z</time>
      </trkpt>
      <trkpt lat="48.48014" lon="9.54442">
        <ele>801</ele>
        <time>2022-05-24T01:32:25Z</time>
      </trkpt>
      <trkpt lat="48.48029" lon="9.54483">
        <ele>799</ele>
        <time>2022-05-24T01:32:30Z</time>
      </trkpt>
      <trkpt lat="48.48057" lon="9.54516">
        <ele>797</ele>
        <time>2022-05-24T01:32:37Z</time>
      </trkpt>
      <trkpt lat="48.48072" lon="9.54531">
        <ele>797</ele>
        <time>2022-05-24T01:32:40Z</time>
      </trkpt>
      <trkpt lat="48.4815" lon="9.54595">
        <ele>797</ele>
        <time>2022-05-24T01:32:56Z</time>
      </trkpt>
      <trkpt lat="48.4816" lon="9.5461">
        <ele>797</ele>
        <time>2022-05-24T01:32:58Z</time>
      </trkpt>
      <trkpt lat="48.48167" lon="9.54627">
        <ele>797</ele>
        <time>2022-05-24T01:33:01Z</time>
      </trkpt>
      <trkpt lat="48.48181" lon="9.5464">
        <ele>797</ele>
        <time>2022-05-24T01:33:03Z</time>
      </trkpt>
      <trkpt lat="48.48214" lon="9.54708">
        <ele>797</ele>
        <time>2022-05-24T01:33:13Z</time>
      </trkpt>
      <trkpt lat="48.48224" lon="9.54747">
        <ele>797</ele>
        <time>2022-05-24T01:33:18Z</time>
      </trkpt>
      <trkpt lat="48.48237" lon="9.5488">
        <ele>796</ele>
        <time>2022-05-24T01:33:34Z</time>
      </trkpt>
      <trkpt lat="48.48269" lon="9.55007">
        <ele>796</ele>
        <time>2022-05-24T01:33:50Z</time>
      </trkpt>
      <trkpt lat="48.48289" lon="9.55106">
        <ele>798</ele>
        <time>2022-05-24T01:34:02Z</time>
      </trkpt>
      <trkpt lat="48.48329" lon="9.55253">
        <ele>799</ele>
        <time>2022-05-24T01:34:21Z</time>
      </trkpt>
      <trkpt lat="48.48336" lon="9.55273">
        <ele>800</ele>
        <time>2022-05-24T01:34:24Z</time>
      </trkpt>
      <trkpt lat="48.48349" lon="9.55266">
        <ele>800</ele>
        <time>2022-05-24T01:34:26Z</time>
      </trkpt>
      <trkpt lat="48.4836" lon="9.55292">
        <ele>800</ele>
        <time>2022-05-24T01:34:30Z</time>
      </trkpt>
      <trkpt lat="48.48397" lon="9.55428">
        <ele>802</ele>
        <time>2022-05-24T01:34:47Z</time>
      </trkpt>
      <trkpt lat="48.48459" lon="9.5543">
        <ele>800</ele>
        <time>2022-05-24T01:34:58Z</time>
      </trkpt>
      <trkpt lat="48.48507" lon="9.55363">
        <ele>800</ele>
        <time>2022-05-24T01:35:10Z</time>
      </trkpt>
      <trkpt lat="48.48562" lon="9.55326">
        <ele>801</ele>
        <time>2022-05-24T01:35:21Z</time>
      </trkpt>
      <trkpt lat="48.48612" lon="9.55301">
        <ele>802</ele>
        <time>2022-05-24T01:35:30Z</time>
      </trkpt>
      <trkpt lat="48.48696" lon="9.55272">
        <ele>800</ele>
        <time>2022-05-24T01:35:45Z</time>
      </trkpt>
      <trkpt lat="48.48735" lon="9.55231">
        <ele>801</ele>
        <time>2022-05-24T01:35:54Z</time>
      </trkpt>
      <trkpt lat="48.48757" lon="9.55224">
        <ele>801</ele>
        <time>2022-05-24T01:35:58Z</time>
      </trkpt>
      <trkpt lat="48.48834" lon="9.55266">
        <ele>802</ele>
        <time>2022-05-24T01:36:12Z</time>
      </trkpt>
      <trkpt lat="48.48878" lon="9.55274">
        <ele>807</ele>
        <time>2022-05-24T01:36:20Z</time>
      </trkpt>
      <trkpt lat="48.48927" lon="9.55311">
        <ele>809</ele>
        <time>2022-05-24T01:36:30Z</time>
      </trkpt>
      <trkpt lat="48.48982" lon="9.5537">
        <ele>811</ele>
        <time>2022-05-24T01:36:42Z</time>
      </trkpt>
      <trkpt lat="48.49005" lon="9.55447">
        <ele>811</ele>
        <time>2022-05-24T01:36:52Z</time>
      </trkpt>
      <trkpt lat="48.49056" lon="9.5548">
        <ele>814</ele>
        <time>2022-05-24T01:37:02Z</time>
      </trkpt>
      <trkpt lat="48.49085" lon="9.5549">
        <ele>815</ele>
        <time>2022-05-24T01:37:07Z</time>
      </trkpt>
      <trkpt lat="48.49164" lon="9.55495">
        <ele>809</ele>
        <time>2022-05-24T01:37:21Z</time>
      </trkpt>
      <trkpt lat="48.49171" lon="9.5553">
        <ele>807</ele>
        <time>2022-05-24T01:37:26Z</time>
      </trkpt>
      <trkpt lat="48.49189" lon="9.55549">
        <ele>804</ele>
        <time>2022-05-24T01:37:29Z</time>
      </trkpt>
      <trkpt lat="48.4926" lon="9.55556">
        <ele>797</ele>
        <time>2022-05-24T01:37:42Z</time>
      </trkpt>
      <trkpt lat="48.49273" lon="9.5557">
        <ele>795</ele>
        <time>2022-05-24T01:37:45Z</time>
      </trkpt>
      <trkpt lat="48.49301" lon="9.55655">
        <ele>790</ele>
        <time>2022-05-24T01:37:56Z</time>
      </trkpt>
      <trkpt lat="48.49314" lon="9.55679">
        <ele>789</ele>
        <time>2022-05-24T01:38:00Z</time>
      </trkpt>
      <trkpt lat="48.49332" lon="9.55697">
        <ele>787</ele>
        <time>2022-05-24T01:38:04Z</time>
      </trkpt>
      <trkpt lat="48.49507" lon="9.55795">
        <ele>780</ele>
        <time>2022-05-24T01:38:37Z</time>
      </trkpt>
      <trkpt lat="48.49698" lon="9.55892">
        <ele>781</ele>
        <time>2022-05-24T01:39:13Z</time>
      </trkpt>
      <trkpt lat="48.49771" lon="9.55926">
        <ele>785</ele>
        <time>2022-05-24T01:39:26Z</time>
      </trkpt>
      <trkpt lat="48.49874" lon="9.55942">
        <ele>791</ele>
        <time>2022-05-24T01:39:45Z</time>
      </trkpt>
      <trkpt lat="48.49952" lon="9.55923">
        <ele>795</ele>
        <time>2022-05-24T01:39:59Z</time>
      </trkpt>
      <trkpt lat="48.50023" lon="9.55926">
        <ele>795</ele>
        <time>2022-05-24T01:40:11Z</time>
      </trkpt>
      <trkpt lat="48.5016" lon="9.55956">
        <ele>789</ele>
        <time>2022-05-24T01:40:36Z</time>
      </trkpt>
      <trkpt lat="48.50189" lon="9.55967">
        <ele>789</ele>
        <time>2022-05-24T01:40:41Z</time>
      </trkpt>
      <trkpt lat="48.50243" lon="9.55998">
        <ele>789</ele>
        <time>2022-05-24T01:40:52Z</time>
      </trkpt>
      <trkpt lat="48.50363" lon="9.56076">
        <ele>792</ele>
        <time>2022-05-24T01:41:15Z</time>
      </trkpt>
      <trkpt lat="48.50421" lon="9.56103">
        <ele>791</ele>
        <time>2022-05-24T01:41:26Z</time>
      </trkpt>
      <trkpt lat="48.50464" lon="9.56109">
        <ele>791</ele>
        <time>2022-05-24T01:41:33Z</time>
      </trkpt>
      <trkpt lat="48.50621" lon="9.56142">
        <ele>789</ele>
        <time>2022-05-24T01:42:02Z</time>
      </trkpt>
      <trkpt lat="48.50667" lon="9.5614">
        <ele>786</ele>
        <time>2022-05-24T01:42:10Z</time>
      </trkpt>
      <trkpt lat="48.50801" lon="9.56097">
        <ele>787</ele>
        <time>2022-05-24T01:42:34Z</time>
      </trkpt>
      <trkpt lat="48.50858" lon="9.56094">
        <ele>787</ele>
        <time>2022-05-24T01:42:44Z</time>
      </trkpt>
      <trkpt lat="48.50931" lon="9.56116">
        <ele>787</ele>
        <time>2022-05-24T01:42:58Z</time>
      </trkpt>
      <trkpt lat="48.5099" lon="9.56124">
        <ele>787</ele>
        <time>2022-05-24T01:43:08Z</time>
      </trkpt>
      <trkpt lat="48.51031" lon="9.56127">
        <ele>788</ele>
        <time>2022-05-24T01:43:15Z</time>
      </trkpt>
      <trkpt lat="48.51126" lon="9.56124">
        <ele>789</ele>
        <time>2022-05-24T01:43:32Z</time>
      </trkpt>
      <trkpt lat="48.51222" lon="9.56108">
        <ele>792</ele>
        <time>2022-05-24T01:43:49Z</time>
      </trkpt>
      <trkpt lat="48.51263" lon="9.56094">
        <ele>793</ele>
        <time>2022-05-24T01:43:57Z</time>
      </trkpt>
      <trkpt lat="48.51301" lon="9.56046">
        <ele>795</ele>
        <time>2022-05-24T01:44:06Z</time>
      </trkpt>
      <trkpt lat="48.51315" lon="9.56038">
        <ele>796</ele>
        <time>2022-05-24T01:44:08Z</time>
      </trkpt>
      <trkpt lat="48.51321" lon="9.56042">
        <ele>796</ele>
        <time>2022-05-24T01:44:10Z</time>
      </trkpt>
      <trkpt lat="48.51338" lon="9.56072">
        <ele>795</ele>
        <time>2022-05-24T01:44:14Z</time>
      </trkpt>
      <trkpt lat="48.51344" lon="9.56075">
        <ele>795</ele>
        <time>2022-05-24T01:44:15Z</time>
      </trkpt>
      <trkpt lat="48.51382" lon="9.56068">
        <ele>796</ele>
        <time>2022-05-24T01:44:22Z</time>
      </trkpt>
      <trkpt lat="48.51715" lon="9.56056">
        <ele>801</ele>
        <time>2022-05-24T01:45:21Z</time>
      </trkpt>
      <trkpt lat="48.51759" lon="9.56041">
        <ele>801</ele>
        <time>2022-05-24T01:45:30Z</time>
      </trkpt>
      <trkpt lat="48.51769" lon="9.5607">
        <ele>801</ele>
        <time>2022-05-24T01:45:33Z</time>
      </trkpt>
      <trkpt lat="48.51825" lon="9.5608">
        <ele>802</ele>
        <time>2022-05-24T01:45:43Z</time>
      </trkpt>
      <trkpt lat="48.51791" lon="9.56228">
        <ele>800</ele>
        <time>2022-05-24T01:46:02Z</time>
      </trkpt>
      <trkpt lat="48.51826" lon="9.56234">
        <ele>802</ele>
        <time>2022-05-24T01:46:08Z</time>
      </trkpt>
      <trkpt lat="48.51893" lon="9.56241">
        <ele>805</ele>
        <time>2022-05-24T01:46:20Z</time>
      </trkpt>
      <trkpt lat="48.5194" lon="9.56243">
        <ele>807</ele>
        <time>2022-05-24T01:46:28Z</time>
      </trkpt>
      <trkpt lat="48.51942" lon="9.56328">
        <ele>808</ele>
        <time>2022-05-24T01:46:38Z</time>
      </trkpt>
      <trkpt lat="48.51947" lon="9.56405">
        <ele>808</ele>
        <time>2022-05-24T01:46:48Z</time>
      </trkpt>
      <trkpt lat="48.52044" lon="9.56376">
        <ele>813</ele>
        <time>2022-05-24T01:47:05Z</time>
      </trkpt>
      <trkpt lat="48.52074" lon="9.5637">
        <ele>815</ele>
        <time>2022-05-24T01:47:11Z</time>
      </trkpt>
      <trkpt lat="48.52084" lon="9.56359">
        <ele>815</ele>
        <time>2022-05-24T01:47:13Z</time>
      </trkpt>
      <trkpt lat="48.52196" lon="9.56325">
        <ele>826</ele>
        <time>2022-05-24T01:47:33Z</time>
      </trkpt>
      <trkpt lat="48.52245" lon="9.56319">
        <ele>829</ele>
        <time>2022-05-24T01:47:42Z</time>
      </trkpt>
      <trkpt lat="48.52411" lon="9.56357">
        <ele>819</ele>
        <time>2022-05-24T01:48:12Z</time>
      </trkpt>
      <trkpt lat="48.52434" lon="9.56355">
        <ele>818</ele>
        <time>2022-05-24T01:48:16Z</time>
      </trkpt>
      <trkpt lat="48.52466" lon="9.56344">
        <ele>816</ele>
        <time>2022-05-24T01:48:22Z</time>
      </trkpt>
      <trkpt lat="48.52533" lon="9.56296">
        <ele>809</ele>
        <time>2022-05-24T01:48:35Z</time>
      </trkpt>
      <trkpt lat="48.52541" lon="9.56315">
        <ele>810</ele>
        <time>2022-05-24T01:48:37Z</time>
      </trkpt>
      <trkpt lat="48.5253" lon="9.56351">
        <ele>811</ele>
        <time>2022-05-24T01:48:42Z</time>
      </trkpt>
      <trkpt lat="48.52513" lon="9.56383">
        <ele>812</ele>
        <time>2022-05-24T01:48:47Z</time>
      </trkpt>
      <trkpt lat="48.5251" lon="9.56402">
        <ele>812</ele>
        <time>2022-05-24T01:48:49Z</time>
      </trkpt>
      <trkpt lat="48.52516" lon="9.56516">
        <ele>810</ele>
        <time>2022-05-24T01:49:03Z</time>
      </trkpt>
      <trkpt lat="48.52521" lon="9.56532">
        <ele>810</ele>
        <time>2022-05-24T01:49:05Z</time>
      </trkpt>
      <trkpt lat="48.52531" lon="9.56539">
        <ele>809</ele>
        <time>2022-05-24T01:49:07Z</time>
      </trkpt>
      <trkpt lat="48.52543" lon="9.5653">
        <ele>808</ele>
        <time>2022-05-24T01:49:09Z</time>
      </trkpt>
      <trkpt lat="48.52613" lon="9.56403">
        <ele>797</ele>
        <time>2022-05-24T01:49:29Z</time>
      </trkpt>
      <trkpt lat="48.5265" lon="9.56367">
        <ele>792</ele>
        <time>2022-05-24T01:49:37Z</time>
      </trkpt>
      <trkpt lat="48.52877" lon="9.56204">
        <ele>766</ele>
        <time>2022-05-24T01:50:21Z</time>
      </trkpt>
      <trkpt lat="48.52943" lon="9.56211">
        <ele>767</ele>
        <time>2022-05-24T01:50:33Z</time>
      </trkpt>
      <trkpt lat="48.52967" lon="9.56199">
        <ele>767</ele>
        <time>2022-05-24T01:50:38Z</time>
      </trkpt>
      <trkpt lat="48.53017" lon="9.56151">
        <ele>766</ele>
        <time>2022-05-24T01:50:48Z</time>
      </trkpt>
      <trkpt lat="48.53048" lon="9.5611">
        <ele>763</ele>
        <time>2022-05-24T01:50:55Z</time>
      </trkpt>
      <trkpt lat="48.53094" lon="9.56073">
        <ele>761</ele>
        <time>2022-05-24T01:51:05Z</time>
      </trkpt>
      <trkpt lat="48.53173" lon="9.56031">
        <ele>760</ele>
        <time>2022-05-24T01:51:20Z</time>
      </trkpt>
      <trkpt lat="48.53214" lon="9.55987">
        <ele>753</ele>
        <time>2022-05-24T01:51:29Z</time>
      </trkpt>
      <trkpt lat="48.53253" lon="9.56004">
        <ele>753</ele>
        <time>2022-05-24T01:51:36Z</time>
      </trkpt>
      <trkpt lat="48.53323" lon="9.56009">
        <ele>752</ele>
        <time>2022-05-24T01:51:48Z</time>
      </trkpt>
      <trkpt lat="48.53374" lon="9.55998">
        <ele>750</ele>
        <time>2022-05-24T01:51:57Z</time>
      </trkpt>
      <trkpt lat="48.53423" lon="9.55974">
        <ele>744</ele>
        <time>2022-05-24T01:52:07Z</time>
      </trkpt>
      <trkpt lat="48.53428" lon="9.55956">
        <ele>740</ele>
        <time>2022-05-24T01:52:09Z</time>
      </trkpt>
      <trkpt lat="48.53423" lon="9.55889">
        <ele>732</ele>
        <time>2022-05-24T01:52:17Z</time>
      </trkpt>
      <trkpt lat="48.53438" lon="9.55834">
        <ele>730</ele>
        <time>2022-05-24T01:52:24Z</time>
      </trkpt>
      <trkpt lat="48.53556" lon="9.55673">
        <ele>722</ele>
        <time>2022-05-24T01:52:52Z</time>
      </trkpt>
      <trkpt lat="48.53731" lon="9.55445">
        <ele>725</ele>
        <time>2022-05-24T01:53:33Z</time>
      </trkpt>
      <trkpt lat="48.53875" lon="9.5557">
        <ele>724</ele>
        <time>2022-05-24T01:54:03Z</time>
      </trkpt>
      <trkpt lat="48.53929" lon="9.55606">
        <ele>723</ele>
        <time>2022-05-24T01:54:13Z</time>
      </trkpt>
      <trkpt lat="48.54107" lon="9.55714">
        <ele>724</ele>
        <time>2022-05-24T01:54:47Z</time>
      </trkpt>
      <trkpt lat="48.54137" lon="9.55749">
        <ele>720</ele>
        <time>2022-05-24T01:54:54Z</time>
      </trkpt>
      <trkpt lat="48.5424" lon="9.55915">
        <ele>722</ele>
        <time>2022-05-24T01:55:21Z</time>
      </trkpt>
      <trkpt lat="48.54361" lon="9.56093">
        <ele>719</ele>
        <time>2022-05-24T01:55:51Z</time>
      </trkpt>
      <trkpt lat="48.54509" lon="9.56267">
        <ele>712</ele>
        <time>2022-05-24T01:56:24Z</time>
      </trkpt>
      <trkpt lat="48.54533" lon="9.56288">
        <ele>710</ele>
        <time>2022-05-24T01:56:29Z</time>
      </trkpt>
      <trkpt lat="48.54554" lon="9.56296">
        <ele>709</ele>
        <time>2022-05-24T01:56:33Z</time>
      </trkpt>
      <trkpt lat="48.54593" lon="9.56295">
        <ele>708</ele>
        <time>2022-05-24T01:56:40Z</time>
      </trkpt>
      <trkpt lat="48.54758" lon="9.56202">
        <ele>713</ele>
        <time>2022-05-24T01:57:11Z</time>
      </trkpt>
      <trkpt lat="48.54801" lon="9.5616">
        <ele>715</ele>
        <time>2022-05-24T01:57:21Z</time>
      </trkpt>
      <trkpt lat="48.54845" lon="9.56095">
        <ele>718</ele>
        <time>2022-05-24T01:57:31Z</time>
      </trkpt>
      <trkpt lat="48.54924" lon="9.55926">
        <ele>714</ele>
        <time>2022-05-24T01:57:56Z</time>
      </trkpt>
      <trkpt lat="48.54996" lon="9.5582">
        <ele>715</ele>
        <time>2022-05-24T01:58:14Z</time>
      </trkpt>
      <trkpt lat="48.55028" lon="9.55873">
        <ele>716</ele>
        <time>2022-05-24T01:58:22Z</time>
      </trkpt>
      <trkpt lat="48.55135" lon="9.56011">
        <ele>715</ele>
        <time>2022-05-24T01:58:47Z</time>
      </trkpt>
      <trkpt lat="48.55152" lon="9.56">
        <ele>714</ele>
        <time>2022-05-24T01:58:51Z</time>
      </trkpt>
      <trkpt lat="48.55207" lon="9.56022">
        <ele>716</ele>
        <time>2022-05-24T01:59:01Z</time>
      </trkpt>
      <trkpt lat="48.55218" lon="9.56033">
        <ele>716</ele>
        <time>2022-05-24T01:59:03Z</time>
      </trkpt>
      <trkpt lat="48.5524" lon="9.56094">
        <ele>720</ele>
        <time>2022-05-24T01:59:11Z</time>
      </trkpt>
      <trkpt lat="48.55279" lon="9.56142">
        <ele>720</ele>
        <time>2022-05-24T01:59:20Z</time>
      </trkpt>
      <trkpt lat="48.55301" lon="9.56162">
        <ele>719</ele>
        <time>2022-05-24T01:59:25Z</time>
      </trkpt>
      <trkpt lat="48.55423" lon="9.56229">
        <ele>704</ele>
        <time>2022-05-24T01:59:48Z</time>
      </trkpt>
      <trkpt lat="48.55456" lon="9.56238">
        <ele>698</ele>
        <time>2022-05-24T01:59:54Z</time>
      </trkpt>
      <trkpt lat="48.55493" lon="9.56261">
        <ele>698</ele>
        <time>2022-05-24T02:00:01Z</time>
      </trkpt>
      <trkpt lat="48.55546" lon="9.56284">
        <ele>689</ele>
        <time>2022-05-24T02:00:11Z</time>
      </trkpt>
      <trkpt lat="48.55613" lon="9.56329">
        <ele>684</ele>
        <time>2022-05-24T02:00:24Z</time>
      </trkpt>
      <trkpt lat="48.55654" lon="9.56377">
        <ele>685</ele>
        <time>2022-05-24T02:00:33Z</time>
      </trkpt>
      <trkpt lat="48.55723" lon="9.56476">
        <ele>682</ele>
        <time>2022-05-24T02:00:50Z</time>
      </trkpt>
      <trkpt lat="48.55761" lon="9.56522">
        <ele>685</ele>
        <time>2022-05-24T02:00:59Z</time>
      </trkpt>
      <trkpt lat="48.55802" lon="9.56541">
        <ele>674</ele>
        <time>2022-05-24T02:01:06Z</time>
      </trkpt>
      <trkpt lat="48.55835" lon="9.56591">
        <ele>669</ele>
        <time>2022-05-24T02:01:14Z</time>
      </trkpt>
      <trkpt lat="48.5586" lon="9.56655">
        <ele>669</ele>
        <time>2022-05-24T02:01:23Z</time>
      </trkpt>
      <trkpt lat="48.55884" lon="9.56686">
        <ele>666</ele>
        <time>2022-05-24T02:01:29Z</time>
      </trkpt>
      <trkpt lat="48.55913" lon="9.5675">
        <ele>673</ele>
        <time>2022-05-24T02:01:38Z</time>
      </trkpt>
      <trkpt lat="48.55927" lon="9.56759">
        <ele>675</ele>
        <time>2022-05-24T02:01:41Z</time>
      </trkpt>
      <trkpt lat="48.55935" lon="9.56755">
        <ele>675</ele>
        <time>2022-05-24T02:01:42Z</time>
      </trkpt>
      <trkpt lat="48.55954" lon="9.56726">
        <ele>668</ele>
        <time>2022-05-24T02:01:47Z</time>
      </trkpt>
      <trkpt lat="48.56057" lon="9.56548">
        <ele>636</ele>
        <time>2022-05-24T02:02:15Z</time>
      </trkpt>
      <trkpt lat="48.56086" lon="9.56526">
        <ele>637</ele>
        <time>2022-05-24T02:02:21Z</time>
      </trkpt>
      <trkpt lat="48.56116" lon="9.56513">
        <ele>636</ele>
        <time>2022-05-24T02:02:26Z</time>
      </trkpt>
      <trkpt lat="48.56145" lon="9.56509">
        <ele>638</ele>
        <time>2022-05-24T02:02:31Z</time>
      </trkpt>
      <trkpt lat="48.56215" lon="9.56518">
        <ele>635</ele>
        <time>2022-05-24T02:02:44Z</time>
      </trkpt>
      <trkpt lat="48.5626" lon="9.56537">
        <ele>632</ele>
        <time>2022-05-24T02:02:52Z</time>
      </trkpt>
      <trkpt lat="48.56299" lon="9.56603">
        <ele>639</ele>
        <time>2022-05-24T02:03:03Z</time>
      </trkpt>
      <trkpt lat="48.56356" lon="9.56653">
        <ele>627</ele>
        <time>2022-05-24T02:03:14Z</time>
      </trkpt>
      <trkpt lat="48.56379" lon="9.56702">
        <ele>629</ele>
        <time>2022-05-24T02:03:21Z</time>
      </trkpt>
      <trkpt lat="48.5641" lon="9.56738">
        <ele>624</ele>
        <time>2022-05-24T02:03:28Z</time>
      </trkpt>
      <trkpt lat="48.56421" lon="9.56764">
        <ele>626</ele>
        <time>2022-05-24T02:03:32Z</time>
      </trkpt>
      <trkpt lat="48.56435" lon="9.56781">
        <ele>627</ele>
        <time>2022-05-24T02:03:35Z</time>
      </trkpt>
      <trkpt lat="48.56497" lon="9.56783">
        <ele>607</ele>
        <time>2022-05-24T02:03:46Z</time>
      </trkpt>
      <trkpt lat="48.56512" lon="9.56793">
        <ele>605</ele>
        <time>2022-05-24T02:03:49Z</time>
      </trkpt>
      <trkpt lat="48.56566" lon="9.56844">
        <ele>598</ele>
        <time>2022-05-24T02:04:00Z</time>
      </trkpt>
      <trkpt lat="48.56602" lon="9.56918">
        <ele>599</ele>
        <time>2022-05-24T02:04:11Z</time>
      </trkpt>
      <trkpt lat="48.56581" lon="9.56804">
        <ele>588</ele>
        <time>2022-05-24T02:04:25Z</time>
      </trkpt>
      <trkpt lat="48.56652" lon="9.56825">
        <ele>570</ele>
        <time>2022-05-24T02:04:38Z</time>
      </trkpt>
      <trkpt lat="48.56683" lon="9.56843">
        <ele>563</ele>
        <time>2022-05-24T02:04:44Z</time>
      </trkpt>
      <trkpt lat="48.56714" lon="9.569">
        <ele>567</ele>
        <time>2022-05-24T02:04:53Z</time>
      </trkpt>
      <trkpt lat="48.5673" lon="9.56881">
        <ele>561</ele>
        <time>2022-05-24T02:04:56Z</time>
      </trkpt>
      <trkpt lat="48.56757" lon="9.56818">
        <ele>543</ele>
        <time>2022-05-24T02:05:05Z</time>
      </trkpt>
      <trkpt lat="48.56779" lon="9.56741">
        <ele>536</ele>
        <time>2022-05-24T02:05:15Z</time>
      </trkpt>
      <trkpt lat="48.56803" lon="9.56709">
        <ele>532</ele>
        <time>2022-05-24T02:05:21Z</time>
      </trkpt>
      <trkpt lat="48.56855" lon="9.56671">
        <ele>525</ele>
        <time>2022-05-24T02:05:31Z</time>
      </trkpt>
      <trkpt lat="48.56913" lon="9.56648">
        <ele>516</ele>
        <time>2022-05-24T02:05:42Z</time>
      </trkpt>
      <trkpt lat="48.57016" lon="9.56663">
        <ele>501</ele>
        <time>2022-05-24T02:06:00Z</time>
      </trkpt>
      <trkpt lat="48.57107" lon="9.56697">
        <ele>492</ele>
        <time>2022-05-24T02:06:17Z</time>
      </trkpt>
      <trkpt lat="48.57225" lon="9.56484">
        <ele>470</ele>
        <time>2022-05-24T02:06:49Z</time>
      </trkpt>
      <trkpt lat="48.57286" lon="9.56524">
        <ele>468</ele>
        <time>2022-05-24T02:07:01Z</time>
      </trkpt>
      <trkpt lat="48.57343" lon="9.56603">
        <ele>467</ele>
        <time>2022-05-24T02:07:15Z</time>
      </trkpt>
      <trkpt lat="48.57356" lon="9.56617">
        <ele>467</ele>
        <time>2022-05-24T02:07:18Z</time>
      </trkpt>
      <trkpt lat="48.57371" lon="9.56622">
        <ele>467</ele>
        <time>2022-05-24T02:07:21Z</time>
      </trkpt>
      <trkpt lat="48.57424" lon="9.56611">
        <ele>467</ele>
        <time>2022-05-24T02:07:30Z</time>
      </trkpt>
      <trkpt lat="48.57461" lon="9.5661">
        <ele>466</ele>
        <time>2022-05-24T02:07:37Z</time>
      </trkpt>
      <trkpt lat="48.575" lon="9.56602">
        <ele>466</ele>
        <time>2022-05-24T02:07:44Z</time>
      </trkpt>
      <trkpt lat="48.57573" lon="9.56526">
        <ele>465</ele>
        <time>2022-05-24T02:07:59Z</time>
      </trkpt>
      <trkpt lat="48.57675" lon="9.56496">
        <ele>461</ele>
        <time>2022-05-24T02:08:18Z</time>
      </trkpt>
      <trkpt lat="48.57739" lon="9.56459">
        <ele>460</ele>
        <time>2022-05-24T02:08:30Z</time>
      </trkpt>
      <trkpt lat="48.57817" lon="9.56439">
        <ele>458</ele>
        <time>2022-05-24T02:08:44Z</time>
      </trkpt>
      <trkpt lat="48.5784" lon="9.56444">
        <ele>457</ele>
        <time>2022-05-24T02:08:48Z</time>
      </trkpt>
      <trkpt lat="48.57856" lon="9.56451">
        <ele>457</ele>
        <time>2022-05-24T02:08:51Z</time>
      </trkpt>
      <trkpt lat="48.57886" lon="9.56406">
        <ele>456</ele>
        <time>2022-05-24T02:08:59Z</time>
      </trkpt>
      <trkpt lat="48.57929" lon="9.56352">
        <ele>455</ele>
        <time>2022-05-24T02:09:09Z</time>
      </trkpt>
      <trkpt lat="48.57961" lon="9.56352">
        <ele>454</ele>
        <time>2022-05-24T02:09:15Z</time>
      </trkpt>
      <trkpt lat="48.57964" lon="9.56303">
        <ele>453</ele>
        <time>2022-05-24T02:09:20Z</time>
      </trkpt>
      <trkpt lat="48.57946" lon="9.56212">
        <ele>456</ele>
        <time>2022-05-24T02:09:31Z</time>
      </trkpt>
      <trkpt lat="48.57952" lon="9.56174">
        <ele>457</ele>
        <time>2022-05-24T02:09:36Z</time>
      </trkpt>
      <trkpt lat="48.57959" lon="9.56164">
        <ele>457</ele>
        <time>2022-05-24T02:09:38Z</time>
      </trkpt>
      <trkpt lat="48.58" lon="9.56125">
        <ele>456</ele>
        <time>2022-05-24T02:09:46Z</time>
      </trkpt>
      <trkpt lat="48.5803" lon="9.56065">
        <ele>458</ele>
        <time>2022-05-24T02:09:55Z</time>
      </trkpt>
      <trkpt lat="48.58044" lon="9.56042">
        <ele>459</ele>
        <time>2022-05-24T02:09:59Z</time>
      </trkpt>
      <trkpt lat="48.58189" lon="9.55879">
        <ele>455</ele>
        <time>2022-05-24T02:10:31Z</time>
      </trkpt>
      <trkpt lat="48.58259" lon="9.55808">
        <ele>453</ele>
        <time>2022-05-24T02:10:46Z</time>
      </trkpt>
      <trkpt lat="48.58295" lon="9.55764">
        <ele>451</ele>
        <time>2022-05-24T02:10:54Z</time>
      </trkpt>
      <trkpt lat="48.58311" lon="9.55762">
        <ele>449</ele>
        <time>2022-05-24T02:10:57Z</time>
      </trkpt>
      <trkpt lat="48.58321" lon="9.55736">
        <ele>449</ele>
        <time>2022-05-24T02:11:01Z</time>
      </trkpt>
      <trkpt lat="48.58536" lon="9.5544">
        <ele>440</ele>
        <time>2022-05-24T02:11:52Z</time>
      </trkpt>
      <trkpt lat="48.58593" lon="9.55341">
        <ele>439</ele>
        <time>2022-05-24T02:12:08Z</time>
      </trkpt>
      <trkpt lat="48.58628" lon="9.55271">
        <ele>440</ele>
        <time>2022-05-24T02:12:18Z</time>
      </trkpt>
      <trkpt lat="48.58661" lon="9.55191">
        <ele>440</ele>
        <time>2022-05-24T02:12:29Z</time>
      </trkpt>
      <trkpt lat="48.58734" lon="9.54961">
        <ele>440</ele>
        <time>2022-05-24T02:12:59Z</time>
      </trkpt>
      <trkpt lat="48.58779" lon="9.54861">
        <ele>440</ele>
        <time>2022-05-24T02:13:14Z</time>
      </trkpt>
      <trkpt lat="48.58824" lon="9.54791">
        <ele>439</ele>
        <time>2022-05-24T02:13:25Z</time>
      </trkpt>
      <trkpt lat="48.58859" lon="9.54753">
        <ele>437</ele>
        <time>2022-05-24T02:13:33Z</time>
      </trkpt>
      <trkpt lat="48.58951" lon="9.54669">
        <ele>435</ele>
        <time>2022-05-24T02:13:52Z</time>
      </trkpt>
      <trkpt lat="48.59146" lon="9.545">
        <ele>436</ele>
        <time>2022-05-24T02:14:32Z</time>
      </trkpt>
      <trkpt lat="48.59161" lon="9.54484">
        <ele>437</ele>
        <time>2022-05-24T02:14:35Z</time>
      </trkpt>
      <trkpt lat="48.59185" lon="9.54427">
        <ele>440</ele>
        <time>2022-05-24T02:14:43Z</time>
      </trkpt>
      <trkpt lat="48.59201" lon="9.54414">
        <ele>441</ele>
        <time>2022-05-24T02:14:46Z</time>
      </trkpt>
      <trkpt lat="48.59229" lon="9.5444">
        <ele>439</ele>
        <time>2022-05-24T02:14:52Z</time>
      </trkpt>
      <trkpt lat="48.59267" lon="9.54449">
        <ele>437</ele>
        <time>2022-05-24T02:14:59Z</time>
      </trkpt>
      <trkpt lat="48.59295" lon="9.54448">
        <ele>435</ele>
        <time>2022-05-24T02:15:04Z</time>
      </trkpt>
      <trkpt lat="48.59349" lon="9.54432">
        <ele>433</ele>
        <time>2022-05-24T02:15:14Z</time>
      </trkpt>
      <trkpt lat="48.59617" lon="9.54326">
        <ele>426</ele>
        <time>2022-05-24T02:16:03Z</time>
      </trkpt>
      <trkpt lat="48.59839" lon="9.54222">
        <ele>421</ele>
        <time>2022-05-24T02:16:44Z</time>
      </trkpt>
      <trkpt lat="48.59988" lon="9.54142">
        <ele>419</ele>
        <time>2022-05-24T02:17:13Z</time>
      </trkpt>
      <trkpt lat="48.60003" lon="9.54202">
        <ele>416</ele>
        <time>2022-05-24T02:17:20Z</time>
      </trkpt>
      <trkpt lat="48.6002" lon="9.54244">
        <ele>415</ele>
        <time>2022-05-24T02:17:26Z</time>
      </trkpt>
      <trkpt lat="48.60052" lon="9.54288">
        <ele>415</ele>
        <time>2022-05-24T02:17:34Z</time>
      </trkpt>
      <trkpt lat="48.60119" lon="9.54323">
        <ele>414</ele>
        <time>2022-05-24T02:17:46Z</time>
      </trkpt>
      <trkpt lat="48.60126" lon="9.54443">
        <ele>409</ele>
        <time>2022-05-24T02:18:00Z</time>
      </trkpt>
      <trkpt lat="48.60135" lon="9.54519">
        <ele>408</ele>
        <time>2022-05-24T02:18:09Z</time>
      </trkpt>
      <trkpt lat="48.6016" lon="9.54578">
        <ele>406</ele>
        <time>2022-05-24T02:18:18Z</time>
      </trkpt>
      <trkpt lat="48.60197" lon="9.54696">
        <ele>407</ele>
        <time>2022-05-24T02:18:33Z</time>
      </trkpt>
      <trkpt lat="48.60273" lon="9.54685">
        <ele>406</ele>
        <time>2022-05-24T02:18:47Z</time>
      </trkpt>
      <trkpt lat="48.60442" lon="9.54695">
        <ele>403</ele>
        <time>2022-05-24T02:19:17Z</time>
      </trkpt>
      <trkpt lat="48.60478" lon="9.54673">
        <ele>403</ele>
        <time>2022-05-24T02:19:24Z</time>
      </trkpt>
      <trkpt lat="48.60595" lon="9.54627">
        <ele>402</ele>
        <time>2022-05-24T02:19:45Z</time>
      </trkpt>
      <trkpt lat="48.60711" lon="9.54572">
        <ele>399</ele>
        <time>2022-05-24T02:20:07Z</time>
      </trkpt>
      <trkpt lat="48.60857" lon="9.54465">
        <ele>397</ele>
        <time>2022-05-24T02:20:36Z</time>
      </trkpt>
      <trkpt lat="48.60879" lon="9.54446">
        <ele>397</ele>
        <time>2022-05-24T02:20:40Z</time>
      </trkpt>
      <trkpt lat="48.60882" lon="9.5443">
        <ele>397</ele>
        <time>2022-05-24T02:20:42Z</time>
      </trkpt>
      <trkpt lat="48.60937" lon="9.54383">
        <ele>397</ele>
        <time>2022-05-24T02:20:53Z</time>
      </trkpt>
      <trkpt lat="48.61071" lon="9.54239">
        <ele>394</ele>
        <time>2022-05-24T02:21:23Z</time>
      </trkpt>
      <trkpt lat="48.6118" lon="9.54182">
        <ele>391</ele>
        <time>2022-05-24T02:21:43Z</time>
      </trkpt>
      <trkpt lat="48.61229" lon="9.5414">
        <ele>390</ele>
        <time>2022-05-24T02:21:53Z</time>
      </trkpt>
      <trkpt lat="48.61281" lon="9.54089">
        <ele>389</ele>
        <time>2022-05-24T02:22:04Z</time>
      </trkpt>
      <trkpt lat="48.61313" lon="9.54068">
        <ele>388</ele>
        <time>2022-05-24T02:22:10Z</time>
      </trkpt>
      <trkpt lat="48.61334" lon="9.54046">
        <ele>388</ele>
        <time>2022-05-24T02:22:15Z</time>
      </trkpt>
      <trkpt lat="48.61375" lon="9.53995">
        <ele>388</ele>
        <time>2022-05-24T02:22:24Z</time>
      </trkpt>
      <trkpt lat="48.61387" lon="9.53991">
        <ele>387</ele>
        <time>2022-05-24T02:22:27Z</time>
      </trkpt>
      <trkpt lat="48.61396" lon="9.53997">
        <ele>387</ele>
        <time>2022-05-24T02:22:28Z</time>
      </trkpt>
      <trkpt lat="48.61421" lon="9.54035">
        <ele>387</ele>
        <time>2022-05-24T02:22:35Z</time>
      </trkpt>
      <trkpt lat="48.61427" lon="9.5404">
        <ele>387</ele>
        <time>2022-05-24T02:22:36Z</time>
      </trkpt>
      <trkpt lat="48.61445" lon="9.54047">
        <ele>387</ele>
        <time>2022-05-24T02:22:39Z</time>
      </trkpt>
      <trkpt lat="48.61761" lon="9.54059">
        <ele>387</ele>
        <time>2022-05-24T02:23:35Z</time>
      </trkpt>
      <trkpt lat="48.61824" lon="9.54052">
        <ele>389</ele>
        <time>2022-05-24T02:23:47Z</time>
      </trkpt>
      <trkpt lat="48.61801" lon="9.54013">
        <ele>387</ele>
        <time>2022-05-24T02:23:53Z</time>
      </trkpt>
      <trkpt lat="48.61864" lon="9.5386">
        <ele>387</ele>
        <time>2022-05-24T02:24:14Z</time>
      </trkpt>
      <trkpt lat="48.61865" lon="9.53842">
        <ele>386</ele>
        <time>2022-05-24T02:24:16Z</time>
      </trkpt>
      <trkpt lat="48.61979" lon="9.53581">
        <ele>381</ele>
        <time>2022-05-24T02:24:53Z</time>
      </trkpt>
      <trkpt lat="48.61986" lon="9.53581">
        <ele>381</ele>
        <time>2022-05-24T02:24:54Z</time>
      </trkpt>
      <trkpt lat="48.61994" lon="9.53569">
        <ele>381</ele>
        <time>2022-05-24T02:24:56Z</time>
      </trkpt>
      <trkpt lat="48.62004" lon="9.53547">
        <ele>381</ele>
        <time>2022-05-24T02:24:59Z</time>
      </trkpt>
      <trkpt lat="48.62011" lon="9.53518">
        <ele>382</ele>
        <time>2022-05-24T02:25:03Z</time>
      </trkpt>
      <trkpt lat="48.62066" lon="9.53402">
        <ele>381</ele>
        <time>2022-05-24T02:25:20Z</time>
      </trkpt>
      <trkpt lat="48.62105" lon="9.53325">
        <ele>380</ele>
        <time>2022-05-24T02:25:31Z</time>
      </trkpt>
      <trkpt lat="48.6214" lon="9.53249">
        <ele>381</ele>
        <time>2022-05-24T02:25:42Z</time>
      </trkpt>
      <trkpt lat="48.62165" lon="9.53211">
        <ele>382</ele>
        <time>2022-05-24T02:25:48Z</time>
      </trkpt>
      <trkpt lat="48.62179" lon="9.53165">
        <ele>381</ele>
        <time>2022-05-24T02:25:54Z</time>
      </trkpt>
      <trkpt lat="48.62227" lon="9.53043">
        <ele>380</ele>
        <time>2022-05-24T02:26:11Z</time>
      </trkpt>
      <trkpt lat="48.62246" lon="9.53027">
        <ele>380</ele>
        <time>2022-05-24T02:26:15Z</time>
      </trkpt>
      <trkpt lat="48.62271" lon="9.52975">
        <ele>377</ele>
        <time>2022-05-24T02:26:22Z</time>
      </trkpt>
      <trkpt lat="48.62325" lon="9.52844">
        <ele>373</ele>
        <time>2022-05-24T02:26:41Z</time>
      </trkpt>
      <trkpt lat="48.62396" lon="9.52682">
        <ele>373</ele>
        <time>2022-05-24T02:27:03Z</time>
      </trkpt>
      <trkpt lat="48.62398" lon="9.52672">
        <ele>373</ele>
        <time>2022-05-24T02:27:05Z</time>
      </trkpt>
      <trkpt lat="48.62453" lon="9.52659">
        <ele>373</ele>
        <time>2022-05-24T02:27:15Z</time>
      </trkpt>
      <trkpt lat="48.62533" lon="9.52599">
        <ele>374</ele>
        <time>2022-05-24T02:27:30Z</time>
      </trkpt>
      <trkpt lat="48.62551" lon="9.526">
        <ele>374</ele>
        <time>2022-05-24T02:27:34Z</time>
      </trkpt>
      <trkpt lat="48.62568" lon="9.52613">
        <ele>374</ele>
        <time>2022-05-24T02:27:37Z</time>
      </trkpt>
      <trkpt lat="48.62583" lon="9.52618">
        <ele>374</ele>
        <time>2022-05-24T02:27:40Z</time>
      </trkpt>
      <trkpt lat="48.62603" lon="9.52616">
        <ele>374</ele>
        <time>2022-05-24T02:27:43Z</time>
      </trkpt>
      <trkpt lat="48.62618" lon="9.52603">
        <ele>374</ele>
        <time>2022-05-24T02:27:46Z</time>
      </trkpt>
      <trkpt lat="48.62611" lon="9.52595">
        <ele>374</ele>
        <time>2022-05-24T02:27:48Z</time>
      </trkpt>
      <trkpt lat="48.62624" lon="9.52583">
        <ele>374</ele>
        <time>2022-05-24T02:27:51Z</time>
      </trkpt>
      <trkpt lat="48.6264" lon="9.525">
        <ele>374</ele>
        <time>2022-05-24T02:28:01Z</time>
      </trkpt>
      <trkpt lat="48.62801" lon="9.52328">
        <ele>377</ele>
        <time>2022-05-24T02:28:36Z</time>
      </trkpt>
      <trkpt lat="48.62885" lon="9.52245">
        <ele>374</ele>
        <time>2022-05-24T02:28:54Z</time>
      </trkpt>
      <trkpt lat="48.63021" lon="9.52101">
        <ele>371</ele>
        <time>2022-05-24T02:29:23Z</time>
      </trkpt>
      <trkpt lat="48.63165" lon="9.51805">
        <ele>359</ele>
        <time>2022-05-24T02:30:07Z</time>
      </trkpt>
      <trkpt lat="48.63187" lon="9.51812">
        <ele>358</ele>
        <time>2022-05-24T02:30:11Z</time>
      </trkpt>
      <trkpt lat="48.63235" lon="9.51774">
        <ele>354</ele>
        <time>2022-05-24T02:30:20Z</time>
      </trkpt>
      <trkpt lat="48.63267" lon="9.51774">
        <ele>353</ele>
        <time>2022-05-24T02:30:26Z</time>
      </trkpt>
      <trkpt lat="48.63284" lon="9.51779">
        <ele>354</ele>
        <time>2022-05-24T02:30:29Z</time>
      </trkpt>
      <trkpt lat="48.63321" lon="9.51806">
        <ele>354</ele>
        <time>2022-05-24T02:30:36Z</time>
      </trkpt>
      <trkpt lat="48.63297" lon="9.51577">
        <ele>351</ele>
        <time>2022-05-24T02:31:04Z</time>
      </trkpt>
      <trkpt lat="48.63299" lon="9.51537">
        <ele>350</ele>
        <time>2022-05-24T02:31:08Z</time>
      </trkpt>
      <trkpt lat="48.63325" lon="9.51483">
        <ele>348</ele>
        <time>2022-05-24T02:31:16Z</time>
      </trkpt>
      <trkpt lat="48.63324" lon="9.51431">
        <ele>348</ele>
        <time>2022-05-24T02:31:22Z</time>
      </trkpt>
      <trkpt lat="48.63384" lon="9.51426">
        <ele>347</ele>
        <time>2022-05-24T02:31:33Z</time>
      </trkpt>
      <trkpt lat="48.63403" lon="9.51433">
        <ele>348</ele>
        <time>2022-05-24T02:31:36Z</time>
      </trkpt>
      <trkpt lat="48.63412" lon="9.51388">
        <ele>347</ele>
        <time>2022-05-24T02:31:42Z</time>
      </trkpt>
      <trkpt lat="48.63428" lon="9.5135">
        <ele>347</ele>
        <time>2022-05-24T02:31:47Z</time>
      </trkpt>
      <trkpt lat="48.63522" lon="9.5124">
        <ele>344</ele>
        <time>2022-05-24T02:32:08Z</time>
      </trkpt>
      <trkpt lat="48.63601" lon="9.51071">
        <ele>343</ele>
        <time>2022-05-24T02:32:33Z</time>
      </trkpt>
      <trkpt lat="48.63657" lon="9.5096">
        <ele>345</ele>
        <time>2022-05-24T02:32:49Z</time>
      </trkpt>
      <trkpt lat="48.63676" lon="9.50906">
        <ele>347</ele>
        <time>2022-05-24T02:32:56Z</time>
      </trkpt>
      <trkpt lat="48.63695" lon="9.50881">
        <ele>347</ele>
        <time>2022-05-24T02:33:01Z</time>
      </trkpt>
      <trkpt lat="48.63766" lon="9.50821">
        <ele>346</ele>
        <time>2022-05-24T02:33:15Z</time>
      </trkpt>
      <trkpt lat="48.63811" lon="9.50744">
        <ele>344</ele>
        <time>2022-05-24T02:33:27Z</time>
      </trkpt>
      <trkpt lat="48.63817" lon="9.5072">
        <ele>344</ele>
        <time>2022-05-24T02:33:30Z</time>
      </trkpt>
      <trkpt lat="48.63817" lon="9.50629">
        <ele>345</ele>
        <time>2022-05-24T02:33:41Z</time>
      </trkpt>
      <trkpt lat="48.6383" lon="9.50546">
        <ele>344</ele>
        <time>2022-05-24T02:33:51Z</time>
      </trkpt>
      <trkpt lat="48.63826" lon="9.50481">
        <ele>344</ele>
        <time>2022-05-24T02:33:59Z</time>
      </trkpt>
      <trkpt lat="48.63827" lon="9.50462">
        <ele>345</ele>
        <time>2022-05-24T02:34:01Z</time>
      </trkpt>
      <trkpt lat="48.63841" lon="9.50417">
        <ele>345</ele>
        <time>2022-05-24T02:34:07Z</time>
      </trkpt>
      <trkpt lat="48.63939" lon="9.50274">
        <ele>342</ele>
        <time>2022-05-24T02:34:31Z</time>
      </trkpt>
      <trkpt lat="48.63974" lon="9.50206">
        <ele>342</ele>
        <time>2022-05-24T02:34:41Z</time>
      </trkpt>
      <trkpt lat="48.64016" lon="9.50075">
        <ele>343</ele>
        <time>2022-05-24T02:34:58Z</time>
      </trkpt>
      <trkpt lat="48.64028" lon="9.49997">
        <ele>341</ele>
        <time>2022-05-24T02:35:08Z</time>
      </trkpt>
      <trkpt lat="48.64029" lon="9.49818">
        <ele>339</ele>
        <time>2022-05-24T02:35:29Z</time>
      </trkpt>
      <trkpt lat="48.64049" lon="9.49718">
        <ele>335</ele>
        <time>2022-05-24T02:35:41Z</time>
      </trkpt>
      <trkpt lat="48.6405" lon="9.49687">
        <ele>335</ele>
        <time>2022-05-24T02:35:45Z</time>
      </trkpt>
      <trkpt lat="48.6403" lon="9.49586">
        <ele>336</ele>
        <time>2022-05-24T02:35:57Z</time>
      </trkpt>
      <trkpt lat="48.64023" lon="9.49562">
        <ele>336</ele>
        <time>2022-05-24T02:36:00Z</time>
      </trkpt>
      <trkpt lat="48.64022" lon="9.49507">
        <ele>335</ele>
        <time>2022-05-24T02:36:07Z</time>
      </trkpt>
      <trkpt lat="48.64034" lon="9.4942">
        <ele>334</ele>
        <time>2022-05-24T02:36:17Z</time>
      </trkpt>
      <trkpt lat="48.6405" lon="9.49358">
        <ele>334</ele>
        <time>2022-05-24T02:36:25Z</time>
      </trkpt>
      <trkpt lat="48.64067" lon="9.49276">
        <ele>334</ele>
        <time>2022-05-24T02:36:35Z</time>
      </trkpt>
      <trkpt lat="48.64076" lon="9.49206">
        <ele>333</ele>
        <time>2022-05-24T02:36:43Z</time>
      </trkpt>
      <trkpt lat="48.64074" lon="9.49155">
        <ele>332</ele>
        <time>2022-05-24T02:36:49Z</time>
      </trkpt>
      <trkpt lat="48.64057" lon="9.49096">
        <ele>333</ele>
        <time>2022-05-24T02:36:57Z</time>
      </trkpt>
      <trkpt lat="48.64062" lon="9.49082">
        <ele>333</ele>
        <time>2022-05-24T02:36:59Z</time>
      </trkpt>
      <trkpt lat="48.64053" lon="9.49061">
        <ele>333</ele>
        <time>2022-05-24T02:37:02Z</time>
      </trkpt>
      <trkpt lat="48.6401" lon="9.48975">
        <ele>334</ele>
        <time>2022-05-24T02:37:15Z</time>
      </trkpt>
      <trkpt lat="48.63976" lon="9.48934">
        <ele>335</ele>
        <time>2022-05-24T02:37:22Z</time>
      </trkpt>
      <trkpt lat="48.63901" lon="9.48913">
        <ele>334</ele>
        <time>2022-05-24T02:37:36Z</time>
      </trkpt>
      <trkpt lat="48.63906" lon="9.48831">
        <ele>333</ele>
        <time>2022-05-24T02:37:46Z</time>
      </trkpt>
      <trkpt lat="48.63914" lon="9.48788">
        <ele>332</ele>
        <time>2022-05-24T02:37:51Z</time>
      </trkpt>
      <trkpt lat="48.63945" lon="9.48568">
        <ele>329</ele>
        <time>2022-05-24T02:38:17Z</time>
      </trkpt>
      <trkpt lat="48.63958" lon="9.48506">
        <ele>328</ele>
        <time>2022-05-24T02:38:25Z</time>
      </trkpt>
      <trkpt lat="48.63964" lon="9.48494">
        <ele>328</ele>
        <time>2022-05-24T02:38:27Z</time>
      </trkpt>
      <trkpt lat="48.63966" lon="9.48463">
        <ele>328</ele>
        <time>2022-05-24T02:38:30Z</time>
      </trkpt>
      <trkpt lat="48.63991" lon="9.48381">
        <ele>328</ele>
        <time>2022-05-24T02:38:41Z</time>
      </trkpt>
      <trkpt lat="48.64021" lon="9.48318">
        <ele>328</ele>
        <time>2022-05-24T02:38:50Z</time>
      </trkpt>
      <trkpt lat="48.64096" lon="9.48227">
        <ele>327</ele>
        <time>2022-05-24T02:39:07Z</time>
      </trkpt>
      <trkpt lat="48.64162" lon="9.48179">
        <ele>327</ele>
        <time>2022-05-24T02:39:20Z</time>
      </trkpt>
      <trkpt lat="48.64193" lon="9.48113">
        <ele>325</ele>
        <time>2022-05-24T02:39:30Z</time>
      </trkpt>
      <trkpt lat="48.64221" lon="9.48043">
        <ele>324</ele>
        <time>2022-05-24T02:39:39Z</time>
      </trkpt>
      <trkpt lat="48.64263" lon="9.47917">
        <ele>322</ele>
        <time>2022-05-24T02:39:56Z</time>
      </trkpt>
      <trkpt lat="48.64285" lon="9.4784">
        <ele>323</ele>
        <time>2022-05-24T02:40:06Z</time>
      </trkpt>
      <trkpt lat="48.64271" lon="9.47831">
        <ele>323</ele>
        <time>2022-05-24T02:40:08Z</time>
      </trkpt>
      <trkpt lat="48.64312" lon="9.47711">
        <ele>322</ele>
        <time>2022-05-24T02:40:24Z</time>
      </trkpt>
      <trkpt lat="48.64336" lon="9.47582">
        <ele>322</ele>
        <time>2022-05-24T02:40:40Z</time>
      </trkpt>
      <trkpt lat="48.64361" lon="9.47497">
        <ele>322</ele>
        <time>2022-05-24T02:40:51Z</time>
      </trkpt>
      <trkpt lat="48.6436" lon="9.4731">
        <ele>319</ele>
        <time>2022-05-24T02:41:13Z</time>
      </trkpt>
      <trkpt lat="48.64368" lon="9.47271">
        <ele>319</ele>
        <time>2022-05-24T02:41:18Z</time>
      </trkpt>
      <trkpt lat="48.64374" lon="9.47221">
        <ele>319</ele>
        <time>2022-05-24T02:41:24Z</time>
      </trkpt>
      <trkpt lat="48.64368" lon="9.47096">
        <ele>319</ele>
        <time>2022-05-24T02:41:39Z</time>
      </trkpt>
      <trkpt lat="48.64366" lon="9.46992">
        <ele>317</ele>
        <time>2022-05-24T02:41:51Z</time>
      </trkpt>
      <trkpt lat="48.64377" lon="9.46884">
        <ele>315</ele>
        <time>2022-05-24T02:42:04Z</time>
      </trkpt>
      <trkpt lat="48.64408" lon="9.46859">
        <ele>314</ele>
        <time>2022-05-24T02:42:10Z</time>
      </trkpt>
      <trkpt lat="48.64429" lon="9.46853">
        <ele>314</ele>
        <time>2022-05-24T02:42:14Z</time>
      </trkpt>
      <trkpt lat="48.64442" lon="9.46837">
        <ele>314</ele>
        <time>2022-05-24T02:42:17Z</time>
      </trkpt>
      <trkpt lat="48.64454" lon="9.46806">
        <ele>314</ele>
        <time>2022-05-24T02:42:21Z</time>
      </trkpt>
      <trkpt lat="48.64466" lon="9.46823">
        <ele>314</ele>
        <time>2022-05-24T02:42:24Z</time>
      </trkpt>
      <trkpt lat="48.64478" lon="9.46807">
        <ele>315</ele>
        <time>2022-05-24T02:42:27Z</time>
      </trkpt>
      <trkpt lat="48.64482" lon="9.46792">
        <ele>315</ele>
        <time>2022-05-24T02:42:29Z</time>
      </trkpt>
      <trkpt lat="48.64481" lon="9.46772">
        <ele>315</ele>
        <time>2022-05-24T02:42:31Z</time>
      </trkpt>
      <trkpt lat="48.64473" lon="9.4674">
        <ele>315</ele>
        <time>2022-05-24T02:42:35Z</time>
      </trkpt>
      <trkpt lat="48.64464" lon="9.46663">
        <ele>316</ele>
        <time>2022-05-24T02:42:44Z</time>
      </trkpt>
      <trkpt lat="48.64454" lon="9.46636">
        <ele>315</ele>
        <time>2022-05-24T02:42:48Z</time>
      </trkpt>
      <trkpt lat="48.64452" lon="9.46608">
        <ele>315</ele>
        <time>2022-05-24T02:42:51Z</time>
      </trkpt>
      <trkpt lat="48.64432" lon="9.46543">
        <ele>314</ele>
        <time>2022-05-24T02:42:59Z</time>
      </trkpt>
      <trkpt lat="48.64429" lon="9.46515">
        <ele>314</ele>
        <time>2022-05-24T02:43:03Z</time>
      </trkpt>
      <trkpt lat="48.64437" lon="9.46483">
        <ele>314</ele>
        <time>2022-05-24T02:43:07Z</time>
      </trkpt>
      <trkpt lat="48.64445" lon="9.46477">
        <ele>314</ele>
        <time>2022-05-24T02:43:08Z</time>
      </trkpt>
      <trkpt lat="48.64472" lon="9.46485">
        <ele>314</ele>
        <time>2022-05-24T02:43:13Z</time>
      </trkpt>
      <trkpt lat="48.64585" lon="9.46465">
        <ele>317</ele>
        <time>2022-05-24T02:43:34Z</time>
      </trkpt>
      <trkpt lat="48.64624" lon="9.46439">
        <ele>317</ele>
        <time>2022-05-24T02:43:41Z</time>
      </trkpt>
      <trkpt lat="48.64636" lon="9.46426">
        <ele>316</ele>
        <time>2022-05-24T02:43:44Z</time>
      </trkpt>
      <trkpt lat="48.64672" lon="9.46422">
        <ele>318</ele>
        <time>2022-05-24T02:43:50Z</time>
      </trkpt>
      <trkpt lat="48.6481" lon="9.46306">
        <ele>314</ele>
        <time>2022-05-24T02:44:18Z</time>
      </trkpt>
      <trkpt lat="48.64826" lon="9.46278">
        <ele>313</ele>
        <time>2022-05-24T02:44:23Z</time>
      </trkpt>
      <trkpt lat="48.64836" lon="9.46252">
        <ele>310</ele>
        <time>2022-05-24T02:44:26Z</time>
      </trkpt>
      <trkpt lat="48.6486" lon="9.46145">
        <ele>309</ele>
        <time>2022-05-24T02:44:39Z</time>
      </trkpt>
      <trkpt lat="48.64879" lon="9.46097">
        <ele>309</ele>
        <time>2022-05-24T02:44:46Z</time>
      </trkpt>
      <trkpt lat="48.64969" lon="9.45927">
        <ele>308</ele>
        <time>2022-05-24T02:45:12Z</time>
      </trkpt>
      <trkpt lat="48.64997" lon="9.45865">
        <ele>308</ele>
        <time>2022-05-24T02:45:20Z</time>
      </trkpt>
      <trkpt lat="48.65039" lon="9.45697">
        <ele>307</ele>
        <time>2022-05-24T02:45:42Z</time>
      </trkpt>
      <trkpt lat="48.65087" lon="9.45525">
        <ele>307</ele>
        <time>2022-05-24T02:46:04Z</time>
      </trkpt>
      <trkpt lat="48.65073" lon="9.4551">
        <ele>307</ele>
        <time>2022-05-24T02:46:07Z</time>
      </trkpt>
      <trkpt lat="48.65062" lon="9.4549">
        <ele>307</ele>
        <time>2022-05-24T02:46:10Z</time>
      </trkpt>
      <trkpt lat="48.65042" lon="9.45362">
        <ele>307</ele>
        <time>2022-05-24T02:46:25Z</time>
      </trkpt>
      <trkpt lat="48.65014" lon="9.45296">
        <ele>307</ele>
        <time>2022-05-24T02:46:34Z</time>
      </trkpt>
      <trkpt lat="48.64992" lon="9.45265">
        <ele>308</ele>
        <time>2022-05-24T02:46:40Z</time>
      </trkpt>
      <trkpt lat="48.6503" lon="9.45189">
        <ele>308</ele>
        <time>2022-05-24T02:46:51Z</time>
      </trkpt>
      <trkpt lat="48.65076" lon="9.45118">
        <ele>306</ele>
        <time>2022-05-24T02:47:03Z</time>
      </trkpt>
      <trkpt lat="48.65081" lon="9.45107">
        <ele>306</ele>
        <time>2022-05-24T02:47:04Z</time>
      </trkpt>
      <trkpt lat="48.65086" lon="9.45072">
        <ele>306</ele>
        <time>2022-05-24T02:47:08Z</time>
      </trkpt>
      <trkpt lat="48.65155" lon="9.45076">
        <ele>305</ele>
        <time>2022-05-24T02:47:21Z</time>
      </trkpt>
      <trkpt lat="48.65187" lon="9.45067">
        <ele>305</ele>
        <time>2022-05-24T02:47:26Z</time>
      </trkpt>
      <trkpt lat="48.65214" lon="9.4505">
        <ele>304</ele>
        <time>2022-05-24T02:47:32Z</time>
      </trkpt>
      <trkpt lat="48.65235" lon="9.4503">
        <ele>305</ele>
        <time>2022-05-24T02:47:36Z</time>
      </trkpt>
      <trkpt lat="48.65273" lon="9.4497">
        <ele>304</ele>
        <time>2022-05-24T02:47:46Z</time>
      </trkpt>
      <trkpt lat="48.6531" lon="9.4485">
        <ele>304</ele>
        <time>2022-05-24T02:48:01Z</time>
      </trkpt>
      <trkpt lat="48.65383" lon="9.44894">
        <ele>302</ele>
        <time>2022-05-24T02:48:15Z</time>
      </trkpt>
      <trkpt lat="48.6531" lon="9.4485">
        <ele>304</ele>
        <time>2022-05-24T02:48:29Z</time>
      </trkpt>
      <trkpt lat="48.65382" lon="9.44626">
        <ele>303</ele>
        <time>2022-05-24T02:48:59Z</time>
      </trkpt>
      <trkpt lat="48.65122" lon="9.44425">
        <ele>306</ele>
        <time>2022-05-24T02:49:51Z</time>
      </trkpt>
      <trkpt lat="48.65071" lon="9.44388">
        <ele>307</ele>
        <time>2022-05-24T02:50:01Z</time>
      </trkpt>
      <trkpt lat="48.65052" lon="9.44388">
        <ele>307</ele>
        <time>2022-05-24T02:50:04Z</time>
      </trkpt>
      <trkpt lat="48.65027" lon="9.44382">
        <ele>308</ele>
        <time>2022-05-24T02:50:09Z</time>
      </trkpt>
      <trkpt lat="48.64991" lon="9.44351">
        <ele>309</ele>
        <time>2022-05-24T02:50:16Z</time>
      </trkpt>
      <trkpt lat="48.64825" lon="9.44282">
        <ele>310</ele>
        <time>2022-05-24T02:50:47Z</time>
      </trkpt>
      <trkpt lat="48.64733" lon="9.44239">
        <ele>311</ele>
        <time>2022-05-24T02:51:04Z</time>
      </trkpt>
      <trkpt lat="48.64663" lon="9.44203">
        <ele>310</ele>
        <time>2022-05-24T02:51:17Z</time>
      </trkpt>
      <trkpt lat="48.64561" lon="9.44156">
        <ele>310</ele>
        <time>2022-05-24T02:51:36Z</time>
      </trkpt>
      <trkpt lat="48.64533" lon="9.44135">
        <ele>311</ele>
        <time>2022-05-24T02:51:41Z</time>
      </trkpt>
      <trkpt lat="48.6449" lon="9.44086">
        <ele>312</ele>
        <time>2022-05-24T02:51:51Z</time>
      </trkpt>
      <trkpt lat="48.6446" lon="9.44033">
        <ele>314</ele>
        <time>2022-05-24T02:51:59Z</time>
      </trkpt>
      <trkpt lat="48.64401" lon="9.43915">
        <ele>312</ele>
        <time>2022-05-24T02:52:17Z</time>
      </trkpt>
      <trkpt lat="48.64375" lon="9.43939">
        <ele>314</ele>
        <time>2022-05-24T02:52:22Z</time>
      </trkpt>
      <trkpt lat="48.64328" lon="9.43989">
        <ele>317</ele>
        <time>2022-05-24T02:52:32Z</time>
      </trkpt>
      <trkpt lat="48.6427" lon="9.44084">
        <ele>320</ele>
        <time>2022-05-24T02:52:47Z</time>
      </trkpt>
      <trkpt lat="48.64243" lon="9.44138">
        <ele>322</ele>
        <time>2022-05-24T02:52:55Z</time>
      </trkpt>
      <trkpt lat="48.64236" lon="9.44176">
        <ele>324</ele>
        <time>2022-05-24T02:53:00Z</time>
      </trkpt>
      <trkpt lat="48.64225" lon="9.44272">
        <ele>326</ele>
        <time>2022-05-24T02:53:11Z</time>
      </trkpt>
      <trkpt lat="48.64225" lon="9.44279">
        <ele>326</ele>
        <time>2022-05-24T02:53:12Z</time>
      </trkpt>
      <trkpt lat="48.64228" lon="9.44283">
        <ele>327</ele>
        <time>2022-05-24T02:53:13Z</time>
      </trkpt>
      <trkpt lat="48.64225" lon="9.44279">
        <ele>326</ele>
        <time>2022-05-24T02:53:14Z</time>
      </trkpt>
      <trkpt lat="48.64165" lon="9.44464">
        <ele>331</ele>
        <time>2022-05-24T02:53:38Z</time>
      </trkpt>
      <trkpt lat="48.64135" lon="9.44566">
        <ele>329</ele>
        <time>2022-05-24T02:53:51Z</time>
      </trkpt>
      <trkpt lat="48.64123" lon="9.44616">
        <ele>329</ele>
        <time>2022-05-24T02:53:57Z</time>
      </trkpt>
      <trkpt lat="48.6411" lon="9.44636">
        <ele>329</ele>
        <time>2022-05-24T02:54:01Z</time>
      </trkpt>
      <trkpt lat="48.64243" lon="9.44872">
        <ele>319</ele>
        <time>2022-05-24T02:54:37Z</time>
      </trkpt>
      <trkpt lat="48.64281" lon="9.44932">
        <ele>316</ele>
        <time>2022-05-24T02:54:47Z</time>
      </trkpt>
      <trkpt lat="48.64318" lon="9.44949">
        <ele>316</ele>
        <time>2022-05-24T02:54:54Z</time>
      </trkpt>
      <trkpt lat="48.64348" lon="9.44939">
        <ele>315</ele>
        <time>2022-05-24T02:54:59Z</time>
      </trkpt>
      <trkpt lat="48.64379" lon="9.44914">
        <ele>315</ele>
        <time>2022-05-24T02:55:05Z</time>
      </trkpt>
      <trkpt lat="48.64386" lon="9.44956">
        <ele>315</ele>
        <time>2022-05-24T02:55:10Z</time>
      </trkpt>
      <trkpt lat="48.64387" lon="9.4501">
        <ele>316</ele>
        <time>2022-05-24T02:55:17Z</time>
      </trkpt>
      <trkpt lat="48.64384" lon="9.45044">
        <ele>317</ele>
        <time>2022-05-24T02:55:21Z</time>
      </trkpt>
      <trkpt lat="48.64373" lon="9.45114">
        <ele>319</ele>
        <time>2022-05-24T02:55:29Z</time>
      </trkpt>
      <trkpt lat="48.6437" lon="9.45174">
        <ele>320</ele>
        <time>2022-05-24T02:55:36Z</time>
      </trkpt>
      <trkpt lat="48.64423" lon="9.45161">
        <ele>320</ele>
        <time>2022-05-24T02:55:46Z</time>
      </trkpt>
      <trkpt lat="48.64603" lon="9.45143">
        <ele>316</ele>
        <time>2022-05-24T02:56:18Z</time>
      </trkpt>
      <trkpt lat="48.64617" lon="9.45139">
        <ele>316</ele>
        <time>2022-05-24T02:56:21Z</time>
      </trkpt>
      <trkpt lat="48.6464" lon="9.4514">
        <ele>316</ele>
        <time>2022-05-24T02:56:25Z</time>
      </trkpt>
      <trkpt lat="48.64717" lon="9.45131">
        <ele>315</ele>
        <time>2022-05-24T02:56:38Z</time>
      </trkpt>
      <trkpt lat="48.64809" lon="9.45125">
        <ele>315</ele>
        <time>2022-05-24T02:56:55Z</time>
      </trkpt>
      <trkpt lat="48.64851" lon="9.45133">
        <ele>315</ele>
        <time>2022-05-24T02:57:02Z</time>
      </trkpt>
      <trkpt lat="48.64858" lon="9.4514">
        <ele>315</ele>
        <time>2022-05-24T02:57:04Z</time>
      </trkpt>
      <trkpt lat="48.64949" lon="9.45178">
        <ele>311</ele>
        <time>2022-05-24T02:57:21Z</time>
      </trkpt>
      <trkpt lat="48.64963" lon="9.45219">
        <ele>310</ele>
        <time>2022-05-24T02:57:26Z</time>
      </trkpt>
      <trkpt lat="48.64965" lon="9.45233">
        <ele>310</ele>
        <time>2022-05-24T02:57:28Z</time>
      </trkpt>
      <trkpt lat="48.64992" lon="9.45265">
        <ele>308</ele>
        <time>2022-05-24T02:57:34Z</time>
      </trkpt>
      <trkpt lat="48.65014" lon="9.45296">
        <ele>307</ele>
        <time>2022-05-24T02:57:39Z</time>
      </trkpt>
      <trkpt lat="48.65042" lon="9.45362">
        <ele>307</ele>
        <time>2022-05-24T02:57:48Z</time>
      </trkpt>
      <trkpt lat="48.65062" lon="9.4549">
        <ele>307</ele>
        <time>2022-05-24T02:58:04Z</time>
      </trkpt>
      <trkpt lat="48.65073" lon="9.4551">
        <ele>307</ele>
        <time>2022-05-24T02:58:07Z</time>
      </trkpt>
      <trkpt lat="48.65087" lon="9.45525">
        <ele>307</ele>
        <time>2022-05-24T02:58:10Z</time>
      </trkpt>
      <trkpt lat="48.6506" lon="9.45623">
        <ele>307</ele>
        <time>2022-05-24T02:58:22Z</time>
      </trkpt>
      <trkpt lat="48.65068" lon="9.45631">
        <ele>307</ele>
        <time>2022-05-24T02:58:24Z</time>
      </trkpt>
      <trkpt lat="48.65086" lon="9.4571">
        <ele>306</ele>
        <time>2022-05-24T02:58:34Z</time>
      </trkpt>
      <trkpt lat="48.6508" lon="9.4574">
        <ele>306</ele>
        <time>2022-05-24T02:58:38Z</time>
      </trkpt>
      <trkpt lat="48.65093" lon="9.45745">
        <ele>306</ele>
        <time>2022-05-24T02:58:40Z</time>
      </trkpt>
      <trkpt lat="48.65092" lon="9.45767">
        <ele>306</ele>
        <time>2022-05-24T02:58:43Z</time>
      </trkpt>
      <trkpt lat="48.65118" lon="9.45796">
        <ele>307</ele>
        <time>2022-05-24T02:58:48Z</time>
      </trkpt>
      <trkpt lat="48.65212" lon="9.45939">
        <ele>309</ele>
        <time>2022-05-24T02:59:12Z</time>
      </trkpt>
      <trkpt lat="48.65234" lon="9.4599">
        <ele>309</ele>
        <time>2022-05-24T02:59:19Z</time>
      </trkpt>
      <trkpt lat="48.65242" lon="9.46015">
        <ele>310</ele>
        <time>2022-05-24T02:59:23Z</time>
      </trkpt>
      <trkpt lat="48.65236" lon="9.46025">
        <ele>310</ele>
        <time>2022-05-24T02:59:24Z</time>
      </trkpt>
      <trkpt lat="48.65235" lon="9.46053">
        <ele>311</ele>
        <time>2022-05-24T02:59:27Z</time>
      </trkpt>
      <trkpt lat="48.6525" lon="9.46064">
        <ele>311</ele>
        <time>2022-05-24T02:59:30Z</time>
      </trkpt>
      <trkpt lat="48.65245" lon="9.46118">
        <ele>315</ele>
        <time>2022-05-24T02:59:37Z</time>
      </trkpt>
      <trkpt lat="48.65232" lon="9.46183">
        <ele>320</ele>
        <time>2022-05-24T02:59:45Z</time>
      </trkpt>
      <trkpt lat="48.65272" lon="9.46369">
        <ele>323</ele>
        <time>2022-05-24T03:00:08Z</time>
      </trkpt>
      <trkpt lat="48.65286" lon="9.46498">
        <ele>325</ele>
        <time>2022-05-24T03:00:23Z</time>
      </trkpt>
      <trkpt lat="48.65315" lon="9.46648">
        <ele>330</ele>
        <time>2022-05-24T03:00:42Z</time>
      </trkpt>
      <trkpt lat="48.6533" lon="9.46702">
        <ele>330</ele>
        <time>2022-05-24T03:00:48Z</time>
      </trkpt>
      <trkpt lat="48.65376" lon="9.46766">
        <ele>327</ele>
        <time>2022-05-24T03:01:00Z</time>
      </trkpt>
      <trkpt lat="48.65421" lon="9.46899">
        <ele>326</ele>
        <time>2022-05-24T03:01:17Z</time>
      </trkpt>
      <trkpt lat="48.65458" lon="9.46936">
        <ele>325</ele>
        <time>2022-05-24T03:01:25Z</time>
      </trkpt>
      <trkpt lat="48.65474" lon="9.46978">
        <ele>326</ele>
        <time>2022-05-24T03:01:31Z</time>
      </trkpt>
      <trkpt lat="48.65487" lon="9.47059">
        <ele>327</ele>
        <time>2022-05-24T03:01:40Z</time>
      </trkpt>
      <trkpt lat="48.65558" lon="9.47327">
        <ele>333</ele>
        <time>2022-05-24T03:02:14Z</time>
      </trkpt>
      <trkpt lat="48.65566" lon="9.47372">
        <ele>332</ele>
        <time>2022-05-24T03:02:20Z</time>
      </trkpt>
      <trkpt lat="48.65564" lon="9.47441">
        <ele>333</ele>
        <time>2022-05-24T03:02:28Z</time>
      </trkpt>
      <trkpt lat="48.65558" lon="9.47474">
        <ele>333</ele>
        <time>2022-05-24T03:02:32Z</time>
      </trkpt>
      <trkpt lat="48.65558" lon="9.47524">
        <ele>335</ele>
        <time>2022-05-24T03:02:38Z</time>
      </trkpt>
      <trkpt lat="48.65579" lon="9.4753">
        <ele>335</ele>
        <time>2022-05-24T03:02:42Z</time>
      </trkpt>
      <trkpt lat="48.65619" lon="9.4752">
        <ele>333</ele>
        <time>2022-05-24T03:02:49Z</time>
      </trkpt>
      <trkpt lat="48.65631" lon="9.4752">
        <ele>333</ele>
        <time>2022-05-24T03:02:51Z</time>
      </trkpt>
      <trkpt lat="48.65671" lon="9.47549">
        <ele>334</ele>
        <time>2022-05-24T03:02:59Z</time>
      </trkpt>
      <trkpt lat="48.65704" lon="9.47544">
        <ele>334</ele>
        <time>2022-05-24T03:03:05Z</time>
      </trkpt>
      <trkpt lat="48.65736" lon="9.47608">
        <ele>335</ele>
        <time>2022-05-24T03:03:14Z</time>
      </trkpt>
      <trkpt lat="48.65815" lon="9.47733">
        <ele>343</ele>
        <time>2022-05-24T03:03:35Z</time>
      </trkpt>
      <trkpt lat="48.65846" lon="9.47795">
        <ele>345</ele>
        <time>2022-05-24T03:03:44Z</time>
      </trkpt>
      <trkpt lat="48.65873" lon="9.47867">
        <ele>349</ele>
        <time>2022-05-24T03:03:53Z</time>
      </trkpt>
      <trkpt lat="48.65924" lon="9.48118">
        <ele>356</ele>
        <time>2022-05-24T03:04:24Z</time>
      </trkpt>
      <trkpt lat="48.65993" lon="9.48377">
        <ele>372</ele>
        <time>2022-05-24T03:04:57Z</time>
      </trkpt>
      <trkpt lat="48.66019" lon="9.48558">
        <ele>380</ele>
        <time>2022-05-24T03:05:19Z</time>
      </trkpt>
      <trkpt lat="48.66044" lon="9.48765">
        <ele>385</ele>
        <time>2022-05-24T03:05:44Z</time>
      </trkpt>
      <trkpt lat="48.66075" lon="9.48868">
        <ele>380</ele>
        <time>2022-05-24T03:05:57Z</time>
      </trkpt>
      <trkpt lat="48.66124" lon="9.48954">
        <ele>378</ele>
        <time>2022-05-24T03:06:10Z</time>
      </trkpt>
      <trkpt lat="48.66208" lon="9.49063">
        <ele>373</ele>
        <time>2022-05-24T03:06:30Z</time>
      </trkpt>
      <trkpt lat="48.663" lon="9.4925">
        <ele>359</ele>
        <time>2022-05-24T03:06:57Z</time>
      </trkpt>
      <trkpt lat="48.66334" lon="9.49293">
        <ele>361</ele>
        <time>2022-05-24T03:07:05Z</time>
      </trkpt>
      <trkpt lat="48.66372" lon="9.49329">
        <ele>360</ele>
        <time>2022-05-24T03:07:13Z</time>
      </trkpt>
      <trkpt lat="48.66379" lon="9.49347">
        <ele>362</ele>
        <time>2022-05-24T03:07:16Z</time>
      </trkpt>
      <trkpt lat="48.66484" lon="9.49391">
        <ele>356</ele>
        <time>2022-05-24T03:07:35Z</time>
      </trkpt>
      <trkpt lat="48.6657" lon="9.49472">
        <ele>352</ele>
        <time>2022-05-24T03:07:53Z</time>
      </trkpt>
      <trkpt lat="48.6664" lon="9.49514">
        <ele>352</ele>
        <time>2022-05-24T03:08:07Z</time>
      </trkpt>
      <trkpt lat="48.6667" lon="9.49567">
        <ele>353</ele>
        <time>2022-05-24T03:08:15Z</time>
      </trkpt>
      <trkpt lat="48.66764" lon="9.49992">
        <ele>348</ele>
        <time>2022-05-24T03:09:07Z</time>
      </trkpt>
      <trkpt lat="48.66791" lon="9.50058">
        <ele>346</ele>
        <time>2022-05-24T03:09:17Z</time>
      </trkpt>
      <trkpt lat="48.66828" lon="9.50218">
        <ele>344</ele>
        <time>2022-05-24T03:09:36Z</time>
      </trkpt>
      <trkpt lat="48.66877" lon="9.50353">
        <ele>339</ele>
        <time>2022-05-24T03:09:55Z</time>
      </trkpt>
      <trkpt lat="48.66914" lon="9.50441">
        <ele>337</ele>
        <time>2022-05-24T03:10:07Z</time>
      </trkpt>
      <trkpt lat="48.66932" lon="9.50469">
        <ele>337</ele>
        <time>2022-05-24T03:10:11Z</time>
      </trkpt>
      <trkpt lat="48.66942" lon="9.50476">
        <ele>337</ele>
        <time>2022-05-24T03:10:13Z</time>
      </trkpt>
      <trkpt lat="48.67028" lon="9.50615">
        <ele>338</ele>
        <time>2022-05-24T03:10:36Z</time>
      </trkpt>
      <trkpt lat="48.67061" lon="9.50701">
        <ele>340</ele>
        <time>2022-05-24T03:10:47Z</time>
      </trkpt>
      <trkpt lat="48.67061" lon="9.50717">
        <ele>340</ele>
        <time>2022-05-24T03:10:49Z</time>
      </trkpt>
      <trkpt lat="48.67088" lon="9.50782">
        <ele>342</ele>
        <time>2022-05-24T03:10:58Z</time>
      </trkpt>
      <trkpt lat="48.67099" lon="9.50823">
        <ele>344</ele>
        <time>2022-05-24T03:11:04Z</time>
      </trkpt>
      <trkpt lat="48.67115" lon="9.50847">
        <ele>345</ele>
        <time>2022-05-24T03:11:08Z</time>
      </trkpt>
      <trkpt lat="48.67149" lon="9.50973">
        <ele>350</ele>
        <time>2022-05-24T03:11:24Z</time>
      </trkpt>
      <trkpt lat="48.67181" lon="9.51056">
        <ele>350</ele>
        <time>2022-05-24T03:11:35Z</time>
      </trkpt>
      <trkpt lat="48.67189" lon="9.51086">
        <ele>349</ele>
        <time>2022-05-24T03:11:39Z</time>
      </trkpt>
      <trkpt lat="48.67189" lon="9.51097">
        <ele>349</ele>
        <time>2022-05-24T03:11:40Z</time>
      </trkpt>
      <trkpt lat="48.67185" lon="9.51147">
        <ele>349</ele>
        <time>2022-05-24T03:11:46Z</time>
      </trkpt>
      <trkpt lat="48.67175" lon="9.51215">
        <ele>349</ele>
        <time>2022-05-24T03:11:54Z</time>
      </trkpt>
      <trkpt lat="48.67176" lon="9.51226">
        <ele>349</ele>
        <time>2022-05-24T03:11:55Z</time>
      </trkpt>
      <trkpt lat="48.67245" lon="9.51291">
        <ele>346</ele>
        <time>2022-05-24T03:12:10Z</time>
      </trkpt>
      <trkpt lat="48.67262" lon="9.51333">
        <ele>345</ele>
        <time>2022-05-24T03:12:16Z</time>
      </trkpt>
      <trkpt lat="48.67295" lon="9.51401">
        <ele>345</ele>
        <time>2022-05-24T03:12:25Z</time>
      </trkpt>
      <trkpt lat="48.673" lon="9.51416">
        <ele>346</ele>
        <time>2022-05-24T03:12:27Z</time>
      </trkpt>
      <trkpt lat="48.67316" lon="9.51545">
        <ele>347</ele>
        <time>2022-05-24T03:12:43Z</time>
      </trkpt>
      <trkpt lat="48.67327" lon="9.51603">
        <ele>347</ele>
        <time>2022-05-24T03:12:50Z</time>
      </trkpt>
      <trkpt lat="48.67353" lon="9.51722">
        <ele>351</ele>
        <time>2022-05-24T03:13:05Z</time>
      </trkpt>
      <trkpt lat="48.67367" lon="9.5177">
        <ele>351</ele>
        <time>2022-05-24T03:13:11Z</time>
      </trkpt>
      <trkpt lat="48.67384" lon="9.51769">
        <ele>352</ele>
        <time>2022-05-24T03:13:14Z</time>
      </trkpt>
      <trkpt lat="48.67393" lon="9.51776">
        <ele>352</ele>
        <time>2022-05-24T03:13:16Z</time>
      </trkpt>
      <trkpt lat="48.67428" lon="9.51824">
        <ele>355</ele>
        <time>2022-05-24T03:13:24Z</time>
      </trkpt>
      <trkpt lat="48.67466" lon="9.51845">
        <ele>358</ele>
        <time>2022-05-24T03:13:31Z</time>
      </trkpt>
      <trkpt lat="48.67464" lon="9.51858">
        <ele>358</ele>
        <time>2022-05-24T03:13:33Z</time>
      </trkpt>
      <trkpt lat="48.67472" lon="9.51916">
        <ele>361</ele>
        <time>2022-05-24T03:13:40Z</time>
      </trkpt>
      <trkpt lat="48.67473" lon="9.5197">
        <ele>361</ele>
        <time>2022-05-24T03:13:46Z</time>
      </trkpt>
      <trkpt lat="48.67488" lon="9.52021">
        <ele>362</ele>
        <time>2022-05-24T03:13:53Z</time>
      </trkpt>
      <trkpt lat="48.67643" lon="9.52372">
        <ele>373</ele>
        <time>2022-05-24T03:14:42Z</time>
      </trkpt>
      <trkpt lat="48.67659" lon="9.52434">
        <ele>373</ele>
        <time>2022-05-24T03:14:50Z</time>
      </trkpt>
      <trkpt lat="48.67692" lon="9.5279">
        <ele>370</ele>
        <time>2022-05-24T03:15:32Z</time>
      </trkpt>
      <trkpt lat="48.67704" lon="9.52792">
        <ele>371</ele>
        <time>2022-05-24T03:15:35Z</time>
      </trkpt>
      <trkpt lat="48.67724" lon="9.52782">
        <ele>370</ele>
        <time>2022-05-24T03:15:38Z</time>
      </trkpt>
      <trkpt lat="48.67744" lon="9.52781">
        <ele>370</ele>
        <time>2022-05-24T03:15:42Z</time>
      </trkpt>
      <trkpt lat="48.67746" lon="9.52839">
        <ele>371</ele>
        <time>2022-05-24T03:15:49Z</time>
      </trkpt>
      <trkpt lat="48.67775" lon="9.52962">
        <ele>374</ele>
        <time>2022-05-24T03:16:04Z</time>
      </trkpt>
      <trkpt lat="48.6779" lon="9.53007">
        <ele>373</ele>
        <time>2022-05-24T03:16:10Z</time>
      </trkpt>
      <trkpt lat="48.67804" lon="9.53061">
        <ele>370</ele>
        <time>2022-05-24T03:16:17Z</time>
      </trkpt>
      <trkpt lat="48.67815" lon="9.53085">
        <ele>370</ele>
        <time>2022-05-24T03:16:20Z</time>
      </trkpt>
      <trkpt lat="48.67895" lon="9.53239">
        <ele>375</ele>
        <time>2022-05-24T03:16:43Z</time>
      </trkpt>
      <trkpt lat="48.67953" lon="9.53337">
        <ele>376</ele>
        <time>2022-05-24T03:16:59Z</time>
      </trkpt>
      <trkpt lat="48.67994" lon="9.53394">
        <ele>376</ele>
        <time>2022-05-24T03:17:09Z</time>
      </trkpt>
      <trkpt lat="48.68053" lon="9.53509">
        <ele>377</ele>
        <time>2022-05-24T03:17:26Z</time>
      </trkpt>
      <trkpt lat="48.68124" lon="9.53661">
        <ele>379</ele>
        <time>2022-05-24T03:17:48Z</time>
      </trkpt>
      <trkpt lat="48.68191" lon="9.53788">
        <ele>381</ele>
        <time>2022-05-24T03:18:07Z</time>
      </trkpt>
      <trkpt lat="48.68335" lon="9.54024">
        <ele>380</ele>
        <time>2022-05-24T03:18:44Z</time>
      </trkpt>
      <trkpt lat="48.68381" lon="9.54122">
        <ele>384</ele>
        <time>2022-05-24T03:18:59Z</time>
      </trkpt>
      <trkpt lat="48.6843" lon="9.54286">
        <ele>390</ele>
        <time>2022-05-24T03:19:20Z</time>
      </trkpt>
      <trkpt lat="48.6846" lon="9.54438">
        <ele>390</ele>
        <time>2022-05-24T03:19:38Z</time>
      </trkpt>
      <trkpt lat="48.68465" lon="9.54448">
        <ele>390</ele>
        <time>2022-05-24T03:19:40Z</time>
      </trkpt>
      <trkpt lat="48.68468" lon="9.54498">
        <ele>388</ele>
        <time>2022-05-24T03:19:46Z</time>
      </trkpt>
      <trkpt lat="48.68493" lon="9.54641">
        <ele>384</ele>
        <time>2022-05-24T03:20:03Z</time>
      </trkpt>
      <trkpt lat="48.68522" lon="9.54777">
        <ele>382</ele>
        <time>2022-05-24T03:20:20Z</time>
      </trkpt>
      <trkpt lat="48.68528" lon="9.54775">
        <ele>382</ele>
        <time>2022-05-24T03:20:21Z</time>
      </trkpt>
      <trkpt lat="48.68673" lon="9.55276">
        <ele>372</ele>
        <time>2022-05-24T03:21:25Z</time>
      </trkpt>
      <trkpt lat="48.68704" lon="9.55366">
        <ele>371</ele>
        <time>2022-05-24T03:21:37Z</time>
      </trkpt>
      <trkpt lat="48.68687" lon="9.55664">
        <ele>359</ele>
        <time>2022-05-24T03:22:12Z</time>
      </trkpt>
      <trkpt lat="48.68711" lon="9.55791">
        <ele>355</ele>
        <time>2022-05-24T03:22:28Z</time>
      </trkpt>
      <trkpt lat="48.6872" lon="9.5582">
        <ele>355</ele>
        <time>2022-05-24T03:22:32Z</time>
      </trkpt>
      <trkpt lat="48.68749" lon="9.55889">
        <ele>353</ele>
        <time>2022-05-24T03:22:41Z</time>
      </trkpt>
      <trkpt lat="48.68779" lon="9.55937">
        <ele>352</ele>
        <time>2022-05-24T03:22:49Z</time>
      </trkpt>
      <trkpt lat="48.68846" lon="9.56057">
        <ele>348</ele>
        <time>2022-05-24T03:23:07Z</time>
      </trkpt>
      <trkpt lat="48.68859" lon="9.56075">
        <ele>348</ele>
        <time>2022-05-24T03:23:11Z</time>
      </trkpt>
      <trkpt lat="48.68879" lon="9.561">
        <ele>347</ele>
        <time>2022-05-24T03:23:15Z</time>
      </trkpt>
      <trkpt lat="48.68903" lon="9.56124">
        <ele>346</ele>
        <time>2022-05-24T03:23:20Z</time>
      </trkpt>
      <trkpt lat="48.68934" lon="9.56148">
        <ele>345</ele>
        <time>2022-05-24T03:23:26Z</time>
      </trkpt>
      <trkpt lat="48.6898" lon="9.56189">
        <ele>341</ele>
        <time>2022-05-24T03:23:36Z</time>
      </trkpt>
      <trkpt lat="48.69042" lon="9.56261">
        <ele>332</ele>
        <time>2022-05-24T03:23:50Z</time>
      </trkpt>
      <trkpt lat="48.69052" lon="9.56279">
        <ele>330</ele>
        <time>2022-05-24T03:23:53Z</time>
      </trkpt>
      <trkpt lat="48.69078" lon="9.56378">
        <ele>321</ele>
        <time>2022-05-24T03:24:05Z</time>
      </trkpt>
      <trkpt lat="48.69108" lon="9.56443">
        <ele>319</ele>
        <time>2022-05-24T03:24:14Z</time>
      </trkpt>
      <trkpt lat="48.69102" lon="9.5647">
        <ele>319</ele>
        <time>2022-05-24T03:24:18Z</time>
      </trkpt>
      <trkpt lat="48.69133" lon="9.56493">
        <ele>319</ele>
        <time>2022-05-24T03:24:24Z</time>
      </trkpt>
      <trkpt lat="48.69146" lon="9.56506">
        <ele>319</ele>
        <time>2022-05-24T03:24:27Z</time>
      </trkpt>
      <trkpt lat="48.69172" lon="9.56556">
        <ele>318</ele>
        <time>2022-05-24T03:24:34Z</time>
      </trkpt>
      <trkpt lat="48.69191" lon="9.56579">
        <ele>318</ele>
        <time>2022-05-24T03:24:38Z</time>
      </trkpt>
      <trkpt lat="48.69294" lon="9.56674">
        <ele>319</ele>
        <time>2022-05-24T03:25:00Z</time>
      </trkpt>
      <trkpt lat="48.69328" lon="9.56696">
        <ele>319</ele>
        <time>2022-05-24T03:25:07Z</time>
      </trkpt>
      <trkpt lat="48.69398" lon="9.5675">
        <ele>315</ele>
        <time>2022-05-24T03:25:20Z</time>
      </trkpt>
      <trkpt lat="48.69455" lon="9.5677">
        <ele>315</ele>
        <time>2022-05-24T03:25:31Z</time>
      </trkpt>
      <trkpt lat="48.69547" lon="9.56808">
        <ele>314</ele>
        <time>2022-05-24T03:25:48Z</time>
      </trkpt>
      <trkpt lat="48.69562" lon="9.56817">
        <ele>314</ele>
        <time>2022-05-24T03:25:51Z</time>
      </trkpt>
      <trkpt lat="48.69605" lon="9.56849">
        <ele>312</ele>
        <time>2022-05-24T03:25:59Z</time>
      </trkpt>
      <trkpt lat="48.69643" lon="9.56881">
        <ele>310</ele>
        <time>2022-05-24T03:26:07Z</time>
      </trkpt>
      <trkpt lat="48.6975" lon="9.56955">
        <ele>308</ele>
        <time>2022-05-24T03:26:28Z</time>
      </trkpt>
      <trkpt lat="48.69866" lon="9.57045">
        <ele>305</ele>
        <time>2022-05-24T03:26:51Z</time>
      </trkpt>
      <trkpt lat="48.69873" lon="9.57043">
        <ele>305</ele>
        <time>2022-05-24T03:26:52Z</time>
      </trkpt>
      <trkpt lat="48.6989" lon="9.57057">
        <ele>305</ele>
        <time>2022-05-24T03:26:56Z</time>
      </trkpt>
      <trkpt lat="48.69938" lon="9.57085">
        <ele>303</ele>
        <time>2022-05-24T03:27:05Z</time>
      </trkpt>
      <trkpt lat="48.69955" lon="9.57105">
        <ele>304</ele>
        <time>2022-05-24T03:27:09Z</time>
      </trkpt>
      <trkpt lat="48.70009" lon="9.57148">
        <ele>303</ele>
        <time>2022-05-24T03:27:20Z</time>
      </trkpt>
      <trkpt lat="48.70055" lon="9.57196">
        <ele>304</ele>
        <time>2022-05-24T03:27:30Z</time>
      </trkpt>
      <trkpt lat="48.70144" lon="9.57298">
        <ele>303</ele>
        <time>2022-05-24T03:27:49Z</time>
      </trkpt>
      <trkpt lat="48.70175" lon="9.57325">
        <ele>301</ele>
        <time>2022-05-24T03:27:56Z</time>
      </trkpt>
      <trkpt lat="48.70345" lon="9.57455">
        <ele>296</ele>
        <time>2022-05-24T03:28:30Z</time>
      </trkpt>
      <trkpt lat="48.70365" lon="9.57457">
        <ele>296</ele>
        <time>2022-05-24T03:28:33Z</time>
      </trkpt>
      <trkpt lat="48.70372" lon="9.57468">
        <ele>296</ele>
        <time>2022-05-24T03:28:35Z</time>
      </trkpt>
      <trkpt lat="48.70365" lon="9.57496">
        <ele>296</ele>
        <time>2022-05-24T03:28:39Z</time>
      </trkpt>
      <trkpt lat="48.70432" lon="9.57575">
        <ele>294</ele>
        <time>2022-05-24T03:28:54Z</time>
      </trkpt>
      <trkpt lat="48.70469" lon="9.57612">
        <ele>293</ele>
        <time>2022-05-24T03:29:02Z</time>
      </trkpt>
      <trkpt lat="48.70464" lon="9.57643">
        <ele>295</ele>
        <time>2022-05-24T03:29:05Z</time>
      </trkpt>
      <trkpt lat="48.70478" lon="9.57763">
        <ele>296</ele>
        <time>2022-05-24T03:29:20Z</time>
      </trkpt>
      <trkpt lat="48.70481" lon="9.5782">
        <ele>296</ele>
        <time>2022-05-24T03:29:26Z</time>
      </trkpt>
      <trkpt lat="48.7047" lon="9.57874">
        <ele>298</ele>
        <time>2022-05-24T03:29:33Z</time>
      </trkpt>
      <trkpt lat="48.70454" lon="9.57914">
        <ele>300</ele>
        <time>2022-05-24T03:29:38Z</time>
      </trkpt>
      <trkpt lat="48.70428" lon="9.57961">
        <ele>301</ele>
        <time>2022-05-24T03:29:46Z</time>
      </trkpt>
      <trkpt lat="48.70422" lon="9.5798">
        <ele>301</ele>
        <time>2022-05-24T03:29:48Z</time>
      </trkpt>
      <trkpt lat="48.70452" lon="9.58">
        <ele>296</ele>
        <time>2022-05-24T03:29:54Z</time>
      </trkpt>
      <trkpt lat="48.70513" lon="9.57895">
        <ele>292</ele>
        <time>2022-05-24T03:30:10Z</time>
      </trkpt>
      <trkpt lat="48.70559" lon="9.57964">
        <ele>291</ele>
        <time>2022-05-24T03:30:22Z</time>
      </trkpt>
      <trkpt lat="48.70511" lon="9.5804">
        <ele>291</ele>
        <time>2022-05-24T03:30:34Z</time>
      </trkpt>
      <trkpt lat="48.70506" lon="9.58063">
        <ele>291</ele>
        <time>2022-05-24T03:30:37Z</time>
      </trkpt>
      <trkpt lat="48.70504" lon="9.58096">
        <ele>291</ele>
        <time>2022-05-24T03:30:41Z</time>
      </trkpt>
      <trkpt lat="48.70506" lon="9.58145">
        <ele>292</ele>
        <time>2022-05-24T03:30:47Z</time>
      </trkpt>
      <trkpt lat="48.70494" lon="9.58159">
        <ele>293</ele>
        <time>2022-05-24T03:30:49Z</time>
      </trkpt>
      <trkpt lat="48.70488" lon="9.58175">
        <ele>293</ele>
        <time>2022-05-24T03:30:52Z</time>
      </trkpt>
      <trkpt lat="48.70478" lon="9.58211">
        <ele>293</ele>
        <time>2022-05-24T03:30:56Z</time>
      </trkpt>
      <trkpt lat="48.70472" lon="9.58258">
        <ele>293</ele>
        <time>2022-05-24T03:31:02Z</time>
      </trkpt>
      <trkpt lat="48.70476" lon="9.58315">
        <ele>293</ele>
        <time>2022-05-24T03:31:09Z</time>
      </trkpt>
      <trkpt lat="48.70494" lon="9.58378">
        <ele>293</ele>
        <time>2022-05-24T03:31:17Z</time>
      </trkpt>
      <trkpt lat="48.70511" lon="9.58415">
        <ele>292</ele>
        <time>2022-05-24T03:31:22Z</time>
      </trkpt>
      <trkpt lat="48.70539" lon="9.58454">
        <ele>293</ele>
        <time>2022-05-24T03:31:29Z</time>
      </trkpt>
      <trkpt lat="48.70515" lon="9.58492">
        <ele>293</ele>
        <time>2022-05-24T03:31:35Z</time>
      </trkpt>
      <trkpt lat="48.70488" lon="9.58544">
        <ele>293</ele>
        <time>2022-05-24T03:31:43Z</time>
      </trkpt>
      <trkpt lat="48.70474" lon="9.58555">
        <ele>293</ele>
        <time>2022-05-24T03:31:45Z</time>
      </trkpt>
      <trkpt lat="48.70469" lon="9.58623">
        <ele>293</ele>
        <time>2022-05-24T03:31:53Z</time>
      </trkpt>
      <trkpt lat="48.7046" lon="9.58698">
        <ele>293</ele>
        <time>2022-05-24T03:32:02Z</time>
      </trkpt>
      <trkpt lat="48.70442" lon="9.58768">
        <ele>294</ele>
        <time>2022-05-24T03:32:11Z</time>
      </trkpt>
      <trkpt lat="48.7046" lon="9.58786">
        <ele>295</ele>
        <time>2022-05-24T03:32:15Z</time>
      </trkpt>
      <trkpt lat="48.70453" lon="9.58924">
        <ele>295</ele>
        <time>2022-05-24T03:32:31Z</time>
      </trkpt>
      <trkpt lat="48.70454" lon="9.59002">
        <ele>296</ele>
        <time>2022-05-24T03:32:40Z</time>
      </trkpt>
      <trkpt lat="48.70472" lon="9.59083">
        <ele>296</ele>
        <time>2022-05-24T03:32:51Z</time>
      </trkpt>
      <trkpt lat="48.70492" lon="9.5914">
        <ele>295</ele>
        <time>2022-05-24T03:32:58Z</time>
      </trkpt>
      <trkpt lat="48.70448" lon="9.59234">
        <ele>295</ele>
        <time>2022-05-24T03:33:12Z</time>
      </trkpt>
      <trkpt lat="48.70435" lon="9.59292">
        <ele>296</ele>
        <time>2022-05-24T03:33:19Z</time>
      </trkpt>
      <trkpt lat="48.70426" lon="9.59379">
        <ele>296</ele>
        <time>2022-05-24T03:33:29Z</time>
      </trkpt>
      <trkpt lat="48.70422" lon="9.59496">
        <ele>294</ele>
        <time>2022-05-24T03:33:43Z</time>
      </trkpt>
      <trkpt lat="48.7042" lon="9.59631">
        <ele>295</ele>
        <time>2022-05-24T03:33:59Z</time>
      </trkpt>
      <trkpt lat="48.70424" lon="9.59726">
        <ele>296</ele>
        <time>2022-05-24T03:34:10Z</time>
      </trkpt>
      <trkpt lat="48.70446" lon="9.60034">
        <ele>296</ele>
        <time>2022-05-24T03:34:46Z</time>
      </trkpt>
      <trkpt lat="48.70464" lon="9.60207">
        <ele>297</ele>
        <time>2022-05-24T03:35:07Z</time>
      </trkpt>
      <trkpt lat="48.70474" lon="9.60255">
        <ele>297</ele>
        <time>2022-05-24T03:35:13Z</time>
      </trkpt>
      <trkpt lat="48.70492" lon="9.60309">
        <ele>296</ele>
        <time>2022-05-24T03:35:20Z</time>
      </trkpt>
      <trkpt lat="48.70543" lon="9.60294">
        <ele>297</ele>
        <time>2022-05-24T03:35:29Z</time>
      </trkpt>
      <trkpt lat="48.70567" lon="9.60293">
        <ele>297</ele>
        <time>2022-05-24T03:35:33Z</time>
      </trkpt>
      <trkpt lat="48.70565" lon="9.60425">
        <ele>298</ele>
        <time>2022-05-24T03:35:49Z</time>
      </trkpt>
      <trkpt lat="48.70569" lon="9.60554">
        <ele>300</ele>
        <time>2022-05-24T03:36:04Z</time>
      </trkpt>
      <trkpt lat="48.70576" lon="9.60628">
        <ele>302</ele>
        <time>2022-05-24T03:36:13Z</time>
      </trkpt>
      <trkpt lat="48.70587" lon="9.60665">
        <ele>303</ele>
        <time>2022-05-24T03:36:18Z</time>
      </trkpt>
      <trkpt lat="48.70605" lon="9.60703">
        <ele>303</ele>
        <time>2022-05-24T03:36:23Z</time>
      </trkpt>
      <trkpt lat="48.70611" lon="9.60706">
        <ele>303</ele>
        <time>2022-05-24T03:36:24Z</time>
      </trkpt>
      <trkpt lat="48.70645" lon="9.60765">
        <ele>302</ele>
        <time>2022-05-24T03:36:33Z</time>
      </trkpt>
      <trkpt lat="48.70767" lon="9.61006">
        <ele>300</ele>
        <time>2022-05-24T03:37:09Z</time>
      </trkpt>
      <trkpt lat="48.70821" lon="9.61096">
        <ele>300</ele>
        <time>2022-05-24T03:37:23Z</time>
      </trkpt>
      <trkpt lat="48.70967" lon="9.61368">
        <ele>304</ele>
        <time>2022-05-24T03:38:05Z</time>
      </trkpt>
      <trkpt lat="48.71" lon="9.6145">
        <ele>304</ele>
        <time>2022-05-24T03:38:16Z</time>
      </trkpt>
      <trkpt lat="48.71022" lon="9.61528">
        <ele>306</ele>
        <time>2022-05-24T03:38:26Z</time>
      </trkpt>
      <trkpt lat="48.71035" lon="9.616">
        <ele>307</ele>
        <time>2022-05-24T03:38:35Z</time>
      </trkpt>
      <trkpt lat="48.71029" lon="9.61604">
        <ele>306</ele>
        <time>2022-05-24T03:38:36Z</time>
      </trkpt>
      <trkpt lat="48.71023" lon="9.61578">
        <ele>307</ele>
        <time>2022-05-24T03:38:39Z</time>
      </trkpt>
      <trkpt lat="48.71029" lon="9.61578">
        <ele>307</ele>
        <time>2022-05-24T03:38:40Z</time>
      </trkpt>
      <trkpt lat="48.71032" lon="9.61597">
        <ele>307</ele>
        <time>2022-05-24T03:38:42Z</time>
      </trkpt>
      <trkpt lat="48.71078" lon="9.61562">
        <ele>308</ele>
        <time>2022-05-24T03:38:51Z</time>
      </trkpt>
      <trkpt lat="48.71087" lon="9.61571">
        <ele>309</ele>
        <time>2022-05-24T03:38:53Z</time>
      </trkpt>
      <trkpt lat="48.71095" lon="9.61591">
        <ele>309</ele>
        <time>2022-05-24T03:38:56Z</time>
      </trkpt>
      <trkpt lat="48.711" lon="9.61588">
        <ele>310</ele>
        <time>2022-05-24T03:38:57Z</time>
      </trkpt>
      <trkpt lat="48.71125" lon="9.61698">
        <ele>308</ele>
        <time>2022-05-24T03:39:11Z</time>
      </trkpt>
      <trkpt lat="48.71121" lon="9.61707">
        <ele>307</ele>
        <time>2022-05-24T03:39:12Z</time>
      </trkpt>
      <trkpt lat="48.71148" lon="9.61829">
        <ele>305</ele>
        <time>2022-05-24T03:39:27Z</time>
      </trkpt>
      <trkpt lat="48.71171" lon="9.6197">
        <ele>306</ele>
        <time>2022-05-24T03:39:44Z</time>
      </trkpt>
      <trkpt lat="48.7118" lon="9.62048">
        <ele>306</ele>
        <time>2022-05-24T03:39:54Z</time>
      </trkpt>
      <trkpt lat="48.71185" lon="9.62139">
        <ele>305</ele>
        <time>2022-05-24T03:40:04Z</time>
      </trkpt>
      <trkpt lat="48.71187" lon="9.6225">
        <ele>304</ele>
        <time>2022-05-24T03:40:17Z</time>
      </trkpt>
      <trkpt lat="48.7118" lon="9.62396">
        <ele>308</ele>
        <time>2022-05-24T03:40:34Z</time>
      </trkpt>
      <trkpt lat="48.71186" lon="9.62418">
        <ele>309</ele>
        <time>2022-05-24T03:40:37Z</time>
      </trkpt>
      <trkpt lat="48.71212" lon="9.62465">
        <ele>310</ele>
        <time>2022-05-24T03:40:44Z</time>
      </trkpt>
      <trkpt lat="48.71236" lon="9.62496">
        <ele>310</ele>
        <time>2022-05-24T03:40:50Z</time>
      </trkpt>
      <trkpt lat="48.71247" lon="9.62516">
        <ele>310</ele>
        <time>2022-05-24T03:40:53Z</time>
      </trkpt>
      <trkpt lat="48.71227" lon="9.62542">
        <ele>309</ele>
        <time>2022-05-24T03:40:58Z</time>
      </trkpt>
      <trkpt lat="48.71239" lon="9.62556">
        <ele>309</ele>
        <time>2022-05-24T03:41:00Z</time>
      </trkpt>
      <trkpt lat="48.7125" lon="9.62562">
        <ele>309</ele>
        <time>2022-05-24T03:41:03Z</time>
      </trkpt>
      <trkpt lat="48.71305" lon="9.62536">
        <ele>309</ele>
        <time>2022-05-24T03:41:13Z</time>
      </trkpt>
      <trkpt lat="48.71346" lon="9.62537">
        <ele>309</ele>
        <time>2022-05-24T03:41:20Z</time>
      </trkpt>
      <trkpt lat="48.71395" lon="9.62548">
        <ele>309</ele>
        <time>2022-05-24T03:41:29Z</time>
      </trkpt>
      <trkpt lat="48.71437" lon="9.62569">
        <ele>310</ele>
        <time>2022-05-24T03:41:37Z</time>
      </trkpt>
      <trkpt lat="48.71475" lon="9.62594">
        <ele>310</ele>
        <time>2022-05-24T03:41:44Z</time>
      </trkpt>
      <trkpt lat="48.7149" lon="9.62607">
        <ele>310</ele>
        <time>2022-05-24T03:41:47Z</time>
      </trkpt>
      <trkpt lat="48.71503" lon="9.62592">
        <ele>308</ele>
        <time>2022-05-24T03:41:50Z</time>
      </trkpt>
      <trkpt lat="48.71531" lon="9.62638">
        <ele>311</ele>
        <time>2022-05-24T03:41:58Z</time>
      </trkpt>
      <trkpt lat="48.71571" lon="9.62749">
        <ele>313</ele>
        <time>2022-05-24T03:42:12Z</time>
      </trkpt>
      <trkpt lat="48.71573" lon="9.62776">
        <ele>313</ele>
        <time>2022-05-24T03:42:16Z</time>
      </trkpt>
      <trkpt lat="48.71608" lon="9.62884">
        <ele>317</ele>
        <time>2022-05-24T03:42:30Z</time>
      </trkpt>
      <trkpt lat="48.71653" lon="9.62956">
        <ele>321</ele>
        <time>2022-05-24T03:42:41Z</time>
      </trkpt>
      <trkpt lat="48.71689" lon="9.6299">
        <ele>322</ele>
        <time>2022-05-24T03:42:49Z</time>
      </trkpt>
      <trkpt lat="48.71717" lon="9.63006">
        <ele>322</ele>
        <time>2022-05-24T03:42:54Z</time>
      </trkpt>
      <trkpt lat="48.71769" lon="9.63028">
        <ele>322</ele>
        <time>2022-05-24T03:43:04Z</time>
      </trkpt>
      <trkpt lat="48.71828" lon="9.63036">
        <ele>322</ele>
        <time>2022-05-24T03:43:14Z</time>
      </trkpt>
      <trkpt lat="48.71883" lon="9.63057">
        <ele>322</ele>
        <time>2022-05-24T03:43:24Z</time>
      </trkpt>
      <trkpt lat="48.7192" lon="9.63087">
        <ele>320</ele>
        <time>2022-05-24T03:43:32Z</time>
      </trkpt>
      <trkpt lat="48.7196" lon="9.63142">
        <ele>323</ele>
        <time>2022-05-24T03:43:41Z</time>
      </trkpt>
      <trkpt lat="48.71984" lon="9.63201">
        <ele>323</ele>
        <time>2022-05-24T03:43:50Z</time>
      </trkpt>
      <trkpt lat="48.71991" lon="9.63233">
        <ele>322</ele>
        <time>2022-05-24T03:43:54Z</time>
      </trkpt>
      <trkpt lat="48.72002" lon="9.63362">
        <ele>322</ele>
        <time>2022-05-24T03:44:09Z</time>
      </trkpt>
      <trkpt lat="48.72022" lon="9.63695">
        <ele>325</ele>
        <time>2022-05-24T03:44:48Z</time>
      </trkpt>
      <trkpt lat="48.72043" lon="9.63773">
        <ele>326</ele>
        <time>2022-05-24T03:44:58Z</time>
      </trkpt>
      <trkpt lat="48.72083" lon="9.63854">
        <ele>327</ele>
        <time>2022-05-24T03:45:10Z</time>
      </trkpt>
      <trkpt lat="48.72105" lon="9.63885">
        <ele>328</ele>
        <time>2022-05-24T03:45:15Z</time>
      </trkpt>
      <trkpt lat="48.72347" lon="9.6407">
        <ele>331</ele>
        <time>2022-05-24T03:46:03Z</time>
      </trkpt>
      <trkpt lat="48.7241" lon="9.64096">
        <ele>331</ele>
        <time>2022-05-24T03:46:15Z</time>
      </trkpt>
      <trkpt lat="48.7245" lon="9.64095">
        <ele>330</ele>
        <time>2022-05-24T03:46:22Z</time>
      </trkpt>
      <trkpt lat="48.72529" lon="9.64071">
        <ele>328</ele>
        <time>2022-05-24T03:46:37Z</time>
      </trkpt>
      <trkpt lat="48.72589" lon="9.64056">
        <ele>328</ele>
        <time>2022-05-24T03:46:47Z</time>
      </trkpt>
      <trkpt lat="48.72613" lon="9.64058">
        <ele>328</ele>
        <time>2022-05-24T03:46:52Z</time>
      </trkpt>
      <trkpt lat="48.72666" lon="9.64081">
        <ele>330</ele>
        <time>2022-05-24T03:47:01Z</time>
      </trkpt>
      <trkpt lat="48.72834" lon="9.64186">
        <ele>329</ele>
        <time>2022-05-24T03:47:34Z</time>
      </trkpt>
      <trkpt lat="48.72854" lon="9.64211">
        <ele>330</ele>
        <time>2022-05-24T03:47:38Z</time>
      </trkpt>
      <trkpt lat="48.72884" lon="9.64234">
        <ele>331</ele>
        <time>2022-05-24T03:47:44Z</time>
      </trkpt>
      <trkpt lat="48.72958" lon="9.64315">
        <ele>331</ele>
        <time>2022-05-24T03:48:01Z</time>
      </trkpt>
      <trkpt lat="48.72978" lon="9.64358">
        <ele>331</ele>
        <time>2022-05-24T03:48:07Z</time>
      </trkpt>
      <trkpt lat="48.72986" lon="9.64412">
        <ele>331</ele>
        <time>2022-05-24T03:48:13Z</time>
      </trkpt>
      <trkpt lat="48.73" lon="9.64453">
        <ele>330</ele>
        <time>2022-05-24T03:48:19Z</time>
      </trkpt>
      <trkpt lat="48.73014" lon="9.64476">
        <ele>330</ele>
        <time>2022-05-24T03:48:22Z</time>
      </trkpt>
      <trkpt lat="48.73053" lon="9.64509">
        <ele>330</ele>
        <time>2022-05-24T03:48:30Z</time>
      </trkpt>
      <trkpt lat="48.73105" lon="9.64528">
        <ele>329</ele>
        <time>2022-05-24T03:48:40Z</time>
      </trkpt>
      <trkpt lat="48.7316" lon="9.64518">
        <ele>331</ele>
        <time>2022-05-24T03:48:50Z</time>
      </trkpt>
      <trkpt lat="48.73209" lon="9.64484">
        <ele>336</ele>
        <time>2022-05-24T03:48:59Z</time>
      </trkpt>
      <trkpt lat="48.73243" lon="9.64442">
        <ele>339</ele>
        <time>2022-05-24T03:49:07Z</time>
      </trkpt>
      <trkpt lat="48.73305" lon="9.6431">
        <ele>340</ele>
        <time>2022-05-24T03:49:26Z</time>
      </trkpt>
      <trkpt lat="48.73334" lon="9.6426">
        <ele>338</ele>
        <time>2022-05-24T03:49:34Z</time>
      </trkpt>
      <trkpt lat="48.73355" lon="9.64234">
        <ele>337</ele>
        <time>2022-05-24T03:49:39Z</time>
      </trkpt>
      <trkpt lat="48.73415" lon="9.64184">
        <ele>337</ele>
        <time>2022-05-24T03:49:51Z</time>
      </trkpt>
      <trkpt lat="48.73523" lon="9.64127">
        <ele>344</ele>
        <time>2022-05-24T03:50:11Z</time>
      </trkpt>
      <trkpt lat="48.73572" lon="9.64113">
        <ele>347</ele>
        <time>2022-05-24T03:50:20Z</time>
      </trkpt>
      <trkpt lat="48.73812" lon="9.64106">
        <ele>343</ele>
        <time>2022-05-24T03:51:03Z</time>
      </trkpt>
      <trkpt lat="48.73882" lon="9.6413">
        <ele>343</ele>
        <time>2022-05-24T03:51:16Z</time>
      </trkpt>
      <trkpt lat="48.73984" lon="9.64233">
        <ele>345</ele>
        <time>2022-05-24T03:51:37Z</time>
      </trkpt>
      <trkpt lat="48.74044" lon="9.64305">
        <ele>348</ele>
        <time>2022-05-24T03:51:51Z</time>
      </trkpt>
      <trkpt lat="48.7411" lon="9.64399">
        <ele>354</ele>
        <time>2022-05-24T03:52:07Z</time>
      </trkpt>
      <trkpt lat="48.7415" lon="9.64466">
        <ele>354</ele>
        <time>2022-05-24T03:52:18Z</time>
      </trkpt>
      <trkpt lat="48.74266" lon="9.64713">
        <ele>361</ele>
        <time>2022-05-24T03:52:53Z</time>
      </trkpt>
      <trkpt lat="48.74326" lon="9.64801">
        <ele>355</ele>
        <time>2022-05-24T03:53:08Z</time>
      </trkpt>
      <trkpt lat="48.74372" lon="9.64887">
        <ele>356</ele>
        <time>2022-05-24T03:53:21Z</time>
      </trkpt>
      <trkpt lat="48.74394" lon="9.64946">
        <ele>356</ele>
        <time>2022-05-24T03:53:29Z</time>
      </trkpt>
      <trkpt lat="48.74407" lon="9.65014">
        <ele>357</ele>
        <time>2022-05-24T03:53:37Z</time>
      </trkpt>
      <trkpt lat="48.74433" lon="9.65294">
        <ele>353</ele>
        <time>2022-05-24T03:54:11Z</time>
      </trkpt>
      <trkpt lat="48.74437" lon="9.65463">
        <ele>349</ele>
        <time>2022-05-24T03:54:30Z</time>
      </trkpt>
      <trkpt lat="48.74442" lon="9.65514">
        <ele>347</ele>
        <time>2022-05-24T03:54:36Z</time>
      </trkpt>
      <trkpt lat="48.74455" lon="9.6558">
        <ele>347</ele>
        <time>2022-05-24T03:54:45Z</time>
      </trkpt>
      <trkpt lat="48.74486" lon="9.65659">
        <ele>347</ele>
        <time>2022-05-24T03:54:55Z</time>
      </trkpt>
      <trkpt lat="48.74494" lon="9.65729">
        <ele>349</ele>
        <time>2022-05-24T03:55:04Z</time>
      </trkpt>
      <trkpt lat="48.74525" lon="9.65791">
        <ele>349</ele>
        <time>2022-05-24T03:55:13Z</time>
      </trkpt>
      <trkpt lat="48.74547" lon="9.66084">
        <ele>352</ele>
        <time>2022-05-24T03:55:47Z</time>
      </trkpt>
      <trkpt lat="48.74545" lon="9.66201">
        <ele>352</ele>
        <time>2022-05-24T03:56:01Z</time>
      </trkpt>
      <trkpt lat="48.74522" lon="9.66376">
        <ele>354</ele>
        <time>2022-05-24T03:56:22Z</time>
      </trkpt>
      <trkpt lat="48.74491" lon="9.66571">
        <ele>358</ele>
        <time>2022-05-24T03:56:46Z</time>
      </trkpt>
      <trkpt lat="48.74445" lon="9.67076">
        <ele>375</ele>
        <time>2022-05-24T03:57:45Z</time>
      </trkpt>
      <trkpt lat="48.74458" lon="9.67186">
        <ele>376</ele>
        <time>2022-05-24T03:57:59Z</time>
      </trkpt>
      <trkpt lat="48.74473" lon="9.6723">
        <ele>376</ele>
        <time>2022-05-24T03:58:04Z</time>
      </trkpt>
      <trkpt lat="48.74521" lon="9.6732">
        <ele>374</ele>
        <time>2022-05-24T03:58:18Z</time>
      </trkpt>
      <trkpt lat="48.74543" lon="9.67348">
        <ele>374</ele>
        <time>2022-05-24T03:58:23Z</time>
      </trkpt>
      <trkpt lat="48.74593" lon="9.67384">
        <ele>376</ele>
        <time>2022-05-24T03:58:33Z</time>
      </trkpt>
      <trkpt lat="48.74616" lon="9.67392">
        <ele>379</ele>
        <time>2022-05-24T03:58:37Z</time>
      </trkpt>
      <trkpt lat="48.74728" lon="9.67406">
        <ele>388</ele>
        <time>2022-05-24T03:58:57Z</time>
      </trkpt>
      <trkpt lat="48.74791" lon="9.67431">
        <ele>389</ele>
        <time>2022-05-24T03:59:09Z</time>
      </trkpt>
      <trkpt lat="48.74938" lon="9.67549">
        <ele>401</ele>
        <time>2022-05-24T03:59:38Z</time>
      </trkpt>
      <trkpt lat="48.75015" lon="9.67598">
        <ele>406</ele>
        <time>2022-05-24T03:59:53Z</time>
      </trkpt>
      <trkpt lat="48.75099" lon="9.67664">
        <ele>412</ele>
        <time>2022-05-24T04:00:10Z</time>
      </trkpt>
      <trkpt lat="48.75129" lon="9.67716">
        <ele>414</ele>
        <time>2022-05-24T04:00:18Z</time>
      </trkpt>
      <trkpt lat="48.75144" lon="9.67755">
        <ele>415</ele>
        <time>2022-05-24T04:00:23Z</time>
      </trkpt>
      <trkpt lat="48.75158" lon="9.67821">
        <ele>417</ele>
        <time>2022-05-24T04:00:31Z</time>
      </trkpt>
      <trkpt lat="48.75161" lon="9.67872">
        <ele>417</ele>
        <time>2022-05-24T04:00:38Z</time>
      </trkpt>
      <trkpt lat="48.75155" lon="9.67945">
        <ele>416</ele>
        <time>2022-05-24T04:00:46Z</time>
      </trkpt>
      <trkpt lat="48.75158" lon="9.68144">
        <ele>412</ele>
        <time>2022-05-24T04:01:09Z</time>
      </trkpt>
      <trkpt lat="48.75168" lon="9.68241">
        <ele>410</ele>
        <time>2022-05-24T04:01:21Z</time>
      </trkpt>
      <trkpt lat="48.75185" lon="9.68327">
        <ele>407</ele>
        <time>2022-05-24T04:01:32Z</time>
      </trkpt>
      <trkpt lat="48.75226" lon="9.68422">
        <ele>406</ele>
        <time>2022-05-24T04:01:45Z</time>
      </trkpt>
      <trkpt lat="48.75259" lon="9.68468">
        <ele>407</ele>
        <time>2022-05-24T04:01:53Z</time>
      </trkpt>
      <trkpt lat="48.75314" lon="9.68508">
        <ele>411</ele>
        <time>2022-05-24T04:02:04Z</time>
      </trkpt>
      <trkpt lat="48.75333" lon="9.68518">
        <ele>412</ele>
        <time>2022-05-24T04:02:07Z</time>
      </trkpt>
      <trkpt lat="48.75443" lon="9.68547">
        <ele>417</ele>
        <time>2022-05-24T04:02:27Z</time>
      </trkpt>
      <trkpt lat="48.75489" lon="9.6857">
        <ele>419</ele>
        <time>2022-05-24T04:02:36Z</time>
      </trkpt>
      <trkpt lat="48.75522" lon="9.68597">
        <ele>421</ele>
        <time>2022-05-24T04:02:42Z</time>
      </trkpt>
      <trkpt lat="48.7555" lon="9.68628">
        <ele>422</ele>
        <time>2022-05-24T04:02:49Z</time>
      </trkpt>
      <trkpt lat="48.75578" lon="9.68673">
        <ele>421</ele>
        <time>2022-05-24T04:02:56Z</time>
      </trkpt>
      <trkpt lat="48.75614" lon="9.6876">
        <ele>420</ele>
        <time>2022-05-24T04:03:08Z</time>
      </trkpt>
      <trkpt lat="48.75666" lon="9.68928">
        <ele>421</ele>
        <time>2022-05-24T04:03:30Z</time>
      </trkpt>
      <trkpt lat="48.75684" lon="9.68961">
        <ele>420</ele>
        <time>2022-05-24T04:03:35Z</time>
      </trkpt>
      <trkpt lat="48.75733" lon="9.69119">
        <ele>421</ele>
        <time>2022-05-24T04:03:55Z</time>
      </trkpt>
      <trkpt lat="48.75743" lon="9.69147">
        <ele>422</ele>
        <time>2022-05-24T04:03:59Z</time>
      </trkpt>
      <trkpt lat="48.75762" lon="9.69179">
        <ele>422</ele>
        <time>2022-05-24T04:04:04Z</time>
      </trkpt>
      <trkpt lat="48.75778" lon="9.69252">
        <ele>424</ele>
        <time>2022-05-24T04:04:13Z</time>
      </trkpt>
      <trkpt lat="48.75782" lon="9.69289">
        <ele>424</ele>
        <time>2022-05-24T04:04:17Z</time>
      </trkpt>
      <trkpt lat="48.75778" lon="9.69403">
        <ele>426</ele>
        <time>2022-05-24T04:04:31Z</time>
      </trkpt>
      <trkpt lat="48.75764" lon="9.69466">
        <ele>427</ele>
        <time>2022-05-24T04:04:39Z</time>
      </trkpt>
      <trkpt lat="48.75747" lon="9.69512">
        <ele>428</ele>
        <time>2022-05-24T04:04:45Z</time>
      </trkpt>
      <trkpt lat="48.75711" lon="9.69577">
        <ele>428</ele>
        <time>2022-05-24T04:04:55Z</time>
      </trkpt>
      <trkpt lat="48.75612" lon="9.69712">
        <ele>425</ele>
        <time>2022-05-24T04:05:18Z</time>
      </trkpt>
      <trkpt lat="48.75553" lon="9.69798">
        <ele>422</ele>
        <time>2022-05-24T04:05:33Z</time>
      </trkpt>
      <trkpt lat="48.75344" lon="9.70285">
        <ele>429</ele>
        <time>2022-05-24T04:06:41Z</time>
      </trkpt>
      <trkpt lat="48.7523" lon="9.70469">
        <ele>429</ele>
        <time>2022-05-24T04:07:11Z</time>
      </trkpt>
      <trkpt lat="48.75179" lon="9.70571">
        <ele>428</ele>
        <time>2022-05-24T04:07:26Z</time>
      </trkpt>
      <trkpt lat="48.75145" lon="9.7067">
        <ele>429</ele>
        <time>2022-05-24T04:07:39Z</time>
      </trkpt>
      <trkpt lat="48.75127" lon="9.70753">
        <ele>436</ele>
        <time>2022-05-24T04:07:49Z</time>
      </trkpt>
      <trkpt lat="48.75119" lon="9.7082">
        <ele>438</ele>
        <time>2022-05-24T04:07:57Z</time>
      </trkpt>
      <trkpt lat="48.75116" lon="9.70935">
        <ele>438</ele>
        <time>2022-05-24T04:08:11Z</time>
      </trkpt>
      <trkpt lat="48.75125" lon="9.71029">
        <ele>437</ele>
        <time>2022-05-24T04:08:22Z</time>
      </trkpt>
      <trkpt lat="48.75145" lon="9.71123">
        <ele>436</ele>
        <time>2022-05-24T04:08:33Z</time>
      </trkpt>
      <trkpt lat="48.75178" lon="9.712">
        <ele>437</ele>
        <time>2022-05-24T04:08:44Z</time>
      </trkpt>
      <trkpt lat="48.75263" lon="9.71339">
        <ele>442</ele>
        <time>2022-05-24T04:09:06Z</time>
      </trkpt>
      <trkpt lat="48.75293" lon="9.71416">
        <ele>441</ele>
        <time>2022-05-24T04:09:17Z</time>
      </trkpt>
      <trkpt lat="48.75306" lon="9.71461">
        <ele>442</ele>
        <time>2022-05-24T04:09:23Z</time>
      </trkpt>
      <trkpt lat="48.7531" lon="9.715">
        <ele>442</ele>
        <time>2022-05-24T04:09:27Z</time>
      </trkpt>
      <trkpt lat="48.75316" lon="9.71728">
        <ele>445</ele>
        <time>2022-05-24T04:09:54Z</time>
      </trkpt>
      <trkpt lat="48.75334" lon="9.71836">
        <ele>449</ele>
        <time>2022-05-24T04:10:07Z</time>
      </trkpt>
      <trkpt lat="48.75346" lon="9.71878">
        <ele>449</ele>
        <time>2022-05-24T04:10:12Z</time>
      </trkpt>
      <trkpt lat="48.75398" lon="9.71979">
        <ele>447</ele>
        <time>2022-05-24T04:10:27Z</time>
      </trkpt>
      <trkpt lat="48.75498" lon="9.72117">
        <ele>445</ele>
        <time>2022-05-24T04:10:52Z</time>
      </trkpt>
      <trkpt lat="48.75546" lon="9.72224">
        <ele>446</ele>
        <time>2022-05-24T04:11:07Z</time>
      </trkpt>
      <trkpt lat="48.7562" lon="9.72516">
        <ele>444</ele>
        <time>2022-05-24T04:11:43Z</time>
      </trkpt>
      <trkpt lat="48.75621" lon="9.72532">
        <ele>444</ele>
        <time>2022-05-24T04:11:45Z</time>
      </trkpt>
      <trkpt lat="48.75635" lon="9.72594">
        <ele>444</ele>
        <time>2022-05-24T04:11:53Z</time>
      </trkpt>
      <trkpt lat="48.75637" lon="9.72649">
        <ele>443</ele>
        <time>2022-05-24T04:11:59Z</time>
      </trkpt>
      <trkpt lat="48.75634" lon="9.72693">
        <ele>442</ele>
        <time>2022-05-24T04:12:05Z</time>
      </trkpt>
      <trkpt lat="48.75602" lon="9.72892">
        <ele>440</ele>
        <time>2022-05-24T04:12:29Z</time>
      </trkpt>
      <trkpt lat="48.75602" lon="9.72935">
        <ele>441</ele>
        <time>2022-05-24T04:12:34Z</time>
      </trkpt>
      <trkpt lat="48.7561" lon="9.73021">
        <ele>443</ele>
        <time>2022-05-24T04:12:44Z</time>
      </trkpt>
      <trkpt lat="48.75661" lon="9.73249">
        <ele>445</ele>
        <time>2022-05-24T04:13:12Z</time>
      </trkpt>
      <trkpt lat="48.75664" lon="9.73312">
        <ele>444</ele>
        <time>2022-05-24T04:13:20Z</time>
      </trkpt>
      <trkpt lat="48.75663" lon="9.73352">
        <ele>444</ele>
        <time>2022-05-24T04:13:24Z</time>
      </trkpt>
      <trkpt lat="48.75633" lon="9.73514">
        <ele>445</ele>
        <time>2022-05-24T04:13:44Z</time>
      </trkpt>
      <trkpt lat="48.75631" lon="9.73565">
        <ele>443</ele>
        <time>2022-05-24T04:13:50Z</time>
      </trkpt>
      <trkpt lat="48.75636" lon="9.73618">
        <ele>440</ele>
        <time>2022-05-24T04:13:56Z</time>
      </trkpt>
      <trkpt lat="48.75659" lon="9.73703">
        <ele>437</ele>
        <time>2022-05-24T04:14:07Z</time>
      </trkpt>
      <trkpt lat="48.75709" lon="9.73826">
        <ele>441</ele>
        <time>2022-05-24T04:14:24Z</time>
      </trkpt>
      <trkpt lat="48.75724" lon="9.73903">
        <ele>445</ele>
        <time>2022-05-24T04:14:33Z</time>
      </trkpt>
      <trkpt lat="48.75719" lon="9.74149">
        <ele>447</ele>
        <time>2022-05-24T04:15:02Z</time>
      </trkpt>
      <trkpt lat="48.75762" lon="9.74395">
        <ele>448</ele>
        <time>2022-05-24T04:15:32Z</time>
      </trkpt>
      <trkpt lat="48.75759" lon="9.74484">
        <ele>447</ele>
        <time>2022-05-24T04:15:43Z</time>
      </trkpt>
      <trkpt lat="48.75738" lon="9.74561">
        <ele>448</ele>
        <time>2022-05-24T04:15:52Z</time>
      </trkpt>
      <trkpt lat="48.75725" lon="9.7459">
        <ele>448</ele>
        <time>2022-05-24T04:15:56Z</time>
      </trkpt>
      <trkpt lat="48.75652" lon="9.74697">
        <ele>450</ele>
        <time>2022-05-24T04:16:15Z</time>
      </trkpt>
      <trkpt lat="48.75627" lon="9.74743">
        <ele>450</ele>
        <time>2022-05-24T04:16:21Z</time>
      </trkpt>
      <trkpt lat="48.75608" lon="9.74793">
        <ele>450</ele>
        <time>2022-05-24T04:16:28Z</time>
      </trkpt>
      <trkpt lat="48.75601" lon="9.74829">
        <ele>450</ele>
        <time>2022-05-24T04:16:33Z</time>
      </trkpt>
      <trkpt lat="48.75597" lon="9.74902">
        <ele>448</ele>
        <time>2022-05-24T04:16:41Z</time>
      </trkpt>
      <trkpt lat="48.75601" lon="9.74958">
        <ele>448</ele>
        <time>2022-05-24T04:16:48Z</time>
      </trkpt>
      <trkpt lat="48.75621" lon="9.75031">
        <ele>447</ele>
        <time>2022-05-24T04:16:57Z</time>
      </trkpt>
      <trkpt lat="48.75716" lon="9.75198">
        <ele>451</ele>
        <time>2022-05-24T04:17:23Z</time>
      </trkpt>
      <trkpt lat="48.75735" lon="9.75255">
        <ele>450</ele>
        <time>2022-05-24T04:17:31Z</time>
      </trkpt>
      <trkpt lat="48.75772" lon="9.75431">
        <ele>449</ele>
        <time>2022-05-24T04:17:52Z</time>
      </trkpt>
      <trkpt lat="48.75789" lon="9.75481">
        <ele>450</ele>
        <time>2022-05-24T04:17:59Z</time>
      </trkpt>
      <trkpt lat="48.75813" lon="9.75521">
        <ele>448</ele>
        <time>2022-05-24T04:18:05Z</time>
      </trkpt>
      <trkpt lat="48.75836" lon="9.75552">
        <ele>445</ele>
        <time>2022-05-24T04:18:11Z</time>
      </trkpt>
      <trkpt lat="48.75962" lon="9.75687">
        <ele>440</ele>
        <time>2022-05-24T04:18:38Z</time>
      </trkpt>
      <trkpt lat="48.75995" lon="9.75761">
        <ele>437</ele>
        <time>2022-05-24T04:18:49Z</time>
      </trkpt>
      <trkpt lat="48.76141" lon="9.76171">
        <ele>439</ele>
        <time>2022-05-24T04:19:43Z</time>
      </trkpt>
      <trkpt lat="48.76158" lon="9.76244">
        <ele>440</ele>
        <time>2022-05-24T04:19:52Z</time>
      </trkpt>
      <trkpt lat="48.76162" lon="9.76316">
        <ele>440</ele>
        <time>2022-05-24T04:20:01Z</time>
      </trkpt>
      <trkpt lat="48.76149" lon="9.76401">
        <ele>438</ele>
        <time>2022-05-24T04:20:11Z</time>
      </trkpt>
      <trkpt lat="48.76119" lon="9.76479">
        <ele>433</ele>
        <time>2022-05-24T04:20:22Z</time>
      </trkpt>
      <trkpt lat="48.76089" lon="9.76548">
        <ele>432</ele>
        <time>2022-05-24T04:20:31Z</time>
      </trkpt>
      <trkpt lat="48.76069" lon="9.76608">
        <ele>435</ele>
        <time>2022-05-24T04:20:39Z</time>
      </trkpt>
      <trkpt lat="48.76058" lon="9.76695">
        <ele>437</ele>
        <time>2022-05-24T04:20:50Z</time>
      </trkpt>
      <trkpt lat="48.7606" lon="9.76815">
        <ele>436</ele>
        <time>2022-05-24T04:21:04Z</time>
      </trkpt>
      <trkpt lat="48.76068" lon="9.76882">
        <ele>436</ele>
        <time>2022-05-24T04:21:12Z</time>
      </trkpt>
      <trkpt lat="48.76079" lon="9.76937">
        <ele>435</ele>
        <time>2022-05-24T04:21:18Z</time>
      </trkpt>
      <trkpt lat="48.76115" lon="9.77027">
        <ele>433</ele>
        <time>2022-05-24T04:21:31Z</time>
      </trkpt>
      <trkpt lat="48.76148" lon="9.77077">
        <ele>431</ele>
        <time>2022-05-24T04:21:39Z</time>
      </trkpt>
      <trkpt lat="48.76224" lon="9.77137">
        <ele>432</ele>
        <time>2022-05-24T04:21:54Z</time>
      </trkpt>
      <trkpt lat="48.76322" lon="9.7719">
        <ele>432</ele>
        <time>2022-05-24T04:22:13Z</time>
      </trkpt>
      <trkpt lat="48.76375" lon="9.77222">
        <ele>430</ele>
        <time>2022-05-24T04:22:23Z</time>
      </trkpt>
      <trkpt lat="48.76412" lon="9.77262">
        <ele>430</ele>
        <time>2022-05-24T04:22:31Z</time>
      </trkpt>
      <trkpt lat="48.76435" lon="9.773">
        <ele>430</ele>
        <time>2022-05-24T04:22:37Z</time>
      </trkpt>
      <trkpt lat="48.76477" lon="9.77387">
        <ele>431</ele>
        <time>2022-05-24T04:22:50Z</time>
      </trkpt>
      <trkpt lat="48.76499" lon="9.77452">
        <ele>429</ele>
        <time>2022-05-24T04:22:58Z</time>
      </trkpt>
      <trkpt lat="48.76514" lon="9.7752">
        <ele>428</ele>
        <time>2022-05-24T04:23:07Z</time>
      </trkpt>
      <trkpt lat="48.76521" lon="9.77591">
        <ele>428</ele>
        <time>2022-05-24T04:23:15Z</time>
      </trkpt>
      <trkpt lat="48.76521" lon="9.77741">
        <ele>426</ele>
        <time>2022-05-24T04:23:33Z</time>
      </trkpt>
      <trkpt lat="48.7651" lon="9.77827">
        <ele>426</ele>
        <time>2022-05-24T04:23:43Z</time>
      </trkpt>
      <trkpt lat="48.7649" lon="9.77891">
        <ele>427</ele>
        <time>2022-05-24T04:23:51Z</time>
      </trkpt>
      <trkpt lat="48.76456" lon="9.77974">
        <ele>425</ele>
        <time>2022-05-24T04:24:03Z</time>
      </trkpt>
      <trkpt lat="48.76433" lon="9.78062">
        <ele>421</ele>
        <time>2022-05-24T04:24:14Z</time>
      </trkpt>
      <trkpt lat="48.7643" lon="9.78155">
        <ele>419</ele>
        <time>2022-05-24T04:24:25Z</time>
      </trkpt>
      <trkpt lat="48.76448" lon="9.78242">
        <ele>419</ele>
        <time>2022-05-24T04:24:35Z</time>
      </trkpt>
      <trkpt lat="48.76475" lon="9.78305">
        <ele>417</ele>
        <time>2022-05-24T04:24:44Z</time>
      </trkpt>
      <trkpt lat="48.76516" lon="9.78354">
        <ele>416</ele>
        <time>2022-05-24T04:24:54Z</time>
      </trkpt>
      <trkpt lat="48.76564" lon="9.78386">
        <ele>417</ele>
        <time>2022-05-24T04:25:03Z</time>
      </trkpt>
      <trkpt lat="48.76688" lon="9.78406">
        <ele>418</ele>
        <time>2022-05-24T04:25:25Z</time>
      </trkpt>
      <trkpt lat="48.76731" lon="9.78425">
        <ele>421</ele>
        <time>2022-05-24T04:25:33Z</time>
      </trkpt>
      <trkpt lat="48.76751" lon="9.78441">
        <ele>423</ele>
        <time>2022-05-24T04:25:37Z</time>
      </trkpt>
      <trkpt lat="48.76799" lon="9.78495">
        <ele>425</ele>
        <time>2022-05-24T04:25:48Z</time>
      </trkpt>
      <trkpt lat="48.76826" lon="9.78546">
        <ele>426</ele>
        <time>2022-05-24T04:25:55Z</time>
      </trkpt>
      <trkpt lat="48.76847" lon="9.78605">
        <ele>426</ele>
        <time>2022-05-24T04:26:03Z</time>
      </trkpt>
      <trkpt lat="48.76927" lon="9.78942">
        <ele>418</ele>
        <time>2022-05-24T04:26:45Z</time>
      </trkpt>
      <trkpt lat="48.76945" lon="9.78988">
        <ele>417</ele>
        <time>2022-05-24T04:26:51Z</time>
      </trkpt>
      <trkpt lat="48.76968" lon="9.79029">
        <ele>417</ele>
        <time>2022-05-24T04:26:58Z</time>
      </trkpt>
      <trkpt lat="48.76995" lon="9.79065">
        <ele>415</ele>
        <time>2022-05-24T04:27:04Z</time>
      </trkpt>
      <trkpt lat="48.77029" lon="9.79098">
        <ele>415</ele>
        <time>2022-05-24T04:27:11Z</time>
      </trkpt>
      <trkpt lat="48.77087" lon="9.79127">
        <ele>415</ele>
        <time>2022-05-24T04:27:22Z</time>
      </trkpt>
      <trkpt lat="48.77146" lon="9.79132">
        <ele>412</ele>
        <time>2022-05-24T04:27:33Z</time>
      </trkpt>
      <trkpt lat="48.77235" lon="9.7912">
        <ele>411</ele>
        <time>2022-05-24T04:27:49Z</time>
      </trkpt>
      <trkpt lat="48.77264" lon="9.79123">
        <ele>411</ele>
        <time>2022-05-24T04:27:54Z</time>
      </trkpt>
      <trkpt lat="48.77323" lon="9.79149">
        <ele>413</ele>
        <time>2022-05-24T04:28:05Z</time>
      </trkpt>
      <trkpt lat="48.77379" lon="9.79204">
        <ele>413</ele>
        <time>2022-05-24T04:28:17Z</time>
      </trkpt>
      <trkpt lat="48.77423" lon="9.79284">
        <ele>414</ele>
        <time>2022-05-24T04:28:29Z</time>
      </trkpt>
      <trkpt lat="48.77443" lon="9.79352">
        <ele>414</ele>
        <time>2022-05-24T04:28:38Z</time>
      </trkpt>
      <trkpt lat="48.77453" lon="9.7941">
        <ele>414</ele>
        <time>2022-05-24T04:28:45Z</time>
      </trkpt>
      <trkpt lat="48.77454" lon="9.79505">
        <ele>414</ele>
        <time>2022-05-24T04:28:56Z</time>
      </trkpt>
      <trkpt lat="48.77406" lon="9.79965">
        <ele>412</ele>
        <time>2022-05-24T04:29:50Z</time>
      </trkpt>
      <trkpt lat="48.77386" lon="9.80116">
        <ele>409</ele>
        <time>2022-05-24T04:30:08Z</time>
      </trkpt>
      <trkpt lat="48.77383" lon="9.80178">
        <ele>409</ele>
        <time>2022-05-24T04:30:16Z</time>
      </trkpt>
      <trkpt lat="48.77391" lon="9.80293">
        <ele>408</ele>
        <time>2022-05-24T04:30:29Z</time>
      </trkpt>
      <trkpt lat="48.77402" lon="9.80348">
        <ele>407</ele>
        <time>2022-05-24T04:30:36Z</time>
      </trkpt>
      <trkpt lat="48.77431" lon="9.80449">
        <ele>404</ele>
        <time>2022-05-24T04:30:49Z</time>
      </trkpt>
      <trkpt lat="48.77454" lon="9.80499">
        <ele>402</ele>
        <time>2022-05-24T04:30:56Z</time>
      </trkpt>
      <trkpt lat="48.77611" lon="9.80791">
        <ele>400</ele>
        <time>2022-05-24T04:31:40Z</time>
      </trkpt>
      <trkpt lat="48.77641" lon="9.80833">
        <ele>401</ele>
        <time>2022-05-24T04:31:48Z</time>
      </trkpt>
      <trkpt lat="48.77683" lon="9.80873">
        <ele>401</ele>
        <time>2022-05-24T04:31:56Z</time>
      </trkpt>
      <trkpt lat="48.7775" lon="9.80907">
        <ele>399</ele>
        <time>2022-05-24T04:32:09Z</time>
      </trkpt>
      <trkpt lat="48.77801" lon="9.80916">
        <ele>397</ele>
        <time>2022-05-24T04:32:18Z</time>
      </trkpt>
      <trkpt lat="48.78156" lon="9.80889">
        <ele>392</ele>
        <time>2022-05-24T04:33:21Z</time>
      </trkpt>
      <trkpt lat="48.78367" lon="9.80922">
        <ele>388</ele>
        <time>2022-05-24T04:33:59Z</time>
      </trkpt>
      <trkpt lat="48.78432" lon="9.8095">
        <ele>386</ele>
        <time>2022-05-24T04:34:11Z</time>
      </trkpt>
      <trkpt lat="48.78622" lon="9.81084">
        <ele>380</ele>
        <time>2022-05-24T04:34:48Z</time>
      </trkpt>
      <trkpt lat="48.78672" lon="9.81113">
        <ele>377</ele>
        <time>2022-05-24T04:34:58Z</time>
      </trkpt>
      <trkpt lat="48.78712" lon="9.81123">
        <ele>376</ele>
        <time>2022-05-24T04:35:05Z</time>
      </trkpt>
      <trkpt lat="48.7874" lon="9.81121">
        <ele>377</ele>
        <time>2022-05-24T04:35:10Z</time>
      </trkpt>
      <trkpt lat="48.78747" lon="9.81131">
        <ele>376</ele>
        <time>2022-05-24T04:35:12Z</time>
      </trkpt>
      <trkpt lat="48.78771" lon="9.81135">
        <ele>373</ele>
        <time>2022-05-24T04:35:16Z</time>
      </trkpt>
      <trkpt lat="48.788" lon="9.81192">
        <ele>359</ele>
        <time>2022-05-24T04:35:25Z</time>
      </trkpt>
      <trkpt lat="48.78821" lon="9.81191">
        <ele>356</ele>
        <time>2022-05-24T04:35:28Z</time>
      </trkpt>
      <trkpt lat="48.78855" lon="9.81164">
        <ele>356</ele>
        <time>2022-05-24T04:35:35Z</time>
      </trkpt>
      <trkpt lat="48.78857" lon="9.81174">
        <ele>354</ele>
        <time>2022-05-24T04:35:36Z</time>
      </trkpt>
      <trkpt lat="48.78852" lon="9.81187">
        <ele>353</ele>
        <time>2022-05-24T04:35:38Z</time>
      </trkpt>
      <trkpt lat="48.78828" lon="9.81232">
        <ele>350</ele>
        <time>2022-05-24T04:35:45Z</time>
      </trkpt>
      <trkpt lat="48.78841" lon="9.81241">
        <ele>348</ele>
        <time>2022-05-24T04:35:47Z</time>
      </trkpt>
      <trkpt lat="48.78862" lon="9.81245">
        <ele>346</ele>
        <time>2022-05-24T04:35:51Z</time>
      </trkpt>
      <trkpt lat="48.78881" lon="9.81229">
        <ele>347</ele>
        <time>2022-05-24T04:35:55Z</time>
      </trkpt>
      <trkpt lat="48.78888" lon="9.81243">
        <ele>345</ele>
        <time>2022-05-24T04:35:57Z</time>
      </trkpt>
      <trkpt lat="48.78942" lon="9.81282">
        <ele>341</ele>
        <time>2022-05-24T04:36:08Z</time>
      </trkpt>
      <trkpt lat="48.78912" lon="9.81389">
        <ele>340</ele>
        <time>2022-05-24T04:36:21Z</time>
      </trkpt>
      <trkpt lat="48.78904" lon="9.81391">
        <ele>340</ele>
        <time>2022-05-24T04:36:23Z</time>
      </trkpt>
      <trkpt lat="48.78899" lon="9.81402">
        <ele>340</ele>
        <time>2022-05-24T04:36:24Z</time>
      </trkpt>
      <trkpt lat="48.789" lon="9.81414">
        <ele>340</ele>
        <time>2022-05-24T04:36:26Z</time>
      </trkpt>
      <trkpt lat="48.78895" lon="9.81418">
        <ele>340</ele>
        <time>2022-05-24T04:36:27Z</time>
      </trkpt>
      <trkpt lat="48.78896" lon="9.8143">
        <ele>340</ele>
        <time>2022-05-24T04:36:28Z</time>
      </trkpt>
      <trkpt lat="48.78915" lon="9.81441">
        <ele>340</ele>
        <time>2022-05-24T04:36:32Z</time>
      </trkpt>
      <trkpt lat="48.78889" lon="9.81548">
        <ele>342</ele>
        <time>2022-05-24T04:36:45Z</time>
      </trkpt>
      <trkpt lat="48.78782" lon="9.82068">
        <ele>345</ele>
        <time>2022-05-24T04:37:49Z</time>
      </trkpt>
      <trkpt lat="48.78705" lon="9.82328">
        <ele>348</ele>
        <time>2022-05-24T04:38:22Z</time>
      </trkpt>
      <trkpt lat="48.78725" lon="9.82333">
        <ele>347</ele>
        <time>2022-05-24T04:38:26Z</time>
      </trkpt>
      <trkpt lat="48.78719" lon="9.82442">
        <ele>347</ele>
        <time>2022-05-24T04:38:39Z</time>
      </trkpt>
      <trkpt lat="48.78681" lon="9.82506">
        <ele>347</ele>
        <time>2022-05-24T04:38:49Z</time>
      </trkpt>
      <trkpt lat="48.7869" lon="9.82573">
        <ele>348</ele>
        <time>2022-05-24T04:38:57Z</time>
      </trkpt>
      <trkpt lat="48.78663" lon="9.82671">
        <ele>347</ele>
        <time>2022-05-24T04:39:09Z</time>
      </trkpt>
      <trkpt lat="48.78726" lon="9.82776">
        <ele>357</ele>
        <time>2022-05-24T04:39:26Z</time>
      </trkpt>
      <trkpt lat="48.78693" lon="9.82912">
        <ele>360</ele>
        <time>2022-05-24T04:39:43Z</time>
      </trkpt>
      <trkpt lat="48.78699" lon="9.82922">
        <ele>361</ele>
        <time>2022-05-24T04:39:45Z</time>
      </trkpt>
      <trkpt lat="48.78728" lon="9.82931">
        <ele>364</ele>
        <time>2022-05-24T04:39:50Z</time>
      </trkpt>
      <trkpt lat="48.78735" lon="9.82945">
        <ele>366</ele>
        <time>2022-05-24T04:39:52Z</time>
      </trkpt>
      <trkpt lat="48.78733" lon="9.82988">
        <ele>368</ele>
        <time>2022-05-24T04:39:57Z</time>
      </trkpt>
      <trkpt lat="48.78769" lon="9.83036">
        <ele>375</ele>
        <time>2022-05-24T04:40:06Z</time>
      </trkpt>
      <trkpt lat="48.78798" lon="9.83118">
        <ele>382</ele>
        <time>2022-05-24T04:40:17Z</time>
      </trkpt>
      <trkpt lat="48.78807" lon="9.83135">
        <ele>384</ele>
        <time>2022-05-24T04:40:19Z</time>
      </trkpt>
      <trkpt lat="48.78815" lon="9.8314">
        <ele>385</ele>
        <time>2022-05-24T04:40:21Z</time>
      </trkpt>
      <trkpt lat="48.78887" lon="9.83132">
        <ele>394</ele>
        <time>2022-05-24T04:40:33Z</time>
      </trkpt>
      <trkpt lat="48.78895" lon="9.83137">
        <ele>396</ele>
        <time>2022-05-24T04:40:35Z</time>
      </trkpt>
      <trkpt lat="48.78898" lon="9.83157">
        <ele>396</ele>
        <time>2022-05-24T04:40:37Z</time>
      </trkpt>
      <trkpt lat="48.78886" lon="9.83198">
        <ele>396</ele>
        <time>2022-05-24T04:40:43Z</time>
      </trkpt>
      <trkpt lat="48.78888" lon="9.8323">
        <ele>398</ele>
        <time>2022-05-24T04:40:46Z</time>
      </trkpt>
      <trkpt lat="48.78875" lon="9.83247">
        <ele>397</ele>
        <time>2022-05-24T04:40:49Z</time>
      </trkpt>
      <trkpt lat="48.78804" lon="9.83292">
        <ele>395</ele>
        <time>2022-05-24T04:41:03Z</time>
      </trkpt>
      <trkpt lat="48.78784" lon="9.83312">
        <ele>396</ele>
        <time>2022-05-24T04:41:07Z</time>
      </trkpt>
      <trkpt lat="48.78805" lon="9.83332">
        <ele>399</ele>
        <time>2022-05-24T04:41:12Z</time>
      </trkpt>
      <trkpt lat="48.78877" lon="9.8347">
        <ele>413</ele>
        <time>2022-05-24T04:41:32Z</time>
      </trkpt>
      <trkpt lat="48.78895" lon="9.83447">
        <ele>413</ele>
        <time>2022-05-24T04:41:37Z</time>
      </trkpt>
      <trkpt lat="48.7895" lon="9.83499">
        <ele>416</ele>
        <time>2022-05-24T04:41:48Z</time>
      </trkpt>
      <trkpt lat="48.78948" lon="9.83515">
        <ele>416</ele>
        <time>2022-05-24T04:41:50Z</time>
      </trkpt>
      <trkpt lat="48.78953" lon="9.83524">
        <ele>417</ele>
        <time>2022-05-24T04:41:51Z</time>
      </trkpt>
      <trkpt lat="48.78963" lon="9.83526">
        <ele>417</ele>
        <time>2022-05-24T04:41:53Z</time>
      </trkpt>
      <trkpt lat="48.78968" lon="9.83519">
        <ele>417</ele>
        <time>2022-05-24T04:41:54Z</time>
      </trkpt>
      <trkpt lat="48.78975" lon="9.83526">
        <ele>417</ele>
        <time>2022-05-24T04:41:56Z</time>
      </trkpt>
      <trkpt lat="48.78979" lon="9.83517">
        <ele>417</ele>
        <time>2022-05-24T04:41:57Z</time>
      </trkpt>
      <trkpt lat="48.79013" lon="9.83562">
        <ele>419</ele>
        <time>2022-05-24T04:42:05Z</time>
      </trkpt>
      <trkpt lat="48.79029" lon="9.83615">
        <ele>420</ele>
        <time>2022-05-24T04:42:12Z</time>
      </trkpt>
      <trkpt lat="48.79029" lon="9.83627">
        <ele>420</ele>
        <time>2022-05-24T04:42:14Z</time>
      </trkpt>
      <trkpt lat="48.7902" lon="9.83628">
        <ele>420</ele>
        <time>2022-05-24T04:42:15Z</time>
      </trkpt>
      <trkpt lat="48.79029" lon="9.83773">
        <ele>420</ele>
        <time>2022-05-24T04:42:32Z</time>
      </trkpt>
      <trkpt lat="48.79033" lon="9.8379">
        <ele>421</ele>
        <time>2022-05-24T04:42:34Z</time>
      </trkpt>
      <trkpt lat="48.7905" lon="9.83813">
        <ele>421</ele>
        <time>2022-05-24T04:42:38Z</time>
      </trkpt>
      <trkpt lat="48.79061" lon="9.83817">
        <ele>422</ele>
        <time>2022-05-24T04:42:40Z</time>
      </trkpt>
      <trkpt lat="48.79188" lon="9.8381">
        <ele>424</ele>
        <time>2022-05-24T04:43:03Z</time>
      </trkpt>
      <trkpt lat="48.79235" lon="9.83812">
        <ele>426</ele>
        <time>2022-05-24T04:43:11Z</time>
      </trkpt>
      <trkpt lat="48.79246" lon="9.83824">
        <ele>427</ele>
        <time>2022-05-24T04:43:14Z</time>
      </trkpt>
      <trkpt lat="48.79253" lon="9.8385">
        <ele>427</ele>
        <time>2022-05-24T04:43:17Z</time>
      </trkpt>
      <trkpt lat="48.79254" lon="9.83969">
        <ele>427</ele>
        <time>2022-05-24T04:43:31Z</time>
      </trkpt>
      <trkpt lat="48.79258" lon="9.83978">
        <ele>427</ele>
        <time>2022-05-24T04:43:32Z</time>
      </trkpt>
      <trkpt lat="48.79274" lon="9.83987">
        <ele>428</ele>
        <time>2022-05-24T04:43:35Z</time>
      </trkpt>
      <trkpt lat="48.79385" lon="9.83983">
        <ele>430</ele>
        <time>2022-05-24T04:43:55Z</time>
      </trkpt>
      <trkpt lat="48.79385" lon="9.84007">
        <ele>431</ele>
        <time>2022-05-24T04:43:58Z</time>
      </trkpt>
      <trkpt lat="48.79437" lon="9.84006">
        <ele>429</ele>
        <time>2022-05-24T04:44:07Z</time>
      </trkpt>
      <trkpt lat="48.79446" lon="9.84009">
        <ele>429</ele>
        <time>2022-05-24T04:44:09Z</time>
      </trkpt>
      <trkpt lat="48.79451" lon="9.84027">
        <ele>429</ele>
        <time>2022-05-24T04:44:11Z</time>
      </trkpt>
      <trkpt lat="48.79466" lon="9.84022">
        <ele>428</ele>
        <time>2022-05-24T04:44:14Z</time>
      </trkpt>
      <trkpt lat="48.79483" lon="9.83995">
        <ele>427</ele>
        <time>2022-05-24T04:44:18Z</time>
      </trkpt>
      <trkpt lat="48.7957" lon="9.8436">
        <ele>424</ele>
        <time>2022-05-24T04:45:04Z</time>
      </trkpt>
      <trkpt lat="48.79565" lon="9.84389">
        <ele>425</ele>
        <time>2022-05-24T04:45:07Z</time>
      </trkpt>
      <trkpt lat="48.79568" lon="9.84548">
        <ele>428</ele>
        <time>2022-05-24T04:45:26Z</time>
      </trkpt>
      <trkpt lat="48.79624" lon="9.84538">
        <ele>426</ele>
        <time>2022-05-24T04:45:36Z</time>
      </trkpt>
      <trkpt lat="48.79628" lon="9.8461">
        <ele>427</ele>
        <time>2022-05-24T04:45:44Z</time>
      </trkpt>
      <trkpt lat="48.79648" lon="9.84696">
        <ele>428</ele>
        <time>2022-05-24T04:45:55Z</time>
      </trkpt>
      <trkpt lat="48.79676" lon="9.84685">
        <ele>427</ele>
        <time>2022-05-24T04:46:00Z</time>
      </trkpt>
      <trkpt lat="48.79764" lon="9.84682">
        <ele>427</ele>
        <time>2022-05-24T04:46:16Z</time>
      </trkpt>
      <trkpt lat="48.79827" lon="9.84691">
        <ele>428</ele>
        <time>2022-05-24T04:46:27Z</time>
      </trkpt>
      <trkpt lat="48.79859" lon="9.84714">
        <ele>429</ele>
        <time>2022-05-24T04:46:33Z</time>
      </trkpt>
      <trkpt lat="48.79954" lon="9.84842">
        <ele>428</ele>
        <time>2022-05-24T04:46:56Z</time>
      </trkpt>
      <trkpt lat="48.80002" lon="9.84896">
        <ele>426</ele>
        <time>2022-05-24T04:47:07Z</time>
      </trkpt>
      <trkpt lat="48.80055" lon="9.84942">
        <ele>424</ele>
        <time>2022-05-24T04:47:17Z</time>
      </trkpt>
      <trkpt lat="48.80088" lon="9.84936">
        <ele>424</ele>
        <time>2022-05-24T04:47:23Z</time>
      </trkpt>
      <trkpt lat="48.80108" lon="9.84938">
        <ele>424</ele>
        <time>2022-05-24T04:47:27Z</time>
      </trkpt>
      <trkpt lat="48.80128" lon="9.84949">
        <ele>424</ele>
        <time>2022-05-24T04:47:31Z</time>
      </trkpt>
      <trkpt lat="48.80176" lon="9.8501">
        <ele>422</ele>
        <time>2022-05-24T04:47:42Z</time>
      </trkpt>
      <trkpt lat="48.80183" lon="9.85042">
        <ele>418</ele>
        <time>2022-05-24T04:47:46Z</time>
      </trkpt>
      <trkpt lat="48.80182" lon="9.85069">
        <ele>416</ele>
        <time>2022-05-24T04:47:49Z</time>
      </trkpt>
      <trkpt lat="48.80173" lon="9.85116">
        <ele>411</ele>
        <time>2022-05-24T04:47:55Z</time>
      </trkpt>
      <trkpt lat="48.80239" lon="9.85126">
        <ele>404</ele>
        <time>2022-05-24T04:48:07Z</time>
      </trkpt>
      <trkpt lat="48.80292" lon="9.85121">
        <ele>393</ele>
        <time>2022-05-24T04:48:16Z</time>
      </trkpt>
      <trkpt lat="48.80342" lon="9.85103">
        <ele>383</ele>
        <time>2022-05-24T04:48:25Z</time>
      </trkpt>
      <trkpt lat="48.80388" lon="9.85058">
        <ele>371</ele>
        <time>2022-05-24T04:48:35Z</time>
      </trkpt>
      <trkpt lat="48.80402" lon="9.85059">
        <ele>368</ele>
        <time>2022-05-24T04:48:37Z</time>
      </trkpt>
      <trkpt lat="48.80411" lon="9.85068">
        <ele>365</ele>
        <time>2022-05-24T04:48:39Z</time>
      </trkpt>
      <trkpt lat="48.80445" lon="9.85131">
        <ele>357</ele>
        <time>2022-05-24T04:48:49Z</time>
      </trkpt>
      <trkpt lat="48.80459" lon="9.85132">
        <ele>355</ele>
        <time>2022-05-24T04:48:51Z</time>
      </trkpt>
      <trkpt lat="48.80501" lon="9.85153">
        <ele>349</ele>
        <time>2022-05-24T04:48:59Z</time>
      </trkpt>
      <trkpt lat="48.80544" lon="9.85361">
        <ele>362</ele>
        <time>2022-05-24T04:49:25Z</time>
      </trkpt>
      <trkpt lat="48.80615" lon="9.85597">
        <ele>358</ele>
        <time>2022-05-24T04:49:55Z</time>
      </trkpt>
      <trkpt lat="48.80626" lon="9.85654">
        <ele>359</ele>
        <time>2022-05-24T04:50:02Z</time>
      </trkpt>
      <trkpt lat="48.80638" lon="9.8569">
        <ele>361</ele>
        <time>2022-05-24T04:50:07Z</time>
      </trkpt>
      <trkpt lat="48.8069" lon="9.85762">
        <ele>364</ele>
        <time>2022-05-24T04:50:19Z</time>
      </trkpt>
      <trkpt lat="48.80797" lon="9.85963">
        <ele>361</ele>
        <time>2022-05-24T04:50:50Z</time>
      </trkpt>
      <trkpt lat="48.8085" lon="9.86079">
        <ele>360</ele>
        <time>2022-05-24T04:51:06Z</time>
      </trkpt>
      <trkpt lat="48.80999" lon="9.86446">
        <ele>356</ele>
        <time>2022-05-24T04:51:57Z</time>
      </trkpt>
      <trkpt lat="48.81047" lon="9.86606">
        <ele>365</ele>
        <time>2022-05-24T04:52:17Z</time>
      </trkpt>
      <trkpt lat="48.81157" lon="9.87083">
        <ele>369</ele>
        <time>2022-05-24T04:53:17Z</time>
      </trkpt>
      <trkpt lat="48.81163" lon="9.87149">
        <ele>370</ele>
        <time>2022-05-24T04:53:24Z</time>
      </trkpt>
      <trkpt lat="48.81169" lon="9.87178">
        <ele>370</ele>
        <time>2022-05-24T04:53:28Z</time>
      </trkpt>
      <trkpt lat="48.81181" lon="9.87195">
        <ele>368</ele>
        <time>2022-05-24T04:53:31Z</time>
      </trkpt>
      <trkpt lat="48.81194" lon="9.87196">
        <ele>366</ele>
        <time>2022-05-24T04:53:33Z</time>
      </trkpt>
      <trkpt lat="48.81215" lon="9.87175">
        <ele>361</ele>
        <time>2022-05-24T04:53:38Z</time>
      </trkpt>
      <trkpt lat="48.81223" lon="9.87205">
        <ele>361</ele>
        <time>2022-05-24T04:53:41Z</time>
      </trkpt>
      <trkpt lat="48.81276" lon="9.87301">
        <ele>358</ele>
        <time>2022-05-24T04:53:56Z</time>
      </trkpt>
      <trkpt lat="48.81283" lon="9.87324">
        <ele>358</ele>
        <time>2022-05-24T04:53:59Z</time>
      </trkpt>
      <trkpt lat="48.81296" lon="9.87495">
        <ele>363</ele>
        <time>2022-05-24T04:54:19Z</time>
      </trkpt>
      <trkpt lat="48.81303" lon="9.87622">
        <ele>363</ele>
        <time>2022-05-24T04:54:34Z</time>
      </trkpt>
      <trkpt lat="48.81339" lon="9.87725">
        <ele>363</ele>
        <time>2022-05-24T04:54:48Z</time>
      </trkpt>
      <trkpt lat="48.81358" lon="9.87806">
        <ele>365</ele>
        <time>2022-05-24T04:54:58Z</time>
      </trkpt>
      <trkpt lat="48.81376" lon="9.87812">
        <ele>365</ele>
        <time>2022-05-24T04:55:01Z</time>
      </trkpt>
      <trkpt lat="48.81444" lon="9.87785">
        <ele>362</ele>
        <time>2022-05-24T04:55:14Z</time>
      </trkpt>
      <trkpt lat="48.8147" lon="9.87793">
        <ele>362</ele>
        <time>2022-05-24T04:55:18Z</time>
      </trkpt>
      <trkpt lat="48.81507" lon="9.87796">
        <ele>361</ele>
        <time>2022-05-24T04:55:25Z</time>
      </trkpt>
      <trkpt lat="48.81547" lon="9.87777">
        <ele>361</ele>
        <time>2022-05-24T04:55:32Z</time>
      </trkpt>
      <trkpt lat="48.81596" lon="9.8774">
        <ele>360</ele>
        <time>2022-05-24T04:55:42Z</time>
      </trkpt>
      <trkpt lat="48.81711" lon="9.87888">
        <ele>360</ele>
        <time>2022-05-24T04:56:09Z</time>
      </trkpt>
      <trkpt lat="48.81734" lon="9.87923">
        <ele>360</ele>
        <time>2022-05-24T04:56:15Z</time>
      </trkpt>
      <trkpt lat="48.8175" lon="9.87966">
        <ele>360</ele>
        <time>2022-05-24T04:56:21Z</time>
      </trkpt>
      <trkpt lat="48.81753" lon="9.88009">
        <ele>360</ele>
        <time>2022-05-24T04:56:26Z</time>
      </trkpt>
      <trkpt lat="48.81744" lon="9.88056">
        <ele>361</ele>
        <time>2022-05-24T04:56:31Z</time>
      </trkpt>
      <trkpt lat="48.81718" lon="9.881">
        <ele>361</ele>
        <time>2022-05-24T04:56:38Z</time>
      </trkpt>
      <trkpt lat="48.81713" lon="9.88119">
        <ele>362</ele>
        <time>2022-05-24T04:56:41Z</time>
      </trkpt>
      <trkpt lat="48.81704" lon="9.8824">
        <ele>364</ele>
        <time>2022-05-24T04:56:55Z</time>
      </trkpt>
      <trkpt lat="48.81763" lon="9.88383">
        <ele>369</ele>
        <time>2022-05-24T04:57:15Z</time>
      </trkpt>
      <trkpt lat="48.81792" lon="9.8848">
        <ele>373</ele>
        <time>2022-05-24T04:57:27Z</time>
      </trkpt>
      <trkpt lat="48.81805" lon="9.88489">
        <ele>371</ele>
        <time>2022-05-24T04:57:30Z</time>
      </trkpt>
      <trkpt lat="48.81828" lon="9.88473">
        <ele>367</ele>
        <time>2022-05-24T04:57:34Z</time>
      </trkpt>
      <trkpt lat="48.81842" lon="9.88471">
        <ele>365</ele>
        <time>2022-05-24T04:57:37Z</time>
      </trkpt>
      <trkpt lat="48.81851" lon="9.8848">
        <ele>365</ele>
        <time>2022-05-24T04:57:39Z</time>
      </trkpt>
      <trkpt lat="48.81874" lon="9.88542">
        <ele>368</ele>
        <time>2022-05-24T04:57:47Z</time>
      </trkpt>
      <trkpt lat="48.81887" lon="9.88554">
        <ele>367</ele>
        <time>2022-05-24T04:57:50Z</time>
      </trkpt>
      <trkpt lat="48.81989" lon="9.8879">
        <ele>365</ele>
        <time>2022-05-24T04:58:23Z</time>
      </trkpt>
      <trkpt lat="48.82015" lon="9.88815">
        <ele>364</ele>
        <time>2022-05-24T04:58:28Z</time>
      </trkpt>
      <trkpt lat="48.82032" lon="9.88814">
        <ele>364</ele>
        <time>2022-05-24T04:58:31Z</time>
      </trkpt>
      <trkpt lat="48.82072" lon="9.88778">
        <ele>365</ele>
        <time>2022-05-24T04:58:40Z</time>
      </trkpt>
      <trkpt lat="48.82148" lon="9.88955">
        <ele>366</ele>
        <time>2022-05-24T04:59:04Z</time>
      </trkpt>
      <trkpt lat="48.8215" lon="9.88949">
        <ele>366</ele>
        <time>2022-05-24T04:59:05Z</time>
      </trkpt>
      <trkpt lat="48.82165" lon="9.8898">
        <ele>367</ele>
        <time>2022-05-24T04:59:10Z</time>
      </trkpt>
      <trkpt lat="48.82199" lon="9.89036">
        <ele>368</ele>
        <time>2022-05-24T04:59:19Z</time>
      </trkpt>
      <trkpt lat="48.82277" lon="9.89134">
        <ele>370</ele>
        <time>2022-05-24T04:59:37Z</time>
      </trkpt>
      <trkpt lat="48.82292" lon="9.8916">
        <ele>371</ele>
        <time>2022-05-24T04:59:41Z</time>
      </trkpt>
      <trkpt lat="48.82318" lon="9.89232">
        <ele>372</ele>
        <time>2022-05-24T04:59:50Z</time>
      </trkpt>
      <trkpt lat="48.82335" lon="9.89306">
        <ele>372</ele>
        <time>2022-05-24T04:59:59Z</time>
      </trkpt>
      <trkpt lat="48.82337" lon="9.89375">
        <ele>372</ele>
        <time>2022-05-24T05:00:08Z</time>
      </trkpt>
      <trkpt lat="48.82326" lon="9.89396">
        <ele>371</ele>
        <time>2022-05-24T05:00:11Z</time>
      </trkpt>
      <trkpt lat="48.82334" lon="9.89408">
        <ele>372</ele>
        <time>2022-05-24T05:00:13Z</time>
      </trkpt>
      <trkpt lat="48.82336" lon="9.89426">
        <ele>372</ele>
        <time>2022-05-24T05:00:15Z</time>
      </trkpt>
      <trkpt lat="48.82325" lon="9.89472">
        <ele>373</ele>
        <time>2022-05-24T05:00:21Z</time>
      </trkpt>
      <trkpt lat="48.82321" lon="9.89544">
        <ele>372</ele>
        <time>2022-05-24T05:00:29Z</time>
      </trkpt>
      <trkpt lat="48.82344" lon="9.89675">
        <ele>371</ele>
        <time>2022-05-24T05:00:45Z</time>
      </trkpt>
      <trkpt lat="48.82351" lon="9.8975">
        <ele>372</ele>
        <time>2022-05-24T05:00:54Z</time>
      </trkpt>
      <trkpt lat="48.82345" lon="9.89872">
        <ele>373</ele>
        <time>2022-05-24T05:01:08Z</time>
      </trkpt>
      <trkpt lat="48.82334" lon="9.89944">
        <ele>373</ele>
        <time>2022-05-24T05:01:17Z</time>
      </trkpt>
      <trkpt lat="48.82287" lon="9.90091">
        <ele>372</ele>
        <time>2022-05-24T05:01:36Z</time>
      </trkpt>
      <trkpt lat="48.82249" lon="9.90455">
        <ele>376</ele>
        <time>2022-05-24T05:02:19Z</time>
      </trkpt>
      <trkpt lat="48.82236" lon="9.90688">
        <ele>379</ele>
        <time>2022-05-24T05:02:46Z</time>
      </trkpt>
      <trkpt lat="48.82193" lon="9.90879">
        <ele>378</ele>
        <time>2022-05-24T05:03:10Z</time>
      </trkpt>
      <trkpt lat="48.82187" lon="9.90965">
        <ele>379</ele>
        <time>2022-05-24T05:03:20Z</time>
      </trkpt>
      <trkpt lat="48.82209" lon="9.913">
        <ele>380</ele>
        <time>2022-05-24T05:04:00Z</time>
      </trkpt>
      <trkpt lat="48.82213" lon="9.91419">
        <ele>381</ele>
        <time>2022-05-24T05:04:14Z</time>
      </trkpt>
      <trkpt lat="48.82218" lon="9.91445">
        <ele>381</ele>
        <time>2022-05-24T05:04:17Z</time>
      </trkpt>
      <trkpt lat="48.82234" lon="9.91477">
        <ele>382</ele>
        <time>2022-05-24T05:04:21Z</time>
      </trkpt>
      <trkpt lat="48.82261" lon="9.91506">
        <ele>385</ele>
        <time>2022-05-24T05:04:27Z</time>
      </trkpt>
      <trkpt lat="48.82268" lon="9.91532">
        <ele>387</ele>
        <time>2022-05-24T05:04:31Z</time>
      </trkpt>
      <trkpt lat="48.82268" lon="9.91553">
        <ele>387</ele>
        <time>2022-05-24T05:04:33Z</time>
      </trkpt>
      <trkpt lat="48.82244" lon="9.91783">
        <ele>385</ele>
        <time>2022-05-24T05:05:00Z</time>
      </trkpt>
      <trkpt lat="48.82257" lon="9.91788">
        <ele>386</ele>
        <time>2022-05-24T05:05:03Z</time>
      </trkpt>
      <trkpt lat="48.82279" lon="9.91767">
        <ele>387</ele>
        <time>2022-05-24T05:05:07Z</time>
      </trkpt>
      <trkpt lat="48.82306" lon="9.91711">
        <ele>391</ele>
        <time>2022-05-24T05:05:16Z</time>
      </trkpt>
      <trkpt lat="48.82319" lon="9.91646">
        <ele>395</ele>
        <time>2022-05-24T05:05:24Z</time>
      </trkpt>
      <trkpt lat="48.82332" lon="9.9164">
        <ele>396</ele>
        <time>2022-05-24T05:05:26Z</time>
      </trkpt>
      <trkpt lat="48.82344" lon="9.91654">
        <ele>398</ele>
        <time>2022-05-24T05:05:29Z</time>
      </trkpt>
      <trkpt lat="48.82359" lon="9.91727">
        <ele>398</ele>
        <time>2022-05-24T05:05:38Z</time>
      </trkpt>
      <trkpt lat="48.82369" lon="9.91757">
        <ele>399</ele>
        <time>2022-05-24T05:05:42Z</time>
      </trkpt>
      <trkpt lat="48.82403" lon="9.91814">
        <ele>402</ele>
        <time>2022-05-24T05:05:51Z</time>
      </trkpt>
      <trkpt lat="48.82432" lon="9.91834">
        <ele>405</ele>
        <time>2022-05-24T05:05:56Z</time>
      </trkpt>
      <trkpt lat="48.82501" lon="9.91862">
        <ele>413</ele>
        <time>2022-05-24T05:06:09Z</time>
      </trkpt>
      <trkpt lat="48.82542" lon="9.91858">
        <ele>416</ele>
        <time>2022-05-24T05:06:16Z</time>
      </trkpt>
      <trkpt lat="48.82589" lon="9.91819">
        <ele>420</ele>
        <time>2022-05-24T05:06:26Z</time>
      </trkpt>
      <trkpt lat="48.82746" lon="9.91698">
        <ele>427</ele>
        <time>2022-05-24T05:06:57Z</time>
      </trkpt>
      <trkpt lat="48.82763" lon="9.91739">
        <ele>428</ele>
        <time>2022-05-24T05:07:03Z</time>
      </trkpt>
      <trkpt lat="48.82771" lon="9.91875">
        <ele>431</ele>
        <time>2022-05-24T05:07:19Z</time>
      </trkpt>
      <trkpt lat="48.82777" lon="9.91891">
        <ele>431</ele>
        <time>2022-05-24T05:07:21Z</time>
      </trkpt>
      <trkpt lat="48.82787" lon="9.919">
        <ele>432</ele>
        <time>2022-05-24T05:07:23Z</time>
      </trkpt>
      <trkpt lat="48.82834" lon="9.91877">
        <ele>435</ele>
        <time>2022-05-24T05:07:32Z</time>
      </trkpt>
      <trkpt lat="48.82853" lon="9.91879">
        <ele>436</ele>
        <time>2022-05-24T05:07:35Z</time>
      </trkpt>
      <trkpt lat="48.82861" lon="9.91889">
        <ele>437</ele>
        <time>2022-05-24T05:07:37Z</time>
      </trkpt>
      <trkpt lat="48.82889" lon="9.91977">
        <ele>439</ele>
        <time>2022-05-24T05:07:48Z</time>
      </trkpt>
      <trkpt lat="48.82931" lon="9.92073">
        <ele>439</ele>
        <time>2022-05-24T05:08:02Z</time>
      </trkpt>
      <trkpt lat="48.82953" lon="9.92141">
        <ele>436</ele>
        <time>2022-05-24T05:08:11Z</time>
      </trkpt>
      <trkpt lat="48.82982" lon="9.92205">
        <ele>435</ele>
        <time>2022-05-24T05:08:20Z</time>
      </trkpt>
      <trkpt lat="48.82998" lon="9.9228">
        <ele>437</ele>
        <time>2022-05-24T05:08:29Z</time>
      </trkpt>
      <trkpt lat="48.83054" lon="9.92454">
        <ele>442</ele>
        <time>2022-05-24T05:08:52Z</time>
      </trkpt>
      <trkpt lat="48.83066" lon="9.92475">
        <ele>442</ele>
        <time>2022-05-24T05:08:55Z</time>
      </trkpt>
      <trkpt lat="48.831" lon="9.92502">
        <ele>444</ele>
        <time>2022-05-24T05:09:02Z</time>
      </trkpt>
      <trkpt lat="48.83109" lon="9.92528">
        <ele>444</ele>
        <time>2022-05-24T05:09:05Z</time>
      </trkpt>
      <trkpt lat="48.83115" lon="9.92561">
        <ele>444</ele>
        <time>2022-05-24T05:09:09Z</time>
      </trkpt>
      <trkpt lat="48.83161" lon="9.92717">
        <ele>449</ele>
        <time>2022-05-24T05:09:29Z</time>
      </trkpt>
      <trkpt lat="48.83301" lon="9.9311">
        <ele>456</ele>
        <time>2022-05-24T05:10:22Z</time>
      </trkpt>
      <trkpt lat="48.83316" lon="9.93127">
        <ele>458</ele>
        <time>2022-05-24T05:10:25Z</time>
      </trkpt>
      <trkpt lat="48.8334" lon="9.93132">
        <ele>460</ele>
        <time>2022-05-24T05:10:29Z</time>
      </trkpt>
      <trkpt lat="48.83382" lon="9.93131">
        <ele>462</ele>
        <time>2022-05-24T05:10:37Z</time>
      </trkpt>
      <trkpt lat="48.83404" lon="9.93157">
        <ele>463</ele>
        <time>2022-05-24T05:10:42Z</time>
      </trkpt>
      <trkpt lat="48.8343" lon="9.93238">
        <ele>465</ele>
        <time>2022-05-24T05:10:52Z</time>
      </trkpt>
      <trkpt lat="48.83495" lon="9.93413">
        <ele>472</ele>
        <time>2022-05-24T05:11:16Z</time>
      </trkpt>
      <trkpt lat="48.83506" lon="9.93445">
        <ele>473</ele>
        <time>2022-05-24T05:11:20Z</time>
      </trkpt>
      <trkpt lat="48.83512" lon="9.93485">
        <ele>472</ele>
        <time>2022-05-24T05:11:25Z</time>
      </trkpt>
      <trkpt lat="48.83512" lon="9.93576">
        <ele>469</ele>
        <time>2022-05-24T05:11:36Z</time>
      </trkpt>
      <trkpt lat="48.83516" lon="9.93599">
        <ele>469</ele>
        <time>2022-05-24T05:11:38Z</time>
      </trkpt>
      <trkpt lat="48.83511" lon="9.93636">
        <ele>469</ele>
        <time>2022-05-24T05:11:43Z</time>
      </trkpt>
      <trkpt lat="48.83536" lon="9.93773">
        <ele>470</ele>
        <time>2022-05-24T05:11:59Z</time>
      </trkpt>
      <trkpt lat="48.83548" lon="9.93813">
        <ele>471</ele>
        <time>2022-05-24T05:12:05Z</time>
      </trkpt>
      <trkpt lat="48.83726" lon="9.94326">
        <ele>478</ele>
        <time>2022-05-24T05:13:12Z</time>
      </trkpt>
      <trkpt lat="48.83787" lon="9.94533">
        <ele>482</ele>
        <time>2022-05-24T05:13:39Z</time>
      </trkpt>
      <trkpt lat="48.838" lon="9.94699">
        <ele>481</ele>
        <time>2022-05-24T05:13:59Z</time>
      </trkpt>
      <trkpt lat="48.83824" lon="9.94755">
        <ele>480</ele>
        <time>2022-05-24T05:14:06Z</time>
      </trkpt>
      <trkpt lat="48.83825" lon="9.94827">
        <ele>486</ele>
        <time>2022-05-24T05:14:15Z</time>
      </trkpt>
      <trkpt lat="48.83811" lon="9.94956">
        <ele>489</ele>
        <time>2022-05-24T05:14:30Z</time>
      </trkpt>
      <trkpt lat="48.83771" lon="9.95022">
        <ele>487</ele>
        <time>2022-05-24T05:14:41Z</time>
      </trkpt>
      <trkpt lat="48.8377" lon="9.95036">
        <ele>487</ele>
        <time>2022-05-24T05:14:42Z</time>
      </trkpt>
      <trkpt lat="48.837" lon="9.95112">
        <ele>478</ele>
        <time>2022-05-24T05:14:58Z</time>
      </trkpt>
      <trkpt lat="48.83674" lon="9.95042">
        <ele>475</ele>
        <time>2022-05-24T05:15:07Z</time>
      </trkpt>
      <trkpt lat="48.837" lon="9.95112">
        <ele>478</ele>
        <time>2022-05-24T05:15:16Z</time>
      </trkpt>
      <trkpt lat="48.83618" lon="9.9519">
        <ele>469</ele>
        <time>2022-05-24T05:15:34Z</time>
      </trkpt>
      <trkpt lat="48.83767" lon="9.95497">
        <ele>468</ele>
        <time>2022-05-24T05:16:18Z</time>
      </trkpt>
      <trkpt lat="48.83815" lon="9.95687">
        <ele>467</ele>
        <time>2022-05-24T05:16:42Z</time>
      </trkpt>
      <trkpt lat="48.83824" lon="9.95691">
        <ele>467</ele>
        <time>2022-05-24T05:16:44Z</time>
      </trkpt>
      <trkpt lat="48.83847" lon="9.95667">
        <ele>468</ele>
        <time>2022-05-24T05:16:49Z</time>
      </trkpt>
      <trkpt lat="48.8386" lon="9.95683">
        <ele>468</ele>
        <time>2022-05-24T05:16:52Z</time>
      </trkpt>
      <trkpt lat="48.8387" lon="9.9572">
        <ele>467</ele>
        <time>2022-05-24T05:16:57Z</time>
      </trkpt>
      <trkpt lat="48.83882" lon="9.95949">
        <ele>464</ele>
        <time>2022-05-24T05:17:23Z</time>
      </trkpt>
      <trkpt lat="48.83894" lon="9.96304">
        <ele>460</ele>
        <time>2022-05-24T05:18:05Z</time>
      </trkpt>
      <trkpt lat="48.83901" lon="9.96356">
        <ele>459</ele>
        <time>2022-05-24T05:18:11Z</time>
      </trkpt>
      <trkpt lat="48.83968" lon="9.96619">
        <ele>463</ele>
        <time>2022-05-24T05:18:44Z</time>
      </trkpt>
      <trkpt lat="48.83973" lon="9.96751">
        <ele>457</ele>
        <time>2022-05-24T05:19:00Z</time>
      </trkpt>
      <trkpt lat="48.84012" lon="9.96774">
        <ele>458</ele>
        <time>2022-05-24T05:19:07Z</time>
      </trkpt>
      <trkpt lat="48.84026" lon="9.9679">
        <ele>457</ele>
        <time>2022-05-24T05:19:10Z</time>
      </trkpt>
      <trkpt lat="48.84113" lon="9.96915">
        <ele>455</ele>
        <time>2022-05-24T05:19:32Z</time>
      </trkpt>
      <trkpt lat="48.84162" lon="9.96994">
        <ele>457</ele>
        <time>2022-05-24T05:19:44Z</time>
      </trkpt>
      <trkpt lat="48.84322" lon="9.97365">
        <ele>457</ele>
        <time>2022-05-24T05:20:36Z</time>
      </trkpt>
      <trkpt lat="48.84347" lon="9.97408">
        <ele>458</ele>
        <time>2022-05-24T05:20:43Z</time>
      </trkpt>
      <trkpt lat="48.84362" lon="9.97423">
        <ele>459</ele>
        <time>2022-05-24T05:20:46Z</time>
      </trkpt>
      <trkpt lat="48.84424" lon="9.97455">
        <ele>463</ele>
        <time>2022-05-24T05:20:58Z</time>
      </trkpt>
      <trkpt lat="48.84548" lon="9.97467">
        <ele>476</ele>
        <time>2022-05-24T05:21:20Z</time>
      </trkpt>
      <trkpt lat="48.84557" lon="9.97481">
        <ele>477</ele>
        <time>2022-05-24T05:21:22Z</time>
      </trkpt>
      <trkpt lat="48.84545" lon="9.97567">
        <ele>477</ele>
        <time>2022-05-24T05:21:33Z</time>
      </trkpt>
      <trkpt lat="48.84544" lon="9.977">
        <ele>478</ele>
        <time>2022-05-24T05:21:48Z</time>
      </trkpt>
      <trkpt lat="48.84573" lon="9.97884">
        <ele>482</ele>
        <time>2022-05-24T05:22:10Z</time>
      </trkpt>
      <trkpt lat="48.84573" lon="9.98016">
        <ele>487</ele>
        <time>2022-05-24T05:22:26Z</time>
      </trkpt>
      <trkpt lat="48.84571" lon="9.98049">
        <ele>487</ele>
        <time>2022-05-24T05:22:30Z</time>
      </trkpt>
      <trkpt lat="48.84558" lon="9.9812">
        <ele>485</ele>
        <time>2022-05-24T05:22:38Z</time>
      </trkpt>
      <trkpt lat="48.84553" lon="9.98466">
        <ele>485</ele>
        <time>2022-05-24T05:23:19Z</time>
      </trkpt>
      <trkpt lat="48.84627" lon="9.98459">
        <ele>480</ele>
        <time>2022-05-24T05:23:32Z</time>
      </trkpt>
      <trkpt lat="48.84671" lon="9.98435">
        <ele>478</ele>
        <time>2022-05-24T05:23:40Z</time>
      </trkpt>
      <trkpt lat="48.84786" lon="9.98423">
        <ele>476</ele>
        <time>2022-05-24T05:24:01Z</time>
      </trkpt>
      <trkpt lat="48.84802" lon="9.98415">
        <ele>475</ele>
        <time>2022-05-24T05:24:04Z</time>
      </trkpt>
      <trkpt lat="48.84851" lon="9.98366">
        <ele>472</ele>
        <time>2022-05-24T05:24:14Z</time>
      </trkpt>
      <trkpt lat="48.84886" lon="9.98327">
        <ele>470</ele>
        <time>2022-05-24T05:24:22Z</time>
      </trkpt>
      <trkpt lat="48.8493" lon="9.98259">
        <ele>468</ele>
        <time>2022-05-24T05:24:33Z</time>
      </trkpt>
      <trkpt lat="48.84958" lon="9.98229">
        <ele>470</ele>
        <time>2022-05-24T05:24:39Z</time>
      </trkpt>
      <trkpt lat="48.85132" lon="9.98141">
        <ele>475</ele>
        <time>2022-05-24T05:25:12Z</time>
      </trkpt>
      <trkpt lat="48.85147" lon="9.98127">
        <ele>476</ele>
        <time>2022-05-24T05:25:15Z</time>
      </trkpt>
      <trkpt lat="48.85229" lon="9.98025">
        <ele>479</ele>
        <time>2022-05-24T05:25:34Z</time>
      </trkpt>
      <trkpt lat="48.85266" lon="9.98012">
        <ele>480</ele>
        <time>2022-05-24T05:25:41Z</time>
      </trkpt>
      <trkpt lat="48.85301" lon="9.9801">
        <ele>482</ele>
        <time>2022-05-24T05:25:47Z</time>
      </trkpt>
      <trkpt lat="48.85371" lon="9.97985">
        <ele>478</ele>
        <time>2022-05-24T05:26:00Z</time>
      </trkpt>
      <trkpt lat="48.85389" lon="9.97968">
        <ele>475</ele>
        <time>2022-05-24T05:26:03Z</time>
      </trkpt>
      <trkpt lat="48.85435" lon="9.97883">
        <ele>470</ele>
        <time>2022-05-24T05:26:16Z</time>
      </trkpt>
      <trkpt lat="48.85512" lon="9.97833">
        <ele>471</ele>
        <time>2022-05-24T05:26:31Z</time>
      </trkpt>
      <trkpt lat="48.85522" lon="9.97924">
        <ele>472</ele>
        <time>2022-05-24T05:26:42Z</time>
      </trkpt>
      <trkpt lat="48.85532" lon="9.97962">
        <ele>472</ele>
        <time>2022-05-24T05:26:47Z</time>
      </trkpt>
      <trkpt lat="48.85572" lon="9.98073">
        <ele>472</ele>
        <time>2022-05-24T05:27:02Z</time>
      </trkpt>
      <trkpt lat="48.85584" lon="9.98121">
        <ele>472</ele>
        <time>2022-05-24T05:27:08Z</time>
      </trkpt>
      <trkpt lat="48.8559" lon="9.98202">
        <ele>470</ele>
        <time>2022-05-24T05:27:17Z</time>
      </trkpt>
      <trkpt lat="48.85583" lon="9.98325">
        <ele>464</ele>
        <time>2022-05-24T05:27:32Z</time>
      </trkpt>
      <trkpt lat="48.85577" lon="9.98589">
        <ele>450</ele>
        <time>2022-05-24T05:28:02Z</time>
      </trkpt>
      <trkpt lat="48.85559" lon="9.98756">
        <ele>440</ele>
        <time>2022-05-24T05:28:22Z</time>
      </trkpt>
      <trkpt lat="48.85563" lon="9.9879">
        <ele>441</ele>
        <time>2022-05-24T05:28:26Z</time>
      </trkpt>
      <trkpt lat="48.85583" lon="9.98864">
        <ele>442</ele>
        <time>2022-05-24T05:28:36Z</time>
      </trkpt>
      <trkpt lat="48.85586" lon="9.98894">
        <ele>442</ele>
        <time>2022-05-24T05:28:39Z</time>
      </trkpt>
      <trkpt lat="48.85584" lon="9.98937">
        <ele>442</ele>
        <time>2022-05-24T05:28:44Z</time>
      </trkpt>
      <trkpt lat="48.85538" lon="9.99159">
        <ele>438</ele>
        <time>2022-05-24T05:29:12Z</time>
      </trkpt>
      <trkpt lat="48.85539" lon="9.992">
        <ele>437</ele>
        <time>2022-05-24T05:29:16Z</time>
      </trkpt>
      <trkpt lat="48.85545" lon="9.99216">
        <ele>436</ele>
        <time>2022-05-24T05:29:19Z</time>
      </trkpt>
      <trkpt lat="48.85527" lon="9.99273">
        <ele>436</ele>
        <time>2022-05-24T05:29:26Z</time>
      </trkpt>
      <trkpt lat="48.8551" lon="9.99354">
        <ele>438</ele>
        <time>2022-05-24T05:29:36Z</time>
      </trkpt>
      <trkpt lat="48.85511" lon="9.99372">
        <ele>439</ele>
        <time>2022-05-24T05:29:38Z</time>
      </trkpt>
      <trkpt lat="48.85505" lon="9.99423">
        <ele>442</ele>
        <time>2022-05-24T05:29:44Z</time>
      </trkpt>
      <trkpt lat="48.85506" lon="9.99485">
        <ele>445</ele>
        <time>2022-05-24T05:29:51Z</time>
      </trkpt>
      <trkpt lat="48.8552" lon="9.99594">
        <ele>452</ele>
        <time>2022-05-24T05:30:04Z</time>
      </trkpt>
      <trkpt lat="48.85544" lon="9.99663">
        <ele>456</ele>
        <time>2022-05-24T05:30:13Z</time>
      </trkpt>
      <trkpt lat="48.85564" lon="9.9983">
        <ele>457</ele>
        <time>2022-05-24T05:30:33Z</time>
      </trkpt>
      <trkpt lat="48.85582" lon="9.99934">
        <ele>462</ele>
        <time>2022-05-24T05:30:46Z</time>
      </trkpt>
      <trkpt lat="48.85724" lon="10.00323">
        <ele>481</ele>
        <time>2022-05-24T05:31:38Z</time>
      </trkpt>
      <trkpt lat="48.85739" lon="10.00371">
        <ele>483</ele>
        <time>2022-05-24T05:31:44Z</time>
      </trkpt>
      <trkpt lat="48.85745" lon="10.00417">
        <ele>484</ele>
        <time>2022-05-24T05:31:50Z</time>
      </trkpt>
      <trkpt lat="48.85722" lon="10.00809">
        <ele>494</ele>
        <time>2022-05-24T05:32:36Z</time>
      </trkpt>
      <trkpt lat="48.85721" lon="10.00901">
        <ele>495</ele>
        <time>2022-05-24T05:32:47Z</time>
      </trkpt>
      <trkpt lat="48.85727" lon="10.00989">
        <ele>498</ele>
        <time>2022-05-24T05:32:57Z</time>
      </trkpt>
      <trkpt lat="48.85767" lon="10.01229">
        <ele>502</ele>
        <time>2022-05-24T05:33:26Z</time>
      </trkpt>
      <trkpt lat="48.85865" lon="10.01184">
        <ele>496</ele>
        <time>2022-05-24T05:33:44Z</time>
      </trkpt>
      <trkpt lat="48.85956" lon="10.01108">
        <ele>490</ele>
        <time>2022-05-24T05:34:03Z</time>
      </trkpt>
      <trkpt lat="48.86083" lon="10.01033">
        <ele>483</ele>
        <time>2022-05-24T05:34:27Z</time>
      </trkpt>
      <trkpt lat="48.86091" lon="10.01039">
        <ele>483</ele>
        <time>2022-05-24T05:34:28Z</time>
      </trkpt>
      <trkpt lat="48.86258" lon="10.01263">
        <ele>477</ele>
        <time>2022-05-24T05:35:08Z</time>
      </trkpt>
      <trkpt lat="48.86273" lon="10.01286">
        <ele>476</ele>
        <time>2022-05-24T05:35:12Z</time>
      </trkpt>
      <trkpt lat="48.86301" lon="10.01354">
        <ele>476</ele>
        <time>2022-05-24T05:35:21Z</time>
      </trkpt>
      <trkpt lat="48.86415" lon="10.01438">
        <ele>478</ele>
        <time>2022-05-24T05:35:44Z</time>
      </trkpt>
      <trkpt lat="48.86455" lon="10.01458">
        <ele>479</ele>
        <time>2022-05-24T05:35:51Z</time>
      </trkpt>
      <trkpt lat="48.86604" lon="10.01468">
        <ele>483</ele>
        <time>2022-05-24T05:36:18Z</time>
      </trkpt>
      <trkpt lat="48.86684" lon="10.01465">
        <ele>484</ele>
        <time>2022-05-24T05:36:32Z</time>
      </trkpt>
      <trkpt lat="48.86755" lon="10.01446">
        <ele>484</ele>
        <time>2022-05-24T05:36:45Z</time>
      </trkpt>
      <trkpt lat="48.86788" lon="10.01447">
        <ele>484</ele>
        <time>2022-05-24T05:36:51Z</time>
      </trkpt>
      <trkpt lat="48.86799" lon="10.01458">
        <ele>484</ele>
        <time>2022-05-24T05:36:53Z</time>
      </trkpt>
      <trkpt lat="48.86809" lon="10.01496">
        <ele>484</ele>
        <time>2022-05-24T05:36:58Z</time>
      </trkpt>
      <trkpt lat="48.86843" lon="10.01459">
        <ele>484</ele>
        <time>2022-05-24T05:37:05Z</time>
      </trkpt>
      <trkpt lat="48.86865" lon="10.01451">
        <ele>483</ele>
        <time>2022-05-24T05:37:09Z</time>
      </trkpt>
      <trkpt lat="48.86893" lon="10.01452">
        <ele>482</ele>
        <time>2022-05-24T05:37:14Z</time>
      </trkpt>
      <trkpt lat="48.86921" lon="10.01465">
        <ele>481</ele>
        <time>2022-05-24T05:37:20Z</time>
      </trkpt>
      <trkpt lat="48.86938" lon="10.01483">
        <ele>479</ele>
        <time>2022-05-24T05:37:23Z</time>
      </trkpt>
      <trkpt lat="48.86949" lon="10.01502">
        <ele>478</ele>
        <time>2022-05-24T05:37:26Z</time>
      </trkpt>
      <trkpt lat="48.86954" lon="10.01523">
        <ele>476</ele>
        <time>2022-05-24T05:37:29Z</time>
      </trkpt>
      <trkpt lat="48.86953" lon="10.01549">
        <ele>475</ele>
        <time>2022-05-24T05:37:32Z</time>
      </trkpt>
      <trkpt lat="48.86941" lon="10.01585">
        <ele>475</ele>
        <time>2022-05-24T05:37:37Z</time>
      </trkpt>
      <trkpt lat="48.86948" lon="10.0162">
        <ele>473</ele>
        <time>2022-05-24T05:37:41Z</time>
      </trkpt>
      <trkpt lat="48.86953" lon="10.01715">
        <ele>470</ele>
        <time>2022-05-24T05:37:52Z</time>
      </trkpt>
      <trkpt lat="48.86961" lon="10.01756">
        <ele>468</ele>
        <time>2022-05-24T05:37:57Z</time>
      </trkpt>
      <trkpt lat="48.86986" lon="10.01786">
        <ele>465</ele>
        <time>2022-05-24T05:38:03Z</time>
      </trkpt>
      <trkpt lat="48.87" lon="10.01756">
        <ele>465</ele>
        <time>2022-05-24T05:38:07Z</time>
      </trkpt>
      <trkpt lat="48.87014" lon="10.01743">
        <ele>464</ele>
        <time>2022-05-24T05:38:10Z</time>
      </trkpt>
      <trkpt lat="48.87052" lon="10.01818">
        <ele>459</ele>
        <time>2022-05-24T05:38:21Z</time>
      </trkpt>
      <trkpt lat="48.87066" lon="10.01856">
        <ele>457</ele>
        <time>2022-05-24T05:38:26Z</time>
      </trkpt>
      <trkpt lat="48.87068" lon="10.01899">
        <ele>456</ele>
        <time>2022-05-24T05:38:31Z</time>
      </trkpt>
      <trkpt lat="48.87065" lon="10.02038">
        <ele>462</ele>
        <time>2022-05-24T05:38:47Z</time>
      </trkpt>
      <trkpt lat="48.87082" lon="10.02125">
        <ele>465</ele>
        <time>2022-05-24T05:38:58Z</time>
      </trkpt>
      <trkpt lat="48.87081" lon="10.02231">
        <ele>467</ele>
        <time>2022-05-24T05:39:10Z</time>
      </trkpt>
      <trkpt lat="48.87077" lon="10.02241">
        <ele>467</ele>
        <time>2022-05-24T05:39:12Z</time>
      </trkpt>
      <trkpt lat="48.87073" lon="10.02306">
        <ele>469</ele>
        <time>2022-05-24T05:39:19Z</time>
      </trkpt>
      <trkpt lat="48.87073" lon="10.0238">
        <ele>469</ele>
        <time>2022-05-24T05:39:28Z</time>
      </trkpt>
      <trkpt lat="48.87075" lon="10.02414">
        <ele>469</ele>
        <time>2022-05-24T05:39:32Z</time>
      </trkpt>
      <trkpt lat="48.87091" lon="10.02528">
        <ele>469</ele>
        <time>2022-05-24T05:39:46Z</time>
      </trkpt>
      <trkpt lat="48.87099" lon="10.02541">
        <ele>470</ele>
        <time>2022-05-24T05:39:48Z</time>
      </trkpt>
      <trkpt lat="48.8712" lon="10.02549">
        <ele>469</ele>
        <time>2022-05-24T05:39:52Z</time>
      </trkpt>
      <trkpt lat="48.87134" lon="10.02548">
        <ele>469</ele>
        <time>2022-05-24T05:39:54Z</time>
      </trkpt>
      <trkpt lat="48.87163" lon="10.02557">
        <ele>468</ele>
        <time>2022-05-24T05:39:59Z</time>
      </trkpt>
      <trkpt lat="48.8718" lon="10.02592">
        <ele>470</ele>
        <time>2022-05-24T05:40:05Z</time>
      </trkpt>
      <trkpt lat="48.8719" lon="10.02672">
        <ele>474</ele>
        <time>2022-05-24T05:40:14Z</time>
      </trkpt>
      <trkpt lat="48.87222" lon="10.02745">
        <ele>479</ele>
        <time>2022-05-24T05:40:24Z</time>
      </trkpt>
      <trkpt lat="48.87241" lon="10.02898">
        <ele>485</ele>
        <time>2022-05-24T05:40:43Z</time>
      </trkpt>
      <trkpt lat="48.87339" lon="10.02848">
        <ele>485</ele>
        <time>2022-05-24T05:41:01Z</time>
      </trkpt>
      <trkpt lat="48.8735" lon="10.0286">
        <ele>486</ele>
        <time>2022-05-24T05:41:03Z</time>
      </trkpt>
      <trkpt lat="48.87385" lon="10.02937">
        <ele>487</ele>
        <time>2022-05-24T05:41:14Z</time>
      </trkpt>
      <trkpt lat="48.87403" lon="10.02964">
        <ele>487</ele>
        <time>2022-05-24T05:41:19Z</time>
      </trkpt>
      <trkpt lat="48.87436" lon="10.02998">
        <ele>488</ele>
        <time>2022-05-24T05:41:26Z</time>
      </trkpt>
      <trkpt lat="48.87472" lon="10.03018">
        <ele>488</ele>
        <time>2022-05-24T05:41:33Z</time>
      </trkpt>
      <trkpt lat="48.87496" lon="10.03019">
        <ele>488</ele>
        <time>2022-05-24T05:41:37Z</time>
      </trkpt>
      <trkpt lat="48.87565" lon="10.02986">
        <ele>489</ele>
        <time>2022-05-24T05:41:50Z</time>
      </trkpt>
      <trkpt lat="48.87612" lon="10.0298">
        <ele>490</ele>
        <time>2022-05-24T05:41:58Z</time>
      </trkpt>
      <trkpt lat="48.8774" lon="10.02991">
        <ele>489</ele>
        <time>2022-05-24T05:42:21Z</time>
      </trkpt>
      <trkpt lat="48.87769" lon="10.03006">
        <ele>489</ele>
        <time>2022-05-24T05:42:26Z</time>
      </trkpt>
      <trkpt lat="48.87788" lon="10.03047">
        <ele>487</ele>
        <time>2022-05-24T05:42:32Z</time>
      </trkpt>
      <trkpt lat="48.878" lon="10.03164">
        <ele>483</ele>
        <time>2022-05-24T05:42:46Z</time>
      </trkpt>
      <trkpt lat="48.87829" lon="10.03318">
        <ele>483</ele>
        <time>2022-05-24T05:43:05Z</time>
      </trkpt>
      <trkpt lat="48.87845" lon="10.03371">
        <ele>481</ele>
        <time>2022-05-24T05:43:12Z</time>
      </trkpt>
      <trkpt lat="48.879" lon="10.03514">
        <ele>478</ele>
        <time>2022-05-24T05:43:31Z</time>
      </trkpt>
      <trkpt lat="48.87929" lon="10.03571">
        <ele>476</ele>
        <time>2022-05-24T05:43:40Z</time>
      </trkpt>
      <trkpt lat="48.87962" lon="10.0361">
        <ele>474</ele>
        <time>2022-05-24T05:43:47Z</time>
      </trkpt>
      <trkpt lat="48.88006" lon="10.03646">
        <ele>473</ele>
        <time>2022-05-24T05:43:56Z</time>
      </trkpt>
      <trkpt lat="48.88012" lon="10.03663">
        <ele>472</ele>
        <time>2022-05-24T05:43:58Z</time>
      </trkpt>
      <trkpt lat="48.88014" lon="10.03691">
        <ele>472</ele>
        <time>2022-05-24T05:44:01Z</time>
      </trkpt>
      <trkpt lat="48.87967" lon="10.03763">
        <ele>472</ele>
        <time>2022-05-24T05:44:13Z</time>
      </trkpt>
      <trkpt lat="48.88045" lon="10.03876">
        <ele>474</ele>
        <time>2022-05-24T05:44:33Z</time>
      </trkpt>
      <trkpt lat="48.88099" lon="10.03925">
        <ele>477</ele>
        <time>2022-05-24T05:44:44Z</time>
      </trkpt>
      <trkpt lat="48.88235" lon="10.04018">
        <ele>483</ele>
        <time>2022-05-24T05:45:10Z</time>
      </trkpt>
      <trkpt lat="48.88253" lon="10.04035">
        <ele>484</ele>
        <time>2022-05-24T05:45:14Z</time>
      </trkpt>
      <trkpt lat="48.88281" lon="10.04106">
        <ele>486</ele>
        <time>2022-05-24T05:45:24Z</time>
      </trkpt>
      <trkpt lat="48.88279" lon="10.04113">
        <ele>486</ele>
        <time>2022-05-24T05:45:25Z</time>
      </trkpt>
      <trkpt lat="48.88298" lon="10.04173">
        <ele>485</ele>
        <time>2022-05-24T05:45:32Z</time>
      </trkpt>
      <trkpt lat="48.88319" lon="10.04216">
        <ele>483</ele>
        <time>2022-05-24T05:45:39Z</time>
      </trkpt>
      <trkpt lat="48.8838" lon="10.04312">
        <ele>481</ele>
        <time>2022-05-24T05:45:54Z</time>
      </trkpt>
      <trkpt lat="48.88392" lon="10.04365">
        <ele>480</ele>
        <time>2022-05-24T05:46:01Z</time>
      </trkpt>
      <trkpt lat="48.88401" lon="10.0445">
        <ele>478</ele>
        <time>2022-05-24T05:46:11Z</time>
      </trkpt>
      <trkpt lat="48.88441" lon="10.04634">
        <ele>474</ele>
        <time>2022-05-24T05:46:34Z</time>
      </trkpt>
      <trkpt lat="48.88446" lon="10.04672">
        <ele>473</ele>
        <time>2022-05-24T05:46:38Z</time>
      </trkpt>
      <trkpt lat="48.88444" lon="10.04686">
        <ele>472</ele>
        <time>2022-05-24T05:46:40Z</time>
      </trkpt>
      <trkpt lat="48.88482" lon="10.04733">
        <ele>473</ele>
        <time>2022-05-24T05:46:48Z</time>
      </trkpt>
      <trkpt lat="48.88501" lon="10.04751">
        <ele>473</ele>
        <time>2022-05-24T05:46:52Z</time>
      </trkpt>
      <trkpt lat="48.88522" lon="10.04824">
        <ele>470</ele>
        <time>2022-05-24T05:47:02Z</time>
      </trkpt>
      <trkpt lat="48.88537" lon="10.04862">
        <ele>469</ele>
        <time>2022-05-24T05:47:07Z</time>
      </trkpt>
      <trkpt lat="48.8855" lon="10.04908">
        <ele>467</ele>
        <time>2022-05-24T05:47:13Z</time>
      </trkpt>
      <trkpt lat="48.88557" lon="10.0491">
        <ele>467</ele>
        <time>2022-05-24T05:47:14Z</time>
      </trkpt>
      <trkpt lat="48.88596" lon="10.05007">
        <ele>464</ele>
        <time>2022-05-24T05:47:27Z</time>
      </trkpt>
      <trkpt lat="48.88601" lon="10.05037">
        <ele>462</ele>
        <time>2022-05-24T05:47:31Z</time>
      </trkpt>
      <trkpt lat="48.88601" lon="10.05152">
        <ele>453</ele>
        <time>2022-05-24T05:47:44Z</time>
      </trkpt>
      <trkpt lat="48.88619" lon="10.05211">
        <ele>447</ele>
        <time>2022-05-24T05:47:52Z</time>
      </trkpt>
      <trkpt lat="48.88671" lon="10.05331">
        <ele>433</ele>
        <time>2022-05-24T05:48:09Z</time>
      </trkpt>
      <trkpt lat="48.88725" lon="10.05415">
        <ele>425</ele>
        <time>2022-05-24T05:48:23Z</time>
      </trkpt>
      <trkpt lat="48.88762" lon="10.05464">
        <ele>418</ele>
        <time>2022-05-24T05:48:31Z</time>
      </trkpt>
      <trkpt lat="48.88809" lon="10.05507">
        <ele>411</ele>
        <time>2022-05-24T05:48:41Z</time>
      </trkpt>
      <trkpt lat="48.8883" lon="10.05518">
        <ele>410</ele>
        <time>2022-05-24T05:48:45Z</time>
      </trkpt>
      <trkpt lat="48.88882" lon="10.0556">
        <ele>405</ele>
        <time>2022-05-24T05:48:56Z</time>
      </trkpt>
      <trkpt lat="48.88934" lon="10.05598">
        <ele>401</ele>
        <time>2022-05-24T05:49:06Z</time>
      </trkpt>
      <trkpt lat="48.88971" lon="10.05597">
        <ele>400</ele>
        <time>2022-05-24T05:49:12Z</time>
      </trkpt>
      <trkpt lat="48.89" lon="10.0559">
        <ele>399</ele>
        <time>2022-05-24T05:49:18Z</time>
      </trkpt>
      <trkpt lat="48.89023" lon="10.05603">
        <ele>399</ele>
        <time>2022-05-24T05:49:22Z</time>
      </trkpt>
      <trkpt lat="48.89046" lon="10.0562">
        <ele>399</ele>
        <time>2022-05-24T05:49:27Z</time>
      </trkpt>
      <trkpt lat="48.89101" lon="10.05625">
        <ele>396</ele>
        <time>2022-05-24T05:49:36Z</time>
      </trkpt>
      <trkpt lat="48.89114" lon="10.05617">
        <ele>395</ele>
        <time>2022-05-24T05:49:39Z</time>
      </trkpt>
      <trkpt lat="48.89134" lon="10.0569">
        <ele>393</ele>
        <time>2022-05-24T05:49:48Z</time>
      </trkpt>
      <trkpt lat="48.89151" lon="10.05819">
        <ele>390</ele>
        <time>2022-05-24T05:50:04Z</time>
      </trkpt>
      <trkpt lat="48.8915" lon="10.05908">
        <ele>391</ele>
        <time>2022-05-24T05:50:14Z</time>
      </trkpt>
      <trkpt lat="48.89156" lon="10.05971">
        <ele>391</ele>
        <time>2022-05-24T05:50:21Z</time>
      </trkpt>
      <trkpt lat="48.89163" lon="10.0599">
        <ele>391</ele>
        <time>2022-05-24T05:50:24Z</time>
      </trkpt>
      <trkpt lat="48.89159" lon="10.06011">
        <ele>392</ele>
        <time>2022-05-24T05:50:26Z</time>
      </trkpt>
      <trkpt lat="48.8918" lon="10.06249">
        <ele>398</ele>
        <time>2022-05-24T05:50:55Z</time>
      </trkpt>
      <trkpt lat="48.89201" lon="10.06288">
        <ele>402</ele>
        <time>2022-05-24T05:51:00Z</time>
      </trkpt>
      <trkpt lat="48.89236" lon="10.06374">
        <ele>402</ele>
        <time>2022-05-24T05:51:12Z</time>
      </trkpt>
      <trkpt lat="48.89259" lon="10.06467">
        <ele>404</ele>
        <time>2022-05-24T05:51:24Z</time>
      </trkpt>
      <trkpt lat="48.89283" lon="10.06529">
        <ele>404</ele>
        <time>2022-05-24T05:51:32Z</time>
      </trkpt>
      <trkpt lat="48.89322" lon="10.06663">
        <ele>402</ele>
        <time>2022-05-24T05:51:49Z</time>
      </trkpt>
      <trkpt lat="48.89323" lon="10.06705">
        <ele>402</ele>
        <time>2022-05-24T05:51:54Z</time>
      </trkpt>
      <trkpt lat="48.89299" lon="10.06871">
        <ele>412</ele>
        <time>2022-05-24T05:52:14Z</time>
      </trkpt>
      <trkpt lat="48.893" lon="10.06986">
        <ele>413</ele>
        <time>2022-05-24T05:52:28Z</time>
      </trkpt>
      <trkpt lat="48.89351" lon="10.0744">
        <ele>394</ele>
        <time>2022-05-24T05:53:22Z</time>
      </trkpt>
      <trkpt lat="48.89351" lon="10.07515">
        <ele>392</ele>
        <time>2022-05-24T05:53:30Z</time>
      </trkpt>
      <trkpt lat="48.89332" lon="10.07686">
        <ele>393</ele>
        <time>2022-05-24T05:53:51Z</time>
      </trkpt>
      <trkpt lat="48.89315" lon="10.07778">
        <ele>394</ele>
        <time>2022-05-24T05:54:02Z</time>
      </trkpt>
      <trkpt lat="48.89292" lon="10.07858">
        <ele>397</ele>
        <time>2022-05-24T05:54:12Z</time>
      </trkpt>
      <trkpt lat="48.8929" lon="10.07886">
        <ele>396</ele>
        <time>2022-05-24T05:54:15Z</time>
      </trkpt>
      <trkpt lat="48.8927" lon="10.07982">
        <ele>396</ele>
        <time>2022-05-24T05:54:27Z</time>
      </trkpt>
      <trkpt lat="48.89249" lon="10.08121">
        <ele>397</ele>
        <time>2022-05-24T05:54:44Z</time>
      </trkpt>
      <trkpt lat="48.89241" lon="10.08206">
        <ele>400</ele>
        <time>2022-05-24T05:54:54Z</time>
      </trkpt>
      <trkpt lat="48.8924" lon="10.08323">
        <ele>400</ele>
        <time>2022-05-24T05:55:08Z</time>
      </trkpt>
      <trkpt lat="48.89247" lon="10.0847">
        <ele>397</ele>
        <time>2022-05-24T05:55:25Z</time>
      </trkpt>
      <trkpt lat="48.89282" lon="10.08741">
        <ele>398</ele>
        <time>2022-05-24T05:55:57Z</time>
      </trkpt>
      <trkpt lat="48.89286" lon="10.08829">
        <ele>398</ele>
        <time>2022-05-24T05:56:07Z</time>
      </trkpt>
      <trkpt lat="48.89276" lon="10.08999">
        <ele>396</ele>
        <time>2022-05-24T05:56:27Z</time>
      </trkpt>
      <trkpt lat="48.89239" lon="10.09507">
        <ele>401</ele>
        <time>2022-05-24T05:57:27Z</time>
      </trkpt>
      <trkpt lat="48.89228" lon="10.09573">
        <ele>401</ele>
        <time>2022-05-24T05:57:35Z</time>
      </trkpt>
      <trkpt lat="48.89211" lon="10.09619">
        <ele>401</ele>
        <time>2022-05-24T05:57:41Z</time>
      </trkpt>
      <trkpt lat="48.8918" lon="10.09675">
        <ele>401</ele>
        <time>2022-05-24T05:57:50Z</time>
      </trkpt>
      <trkpt lat="48.89216" lon="10.09739">
        <ele>400</ele>
        <time>2022-05-24T05:58:00Z</time>
      </trkpt>
      <trkpt lat="48.8925" lon="10.09783">
        <ele>401</ele>
        <time>2022-05-24T05:58:08Z</time>
      </trkpt>
      <trkpt lat="48.89281" lon="10.098">
        <ele>402</ele>
        <time>2022-05-24T05:58:14Z</time>
      </trkpt>
      <trkpt lat="48.89278" lon="10.09932">
        <ele>404</ele>
        <time>2022-05-24T05:58:29Z</time>
      </trkpt>
      <trkpt lat="48.89269" lon="10.09998">
        <ele>406</ele>
        <time>2022-05-24T05:58:37Z</time>
      </trkpt>
      <trkpt lat="48.89259" lon="10.10031">
        <ele>406</ele>
        <time>2022-05-24T05:58:41Z</time>
      </trkpt>
      <trkpt lat="48.89253" lon="10.10038">
        <ele>406</ele>
        <time>2022-05-24T05:58:42Z</time>
      </trkpt>
      <trkpt lat="48.89241" lon="10.10035">
        <ele>406</ele>
        <time>2022-05-24T05:58:45Z</time>
      </trkpt>
      <trkpt lat="48.89235" lon="10.10041">
        <ele>406</ele>
        <time>2022-05-24T05:58:46Z</time>
      </trkpt>
      <trkpt lat="48.89232" lon="10.10053">
        <ele>407</ele>
        <time>2022-05-24T05:58:47Z</time>
      </trkpt>
      <trkpt lat="48.89238" lon="10.10069">
        <ele>407</ele>
        <time>2022-05-24T05:58:50Z</time>
      </trkpt>
      <trkpt lat="48.89253" lon="10.10067">
        <ele>407</ele>
        <time>2022-05-24T05:58:52Z</time>
      </trkpt>
      <trkpt lat="48.89297" lon="10.1013">
        <ele>411</ele>
        <time>2022-05-24T05:59:03Z</time>
      </trkpt>
      <trkpt lat="48.89309" lon="10.10152">
        <ele>411</ele>
        <time>2022-05-24T05:59:06Z</time>
      </trkpt>
      <trkpt lat="48.89426" lon="10.10393">
        <ele>426</ele>
        <time>2022-05-24T05:59:41Z</time>
      </trkpt>
      <trkpt lat="48.89478" lon="10.10563">
        <ele>433</ele>
        <time>2022-05-24T06:00:03Z</time>
      </trkpt>
      <trkpt lat="48.89488" lon="10.10587">
        <ele>432</ele>
        <time>2022-05-24T06:00:07Z</time>
      </trkpt>
      <trkpt lat="48.8956" lon="10.107">
        <ele>441</ele>
        <time>2022-05-24T06:00:25Z</time>
      </trkpt>
      <trkpt lat="48.89611" lon="10.10818">
        <ele>447</ele>
        <time>2022-05-24T06:00:42Z</time>
      </trkpt>
      <trkpt lat="48.89696" lon="10.10792">
        <ele>452</ele>
        <time>2022-05-24T06:00:57Z</time>
      </trkpt>
      <trkpt lat="48.89739" lon="10.108">
        <ele>454</ele>
        <time>2022-05-24T06:01:05Z</time>
      </trkpt>
      <trkpt lat="48.89781" lon="10.10816">
        <ele>455</ele>
        <time>2022-05-24T06:01:12Z</time>
      </trkpt>
      <trkpt lat="48.89797" lon="10.10811">
        <ele>455</ele>
        <time>2022-05-24T06:01:15Z</time>
      </trkpt>
      <trkpt lat="48.89804" lon="10.10799">
        <ele>455</ele>
        <time>2022-05-24T06:01:17Z</time>
      </trkpt>
      <trkpt lat="48.89848" lon="10.10826">
        <ele>455</ele>
        <time>2022-05-24T06:01:26Z</time>
      </trkpt>
      <trkpt lat="48.89888" lon="10.10872">
        <ele>456</ele>
        <time>2022-05-24T06:01:35Z</time>
      </trkpt>
      <trkpt lat="48.89985" lon="10.11026">
        <ele>462</ele>
        <time>2022-05-24T06:02:00Z</time>
      </trkpt>
      <trkpt lat="48.90029" lon="10.11108">
        <ele>465</ele>
        <time>2022-05-24T06:02:12Z</time>
      </trkpt>
      <trkpt lat="48.90147" lon="10.11388">
        <ele>467</ele>
        <time>2022-05-24T06:02:51Z</time>
      </trkpt>
      <trkpt lat="48.90168" lon="10.11412">
        <ele>467</ele>
        <time>2022-05-24T06:02:55Z</time>
      </trkpt>
      <trkpt lat="48.90358" lon="10.11521">
        <ele>471</ele>
        <time>2022-05-24T06:03:32Z</time>
      </trkpt>
      <trkpt lat="48.90458" lon="10.11582">
        <ele>468</ele>
        <time>2022-05-24T06:03:51Z</time>
      </trkpt>
      <trkpt lat="48.90483" lon="10.11615">
        <ele>468</ele>
        <time>2022-05-24T06:03:57Z</time>
      </trkpt>
      <trkpt lat="48.90531" lon="10.11715">
        <ele>469</ele>
        <time>2022-05-24T06:04:11Z</time>
      </trkpt>
      <trkpt lat="48.90554" lon="10.11736">
        <ele>469</ele>
        <time>2022-05-24T06:04:16Z</time>
      </trkpt>
      <trkpt lat="48.90877" lon="10.11884">
        <ele>485</ele>
        <time>2022-05-24T06:05:16Z</time>
      </trkpt>
      <trkpt lat="48.90889" lon="10.11938">
        <ele>486</ele>
        <time>2022-05-24T06:05:23Z</time>
      </trkpt>
      <trkpt lat="48.90904" lon="10.12103">
        <ele>482</ele>
        <time>2022-05-24T06:05:42Z</time>
      </trkpt>
      <trkpt lat="48.90917" lon="10.12333">
        <ele>481</ele>
        <time>2022-05-24T06:06:09Z</time>
      </trkpt>
      <trkpt lat="48.90916" lon="10.12402">
        <ele>479</ele>
        <time>2022-05-24T06:06:17Z</time>
      </trkpt>
      <trkpt lat="48.90859" lon="10.12832">
        <ele>467</ele>
        <time>2022-05-24T06:07:08Z</time>
      </trkpt>
      <trkpt lat="48.90832" lon="10.12957">
        <ele>462</ele>
        <time>2022-05-24T06:07:24Z</time>
      </trkpt>
      <trkpt lat="48.90802" lon="10.13062">
        <ele>461</ele>
        <time>2022-05-24T06:07:37Z</time>
      </trkpt>
      <trkpt lat="48.90799" lon="10.13086">
        <ele>461</ele>
        <time>2022-05-24T06:07:40Z</time>
      </trkpt>
      <trkpt lat="48.908" lon="10.1315">
        <ele>460</ele>
        <time>2022-05-24T06:07:48Z</time>
      </trkpt>
      <trkpt lat="48.90818" lon="10.13214">
        <ele>461</ele>
        <time>2022-05-24T06:07:56Z</time>
      </trkpt>
      <trkpt lat="48.90817" lon="10.13299">
        <ele>460</ele>
        <time>2022-05-24T06:08:06Z</time>
      </trkpt>
      <trkpt lat="48.90823" lon="10.13355">
        <ele>459</ele>
        <time>2022-05-24T06:08:12Z</time>
      </trkpt>
      <trkpt lat="48.90838" lon="10.13435">
        <ele>457</ele>
        <time>2022-05-24T06:08:22Z</time>
      </trkpt>
      <trkpt lat="48.90846" lon="10.13456">
        <ele>458</ele>
        <time>2022-05-24T06:08:25Z</time>
      </trkpt>
      <trkpt lat="48.90943" lon="10.13604">
        <ele>461</ele>
        <time>2022-05-24T06:08:49Z</time>
      </trkpt>
      <trkpt lat="48.90952" lon="10.13641">
        <ele>461</ele>
        <time>2022-05-24T06:08:54Z</time>
      </trkpt>
      <trkpt lat="48.90972" lon="10.13684">
        <ele>462</ele>
        <time>2022-05-24T06:09:00Z</time>
      </trkpt>
      <trkpt lat="48.90984" lon="10.13694">
        <ele>464</ele>
        <time>2022-05-24T06:09:03Z</time>
      </trkpt>
      <trkpt lat="48.91018" lon="10.13665">
        <ele>467</ele>
        <time>2022-05-24T06:09:09Z</time>
      </trkpt>
      <trkpt lat="48.91095" lon="10.13632">
        <ele>470</ele>
        <time>2022-05-24T06:09:24Z</time>
      </trkpt>
      <trkpt lat="48.91148" lon="10.13643">
        <ele>470</ele>
        <time>2022-05-24T06:09:33Z</time>
      </trkpt>
      <trkpt lat="48.912" lon="10.13673">
        <ele>471</ele>
        <time>2022-05-24T06:09:43Z</time>
      </trkpt>
      <trkpt lat="48.91192" lon="10.13775">
        <ele>468</ele>
        <time>2022-05-24T06:09:55Z</time>
      </trkpt>
      <trkpt lat="48.91203" lon="10.13856">
        <ele>469</ele>
        <time>2022-05-24T06:10:05Z</time>
      </trkpt>
      <trkpt lat="48.91216" lon="10.13898">
        <ele>470</ele>
        <time>2022-05-24T06:10:10Z</time>
      </trkpt>
      <trkpt lat="48.91236" lon="10.13941">
        <ele>470</ele>
        <time>2022-05-24T06:10:16Z</time>
      </trkpt>
      <trkpt lat="48.91317" lon="10.14037">
        <ele>468</ele>
        <time>2022-05-24T06:10:35Z</time>
      </trkpt>
      <trkpt lat="48.91334" lon="10.1407">
        <ele>467</ele>
        <time>2022-05-24T06:10:40Z</time>
      </trkpt>
      <trkpt lat="48.91345" lon="10.14104">
        <ele>466</ele>
        <time>2022-05-24T06:10:44Z</time>
      </trkpt>
      <trkpt lat="48.91351" lon="10.14166">
        <ele>465</ele>
        <time>2022-05-24T06:10:51Z</time>
      </trkpt>
      <trkpt lat="48.91357" lon="10.14282">
        <ele>464</ele>
        <time>2022-05-24T06:11:05Z</time>
      </trkpt>
      <trkpt lat="48.91366" lon="10.14294">
        <ele>463</ele>
        <time>2022-05-24T06:11:07Z</time>
      </trkpt>
      <trkpt lat="48.91363" lon="10.1433">
        <ele>462</ele>
        <time>2022-05-24T06:11:11Z</time>
      </trkpt>
      <trkpt lat="48.91381" lon="10.14393">
        <ele>457</ele>
        <time>2022-05-24T06:11:19Z</time>
      </trkpt>
      <trkpt lat="48.914" lon="10.14446">
        <ele>454</ele>
        <time>2022-05-24T06:11:26Z</time>
      </trkpt>
      <trkpt lat="48.91409" lon="10.14464">
        <ele>452</ele>
        <time>2022-05-24T06:11:29Z</time>
      </trkpt>
      <trkpt lat="48.91419" lon="10.14443">
        <ele>452</ele>
        <time>2022-05-24T06:11:32Z</time>
      </trkpt>
      <trkpt lat="48.91432" lon="10.14423">
        <ele>452</ele>
        <time>2022-05-24T06:11:35Z</time>
      </trkpt>
      <trkpt lat="48.91468" lon="10.14384">
        <ele>451</ele>
        <time>2022-05-24T06:11:43Z</time>
      </trkpt>
      <trkpt lat="48.91495" lon="10.14364">
        <ele>449</ele>
        <time>2022-05-24T06:11:49Z</time>
      </trkpt>
      <trkpt lat="48.91632" lon="10.14274">
        <ele>449</ele>
        <time>2022-05-24T06:12:15Z</time>
      </trkpt>
      <trkpt lat="48.91711" lon="10.1423">
        <ele>452</ele>
        <time>2022-05-24T06:12:30Z</time>
      </trkpt>
      <trkpt lat="48.91754" lon="10.14214">
        <ele>452</ele>
        <time>2022-05-24T06:12:38Z</time>
      </trkpt>
      <trkpt lat="48.91835" lon="10.14197">
        <ele>452</ele>
        <time>2022-05-24T06:12:52Z</time>
      </trkpt>
      <trkpt lat="48.9194" lon="10.14197">
        <ele>449</ele>
        <time>2022-05-24T06:13:11Z</time>
      </trkpt>
      <trkpt lat="48.92051" lon="10.14222">
        <ele>447</ele>
        <time>2022-05-24T06:13:31Z</time>
      </trkpt>
      <trkpt lat="48.92116" lon="10.14187">
        <ele>447</ele>
        <time>2022-05-24T06:13:43Z</time>
      </trkpt>
      <trkpt lat="48.92128" lon="10.1421">
        <ele>446</ele>
        <time>2022-05-24T06:13:47Z</time>
      </trkpt>
      <trkpt lat="48.92227" lon="10.14278">
        <ele>441</ele>
        <time>2022-05-24T06:14:06Z</time>
      </trkpt>
      <trkpt lat="48.92277" lon="10.14328">
        <ele>442</ele>
        <time>2022-05-24T06:14:17Z</time>
      </trkpt>
      <trkpt lat="48.92391" lon="10.14477">
        <ele>443</ele>
        <time>2022-05-24T06:14:44Z</time>
      </trkpt>
      <trkpt lat="48.92414" lon="10.14437">
        <ele>442</ele>
        <time>2022-05-24T06:14:50Z</time>
      </trkpt>
      <trkpt lat="48.92438" lon="10.1442">
        <ele>440</ele>
        <time>2022-05-24T06:14:54Z</time>
      </trkpt>
      <trkpt lat="48.92457" lon="10.14416">
        <ele>440</ele>
        <time>2022-05-24T06:14:58Z</time>
      </trkpt>
      <trkpt lat="48.92487" lon="10.1442">
        <ele>439</ele>
        <time>2022-05-24T06:15:03Z</time>
      </trkpt>
      <trkpt lat="48.92685" lon="10.1452">
        <ele>437</ele>
        <time>2022-05-24T06:15:40Z</time>
      </trkpt>
      <trkpt lat="48.92803" lon="10.14547">
        <ele>437</ele>
        <time>2022-05-24T06:16:02Z</time>
      </trkpt>
      <trkpt lat="48.9287" lon="10.14549">
        <ele>437</ele>
        <time>2022-05-24T06:16:14Z</time>
      </trkpt>
      <trkpt lat="48.92897" lon="10.14543">
        <ele>437</ele>
        <time>2022-05-24T06:16:18Z</time>
      </trkpt>
      <trkpt lat="48.92976" lon="10.14485">
        <ele>438</ele>
        <time>2022-05-24T06:16:34Z</time>
      </trkpt>
      <trkpt lat="48.9304" lon="10.14408">
        <ele>438</ele>
        <time>2022-05-24T06:16:48Z</time>
      </trkpt>
      <trkpt lat="48.93076" lon="10.14339">
        <ele>437</ele>
        <time>2022-05-24T06:16:59Z</time>
      </trkpt>
      <trkpt lat="48.93129" lon="10.14188">
        <ele>437</ele>
        <time>2022-05-24T06:17:19Z</time>
      </trkpt>
      <trkpt lat="48.93155" lon="10.14133">
        <ele>436</ele>
        <time>2022-05-24T06:17:27Z</time>
      </trkpt>
      <trkpt lat="48.93201" lon="10.14054">
        <ele>436</ele>
        <time>2022-05-24T06:17:39Z</time>
      </trkpt>
      <trkpt lat="48.93354" lon="10.1387">
        <ele>440</ele>
        <time>2022-05-24T06:18:14Z</time>
      </trkpt>
      <trkpt lat="48.93395" lon="10.13811">
        <ele>440</ele>
        <time>2022-05-24T06:18:24Z</time>
      </trkpt>
      <trkpt lat="48.93433" lon="10.1372">
        <ele>438</ele>
        <time>2022-05-24T06:18:36Z</time>
      </trkpt>
      <trkpt lat="48.93467" lon="10.13593">
        <ele>436</ele>
        <time>2022-05-24T06:18:52Z</time>
      </trkpt>
      <trkpt lat="48.93491" lon="10.13534">
        <ele>435</ele>
        <time>2022-05-24T06:19:01Z</time>
      </trkpt>
      <trkpt lat="48.93535" lon="10.13457">
        <ele>436</ele>
        <time>2022-05-24T06:19:12Z</time>
      </trkpt>
      <trkpt lat="48.93613" lon="10.13375">
        <ele>436</ele>
        <time>2022-05-24T06:19:29Z</time>
      </trkpt>
      <trkpt lat="48.93753" lon="10.13139">
        <ele>435</ele>
        <time>2022-05-24T06:20:06Z</time>
      </trkpt>
      <trkpt lat="48.93824" lon="10.13052">
        <ele>435</ele>
        <time>2022-05-24T06:20:23Z</time>
      </trkpt>
      <trkpt lat="48.94028" lon="10.12917">
        <ele>435</ele>
        <time>2022-05-24T06:21:02Z</time>
      </trkpt>
      <trkpt lat="48.94082" lon="10.12907">
        <ele>435</ele>
        <time>2022-05-24T06:21:12Z</time>
      </trkpt>
      <trkpt lat="48.94058" lon="10.12862">
        <ele>438</ele>
        <time>2022-05-24T06:21:19Z</time>
      </trkpt>
      <trkpt lat="48.94092" lon="10.12855">
        <ele>436</ele>
        <time>2022-05-24T06:21:25Z</time>
      </trkpt>
      <trkpt lat="48.94267" lon="10.12809">
        <ele>432</ele>
        <time>2022-05-24T06:21:56Z</time>
      </trkpt>
      <trkpt lat="48.94433" lon="10.12695">
        <ele>433</ele>
        <time>2022-05-24T06:22:29Z</time>
      </trkpt>
      <trkpt lat="48.94477" lon="10.12648">
        <ele>434</ele>
        <time>2022-05-24T06:22:38Z</time>
      </trkpt>
      <trkpt lat="48.94586" lon="10.12493">
        <ele>436</ele>
        <time>2022-05-24T06:23:05Z</time>
      </trkpt>
      <trkpt lat="48.94614" lon="10.1246">
        <ele>438</ele>
        <time>2022-05-24T06:23:11Z</time>
      </trkpt>
      <trkpt lat="48.94663" lon="10.12411">
        <ele>439</ele>
        <time>2022-05-24T06:23:22Z</time>
      </trkpt>
      <trkpt lat="48.94733" lon="10.12366">
        <ele>434</ele>
        <time>2022-05-24T06:23:35Z</time>
      </trkpt>
      <trkpt lat="48.94737" lon="10.12357">
        <ele>433</ele>
        <time>2022-05-24T06:23:36Z</time>
      </trkpt>
      <trkpt lat="48.94718" lon="10.12309">
        <ele>436</ele>
        <time>2022-05-24T06:23:43Z</time>
      </trkpt>
      <trkpt lat="48.9472" lon="10.12291">
        <ele>436</ele>
        <time>2022-05-24T06:23:45Z</time>
      </trkpt>
      <trkpt lat="48.94895" lon="10.1205">
        <ele>435</ele>
        <time>2022-05-24T06:24:27Z</time>
      </trkpt>
      <trkpt lat="48.94923" lon="10.12026">
        <ele>435</ele>
        <time>2022-05-24T06:24:33Z</time>
      </trkpt>
      <trkpt lat="48.9501" lon="10.11925">
        <ele>435</ele>
        <time>2022-05-24T06:24:52Z</time>
      </trkpt>
      <trkpt lat="48.95017" lon="10.11908">
        <ele>435</ele>
        <time>2022-05-24T06:24:55Z</time>
      </trkpt>
      <trkpt lat="48.95062" lon="10.11913">
        <ele>434</ele>
        <time>2022-05-24T06:25:03Z</time>
      </trkpt>
      <trkpt lat="48.95095" lon="10.11905">
        <ele>434</ele>
        <time>2022-05-24T06:25:09Z</time>
      </trkpt>
      <trkpt lat="48.95132" lon="10.11879">
        <ele>435</ele>
        <time>2022-05-24T06:25:16Z</time>
      </trkpt>
      <trkpt lat="48.95195" lon="10.11817">
        <ele>434</ele>
        <time>2022-05-24T06:25:29Z</time>
      </trkpt>
      <trkpt lat="48.95275" lon="10.11805">
        <ele>432</ele>
        <time>2022-05-24T06:25:44Z</time>
      </trkpt>
      <trkpt lat="48.95281" lon="10.11797">
        <ele>432</ele>
        <time>2022-05-24T06:25:45Z</time>
      </trkpt>
      <trkpt lat="48.95288" lon="10.11763">
        <ele>431</ele>
        <time>2022-05-24T06:25:49Z</time>
      </trkpt>
      <trkpt lat="48.95289" lon="10.11709">
        <ele>430</ele>
        <time>2022-05-24T06:25:55Z</time>
      </trkpt>
      <trkpt lat="48.9527" lon="10.11703">
        <ele>431</ele>
        <time>2022-05-24T06:25:59Z</time>
      </trkpt>
      <trkpt lat="48.95267" lon="10.11696">
        <ele>430</ele>
        <time>2022-05-24T06:26:00Z</time>
      </trkpt>
      <trkpt lat="48.95375" lon="10.11696">
        <ele>430</ele>
        <time>2022-05-24T06:26:19Z</time>
      </trkpt>
      <trkpt lat="48.95456" lon="10.1172">
        <ele>432</ele>
        <time>2022-05-24T06:26:34Z</time>
      </trkpt>
      <trkpt lat="48.95498" lon="10.11739">
        <ele>434</ele>
        <time>2022-05-24T06:26:42Z</time>
      </trkpt>
      <trkpt lat="48.95542" lon="10.11743">
        <ele>431</ele>
        <time>2022-05-24T06:26:49Z</time>
      </trkpt>
      <trkpt lat="48.9556" lon="10.11758">
        <ele>430</ele>
        <time>2022-05-24T06:26:53Z</time>
      </trkpt>
      <trkpt lat="48.95676" lon="10.11938">
        <ele>434</ele>
        <time>2022-05-24T06:27:23Z</time>
      </trkpt>
      <trkpt lat="48.95723" lon="10.1204">
        <ele>434</ele>
        <time>2022-05-24T06:27:37Z</time>
      </trkpt>
      <trkpt lat="48.95767" lon="10.12176">
        <ele>436</ele>
        <time>2022-05-24T06:27:55Z</time>
      </trkpt>
      <trkpt lat="48.95862" lon="10.12501">
        <ele>433</ele>
        <time>2022-05-24T06:28:36Z</time>
      </trkpt>
      <trkpt lat="48.95877" lon="10.1248">
        <ele>433</ele>
        <time>2022-05-24T06:28:40Z</time>
      </trkpt>
      <trkpt lat="48.95881" lon="10.12493">
        <ele>433</ele>
        <time>2022-05-24T06:28:42Z</time>
      </trkpt>
      <trkpt lat="48.95875" lon="10.12504">
        <ele>433</ele>
        <time>2022-05-24T06:28:43Z</time>
      </trkpt>
      <trkpt lat="48.95883" lon="10.12541">
        <ele>433</ele>
        <time>2022-05-24T06:28:48Z</time>
      </trkpt>
      <trkpt lat="48.95865" lon="10.12576">
        <ele>434</ele>
        <time>2022-05-24T06:28:53Z</time>
      </trkpt>
      <trkpt lat="48.9587" lon="10.12594">
        <ele>434</ele>
        <time>2022-05-24T06:28:55Z</time>
      </trkpt>
      <trkpt lat="48.95864" lon="10.12595">
        <ele>434</ele>
        <time>2022-05-24T06:28:56Z</time>
      </trkpt>
      <trkpt lat="48.95858" lon="10.12582">
        <ele>434</ele>
        <time>2022-05-24T06:28:58Z</time>
      </trkpt>
      <trkpt lat="48.95845" lon="10.12588">
        <ele>435</ele>
        <time>2022-05-24T06:29:01Z</time>
      </trkpt>
      <trkpt lat="48.95866" lon="10.12604">
        <ele>434</ele>
        <time>2022-05-24T06:29:05Z</time>
      </trkpt>
      <trkpt lat="48.95884" lon="10.12638">
        <ele>434</ele>
        <time>2022-05-24T06:29:10Z</time>
      </trkpt>
      <trkpt lat="48.95897" lon="10.12688">
        <ele>435</ele>
        <time>2022-05-24T06:29:16Z</time>
      </trkpt>
      <trkpt lat="48.959" lon="10.12798">
        <ele>437</ele>
        <time>2022-05-24T06:29:29Z</time>
      </trkpt>
      <trkpt lat="48.95905" lon="10.12828">
        <ele>437</ele>
        <time>2022-05-24T06:29:33Z</time>
      </trkpt>
      <trkpt lat="48.95927" lon="10.12854">
        <ele>437</ele>
        <time>2022-05-24T06:29:38Z</time>
      </trkpt>
      <trkpt lat="48.95917" lon="10.12873">
        <ele>437</ele>
        <time>2022-05-24T06:29:41Z</time>
      </trkpt>
      <trkpt lat="48.9588" lon="10.12918">
        <ele>441</ele>
        <time>2022-05-24T06:29:49Z</time>
      </trkpt>
      <trkpt lat="48.95889" lon="10.12934">
        <ele>440</ele>
        <time>2022-05-24T06:29:51Z</time>
      </trkpt>
      <trkpt lat="48.95895" lon="10.12938">
        <ele>440</ele>
        <time>2022-05-24T06:29:53Z</time>
      </trkpt>
      <trkpt lat="48.95918" lon="10.12964">
        <ele>439</ele>
        <time>2022-05-24T06:29:58Z</time>
      </trkpt>
      <trkpt lat="48.95903" lon="10.13034">
        <ele>441</ele>
        <time>2022-05-24T06:30:06Z</time>
      </trkpt>
      <trkpt lat="48.95901" lon="10.13063">
        <ele>442</ele>
        <time>2022-05-24T06:30:10Z</time>
      </trkpt>
      <trkpt lat="48.95906" lon="10.13094">
        <ele>442</ele>
        <time>2022-05-24T06:30:13Z</time>
      </trkpt>
      <trkpt lat="48.95943" lon="10.13197">
        <ele>442</ele>
        <time>2022-05-24T06:30:27Z</time>
      </trkpt>
      <trkpt lat="48.95988" lon="10.13295">
        <ele>444</ele>
        <time>2022-05-24T06:30:41Z</time>
      </trkpt>
      <trkpt lat="48.96011" lon="10.13285">
        <ele>443</ele>
        <time>2022-05-24T06:30:45Z</time>
      </trkpt>
      <trkpt lat="48.96092" lon="10.13262">
        <ele>442</ele>
        <time>2022-05-24T06:31:00Z</time>
      </trkpt>
      <trkpt lat="48.96104" lon="10.1334">
        <ele>443</ele>
        <time>2022-05-24T06:31:09Z</time>
      </trkpt>
      <trkpt lat="48.96117" lon="10.1338">
        <ele>443</ele>
        <time>2022-05-24T06:31:15Z</time>
      </trkpt>
      <trkpt lat="48.96134" lon="10.13416">
        <ele>442</ele>
        <time>2022-05-24T06:31:20Z</time>
      </trkpt>
      <trkpt lat="48.96132" lon="10.13444">
        <ele>442</ele>
        <time>2022-05-24T06:31:23Z</time>
      </trkpt>
      <trkpt lat="48.96124" lon="10.1349">
        <ele>441</ele>
        <time>2022-05-24T06:31:29Z</time>
      </trkpt>
      <trkpt lat="48.96097" lon="10.13565">
        <ele>441</ele>
        <time>2022-05-24T06:31:39Z</time>
      </trkpt>
      <trkpt lat="48.96117" lon="10.13565">
        <ele>441</ele>
        <time>2022-05-24T06:31:42Z</time>
      </trkpt>
      <trkpt lat="48.96142" lon="10.13553">
        <ele>441</ele>
        <time>2022-05-24T06:31:47Z</time>
      </trkpt>
      <trkpt lat="48.96176" lon="10.13524">
        <ele>440</ele>
        <time>2022-05-24T06:31:54Z</time>
      </trkpt>
      <trkpt lat="48.96244" lon="10.13518">
        <ele>445</ele>
        <time>2022-05-24T06:32:06Z</time>
      </trkpt>
      <trkpt lat="48.9631" lon="10.13492">
        <ele>448</ele>
        <time>2022-05-24T06:32:18Z</time>
      </trkpt>
      <trkpt lat="48.9638" lon="10.13478">
        <ele>450</ele>
        <time>2022-05-24T06:32:31Z</time>
      </trkpt>
      <trkpt lat="48.96437" lon="10.13489">
        <ele>452</ele>
        <time>2022-05-24T06:32:41Z</time>
      </trkpt>
      <trkpt lat="48.96454" lon="10.13519">
        <ele>453</ele>
        <time>2022-05-24T06:32:45Z</time>
      </trkpt>
      <trkpt lat="48.96454" lon="10.13542">
        <ele>455</ele>
        <time>2022-05-24T06:32:48Z</time>
      </trkpt>
      <trkpt lat="48.96497" lon="10.13567">
        <ele>455</ele>
        <time>2022-05-24T06:32:56Z</time>
      </trkpt>
      <trkpt lat="48.96554" lon="10.13635">
        <ele>459</ele>
        <time>2022-05-24T06:33:09Z</time>
      </trkpt>
      <trkpt lat="48.9677" lon="10.1398">
        <ele>457</ele>
        <time>2022-05-24T06:34:05Z</time>
      </trkpt>
      <trkpt lat="48.96883" lon="10.14151">
        <ele>458</ele>
        <time>2022-05-24T06:34:33Z</time>
      </trkpt>
      <trkpt lat="48.9692" lon="10.14195">
        <ele>458</ele>
        <time>2022-05-24T06:34:42Z</time>
      </trkpt>
      <trkpt lat="48.96945" lon="10.14207">
        <ele>459</ele>
        <time>2022-05-24T06:34:46Z</time>
      </trkpt>
      <trkpt lat="48.96947" lon="10.14275">
        <ele>461</ele>
        <time>2022-05-24T06:34:54Z</time>
      </trkpt>
      <trkpt lat="48.96965" lon="10.14348">
        <ele>465</ele>
        <time>2022-05-24T06:35:03Z</time>
      </trkpt>
      <trkpt lat="48.96993" lon="10.14507">
        <ele>472</ele>
        <time>2022-05-24T06:35:23Z</time>
      </trkpt>
      <trkpt lat="48.97042" lon="10.14669">
        <ele>483</ele>
        <time>2022-05-24T06:35:43Z</time>
      </trkpt>
      <trkpt lat="48.97086" lon="10.14828">
        <ele>492</ele>
        <time>2022-05-24T06:36:04Z</time>
      </trkpt>
      <trkpt lat="48.971" lon="10.14932">
        <ele>497</ele>
        <time>2022-05-24T06:36:16Z</time>
      </trkpt>
      <trkpt lat="48.97135" lon="10.15129">
        <ele>503</ele>
        <time>2022-05-24T06:36:40Z</time>
      </trkpt>
      <trkpt lat="48.97152" lon="10.15349">
        <ele>506</ele>
        <time>2022-05-24T06:37:06Z</time>
      </trkpt>
      <trkpt lat="48.97159" lon="10.15406">
        <ele>508</ele>
        <time>2022-05-24T06:37:12Z</time>
      </trkpt>
      <trkpt lat="48.97171" lon="10.15405">
        <ele>509</ele>
        <time>2022-05-24T06:37:15Z</time>
      </trkpt>
      <trkpt lat="48.97181" lon="10.15462">
        <ele>510</ele>
        <time>2022-05-24T06:37:21Z</time>
      </trkpt>
      <trkpt lat="48.97238" lon="10.15687">
        <ele>513</ele>
        <time>2022-05-24T06:37:50Z</time>
      </trkpt>
      <trkpt lat="48.97256" lon="10.15732">
        <ele>515</ele>
        <time>2022-05-24T06:37:56Z</time>
      </trkpt>
      <trkpt lat="48.97309" lon="10.15955">
        <ele>516</ele>
        <time>2022-05-24T06:38:23Z</time>
      </trkpt>
      <trkpt lat="48.97337" lon="10.16035">
        <ele>517</ele>
        <time>2022-05-24T06:38:34Z</time>
      </trkpt>
      <trkpt lat="48.97348" lon="10.161">
        <ele>518</ele>
        <time>2022-05-24T06:38:42Z</time>
      </trkpt>
      <trkpt lat="48.97391" lon="10.16277">
        <ele>521</ele>
        <time>2022-05-24T06:39:04Z</time>
      </trkpt>
      <trkpt lat="48.97431" lon="10.16488">
        <ele>520</ele>
        <time>2022-05-24T06:39:30Z</time>
      </trkpt>
      <trkpt lat="48.97435" lon="10.1654">
        <ele>520</ele>
        <time>2022-05-24T06:39:36Z</time>
      </trkpt>
      <trkpt lat="48.97444" lon="10.1658">
        <ele>519</ele>
        <time>2022-05-24T06:39:41Z</time>
      </trkpt>
      <trkpt lat="48.97472" lon="10.16637">
        <ele>518</ele>
        <time>2022-05-24T06:39:49Z</time>
      </trkpt>
      <trkpt lat="48.97496" lon="10.16696">
        <ele>517</ele>
        <time>2022-05-24T06:39:57Z</time>
      </trkpt>
      <trkpt lat="48.9753" lon="10.1675">
        <ele>518</ele>
        <time>2022-05-24T06:40:06Z</time>
      </trkpt>
      <trkpt lat="48.97603" lon="10.16828">
        <ele>519</ele>
        <time>2022-05-24T06:40:22Z</time>
      </trkpt>
      <trkpt lat="48.97597" lon="10.1684">
        <ele>519</ele>
        <time>2022-05-24T06:40:23Z</time>
      </trkpt>
      <trkpt lat="48.97698" lon="10.16932">
        <ele>519</ele>
        <time>2022-05-24T06:40:44Z</time>
      </trkpt>
      <trkpt lat="48.97716" lon="10.16923">
        <ele>520</ele>
        <time>2022-05-24T06:40:48Z</time>
      </trkpt>
      <trkpt lat="48.97887" lon="10.17088">
        <ele>521</ele>
        <time>2022-05-24T06:41:24Z</time>
      </trkpt>
      <trkpt lat="48.97962" lon="10.17126">
        <ele>524</ele>
        <time>2022-05-24T06:41:38Z</time>
      </trkpt>
      <trkpt lat="48.98065" lon="10.17204">
        <ele>525</ele>
        <time>2022-05-24T06:41:58Z</time>
      </trkpt>
      <trkpt lat="48.98126" lon="10.17221">
        <ele>524</ele>
        <time>2022-05-24T06:42:09Z</time>
      </trkpt>
      <trkpt lat="48.98243" lon="10.17235">
        <ele>526</ele>
        <time>2022-05-24T06:42:30Z</time>
      </trkpt>
      <trkpt lat="48.983" lon="10.17252">
        <ele>529</ele>
        <time>2022-05-24T06:42:41Z</time>
      </trkpt>
      <trkpt lat="48.98332" lon="10.1728">
        <ele>532</ele>
        <time>2022-05-24T06:42:47Z</time>
      </trkpt>
      <trkpt lat="48.98404" lon="10.17404">
        <ele>534</ele>
        <time>2022-05-24T06:43:06Z</time>
      </trkpt>
      <trkpt lat="48.98448" lon="10.17373">
        <ele>535</ele>
        <time>2022-05-24T06:43:15Z</time>
      </trkpt>
      <trkpt lat="48.98461" lon="10.174">
        <ele>535</ele>
        <time>2022-05-24T06:43:19Z</time>
      </trkpt>
      <trkpt lat="48.98537" lon="10.17448">
        <ele>538</ele>
        <time>2022-05-24T06:43:34Z</time>
      </trkpt>
      <trkpt lat="48.98579" lon="10.17491">
        <ele>538</ele>
        <time>2022-05-24T06:43:43Z</time>
      </trkpt>
      <trkpt lat="48.986" lon="10.17486">
        <ele>538</ele>
        <time>2022-05-24T06:43:46Z</time>
      </trkpt>
      <trkpt lat="48.98614" lon="10.17518">
        <ele>538</ele>
        <time>2022-05-24T06:43:51Z</time>
      </trkpt>
      <trkpt lat="48.98629" lon="10.17654">
        <ele>537</ele>
        <time>2022-05-24T06:44:07Z</time>
      </trkpt>
      <trkpt lat="48.98648" lon="10.17728">
        <ele>535</ele>
        <time>2022-05-24T06:44:16Z</time>
      </trkpt>
      <trkpt lat="48.98675" lon="10.17784">
        <ele>534</ele>
        <time>2022-05-24T06:44:24Z</time>
      </trkpt>
      <trkpt lat="48.98703" lon="10.17826">
        <ele>532</ele>
        <time>2022-05-24T06:44:31Z</time>
      </trkpt>
      <trkpt lat="48.9873" lon="10.17855">
        <ele>531</ele>
        <time>2022-05-24T06:44:37Z</time>
      </trkpt>
      <trkpt lat="48.98759" lon="10.17872">
        <ele>531</ele>
        <time>2022-05-24T06:44:43Z</time>
      </trkpt>
      <trkpt lat="48.98821" lon="10.17877">
        <ele>534</ele>
        <time>2022-05-24T06:44:54Z</time>
      </trkpt>
      <trkpt lat="48.98837" lon="10.17884">
        <ele>535</ele>
        <time>2022-05-24T06:44:57Z</time>
      </trkpt>
      <trkpt lat="48.98851" lon="10.17901">
        <ele>536</ele>
        <time>2022-05-24T06:45:00Z</time>
      </trkpt>
      <trkpt lat="48.98873" lon="10.17967">
        <ele>539</ele>
        <time>2022-05-24T06:45:09Z</time>
      </trkpt>
      <trkpt lat="48.98885" lon="10.18026">
        <ele>541</ele>
        <time>2022-05-24T06:45:16Z</time>
      </trkpt>
      <trkpt lat="48.98961" lon="10.18473">
        <ele>545</ele>
        <time>2022-05-24T06:46:10Z</time>
      </trkpt>
      <trkpt lat="48.99012" lon="10.18599">
        <ele>545</ele>
        <time>2022-05-24T06:46:27Z</time>
      </trkpt>
      <trkpt lat="48.99055" lon="10.18686">
        <ele>546</ele>
        <time>2022-05-24T06:46:40Z</time>
      </trkpt>
      <trkpt lat="48.99097" lon="10.18742">
        <ele>547</ele>
        <time>2022-05-24T06:46:50Z</time>
      </trkpt>
      <trkpt lat="48.99149" lon="10.18794">
        <ele>549</ele>
        <time>2022-05-24T06:47:01Z</time>
      </trkpt>
      <trkpt lat="48.99338" lon="10.18918">
        <ele>541</ele>
        <time>2022-05-24T06:47:37Z</time>
      </trkpt>
      <trkpt lat="48.99343" lon="10.18949">
        <ele>539</ele>
        <time>2022-05-24T06:47:41Z</time>
      </trkpt>
      <trkpt lat="48.99337" lon="10.18968">
        <ele>538</ele>
        <time>2022-05-24T06:47:44Z</time>
      </trkpt>
      <trkpt lat="48.99329" lon="10.18974">
        <ele>538</ele>
        <time>2022-05-24T06:47:45Z</time>
      </trkpt>
      <trkpt lat="48.99319" lon="10.18976">
        <ele>538</ele>
        <time>2022-05-24T06:47:47Z</time>
      </trkpt>
      <trkpt lat="48.99238" lon="10.18935">
        <ele>539</ele>
        <time>2022-05-24T06:48:02Z</time>
      </trkpt>
      <trkpt lat="48.99216" lon="10.18931">
        <ele>539</ele>
        <time>2022-05-24T06:48:06Z</time>
      </trkpt>
      <trkpt lat="48.99194" lon="10.18931">
        <ele>538</ele>
        <time>2022-05-24T06:48:10Z</time>
      </trkpt>
      <trkpt lat="48.99177" lon="10.18939">
        <ele>536</ele>
        <time>2022-05-24T06:48:13Z</time>
      </trkpt>
      <trkpt lat="48.99167" lon="10.18962">
        <ele>533</ele>
        <time>2022-05-24T06:48:16Z</time>
      </trkpt>
      <trkpt lat="48.99169" lon="10.18991">
        <ele>530</ele>
        <time>2022-05-24T06:48:20Z</time>
      </trkpt>
      <trkpt lat="48.99177" lon="10.19024">
        <ele>527</ele>
        <time>2022-05-24T06:48:24Z</time>
      </trkpt>
      <trkpt lat="48.99194" lon="10.19059">
        <ele>524</ele>
        <time>2022-05-24T06:48:29Z</time>
      </trkpt>
      <trkpt lat="48.99224" lon="10.19094">
        <ele>521</ele>
        <time>2022-05-24T06:48:36Z</time>
      </trkpt>
      <trkpt lat="48.99254" lon="10.19154">
        <ele>516</ele>
        <time>2022-05-24T06:48:44Z</time>
      </trkpt>
      <trkpt lat="48.99276" lon="10.19237">
        <ele>512</ele>
        <time>2022-05-24T06:48:55Z</time>
      </trkpt>
      <trkpt lat="48.99301" lon="10.19286">
        <ele>513</ele>
        <time>2022-05-24T06:49:02Z</time>
      </trkpt>
      <trkpt lat="48.99333" lon="10.19327">
        <ele>517</ele>
        <time>2022-05-24T06:49:10Z</time>
      </trkpt>
      <trkpt lat="48.99375" lon="10.19357">
        <ele>517</ele>
        <time>2022-05-24T06:49:18Z</time>
      </trkpt>
      <trkpt lat="48.99445" lon="10.19384">
        <ele>514</ele>
        <time>2022-05-24T06:49:31Z</time>
      </trkpt>
      <trkpt lat="48.99473" lon="10.19406">
        <ele>510</ele>
        <time>2022-05-24T06:49:36Z</time>
      </trkpt>
      <trkpt lat="48.99487" lon="10.19429">
        <ele>508</ele>
        <time>2022-05-24T06:49:40Z</time>
      </trkpt>
      <trkpt lat="48.99499" lon="10.19466">
        <ele>506</ele>
        <time>2022-05-24T06:49:45Z</time>
      </trkpt>
      <trkpt lat="48.99523" lon="10.19569">
        <ele>507</ele>
        <time>2022-05-24T06:49:58Z</time>
      </trkpt>
      <trkpt lat="48.99541" lon="10.19621">
        <ele>504</ele>
        <time>2022-05-24T06:50:04Z</time>
      </trkpt>
      <trkpt lat="48.99568" lon="10.19677">
        <ele>500</ele>
        <time>2022-05-24T06:50:13Z</time>
      </trkpt>
      <trkpt lat="48.99611" lon="10.19756">
        <ele>496</ele>
        <time>2022-05-24T06:50:24Z</time>
      </trkpt>
      <trkpt lat="48.99648" lon="10.1986">
        <ele>499</ele>
        <time>2022-05-24T06:50:38Z</time>
      </trkpt>
      <trkpt lat="48.99673" lon="10.19949">
        <ele>499</ele>
        <time>2022-05-24T06:50:50Z</time>
      </trkpt>
      <trkpt lat="48.99749" lon="10.20142">
        <ele>496</ele>
        <time>2022-05-24T06:51:16Z</time>
      </trkpt>
      <trkpt lat="48.99775" lon="10.2019">
        <ele>502</ele>
        <time>2022-05-24T06:51:23Z</time>
      </trkpt>
      <trkpt lat="48.99794" lon="10.20166">
        <ele>501</ele>
        <time>2022-05-24T06:51:28Z</time>
      </trkpt>
      <trkpt lat="48.99814" lon="10.20155">
        <ele>502</ele>
        <time>2022-05-24T06:51:31Z</time>
      </trkpt>
      <trkpt lat="48.99846" lon="10.20113">
        <ele>502</ele>
        <time>2022-05-24T06:51:39Z</time>
      </trkpt>
      <trkpt lat="48.99859" lon="10.20079">
        <ele>500</ele>
        <time>2022-05-24T06:51:43Z</time>
      </trkpt>
      <trkpt lat="48.99867" lon="10.20071">
        <ele>500</ele>
        <time>2022-05-24T06:51:45Z</time>
      </trkpt>
      <trkpt lat="48.99859" lon="10.20079">
        <ele>500</ele>
        <time>2022-05-24T06:51:47Z</time>
      </trkpt>
      <trkpt lat="48.99846" lon="10.20113">
        <ele>502</ele>
        <time>2022-05-24T06:51:51Z</time>
      </trkpt>
      <trkpt lat="48.99814" lon="10.20155">
        <ele>502</ele>
        <time>2022-05-24T06:51:59Z</time>
      </trkpt>
      <trkpt lat="48.99794" lon="10.20166">
        <ele>501</ele>
        <time>2022-05-24T06:52:03Z</time>
      </trkpt>
      <trkpt lat="48.99775" lon="10.2019">
        <ele>502</ele>
        <time>2022-05-24T06:52:07Z</time>
      </trkpt>
      <trkpt lat="48.99803" lon="10.20208">
        <ele>505</ele>
        <time>2022-05-24T06:52:13Z</time>
      </trkpt>
      <trkpt lat="48.99911" lon="10.20218">
        <ele>515</ele>
        <time>2022-05-24T06:52:32Z</time>
      </trkpt>
      <trkpt lat="48.99998" lon="10.20243">
        <ele>523</ele>
        <time>2022-05-24T06:52:48Z</time>
      </trkpt>
      <trkpt lat="49.00101" lon="10.20253">
        <ele>535</ele>
        <time>2022-05-24T06:53:06Z</time>
      </trkpt>
      <trkpt lat="49.00136" lon="10.20264">
        <ele>537</ele>
        <time>2022-05-24T06:53:12Z</time>
      </trkpt>
      <trkpt lat="49.00225" lon="10.20312">
        <ele>543</ele>
        <time>2022-05-24T06:53:29Z</time>
      </trkpt>
      <trkpt lat="49.00259" lon="10.20353">
        <ele>546</ele>
        <time>2022-05-24T06:53:37Z</time>
      </trkpt>
      <trkpt lat="49.00309" lon="10.20427">
        <ele>549</ele>
        <time>2022-05-24T06:53:49Z</time>
      </trkpt>
      <trkpt lat="49.00389" lon="10.2057">
        <ele>556</ele>
        <time>2022-05-24T06:54:11Z</time>
      </trkpt>
      <trkpt lat="49.00425" lon="10.20542">
        <ele>556</ele>
        <time>2022-05-24T06:54:18Z</time>
      </trkpt>
      <trkpt lat="49.0054" lon="10.20534">
        <ele>560</ele>
        <time>2022-05-24T06:54:39Z</time>
      </trkpt>
      <trkpt lat="49.00573" lon="10.20544">
        <ele>561</ele>
        <time>2022-05-24T06:54:45Z</time>
      </trkpt>
      <trkpt lat="49.00587" lon="10.20556">
        <ele>562</ele>
        <time>2022-05-24T06:54:48Z</time>
      </trkpt>
      <trkpt lat="49.00642" lon="10.20632">
        <ele>563</ele>
        <time>2022-05-24T06:55:01Z</time>
      </trkpt>
      <trkpt lat="49.00681" lon="10.20677">
        <ele>563</ele>
        <time>2022-05-24T06:55:10Z</time>
      </trkpt>
      <trkpt lat="49.00735" lon="10.20729">
        <ele>563</ele>
        <time>2022-05-24T06:55:21Z</time>
      </trkpt>
      <trkpt lat="49.00767" lon="10.20748">
        <ele>564</ele>
        <time>2022-05-24T06:55:27Z</time>
      </trkpt>
      <trkpt lat="49.00921" lon="10.20811">
        <ele>567</ele>
        <time>2022-05-24T06:55:55Z</time>
      </trkpt>
      <trkpt lat="49.00973" lon="10.20843">
        <ele>568</ele>
        <time>2022-05-24T06:56:05Z</time>
      </trkpt>
      <trkpt lat="49.01009" lon="10.20878">
        <ele>569</ele>
        <time>2022-05-24T06:56:13Z</time>
      </trkpt>
      <trkpt lat="49.01031" lon="10.20913">
        <ele>569</ele>
        <time>2022-05-24T06:56:19Z</time>
      </trkpt>
      <trkpt lat="49.01086" lon="10.21095">
        <ele>570</ele>
        <time>2022-05-24T06:56:42Z</time>
      </trkpt>
      <trkpt lat="49.01145" lon="10.21266">
        <ele>571</ele>
        <time>2022-05-24T06:57:05Z</time>
      </trkpt>
      <trkpt lat="49.01149" lon="10.2129">
        <ele>571</ele>
        <time>2022-05-24T06:57:07Z</time>
      </trkpt>
      <trkpt lat="49.01191" lon="10.21324">
        <ele>572</ele>
        <time>2022-05-24T06:57:16Z</time>
      </trkpt>
      <trkpt lat="49.01222" lon="10.21383">
        <ele>573</ele>
        <time>2022-05-24T06:57:25Z</time>
      </trkpt>
      <trkpt lat="49.01289" lon="10.21559">
        <ele>574</ele>
        <time>2022-05-24T06:57:48Z</time>
      </trkpt>
      <trkpt lat="49.01331" lon="10.21647">
        <ele>577</ele>
        <time>2022-05-24T06:58:01Z</time>
      </trkpt>
      <trkpt lat="49.01345" lon="10.21694">
        <ele>577</ele>
        <time>2022-05-24T06:58:07Z</time>
      </trkpt>
      <trkpt lat="49.01371" lon="10.21827">
        <ele>575</ele>
        <time>2022-05-24T06:58:23Z</time>
      </trkpt>
      <trkpt lat="49.01452" lon="10.22104">
        <ele>572</ele>
        <time>2022-05-24T06:58:59Z</time>
      </trkpt>
      <trkpt lat="49.01479" lon="10.22204">
        <ele>574</ele>
        <time>2022-05-24T06:59:11Z</time>
      </trkpt>
      <trkpt lat="49.01488" lon="10.2221">
        <ele>574</ele>
        <time>2022-05-24T06:59:13Z</time>
      </trkpt>
      <trkpt lat="49.01515" lon="10.22265">
        <ele>574</ele>
        <time>2022-05-24T06:59:21Z</time>
      </trkpt>
      <trkpt lat="49.01536" lon="10.22286">
        <ele>575</ele>
        <time>2022-05-24T06:59:26Z</time>
      </trkpt>
      <trkpt lat="49.01566" lon="10.22297">
        <ele>575</ele>
        <time>2022-05-24T06:59:31Z</time>
      </trkpt>
      <trkpt lat="49.01611" lon="10.22284">
        <ele>573</ele>
        <time>2022-05-24T06:59:39Z</time>
      </trkpt>
      <trkpt lat="49.01665" lon="10.22223">
        <ele>570</ele>
        <time>2022-05-24T06:59:51Z</time>
      </trkpt>
      <trkpt lat="49.01708" lon="10.22155">
        <ele>566</ele>
        <time>2022-05-24T07:00:02Z</time>
      </trkpt>
      <trkpt lat="49.01787" lon="10.21988">
        <ele>554</ele>
        <time>2022-05-24T07:00:26Z</time>
      </trkpt>
      <trkpt lat="49.01818" lon="10.21935">
        <ele>550</ele>
        <time>2022-05-24T07:00:35Z</time>
      </trkpt>
      <trkpt lat="49.01855" lon="10.21903">
        <ele>548</ele>
        <time>2022-05-24T07:00:42Z</time>
      </trkpt>
      <trkpt lat="49.0188" lon="10.2189">
        <ele>547</ele>
        <time>2022-05-24T07:00:47Z</time>
      </trkpt>
      <trkpt lat="49.0191" lon="10.21885">
        <ele>545</ele>
        <time>2022-05-24T07:00:52Z</time>
      </trkpt>
      <trkpt lat="49.0198" lon="10.21905">
        <ele>536</ele>
        <time>2022-05-24T07:01:05Z</time>
      </trkpt>
      <trkpt lat="49.02138" lon="10.22063">
        <ele>522</ele>
        <time>2022-05-24T07:01:38Z</time>
      </trkpt>
      <trkpt lat="49.02204" lon="10.22139">
        <ele>521</ele>
        <time>2022-05-24T07:01:53Z</time>
      </trkpt>
      <trkpt lat="49.02266" lon="10.22252">
        <ele>519</ele>
        <time>2022-05-24T07:02:10Z</time>
      </trkpt>
      <trkpt lat="49.02321" lon="10.22319">
        <ele>517</ele>
        <time>2022-05-24T07:02:23Z</time>
      </trkpt>
      <trkpt lat="49.023" lon="10.22396">
        <ele>522</ele>
        <time>2022-05-24T07:02:33Z</time>
      </trkpt>
      <trkpt lat="49.02276" lon="10.22534">
        <ele>517</ele>
        <time>2022-05-24T07:02:49Z</time>
      </trkpt>
      <trkpt lat="49.02281" lon="10.22607">
        <ele>516</ele>
        <time>2022-05-24T07:02:58Z</time>
      </trkpt>
      <trkpt lat="49.02333" lon="10.22802">
        <ele>518</ele>
        <time>2022-05-24T07:03:22Z</time>
      </trkpt>
      <trkpt lat="49.02344" lon="10.2286">
        <ele>515</ele>
        <time>2022-05-24T07:03:29Z</time>
      </trkpt>
      <trkpt lat="49.0236" lon="10.2297">
        <ele>511</ele>
        <time>2022-05-24T07:03:43Z</time>
      </trkpt>
      <trkpt lat="49.02361" lon="10.23022">
        <ele>510</ele>
        <time>2022-05-24T07:03:49Z</time>
      </trkpt>
      <trkpt lat="49.0236" lon="10.23092">
        <ele>507</ele>
        <time>2022-05-24T07:03:57Z</time>
      </trkpt>
      <trkpt lat="49.0231" lon="10.23669">
        <ele>492</ele>
        <time>2022-05-24T07:05:05Z</time>
      </trkpt>
      <trkpt lat="49.02319" lon="10.23702">
        <ele>491</ele>
        <time>2022-05-24T07:05:09Z</time>
      </trkpt>
      <trkpt lat="49.02343" lon="10.23736">
        <ele>491</ele>
        <time>2022-05-24T07:05:15Z</time>
      </trkpt>
      <trkpt lat="49.02375" lon="10.238">
        <ele>495</ele>
        <time>2022-05-24T07:05:24Z</time>
      </trkpt>
      <trkpt lat="49.02396" lon="10.23865">
        <ele>498</ele>
        <time>2022-05-24T07:05:33Z</time>
      </trkpt>
      <trkpt lat="49.02416" lon="10.23939">
        <ele>500</ele>
        <time>2022-05-24T07:05:42Z</time>
      </trkpt>
      <trkpt lat="49.02422" lon="10.2398">
        <ele>499</ele>
        <time>2022-05-24T07:05:47Z</time>
      </trkpt>
      <trkpt lat="49.02436" lon="10.24169">
        <ele>499</ele>
        <time>2022-05-24T07:06:09Z</time>
      </trkpt>
      <trkpt lat="49.02325" lon="10.24204">
        <ele>486</ele>
        <time>2022-05-24T07:06:29Z</time>
      </trkpt>
      <trkpt lat="49.02282" lon="10.24194">
        <ele>484</ele>
        <time>2022-05-24T07:06:37Z</time>
      </trkpt>
      <trkpt lat="49.02176" lon="10.24199">
        <ele>491</ele>
        <time>2022-05-24T07:06:56Z</time>
      </trkpt>
      <trkpt lat="49.02191" lon="10.24429">
        <ele>493</ele>
        <time>2022-05-24T07:07:23Z</time>
      </trkpt>
      <trkpt lat="49.02177" lon="10.24691">
        <ele>494</ele>
        <time>2022-05-24T07:07:53Z</time>
      </trkpt>
      <trkpt lat="49.02137" lon="10.24885">
        <ele>491</ele>
        <time>2022-05-24T07:08:17Z</time>
      </trkpt>
      <trkpt lat="49.02138" lon="10.24918">
        <ele>490</ele>
        <time>2022-05-24T07:08:21Z</time>
      </trkpt>
      <trkpt lat="49.02147" lon="10.24966">
        <ele>487</ele>
        <time>2022-05-24T07:08:27Z</time>
      </trkpt>
      <trkpt lat="49.02231" lon="10.25219">
        <ele>496</ele>
        <time>2022-05-24T07:09:00Z</time>
      </trkpt>
      <trkpt lat="49.02465" lon="10.25948">
        <ele>488</ele>
        <time>2022-05-24T07:10:35Z</time>
      </trkpt>
      <trkpt lat="49.02544" lon="10.26074">
        <ele>480</ele>
        <time>2022-05-24T07:10:55Z</time>
      </trkpt>
      <trkpt lat="49.02579" lon="10.26096">
        <ele>479</ele>
        <time>2022-05-24T07:11:02Z</time>
      </trkpt>
      <trkpt lat="49.02645" lon="10.26223">
        <ele>471</ele>
        <time>2022-05-24T07:11:21Z</time>
      </trkpt>
      <trkpt lat="49.02656" lon="10.26253">
        <ele>470</ele>
        <time>2022-05-24T07:11:25Z</time>
      </trkpt>
      <trkpt lat="49.02707" lon="10.26434">
        <ele>465</ele>
        <time>2022-05-24T07:11:48Z</time>
      </trkpt>
      <trkpt lat="49.02722" lon="10.26582">
        <ele>466</ele>
        <time>2022-05-24T07:12:05Z</time>
      </trkpt>
      <trkpt lat="49.02734" lon="10.26617">
        <ele>465</ele>
        <time>2022-05-24T07:12:10Z</time>
      </trkpt>
      <trkpt lat="49.02782" lon="10.26709">
        <ele>463</ele>
        <time>2022-05-24T07:12:23Z</time>
      </trkpt>
      <trkpt lat="49.02845" lon="10.26975">
        <ele>458</ele>
        <time>2022-05-24T07:12:56Z</time>
      </trkpt>
      <trkpt lat="49.02848" lon="10.27013">
        <ele>457</ele>
        <time>2022-05-24T07:13:01Z</time>
      </trkpt>
      <trkpt lat="49.02855" lon="10.27057">
        <ele>457</ele>
        <time>2022-05-24T07:13:06Z</time>
      </trkpt>
      <trkpt lat="49.02875" lon="10.27108">
        <ele>456</ele>
        <time>2022-05-24T07:13:13Z</time>
      </trkpt>
      <trkpt lat="49.02908" lon="10.2711">
        <ele>456</ele>
        <time>2022-05-24T07:13:19Z</time>
      </trkpt>
      <trkpt lat="49.02919" lon="10.27105">
        <ele>456</ele>
        <time>2022-05-24T07:13:21Z</time>
      </trkpt>
      <trkpt lat="49.02921" lon="10.27098">
        <ele>457</ele>
        <time>2022-05-24T07:13:22Z</time>
      </trkpt>
      <trkpt lat="49.02942" lon="10.27101">
        <ele>456</ele>
        <time>2022-05-24T07:13:26Z</time>
      </trkpt>
      <trkpt lat="49.02982" lon="10.27087">
        <ele>456</ele>
        <time>2022-05-24T07:13:33Z</time>
      </trkpt>
      <trkpt lat="49.02993" lon="10.27099">
        <ele>456</ele>
        <time>2022-05-24T07:13:35Z</time>
      </trkpt>
      <trkpt lat="49.03015" lon="10.27103">
        <ele>455</ele>
        <time>2022-05-24T07:13:39Z</time>
      </trkpt>
      <trkpt lat="49.03035" lon="10.27093">
        <ele>454</ele>
        <time>2022-05-24T07:13:43Z</time>
      </trkpt>
      <trkpt lat="49.03086" lon="10.27237">
        <ele>453</ele>
        <time>2022-05-24T07:14:02Z</time>
      </trkpt>
      <trkpt lat="49.03091" lon="10.27296">
        <ele>452</ele>
        <time>2022-05-24T07:14:09Z</time>
      </trkpt>
      <trkpt lat="49.03104" lon="10.27298">
        <ele>452</ele>
        <time>2022-05-24T07:14:11Z</time>
      </trkpt>
      <trkpt lat="49.03132" lon="10.27296">
        <ele>451</ele>
        <time>2022-05-24T07:14:16Z</time>
      </trkpt>
      <trkpt lat="49.0316" lon="10.27276">
        <ele>450</ele>
        <time>2022-05-24T07:14:22Z</time>
      </trkpt>
      <trkpt lat="49.0318" lon="10.2727">
        <ele>451</ele>
        <time>2022-05-24T07:14:26Z</time>
      </trkpt>
      <trkpt lat="49.03217" lon="10.27283">
        <ele>453</ele>
        <time>2022-05-24T07:14:32Z</time>
      </trkpt>
      <trkpt lat="49.03249" lon="10.27318">
        <ele>455</ele>
        <time>2022-05-24T07:14:39Z</time>
      </trkpt>
      <trkpt lat="49.03261" lon="10.27357">
        <ele>457</ele>
        <time>2022-05-24T07:14:44Z</time>
      </trkpt>
      <trkpt lat="49.03264" lon="10.27399">
        <ele>458</ele>
        <time>2022-05-24T07:14:49Z</time>
      </trkpt>
      <trkpt lat="49.03252" lon="10.27416">
        <ele>457</ele>
        <time>2022-05-24T07:14:52Z</time>
      </trkpt>
      <trkpt lat="49.03251" lon="10.27444">
        <ele>457</ele>
        <time>2022-05-24T07:14:55Z</time>
      </trkpt>
      <trkpt lat="49.0321" lon="10.27592">
        <ele>457</ele>
        <time>2022-05-24T07:15:14Z</time>
      </trkpt>
      <trkpt lat="49.03156" lon="10.27688">
        <ele>457</ele>
        <time>2022-05-24T07:15:29Z</time>
      </trkpt>
      <trkpt lat="49.03134" lon="10.27737">
        <ele>456</ele>
        <time>2022-05-24T07:15:36Z</time>
      </trkpt>
      <trkpt lat="49.03122" lon="10.27782">
        <ele>456</ele>
        <time>2022-05-24T07:15:42Z</time>
      </trkpt>
      <trkpt lat="49.031" lon="10.27924">
        <ele>455</ele>
        <time>2022-05-24T07:15:59Z</time>
      </trkpt>
      <trkpt lat="49.03072" lon="10.28035">
        <ele>451</ele>
        <time>2022-05-24T07:16:12Z</time>
      </trkpt>
      <trkpt lat="49.02977" lon="10.28362">
        <ele>446</ele>
        <time>2022-05-24T07:16:54Z</time>
      </trkpt>
      <trkpt lat="49.02985" lon="10.2852">
        <ele>448</ele>
        <time>2022-05-24T07:17:13Z</time>
      </trkpt>
      <trkpt lat="49.03002" lon="10.28554">
        <ele>447</ele>
        <time>2022-05-24T07:17:18Z</time>
      </trkpt>
      <trkpt lat="49.03053" lon="10.28587">
        <ele>448</ele>
        <time>2022-05-24T07:17:27Z</time>
      </trkpt>
      <trkpt lat="49.0307" lon="10.28618">
        <ele>449</ele>
        <time>2022-05-24T07:17:32Z</time>
      </trkpt>
      <trkpt lat="49.03042" lon="10.2864">
        <ele>448</ele>
        <time>2022-05-24T07:17:38Z</time>
      </trkpt>
      <trkpt lat="49.03002" lon="10.28712">
        <ele>449</ele>
        <time>2022-05-24T07:17:49Z</time>
      </trkpt>
      <trkpt lat="49.02975" lon="10.28745">
        <ele>448</ele>
        <time>2022-05-24T07:17:55Z</time>
      </trkpt>
      <trkpt lat="49.02959" lon="10.28776">
        <ele>448</ele>
        <time>2022-05-24T07:18:00Z</time>
      </trkpt>
      <trkpt lat="49.02953" lon="10.28796">
        <ele>448</ele>
        <time>2022-05-24T07:18:02Z</time>
      </trkpt>
      <trkpt lat="49.02946" lon="10.28873">
        <ele>449</ele>
        <time>2022-05-24T07:18:11Z</time>
      </trkpt>
      <trkpt lat="49.02948" lon="10.28897">
        <ele>450</ele>
        <time>2022-05-24T07:18:14Z</time>
      </trkpt>
      <trkpt lat="49.02966" lon="10.28968">
        <ele>450</ele>
        <time>2022-05-24T07:18:23Z</time>
      </trkpt>
      <trkpt lat="49.02955" lon="10.29213">
        <ele>450</ele>
        <time>2022-05-24T07:18:52Z</time>
      </trkpt>
      <trkpt lat="49.02946" lon="10.2925">
        <ele>450</ele>
        <time>2022-05-24T07:18:56Z</time>
      </trkpt>
      <trkpt lat="49.02799" lon="10.29673">
        <ele>449</ele>
        <time>2022-05-24T07:19:52Z</time>
      </trkpt>
      <trkpt lat="49.02791" lon="10.29719">
        <ele>451</ele>
        <time>2022-05-24T07:19:58Z</time>
      </trkpt>
      <trkpt lat="49.0279" lon="10.2979">
        <ele>452</ele>
        <time>2022-05-24T07:20:06Z</time>
      </trkpt>
      <trkpt lat="49.02784" lon="10.29819">
        <ele>452</ele>
        <time>2022-05-24T07:20:09Z</time>
      </trkpt>
      <trkpt lat="49.02738" lon="10.29891">
        <ele>448</ele>
        <time>2022-05-24T07:20:21Z</time>
      </trkpt>
      <trkpt lat="49.02727" lon="10.29925">
        <ele>447</ele>
        <time>2022-05-24T07:20:26Z</time>
      </trkpt>
      <trkpt lat="49.02702" lon="10.30322">
        <ele>444</ele>
        <time>2022-05-24T07:21:12Z</time>
      </trkpt>
      <trkpt lat="49.02712" lon="10.30489">
        <ele>445</ele>
        <time>2022-05-24T07:21:32Z</time>
      </trkpt>
      <trkpt lat="49.0273" lon="10.30567">
        <ele>447</ele>
        <time>2022-05-24T07:21:41Z</time>
      </trkpt>
      <trkpt lat="49.02751" lon="10.30638">
        <ele>449</ele>
        <time>2022-05-24T07:21:50Z</time>
      </trkpt>
      <trkpt lat="49.02748" lon="10.30724">
        <ele>448</ele>
        <time>2022-05-24T07:22:00Z</time>
      </trkpt>
      <trkpt lat="49.02792" lon="10.30971">
        <ele>445</ele>
        <time>2022-05-24T07:22:30Z</time>
      </trkpt>
      <trkpt lat="49.02712" lon="10.3104">
        <ele>444</ele>
        <time>2022-05-24T07:22:47Z</time>
      </trkpt>
      <trkpt lat="49.02698" lon="10.31065">
        <ele>443</ele>
        <time>2022-05-24T07:22:50Z</time>
      </trkpt>
      <trkpt lat="49.02686" lon="10.31103">
        <ele>443</ele>
        <time>2022-05-24T07:22:55Z</time>
      </trkpt>
      <trkpt lat="49.02665" lon="10.31426">
        <ele>442</ele>
        <time>2022-05-24T07:23:33Z</time>
      </trkpt>
      <trkpt lat="49.02595" lon="10.31428">
        <ele>442</ele>
        <time>2022-05-24T07:23:46Z</time>
      </trkpt>
      <trkpt lat="49.0254" lon="10.31421">
        <ele>443</ele>
        <time>2022-05-24T07:23:56Z</time>
      </trkpt>
      <trkpt lat="49.02504" lon="10.31618">
        <ele>448</ele>
        <time>2022-05-24T07:24:19Z</time>
      </trkpt>
      <trkpt lat="49.02495" lon="10.31821">
        <ele>457</ele>
        <time>2022-05-24T07:24:43Z</time>
      </trkpt>
      <trkpt lat="49.02489" lon="10.3187">
        <ele>456</ele>
        <time>2022-05-24T07:24:49Z</time>
      </trkpt>
      <trkpt lat="49.02437" lon="10.32013">
        <ele>461</ele>
        <time>2022-05-24T07:25:08Z</time>
      </trkpt>
      <trkpt lat="49.02424" lon="10.32068">
        <ele>460</ele>
        <time>2022-05-24T07:25:15Z</time>
      </trkpt>
      <trkpt lat="49.02421" lon="10.32144">
        <ele>458</ele>
        <time>2022-05-24T07:25:24Z</time>
      </trkpt>
      <trkpt lat="49.0243" lon="10.32227">
        <ele>452</ele>
        <time>2022-05-24T07:25:34Z</time>
      </trkpt>
      <trkpt lat="49.02431" lon="10.3229">
        <ele>448</ele>
        <time>2022-05-24T07:25:41Z</time>
      </trkpt>
      <trkpt lat="49.02424" lon="10.32448">
        <ele>442</ele>
        <time>2022-05-24T07:25:59Z</time>
      </trkpt>
      <trkpt lat="49.02409" lon="10.32546">
        <ele>442</ele>
        <time>2022-05-24T07:26:11Z</time>
      </trkpt>
      <trkpt lat="49.02339" lon="10.32765">
        <ele>443</ele>
        <time>2022-05-24T07:26:40Z</time>
      </trkpt>
      <trkpt lat="49.02321" lon="10.32836">
        <ele>444</ele>
        <time>2022-05-24T07:26:48Z</time>
      </trkpt>
      <trkpt lat="49.02308" lon="10.32928">
        <ele>443</ele>
        <time>2022-05-24T07:26:59Z</time>
      </trkpt>
      <trkpt lat="49.0231" lon="10.3331">
        <ele>443</ele>
        <time>2022-05-24T07:27:44Z</time>
      </trkpt>
      <trkpt lat="49.02324" lon="10.33475">
        <ele>444</ele>
        <time>2022-05-24T07:28:03Z</time>
      </trkpt>
      <trkpt lat="49.02344" lon="10.3361">
        <ele>441</ele>
        <time>2022-05-24T07:28:20Z</time>
      </trkpt>
      <trkpt lat="49.02386" lon="10.33631">
        <ele>440</ele>
        <time>2022-05-24T07:28:27Z</time>
      </trkpt>
      <trkpt lat="49.02409" lon="10.33634">
        <ele>439</ele>
        <time>2022-05-24T07:28:32Z</time>
      </trkpt>
      <trkpt lat="49.02473" lon="10.33627">
        <ele>441</ele>
        <time>2022-05-24T07:28:43Z</time>
      </trkpt>
      <trkpt lat="49.02503" lon="10.3362">
        <ele>442</ele>
        <time>2022-05-24T07:28:48Z</time>
      </trkpt>
      <trkpt lat="49.02526" lon="10.33619">
        <ele>443</ele>
        <time>2022-05-24T07:28:52Z</time>
      </trkpt>
      <trkpt lat="49.02591" lon="10.33629">
        <ele>444</ele>
        <time>2022-05-24T07:29:04Z</time>
      </trkpt>
      <trkpt lat="49.02585" lon="10.33692">
        <ele>444</ele>
        <time>2022-05-24T07:29:11Z</time>
      </trkpt>
      <trkpt lat="49.02546" lon="10.3382">
        <ele>441</ele>
        <time>2022-05-24T07:29:28Z</time>
      </trkpt>
      <trkpt lat="49.02529" lon="10.33961">
        <ele>440</ele>
        <time>2022-05-24T07:29:45Z</time>
      </trkpt>
      <trkpt lat="49.02503" lon="10.34098">
        <ele>441</ele>
        <time>2022-05-24T07:30:01Z</time>
      </trkpt>
      <trkpt lat="49.02459" lon="10.34273">
        <ele>439</ele>
        <time>2022-05-24T07:30:23Z</time>
      </trkpt>
      <trkpt lat="49.02446" lon="10.34351">
        <ele>439</ele>
        <time>2022-05-24T07:30:33Z</time>
      </trkpt>
      <trkpt lat="49.0244" lon="10.34415">
        <ele>438</ele>
        <time>2022-05-24T07:30:40Z</time>
      </trkpt>
      <trkpt lat="49.02439" lon="10.34667">
        <ele>438</ele>
        <time>2022-05-24T07:31:10Z</time>
      </trkpt>
      <trkpt lat="49.02479" lon="10.35049">
        <ele>441</ele>
        <time>2022-05-24T07:31:55Z</time>
      </trkpt>
      <trkpt lat="49.02497" lon="10.35196">
        <ele>441</ele>
        <time>2022-05-24T07:32:12Z</time>
      </trkpt>
      <trkpt lat="49.0247" lon="10.35237">
        <ele>442</ele>
        <time>2022-05-24T07:32:19Z</time>
      </trkpt>
      <trkpt lat="49.02364" lon="10.35463">
        <ele>441</ele>
        <time>2022-05-24T07:32:51Z</time>
      </trkpt>
      <trkpt lat="49.02316" lon="10.35789">
        <ele>441</ele>
        <time>2022-05-24T07:33:30Z</time>
      </trkpt>
      <trkpt lat="49.02291" lon="10.36026">
        <ele>441</ele>
        <time>2022-05-24T07:33:58Z</time>
      </trkpt>
      <trkpt lat="49.02294" lon="10.3616">
        <ele>441</ele>
        <time>2022-05-24T07:34:14Z</time>
      </trkpt>
      <trkpt lat="49.02268" lon="10.36164">
        <ele>441</ele>
        <time>2022-05-24T07:34:19Z</time>
      </trkpt>
      <trkpt lat="49.02254" lon="10.3626">
        <ele>441</ele>
        <time>2022-05-24T07:34:30Z</time>
      </trkpt>
      <trkpt lat="49.02199" lon="10.36443">
        <ele>439</ele>
        <time>2022-05-24T07:34:54Z</time>
      </trkpt>
      <trkpt lat="49.0219" lon="10.36503">
        <ele>438</ele>
        <time>2022-05-24T07:35:01Z</time>
      </trkpt>
      <trkpt lat="49.02212" lon="10.36665">
        <ele>440</ele>
        <time>2022-05-24T07:35:20Z</time>
      </trkpt>
      <trkpt lat="49.02352" lon="10.37217">
        <ele>438</ele>
        <time>2022-05-24T07:36:29Z</time>
      </trkpt>
      <trkpt lat="49.0236" lon="10.37239">
        <ele>438</ele>
        <time>2022-05-24T07:36:32Z</time>
      </trkpt>
      <trkpt lat="49.02372" lon="10.37253">
        <ele>438</ele>
        <time>2022-05-24T07:36:35Z</time>
      </trkpt>
      <trkpt lat="49.02392" lon="10.37263">
        <ele>439</ele>
        <time>2022-05-24T07:36:38Z</time>
      </trkpt>
      <trkpt lat="49.02444" lon="10.37251">
        <ele>440</ele>
        <time>2022-05-24T07:36:48Z</time>
      </trkpt>
      <trkpt lat="49.02468" lon="10.37257">
        <ele>440</ele>
        <time>2022-05-24T07:36:52Z</time>
      </trkpt>
      <trkpt lat="49.02499" lon="10.37291">
        <ele>440</ele>
        <time>2022-05-24T07:36:59Z</time>
      </trkpt>
      <trkpt lat="49.02624" lon="10.37509">
        <ele>439</ele>
        <time>2022-05-24T07:37:33Z</time>
      </trkpt>
      <trkpt lat="49.02836" lon="10.37728">
        <ele>435</ele>
        <time>2022-05-24T07:38:18Z</time>
      </trkpt>
      <trkpt lat="49.0282" lon="10.37853">
        <ele>433</ele>
        <time>2022-05-24T07:38:33Z</time>
      </trkpt>
      <trkpt lat="49.02807" lon="10.38144">
        <ele>433</ele>
        <time>2022-05-24T07:39:07Z</time>
      </trkpt>
      <trkpt lat="49.02821" lon="10.38398">
        <ele>433</ele>
        <time>2022-05-24T07:39:37Z</time>
      </trkpt>
      <trkpt lat="49.0283" lon="10.38423">
        <ele>433</ele>
        <time>2022-05-24T07:39:40Z</time>
      </trkpt>
      <trkpt lat="49.02865" lon="10.38478">
        <ele>433</ele>
        <time>2022-05-24T07:39:49Z</time>
      </trkpt>
      <trkpt lat="49.02862" lon="10.38503">
        <ele>433</ele>
        <time>2022-05-24T07:39:52Z</time>
      </trkpt>
      <trkpt lat="49.02823" lon="10.38562">
        <ele>433</ele>
        <time>2022-05-24T07:40:02Z</time>
      </trkpt>
      <trkpt lat="49.0282" lon="10.38574">
        <ele>433</ele>
        <time>2022-05-24T07:40:03Z</time>
      </trkpt>
      <trkpt lat="49.0283" lon="10.38593">
        <ele>433</ele>
        <time>2022-05-24T07:40:06Z</time>
      </trkpt>
      <trkpt lat="49.0283" lon="10.38603">
        <ele>433</ele>
        <time>2022-05-24T07:40:07Z</time>
      </trkpt>
      <trkpt lat="49.0278" lon="10.3868">
        <ele>432</ele>
        <time>2022-05-24T07:40:20Z</time>
      </trkpt>
      <trkpt lat="49.02763" lon="10.38736">
        <ele>434</ele>
        <time>2022-05-24T07:40:27Z</time>
      </trkpt>
      <trkpt lat="49.02741" lon="10.38727">
        <ele>434</ele>
        <time>2022-05-24T07:40:31Z</time>
      </trkpt>
      <trkpt lat="49.02615" lon="10.38937">
        <ele>441</ele>
        <time>2022-05-24T07:41:05Z</time>
      </trkpt>
      <trkpt lat="49.02614" lon="10.38958">
        <ele>441</ele>
        <time>2022-05-24T07:41:07Z</time>
      </trkpt>
      <trkpt lat="49.02625" lon="10.38986">
        <ele>442</ele>
        <time>2022-05-24T07:41:11Z</time>
      </trkpt>
      <trkpt lat="49.02622" lon="10.39005">
        <ele>442</ele>
        <time>2022-05-24T07:41:13Z</time>
      </trkpt>
      <trkpt lat="49.02643" lon="10.39014">
        <ele>443</ele>
        <time>2022-05-24T07:41:17Z</time>
      </trkpt>
      <trkpt lat="49.02684" lon="10.39068">
        <ele>443</ele>
        <time>2022-05-24T07:41:27Z</time>
      </trkpt>
      <trkpt lat="49.02729" lon="10.3914">
        <ele>444</ele>
        <time>2022-05-24T07:41:38Z</time>
      </trkpt>
      <trkpt lat="49.02755" lon="10.39171">
        <ele>445</ele>
        <time>2022-05-24T07:41:44Z</time>
      </trkpt>
      <trkpt lat="49.02801" lon="10.39199">
        <ele>441</ele>
        <time>2022-05-24T07:41:53Z</time>
      </trkpt>
      <trkpt lat="49.02855" lon="10.39174">
        <ele>439</ele>
        <time>2022-05-24T07:42:03Z</time>
      </trkpt>
      <trkpt lat="49.0295" lon="10.39087">
        <ele>437</ele>
        <time>2022-05-24T07:42:23Z</time>
      </trkpt>
      <trkpt lat="49.02965" lon="10.39097">
        <ele>436</ele>
        <time>2022-05-24T07:42:26Z</time>
      </trkpt>
      <trkpt lat="49.02981" lon="10.3913">
        <ele>436</ele>
        <time>2022-05-24T07:42:30Z</time>
      </trkpt>
      <trkpt lat="49.02997" lon="10.39135">
        <ele>436</ele>
        <time>2022-05-24T07:42:33Z</time>
      </trkpt>
      <trkpt lat="49.0301" lon="10.3913">
        <ele>435</ele>
        <time>2022-05-24T07:42:36Z</time>
      </trkpt>
      <trkpt lat="49.03056" lon="10.39077">
        <ele>432</ele>
        <time>2022-05-24T07:42:46Z</time>
      </trkpt>
      <trkpt lat="49.03076" lon="10.39073">
        <ele>431</ele>
        <time>2022-05-24T07:42:49Z</time>
      </trkpt>
      <trkpt lat="49.03133" lon="10.39146">
        <ele>431</ele>
        <time>2022-05-24T07:43:03Z</time>
      </trkpt>
      <trkpt lat="49.03166" lon="10.39175">
        <ele>431</ele>
        <time>2022-05-24T07:43:10Z</time>
      </trkpt>
      <trkpt lat="49.03277" lon="10.39189">
        <ele>433</ele>
        <time>2022-05-24T07:43:29Z</time>
      </trkpt>
      <trkpt lat="49.03284" lon="10.39258">
        <ele>433</ele>
        <time>2022-05-24T07:43:37Z</time>
      </trkpt>
      <trkpt lat="49.03299" lon="10.39329">
        <ele>433</ele>
        <time>2022-05-24T07:43:46Z</time>
      </trkpt>
      <trkpt lat="49.03365" lon="10.39526">
        <ele>432</ele>
        <time>2022-05-24T07:44:12Z</time>
      </trkpt>
      <trkpt lat="49.03385" lon="10.39604">
        <ele>432</ele>
        <time>2022-05-24T07:44:22Z</time>
      </trkpt>
      <trkpt lat="49.0341" lon="10.39739">
        <ele>432</ele>
        <time>2022-05-24T07:44:38Z</time>
      </trkpt>
      <trkpt lat="49.03423" lon="10.39982">
        <ele>433</ele>
        <time>2022-05-24T07:45:07Z</time>
      </trkpt>
      <trkpt lat="49.03469" lon="10.40402">
        <ele>432</ele>
        <time>2022-05-24T07:45:56Z</time>
      </trkpt>
      <trkpt lat="49.03505" lon="10.40646">
        <ele>433</ele>
        <time>2022-05-24T07:46:25Z</time>
      </trkpt>
      <trkpt lat="49.03528" lon="10.4084">
        <ele>431</ele>
        <time>2022-05-24T07:46:48Z</time>
      </trkpt>
      <trkpt lat="49.03532" lon="10.40942">
        <ele>431</ele>
        <time>2022-05-24T07:47:00Z</time>
      </trkpt>
      <trkpt lat="49.03529" lon="10.40974">
        <ele>431</ele>
        <time>2022-05-24T07:47:04Z</time>
      </trkpt>
      <trkpt lat="49.03528" lon="10.41091">
        <ele>435</ele>
        <time>2022-05-24T07:47:18Z</time>
      </trkpt>
      <trkpt lat="49.03524" lon="10.41119">
        <ele>435</ele>
        <time>2022-05-24T07:47:21Z</time>
      </trkpt>
      <trkpt lat="49.03517" lon="10.41133">
        <ele>435</ele>
        <time>2022-05-24T07:47:23Z</time>
      </trkpt>
      <trkpt lat="49.03484" lon="10.41165">
        <ele>434</ele>
        <time>2022-05-24T07:47:30Z</time>
      </trkpt>
      <trkpt lat="49.03469" lon="10.41195">
        <ele>433</ele>
        <time>2022-05-24T07:47:34Z</time>
      </trkpt>
      <trkpt lat="49.03454" lon="10.41254">
        <ele>432</ele>
        <time>2022-05-24T07:47:42Z</time>
      </trkpt>
      <trkpt lat="49.03448" lon="10.41303">
        <ele>432</ele>
        <time>2022-05-24T07:47:48Z</time>
      </trkpt>
      <trkpt lat="49.03455" lon="10.41401">
        <ele>432</ele>
        <time>2022-05-24T07:47:59Z</time>
      </trkpt>
      <trkpt lat="49.03477" lon="10.4159">
        <ele>431</ele>
        <time>2022-05-24T07:48:22Z</time>
      </trkpt>
      <trkpt lat="49.03508" lon="10.4176">
        <ele>430</ele>
        <time>2022-05-24T07:48:42Z</time>
      </trkpt>
      <trkpt lat="49.03668" lon="10.42411">
        <ele>435</ele>
        <time>2022-05-24T07:50:03Z</time>
      </trkpt>
      <trkpt lat="49.03697" lon="10.42493">
        <ele>436</ele>
        <time>2022-05-24T07:50:14Z</time>
      </trkpt>
      <trkpt lat="49.03727" lon="10.4256">
        <ele>437</ele>
        <time>2022-05-24T07:50:24Z</time>
      </trkpt>
      <trkpt lat="49.0379" lon="10.42687">
        <ele>440</ele>
        <time>2022-05-24T07:50:42Z</time>
      </trkpt>
      <trkpt lat="49.03873" lon="10.42981">
        <ele>446</ele>
        <time>2022-05-24T07:51:20Z</time>
      </trkpt>
      <trkpt lat="49.03885" lon="10.43033">
        <ele>448</ele>
        <time>2022-05-24T07:51:26Z</time>
      </trkpt>
      <trkpt lat="49.03903" lon="10.43187">
        <ele>451</ele>
        <time>2022-05-24T07:51:44Z</time>
      </trkpt>
      <trkpt lat="49.03912" lon="10.43229">
        <ele>452</ele>
        <time>2022-05-24T07:51:49Z</time>
      </trkpt>
      <trkpt lat="49.03939" lon="10.43289">
        <ele>453</ele>
        <time>2022-05-24T07:51:58Z</time>
      </trkpt>
      <trkpt lat="49.03952" lon="10.43335">
        <ele>453</ele>
        <time>2022-05-24T07:52:04Z</time>
      </trkpt>
      <trkpt lat="49.03959" lon="10.43405">
        <ele>453</ele>
        <time>2022-05-24T07:52:12Z</time>
      </trkpt>
      <trkpt lat="49.03961" lon="10.43516">
        <ele>451</ele>
        <time>2022-05-24T07:52:25Z</time>
      </trkpt>
      <trkpt lat="49.03946" lon="10.43864">
        <ele>437</ele>
        <time>2022-05-24T07:53:06Z</time>
      </trkpt>
      <trkpt lat="49.03934" lon="10.43964">
        <ele>435</ele>
        <time>2022-05-24T07:53:17Z</time>
      </trkpt>
      <trkpt lat="49.03907" lon="10.4407">
        <ele>433</ele>
        <time>2022-05-24T07:53:31Z</time>
      </trkpt>
      <trkpt lat="49.03904" lon="10.44104">
        <ele>433</ele>
        <time>2022-05-24T07:53:35Z</time>
      </trkpt>
      <trkpt lat="49.03925" lon="10.44217">
        <ele>433</ele>
        <time>2022-05-24T07:53:48Z</time>
      </trkpt>
      <trkpt lat="49.03948" lon="10.44285">
        <ele>432</ele>
        <time>2022-05-24T07:53:57Z</time>
      </trkpt>
      <trkpt lat="49.04015" lon="10.44407">
        <ele>430</ele>
        <time>2022-05-24T07:54:16Z</time>
      </trkpt>
      <trkpt lat="49.04043" lon="10.44467">
        <ele>430</ele>
        <time>2022-05-24T07:54:24Z</time>
      </trkpt>
      <trkpt lat="49.04069" lon="10.44497">
        <ele>429</ele>
        <time>2022-05-24T07:54:30Z</time>
      </trkpt>
      <trkpt lat="49.04205" lon="10.44579">
        <ele>431</ele>
        <time>2022-05-24T07:54:56Z</time>
      </trkpt>
      <trkpt lat="49.04266" lon="10.44639">
        <ele>430</ele>
        <time>2022-05-24T07:55:09Z</time>
      </trkpt>
      <trkpt lat="49.04377" lon="10.44787">
        <ele>433</ele>
        <time>2022-05-24T07:55:35Z</time>
      </trkpt>
      <trkpt lat="49.04396" lon="10.44824">
        <ele>433</ele>
        <time>2022-05-24T07:55:41Z</time>
      </trkpt>
      <trkpt lat="49.04406" lon="10.44853">
        <ele>433</ele>
        <time>2022-05-24T07:55:45Z</time>
      </trkpt>
      <trkpt lat="49.04442" lon="10.45034">
        <ele>432</ele>
        <time>2022-05-24T07:56:07Z</time>
      </trkpt>
      <trkpt lat="49.04467" lon="10.45132">
        <ele>431</ele>
        <time>2022-05-24T07:56:19Z</time>
      </trkpt>
      <trkpt lat="49.04516" lon="10.45273">
        <ele>431</ele>
        <time>2022-05-24T07:56:38Z</time>
      </trkpt>
      <trkpt lat="49.04551" lon="10.45362">
        <ele>432</ele>
        <time>2022-05-24T07:56:50Z</time>
      </trkpt>
      <trkpt lat="49.04634" lon="10.45553">
        <ele>430</ele>
        <time>2022-05-24T07:57:17Z</time>
      </trkpt>
      <trkpt lat="49.04669" lon="10.45603">
        <ele>429</ele>
        <time>2022-05-24T07:57:25Z</time>
      </trkpt>
      <trkpt lat="49.04701" lon="10.45631">
        <ele>430</ele>
        <time>2022-05-24T07:57:32Z</time>
      </trkpt>
      <trkpt lat="49.04798" lon="10.45697">
        <ele>432</ele>
        <time>2022-05-24T07:57:50Z</time>
      </trkpt>
      <trkpt lat="49.04883" lon="10.45896">
        <ele>431</ele>
        <time>2022-05-24T07:58:18Z</time>
      </trkpt>
      <trkpt lat="49.04921" lon="10.4595">
        <ele>430</ele>
        <time>2022-05-24T07:58:27Z</time>
      </trkpt>
      <trkpt lat="49.04953" lon="10.46016">
        <ele>430</ele>
        <time>2022-05-24T07:58:37Z</time>
      </trkpt>
      <trkpt lat="49.05092" lon="10.46346">
        <ele>430</ele>
        <time>2022-05-24T07:59:23Z</time>
      </trkpt>
      <trkpt lat="49.0512" lon="10.4645">
        <ele>430</ele>
        <time>2022-05-24T07:59:36Z</time>
      </trkpt>
      <trkpt lat="49.05208" lon="10.46646">
        <ele>428</ele>
        <time>2022-05-24T08:00:04Z</time>
      </trkpt>
      <trkpt lat="49.05247" lon="10.46703">
        <ele>429</ele>
        <time>2022-05-24T08:00:13Z</time>
      </trkpt>
      <trkpt lat="49.05262" lon="10.46729">
        <ele>429</ele>
        <time>2022-05-24T08:00:17Z</time>
      </trkpt>
      <trkpt lat="49.05299" lon="10.4687">
        <ele>430</ele>
        <time>2022-05-24T08:00:35Z</time>
      </trkpt>
      <trkpt lat="49.05289" lon="10.46896">
        <ele>429</ele>
        <time>2022-05-24T08:00:38Z</time>
      </trkpt>
      <trkpt lat="49.05178" lon="10.46986">
        <ele>427</ele>
        <time>2022-05-24T08:01:01Z</time>
      </trkpt>
      <trkpt lat="49.05089" lon="10.47041">
        <ele>428</ele>
        <time>2022-05-24T08:01:18Z</time>
      </trkpt>
      <trkpt lat="49.05053" lon="10.4706">
        <ele>429</ele>
        <time>2022-05-24T08:01:25Z</time>
      </trkpt>
      <trkpt lat="49.05027" lon="10.47065">
        <ele>431</ele>
        <time>2022-05-24T08:01:29Z</time>
      </trkpt>
      <trkpt lat="49.05017" lon="10.47057">
        <ele>431</ele>
        <time>2022-05-24T08:01:31Z</time>
      </trkpt>
      <trkpt lat="49.05015" lon="10.47064">
        <ele>431</ele>
        <time>2022-05-24T08:01:32Z</time>
      </trkpt>
      <trkpt lat="49.05012" lon="10.47351">
        <ele>430</ele>
        <time>2022-05-24T08:02:06Z</time>
      </trkpt>
      <trkpt lat="49.05018" lon="10.47465">
        <ele>430</ele>
        <time>2022-05-24T08:02:19Z</time>
      </trkpt>
      <trkpt lat="49.05045" lon="10.47627">
        <ele>430</ele>
        <time>2022-05-24T08:02:39Z</time>
      </trkpt>
      <trkpt lat="49.05069" lon="10.47708">
        <ele>430</ele>
        <time>2022-05-24T08:02:49Z</time>
      </trkpt>
      <trkpt lat="49.05103" lon="10.47775">
        <ele>429</ele>
        <time>2022-05-24T08:02:59Z</time>
      </trkpt>
      <trkpt lat="49.05125" lon="10.47847">
        <ele>428</ele>
        <time>2022-05-24T08:03:08Z</time>
      </trkpt>
      <trkpt lat="49.05143" lon="10.47927">
        <ele>428</ele>
        <time>2022-05-24T08:03:18Z</time>
      </trkpt>
      <trkpt lat="49.05282" lon="10.4892">
        <ele>429</ele>
        <time>2022-05-24T08:05:16Z</time>
      </trkpt>
      <trkpt lat="49.05281" lon="10.48958">
        <ele>429</ele>
        <time>2022-05-24T08:05:21Z</time>
      </trkpt>
      <trkpt lat="49.05273" lon="10.48995">
        <ele>430</ele>
        <time>2022-05-24T08:05:25Z</time>
      </trkpt>
      <trkpt lat="49.0525" lon="10.49052">
        <ele>429</ele>
        <time>2022-05-24T08:05:33Z</time>
      </trkpt>
      <trkpt lat="49.05234" lon="10.49076">
        <ele>430</ele>
        <time>2022-05-24T08:05:37Z</time>
      </trkpt>
      <trkpt lat="49.05194" lon="10.49118">
        <ele>433</ele>
        <time>2022-05-24T08:05:46Z</time>
      </trkpt>
      <trkpt lat="49.05171" lon="10.49178">
        <ele>435</ele>
        <time>2022-05-24T08:05:54Z</time>
      </trkpt>
      <trkpt lat="49.05149" lon="10.49277">
        <ele>432</ele>
        <time>2022-05-24T08:06:06Z</time>
      </trkpt>
      <trkpt lat="49.05129" lon="10.49406">
        <ele>433</ele>
        <time>2022-05-24T08:06:21Z</time>
      </trkpt>
      <trkpt lat="49.05124" lon="10.49553">
        <ele>433</ele>
        <time>2022-05-24T08:06:39Z</time>
      </trkpt>
      <trkpt lat="49.05126" lon="10.49605">
        <ele>433</ele>
        <time>2022-05-24T08:06:45Z</time>
      </trkpt>
      <trkpt lat="49.0514" lon="10.4973">
        <ele>435</ele>
        <time>2022-05-24T08:07:00Z</time>
      </trkpt>
      <trkpt lat="49.05152" lon="10.49873">
        <ele>438</ele>
        <time>2022-05-24T08:07:16Z</time>
      </trkpt>
      <trkpt lat="49.05143" lon="10.50021">
        <ele>439</ele>
        <time>2022-05-24T08:07:34Z</time>
      </trkpt>
      <trkpt lat="49.05121" lon="10.50179">
        <ele>441</ele>
        <time>2022-05-24T08:07:52Z</time>
      </trkpt>
      <trkpt lat="49.05106" lon="10.50337">
        <ele>440</ele>
        <time>2022-05-24T08:08:11Z</time>
      </trkpt>
      <trkpt lat="49.05104" lon="10.50405">
        <ele>439</ele>
        <time>2022-05-24T08:08:19Z</time>
      </trkpt>
      <trkpt lat="49.05095" lon="10.50548">
        <ele>434</ele>
        <time>2022-05-24T08:08:36Z</time>
      </trkpt>
      <trkpt lat="49.05075" lon="10.50614">
        <ele>432</ele>
        <time>2022-05-24T08:08:44Z</time>
      </trkpt>
      <trkpt lat="49.05052" lon="10.50717">
        <ele>430</ele>
        <time>2022-05-24T08:08:57Z</time>
      </trkpt>
      <trkpt lat="49.05009" lon="10.5085">
        <ele>429</ele>
        <time>2022-05-24T08:09:14Z</time>
      </trkpt>
      <trkpt lat="49.04991" lon="10.50917">
        <ele>427</ele>
        <time>2022-05-24T08:09:23Z</time>
      </trkpt>
      <trkpt lat="49.05003" lon="10.50926">
        <ele>427</ele>
        <time>2022-05-24T08:09:25Z</time>
      </trkpt>
      <trkpt lat="49.04989" lon="10.50968">
        <ele>426</ele>
        <time>2022-05-24T08:09:31Z</time>
      </trkpt>
      <trkpt lat="49.04941" lon="10.51052">
        <ele>428</ele>
        <time>2022-05-24T08:09:44Z</time>
      </trkpt>
      <trkpt lat="49.048" lon="10.51272">
        <ele>426</ele>
        <time>2022-05-24T08:10:19Z</time>
      </trkpt>
      <trkpt lat="49.04771" lon="10.513">
        <ele>425</ele>
        <time>2022-05-24T08:10:26Z</time>
      </trkpt>
      <trkpt lat="49.04632" lon="10.51374">
        <ele>427</ele>
        <time>2022-05-24T08:10:52Z</time>
      </trkpt>
      <trkpt lat="49.04385" lon="10.51665">
        <ele>431</ele>
        <time>2022-05-24T08:11:47Z</time>
      </trkpt>
      <trkpt lat="49.0431" lon="10.51733">
        <ele>430</ele>
        <time>2022-05-24T08:12:03Z</time>
      </trkpt>
      <trkpt lat="49.04265" lon="10.51786">
        <ele>431</ele>
        <time>2022-05-24T08:12:13Z</time>
      </trkpt>
      <trkpt lat="49.04242" lon="10.51834">
        <ele>432</ele>
        <time>2022-05-24T08:12:20Z</time>
      </trkpt>
      <trkpt lat="49.04212" lon="10.51968">
        <ele>433</ele>
        <time>2022-05-24T08:12:36Z</time>
      </trkpt>
      <trkpt lat="49.04197" lon="10.52012">
        <ele>434</ele>
        <time>2022-05-24T08:12:42Z</time>
      </trkpt>
      <trkpt lat="49.04096" lon="10.52168">
        <ele>438</ele>
        <time>2022-05-24T08:13:08Z</time>
      </trkpt>
      <trkpt lat="49.04027" lon="10.52294">
        <ele>440</ele>
        <time>2022-05-24T08:13:27Z</time>
      </trkpt>
      <trkpt lat="49.03983" lon="10.52336">
        <ele>443</ele>
        <time>2022-05-24T08:13:36Z</time>
      </trkpt>
      <trkpt lat="49.03904" lon="10.52393">
        <ele>447</ele>
        <time>2022-05-24T08:13:52Z</time>
      </trkpt>
      <trkpt lat="49.03871" lon="10.5244">
        <ele>448</ele>
        <time>2022-05-24T08:14:00Z</time>
      </trkpt>
      <trkpt lat="49.03825" lon="10.52537">
        <ele>451</ele>
        <time>2022-05-24T08:14:14Z</time>
      </trkpt>
      <trkpt lat="49.03795" lon="10.52611">
        <ele>451</ele>
        <time>2022-05-24T08:14:24Z</time>
      </trkpt>
      <trkpt lat="49.03786" lon="10.52665">
        <ele>450</ele>
        <time>2022-05-24T08:14:30Z</time>
      </trkpt>
      <trkpt lat="49.03761" lon="10.52939">
        <ele>444</ele>
        <time>2022-05-24T08:15:03Z</time>
      </trkpt>
      <trkpt lat="49.03737" lon="10.53066">
        <ele>446</ele>
        <time>2022-05-24T08:15:18Z</time>
      </trkpt>
      <trkpt lat="49.03667" lon="10.53344">
        <ele>434</ele>
        <time>2022-05-24T08:15:53Z</time>
      </trkpt>
      <trkpt lat="49.03638" lon="10.53485">
        <ele>429</ele>
        <time>2022-05-24T08:16:10Z</time>
      </trkpt>
      <trkpt lat="49.0361" lon="10.53552">
        <ele>432</ele>
        <time>2022-05-24T08:16:19Z</time>
      </trkpt>
      <trkpt lat="49.03512" lon="10.53708">
        <ele>441</ele>
        <time>2022-05-24T08:16:44Z</time>
      </trkpt>
      <trkpt lat="49.03452" lon="10.53829">
        <ele>444</ele>
        <time>2022-05-24T08:17:02Z</time>
      </trkpt>
      <trkpt lat="49.03421" lon="10.53919">
        <ele>442</ele>
        <time>2022-05-24T08:17:14Z</time>
      </trkpt>
      <trkpt lat="49.03401" lon="10.53997">
        <ele>439</ele>
        <time>2022-05-24T08:17:24Z</time>
      </trkpt>
      <trkpt lat="49.03359" lon="10.54231">
        <ele>441</ele>
        <time>2022-05-24T08:17:52Z</time>
      </trkpt>
      <trkpt lat="49.03363" lon="10.5435">
        <ele>438</ele>
        <time>2022-05-24T08:18:06Z</time>
      </trkpt>
      <trkpt lat="49.03368" lon="10.54424">
        <ele>435</ele>
        <time>2022-05-24T08:18:15Z</time>
      </trkpt>
      <trkpt lat="49.03377" lon="10.54446">
        <ele>434</ele>
        <time>2022-05-24T08:18:18Z</time>
      </trkpt>
      <trkpt lat="49.03392" lon="10.54452">
        <ele>433</ele>
        <time>2022-05-24T08:18:20Z</time>
      </trkpt>
      <trkpt lat="49.03423" lon="10.54433">
        <ele>432</ele>
        <time>2022-05-24T08:18:26Z</time>
      </trkpt>
      <trkpt lat="49.0343" lon="10.54434">
        <ele>431</ele>
        <time>2022-05-24T08:18:28Z</time>
      </trkpt>
      <trkpt lat="49.03434" lon="10.54451">
        <ele>430</ele>
        <time>2022-05-24T08:18:30Z</time>
      </trkpt>
      <trkpt lat="49.03432" lon="10.54467">
        <ele>430</ele>
        <time>2022-05-24T08:18:32Z</time>
      </trkpt>
      <trkpt lat="49.03385" lon="10.54542">
        <ele>430</ele>
        <time>2022-05-24T08:18:44Z</time>
      </trkpt>
      <trkpt lat="49.03373" lon="10.54579">
        <ele>429</ele>
        <time>2022-05-24T08:18:49Z</time>
      </trkpt>
      <trkpt lat="49.03352" lon="10.54756">
        <ele>428</ele>
        <time>2022-05-24T08:19:10Z</time>
      </trkpt>
      <trkpt lat="49.03323" lon="10.54875">
        <ele>429</ele>
        <time>2022-05-24T08:19:24Z</time>
      </trkpt>
      <trkpt lat="49.03327" lon="10.54982">
        <ele>426</ele>
        <time>2022-05-24T08:19:37Z</time>
      </trkpt>
      <trkpt lat="49.03345" lon="10.55214">
        <ele>425</ele>
        <time>2022-05-24T08:20:04Z</time>
      </trkpt>
      <trkpt lat="49.03356" lon="10.55272">
        <ele>426</ele>
        <time>2022-05-24T08:20:11Z</time>
      </trkpt>
      <trkpt lat="49.03546" lon="10.55768">
        <ele>427</ele>
        <time>2022-05-24T08:21:18Z</time>
      </trkpt>
      <trkpt lat="49.03566" lon="10.55853">
        <ele>428</ele>
        <time>2022-05-24T08:21:29Z</time>
      </trkpt>
      <trkpt lat="49.03618" lon="10.56142">
        <ele>427</ele>
        <time>2022-05-24T08:22:04Z</time>
      </trkpt>
      <trkpt lat="49.03658" lon="10.56457">
        <ele>425</ele>
        <time>2022-05-24T08:22:41Z</time>
      </trkpt>
      <trkpt lat="49.03677" lon="10.56493">
        <ele>424</ele>
        <time>2022-05-24T08:22:46Z</time>
      </trkpt>
      <trkpt lat="49.03727" lon="10.56556">
        <ele>422</ele>
        <time>2022-05-24T08:22:58Z</time>
      </trkpt>
      <trkpt lat="49.03744" lon="10.56588">
        <ele>422</ele>
        <time>2022-05-24T08:23:03Z</time>
      </trkpt>
      <trkpt lat="49.03753" lon="10.56631">
        <ele>422</ele>
        <time>2022-05-24T08:23:08Z</time>
      </trkpt>
      <trkpt lat="49.03781" lon="10.57152">
        <ele>420</ele>
        <time>2022-05-24T08:24:09Z</time>
      </trkpt>
      <trkpt lat="49.03753" lon="10.58258">
        <ele>422</ele>
        <time>2022-05-24T08:26:18Z</time>
      </trkpt>
      <trkpt lat="49.03742" lon="10.58322">
        <ele>421</ele>
        <time>2022-05-24T08:26:26Z</time>
      </trkpt>
      <trkpt lat="49.03662" lon="10.58605">
        <ele>422</ele>
        <time>2022-05-24T08:27:02Z</time>
      </trkpt>
      <trkpt lat="49.03653" lon="10.58669">
        <ele>423</ele>
        <time>2022-05-24T08:27:09Z</time>
      </trkpt>
      <trkpt lat="49.03632" lon="10.59303">
        <ele>416</ele>
        <time>2022-05-24T08:28:23Z</time>
      </trkpt>
      <trkpt lat="49.03634" lon="10.5937">
        <ele>416</ele>
        <time>2022-05-24T08:28:31Z</time>
      </trkpt>
      <trkpt lat="49.03642" lon="10.59441">
        <ele>417</ele>
        <time>2022-05-24T08:28:40Z</time>
      </trkpt>
      <trkpt lat="49.03655" lon="10.59498">
        <ele>416</ele>
        <time>2022-05-24T08:28:47Z</time>
      </trkpt>
      <trkpt lat="49.03704" lon="10.5964">
        <ele>422</ele>
        <time>2022-05-24T08:29:05Z</time>
      </trkpt>
      <trkpt lat="49.03722" lon="10.59665">
        <ele>425</ele>
        <time>2022-05-24T08:29:10Z</time>
      </trkpt>
      <trkpt lat="49.03715" lon="10.59682">
        <ele>425</ele>
        <time>2022-05-24T08:29:12Z</time>
      </trkpt>
      <trkpt lat="49.03708" lon="10.59729">
        <ele>425</ele>
        <time>2022-05-24T08:29:18Z</time>
      </trkpt>
      <trkpt lat="49.03722" lon="10.59805">
        <ele>425</ele>
        <time>2022-05-24T08:29:27Z</time>
      </trkpt>
      <trkpt lat="49.03721" lon="10.59829">
        <ele>424</ele>
        <time>2022-05-24T08:29:30Z</time>
      </trkpt>
      <trkpt lat="49.03708" lon="10.59935">
        <ele>421</ele>
        <time>2022-05-24T08:29:42Z</time>
      </trkpt>
      <trkpt lat="49.03683" lon="10.59991">
        <ele>421</ele>
        <time>2022-05-24T08:29:50Z</time>
      </trkpt>
      <trkpt lat="49.0368" lon="10.60014">
        <ele>421</ele>
        <time>2022-05-24T08:29:53Z</time>
      </trkpt>
      <trkpt lat="49.03684" lon="10.60126">
        <ele>421</ele>
        <time>2022-05-24T08:30:06Z</time>
      </trkpt>
      <trkpt lat="49.03676" lon="10.60182">
        <ele>422</ele>
        <time>2022-05-24T08:30:13Z</time>
      </trkpt>
      <trkpt lat="49.03667" lon="10.60206">
        <ele>423</ele>
        <time>2022-05-24T08:30:16Z</time>
      </trkpt>
      <trkpt lat="49.03618" lon="10.6027">
        <ele>423</ele>
        <time>2022-05-24T08:30:27Z</time>
      </trkpt>
      <trkpt lat="49.03619" lon="10.60295">
        <ele>423</ele>
        <time>2022-05-24T08:30:30Z</time>
      </trkpt>
      <trkpt lat="49.03672" lon="10.60325">
        <ele>423</ele>
        <time>2022-05-24T08:30:40Z</time>
      </trkpt>
      <trkpt lat="49.03799" lon="10.60388">
        <ele>422</ele>
        <time>2022-05-24T08:31:04Z</time>
      </trkpt>
      <trkpt lat="49.03868" lon="10.60426">
        <ele>423</ele>
        <time>2022-05-24T08:31:17Z</time>
      </trkpt>
      <trkpt lat="49.03863" lon="10.60447">
        <ele>423</ele>
        <time>2022-05-24T08:31:20Z</time>
      </trkpt>
      <trkpt lat="49.03877" lon="10.60454">
        <ele>423</ele>
        <time>2022-05-24T08:31:23Z</time>
      </trkpt>
      <trkpt lat="49.03877" lon="10.60464">
        <ele>423</ele>
        <time>2022-05-24T08:31:24Z</time>
      </trkpt>
      <trkpt lat="49.03884" lon="10.60468">
        <ele>423</ele>
        <time>2022-05-24T08:31:25Z</time>
      </trkpt>
      <trkpt lat="49.03876" lon="10.60552">
        <ele>424</ele>
        <time>2022-05-24T08:31:35Z</time>
      </trkpt>
      <trkpt lat="49.03866" lon="10.60749">
        <ele>424</ele>
        <time>2022-05-24T08:31:58Z</time>
      </trkpt>
      <trkpt lat="49.03844" lon="10.60744">
        <ele>424</ele>
        <time>2022-05-24T08:32:02Z</time>
      </trkpt>
      <trkpt lat="49.03842" lon="10.60858">
        <ele>422</ele>
        <time>2022-05-24T08:32:15Z</time>
      </trkpt>
      <trkpt lat="49.03794" lon="10.60887">
        <ele>422</ele>
        <time>2022-05-24T08:32:24Z</time>
      </trkpt>
      <trkpt lat="49.03792" lon="10.60896">
        <ele>422</ele>
        <time>2022-05-24T08:32:26Z</time>
      </trkpt>
      <trkpt lat="49.03803" lon="10.60921">
        <ele>422</ele>
        <time>2022-05-24T08:32:29Z</time>
      </trkpt>
      <trkpt lat="49.03819" lon="10.60916">
        <ele>422</ele>
        <time>2022-05-24T08:32:32Z</time>
      </trkpt>
      <trkpt lat="49.03826" lon="10.6092">
        <ele>422</ele>
        <time>2022-05-24T08:32:33Z</time>
      </trkpt>
      <trkpt lat="49.03833" lon="10.6094">
        <ele>422</ele>
        <time>2022-05-24T08:32:36Z</time>
      </trkpt>
      <trkpt lat="49.03819" lon="10.60994">
        <ele>422</ele>
        <time>2022-05-24T08:32:43Z</time>
      </trkpt>
      <trkpt lat="49.03773" lon="10.61361">
        <ele>425</ele>
        <time>2022-05-24T08:33:26Z</time>
      </trkpt>
      <trkpt lat="49.03758" lon="10.61418">
        <ele>426</ele>
        <time>2022-05-24T08:33:33Z</time>
      </trkpt>
      <trkpt lat="49.03751" lon="10.61483">
        <ele>427</ele>
        <time>2022-05-24T08:33:41Z</time>
      </trkpt>
      <trkpt lat="49.03769" lon="10.61563">
        <ele>426</ele>
        <time>2022-05-24T08:33:51Z</time>
      </trkpt>
      <trkpt lat="49.03796" lon="10.61959">
        <ele>428</ele>
        <time>2022-05-24T08:34:37Z</time>
      </trkpt>
      <trkpt lat="49.03898" lon="10.62617">
        <ele>435</ele>
        <time>2022-05-24T08:35:56Z</time>
      </trkpt>
      <trkpt lat="49.03911" lon="10.62663">
        <ele>435</ele>
        <time>2022-05-24T08:36:02Z</time>
      </trkpt>
      <trkpt lat="49.0393" lon="10.6271">
        <ele>436</ele>
        <time>2022-05-24T08:36:09Z</time>
      </trkpt>
      <trkpt lat="49.03972" lon="10.62768">
        <ele>438</ele>
        <time>2022-05-24T08:36:19Z</time>
      </trkpt>
      <trkpt lat="49.03977" lon="10.62781">
        <ele>438</ele>
        <time>2022-05-24T08:36:20Z</time>
      </trkpt>
      <trkpt lat="49.04049" lon="10.62995">
        <ele>445</ele>
        <time>2022-05-24T08:36:48Z</time>
      </trkpt>
      <trkpt lat="49.04092" lon="10.63161">
        <ele>446</ele>
        <time>2022-05-24T08:37:09Z</time>
      </trkpt>
      <trkpt lat="49.04106" lon="10.63244">
        <ele>447</ele>
        <time>2022-05-24T08:37:19Z</time>
      </trkpt>
      <trkpt lat="49.04116" lon="10.63559">
        <ele>454</ele>
        <time>2022-05-24T08:37:56Z</time>
      </trkpt>
      <trkpt lat="49.04124" lon="10.63599">
        <ele>455</ele>
        <time>2022-05-24T08:38:01Z</time>
      </trkpt>
      <trkpt lat="49.04196" lon="10.63849">
        <ele>463</ele>
        <time>2022-05-24T08:38:33Z</time>
      </trkpt>
      <trkpt lat="49.04351" lon="10.63794">
        <ele>473</ele>
        <time>2022-05-24T08:39:01Z</time>
      </trkpt>
      <trkpt lat="49.04414" lon="10.63754">
        <ele>481</ele>
        <time>2022-05-24T08:39:13Z</time>
      </trkpt>
      <trkpt lat="49.04589" lon="10.6372">
        <ele>495</ele>
        <time>2022-05-24T08:39:45Z</time>
      </trkpt>
      <trkpt lat="49.04628" lon="10.63698">
        <ele>496</ele>
        <time>2022-05-24T08:39:52Z</time>
      </trkpt>
      <trkpt lat="49.04616" lon="10.63648">
        <ele>499</ele>
        <time>2022-05-24T08:39:58Z</time>
      </trkpt>
      <trkpt lat="49.04628" lon="10.63698">
        <ele>496</ele>
        <time>2022-05-24T08:40:04Z</time>
      </trkpt>
      <trkpt lat="49.04589" lon="10.6372">
        <ele>495</ele>
        <time>2022-05-24T08:40:12Z</time>
      </trkpt>
      <trkpt lat="49.04643" lon="10.64058">
        <ele>494</ele>
        <time>2022-05-24T08:40:52Z</time>
      </trkpt>
      <trkpt lat="49.0465" lon="10.64246">
        <ele>494</ele>
        <time>2022-05-24T08:41:14Z</time>
      </trkpt>
      <trkpt lat="49.04707" lon="10.64576">
        <ele>494</ele>
        <time>2022-05-24T08:41:54Z</time>
      </trkpt>
      <trkpt lat="49.04765" lon="10.64554">
        <ele>495</ele>
        <time>2022-05-24T08:42:05Z</time>
      </trkpt>
      <trkpt lat="49.04817" lon="10.64547">
        <ele>493</ele>
        <time>2022-05-24T08:42:14Z</time>
      </trkpt>
      <trkpt lat="49.04867" lon="10.64554">
        <ele>491</ele>
        <time>2022-05-24T08:42:23Z</time>
      </trkpt>
      <trkpt lat="49.04911" lon="10.64577">
        <ele>490</ele>
        <time>2022-05-24T08:42:31Z</time>
      </trkpt>
      <trkpt lat="49.04958" lon="10.64616">
        <ele>489</ele>
        <time>2022-05-24T08:42:41Z</time>
      </trkpt>
      <trkpt lat="49.05014" lon="10.64683">
        <ele>489</ele>
        <time>2022-05-24T08:42:53Z</time>
      </trkpt>
      <trkpt lat="49.05069" lon="10.64742">
        <ele>492</ele>
        <time>2022-05-24T08:43:05Z</time>
      </trkpt>
      <trkpt lat="49.05104" lon="10.64768">
        <ele>492</ele>
        <time>2022-05-24T08:43:12Z</time>
      </trkpt>
      <trkpt lat="49.05269" lon="10.64829">
        <ele>482</ele>
        <time>2022-05-24T08:43:43Z</time>
      </trkpt>
      <trkpt lat="49.05299" lon="10.64854">
        <ele>480</ele>
        <time>2022-05-24T08:43:49Z</time>
      </trkpt>
      <trkpt lat="49.05383" lon="10.64974">
        <ele>471</ele>
        <time>2022-05-24T08:44:09Z</time>
      </trkpt>
      <trkpt lat="49.05411" lon="10.65001">
        <ele>469</ele>
        <time>2022-05-24T08:44:15Z</time>
      </trkpt>
      <trkpt lat="49.05457" lon="10.65019">
        <ele>470</ele>
        <time>2022-05-24T08:44:23Z</time>
      </trkpt>
      <trkpt lat="49.0549" lon="10.65042">
        <ele>469</ele>
        <time>2022-05-24T08:44:30Z</time>
      </trkpt>
      <trkpt lat="49.05515" lon="10.65073">
        <ele>468</ele>
        <time>2022-05-24T08:44:36Z</time>
      </trkpt>
      <trkpt lat="49.05548" lon="10.65148">
        <ele>466</ele>
        <time>2022-05-24T08:44:46Z</time>
      </trkpt>
      <trkpt lat="49.05587" lon="10.65267">
        <ele>466</ele>
        <time>2022-05-24T08:45:02Z</time>
      </trkpt>
      <trkpt lat="49.05603" lon="10.65353">
        <ele>465</ele>
        <time>2022-05-24T08:45:12Z</time>
      </trkpt>
      <trkpt lat="49.05609" lon="10.65467">
        <ele>468</ele>
        <time>2022-05-24T08:45:25Z</time>
      </trkpt>
      <trkpt lat="49.05607" lon="10.6555">
        <ele>471</ele>
        <time>2022-05-24T08:45:35Z</time>
      </trkpt>
      <trkpt lat="49.05612" lon="10.65593">
        <ele>471</ele>
        <time>2022-05-24T08:45:40Z</time>
      </trkpt>
      <trkpt lat="49.05622" lon="10.65618">
        <ele>471</ele>
        <time>2022-05-24T08:45:44Z</time>
      </trkpt>
      <trkpt lat="49.05618" lon="10.65657">
        <ele>471</ele>
        <time>2022-05-24T08:45:48Z</time>
      </trkpt>
      <trkpt lat="49.05634" lon="10.65755">
        <ele>471</ele>
        <time>2022-05-24T08:46:00Z</time>
      </trkpt>
      <trkpt lat="49.05638" lon="10.65806">
        <ele>469</ele>
        <time>2022-05-24T08:46:06Z</time>
      </trkpt>
      <trkpt lat="49.05644" lon="10.66054">
        <ele>463</ele>
        <time>2022-05-24T08:46:35Z</time>
      </trkpt>
      <trkpt lat="49.05632" lon="10.66077">
        <ele>463</ele>
        <time>2022-05-24T08:46:38Z</time>
      </trkpt>
      <trkpt lat="49.05514" lon="10.66132">
        <ele>467</ele>
        <time>2022-05-24T08:47:00Z</time>
      </trkpt>
      <trkpt lat="49.05457" lon="10.66174">
        <ele>469</ele>
        <time>2022-05-24T08:47:12Z</time>
      </trkpt>
      <trkpt lat="49.05421" lon="10.66192">
        <ele>469</ele>
        <time>2022-05-24T08:47:18Z</time>
      </trkpt>
      <trkpt lat="49.05391" lon="10.66196">
        <ele>470</ele>
        <time>2022-05-24T08:47:24Z</time>
      </trkpt>
      <trkpt lat="49.05287" lon="10.66192">
        <ele>473</ele>
        <time>2022-05-24T08:47:42Z</time>
      </trkpt>
      <trkpt lat="49.052" lon="10.66209">
        <ele>475</ele>
        <time>2022-05-24T08:47:58Z</time>
      </trkpt>
      <trkpt lat="49.05132" lon="10.66229">
        <ele>478</ele>
        <time>2022-05-24T08:48:10Z</time>
      </trkpt>
      <trkpt lat="49.05121" lon="10.66251">
        <ele>478</ele>
        <time>2022-05-24T08:48:13Z</time>
      </trkpt>
      <trkpt lat="49.05116" lon="10.6628">
        <ele>478</ele>
        <time>2022-05-24T08:48:17Z</time>
      </trkpt>
      <trkpt lat="49.05155" lon="10.68152">
        <ele>493</ele>
        <time>2022-05-24T08:51:55Z</time>
      </trkpt>
      <trkpt lat="49.05168" lon="10.68623">
        <ele>498</ele>
        <time>2022-05-24T08:52:50Z</time>
      </trkpt>
      <trkpt lat="49.05164" lon="10.6867">
        <ele>500</ele>
        <time>2022-05-24T08:52:56Z</time>
      </trkpt>
      <trkpt lat="49.05148" lon="10.68767">
        <ele>499</ele>
        <time>2022-05-24T08:53:07Z</time>
      </trkpt>
      <trkpt lat="49.05128" lon="10.68961">
        <ele>494</ele>
        <time>2022-05-24T08:53:30Z</time>
      </trkpt>
      <trkpt lat="49.05146" lon="10.69208">
        <ele>492</ele>
        <time>2022-05-24T08:53:59Z</time>
      </trkpt>
      <trkpt lat="49.05152" lon="10.6924">
        <ele>491</ele>
        <time>2022-05-24T08:54:03Z</time>
      </trkpt>
      <trkpt lat="49.05203" lon="10.69439">
        <ele>487</ele>
        <time>2022-05-24T08:54:28Z</time>
      </trkpt>
      <trkpt lat="49.05229" lon="10.69523">
        <ele>487</ele>
        <time>2022-05-24T08:54:39Z</time>
      </trkpt>
      <trkpt lat="49.05246" lon="10.69563">
        <ele>485</ele>
        <time>2022-05-24T08:54:45Z</time>
      </trkpt>
      <trkpt lat="49.05275" lon="10.69612">
        <ele>483</ele>
        <time>2022-05-24T08:54:52Z</time>
      </trkpt>
      <trkpt lat="49.05295" lon="10.69635">
        <ele>483</ele>
        <time>2022-05-24T08:54:57Z</time>
      </trkpt>
      <trkpt lat="49.05383" lon="10.69659">
        <ele>481</ele>
        <time>2022-05-24T08:55:13Z</time>
      </trkpt>
      <trkpt lat="49.05401" lon="10.69683">
        <ele>480</ele>
        <time>2022-05-24T08:55:17Z</time>
      </trkpt>
      <trkpt lat="49.05623" lon="10.70315">
        <ele>471</ele>
        <time>2022-05-24T08:56:40Z</time>
      </trkpt>
      <trkpt lat="49.05647" lon="10.70369">
        <ele>471</ele>
        <time>2022-05-24T08:56:48Z</time>
      </trkpt>
      <trkpt lat="49.05669" lon="10.7041">
        <ele>471</ele>
        <time>2022-05-24T08:56:54Z</time>
      </trkpt>
      <trkpt lat="49.05696" lon="10.70445">
        <ele>470</ele>
        <time>2022-05-24T08:57:01Z</time>
      </trkpt>
      <trkpt lat="49.05821" lon="10.7057">
        <ele>464</ele>
        <time>2022-05-24T08:57:27Z</time>
      </trkpt>
      <trkpt lat="49.05846" lon="10.70603">
        <ele>462</ele>
        <time>2022-05-24T08:57:33Z</time>
      </trkpt>
      <trkpt lat="49.05882" lon="10.7067">
        <ele>460</ele>
        <time>2022-05-24T08:57:43Z</time>
      </trkpt>
      <trkpt lat="49.05945" lon="10.70949">
        <ele>454</ele>
        <time>2022-05-24T08:58:18Z</time>
      </trkpt>
      <trkpt lat="49.0594" lon="10.70956">
        <ele>454</ele>
        <time>2022-05-24T08:58:19Z</time>
      </trkpt>
      <trkpt lat="49.05945" lon="10.71024">
        <ele>454</ele>
        <time>2022-05-24T08:58:27Z</time>
      </trkpt>
      <trkpt lat="49.05984" lon="10.71155">
        <ele>454</ele>
        <time>2022-05-24T08:58:43Z</time>
      </trkpt>
      <trkpt lat="49.06009" lon="10.7135">
        <ele>455</ele>
        <time>2022-05-24T08:59:07Z</time>
      </trkpt>
      <trkpt lat="49.06006" lon="10.71376">
        <ele>456</ele>
        <time>2022-05-24T08:59:10Z</time>
      </trkpt>
      <trkpt lat="49.05944" lon="10.71359">
        <ele>457</ele>
        <time>2022-05-24T08:59:21Z</time>
      </trkpt>
      <trkpt lat="49.05933" lon="10.71392">
        <ele>458</ele>
        <time>2022-05-24T08:59:25Z</time>
      </trkpt>
      <trkpt lat="49.05921" lon="10.71412">
        <ele>459</ele>
        <time>2022-05-24T08:59:28Z</time>
      </trkpt>
      <trkpt lat="49.05885" lon="10.71428">
        <ele>460</ele>
        <time>2022-05-24T08:59:35Z</time>
      </trkpt>
      <trkpt lat="49.05791" lon="10.71428">
        <ele>464</ele>
        <time>2022-05-24T08:59:52Z</time>
      </trkpt>
      <trkpt lat="49.05768" lon="10.71444">
        <ele>466</ele>
        <time>2022-05-24T08:59:56Z</time>
      </trkpt>
      <trkpt lat="49.05748" lon="10.71446">
        <ele>467</ele>
        <time>2022-05-24T09:00:00Z</time>
      </trkpt>
      <trkpt lat="49.05718" lon="10.71397">
        <ele>469</ele>
        <time>2022-05-24T09:00:08Z</time>
      </trkpt>
      <trkpt lat="49.05667" lon="10.71342">
        <ele>472</ele>
        <time>2022-05-24T09:00:19Z</time>
      </trkpt>
      <trkpt lat="49.05661" lon="10.71338">
        <ele>472</ele>
        <time>2022-05-24T09:00:20Z</time>
      </trkpt>
      <trkpt lat="49.05628" lon="10.71327">
        <ele>473</ele>
        <time>2022-05-24T09:00:26Z</time>
      </trkpt>
      <trkpt lat="49.05535" lon="10.71302">
        <ele>475</ele>
        <time>2022-05-24T09:00:43Z</time>
      </trkpt>
      <trkpt lat="49.05513" lon="10.71303">
        <ele>476</ele>
        <time>2022-05-24T09:00:47Z</time>
      </trkpt>
      <trkpt lat="49.05467" lon="10.71317">
        <ele>476</ele>
        <time>2022-05-24T09:00:55Z</time>
      </trkpt>
      <trkpt lat="49.05439" lon="10.71335">
        <ele>476</ele>
        <time>2022-05-24T09:01:00Z</time>
      </trkpt>
      <trkpt lat="49.05433" lon="10.71324">
        <ele>476</ele>
        <time>2022-05-24T09:01:02Z</time>
      </trkpt>
      <trkpt lat="49.05388" lon="10.71355">
        <ele>476</ele>
        <time>2022-05-24T09:01:11Z</time>
      </trkpt>
      <trkpt lat="49.05349" lon="10.71392">
        <ele>476</ele>
        <time>2022-05-24T09:01:19Z</time>
      </trkpt>
      <trkpt lat="49.05179" lon="10.71606">
        <ele>485</ele>
        <time>2022-05-24T09:01:58Z</time>
      </trkpt>
      <trkpt lat="49.0514" lon="10.71645">
        <ele>487</ele>
        <time>2022-05-24T09:02:07Z</time>
      </trkpt>
      <trkpt lat="49.05098" lon="10.71675">
        <ele>489</ele>
        <time>2022-05-24T09:02:15Z</time>
      </trkpt>
      <trkpt lat="49.0509" lon="10.7169">
        <ele>490</ele>
        <time>2022-05-24T09:02:17Z</time>
      </trkpt>
      <trkpt lat="49.04967" lon="10.71795">
        <ele>504</ele>
        <time>2022-05-24T09:02:42Z</time>
      </trkpt>
      <trkpt lat="49.04918" lon="10.71846">
        <ele>511</ele>
        <time>2022-05-24T09:02:53Z</time>
      </trkpt>
      <trkpt lat="49.04911" lon="10.71863">
        <ele>512</ele>
        <time>2022-05-24T09:02:55Z</time>
      </trkpt>
      <trkpt lat="49.04829" lon="10.71903">
        <ele>527</ele>
        <time>2022-05-24T09:03:10Z</time>
      </trkpt>
      <trkpt lat="49.04792" lon="10.71909">
        <ele>531</ele>
        <time>2022-05-24T09:03:17Z</time>
      </trkpt>
      <trkpt lat="49.0478" lon="10.71905">
        <ele>533</ele>
        <time>2022-05-24T09:03:19Z</time>
      </trkpt>
      <trkpt lat="49.04659" lon="10.71829">
        <ele>552</ele>
        <time>2022-05-24T09:03:42Z</time>
      </trkpt>
      <trkpt lat="49.04643" lon="10.71807">
        <ele>557</ele>
        <time>2022-05-24T09:03:46Z</time>
      </trkpt>
      <trkpt lat="49.04609" lon="10.7183">
        <ele>559</ele>
        <time>2022-05-24T09:03:53Z</time>
      </trkpt>
      <trkpt lat="49.04601" lon="10.71857">
        <ele>560</ele>
        <time>2022-05-24T09:03:56Z</time>
      </trkpt>
      <trkpt lat="49.04601" lon="10.71907">
        <ele>558</ele>
        <time>2022-05-24T09:04:02Z</time>
      </trkpt>
      <trkpt lat="49.04619" lon="10.71942">
        <ele>556</ele>
        <time>2022-05-24T09:04:07Z</time>
      </trkpt>
      <trkpt lat="49.04626" lon="10.72">
        <ele>558</ele>
        <time>2022-05-24T09:04:14Z</time>
      </trkpt>
      <trkpt lat="49.04699" lon="10.72209">
        <ele>557</ele>
        <time>2022-05-24T09:04:42Z</time>
      </trkpt>
      <trkpt lat="49.04715" lon="10.72317">
        <ele>556</ele>
        <time>2022-05-24T09:04:55Z</time>
      </trkpt>
      <trkpt lat="49.04709" lon="10.72397">
        <ele>556</ele>
        <time>2022-05-24T09:05:04Z</time>
      </trkpt>
      <trkpt lat="49.04706" lon="10.72574">
        <ele>552</ele>
        <time>2022-05-24T09:05:25Z</time>
      </trkpt>
      <trkpt lat="49.04678" lon="10.72839">
        <ele>530</ele>
        <time>2022-05-24T09:05:56Z</time>
      </trkpt>
      <trkpt lat="49.04668" lon="10.72893">
        <ele>530</ele>
        <time>2022-05-24T09:06:03Z</time>
      </trkpt>
      <trkpt lat="49.04577" lon="10.73083">
        <ele>533</ele>
        <time>2022-05-24T09:06:30Z</time>
      </trkpt>
      <trkpt lat="49.04538" lon="10.73174">
        <ele>535</ele>
        <time>2022-05-24T09:06:43Z</time>
      </trkpt>
      <trkpt lat="49.04499" lon="10.73303">
        <ele>537</ele>
        <time>2022-05-24T09:06:59Z</time>
      </trkpt>
      <trkpt lat="49.04507" lon="10.73453">
        <ele>535</ele>
        <time>2022-05-24T09:07:17Z</time>
      </trkpt>
      <trkpt lat="49.04505" lon="10.73478">
        <ele>536</ele>
        <time>2022-05-24T09:07:20Z</time>
      </trkpt>
      <trkpt lat="49.0449" lon="10.73523">
        <ele>539</ele>
        <time>2022-05-24T09:07:26Z</time>
      </trkpt>
      <trkpt lat="49.04483" lon="10.73591">
        <ele>540</ele>
        <time>2022-05-24T09:07:34Z</time>
      </trkpt>
      <trkpt lat="49.04529" lon="10.7381">
        <ele>520</ele>
        <time>2022-05-24T09:08:01Z</time>
      </trkpt>
      <trkpt lat="49.04561" lon="10.73913">
        <ele>505</ele>
        <time>2022-05-24T09:08:14Z</time>
      </trkpt>
      <trkpt lat="49.04573" lon="10.73926">
        <ele>502</ele>
        <time>2022-05-24T09:08:17Z</time>
      </trkpt>
      <trkpt lat="49.04675" lon="10.73953">
        <ele>490</ele>
        <time>2022-05-24T09:08:35Z</time>
      </trkpt>
      <trkpt lat="49.04689" lon="10.73962">
        <ele>489</ele>
        <time>2022-05-24T09:08:38Z</time>
      </trkpt>
      <trkpt lat="49.04699" lon="10.73976">
        <ele>488</ele>
        <time>2022-05-24T09:08:40Z</time>
      </trkpt>
      <trkpt lat="49.04815" lon="10.74294">
        <ele>476</ele>
        <time>2022-05-24T09:09:22Z</time>
      </trkpt>
      <trkpt lat="49.0492" lon="10.74484">
        <ele>472</ele>
        <time>2022-05-24T09:09:51Z</time>
      </trkpt>
      <trkpt lat="49.04941" lon="10.74513">
        <ele>471</ele>
        <time>2022-05-24T09:09:57Z</time>
      </trkpt>
      <trkpt lat="49.04927" lon="10.74908">
        <ele>471</ele>
        <time>2022-05-24T09:10:43Z</time>
      </trkpt>
      <trkpt lat="49.04922" lon="10.7496">
        <ele>470</ele>
        <time>2022-05-24T09:10:49Z</time>
      </trkpt>
      <trkpt lat="49.04922" lon="10.75009">
        <ele>469</ele>
        <time>2022-05-24T09:10:54Z</time>
      </trkpt>
      <trkpt lat="49.04926" lon="10.75027">
        <ele>469</ele>
        <time>2022-05-24T09:10:57Z</time>
      </trkpt>
      <trkpt lat="49.04935" lon="10.75038">
        <ele>469</ele>
        <time>2022-05-24T09:10:59Z</time>
      </trkpt>
      <trkpt lat="49.04931" lon="10.75164">
        <ele>471</ele>
        <time>2022-05-24T09:11:13Z</time>
      </trkpt>
      <trkpt lat="49.04902" lon="10.75265">
        <ele>471</ele>
        <time>2022-05-24T09:11:26Z</time>
      </trkpt>
      <trkpt lat="49.04753" lon="10.75258">
        <ele>474</ele>
        <time>2022-05-24T09:11:53Z</time>
      </trkpt>
      <trkpt lat="49.04723" lon="10.75272">
        <ele>474</ele>
        <time>2022-05-24T09:11:58Z</time>
      </trkpt>
      <trkpt lat="49.04681" lon="10.75323">
        <ele>475</ele>
        <time>2022-05-24T09:12:08Z</time>
      </trkpt>
      <trkpt lat="49.04626" lon="10.7541">
        <ele>477</ele>
        <time>2022-05-24T09:12:22Z</time>
      </trkpt>
      <trkpt lat="49.04601" lon="10.7543">
        <ele>479</ele>
        <time>2022-05-24T09:12:27Z</time>
      </trkpt>
      <trkpt lat="49.0454" lon="10.75444">
        <ele>481</ele>
        <time>2022-05-24T09:12:38Z</time>
      </trkpt>
      <trkpt lat="49.04427" lon="10.75449">
        <ele>485</ele>
        <time>2022-05-24T09:12:58Z</time>
      </trkpt>
      <trkpt lat="49.04384" lon="10.75439">
        <ele>488</ele>
        <time>2022-05-24T09:13:06Z</time>
      </trkpt>
      <trkpt lat="49.0428" lon="10.75405">
        <ele>493</ele>
        <time>2022-05-24T09:13:25Z</time>
      </trkpt>
      <trkpt lat="49.042" lon="10.75401">
        <ele>497</ele>
        <time>2022-05-24T09:13:39Z</time>
      </trkpt>
      <trkpt lat="49.04127" lon="10.75438">
        <ele>502</ele>
        <time>2022-05-24T09:13:53Z</time>
      </trkpt>
      <trkpt lat="49.0406" lon="10.75554">
        <ele>510</ele>
        <time>2022-05-24T09:14:11Z</time>
      </trkpt>
      <trkpt lat="49.0385" lon="10.75903">
        <ele>561</ele>
        <time>2022-05-24T09:15:06Z</time>
      </trkpt>
      <trkpt lat="49.03785" lon="10.76019">
        <ele>587</ele>
        <time>2022-05-24T09:15:24Z</time>
      </trkpt>
      <trkpt lat="49.03773" lon="10.76048">
        <ele>591</ele>
        <time>2022-05-24T09:15:28Z</time>
      </trkpt>
      <trkpt lat="49.03754" lon="10.7614">
        <ele>594</ele>
        <time>2022-05-24T09:15:39Z</time>
      </trkpt>
      <trkpt lat="49.03745" lon="10.76211">
        <ele>598</ele>
        <time>2022-05-24T09:15:48Z</time>
      </trkpt>
      <trkpt lat="49.03697" lon="10.7636">
        <ele>607</ele>
        <time>2022-05-24T09:16:07Z</time>
      </trkpt>
      <trkpt lat="49.03678" lon="10.76404">
        <ele>607</ele>
        <time>2022-05-24T09:16:13Z</time>
      </trkpt>
      <trkpt lat="49.03649" lon="10.76446">
        <ele>611</ele>
        <time>2022-05-24T09:16:20Z</time>
      </trkpt>
      <trkpt lat="49.03674" lon="10.76505">
        <ele>606</ele>
        <time>2022-05-24T09:16:28Z</time>
      </trkpt>
      <trkpt lat="49.03678" lon="10.76566">
        <ele>604</ele>
        <time>2022-05-24T09:16:36Z</time>
      </trkpt>
      <trkpt lat="49.03669" lon="10.7662">
        <ele>602</ele>
        <time>2022-05-24T09:16:42Z</time>
      </trkpt>
      <trkpt lat="49.03629" lon="10.76769">
        <ele>594</ele>
        <time>2022-05-24T09:17:01Z</time>
      </trkpt>
      <trkpt lat="49.03606" lon="10.76809">
        <ele>589</ele>
        <time>2022-05-24T09:17:07Z</time>
      </trkpt>
      <trkpt lat="49.03521" lon="10.76904">
        <ele>577</ele>
        <time>2022-05-24T09:17:26Z</time>
      </trkpt>
      <trkpt lat="49.03461" lon="10.76952">
        <ele>571</ele>
        <time>2022-05-24T09:17:38Z</time>
      </trkpt>
      <trkpt lat="49.03449" lon="10.76971">
        <ele>567</ele>
        <time>2022-05-24T09:17:41Z</time>
      </trkpt>
      <trkpt lat="49.03416" lon="10.77073">
        <ele>542</ele>
        <time>2022-05-24T09:17:54Z</time>
      </trkpt>
      <trkpt lat="49.03187" lon="10.7786">
        <ele>486</ele>
        <time>2022-05-24T09:19:35Z</time>
      </trkpt>
      <trkpt lat="49.03153" lon="10.77925">
        <ele>483</ele>
        <time>2022-05-24T09:19:44Z</time>
      </trkpt>
      <trkpt lat="49.03076" lon="10.78047">
        <ele>476</ele>
        <time>2022-05-24T09:20:04Z</time>
      </trkpt>
      <trkpt lat="49.03063" lon="10.78083">
        <ele>475</ele>
        <time>2022-05-24T09:20:09Z</time>
      </trkpt>
      <trkpt lat="49.03059" lon="10.78121">
        <ele>475</ele>
        <time>2022-05-24T09:20:13Z</time>
      </trkpt>
      <trkpt lat="49.03065" lon="10.78271">
        <ele>474</ele>
        <time>2022-05-24T09:20:31Z</time>
      </trkpt>
      <trkpt lat="49.03013" lon="10.78268">
        <ele>470</ele>
        <time>2022-05-24T09:20:40Z</time>
      </trkpt>
      <trkpt lat="49.02962" lon="10.78252">
        <ele>469</ele>
        <time>2022-05-24T09:20:49Z</time>
      </trkpt>
      <trkpt lat="49.02875" lon="10.78193">
        <ele>472</ele>
        <time>2022-05-24T09:21:06Z</time>
      </trkpt>
      <trkpt lat="49.02853" lon="10.78185">
        <ele>473</ele>
        <time>2022-05-24T09:21:10Z</time>
      </trkpt>
      <trkpt lat="49.02844" lon="10.78183">
        <ele>474</ele>
        <time>2022-05-24T09:21:12Z</time>
      </trkpt>
      <trkpt lat="49.02838" lon="10.78198">
        <ele>474</ele>
        <time>2022-05-24T09:21:14Z</time>
      </trkpt>
      <trkpt lat="49.02787" lon="10.7885">
        <ele>464</ele>
        <time>2022-05-24T09:22:31Z</time>
      </trkpt>
      <trkpt lat="49.02772" lon="10.78839">
        <ele>464</ele>
        <time>2022-05-24T09:22:34Z</time>
      </trkpt>
      <trkpt lat="49.02738" lon="10.7882">
        <ele>465</ele>
        <time>2022-05-24T09:22:40Z</time>
      </trkpt>
      <trkpt lat="49.0268" lon="10.78804">
        <ele>468</ele>
        <time>2022-05-24T09:22:51Z</time>
      </trkpt>
      <trkpt lat="49.02584" lon="10.78785">
        <ele>470</ele>
        <time>2022-05-24T09:23:08Z</time>
      </trkpt>
      <trkpt lat="49.02552" lon="10.7879">
        <ele>471</ele>
        <time>2022-05-24T09:23:13Z</time>
      </trkpt>
      <trkpt lat="49.02519" lon="10.78807">
        <ele>472</ele>
        <time>2022-05-24T09:23:20Z</time>
      </trkpt>
      <trkpt lat="49.02485" lon="10.78835">
        <ele>472</ele>
        <time>2022-05-24T09:23:27Z</time>
      </trkpt>
      <trkpt lat="49.02425" lon="10.78916">
        <ele>471</ele>
        <time>2022-05-24T09:23:41Z</time>
      </trkpt>
      <trkpt lat="49.0237" lon="10.78976">
        <ele>470</ele>
        <time>2022-05-24T09:23:53Z</time>
      </trkpt>
      <trkpt lat="49.02327" lon="10.79006">
        <ele>471</ele>
        <time>2022-05-24T09:24:01Z</time>
      </trkpt>
      <trkpt lat="49.02271" lon="10.79026">
        <ele>472</ele>
        <time>2022-05-24T09:24:11Z</time>
      </trkpt>
      <trkpt lat="49.02232" lon="10.79028">
        <ele>473</ele>
        <time>2022-05-24T09:24:18Z</time>
      </trkpt>
      <trkpt lat="49.02176" lon="10.79013">
        <ele>474</ele>
        <time>2022-05-24T09:24:29Z</time>
      </trkpt>
      <trkpt lat="49.02048" lon="10.78947">
        <ele>478</ele>
        <time>2022-05-24T09:24:53Z</time>
      </trkpt>
      <trkpt lat="49.02027" lon="10.78945">
        <ele>480</ele>
        <time>2022-05-24T09:24:56Z</time>
      </trkpt>
      <trkpt lat="49.02006" lon="10.78954">
        <ele>480</ele>
        <time>2022-05-24T09:25:00Z</time>
      </trkpt>
      <trkpt lat="49.01968" lon="10.79003">
        <ele>479</ele>
        <time>2022-05-24T09:25:09Z</time>
      </trkpt>
      <trkpt lat="49.01937" lon="10.79054">
        <ele>478</ele>
        <time>2022-05-24T09:25:17Z</time>
      </trkpt>
      <trkpt lat="49.01879" lon="10.79122">
        <ele>478</ele>
        <time>2022-05-24T09:25:30Z</time>
      </trkpt>
      <trkpt lat="49.01776" lon="10.79191">
        <ele>476</ele>
        <time>2022-05-24T09:25:50Z</time>
      </trkpt>
      <trkpt lat="49.01751" lon="10.79198">
        <ele>475</ele>
        <time>2022-05-24T09:25:55Z</time>
      </trkpt>
      <trkpt lat="49.01733" lon="10.79181">
        <ele>475</ele>
        <time>2022-05-24T09:25:59Z</time>
      </trkpt>
      <trkpt lat="49.01686" lon="10.7911">
        <ele>476</ele>
        <time>2022-05-24T09:26:10Z</time>
      </trkpt>
      <trkpt lat="49.01621" lon="10.79053">
        <ele>477</ele>
        <time>2022-05-24T09:26:24Z</time>
      </trkpt>
      <trkpt lat="49.01609" lon="10.78986">
        <ele>479</ele>
        <time>2022-05-24T09:26:32Z</time>
      </trkpt>
      <trkpt lat="49.01581" lon="10.78985">
        <ele>477</ele>
        <time>2022-05-24T09:26:37Z</time>
      </trkpt>
      <trkpt lat="49.01526" lon="10.79013">
        <ele>477</ele>
        <time>2022-05-24T09:26:47Z</time>
      </trkpt>
      <trkpt lat="49.01463" lon="10.79066">
        <ele>477</ele>
        <time>2022-05-24T09:27:00Z</time>
      </trkpt>
      <trkpt lat="49.01409" lon="10.79123">
        <ele>478</ele>
        <time>2022-05-24T09:27:12Z</time>
      </trkpt>
      <trkpt lat="49.01392" lon="10.79124">
        <ele>478</ele>
        <time>2022-05-24T09:27:15Z</time>
      </trkpt>
      <trkpt lat="49.01374" lon="10.7909">
        <ele>479</ele>
        <time>2022-05-24T09:27:20Z</time>
      </trkpt>
      <trkpt lat="49.01338" lon="10.79102">
        <ele>480</ele>
        <time>2022-05-24T09:27:26Z</time>
      </trkpt>
      <trkpt lat="49.013" lon="10.79071">
        <ele>482</ele>
        <time>2022-05-24T09:27:34Z</time>
      </trkpt>
      <trkpt lat="49.01288" lon="10.79075">
        <ele>483</ele>
        <time>2022-05-24T09:27:36Z</time>
      </trkpt>
      <trkpt lat="49.01248" lon="10.79058">
        <ele>486</ele>
        <time>2022-05-24T09:27:43Z</time>
      </trkpt>
      <trkpt lat="49.01217" lon="10.79056">
        <ele>487</ele>
        <time>2022-05-24T09:27:49Z</time>
      </trkpt>
      <trkpt lat="49.01186" lon="10.7905">
        <ele>488</ele>
        <time>2022-05-24T09:27:55Z</time>
      </trkpt>
      <trkpt lat="49.01059" lon="10.79058">
        <ele>499</ele>
        <time>2022-05-24T09:28:17Z</time>
      </trkpt>
      <trkpt lat="49.01037" lon="10.79068">
        <ele>503</ele>
        <time>2022-05-24T09:28:21Z</time>
      </trkpt>
      <trkpt lat="49.01013" lon="10.79009">
        <ele>504</ele>
        <time>2022-05-24T09:28:29Z</time>
      </trkpt>
      <trkpt lat="49.01009" lon="10.78968">
        <ele>506</ele>
        <time>2022-05-24T09:28:34Z</time>
      </trkpt>
      <trkpt lat="49.01013" lon="10.78926">
        <ele>508</ele>
        <time>2022-05-24T09:28:39Z</time>
      </trkpt>
      <trkpt lat="49.01029" lon="10.7888">
        <ele>513</ele>
        <time>2022-05-24T09:28:45Z</time>
      </trkpt>
      <trkpt lat="49.01013" lon="10.79009">
        <ele>504</ele>
        <time>2022-05-24T09:29:01Z</time>
      </trkpt>
      <trkpt lat="49.0104" lon="10.79075">
        <ele>503</ele>
        <time>2022-05-24T09:29:10Z</time>
      </trkpt>
      <trkpt lat="49.01079" lon="10.79157">
        <ele>504</ele>
        <time>2022-05-24T09:29:21Z</time>
      </trkpt>
      <trkpt lat="49.01112" lon="10.79198">
        <ele>504</ele>
        <time>2022-05-24T09:29:29Z</time>
      </trkpt>
      <trkpt lat="49.01377" lon="10.79393">
        <ele>485</ele>
        <time>2022-05-24T09:30:21Z</time>
      </trkpt>
      <trkpt lat="49.01454" lon="10.79453">
        <ele>478</ele>
        <time>2022-05-24T09:30:37Z</time>
      </trkpt>
      <trkpt lat="49.01497" lon="10.79494">
        <ele>474</ele>
        <time>2022-05-24T09:30:46Z</time>
      </trkpt>
      <trkpt lat="49.01537" lon="10.79544">
        <ele>472</ele>
        <time>2022-05-24T09:30:55Z</time>
      </trkpt>
      <trkpt lat="49.01818" lon="10.7995">
        <ele>460</ele>
        <time>2022-05-24T09:32:04Z</time>
      </trkpt>
      <trkpt lat="49.0186" lon="10.80022">
        <ele>460</ele>
        <time>2022-05-24T09:32:15Z</time>
      </trkpt>
      <trkpt lat="49.01902" lon="10.80126">
        <ele>459</ele>
        <time>2022-05-24T09:32:29Z</time>
      </trkpt>
      <trkpt lat="49.01963" lon="10.80232">
        <ele>456</ele>
        <time>2022-05-24T09:32:46Z</time>
      </trkpt>
      <trkpt lat="49.0207" lon="10.80359">
        <ele>454</ele>
        <time>2022-05-24T09:33:10Z</time>
      </trkpt>
      <trkpt lat="49.02163" lon="10.80453">
        <ele>450</ele>
        <time>2022-05-24T09:33:30Z</time>
      </trkpt>
      <trkpt lat="49.02275" lon="10.80529">
        <ele>447</ele>
        <time>2022-05-24T09:33:52Z</time>
      </trkpt>
      <trkpt lat="49.02337" lon="10.80587">
        <ele>445</ele>
        <time>2022-05-24T09:34:05Z</time>
      </trkpt>
      <trkpt lat="49.02451" lon="10.80728">
        <ele>444</ele>
        <time>2022-05-24T09:34:31Z</time>
      </trkpt>
      <trkpt lat="49.0256" lon="10.80851">
        <ele>443</ele>
        <time>2022-05-24T09:34:55Z</time>
      </trkpt>
      <trkpt lat="49.02622" lon="10.80958">
        <ele>440</ele>
        <time>2022-05-24T09:35:11Z</time>
      </trkpt>
      <trkpt lat="49.02688" lon="10.81086">
        <ele>439</ele>
        <time>2022-05-24T09:35:30Z</time>
      </trkpt>
      <trkpt lat="49.02711" lon="10.81107">
        <ele>438</ele>
        <time>2022-05-24T09:35:35Z</time>
      </trkpt>
      <trkpt lat="49.02709" lon="10.81113">
        <ele>439</ele>
        <time>2022-05-24T09:35:36Z</time>
      </trkpt>
      <trkpt lat="49.0272" lon="10.81148">
        <ele>439</ele>
        <time>2022-05-24T09:35:41Z</time>
      </trkpt>
      <trkpt lat="49.02767" lon="10.81209">
        <ele>437</ele>
        <time>2022-05-24T09:35:51Z</time>
      </trkpt>
      <trkpt lat="49.02802" lon="10.81308">
        <ele>436</ele>
        <time>2022-05-24T09:36:05Z</time>
      </trkpt>
      <trkpt lat="49.02837" lon="10.81375">
        <ele>434</ele>
        <time>2022-05-24T09:36:15Z</time>
      </trkpt>
      <trkpt lat="49.02932" lon="10.81632">
        <ele>433</ele>
        <time>2022-05-24T09:36:49Z</time>
      </trkpt>
      <trkpt lat="49.02954" lon="10.81714">
        <ele>433</ele>
        <time>2022-05-24T09:36:59Z</time>
      </trkpt>
      <trkpt lat="49.02951" lon="10.81809">
        <ele>433</ele>
        <time>2022-05-24T09:37:10Z</time>
      </trkpt>
      <trkpt lat="49.02955" lon="10.81836">
        <ele>432</ele>
        <time>2022-05-24T09:37:14Z</time>
      </trkpt>
      <trkpt lat="49.02932" lon="10.8188">
        <ele>432</ele>
        <time>2022-05-24T09:37:20Z</time>
      </trkpt>
      <trkpt lat="49.02925" lon="10.81918">
        <ele>432</ele>
        <time>2022-05-24T09:37:25Z</time>
      </trkpt>
      <trkpt lat="49.02907" lon="10.82082">
        <ele>430</ele>
        <time>2022-05-24T09:37:44Z</time>
      </trkpt>
      <trkpt lat="49.02873" lon="10.82271">
        <ele>432</ele>
        <time>2022-05-24T09:38:07Z</time>
      </trkpt>
      <trkpt lat="49.02871" lon="10.8237">
        <ele>431</ele>
        <time>2022-05-24T09:38:19Z</time>
      </trkpt>
      <trkpt lat="49.02861" lon="10.82518">
        <ele>429</ele>
        <time>2022-05-24T09:38:36Z</time>
      </trkpt>
      <trkpt lat="49.02851" lon="10.8253">
        <ele>429</ele>
        <time>2022-05-24T09:38:38Z</time>
      </trkpt>
      <trkpt lat="49.02836" lon="10.82593">
        <ele>429</ele>
        <time>2022-05-24T09:38:46Z</time>
      </trkpt>
      <trkpt lat="49.02822" lon="10.82632">
        <ele>428</ele>
        <time>2022-05-24T09:38:51Z</time>
      </trkpt>
      <trkpt lat="49.02797" lon="10.82674">
        <ele>428</ele>
        <time>2022-05-24T09:38:58Z</time>
      </trkpt>
      <trkpt lat="49.02646" lon="10.82891">
        <ele>431</ele>
        <time>2022-05-24T09:39:35Z</time>
      </trkpt>
      <trkpt lat="49.02616" lon="10.82948">
        <ele>431</ele>
        <time>2022-05-24T09:39:43Z</time>
      </trkpt>
      <trkpt lat="49.02558" lon="10.83129">
        <ele>433</ele>
        <time>2022-05-24T09:40:07Z</time>
      </trkpt>
      <trkpt lat="49.02532" lon="10.8318">
        <ele>433</ele>
        <time>2022-05-24T09:40:14Z</time>
      </trkpt>
      <trkpt lat="49.02509" lon="10.83211">
        <ele>434</ele>
        <time>2022-05-24T09:40:20Z</time>
      </trkpt>
      <trkpt lat="49.02354" lon="10.83341">
        <ele>437</ele>
        <time>2022-05-24T09:40:51Z</time>
      </trkpt>
      <trkpt lat="49.02257" lon="10.83414">
        <ele>441</ele>
        <time>2022-05-24T09:41:11Z</time>
      </trkpt>
      <trkpt lat="49.02069" lon="10.83522">
        <ele>446</ele>
        <time>2022-05-24T09:41:46Z</time>
      </trkpt>
      <trkpt lat="49.02015" lon="10.8357">
        <ele>445</ele>
        <time>2022-05-24T09:41:57Z</time>
      </trkpt>
      <trkpt lat="49.01959" lon="10.83636">
        <ele>443</ele>
        <time>2022-05-24T09:42:10Z</time>
      </trkpt>
      <trkpt lat="49.01938" lon="10.83666">
        <ele>442</ele>
        <time>2022-05-24T09:42:15Z</time>
      </trkpt>
      <trkpt lat="49.01859" lon="10.83747">
        <ele>438</ele>
        <time>2022-05-24T09:42:32Z</time>
      </trkpt>
      <trkpt lat="49.0174" lon="10.83905">
        <ele>434</ele>
        <time>2022-05-24T09:43:00Z</time>
      </trkpt>
      <trkpt lat="49.01747" lon="10.83923">
        <ele>434</ele>
        <time>2022-05-24T09:43:03Z</time>
      </trkpt>
      <trkpt lat="49.01673" lon="10.84043">
        <ele>430</ele>
        <time>2022-05-24T09:43:22Z</time>
      </trkpt>
      <trkpt lat="49.01612" lon="10.84155">
        <ele>431</ele>
        <time>2022-05-24T09:43:39Z</time>
      </trkpt>
      <trkpt lat="49.0135" lon="10.84753">
        <ele>420</ele>
        <time>2022-05-24T09:45:03Z</time>
      </trkpt>
      <trkpt lat="49.01283" lon="10.84865">
        <ele>418</ele>
        <time>2022-05-24T09:45:20Z</time>
      </trkpt>
      <trkpt lat="49.0131" lon="10.84894">
        <ele>417</ele>
        <time>2022-05-24T09:45:26Z</time>
      </trkpt>
      <trkpt lat="49.01311" lon="10.84907">
        <ele>417</ele>
        <time>2022-05-24T09:45:28Z</time>
      </trkpt>
      <trkpt lat="49.01391" lon="10.8526">
        <ele>411</ele>
        <time>2022-05-24T09:46:11Z</time>
      </trkpt>
      <trkpt lat="49.01412" lon="10.85349">
        <ele>412</ele>
        <time>2022-05-24T09:46:22Z</time>
      </trkpt>
      <trkpt lat="49.01432" lon="10.85412">
        <ele>413</ele>
        <time>2022-05-24T09:46:31Z</time>
      </trkpt>
      <trkpt lat="49.01017" lon="10.85682">
        <ele>412</ele>
        <time>2022-05-24T09:47:51Z</time>
      </trkpt>
      <trkpt lat="49.00915" lon="10.85756">
        <ele>411</ele>
        <time>2022-05-24T09:48:11Z</time>
      </trkpt>
      <trkpt lat="49.00905" lon="10.85776">
        <ele>411</ele>
        <time>2022-05-24T09:48:14Z</time>
      </trkpt>
      <trkpt lat="49.00788" lon="10.85879">
        <ele>410</ele>
        <time>2022-05-24T09:48:38Z</time>
      </trkpt>
      <trkpt lat="49.00781" lon="10.85879">
        <ele>410</ele>
        <time>2022-05-24T09:48:39Z</time>
      </trkpt>
      <trkpt lat="49.00749" lon="10.85905">
        <ele>410</ele>
        <time>2022-05-24T09:48:46Z</time>
      </trkpt>
      <trkpt lat="49.00674" lon="10.85995">
        <ele>410</ele>
        <time>2022-05-24T09:49:03Z</time>
      </trkpt>
      <trkpt lat="49.00255" lon="10.8654">
        <ele>412</ele>
        <time>2022-05-24T09:50:41Z</time>
      </trkpt>
      <trkpt lat="49.00159" lon="10.86674">
        <ele>411</ele>
        <time>2022-05-24T09:51:04Z</time>
      </trkpt>
      <trkpt lat="49.00245" lon="10.86792">
        <ele>410</ele>
        <time>2022-05-24T09:51:24Z</time>
      </trkpt>
      <trkpt lat="49.00244" lon="10.86802">
        <ele>411</ele>
        <time>2022-05-24T09:51:26Z</time>
      </trkpt>
      <trkpt lat="48.99959" lon="10.87356">
        <ele>410</ele>
        <time>2022-05-24T09:52:48Z</time>
      </trkpt>
      <trkpt lat="48.99903" lon="10.87435">
        <ele>412</ele>
        <time>2022-05-24T09:53:01Z</time>
      </trkpt>
      <trkpt lat="48.99254" lon="10.88175">
        <ele>408</ele>
        <time>2022-05-24T09:55:26Z</time>
      </trkpt>
      <trkpt lat="48.9886" lon="10.8871">
        <ele>412</ele>
        <time>2022-05-24T09:56:59Z</time>
      </trkpt>
      <trkpt lat="48.98851" lon="10.88734">
        <ele>413</ele>
        <time>2022-05-24T09:57:03Z</time>
      </trkpt>
      <trkpt lat="48.98844" lon="10.88823">
        <ele>411</ele>
        <time>2022-05-24T09:57:13Z</time>
      </trkpt>
      <trkpt lat="48.98817" lon="10.88862">
        <ele>411</ele>
        <time>2022-05-24T09:57:20Z</time>
      </trkpt>
      <trkpt lat="48.98522" lon="10.89229">
        <ele>409</ele>
        <time>2022-05-24T09:58:28Z</time>
      </trkpt>
      <trkpt lat="48.98202" lon="10.90109">
        <ele>409</ele>
        <time>2022-05-24T10:00:25Z</time>
      </trkpt>
      <trkpt lat="48.98178" lon="10.9017">
        <ele>409</ele>
        <time>2022-05-24T10:00:33Z</time>
      </trkpt>
      <trkpt lat="48.98168" lon="10.90183">
        <ele>409</ele>
        <time>2022-05-24T10:00:36Z</time>
      </trkpt>
      <trkpt lat="48.98116" lon="10.90217">
        <ele>411</ele>
        <time>2022-05-24T10:00:46Z</time>
      </trkpt>
      <trkpt lat="48.98103" lon="10.90233">
        <ele>411</ele>
        <time>2022-05-24T10:00:49Z</time>
      </trkpt>
      <trkpt lat="48.98078" lon="10.90285">
        <ele>412</ele>
        <time>2022-05-24T10:00:56Z</time>
      </trkpt>
      <trkpt lat="48.98049" lon="10.90364">
        <ele>412</ele>
        <time>2022-05-24T10:01:07Z</time>
      </trkpt>
      <trkpt lat="48.98017" lon="10.90346">
        <ele>415</ele>
        <time>2022-05-24T10:01:13Z</time>
      </trkpt>
      <trkpt lat="48.97946" lon="10.90516">
        <ele>415</ele>
        <time>2022-05-24T10:01:36Z</time>
      </trkpt>
      <trkpt lat="48.97903" lon="10.90599">
        <ele>415</ele>
        <time>2022-05-24T10:01:49Z</time>
      </trkpt>
      <trkpt lat="48.97857" lon="10.90674">
        <ele>416</ele>
        <time>2022-05-24T10:02:01Z</time>
      </trkpt>
      <trkpt lat="48.97751" lon="10.90811">
        <ele>414</ele>
        <time>2022-05-24T10:02:25Z</time>
      </trkpt>
      <trkpt lat="48.97699" lon="10.90865">
        <ele>413</ele>
        <time>2022-05-24T10:02:37Z</time>
      </trkpt>
      <trkpt lat="48.97653" lon="10.90904">
        <ele>413</ele>
        <time>2022-05-24T10:02:46Z</time>
      </trkpt>
      <trkpt lat="48.97596" lon="10.90939">
        <ele>414</ele>
        <time>2022-05-24T10:02:57Z</time>
      </trkpt>
      <trkpt lat="48.97508" lon="10.90974">
        <ele>417</ele>
        <time>2022-05-24T10:03:13Z</time>
      </trkpt>
      <trkpt lat="48.97416" lon="10.91003">
        <ele>417</ele>
        <time>2022-05-24T10:03:30Z</time>
      </trkpt>
      <trkpt lat="48.97292" lon="10.91025">
        <ele>420</ele>
        <time>2022-05-24T10:03:52Z</time>
      </trkpt>
      <trkpt lat="48.97241" lon="10.91038">
        <ele>421</ele>
        <time>2022-05-24T10:04:01Z</time>
      </trkpt>
      <trkpt lat="48.97233" lon="10.91035">
        <ele>421</ele>
        <time>2022-05-24T10:04:03Z</time>
      </trkpt>
      <trkpt lat="48.97197" lon="10.91054">
        <ele>422</ele>
        <time>2022-05-24T10:04:10Z</time>
      </trkpt>
      <trkpt lat="48.9717" lon="10.91086">
        <ele>421</ele>
        <time>2022-05-24T10:04:16Z</time>
      </trkpt>
      <trkpt lat="48.97155" lon="10.91092">
        <ele>420</ele>
        <time>2022-05-24T10:04:18Z</time>
      </trkpt>
      <trkpt lat="48.97018" lon="10.91087">
        <ele>419</ele>
        <time>2022-05-24T10:04:43Z</time>
      </trkpt>
      <trkpt lat="48.96998" lon="10.91095">
        <ele>419</ele>
        <time>2022-05-24T10:04:46Z</time>
      </trkpt>
      <trkpt lat="48.96983" lon="10.91125">
        <ele>417</ele>
        <time>2022-05-24T10:04:51Z</time>
      </trkpt>
      <trkpt lat="48.96972" lon="10.91168">
        <ele>416</ele>
        <time>2022-05-24T10:04:56Z</time>
      </trkpt>
      <trkpt lat="48.96777" lon="10.91164">
        <ele>414</ele>
        <time>2022-05-24T10:05:31Z</time>
      </trkpt>
      <trkpt lat="48.9673" lon="10.91153">
        <ele>414</ele>
        <time>2022-05-24T10:05:39Z</time>
      </trkpt>
      <trkpt lat="48.96678" lon="10.91131">
        <ele>414</ele>
        <time>2022-05-24T10:05:49Z</time>
      </trkpt>
      <trkpt lat="48.96646" lon="10.9113">
        <ele>413</ele>
        <time>2022-05-24T10:05:55Z</time>
      </trkpt>
      <trkpt lat="48.9664" lon="10.91108">
        <ele>414</ele>
        <time>2022-05-24T10:05:57Z</time>
      </trkpt>
      <trkpt lat="48.96627" lon="10.911">
        <ele>414</ele>
        <time>2022-05-24T10:06:00Z</time>
      </trkpt>
      <trkpt lat="48.96608" lon="10.91079">
        <ele>414</ele>
        <time>2022-05-24T10:06:04Z</time>
      </trkpt>
      <trkpt lat="48.96597" lon="10.91044">
        <ele>416</ele>
        <time>2022-05-24T10:06:09Z</time>
      </trkpt>
      <trkpt lat="48.96586" lon="10.91032">
        <ele>417</ele>
        <time>2022-05-24T10:06:11Z</time>
      </trkpt>
      <trkpt lat="48.96531" lon="10.91042">
        <ele>415</ele>
        <time>2022-05-24T10:06:21Z</time>
      </trkpt>
      <trkpt lat="48.96402" lon="10.91016">
        <ele>415</ele>
        <time>2022-05-24T10:06:44Z</time>
      </trkpt>
      <trkpt lat="48.96325" lon="10.90993">
        <ele>416</ele>
        <time>2022-05-24T10:06:58Z</time>
      </trkpt>
      <trkpt lat="48.96301" lon="10.90966">
        <ele>418</ele>
        <time>2022-05-24T10:07:03Z</time>
      </trkpt>
      <trkpt lat="48.96278" lon="10.90955">
        <ele>419</ele>
        <time>2022-05-24T10:07:08Z</time>
      </trkpt>
      <trkpt lat="48.96175" lon="10.9093">
        <ele>420</ele>
        <time>2022-05-24T10:07:26Z</time>
      </trkpt>
      <trkpt lat="48.96159" lon="10.90937">
        <ele>419</ele>
        <time>2022-05-24T10:07:29Z</time>
      </trkpt>
      <trkpt lat="48.96139" lon="10.9092">
        <ele>420</ele>
        <time>2022-05-24T10:07:33Z</time>
      </trkpt>
      <trkpt lat="48.96016" lon="10.90881">
        <ele>419</ele>
        <time>2022-05-24T10:07:56Z</time>
      </trkpt>
      <trkpt lat="48.95981" lon="10.90883">
        <ele>418</ele>
        <time>2022-05-24T10:08:02Z</time>
      </trkpt>
      <trkpt lat="48.95959" lon="10.90892">
        <ele>417</ele>
        <time>2022-05-24T10:08:06Z</time>
      </trkpt>
      <trkpt lat="48.95919" lon="10.90913">
        <ele>415</ele>
        <time>2022-05-24T10:08:13Z</time>
      </trkpt>
      <trkpt lat="48.9591" lon="10.90926">
        <ele>415</ele>
        <time>2022-05-24T10:08:16Z</time>
      </trkpt>
      <trkpt lat="48.95788" lon="10.90874">
        <ele>415</ele>
        <time>2022-05-24T10:08:38Z</time>
      </trkpt>
      <trkpt lat="48.95745" lon="10.90871">
        <ele>415</ele>
        <time>2022-05-24T10:08:46Z</time>
      </trkpt>
      <trkpt lat="48.95714" lon="10.90876">
        <ele>416</ele>
        <time>2022-05-24T10:08:51Z</time>
      </trkpt>
      <trkpt lat="48.95677" lon="10.90878">
        <ele>416</ele>
        <time>2022-05-24T10:08:58Z</time>
      </trkpt>
      <trkpt lat="48.95607" lon="10.90876">
        <ele>417</ele>
        <time>2022-05-24T10:09:10Z</time>
      </trkpt>
      <trkpt lat="48.95562" lon="10.90871">
        <ele>417</ele>
        <time>2022-05-24T10:09:18Z</time>
      </trkpt>
      <trkpt lat="48.95533" lon="10.90861">
        <ele>418</ele>
        <time>2022-05-24T10:09:24Z</time>
      </trkpt>
      <trkpt lat="48.95519" lon="10.90932">
        <ele>416</ele>
        <time>2022-05-24T10:09:32Z</time>
      </trkpt>
      <trkpt lat="48.95485" lon="10.90933">
        <ele>417</ele>
        <time>2022-05-24T10:09:38Z</time>
      </trkpt>
      <trkpt lat="48.95465" lon="10.90964">
        <ele>416</ele>
        <time>2022-05-24T10:09:44Z</time>
      </trkpt>
      <trkpt lat="48.95435" lon="10.91018">
        <ele>415</ele>
        <time>2022-05-24T10:09:52Z</time>
      </trkpt>
      <trkpt lat="48.95397" lon="10.91067">
        <ele>414</ele>
        <time>2022-05-24T10:10:01Z</time>
      </trkpt>
      <trkpt lat="48.95248" lon="10.91042">
        <ele>412</ele>
        <time>2022-05-24T10:10:27Z</time>
      </trkpt>
      <trkpt lat="48.95211" lon="10.91039">
        <ele>411</ele>
        <time>2022-05-24T10:10:34Z</time>
      </trkpt>
      <trkpt lat="48.95169" lon="10.91039">
        <ele>411</ele>
        <time>2022-05-24T10:10:41Z</time>
      </trkpt>
      <trkpt lat="48.94912" lon="10.9106">
        <ele>411</ele>
        <time>2022-05-24T10:11:27Z</time>
      </trkpt>
      <trkpt lat="48.94898" lon="10.91043">
        <ele>411</ele>
        <time>2022-05-24T10:11:30Z</time>
      </trkpt>
      <trkpt lat="48.94802" lon="10.91183">
        <ele>410</ele>
        <time>2022-05-24T10:11:54Z</time>
      </trkpt>
      <trkpt lat="48.94784" lon="10.91214">
        <ele>410</ele>
        <time>2022-05-24T10:11:59Z</time>
      </trkpt>
      <trkpt lat="48.94775" lon="10.9124">
        <ele>410</ele>
        <time>2022-05-24T10:12:02Z</time>
      </trkpt>
      <trkpt lat="48.94551" lon="10.9239">
        <ele>408</ele>
        <time>2022-05-24T10:14:22Z</time>
      </trkpt>
      <trkpt lat="48.94538" lon="10.92433">
        <ele>410</ele>
        <time>2022-05-24T10:14:28Z</time>
      </trkpt>
      <trkpt lat="48.94496" lon="10.92523">
        <ele>417</ele>
        <time>2022-05-24T10:14:41Z</time>
      </trkpt>
      <trkpt lat="48.94469" lon="10.92779">
        <ele>414</ele>
        <time>2022-05-24T10:15:11Z</time>
      </trkpt>
      <trkpt lat="48.94454" lon="10.92995">
        <ele>412</ele>
        <time>2022-05-24T10:15:37Z</time>
      </trkpt>
      <trkpt lat="48.94445" lon="10.9302">
        <ele>413</ele>
        <time>2022-05-24T10:15:40Z</time>
      </trkpt>
      <trkpt lat="48.94426" lon="10.93028">
        <ele>414</ele>
        <time>2022-05-24T10:15:43Z</time>
      </trkpt>
      <trkpt lat="48.9437" lon="10.93023">
        <ele>415</ele>
        <time>2022-05-24T10:15:53Z</time>
      </trkpt>
      <trkpt lat="48.94364" lon="10.9303">
        <ele>414</ele>
        <time>2022-05-24T10:15:55Z</time>
      </trkpt>
      <trkpt lat="48.94352" lon="10.93099">
        <ele>411</ele>
        <time>2022-05-24T10:16:03Z</time>
      </trkpt>
      <trkpt lat="48.94339" lon="10.93239">
        <ele>409</ele>
        <time>2022-05-24T10:16:20Z</time>
      </trkpt>
      <trkpt lat="48.94332" lon="10.93274">
        <ele>409</ele>
        <time>2022-05-24T10:16:24Z</time>
      </trkpt>
      <trkpt lat="48.94324" lon="10.93272">
        <ele>409</ele>
        <time>2022-05-24T10:16:25Z</time>
      </trkpt>
      <trkpt lat="48.94323" lon="10.93281">
        <ele>409</ele>
        <time>2022-05-24T10:16:26Z</time>
      </trkpt>
      <trkpt lat="48.94346" lon="10.93284">
        <ele>409</ele>
        <time>2022-05-24T10:16:30Z</time>
      </trkpt>
      <trkpt lat="48.94415" lon="10.93308">
        <ele>408</ele>
        <time>2022-05-24T10:16:43Z</time>
      </trkpt>
      <trkpt lat="48.94422" lon="10.93318">
        <ele>408</ele>
        <time>2022-05-24T10:16:45Z</time>
      </trkpt>
      <trkpt lat="48.94396" lon="10.93356">
        <ele>409</ele>
        <time>2022-05-24T10:16:51Z</time>
      </trkpt>
      <trkpt lat="48.94388" lon="10.9338">
        <ele>409</ele>
        <time>2022-05-24T10:16:54Z</time>
      </trkpt>
      <trkpt lat="48.94389" lon="10.93392">
        <ele>410</ele>
        <time>2022-05-24T10:16:56Z</time>
      </trkpt>
      <trkpt lat="48.944" lon="10.93414">
        <ele>410</ele>
        <time>2022-05-24T10:16:59Z</time>
      </trkpt>
      <trkpt lat="48.94377" lon="10.93459">
        <ele>410</ele>
        <time>2022-05-24T10:17:06Z</time>
      </trkpt>
      <trkpt lat="48.94334" lon="10.93517">
        <ele>414</ele>
        <time>2022-05-24T10:17:16Z</time>
      </trkpt>
      <trkpt lat="48.94298" lon="10.93534">
        <ele>421</ele>
        <time>2022-05-24T10:17:23Z</time>
      </trkpt>
      <trkpt lat="48.94272" lon="10.93539">
        <ele>424</ele>
        <time>2022-05-24T10:17:27Z</time>
      </trkpt>
      <trkpt lat="48.94194" lon="10.93517">
        <ele>426</ele>
        <time>2022-05-24T10:17:41Z</time>
      </trkpt>
      <trkpt lat="48.94094" lon="10.93459">
        <ele>424</ele>
        <time>2022-05-24T10:18:00Z</time>
      </trkpt>
      <trkpt lat="48.93993" lon="10.93377">
        <ele>423</ele>
        <time>2022-05-24T10:18:21Z</time>
      </trkpt>
      <trkpt lat="48.93886" lon="10.93276">
        <ele>415</ele>
        <time>2022-05-24T10:18:43Z</time>
      </trkpt>
      <trkpt lat="48.93802" lon="10.93211">
        <ele>409</ele>
        <time>2022-05-24T10:19:00Z</time>
      </trkpt>
      <trkpt lat="48.93702" lon="10.93121">
        <ele>407</ele>
        <time>2022-05-24T10:19:21Z</time>
      </trkpt>
      <trkpt lat="48.93685" lon="10.93134">
        <ele>408</ele>
        <time>2022-05-24T10:19:24Z</time>
      </trkpt>
      <trkpt lat="48.93649" lon="10.9323">
        <ele>409</ele>
        <time>2022-05-24T10:19:37Z</time>
      </trkpt>
      <trkpt lat="48.93609" lon="10.93367">
        <ele>411</ele>
        <time>2022-05-24T10:19:54Z</time>
      </trkpt>
      <trkpt lat="48.93595" lon="10.93437">
        <ele>411</ele>
        <time>2022-05-24T10:20:03Z</time>
      </trkpt>
      <trkpt lat="48.93577" lon="10.93668">
        <ele>415</ele>
        <time>2022-05-24T10:20:30Z</time>
      </trkpt>
      <trkpt lat="48.9361" lon="10.93921">
        <ele>416</ele>
        <time>2022-05-24T10:21:00Z</time>
      </trkpt>
      <trkpt lat="48.93637" lon="10.94061">
        <ele>416</ele>
        <time>2022-05-24T10:21:17Z</time>
      </trkpt>
      <trkpt lat="48.93678" lon="10.9435">
        <ele>408</ele>
        <time>2022-05-24T10:21:52Z</time>
      </trkpt>
      <trkpt lat="48.93681" lon="10.94401">
        <ele>407</ele>
        <time>2022-05-24T10:21:58Z</time>
      </trkpt>
      <trkpt lat="48.93683" lon="10.94574">
        <ele>409</ele>
        <time>2022-05-24T10:22:18Z</time>
      </trkpt>
      <trkpt lat="48.93702" lon="10.94606">
        <ele>409</ele>
        <time>2022-05-24T10:22:23Z</time>
      </trkpt>
      <trkpt lat="48.93741" lon="10.94651">
        <ele>407</ele>
        <time>2022-05-24T10:22:32Z</time>
      </trkpt>
      <trkpt lat="48.93789" lon="10.94728">
        <ele>408</ele>
        <time>2022-05-24T10:22:44Z</time>
      </trkpt>
      <trkpt lat="48.93886" lon="10.94825">
        <ele>410</ele>
        <time>2022-05-24T10:23:05Z</time>
      </trkpt>
      <trkpt lat="48.93916" lon="10.94883">
        <ele>414</ele>
        <time>2022-05-24T10:23:14Z</time>
      </trkpt>
      <trkpt lat="48.93948" lon="10.94885">
        <ele>425</ele>
        <time>2022-05-24T10:23:19Z</time>
      </trkpt>
      <trkpt lat="48.93957" lon="10.95055">
        <ele>435</ele>
        <time>2022-05-24T10:23:39Z</time>
      </trkpt>
      <trkpt lat="48.93952" lon="10.95102">
        <ele>436</ele>
        <time>2022-05-24T10:23:45Z</time>
      </trkpt>
      <trkpt lat="48.93929" lon="10.95195">
        <ele>434</ele>
        <time>2022-05-24T10:23:56Z</time>
      </trkpt>
      <trkpt lat="48.93868" lon="10.95292">
        <ele>428</ele>
        <time>2022-05-24T10:24:12Z</time>
      </trkpt>
      <trkpt lat="48.93772" lon="10.95418">
        <ele>435</ele>
        <time>2022-05-24T10:24:35Z</time>
      </trkpt>
      <trkpt lat="48.93711" lon="10.95457">
        <ele>433</ele>
        <time>2022-05-24T10:24:46Z</time>
      </trkpt>
      <trkpt lat="48.93566" lon="10.95513">
        <ele>430</ele>
        <time>2022-05-24T10:25:13Z</time>
      </trkpt>
      <trkpt lat="48.93513" lon="10.95525">
        <ele>429</ele>
        <time>2022-05-24T10:25:23Z</time>
      </trkpt>
      <trkpt lat="48.93381" lon="10.95536">
        <ele>426</ele>
        <time>2022-05-24T10:25:46Z</time>
      </trkpt>
      <trkpt lat="48.93335" lon="10.9553">
        <ele>423</ele>
        <time>2022-05-24T10:25:54Z</time>
      </trkpt>
      <trkpt lat="48.93247" lon="10.95545">
        <ele>416</ele>
        <time>2022-05-24T10:26:10Z</time>
      </trkpt>
      <trkpt lat="48.93193" lon="10.95573">
        <ele>412</ele>
        <time>2022-05-24T10:26:20Z</time>
      </trkpt>
      <trkpt lat="48.93132" lon="10.95614">
        <ele>409</ele>
        <time>2022-05-24T10:26:32Z</time>
      </trkpt>
      <trkpt lat="48.9311" lon="10.9566">
        <ele>409</ele>
        <time>2022-05-24T10:26:39Z</time>
      </trkpt>
      <trkpt lat="48.93078" lon="10.95824">
        <ele>408</ele>
        <time>2022-05-24T10:26:59Z</time>
      </trkpt>
      <trkpt lat="48.93091" lon="10.95948">
        <ele>406</ele>
        <time>2022-05-24T10:27:13Z</time>
      </trkpt>
      <trkpt lat="48.93102" lon="10.96004">
        <ele>406</ele>
        <time>2022-05-24T10:27:20Z</time>
      </trkpt>
      <trkpt lat="48.93141" lon="10.96148">
        <ele>406</ele>
        <time>2022-05-24T10:27:38Z</time>
      </trkpt>
      <trkpt lat="48.93182" lon="10.96262">
        <ele>406</ele>
        <time>2022-05-24T10:27:54Z</time>
      </trkpt>
      <trkpt lat="48.93201" lon="10.96338">
        <ele>406</ele>
        <time>2022-05-24T10:28:03Z</time>
      </trkpt>
      <trkpt lat="48.93297" lon="10.96556">
        <ele>407</ele>
        <time>2022-05-24T10:28:34Z</time>
      </trkpt>
      <trkpt lat="48.93313" lon="10.96577">
        <ele>407</ele>
        <time>2022-05-24T10:28:38Z</time>
      </trkpt>
      <trkpt lat="48.93338" lon="10.96553">
        <ele>408</ele>
        <time>2022-05-24T10:28:43Z</time>
      </trkpt>
      <trkpt lat="48.93357" lon="10.96576">
        <ele>409</ele>
        <time>2022-05-24T10:28:47Z</time>
      </trkpt>
      <trkpt lat="48.93408" lon="10.96545">
        <ele>414</ele>
        <time>2022-05-24T10:28:57Z</time>
      </trkpt>
      <trkpt lat="48.93427" lon="10.96516">
        <ele>418</ele>
        <time>2022-05-24T10:29:02Z</time>
      </trkpt>
      <trkpt lat="48.93474" lon="10.9658">
        <ele>421</ele>
        <time>2022-05-24T10:29:13Z</time>
      </trkpt>
      <trkpt lat="48.93505" lon="10.965">
        <ele>427</ele>
        <time>2022-05-24T10:29:24Z</time>
      </trkpt>
      <trkpt lat="48.9359" lon="10.96316">
        <ele>450</ele>
        <time>2022-05-24T10:29:50Z</time>
      </trkpt>
      <trkpt lat="48.93619" lon="10.96277">
        <ele>456</ele>
        <time>2022-05-24T10:29:57Z</time>
      </trkpt>
      <trkpt lat="48.93723" lon="10.96193">
        <ele>466</ele>
        <time>2022-05-24T10:30:18Z</time>
      </trkpt>
      <trkpt lat="48.93777" lon="10.96101">
        <ele>471</ele>
        <time>2022-05-24T10:30:32Z</time>
      </trkpt>
      <trkpt lat="48.93806" lon="10.96079">
        <ele>472</ele>
        <time>2022-05-24T10:30:38Z</time>
      </trkpt>
      <trkpt lat="48.9387" lon="10.9606">
        <ele>475</ele>
        <time>2022-05-24T10:30:50Z</time>
      </trkpt>
      <trkpt lat="48.93957" lon="10.96061">
        <ele>479</ele>
        <time>2022-05-24T10:31:05Z</time>
      </trkpt>
      <trkpt lat="48.94042" lon="10.96033">
        <ele>482</ele>
        <time>2022-05-24T10:31:21Z</time>
      </trkpt>
      <trkpt lat="48.94046" lon="10.96027">
        <ele>483</ele>
        <time>2022-05-24T10:31:22Z</time>
      </trkpt>
      <trkpt lat="48.94069" lon="10.96066">
        <ele>480</ele>
        <time>2022-05-24T10:31:28Z</time>
      </trkpt>
      <trkpt lat="48.94016" lon="10.96149">
        <ele>485</ele>
        <time>2022-05-24T10:31:41Z</time>
      </trkpt>
      <trkpt lat="48.94011" lon="10.96237">
        <ele>493</ele>
        <time>2022-05-24T10:31:52Z</time>
      </trkpt>
      <trkpt lat="48.94001" lon="10.96298">
        <ele>495</ele>
        <time>2022-05-24T10:31:59Z</time>
      </trkpt>
      <trkpt lat="48.93977" lon="10.96343">
        <ele>496</ele>
        <time>2022-05-24T10:32:06Z</time>
      </trkpt>
      <trkpt lat="48.93912" lon="10.96541">
        <ele>499</ele>
        <time>2022-05-24T10:32:32Z</time>
      </trkpt>
      <trkpt lat="48.93907" lon="10.96568">
        <ele>500</ele>
        <time>2022-05-24T10:32:35Z</time>
      </trkpt>
      <trkpt lat="48.93914" lon="10.96607">
        <ele>501</ele>
        <time>2022-05-24T10:32:40Z</time>
      </trkpt>
      <trkpt lat="48.93981" lon="10.96744">
        <ele>504</ele>
        <time>2022-05-24T10:33:00Z</time>
      </trkpt>
      <trkpt lat="48.94032" lon="10.96687">
        <ele>505</ele>
        <time>2022-05-24T10:33:11Z</time>
      </trkpt>
      <trkpt lat="48.94084" lon="10.96639">
        <ele>507</ele>
        <time>2022-05-24T10:33:22Z</time>
      </trkpt>
      <trkpt lat="48.94157" lon="10.96579">
        <ele>507</ele>
        <time>2022-05-24T10:33:36Z</time>
      </trkpt>
      <trkpt lat="48.94172" lon="10.96561">
        <ele>506</ele>
        <time>2022-05-24T10:33:40Z</time>
      </trkpt>
      <trkpt lat="48.94157" lon="10.96579">
        <ele>507</ele>
        <time>2022-05-24T10:33:43Z</time>
      </trkpt>
      <trkpt lat="48.94084" lon="10.96639">
        <ele>507</ele>
        <time>2022-05-24T10:33:58Z</time>
      </trkpt>
      <trkpt lat="48.94032" lon="10.96687">
        <ele>505</ele>
        <time>2022-05-24T10:34:09Z</time>
      </trkpt>
      <trkpt lat="48.93981" lon="10.96744">
        <ele>504</ele>
        <time>2022-05-24T10:34:20Z</time>
      </trkpt>
      <trkpt lat="48.93823" lon="10.969">
        <ele>487</ele>
        <time>2022-05-24T10:34:54Z</time>
      </trkpt>
      <trkpt lat="48.93799" lon="10.96935">
        <ele>480</ele>
        <time>2022-05-24T10:34:59Z</time>
      </trkpt>
      <trkpt lat="48.93775" lon="10.97003">
        <ele>465</ele>
        <time>2022-05-24T10:35:08Z</time>
      </trkpt>
      <trkpt lat="48.9377" lon="10.97031">
        <ele>462</ele>
        <time>2022-05-24T10:35:12Z</time>
      </trkpt>
      <trkpt lat="48.93764" lon="10.97037">
        <ele>459</ele>
        <time>2022-05-24T10:35:13Z</time>
      </trkpt>
      <trkpt lat="48.93756" lon="10.97074">
        <ele>454</ele>
        <time>2022-05-24T10:35:18Z</time>
      </trkpt>
      <trkpt lat="48.93755" lon="10.97109">
        <ele>451</ele>
        <time>2022-05-24T10:35:22Z</time>
      </trkpt>
      <trkpt lat="48.93763" lon="10.97175">
        <ele>451</ele>
        <time>2022-05-24T10:35:30Z</time>
      </trkpt>
      <trkpt lat="48.93757" lon="10.97254">
        <ele>440</ele>
        <time>2022-05-24T10:35:39Z</time>
      </trkpt>
      <trkpt lat="48.93749" lon="10.973">
        <ele>430</ele>
        <time>2022-05-24T10:35:45Z</time>
      </trkpt>
      <trkpt lat="48.93744" lon="10.97296">
        <ele>429</ele>
        <time>2022-05-24T10:35:46Z</time>
      </trkpt>
      <trkpt lat="48.93731" lon="10.97302">
        <ele>426</ele>
        <time>2022-05-24T10:35:48Z</time>
      </trkpt>
      <trkpt lat="48.93693" lon="10.97163">
        <ele>421</ele>
        <time>2022-05-24T10:36:06Z</time>
      </trkpt>
      <trkpt lat="48.93617" lon="10.96968">
        <ele>417</ele>
        <time>2022-05-24T10:36:32Z</time>
      </trkpt>
      <trkpt lat="48.93569" lon="10.96857">
        <ele>415</ele>
        <time>2022-05-24T10:36:48Z</time>
      </trkpt>
      <trkpt lat="48.93534" lon="10.96862">
        <ele>410</ele>
        <time>2022-05-24T10:36:54Z</time>
      </trkpt>
      <trkpt lat="48.93465" lon="10.96953">
        <ele>405</ele>
        <time>2022-05-24T10:37:10Z</time>
      </trkpt>
      <trkpt lat="48.93436" lon="10.97003">
        <ele>406</ele>
        <time>2022-05-24T10:37:18Z</time>
      </trkpt>
      <trkpt lat="48.93432" lon="10.97025">
        <ele>407</ele>
        <time>2022-05-24T10:37:21Z</time>
      </trkpt>
      <trkpt lat="48.93437" lon="10.97064">
        <ele>409</ele>
        <time>2022-05-24T10:37:25Z</time>
      </trkpt>
      <trkpt lat="48.93469" lon="10.97158">
        <ele>409</ele>
        <time>2022-05-24T10:37:38Z</time>
      </trkpt>
      <trkpt lat="48.93509" lon="10.97254">
        <ele>408</ele>
        <time>2022-05-24T10:37:51Z</time>
      </trkpt>
      <trkpt lat="48.93496" lon="10.97272">
        <ele>409</ele>
        <time>2022-05-24T10:37:54Z</time>
      </trkpt>
      <trkpt lat="48.93473" lon="10.97291">
        <ele>413</ele>
        <time>2022-05-24T10:37:59Z</time>
      </trkpt>
      <trkpt lat="48.9348" lon="10.97363">
        <ele>412</ele>
        <time>2022-05-24T10:38:07Z</time>
      </trkpt>
      <trkpt lat="48.93477" lon="10.97413">
        <ele>411</ele>
        <time>2022-05-24T10:38:13Z</time>
      </trkpt>
      <trkpt lat="48.93438" lon="10.9741">
        <ele>412</ele>
        <time>2022-05-24T10:38:20Z</time>
      </trkpt>
      <trkpt lat="48.93435" lon="10.97487">
        <ele>413</ele>
        <time>2022-05-24T10:38:29Z</time>
      </trkpt>
      <trkpt lat="48.93473" lon="10.9748">
        <ele>412</ele>
        <time>2022-05-24T10:38:36Z</time>
      </trkpt>
      <trkpt lat="48.93488" lon="10.97452">
        <ele>411</ele>
        <time>2022-05-24T10:38:40Z</time>
      </trkpt>
      <trkpt lat="48.93484" lon="10.97422">
        <ele>411</ele>
        <time>2022-05-24T10:38:44Z</time>
      </trkpt>
      <trkpt lat="48.93477" lon="10.97413">
        <ele>411</ele>
        <time>2022-05-24T10:38:45Z</time>
      </trkpt>
      <trkpt lat="48.93434" lon="10.9741">
        <ele>412</ele>
        <time>2022-05-24T10:38:53Z</time>
      </trkpt>
      <trkpt lat="48.93401" lon="10.97403">
        <ele>413</ele>
        <time>2022-05-24T10:38:59Z</time>
      </trkpt>
      <trkpt lat="48.93363" lon="10.9739">
        <ele>413</ele>
        <time>2022-05-24T10:39:06Z</time>
      </trkpt>
      <trkpt lat="48.93266" lon="10.97344">
        <ele>411</ele>
        <time>2022-05-24T10:39:24Z</time>
      </trkpt>
      <trkpt lat="48.93241" lon="10.97329">
        <ele>410</ele>
        <time>2022-05-24T10:39:29Z</time>
      </trkpt>
      <trkpt lat="48.93204" lon="10.973">
        <ele>411</ele>
        <time>2022-05-24T10:39:36Z</time>
      </trkpt>
      <trkpt lat="48.93133" lon="10.97264">
        <ele>409</ele>
        <time>2022-05-24T10:39:49Z</time>
      </trkpt>
      <trkpt lat="48.93051" lon="10.97146">
        <ele>406</ele>
        <time>2022-05-24T10:40:09Z</time>
      </trkpt>
      <trkpt lat="48.9304" lon="10.97139">
        <ele>406</ele>
        <time>2022-05-24T10:40:11Z</time>
      </trkpt>
      <trkpt lat="48.93015" lon="10.97091">
        <ele>406</ele>
        <time>2022-05-24T10:40:19Z</time>
      </trkpt>
      <trkpt lat="48.92994" lon="10.97032">
        <ele>408</ele>
        <time>2022-05-24T10:40:26Z</time>
      </trkpt>
      <trkpt lat="48.92986" lon="10.96953">
        <ele>410</ele>
        <time>2022-05-24T10:40:36Z</time>
      </trkpt>
      <trkpt lat="48.92981" lon="10.96928">
        <ele>410</ele>
        <time>2022-05-24T10:40:39Z</time>
      </trkpt>
      <trkpt lat="48.92942" lon="10.96863">
        <ele>409</ele>
        <time>2022-05-24T10:40:49Z</time>
      </trkpt>
      <trkpt lat="48.9291" lon="10.96797">
        <ele>409</ele>
        <time>2022-05-24T10:40:59Z</time>
      </trkpt>
      <trkpt lat="48.92891" lon="10.96736">
        <ele>408</ele>
        <time>2022-05-24T10:41:07Z</time>
      </trkpt>
      <trkpt lat="48.92852" lon="10.96637">
        <ele>408</ele>
        <time>2022-05-24T10:41:20Z</time>
      </trkpt>
      <trkpt lat="48.92838" lon="10.96572">
        <ele>409</ele>
        <time>2022-05-24T10:41:28Z</time>
      </trkpt>
      <trkpt lat="48.92822" lon="10.96536">
        <ele>409</ele>
        <time>2022-05-24T10:41:33Z</time>
      </trkpt>
      <trkpt lat="48.92818" lon="10.96511">
        <ele>409</ele>
        <time>2022-05-24T10:41:36Z</time>
      </trkpt>
      <trkpt lat="48.92787" lon="10.96447">
        <ele>408</ele>
        <time>2022-05-24T10:41:46Z</time>
      </trkpt>
      <trkpt lat="48.92769" lon="10.96436">
        <ele>408</ele>
        <time>2022-05-24T10:41:49Z</time>
      </trkpt>
      <trkpt lat="48.92756" lon="10.96443">
        <ele>408</ele>
        <time>2022-05-24T10:41:51Z</time>
      </trkpt>
      <trkpt lat="48.92716" lon="10.96447">
        <ele>409</ele>
        <time>2022-05-24T10:41:59Z</time>
      </trkpt>
      <trkpt lat="48.92695" lon="10.96432">
        <ele>409</ele>
        <time>2022-05-24T10:42:03Z</time>
      </trkpt>
      <trkpt lat="48.92684" lon="10.96445">
        <ele>409</ele>
        <time>2022-05-24T10:42:05Z</time>
      </trkpt>
      <trkpt lat="48.9262" lon="10.96494">
        <ele>408</ele>
        <time>2022-05-24T10:42:18Z</time>
      </trkpt>
      <trkpt lat="48.92593" lon="10.96491">
        <ele>408</ele>
        <time>2022-05-24T10:42:23Z</time>
      </trkpt>
      <trkpt lat="48.92475" lon="10.96624">
        <ele>406</ele>
        <time>2022-05-24T10:42:49Z</time>
      </trkpt>
      <trkpt lat="48.92422" lon="10.96695">
        <ele>407</ele>
        <time>2022-05-24T10:43:01Z</time>
      </trkpt>
      <trkpt lat="48.92375" lon="10.96778">
        <ele>407</ele>
        <time>2022-05-24T10:43:14Z</time>
      </trkpt>
      <trkpt lat="48.92321" lon="10.96924">
        <ele>406</ele>
        <time>2022-05-24T10:43:34Z</time>
      </trkpt>
      <trkpt lat="48.92296" lon="10.97054">
        <ele>406</ele>
        <time>2022-05-24T10:43:50Z</time>
      </trkpt>
      <trkpt lat="48.92283" lon="10.97182">
        <ele>407</ele>
        <time>2022-05-24T10:44:05Z</time>
      </trkpt>
      <trkpt lat="48.92281" lon="10.97741">
        <ele>405</ele>
        <time>2022-05-24T10:45:10Z</time>
      </trkpt>
      <trkpt lat="48.92248" lon="10.9797">
        <ele>416</ele>
        <time>2022-05-24T10:45:38Z</time>
      </trkpt>
      <trkpt lat="48.92269" lon="10.9803">
        <ele>418</ele>
        <time>2022-05-24T10:45:46Z</time>
      </trkpt>
      <trkpt lat="48.92313" lon="10.98116">
        <ele>418</ele>
        <time>2022-05-24T10:45:58Z</time>
      </trkpt>
      <trkpt lat="48.92405" lon="10.98272">
        <ele>410</ele>
        <time>2022-05-24T10:46:23Z</time>
      </trkpt>
      <trkpt lat="48.92433" lon="10.98336">
        <ele>409</ele>
        <time>2022-05-24T10:46:32Z</time>
      </trkpt>
      <trkpt lat="48.92438" lon="10.98355">
        <ele>408</ele>
        <time>2022-05-24T10:46:34Z</time>
      </trkpt>
      <trkpt lat="48.92437" lon="10.9838">
        <ele>407</ele>
        <time>2022-05-24T10:46:37Z</time>
      </trkpt>
      <trkpt lat="48.92433" lon="10.9839">
        <ele>407</ele>
        <time>2022-05-24T10:46:38Z</time>
      </trkpt>
      <trkpt lat="48.92411" lon="10.9841">
        <ele>406</ele>
        <time>2022-05-24T10:46:43Z</time>
      </trkpt>
      <trkpt lat="48.92329" lon="10.98541">
        <ele>403</ele>
        <time>2022-05-24T10:47:04Z</time>
      </trkpt>
      <trkpt lat="48.92263" lon="10.98444">
        <ele>402</ele>
        <time>2022-05-24T10:47:20Z</time>
      </trkpt>
      <trkpt lat="48.92258" lon="10.98424">
        <ele>402</ele>
        <time>2022-05-24T10:47:23Z</time>
      </trkpt>
      <trkpt lat="48.92225" lon="10.98373">
        <ele>403</ele>
        <time>2022-05-24T10:47:31Z</time>
      </trkpt>
      <trkpt lat="48.92104" lon="10.98283">
        <ele>403</ele>
        <time>2022-05-24T10:47:55Z</time>
      </trkpt>
      <trkpt lat="48.92083" lon="10.98258">
        <ele>403</ele>
        <time>2022-05-24T10:48:00Z</time>
      </trkpt>
      <trkpt lat="48.92076" lon="10.98258">
        <ele>403</ele>
        <time>2022-05-24T10:48:01Z</time>
      </trkpt>
      <trkpt lat="48.92006" lon="10.98336">
        <ele>403</ele>
        <time>2022-05-24T10:48:17Z</time>
      </trkpt>
      <trkpt lat="48.91959" lon="10.98374">
        <ele>403</ele>
        <time>2022-05-24T10:48:26Z</time>
      </trkpt>
      <trkpt lat="48.91863" lon="10.98425">
        <ele>405</ele>
        <time>2022-05-24T10:48:44Z</time>
      </trkpt>
      <trkpt lat="48.91812" lon="10.98438">
        <ele>406</ele>
        <time>2022-05-24T10:48:54Z</time>
      </trkpt>
      <trkpt lat="48.91748" lon="10.98442">
        <ele>406</ele>
        <time>2022-05-24T10:49:05Z</time>
      </trkpt>
      <trkpt lat="48.91616" lon="10.98414">
        <ele>405</ele>
        <time>2022-05-24T10:49:29Z</time>
      </trkpt>
      <trkpt lat="48.91498" lon="10.98412">
        <ele>411</ele>
        <time>2022-05-24T10:49:50Z</time>
      </trkpt>
      <trkpt lat="48.91336" lon="10.98424">
        <ele>405</ele>
        <time>2022-05-24T10:50:18Z</time>
      </trkpt>
      <trkpt lat="48.9122" lon="10.98456">
        <ele>404</ele>
        <time>2022-05-24T10:50:39Z</time>
      </trkpt>
      <trkpt lat="48.91172" lon="10.98483">
        <ele>404</ele>
        <time>2022-05-24T10:50:49Z</time>
      </trkpt>
      <trkpt lat="48.91147" lon="10.98509">
        <ele>404</ele>
        <time>2022-05-24T10:50:54Z</time>
      </trkpt>
      <trkpt lat="48.91123" lon="10.98558">
        <ele>404</ele>
        <time>2022-05-24T10:51:01Z</time>
      </trkpt>
      <trkpt lat="48.91097" lon="10.98589">
        <ele>403</ele>
        <time>2022-05-24T10:51:07Z</time>
      </trkpt>
      <trkpt lat="48.90859" lon="10.98777">
        <ele>405</ele>
        <time>2022-05-24T10:51:55Z</time>
      </trkpt>
      <trkpt lat="48.90839" lon="10.98795">
        <ele>405</ele>
        <time>2022-05-24T10:51:59Z</time>
      </trkpt>
      <trkpt lat="48.90829" lon="10.98814">
        <ele>405</ele>
        <time>2022-05-24T10:52:02Z</time>
      </trkpt>
      <trkpt lat="48.90826" lon="10.98858">
        <ele>404</ele>
        <time>2022-05-24T10:52:07Z</time>
      </trkpt>
      <trkpt lat="48.90814" lon="10.98936">
        <ele>405</ele>
        <time>2022-05-24T10:52:16Z</time>
      </trkpt>
      <trkpt lat="48.908" lon="10.98996">
        <ele>405</ele>
        <time>2022-05-24T10:52:24Z</time>
      </trkpt>
      <trkpt lat="48.90753" lon="10.99145">
        <ele>407</ele>
        <time>2022-05-24T10:52:43Z</time>
      </trkpt>
      <trkpt lat="48.90757" lon="10.99171">
        <ele>411</ele>
        <time>2022-05-24T10:52:46Z</time>
      </trkpt>
      <trkpt lat="48.90677" lon="10.99288">
        <ele>413</ele>
        <time>2022-05-24T10:53:06Z</time>
      </trkpt>
      <trkpt lat="48.90603" lon="10.9938">
        <ele>415</ele>
        <time>2022-05-24T10:53:23Z</time>
      </trkpt>
      <trkpt lat="48.9058" lon="10.99393">
        <ele>412</ele>
        <time>2022-05-24T10:53:27Z</time>
      </trkpt>
      <trkpt lat="48.90537" lon="10.99405">
        <ele>410</ele>
        <time>2022-05-24T10:53:35Z</time>
      </trkpt>
      <trkpt lat="48.90445" lon="10.99463">
        <ele>413</ele>
        <time>2022-05-24T10:53:53Z</time>
      </trkpt>
      <trkpt lat="48.90339" lon="10.99485">
        <ele>410</ele>
        <time>2022-05-24T10:54:12Z</time>
      </trkpt>
      <trkpt lat="48.90246" lon="10.99468">
        <ele>408</ele>
        <time>2022-05-24T10:54:28Z</time>
      </trkpt>
      <trkpt lat="48.90059" lon="10.99393">
        <ele>412</ele>
        <time>2022-05-24T10:55:03Z</time>
      </trkpt>
      <trkpt lat="48.9003" lon="10.99367">
        <ele>411</ele>
        <time>2022-05-24T10:55:09Z</time>
      </trkpt>
      <trkpt lat="48.89963" lon="10.99277">
        <ele>407</ele>
        <time>2022-05-24T10:55:25Z</time>
      </trkpt>
      <trkpt lat="48.89896" lon="10.99205">
        <ele>407</ele>
        <time>2022-05-24T10:55:39Z</time>
      </trkpt>
      <trkpt lat="48.89786" lon="10.99124">
        <ele>409</ele>
        <time>2022-05-24T10:56:01Z</time>
      </trkpt>
      <trkpt lat="48.89744" lon="10.99105">
        <ele>409</ele>
        <time>2022-05-24T10:56:09Z</time>
      </trkpt>
      <trkpt lat="48.89657" lon="10.99083">
        <ele>411</ele>
        <time>2022-05-24T10:56:25Z</time>
      </trkpt>
      <trkpt lat="48.89591" lon="10.99099">
        <ele>415</ele>
        <time>2022-05-24T10:56:36Z</time>
      </trkpt>
      <trkpt lat="48.89558" lon="10.99092">
        <ele>413</ele>
        <time>2022-05-24T10:56:42Z</time>
      </trkpt>
      <trkpt lat="48.89484" lon="10.99109">
        <ele>410</ele>
        <time>2022-05-24T10:56:56Z</time>
      </trkpt>
      <trkpt lat="48.89423" lon="10.99092">
        <ele>405</ele>
        <time>2022-05-24T10:57:07Z</time>
      </trkpt>
      <trkpt lat="48.89382" lon="10.99092">
        <ele>405</ele>
        <time>2022-05-24T10:57:14Z</time>
      </trkpt>
      <trkpt lat="48.89307" lon="10.99053">
        <ele>408</ele>
        <time>2022-05-24T10:57:28Z</time>
      </trkpt>
      <trkpt lat="48.89241" lon="10.99181">
        <ele>407</ele>
        <time>2022-05-24T10:57:47Z</time>
      </trkpt>
      <trkpt lat="48.89189" lon="10.99323">
        <ele>410</ele>
        <time>2022-05-24T10:58:06Z</time>
      </trkpt>
      <trkpt lat="48.89174" lon="10.99376">
        <ele>410</ele>
        <time>2022-05-24T10:58:13Z</time>
      </trkpt>
      <trkpt lat="48.89126" lon="10.99606">
        <ele>420</ele>
        <time>2022-05-24T10:58:41Z</time>
      </trkpt>
      <trkpt lat="48.89127" lon="10.99629">
        <ele>420</ele>
        <time>2022-05-24T10:58:44Z</time>
      </trkpt>
      <trkpt lat="48.89118" lon="10.99644">
        <ele>424</ele>
        <time>2022-05-24T10:58:46Z</time>
      </trkpt>
      <trkpt lat="48.89114" lon="10.99661">
        <ele>426</ele>
        <time>2022-05-24T10:58:48Z</time>
      </trkpt>
      <trkpt lat="48.8912" lon="10.99721">
        <ele>425</ele>
        <time>2022-05-24T10:58:55Z</time>
      </trkpt>
      <trkpt lat="48.89113" lon="10.99827">
        <ele>428</ele>
        <time>2022-05-24T10:59:08Z</time>
      </trkpt>
      <trkpt lat="48.89115" lon="10.99838">
        <ele>427</ele>
        <time>2022-05-24T10:59:09Z</time>
      </trkpt>
      <trkpt lat="48.89138" lon="10.99865">
        <ele>417</ele>
        <time>2022-05-24T10:59:14Z</time>
      </trkpt>
      <trkpt lat="48.89143" lon="10.99968">
        <ele>417</ele>
        <time>2022-05-24T10:59:26Z</time>
      </trkpt>
      <trkpt lat="48.89152" lon="11.00034">
        <ele>416</ele>
        <time>2022-05-24T10:59:34Z</time>
      </trkpt>
      <trkpt lat="48.89176" lon="11.00146">
        <ele>415</ele>
        <time>2022-05-24T10:59:48Z</time>
      </trkpt>
      <trkpt lat="48.89257" lon="11.00491">
        <ele>405</ele>
        <time>2022-05-24T11:00:31Z</time>
      </trkpt>
      <trkpt lat="48.89282" lon="11.00642">
        <ele>411</ele>
        <time>2022-05-24T11:00:49Z</time>
      </trkpt>
      <trkpt lat="48.89298" lon="11.0071">
        <ele>408</ele>
        <time>2022-05-24T11:00:58Z</time>
      </trkpt>
      <trkpt lat="48.89307" lon="11.00773">
        <ele>407</ele>
        <time>2022-05-24T11:01:05Z</time>
      </trkpt>
      <trkpt lat="48.89315" lon="11.00923">
        <ele>405</ele>
        <time>2022-05-24T11:01:23Z</time>
      </trkpt>
      <trkpt lat="48.8931" lon="11.00977">
        <ele>404</ele>
        <time>2022-05-24T11:01:29Z</time>
      </trkpt>
      <trkpt lat="48.89281" lon="11.01056">
        <ele>406</ele>
        <time>2022-05-24T11:01:40Z</time>
      </trkpt>
      <trkpt lat="48.89153" lon="11.01334">
        <ele>402</ele>
        <time>2022-05-24T11:02:19Z</time>
      </trkpt>
      <trkpt lat="48.89117" lon="11.01406">
        <ele>399</ele>
        <time>2022-05-24T11:02:30Z</time>
      </trkpt>
      <trkpt lat="48.89078" lon="11.01498">
        <ele>396</ele>
        <time>2022-05-24T11:02:43Z</time>
      </trkpt>
      <trkpt lat="48.89021" lon="11.01567">
        <ele>398</ele>
        <time>2022-05-24T11:02:56Z</time>
      </trkpt>
      <trkpt lat="48.88943" lon="11.01623">
        <ele>400</ele>
        <time>2022-05-24T11:03:11Z</time>
      </trkpt>
      <trkpt lat="48.8892" lon="11.01631">
        <ele>401</ele>
        <time>2022-05-24T11:03:15Z</time>
      </trkpt>
      <trkpt lat="48.88866" lon="11.01632">
        <ele>401</ele>
        <time>2022-05-24T11:03:25Z</time>
      </trkpt>
      <trkpt lat="48.88844" lon="11.01641">
        <ele>401</ele>
        <time>2022-05-24T11:03:29Z</time>
      </trkpt>
      <trkpt lat="48.88792" lon="11.01698">
        <ele>402</ele>
        <time>2022-05-24T11:03:40Z</time>
      </trkpt>
      <trkpt lat="48.88746" lon="11.01727">
        <ele>403</ele>
        <time>2022-05-24T11:03:49Z</time>
      </trkpt>
      <trkpt lat="48.88715" lon="11.01751">
        <ele>402</ele>
        <time>2022-05-24T11:03:55Z</time>
      </trkpt>
      <trkpt lat="48.88673" lon="11.01841">
        <ele>401</ele>
        <time>2022-05-24T11:04:08Z</time>
      </trkpt>
      <trkpt lat="48.88634" lon="11.01982">
        <ele>401</ele>
        <time>2022-05-24T11:04:26Z</time>
      </trkpt>
      <trkpt lat="48.88616" lon="11.0212">
        <ele>400</ele>
        <time>2022-05-24T11:04:43Z</time>
      </trkpt>
      <trkpt lat="48.88612" lon="11.02235">
        <ele>401</ele>
        <time>2022-05-24T11:04:56Z</time>
      </trkpt>
      <trkpt lat="48.88626" lon="11.02539">
        <ele>412</ele>
        <time>2022-05-24T11:05:32Z</time>
      </trkpt>
      <trkpt lat="48.88635" lon="11.02586">
        <ele>412</ele>
        <time>2022-05-24T11:05:38Z</time>
      </trkpt>
      <trkpt lat="48.88662" lon="11.02664">
        <ele>407</ele>
        <time>2022-05-24T11:05:48Z</time>
      </trkpt>
      <trkpt lat="48.88672" lon="11.02708">
        <ele>405</ele>
        <time>2022-05-24T11:05:53Z</time>
      </trkpt>
      <trkpt lat="48.88673" lon="11.02746">
        <ele>405</ele>
        <time>2022-05-24T11:05:58Z</time>
      </trkpt>
      <trkpt lat="48.88639" lon="11.02936">
        <ele>403</ele>
        <time>2022-05-24T11:06:21Z</time>
      </trkpt>
      <trkpt lat="48.88647" lon="11.03146">
        <ele>401</ele>
        <time>2022-05-24T11:06:45Z</time>
      </trkpt>
      <trkpt lat="48.88645" lon="11.0316">
        <ele>401</ele>
        <time>2022-05-24T11:06:47Z</time>
      </trkpt>
      <trkpt lat="48.88638" lon="11.03169">
        <ele>400</ele>
        <time>2022-05-24T11:06:49Z</time>
      </trkpt>
      <trkpt lat="48.88624" lon="11.03174">
        <ele>400</ele>
        <time>2022-05-24T11:06:51Z</time>
      </trkpt>
      <trkpt lat="48.88614" lon="11.03156">
        <ele>400</ele>
        <time>2022-05-24T11:06:54Z</time>
      </trkpt>
      <trkpt lat="48.88605" lon="11.0298">
        <ele>403</ele>
        <time>2022-05-24T11:07:15Z</time>
      </trkpt>
      <trkpt lat="48.886" lon="11.02969">
        <ele>404</ele>
        <time>2022-05-24T11:07:16Z</time>
      </trkpt>
      <trkpt lat="48.88567" lon="11.02958">
        <ele>411</ele>
        <time>2022-05-24T11:07:22Z</time>
      </trkpt>
      <trkpt lat="48.88549" lon="11.02962">
        <ele>415</ele>
        <time>2022-05-24T11:07:26Z</time>
      </trkpt>
      <trkpt lat="48.88489" lon="11.03045">
        <ele>412</ele>
        <time>2022-05-24T11:07:40Z</time>
      </trkpt>
      <trkpt lat="48.88379" lon="11.03092">
        <ele>414</ele>
        <time>2022-05-24T11:08:00Z</time>
      </trkpt>
      <trkpt lat="48.88262" lon="11.03121">
        <ele>413</ele>
        <time>2022-05-24T11:08:21Z</time>
      </trkpt>
      <trkpt lat="48.88096" lon="11.03136">
        <ele>408</ele>
        <time>2022-05-24T11:08:51Z</time>
      </trkpt>
      <trkpt lat="48.88042" lon="11.03151">
        <ele>403</ele>
        <time>2022-05-24T11:09:01Z</time>
      </trkpt>
      <trkpt lat="48.88034" lon="11.0315">
        <ele>403</ele>
        <time>2022-05-24T11:09:02Z</time>
      </trkpt>
      <trkpt lat="48.88022" lon="11.03133">
        <ele>404</ele>
        <time>2022-05-24T11:09:05Z</time>
      </trkpt>
      <trkpt lat="48.87995" lon="11.03028">
        <ele>410</ele>
        <time>2022-05-24T11:09:18Z</time>
      </trkpt>
      <trkpt lat="48.87981" lon="11.02902">
        <ele>414</ele>
        <time>2022-05-24T11:09:33Z</time>
      </trkpt>
      <trkpt lat="48.87965" lon="11.0282">
        <ele>413</ele>
        <time>2022-05-24T11:09:43Z</time>
      </trkpt>
      <trkpt lat="48.87958" lon="11.02732">
        <ele>415</ele>
        <time>2022-05-24T11:09:54Z</time>
      </trkpt>
      <trkpt lat="48.87947" lon="11.02676">
        <ele>412</ele>
        <time>2022-05-24T11:10:00Z</time>
      </trkpt>
      <trkpt lat="48.87914" lon="11.0254">
        <ele>412</ele>
        <time>2022-05-24T11:10:17Z</time>
      </trkpt>
      <trkpt lat="48.87893" lon="11.02487">
        <ele>412</ele>
        <time>2022-05-24T11:10:25Z</time>
      </trkpt>
      <trkpt lat="48.8785" lon="11.02398">
        <ele>412</ele>
        <time>2022-05-24T11:10:38Z</time>
      </trkpt>
      <trkpt lat="48.87819" lon="11.02352">
        <ele>412</ele>
        <time>2022-05-24T11:10:45Z</time>
      </trkpt>
      <trkpt lat="48.87782" lon="11.02327">
        <ele>411</ele>
        <time>2022-05-24T11:10:53Z</time>
      </trkpt>
      <trkpt lat="48.87701" lon="11.023">
        <ele>407</ele>
        <time>2022-05-24T11:11:07Z</time>
      </trkpt>
      <trkpt lat="48.87613" lon="11.02235">
        <ele>413</ele>
        <time>2022-05-24T11:11:25Z</time>
      </trkpt>
      <trkpt lat="48.87597" lon="11.02233">
        <ele>412</ele>
        <time>2022-05-24T11:11:28Z</time>
      </trkpt>
      <trkpt lat="48.87473" lon="11.0225">
        <ele>404</ele>
        <time>2022-05-24T11:11:50Z</time>
      </trkpt>
      <trkpt lat="48.87365" lon="11.0226">
        <ele>402</ele>
        <time>2022-05-24T11:12:09Z</time>
      </trkpt>
      <trkpt lat="48.87331" lon="11.02239">
        <ele>402</ele>
        <time>2022-05-24T11:12:15Z</time>
      </trkpt>
      <trkpt lat="48.87321" lon="11.02223">
        <ele>403</ele>
        <time>2022-05-24T11:12:18Z</time>
      </trkpt>
      <trkpt lat="48.87314" lon="11.02192">
        <ele>404</ele>
        <time>2022-05-24T11:12:22Z</time>
      </trkpt>
      <trkpt lat="48.87299" lon="11.02187">
        <ele>403</ele>
        <time>2022-05-24T11:12:25Z</time>
      </trkpt>
      <trkpt lat="48.87271" lon="11.02188">
        <ele>402</ele>
        <time>2022-05-24T11:12:30Z</time>
      </trkpt>
      <trkpt lat="48.87248" lon="11.02042">
        <ele>402</ele>
        <time>2022-05-24T11:12:47Z</time>
      </trkpt>
      <trkpt lat="48.87233" lon="11.01883">
        <ele>405</ele>
        <time>2022-05-24T11:13:06Z</time>
      </trkpt>
      <trkpt lat="48.87204" lon="11.01794">
        <ele>412</ele>
        <time>2022-05-24T11:13:18Z</time>
      </trkpt>
      <trkpt lat="48.87202" lon="11.01817">
        <ele>415</ele>
        <time>2022-05-24T11:13:20Z</time>
      </trkpt>
      <trkpt lat="48.87169" lon="11.0171">
        <ele>412</ele>
        <time>2022-05-24T11:13:34Z</time>
      </trkpt>
      <trkpt lat="48.87149" lon="11.01616">
        <ele>412</ele>
        <time>2022-05-24T11:13:46Z</time>
      </trkpt>
      <trkpt lat="48.8712" lon="11.01445">
        <ele>414</ele>
        <time>2022-05-24T11:14:06Z</time>
      </trkpt>
      <trkpt lat="48.8703" lon="11.01164">
        <ele>409</ele>
        <time>2022-05-24T11:14:43Z</time>
      </trkpt>
      <trkpt lat="48.87028" lon="11.01137">
        <ele>409</ele>
        <time>2022-05-24T11:14:46Z</time>
      </trkpt>
      <trkpt lat="48.87021" lon="11.01123">
        <ele>410</ele>
        <time>2022-05-24T11:14:48Z</time>
      </trkpt>
      <trkpt lat="48.87008" lon="11.0108">
        <ele>411</ele>
        <time>2022-05-24T11:14:54Z</time>
      </trkpt>
      <trkpt lat="48.87021" lon="11.01123">
        <ele>410</ele>
        <time>2022-05-24T11:14:59Z</time>
      </trkpt>
      <trkpt lat="48.87028" lon="11.01137">
        <ele>409</ele>
        <time>2022-05-24T11:15:01Z</time>
      </trkpt>
      <trkpt lat="48.8703" lon="11.01164">
        <ele>409</ele>
        <time>2022-05-24T11:15:05Z</time>
      </trkpt>
      <trkpt lat="48.8712" lon="11.01445">
        <ele>414</ele>
        <time>2022-05-24T11:15:41Z</time>
      </trkpt>
      <trkpt lat="48.87149" lon="11.01616">
        <ele>412</ele>
        <time>2022-05-24T11:16:02Z</time>
      </trkpt>
      <trkpt lat="48.87169" lon="11.0171">
        <ele>412</ele>
        <time>2022-05-24T11:16:13Z</time>
      </trkpt>
      <trkpt lat="48.87202" lon="11.01817">
        <ele>415</ele>
        <time>2022-05-24T11:16:27Z</time>
      </trkpt>
      <trkpt lat="48.87202" lon="11.0193">
        <ele>416</ele>
        <time>2022-05-24T11:16:40Z</time>
      </trkpt>
      <trkpt lat="48.87198" lon="11.01949">
        <ele>417</ele>
        <time>2022-05-24T11:16:43Z</time>
      </trkpt>
      <trkpt lat="48.87161" lon="11.02039">
        <ele>423</ele>
        <time>2022-05-24T11:16:55Z</time>
      </trkpt>
      <trkpt lat="48.87148" lon="11.02109">
        <ele>421</ele>
        <time>2022-05-24T11:17:04Z</time>
      </trkpt>
      <trkpt lat="48.87152" lon="11.02147">
        <ele>419</ele>
        <time>2022-05-24T11:17:08Z</time>
      </trkpt>
      <trkpt lat="48.87148" lon="11.02197">
        <ele>419</ele>
        <time>2022-05-24T11:17:14Z</time>
      </trkpt>
      <trkpt lat="48.87154" lon="11.02252">
        <ele>416</ele>
        <time>2022-05-24T11:17:21Z</time>
      </trkpt>
      <trkpt lat="48.87227" lon="11.02427">
        <ele>415</ele>
        <time>2022-05-24T11:17:45Z</time>
      </trkpt>
      <trkpt lat="48.87239" lon="11.02449">
        <ele>412</ele>
        <time>2022-05-24T11:17:48Z</time>
      </trkpt>
      <trkpt lat="48.8725" lon="11.02439">
        <ele>406</ele>
        <time>2022-05-24T11:17:50Z</time>
      </trkpt>
      <trkpt lat="48.87261" lon="11.02443">
        <ele>405</ele>
        <time>2022-05-24T11:17:52Z</time>
      </trkpt>
      <trkpt lat="48.87291" lon="11.02431">
        <ele>403</ele>
        <time>2022-05-24T11:17:58Z</time>
      </trkpt>
      <trkpt lat="48.87355" lon="11.02433">
        <ele>400</ele>
        <time>2022-05-24T11:18:09Z</time>
      </trkpt>
      <trkpt lat="48.87423" lon="11.02441">
        <ele>400</ele>
        <time>2022-05-24T11:18:21Z</time>
      </trkpt>
      <trkpt lat="48.87401" lon="11.02875">
        <ele>398</ele>
        <time>2022-05-24T11:19:12Z</time>
      </trkpt>
      <trkpt lat="48.8741" lon="11.02957">
        <ele>398</ele>
        <time>2022-05-24T11:19:22Z</time>
      </trkpt>
      <trkpt lat="48.87426" lon="11.03043">
        <ele>404</ele>
        <time>2022-05-24T11:19:33Z</time>
      </trkpt>
      <trkpt lat="48.87423" lon="11.0307">
        <ele>406</ele>
        <time>2022-05-24T11:19:36Z</time>
      </trkpt>
      <trkpt lat="48.87379" lon="11.03144">
        <ele>410</ele>
        <time>2022-05-24T11:19:47Z</time>
      </trkpt>
      <trkpt lat="48.87228" lon="11.03458">
        <ele>412</ele>
        <time>2022-05-24T11:20:33Z</time>
      </trkpt>
      <trkpt lat="48.87204" lon="11.03492">
        <ele>410</ele>
        <time>2022-05-24T11:20:39Z</time>
      </trkpt>
      <trkpt lat="48.8712" lon="11.03577">
        <ele>407</ele>
        <time>2022-05-24T11:20:57Z</time>
      </trkpt>
      <trkpt lat="48.87079" lon="11.03631">
        <ele>402</ele>
        <time>2022-05-24T11:21:06Z</time>
      </trkpt>
      <trkpt lat="48.87079" lon="11.03653">
        <ele>403</ele>
        <time>2022-05-24T11:21:09Z</time>
      </trkpt>
      <trkpt lat="48.87111" lon="11.0369">
        <ele>406</ele>
        <time>2022-05-24T11:21:16Z</time>
      </trkpt>
      <trkpt lat="48.87159" lon="11.03779">
        <ele>406</ele>
        <time>2022-05-24T11:21:30Z</time>
      </trkpt>
      <trkpt lat="48.87241" lon="11.03851">
        <ele>408</ele>
        <time>2022-05-24T11:21:47Z</time>
      </trkpt>
      <trkpt lat="48.87307" lon="11.03888">
        <ele>408</ele>
        <time>2022-05-24T11:21:59Z</time>
      </trkpt>
      <trkpt lat="48.8733" lon="11.03895">
        <ele>408</ele>
        <time>2022-05-24T11:22:03Z</time>
      </trkpt>
      <trkpt lat="48.8741" lon="11.03891">
        <ele>408</ele>
        <time>2022-05-24T11:22:17Z</time>
      </trkpt>
      <trkpt lat="48.87511" lon="11.03863">
        <ele>415</ele>
        <time>2022-05-24T11:22:36Z</time>
      </trkpt>
      <trkpt lat="48.87561" lon="11.03857">
        <ele>417</ele>
        <time>2022-05-24T11:22:45Z</time>
      </trkpt>
      <trkpt lat="48.87624" lon="11.03863">
        <ele>417</ele>
        <time>2022-05-24T11:22:56Z</time>
      </trkpt>
      <trkpt lat="48.878" lon="11.03856">
        <ele>415</ele>
        <time>2022-05-24T11:23:27Z</time>
      </trkpt>
      <trkpt lat="48.8794" lon="11.03881">
        <ele>413</ele>
        <time>2022-05-24T11:23:52Z</time>
      </trkpt>
      <trkpt lat="48.88005" lon="11.03885">
        <ele>416</ele>
        <time>2022-05-24T11:24:04Z</time>
      </trkpt>
      <trkpt lat="48.88115" lon="11.0392">
        <ele>418</ele>
        <time>2022-05-24T11:24:24Z</time>
      </trkpt>
      <trkpt lat="48.88244" lon="11.03952">
        <ele>422</ele>
        <time>2022-05-24T11:24:47Z</time>
      </trkpt>
      <trkpt lat="48.88434" lon="11.04027">
        <ele>419</ele>
        <time>2022-05-24T11:25:22Z</time>
      </trkpt>
      <trkpt lat="48.88478" lon="11.04059">
        <ele>413</ele>
        <time>2022-05-24T11:25:31Z</time>
      </trkpt>
      <trkpt lat="48.88542" lon="11.04119">
        <ele>413</ele>
        <time>2022-05-24T11:25:44Z</time>
      </trkpt>
      <trkpt lat="48.88618" lon="11.04156">
        <ele>423</ele>
        <time>2022-05-24T11:25:58Z</time>
      </trkpt>
      <trkpt lat="48.88627" lon="11.04169">
        <ele>423</ele>
        <time>2022-05-24T11:26:00Z</time>
      </trkpt>
      <trkpt lat="48.88674" lon="11.04179">
        <ele>434</ele>
        <time>2022-05-24T11:26:09Z</time>
      </trkpt>
      <trkpt lat="48.88696" lon="11.04265">
        <ele>423</ele>
        <time>2022-05-24T11:26:20Z</time>
      </trkpt>
      <trkpt lat="48.88732" lon="11.04358">
        <ele>418</ele>
        <time>2022-05-24T11:26:32Z</time>
      </trkpt>
      <trkpt lat="48.88693" lon="11.04411">
        <ele>403</ele>
        <time>2022-05-24T11:26:42Z</time>
      </trkpt>
      <trkpt lat="48.88684" lon="11.04437">
        <ele>400</ele>
        <time>2022-05-24T11:26:45Z</time>
      </trkpt>
      <trkpt lat="48.88685" lon="11.04489">
        <ele>398</ele>
        <time>2022-05-24T11:26:51Z</time>
      </trkpt>
      <trkpt lat="48.88703" lon="11.04542">
        <ele>398</ele>
        <time>2022-05-24T11:26:58Z</time>
      </trkpt>
      <trkpt lat="48.88703" lon="11.04571">
        <ele>398</ele>
        <time>2022-05-24T11:27:02Z</time>
      </trkpt>
      <trkpt lat="48.88693" lon="11.04594">
        <ele>397</ele>
        <time>2022-05-24T11:27:05Z</time>
      </trkpt>
      <trkpt lat="48.88687" lon="11.04686">
        <ele>397</ele>
        <time>2022-05-24T11:27:16Z</time>
      </trkpt>
      <trkpt lat="48.88673" lon="11.04805">
        <ele>396</ele>
        <time>2022-05-24T11:27:30Z</time>
      </trkpt>
      <trkpt lat="48.88622" lon="11.05014">
        <ele>397</ele>
        <time>2022-05-24T11:27:56Z</time>
      </trkpt>
      <trkpt lat="48.88619" lon="11.05022">
        <ele>398</ele>
        <time>2022-05-24T11:27:57Z</time>
      </trkpt>
      <trkpt lat="48.88596" lon="11.05053">
        <ele>399</ele>
        <time>2022-05-24T11:28:02Z</time>
      </trkpt>
      <trkpt lat="48.88568" lon="11.05113">
        <ele>400</ele>
        <time>2022-05-24T11:28:11Z</time>
      </trkpt>
      <trkpt lat="48.88567" lon="11.05134">
        <ele>399</ele>
        <time>2022-05-24T11:28:13Z</time>
      </trkpt>
      <trkpt lat="48.88573" lon="11.05153">
        <ele>400</ele>
        <time>2022-05-24T11:28:16Z</time>
      </trkpt>
      <trkpt lat="48.88548" lon="11.05219">
        <ele>400</ele>
        <time>2022-05-24T11:28:25Z</time>
      </trkpt>
      <trkpt lat="48.88535" lon="11.05241">
        <ele>400</ele>
        <time>2022-05-24T11:28:28Z</time>
      </trkpt>
      <trkpt lat="48.88492" lon="11.05262">
        <ele>401</ele>
        <time>2022-05-24T11:28:36Z</time>
      </trkpt>
      <trkpt lat="48.88453" lon="11.05265">
        <ele>400</ele>
        <time>2022-05-24T11:28:43Z</time>
      </trkpt>
      <trkpt lat="48.884" lon="11.05297">
        <ele>400</ele>
        <time>2022-05-24T11:28:53Z</time>
      </trkpt>
      <trkpt lat="48.88385" lon="11.05297">
        <ele>399</ele>
        <time>2022-05-24T11:28:56Z</time>
      </trkpt>
      <trkpt lat="48.88355" lon="11.05273">
        <ele>397</ele>
        <time>2022-05-24T11:29:02Z</time>
      </trkpt>
      <trkpt lat="48.88257" lon="11.05444">
        <ele>398</ele>
        <time>2022-05-24T11:29:29Z</time>
      </trkpt>
      <trkpt lat="48.882" lon="11.05672">
        <ele>402</ele>
        <time>2022-05-24T11:29:57Z</time>
      </trkpt>
      <trkpt lat="48.88065" lon="11.05897">
        <ele>397</ele>
        <time>2022-05-24T11:30:33Z</time>
      </trkpt>
      <trkpt lat="48.88057" lon="11.05903">
        <ele>397</ele>
        <time>2022-05-24T11:30:34Z</time>
      </trkpt>
      <trkpt lat="48.88033" lon="11.05954">
        <ele>398</ele>
        <time>2022-05-24T11:30:42Z</time>
      </trkpt>
      <trkpt lat="48.87936" lon="11.06105">
        <ele>398</ele>
        <time>2022-05-24T11:31:06Z</time>
      </trkpt>
      <trkpt lat="48.87861" lon="11.06234">
        <ele>402</ele>
        <time>2022-05-24T11:31:27Z</time>
      </trkpt>
      <trkpt lat="48.87839" lon="11.0625">
        <ele>402</ele>
        <time>2022-05-24T11:31:31Z</time>
      </trkpt>
      <trkpt lat="48.87735" lon="11.06272">
        <ele>400</ele>
        <time>2022-05-24T11:31:50Z</time>
      </trkpt>
      <trkpt lat="48.87721" lon="11.06283">
        <ele>400</ele>
        <time>2022-05-24T11:31:52Z</time>
      </trkpt>
      <trkpt lat="48.87707" lon="11.06312">
        <ele>401</ele>
        <time>2022-05-24T11:31:57Z</time>
      </trkpt>
      <trkpt lat="48.87634" lon="11.06504">
        <ele>398</ele>
        <time>2022-05-24T11:32:23Z</time>
      </trkpt>
      <trkpt lat="48.87614" lon="11.06644">
        <ele>399</ele>
        <time>2022-05-24T11:32:39Z</time>
      </trkpt>
      <trkpt lat="48.87474" lon="11.06866">
        <ele>401</ele>
        <time>2022-05-24T11:33:15Z</time>
      </trkpt>
      <trkpt lat="48.87467" lon="11.06895">
        <ele>403</ele>
        <time>2022-05-24T11:33:19Z</time>
      </trkpt>
      <trkpt lat="48.87476" lon="11.06936">
        <ele>400</ele>
        <time>2022-05-24T11:33:24Z</time>
      </trkpt>
      <trkpt lat="48.87498" lon="11.0716">
        <ele>395</ele>
        <time>2022-05-24T11:33:51Z</time>
      </trkpt>
      <trkpt lat="48.87512" lon="11.07186">
        <ele>395</ele>
        <time>2022-05-24T11:33:54Z</time>
      </trkpt>
      <trkpt lat="48.87498" lon="11.07271">
        <ele>397</ele>
        <time>2022-05-24T11:34:05Z</time>
      </trkpt>
      <trkpt lat="48.87498" lon="11.07317">
        <ele>397</ele>
        <time>2022-05-24T11:34:10Z</time>
      </trkpt>
      <trkpt lat="48.87503" lon="11.07338">
        <ele>397</ele>
        <time>2022-05-24T11:34:13Z</time>
      </trkpt>
      <trkpt lat="48.87521" lon="11.07357">
        <ele>397</ele>
        <time>2022-05-24T11:34:17Z</time>
      </trkpt>
      <trkpt lat="48.87544" lon="11.07375">
        <ele>397</ele>
        <time>2022-05-24T11:34:21Z</time>
      </trkpt>
      <trkpt lat="48.8754" lon="11.07396">
        <ele>397</ele>
        <time>2022-05-24T11:34:24Z</time>
      </trkpt>
      <trkpt lat="48.87544" lon="11.07436">
        <ele>398</ele>
        <time>2022-05-24T11:34:29Z</time>
      </trkpt>
      <trkpt lat="48.87612" lon="11.07455">
        <ele>399</ele>
        <time>2022-05-24T11:34:41Z</time>
      </trkpt>
      <trkpt lat="48.87672" lon="11.07499">
        <ele>400</ele>
        <time>2022-05-24T11:34:53Z</time>
      </trkpt>
      <trkpt lat="48.87681" lon="11.07498">
        <ele>399</ele>
        <time>2022-05-24T11:34:54Z</time>
      </trkpt>
      <trkpt lat="48.87703" lon="11.07469">
        <ele>398</ele>
        <time>2022-05-24T11:34:59Z</time>
      </trkpt>
      <trkpt lat="48.87722" lon="11.07457">
        <ele>397</ele>
        <time>2022-05-24T11:35:03Z</time>
      </trkpt>
      <trkpt lat="48.8773" lon="11.07447">
        <ele>397</ele>
        <time>2022-05-24T11:35:05Z</time>
      </trkpt>
      <trkpt lat="48.87736" lon="11.07493">
        <ele>397</ele>
        <time>2022-05-24T11:35:10Z</time>
      </trkpt>
      <trkpt lat="48.87737" lon="11.07568">
        <ele>397</ele>
        <time>2022-05-24T11:35:19Z</time>
      </trkpt>
      <trkpt lat="48.87708" lon="11.07635">
        <ele>398</ele>
        <time>2022-05-24T11:35:29Z</time>
      </trkpt>
      <trkpt lat="48.87703" lon="11.07656">
        <ele>398</ele>
        <time>2022-05-24T11:35:31Z</time>
      </trkpt>
      <trkpt lat="48.87701" lon="11.07714">
        <ele>397</ele>
        <time>2022-05-24T11:35:38Z</time>
      </trkpt>
      <trkpt lat="48.87702" lon="11.07924">
        <ele>396</ele>
        <time>2022-05-24T11:36:03Z</time>
      </trkpt>
      <trkpt lat="48.87696" lon="11.07985">
        <ele>399</ele>
        <time>2022-05-24T11:36:10Z</time>
      </trkpt>
      <trkpt lat="48.87682" lon="11.08017">
        <ele>403</ele>
        <time>2022-05-24T11:36:14Z</time>
      </trkpt>
      <trkpt lat="48.87626" lon="11.08084">
        <ele>407</ele>
        <time>2022-05-24T11:36:27Z</time>
      </trkpt>
      <trkpt lat="48.87589" lon="11.0814">
        <ele>405</ele>
        <time>2022-05-24T11:36:36Z</time>
      </trkpt>
      <trkpt lat="48.87542" lon="11.08228">
        <ele>404</ele>
        <time>2022-05-24T11:36:50Z</time>
      </trkpt>
      <trkpt lat="48.87513" lon="11.08327">
        <ele>404</ele>
        <time>2022-05-24T11:37:02Z</time>
      </trkpt>
      <trkpt lat="48.87455" lon="11.08454">
        <ele>405</ele>
        <time>2022-05-24T11:37:20Z</time>
      </trkpt>
      <trkpt lat="48.87382" lon="11.08564">
        <ele>401</ele>
        <time>2022-05-24T11:37:39Z</time>
      </trkpt>
      <trkpt lat="48.87334" lon="11.08657">
        <ele>400</ele>
        <time>2022-05-24T11:37:52Z</time>
      </trkpt>
      <trkpt lat="48.8726" lon="11.0878">
        <ele>398</ele>
        <time>2022-05-24T11:38:12Z</time>
      </trkpt>
      <trkpt lat="48.86996" lon="11.09171">
        <ele>397</ele>
        <time>2022-05-24T11:39:18Z</time>
      </trkpt>
      <trkpt lat="48.8695" lon="11.09224">
        <ele>398</ele>
        <time>2022-05-24T11:39:28Z</time>
      </trkpt>
      <trkpt lat="48.86818" lon="11.09319">
        <ele>401</ele>
        <time>2022-05-24T11:39:54Z</time>
      </trkpt>
      <trkpt lat="48.868" lon="11.09325">
        <ele>401</ele>
        <time>2022-05-24T11:39:57Z</time>
      </trkpt>
      <trkpt lat="48.86774" lon="11.09313">
        <ele>399</ele>
        <time>2022-05-24T11:40:02Z</time>
      </trkpt>
      <trkpt lat="48.86748" lon="11.09325">
        <ele>399</ele>
        <time>2022-05-24T11:40:07Z</time>
      </trkpt>
      <trkpt lat="48.8672" lon="11.09347">
        <ele>399</ele>
        <time>2022-05-24T11:40:12Z</time>
      </trkpt>
      <trkpt lat="48.86703" lon="11.09383">
        <ele>399</ele>
        <time>2022-05-24T11:40:18Z</time>
      </trkpt>
      <trkpt lat="48.86705" lon="11.09487">
        <ele>402</ele>
        <time>2022-05-24T11:40:30Z</time>
      </trkpt>
      <trkpt lat="48.86712" lon="11.0957">
        <ele>401</ele>
        <time>2022-05-24T11:40:39Z</time>
      </trkpt>
      <trkpt lat="48.86744" lon="11.09667">
        <ele>396</ele>
        <time>2022-05-24T11:40:52Z</time>
      </trkpt>
      <trkpt lat="48.86807" lon="11.09808">
        <ele>395</ele>
        <time>2022-05-24T11:41:12Z</time>
      </trkpt>
      <trkpt lat="48.86884" lon="11.09892">
        <ele>393</ele>
        <time>2022-05-24T11:41:29Z</time>
      </trkpt>
      <trkpt lat="48.86938" lon="11.0994">
        <ele>393</ele>
        <time>2022-05-24T11:41:40Z</time>
      </trkpt>
      <trkpt lat="48.86969" lon="11.09978">
        <ele>392</ele>
        <time>2022-05-24T11:41:47Z</time>
      </trkpt>
      <trkpt lat="48.87029" lon="11.10027">
        <ele>392</ele>
        <time>2022-05-24T11:41:59Z</time>
      </trkpt>
      <trkpt lat="48.87045" lon="11.10039">
        <ele>392</ele>
        <time>2022-05-24T11:42:03Z</time>
      </trkpt>
      <trkpt lat="48.87174" lon="11.10094">
        <ele>393</ele>
        <time>2022-05-24T11:42:26Z</time>
      </trkpt>
      <trkpt lat="48.87184" lon="11.10153">
        <ele>393</ele>
        <time>2022-05-24T11:42:33Z</time>
      </trkpt>
      <trkpt lat="48.87195" lon="11.10124">
        <ele>393</ele>
        <time>2022-05-24T11:42:37Z</time>
      </trkpt>
      <trkpt lat="48.87208" lon="11.10113">
        <ele>393</ele>
        <time>2022-05-24T11:42:40Z</time>
      </trkpt>
      <trkpt lat="48.873" lon="11.10076">
        <ele>393</ele>
        <time>2022-05-24T11:42:57Z</time>
      </trkpt>
      <trkpt lat="48.87374" lon="11.10027">
        <ele>394</ele>
        <time>2022-05-24T11:43:11Z</time>
      </trkpt>
      <trkpt lat="48.87434" lon="11.10014">
        <ele>395</ele>
        <time>2022-05-24T11:43:22Z</time>
      </trkpt>
      <trkpt lat="48.87543" lon="11.09963">
        <ele>401</ele>
        <time>2022-05-24T11:43:42Z</time>
      </trkpt>
      <trkpt lat="48.87612" lon="11.09967">
        <ele>400</ele>
        <time>2022-05-24T11:43:55Z</time>
      </trkpt>
      <trkpt lat="48.87693" lon="11.09944">
        <ele>400</ele>
        <time>2022-05-24T11:44:09Z</time>
      </trkpt>
      <trkpt lat="48.87915" lon="11.09947">
        <ele>409</ele>
        <time>2022-05-24T11:44:49Z</time>
      </trkpt>
      <trkpt lat="48.88137" lon="11.09896">
        <ele>412</ele>
        <time>2022-05-24T11:45:29Z</time>
      </trkpt>
      <trkpt lat="48.8832" lon="11.09906">
        <ele>407</ele>
        <time>2022-05-24T11:46:01Z</time>
      </trkpt>
      <trkpt lat="48.88379" lon="11.09899">
        <ele>405</ele>
        <time>2022-05-24T11:46:12Z</time>
      </trkpt>
      <trkpt lat="48.88412" lon="11.09903">
        <ele>401</ele>
        <time>2022-05-24T11:46:18Z</time>
      </trkpt>
      <trkpt lat="48.88426" lon="11.09911">
        <ele>397</ele>
        <time>2022-05-24T11:46:20Z</time>
      </trkpt>
      <trkpt lat="48.88426" lon="11.09917">
        <ele>395</ele>
        <time>2022-05-24T11:46:21Z</time>
      </trkpt>
      <trkpt lat="48.884" lon="11.10085">
        <ele>392</ele>
        <time>2022-05-24T11:46:41Z</time>
      </trkpt>
      <trkpt lat="48.88767" lon="11.10266">
        <ele>391</ele>
        <time>2022-05-24T11:47:50Z</time>
      </trkpt>
      <trkpt lat="48.88922" lon="11.10307">
        <ele>391</ele>
        <time>2022-05-24T11:48:18Z</time>
      </trkpt>
      <trkpt lat="48.8904" lon="11.10372">
        <ele>391</ele>
        <time>2022-05-24T11:48:40Z</time>
      </trkpt>
      <trkpt lat="48.89061" lon="11.10389">
        <ele>391</ele>
        <time>2022-05-24T11:48:45Z</time>
      </trkpt>
      <trkpt lat="48.89214" lon="11.10581">
        <ele>392</ele>
        <time>2022-05-24T11:49:20Z</time>
      </trkpt>
      <trkpt lat="48.89326" lon="11.10551">
        <ele>393</ele>
        <time>2022-05-24T11:49:40Z</time>
      </trkpt>
      <trkpt lat="48.89373" lon="11.10551">
        <ele>396</ele>
        <time>2022-05-24T11:49:48Z</time>
      </trkpt>
      <trkpt lat="48.89363" lon="11.10606">
        <ele>395</ele>
        <time>2022-05-24T11:49:55Z</time>
      </trkpt>
      <trkpt lat="48.89366" lon="11.10662">
        <ele>395</ele>
        <time>2022-05-24T11:50:02Z</time>
      </trkpt>
      <trkpt lat="48.89372" lon="11.10705">
        <ele>394</ele>
        <time>2022-05-24T11:50:07Z</time>
      </trkpt>
      <trkpt lat="48.89394" lon="11.10771">
        <ele>393</ele>
        <time>2022-05-24T11:50:16Z</time>
      </trkpt>
      <trkpt lat="48.89417" lon="11.10892">
        <ele>392</ele>
        <time>2022-05-24T11:50:30Z</time>
      </trkpt>
      <trkpt lat="48.89466" lon="11.11346">
        <ele>391</ele>
        <time>2022-05-24T11:51:24Z</time>
      </trkpt>
      <trkpt lat="48.89488" lon="11.11667">
        <ele>391</ele>
        <time>2022-05-24T11:52:02Z</time>
      </trkpt>
      <trkpt lat="48.89479" lon="11.11844">
        <ele>389</ele>
        <time>2022-05-24T11:52:23Z</time>
      </trkpt>
      <trkpt lat="48.89488" lon="11.11966">
        <ele>391</ele>
        <time>2022-05-24T11:52:37Z</time>
      </trkpt>
      <trkpt lat="48.89501" lon="11.12024">
        <ele>391</ele>
        <time>2022-05-24T11:52:44Z</time>
      </trkpt>
      <trkpt lat="48.89541" lon="11.12137">
        <ele>392</ele>
        <time>2022-05-24T11:52:59Z</time>
      </trkpt>
      <trkpt lat="48.89564" lon="11.12282">
        <ele>391</ele>
        <time>2022-05-24T11:53:17Z</time>
      </trkpt>
      <trkpt lat="48.89577" lon="11.12337">
        <ele>391</ele>
        <time>2022-05-24T11:53:23Z</time>
      </trkpt>
      <trkpt lat="48.89599" lon="11.12414">
        <ele>398</ele>
        <time>2022-05-24T11:53:33Z</time>
      </trkpt>
      <trkpt lat="48.89605" lon="11.12474">
        <ele>400</ele>
        <time>2022-05-24T11:53:40Z</time>
      </trkpt>
      <trkpt lat="48.89597" lon="11.12516">
        <ele>399</ele>
        <time>2022-05-24T11:53:45Z</time>
      </trkpt>
      <trkpt lat="48.89526" lon="11.12781">
        <ele>398</ele>
        <time>2022-05-24T11:54:19Z</time>
      </trkpt>
      <trkpt lat="48.89515" lon="11.12888">
        <ele>402</ele>
        <time>2022-05-24T11:54:32Z</time>
      </trkpt>
      <trkpt lat="48.89516" lon="11.12925">
        <ele>405</ele>
        <time>2022-05-24T11:54:36Z</time>
      </trkpt>
      <trkpt lat="48.89447" lon="11.1316">
        <ele>403</ele>
        <time>2022-05-24T11:55:06Z</time>
      </trkpt>
      <trkpt lat="48.89385" lon="11.1329">
        <ele>401</ele>
        <time>2022-05-24T11:55:25Z</time>
      </trkpt>
      <trkpt lat="48.89357" lon="11.1336">
        <ele>401</ele>
        <time>2022-05-24T11:55:34Z</time>
      </trkpt>
      <trkpt lat="48.89348" lon="11.13423">
        <ele>401</ele>
        <time>2022-05-24T11:55:42Z</time>
      </trkpt>
      <trkpt lat="48.89249" lon="11.13476">
        <ele>395</ele>
        <time>2022-05-24T11:56:01Z</time>
      </trkpt>
      <trkpt lat="48.89191" lon="11.13538">
        <ele>396</ele>
        <time>2022-05-24T11:56:13Z</time>
      </trkpt>
      <trkpt lat="48.89149" lon="11.13595">
        <ele>395</ele>
        <time>2022-05-24T11:56:23Z</time>
      </trkpt>
      <trkpt lat="48.89027" lon="11.13781">
        <ele>397</ele>
        <time>2022-05-24T11:56:54Z</time>
      </trkpt>
      <trkpt lat="48.89012" lon="11.13815">
        <ele>397</ele>
        <time>2022-05-24T11:56:59Z</time>
      </trkpt>
      <trkpt lat="48.88988" lon="11.13832">
        <ele>396</ele>
        <time>2022-05-24T11:57:03Z</time>
      </trkpt>
      <trkpt lat="48.88983" lon="11.13855">
        <ele>398</ele>
        <time>2022-05-24T11:57:06Z</time>
      </trkpt>
      <trkpt lat="48.88968" lon="11.13871">
        <ele>398</ele>
        <time>2022-05-24T11:57:10Z</time>
      </trkpt>
      <trkpt lat="48.88959" lon="11.13892">
        <ele>399</ele>
        <time>2022-05-24T11:57:13Z</time>
      </trkpt>
      <trkpt lat="48.88888" lon="11.13935">
        <ele>394</ele>
        <time>2022-05-24T11:57:26Z</time>
      </trkpt>
      <trkpt lat="48.88771" lon="11.1402">
        <ele>393</ele>
        <time>2022-05-24T11:57:49Z</time>
      </trkpt>
      <trkpt lat="48.88746" lon="11.14027">
        <ele>392</ele>
        <time>2022-05-24T11:57:54Z</time>
      </trkpt>
      <trkpt lat="48.88708" lon="11.14113">
        <ele>395</ele>
        <time>2022-05-24T11:58:06Z</time>
      </trkpt>
      <trkpt lat="48.8868" lon="11.14165">
        <ele>396</ele>
        <time>2022-05-24T11:58:14Z</time>
      </trkpt>
      <trkpt lat="48.88493" lon="11.14429">
        <ele>399</ele>
        <time>2022-05-24T11:58:59Z</time>
      </trkpt>
      <trkpt lat="48.88447" lon="11.14512">
        <ele>400</ele>
        <time>2022-05-24T11:59:12Z</time>
      </trkpt>
      <trkpt lat="48.88369" lon="11.14677">
        <ele>404</ele>
        <time>2022-05-24T11:59:36Z</time>
      </trkpt>
      <trkpt lat="48.88342" lon="11.14651">
        <ele>395</ele>
        <time>2022-05-24T11:59:41Z</time>
      </trkpt>
      <trkpt lat="48.88184" lon="11.15034">
        <ele>394</ele>
        <time>2022-05-24T12:00:34Z</time>
      </trkpt>
      <trkpt lat="48.8815" lon="11.15094">
        <ele>393</ele>
        <time>2022-05-24T12:00:43Z</time>
      </trkpt>
      <trkpt lat="48.88077" lon="11.15243">
        <ele>390</ele>
        <time>2022-05-24T12:01:05Z</time>
      </trkpt>
      <trkpt lat="48.88064" lon="11.15293">
        <ele>392</ele>
        <time>2022-05-24T12:01:11Z</time>
      </trkpt>
      <trkpt lat="48.88058" lon="11.15353">
        <ele>394</ele>
        <time>2022-05-24T12:01:19Z</time>
      </trkpt>
      <trkpt lat="48.88046" lon="11.15399">
        <ele>394</ele>
        <time>2022-05-24T12:01:24Z</time>
      </trkpt>
      <trkpt lat="48.88026" lon="11.15463">
        <ele>394</ele>
        <time>2022-05-24T12:01:33Z</time>
      </trkpt>
      <trkpt lat="48.87986" lon="11.15545">
        <ele>392</ele>
        <time>2022-05-24T12:01:45Z</time>
      </trkpt>
      <trkpt lat="48.87959" lon="11.15657">
        <ele>393</ele>
        <time>2022-05-24T12:01:59Z</time>
      </trkpt>
      <trkpt lat="48.87909" lon="11.15921">
        <ele>391</ele>
        <time>2022-05-24T12:02:31Z</time>
      </trkpt>
      <trkpt lat="48.87885" lon="11.16114">
        <ele>390</ele>
        <time>2022-05-24T12:02:54Z</time>
      </trkpt>
      <trkpt lat="48.87725" lon="11.16379">
        <ele>389</ele>
        <time>2022-05-24T12:03:36Z</time>
      </trkpt>
      <trkpt lat="48.87748" lon="11.16404">
        <ele>388</ele>
        <time>2022-05-24T12:03:41Z</time>
      </trkpt>
      <trkpt lat="48.8775" lon="11.16415">
        <ele>388</ele>
        <time>2022-05-24T12:03:42Z</time>
      </trkpt>
      <trkpt lat="48.88003" lon="11.16689">
        <ele>388</ele>
        <time>2022-05-24T12:04:37Z</time>
      </trkpt>
      <trkpt lat="48.88065" lon="11.16741">
        <ele>391</ele>
        <time>2022-05-24T12:04:50Z</time>
      </trkpt>
      <trkpt lat="48.88093" lon="11.16758">
        <ele>392</ele>
        <time>2022-05-24T12:04:55Z</time>
      </trkpt>
      <trkpt lat="48.88125" lon="11.16767">
        <ele>394</ele>
        <time>2022-05-24T12:05:01Z</time>
      </trkpt>
      <trkpt lat="48.88142" lon="11.16781">
        <ele>395</ele>
        <time>2022-05-24T12:05:05Z</time>
      </trkpt>
      <trkpt lat="48.88285" lon="11.16944">
        <ele>394</ele>
        <time>2022-05-24T12:05:36Z</time>
      </trkpt>
      <trkpt lat="48.88347" lon="11.16987">
        <ele>392</ele>
        <time>2022-05-24T12:05:49Z</time>
      </trkpt>
      <trkpt lat="48.88399" lon="11.17004">
        <ele>392</ele>
        <time>2022-05-24T12:05:58Z</time>
      </trkpt>
      <trkpt lat="48.88421" lon="11.17001">
        <ele>393</ele>
        <time>2022-05-24T12:06:02Z</time>
      </trkpt>
      <trkpt lat="48.88584" lon="11.1693">
        <ele>398</ele>
        <time>2022-05-24T12:06:32Z</time>
      </trkpt>
      <trkpt lat="48.88604" lon="11.16913">
        <ele>398</ele>
        <time>2022-05-24T12:06:36Z</time>
      </trkpt>
      <trkpt lat="48.88635" lon="11.16871">
        <ele>397</ele>
        <time>2022-05-24T12:06:44Z</time>
      </trkpt>
      <trkpt lat="48.88677" lon="11.16966">
        <ele>392</ele>
        <time>2022-05-24T12:06:57Z</time>
      </trkpt>
      <trkpt lat="48.88697" lon="11.16948">
        <ele>392</ele>
        <time>2022-05-24T12:07:01Z</time>
      </trkpt>
      <trkpt lat="48.8871" lon="11.16973">
        <ele>391</ele>
        <time>2022-05-24T12:07:05Z</time>
      </trkpt>
      <trkpt lat="48.88769" lon="11.16913">
        <ele>392</ele>
        <time>2022-05-24T12:07:17Z</time>
      </trkpt>
      <trkpt lat="48.88821" lon="11.1688">
        <ele>393</ele>
        <time>2022-05-24T12:07:27Z</time>
      </trkpt>
      <trkpt lat="48.88835" lon="11.16864">
        <ele>393</ele>
        <time>2022-05-24T12:07:31Z</time>
      </trkpt>
      <trkpt lat="48.88847" lon="11.16845">
        <ele>392</ele>
        <time>2022-05-24T12:07:34Z</time>
      </trkpt>
      <trkpt lat="48.88851" lon="11.16814">
        <ele>393</ele>
        <time>2022-05-24T12:07:37Z</time>
      </trkpt>
      <trkpt lat="48.88905" lon="11.16753">
        <ele>392</ele>
        <time>2022-05-24T12:07:49Z</time>
      </trkpt>
      <trkpt lat="48.89023" lon="11.16658">
        <ele>390</ele>
        <time>2022-05-24T12:08:13Z</time>
      </trkpt>
      <trkpt lat="48.89065" lon="11.16615">
        <ele>388</ele>
        <time>2022-05-24T12:08:22Z</time>
      </trkpt>
      <trkpt lat="48.8903" lon="11.16537">
        <ele>394</ele>
        <time>2022-05-24T12:08:33Z</time>
      </trkpt>
      <trkpt lat="48.89148" lon="11.16434">
        <ele>391</ele>
        <time>2022-05-24T12:08:57Z</time>
      </trkpt>
      <trkpt lat="48.89216" lon="11.16382">
        <ele>392</ele>
        <time>2022-05-24T12:09:11Z</time>
      </trkpt>
      <trkpt lat="48.89264" lon="11.16379">
        <ele>392</ele>
        <time>2022-05-24T12:09:19Z</time>
      </trkpt>
      <trkpt lat="48.8928" lon="11.16416">
        <ele>391</ele>
        <time>2022-05-24T12:09:25Z</time>
      </trkpt>
      <trkpt lat="48.89295" lon="11.16436">
        <ele>391</ele>
        <time>2022-05-24T12:09:28Z</time>
      </trkpt>
      <trkpt lat="48.8936" lon="11.16432">
        <ele>391</ele>
        <time>2022-05-24T12:09:40Z</time>
      </trkpt>
      <trkpt lat="48.89377" lon="11.16452">
        <ele>390</ele>
        <time>2022-05-24T12:09:44Z</time>
      </trkpt>
      <trkpt lat="48.89394" lon="11.16491">
        <ele>389</ele>
        <time>2022-05-24T12:09:49Z</time>
      </trkpt>
      <trkpt lat="48.89432" lon="11.16553">
        <ele>390</ele>
        <time>2022-05-24T12:09:59Z</time>
      </trkpt>
      <trkpt lat="48.89442" lon="11.16556">
        <ele>390</ele>
        <time>2022-05-24T12:10:01Z</time>
      </trkpt>
      <trkpt lat="48.89461" lon="11.16542">
        <ele>390</ele>
        <time>2022-05-24T12:10:05Z</time>
      </trkpt>
      <trkpt lat="48.89523" lon="11.16441">
        <ele>390</ele>
        <time>2022-05-24T12:10:21Z</time>
      </trkpt>
      <trkpt lat="48.89544" lon="11.16386">
        <ele>390</ele>
        <time>2022-05-24T12:10:28Z</time>
      </trkpt>
      <trkpt lat="48.89551" lon="11.1635">
        <ele>390</ele>
        <time>2022-05-24T12:10:33Z</time>
      </trkpt>
      <trkpt lat="48.89568" lon="11.16318">
        <ele>391</ele>
        <time>2022-05-24T12:10:37Z</time>
      </trkpt>
      <trkpt lat="48.89607" lon="11.16295">
        <ele>390</ele>
        <time>2022-05-24T12:10:45Z</time>
      </trkpt>
      <trkpt lat="48.89617" lon="11.16343">
        <ele>390</ele>
        <time>2022-05-24T12:10:51Z</time>
      </trkpt>
      <trkpt lat="48.8962" lon="11.16349">
        <ele>390</ele>
        <time>2022-05-24T12:10:52Z</time>
      </trkpt>
      <trkpt lat="48.89666" lon="11.16361">
        <ele>389</ele>
        <time>2022-05-24T12:11:00Z</time>
      </trkpt>
      <trkpt lat="48.89719" lon="11.16409">
        <ele>391</ele>
        <time>2022-05-24T12:11:11Z</time>
      </trkpt>
      <trkpt lat="48.89739" lon="11.16445">
        <ele>391</ele>
        <time>2022-05-24T12:11:16Z</time>
      </trkpt>
      <trkpt lat="48.89781" lon="11.16548">
        <ele>390</ele>
        <time>2022-05-24T12:11:30Z</time>
      </trkpt>
      <trkpt lat="48.89845" lon="11.16622">
        <ele>391</ele>
        <time>2022-05-24T12:11:45Z</time>
      </trkpt>
      <trkpt lat="48.89849" lon="11.16645">
        <ele>391</ele>
        <time>2022-05-24T12:11:48Z</time>
      </trkpt>
      <trkpt lat="48.89863" lon="11.16686">
        <ele>391</ele>
        <time>2022-05-24T12:11:53Z</time>
      </trkpt>
      <trkpt lat="48.89889" lon="11.16713">
        <ele>390</ele>
        <time>2022-05-24T12:11:59Z</time>
      </trkpt>
      <trkpt lat="48.89908" lon="11.16758">
        <ele>389</ele>
        <time>2022-05-24T12:12:05Z</time>
      </trkpt>
      <trkpt lat="48.8991" lon="11.16807">
        <ele>388</ele>
        <time>2022-05-24T12:12:11Z</time>
      </trkpt>
      <trkpt lat="48.89927" lon="11.16905">
        <ele>388</ele>
        <time>2022-05-24T12:12:22Z</time>
      </trkpt>
      <trkpt lat="48.8992" lon="11.17067">
        <ele>389</ele>
        <time>2022-05-24T12:12:41Z</time>
      </trkpt>
      <trkpt lat="48.89902" lon="11.17239">
        <ele>389</ele>
        <time>2022-05-24T12:13:02Z</time>
      </trkpt>
      <trkpt lat="48.899" lon="11.17288">
        <ele>388</ele>
        <time>2022-05-24T12:13:08Z</time>
      </trkpt>
      <trkpt lat="48.89909" lon="11.17415">
        <ele>389</ele>
        <time>2022-05-24T12:13:22Z</time>
      </trkpt>
      <trkpt lat="48.89907" lon="11.17453">
        <ele>389</ele>
        <time>2022-05-24T12:13:27Z</time>
      </trkpt>
      <trkpt lat="48.89882" lon="11.17534">
        <ele>389</ele>
        <time>2022-05-24T12:13:37Z</time>
      </trkpt>
      <trkpt lat="48.89867" lon="11.17557">
        <ele>389</ele>
        <time>2022-05-24T12:13:41Z</time>
      </trkpt>
      <trkpt lat="48.89861" lon="11.17561">
        <ele>389</ele>
        <time>2022-05-24T12:13:42Z</time>
      </trkpt>
      <trkpt lat="48.89837" lon="11.17599">
        <ele>389</ele>
        <time>2022-05-24T12:13:49Z</time>
      </trkpt>
      <trkpt lat="48.8982" lon="11.17572">
        <ele>389</ele>
        <time>2022-05-24T12:13:53Z</time>
      </trkpt>
      <trkpt lat="48.89799" lon="11.17619">
        <ele>389</ele>
        <time>2022-05-24T12:14:00Z</time>
      </trkpt>
      <trkpt lat="48.89797" lon="11.17618">
        <ele>389</ele>
        <time>2022-05-24T12:14:00Z</time>
      </trkpt>
      <trkpt lat="48.89786" lon="11.17648">
        <ele>389</ele>
        <time>2022-05-24T12:14:04Z</time>
      </trkpt>
      <trkpt lat="48.89769" lon="11.17675">
        <ele>389</ele>
        <time>2022-05-24T12:14:08Z</time>
      </trkpt>
      <trkpt lat="48.89704" lon="11.17778">
        <ele>390</ele>
        <time>2022-05-24T12:14:25Z</time>
      </trkpt>
      <trkpt lat="48.89563" lon="11.1797">
        <ele>391</ele>
        <time>2022-05-24T12:14:59Z</time>
      </trkpt>
      <trkpt lat="48.89566" lon="11.17975">
        <ele>391</ele>
        <time>2022-05-24T12:14:59Z</time>
      </trkpt>
      <trkpt lat="48.89512" lon="11.18043">
        <ele>389</ele>
        <time>2022-05-24T12:15:12Z</time>
      </trkpt>
      <trkpt lat="48.89426" lon="11.18128">
        <ele>389</ele>
        <time>2022-05-24T12:15:30Z</time>
      </trkpt>
      <trkpt lat="48.8939" lon="11.18147">
        <ele>389</ele>
        <time>2022-05-24T12:15:37Z</time>
      </trkpt>
      <trkpt lat="48.89361" lon="11.18151">
        <ele>389</ele>
        <time>2022-05-24T12:15:42Z</time>
      </trkpt>
      <trkpt lat="48.89351" lon="11.18097">
        <ele>389</ele>
        <time>2022-05-24T12:15:49Z</time>
      </trkpt>
      <trkpt lat="48.89333" lon="11.18043">
        <ele>389</ele>
        <time>2022-05-24T12:15:56Z</time>
      </trkpt>
      <trkpt lat="48.89322" lon="11.18051">
        <ele>389</ele>
        <time>2022-05-24T12:15:58Z</time>
      </trkpt>
      <trkpt lat="48.89295" lon="11.1806">
        <ele>389</ele>
        <time>2022-05-24T12:16:03Z</time>
      </trkpt>
      <trkpt lat="48.89271" lon="11.18047">
        <ele>389</ele>
        <time>2022-05-24T12:16:07Z</time>
      </trkpt>
      <trkpt lat="48.89236" lon="11.18082">
        <ele>390</ele>
        <time>2022-05-24T12:16:15Z</time>
      </trkpt>
      <trkpt lat="48.8921" lon="11.18043">
        <ele>390</ele>
        <time>2022-05-24T12:16:21Z</time>
      </trkpt>
      <trkpt lat="48.89044" lon="11.18134">
        <ele>393</ele>
        <time>2022-05-24T12:16:53Z</time>
      </trkpt>
      <trkpt lat="48.88985" lon="11.18178">
        <ele>396</ele>
        <time>2022-05-24T12:17:04Z</time>
      </trkpt>
      <trkpt lat="48.88841" lon="11.18353">
        <ele>396</ele>
        <time>2022-05-24T12:17:37Z</time>
      </trkpt>
      <trkpt lat="48.88751" lon="11.18504">
        <ele>394</ele>
        <time>2022-05-24T12:18:01Z</time>
      </trkpt>
      <trkpt lat="48.88699" lon="11.18601">
        <ele>396</ele>
        <time>2022-05-24T12:18:16Z</time>
      </trkpt>
      <trkpt lat="48.88531" lon="11.18932">
        <ele>395</ele>
        <time>2022-05-24T12:19:05Z</time>
      </trkpt>
      <trkpt lat="48.88402" lon="11.19206">
        <ele>403</ele>
        <time>2022-05-24T12:19:44Z</time>
      </trkpt>
      <trkpt lat="48.8834" lon="11.19355">
        <ele>403</ele>
        <time>2022-05-24T12:20:05Z</time>
      </trkpt>
      <trkpt lat="48.88151" lon="11.19887">
        <ele>396</ele>
        <time>2022-05-24T12:21:15Z</time>
      </trkpt>
      <trkpt lat="48.8813" lon="11.19933">
        <ele>397</ele>
        <time>2022-05-24T12:21:22Z</time>
      </trkpt>
      <trkpt lat="48.88047" lon="11.20081">
        <ele>398</ele>
        <time>2022-05-24T12:21:45Z</time>
      </trkpt>
      <trkpt lat="48.8796" lon="11.20291">
        <ele>397</ele>
        <time>2022-05-24T12:22:14Z</time>
      </trkpt>
      <trkpt lat="48.8792" lon="11.20438">
        <ele>393</ele>
        <time>2022-05-24T12:22:32Z</time>
      </trkpt>
      <trkpt lat="48.87894" lon="11.20513">
        <ele>394</ele>
        <time>2022-05-24T12:22:42Z</time>
      </trkpt>
      <trkpt lat="48.87858" lon="11.20585">
        <ele>392</ele>
        <time>2022-05-24T12:22:53Z</time>
      </trkpt>
      <trkpt lat="48.87752" lon="11.20749">
        <ele>398</ele>
        <time>2022-05-24T12:23:20Z</time>
      </trkpt>
      <trkpt lat="48.87681" lon="11.209">
        <ele>405</ele>
        <time>2022-05-24T12:23:42Z</time>
      </trkpt>
      <trkpt lat="48.87633" lon="11.21042">
        <ele>405</ele>
        <time>2022-05-24T12:24:00Z</time>
      </trkpt>
      <trkpt lat="48.87435" lon="11.21844">
        <ele>395</ele>
        <time>2022-05-24T12:25:41Z</time>
      </trkpt>
      <trkpt lat="48.87418" lon="11.21921">
        <ele>400</ele>
        <time>2022-05-24T12:25:50Z</time>
      </trkpt>
      <trkpt lat="48.87383" lon="11.22131">
        <ele>404</ele>
        <time>2022-05-24T12:26:15Z</time>
      </trkpt>
      <trkpt lat="48.87374" lon="11.2237">
        <ele>410</ele>
        <time>2022-05-24T12:26:43Z</time>
      </trkpt>
      <trkpt lat="48.87377" lon="11.22488">
        <ele>408</ele>
        <time>2022-05-24T12:26:57Z</time>
      </trkpt>
      <trkpt lat="48.87405" lon="11.22964">
        <ele>406</ele>
        <time>2022-05-24T12:27:53Z</time>
      </trkpt>
      <trkpt lat="48.87427" lon="11.23151">
        <ele>403</ele>
        <time>2022-05-24T12:28:15Z</time>
      </trkpt>
      <trkpt lat="48.87462" lon="11.23345">
        <ele>401</ele>
        <time>2022-05-24T12:28:39Z</time>
      </trkpt>
      <trkpt lat="48.87504" lon="11.23495">
        <ele>395</ele>
        <time>2022-05-24T12:28:58Z</time>
      </trkpt>
      <trkpt lat="48.87568" lon="11.23821">
        <ele>400</ele>
        <time>2022-05-24T12:29:38Z</time>
      </trkpt>
      <trkpt lat="48.87605" lon="11.23965">
        <ele>400</ele>
        <time>2022-05-24T12:29:56Z</time>
      </trkpt>
      <trkpt lat="48.87664" lon="11.24131">
        <ele>392</ele>
        <time>2022-05-24T12:30:18Z</time>
      </trkpt>
      <trkpt lat="48.87769" lon="11.24343">
        <ele>390</ele>
        <time>2022-05-24T12:30:49Z</time>
      </trkpt>
      <trkpt lat="48.87802" lon="11.24425">
        <ele>393</ele>
        <time>2022-05-24T12:31:00Z</time>
      </trkpt>
      <trkpt lat="48.8783" lon="11.24558">
        <ele>401</ele>
        <time>2022-05-24T12:31:17Z</time>
      </trkpt>
      <trkpt lat="48.87861" lon="11.24654">
        <ele>409</ele>
        <time>2022-05-24T12:31:29Z</time>
      </trkpt>
      <trkpt lat="48.87954" lon="11.24798">
        <ele>405</ele>
        <time>2022-05-24T12:31:53Z</time>
      </trkpt>
      <trkpt lat="48.88018" lon="11.24902">
        <ele>402</ele>
        <time>2022-05-24T12:32:09Z</time>
      </trkpt>
      <trkpt lat="48.88089" lon="11.25039">
        <ele>401</ele>
        <time>2022-05-24T12:32:30Z</time>
      </trkpt>
      <trkpt lat="48.88198" lon="11.25358">
        <ele>402</ele>
        <time>2022-05-24T12:33:12Z</time>
      </trkpt>
      <trkpt lat="48.88272" lon="11.2556">
        <ele>399</ele>
        <time>2022-05-24T12:33:39Z</time>
      </trkpt>
      <trkpt lat="48.8829" lon="11.25626">
        <ele>401</ele>
        <time>2022-05-24T12:33:47Z</time>
      </trkpt>
      <trkpt lat="48.88324" lon="11.2571">
        <ele>403</ele>
        <time>2022-05-24T12:33:59Z</time>
      </trkpt>
      <trkpt lat="48.88388" lon="11.25823">
        <ele>402</ele>
        <time>2022-05-24T12:34:16Z</time>
      </trkpt>
      <trkpt lat="48.88428" lon="11.25873">
        <ele>397</ele>
        <time>2022-05-24T12:34:26Z</time>
      </trkpt>
      <trkpt lat="48.88478" lon="11.25923">
        <ele>391</ele>
        <time>2022-05-24T12:34:36Z</time>
      </trkpt>
      <trkpt lat="48.88588" lon="11.26001">
        <ele>384</ele>
        <time>2022-05-24T12:34:58Z</time>
      </trkpt>
      <trkpt lat="48.88685" lon="11.26075">
        <ele>385</ele>
        <time>2022-05-24T12:35:17Z</time>
      </trkpt>
      <trkpt lat="48.88815" lon="11.26188">
        <ele>383</ele>
        <time>2022-05-24T12:35:44Z</time>
      </trkpt>
      <trkpt lat="48.88835" lon="11.26148">
        <ele>383</ele>
        <time>2022-05-24T12:35:50Z</time>
      </trkpt>
      <trkpt lat="48.88829" lon="11.26106">
        <ele>382</ele>
        <time>2022-05-24T12:35:55Z</time>
      </trkpt>
      <trkpt lat="48.88833" lon="11.26092">
        <ele>382</ele>
        <time>2022-05-24T12:35:56Z</time>
      </trkpt>
      <trkpt lat="48.8885" lon="11.26074">
        <ele>382</ele>
        <time>2022-05-24T12:36:00Z</time>
      </trkpt>
      <trkpt lat="48.88866" lon="11.26063">
        <ele>381</ele>
        <time>2022-05-24T12:36:03Z</time>
      </trkpt>
      <trkpt lat="48.88879" lon="11.26082">
        <ele>381</ele>
        <time>2022-05-24T12:36:06Z</time>
      </trkpt>
      <trkpt lat="48.88889" lon="11.26079">
        <ele>381</ele>
        <time>2022-05-24T12:36:08Z</time>
      </trkpt>
      <trkpt lat="48.88984" lon="11.25897">
        <ele>385</ele>
        <time>2022-05-24T12:36:35Z</time>
      </trkpt>
      <trkpt lat="48.89" lon="11.25874">
        <ele>387</ele>
        <time>2022-05-24T12:36:39Z</time>
      </trkpt>
      <trkpt lat="48.89171" lon="11.26137">
        <ele>395</ele>
        <time>2022-05-24T12:37:23Z</time>
      </trkpt>
      <trkpt lat="48.89231" lon="11.26264">
        <ele>395</ele>
        <time>2022-05-24T12:37:41Z</time>
      </trkpt>
      <trkpt lat="48.89302" lon="11.26341">
        <ele>398</ele>
        <time>2022-05-24T12:37:56Z</time>
      </trkpt>
      <trkpt lat="48.89318" lon="11.26366">
        <ele>398</ele>
        <time>2022-05-24T12:38:00Z</time>
      </trkpt>
      <trkpt lat="48.89363" lon="11.26464">
        <ele>396</ele>
        <time>2022-05-24T12:38:14Z</time>
      </trkpt>
      <trkpt lat="48.89453" lon="11.26597">
        <ele>394</ele>
        <time>2022-05-24T12:38:37Z</time>
      </trkpt>
      <trkpt lat="48.89542" lon="11.26722">
        <ele>398</ele>
        <time>2022-05-24T12:38:58Z</time>
      </trkpt>
      <trkpt lat="48.89611" lon="11.26829">
        <ele>404</ele>
        <time>2022-05-24T12:39:16Z</time>
      </trkpt>
      <trkpt lat="48.89687" lon="11.26987">
        <ele>395</ele>
        <time>2022-05-24T12:39:39Z</time>
      </trkpt>
      <trkpt lat="48.89726" lon="11.27047">
        <ele>395</ele>
        <time>2022-05-24T12:39:49Z</time>
      </trkpt>
      <trkpt lat="48.89818" lon="11.2721">
        <ele>399</ele>
        <time>2022-05-24T12:40:14Z</time>
      </trkpt>
      <trkpt lat="48.89895" lon="11.27359">
        <ele>398</ele>
        <time>2022-05-24T12:40:36Z</time>
      </trkpt>
      <trkpt lat="48.89915" lon="11.27387">
        <ele>398</ele>
        <time>2022-05-24T12:40:41Z</time>
      </trkpt>
      <trkpt lat="48.90023" lon="11.27652">
        <ele>397</ele>
        <time>2022-05-24T12:41:17Z</time>
      </trkpt>
      <trkpt lat="48.90189" lon="11.28152">
        <ele>400</ele>
        <time>2022-05-24T12:42:23Z</time>
      </trkpt>
      <trkpt lat="48.90219" lon="11.28257">
        <ele>405</ele>
        <time>2022-05-24T12:42:36Z</time>
      </trkpt>
      <trkpt lat="48.90268" lon="11.284">
        <ele>405</ele>
        <time>2022-05-24T12:42:55Z</time>
      </trkpt>
      <trkpt lat="48.90353" lon="11.28738">
        <ele>395</ele>
        <time>2022-05-24T12:43:37Z</time>
      </trkpt>
      <trkpt lat="48.90363" lon="11.28802">
        <ele>395</ele>
        <time>2022-05-24T12:43:45Z</time>
      </trkpt>
      <trkpt lat="48.90379" lon="11.28834">
        <ele>398</ele>
        <time>2022-05-24T12:43:50Z</time>
      </trkpt>
      <trkpt lat="48.90409" lon="11.2893">
        <ele>399</ele>
        <time>2022-05-24T12:44:02Z</time>
      </trkpt>
      <trkpt lat="48.90494" lon="11.29153">
        <ele>399</ele>
        <time>2022-05-24T12:44:32Z</time>
      </trkpt>
      <trkpt lat="48.90508" lon="11.29199">
        <ele>397</ele>
        <time>2022-05-24T12:44:38Z</time>
      </trkpt>
      <trkpt lat="48.9055" lon="11.29279">
        <ele>402</ele>
        <time>2022-05-24T12:44:50Z</time>
      </trkpt>
      <trkpt lat="48.90644" lon="11.29533">
        <ele>388</ele>
        <time>2022-05-24T12:45:24Z</time>
      </trkpt>
      <trkpt lat="48.90669" lon="11.29609">
        <ele>382</ele>
        <time>2022-05-24T12:45:34Z</time>
      </trkpt>
      <trkpt lat="48.90704" lon="11.29732">
        <ele>383</ele>
        <time>2022-05-24T12:45:50Z</time>
      </trkpt>
      <trkpt lat="48.9072" lon="11.29764">
        <ele>383</ele>
        <time>2022-05-24T12:45:55Z</time>
      </trkpt>
      <trkpt lat="48.90776" lon="11.29834">
        <ele>383</ele>
        <time>2022-05-24T12:46:08Z</time>
      </trkpt>
      <trkpt lat="48.90842" lon="11.29889">
        <ele>382</ele>
        <time>2022-05-24T12:46:21Z</time>
      </trkpt>
      <trkpt lat="48.9088" lon="11.29909">
        <ele>383</ele>
        <time>2022-05-24T12:46:28Z</time>
      </trkpt>
      <trkpt lat="48.90954" lon="11.2992">
        <ele>385</ele>
        <time>2022-05-24T12:46:41Z</time>
      </trkpt>
      <trkpt lat="48.91004" lon="11.29944">
        <ele>386</ele>
        <time>2022-05-24T12:46:51Z</time>
      </trkpt>
      <trkpt lat="48.91101" lon="11.30009">
        <ele>386</ele>
        <time>2022-05-24T12:47:10Z</time>
      </trkpt>
      <trkpt lat="48.91135" lon="11.30025">
        <ele>386</ele>
        <time>2022-05-24T12:47:16Z</time>
      </trkpt>
      <trkpt lat="48.91205" lon="11.30052">
        <ele>387</ele>
        <time>2022-05-24T12:47:29Z</time>
      </trkpt>
      <trkpt lat="48.91182" lon="11.30194">
        <ele>383</ele>
        <time>2022-05-24T12:47:46Z</time>
      </trkpt>
      <trkpt lat="48.91141" lon="11.30515">
        <ele>385</ele>
        <time>2022-05-24T12:48:24Z</time>
      </trkpt>
      <trkpt lat="48.91206" lon="11.30543">
        <ele>391</ele>
        <time>2022-05-24T12:48:36Z</time>
      </trkpt>
      <trkpt lat="48.91321" lon="11.30572">
        <ele>393</ele>
        <time>2022-05-24T12:48:57Z</time>
      </trkpt>
      <trkpt lat="48.91364" lon="11.30589">
        <ele>393</ele>
        <time>2022-05-24T12:49:05Z</time>
      </trkpt>
      <trkpt lat="48.91417" lon="11.3062">
        <ele>397</ele>
        <time>2022-05-24T12:49:15Z</time>
      </trkpt>
      <trkpt lat="48.91668" lon="11.30623">
        <ele>384</ele>
        <time>2022-05-24T12:49:59Z</time>
      </trkpt>
      <trkpt lat="48.91755" lon="11.30607">
        <ele>384</ele>
        <time>2022-05-24T12:50:15Z</time>
      </trkpt>
      <trkpt lat="48.91864" lon="11.30598">
        <ele>384</ele>
        <time>2022-05-24T12:50:34Z</time>
      </trkpt>
      <trkpt lat="48.91891" lon="11.30445">
        <ele>380</ele>
        <time>2022-05-24T12:50:53Z</time>
      </trkpt>
      <trkpt lat="48.91899" lon="11.30432">
        <ele>380</ele>
        <time>2022-05-24T12:50:55Z</time>
      </trkpt>
      <trkpt lat="48.91957" lon="11.30403">
        <ele>379</ele>
        <time>2022-05-24T12:51:06Z</time>
      </trkpt>
      <trkpt lat="48.92009" lon="11.30392">
        <ele>379</ele>
        <time>2022-05-24T12:51:15Z</time>
      </trkpt>
      <trkpt lat="48.92035" lon="11.30395">
        <ele>378</ele>
        <time>2022-05-24T12:51:20Z</time>
      </trkpt>
      <trkpt lat="48.92127" lon="11.30431">
        <ele>378</ele>
        <time>2022-05-24T12:51:37Z</time>
      </trkpt>
      <trkpt lat="48.92713" lon="11.30675">
        <ele>378</ele>
        <time>2022-05-24T12:53:25Z</time>
      </trkpt>
      <trkpt lat="48.92955" lon="11.3085">
        <ele>378</ele>
        <time>2022-05-24T12:54:13Z</time>
      </trkpt>
      <trkpt lat="48.93171" lon="11.31047">
        <ele>378</ele>
        <time>2022-05-24T12:54:57Z</time>
      </trkpt>
      <trkpt lat="48.93375" lon="11.31347">
        <ele>378</ele>
        <time>2022-05-24T12:55:48Z</time>
      </trkpt>
      <trkpt lat="48.93515" lon="11.3183">
        <ele>377</ele>
        <time>2022-05-24T12:56:50Z</time>
      </trkpt>
      <trkpt lat="48.93551" lon="11.32057">
        <ele>377</ele>
        <time>2022-05-24T12:57:17Z</time>
      </trkpt>
      <trkpt lat="48.93544" lon="11.32157">
        <ele>378</ele>
        <time>2022-05-24T12:57:29Z</time>
      </trkpt>
      <trkpt lat="48.93539" lon="11.32165">
        <ele>378</ele>
        <time>2022-05-24T12:57:30Z</time>
      </trkpt>
      <trkpt lat="48.93398" lon="11.3221">
        <ele>380</ele>
        <time>2022-05-24T12:57:56Z</time>
      </trkpt>
      <trkpt lat="48.93384" lon="11.32281">
        <ele>383</ele>
        <time>2022-05-24T12:58:04Z</time>
      </trkpt>
      <trkpt lat="48.93377" lon="11.32359">
        <ele>385</ele>
        <time>2022-05-24T12:58:13Z</time>
      </trkpt>
      <trkpt lat="48.93362" lon="11.32422">
        <ele>386</ele>
        <time>2022-05-24T12:58:21Z</time>
      </trkpt>
      <trkpt lat="48.93354" lon="11.32561">
        <ele>384</ele>
        <time>2022-05-24T12:58:38Z</time>
      </trkpt>
      <trkpt lat="48.93367" lon="11.32602">
        <ele>383</ele>
        <time>2022-05-24T12:58:43Z</time>
      </trkpt>
      <trkpt lat="48.93449" lon="11.3261">
        <ele>380</ele>
        <time>2022-05-24T12:58:57Z</time>
      </trkpt>
      <trkpt lat="48.93506" lon="11.3263">
        <ele>378</ele>
        <time>2022-05-24T12:59:08Z</time>
      </trkpt>
      <trkpt lat="48.93492" lon="11.32701">
        <ele>379</ele>
        <time>2022-05-24T12:59:17Z</time>
      </trkpt>
      <trkpt lat="48.93484" lon="11.32932">
        <ele>377</ele>
        <time>2022-05-24T12:59:44Z</time>
      </trkpt>
      <trkpt lat="48.93504" lon="11.32998">
        <ele>378</ele>
        <time>2022-05-24T12:59:52Z</time>
      </trkpt>
      <trkpt lat="48.9356" lon="11.33056">
        <ele>379</ele>
        <time>2022-05-24T13:00:04Z</time>
      </trkpt>
      <trkpt lat="48.93579" lon="11.33097">
        <ele>379</ele>
        <time>2022-05-24T13:00:10Z</time>
      </trkpt>
      <trkpt lat="48.9358" lon="11.3311">
        <ele>379</ele>
        <time>2022-05-24T13:00:12Z</time>
      </trkpt>
      <trkpt lat="48.93568" lon="11.33143">
        <ele>380</ele>
        <time>2022-05-24T13:00:16Z</time>
      </trkpt>
      <trkpt lat="48.93524" lon="11.33195">
        <ele>381</ele>
        <time>2022-05-24T13:00:26Z</time>
      </trkpt>
      <trkpt lat="48.93496" lon="11.33242">
        <ele>381</ele>
        <time>2022-05-24T13:00:33Z</time>
      </trkpt>
      <trkpt lat="48.93462" lon="11.33354">
        <ele>380</ele>
        <time>2022-05-24T13:00:48Z</time>
      </trkpt>
      <trkpt lat="48.93448" lon="11.33433">
        <ele>382</ele>
        <time>2022-05-24T13:00:57Z</time>
      </trkpt>
      <trkpt lat="48.93427" lon="11.33484">
        <ele>382</ele>
        <time>2022-05-24T13:01:04Z</time>
      </trkpt>
      <trkpt lat="48.93378" lon="11.33579">
        <ele>383</ele>
        <time>2022-05-24T13:01:18Z</time>
      </trkpt>
      <trkpt lat="48.93321" lon="11.33646">
        <ele>384</ele>
        <time>2022-05-24T13:01:31Z</time>
      </trkpt>
      <trkpt lat="48.93225" lon="11.3373">
        <ele>388</ele>
        <time>2022-05-24T13:01:51Z</time>
      </trkpt>
      <trkpt lat="48.93182" lon="11.33754">
        <ele>387</ele>
        <time>2022-05-24T13:01:59Z</time>
      </trkpt>
      <trkpt lat="48.92943" lon="11.3382">
        <ele>380</ele>
        <time>2022-05-24T13:02:42Z</time>
      </trkpt>
      <trkpt lat="48.9278" lon="11.33924">
        <ele>380</ele>
        <time>2022-05-24T13:03:14Z</time>
      </trkpt>
      <trkpt lat="48.92748" lon="11.3395">
        <ele>381</ele>
        <time>2022-05-24T13:03:20Z</time>
      </trkpt>
      <trkpt lat="48.92678" lon="11.34031">
        <ele>381</ele>
        <time>2022-05-24T13:03:36Z</time>
      </trkpt>
      <trkpt lat="48.92604" lon="11.34134">
        <ele>379</ele>
        <time>2022-05-24T13:03:54Z</time>
      </trkpt>
      <trkpt lat="48.92567" lon="11.34206">
        <ele>378</ele>
        <time>2022-05-24T13:04:04Z</time>
      </trkpt>
      <trkpt lat="48.92504" lon="11.34388">
        <ele>377</ele>
        <time>2022-05-24T13:04:28Z</time>
      </trkpt>
      <trkpt lat="48.92465" lon="11.34514">
        <ele>378</ele>
        <time>2022-05-24T13:04:45Z</time>
      </trkpt>
      <trkpt lat="48.9245" lon="11.34577">
        <ele>378</ele>
        <time>2022-05-24T13:04:53Z</time>
      </trkpt>
      <trkpt lat="48.92429" lon="11.34743">
        <ele>381</ele>
        <time>2022-05-24T13:05:12Z</time>
      </trkpt>
      <trkpt lat="48.92409" lon="11.34802">
        <ele>381</ele>
        <time>2022-05-24T13:05:20Z</time>
      </trkpt>
      <trkpt lat="48.92399" lon="11.34821">
        <ele>381</ele>
        <time>2022-05-24T13:05:23Z</time>
      </trkpt>
      <trkpt lat="48.92325" lon="11.34912">
        <ele>379</ele>
        <time>2022-05-24T13:05:40Z</time>
      </trkpt>
      <trkpt lat="48.92335" lon="11.34926">
        <ele>379</ele>
        <time>2022-05-24T13:05:42Z</time>
      </trkpt>
      <trkpt lat="48.92296" lon="11.35012">
        <ele>379</ele>
        <time>2022-05-24T13:05:54Z</time>
      </trkpt>
      <trkpt lat="48.92276" lon="11.3512">
        <ele>379</ele>
        <time>2022-05-24T13:06:08Z</time>
      </trkpt>
      <trkpt lat="48.9227" lon="11.35203">
        <ele>379</ele>
        <time>2022-05-24T13:06:17Z</time>
      </trkpt>
      <trkpt lat="48.9224" lon="11.35359">
        <ele>378</ele>
        <time>2022-05-24T13:06:36Z</time>
      </trkpt>
      <trkpt lat="48.9223" lon="11.35429">
        <ele>377</ele>
        <time>2022-05-24T13:06:45Z</time>
      </trkpt>
      <trkpt lat="48.92215" lon="11.35467">
        <ele>377</ele>
        <time>2022-05-24T13:06:50Z</time>
      </trkpt>
      <trkpt lat="48.922" lon="11.35542">
        <ele>376</ele>
        <time>2022-05-24T13:06:59Z</time>
      </trkpt>
      <trkpt lat="48.92164" lon="11.35819">
        <ele>376</ele>
        <time>2022-05-24T13:07:32Z</time>
      </trkpt>
      <trkpt lat="48.92166" lon="11.35935">
        <ele>376</ele>
        <time>2022-05-24T13:07:46Z</time>
      </trkpt>
      <trkpt lat="48.92337" lon="11.36762">
        <ele>376</ele>
        <time>2022-05-24T13:09:27Z</time>
      </trkpt>
      <trkpt lat="48.92516" lon="11.37124">
        <ele>375</ele>
        <time>2022-05-24T13:10:20Z</time>
      </trkpt>
      <trkpt lat="48.92538" lon="11.37144">
        <ele>375</ele>
        <time>2022-05-24T13:10:25Z</time>
      </trkpt>
      <trkpt lat="48.92787" lon="11.37317">
        <ele>376</ele>
        <time>2022-05-24T13:11:13Z</time>
      </trkpt>
      <trkpt lat="48.92781" lon="11.37481">
        <ele>376</ele>
        <time>2022-05-24T13:11:32Z</time>
      </trkpt>
      <trkpt lat="48.92718" lon="11.37484">
        <ele>377</ele>
        <time>2022-05-24T13:11:44Z</time>
      </trkpt>
      <trkpt lat="48.92688" lon="11.37476">
        <ele>378</ele>
        <time>2022-05-24T13:11:49Z</time>
      </trkpt>
      <trkpt lat="48.92646" lon="11.3745">
        <ele>379</ele>
        <time>2022-05-24T13:11:57Z</time>
      </trkpt>
      <trkpt lat="48.92617" lon="11.37479">
        <ele>382</ele>
        <time>2022-05-24T13:12:03Z</time>
      </trkpt>
      <trkpt lat="48.92599" lon="11.37509">
        <ele>385</ele>
        <time>2022-05-24T13:12:08Z</time>
      </trkpt>
      <trkpt lat="48.92577" lon="11.37562">
        <ele>391</ele>
        <time>2022-05-24T13:12:15Z</time>
      </trkpt>
      <trkpt lat="48.92411" lon="11.37435">
        <ele>396</ele>
        <time>2022-05-24T13:12:48Z</time>
      </trkpt>
      <trkpt lat="48.92362" lon="11.37428">
        <ele>397</ele>
        <time>2022-05-24T13:12:57Z</time>
      </trkpt>
      <trkpt lat="48.9235" lon="11.37432">
        <ele>399</ele>
        <time>2022-05-24T13:12:59Z</time>
      </trkpt>
      <trkpt lat="48.92332" lon="11.37458">
        <ele>406</ele>
        <time>2022-05-24T13:13:04Z</time>
      </trkpt>
      <trkpt lat="48.92321" lon="11.37464">
        <ele>410</ele>
        <time>2022-05-24T13:13:06Z</time>
      </trkpt>
      <trkpt lat="48.92262" lon="11.37577">
        <ele>426</ele>
        <time>2022-05-24T13:13:23Z</time>
      </trkpt>
      <trkpt lat="48.92212" lon="11.37656">
        <ele>438</ele>
        <time>2022-05-24T13:13:36Z</time>
      </trkpt>
      <trkpt lat="48.92148" lon="11.37721">
        <ele>443</ele>
        <time>2022-05-24T13:13:49Z</time>
      </trkpt>
      <trkpt lat="48.92098" lon="11.37753">
        <ele>446</ele>
        <time>2022-05-24T13:13:59Z</time>
      </trkpt>
      <trkpt lat="48.92061" lon="11.37767">
        <ele>450</ele>
        <time>2022-05-24T13:14:06Z</time>
      </trkpt>
      <trkpt lat="48.91965" lon="11.37755">
        <ele>452</ele>
        <time>2022-05-24T13:14:23Z</time>
      </trkpt>
      <trkpt lat="48.9194" lon="11.37757">
        <ele>451</ele>
        <time>2022-05-24T13:14:27Z</time>
      </trkpt>
      <trkpt lat="48.91893" lon="11.37774">
        <ele>449</ele>
        <time>2022-05-24T13:14:36Z</time>
      </trkpt>
      <trkpt lat="48.91819" lon="11.37825">
        <ele>448</ele>
        <time>2022-05-24T13:14:50Z</time>
      </trkpt>
      <trkpt lat="48.91828" lon="11.37842">
        <ele>450</ele>
        <time>2022-05-24T13:14:53Z</time>
      </trkpt>
      <trkpt lat="48.91884" lon="11.37845">
        <ele>449</ele>
        <time>2022-05-24T13:15:03Z</time>
      </trkpt>
      <trkpt lat="48.919" lon="11.37852">
        <ele>449</ele>
        <time>2022-05-24T13:15:06Z</time>
      </trkpt>
      <trkpt lat="48.91919" lon="11.379">
        <ele>454</ele>
        <time>2022-05-24T13:15:12Z</time>
      </trkpt>
      <trkpt lat="48.91958" lon="11.37945">
        <ele>459</ele>
        <time>2022-05-24T13:15:21Z</time>
      </trkpt>
      <trkpt lat="48.92025" lon="11.38112">
        <ele>464</ele>
        <time>2022-05-24T13:15:44Z</time>
      </trkpt>
      <trkpt lat="48.92028" lon="11.38166">
        <ele>465</ele>
        <time>2022-05-24T13:15:50Z</time>
      </trkpt>
      <trkpt lat="48.92036" lon="11.38205">
        <ele>467</ele>
        <time>2022-05-24T13:15:55Z</time>
      </trkpt>
      <trkpt lat="48.92047" lon="11.3823">
        <ele>467</ele>
        <time>2022-05-24T13:15:59Z</time>
      </trkpt>
      <trkpt lat="48.92058" lon="11.38241">
        <ele>466</ele>
        <time>2022-05-24T13:16:01Z</time>
      </trkpt>
      <trkpt lat="48.92085" lon="11.38343">
        <ele>468</ele>
        <time>2022-05-24T13:16:14Z</time>
      </trkpt>
      <trkpt lat="48.92092" lon="11.38384">
        <ele>471</ele>
        <time>2022-05-24T13:16:19Z</time>
      </trkpt>
      <trkpt lat="48.92093" lon="11.38415">
        <ele>472</ele>
        <time>2022-05-24T13:16:22Z</time>
      </trkpt>
      <trkpt lat="48.92123" lon="11.38548">
        <ele>480</ele>
        <time>2022-05-24T13:16:39Z</time>
      </trkpt>
      <trkpt lat="48.92135" lon="11.38641">
        <ele>481</ele>
        <time>2022-05-24T13:16:50Z</time>
      </trkpt>
      <trkpt lat="48.9218" lon="11.38811">
        <ele>485</ele>
        <time>2022-05-24T13:17:11Z</time>
      </trkpt>
      <trkpt lat="48.92213" lon="11.38959">
        <ele>487</ele>
        <time>2022-05-24T13:17:30Z</time>
      </trkpt>
      <trkpt lat="48.92222" lon="11.39048">
        <ele>487</ele>
        <time>2022-05-24T13:17:40Z</time>
      </trkpt>
      <trkpt lat="48.9222" lon="11.391">
        <ele>488</ele>
        <time>2022-05-24T13:17:46Z</time>
      </trkpt>
      <trkpt lat="48.92212" lon="11.39144">
        <ele>490</ele>
        <time>2022-05-24T13:17:52Z</time>
      </trkpt>
      <trkpt lat="48.92178" lon="11.39261">
        <ele>489</ele>
        <time>2022-05-24T13:18:07Z</time>
      </trkpt>
      <trkpt lat="48.921" lon="11.39509">
        <ele>494</ele>
        <time>2022-05-24T13:18:39Z</time>
      </trkpt>
      <trkpt lat="48.92097" lon="11.39534">
        <ele>493</ele>
        <time>2022-05-24T13:18:42Z</time>
      </trkpt>
      <trkpt lat="48.92086" lon="11.40023">
        <ele>465</ele>
        <time>2022-05-24T13:19:39Z</time>
      </trkpt>
      <trkpt lat="48.92093" lon="11.40122">
        <ele>466</ele>
        <time>2022-05-24T13:19:51Z</time>
      </trkpt>
      <trkpt lat="48.92135" lon="11.40433">
        <ele>458</ele>
        <time>2022-05-24T13:20:28Z</time>
      </trkpt>
      <trkpt lat="48.92137" lon="11.40463">
        <ele>455</ele>
        <time>2022-05-24T13:20:31Z</time>
      </trkpt>
      <trkpt lat="48.92121" lon="11.40601">
        <ele>439</ele>
        <time>2022-05-24T13:20:48Z</time>
      </trkpt>
      <trkpt lat="48.9219" lon="11.40634">
        <ele>436</ele>
        <time>2022-05-24T13:21:00Z</time>
      </trkpt>
      <trkpt lat="48.92202" lon="11.40631">
        <ele>437</ele>
        <time>2022-05-24T13:21:03Z</time>
      </trkpt>
      <trkpt lat="48.92247" lon="11.40594">
        <ele>442</ele>
        <time>2022-05-24T13:21:12Z</time>
      </trkpt>
      <trkpt lat="48.92288" lon="11.40573">
        <ele>441</ele>
        <time>2022-05-24T13:21:19Z</time>
      </trkpt>
      <trkpt lat="48.92337" lon="11.40575">
        <ele>435</ele>
        <time>2022-05-24T13:21:28Z</time>
      </trkpt>
      <trkpt lat="48.92385" lon="11.40593">
        <ele>427</ele>
        <time>2022-05-24T13:21:37Z</time>
      </trkpt>
      <trkpt lat="48.92417" lon="11.40585">
        <ele>423</ele>
        <time>2022-05-24T13:21:43Z</time>
      </trkpt>
      <trkpt lat="48.92437" lon="11.40563">
        <ele>426</ele>
        <time>2022-05-24T13:21:47Z</time>
      </trkpt>
      <trkpt lat="48.92455" lon="11.40576">
        <ele>427</ele>
        <time>2022-05-24T13:21:51Z</time>
      </trkpt>
      <trkpt lat="48.92436" lon="11.40766">
        <ele>442</ele>
        <time>2022-05-24T13:22:13Z</time>
      </trkpt>
      <trkpt lat="48.92431" lon="11.41082">
        <ele>458</ele>
        <time>2022-05-24T13:22:50Z</time>
      </trkpt>
      <trkpt lat="48.92411" lon="11.41232">
        <ele>460</ele>
        <time>2022-05-24T13:23:08Z</time>
      </trkpt>
      <trkpt lat="48.924" lon="11.41277">
        <ele>461</ele>
        <time>2022-05-24T13:23:14Z</time>
      </trkpt>
      <trkpt lat="48.92365" lon="11.41347">
        <ele>462</ele>
        <time>2022-05-24T13:23:24Z</time>
      </trkpt>
      <trkpt lat="48.9234" lon="11.41412">
        <ele>458</ele>
        <time>2022-05-24T13:23:33Z</time>
      </trkpt>
      <trkpt lat="48.92324" lon="11.41493">
        <ele>456</ele>
        <time>2022-05-24T13:23:42Z</time>
      </trkpt>
      <trkpt lat="48.92327" lon="11.41527">
        <ele>454</ele>
        <time>2022-05-24T13:23:47Z</time>
      </trkpt>
      <trkpt lat="48.9234" lon="11.41561">
        <ele>451</ele>
        <time>2022-05-24T13:23:51Z</time>
      </trkpt>
      <trkpt lat="48.92379" lon="11.41586">
        <ele>451</ele>
        <time>2022-05-24T13:23:59Z</time>
      </trkpt>
      <trkpt lat="48.92388" lon="11.41606">
        <ele>452</ele>
        <time>2022-05-24T13:24:01Z</time>
      </trkpt>
      <trkpt lat="48.92391" lon="11.41634">
        <ele>453</ele>
        <time>2022-05-24T13:24:05Z</time>
      </trkpt>
      <trkpt lat="48.92385" lon="11.41777">
        <ele>454</ele>
        <time>2022-05-24T13:24:22Z</time>
      </trkpt>
      <trkpt lat="48.9239" lon="11.41865">
        <ele>455</ele>
        <time>2022-05-24T13:24:32Z</time>
      </trkpt>
      <trkpt lat="48.92389" lon="11.41924">
        <ele>456</ele>
        <time>2022-05-24T13:24:39Z</time>
      </trkpt>
      <trkpt lat="48.92372" lon="11.42105">
        <ele>459</ele>
        <time>2022-05-24T13:25:00Z</time>
      </trkpt>
      <trkpt lat="48.92358" lon="11.42194">
        <ele>461</ele>
        <time>2022-05-24T13:25:11Z</time>
      </trkpt>
      <trkpt lat="48.92351" lon="11.42416">
        <ele>469</ele>
        <time>2022-05-24T13:25:37Z</time>
      </trkpt>
      <trkpt lat="48.92317" lon="11.42592">
        <ele>475</ele>
        <time>2022-05-24T13:25:58Z</time>
      </trkpt>
      <trkpt lat="48.92297" lon="11.42715">
        <ele>479</ele>
        <time>2022-05-24T13:26:13Z</time>
      </trkpt>
      <trkpt lat="48.92285" lon="11.42919">
        <ele>487</ele>
        <time>2022-05-24T13:26:37Z</time>
      </trkpt>
      <trkpt lat="48.92267" lon="11.43033">
        <ele>492</ele>
        <time>2022-05-24T13:26:51Z</time>
      </trkpt>
      <trkpt lat="48.9225" lon="11.43079">
        <ele>494</ele>
        <time>2022-05-24T13:26:57Z</time>
      </trkpt>
      <trkpt lat="48.92227" lon="11.43095">
        <ele>495</ele>
        <time>2022-05-24T13:27:01Z</time>
      </trkpt>
      <trkpt lat="48.92168" lon="11.43081">
        <ele>497</ele>
        <time>2022-05-24T13:27:12Z</time>
      </trkpt>
      <trkpt lat="48.92085" lon="11.43076">
        <ele>504</ele>
        <time>2022-05-24T13:27:27Z</time>
      </trkpt>
      <trkpt lat="48.92074" lon="11.43097">
        <ele>503</ele>
        <time>2022-05-24T13:27:30Z</time>
      </trkpt>
      <trkpt lat="48.92039" lon="11.43223">
        <ele>500</ele>
        <time>2022-05-24T13:27:46Z</time>
      </trkpt>
      <trkpt lat="48.92032" lon="11.43257">
        <ele>499</ele>
        <time>2022-05-24T13:27:50Z</time>
      </trkpt>
      <trkpt lat="48.92039" lon="11.43355">
        <ele>498</ele>
        <time>2022-05-24T13:28:02Z</time>
      </trkpt>
      <trkpt lat="48.92056" lon="11.43458">
        <ele>501</ele>
        <time>2022-05-24T13:28:14Z</time>
      </trkpt>
      <trkpt lat="48.92082" lon="11.4354">
        <ele>502</ele>
        <time>2022-05-24T13:28:25Z</time>
      </trkpt>
      <trkpt lat="48.92112" lon="11.43581">
        <ele>504</ele>
        <time>2022-05-24T13:28:32Z</time>
      </trkpt>
      <trkpt lat="48.92162" lon="11.43604">
        <ele>507</ele>
        <time>2022-05-24T13:28:41Z</time>
      </trkpt>
      <trkpt lat="48.92196" lon="11.43759">
        <ele>510</ele>
        <time>2022-05-24T13:29:00Z</time>
      </trkpt>
      <trkpt lat="48.9224" lon="11.43861">
        <ele>512</ele>
        <time>2022-05-24T13:29:15Z</time>
      </trkpt>
      <trkpt lat="48.9227" lon="11.43957">
        <ele>514</ele>
        <time>2022-05-24T13:29:27Z</time>
      </trkpt>
      <trkpt lat="48.92331" lon="11.44322">
        <ele>511</ele>
        <time>2022-05-24T13:30:11Z</time>
      </trkpt>
      <trkpt lat="48.92436" lon="11.44688">
        <ele>508</ele>
        <time>2022-05-24T13:30:58Z</time>
      </trkpt>
      <trkpt lat="48.92492" lon="11.44799">
        <ele>506</ele>
        <time>2022-05-24T13:31:14Z</time>
      </trkpt>
      <trkpt lat="48.92508" lon="11.44852">
        <ele>505</ele>
        <time>2022-05-24T13:31:21Z</time>
      </trkpt>
      <trkpt lat="48.92515" lon="11.44906">
        <ele>502</ele>
        <time>2022-05-24T13:31:27Z</time>
      </trkpt>
      <trkpt lat="48.92511" lon="11.44927">
        <ele>502</ele>
        <time>2022-05-24T13:31:30Z</time>
      </trkpt>
      <trkpt lat="48.92494" lon="11.45255">
        <ele>498</ele>
        <time>2022-05-24T13:32:08Z</time>
      </trkpt>
      <trkpt lat="48.92505" lon="11.45392">
        <ele>495</ele>
        <time>2022-05-24T13:32:24Z</time>
      </trkpt>
      <trkpt lat="48.92534" lon="11.4552">
        <ele>492</ele>
        <time>2022-05-24T13:32:40Z</time>
      </trkpt>
      <trkpt lat="48.92535" lon="11.45564">
        <ele>491</ele>
        <time>2022-05-24T13:32:45Z</time>
      </trkpt>
      <trkpt lat="48.92539" lon="11.45583">
        <ele>491</ele>
        <time>2022-05-24T13:32:48Z</time>
      </trkpt>
      <trkpt lat="48.92576" lon="11.45634">
        <ele>489</ele>
        <time>2022-05-24T13:32:57Z</time>
      </trkpt>
      <trkpt lat="48.92587" lon="11.45662">
        <ele>489</ele>
        <time>2022-05-24T13:33:00Z</time>
      </trkpt>
      <trkpt lat="48.92592" lon="11.45696">
        <ele>488</ele>
        <time>2022-05-24T13:33:05Z</time>
      </trkpt>
      <trkpt lat="48.92614" lon="11.4574">
        <ele>487</ele>
        <time>2022-05-24T13:33:11Z</time>
      </trkpt>
      <trkpt lat="48.9263" lon="11.45795">
        <ele>486</ele>
        <time>2022-05-24T13:33:18Z</time>
      </trkpt>
      <trkpt lat="48.92638" lon="11.45901">
        <ele>487</ele>
        <time>2022-05-24T13:33:31Z</time>
      </trkpt>
      <trkpt lat="48.92634" lon="11.45983">
        <ele>488</ele>
        <time>2022-05-24T13:33:40Z</time>
      </trkpt>
      <trkpt lat="48.92637" lon="11.46099">
        <ele>490</ele>
        <time>2022-05-24T13:33:54Z</time>
      </trkpt>
      <trkpt lat="48.92627" lon="11.46278">
        <ele>492</ele>
        <time>2022-05-24T13:34:15Z</time>
      </trkpt>
      <trkpt lat="48.92615" lon="11.46346">
        <ele>493</ele>
        <time>2022-05-24T13:34:23Z</time>
      </trkpt>
      <trkpt lat="48.92666" lon="11.4636">
        <ele>492</ele>
        <time>2022-05-24T13:34:32Z</time>
      </trkpt>
      <trkpt lat="48.92662" lon="11.4641">
        <ele>492</ele>
        <time>2022-05-24T13:34:38Z</time>
      </trkpt>
      <trkpt lat="48.92705" lon="11.46726">
        <ele>497</ele>
        <time>2022-05-24T13:35:16Z</time>
      </trkpt>
      <trkpt lat="48.92705" lon="11.46851">
        <ele>499</ele>
        <time>2022-05-24T13:35:30Z</time>
      </trkpt>
      <trkpt lat="48.92713" lon="11.46932">
        <ele>501</ele>
        <time>2022-05-24T13:35:40Z</time>
      </trkpt>
      <trkpt lat="48.92739" lon="11.47135">
        <ele>507</ele>
        <time>2022-05-24T13:36:04Z</time>
      </trkpt>
      <trkpt lat="48.92763" lon="11.47271">
        <ele>510</ele>
        <time>2022-05-24T13:36:21Z</time>
      </trkpt>
      <trkpt lat="48.92779" lon="11.47452">
        <ele>516</ele>
        <time>2022-05-24T13:36:42Z</time>
      </trkpt>
      <trkpt lat="48.92818" lon="11.48235">
        <ele>489</ele>
        <time>2022-05-24T13:38:14Z</time>
      </trkpt>
      <trkpt lat="48.92809" lon="11.48294">
        <ele>483</ele>
        <time>2022-05-24T13:38:21Z</time>
      </trkpt>
      <trkpt lat="48.92743" lon="11.48566">
        <ele>472</ele>
        <time>2022-05-24T13:38:55Z</time>
      </trkpt>
      <trkpt lat="48.92625" lon="11.49033">
        <ele>467</ele>
        <time>2022-05-24T13:39:53Z</time>
      </trkpt>
      <trkpt lat="48.92575" lon="11.49279">
        <ele>466</ele>
        <time>2022-05-24T13:40:23Z</time>
      </trkpt>
      <trkpt lat="48.92564" lon="11.49345">
        <ele>467</ele>
        <time>2022-05-24T13:40:31Z</time>
      </trkpt>
      <trkpt lat="48.9253" lon="11.49468">
        <ele>468</ele>
        <time>2022-05-24T13:40:47Z</time>
      </trkpt>
      <trkpt lat="48.92509" lon="11.49572">
        <ele>466</ele>
        <time>2022-05-24T13:41:00Z</time>
      </trkpt>
      <trkpt lat="48.92519" lon="11.49587">
        <ele>466</ele>
        <time>2022-05-24T13:41:02Z</time>
      </trkpt>
      <trkpt lat="48.92537" lon="11.49595">
        <ele>467</ele>
        <time>2022-05-24T13:41:05Z</time>
      </trkpt>
      <trkpt lat="48.92558" lon="11.49645">
        <ele>467</ele>
        <time>2022-05-24T13:41:12Z</time>
      </trkpt>
      <trkpt lat="48.9259" lon="11.49663">
        <ele>468</ele>
        <time>2022-05-24T13:41:18Z</time>
      </trkpt>
      <trkpt lat="48.92597" lon="11.49691">
        <ele>469</ele>
        <time>2022-05-24T13:41:22Z</time>
      </trkpt>
      <trkpt lat="48.92642" lon="11.49696">
        <ele>471</ele>
        <time>2022-05-24T13:41:30Z</time>
      </trkpt>
      <trkpt lat="48.92691" lon="11.49707">
        <ele>473</ele>
        <time>2022-05-24T13:41:39Z</time>
      </trkpt>
      <trkpt lat="48.92754" lon="11.49728">
        <ele>473</ele>
        <time>2022-05-24T13:41:50Z</time>
      </trkpt>
      <trkpt lat="48.92737" lon="11.49843">
        <ele>474</ele>
        <time>2022-05-24T13:42:04Z</time>
      </trkpt>
      <trkpt lat="48.92737" lon="11.4992">
        <ele>474</ele>
        <time>2022-05-24T13:42:13Z</time>
      </trkpt>
      <trkpt lat="48.92727" lon="11.49972">
        <ele>474</ele>
        <time>2022-05-24T13:42:19Z</time>
      </trkpt>
      <trkpt lat="48.92726" lon="11.49996">
        <ele>474</ele>
        <time>2022-05-24T13:42:22Z</time>
      </trkpt>
      <trkpt lat="48.92758" lon="11.5014">
        <ele>481</ele>
        <time>2022-05-24T13:42:40Z</time>
      </trkpt>
      <trkpt lat="48.92863" lon="11.50511">
        <ele>482</ele>
        <time>2022-05-24T13:43:27Z</time>
      </trkpt>
      <trkpt lat="48.9289" lon="11.50853">
        <ele>488</ele>
        <time>2022-05-24T13:44:07Z</time>
      </trkpt>
      <trkpt lat="48.9292" lon="11.51017">
        <ele>488</ele>
        <time>2022-05-24T13:44:27Z</time>
      </trkpt>
      <trkpt lat="48.92936" lon="11.51089">
        <ele>485</ele>
        <time>2022-05-24T13:44:36Z</time>
      </trkpt>
      <trkpt lat="48.92977" lon="11.51244">
        <ele>484</ele>
        <time>2022-05-24T13:44:56Z</time>
      </trkpt>
      <trkpt lat="48.92986" lon="11.51249">
        <ele>483</ele>
        <time>2022-05-24T13:44:57Z</time>
      </trkpt>
      <trkpt lat="48.93008" lon="11.51239">
        <ele>482</ele>
        <time>2022-05-24T13:45:02Z</time>
      </trkpt>
      <trkpt lat="48.93036" lon="11.51237">
        <ele>481</ele>
        <time>2022-05-24T13:45:07Z</time>
      </trkpt>
      <trkpt lat="48.93053" lon="11.51225">
        <ele>481</ele>
        <time>2022-05-24T13:45:10Z</time>
      </trkpt>
      <trkpt lat="48.93078" lon="11.51193">
        <ele>480</ele>
        <time>2022-05-24T13:45:16Z</time>
      </trkpt>
      <trkpt lat="48.93088" lon="11.51194">
        <ele>480</ele>
        <time>2022-05-24T13:45:17Z</time>
      </trkpt>
      <trkpt lat="48.93093" lon="11.51203">
        <ele>480</ele>
        <time>2022-05-24T13:45:19Z</time>
      </trkpt>
      <trkpt lat="48.93101" lon="11.51242">
        <ele>481</ele>
        <time>2022-05-24T13:45:24Z</time>
      </trkpt>
      <trkpt lat="48.93111" lon="11.51366">
        <ele>478</ele>
        <time>2022-05-24T13:45:38Z</time>
      </trkpt>
      <trkpt lat="48.93103" lon="11.51401">
        <ele>475</ele>
        <time>2022-05-24T13:45:43Z</time>
      </trkpt>
      <trkpt lat="48.93054" lon="11.51531">
        <ele>473</ele>
        <time>2022-05-24T13:46:00Z</time>
      </trkpt>
      <trkpt lat="48.9306" lon="11.51544">
        <ele>473</ele>
        <time>2022-05-24T13:46:02Z</time>
      </trkpt>
      <trkpt lat="48.93134" lon="11.5163">
        <ele>477</ele>
        <time>2022-05-24T13:46:18Z</time>
      </trkpt>
      <trkpt lat="48.93214" lon="11.51777">
        <ele>481</ele>
        <time>2022-05-24T13:46:41Z</time>
      </trkpt>
      <trkpt lat="48.93262" lon="11.51881">
        <ele>480</ele>
        <time>2022-05-24T13:46:56Z</time>
      </trkpt>
      <trkpt lat="48.93308" lon="11.52013">
        <ele>490</ele>
        <time>2022-05-24T13:47:13Z</time>
      </trkpt>
      <trkpt lat="48.93316" lon="11.52062">
        <ele>488</ele>
        <time>2022-05-24T13:47:19Z</time>
      </trkpt>
      <trkpt lat="48.93315" lon="11.52313">
        <ele>484</ele>
        <time>2022-05-24T13:47:48Z</time>
      </trkpt>
      <trkpt lat="48.93341" lon="11.52489">
        <ele>480</ele>
        <time>2022-05-24T13:48:09Z</time>
      </trkpt>
      <trkpt lat="48.93352" lon="11.52687">
        <ele>481</ele>
        <time>2022-05-24T13:48:33Z</time>
      </trkpt>
      <trkpt lat="48.93363" lon="11.53071">
        <ele>486</ele>
        <time>2022-05-24T13:49:18Z</time>
      </trkpt>
      <trkpt lat="48.93392" lon="11.5344">
        <ele>491</ele>
        <time>2022-05-24T13:50:01Z</time>
      </trkpt>
      <trkpt lat="48.93271" lon="11.53423">
        <ele>498</ele>
        <time>2022-05-24T13:50:23Z</time>
      </trkpt>
      <trkpt lat="48.93231" lon="11.53429">
        <ele>502</ele>
        <time>2022-05-24T13:50:30Z</time>
      </trkpt>
      <trkpt lat="48.93154" lon="11.53458">
        <ele>510</ele>
        <time>2022-05-24T13:50:44Z</time>
      </trkpt>
      <trkpt lat="48.93022" lon="11.53515">
        <ele>521</ele>
        <time>2022-05-24T13:51:08Z</time>
      </trkpt>
      <trkpt lat="48.92956" lon="11.5355">
        <ele>524</ele>
        <time>2022-05-24T13:51:21Z</time>
      </trkpt>
      <trkpt lat="48.92962" lon="11.53782">
        <ele>523</ele>
        <time>2022-05-24T13:51:48Z</time>
      </trkpt>
      <trkpt lat="48.92982" lon="11.54034">
        <ele>524</ele>
        <time>2022-05-24T13:52:18Z</time>
      </trkpt>
      <trkpt lat="48.92991" lon="11.54101">
        <ele>524</ele>
        <time>2022-05-24T13:52:26Z</time>
      </trkpt>
      <trkpt lat="48.92999" lon="11.5413">
        <ele>524</ele>
        <time>2022-05-24T13:52:29Z</time>
      </trkpt>
      <trkpt lat="48.93081" lon="11.54316">
        <ele>522</ele>
        <time>2022-05-24T13:52:55Z</time>
      </trkpt>
      <trkpt lat="48.93129" lon="11.545">
        <ele>518</ele>
        <time>2022-05-24T13:53:19Z</time>
      </trkpt>
      <trkpt lat="48.9314" lon="11.54586">
        <ele>518</ele>
        <time>2022-05-24T13:53:29Z</time>
      </trkpt>
      <trkpt lat="48.93155" lon="11.5476">
        <ele>513</ele>
        <time>2022-05-24T13:53:49Z</time>
      </trkpt>
      <trkpt lat="48.932" lon="11.54748">
        <ele>513</ele>
        <time>2022-05-24T13:53:57Z</time>
      </trkpt>
      <trkpt lat="48.93213" lon="11.54748">
        <ele>513</ele>
        <time>2022-05-24T13:54:00Z</time>
      </trkpt>
      <trkpt lat="48.93322" lon="11.54844">
        <ele>513</ele>
        <time>2022-05-24T13:54:22Z</time>
      </trkpt>
      <trkpt lat="48.93384" lon="11.54884">
        <ele>513</ele>
        <time>2022-05-24T13:54:34Z</time>
      </trkpt>
      <trkpt lat="48.93431" lon="11.54926">
        <ele>512</ele>
        <time>2022-05-24T13:54:44Z</time>
      </trkpt>
      <trkpt lat="48.93474" lon="11.54985">
        <ele>512</ele>
        <time>2022-05-24T13:54:54Z</time>
      </trkpt>
      <trkpt lat="48.93585" lon="11.55093">
        <ele>510</ele>
        <time>2022-05-24T13:55:18Z</time>
      </trkpt>
      <trkpt lat="48.93773" lon="11.55337">
        <ele>508</ele>
        <time>2022-05-24T13:56:02Z</time>
      </trkpt>
      <trkpt lat="48.93814" lon="11.55399">
        <ele>510</ele>
        <time>2022-05-24T13:56:12Z</time>
      </trkpt>
      <trkpt lat="48.93966" lon="11.55563">
        <ele>513</ele>
        <time>2022-05-24T13:56:45Z</time>
      </trkpt>
      <trkpt lat="48.93996" lon="11.55606">
        <ele>512</ele>
        <time>2022-05-24T13:56:52Z</time>
      </trkpt>
      <trkpt lat="48.94148" lon="11.55922">
        <ele>521</ele>
        <time>2022-05-24T13:57:38Z</time>
      </trkpt>
      <trkpt lat="48.94253" lon="11.56128">
        <ele>530</ele>
        <time>2022-05-24T13:58:09Z</time>
      </trkpt>
      <trkpt lat="48.94353" lon="11.56245">
        <ele>535</ele>
        <time>2022-05-24T13:58:31Z</time>
      </trkpt>
      <trkpt lat="48.94376" lon="11.56262">
        <ele>534</ele>
        <time>2022-05-24T13:58:36Z</time>
      </trkpt>
      <trkpt lat="48.94392" lon="11.56385">
        <ele>533</ele>
        <time>2022-05-24T13:58:50Z</time>
      </trkpt>
      <trkpt lat="48.94394" lon="11.56483">
        <ele>532</ele>
        <time>2022-05-24T13:59:02Z</time>
      </trkpt>
      <trkpt lat="48.94391" lon="11.56553">
        <ele>531</ele>
        <time>2022-05-24T13:59:10Z</time>
      </trkpt>
      <trkpt lat="48.94382" lon="11.56633">
        <ele>529</ele>
        <time>2022-05-24T13:59:19Z</time>
      </trkpt>
      <trkpt lat="48.94375" lon="11.56636">
        <ele>529</ele>
        <time>2022-05-24T13:59:21Z</time>
      </trkpt>
      <trkpt lat="48.9439" lon="11.56814">
        <ele>528</ele>
        <time>2022-05-24T13:59:42Z</time>
      </trkpt>
      <trkpt lat="48.94396" lon="11.56862">
        <ele>528</ele>
        <time>2022-05-24T13:59:47Z</time>
      </trkpt>
      <trkpt lat="48.94535" lon="11.56856">
        <ele>518</ele>
        <time>2022-05-24T14:00:12Z</time>
      </trkpt>
      <trkpt lat="48.95003" lon="11.56816">
        <ele>514</ele>
        <time>2022-05-24T14:01:35Z</time>
      </trkpt>
      <trkpt lat="48.95032" lon="11.57356">
        <ele>489</ele>
        <time>2022-05-24T14:02:39Z</time>
      </trkpt>
      <trkpt lat="48.95006" lon="11.57692">
        <ele>479</ele>
        <time>2022-05-24T14:03:18Z</time>
      </trkpt>
      <trkpt lat="48.94966" lon="11.58019">
        <ele>474</ele>
        <time>2022-05-24T14:03:57Z</time>
      </trkpt>
      <trkpt lat="48.94888" lon="11.58416">
        <ele>474</ele>
        <time>2022-05-24T14:04:46Z</time>
      </trkpt>
      <trkpt lat="48.94864" lon="11.58625">
        <ele>476</ele>
        <time>2022-05-24T14:05:10Z</time>
      </trkpt>
      <trkpt lat="48.94879" lon="11.58677">
        <ele>478</ele>
        <time>2022-05-24T14:05:17Z</time>
      </trkpt>
      <trkpt lat="48.9488" lon="11.58703">
        <ele>478</ele>
        <time>2022-05-24T14:05:20Z</time>
      </trkpt>
      <trkpt lat="48.94856" lon="11.58886">
        <ele>479</ele>
        <time>2022-05-24T14:05:42Z</time>
      </trkpt>
      <trkpt lat="48.94841" lon="11.58929">
        <ele>478</ele>
        <time>2022-05-24T14:05:48Z</time>
      </trkpt>
      <trkpt lat="48.94832" lon="11.59026">
        <ele>477</ele>
        <time>2022-05-24T14:05:59Z</time>
      </trkpt>
      <trkpt lat="48.94827" lon="11.59127">
        <ele>475</ele>
        <time>2022-05-24T14:06:11Z</time>
      </trkpt>
      <trkpt lat="48.94841" lon="11.59231">
        <ele>472</ele>
        <time>2022-05-24T14:06:23Z</time>
      </trkpt>
      <trkpt lat="48.9484" lon="11.59249">
        <ele>472</ele>
        <time>2022-05-24T14:06:25Z</time>
      </trkpt>
      <trkpt lat="48.94831" lon="11.59272">
        <ele>472</ele>
        <time>2022-05-24T14:06:29Z</time>
      </trkpt>
      <trkpt lat="48.9483" lon="11.59338">
        <ele>473</ele>
        <time>2022-05-24T14:06:36Z</time>
      </trkpt>
      <trkpt lat="48.94841" lon="11.59475">
        <ele>474</ele>
        <time>2022-05-24T14:06:52Z</time>
      </trkpt>
      <trkpt lat="48.94846" lon="11.59674">
        <ele>476</ele>
        <time>2022-05-24T14:07:16Z</time>
      </trkpt>
      <trkpt lat="48.94902" lon="11.59933">
        <ele>486</ele>
        <time>2022-05-24T14:07:47Z</time>
      </trkpt>
      <trkpt lat="48.94939" lon="11.60072">
        <ele>482</ele>
        <time>2022-05-24T14:08:05Z</time>
      </trkpt>
      <trkpt lat="48.9499" lon="11.60221">
        <ele>471</ele>
        <time>2022-05-24T14:08:25Z</time>
      </trkpt>
      <trkpt lat="48.94996" lon="11.60294">
        <ele>466</ele>
        <time>2022-05-24T14:08:33Z</time>
      </trkpt>
      <trkpt lat="48.95003" lon="11.60608">
        <ele>463</ele>
        <time>2022-05-24T14:09:10Z</time>
      </trkpt>
      <trkpt lat="48.95019" lon="11.60684">
        <ele>463</ele>
        <time>2022-05-24T14:09:19Z</time>
      </trkpt>
      <trkpt lat="48.95044" lon="11.60731">
        <ele>462</ele>
        <time>2022-05-24T14:09:26Z</time>
      </trkpt>
      <trkpt lat="48.95047" lon="11.60752">
        <ele>461</ele>
        <time>2022-05-24T14:09:29Z</time>
      </trkpt>
      <trkpt lat="48.95043" lon="11.60768">
        <ele>463</ele>
        <time>2022-05-24T14:09:31Z</time>
      </trkpt>
      <trkpt lat="48.95081" lon="11.60821">
        <ele>463</ele>
        <time>2022-05-24T14:09:40Z</time>
      </trkpt>
      <trkpt lat="48.95176" lon="11.609">
        <ele>470</ele>
        <time>2022-05-24T14:09:59Z</time>
      </trkpt>
      <trkpt lat="48.95259" lon="11.60936">
        <ele>471</ele>
        <time>2022-05-24T14:10:15Z</time>
      </trkpt>
      <trkpt lat="48.95249" lon="11.61069">
        <ele>475</ele>
        <time>2022-05-24T14:10:30Z</time>
      </trkpt>
      <trkpt lat="48.95259" lon="11.61097">
        <ele>476</ele>
        <time>2022-05-24T14:10:34Z</time>
      </trkpt>
      <trkpt lat="48.95283" lon="11.61209">
        <ele>480</ele>
        <time>2022-05-24T14:10:48Z</time>
      </trkpt>
      <trkpt lat="48.95305" lon="11.6129">
        <ele>478</ele>
        <time>2022-05-24T14:10:58Z</time>
      </trkpt>
      <trkpt lat="48.95339" lon="11.61384">
        <ele>473</ele>
        <time>2022-05-24T14:11:11Z</time>
      </trkpt>
      <trkpt lat="48.95373" lon="11.61457">
        <ele>470</ele>
        <time>2022-05-24T14:11:21Z</time>
      </trkpt>
      <trkpt lat="48.95443" lon="11.61547">
        <ele>469</ele>
        <time>2022-05-24T14:11:37Z</time>
      </trkpt>
      <trkpt lat="48.95453" lon="11.61579">
        <ele>470</ele>
        <time>2022-05-24T14:11:41Z</time>
      </trkpt>
      <trkpt lat="48.95446" lon="11.61838">
        <ele>473</ele>
        <time>2022-05-24T14:12:12Z</time>
      </trkpt>
      <trkpt lat="48.95439" lon="11.61974">
        <ele>471</ele>
        <time>2022-05-24T14:12:28Z</time>
      </trkpt>
      <trkpt lat="48.95472" lon="11.62137">
        <ele>469</ele>
        <time>2022-05-24T14:12:48Z</time>
      </trkpt>
      <trkpt lat="48.95473" lon="11.62157">
        <ele>469</ele>
        <time>2022-05-24T14:12:50Z</time>
      </trkpt>
      <trkpt lat="48.95465" lon="11.62342">
        <ele>472</ele>
        <time>2022-05-24T14:13:12Z</time>
      </trkpt>
      <trkpt lat="48.95466" lon="11.62361">
        <ele>472</ele>
        <time>2022-05-24T14:13:14Z</time>
      </trkpt>
      <trkpt lat="48.95477" lon="11.62395">
        <ele>472</ele>
        <time>2022-05-24T14:13:18Z</time>
      </trkpt>
      <trkpt lat="48.95507" lon="11.62456">
        <ele>473</ele>
        <time>2022-05-24T14:13:27Z</time>
      </trkpt>
      <trkpt lat="48.95536" lon="11.62583">
        <ele>474</ele>
        <time>2022-05-24T14:13:43Z</time>
      </trkpt>
      <trkpt lat="48.95603" lon="11.62718">
        <ele>474</ele>
        <time>2022-05-24T14:14:03Z</time>
      </trkpt>
      <trkpt lat="48.9569" lon="11.62966">
        <ele>483</ele>
        <time>2022-05-24T14:14:35Z</time>
      </trkpt>
      <trkpt lat="48.95701" lon="11.63045">
        <ele>486</ele>
        <time>2022-05-24T14:14:45Z</time>
      </trkpt>
      <trkpt lat="48.9572" lon="11.63131">
        <ele>490</ele>
        <time>2022-05-24T14:14:56Z</time>
      </trkpt>
      <trkpt lat="48.95765" lon="11.63292">
        <ele>494</ele>
        <time>2022-05-24T14:15:16Z</time>
      </trkpt>
      <trkpt lat="48.95778" lon="11.63349">
        <ele>495</ele>
        <time>2022-05-24T14:15:23Z</time>
      </trkpt>
      <trkpt lat="48.95829" lon="11.63535">
        <ele>497</ele>
        <time>2022-05-24T14:15:47Z</time>
      </trkpt>
      <trkpt lat="48.95843" lon="11.63705">
        <ele>501</ele>
        <time>2022-05-24T14:16:07Z</time>
      </trkpt>
      <trkpt lat="48.95856" lon="11.63784">
        <ele>502</ele>
        <time>2022-05-24T14:16:16Z</time>
      </trkpt>
      <trkpt lat="48.95887" lon="11.63851">
        <ele>501</ele>
        <time>2022-05-24T14:16:26Z</time>
      </trkpt>
      <trkpt lat="48.95919" lon="11.63944">
        <ele>498</ele>
        <time>2022-05-24T14:16:38Z</time>
      </trkpt>
      <trkpt lat="48.96004" lon="11.64407">
        <ele>482</ele>
        <time>2022-05-24T14:17:34Z</time>
      </trkpt>
      <trkpt lat="48.96016" lon="11.64521">
        <ele>483</ele>
        <time>2022-05-24T14:17:48Z</time>
      </trkpt>
      <trkpt lat="48.96035" lon="11.64829">
        <ele>488</ele>
        <time>2022-05-24T14:18:24Z</time>
      </trkpt>
      <trkpt lat="48.96036" lon="11.64939">
        <ele>484</ele>
        <time>2022-05-24T14:18:37Z</time>
      </trkpt>
      <trkpt lat="48.96041" lon="11.65014">
        <ele>481</ele>
        <time>2022-05-24T14:18:45Z</time>
      </trkpt>
      <trkpt lat="48.96058" lon="11.6511">
        <ele>479</ele>
        <time>2022-05-24T14:18:57Z</time>
      </trkpt>
      <trkpt lat="48.96078" lon="11.65312">
        <ele>472</ele>
        <time>2022-05-24T14:19:21Z</time>
      </trkpt>
      <trkpt lat="48.961" lon="11.65409">
        <ele>469</ele>
        <time>2022-05-24T14:19:33Z</time>
      </trkpt>
      <trkpt lat="48.96107" lon="11.65472">
        <ele>469</ele>
        <time>2022-05-24T14:19:40Z</time>
      </trkpt>
      <trkpt lat="48.96112" lon="11.65649">
        <ele>469</ele>
        <time>2022-05-24T14:20:01Z</time>
      </trkpt>
      <trkpt lat="48.96119" lon="11.65736">
        <ele>468</ele>
        <time>2022-05-24T14:20:11Z</time>
      </trkpt>
      <trkpt lat="48.9613" lon="11.65797">
        <ele>467</ele>
        <time>2022-05-24T14:20:19Z</time>
      </trkpt>
      <trkpt lat="48.96174" lon="11.65948">
        <ele>465</ele>
        <time>2022-05-24T14:20:38Z</time>
      </trkpt>
      <trkpt lat="48.9618" lon="11.66028">
        <ele>463</ele>
        <time>2022-05-24T14:20:47Z</time>
      </trkpt>
      <trkpt lat="48.96183" lon="11.66104">
        <ele>460</ele>
        <time>2022-05-24T14:20:56Z</time>
      </trkpt>
      <trkpt lat="48.96183" lon="11.66181">
        <ele>459</ele>
        <time>2022-05-24T14:21:05Z</time>
      </trkpt>
      <trkpt lat="48.96178" lon="11.66213">
        <ele>458</ele>
        <time>2022-05-24T14:21:09Z</time>
      </trkpt>
      <trkpt lat="48.96123" lon="11.66396">
        <ele>452</ele>
        <time>2022-05-24T14:21:33Z</time>
      </trkpt>
      <trkpt lat="48.96126" lon="11.66587">
        <ele>453</ele>
        <time>2022-05-24T14:21:55Z</time>
      </trkpt>
      <trkpt lat="48.96037" lon="11.66977">
        <ele>436</ele>
        <time>2022-05-24T14:22:43Z</time>
      </trkpt>
      <trkpt lat="48.96031" lon="11.67103">
        <ele>429</ele>
        <time>2022-05-24T14:22:58Z</time>
      </trkpt>
      <trkpt lat="48.96018" lon="11.67191">
        <ele>421</ele>
        <time>2022-05-24T14:23:08Z</time>
      </trkpt>
      <trkpt lat="48.96022" lon="11.67267">
        <ele>418</ele>
        <time>2022-05-24T14:23:17Z</time>
      </trkpt>
      <trkpt lat="48.96042" lon="11.67396">
        <ele>418</ele>
        <time>2022-05-24T14:23:33Z</time>
      </trkpt>
      <trkpt lat="48.96045" lon="11.67444">
        <ele>418</ele>
        <time>2022-05-24T14:23:38Z</time>
      </trkpt>
      <trkpt lat="48.96044" lon="11.67555">
        <ele>417</ele>
        <time>2022-05-24T14:23:51Z</time>
      </trkpt>
      <trkpt lat="48.96081" lon="11.67567">
        <ele>416</ele>
        <time>2022-05-24T14:23:58Z</time>
      </trkpt>
      <trkpt lat="48.96102" lon="11.67581">
        <ele>415</ele>
        <time>2022-05-24T14:24:02Z</time>
      </trkpt>
      <trkpt lat="48.96137" lon="11.67619">
        <ele>418</ele>
        <time>2022-05-24T14:24:10Z</time>
      </trkpt>
      <trkpt lat="48.96164" lon="11.67662">
        <ele>413</ele>
        <time>2022-05-24T14:24:17Z</time>
      </trkpt>
      <trkpt lat="48.96174" lon="11.67686">
        <ele>416</ele>
        <time>2022-05-24T14:24:20Z</time>
      </trkpt>
      <trkpt lat="48.96205" lon="11.67807">
        <ele>425</ele>
        <time>2022-05-24T14:24:35Z</time>
      </trkpt>
      <trkpt lat="48.96233" lon="11.67951">
        <ele>414</ele>
        <time>2022-05-24T14:24:53Z</time>
      </trkpt>
      <trkpt lat="48.96213" lon="11.6805">
        <ele>412</ele>
        <time>2022-05-24T14:25:05Z</time>
      </trkpt>
      <trkpt lat="48.96203" lon="11.68083">
        <ele>410</ele>
        <time>2022-05-24T14:25:09Z</time>
      </trkpt>
      <trkpt lat="48.96192" lon="11.68132">
        <ele>397</ele>
        <time>2022-05-24T14:25:15Z</time>
      </trkpt>
      <trkpt lat="48.96181" lon="11.68151">
        <ele>392</ele>
        <time>2022-05-24T14:25:18Z</time>
      </trkpt>
      <trkpt lat="48.96179" lon="11.68171">
        <ele>387</ele>
        <time>2022-05-24T14:25:21Z</time>
      </trkpt>
      <trkpt lat="48.96177" lon="11.68233">
        <ele>373</ele>
        <time>2022-05-24T14:25:28Z</time>
      </trkpt>
      <trkpt lat="48.96172" lon="11.68288">
        <ele>366</ele>
        <time>2022-05-24T14:25:34Z</time>
      </trkpt>
      <trkpt lat="48.96197" lon="11.68327">
        <ele>360</ele>
        <time>2022-05-24T14:25:41Z</time>
      </trkpt>
      <trkpt lat="48.96162" lon="11.68353">
        <ele>360</ele>
        <time>2022-05-24T14:25:48Z</time>
      </trkpt>
      <trkpt lat="48.96171" lon="11.6841">
        <ele>355</ele>
        <time>2022-05-24T14:25:55Z</time>
      </trkpt>
      <trkpt lat="48.96195" lon="11.68468">
        <ele>354</ele>
        <time>2022-05-24T14:26:03Z</time>
      </trkpt>
      <trkpt lat="48.9619" lon="11.68474">
        <ele>354</ele>
        <time>2022-05-24T14:26:04Z</time>
      </trkpt>
      <trkpt lat="48.96207" lon="11.68512">
        <ele>353</ele>
        <time>2022-05-24T14:26:09Z</time>
      </trkpt>
      <trkpt lat="48.96171" lon="11.68555">
        <ele>352</ele>
        <time>2022-05-24T14:26:17Z</time>
      </trkpt>
      <trkpt lat="48.96153" lon="11.68557">
        <ele>352</ele>
        <time>2022-05-24T14:26:20Z</time>
      </trkpt>
      <trkpt lat="48.96138" lon="11.68549">
        <ele>352</ele>
        <time>2022-05-24T14:26:23Z</time>
      </trkpt>
      <trkpt lat="48.96126" lon="11.68589">
        <ele>351</ele>
        <time>2022-05-24T14:26:28Z</time>
      </trkpt>
      <trkpt lat="48.9611" lon="11.68571">
        <ele>351</ele>
        <time>2022-05-24T14:26:32Z</time>
      </trkpt>
      <trkpt lat="48.96092" lon="11.68557">
        <ele>352</ele>
        <time>2022-05-24T14:26:35Z</time>
      </trkpt>
      <trkpt lat="48.96076" lon="11.68554">
        <ele>352</ele>
        <time>2022-05-24T14:26:38Z</time>
      </trkpt>
      <trkpt lat="48.96053" lon="11.68564">
        <ele>352</ele>
        <time>2022-05-24T14:26:43Z</time>
      </trkpt>
      <trkpt lat="48.96023" lon="11.6855">
        <ele>353</ele>
        <time>2022-05-24T14:26:48Z</time>
      </trkpt>
      <trkpt lat="48.9601" lon="11.68554">
        <ele>353</ele>
        <time>2022-05-24T14:26:51Z</time>
      </trkpt>
      <trkpt lat="48.95983" lon="11.68594">
        <ele>354</ele>
        <time>2022-05-24T14:26:57Z</time>
      </trkpt>
      <trkpt lat="48.9598" lon="11.68656">
        <ele>353</ele>
        <time>2022-05-24T14:27:04Z</time>
      </trkpt>
      <trkpt lat="48.95974" lon="11.68684">
        <ele>353</ele>
        <time>2022-05-24T14:27:08Z</time>
      </trkpt>
      <trkpt lat="48.9596" lon="11.68829">
        <ele>353</ele>
        <time>2022-05-24T14:27:25Z</time>
      </trkpt>
      <trkpt lat="48.95962" lon="11.6884">
        <ele>353</ele>
        <time>2022-05-24T14:27:26Z</time>
      </trkpt>
      <trkpt lat="48.95975" lon="11.68889">
        <ele>351</ele>
        <time>2022-05-24T14:27:33Z</time>
      </trkpt>
      <trkpt lat="48.95997" lon="11.68939">
        <ele>349</ele>
        <time>2022-05-24T14:27:40Z</time>
      </trkpt>
      <trkpt lat="48.96078" lon="11.69037">
        <ele>352</ele>
        <time>2022-05-24T14:27:58Z</time>
      </trkpt>
      <trkpt lat="48.96081" lon="11.69078">
        <ele>353</ele>
        <time>2022-05-24T14:28:03Z</time>
      </trkpt>
      <trkpt lat="48.96047" lon="11.69107">
        <ele>352</ele>
        <time>2022-05-24T14:28:10Z</time>
      </trkpt>
      <trkpt lat="48.95972" lon="11.69213">
        <ele>353</ele>
        <time>2022-05-24T14:28:28Z</time>
      </trkpt>
      <trkpt lat="48.95927" lon="11.69264">
        <ele>352</ele>
        <time>2022-05-24T14:28:38Z</time>
      </trkpt>
      <trkpt lat="48.95808" lon="11.69643">
        <ele>353</ele>
        <time>2022-05-24T14:29:27Z</time>
      </trkpt>
      <trkpt lat="48.95775" lon="11.69799">
        <ele>351</ele>
        <time>2022-05-24T14:29:46Z</time>
      </trkpt>
      <trkpt lat="48.95768" lon="11.69923">
        <ele>348</ele>
        <time>2022-05-24T14:30:01Z</time>
      </trkpt>
      <trkpt lat="48.95755" lon="11.69979">
        <ele>349</ele>
        <time>2022-05-24T14:30:08Z</time>
      </trkpt>
      <trkpt lat="48.95716" lon="11.70061">
        <ele>349</ele>
        <time>2022-05-24T14:30:19Z</time>
      </trkpt>
      <trkpt lat="48.95688" lon="11.70218">
        <ele>350</ele>
        <time>2022-05-24T14:30:38Z</time>
      </trkpt>
      <trkpt lat="48.95656" lon="11.70344">
        <ele>350</ele>
        <time>2022-05-24T14:30:54Z</time>
      </trkpt>
      <trkpt lat="48.95656" lon="11.70391">
        <ele>350</ele>
        <time>2022-05-24T14:31:00Z</time>
      </trkpt>
      <trkpt lat="48.95701" lon="11.70485">
        <ele>352</ele>
        <time>2022-05-24T14:31:13Z</time>
      </trkpt>
      <trkpt lat="48.95706" lon="11.70562">
        <ele>352</ele>
        <time>2022-05-24T14:31:22Z</time>
      </trkpt>
      <trkpt lat="48.95692" lon="11.70616">
        <ele>351</ele>
        <time>2022-05-24T14:31:29Z</time>
      </trkpt>
      <trkpt lat="48.95666" lon="11.70652">
        <ele>349</ele>
        <time>2022-05-24T14:31:35Z</time>
      </trkpt>
      <trkpt lat="48.95637" lon="11.70669">
        <ele>349</ele>
        <time>2022-05-24T14:31:41Z</time>
      </trkpt>
      <trkpt lat="48.95611" lon="11.70692">
        <ele>349</ele>
        <time>2022-05-24T14:31:46Z</time>
      </trkpt>
      <trkpt lat="48.95605" lon="11.70705">
        <ele>349</ele>
        <time>2022-05-24T14:31:48Z</time>
      </trkpt>
      <trkpt lat="48.956" lon="11.70732">
        <ele>349</ele>
        <time>2022-05-24T14:31:51Z</time>
      </trkpt>
      <trkpt lat="48.95588" lon="11.70883">
        <ele>348</ele>
        <time>2022-05-24T14:32:09Z</time>
      </trkpt>
      <trkpt lat="48.95555" lon="11.71075">
        <ele>350</ele>
        <time>2022-05-24T14:32:32Z</time>
      </trkpt>
      <trkpt lat="48.95517" lon="11.71405">
        <ele>349</ele>
        <time>2022-05-24T14:33:12Z</time>
      </trkpt>
      <trkpt lat="48.95474" lon="11.71685">
        <ele>350</ele>
        <time>2022-05-24T14:33:45Z</time>
      </trkpt>
      <trkpt lat="48.9546" lon="11.7191">
        <ele>350</ele>
        <time>2022-05-24T14:34:12Z</time>
      </trkpt>
      <trkpt lat="48.95447" lon="11.72002">
        <ele>350</ele>
        <time>2022-05-24T14:34:23Z</time>
      </trkpt>
      <trkpt lat="48.95411" lon="11.72116">
        <ele>349</ele>
        <time>2022-05-24T14:34:37Z</time>
      </trkpt>
      <trkpt lat="48.95401" lon="11.7217">
        <ele>349</ele>
        <time>2022-05-24T14:34:44Z</time>
      </trkpt>
      <trkpt lat="48.95417" lon="11.72273">
        <ele>350</ele>
        <time>2022-05-24T14:34:56Z</time>
      </trkpt>
      <trkpt lat="48.95383" lon="11.72417">
        <ele>351</ele>
        <time>2022-05-24T14:35:14Z</time>
      </trkpt>
      <trkpt lat="48.95336" lon="11.72656">
        <ele>350</ele>
        <time>2022-05-24T14:35:43Z</time>
      </trkpt>
      <trkpt lat="48.95306" lon="11.7284">
        <ele>353</ele>
        <time>2022-05-24T14:36:05Z</time>
      </trkpt>
      <trkpt lat="48.95258" lon="11.73164">
        <ele>351</ele>
        <time>2022-05-24T14:36:44Z</time>
      </trkpt>
      <trkpt lat="48.95248" lon="11.73196">
        <ele>352</ele>
        <time>2022-05-24T14:36:48Z</time>
      </trkpt>
      <trkpt lat="48.95193" lon="11.73323">
        <ele>351</ele>
        <time>2022-05-24T14:37:06Z</time>
      </trkpt>
      <trkpt lat="48.95199" lon="11.7335">
        <ele>352</ele>
        <time>2022-05-24T14:37:09Z</time>
      </trkpt>
      <trkpt lat="48.95189" lon="11.73394">
        <ele>353</ele>
        <time>2022-05-24T14:37:15Z</time>
      </trkpt>
      <trkpt lat="48.95149" lon="11.73494">
        <ele>354</ele>
        <time>2022-05-24T14:37:29Z</time>
      </trkpt>
      <trkpt lat="48.9512" lon="11.73544">
        <ele>355</ele>
        <time>2022-05-24T14:37:36Z</time>
      </trkpt>
      <trkpt lat="48.95105" lon="11.73561">
        <ele>354</ele>
        <time>2022-05-24T14:37:40Z</time>
      </trkpt>
      <trkpt lat="48.9508" lon="11.73582">
        <ele>351</ele>
        <time>2022-05-24T14:37:45Z</time>
      </trkpt>
      <trkpt lat="48.95053" lon="11.73589">
        <ele>352</ele>
        <time>2022-05-24T14:37:50Z</time>
      </trkpt>
      <trkpt lat="48.95044" lon="11.73625">
        <ele>352</ele>
        <time>2022-05-24T14:37:54Z</time>
      </trkpt>
      <trkpt lat="48.95014" lon="11.73697">
        <ele>351</ele>
        <time>2022-05-24T14:38:04Z</time>
      </trkpt>
      <trkpt lat="48.94991" lon="11.73742">
        <ele>351</ele>
        <time>2022-05-24T14:38:11Z</time>
      </trkpt>
      <trkpt lat="48.94975" lon="11.73758">
        <ele>351</ele>
        <time>2022-05-24T14:38:14Z</time>
      </trkpt>
      <trkpt lat="48.94931" lon="11.7384">
        <ele>352</ele>
        <time>2022-05-24T14:38:27Z</time>
      </trkpt>
      <trkpt lat="48.9473" lon="11.74121">
        <ele>357</ele>
        <time>2022-05-24T14:39:15Z</time>
      </trkpt>
      <trkpt lat="48.9465" lon="11.7421">
        <ele>354</ele>
        <time>2022-05-24T14:39:33Z</time>
      </trkpt>
      <trkpt lat="48.94585" lon="11.74301">
        <ele>354</ele>
        <time>2022-05-24T14:39:48Z</time>
      </trkpt>
      <trkpt lat="48.94526" lon="11.74369">
        <ele>355</ele>
        <time>2022-05-24T14:40:02Z</time>
      </trkpt>
      <trkpt lat="48.94501" lon="11.74384">
        <ele>352</ele>
        <time>2022-05-24T14:40:06Z</time>
      </trkpt>
      <trkpt lat="48.94458" lon="11.74456">
        <ele>352</ele>
        <time>2022-05-24T14:40:18Z</time>
      </trkpt>
      <trkpt lat="48.94417" lon="11.74481">
        <ele>350</ele>
        <time>2022-05-24T14:40:26Z</time>
      </trkpt>
      <trkpt lat="48.9435" lon="11.74569">
        <ele>348</ele>
        <time>2022-05-24T14:40:41Z</time>
      </trkpt>
      <trkpt lat="48.9429" lon="11.74674">
        <ele>350</ele>
        <time>2022-05-24T14:40:58Z</time>
      </trkpt>
      <trkpt lat="48.94217" lon="11.74824">
        <ele>351</ele>
        <time>2022-05-24T14:41:19Z</time>
      </trkpt>
      <trkpt lat="48.9413" lon="11.75056">
        <ele>350</ele>
        <time>2022-05-24T14:41:51Z</time>
      </trkpt>
      <trkpt lat="48.94097" lon="11.75173">
        <ele>350</ele>
        <time>2022-05-24T14:42:06Z</time>
      </trkpt>
      <trkpt lat="48.94054" lon="11.75388">
        <ele>350</ele>
        <time>2022-05-24T14:42:32Z</time>
      </trkpt>
      <trkpt lat="48.94037" lon="11.75527">
        <ele>350</ele>
        <time>2022-05-24T14:42:48Z</time>
      </trkpt>
      <trkpt lat="48.94036" lon="11.75542">
        <ele>351</ele>
        <time>2022-05-24T14:42:50Z</time>
      </trkpt>
      <trkpt lat="48.94042" lon="11.75557">
        <ele>351</ele>
        <time>2022-05-24T14:42:52Z</time>
      </trkpt>
      <trkpt lat="48.94033" lon="11.75592">
        <ele>351</ele>
        <time>2022-05-24T14:42:57Z</time>
      </trkpt>
      <trkpt lat="48.94028" lon="11.75672">
        <ele>352</ele>
        <time>2022-05-24T14:43:06Z</time>
      </trkpt>
      <trkpt lat="48.94011" lon="11.76085">
        <ele>350</ele>
        <time>2022-05-24T14:43:54Z</time>
      </trkpt>
      <trkpt lat="48.94024" lon="11.76126">
        <ele>350</ele>
        <time>2022-05-24T14:44:00Z</time>
      </trkpt>
      <trkpt lat="48.94037" lon="11.76146">
        <ele>350</ele>
        <time>2022-05-24T14:44:03Z</time>
      </trkpt>
      <trkpt lat="48.9406" lon="11.76166">
        <ele>350</ele>
        <time>2022-05-24T14:44:08Z</time>
      </trkpt>
      <trkpt lat="48.94076" lon="11.76237">
        <ele>349</ele>
        <time>2022-05-24T14:44:16Z</time>
      </trkpt>
      <trkpt lat="48.94082" lon="11.76297">
        <ele>348</ele>
        <time>2022-05-24T14:44:24Z</time>
      </trkpt>
      <trkpt lat="48.94082" lon="11.76358">
        <ele>348</ele>
        <time>2022-05-24T14:44:31Z</time>
      </trkpt>
      <trkpt lat="48.94072" lon="11.76514">
        <ele>348</ele>
        <time>2022-05-24T14:44:49Z</time>
      </trkpt>
      <trkpt lat="48.94086" lon="11.76577">
        <ele>349</ele>
        <time>2022-05-24T14:44:57Z</time>
      </trkpt>
      <trkpt lat="48.94093" lon="11.76698">
        <ele>353</ele>
        <time>2022-05-24T14:45:11Z</time>
      </trkpt>
      <trkpt lat="48.9408" lon="11.76781">
        <ele>353</ele>
        <time>2022-05-24T14:45:21Z</time>
      </trkpt>
      <trkpt lat="48.9406" lon="11.76819">
        <ele>352</ele>
        <time>2022-05-24T14:45:27Z</time>
      </trkpt>
      <trkpt lat="48.94042" lon="11.76942">
        <ele>351</ele>
        <time>2022-05-24T14:45:41Z</time>
      </trkpt>
      <trkpt lat="48.94018" lon="11.77046">
        <ele>351</ele>
        <time>2022-05-24T14:45:54Z</time>
      </trkpt>
      <trkpt lat="48.94008" lon="11.77071">
        <ele>350</ele>
        <time>2022-05-24T14:45:58Z</time>
      </trkpt>
      <trkpt lat="48.93988" lon="11.77097">
        <ele>350</ele>
        <time>2022-05-24T14:46:02Z</time>
      </trkpt>
      <trkpt lat="48.93979" lon="11.77123">
        <ele>350</ele>
        <time>2022-05-24T14:46:06Z</time>
      </trkpt>
      <trkpt lat="48.93977" lon="11.77179">
        <ele>351</ele>
        <time>2022-05-24T14:46:12Z</time>
      </trkpt>
      <trkpt lat="48.93968" lon="11.7723">
        <ele>351</ele>
        <time>2022-05-24T14:46:18Z</time>
      </trkpt>
      <trkpt lat="48.93928" lon="11.77698">
        <ele>350</ele>
        <time>2022-05-24T14:47:14Z</time>
      </trkpt>
      <trkpt lat="48.93927" lon="11.77785">
        <ele>349</ele>
        <time>2022-05-24T14:47:24Z</time>
      </trkpt>
      <trkpt lat="48.93922" lon="11.77827">
        <ele>348</ele>
        <time>2022-05-24T14:47:29Z</time>
      </trkpt>
      <trkpt lat="48.93904" lon="11.77933">
        <ele>351</ele>
        <time>2022-05-24T14:47:42Z</time>
      </trkpt>
      <trkpt lat="48.93851" lon="11.78138">
        <ele>349</ele>
        <time>2022-05-24T14:48:07Z</time>
      </trkpt>
      <trkpt lat="48.93765" lon="11.78356">
        <ele>349</ele>
        <time>2022-05-24T14:48:37Z</time>
      </trkpt>
      <trkpt lat="48.93727" lon="11.78433">
        <ele>350</ele>
        <time>2022-05-24T14:48:48Z</time>
      </trkpt>
      <trkpt lat="48.93661" lon="11.78551">
        <ele>350</ele>
        <time>2022-05-24T14:49:06Z</time>
      </trkpt>
      <trkpt lat="48.93617" lon="11.78612">
        <ele>349</ele>
        <time>2022-05-24T14:49:17Z</time>
      </trkpt>
      <trkpt lat="48.93559" lon="11.78681">
        <ele>349</ele>
        <time>2022-05-24T14:49:30Z</time>
      </trkpt>
      <trkpt lat="48.93457" lon="11.78783">
        <ele>349</ele>
        <time>2022-05-24T14:49:52Z</time>
      </trkpt>
      <trkpt lat="48.93161" lon="11.79013">
        <ele>350</ele>
        <time>2022-05-24T14:50:51Z</time>
      </trkpt>
      <trkpt lat="48.9314" lon="11.79036">
        <ele>350</ele>
        <time>2022-05-24T14:50:56Z</time>
      </trkpt>
      <trkpt lat="48.93099" lon="11.79113">
        <ele>349</ele>
        <time>2022-05-24T14:51:07Z</time>
      </trkpt>
      <trkpt lat="48.93041" lon="11.79232">
        <ele>348</ele>
        <time>2022-05-24T14:51:24Z</time>
      </trkpt>
      <trkpt lat="48.93001" lon="11.79336">
        <ele>349</ele>
        <time>2022-05-24T14:51:39Z</time>
      </trkpt>
      <trkpt lat="48.92964" lon="11.79326">
        <ele>348</ele>
        <time>2022-05-24T14:51:45Z</time>
      </trkpt>
      <trkpt lat="48.92918" lon="11.79323">
        <ele>347</ele>
        <time>2022-05-24T14:51:53Z</time>
      </trkpt>
      <trkpt lat="48.92888" lon="11.79308">
        <ele>349</ele>
        <time>2022-05-24T14:51:59Z</time>
      </trkpt>
      <trkpt lat="48.92879" lon="11.79311">
        <ele>349</ele>
        <time>2022-05-24T14:52:01Z</time>
      </trkpt>
      <trkpt lat="48.92838" lon="11.79361">
        <ele>348</ele>
        <time>2022-05-24T14:52:10Z</time>
      </trkpt>
      <trkpt lat="48.92757" lon="11.79487">
        <ele>350</ele>
        <time>2022-05-24T14:52:31Z</time>
      </trkpt>
      <trkpt lat="48.92674" lon="11.79635">
        <ele>349</ele>
        <time>2022-05-24T14:52:53Z</time>
      </trkpt>
      <trkpt lat="48.92664" lon="11.7967">
        <ele>349</ele>
        <time>2022-05-24T14:52:58Z</time>
      </trkpt>
      <trkpt lat="48.92665" lon="11.79709">
        <ele>348</ele>
        <time>2022-05-24T14:53:02Z</time>
      </trkpt>
      <trkpt lat="48.9271" lon="11.79753">
        <ele>349</ele>
        <time>2022-05-24T14:53:12Z</time>
      </trkpt>
      <trkpt lat="48.92726" lon="11.79777">
        <ele>349</ele>
        <time>2022-05-24T14:53:16Z</time>
      </trkpt>
      <trkpt lat="48.92713" lon="11.79792">
        <ele>349</ele>
        <time>2022-05-24T14:53:19Z</time>
      </trkpt>
      <trkpt lat="48.92654" lon="11.79773">
        <ele>348</ele>
        <time>2022-05-24T14:53:30Z</time>
      </trkpt>
      <trkpt lat="48.92627" lon="11.79784">
        <ele>348</ele>
        <time>2022-05-24T14:53:35Z</time>
      </trkpt>
      <trkpt lat="48.92598" lon="11.79807">
        <ele>348</ele>
        <time>2022-05-24T14:53:40Z</time>
      </trkpt>
      <trkpt lat="48.92581" lon="11.79845">
        <ele>349</ele>
        <time>2022-05-24T14:53:46Z</time>
      </trkpt>
      <trkpt lat="48.92551" lon="11.79945">
        <ele>348</ele>
        <time>2022-05-24T14:53:59Z</time>
      </trkpt>
      <trkpt lat="48.92524" lon="11.8004">
        <ele>348</ele>
        <time>2022-05-24T14:54:11Z</time>
      </trkpt>
      <trkpt lat="48.92513" lon="11.80095">
        <ele>348</ele>
        <time>2022-05-24T14:54:17Z</time>
      </trkpt>
      <trkpt lat="48.92495" lon="11.80197">
        <ele>348</ele>
        <time>2022-05-24T14:54:30Z</time>
      </trkpt>
      <trkpt lat="48.92494" lon="11.80241">
        <ele>349</ele>
        <time>2022-05-24T14:54:35Z</time>
      </trkpt>
      <trkpt lat="48.92534" lon="11.80541">
        <ele>350</ele>
        <time>2022-05-24T14:55:11Z</time>
      </trkpt>
      <trkpt lat="48.92544" lon="11.80585">
        <ele>350</ele>
        <time>2022-05-24T14:55:16Z</time>
      </trkpt>
      <trkpt lat="48.92501" lon="11.806">
        <ele>350</ele>
        <time>2022-05-24T14:55:24Z</time>
      </trkpt>
      <trkpt lat="48.92621" lon="11.81404">
        <ele>348</ele>
        <time>2022-05-24T14:57:00Z</time>
      </trkpt>
      <trkpt lat="48.92637" lon="11.81458">
        <ele>348</ele>
        <time>2022-05-24T14:57:07Z</time>
      </trkpt>
      <trkpt lat="48.92637" lon="11.81493">
        <ele>349</ele>
        <time>2022-05-24T14:57:11Z</time>
      </trkpt>
      <trkpt lat="48.9263" lon="11.81549">
        <ele>349</ele>
        <time>2022-05-24T14:57:18Z</time>
      </trkpt>
      <trkpt lat="48.9263" lon="11.81605">
        <ele>350</ele>
        <time>2022-05-24T14:57:25Z</time>
      </trkpt>
      <trkpt lat="48.92637" lon="11.8168">
        <ele>350</ele>
        <time>2022-05-24T14:57:33Z</time>
      </trkpt>
      <trkpt lat="48.92652" lon="11.81778">
        <ele>351</ele>
        <time>2022-05-24T14:57:45Z</time>
      </trkpt>
      <trkpt lat="48.92648" lon="11.81969">
        <ele>348</ele>
        <time>2022-05-24T14:58:08Z</time>
      </trkpt>
      <trkpt lat="48.92651" lon="11.82116">
        <ele>348</ele>
        <time>2022-05-24T14:58:25Z</time>
      </trkpt>
      <trkpt lat="48.92653" lon="11.82133">
        <ele>349</ele>
        <time>2022-05-24T14:58:27Z</time>
      </trkpt>
      <trkpt lat="48.92672" lon="11.82183">
        <ele>352</ele>
        <time>2022-05-24T14:58:34Z</time>
      </trkpt>
      <trkpt lat="48.92673" lon="11.82212">
        <ele>355</ele>
        <time>2022-05-24T14:58:37Z</time>
      </trkpt>
      <trkpt lat="48.92667" lon="11.82244">
        <ele>355</ele>
        <time>2022-05-24T14:58:41Z</time>
      </trkpt>
      <trkpt lat="48.92649" lon="11.82293">
        <ele>354</ele>
        <time>2022-05-24T14:58:47Z</time>
      </trkpt>
      <trkpt lat="48.92651" lon="11.82393">
        <ele>352</ele>
        <time>2022-05-24T14:58:59Z</time>
      </trkpt>
      <trkpt lat="48.92636" lon="11.82455">
        <ele>351</ele>
        <time>2022-05-24T14:59:07Z</time>
      </trkpt>
      <trkpt lat="48.92613" lon="11.82642">
        <ele>350</ele>
        <time>2022-05-24T14:59:29Z</time>
      </trkpt>
      <trkpt lat="48.92577" lon="11.82844">
        <ele>349</ele>
        <time>2022-05-24T14:59:53Z</time>
      </trkpt>
      <trkpt lat="48.92554" lon="11.83018">
        <ele>349</ele>
        <time>2022-05-24T15:00:14Z</time>
      </trkpt>
      <trkpt lat="48.92551" lon="11.83092">
        <ele>350</ele>
        <time>2022-05-24T15:00:23Z</time>
      </trkpt>
      <trkpt lat="48.92561" lon="11.8321">
        <ele>351</ele>
        <time>2022-05-24T15:00:37Z</time>
      </trkpt>
      <trkpt lat="48.92544" lon="11.84123">
        <ele>354</ele>
        <time>2022-05-24T15:02:24Z</time>
      </trkpt>
      <trkpt lat="48.92535" lon="11.84202">
        <ele>353</ele>
        <time>2022-05-24T15:02:33Z</time>
      </trkpt>
      <trkpt lat="48.92512" lon="11.84307">
        <ele>348</ele>
        <time>2022-05-24T15:02:46Z</time>
      </trkpt>
      <trkpt lat="48.92457" lon="11.85171">
        <ele>344</ele>
        <time>2022-05-24T15:04:27Z</time>
      </trkpt>
      <trkpt lat="48.92474" lon="11.85173">
        <ele>346</ele>
        <time>2022-05-24T15:04:30Z</time>
      </trkpt>
      <trkpt lat="48.92472" lon="11.85236">
        <ele>345</ele>
        <time>2022-05-24T15:04:38Z</time>
      </trkpt>
      <trkpt lat="48.92481" lon="11.8546">
        <ele>345</ele>
        <time>2022-05-24T15:05:04Z</time>
      </trkpt>
      <trkpt lat="48.92496" lon="11.85555">
        <ele>347</ele>
        <time>2022-05-24T15:05:15Z</time>
      </trkpt>
      <trkpt lat="48.92486" lon="11.85734">
        <ele>348</ele>
        <time>2022-05-24T15:05:36Z</time>
      </trkpt>
      <trkpt lat="48.9249" lon="11.85752">
        <ele>348</ele>
        <time>2022-05-24T15:05:39Z</time>
      </trkpt>
      <trkpt lat="48.92444" lon="11.85991">
        <ele>349</ele>
        <time>2022-05-24T15:06:08Z</time>
      </trkpt>
      <trkpt lat="48.92426" lon="11.86119">
        <ele>348</ele>
        <time>2022-05-24T15:06:23Z</time>
      </trkpt>
      <trkpt lat="48.92413" lon="11.86144">
        <ele>347</ele>
        <time>2022-05-24T15:06:27Z</time>
      </trkpt>
      <trkpt lat="48.92387" lon="11.86156">
        <ele>346</ele>
        <time>2022-05-24T15:06:32Z</time>
      </trkpt>
      <trkpt lat="48.92381" lon="11.86165">
        <ele>346</ele>
        <time>2022-05-24T15:06:33Z</time>
      </trkpt>
      <trkpt lat="48.92353" lon="11.86393">
        <ele>346</ele>
        <time>2022-05-24T15:07:00Z</time>
      </trkpt>
      <trkpt lat="48.92342" lon="11.86447">
        <ele>346</ele>
        <time>2022-05-24T15:07:07Z</time>
      </trkpt>
      <trkpt lat="48.92347" lon="11.86638">
        <ele>350</ele>
        <time>2022-05-24T15:07:29Z</time>
      </trkpt>
      <trkpt lat="48.92323" lon="11.86799">
        <ele>349</ele>
        <time>2022-05-24T15:07:49Z</time>
      </trkpt>
      <trkpt lat="48.92312" lon="11.86816">
        <ele>349</ele>
        <time>2022-05-24T15:07:51Z</time>
      </trkpt>
      <trkpt lat="48.92269" lon="11.86827">
        <ele>345</ele>
        <time>2022-05-24T15:07:59Z</time>
      </trkpt>
      <trkpt lat="48.92263" lon="11.86834">
        <ele>344</ele>
        <time>2022-05-24T15:08:00Z</time>
      </trkpt>
      <trkpt lat="48.92238" lon="11.86916">
        <ele>344</ele>
        <time>2022-05-24T15:08:11Z</time>
      </trkpt>
      <trkpt lat="48.92204" lon="11.87054">
        <ele>344</ele>
        <time>2022-05-24T15:08:28Z</time>
      </trkpt>
      <trkpt lat="48.9218" lon="11.8711">
        <ele>342</ele>
        <time>2022-05-24T15:08:36Z</time>
      </trkpt>
      <trkpt lat="48.92177" lon="11.87131">
        <ele>342</ele>
        <time>2022-05-24T15:08:39Z</time>
      </trkpt>
      <trkpt lat="48.92131" lon="11.87262">
        <ele>344</ele>
        <time>2022-05-24T15:08:56Z</time>
      </trkpt>
      <trkpt lat="48.92101" lon="11.87357">
        <ele>344</ele>
        <time>2022-05-24T15:09:08Z</time>
      </trkpt>
      <trkpt lat="48.92099" lon="11.87356">
        <ele>344</ele>
        <time>2022-05-24T15:09:09Z</time>
      </trkpt>
      <trkpt lat="48.92082" lon="11.87414">
        <ele>343</ele>
        <time>2022-05-24T15:09:16Z</time>
      </trkpt>
      <trkpt lat="48.92069" lon="11.87449">
        <ele>344</ele>
        <time>2022-05-24T15:09:21Z</time>
      </trkpt>
      <trkpt lat="48.92075" lon="11.87469">
        <ele>345</ele>
        <time>2022-05-24T15:09:23Z</time>
      </trkpt>
      <trkpt lat="48.92" lon="11.87631">
        <ele>342</ele>
        <time>2022-05-24T15:09:46Z</time>
      </trkpt>
      <trkpt lat="48.91943" lon="11.87779">
        <ele>343</ele>
        <time>2022-05-24T15:10:07Z</time>
      </trkpt>
      <trkpt lat="48.91961" lon="11.87923">
        <ele>345</ele>
        <time>2022-05-24T15:10:24Z</time>
      </trkpt>
      <trkpt lat="48.91967" lon="11.87941">
        <ele>345</ele>
        <time>2022-05-24T15:10:26Z</time>
      </trkpt>
      <trkpt lat="48.91953" lon="11.87975">
        <ele>345</ele>
        <time>2022-05-24T15:10:31Z</time>
      </trkpt>
      <trkpt lat="48.91934" lon="11.88105">
        <ele>344</ele>
        <time>2022-05-24T15:10:46Z</time>
      </trkpt>
      <trkpt lat="48.91915" lon="11.88206">
        <ele>344</ele>
        <time>2022-05-24T15:10:59Z</time>
      </trkpt>
      <trkpt lat="48.91889" lon="11.88285">
        <ele>344</ele>
        <time>2022-05-24T15:11:09Z</time>
      </trkpt>
      <trkpt lat="48.91832" lon="11.88425">
        <ele>342</ele>
        <time>2022-05-24T15:11:28Z</time>
      </trkpt>
      <trkpt lat="48.91804" lon="11.88514">
        <ele>343</ele>
        <time>2022-05-24T15:11:40Z</time>
      </trkpt>
      <trkpt lat="48.91785" lon="11.88653">
        <ele>346</ele>
        <time>2022-05-24T15:11:56Z</time>
      </trkpt>
      <trkpt lat="48.91778" lon="11.88755">
        <ele>345</ele>
        <time>2022-05-24T15:12:08Z</time>
      </trkpt>
      <trkpt lat="48.91784" lon="11.89098">
        <ele>345</ele>
        <time>2022-05-24T15:12:48Z</time>
      </trkpt>
      <trkpt lat="48.91778" lon="11.89202">
        <ele>346</ele>
        <time>2022-05-24T15:13:01Z</time>
      </trkpt>
      <trkpt lat="48.91762" lon="11.89317">
        <ele>346</ele>
        <time>2022-05-24T15:13:14Z</time>
      </trkpt>
      <trkpt lat="48.91749" lon="11.8933">
        <ele>347</ele>
        <time>2022-05-24T15:13:17Z</time>
      </trkpt>
      <trkpt lat="48.9175" lon="11.89346">
        <ele>347</ele>
        <time>2022-05-24T15:13:19Z</time>
      </trkpt>
      <trkpt lat="48.91757" lon="11.89356">
        <ele>347</ele>
        <time>2022-05-24T15:13:21Z</time>
      </trkpt>
      <trkpt lat="48.91703" lon="11.89713">
        <ele>347</ele>
        <time>2022-05-24T15:14:04Z</time>
      </trkpt>
      <trkpt lat="48.91609" lon="11.90166">
        <ele>346</ele>
        <time>2022-05-24T15:14:59Z</time>
      </trkpt>
      <trkpt lat="48.91581" lon="11.90347">
        <ele>346</ele>
        <time>2022-05-24T15:15:21Z</time>
      </trkpt>
      <trkpt lat="48.9154" lon="11.90657">
        <ele>343</ele>
        <time>2022-05-24T15:15:58Z</time>
      </trkpt>
      <trkpt lat="48.91419" lon="11.91346">
        <ele>346</ele>
        <time>2022-05-24T15:17:21Z</time>
      </trkpt>
      <trkpt lat="48.91417" lon="11.91414">
        <ele>345</ele>
        <time>2022-05-24T15:17:29Z</time>
      </trkpt>
      <trkpt lat="48.91432" lon="11.91528">
        <ele>346</ele>
        <time>2022-05-24T15:17:43Z</time>
      </trkpt>
      <trkpt lat="48.91438" lon="11.91627">
        <ele>346</ele>
        <time>2022-05-24T15:17:54Z</time>
      </trkpt>
      <trkpt lat="48.91429" lon="11.91822">
        <ele>344</ele>
        <time>2022-05-24T15:18:17Z</time>
      </trkpt>
      <trkpt lat="48.9141" lon="11.91899">
        <ele>343</ele>
        <time>2022-05-24T15:18:27Z</time>
      </trkpt>
      <trkpt lat="48.91362" lon="11.9202">
        <ele>342</ele>
        <time>2022-05-24T15:18:43Z</time>
      </trkpt>
      <trkpt lat="48.91352" lon="11.92062">
        <ele>342</ele>
        <time>2022-05-24T15:18:49Z</time>
      </trkpt>
      <trkpt lat="48.91356" lon="11.92154">
        <ele>341</ele>
        <time>2022-05-24T15:18:59Z</time>
      </trkpt>
      <trkpt lat="48.91349" lon="11.9216">
        <ele>341</ele>
        <time>2022-05-24T15:19:01Z</time>
      </trkpt>
      <trkpt lat="48.91347" lon="11.92217">
        <ele>341</ele>
        <time>2022-05-24T15:19:08Z</time>
      </trkpt>
      <trkpt lat="48.91323" lon="11.92342">
        <ele>343</ele>
        <time>2022-05-24T15:19:23Z</time>
      </trkpt>
      <trkpt lat="48.9133" lon="11.92529">
        <ele>344</ele>
        <time>2022-05-24T15:19:45Z</time>
      </trkpt>
      <trkpt lat="48.91249" lon="11.92603">
        <ele>344</ele>
        <time>2022-05-24T15:20:01Z</time>
      </trkpt>
      <trkpt lat="48.91241" lon="11.92625">
        <ele>343</ele>
        <time>2022-05-24T15:20:04Z</time>
      </trkpt>
      <trkpt lat="48.91247" lon="11.92778">
        <ele>339</ele>
        <time>2022-05-24T15:20:22Z</time>
      </trkpt>
      <trkpt lat="48.91216" lon="11.92991">
        <ele>342</ele>
        <time>2022-05-24T15:20:48Z</time>
      </trkpt>
      <trkpt lat="48.91207" lon="11.93095">
        <ele>345</ele>
        <time>2022-05-24T15:21:00Z</time>
      </trkpt>
      <trkpt lat="48.9119" lon="11.93222">
        <ele>348</ele>
        <time>2022-05-24T15:21:15Z</time>
      </trkpt>
      <trkpt lat="48.91161" lon="11.93355">
        <ele>347</ele>
        <time>2022-05-24T15:21:32Z</time>
      </trkpt>
      <trkpt lat="48.91131" lon="11.93464">
        <ele>351</ele>
        <time>2022-05-24T15:21:45Z</time>
      </trkpt>
      <trkpt lat="48.90843" lon="11.942">
        <ele>344</ele>
        <time>2022-05-24T15:23:26Z</time>
      </trkpt>
      <trkpt lat="48.90835" lon="11.94234">
        <ele>343</ele>
        <time>2022-05-24T15:23:30Z</time>
      </trkpt>
      <trkpt lat="48.90843" lon="11.94244">
        <ele>344</ele>
        <time>2022-05-24T15:23:32Z</time>
      </trkpt>
      <trkpt lat="48.90837" lon="11.94251">
        <ele>344</ele>
        <time>2022-05-24T15:23:33Z</time>
      </trkpt>
      <trkpt lat="48.90806" lon="11.94335">
        <ele>343</ele>
        <time>2022-05-24T15:23:44Z</time>
      </trkpt>
      <trkpt lat="48.90757" lon="11.94521">
        <ele>342</ele>
        <time>2022-05-24T15:24:08Z</time>
      </trkpt>
      <trkpt lat="48.90757" lon="11.9455">
        <ele>342</ele>
        <time>2022-05-24T15:24:11Z</time>
      </trkpt>
      <trkpt lat="48.90774" lon="11.94584">
        <ele>344</ele>
        <time>2022-05-24T15:24:16Z</time>
      </trkpt>
      <trkpt lat="48.90778" lon="11.94631">
        <ele>345</ele>
        <time>2022-05-24T15:24:22Z</time>
      </trkpt>
      <trkpt lat="48.9076" lon="11.94669">
        <ele>344</ele>
        <time>2022-05-24T15:24:27Z</time>
      </trkpt>
      <trkpt lat="48.90737" lon="11.94772">
        <ele>344</ele>
        <time>2022-05-24T15:24:40Z</time>
      </trkpt>
      <trkpt lat="48.90745" lon="11.94802">
        <ele>344</ele>
        <time>2022-05-24T15:24:44Z</time>
      </trkpt>
      <trkpt lat="48.90818" lon="11.94802">
        <ele>351</ele>
        <time>2022-05-24T15:24:57Z</time>
      </trkpt>
      <trkpt lat="48.90838" lon="11.94813">
        <ele>352</ele>
        <time>2022-05-24T15:25:00Z</time>
      </trkpt>
      <trkpt lat="48.90843" lon="11.9483">
        <ele>352</ele>
        <time>2022-05-24T15:25:03Z</time>
      </trkpt>
      <trkpt lat="48.90841" lon="11.94851">
        <ele>351</ele>
        <time>2022-05-24T15:25:05Z</time>
      </trkpt>
      <trkpt lat="48.90874" lon="11.95106">
        <ele>347</ele>
        <time>2022-05-24T15:25:35Z</time>
      </trkpt>
      <trkpt lat="48.90924" lon="11.95304">
        <ele>345</ele>
        <time>2022-05-24T15:26:00Z</time>
      </trkpt>
      <trkpt lat="48.90967" lon="11.95428">
        <ele>345</ele>
        <time>2022-05-24T15:26:17Z</time>
      </trkpt>
      <trkpt lat="48.90983" lon="11.95503">
        <ele>344</ele>
        <time>2022-05-24T15:26:26Z</time>
      </trkpt>
      <trkpt lat="48.91025" lon="11.95625">
        <ele>344</ele>
        <time>2022-05-24T15:26:42Z</time>
      </trkpt>
      <trkpt lat="48.91095" lon="11.95788">
        <ele>345</ele>
        <time>2022-05-24T15:27:05Z</time>
      </trkpt>
      <trkpt lat="48.91132" lon="11.95864">
        <ele>344</ele>
        <time>2022-05-24T15:27:16Z</time>
      </trkpt>
      <trkpt lat="48.91172" lon="11.95925">
        <ele>345</ele>
        <time>2022-05-24T15:27:26Z</time>
      </trkpt>
      <trkpt lat="48.91217" lon="11.96093">
        <ele>344</ele>
        <time>2022-05-24T15:27:47Z</time>
      </trkpt>
      <trkpt lat="48.91289" lon="11.96203">
        <ele>346</ele>
        <time>2022-05-24T15:28:05Z</time>
      </trkpt>
      <trkpt lat="48.91326" lon="11.96282">
        <ele>346</ele>
        <time>2022-05-24T15:28:17Z</time>
      </trkpt>
      <trkpt lat="48.91432" lon="11.96617">
        <ele>342</ele>
        <time>2022-05-24T15:29:00Z</time>
      </trkpt>
      <trkpt lat="48.9148" lon="11.96858">
        <ele>339</ele>
        <time>2022-05-24T15:29:30Z</time>
      </trkpt>
      <trkpt lat="48.91553" lon="11.96851">
        <ele>339</ele>
        <time>2022-05-24T15:29:43Z</time>
      </trkpt>
      <trkpt lat="48.91651" lon="11.96875">
        <ele>340</ele>
        <time>2022-05-24T15:30:00Z</time>
      </trkpt>
      <trkpt lat="48.91877" lon="11.96988">
        <ele>341</ele>
        <time>2022-05-24T15:30:43Z</time>
      </trkpt>
      <trkpt lat="48.92021" lon="11.9705">
        <ele>342</ele>
        <time>2022-05-24T15:31:09Z</time>
      </trkpt>
      <trkpt lat="48.92131" lon="11.97132">
        <ele>344</ele>
        <time>2022-05-24T15:31:31Z</time>
      </trkpt>
      <trkpt lat="48.92136" lon="11.97126">
        <ele>345</ele>
        <time>2022-05-24T15:31:32Z</time>
      </trkpt>
      <trkpt lat="48.92165" lon="11.97158">
        <ele>345</ele>
        <time>2022-05-24T15:31:38Z</time>
      </trkpt>
      <trkpt lat="48.92444" lon="11.97562">
        <ele>352</ele>
        <time>2022-05-24T15:32:47Z</time>
      </trkpt>
      <trkpt lat="48.92638" lon="11.97824">
        <ele>341</ele>
        <time>2022-05-24T15:33:33Z</time>
      </trkpt>
      <trkpt lat="48.9273" lon="11.97926">
        <ele>339</ele>
        <time>2022-05-24T15:33:53Z</time>
      </trkpt>
      <trkpt lat="48.9289" lon="11.98087">
        <ele>341</ele>
        <time>2022-05-24T15:34:28Z</time>
      </trkpt>
      <trkpt lat="48.92881" lon="11.98113">
        <ele>341</ele>
        <time>2022-05-24T15:34:31Z</time>
      </trkpt>
      <trkpt lat="48.92882" lon="11.98131">
        <ele>340</ele>
        <time>2022-05-24T15:34:33Z</time>
      </trkpt>
      <trkpt lat="48.92896" lon="11.98187">
        <ele>340</ele>
        <time>2022-05-24T15:34:40Z</time>
      </trkpt>
      <trkpt lat="48.92933" lon="11.98407">
        <ele>339</ele>
        <time>2022-05-24T15:35:07Z</time>
      </trkpt>
      <trkpt lat="48.92956" lon="11.98492">
        <ele>337</ele>
        <time>2022-05-24T15:35:17Z</time>
      </trkpt>
      <trkpt lat="48.92988" lon="11.98585">
        <ele>338</ele>
        <time>2022-05-24T15:35:30Z</time>
      </trkpt>
      <trkpt lat="48.93083" lon="11.98802">
        <ele>339</ele>
        <time>2022-05-24T15:36:00Z</time>
      </trkpt>
      <trkpt lat="48.93133" lon="11.9898">
        <ele>342</ele>
        <time>2022-05-24T15:36:23Z</time>
      </trkpt>
      <trkpt lat="48.93186" lon="11.99258">
        <ele>340</ele>
        <time>2022-05-24T15:36:57Z</time>
      </trkpt>
      <trkpt lat="48.93201" lon="11.99363">
        <ele>341</ele>
        <time>2022-05-24T15:37:09Z</time>
      </trkpt>
      <trkpt lat="48.93209" lon="11.99469">
        <ele>347</ele>
        <time>2022-05-24T15:37:22Z</time>
      </trkpt>
      <trkpt lat="48.9321" lon="11.99678">
        <ele>351</ele>
        <time>2022-05-24T15:37:46Z</time>
      </trkpt>
      <trkpt lat="48.93202" lon="11.99805">
        <ele>347</ele>
        <time>2022-05-24T15:38:01Z</time>
      </trkpt>
      <trkpt lat="48.93184" lon="11.99927">
        <ele>344</ele>
        <time>2022-05-24T15:38:16Z</time>
      </trkpt>
      <trkpt lat="48.93156" lon="12.00049">
        <ele>347</ele>
        <time>2022-05-24T15:38:31Z</time>
      </trkpt>
      <trkpt lat="48.93124" lon="12.00144">
        <ele>355</ele>
        <time>2022-05-24T15:38:43Z</time>
      </trkpt>
      <trkpt lat="48.93017" lon="12.00416">
        <ele>350</ele>
        <time>2022-05-24T15:39:20Z</time>
      </trkpt>
      <trkpt lat="48.92991" lon="12.00501">
        <ele>352</ele>
        <time>2022-05-24T15:39:31Z</time>
      </trkpt>
      <trkpt lat="48.92922" lon="12.00805">
        <ele>339</ele>
        <time>2022-05-24T15:40:09Z</time>
      </trkpt>
      <trkpt lat="48.9287" lon="12.01007">
        <ele>339</ele>
        <time>2022-05-24T15:40:34Z</time>
      </trkpt>
      <trkpt lat="48.92869" lon="12.01053">
        <ele>339</ele>
        <time>2022-05-24T15:40:40Z</time>
      </trkpt>
      <trkpt lat="48.92882" lon="12.01103">
        <ele>340</ele>
        <time>2022-05-24T15:40:46Z</time>
      </trkpt>
      <trkpt lat="48.92901" lon="12.01134">
        <ele>343</ele>
        <time>2022-05-24T15:40:51Z</time>
      </trkpt>
      <trkpt lat="48.92943" lon="12.01172">
        <ele>345</ele>
        <time>2022-05-24T15:40:59Z</time>
      </trkpt>
      <trkpt lat="48.93028" lon="12.01225">
        <ele>346</ele>
        <time>2022-05-24T15:41:16Z</time>
      </trkpt>
      <trkpt lat="48.93003" lon="12.01296">
        <ele>345</ele>
        <time>2022-05-24T15:41:25Z</time>
      </trkpt>
      <trkpt lat="48.92956" lon="12.01405">
        <ele>343</ele>
        <time>2022-05-24T15:41:40Z</time>
      </trkpt>
      <trkpt lat="48.92951" lon="12.01482">
        <ele>343</ele>
        <time>2022-05-24T15:41:50Z</time>
      </trkpt>
      <trkpt lat="48.92947" lon="12.01493">
        <ele>343</ele>
        <time>2022-05-24T15:41:51Z</time>
      </trkpt>
      <trkpt lat="48.92931" lon="12.01509">
        <ele>343</ele>
        <time>2022-05-24T15:41:54Z</time>
      </trkpt>
      <trkpt lat="48.92928" lon="12.01522">
        <ele>343</ele>
        <time>2022-05-24T15:41:56Z</time>
      </trkpt>
      <trkpt lat="48.92932" lon="12.01568">
        <ele>342</ele>
        <time>2022-05-24T15:42:01Z</time>
      </trkpt>
      <trkpt lat="48.92867" lon="12.01569">
        <ele>340</ele>
        <time>2022-05-24T15:42:13Z</time>
      </trkpt>
      <trkpt lat="48.92877" lon="12.01412">
        <ele>342</ele>
        <time>2022-05-24T15:42:31Z</time>
      </trkpt>
      <trkpt lat="48.92868" lon="12.01385">
        <ele>342</ele>
        <time>2022-05-24T15:42:35Z</time>
      </trkpt>
      <trkpt lat="48.92842" lon="12.01361">
        <ele>341</ele>
        <time>2022-05-24T15:42:40Z</time>
      </trkpt>
      <trkpt lat="48.92576" lon="12.01353">
        <ele>340</ele>
        <time>2022-05-24T15:43:28Z</time>
      </trkpt>
      <trkpt lat="48.92555" lon="12.01356">
        <ele>342</ele>
        <time>2022-05-24T15:43:31Z</time>
      </trkpt>
      <trkpt lat="48.92532" lon="12.01368">
        <ele>344</ele>
        <time>2022-05-24T15:43:36Z</time>
      </trkpt>
      <trkpt lat="48.92529" lon="12.01331">
        <ele>345</ele>
        <time>2022-05-24T15:43:40Z</time>
      </trkpt>
      <trkpt lat="48.92532" lon="12.01314">
        <ele>344</ele>
        <time>2022-05-24T15:43:42Z</time>
      </trkpt>
      <trkpt lat="48.92553" lon="12.013">
        <ele>342</ele>
        <time>2022-05-24T15:43:46Z</time>
      </trkpt>
      <trkpt lat="48.92588" lon="12.01289">
        <ele>339</ele>
        <time>2022-05-24T15:43:53Z</time>
      </trkpt>
      <trkpt lat="48.92597" lon="12.01305">
        <ele>339</ele>
        <time>2022-05-24T15:43:55Z</time>
      </trkpt>
      <trkpt lat="48.92601" lon="12.01341">
        <ele>339</ele>
        <time>2022-05-24T15:43:59Z</time>
      </trkpt>
      <trkpt lat="48.92598" lon="12.0138">
        <ele>338</ele>
        <time>2022-05-24T15:44:04Z</time>
      </trkpt>
      <trkpt lat="48.92555" lon="12.01383">
        <ele>341</ele>
        <time>2022-05-24T15:44:12Z</time>
      </trkpt>
      <trkpt lat="48.92557" lon="12.01432">
        <ele>340</ele>
        <time>2022-05-24T15:44:17Z</time>
      </trkpt>
      <trkpt lat="48.92554" lon="12.01457">
        <ele>340</ele>
        <time>2022-05-24T15:44:20Z</time>
      </trkpt>
      <trkpt lat="48.92513" lon="12.01537">
        <ele>342</ele>
        <time>2022-05-24T15:44:32Z</time>
      </trkpt>
      <trkpt lat="48.92511" lon="12.01553">
        <ele>342</ele>
        <time>2022-05-24T15:44:34Z</time>
      </trkpt>
      <trkpt lat="48.92525" lon="12.01608">
        <ele>343</ele>
        <time>2022-05-24T15:44:41Z</time>
      </trkpt>
      <trkpt lat="48.92616" lon="12.01825">
        <ele>349</ele>
        <time>2022-05-24T15:45:11Z</time>
      </trkpt>
      <trkpt lat="48.92634" lon="12.01847">
        <ele>348</ele>
        <time>2022-05-24T15:45:15Z</time>
      </trkpt>
      <trkpt lat="48.92655" lon="12.01895">
        <ele>348</ele>
        <time>2022-05-24T15:45:22Z</time>
      </trkpt>
      <trkpt lat="48.92663" lon="12.01927">
        <ele>350</ele>
        <time>2022-05-24T15:45:26Z</time>
      </trkpt>
      <trkpt lat="48.92744" lon="12.021">
        <ele>348</ele>
        <time>2022-05-24T15:45:51Z</time>
      </trkpt>
      <trkpt lat="48.92792" lon="12.02279">
        <ele>355</ele>
        <time>2022-05-24T15:46:13Z</time>
      </trkpt>
      <trkpt lat="48.92812" lon="12.02415">
        <ele>351</ele>
        <time>2022-05-24T15:46:30Z</time>
      </trkpt>
      <trkpt lat="48.92821" lon="12.02432">
        <ele>348</ele>
        <time>2022-05-24T15:46:32Z</time>
      </trkpt>
      <trkpt lat="48.92839" lon="12.02555">
        <ele>349</ele>
        <time>2022-05-24T15:46:47Z</time>
      </trkpt>
      <trkpt lat="48.92863" lon="12.02682">
        <ele>353</ele>
        <time>2022-05-24T15:47:02Z</time>
      </trkpt>
      <trkpt lat="48.92887" lon="12.02765">
        <ele>353</ele>
        <time>2022-05-24T15:47:13Z</time>
      </trkpt>
      <trkpt lat="48.9292" lon="12.02856">
        <ele>342</ele>
        <time>2022-05-24T15:47:25Z</time>
      </trkpt>
      <trkpt lat="48.93043" lon="12.03091">
        <ele>340</ele>
        <time>2022-05-24T15:48:00Z</time>
      </trkpt>
      <trkpt lat="48.93069" lon="12.03073">
        <ele>339</ele>
        <time>2022-05-24T15:48:05Z</time>
      </trkpt>
      <trkpt lat="48.93078" lon="12.03073">
        <ele>339</ele>
        <time>2022-05-24T15:48:07Z</time>
      </trkpt>
      <trkpt lat="48.93141" lon="12.03097">
        <ele>336</ele>
        <time>2022-05-24T15:48:19Z</time>
      </trkpt>
      <trkpt lat="48.93306" lon="12.03425">
        <ele>338</ele>
        <time>2022-05-24T15:49:07Z</time>
      </trkpt>
      <trkpt lat="48.93369" lon="12.03538">
        <ele>340</ele>
        <time>2022-05-24T15:49:24Z</time>
      </trkpt>
      <trkpt lat="48.93432" lon="12.03621">
        <ele>338</ele>
        <time>2022-05-24T15:49:39Z</time>
      </trkpt>
      <trkpt lat="48.9344" lon="12.03685">
        <ele>338</ele>
        <time>2022-05-24T15:49:47Z</time>
      </trkpt>
      <trkpt lat="48.9343" lon="12.03708">
        <ele>338</ele>
        <time>2022-05-24T15:49:50Z</time>
      </trkpt>
      <trkpt lat="48.93421" lon="12.03738">
        <ele>337</ele>
        <time>2022-05-24T15:49:54Z</time>
      </trkpt>
      <trkpt lat="48.93471" lon="12.03788">
        <ele>338</ele>
        <time>2022-05-24T15:50:04Z</time>
      </trkpt>
      <trkpt lat="48.93433" lon="12.03881">
        <ele>341</ele>
        <time>2022-05-24T15:50:17Z</time>
      </trkpt>
      <trkpt lat="48.93456" lon="12.03913">
        <ele>341</ele>
        <time>2022-05-24T15:50:23Z</time>
      </trkpt>
      <trkpt lat="48.93466" lon="12.03946">
        <ele>342</ele>
        <time>2022-05-24T15:50:27Z</time>
      </trkpt>
      <trkpt lat="48.93466" lon="12.03975">
        <ele>344</ele>
        <time>2022-05-24T15:50:30Z</time>
      </trkpt>
      <trkpt lat="48.93575" lon="12.04016">
        <ele>343</ele>
        <time>2022-05-24T15:50:50Z</time>
      </trkpt>
      <trkpt lat="48.93606" lon="12.0403">
        <ele>342</ele>
        <time>2022-05-24T15:50:56Z</time>
      </trkpt>
      <trkpt lat="48.93651" lon="12.04055">
        <ele>340</ele>
        <time>2022-05-24T15:51:05Z</time>
      </trkpt>
      <trkpt lat="48.93676" lon="12.04055">
        <ele>339</ele>
        <time>2022-05-24T15:51:09Z</time>
      </trkpt>
      <trkpt lat="48.93737" lon="12.04072">
        <ele>338</ele>
        <time>2022-05-24T15:51:20Z</time>
      </trkpt>
      <trkpt lat="48.93836" lon="12.04081">
        <ele>339</ele>
        <time>2022-05-24T15:51:38Z</time>
      </trkpt>
      <trkpt lat="48.93878" lon="12.04099">
        <ele>340</ele>
        <time>2022-05-24T15:51:45Z</time>
      </trkpt>
      <trkpt lat="48.9388" lon="12.04141">
        <ele>341</ele>
        <time>2022-05-24T15:51:50Z</time>
      </trkpt>
      <trkpt lat="48.93878" lon="12.04309">
        <ele>349</ele>
        <time>2022-05-24T15:52:10Z</time>
      </trkpt>
      <trkpt lat="48.93885" lon="12.04594">
        <ele>362</ele>
        <time>2022-05-24T15:52:43Z</time>
      </trkpt>
      <trkpt lat="48.93913" lon="12.04647">
        <ele>363</ele>
        <time>2022-05-24T15:52:51Z</time>
      </trkpt>
      <trkpt lat="48.93958" lon="12.047">
        <ele>364</ele>
        <time>2022-05-24T15:53:01Z</time>
      </trkpt>
      <trkpt lat="48.94015" lon="12.04792">
        <ele>368</ele>
        <time>2022-05-24T15:53:16Z</time>
      </trkpt>
      <trkpt lat="48.9401" lon="12.04812">
        <ele>368</ele>
        <time>2022-05-24T15:53:19Z</time>
      </trkpt>
      <trkpt lat="48.94012" lon="12.04819">
        <ele>368</ele>
        <time>2022-05-24T15:53:20Z</time>
      </trkpt>
      <trkpt lat="48.94027" lon="12.04824">
        <ele>369</ele>
        <time>2022-05-24T15:53:22Z</time>
      </trkpt>
      <trkpt lat="48.94033" lon="12.04811">
        <ele>369</ele>
        <time>2022-05-24T15:53:24Z</time>
      </trkpt>
      <trkpt lat="48.94032" lon="12.04797">
        <ele>369</ele>
        <time>2022-05-24T15:53:26Z</time>
      </trkpt>
      <trkpt lat="48.94069" lon="12.04753">
        <ele>370</ele>
        <time>2022-05-24T15:53:34Z</time>
      </trkpt>
      <trkpt lat="48.94154" lon="12.04675">
        <ele>374</ele>
        <time>2022-05-24T15:53:52Z</time>
      </trkpt>
      <trkpt lat="48.94206" lon="12.04657">
        <ele>376</ele>
        <time>2022-05-24T15:54:01Z</time>
      </trkpt>
      <trkpt lat="48.94208" lon="12.04668">
        <ele>377</ele>
        <time>2022-05-24T15:54:03Z</time>
      </trkpt>
      <trkpt lat="48.94336" lon="12.04625">
        <ele>384</ele>
        <time>2022-05-24T15:54:26Z</time>
      </trkpt>
      <trkpt lat="48.94389" lon="12.04598">
        <ele>386</ele>
        <time>2022-05-24T15:54:36Z</time>
      </trkpt>
      <trkpt lat="48.94442" lon="12.04546">
        <ele>386</ele>
        <time>2022-05-24T15:54:47Z</time>
      </trkpt>
      <trkpt lat="48.94545" lon="12.04526">
        <ele>392</ele>
        <time>2022-05-24T15:55:06Z</time>
      </trkpt>
      <trkpt lat="48.94721" lon="12.04441">
        <ele>398</ele>
        <time>2022-05-24T15:55:38Z</time>
      </trkpt>
      <trkpt lat="48.94752" lon="12.04414">
        <ele>399</ele>
        <time>2022-05-24T15:55:45Z</time>
      </trkpt>
      <trkpt lat="48.94832" lon="12.04362">
        <ele>405</ele>
        <time>2022-05-24T15:56:00Z</time>
      </trkpt>
      <trkpt lat="48.94892" lon="12.04344">
        <ele>410</ele>
        <time>2022-05-24T15:56:11Z</time>
      </trkpt>
      <trkpt lat="48.94992" lon="12.04342">
        <ele>415</ele>
        <time>2022-05-24T15:56:29Z</time>
      </trkpt>
      <trkpt lat="48.95074" lon="12.04314">
        <ele>411</ele>
        <time>2022-05-24T15:56:44Z</time>
      </trkpt>
      <trkpt lat="48.95106" lon="12.04315">
        <ele>409</ele>
        <time>2022-05-24T15:56:50Z</time>
      </trkpt>
      <trkpt lat="48.95135" lon="12.04324">
        <ele>407</ele>
        <time>2022-05-24T15:56:55Z</time>
      </trkpt>
      <trkpt lat="48.9519" lon="12.04361">
        <ele>405</ele>
        <time>2022-05-24T15:57:06Z</time>
      </trkpt>
      <trkpt lat="48.95298" lon="12.04416">
        <ele>405</ele>
        <time>2022-05-24T15:57:26Z</time>
      </trkpt>
      <trkpt lat="48.95398" lon="12.04448">
        <ele>403</ele>
        <time>2022-05-24T15:57:44Z</time>
      </trkpt>
      <trkpt lat="48.95509" lon="12.04538">
        <ele>403</ele>
        <time>2022-05-24T15:58:06Z</time>
      </trkpt>
      <trkpt lat="48.95543" lon="12.04576">
        <ele>400</ele>
        <time>2022-05-24T15:58:14Z</time>
      </trkpt>
      <trkpt lat="48.95603" lon="12.04726">
        <ele>393</ele>
        <time>2022-05-24T15:58:34Z</time>
      </trkpt>
      <trkpt lat="48.95616" lon="12.04739">
        <ele>391</ele>
        <time>2022-05-24T15:58:37Z</time>
      </trkpt>
      <trkpt lat="48.95643" lon="12.04749">
        <ele>388</ele>
        <time>2022-05-24T15:58:42Z</time>
      </trkpt>
      <trkpt lat="48.95656" lon="12.04743">
        <ele>386</ele>
        <time>2022-05-24T15:58:45Z</time>
      </trkpt>
      <trkpt lat="48.95699" lon="12.04773">
        <ele>384</ele>
        <time>2022-05-24T15:58:53Z</time>
      </trkpt>
      <trkpt lat="48.95712" lon="12.04729">
        <ele>383</ele>
        <time>2022-05-24T15:58:59Z</time>
      </trkpt>
      <trkpt lat="48.95733" lon="12.04618">
        <ele>386</ele>
        <time>2022-05-24T15:59:12Z</time>
      </trkpt>
      <trkpt lat="48.95764" lon="12.04516">
        <ele>389</ele>
        <time>2022-05-24T15:59:25Z</time>
      </trkpt>
      <trkpt lat="48.95769" lon="12.04479">
        <ele>389</ele>
        <time>2022-05-24T15:59:30Z</time>
      </trkpt>
      <trkpt lat="48.95828" lon="12.04464">
        <ele>390</ele>
        <time>2022-05-24T15:59:40Z</time>
      </trkpt>
      <trkpt lat="48.95851" lon="12.045">
        <ele>388</ele>
        <time>2022-05-24T15:59:46Z</time>
      </trkpt>
      <trkpt lat="48.95939" lon="12.04589">
        <ele>383</ele>
        <time>2022-05-24T16:00:05Z</time>
      </trkpt>
      <trkpt lat="48.95975" lon="12.04634">
        <ele>379</ele>
        <time>2022-05-24T16:00:13Z</time>
      </trkpt>
      <trkpt lat="48.96018" lon="12.04702">
        <ele>376</ele>
        <time>2022-05-24T16:00:24Z</time>
      </trkpt>
      <trkpt lat="48.96099" lon="12.04883">
        <ele>376</ele>
        <time>2022-05-24T16:00:50Z</time>
      </trkpt>
      <trkpt lat="48.96114" lon="12.04906">
        <ele>377</ele>
        <time>2022-05-24T16:00:54Z</time>
      </trkpt>
      <trkpt lat="48.96129" lon="12.04902">
        <ele>376</ele>
        <time>2022-05-24T16:00:56Z</time>
      </trkpt>
      <trkpt lat="48.96152" lon="12.04908">
        <ele>375</ele>
        <time>2022-05-24T16:01:00Z</time>
      </trkpt>
      <trkpt lat="48.96255" lon="12.04955">
        <ele>378</ele>
        <time>2022-05-24T16:01:20Z</time>
      </trkpt>
      <trkpt lat="48.9634" lon="12.05039">
        <ele>394</ele>
        <time>2022-05-24T16:01:38Z</time>
      </trkpt>
      <trkpt lat="48.96418" lon="12.05098">
        <ele>406</ele>
        <time>2022-05-24T16:01:53Z</time>
      </trkpt>
      <trkpt lat="48.96555" lon="12.05185">
        <ele>419</ele>
        <time>2022-05-24T16:02:20Z</time>
      </trkpt>
      <trkpt lat="48.96584" lon="12.051">
        <ele>423</ele>
        <time>2022-05-24T16:02:31Z</time>
      </trkpt>
      <trkpt lat="48.96628" lon="12.04988">
        <ele>433</ele>
        <time>2022-05-24T16:02:46Z</time>
      </trkpt>
      <trkpt lat="48.96684" lon="12.0491">
        <ele>437</ele>
        <time>2022-05-24T16:02:59Z</time>
      </trkpt>
      <trkpt lat="48.96729" lon="12.0492">
        <ele>439</ele>
        <time>2022-05-24T16:03:08Z</time>
      </trkpt>
      <trkpt lat="48.96805" lon="12.04975">
        <ele>442</ele>
        <time>2022-05-24T16:03:23Z</time>
      </trkpt>
      <trkpt lat="48.96827" lon="12.04876">
        <ele>442</ele>
        <time>2022-05-24T16:03:35Z</time>
      </trkpt>
      <trkpt lat="48.96868" lon="12.04799">
        <ele>443</ele>
        <time>2022-05-24T16:03:46Z</time>
      </trkpt>
      <trkpt lat="48.96938" lon="12.04777">
        <ele>445</ele>
        <time>2022-05-24T16:03:59Z</time>
      </trkpt>
      <trkpt lat="48.9693" lon="12.04873">
        <ele>447</ele>
        <time>2022-05-24T16:04:10Z</time>
      </trkpt>
      <trkpt lat="48.96942" lon="12.04933">
        <ele>446</ele>
        <time>2022-05-24T16:04:18Z</time>
      </trkpt>
      <trkpt lat="48.96951" lon="12.05016">
        <ele>446</ele>
        <time>2022-05-24T16:04:28Z</time>
      </trkpt>
      <trkpt lat="48.9698" lon="12.051">
        <ele>443</ele>
        <time>2022-05-24T16:04:39Z</time>
      </trkpt>
      <trkpt lat="48.96979" lon="12.05128">
        <ele>441</ele>
        <time>2022-05-24T16:04:42Z</time>
      </trkpt>
      <trkpt lat="48.97013" lon="12.05116">
        <ele>438</ele>
        <time>2022-05-24T16:04:48Z</time>
      </trkpt>
      <trkpt lat="48.97" lon="12.05344">
        <ele>435</ele>
        <time>2022-05-24T16:05:15Z</time>
      </trkpt>
      <trkpt lat="48.96991" lon="12.05398">
        <ele>435</ele>
        <time>2022-05-24T16:05:21Z</time>
      </trkpt>
      <trkpt lat="48.97024" lon="12.05409">
        <ele>434</ele>
        <time>2022-05-24T16:05:27Z</time>
      </trkpt>
      <trkpt lat="48.97061" lon="12.05432">
        <ele>431</ele>
        <time>2022-05-24T16:05:34Z</time>
      </trkpt>
      <trkpt lat="48.97084" lon="12.05461">
        <ele>429</ele>
        <time>2022-05-24T16:05:40Z</time>
      </trkpt>
      <trkpt lat="48.97132" lon="12.05651">
        <ele>425</ele>
        <time>2022-05-24T16:06:04Z</time>
      </trkpt>
      <trkpt lat="48.97183" lon="12.05834">
        <ele>427</ele>
        <time>2022-05-24T16:06:27Z</time>
      </trkpt>
      <trkpt lat="48.97184" lon="12.05848">
        <ele>428</ele>
        <time>2022-05-24T16:06:28Z</time>
      </trkpt>
      <trkpt lat="48.97178" lon="12.0586">
        <ele>429</ele>
        <time>2022-05-24T16:06:30Z</time>
      </trkpt>
      <trkpt lat="48.9721" lon="12.05927">
        <ele>431</ele>
        <time>2022-05-24T16:06:40Z</time>
      </trkpt>
      <trkpt lat="48.9724" lon="12.06007">
        <ele>434</ele>
        <time>2022-05-24T16:06:51Z</time>
      </trkpt>
      <trkpt lat="48.97279" lon="12.06094">
        <ele>437</ele>
        <time>2022-05-24T16:07:03Z</time>
      </trkpt>
      <trkpt lat="48.97326" lon="12.06175">
        <ele>439</ele>
        <time>2022-05-24T16:07:16Z</time>
      </trkpt>
      <trkpt lat="48.97334" lon="12.06195">
        <ele>439</ele>
        <time>2022-05-24T16:07:18Z</time>
      </trkpt>
      <trkpt lat="48.97341" lon="12.06197">
        <ele>439</ele>
        <time>2022-05-24T16:07:20Z</time>
      </trkpt>
      <trkpt lat="48.97416" lon="12.06277">
        <ele>440</ele>
        <time>2022-05-24T16:07:36Z</time>
      </trkpt>
      <trkpt lat="48.97447" lon="12.06292">
        <ele>441</ele>
        <time>2022-05-24T16:07:42Z</time>
      </trkpt>
      <trkpt lat="48.97512" lon="12.06317">
        <ele>444</ele>
        <time>2022-05-24T16:07:54Z</time>
      </trkpt>
      <trkpt lat="48.97561" lon="12.06332">
        <ele>444</ele>
        <time>2022-05-24T16:08:02Z</time>
      </trkpt>
      <trkpt lat="48.97572" lon="12.06331">
        <ele>444</ele>
        <time>2022-05-24T16:08:04Z</time>
      </trkpt>
      <trkpt lat="48.97635" lon="12.06265">
        <ele>442</ele>
        <time>2022-05-24T16:08:18Z</time>
      </trkpt>
      <trkpt lat="48.97691" lon="12.06246">
        <ele>440</ele>
        <time>2022-05-24T16:08:28Z</time>
      </trkpt>
      <trkpt lat="48.97725" lon="12.06251">
        <ele>438</ele>
        <time>2022-05-24T16:08:34Z</time>
      </trkpt>
      <trkpt lat="48.97741" lon="12.0626">
        <ele>438</ele>
        <time>2022-05-24T16:08:37Z</time>
      </trkpt>
      <trkpt lat="48.97823" lon="12.06322">
        <ele>432</ele>
        <time>2022-05-24T16:08:54Z</time>
      </trkpt>
      <trkpt lat="48.97867" lon="12.06325">
        <ele>431</ele>
        <time>2022-05-24T16:09:01Z</time>
      </trkpt>
      <trkpt lat="48.97986" lon="12.06249">
        <ele>423</ele>
        <time>2022-05-24T16:09:24Z</time>
      </trkpt>
      <trkpt lat="48.98027" lon="12.0623">
        <ele>421</ele>
        <time>2022-05-24T16:09:32Z</time>
      </trkpt>
      <trkpt lat="48.98078" lon="12.06211">
        <ele>420</ele>
        <time>2022-05-24T16:09:41Z</time>
      </trkpt>
      <trkpt lat="48.98073" lon="12.06471">
        <ele>427</ele>
        <time>2022-05-24T16:10:12Z</time>
      </trkpt>
      <trkpt lat="48.98075" lon="12.06605">
        <ele>430</ele>
        <time>2022-05-24T16:10:27Z</time>
      </trkpt>
      <trkpt lat="48.9808" lon="12.06605">
        <ele>430</ele>
        <time>2022-05-24T16:10:28Z</time>
      </trkpt>
      <trkpt lat="48.98083" lon="12.06621">
        <ele>431</ele>
        <time>2022-05-24T16:10:30Z</time>
      </trkpt>
      <trkpt lat="48.98089" lon="12.06627">
        <ele>431</ele>
        <time>2022-05-24T16:10:32Z</time>
      </trkpt>
      <trkpt lat="48.98093" lon="12.06645">
        <ele>431</ele>
        <time>2022-05-24T16:10:34Z</time>
      </trkpt>
      <trkpt lat="48.98127" lon="12.06628">
        <ele>431</ele>
        <time>2022-05-24T16:10:40Z</time>
      </trkpt>
      <trkpt lat="48.98189" lon="12.06616">
        <ele>430</ele>
        <time>2022-05-24T16:10:51Z</time>
      </trkpt>
      <trkpt lat="48.98315" lon="12.06583">
        <ele>432</ele>
        <time>2022-05-24T16:11:14Z</time>
      </trkpt>
      <trkpt lat="48.98408" lon="12.06548">
        <ele>429</ele>
        <time>2022-05-24T16:11:31Z</time>
      </trkpt>
      <trkpt lat="48.98458" lon="12.06537">
        <ele>428</ele>
        <time>2022-05-24T16:11:40Z</time>
      </trkpt>
      <trkpt lat="48.98518" lon="12.06543">
        <ele>427</ele>
        <time>2022-05-24T16:11:51Z</time>
      </trkpt>
      <trkpt lat="48.98636" lon="12.06589">
        <ele>428</ele>
        <time>2022-05-24T16:12:12Z</time>
      </trkpt>
      <trkpt lat="48.98671" lon="12.06609">
        <ele>428</ele>
        <time>2022-05-24T16:12:19Z</time>
      </trkpt>
      <trkpt lat="48.9873" lon="12.06657">
        <ele>431</ele>
        <time>2022-05-24T16:12:31Z</time>
      </trkpt>
      <trkpt lat="48.98768" lon="12.06701">
        <ele>433</ele>
        <time>2022-05-24T16:12:39Z</time>
      </trkpt>
      <trkpt lat="48.98875" lon="12.06858">
        <ele>441</ele>
        <time>2022-05-24T16:13:06Z</time>
      </trkpt>
      <trkpt lat="48.98884" lon="12.06867">
        <ele>441</ele>
        <time>2022-05-24T16:13:08Z</time>
      </trkpt>
      <trkpt lat="48.98888" lon="12.06848">
        <ele>442</ele>
        <time>2022-05-24T16:13:10Z</time>
      </trkpt>
      <trkpt lat="48.98955" lon="12.06896">
        <ele>443</ele>
        <time>2022-05-24T16:13:23Z</time>
      </trkpt>
      <trkpt lat="48.99024" lon="12.06923">
        <ele>444</ele>
        <time>2022-05-24T16:13:36Z</time>
      </trkpt>
      <trkpt lat="48.99208" lon="12.06984">
        <ele>442</ele>
        <time>2022-05-24T16:14:09Z</time>
      </trkpt>
      <trkpt lat="48.99271" lon="12.06995">
        <ele>438</ele>
        <time>2022-05-24T16:14:21Z</time>
      </trkpt>
      <trkpt lat="48.9932" lon="12.07">
        <ele>434</ele>
        <time>2022-05-24T16:14:29Z</time>
      </trkpt>
      <trkpt lat="48.99449" lon="12.07">
        <ele>424</ele>
        <time>2022-05-24T16:14:52Z</time>
      </trkpt>
      <trkpt lat="48.99462" lon="12.07006">
        <ele>423</ele>
        <time>2022-05-24T16:14:55Z</time>
      </trkpt>
      <trkpt lat="48.99492" lon="12.0704">
        <ele>421</ele>
        <time>2022-05-24T16:15:01Z</time>
      </trkpt>
      <trkpt lat="48.99655" lon="12.07242">
        <ele>405</ele>
        <time>2022-05-24T16:15:39Z</time>
      </trkpt>
      <trkpt lat="48.99675" lon="12.07273">
        <ele>404</ele>
        <time>2022-05-24T16:15:44Z</time>
      </trkpt>
      <trkpt lat="48.99731" lon="12.07413">
        <ele>398</ele>
        <time>2022-05-24T16:16:03Z</time>
      </trkpt>
      <trkpt lat="48.99753" lon="12.07456">
        <ele>397</ele>
        <time>2022-05-24T16:16:09Z</time>
      </trkpt>
      <trkpt lat="48.99794" lon="12.07525">
        <ele>394</ele>
        <time>2022-05-24T16:16:20Z</time>
      </trkpt>
      <trkpt lat="48.99809" lon="12.07545">
        <ele>393</ele>
        <time>2022-05-24T16:16:24Z</time>
      </trkpt>
      <trkpt lat="48.99869" lon="12.07609">
        <ele>389</ele>
        <time>2022-05-24T16:16:37Z</time>
      </trkpt>
      <trkpt lat="48.99915" lon="12.07669">
        <ele>388</ele>
        <time>2022-05-24T16:16:48Z</time>
      </trkpt>
      <trkpt lat="48.99991" lon="12.07785">
        <ele>382</ele>
        <time>2022-05-24T16:17:07Z</time>
      </trkpt>
      <trkpt lat="49.00069" lon="12.07935">
        <ele>374</ele>
        <time>2022-05-24T16:17:29Z</time>
      </trkpt>
      <trkpt lat="49.0012" lon="12.08003">
        <ele>371</ele>
        <time>2022-05-24T16:17:41Z</time>
      </trkpt>
      <trkpt lat="49.00192" lon="12.0808">
        <ele>369</ele>
        <time>2022-05-24T16:17:57Z</time>
      </trkpt>
      <trkpt lat="49.00206" lon="12.08092">
        <ele>369</ele>
        <time>2022-05-24T16:18:00Z</time>
      </trkpt>
      <trkpt lat="49.00236" lon="12.08115">
        <ele>369</ele>
        <time>2022-05-24T16:18:06Z</time>
      </trkpt>
      <trkpt lat="49.00422" lon="12.08244">
        <ele>366</ele>
        <time>2022-05-24T16:18:42Z</time>
      </trkpt>
      <trkpt lat="49.00417" lon="12.08255">
        <ele>366</ele>
        <time>2022-05-24T16:18:44Z</time>
      </trkpt>
      <trkpt lat="49.00434" lon="12.08272">
        <ele>365</ele>
        <time>2022-05-24T16:18:47Z</time>
      </trkpt>
      <trkpt lat="49.00445" lon="12.08288">
        <ele>365</ele>
        <time>2022-05-24T16:18:50Z</time>
      </trkpt>
      <trkpt lat="49.00464" lon="12.08333">
        <ele>364</ele>
        <time>2022-05-24T16:18:56Z</time>
      </trkpt>
      <trkpt lat="49.00473" lon="12.08366">
        <ele>363</ele>
        <time>2022-05-24T16:19:00Z</time>
      </trkpt>
      <trkpt lat="49.00504" lon="12.0853">
        <ele>358</ele>
        <time>2022-05-24T16:19:20Z</time>
      </trkpt>
      <trkpt lat="49.00512" lon="12.08546">
        <ele>358</ele>
        <time>2022-05-24T16:19:23Z</time>
      </trkpt>
      <trkpt lat="49.00515" lon="12.08558">
        <ele>358</ele>
        <time>2022-05-24T16:19:24Z</time>
      </trkpt>
      <trkpt lat="49.00536" lon="12.08586">
        <ele>357</ele>
        <time>2022-05-24T16:19:29Z</time>
      </trkpt>
      <trkpt lat="49.0059" lon="12.08622">
        <ele>357</ele>
        <time>2022-05-24T16:19:40Z</time>
      </trkpt>
      <trkpt lat="49.0064" lon="12.08649">
        <ele>356</ele>
        <time>2022-05-24T16:19:49Z</time>
      </trkpt>
      <trkpt lat="49.00769" lon="12.08711">
        <ele>353</ele>
        <time>2022-05-24T16:20:13Z</time>
      </trkpt>
      <trkpt lat="49.00836" lon="12.0874">
        <ele>353</ele>
        <time>2022-05-24T16:20:25Z</time>
      </trkpt>
      <trkpt lat="49.00901" lon="12.08752">
        <ele>350</ele>
        <time>2022-05-24T16:20:37Z</time>
      </trkpt>
      <trkpt lat="49.00906" lon="12.08763">
        <ele>350</ele>
        <time>2022-05-24T16:20:39Z</time>
      </trkpt>
      <trkpt lat="49.01021" lon="12.08804">
        <ele>346</ele>
        <time>2022-05-24T16:21:00Z</time>
      </trkpt>
      <trkpt lat="49.01058" lon="12.08811">
        <ele>344</ele>
        <time>2022-05-24T16:21:06Z</time>
      </trkpt>
      <trkpt lat="49.01072" lon="12.0883">
        <ele>344</ele>
        <time>2022-05-24T16:21:10Z</time>
      </trkpt>
      <trkpt lat="49.01081" lon="12.08838">
        <ele>343</ele>
        <time>2022-05-24T16:21:11Z</time>
      </trkpt>
      <trkpt lat="49.01203" lon="12.08837">
        <ele>342</ele>
        <time>2022-05-24T16:21:33Z</time>
      </trkpt>
      <trkpt lat="49.01258" lon="12.08843">
        <ele>343</ele>
        <time>2022-05-24T16:21:43Z</time>
      </trkpt>
      <trkpt lat="49.01297" lon="12.08849">
        <ele>343</ele>
        <time>2022-05-24T16:21:50Z</time>
      </trkpt>
      <trkpt lat="49.01377" lon="12.08871">
        <ele>345</ele>
        <time>2022-05-24T16:22:04Z</time>
      </trkpt>
      <trkpt lat="49.0138" lon="12.08863">
        <ele>345</ele>
        <time>2022-05-24T16:22:06Z</time>
      </trkpt>
      <trkpt lat="49.01432" lon="12.08867">
        <ele>347</ele>
        <time>2022-05-24T16:22:15Z</time>
      </trkpt>
      <trkpt lat="49.01609" lon="12.089">
        <ele>347</ele>
        <time>2022-05-24T16:22:47Z</time>
      </trkpt>
      <trkpt lat="49.01663" lon="12.08906">
        <ele>347</ele>
        <time>2022-05-24T16:22:56Z</time>
      </trkpt>
      <trkpt lat="49.01724" lon="12.08909">
        <ele>346</ele>
        <time>2022-05-24T16:23:07Z</time>
      </trkpt>
      <trkpt lat="49.01726" lon="12.08975">
        <ele>347</ele>
        <time>2022-05-24T16:23:15Z</time>
      </trkpt>
      <trkpt lat="49.01725" lon="12.09116">
        <ele>347</ele>
        <time>2022-05-24T16:23:31Z</time>
      </trkpt>
      <trkpt lat="49.01753" lon="12.09117">
        <ele>347</ele>
        <time>2022-05-24T16:23:36Z</time>
      </trkpt>
      <trkpt lat="49.01745" lon="12.09244">
        <ele>345</ele>
        <time>2022-05-24T16:23:51Z</time>
      </trkpt>
      <trkpt lat="49.01763" lon="12.09255">
        <ele>345</ele>
        <time>2022-05-24T16:23:55Z</time>
      </trkpt>
      <trkpt lat="49.01795" lon="12.09259">
        <ele>345</ele>
        <time>2022-05-24T16:24:00Z</time>
      </trkpt>
      <trkpt lat="49.01793" lon="12.09293">
        <ele>345</ele>
        <time>2022-05-24T16:24:04Z</time>
      </trkpt>
      <trkpt lat="49.01852" lon="12.09302">
        <ele>346</ele>
        <time>2022-05-24T16:24:15Z</time>
      </trkpt>
      <trkpt lat="49.01847" lon="12.09365">
        <ele>347</ele>
        <time>2022-05-24T16:24:22Z</time>
      </trkpt>
      <trkpt lat="49.01837" lon="12.09409">
        <ele>348</ele>
        <time>2022-05-24T16:24:28Z</time>
      </trkpt>
      <trkpt lat="49.01832" lon="12.09536">
        <ele>346</ele>
        <time>2022-05-24T16:24:42Z</time>
      </trkpt>
      <trkpt lat="49.01805" lon="12.09665">
        <ele>347</ele>
        <time>2022-05-24T16:24:58Z</time>
      </trkpt>
      <trkpt lat="49.01949" lon="12.09717">
        <ele>349</ele>
        <time>2022-05-24T16:25:25Z</time>
      </trkpt>
      <trkpt lat="49.01941" lon="12.09733">
        <ele>350</ele>
        <time>2022-05-24T16:25:27Z</time>
      </trkpt>
      <trkpt lat="49.01949" lon="12.09717">
        <ele>349</ele>
        <time>2022-05-24T16:25:29Z</time>
      </trkpt>
      <trkpt lat="49.0197" lon="12.0972">
        <ele>348</ele>
        <time>2022-05-24T16:25:33Z</time>
      </trkpt>
      <trkpt lat="49.02024" lon="12.09734">
        <ele>344</ele>
        <time>2022-05-24T16:25:43Z</time>
      </trkpt>
      <trkpt lat="49.02029" lon="12.09663">
        <ele>347</ele>
        <time>2022-05-24T16:25:51Z</time>
      </trkpt>
      <trkpt lat="49.02095" lon="12.09691">
        <ele>340</ele>
        <time>2022-05-24T16:26:03Z</time>
      </trkpt>
      <trkpt lat="49.02119" lon="12.09694">
        <ele>335</ele>
        <time>2022-05-24T16:26:08Z</time>
      </trkpt>
      <trkpt lat="49.02142" lon="12.09707">
        <ele>331</ele>
        <time>2022-05-24T16:26:12Z</time>
      </trkpt>
      <trkpt lat="49.02219" lon="12.0972">
        <ele>328</ele>
        <time>2022-05-24T16:26:26Z</time>
      </trkpt>
      <trkpt lat="49.02295" lon="12.09727">
        <ele>330</ele>
        <time>2022-05-24T16:26:39Z</time>
      </trkpt>
      <trkpt lat="49.02451" lon="12.09734">
        <ele>335</ele>
        <time>2022-05-24T16:27:07Z</time>
      </trkpt>
      <trkpt lat="49.02454" lon="12.09794">
        <ele>336</ele>
        <time>2022-05-24T16:27:14Z</time>
      </trkpt>
      <trkpt lat="49.02467" lon="12.09831">
        <ele>337</ele>
        <time>2022-05-24T16:27:19Z</time>
      </trkpt>
      <trkpt lat="49.02437" lon="12.09977">
        <ele>335</ele>
        <time>2022-05-24T16:27:37Z</time>
      </trkpt>
      <trkpt lat="49.02441" lon="12.10084">
        <ele>333</ele>
        <time>2022-05-24T16:27:49Z</time>
      </trkpt>
      <trkpt lat="49.02402" lon="12.10093">
        <ele>332</ele>
        <time>2022-05-24T16:27:56Z</time>
      </trkpt>
      <trkpt lat="49.02371" lon="12.10134">
        <ele>330</ele>
        <time>2022-05-24T16:28:04Z</time>
      </trkpt>
      <trkpt lat="49.02264" lon="12.10184">
        <ele>332</ele>
        <time>2022-05-24T16:28:24Z</time>
      </trkpt>
      <trkpt lat="49.02181" lon="12.10197">
        <ele>333</ele>
        <time>2022-05-24T16:28:38Z</time>
      </trkpt>
      <trkpt lat="49.02174" lon="12.102">
        <ele>333</ele>
        <time>2022-05-24T16:28:40Z</time>
      </trkpt>
      <trkpt lat="49.0216" lon="12.10216">
        <ele>333</ele>
        <time>2022-05-24T16:28:43Z</time>
      </trkpt>
      <trkpt lat="49.02171" lon="12.10272">
        <ele>334</ele>
        <time>2022-05-24T16:28:50Z</time>
      </trkpt>
      <trkpt lat="49.02183" lon="12.10372">
        <ele>336</ele>
        <time>2022-05-24T16:29:01Z</time>
      </trkpt>
      <trkpt lat="49.02182" lon="12.10422">
        <ele>337</ele>
        <time>2022-05-24T16:29:07Z</time>
      </trkpt>
      <trkpt lat="49.02149" lon="12.10747">
        <ele>331</ele>
        <time>2022-05-24T16:29:46Z</time>
      </trkpt>
      <trkpt lat="49.02146" lon="12.10813">
        <ele>331</ele>
        <time>2022-05-24T16:29:53Z</time>
      </trkpt>
      <trkpt lat="49.0215" lon="12.10933">
        <ele>331</ele>
        <time>2022-05-24T16:30:07Z</time>
      </trkpt>
      <trkpt lat="49.02142" lon="12.1102">
        <ele>332</ele>
        <time>2022-05-24T16:30:18Z</time>
      </trkpt>
      <trkpt lat="49.02136" lon="12.11052">
        <ele>333</ele>
        <time>2022-05-24T16:30:22Z</time>
      </trkpt>
      <trkpt lat="49.02122" lon="12.11101">
        <ele>332</ele>
        <time>2022-05-24T16:30:28Z</time>
      </trkpt>
      <trkpt lat="49.02094" lon="12.11097">
        <ele>332</ele>
        <time>2022-05-24T16:30:33Z</time>
      </trkpt>
      <trkpt lat="49.02082" lon="12.11091">
        <ele>332</ele>
        <time>2022-05-24T16:30:35Z</time>
      </trkpt>
      <trkpt lat="49.02094" lon="12.11097">
        <ele>332</ele>
        <time>2022-05-24T16:30:37Z</time>
      </trkpt>
      <trkpt lat="49.02122" lon="12.11101">
        <ele>332</ele>
        <time>2022-05-24T16:30:42Z</time>
      </trkpt>
      <trkpt lat="49.02136" lon="12.11052">
        <ele>333</ele>
        <time>2022-05-24T16:30:49Z</time>
      </trkpt>
      <trkpt lat="49.02143" lon="12.11057">
        <ele>333</ele>
        <time>2022-05-24T16:30:50Z</time>
      </trkpt>
      <trkpt lat="49.02139" lon="12.11073">
        <ele>333</ele>
        <time>2022-05-24T16:30:52Z</time>
      </trkpt>
      <trkpt lat="49.02149" lon="12.11089">
        <ele>333</ele>
        <time>2022-05-24T16:30:54Z</time>
      </trkpt>
      <trkpt lat="49.0215" lon="12.11116">
        <ele>332</ele>
        <time>2022-05-24T16:30:58Z</time>
      </trkpt>
      <trkpt lat="49.02091" lon="12.11408">
        <ele>333</ele>
        <time>2022-05-24T16:31:33Z</time>
      </trkpt>
      <trkpt lat="49.02072" lon="12.11432">
        <ele>333</ele>
        <time>2022-05-24T16:31:38Z</time>
      </trkpt>
      <trkpt lat="49.0206" lon="12.11429">
        <ele>333</ele>
        <time>2022-05-24T16:31:40Z</time>
      </trkpt>
      <trkpt lat="49.02048" lon="12.11419">
        <ele>333</ele>
        <time>2022-05-24T16:31:42Z</time>
      </trkpt>
      <trkpt lat="49.02044" lon="12.11398">
        <ele>333</ele>
        <time>2022-05-24T16:31:45Z</time>
      </trkpt>
      <trkpt lat="49.02048" lon="12.11338">
        <ele>334</ele>
        <time>2022-05-24T16:31:52Z</time>
      </trkpt>
      <trkpt lat="49.0206" lon="12.11315">
        <ele>334</ele>
        <time>2022-05-24T16:31:55Z</time>
      </trkpt>
      <trkpt lat="49.02425" lon="12.11378">
        <ele>331</ele>
        <time>2022-05-24T16:33:01Z</time>
      </trkpt>
      <trkpt lat="49.02423" lon="12.11389">
        <ele>331</ele>
        <time>2022-05-24T16:33:02Z</time>
      </trkpt>
      <trkpt lat="49.02359" lon="12.11379">
        <ele>331</ele>
        <time>2022-05-24T16:33:13Z</time>
      </trkpt>
      <trkpt lat="49.02371" lon="12.11584">
        <ele>334</ele>
        <time>2022-05-24T16:33:37Z</time>
      </trkpt>
      <trkpt lat="49.0238" lon="12.11685">
        <ele>334</ele>
        <time>2022-05-24T16:33:49Z</time>
      </trkpt>
      <trkpt lat="49.02365" lon="12.11715">
        <ele>335</ele>
        <time>2022-05-24T16:33:54Z</time>
      </trkpt>
      <trkpt lat="49.02394" lon="12.11754">
        <ele>335</ele>
        <time>2022-05-24T16:34:01Z</time>
      </trkpt>
      <trkpt lat="49.02367" lon="12.11846">
        <ele>334</ele>
        <time>2022-05-24T16:34:12Z</time>
      </trkpt>
      <trkpt lat="49.02346" lon="12.11991">
        <ele>333</ele>
        <time>2022-05-24T16:34:30Z</time>
      </trkpt>
      <trkpt lat="49.02345" lon="12.12104">
        <ele>335</ele>
        <time>2022-05-24T16:34:43Z</time>
      </trkpt>
      <trkpt lat="49.02356" lon="12.1222">
        <ele>334</ele>
        <time>2022-05-24T16:34:57Z</time>
      </trkpt>
      <trkpt lat="49.02519" lon="12.12283">
        <ele>334</ele>
        <time>2022-05-24T16:35:26Z</time>
      </trkpt>
      <trkpt lat="49.02604" lon="12.12313">
        <ele>335</ele>
        <time>2022-05-24T16:35:42Z</time>
      </trkpt>
      <trkpt lat="49.02609" lon="12.12283">
        <ele>335</ele>
        <time>2022-05-24T16:35:46Z</time>
      </trkpt>
      <trkpt lat="49.01491" lon="12.10169">
        <ele>341</ele>
        <time>2022-05-24T16:41:03Z</time>
      </trkpt>
      <trkpt lat="49.01534" lon="12.10174">
        <ele>342</ele>
        <time>2022-05-24T16:41:10Z</time>
      </trkpt>
      <trkpt lat="49.01558" lon="12.1023">
        <ele>343</ele>
        <time>2022-05-24T16:41:18Z</time>
      </trkpt>
      <trkpt lat="49.01569" lon="12.103">
        <ele>342</ele>
        <time>2022-05-24T16:41:26Z</time>
      </trkpt>
      <trkpt lat="49.0161" lon="12.10648">
        <ele>340</ele>
        <time>2022-05-24T16:42:08Z</time>
      </trkpt>
      <trkpt lat="49.0162" lon="12.10716">
        <ele>340</ele>
        <time>2022-05-24T16:42:16Z</time>
      </trkpt>
      <trkpt lat="49.01629" lon="12.10742">
        <ele>340</ele>
        <time>2022-05-24T16:42:19Z</time>
      </trkpt>
      <trkpt lat="49.01641" lon="12.10757">
        <ele>340</ele>
        <time>2022-05-24T16:42:22Z</time>
      </trkpt>
      <trkpt lat="49.01802" lon="12.10839">
        <ele>339</ele>
        <time>2022-05-24T16:42:52Z</time>
      </trkpt>
      <trkpt lat="49.01797" lon="12.10861">
        <ele>339</ele>
        <time>2022-05-24T16:42:55Z</time>
      </trkpt>
      <trkpt lat="49.01787" lon="12.1088">
        <ele>338</ele>
        <time>2022-05-24T16:42:58Z</time>
      </trkpt>
      <trkpt lat="49.0176" lon="12.1098">
        <ele>336</ele>
        <time>2022-05-24T16:43:10Z</time>
      </trkpt>
      <trkpt lat="49.01712" lon="12.11173">
        <ele>336</ele>
        <time>2022-05-24T16:43:34Z</time>
      </trkpt>
      <trkpt lat="49.01707" lon="12.11171">
        <ele>336</ele>
        <time>2022-05-24T16:43:35Z</time>
      </trkpt>
      <trkpt lat="49.01702" lon="12.11177">
        <ele>335</ele>
        <time>2022-05-24T16:43:36Z</time>
      </trkpt>
      <trkpt lat="49.01697" lon="12.11192">
        <ele>336</ele>
        <time>2022-05-24T16:43:38Z</time>
      </trkpt>
      <trkpt lat="49.01698" lon="12.11201">
        <ele>336</ele>
        <time>2022-05-24T16:43:40Z</time>
      </trkpt>
      <trkpt lat="49.01718" lon="12.11214">
        <ele>336</ele>
        <time>2022-05-24T16:43:43Z</time>
      </trkpt>
      <trkpt lat="49.01868" lon="12.11271">
        <ele>333</ele>
        <time>2022-05-24T16:44:11Z</time>
      </trkpt>
      <trkpt lat="49.0206" lon="12.11315">
        <ele>334</ele>
        <time>2022-05-24T16:44:45Z</time>
      </trkpt>
      <trkpt lat="49.02425" lon="12.11378">
        <ele>331</ele>
        <time>2022-05-24T16:45:51Z</time>
      </trkpt>
      <trkpt lat="49.02423" lon="12.11389">
        <ele>331</ele>
        <time>2022-05-24T16:45:52Z</time>
      </trkpt>
      <trkpt lat="49.02359" lon="12.11379">
        <ele>331</ele>
        <time>2022-05-24T16:46:04Z</time>
      </trkpt>
      <trkpt lat="49.02371" lon="12.11584">
        <ele>334</ele>
        <time>2022-05-24T16:46:28Z</time>
      </trkpt>
      <trkpt lat="49.0238" lon="12.11685">
        <ele>334</ele>
        <time>2022-05-24T16:46:39Z</time>
      </trkpt>
      <trkpt lat="49.02365" lon="12.11715">
        <ele>335</ele>
        <time>2022-05-24T16:46:44Z</time>
      </trkpt>
      <trkpt lat="49.02394" lon="12.11754">
        <ele>335</ele>
        <time>2022-05-24T16:46:51Z</time>
      </trkpt>
      <trkpt lat="49.02367" lon="12.11846">
        <ele>334</ele>
        <time>2022-05-24T16:47:03Z</time>
      </trkpt>
      <trkpt lat="49.02346" lon="12.11991">
        <ele>333</ele>
        <time>2022-05-24T16:47:20Z</time>
      </trkpt>
      <trkpt lat="49.02344" lon="12.1206">
        <ele>334</ele>
        <time>2022-05-24T16:47:28Z</time>
      </trkpt>
      <trkpt lat="49.02345" lon="12.12104">
        <ele>335</ele>
        <time>2022-05-24T16:47:33Z</time>
      </trkpt>
      <trkpt lat="49.02356" lon="12.1222">
        <ele>334</ele>
        <time>2022-05-24T16:47:47Z</time>
      </trkpt>
      <trkpt lat="49.02388" lon="12.12233">
        <ele>334</ele>
        <time>2022-05-24T16:47:53Z</time>
      </trkpt>
      <trkpt lat="49.02385" lon="12.12304">
        <ele>334</ele>
        <time>2022-05-24T16:48:01Z</time>
      </trkpt>
      <trkpt lat="49.02386" lon="12.1235">
        <ele>334</ele>
        <time>2022-05-24T16:48:06Z</time>
      </trkpt>
      <trkpt lat="49.02393" lon="12.12396">
        <ele>332</ele>
        <time>2022-05-24T16:48:12Z</time>
      </trkpt>
      <trkpt lat="49.02393" lon="12.12478">
        <ele>331</ele>
        <time>2022-05-24T16:48:21Z</time>
      </trkpt>
      <trkpt lat="49.02387" lon="12.12601">
        <ele>331</ele>
        <time>2022-05-24T16:48:36Z</time>
      </trkpt>
      <trkpt lat="49.02385" lon="12.12723">
        <ele>330</ele>
        <time>2022-05-24T16:48:50Z</time>
      </trkpt>
      <trkpt lat="49.02391" lon="12.12797">
        <ele>331</ele>
        <time>2022-05-24T16:48:59Z</time>
      </trkpt>
      <trkpt lat="49.0238" lon="12.13211">
        <ele>329</ele>
        <time>2022-05-24T16:49:47Z</time>
      </trkpt>
      <trkpt lat="49.02382" lon="12.13242">
        <ele>330</ele>
        <time>2022-05-24T16:49:51Z</time>
      </trkpt>
      <trkpt lat="49.0241" lon="12.13365">
        <ele>329</ele>
        <time>2022-05-24T16:50:06Z</time>
      </trkpt>
      <trkpt lat="49.02419" lon="12.13418">
        <ele>329</ele>
        <time>2022-05-24T16:50:12Z</time>
      </trkpt>
      <trkpt lat="49.02424" lon="12.13467">
        <ele>329</ele>
        <time>2022-05-24T16:50:18Z</time>
      </trkpt>
      <trkpt lat="49.02439" lon="12.1355">
        <ele>328</ele>
        <time>2022-05-24T16:50:28Z</time>
      </trkpt>
      <trkpt lat="49.02421" lon="12.13823">
        <ele>329</ele>
        <time>2022-05-24T16:51:00Z</time>
      </trkpt>
      <trkpt lat="49.02431" lon="12.1386">
        <ele>330</ele>
        <time>2022-05-24T16:51:05Z</time>
      </trkpt>
      <trkpt lat="49.02405" lon="12.13912">
        <ele>330</ele>
        <time>2022-05-24T16:51:12Z</time>
      </trkpt>
      <trkpt lat="49.024" lon="12.14049">
        <ele>325</ele>
        <time>2022-05-24T16:51:28Z</time>
      </trkpt>
      <trkpt lat="49.02408" lon="12.14054">
        <ele>326</ele>
        <time>2022-05-24T16:51:30Z</time>
      </trkpt>
      <trkpt lat="49.024" lon="12.14204">
        <ele>328</ele>
        <time>2022-05-24T16:51:47Z</time>
      </trkpt>
      <trkpt lat="49.02404" lon="12.14248">
        <ele>329</ele>
        <time>2022-05-24T16:51:53Z</time>
      </trkpt>
      <trkpt lat="49.02349" lon="12.14443">
        <ele>333</ele>
        <time>2022-05-24T16:52:17Z</time>
      </trkpt>
      <trkpt lat="49.02317" lon="12.14509">
        <ele>331</ele>
        <time>2022-05-24T16:52:27Z</time>
      </trkpt>
      <trkpt lat="49.02218" lon="12.14892">
        <ele>330</ele>
        <time>2022-05-24T16:53:15Z</time>
      </trkpt>
      <trkpt lat="49.02159" lon="12.15096">
        <ele>332</ele>
        <time>2022-05-24T16:53:41Z</time>
      </trkpt>
      <trkpt lat="49.02158" lon="12.15131">
        <ele>332</ele>
        <time>2022-05-24T16:53:45Z</time>
      </trkpt>
      <trkpt lat="49.02135" lon="12.15131">
        <ele>331</ele>
        <time>2022-05-24T16:53:49Z</time>
      </trkpt>
      <trkpt lat="49.0212" lon="12.1515">
        <ele>331</ele>
        <time>2022-05-24T16:53:53Z</time>
      </trkpt>
      <trkpt lat="49.02101" lon="12.15196">
        <ele>332</ele>
        <time>2022-05-24T16:53:59Z</time>
      </trkpt>
      <trkpt lat="49.02082" lon="12.15254">
        <ele>331</ele>
        <time>2022-05-24T16:54:07Z</time>
      </trkpt>
      <trkpt lat="49.02091" lon="12.15294">
        <ele>332</ele>
        <time>2022-05-24T16:54:12Z</time>
      </trkpt>
      <trkpt lat="49.02091" lon="12.15312">
        <ele>333</ele>
        <time>2022-05-24T16:54:14Z</time>
      </trkpt>
      <trkpt lat="49.01996" lon="12.15596">
        <ele>332</ele>
        <time>2022-05-24T16:54:51Z</time>
      </trkpt>
      <trkpt lat="49.01948" lon="12.15796">
        <ele>331</ele>
        <time>2022-05-24T16:55:16Z</time>
      </trkpt>
      <trkpt lat="49.0194" lon="12.15887">
        <ele>330</ele>
        <time>2022-05-24T16:55:26Z</time>
      </trkpt>
      <trkpt lat="49.01943" lon="12.15918">
        <ele>330</ele>
        <time>2022-05-24T16:55:30Z</time>
      </trkpt>
      <trkpt lat="49.01936" lon="12.16002">
        <ele>332</ele>
        <time>2022-05-24T16:55:40Z</time>
      </trkpt>
      <trkpt lat="49.01908" lon="12.16192">
        <ele>329</ele>
        <time>2022-05-24T16:56:03Z</time>
      </trkpt>
      <trkpt lat="49.01894" lon="12.16534">
        <ele>332</ele>
        <time>2022-05-24T16:56:43Z</time>
      </trkpt>
      <trkpt lat="49.01843" lon="12.16875">
        <ele>330</ele>
        <time>2022-05-24T16:57:23Z</time>
      </trkpt>
      <trkpt lat="49.01836" lon="12.16936">
        <ele>330</ele>
        <time>2022-05-24T16:57:31Z</time>
      </trkpt>
      <trkpt lat="49.01827" lon="12.17092">
        <ele>329</ele>
        <time>2022-05-24T16:57:49Z</time>
      </trkpt>
      <trkpt lat="49.01828" lon="12.17202">
        <ele>327</ele>
        <time>2022-05-24T16:58:02Z</time>
      </trkpt>
      <trkpt lat="49.0184" lon="12.1735">
        <ele>329</ele>
        <time>2022-05-24T16:58:19Z</time>
      </trkpt>
      <trkpt lat="49.0189" lon="12.17675">
        <ele>330</ele>
        <time>2022-05-24T16:58:58Z</time>
      </trkpt>
      <trkpt lat="49.02015" lon="12.18123">
        <ele>328</ele>
        <time>2022-05-24T16:59:55Z</time>
      </trkpt>
      <trkpt lat="49.02025" lon="12.18117">
        <ele>328</ele>
        <time>2022-05-24T16:59:57Z</time>
      </trkpt>
      <trkpt lat="49.02086" lon="12.18324">
        <ele>328</ele>
        <time>2022-05-24T17:00:23Z</time>
      </trkpt>
      <trkpt lat="49.02116" lon="12.1841">
        <ele>328</ele>
        <time>2022-05-24T17:00:35Z</time>
      </trkpt>
      <trkpt lat="49.02187" lon="12.18577">
        <ele>327</ele>
        <time>2022-05-24T17:00:58Z</time>
      </trkpt>
      <trkpt lat="49.0221" lon="12.18642">
        <ele>326</ele>
        <time>2022-05-24T17:01:07Z</time>
      </trkpt>
      <trkpt lat="49.02328" lon="12.18911">
        <ele>327</ele>
        <time>2022-05-24T17:01:44Z</time>
      </trkpt>
      <trkpt lat="49.02502" lon="12.19337">
        <ele>326</ele>
        <time>2022-05-24T17:02:43Z</time>
      </trkpt>
      <trkpt lat="49.02546" lon="12.19466">
        <ele>326</ele>
        <time>2022-05-24T17:03:00Z</time>
      </trkpt>
      <trkpt lat="49.02562" lon="12.19495">
        <ele>326</ele>
        <time>2022-05-24T17:03:04Z</time>
      </trkpt>
      <trkpt lat="49.02594" lon="12.19524">
        <ele>327</ele>
        <time>2022-05-24T17:03:11Z</time>
      </trkpt>
      <trkpt lat="49.02701" lon="12.19586">
        <ele>327</ele>
        <time>2022-05-24T17:03:31Z</time>
      </trkpt>
      <trkpt lat="49.02731" lon="12.19616">
        <ele>326</ele>
        <time>2022-05-24T17:03:38Z</time>
      </trkpt>
      <trkpt lat="49.02743" lon="12.19639">
        <ele>327</ele>
        <time>2022-05-24T17:03:41Z</time>
      </trkpt>
      <trkpt lat="49.02758" lon="12.19679">
        <ele>327</ele>
        <time>2022-05-24T17:03:46Z</time>
      </trkpt>
      <trkpt lat="49.02769" lon="12.19734">
        <ele>327</ele>
        <time>2022-05-24T17:03:53Z</time>
      </trkpt>
      <trkpt lat="49.02771" lon="12.1977">
        <ele>327</ele>
        <time>2022-05-24T17:03:57Z</time>
      </trkpt>
      <trkpt lat="49.02768" lon="12.19864">
        <ele>328</ele>
        <time>2022-05-24T17:04:08Z</time>
      </trkpt>
      <trkpt lat="49.02753" lon="12.20014">
        <ele>331</ele>
        <time>2022-05-24T17:04:26Z</time>
      </trkpt>
      <trkpt lat="49.02754" lon="12.20133">
        <ele>329</ele>
        <time>2022-05-24T17:04:40Z</time>
      </trkpt>
      <trkpt lat="49.02745" lon="12.20272">
        <ele>330</ele>
        <time>2022-05-24T17:04:56Z</time>
      </trkpt>
      <trkpt lat="49.02735" lon="12.20359">
        <ele>329</ele>
        <time>2022-05-24T17:05:07Z</time>
      </trkpt>
      <trkpt lat="49.02697" lon="12.2059">
        <ele>329</ele>
        <time>2022-05-24T17:05:34Z</time>
      </trkpt>
      <trkpt lat="49.02693" lon="12.20786">
        <ele>328</ele>
        <time>2022-05-24T17:05:57Z</time>
      </trkpt>
      <trkpt lat="49.02734" lon="12.20901">
        <ele>329</ele>
        <time>2022-05-24T17:06:12Z</time>
      </trkpt>
      <trkpt lat="49.02734" lon="12.20919">
        <ele>329</ele>
        <time>2022-05-24T17:06:15Z</time>
      </trkpt>
      <trkpt lat="49.02816" lon="12.2118">
        <ele>331</ele>
        <time>2022-05-24T17:06:48Z</time>
      </trkpt>
      <trkpt lat="49.02899" lon="12.21465">
        <ele>334</ele>
        <time>2022-05-24T17:07:25Z</time>
      </trkpt>
      <trkpt lat="49.02915" lon="12.2155">
        <ele>334</ele>
        <time>2022-05-24T17:07:35Z</time>
      </trkpt>
      <trkpt lat="49.02937" lon="12.21752">
        <ele>330</ele>
        <time>2022-05-24T17:07:59Z</time>
      </trkpt>
      <trkpt lat="49.02937" lon="12.21778">
        <ele>332</ele>
        <time>2022-05-24T17:08:02Z</time>
      </trkpt>
      <trkpt lat="49.02932" lon="12.21819">
        <ele>334</ele>
        <time>2022-05-24T17:08:07Z</time>
      </trkpt>
      <trkpt lat="49.02937" lon="12.21867">
        <ele>335</ele>
        <time>2022-05-24T17:08:13Z</time>
      </trkpt>
      <trkpt lat="49.02937" lon="12.22022">
        <ele>334</ele>
        <time>2022-05-24T17:08:31Z</time>
      </trkpt>
      <trkpt lat="49.02927" lon="12.22227">
        <ele>334</ele>
        <time>2022-05-24T17:08:55Z</time>
      </trkpt>
      <trkpt lat="49.02909" lon="12.22348">
        <ele>331</ele>
        <time>2022-05-24T17:09:09Z</time>
      </trkpt>
      <trkpt lat="49.02914" lon="12.22407">
        <ele>333</ele>
        <time>2022-05-24T17:09:16Z</time>
      </trkpt>
      <trkpt lat="49.0286" lon="12.23209">
        <ele>330</ele>
        <time>2022-05-24T17:10:50Z</time>
      </trkpt>
      <trkpt lat="49.0284" lon="12.23338">
        <ele>332</ele>
        <time>2022-05-24T17:11:06Z</time>
      </trkpt>
      <trkpt lat="49.02824" lon="12.23363">
        <ele>332</ele>
        <time>2022-05-24T17:11:10Z</time>
      </trkpt>
      <trkpt lat="49.02783" lon="12.2338">
        <ele>331</ele>
        <time>2022-05-24T17:11:17Z</time>
      </trkpt>
      <trkpt lat="49.02766" lon="12.23394">
        <ele>331</ele>
        <time>2022-05-24T17:11:21Z</time>
      </trkpt>
      <trkpt lat="49.02752" lon="12.23418">
        <ele>332</ele>
        <time>2022-05-24T17:11:24Z</time>
      </trkpt>
      <trkpt lat="49.02714" lon="12.23542">
        <ele>328</ele>
        <time>2022-05-24T17:11:40Z</time>
      </trkpt>
      <trkpt lat="49.02714" lon="12.23582">
        <ele>328</ele>
        <time>2022-05-24T17:11:45Z</time>
      </trkpt>
      <trkpt lat="49.02748" lon="12.23656">
        <ele>328</ele>
        <time>2022-05-24T17:11:56Z</time>
      </trkpt>
      <trkpt lat="49.0275" lon="12.23672">
        <ele>328</ele>
        <time>2022-05-24T17:11:57Z</time>
      </trkpt>
      <trkpt lat="49.02747" lon="12.2369">
        <ele>328</ele>
        <time>2022-05-24T17:12:00Z</time>
      </trkpt>
      <trkpt lat="49.02685" lon="12.23842">
        <ele>327</ele>
        <time>2022-05-24T17:12:20Z</time>
      </trkpt>
      <trkpt lat="49.0263" lon="12.24008">
        <ele>330</ele>
        <time>2022-05-24T17:12:42Z</time>
      </trkpt>
      <trkpt lat="49.02481" lon="12.24393">
        <ele>330</ele>
        <time>2022-05-24T17:13:34Z</time>
      </trkpt>
      <trkpt lat="49.02451" lon="12.24517">
        <ele>333</ele>
        <time>2022-05-24T17:13:50Z</time>
      </trkpt>
      <trkpt lat="49.02427" lon="12.24644">
        <ele>335</ele>
        <time>2022-05-24T17:14:05Z</time>
      </trkpt>
      <trkpt lat="49.02406" lon="12.24736">
        <ele>334</ele>
        <time>2022-05-24T17:14:17Z</time>
      </trkpt>
      <trkpt lat="49.0231" lon="12.25338">
        <ele>333</ele>
        <time>2022-05-24T17:15:29Z</time>
      </trkpt>
      <trkpt lat="49.02288" lon="12.25344">
        <ele>331</ele>
        <time>2022-05-24T17:15:33Z</time>
      </trkpt>
      <trkpt lat="49.02263" lon="12.25377">
        <ele>329</ele>
        <time>2022-05-24T17:15:39Z</time>
      </trkpt>
      <trkpt lat="49.0215" lon="12.25716">
        <ele>328</ele>
        <time>2022-05-24T17:16:23Z</time>
      </trkpt>
      <trkpt lat="49.021" lon="12.25833">
        <ele>326</ele>
        <time>2022-05-24T17:16:39Z</time>
      </trkpt>
      <trkpt lat="49.02066" lon="12.25897">
        <ele>327</ele>
        <time>2022-05-24T17:16:49Z</time>
      </trkpt>
      <trkpt lat="49.01985" lon="12.26027">
        <ele>327</ele>
        <time>2022-05-24T17:17:10Z</time>
      </trkpt>
      <trkpt lat="49.01861" lon="12.26162">
        <ele>327</ele>
        <time>2022-05-24T17:17:37Z</time>
      </trkpt>
      <trkpt lat="49.0176" lon="12.26235">
        <ele>325</ele>
        <time>2022-05-24T17:17:57Z</time>
      </trkpt>
      <trkpt lat="49.01663" lon="12.26291">
        <ele>328</ele>
        <time>2022-05-24T17:18:15Z</time>
      </trkpt>
      <trkpt lat="49.01572" lon="12.26338">
        <ele>327</ele>
        <time>2022-05-24T17:18:32Z</time>
      </trkpt>
      <trkpt lat="49.01457" lon="12.26386">
        <ele>325</ele>
        <time>2022-05-24T17:18:54Z</time>
      </trkpt>
      <trkpt lat="49.01368" lon="12.26433">
        <ele>325</ele>
        <time>2022-05-24T17:19:10Z</time>
      </trkpt>
      <trkpt lat="49.01337" lon="12.26456">
        <ele>325</ele>
        <time>2022-05-24T17:19:17Z</time>
      </trkpt>
      <trkpt lat="49.01295" lon="12.26499">
        <ele>326</ele>
        <time>2022-05-24T17:19:26Z</time>
      </trkpt>
      <trkpt lat="49.01241" lon="12.2658">
        <ele>327</ele>
        <time>2022-05-24T17:19:39Z</time>
      </trkpt>
      <trkpt lat="49.01225" lon="12.26613">
        <ele>327</ele>
        <time>2022-05-24T17:19:44Z</time>
      </trkpt>
      <trkpt lat="49.01197" lon="12.26698">
        <ele>326</ele>
        <time>2022-05-24T17:19:55Z</time>
      </trkpt>
      <trkpt lat="49.01185" lon="12.26766">
        <ele>325</ele>
        <time>2022-05-24T17:20:03Z</time>
      </trkpt>
      <trkpt lat="49.01177" lon="12.26878">
        <ele>325</ele>
        <time>2022-05-24T17:20:16Z</time>
      </trkpt>
      <trkpt lat="49.01181" lon="12.26931">
        <ele>325</ele>
        <time>2022-05-24T17:20:22Z</time>
      </trkpt>
      <trkpt lat="49.01194" lon="12.27015">
        <ele>325</ele>
        <time>2022-05-24T17:20:33Z</time>
      </trkpt>
      <trkpt lat="49.01225" lon="12.27158">
        <ele>327</ele>
        <time>2022-05-24T17:20:50Z</time>
      </trkpt>
      <trkpt lat="49.01257" lon="12.27265">
        <ele>331</ele>
        <time>2022-05-24T17:21:04Z</time>
      </trkpt>
      <trkpt lat="49.01282" lon="12.2739">
        <ele>326</ele>
        <time>2022-05-24T17:21:19Z</time>
      </trkpt>
      <trkpt lat="49.01309" lon="12.27494">
        <ele>328</ele>
        <time>2022-05-24T17:21:32Z</time>
      </trkpt>
      <trkpt lat="49.01469" lon="12.28076">
        <ele>325</ele>
        <time>2022-05-24T17:22:46Z</time>
      </trkpt>
      <trkpt lat="49.01544" lon="12.28417">
        <ele>326</ele>
        <time>2022-05-24T17:23:28Z</time>
      </trkpt>
      <trkpt lat="49.01566" lon="12.28568">
        <ele>326</ele>
        <time>2022-05-24T17:23:46Z</time>
      </trkpt>
      <trkpt lat="49.01602" lon="12.28762">
        <ele>325</ele>
        <time>2022-05-24T17:24:09Z</time>
      </trkpt>
      <trkpt lat="49.01639" lon="12.29176">
        <ele>325</ele>
        <time>2022-05-24T17:24:58Z</time>
      </trkpt>
      <trkpt lat="49.01652" lon="12.29535">
        <ele>325</ele>
        <time>2022-05-24T17:25:40Z</time>
      </trkpt>
      <trkpt lat="49.01663" lon="12.30055">
        <ele>325</ele>
        <time>2022-05-24T17:26:41Z</time>
      </trkpt>
      <trkpt lat="49.01654" lon="12.30756">
        <ele>326</ele>
        <time>2022-05-24T17:28:03Z</time>
      </trkpt>
      <trkpt lat="49.01642" lon="12.31044">
        <ele>326</ele>
        <time>2022-05-24T17:28:36Z</time>
      </trkpt>
      <trkpt lat="49.0163" lon="12.31164">
        <ele>325</ele>
        <time>2022-05-24T17:28:50Z</time>
      </trkpt>
      <trkpt lat="49.01602" lon="12.31363">
        <ele>326</ele>
        <time>2022-05-24T17:29:14Z</time>
      </trkpt>
      <trkpt lat="49.01565" lon="12.31542">
        <ele>327</ele>
        <time>2022-05-24T17:29:36Z</time>
      </trkpt>
      <trkpt lat="49.01558" lon="12.31638">
        <ele>327</ele>
        <time>2022-05-24T17:29:47Z</time>
      </trkpt>
      <trkpt lat="49.0153" lon="12.31681">
        <ele>327</ele>
        <time>2022-05-24T17:29:54Z</time>
      </trkpt>
      <trkpt lat="49.0144" lon="12.3206">
        <ele>328</ele>
        <time>2022-05-24T17:30:41Z</time>
      </trkpt>
      <trkpt lat="49.01391" lon="12.32221">
        <ele>326</ele>
        <time>2022-05-24T17:31:02Z</time>
      </trkpt>
      <trkpt lat="49.01381" lon="12.32274">
        <ele>326</ele>
        <time>2022-05-24T17:31:09Z</time>
      </trkpt>
      <trkpt lat="49.01377" lon="12.32315">
        <ele>326</ele>
        <time>2022-05-24T17:31:13Z</time>
      </trkpt>
      <trkpt lat="49.0135" lon="12.3242">
        <ele>328</ele>
        <time>2022-05-24T17:31:27Z</time>
      </trkpt>
      <trkpt lat="49.01291" lon="12.32557">
        <ele>327</ele>
        <time>2022-05-24T17:31:46Z</time>
      </trkpt>
      <trkpt lat="49.01238" lon="12.32651">
        <ele>325</ele>
        <time>2022-05-24T17:32:00Z</time>
      </trkpt>
      <trkpt lat="49.01175" lon="12.32746">
        <ele>326</ele>
        <time>2022-05-24T17:32:16Z</time>
      </trkpt>
      <trkpt lat="49.01045" lon="12.32926">
        <ele>325</ele>
        <time>2022-05-24T17:32:47Z</time>
      </trkpt>
      <trkpt lat="49.00888" lon="12.33116">
        <ele>325</ele>
        <time>2022-05-24T17:33:23Z</time>
      </trkpt>
      <trkpt lat="49.00821" lon="12.33205">
        <ele>325</ele>
        <time>2022-05-24T17:33:39Z</time>
      </trkpt>
      <trkpt lat="49.00731" lon="12.33341">
        <ele>325</ele>
        <time>2022-05-24T17:34:01Z</time>
      </trkpt>
      <trkpt lat="49.00713" lon="12.33381">
        <ele>325</ele>
        <time>2022-05-24T17:34:07Z</time>
      </trkpt>
      <trkpt lat="49.00705" lon="12.33434">
        <ele>325</ele>
        <time>2022-05-24T17:34:13Z</time>
      </trkpt>
      <trkpt lat="49.00715" lon="12.33569">
        <ele>325</ele>
        <time>2022-05-24T17:34:29Z</time>
      </trkpt>
      <trkpt lat="49.00709" lon="12.33607">
        <ele>325</ele>
        <time>2022-05-24T17:34:34Z</time>
      </trkpt>
      <trkpt lat="49.00695" lon="12.3364">
        <ele>325</ele>
        <time>2022-05-24T17:34:38Z</time>
      </trkpt>
      <trkpt lat="49.00641" lon="12.33747">
        <ele>325</ele>
        <time>2022-05-24T17:34:54Z</time>
      </trkpt>
      <trkpt lat="49.00565" lon="12.33881">
        <ele>325</ele>
        <time>2022-05-24T17:35:15Z</time>
      </trkpt>
      <trkpt lat="49.0055" lon="12.33899">
        <ele>325</ele>
        <time>2022-05-24T17:35:18Z</time>
      </trkpt>
      <trkpt lat="49.00523" lon="12.33913">
        <ele>325</ele>
        <time>2022-05-24T17:35:23Z</time>
      </trkpt>
      <trkpt lat="49.00415" lon="12.33926">
        <ele>326</ele>
        <time>2022-05-24T17:35:42Z</time>
      </trkpt>
      <trkpt lat="49.00394" lon="12.33934">
        <ele>326</ele>
        <time>2022-05-24T17:35:46Z</time>
      </trkpt>
      <trkpt lat="49.00241" lon="12.34186">
        <ele>325</ele>
        <time>2022-05-24T17:36:26Z</time>
      </trkpt>
      <trkpt lat="49.00158" lon="12.34311">
        <ele>325</ele>
        <time>2022-05-24T17:36:47Z</time>
      </trkpt>
      <trkpt lat="49.00033" lon="12.34463">
        <ele>325</ele>
        <time>2022-05-24T17:37:16Z</time>
      </trkpt>
      <trkpt lat="48.99942" lon="12.34552">
        <ele>325</ele>
        <time>2022-05-24T17:37:35Z</time>
      </trkpt>
      <trkpt lat="48.99861" lon="12.34616">
        <ele>327</ele>
        <time>2022-05-24T17:37:51Z</time>
      </trkpt>
      <trkpt lat="48.99782" lon="12.34673">
        <ele>328</ele>
        <time>2022-05-24T17:38:07Z</time>
      </trkpt>
      <trkpt lat="48.99743" lon="12.34739">
        <ele>326</ele>
        <time>2022-05-24T17:38:17Z</time>
      </trkpt>
      <trkpt lat="48.99717" lon="12.34766">
        <ele>326</ele>
        <time>2022-05-24T17:38:23Z</time>
      </trkpt>
      <trkpt lat="48.99687" lon="12.34781">
        <ele>326</ele>
        <time>2022-05-24T17:38:28Z</time>
      </trkpt>
      <trkpt lat="48.99623" lon="12.34798">
        <ele>327</ele>
        <time>2022-05-24T17:38:40Z</time>
      </trkpt>
      <trkpt lat="48.99495" lon="12.34822">
        <ele>328</ele>
        <time>2022-05-24T17:39:03Z</time>
      </trkpt>
      <trkpt lat="48.99333" lon="12.34871">
        <ele>325</ele>
        <time>2022-05-24T17:39:32Z</time>
      </trkpt>
      <trkpt lat="48.99346" lon="12.35002">
        <ele>326</ele>
        <time>2022-05-24T17:39:48Z</time>
      </trkpt>
      <trkpt lat="48.99351" lon="12.35104">
        <ele>325</ele>
        <time>2022-05-24T17:40:00Z</time>
      </trkpt>
      <trkpt lat="48.99346" lon="12.35192">
        <ele>326</ele>
        <time>2022-05-24T17:40:10Z</time>
      </trkpt>
      <trkpt lat="48.99349" lon="12.3526">
        <ele>327</ele>
        <time>2022-05-24T17:40:18Z</time>
      </trkpt>
      <trkpt lat="48.99396" lon="12.35456">
        <ele>325</ele>
        <time>2022-05-24T17:40:42Z</time>
      </trkpt>
      <trkpt lat="48.99426" lon="12.35638">
        <ele>324</ele>
        <time>2022-05-24T17:41:04Z</time>
      </trkpt>
      <trkpt lat="48.99433" lon="12.35724">
        <ele>324</ele>
        <time>2022-05-24T17:41:14Z</time>
      </trkpt>
      <trkpt lat="48.99426" lon="12.35883">
        <ele>325</ele>
        <time>2022-05-24T17:41:33Z</time>
      </trkpt>
      <trkpt lat="48.9943" lon="12.35889">
        <ele>325</ele>
        <time>2022-05-24T17:41:34Z</time>
      </trkpt>
      <trkpt lat="48.99435" lon="12.35975">
        <ele>324</ele>
        <time>2022-05-24T17:41:44Z</time>
      </trkpt>
      <trkpt lat="48.9945" lon="12.36004">
        <ele>324</ele>
        <time>2022-05-24T17:41:48Z</time>
      </trkpt>
      <trkpt lat="48.99443" lon="12.36034">
        <ele>324</ele>
        <time>2022-05-24T17:41:52Z</time>
      </trkpt>
      <trkpt lat="48.99434" lon="12.36049">
        <ele>324</ele>
        <time>2022-05-24T17:41:54Z</time>
      </trkpt>
      <trkpt lat="48.99435" lon="12.36075">
        <ele>324</ele>
        <time>2022-05-24T17:41:57Z</time>
      </trkpt>
      <trkpt lat="48.99441" lon="12.36088">
        <ele>325</ele>
        <time>2022-05-24T17:41:59Z</time>
      </trkpt>
      <trkpt lat="48.99436" lon="12.36097">
        <ele>324</ele>
        <time>2022-05-24T17:42:01Z</time>
      </trkpt>
      <trkpt lat="48.9943" lon="12.3614">
        <ele>324</ele>
        <time>2022-05-24T17:42:06Z</time>
      </trkpt>
      <trkpt lat="48.99427" lon="12.36424">
        <ele>325</ele>
        <time>2022-05-24T17:42:39Z</time>
      </trkpt>
      <trkpt lat="48.99432" lon="12.36578">
        <ele>325</ele>
        <time>2022-05-24T17:42:57Z</time>
      </trkpt>
      <trkpt lat="48.9951" lon="12.37499">
        <ele>323</ele>
        <time>2022-05-24T17:44:45Z</time>
      </trkpt>
      <trkpt lat="48.99512" lon="12.37563">
        <ele>325</ele>
        <time>2022-05-24T17:44:53Z</time>
      </trkpt>
      <trkpt lat="48.99507" lon="12.37687">
        <ele>327</ele>
        <time>2022-05-24T17:45:07Z</time>
      </trkpt>
      <trkpt lat="48.99497" lon="12.37767">
        <ele>325</ele>
        <time>2022-05-24T17:45:17Z</time>
      </trkpt>
      <trkpt lat="48.99524" lon="12.37781">
        <ele>325</ele>
        <time>2022-05-24T17:45:22Z</time>
      </trkpt>
      <trkpt lat="48.99576" lon="12.37884">
        <ele>325</ele>
        <time>2022-05-24T17:45:37Z</time>
      </trkpt>
      <trkpt lat="48.99573" lon="12.37974">
        <ele>325</ele>
        <time>2022-05-24T17:45:47Z</time>
      </trkpt>
      <trkpt lat="48.9955" lon="12.38048">
        <ele>324</ele>
        <time>2022-05-24T17:45:57Z</time>
      </trkpt>
      <trkpt lat="48.99535" lon="12.38126">
        <ele>323</ele>
        <time>2022-05-24T17:46:07Z</time>
      </trkpt>
      <trkpt lat="48.99525" lon="12.38194">
        <ele>323</ele>
        <time>2022-05-24T17:46:15Z</time>
      </trkpt>
      <trkpt lat="48.99522" lon="12.38289">
        <ele>323</ele>
        <time>2022-05-24T17:46:26Z</time>
      </trkpt>
      <trkpt lat="48.99507" lon="12.3832">
        <ele>323</ele>
        <time>2022-05-24T17:46:30Z</time>
      </trkpt>
      <trkpt lat="48.99501" lon="12.38338">
        <ele>323</ele>
        <time>2022-05-24T17:46:33Z</time>
      </trkpt>
      <trkpt lat="48.99494" lon="12.38379">
        <ele>323</ele>
        <time>2022-05-24T17:46:38Z</time>
      </trkpt>
      <trkpt lat="48.99393" lon="12.38649">
        <ele>324</ele>
        <time>2022-05-24T17:47:14Z</time>
      </trkpt>
      <trkpt lat="48.99374" lon="12.38727">
        <ele>324</ele>
        <time>2022-05-24T17:47:24Z</time>
      </trkpt>
      <trkpt lat="48.99371" lon="12.38786">
        <ele>324</ele>
        <time>2022-05-24T17:47:30Z</time>
      </trkpt>
      <trkpt lat="48.99375" lon="12.38843">
        <ele>323</ele>
        <time>2022-05-24T17:47:37Z</time>
      </trkpt>
      <trkpt lat="48.99383" lon="12.38884">
        <ele>322</ele>
        <time>2022-05-24T17:47:42Z</time>
      </trkpt>
      <trkpt lat="48.99422" lon="12.38999">
        <ele>321</ele>
        <time>2022-05-24T17:47:57Z</time>
      </trkpt>
      <trkpt lat="48.99433" lon="12.39046">
        <ele>322</ele>
        <time>2022-05-24T17:48:03Z</time>
      </trkpt>
      <trkpt lat="48.9944" lon="12.39093">
        <ele>322</ele>
        <time>2022-05-24T17:48:09Z</time>
      </trkpt>
      <trkpt lat="48.9944" lon="12.39147">
        <ele>322</ele>
        <time>2022-05-24T17:48:15Z</time>
      </trkpt>
      <trkpt lat="48.99436" lon="12.39196">
        <ele>322</ele>
        <time>2022-05-24T17:48:21Z</time>
      </trkpt>
      <trkpt lat="48.99391" lon="12.39401">
        <ele>321</ele>
        <time>2022-05-24T17:48:46Z</time>
      </trkpt>
      <trkpt lat="48.99378" lon="12.3951">
        <ele>322</ele>
        <time>2022-05-24T17:48:59Z</time>
      </trkpt>
      <trkpt lat="48.9937" lon="12.39678">
        <ele>321</ele>
        <time>2022-05-24T17:49:19Z</time>
      </trkpt>
      <trkpt lat="48.99353" lon="12.3982">
        <ele>322</ele>
        <time>2022-05-24T17:49:35Z</time>
      </trkpt>
      <trkpt lat="48.99313" lon="12.39987">
        <ele>321</ele>
        <time>2022-05-24T17:49:56Z</time>
      </trkpt>
      <trkpt lat="48.99274" lon="12.40093">
        <ele>321</ele>
        <time>2022-05-24T17:50:10Z</time>
      </trkpt>
      <trkpt lat="48.99254" lon="12.40134">
        <ele>321</ele>
        <time>2022-05-24T17:50:16Z</time>
      </trkpt>
      <trkpt lat="48.99227" lon="12.4018">
        <ele>321</ele>
        <time>2022-05-24T17:50:24Z</time>
      </trkpt>
      <trkpt lat="48.99169" lon="12.40257">
        <ele>320</ele>
        <time>2022-05-24T17:50:37Z</time>
      </trkpt>
      <trkpt lat="48.99133" lon="12.40317">
        <ele>320</ele>
        <time>2022-05-24T17:50:47Z</time>
      </trkpt>
      <trkpt lat="48.99107" lon="12.40378">
        <ele>320</ele>
        <time>2022-05-24T17:50:55Z</time>
      </trkpt>
      <trkpt lat="48.9908" lon="12.40483">
        <ele>321</ele>
        <time>2022-05-24T17:51:08Z</time>
      </trkpt>
      <trkpt lat="48.99069" lon="12.40577">
        <ele>321</ele>
        <time>2022-05-24T17:51:20Z</time>
      </trkpt>
      <trkpt lat="48.99069" lon="12.40661">
        <ele>323</ele>
        <time>2022-05-24T17:51:29Z</time>
      </trkpt>
      <trkpt lat="48.9908" lon="12.40757">
        <ele>323</ele>
        <time>2022-05-24T17:51:41Z</time>
      </trkpt>
      <trkpt lat="48.99146" lon="12.41053">
        <ele>321</ele>
        <time>2022-05-24T17:52:17Z</time>
      </trkpt>
      <trkpt lat="48.9915" lon="12.41105">
        <ele>321</ele>
        <time>2022-05-24T17:52:23Z</time>
      </trkpt>
      <trkpt lat="48.99146" lon="12.41134">
        <ele>321</ele>
        <time>2022-05-24T17:52:27Z</time>
      </trkpt>
      <trkpt lat="48.99129" lon="12.41192">
        <ele>320</ele>
        <time>2022-05-24T17:52:34Z</time>
      </trkpt>
      <trkpt lat="48.99117" lon="12.41216">
        <ele>321</ele>
        <time>2022-05-24T17:52:38Z</time>
      </trkpt>
      <trkpt lat="48.98963" lon="12.41481">
        <ele>321</ele>
        <time>2022-05-24T17:53:19Z</time>
      </trkpt>
      <trkpt lat="48.98944" lon="12.41548">
        <ele>321</ele>
        <time>2022-05-24T17:53:28Z</time>
      </trkpt>
      <trkpt lat="48.98946" lon="12.41636">
        <ele>322</ele>
        <time>2022-05-24T17:53:38Z</time>
      </trkpt>
      <trkpt lat="48.98962" lon="12.41696">
        <ele>322</ele>
        <time>2022-05-24T17:53:45Z</time>
      </trkpt>
      <trkpt lat="48.99058" lon="12.41904">
        <ele>323</ele>
        <time>2022-05-24T17:54:15Z</time>
      </trkpt>
      <trkpt lat="48.9907" lon="12.41966">
        <ele>322</ele>
        <time>2022-05-24T17:54:23Z</time>
      </trkpt>
      <trkpt lat="48.99054" lon="12.4222">
        <ele>319</ele>
        <time>2022-05-24T17:54:52Z</time>
      </trkpt>
      <trkpt lat="48.9905" lon="12.42381">
        <ele>320</ele>
        <time>2022-05-24T17:55:11Z</time>
      </trkpt>
      <trkpt lat="48.99042" lon="12.42539">
        <ele>321</ele>
        <time>2022-05-24T17:55:30Z</time>
      </trkpt>
      <trkpt lat="48.99048" lon="12.42543">
        <ele>321</ele>
        <time>2022-05-24T17:55:31Z</time>
      </trkpt>
      <trkpt lat="48.99156" lon="12.42554">
        <ele>327</ele>
        <time>2022-05-24T17:55:50Z</time>
      </trkpt>
      <trkpt lat="48.99064" lon="12.43066">
        <ele>328</ele>
        <time>2022-05-24T17:56:52Z</time>
      </trkpt>
      <trkpt lat="48.99028" lon="12.43216">
        <ele>328</ele>
        <time>2022-05-24T17:57:11Z</time>
      </trkpt>
      <trkpt lat="48.99028" lon="12.43267">
        <ele>329</ele>
        <time>2022-05-24T17:57:17Z</time>
      </trkpt>
      <trkpt lat="48.98981" lon="12.43491">
        <ele>330</ele>
        <time>2022-05-24T17:57:44Z</time>
      </trkpt>
      <trkpt lat="48.98954" lon="12.43641">
        <ele>330</ele>
        <time>2022-05-24T17:58:02Z</time>
      </trkpt>
      <trkpt lat="48.98934" lon="12.43794">
        <ele>334</ele>
        <time>2022-05-24T17:58:21Z</time>
      </trkpt>
      <trkpt lat="48.9879" lon="12.44435">
        <ele>339</ele>
        <time>2022-05-24T17:59:40Z</time>
      </trkpt>
      <trkpt lat="48.98745" lon="12.44609">
        <ele>339</ele>
        <time>2022-05-24T18:00:02Z</time>
      </trkpt>
      <trkpt lat="48.98687" lon="12.44798">
        <ele>338</ele>
        <time>2022-05-24T18:00:26Z</time>
      </trkpt>
      <trkpt lat="48.9867" lon="12.44826">
        <ele>337</ele>
        <time>2022-05-24T18:00:30Z</time>
      </trkpt>
      <trkpt lat="48.98661" lon="12.44814">
        <ele>337</ele>
        <time>2022-05-24T18:00:33Z</time>
      </trkpt>
      <trkpt lat="48.9865" lon="12.44814">
        <ele>337</ele>
        <time>2022-05-24T18:00:34Z</time>
      </trkpt>
      <trkpt lat="48.9861" lon="12.44758">
        <ele>337</ele>
        <time>2022-05-24T18:00:44Z</time>
      </trkpt>
      <trkpt lat="48.98592" lon="12.44753">
        <ele>337</ele>
        <time>2022-05-24T18:00:47Z</time>
      </trkpt>
      <trkpt lat="48.98271" lon="12.44837">
        <ele>334</ele>
        <time>2022-05-24T18:01:45Z</time>
      </trkpt>
      <trkpt lat="48.98292" lon="12.45082">
        <ele>334</ele>
        <time>2022-05-24T18:02:14Z</time>
      </trkpt>
      <trkpt lat="48.98309" lon="12.45342">
        <ele>334</ele>
        <time>2022-05-24T18:02:45Z</time>
      </trkpt>
      <trkpt lat="48.9825" lon="12.45354">
        <ele>334</ele>
        <time>2022-05-24T18:02:55Z</time>
      </trkpt>
      <trkpt lat="48.98251" lon="12.4537">
        <ele>333</ele>
        <time>2022-05-24T18:02:57Z</time>
      </trkpt>
      <trkpt lat="48.98148" lon="12.45657">
        <ele>333</ele>
        <time>2022-05-24T18:03:35Z</time>
      </trkpt>
      <trkpt lat="48.98002" lon="12.46048">
        <ele>331</ele>
        <time>2022-05-24T18:04:28Z</time>
      </trkpt>
      <trkpt lat="48.97788" lon="12.46606">
        <ele>332</ele>
        <time>2022-05-24T18:05:43Z</time>
      </trkpt>
      <trkpt lat="48.97612" lon="12.47053">
        <ele>330</ele>
        <time>2022-05-24T18:06:44Z</time>
      </trkpt>
      <trkpt lat="48.97412" lon="12.47691">
        <ele>330</ele>
        <time>2022-05-24T18:08:07Z</time>
      </trkpt>
      <trkpt lat="48.97256" lon="12.48212">
        <ele>329</ele>
        <time>2022-05-24T18:09:14Z</time>
      </trkpt>
      <trkpt lat="48.97036" lon="12.4906">
        <ele>328</ele>
        <time>2022-05-24T18:11:00Z</time>
      </trkpt>
      <trkpt lat="48.96806" lon="12.48979">
        <ele>326</ele>
        <time>2022-05-24T18:11:42Z</time>
      </trkpt>
      <trkpt lat="48.96587" lon="12.48887">
        <ele>327</ele>
        <time>2022-05-24T18:12:23Z</time>
      </trkpt>
      <trkpt lat="48.96463" lon="12.48829">
        <ele>330</ele>
        <time>2022-05-24T18:12:46Z</time>
      </trkpt>
      <trkpt lat="48.96442" lon="12.4883">
        <ele>330</ele>
        <time>2022-05-24T18:12:49Z</time>
      </trkpt>
      <trkpt lat="48.96435" lon="12.48818">
        <ele>329</ele>
        <time>2022-05-24T18:12:51Z</time>
      </trkpt>
      <trkpt lat="48.96401" lon="12.48795">
        <ele>328</ele>
        <time>2022-05-24T18:12:58Z</time>
      </trkpt>
      <trkpt lat="48.96375" lon="12.48761">
        <ele>326</ele>
        <time>2022-05-24T18:13:04Z</time>
      </trkpt>
      <trkpt lat="48.96359" lon="12.48781">
        <ele>326</ele>
        <time>2022-05-24T18:13:08Z</time>
      </trkpt>
      <trkpt lat="48.96313" lon="12.48767">
        <ele>324</ele>
        <time>2022-05-24T18:13:16Z</time>
      </trkpt>
      <trkpt lat="48.96283" lon="12.48799">
        <ele>322</ele>
        <time>2022-05-24T18:13:23Z</time>
      </trkpt>
      <trkpt lat="48.9621" lon="12.48785">
        <ele>319</ele>
        <time>2022-05-24T18:13:36Z</time>
      </trkpt>
      <trkpt lat="48.9618" lon="12.48776">
        <ele>319</ele>
        <time>2022-05-24T18:13:41Z</time>
      </trkpt>
      <trkpt lat="48.96162" lon="12.48922">
        <ele>316</ele>
        <time>2022-05-24T18:13:58Z</time>
      </trkpt>
      <trkpt lat="48.96132" lon="12.49068">
        <ele>319</ele>
        <time>2022-05-24T18:14:16Z</time>
      </trkpt>
      <trkpt lat="48.96053" lon="12.49339">
        <ele>321</ele>
        <time>2022-05-24T18:14:51Z</time>
      </trkpt>
      <trkpt lat="48.95966" lon="12.49545">
        <ele>320</ele>
        <time>2022-05-24T18:15:20Z</time>
      </trkpt>
      <trkpt lat="48.959" lon="12.49689">
        <ele>319</ele>
        <time>2022-05-24T18:15:40Z</time>
      </trkpt>
      <trkpt lat="48.95764" lon="12.49887">
        <ele>319</ele>
        <time>2022-05-24T18:16:14Z</time>
      </trkpt>
      <trkpt lat="48.95644" lon="12.50013">
        <ele>319</ele>
        <time>2022-05-24T18:16:40Z</time>
      </trkpt>
      <trkpt lat="48.95538" lon="12.50102">
        <ele>319</ele>
        <time>2022-05-24T18:17:01Z</time>
      </trkpt>
      <trkpt lat="48.95498" lon="12.50146">
        <ele>319</ele>
        <time>2022-05-24T18:17:10Z</time>
      </trkpt>
      <trkpt lat="48.95321" lon="12.50288">
        <ele>318</ele>
        <time>2022-05-24T18:17:45Z</time>
      </trkpt>
      <trkpt lat="48.95274" lon="12.50318">
        <ele>318</ele>
        <time>2022-05-24T18:17:55Z</time>
      </trkpt>
      <trkpt lat="48.95192" lon="12.50428">
        <ele>319</ele>
        <time>2022-05-24T18:18:14Z</time>
      </trkpt>
      <trkpt lat="48.95108" lon="12.50582">
        <ele>319</ele>
        <time>2022-05-24T18:18:37Z</time>
      </trkpt>
      <trkpt lat="48.95053" lon="12.50707">
        <ele>318</ele>
        <time>2022-05-24T18:18:55Z</time>
      </trkpt>
      <trkpt lat="48.95" lon="12.50881">
        <ele>319</ele>
        <time>2022-05-24T18:19:17Z</time>
      </trkpt>
      <trkpt lat="48.9496" lon="12.51122">
        <ele>318</ele>
        <time>2022-05-24T18:19:46Z</time>
      </trkpt>
      <trkpt lat="48.94924" lon="12.51479">
        <ele>317</ele>
        <time>2022-05-24T18:20:29Z</time>
      </trkpt>
      <trkpt lat="48.94883" lon="12.51704">
        <ele>319</ele>
        <time>2022-05-24T18:20:56Z</time>
      </trkpt>
      <trkpt lat="48.94842" lon="12.51848">
        <ele>318</ele>
        <time>2022-05-24T18:21:14Z</time>
      </trkpt>
      <trkpt lat="48.94792" lon="12.51989">
        <ele>319</ele>
        <time>2022-05-24T18:21:33Z</time>
      </trkpt>
      <trkpt lat="48.94718" lon="12.52165">
        <ele>318</ele>
        <time>2022-05-24T18:21:57Z</time>
      </trkpt>
      <trkpt lat="48.94617" lon="12.52339">
        <ele>317</ele>
        <time>2022-05-24T18:22:25Z</time>
      </trkpt>
      <trkpt lat="48.94575" lon="12.52402">
        <ele>318</ele>
        <time>2022-05-24T18:22:35Z</time>
      </trkpt>
      <trkpt lat="48.94475" lon="12.52521">
        <ele>319</ele>
        <time>2022-05-24T18:22:58Z</time>
      </trkpt>
      <trkpt lat="48.9442" lon="12.52572">
        <ele>318</ele>
        <time>2022-05-24T18:23:09Z</time>
      </trkpt>
      <trkpt lat="48.94342" lon="12.52616">
        <ele>318</ele>
        <time>2022-05-24T18:23:24Z</time>
      </trkpt>
      <trkpt lat="48.94259" lon="12.52635">
        <ele>319</ele>
        <time>2022-05-24T18:23:39Z</time>
      </trkpt>
      <trkpt lat="48.94187" lon="12.52643">
        <ele>318</ele>
        <time>2022-05-24T18:23:52Z</time>
      </trkpt>
      <trkpt lat="48.94035" lon="12.52612">
        <ele>318</ele>
        <time>2022-05-24T18:24:19Z</time>
      </trkpt>
      <trkpt lat="48.93933" lon="12.52565">
        <ele>318</ele>
        <time>2022-05-24T18:24:38Z</time>
      </trkpt>
      <trkpt lat="48.93829" lon="12.52493">
        <ele>318</ele>
        <time>2022-05-24T18:24:58Z</time>
      </trkpt>
      <trkpt lat="48.93802" lon="12.52508">
        <ele>318</ele>
        <time>2022-05-24T18:25:03Z</time>
      </trkpt>
      <trkpt lat="48.93647" lon="12.52731">
        <ele>318</ele>
        <time>2022-05-24T18:25:41Z</time>
      </trkpt>
      <trkpt lat="48.93589" lon="12.52785">
        <ele>317</ele>
        <time>2022-05-24T18:25:53Z</time>
      </trkpt>
      <trkpt lat="48.93536" lon="12.52817">
        <ele>317</ele>
        <time>2022-05-24T18:26:03Z</time>
      </trkpt>
      <trkpt lat="48.93442" lon="12.52851">
        <ele>316</ele>
        <time>2022-05-24T18:26:21Z</time>
      </trkpt>
      <trkpt lat="48.93335" lon="12.52862">
        <ele>316</ele>
        <time>2022-05-24T18:26:40Z</time>
      </trkpt>
      <trkpt lat="48.93246" lon="12.52852">
        <ele>316</ele>
        <time>2022-05-24T18:26:56Z</time>
      </trkpt>
      <trkpt lat="48.93153" lon="12.52817">
        <ele>317</ele>
        <time>2022-05-24T18:27:13Z</time>
      </trkpt>
      <trkpt lat="48.92983" lon="12.52679">
        <ele>317</ele>
        <time>2022-05-24T18:27:47Z</time>
      </trkpt>
      <trkpt lat="48.92961" lon="12.52717">
        <ele>317</ele>
        <time>2022-05-24T18:27:53Z</time>
      </trkpt>
      <trkpt lat="48.92931" lon="12.52788">
        <ele>318</ele>
        <time>2022-05-24T18:28:03Z</time>
      </trkpt>
      <trkpt lat="48.92922" lon="12.52801">
        <ele>318</ele>
        <time>2022-05-24T18:28:05Z</time>
      </trkpt>
      <trkpt lat="48.92891" lon="12.52821">
        <ele>318</ele>
        <time>2022-05-24T18:28:11Z</time>
      </trkpt>
      <trkpt lat="48.92843" lon="12.52834">
        <ele>318</ele>
        <time>2022-05-24T18:28:20Z</time>
      </trkpt>
      <trkpt lat="48.92776" lon="12.5281">
        <ele>318</ele>
        <time>2022-05-24T18:28:32Z</time>
      </trkpt>
      <trkpt lat="48.92749" lon="12.52794">
        <ele>319</ele>
        <time>2022-05-24T18:28:37Z</time>
      </trkpt>
      <trkpt lat="48.92593" lon="12.52674">
        <ele>319</ele>
        <time>2022-05-24T18:29:08Z</time>
      </trkpt>
      <trkpt lat="48.92499" lon="12.52614">
        <ele>320</ele>
        <time>2022-05-24T18:29:26Z</time>
      </trkpt>
      <trkpt lat="48.92459" lon="12.52569">
        <ele>319</ele>
        <time>2022-05-24T18:29:35Z</time>
      </trkpt>
      <trkpt lat="48.92448" lon="12.52595">
        <ele>319</ele>
        <time>2022-05-24T18:29:39Z</time>
      </trkpt>
      <trkpt lat="48.92447" lon="12.52733">
        <ele>319</ele>
        <time>2022-05-24T18:29:55Z</time>
      </trkpt>
      <trkpt lat="48.92453" lon="12.52815">
        <ele>317</ele>
        <time>2022-05-24T18:30:05Z</time>
      </trkpt>
      <trkpt lat="48.92499" lon="12.53018">
        <ele>317</ele>
        <time>2022-05-24T18:30:30Z</time>
      </trkpt>
      <trkpt lat="48.92522" lon="12.53131">
        <ele>317</ele>
        <time>2022-05-24T18:30:43Z</time>
      </trkpt>
      <trkpt lat="48.92532" lon="12.53212">
        <ele>317</ele>
        <time>2022-05-24T18:30:53Z</time>
      </trkpt>
      <trkpt lat="48.92556" lon="12.53591">
        <ele>317</ele>
        <time>2022-05-24T18:31:38Z</time>
      </trkpt>
      <trkpt lat="48.92567" lon="12.53681">
        <ele>317</ele>
        <time>2022-05-24T18:31:48Z</time>
      </trkpt>
      <trkpt lat="48.92598" lon="12.53824">
        <ele>316</ele>
        <time>2022-05-24T18:32:06Z</time>
      </trkpt>
      <trkpt lat="48.92655" lon="12.54032">
        <ele>318</ele>
        <time>2022-05-24T18:32:32Z</time>
      </trkpt>
      <trkpt lat="48.92719" lon="12.54302">
        <ele>317</ele>
        <time>2022-05-24T18:33:06Z</time>
      </trkpt>
      <trkpt lat="48.92733" lon="12.5441">
        <ele>317</ele>
        <time>2022-05-24T18:33:19Z</time>
      </trkpt>
      <trkpt lat="48.92735" lon="12.54558">
        <ele>317</ele>
        <time>2022-05-24T18:33:36Z</time>
      </trkpt>
      <trkpt lat="48.92723" lon="12.54738">
        <ele>317</ele>
        <time>2022-05-24T18:33:57Z</time>
      </trkpt>
      <trkpt lat="48.92725" lon="12.5477">
        <ele>317</ele>
        <time>2022-05-24T18:34:01Z</time>
      </trkpt>
      <trkpt lat="48.92728" lon="12.54781">
        <ele>317</ele>
        <time>2022-05-24T18:34:02Z</time>
      </trkpt>
      <trkpt lat="48.92742" lon="12.54809">
        <ele>317</ele>
        <time>2022-05-24T18:34:06Z</time>
      </trkpt>
      <trkpt lat="48.92834" lon="12.54987">
        <ele>319</ele>
        <time>2022-05-24T18:34:33Z</time>
      </trkpt>
      <trkpt lat="48.92849" lon="12.55037">
        <ele>320</ele>
        <time>2022-05-24T18:34:39Z</time>
      </trkpt>
      <trkpt lat="48.92874" lon="12.55075">
        <ele>321</ele>
        <time>2022-05-24T18:34:46Z</time>
      </trkpt>
      <trkpt lat="48.92899" lon="12.55178">
        <ele>322</ele>
        <time>2022-05-24T18:34:58Z</time>
      </trkpt>
      <trkpt lat="48.92704" lon="12.55283">
        <ele>322</ele>
        <time>2022-05-24T18:35:35Z</time>
      </trkpt>
      <trkpt lat="48.92632" lon="12.55336">
        <ele>322</ele>
        <time>2022-05-24T18:35:49Z</time>
      </trkpt>
      <trkpt lat="48.92597" lon="12.55356">
        <ele>322</ele>
        <time>2022-05-24T18:35:56Z</time>
      </trkpt>
      <trkpt lat="48.92545" lon="12.5538">
        <ele>321</ele>
        <time>2022-05-24T18:36:06Z</time>
      </trkpt>
      <trkpt lat="48.92503" lon="12.55393">
        <ele>320</ele>
        <time>2022-05-24T18:36:13Z</time>
      </trkpt>
      <trkpt lat="48.92456" lon="12.55399">
        <ele>320</ele>
        <time>2022-05-24T18:36:22Z</time>
      </trkpt>
      <trkpt lat="48.92414" lon="12.55408">
        <ele>320</ele>
        <time>2022-05-24T18:36:29Z</time>
      </trkpt>
      <trkpt lat="48.9216" lon="12.55553">
        <ele>317</ele>
        <time>2022-05-24T18:37:18Z</time>
      </trkpt>
      <trkpt lat="48.92086" lon="12.55575">
        <ele>317</ele>
        <time>2022-05-24T18:37:31Z</time>
      </trkpt>
      <trkpt lat="48.92003" lon="12.55588">
        <ele>318</ele>
        <time>2022-05-24T18:37:46Z</time>
      </trkpt>
      <trkpt lat="48.91921" lon="12.55592">
        <ele>318</ele>
        <time>2022-05-24T18:38:00Z</time>
      </trkpt>
      <trkpt lat="48.91812" lon="12.55603">
        <ele>318</ele>
        <time>2022-05-24T18:38:20Z</time>
      </trkpt>
      <trkpt lat="48.91709" lon="12.55658">
        <ele>320</ele>
        <time>2022-05-24T18:38:39Z</time>
      </trkpt>
      <trkpt lat="48.91679" lon="12.55684">
        <ele>319</ele>
        <time>2022-05-24T18:38:45Z</time>
      </trkpt>
      <trkpt lat="48.91673" lon="12.55698">
        <ele>319</ele>
        <time>2022-05-24T18:38:47Z</time>
      </trkpt>
      <trkpt lat="48.91661" lon="12.55701">
        <ele>319</ele>
        <time>2022-05-24T18:38:50Z</time>
      </trkpt>
      <trkpt lat="48.91488" lon="12.55855">
        <ele>317</ele>
        <time>2022-05-24T18:39:25Z</time>
      </trkpt>
      <trkpt lat="48.91409" lon="12.55899">
        <ele>318</ele>
        <time>2022-05-24T18:39:40Z</time>
      </trkpt>
      <trkpt lat="48.91217" lon="12.55976">
        <ele>317</ele>
        <time>2022-05-24T18:40:16Z</time>
      </trkpt>
      <trkpt lat="48.9115" lon="12.55984">
        <ele>317</ele>
        <time>2022-05-24T18:40:28Z</time>
      </trkpt>
      <trkpt lat="48.91065" lon="12.55958">
        <ele>319</ele>
        <time>2022-05-24T18:40:43Z</time>
      </trkpt>
      <trkpt lat="48.91052" lon="12.55934">
        <ele>320</ele>
        <time>2022-05-24T18:40:47Z</time>
      </trkpt>
      <trkpt lat="48.91009" lon="12.55934">
        <ele>320</ele>
        <time>2022-05-24T18:40:54Z</time>
      </trkpt>
      <trkpt lat="48.90982" lon="12.55956">
        <ele>319</ele>
        <time>2022-05-24T18:41:00Z</time>
      </trkpt>
      <trkpt lat="48.90925" lon="12.55901">
        <ele>319</ele>
        <time>2022-05-24T18:41:12Z</time>
      </trkpt>
      <trkpt lat="48.90832" lon="12.55893">
        <ele>319</ele>
        <time>2022-05-24T18:41:28Z</time>
      </trkpt>
      <trkpt lat="48.90796" lon="12.55896">
        <ele>318</ele>
        <time>2022-05-24T18:41:35Z</time>
      </trkpt>
      <trkpt lat="48.90761" lon="12.5589">
        <ele>317</ele>
        <time>2022-05-24T18:41:41Z</time>
      </trkpt>
      <trkpt lat="48.90684" lon="12.55906">
        <ele>316</ele>
        <time>2022-05-24T18:41:55Z</time>
      </trkpt>
      <trkpt lat="48.90636" lon="12.55923">
        <ele>317</ele>
        <time>2022-05-24T18:42:04Z</time>
      </trkpt>
      <trkpt lat="48.90584" lon="12.55962">
        <ele>319</ele>
        <time>2022-05-24T18:42:14Z</time>
      </trkpt>
      <trkpt lat="48.9055" lon="12.56002">
        <ele>319</ele>
        <time>2022-05-24T18:42:21Z</time>
      </trkpt>
      <trkpt lat="48.90522" lon="12.5605">
        <ele>319</ele>
        <time>2022-05-24T18:42:29Z</time>
      </trkpt>
      <trkpt lat="48.90506" lon="12.56087">
        <ele>318</ele>
        <time>2022-05-24T18:42:34Z</time>
      </trkpt>
      <trkpt lat="48.90437" lon="12.56021">
        <ele>318</ele>
        <time>2022-05-24T18:42:49Z</time>
      </trkpt>
      <trkpt lat="48.90431" lon="12.55984">
        <ele>318</ele>
        <time>2022-05-24T18:42:53Z</time>
      </trkpt>
      <trkpt lat="48.9046" lon="12.55672">
        <ele>317</ele>
        <time>2022-05-24T18:43:30Z</time>
      </trkpt>
      <trkpt lat="48.90156" lon="12.5566">
        <ele>317</ele>
        <time>2022-05-24T18:44:24Z</time>
      </trkpt>
      <trkpt lat="48.90065" lon="12.55648">
        <ele>318</ele>
        <time>2022-05-24T18:44:40Z</time>
      </trkpt>
      <trkpt lat="48.89922" lon="12.55646">
        <ele>320</ele>
        <time>2022-05-24T18:45:06Z</time>
      </trkpt>
      <trkpt lat="48.89687" lon="12.55638">
        <ele>320</ele>
        <time>2022-05-24T18:45:48Z</time>
      </trkpt>
      <trkpt lat="48.89619" lon="12.55628">
        <ele>319</ele>
        <time>2022-05-24T18:46:00Z</time>
      </trkpt>
      <trkpt lat="48.8951" lon="12.55588">
        <ele>319</ele>
        <time>2022-05-24T18:46:20Z</time>
      </trkpt>
      <trkpt lat="48.89455" lon="12.55579">
        <ele>319</ele>
        <time>2022-05-24T18:46:30Z</time>
      </trkpt>
      <trkpt lat="48.89417" lon="12.55558">
        <ele>319</ele>
        <time>2022-05-24T18:46:37Z</time>
      </trkpt>
      <trkpt lat="48.89347" lon="12.55545">
        <ele>317</ele>
        <time>2022-05-24T18:46:49Z</time>
      </trkpt>
      <trkpt lat="48.89206" lon="12.55483">
        <ele>317</ele>
        <time>2022-05-24T18:47:15Z</time>
      </trkpt>
      <trkpt lat="48.89145" lon="12.55475">
        <ele>317</ele>
        <time>2022-05-24T18:47:26Z</time>
      </trkpt>
      <trkpt lat="48.89104" lon="12.55481">
        <ele>316</ele>
        <time>2022-05-24T18:47:34Z</time>
      </trkpt>
      <trkpt lat="48.89043" lon="12.55513">
        <ele>316</ele>
        <time>2022-05-24T18:47:45Z</time>
      </trkpt>
      <trkpt lat="48.89003" lon="12.55551">
        <ele>316</ele>
        <time>2022-05-24T18:47:54Z</time>
      </trkpt>
      <trkpt lat="48.88955" lon="12.55614">
        <ele>316</ele>
        <time>2022-05-24T18:48:05Z</time>
      </trkpt>
      <trkpt lat="48.88742" lon="12.55926">
        <ele>315</ele>
        <time>2022-05-24T18:48:57Z</time>
      </trkpt>
      <trkpt lat="48.88733" lon="12.55917">
        <ele>315</ele>
        <time>2022-05-24T18:48:59Z</time>
      </trkpt>
      <trkpt lat="48.88727" lon="12.55905">
        <ele>315</ele>
        <time>2022-05-24T18:49:01Z</time>
      </trkpt>
      <trkpt lat="48.8866" lon="12.56008">
        <ele>315</ele>
        <time>2022-05-24T18:49:18Z</time>
      </trkpt>
      <trkpt lat="48.88622" lon="12.56048">
        <ele>315</ele>
        <time>2022-05-24T18:49:26Z</time>
      </trkpt>
      <trkpt lat="48.88588" lon="12.56072">
        <ele>315</ele>
        <time>2022-05-24T18:49:33Z</time>
      </trkpt>
      <trkpt lat="48.88437" lon="12.56141">
        <ele>317</ele>
        <time>2022-05-24T18:50:01Z</time>
      </trkpt>
      <trkpt lat="48.88419" lon="12.56157">
        <ele>317</ele>
        <time>2022-05-24T18:50:05Z</time>
      </trkpt>
      <trkpt lat="48.88374" lon="12.56223">
        <ele>318</ele>
        <time>2022-05-24T18:50:16Z</time>
      </trkpt>
      <trkpt lat="48.88349" lon="12.56269">
        <ele>318</ele>
        <time>2022-05-24T18:50:23Z</time>
      </trkpt>
      <trkpt lat="48.88325" lon="12.563">
        <ele>319</ele>
        <time>2022-05-24T18:50:28Z</time>
      </trkpt>
      <trkpt lat="48.88106" lon="12.56474">
        <ele>335</ele>
        <time>2022-05-24T18:51:12Z</time>
      </trkpt>
      <trkpt lat="48.88121" lon="12.56531">
        <ele>335</ele>
        <time>2022-05-24T18:51:20Z</time>
      </trkpt>
      <trkpt lat="48.88145" lon="12.56694">
        <ele>334</ele>
        <time>2022-05-24T18:51:39Z</time>
      </trkpt>
      <trkpt lat="48.8804" lon="12.56752">
        <ele>334</ele>
        <time>2022-05-24T18:51:59Z</time>
      </trkpt>
      <trkpt lat="48.8798" lon="12.5677">
        <ele>333</ele>
        <time>2022-05-24T18:52:10Z</time>
      </trkpt>
      <trkpt lat="48.87988" lon="12.56803">
        <ele>334</ele>
        <time>2022-05-24T18:52:14Z</time>
      </trkpt>
      <trkpt lat="48.87994" lon="12.56864">
        <ele>333</ele>
        <time>2022-05-24T18:52:21Z</time>
      </trkpt>
      <trkpt lat="48.88005" lon="12.56941">
        <ele>333</ele>
        <time>2022-05-24T18:52:30Z</time>
      </trkpt>
      <trkpt lat="48.88008" lon="12.57005">
        <ele>333</ele>
        <time>2022-05-24T18:52:38Z</time>
      </trkpt>
      <trkpt lat="48.88039" lon="12.57192">
        <ele>332</ele>
        <time>2022-05-24T18:53:00Z</time>
      </trkpt>
      <trkpt lat="48.88053" lon="12.57271">
        <ele>331</ele>
        <time>2022-05-24T18:53:10Z</time>
      </trkpt>
      <trkpt lat="48.88067" lon="12.57329">
        <ele>332</ele>
        <time>2022-05-24T18:53:17Z</time>
      </trkpt>
      <trkpt lat="48.88076" lon="12.57347">
        <ele>332</ele>
        <time>2022-05-24T18:53:20Z</time>
      </trkpt>
      <trkpt lat="48.88095" lon="12.57355">
        <ele>332</ele>
        <time>2022-05-24T18:53:23Z</time>
      </trkpt>
      <trkpt lat="48.88179" lon="12.57371">
        <ele>333</ele>
        <time>2022-05-24T18:53:39Z</time>
      </trkpt>
      <trkpt lat="48.88211" lon="12.57369">
        <ele>334</ele>
        <time>2022-05-24T18:53:44Z</time>
      </trkpt>
      <trkpt lat="48.88224" lon="12.57377">
        <ele>335</ele>
        <time>2022-05-24T18:53:47Z</time>
      </trkpt>
      <trkpt lat="48.88222" lon="12.574">
        <ele>335</ele>
        <time>2022-05-24T18:53:49Z</time>
      </trkpt>
      <trkpt lat="48.88261" lon="12.574">
        <ele>335</ele>
        <time>2022-05-24T18:53:56Z</time>
      </trkpt>
      <trkpt lat="48.88476" lon="12.57425">
        <ele>326</ele>
        <time>2022-05-24T18:54:35Z</time>
      </trkpt>
      <trkpt lat="48.88522" lon="12.57419">
        <ele>323</ele>
        <time>2022-05-24T18:54:43Z</time>
      </trkpt>
      <trkpt lat="48.88542" lon="12.57413">
        <ele>321</ele>
        <time>2022-05-24T18:54:47Z</time>
      </trkpt>
      <trkpt lat="48.88544" lon="12.57408">
        <ele>321</ele>
        <time>2022-05-24T18:54:47Z</time>
      </trkpt>
      <trkpt lat="48.8856" lon="12.57402">
        <ele>319</ele>
        <time>2022-05-24T18:54:50Z</time>
      </trkpt>
      <trkpt lat="48.88662" lon="12.57382">
        <ele>316</ele>
        <time>2022-05-24T18:55:08Z</time>
      </trkpt>
      <trkpt lat="48.88731" lon="12.57393">
        <ele>318</ele>
        <time>2022-05-24T18:55:21Z</time>
      </trkpt>
      <trkpt lat="48.88806" lon="12.57436">
        <ele>318</ele>
        <time>2022-05-24T18:55:35Z</time>
      </trkpt>
      <trkpt lat="48.89035" lon="12.57695">
        <ele>316</ele>
        <time>2022-05-24T18:56:26Z</time>
      </trkpt>
      <trkpt lat="48.89085" lon="12.57742">
        <ele>317</ele>
        <time>2022-05-24T18:56:36Z</time>
      </trkpt>
      <trkpt lat="48.89166" lon="12.57837">
        <ele>316</ele>
        <time>2022-05-24T18:56:55Z</time>
      </trkpt>
      <trkpt lat="48.89236" lon="12.57899">
        <ele>318</ele>
        <time>2022-05-24T18:57:09Z</time>
      </trkpt>
      <trkpt lat="48.89263" lon="12.57948">
        <ele>320</ele>
        <time>2022-05-24T18:57:16Z</time>
      </trkpt>
      <trkpt lat="48.89276" lon="12.57963">
        <ele>320</ele>
        <time>2022-05-24T18:57:19Z</time>
      </trkpt>
      <trkpt lat="48.89427" lon="12.5803">
        <ele>318</ele>
        <time>2022-05-24T18:57:47Z</time>
      </trkpt>
      <trkpt lat="48.89446" lon="12.58032">
        <ele>318</ele>
        <time>2022-05-24T18:57:51Z</time>
      </trkpt>
      <trkpt lat="48.89455" lon="12.58036">
        <ele>318</ele>
        <time>2022-05-24T18:57:52Z</time>
      </trkpt>
      <trkpt lat="48.89459" lon="12.58017">
        <ele>318</ele>
        <time>2022-05-24T18:57:55Z</time>
      </trkpt>
      <trkpt lat="48.89477" lon="12.58015">
        <ele>319</ele>
        <time>2022-05-24T18:57:58Z</time>
      </trkpt>
      <trkpt lat="48.89585" lon="12.58042">
        <ele>320</ele>
        <time>2022-05-24T18:58:17Z</time>
      </trkpt>
      <trkpt lat="48.89654" lon="12.58062">
        <ele>318</ele>
        <time>2022-05-24T18:58:30Z</time>
      </trkpt>
      <trkpt lat="48.89814" lon="12.58128">
        <ele>317</ele>
        <time>2022-05-24T18:58:59Z</time>
      </trkpt>
      <trkpt lat="48.89847" lon="12.58148">
        <ele>318</ele>
        <time>2022-05-24T18:59:06Z</time>
      </trkpt>
      <trkpt lat="48.89879" lon="12.58178">
        <ele>318</ele>
        <time>2022-05-24T18:59:12Z</time>
      </trkpt>
      <trkpt lat="48.89914" lon="12.58223">
        <ele>318</ele>
        <time>2022-05-24T18:59:21Z</time>
      </trkpt>
      <trkpt lat="48.89918" lon="12.58243">
        <ele>318</ele>
        <time>2022-05-24T18:59:23Z</time>
      </trkpt>
      <trkpt lat="48.89913" lon="12.58262">
        <ele>318</ele>
        <time>2022-05-24T18:59:25Z</time>
      </trkpt>
      <trkpt lat="48.8993" lon="12.58296">
        <ele>317</ele>
        <time>2022-05-24T18:59:30Z</time>
      </trkpt>
      <trkpt lat="48.89898" lon="12.58326">
        <ele>317</ele>
        <time>2022-05-24T18:59:37Z</time>
      </trkpt>
      <trkpt lat="48.89882" lon="12.58331">
        <ele>317</ele>
        <time>2022-05-24T18:59:40Z</time>
      </trkpt>
      <trkpt lat="48.89855" lon="12.58334">
        <ele>317</ele>
        <time>2022-05-24T18:59:45Z</time>
      </trkpt>
      <trkpt lat="48.89823" lon="12.58326">
        <ele>317</ele>
        <time>2022-05-24T18:59:51Z</time>
      </trkpt>
      <trkpt lat="48.89821" lon="12.58499">
        <ele>317</ele>
        <time>2022-05-24T19:00:11Z</time>
      </trkpt>
      <trkpt lat="48.89836" lon="12.58635">
        <ele>317</ele>
        <time>2022-05-24T19:00:27Z</time>
      </trkpt>
      <trkpt lat="48.89865" lon="12.58783">
        <ele>315</ele>
        <time>2022-05-24T19:00:45Z</time>
      </trkpt>
      <trkpt lat="48.89896" lon="12.58843">
        <ele>315</ele>
        <time>2022-05-24T19:00:54Z</time>
      </trkpt>
      <trkpt lat="48.89967" lon="12.58942">
        <ele>316</ele>
        <time>2022-05-24T19:01:11Z</time>
      </trkpt>
      <trkpt lat="48.90061" lon="12.59036">
        <ele>316</ele>
        <time>2022-05-24T19:01:31Z</time>
      </trkpt>
      <trkpt lat="48.90123" lon="12.59092">
        <ele>315</ele>
        <time>2022-05-24T19:01:44Z</time>
      </trkpt>
      <trkpt lat="48.90129" lon="12.59091">
        <ele>315</ele>
        <time>2022-05-24T19:01:45Z</time>
      </trkpt>
      <trkpt lat="48.90141" lon="12.5908">
        <ele>315</ele>
        <time>2022-05-24T19:01:47Z</time>
      </trkpt>
      <trkpt lat="48.90261" lon="12.59295">
        <ele>317</ele>
        <time>2022-05-24T19:02:20Z</time>
      </trkpt>
      <trkpt lat="48.90303" lon="12.59388">
        <ele>317</ele>
        <time>2022-05-24T19:02:34Z</time>
      </trkpt>
      <trkpt lat="48.90352" lon="12.59531">
        <ele>316</ele>
        <time>2022-05-24T19:02:53Z</time>
      </trkpt>
      <trkpt lat="48.90381" lon="12.59656">
        <ele>314</ele>
        <time>2022-05-24T19:03:08Z</time>
      </trkpt>
      <trkpt lat="48.904" lon="12.59786">
        <ele>314</ele>
        <time>2022-05-24T19:03:24Z</time>
      </trkpt>
      <trkpt lat="48.90409" lon="12.5992">
        <ele>315</ele>
        <time>2022-05-24T19:03:39Z</time>
      </trkpt>
      <trkpt lat="48.90403" lon="12.60185">
        <ele>313</ele>
        <time>2022-05-24T19:04:10Z</time>
      </trkpt>
      <trkpt lat="48.90391" lon="12.6042">
        <ele>313</ele>
        <time>2022-05-24T19:04:38Z</time>
      </trkpt>
      <trkpt lat="48.9038" lon="12.60716">
        <ele>318</ele>
        <time>2022-05-24T19:05:13Z</time>
      </trkpt>
      <trkpt lat="48.90387" lon="12.6075">
        <ele>319</ele>
        <time>2022-05-24T19:05:17Z</time>
      </trkpt>
      <trkpt lat="48.90406" lon="12.60799">
        <ele>319</ele>
        <time>2022-05-24T19:05:23Z</time>
      </trkpt>
      <trkpt lat="48.90645" lon="12.61282">
        <ele>315</ele>
        <time>2022-05-24T19:06:34Z</time>
      </trkpt>
      <trkpt lat="48.90682" lon="12.61377">
        <ele>314</ele>
        <time>2022-05-24T19:06:47Z</time>
      </trkpt>
      <trkpt lat="48.90696" lon="12.61423">
        <ele>314</ele>
        <time>2022-05-24T19:06:53Z</time>
      </trkpt>
      <trkpt lat="48.90705" lon="12.61464">
        <ele>314</ele>
        <time>2022-05-24T19:06:58Z</time>
      </trkpt>
      <trkpt lat="48.90704" lon="12.61647">
        <ele>316</ele>
        <time>2022-05-24T19:07:19Z</time>
      </trkpt>
      <trkpt lat="48.90713" lon="12.61683">
        <ele>316</ele>
        <time>2022-05-24T19:07:24Z</time>
      </trkpt>
      <trkpt lat="48.90731" lon="12.61713">
        <ele>316</ele>
        <time>2022-05-24T19:07:29Z</time>
      </trkpt>
      <trkpt lat="48.90762" lon="12.61744">
        <ele>317</ele>
        <time>2022-05-24T19:07:35Z</time>
      </trkpt>
      <trkpt lat="48.90781" lon="12.61786">
        <ele>316</ele>
        <time>2022-05-24T19:07:41Z</time>
      </trkpt>
      <trkpt lat="48.90812" lon="12.61966">
        <ele>317</ele>
        <time>2022-05-24T19:08:03Z</time>
      </trkpt>
      <trkpt lat="48.90833" lon="12.62142">
        <ele>317</ele>
        <time>2022-05-24T19:08:24Z</time>
      </trkpt>
      <trkpt lat="48.90859" lon="12.62226">
        <ele>317</ele>
        <time>2022-05-24T19:08:35Z</time>
      </trkpt>
      <trkpt lat="48.90868" lon="12.62273">
        <ele>316</ele>
        <time>2022-05-24T19:08:41Z</time>
      </trkpt>
      <trkpt lat="48.90875" lon="12.62332">
        <ele>316</ele>
        <time>2022-05-24T19:08:48Z</time>
      </trkpt>
      <trkpt lat="48.90877" lon="12.62394">
        <ele>316</ele>
        <time>2022-05-24T19:08:55Z</time>
      </trkpt>
      <trkpt lat="48.90882" lon="12.62435">
        <ele>317</ele>
        <time>2022-05-24T19:09:00Z</time>
      </trkpt>
      <trkpt lat="48.90866" lon="12.62439">
        <ele>316</ele>
        <time>2022-05-24T19:09:03Z</time>
      </trkpt>
      <trkpt lat="48.90854" lon="12.62449">
        <ele>316</ele>
        <time>2022-05-24T19:09:05Z</time>
      </trkpt>
      <trkpt lat="48.9085" lon="12.62465">
        <ele>316</ele>
        <time>2022-05-24T19:09:07Z</time>
      </trkpt>
      <trkpt lat="48.90845" lon="12.62513">
        <ele>317</ele>
        <time>2022-05-24T19:09:13Z</time>
      </trkpt>
      <trkpt lat="48.90846" lon="12.62542">
        <ele>317</ele>
        <time>2022-05-24T19:09:16Z</time>
      </trkpt>
      <trkpt lat="48.90892" lon="12.62731">
        <ele>317</ele>
        <time>2022-05-24T19:09:40Z</time>
      </trkpt>
      <trkpt lat="48.90919" lon="12.62825">
        <ele>316</ele>
        <time>2022-05-24T19:09:52Z</time>
      </trkpt>
      <trkpt lat="48.90949" lon="12.62906">
        <ele>315</ele>
        <time>2022-05-24T19:10:03Z</time>
      </trkpt>
      <trkpt lat="48.90976" lon="12.63033">
        <ele>314</ele>
        <time>2022-05-24T19:10:18Z</time>
      </trkpt>
      <trkpt lat="48.90993" lon="12.63162">
        <ele>314</ele>
        <time>2022-05-24T19:10:33Z</time>
      </trkpt>
      <trkpt lat="48.9099" lon="12.63329">
        <ele>313</ele>
        <time>2022-05-24T19:10:53Z</time>
      </trkpt>
      <trkpt lat="48.90945" lon="12.63701">
        <ele>314</ele>
        <time>2022-05-24T19:11:37Z</time>
      </trkpt>
      <trkpt lat="48.90931" lon="12.63894">
        <ele>314</ele>
        <time>2022-05-24T19:12:00Z</time>
      </trkpt>
      <trkpt lat="48.90926" lon="12.64069">
        <ele>313</ele>
        <time>2022-05-24T19:12:20Z</time>
      </trkpt>
      <trkpt lat="48.90938" lon="12.6425">
        <ele>313</ele>
        <time>2022-05-24T19:12:42Z</time>
      </trkpt>
      <trkpt lat="48.90957" lon="12.64381">
        <ele>313</ele>
        <time>2022-05-24T19:12:57Z</time>
      </trkpt>
      <trkpt lat="48.91023" lon="12.64654">
        <ele>314</ele>
        <time>2022-05-24T19:13:31Z</time>
      </trkpt>
      <trkpt lat="48.91037" lon="12.64737">
        <ele>314</ele>
        <time>2022-05-24T19:13:41Z</time>
      </trkpt>
      <trkpt lat="48.91057" lon="12.64892">
        <ele>313</ele>
        <time>2022-05-24T19:14:00Z</time>
      </trkpt>
      <trkpt lat="48.91066" lon="12.65112">
        <ele>316</ele>
        <time>2022-05-24T19:14:26Z</time>
      </trkpt>
      <trkpt lat="48.91064" lon="12.65163">
        <ele>316</ele>
        <time>2022-05-24T19:14:32Z</time>
      </trkpt>
      <trkpt lat="48.91052" lon="12.65254">
        <ele>314</ele>
        <time>2022-05-24T19:14:43Z</time>
      </trkpt>
      <trkpt lat="48.90937" lon="12.66426">
        <ele>313</ele>
        <time>2022-05-24T19:17:01Z</time>
      </trkpt>
      <trkpt lat="48.9089" lon="12.66857">
        <ele>314</ele>
        <time>2022-05-24T19:17:52Z</time>
      </trkpt>
      <trkpt lat="48.90858" lon="12.67098">
        <ele>314</ele>
        <time>2022-05-24T19:18:21Z</time>
      </trkpt>
      <trkpt lat="48.90773" lon="12.67655">
        <ele>314</ele>
        <time>2022-05-24T19:19:28Z</time>
      </trkpt>
      <trkpt lat="48.90763" lon="12.67757">
        <ele>315</ele>
        <time>2022-05-24T19:19:40Z</time>
      </trkpt>
      <trkpt lat="48.90764" lon="12.6793">
        <ele>314</ele>
        <time>2022-05-24T19:20:00Z</time>
      </trkpt>
      <trkpt lat="48.90765" lon="12.6795">
        <ele>314</ele>
        <time>2022-05-24T19:20:02Z</time>
      </trkpt>
      <trkpt lat="48.90769" lon="12.67963">
        <ele>314</ele>
        <time>2022-05-24T19:20:04Z</time>
      </trkpt>
      <trkpt lat="48.9079" lon="12.6798">
        <ele>313</ele>
        <time>2022-05-24T19:20:08Z</time>
      </trkpt>
      <trkpt lat="48.90973" lon="12.68073">
        <ele>314</ele>
        <time>2022-05-24T19:20:43Z</time>
      </trkpt>
      <trkpt lat="48.91088" lon="12.68152">
        <ele>316</ele>
        <time>2022-05-24T19:21:05Z</time>
      </trkpt>
      <trkpt lat="48.9095" lon="12.6832">
        <ele>316</ele>
        <time>2022-05-24T19:21:37Z</time>
      </trkpt>
      <trkpt lat="48.9095" lon="12.6833">
        <ele>316</ele>
        <time>2022-05-24T19:21:38Z</time>
      </trkpt>
      <trkpt lat="48.91035" lon="12.68528">
        <ele>319</ele>
        <time>2022-05-24T19:22:05Z</time>
      </trkpt>
      <trkpt lat="48.91026" lon="12.68565">
        <ele>319</ele>
        <time>2022-05-24T19:22:10Z</time>
      </trkpt>
      <trkpt lat="48.91011" lon="12.68664">
        <ele>319</ele>
        <time>2022-05-24T19:22:22Z</time>
      </trkpt>
      <trkpt lat="48.90975" lon="12.68966">
        <ele>318</ele>
        <time>2022-05-24T19:22:58Z</time>
      </trkpt>
      <trkpt lat="48.90927" lon="12.69286">
        <ele>320</ele>
        <time>2022-05-24T19:23:36Z</time>
      </trkpt>
      <trkpt lat="48.90917" lon="12.69296">
        <ele>321</ele>
        <time>2022-05-24T19:23:38Z</time>
      </trkpt>
      <trkpt lat="48.90851" lon="12.69298">
        <ele>324</ele>
        <time>2022-05-24T19:23:50Z</time>
      </trkpt>
      <trkpt lat="48.90828" lon="12.69296">
        <ele>325</ele>
        <time>2022-05-24T19:23:54Z</time>
      </trkpt>
      <trkpt lat="48.90794" lon="12.69279">
        <ele>324</ele>
        <time>2022-05-24T19:24:01Z</time>
      </trkpt>
      <trkpt lat="48.9072" lon="12.69235">
        <ele>322</ele>
        <time>2022-05-24T19:24:15Z</time>
      </trkpt>
      <trkpt lat="48.90682" lon="12.69221">
        <ele>321</ele>
        <time>2022-05-24T19:24:22Z</time>
      </trkpt>
      <trkpt lat="48.9063" lon="12.69209">
        <ele>321</ele>
        <time>2022-05-24T19:24:31Z</time>
      </trkpt>
      <trkpt lat="48.90609" lon="12.69207">
        <ele>321</ele>
        <time>2022-05-24T19:24:35Z</time>
      </trkpt>
      <trkpt lat="48.90583" lon="12.6921">
        <ele>321</ele>
        <time>2022-05-24T19:24:39Z</time>
      </trkpt>
      <trkpt lat="48.90539" lon="12.69222">
        <ele>320</ele>
        <time>2022-05-24T19:24:47Z</time>
      </trkpt>
      <trkpt lat="48.90445" lon="12.6923">
        <ele>318</ele>
        <time>2022-05-24T19:25:04Z</time>
      </trkpt>
      <trkpt lat="48.90403" lon="12.69237">
        <ele>318</ele>
        <time>2022-05-24T19:25:12Z</time>
      </trkpt>
      <trkpt lat="48.90375" lon="12.69261">
        <ele>318</ele>
        <time>2022-05-24T19:25:17Z</time>
      </trkpt>
      <trkpt lat="48.90342" lon="12.69303">
        <ele>322</ele>
        <time>2022-05-24T19:25:25Z</time>
      </trkpt>
      <trkpt lat="48.90325" lon="12.69312">
        <ele>323</ele>
        <time>2022-05-24T19:25:28Z</time>
      </trkpt>
      <trkpt lat="48.90289" lon="12.69313">
        <ele>322</ele>
        <time>2022-05-24T19:25:35Z</time>
      </trkpt>
      <trkpt lat="48.9026" lon="12.69321">
        <ele>322</ele>
        <time>2022-05-24T19:25:40Z</time>
      </trkpt>
      <trkpt lat="48.9022" lon="12.69342">
        <ele>323</ele>
        <time>2022-05-24T19:25:47Z</time>
      </trkpt>
      <trkpt lat="48.90162" lon="12.69386">
        <ele>323</ele>
        <time>2022-05-24T19:25:59Z</time>
      </trkpt>
      <trkpt lat="48.90093" lon="12.6945">
        <ele>322</ele>
        <time>2022-05-24T19:26:13Z</time>
      </trkpt>
      <trkpt lat="48.90041" lon="12.69518">
        <ele>323</ele>
        <time>2022-05-24T19:26:25Z</time>
      </trkpt>
      <trkpt lat="48.90013" lon="12.69577">
        <ele>323</ele>
        <time>2022-05-24T19:26:34Z</time>
      </trkpt>
      <trkpt lat="48.89963" lon="12.69716">
        <ele>327</ele>
        <time>2022-05-24T19:26:53Z</time>
      </trkpt>
      <trkpt lat="48.89921" lon="12.69909">
        <ele>323</ele>
        <time>2022-05-24T19:27:16Z</time>
      </trkpt>
      <trkpt lat="48.89915" lon="12.69915">
        <ele>321</ele>
        <time>2022-05-24T19:27:18Z</time>
      </trkpt>
      <trkpt lat="48.89881" lon="12.70139">
        <ele>329</ele>
        <time>2022-05-24T19:27:44Z</time>
      </trkpt>
      <trkpt lat="48.89847" lon="12.70281">
        <ele>327</ele>
        <time>2022-05-24T19:28:02Z</time>
      </trkpt>
      <trkpt lat="48.89726" lon="12.70756">
        <ele>327</ele>
        <time>2022-05-24T19:29:02Z</time>
      </trkpt>
      <trkpt lat="48.89698" lon="12.70899">
        <ele>328</ele>
        <time>2022-05-24T19:29:19Z</time>
      </trkpt>
      <trkpt lat="48.89687" lon="12.70989">
        <ele>326</ele>
        <time>2022-05-24T19:29:30Z</time>
      </trkpt>
      <trkpt lat="48.89683" lon="12.7106">
        <ele>324</ele>
        <time>2022-05-24T19:29:38Z</time>
      </trkpt>
      <trkpt lat="48.89684" lon="12.71204">
        <ele>320</ele>
        <time>2022-05-24T19:29:55Z</time>
      </trkpt>
      <trkpt lat="48.8969" lon="12.71283">
        <ele>319</ele>
        <time>2022-05-24T19:30:04Z</time>
      </trkpt>
      <trkpt lat="48.89698" lon="12.71306">
        <ele>319</ele>
        <time>2022-05-24T19:30:07Z</time>
      </trkpt>
      <trkpt lat="48.89701" lon="12.71333">
        <ele>318</ele>
        <time>2022-05-24T19:30:11Z</time>
      </trkpt>
      <trkpt lat="48.89702" lon="12.714">
        <ele>317</ele>
        <time>2022-05-24T19:30:18Z</time>
      </trkpt>
      <trkpt lat="48.89741" lon="12.71734">
        <ele>318</ele>
        <time>2022-05-24T19:30:58Z</time>
      </trkpt>
      <trkpt lat="48.89755" lon="12.71947">
        <ele>318</ele>
        <time>2022-05-24T19:31:23Z</time>
      </trkpt>
      <trkpt lat="48.89766" lon="12.72076">
        <ele>319</ele>
        <time>2022-05-24T19:31:38Z</time>
      </trkpt>
      <trkpt lat="48.89769" lon="12.72218">
        <ele>319</ele>
        <time>2022-05-24T19:31:55Z</time>
      </trkpt>
      <trkpt lat="48.89746" lon="12.72377">
        <ele>320</ele>
        <time>2022-05-24T19:32:14Z</time>
      </trkpt>
      <trkpt lat="48.89712" lon="12.72462">
        <ele>320</ele>
        <time>2022-05-24T19:32:26Z</time>
      </trkpt>
      <trkpt lat="48.8968" lon="12.72526">
        <ele>320</ele>
        <time>2022-05-24T19:32:35Z</time>
      </trkpt>
      <trkpt lat="48.89535" lon="12.7273">
        <ele>325</ele>
        <time>2022-05-24T19:33:10Z</time>
      </trkpt>
      <trkpt lat="48.89498" lon="12.72774">
        <ele>325</ele>
        <time>2022-05-24T19:33:19Z</time>
      </trkpt>
      <trkpt lat="48.89436" lon="12.72855">
        <ele>323</ele>
        <time>2022-05-24T19:33:33Z</time>
      </trkpt>
      <trkpt lat="48.89307" lon="12.7301">
        <ele>323</ele>
        <time>2022-05-24T19:34:02Z</time>
      </trkpt>
      <trkpt lat="48.89122" lon="12.73222">
        <ele>321</ele>
        <time>2022-05-24T19:34:44Z</time>
      </trkpt>
      <trkpt lat="48.89068" lon="12.7328">
        <ele>325</ele>
        <time>2022-05-24T19:34:55Z</time>
      </trkpt>
      <trkpt lat="48.89004" lon="12.73329">
        <ele>332</ele>
        <time>2022-05-24T19:35:08Z</time>
      </trkpt>
      <trkpt lat="48.88921" lon="12.7338">
        <ele>329</ele>
        <time>2022-05-24T19:35:24Z</time>
      </trkpt>
      <trkpt lat="48.88769" lon="12.7346">
        <ele>326</ele>
        <time>2022-05-24T19:35:53Z</time>
      </trkpt>
      <trkpt lat="48.88618" lon="12.73526">
        <ele>328</ele>
        <time>2022-05-24T19:36:21Z</time>
      </trkpt>
      <trkpt lat="48.88554" lon="12.7358">
        <ele>329</ele>
        <time>2022-05-24T19:36:34Z</time>
      </trkpt>
      <trkpt lat="48.8853" lon="12.73611">
        <ele>329</ele>
        <time>2022-05-24T19:36:39Z</time>
      </trkpt>
      <trkpt lat="48.88489" lon="12.73681">
        <ele>326</ele>
        <time>2022-05-24T19:36:50Z</time>
      </trkpt>
      <trkpt lat="48.88466" lon="12.73741">
        <ele>328</ele>
        <time>2022-05-24T19:36:58Z</time>
      </trkpt>
      <trkpt lat="48.88451" lon="12.73808">
        <ele>326</ele>
        <time>2022-05-24T19:37:07Z</time>
      </trkpt>
      <trkpt lat="48.884" lon="12.73963">
        <ele>317</ele>
        <time>2022-05-24T19:37:27Z</time>
      </trkpt>
      <trkpt lat="48.88364" lon="12.7411">
        <ele>318</ele>
        <time>2022-05-24T19:37:45Z</time>
      </trkpt>
      <trkpt lat="48.88347" lon="12.74206">
        <ele>320</ele>
        <time>2022-05-24T19:37:57Z</time>
      </trkpt>
      <trkpt lat="48.88339" lon="12.7428">
        <ele>320</ele>
        <time>2022-05-24T19:38:06Z</time>
      </trkpt>
      <trkpt lat="48.8833" lon="12.74478">
        <ele>321</ele>
        <time>2022-05-24T19:38:29Z</time>
      </trkpt>
      <trkpt lat="48.88313" lon="12.75379">
        <ele>317</ele>
        <time>2022-05-24T19:40:14Z</time>
      </trkpt>
      <trkpt lat="48.88298" lon="12.7553">
        <ele>317</ele>
        <time>2022-05-24T19:40:32Z</time>
      </trkpt>
      <trkpt lat="48.88272" lon="12.75631">
        <ele>317</ele>
        <time>2022-05-24T19:40:45Z</time>
      </trkpt>
      <trkpt lat="48.88236" lon="12.75732">
        <ele>317</ele>
        <time>2022-05-24T19:40:58Z</time>
      </trkpt>
      <trkpt lat="48.88188" lon="12.75824">
        <ele>318</ele>
        <time>2022-05-24T19:41:12Z</time>
      </trkpt>
      <trkpt lat="48.88154" lon="12.75874">
        <ele>319</ele>
        <time>2022-05-24T19:41:21Z</time>
      </trkpt>
      <trkpt lat="48.88109" lon="12.75924">
        <ele>322</ele>
        <time>2022-05-24T19:41:30Z</time>
      </trkpt>
      <trkpt lat="48.87921" lon="12.76072">
        <ele>330</ele>
        <time>2022-05-24T19:42:08Z</time>
      </trkpt>
      <trkpt lat="48.87887" lon="12.76109">
        <ele>329</ele>
        <time>2022-05-24T19:42:16Z</time>
      </trkpt>
      <trkpt lat="48.87854" lon="12.76159">
        <ele>328</ele>
        <time>2022-05-24T19:42:24Z</time>
      </trkpt>
      <trkpt lat="48.87792" lon="12.76276">
        <ele>324</ele>
        <time>2022-05-24T19:42:41Z</time>
      </trkpt>
      <trkpt lat="48.87762" lon="12.76352">
        <ele>321</ele>
        <time>2022-05-24T19:42:52Z</time>
      </trkpt>
      <trkpt lat="48.87697" lon="12.76549">
        <ele>321</ele>
        <time>2022-05-24T19:43:18Z</time>
      </trkpt>
      <trkpt lat="48.87635" lon="12.76767">
        <ele>329</ele>
        <time>2022-05-24T19:43:45Z</time>
      </trkpt>
      <trkpt lat="48.87612" lon="12.76882">
        <ele>330</ele>
        <time>2022-05-24T19:43:59Z</time>
      </trkpt>
      <trkpt lat="48.87584" lon="12.77072">
        <ele>333</ele>
        <time>2022-05-24T19:44:22Z</time>
      </trkpt>
      <trkpt lat="48.87567" lon="12.77335">
        <ele>322</ele>
        <time>2022-05-24T19:44:53Z</time>
      </trkpt>
      <trkpt lat="48.87583" lon="12.77352">
        <ele>323</ele>
        <time>2022-05-24T19:44:57Z</time>
      </trkpt>
      <trkpt lat="48.87611" lon="12.77454">
        <ele>323</ele>
        <time>2022-05-24T19:45:10Z</time>
      </trkpt>
      <trkpt lat="48.87656" lon="12.77542">
        <ele>325</ele>
        <time>2022-05-24T19:45:23Z</time>
      </trkpt>
      <trkpt lat="48.87657" lon="12.77602">
        <ele>324</ele>
        <time>2022-05-24T19:45:30Z</time>
      </trkpt>
      <trkpt lat="48.8765" lon="12.77638">
        <ele>322</ele>
        <time>2022-05-24T19:45:34Z</time>
      </trkpt>
      <trkpt lat="48.87651" lon="12.77657">
        <ele>322</ele>
        <time>2022-05-24T19:45:36Z</time>
      </trkpt>
      <trkpt lat="48.87683" lon="12.77755">
        <ele>319</ele>
        <time>2022-05-24T19:45:49Z</time>
      </trkpt>
      <trkpt lat="48.877" lon="12.77818">
        <ele>319</ele>
        <time>2022-05-24T19:45:57Z</time>
      </trkpt>
      <trkpt lat="48.87716" lon="12.77905">
        <ele>319</ele>
        <time>2022-05-24T19:46:08Z</time>
      </trkpt>
      <trkpt lat="48.87738" lon="12.77953">
        <ele>319</ele>
        <time>2022-05-24T19:46:14Z</time>
      </trkpt>
      <trkpt lat="48.87758" lon="12.77984">
        <ele>319</ele>
        <time>2022-05-24T19:46:19Z</time>
      </trkpt>
      <trkpt lat="48.87778" lon="12.78035">
        <ele>320</ele>
        <time>2022-05-24T19:46:26Z</time>
      </trkpt>
      <trkpt lat="48.87798" lon="12.78101">
        <ele>321</ele>
        <time>2022-05-24T19:46:35Z</time>
      </trkpt>
      <trkpt lat="48.87827" lon="12.78173">
        <ele>322</ele>
        <time>2022-05-24T19:46:45Z</time>
      </trkpt>
      <trkpt lat="48.87848" lon="12.7821">
        <ele>321</ele>
        <time>2022-05-24T19:46:51Z</time>
      </trkpt>
      <trkpt lat="48.87954" lon="12.78342">
        <ele>321</ele>
        <time>2022-05-24T19:47:15Z</time>
      </trkpt>
      <trkpt lat="48.8803" lon="12.78465">
        <ele>322</ele>
        <time>2022-05-24T19:47:35Z</time>
      </trkpt>
      <trkpt lat="48.88207" lon="12.78856">
        <ele>322</ele>
        <time>2022-05-24T19:48:30Z</time>
      </trkpt>
      <trkpt lat="48.88278" lon="12.79034">
        <ele>322</ele>
        <time>2022-05-24T19:48:55Z</time>
      </trkpt>
      <trkpt lat="48.88301" lon="12.79074">
        <ele>322</ele>
        <time>2022-05-24T19:49:01Z</time>
      </trkpt>
      <trkpt lat="48.88332" lon="12.79109">
        <ele>323</ele>
        <time>2022-05-24T19:49:08Z</time>
      </trkpt>
      <trkpt lat="48.88332" lon="12.79115">
        <ele>323</ele>
        <time>2022-05-24T19:49:08Z</time>
      </trkpt>
      <trkpt lat="48.88324" lon="12.79111">
        <ele>322</ele>
        <time>2022-05-24T19:49:10Z</time>
      </trkpt>
      <trkpt lat="48.88319" lon="12.79127">
        <ele>322</ele>
        <time>2022-05-24T19:49:12Z</time>
      </trkpt>
      <trkpt lat="48.88284" lon="12.79318">
        <ele>322</ele>
        <time>2022-05-24T19:49:35Z</time>
      </trkpt>
      <trkpt lat="48.88158" lon="12.79584">
        <ele>319</ele>
        <time>2022-05-24T19:50:13Z</time>
      </trkpt>
      <trkpt lat="48.88153" lon="12.79602">
        <ele>319</ele>
        <time>2022-05-24T19:50:16Z</time>
      </trkpt>
      <trkpt lat="48.88113" lon="12.80075">
        <ele>316</ele>
        <time>2022-05-24T19:51:12Z</time>
      </trkpt>
      <trkpt lat="48.88198" lon="12.80188">
        <ele>317</ele>
        <time>2022-05-24T19:51:32Z</time>
      </trkpt>
      <trkpt lat="48.88222" lon="12.80167">
        <ele>317</ele>
        <time>2022-05-24T19:51:37Z</time>
      </trkpt>
      <trkpt lat="48.88223" lon="12.80173">
        <ele>317</ele>
        <time>2022-05-24T19:51:37Z</time>
      </trkpt>
      <trkpt lat="48.88201" lon="12.80223">
        <ele>317</ele>
        <time>2022-05-24T19:51:44Z</time>
      </trkpt>
      <trkpt lat="48.8814" lon="12.80423">
        <ele>316</ele>
        <time>2022-05-24T19:52:10Z</time>
      </trkpt>
      <trkpt lat="48.88117" lon="12.80475">
        <ele>316</ele>
        <time>2022-05-24T19:52:17Z</time>
      </trkpt>
      <trkpt lat="48.8799" lon="12.8069">
        <ele>315</ele>
        <time>2022-05-24T19:52:51Z</time>
      </trkpt>
      <trkpt lat="48.87906" lon="12.80847">
        <ele>315</ele>
        <time>2022-05-24T19:53:15Z</time>
      </trkpt>
      <trkpt lat="48.879" lon="12.80868">
        <ele>315</ele>
        <time>2022-05-24T19:53:18Z</time>
      </trkpt>
      <trkpt lat="48.87894" lon="12.80981">
        <ele>315</ele>
        <time>2022-05-24T19:53:31Z</time>
      </trkpt>
      <trkpt lat="48.87862" lon="12.81201">
        <ele>315</ele>
        <time>2022-05-24T19:53:57Z</time>
      </trkpt>
      <trkpt lat="48.87789" lon="12.82">
        <ele>314</ele>
        <time>2022-05-24T19:55:32Z</time>
      </trkpt>
      <trkpt lat="48.87725" lon="12.81999">
        <ele>314</ele>
        <time>2022-05-24T19:55:43Z</time>
      </trkpt>
      <trkpt lat="48.8772" lon="12.82005">
        <ele>314</ele>
        <time>2022-05-24T19:55:44Z</time>
      </trkpt>
      <trkpt lat="48.87703" lon="12.8211">
        <ele>315</ele>
        <time>2022-05-24T19:55:57Z</time>
      </trkpt>
      <trkpt lat="48.87687" lon="12.82166">
        <ele>318</ele>
        <time>2022-05-24T19:56:04Z</time>
      </trkpt>
      <trkpt lat="48.87695" lon="12.82205">
        <ele>318</ele>
        <time>2022-05-24T19:56:09Z</time>
      </trkpt>
      <trkpt lat="48.87698" lon="12.82252">
        <ele>318</ele>
        <time>2022-05-24T19:56:14Z</time>
      </trkpt>
      <trkpt lat="48.87677" lon="12.82366">
        <ele>316</ele>
        <time>2022-05-24T19:56:28Z</time>
      </trkpt>
      <trkpt lat="48.87674" lon="12.82416">
        <ele>316</ele>
        <time>2022-05-24T19:56:34Z</time>
      </trkpt>
      <trkpt lat="48.87696" lon="12.82529">
        <ele>314</ele>
        <time>2022-05-24T19:56:48Z</time>
      </trkpt>
      <trkpt lat="48.87687" lon="12.82547">
        <ele>314</ele>
        <time>2022-05-24T19:56:50Z</time>
      </trkpt>
      <trkpt lat="48.87722" lon="12.82574">
        <ele>314</ele>
        <time>2022-05-24T19:56:57Z</time>
      </trkpt>
      <trkpt lat="48.87794" lon="12.82596">
        <ele>315</ele>
        <time>2022-05-24T19:57:11Z</time>
      </trkpt>
      <trkpt lat="48.87784" lon="12.82789">
        <ele>317</ele>
        <time>2022-05-24T19:57:33Z</time>
      </trkpt>
      <trkpt lat="48.87736" lon="12.83209">
        <ele>319</ele>
        <time>2022-05-24T19:58:23Z</time>
      </trkpt>
      <trkpt lat="48.87752" lon="12.83257">
        <ele>319</ele>
        <time>2022-05-24T19:58:29Z</time>
      </trkpt>
      <trkpt lat="48.8754" lon="12.83415">
        <ele>319</ele>
        <time>2022-05-24T19:59:11Z</time>
      </trkpt>
      <trkpt lat="48.87527" lon="12.8342">
        <ele>319</ele>
        <time>2022-05-24T19:59:14Z</time>
      </trkpt>
      <trkpt lat="48.87513" lon="12.83516">
        <ele>321</ele>
        <time>2022-05-24T19:59:25Z</time>
      </trkpt>
      <trkpt lat="48.87515" lon="12.83537">
        <ele>321</ele>
        <time>2022-05-24T19:59:28Z</time>
      </trkpt>
      <trkpt lat="48.8748" lon="12.83809">
        <ele>316</ele>
        <time>2022-05-24T20:00:00Z</time>
      </trkpt>
      <trkpt lat="48.87476" lon="12.83852">
        <ele>317</ele>
        <time>2022-05-24T20:00:05Z</time>
      </trkpt>
      <trkpt lat="48.87479" lon="12.83869">
        <ele>317</ele>
        <time>2022-05-24T20:00:07Z</time>
      </trkpt>
      <trkpt lat="48.87466" lon="12.83906">
        <ele>317</ele>
        <time>2022-05-24T20:00:12Z</time>
      </trkpt>
      <trkpt lat="48.87449" lon="12.84012">
        <ele>318</ele>
        <time>2022-05-24T20:00:25Z</time>
      </trkpt>
      <trkpt lat="48.87441" lon="12.84252">
        <ele>319</ele>
        <time>2022-05-24T20:00:53Z</time>
      </trkpt>
      <trkpt lat="48.87451" lon="12.84336">
        <ele>319</ele>
        <time>2022-05-24T20:01:03Z</time>
      </trkpt>
      <trkpt lat="48.87411" lon="12.84519">
        <ele>319</ele>
        <time>2022-05-24T20:01:26Z</time>
      </trkpt>
      <trkpt lat="48.8723" lon="12.84996">
        <ele>318</ele>
        <time>2022-05-24T20:02:30Z</time>
      </trkpt>
      <trkpt lat="48.87216" lon="12.85048">
        <ele>319</ele>
        <time>2022-05-24T20:02:37Z</time>
      </trkpt>
      <trkpt lat="48.87221" lon="12.85081">
        <ele>319</ele>
        <time>2022-05-24T20:02:41Z</time>
      </trkpt>
      <trkpt lat="48.87215" lon="12.85086">
        <ele>319</ele>
        <time>2022-05-24T20:02:42Z</time>
      </trkpt>
      <trkpt lat="48.87191" lon="12.85092">
        <ele>319</ele>
        <time>2022-05-24T20:02:46Z</time>
      </trkpt>
      <trkpt lat="48.87173" lon="12.85152">
        <ele>319</ele>
        <time>2022-05-24T20:02:54Z</time>
      </trkpt>
      <trkpt lat="48.87161" lon="12.85143">
        <ele>319</ele>
        <time>2022-05-24T20:02:56Z</time>
      </trkpt>
      <trkpt lat="48.87141" lon="12.85231">
        <ele>318</ele>
        <time>2022-05-24T20:03:07Z</time>
      </trkpt>
      <trkpt lat="48.87038" lon="12.85551">
        <ele>317</ele>
        <time>2022-05-24T20:03:49Z</time>
      </trkpt>
      <trkpt lat="48.86969" lon="12.8568">
        <ele>319</ele>
        <time>2022-05-24T20:04:08Z</time>
      </trkpt>
      <trkpt lat="48.86869" lon="12.85803">
        <ele>318</ele>
        <time>2022-05-24T20:04:31Z</time>
      </trkpt>
      <trkpt lat="48.86707" lon="12.85978">
        <ele>317</ele>
        <time>2022-05-24T20:05:07Z</time>
      </trkpt>
      <trkpt lat="48.8668" lon="12.86015">
        <ele>317</ele>
        <time>2022-05-24T20:05:13Z</time>
      </trkpt>
      <trkpt lat="48.86598" lon="12.86098">
        <ele>317</ele>
        <time>2022-05-24T20:05:31Z</time>
      </trkpt>
      <trkpt lat="48.86628" lon="12.86119">
        <ele>318</ele>
        <time>2022-05-24T20:05:36Z</time>
      </trkpt>
      <trkpt lat="48.8659" lon="12.86206">
        <ele>320</ele>
        <time>2022-05-24T20:05:49Z</time>
      </trkpt>
      <trkpt lat="48.86561" lon="12.86301">
        <ele>321</ele>
        <time>2022-05-24T20:06:01Z</time>
      </trkpt>
      <trkpt lat="48.86505" lon="12.86518">
        <ele>324</ele>
        <time>2022-05-24T20:06:28Z</time>
      </trkpt>
      <trkpt lat="48.8647" lon="12.86605">
        <ele>327</ele>
        <time>2022-05-24T20:06:40Z</time>
      </trkpt>
      <trkpt lat="48.86435" lon="12.86669">
        <ele>324</ele>
        <time>2022-05-24T20:06:50Z</time>
      </trkpt>
      <trkpt lat="48.86335" lon="12.86828">
        <ele>318</ele>
        <time>2022-05-24T20:07:16Z</time>
      </trkpt>
      <trkpt lat="48.86285" lon="12.86918">
        <ele>315</ele>
        <time>2022-05-24T20:07:29Z</time>
      </trkpt>
      <trkpt lat="48.86265" lon="12.86905">
        <ele>314</ele>
        <time>2022-05-24T20:07:33Z</time>
      </trkpt>
      <trkpt lat="48.86258" lon="12.86938">
        <ele>314</ele>
        <time>2022-05-24T20:07:37Z</time>
      </trkpt>
      <trkpt lat="48.86192" lon="12.87117">
        <ele>312</ele>
        <time>2022-05-24T20:08:01Z</time>
      </trkpt>
      <trkpt lat="48.86158" lon="12.87258">
        <ele>313</ele>
        <time>2022-05-24T20:08:19Z</time>
      </trkpt>
      <trkpt lat="48.86144" lon="12.87293">
        <ele>313</ele>
        <time>2022-05-24T20:08:24Z</time>
      </trkpt>
      <trkpt lat="48.86141" lon="12.87347">
        <ele>313</ele>
        <time>2022-05-24T20:08:30Z</time>
      </trkpt>
      <trkpt lat="48.8612" lon="12.87505">
        <ele>313</ele>
        <time>2022-05-24T20:08:49Z</time>
      </trkpt>
      <trkpt lat="48.86085" lon="12.87903">
        <ele>315</ele>
        <time>2022-05-24T20:09:36Z</time>
      </trkpt>
      <trkpt lat="48.86061" lon="12.88233">
        <ele>312</ele>
        <time>2022-05-24T20:10:15Z</time>
      </trkpt>
      <trkpt lat="48.86095" lon="12.8824">
        <ele>312</ele>
        <time>2022-05-24T20:10:21Z</time>
      </trkpt>
      <trkpt lat="48.86123" lon="12.88262">
        <ele>313</ele>
        <time>2022-05-24T20:10:27Z</time>
      </trkpt>
      <trkpt lat="48.86143" lon="12.88295">
        <ele>313</ele>
        <time>2022-05-24T20:10:32Z</time>
      </trkpt>
      <trkpt lat="48.86159" lon="12.88351">
        <ele>314</ele>
        <time>2022-05-24T20:10:39Z</time>
      </trkpt>
      <trkpt lat="48.86163" lon="12.88574">
        <ele>316</ele>
        <time>2022-05-24T20:11:05Z</time>
      </trkpt>
      <trkpt lat="48.86171" lon="12.88835">
        <ele>317</ele>
        <time>2022-05-24T20:11:36Z</time>
      </trkpt>
      <trkpt lat="48.8617" lon="12.88881">
        <ele>317</ele>
        <time>2022-05-24T20:11:41Z</time>
      </trkpt>
      <trkpt lat="48.86159" lon="12.88953">
        <ele>317</ele>
        <time>2022-05-24T20:11:50Z</time>
      </trkpt>
      <trkpt lat="48.86181" lon="12.88967">
        <ele>317</ele>
        <time>2022-05-24T20:11:54Z</time>
      </trkpt>
      <trkpt lat="48.86181" lon="12.89155">
        <ele>318</ele>
        <time>2022-05-24T20:12:16Z</time>
      </trkpt>
      <trkpt lat="48.86198" lon="12.89206">
        <ele>320</ele>
        <time>2022-05-24T20:12:23Z</time>
      </trkpt>
      <trkpt lat="48.86195" lon="12.89299">
        <ele>321</ele>
        <time>2022-05-24T20:12:34Z</time>
      </trkpt>
      <trkpt lat="48.8618" lon="12.89303">
        <ele>322</ele>
        <time>2022-05-24T20:12:36Z</time>
      </trkpt>
      <trkpt lat="48.86145" lon="12.89347">
        <ele>321</ele>
        <time>2022-05-24T20:12:44Z</time>
      </trkpt>
      <trkpt lat="48.86145" lon="12.89384">
        <ele>321</ele>
        <time>2022-05-24T20:12:49Z</time>
      </trkpt>
      <trkpt lat="48.86117" lon="12.89458">
        <ele>321</ele>
        <time>2022-05-24T20:12:59Z</time>
      </trkpt>
      <trkpt lat="48.86097" lon="12.89527">
        <ele>321</ele>
        <time>2022-05-24T20:13:08Z</time>
      </trkpt>
      <trkpt lat="48.86093" lon="12.89622">
        <ele>322</ele>
        <time>2022-05-24T20:13:19Z</time>
      </trkpt>
      <trkpt lat="48.86071" lon="12.89844">
        <ele>317</ele>
        <time>2022-05-24T20:13:45Z</time>
      </trkpt>
      <trkpt lat="48.86065" lon="12.89843">
        <ele>317</ele>
        <time>2022-05-24T20:13:46Z</time>
      </trkpt>
      <trkpt lat="48.86056" lon="12.89907">
        <ele>319</ele>
        <time>2022-05-24T20:13:54Z</time>
      </trkpt>
      <trkpt lat="48.86039" lon="12.89953">
        <ele>320</ele>
        <time>2022-05-24T20:14:00Z</time>
      </trkpt>
      <trkpt lat="48.86034" lon="12.89982">
        <ele>321</ele>
        <time>2022-05-24T20:14:03Z</time>
      </trkpt>
      <trkpt lat="48.86028" lon="12.90136">
        <ele>325</ele>
        <time>2022-05-24T20:14:21Z</time>
      </trkpt>
      <trkpt lat="48.86015" lon="12.90207">
        <ele>328</ele>
        <time>2022-05-24T20:14:30Z</time>
      </trkpt>
      <trkpt lat="48.86002" lon="12.90238">
        <ele>330</ele>
        <time>2022-05-24T20:14:34Z</time>
      </trkpt>
      <trkpt lat="48.85947" lon="12.90329">
        <ele>338</ele>
        <time>2022-05-24T20:14:49Z</time>
      </trkpt>
      <trkpt lat="48.85927" lon="12.90376">
        <ele>340</ele>
        <time>2022-05-24T20:14:55Z</time>
      </trkpt>
      <trkpt lat="48.8583" lon="12.9083">
        <ele>323</ele>
        <time>2022-05-24T20:15:51Z</time>
      </trkpt>
      <trkpt lat="48.8583" lon="12.90854">
        <ele>323</ele>
        <time>2022-05-24T20:15:54Z</time>
      </trkpt>
      <trkpt lat="48.85822" lon="12.90857">
        <ele>323</ele>
        <time>2022-05-24T20:15:56Z</time>
      </trkpt>
      <trkpt lat="48.85815" lon="12.90876">
        <ele>323</ele>
        <time>2022-05-24T20:15:58Z</time>
      </trkpt>
      <trkpt lat="48.85823" lon="12.90894">
        <ele>323</ele>
        <time>2022-05-24T20:16:01Z</time>
      </trkpt>
      <trkpt lat="48.85791" lon="12.90987">
        <ele>322</ele>
        <time>2022-05-24T20:16:13Z</time>
      </trkpt>
      <trkpt lat="48.85733" lon="12.90957">
        <ele>322</ele>
        <time>2022-05-24T20:16:24Z</time>
      </trkpt>
      <trkpt lat="48.85684" lon="12.90946">
        <ele>321</ele>
        <time>2022-05-24T20:16:33Z</time>
      </trkpt>
      <trkpt lat="48.85626" lon="12.9095">
        <ele>321</ele>
        <time>2022-05-24T20:16:43Z</time>
      </trkpt>
      <trkpt lat="48.85569" lon="12.90967">
        <ele>321</ele>
        <time>2022-05-24T20:16:53Z</time>
      </trkpt>
      <trkpt lat="48.85509" lon="12.90981">
        <ele>321</ele>
        <time>2022-05-24T20:17:04Z</time>
      </trkpt>
      <trkpt lat="48.85451" lon="12.9097">
        <ele>319</ele>
        <time>2022-05-24T20:17:14Z</time>
      </trkpt>
      <trkpt lat="48.85423" lon="12.90958">
        <ele>319</ele>
        <time>2022-05-24T20:17:20Z</time>
      </trkpt>
      <trkpt lat="48.85407" lon="12.91053">
        <ele>319</ele>
        <time>2022-05-24T20:17:31Z</time>
      </trkpt>
      <trkpt lat="48.85384" lon="12.91137">
        <ele>319</ele>
        <time>2022-05-24T20:17:42Z</time>
      </trkpt>
      <trkpt lat="48.85377" lon="12.91205">
        <ele>318</ele>
        <time>2022-05-24T20:17:50Z</time>
      </trkpt>
      <trkpt lat="48.8538" lon="12.91227">
        <ele>318</ele>
        <time>2022-05-24T20:17:52Z</time>
      </trkpt>
      <trkpt lat="48.85197" lon="12.91152">
        <ele>313</ele>
        <time>2022-05-24T20:18:26Z</time>
      </trkpt>
      <trkpt lat="48.85127" lon="12.91151">
        <ele>313</ele>
        <time>2022-05-24T20:18:39Z</time>
      </trkpt>
      <trkpt lat="48.85098" lon="12.91153">
        <ele>312</ele>
        <time>2022-05-24T20:18:44Z</time>
      </trkpt>
      <trkpt lat="48.85016" lon="12.91199">
        <ele>312</ele>
        <time>2022-05-24T20:18:59Z</time>
      </trkpt>
      <trkpt lat="48.84688" lon="12.91416">
        <ele>313</ele>
        <time>2022-05-24T20:20:03Z</time>
      </trkpt>
      <trkpt lat="48.84642" lon="12.91442">
        <ele>314</ele>
        <time>2022-05-24T20:20:12Z</time>
      </trkpt>
      <trkpt lat="48.8459" lon="12.91496">
        <ele>313</ele>
        <time>2022-05-24T20:20:23Z</time>
      </trkpt>
      <trkpt lat="48.8453" lon="12.91593">
        <ele>318</ele>
        <time>2022-05-24T20:20:39Z</time>
      </trkpt>
      <trkpt lat="48.8452" lon="12.91587">
        <ele>317</ele>
        <time>2022-05-24T20:20:40Z</time>
      </trkpt>
      <trkpt lat="48.84417" lon="12.91772">
        <ele>317</ele>
        <time>2022-05-24T20:21:09Z</time>
      </trkpt>
      <trkpt lat="48.84284" lon="12.91941">
        <ele>329</ele>
        <time>2022-05-24T20:21:40Z</time>
      </trkpt>
      <trkpt lat="48.84215" lon="12.92053">
        <ele>329</ele>
        <time>2022-05-24T20:21:58Z</time>
      </trkpt>
      <trkpt lat="48.84104" lon="12.9235">
        <ele>322</ele>
        <time>2022-05-24T20:22:38Z</time>
      </trkpt>
      <trkpt lat="48.84065" lon="12.92419">
        <ele>328</ele>
        <time>2022-05-24T20:22:48Z</time>
      </trkpt>
      <trkpt lat="48.83982" lon="12.92516">
        <ele>327</ele>
        <time>2022-05-24T20:23:07Z</time>
      </trkpt>
      <trkpt lat="48.83935" lon="12.92586">
        <ele>326</ele>
        <time>2022-05-24T20:23:19Z</time>
      </trkpt>
      <trkpt lat="48.83902" lon="12.92657">
        <ele>327</ele>
        <time>2022-05-24T20:23:29Z</time>
      </trkpt>
      <trkpt lat="48.83896" lon="12.92701">
        <ele>332</ele>
        <time>2022-05-24T20:23:34Z</time>
      </trkpt>
      <trkpt lat="48.83855" lon="12.9292">
        <ele>335</ele>
        <time>2022-05-24T20:24:01Z</time>
      </trkpt>
      <trkpt lat="48.83842" lon="12.93029">
        <ele>332</ele>
        <time>2022-05-24T20:24:14Z</time>
      </trkpt>
      <trkpt lat="48.838" lon="12.93174">
        <ele>332</ele>
        <time>2022-05-24T20:24:32Z</time>
      </trkpt>
      <trkpt lat="48.83744" lon="12.93412">
        <ele>325</ele>
        <time>2022-05-24T20:25:02Z</time>
      </trkpt>
      <trkpt lat="48.83721" lon="12.93483">
        <ele>328</ele>
        <time>2022-05-24T20:25:11Z</time>
      </trkpt>
      <trkpt lat="48.83632" lon="12.93672">
        <ele>322</ele>
        <time>2022-05-24T20:25:38Z</time>
      </trkpt>
      <trkpt lat="48.83613" lon="12.93723">
        <ele>321</ele>
        <time>2022-05-24T20:25:45Z</time>
      </trkpt>
      <trkpt lat="48.83605" lon="12.93764">
        <ele>321</ele>
        <time>2022-05-24T20:25:50Z</time>
      </trkpt>
      <trkpt lat="48.83612" lon="12.94011">
        <ele>321</ele>
        <time>2022-05-24T20:26:19Z</time>
      </trkpt>
      <trkpt lat="48.83637" lon="12.94114">
        <ele>321</ele>
        <time>2022-05-24T20:26:32Z</time>
      </trkpt>
      <trkpt lat="48.83634" lon="12.94152">
        <ele>319</ele>
        <time>2022-05-24T20:26:37Z</time>
      </trkpt>
      <trkpt lat="48.83625" lon="12.94201">
        <ele>318</ele>
        <time>2022-05-24T20:26:42Z</time>
      </trkpt>
      <trkpt lat="48.83605" lon="12.94266">
        <ele>318</ele>
        <time>2022-05-24T20:26:51Z</time>
      </trkpt>
      <trkpt lat="48.83562" lon="12.94368">
        <ele>316</ele>
        <time>2022-05-24T20:27:05Z</time>
      </trkpt>
      <trkpt lat="48.83542" lon="12.94445">
        <ele>315</ele>
        <time>2022-05-24T20:27:15Z</time>
      </trkpt>
      <trkpt lat="48.83539" lon="12.94542">
        <ele>315</ele>
        <time>2022-05-24T20:27:26Z</time>
      </trkpt>
      <trkpt lat="48.83539" lon="12.94726">
        <ele>316</ele>
        <time>2022-05-24T20:27:48Z</time>
      </trkpt>
      <trkpt lat="48.83536" lon="12.94798">
        <ele>316</ele>
        <time>2022-05-24T20:27:56Z</time>
      </trkpt>
      <trkpt lat="48.8354" lon="12.9488">
        <ele>316</ele>
        <time>2022-05-24T20:28:06Z</time>
      </trkpt>
      <trkpt lat="48.83554" lon="12.94994">
        <ele>314</ele>
        <time>2022-05-24T20:28:19Z</time>
      </trkpt>
      <trkpt lat="48.83555" lon="12.95228">
        <ele>317</ele>
        <time>2022-05-24T20:28:47Z</time>
      </trkpt>
      <trkpt lat="48.83553" lon="12.95304">
        <ele>316</ele>
        <time>2022-05-24T20:28:56Z</time>
      </trkpt>
      <trkpt lat="48.83556" lon="12.95342">
        <ele>316</ele>
        <time>2022-05-24T20:29:00Z</time>
      </trkpt>
      <trkpt lat="48.83597" lon="12.955">
        <ele>316</ele>
        <time>2022-05-24T20:29:20Z</time>
      </trkpt>
      <trkpt lat="48.83625" lon="12.9558">
        <ele>315</ele>
        <time>2022-05-24T20:29:31Z</time>
      </trkpt>
      <trkpt lat="48.83643" lon="12.95614">
        <ele>314</ele>
        <time>2022-05-24T20:29:36Z</time>
      </trkpt>
      <trkpt lat="48.83703" lon="12.95711">
        <ele>313</ele>
        <time>2022-05-24T20:29:51Z</time>
      </trkpt>
      <trkpt lat="48.83722" lon="12.95775">
        <ele>313</ele>
        <time>2022-05-24T20:30:00Z</time>
      </trkpt>
      <trkpt lat="48.83726" lon="12.95811">
        <ele>313</ele>
        <time>2022-05-24T20:30:04Z</time>
      </trkpt>
      <trkpt lat="48.83786" lon="12.95823">
        <ele>314</ele>
        <time>2022-05-24T20:30:15Z</time>
      </trkpt>
      <trkpt lat="48.83832" lon="12.95798">
        <ele>313</ele>
        <time>2022-05-24T20:30:23Z</time>
      </trkpt>
      <trkpt lat="48.83895" lon="12.95792">
        <ele>315</ele>
        <time>2022-05-24T20:30:35Z</time>
      </trkpt>
      <trkpt lat="48.83936" lon="12.95784">
        <ele>315</ele>
        <time>2022-05-24T20:30:42Z</time>
      </trkpt>
      <trkpt lat="48.83965" lon="12.95798">
        <ele>315</ele>
        <time>2022-05-24T20:30:47Z</time>
      </trkpt>
      <trkpt lat="48.84026" lon="12.95846">
        <ele>315</ele>
        <time>2022-05-24T20:31:00Z</time>
      </trkpt>
      <trkpt lat="48.84056" lon="12.95848">
        <ele>315</ele>
        <time>2022-05-24T20:31:05Z</time>
      </trkpt>
      <trkpt lat="48.8409" lon="12.95846">
        <ele>315</ele>
        <time>2022-05-24T20:31:11Z</time>
      </trkpt>
      <trkpt lat="48.84123" lon="12.95834">
        <ele>315</ele>
        <time>2022-05-24T20:31:17Z</time>
      </trkpt>
      <trkpt lat="48.84179" lon="12.95829">
        <ele>316</ele>
        <time>2022-05-24T20:31:27Z</time>
      </trkpt>
      <trkpt lat="48.84196" lon="12.95864">
        <ele>316</ele>
        <time>2022-05-24T20:31:32Z</time>
      </trkpt>
      <trkpt lat="48.84223" lon="12.96048">
        <ele>318</ele>
        <time>2022-05-24T20:31:54Z</time>
      </trkpt>
      <trkpt lat="48.84244" lon="12.96127">
        <ele>320</ele>
        <time>2022-05-24T20:32:04Z</time>
      </trkpt>
      <trkpt lat="48.84326" lon="12.9631">
        <ele>324</ele>
        <time>2022-05-24T20:32:30Z</time>
      </trkpt>
      <trkpt lat="48.84352" lon="12.96376">
        <ele>325</ele>
        <time>2022-05-24T20:32:39Z</time>
      </trkpt>
      <trkpt lat="48.84388" lon="12.96492">
        <ele>327</ele>
        <time>2022-05-24T20:32:54Z</time>
      </trkpt>
      <trkpt lat="48.84431" lon="12.96691">
        <ele>328</ele>
        <time>2022-05-24T20:33:19Z</time>
      </trkpt>
      <trkpt lat="48.84439" lon="12.96741">
        <ele>330</ele>
        <time>2022-05-24T20:33:25Z</time>
      </trkpt>
      <trkpt lat="48.84421" lon="12.96749">
        <ele>329</ele>
        <time>2022-05-24T20:33:28Z</time>
      </trkpt>
      <trkpt lat="48.84418" lon="12.96739">
        <ele>329</ele>
        <time>2022-05-24T20:33:29Z</time>
      </trkpt>
      <trkpt lat="48.84401" lon="12.96751">
        <ele>329</ele>
        <time>2022-05-24T20:33:33Z</time>
      </trkpt>
      <trkpt lat="48.84399" lon="12.96745">
        <ele>328</ele>
        <time>2022-05-24T20:33:33Z</time>
      </trkpt>
      <trkpt lat="48.84386" lon="12.96753">
        <ele>328</ele>
        <time>2022-05-24T20:33:36Z</time>
      </trkpt>
      <trkpt lat="48.84399" lon="12.96745">
        <ele>328</ele>
        <time>2022-05-24T20:33:38Z</time>
      </trkpt>
      <trkpt lat="48.84401" lon="12.96751">
        <ele>329</ele>
        <time>2022-05-24T20:33:39Z</time>
      </trkpt>
      <trkpt lat="48.84418" lon="12.96739">
        <ele>329</ele>
        <time>2022-05-24T20:33:42Z</time>
      </trkpt>
      <trkpt lat="48.84421" lon="12.96749">
        <ele>329</ele>
        <time>2022-05-24T20:33:44Z</time>
      </trkpt>
      <trkpt lat="48.84431" lon="12.96745">
        <ele>330</ele>
        <time>2022-05-24T20:33:46Z</time>
      </trkpt>
      <trkpt lat="48.84451" lon="12.96869">
        <ele>335</ele>
        <time>2022-05-24T20:34:01Z</time>
      </trkpt>
      <trkpt lat="48.84473" lon="12.9697">
        <ele>337</ele>
        <time>2022-05-24T20:34:13Z</time>
      </trkpt>
      <trkpt lat="48.84481" lon="12.96972">
        <ele>336</ele>
        <time>2022-05-24T20:34:14Z</time>
      </trkpt>
      <trkpt lat="48.84512" lon="12.97116">
        <ele>337</ele>
        <time>2022-05-24T20:34:32Z</time>
      </trkpt>
      <trkpt lat="48.84542" lon="12.97234">
        <ele>338</ele>
        <time>2022-05-24T20:34:47Z</time>
      </trkpt>
      <trkpt lat="48.84648" lon="12.97552">
        <ele>341</ele>
        <time>2022-05-24T20:35:29Z</time>
      </trkpt>
      <trkpt lat="48.84714" lon="12.97764">
        <ele>345</ele>
        <time>2022-05-24T20:35:56Z</time>
      </trkpt>
      <trkpt lat="48.84876" lon="12.98175">
        <ele>351</ele>
        <time>2022-05-24T20:36:52Z</time>
      </trkpt>
      <trkpt lat="48.84929" lon="12.98328">
        <ele>356</ele>
        <time>2022-05-24T20:37:13Z</time>
      </trkpt>
      <trkpt lat="48.84943" lon="12.98381">
        <ele>356</ele>
        <time>2022-05-24T20:37:19Z</time>
      </trkpt>
      <trkpt lat="48.84936" lon="12.98399">
        <ele>356</ele>
        <time>2022-05-24T20:37:22Z</time>
      </trkpt>
      <trkpt lat="48.84943" lon="12.98413">
        <ele>356</ele>
        <time>2022-05-24T20:37:24Z</time>
      </trkpt>
      <trkpt lat="48.84952" lon="12.98413">
        <ele>356</ele>
        <time>2022-05-24T20:37:25Z</time>
      </trkpt>
      <trkpt lat="48.85026" lon="12.98632">
        <ele>361</ele>
        <time>2022-05-24T20:37:54Z</time>
      </trkpt>
      <trkpt lat="48.85071" lon="12.98739">
        <ele>363</ele>
        <time>2022-05-24T20:38:09Z</time>
      </trkpt>
      <trkpt lat="48.8522" lon="12.99023">
        <ele>373</ele>
        <time>2022-05-24T20:38:52Z</time>
      </trkpt>
      <trkpt lat="48.85275" lon="12.99168">
        <ele>376</ele>
        <time>2022-05-24T20:39:11Z</time>
      </trkpt>
      <trkpt lat="48.8531" lon="12.99244">
        <ele>378</ele>
        <time>2022-05-24T20:39:22Z</time>
      </trkpt>
      <trkpt lat="48.85325" lon="12.9927">
        <ele>380</ele>
        <time>2022-05-24T20:39:26Z</time>
      </trkpt>
      <trkpt lat="48.85426" lon="12.99403">
        <ele>383</ele>
        <time>2022-05-24T20:39:50Z</time>
      </trkpt>
      <trkpt lat="48.85469" lon="12.99484">
        <ele>386</ele>
        <time>2022-05-24T20:40:02Z</time>
      </trkpt>
      <trkpt lat="48.85495" lon="12.99555">
        <ele>389</ele>
        <time>2022-05-24T20:40:11Z</time>
      </trkpt>
      <trkpt lat="48.85518" lon="12.9964">
        <ele>393</ele>
        <time>2022-05-24T20:40:22Z</time>
      </trkpt>
      <trkpt lat="48.8555" lon="12.99723">
        <ele>399</ele>
        <time>2022-05-24T20:40:34Z</time>
      </trkpt>
      <trkpt lat="48.85573" lon="12.99791">
        <ele>401</ele>
        <time>2022-05-24T20:40:42Z</time>
      </trkpt>
      <trkpt lat="48.85578" lon="12.99831">
        <ele>399</ele>
        <time>2022-05-24T20:40:47Z</time>
      </trkpt>
      <trkpt lat="48.85578" lon="12.9987">
        <ele>398</ele>
        <time>2022-05-24T20:40:52Z</time>
      </trkpt>
      <trkpt lat="48.85584" lon="12.99903">
        <ele>398</ele>
        <time>2022-05-24T20:40:56Z</time>
      </trkpt>
      <trkpt lat="48.85613" lon="12.99963">
        <ele>401</ele>
        <time>2022-05-24T20:41:05Z</time>
      </trkpt>
      <trkpt lat="48.85651" lon="13.001">
        <ele>406</ele>
        <time>2022-05-24T20:41:22Z</time>
      </trkpt>
      <trkpt lat="48.85699" lon="13.00186">
        <ele>409</ele>
        <time>2022-05-24T20:41:35Z</time>
      </trkpt>
      <trkpt lat="48.85735" lon="13.00242">
        <ele>412</ele>
        <time>2022-05-24T20:41:44Z</time>
      </trkpt>
      <trkpt lat="48.85795" lon="13.00327">
        <ele>421</ele>
        <time>2022-05-24T20:41:59Z</time>
      </trkpt>
      <trkpt lat="48.85811" lon="13.00376">
        <ele>423</ele>
        <time>2022-05-24T20:42:05Z</time>
      </trkpt>
      <trkpt lat="48.85823" lon="13.00425">
        <ele>424</ele>
        <time>2022-05-24T20:42:11Z</time>
      </trkpt>
      <trkpt lat="48.85846" lon="13.00582">
        <ele>432</ele>
        <time>2022-05-24T20:42:30Z</time>
      </trkpt>
      <trkpt lat="48.85863" lon="13.0064">
        <ele>435</ele>
        <time>2022-05-24T20:42:38Z</time>
      </trkpt>
      <trkpt lat="48.85914" lon="13.00751">
        <ele>430</ele>
        <time>2022-05-24T20:42:54Z</time>
      </trkpt>
      <trkpt lat="48.85924" lon="13.00788">
        <ele>436</ele>
        <time>2022-05-24T20:42:58Z</time>
      </trkpt>
      <trkpt lat="48.85942" lon="13.00887">
        <ele>455</ele>
        <time>2022-05-24T20:43:10Z</time>
      </trkpt>
      <trkpt lat="48.86001" lon="13.01097">
        <ele>476</ele>
        <time>2022-05-24T20:43:37Z</time>
      </trkpt>
      <trkpt lat="48.86017" lon="13.01205">
        <ele>490</ele>
        <time>2022-05-24T20:43:50Z</time>
      </trkpt>
      <trkpt lat="48.86047" lon="13.01321">
        <ele>508</ele>
        <time>2022-05-24T20:44:05Z</time>
      </trkpt>
      <trkpt lat="48.86071" lon="13.01623">
        <ele>533</ele>
        <time>2022-05-24T20:44:40Z</time>
      </trkpt>
      <trkpt lat="48.86064" lon="13.01694">
        <ele>540</ele>
        <time>2022-05-24T20:44:49Z</time>
      </trkpt>
      <trkpt lat="48.86057" lon="13.01739">
        <ele>545</ele>
        <time>2022-05-24T20:44:54Z</time>
      </trkpt>
      <trkpt lat="48.86047" lon="13.01767">
        <ele>547</ele>
        <time>2022-05-24T20:44:58Z</time>
      </trkpt>
      <trkpt lat="48.86027" lon="13.01803">
        <ele>547</ele>
        <time>2022-05-24T20:45:03Z</time>
      </trkpt>
      <trkpt lat="48.85943" lon="13.01892">
        <ele>554</ele>
        <time>2022-05-24T20:45:21Z</time>
      </trkpt>
      <trkpt lat="48.85925" lon="13.0192">
        <ele>553</ele>
        <time>2022-05-24T20:45:26Z</time>
      </trkpt>
      <trkpt lat="48.85917" lon="13.01943">
        <ele>554</ele>
        <time>2022-05-24T20:45:29Z</time>
      </trkpt>
      <trkpt lat="48.85915" lon="13.01996">
        <ele>558</ele>
        <time>2022-05-24T20:45:35Z</time>
      </trkpt>
      <trkpt lat="48.8592" lon="13.02017">
        <ele>561</ele>
        <time>2022-05-24T20:45:38Z</time>
      </trkpt>
      <trkpt lat="48.85932" lon="13.02039">
        <ele>565</ele>
        <time>2022-05-24T20:45:41Z</time>
      </trkpt>
      <trkpt lat="48.86052" lon="13.02174">
        <ele>587</ele>
        <time>2022-05-24T20:46:08Z</time>
      </trkpt>
      <trkpt lat="48.8607" lon="13.02199">
        <ele>589</ele>
        <time>2022-05-24T20:46:12Z</time>
      </trkpt>
      <trkpt lat="48.86081" lon="13.02224">
        <ele>588</ele>
        <time>2022-05-24T20:46:16Z</time>
      </trkpt>
      <trkpt lat="48.86098" lon="13.02296">
        <ele>591</ele>
        <time>2022-05-24T20:46:25Z</time>
      </trkpt>
      <trkpt lat="48.86103" lon="13.02412">
        <ele>596</ele>
        <time>2022-05-24T20:46:38Z</time>
      </trkpt>
      <trkpt lat="48.86111" lon="13.02455">
        <ele>597</ele>
        <time>2022-05-24T20:46:43Z</time>
      </trkpt>
      <trkpt lat="48.86122" lon="13.02476">
        <ele>597</ele>
        <time>2022-05-24T20:46:47Z</time>
      </trkpt>
      <trkpt lat="48.86201" lon="13.02523">
        <ele>598</ele>
        <time>2022-05-24T20:47:02Z</time>
      </trkpt>
      <trkpt lat="48.86222" lon="13.0254">
        <ele>599</ele>
        <time>2022-05-24T20:47:06Z</time>
      </trkpt>
      <trkpt lat="48.8625" lon="13.02586">
        <ele>597</ele>
        <time>2022-05-24T20:47:13Z</time>
      </trkpt>
      <trkpt lat="48.86274" lon="13.02718">
        <ele>608</ele>
        <time>2022-05-24T20:47:29Z</time>
      </trkpt>
      <trkpt lat="48.86298" lon="13.02773">
        <ele>613</ele>
        <time>2022-05-24T20:47:37Z</time>
      </trkpt>
      <trkpt lat="48.86357" lon="13.0285">
        <ele>622</ele>
        <time>2022-05-24T20:47:51Z</time>
      </trkpt>
      <trkpt lat="48.86374" lon="13.02883">
        <ele>626</ele>
        <time>2022-05-24T20:47:56Z</time>
      </trkpt>
      <trkpt lat="48.86392" lon="13.02938">
        <ele>627</ele>
        <time>2022-05-24T20:48:03Z</time>
      </trkpt>
      <trkpt lat="48.86404" lon="13.02985">
        <ele>627</ele>
        <time>2022-05-24T20:48:09Z</time>
      </trkpt>
      <trkpt lat="48.86399" lon="13.02992">
        <ele>628</ele>
        <time>2022-05-24T20:48:10Z</time>
      </trkpt>
      <trkpt lat="48.86397" lon="13.03008">
        <ele>629</ele>
        <time>2022-05-24T20:48:12Z</time>
      </trkpt>
      <trkpt lat="48.86404" lon="13.03048">
        <ele>629</ele>
        <time>2022-05-24T20:48:17Z</time>
      </trkpt>
      <trkpt lat="48.86417" lon="13.03089">
        <ele>629</ele>
        <time>2022-05-24T20:48:22Z</time>
      </trkpt>
      <trkpt lat="48.86449" lon="13.03145">
        <ele>637</ele>
        <time>2022-05-24T20:48:31Z</time>
      </trkpt>
      <trkpt lat="48.86462" lon="13.03158">
        <ele>640</ele>
        <time>2022-05-24T20:48:34Z</time>
      </trkpt>
      <trkpt lat="48.86472" lon="13.03152">
        <ele>640</ele>
        <time>2022-05-24T20:48:35Z</time>
      </trkpt>
      <trkpt lat="48.86569" lon="13.03308">
        <ele>655</ele>
        <time>2022-05-24T20:49:01Z</time>
      </trkpt>
      <trkpt lat="48.86725" lon="13.03573">
        <ele>677</ele>
        <time>2022-05-24T20:49:42Z</time>
      </trkpt>
      <trkpt lat="48.86809" lon="13.03704">
        <ele>698</ele>
        <time>2022-05-24T20:50:04Z</time>
      </trkpt>
      <trkpt lat="48.86918" lon="13.03858">
        <ele>710</ele>
        <time>2022-05-24T20:50:30Z</time>
      </trkpt>
      <trkpt lat="48.86972" lon="13.03918">
        <ele>717</ele>
        <time>2022-05-24T20:50:42Z</time>
      </trkpt>
      <trkpt lat="48.87033" lon="13.03977">
        <ele>720</ele>
        <time>2022-05-24T20:50:55Z</time>
      </trkpt>
      <trkpt lat="48.87078" lon="13.04035">
        <ele>717</ele>
        <time>2022-05-24T20:51:05Z</time>
      </trkpt>
      <trkpt lat="48.87088" lon="13.04065">
        <ele>716</ele>
        <time>2022-05-24T20:51:09Z</time>
      </trkpt>
      <trkpt lat="48.87151" lon="13.0459">
        <ele>738</ele>
        <time>2022-05-24T20:52:12Z</time>
      </trkpt>
      <trkpt lat="48.87146" lon="13.0462">
        <ele>743</ele>
        <time>2022-05-24T20:52:15Z</time>
      </trkpt>
      <trkpt lat="48.87152" lon="13.04661">
        <ele>747</ele>
        <time>2022-05-24T20:52:20Z</time>
      </trkpt>
      <trkpt lat="48.87182" lon="13.0474">
        <ele>756</ele>
        <time>2022-05-24T20:52:31Z</time>
      </trkpt>
      <trkpt lat="48.8721" lon="13.04779">
        <ele>758</ele>
        <time>2022-05-24T20:52:38Z</time>
      </trkpt>
      <trkpt lat="48.8722" lon="13.04778">
        <ele>756</ele>
        <time>2022-05-24T20:52:40Z</time>
      </trkpt>
      <trkpt lat="48.87247" lon="13.04804">
        <ele>754</ele>
        <time>2022-05-24T20:52:45Z</time>
      </trkpt>
      <trkpt lat="48.87324" lon="13.0485">
        <ele>763</ele>
        <time>2022-05-24T20:53:00Z</time>
      </trkpt>
      <trkpt lat="48.8739" lon="13.04876">
        <ele>775</ele>
        <time>2022-05-24T20:53:12Z</time>
      </trkpt>
      <trkpt lat="48.87431" lon="13.04875">
        <ele>781</ele>
        <time>2022-05-24T20:53:19Z</time>
      </trkpt>
      <trkpt lat="48.87467" lon="13.04857">
        <ele>784</ele>
        <time>2022-05-24T20:53:26Z</time>
      </trkpt>
      <trkpt lat="48.87546" lon="13.04795">
        <ele>791</ele>
        <time>2022-05-24T20:53:42Z</time>
      </trkpt>
      <trkpt lat="48.87569" lon="13.04791">
        <ele>792</ele>
        <time>2022-05-24T20:53:46Z</time>
      </trkpt>
      <trkpt lat="48.87595" lon="13.04808">
        <ele>792</ele>
        <time>2022-05-24T20:53:51Z</time>
      </trkpt>
      <trkpt lat="48.87606" lon="13.04838">
        <ele>792</ele>
        <time>2022-05-24T20:53:55Z</time>
      </trkpt>
      <trkpt lat="48.87609" lon="13.04878">
        <ele>794</ele>
        <time>2022-05-24T20:54:00Z</time>
      </trkpt>
      <trkpt lat="48.87604" lon="13.0491">
        <ele>794</ele>
        <time>2022-05-24T20:54:04Z</time>
      </trkpt>
      <trkpt lat="48.87591" lon="13.04951">
        <ele>795</ele>
        <time>2022-05-24T20:54:09Z</time>
      </trkpt>
      <trkpt lat="48.87508" lon="13.05089">
        <ele>798</ele>
        <time>2022-05-24T20:54:31Z</time>
      </trkpt>
      <trkpt lat="48.87473" lon="13.05162">
        <ele>801</ele>
        <time>2022-05-24T20:54:41Z</time>
      </trkpt>
      <trkpt lat="48.87448" lon="13.05256">
        <ele>805</ele>
        <time>2022-05-24T20:54:53Z</time>
      </trkpt>
      <trkpt lat="48.8744" lon="13.05305">
        <ele>808</ele>
        <time>2022-05-24T20:54:59Z</time>
      </trkpt>
      <trkpt lat="48.87437" lon="13.05365">
        <ele>811</ele>
        <time>2022-05-24T20:55:06Z</time>
      </trkpt>
      <trkpt lat="48.8744" lon="13.05438">
        <ele>814</ele>
        <time>2022-05-24T20:55:15Z</time>
      </trkpt>
      <trkpt lat="48.87448" lon="13.05481">
        <ele>815</ele>
        <time>2022-05-24T20:55:20Z</time>
      </trkpt>
      <trkpt lat="48.87606" lon="13.06113">
        <ele>841</ele>
        <time>2022-05-24T20:56:39Z</time>
      </trkpt>
      <trkpt lat="48.87619" lon="13.06213">
        <ele>847</ele>
        <time>2022-05-24T20:56:51Z</time>
      </trkpt>
      <trkpt lat="48.87615" lon="13.06328">
        <ele>852</ele>
        <time>2022-05-24T20:57:05Z</time>
      </trkpt>
      <trkpt lat="48.87589" lon="13.06533">
        <ele>857</ele>
        <time>2022-05-24T20:57:29Z</time>
      </trkpt>
      <trkpt lat="48.87559" lon="13.06707">
        <ele>859</ele>
        <time>2022-05-24T20:57:50Z</time>
      </trkpt>
      <trkpt lat="48.87525" lon="13.0685">
        <ele>854</ele>
        <time>2022-05-24T20:58:08Z</time>
      </trkpt>
      <trkpt lat="48.87499" lon="13.0698">
        <ele>846</ele>
        <time>2022-05-24T20:58:24Z</time>
      </trkpt>
      <trkpt lat="48.8749" lon="13.07083">
        <ele>844</ele>
        <time>2022-05-24T20:58:36Z</time>
      </trkpt>
      <trkpt lat="48.87494" lon="13.07197">
        <ele>838</ele>
        <time>2022-05-24T20:58:49Z</time>
      </trkpt>
      <trkpt lat="48.87566" lon="13.07929">
        <ele>798</ele>
        <time>2022-05-24T21:00:16Z</time>
      </trkpt>
      <trkpt lat="48.87587" lon="13.08021">
        <ele>790</ele>
        <time>2022-05-24T21:00:27Z</time>
      </trkpt>
      <trkpt lat="48.87641" lon="13.08171">
        <ele>776</ele>
        <time>2022-05-24T21:00:47Z</time>
      </trkpt>
      <trkpt lat="48.8769" lon="13.08322">
        <ele>773</ele>
        <time>2022-05-24T21:01:07Z</time>
      </trkpt>
      <trkpt lat="48.87739" lon="13.08508">
        <ele>761</ele>
        <time>2022-05-24T21:01:30Z</time>
      </trkpt>
      <trkpt lat="48.87742" lon="13.08543">
        <ele>760</ele>
        <time>2022-05-24T21:01:35Z</time>
      </trkpt>
      <trkpt lat="48.87739" lon="13.08556">
        <ele>759</ele>
        <time>2022-05-24T21:01:36Z</time>
      </trkpt>
      <trkpt lat="48.87739" lon="13.08606">
        <ele>758</ele>
        <time>2022-05-24T21:01:42Z</time>
      </trkpt>
      <trkpt lat="48.87771" lon="13.08664">
        <ele>756</ele>
        <time>2022-05-24T21:01:51Z</time>
      </trkpt>
      <trkpt lat="48.87792" lon="13.08727">
        <ele>754</ele>
        <time>2022-05-24T21:01:59Z</time>
      </trkpt>
      <trkpt lat="48.87786" lon="13.08739">
        <ele>755</ele>
        <time>2022-05-24T21:02:01Z</time>
      </trkpt>
      <trkpt lat="48.87783" lon="13.08758">
        <ele>755</ele>
        <time>2022-05-24T21:02:03Z</time>
      </trkpt>
      <trkpt lat="48.87819" lon="13.08905">
        <ele>757</ele>
        <time>2022-05-24T21:02:22Z</time>
      </trkpt>
      <trkpt lat="48.87823" lon="13.08961">
        <ele>762</ele>
        <time>2022-05-24T21:02:28Z</time>
      </trkpt>
      <trkpt lat="48.87825" lon="13.09083">
        <ele>773</ele>
        <time>2022-05-24T21:02:42Z</time>
      </trkpt>
      <trkpt lat="48.87839" lon="13.09199">
        <ele>787</ele>
        <time>2022-05-24T21:02:56Z</time>
      </trkpt>
      <trkpt lat="48.87848" lon="13.0932">
        <ele>794</ele>
        <time>2022-05-24T21:03:10Z</time>
      </trkpt>
      <trkpt lat="48.87846" lon="13.09453">
        <ele>794</ele>
        <time>2022-05-24T21:03:26Z</time>
      </trkpt>
      <trkpt lat="48.87824" lon="13.0954">
        <ele>793</ele>
        <time>2022-05-24T21:03:37Z</time>
      </trkpt>
      <trkpt lat="48.87795" lon="13.09588">
        <ele>792</ele>
        <time>2022-05-24T21:03:45Z</time>
      </trkpt>
      <trkpt lat="48.8775" lon="13.09627">
        <ele>792</ele>
        <time>2022-05-24T21:03:54Z</time>
      </trkpt>
      <trkpt lat="48.87696" lon="13.09655">
        <ele>792</ele>
        <time>2022-05-24T21:04:04Z</time>
      </trkpt>
      <trkpt lat="48.8765" lon="13.09692">
        <ele>790</ele>
        <time>2022-05-24T21:04:13Z</time>
      </trkpt>
      <trkpt lat="48.87571" lon="13.09714">
        <ele>791</ele>
        <time>2022-05-24T21:04:27Z</time>
      </trkpt>
      <trkpt lat="48.87532" lon="13.09735">
        <ele>791</ele>
        <time>2022-05-24T21:04:35Z</time>
      </trkpt>
      <trkpt lat="48.87478" lon="13.0979">
        <ele>790</ele>
        <time>2022-05-24T21:04:46Z</time>
      </trkpt>
      <trkpt lat="48.87461" lon="13.09832">
        <ele>789</ele>
        <time>2022-05-24T21:04:52Z</time>
      </trkpt>
      <trkpt lat="48.8746" lon="13.09856">
        <ele>789</ele>
        <time>2022-05-24T21:04:55Z</time>
      </trkpt>
      <trkpt lat="48.87478" lon="13.10012">
        <ele>787</ele>
        <time>2022-05-24T21:05:14Z</time>
      </trkpt>
      <trkpt lat="48.87512" lon="13.1006">
        <ele>785</ele>
        <time>2022-05-24T21:05:22Z</time>
      </trkpt>
      <trkpt lat="48.8755" lon="13.10161">
        <ele>787</ele>
        <time>2022-05-24T21:05:35Z</time>
      </trkpt>
      <trkpt lat="48.87581" lon="13.10223">
        <ele>795</ele>
        <time>2022-05-24T21:05:45Z</time>
      </trkpt>
      <trkpt lat="48.87588" lon="13.10259">
        <ele>800</ele>
        <time>2022-05-24T21:05:49Z</time>
      </trkpt>
      <trkpt lat="48.87597" lon="13.10281">
        <ele>802</ele>
        <time>2022-05-24T21:05:52Z</time>
      </trkpt>
      <trkpt lat="48.87614" lon="13.10298">
        <ele>803</ele>
        <time>2022-05-24T21:05:56Z</time>
      </trkpt>
      <trkpt lat="48.87642" lon="13.1031">
        <ele>802</ele>
        <time>2022-05-24T21:06:01Z</time>
      </trkpt>
      <trkpt lat="48.87679" lon="13.10347">
        <ele>803</ele>
        <time>2022-05-24T21:06:09Z</time>
      </trkpt>
      <trkpt lat="48.87833" lon="13.10473">
        <ele>803</ele>
        <time>2022-05-24T21:06:40Z</time>
      </trkpt>
      <trkpt lat="48.87848" lon="13.10492">
        <ele>804</ele>
        <time>2022-05-24T21:06:43Z</time>
      </trkpt>
      <trkpt lat="48.8792" lon="13.10724">
        <ele>812</ele>
        <time>2022-05-24T21:07:13Z</time>
      </trkpt>
      <trkpt lat="48.87941" lon="13.10829">
        <ele>815</ele>
        <time>2022-05-24T21:07:26Z</time>
      </trkpt>
      <trkpt lat="48.87957" lon="13.10947">
        <ele>816</ele>
        <time>2022-05-24T21:07:40Z</time>
      </trkpt>
      <trkpt lat="48.87972" lon="13.11135">
        <ele>821</ele>
        <time>2022-05-24T21:08:02Z</time>
      </trkpt>
      <trkpt lat="48.87963" lon="13.11213">
        <ele>821</ele>
        <time>2022-05-24T21:08:12Z</time>
      </trkpt>
      <trkpt lat="48.87944" lon="13.1128">
        <ele>821</ele>
        <time>2022-05-24T21:08:20Z</time>
      </trkpt>
      <trkpt lat="48.87894" lon="13.11403">
        <ele>821</ele>
        <time>2022-05-24T21:08:37Z</time>
      </trkpt>
      <trkpt lat="48.87785" lon="13.11524">
        <ele>816</ele>
        <time>2022-05-24T21:09:01Z</time>
      </trkpt>
      <trkpt lat="48.8775" lon="13.11598">
        <ele>808</ele>
        <time>2022-05-24T21:09:12Z</time>
      </trkpt>
      <trkpt lat="48.87683" lon="13.11705">
        <ele>801</ele>
        <time>2022-05-24T21:09:29Z</time>
      </trkpt>
      <trkpt lat="48.87653" lon="13.1178">
        <ele>796</ele>
        <time>2022-05-24T21:09:39Z</time>
      </trkpt>
      <trkpt lat="48.87648" lon="13.11808">
        <ele>793</ele>
        <time>2022-05-24T21:09:43Z</time>
      </trkpt>
      <trkpt lat="48.87678" lon="13.12043">
        <ele>786</ele>
        <time>2022-05-24T21:10:11Z</time>
      </trkpt>
      <trkpt lat="48.87696" lon="13.12126">
        <ele>784</ele>
        <time>2022-05-24T21:10:21Z</time>
      </trkpt>
      <trkpt lat="48.87712" lon="13.12161">
        <ele>783</ele>
        <time>2022-05-24T21:10:26Z</time>
      </trkpt>
      <trkpt lat="48.878" lon="13.12304">
        <ele>780</ele>
        <time>2022-05-24T21:10:49Z</time>
      </trkpt>
      <trkpt lat="48.87865" lon="13.12377">
        <ele>772</ele>
        <time>2022-05-24T21:11:03Z</time>
      </trkpt>
      <trkpt lat="48.87886" lon="13.12404">
        <ele>769</ele>
        <time>2022-05-24T21:11:08Z</time>
      </trkpt>
      <trkpt lat="48.87905" lon="13.12443">
        <ele>765</ele>
        <time>2022-05-24T21:11:14Z</time>
      </trkpt>
      <trkpt lat="48.87917" lon="13.12483">
        <ele>762</ele>
        <time>2022-05-24T21:11:19Z</time>
      </trkpt>
      <trkpt lat="48.87958" lon="13.12699">
        <ele>747</ele>
        <time>2022-05-24T21:11:45Z</time>
      </trkpt>
      <trkpt lat="48.87961" lon="13.12874">
        <ele>745</ele>
        <time>2022-05-24T21:12:06Z</time>
      </trkpt>
      <trkpt lat="48.87975" lon="13.12969">
        <ele>748</ele>
        <time>2022-05-24T21:12:17Z</time>
      </trkpt>
      <trkpt lat="48.88054" lon="13.1336">
        <ele>765</ele>
        <time>2022-05-24T21:13:05Z</time>
      </trkpt>
      <trkpt lat="48.88045" lon="13.13579">
        <ele>768</ele>
        <time>2022-05-24T21:13:31Z</time>
      </trkpt>
      <trkpt lat="48.88029" lon="13.13783">
        <ele>767</ele>
        <time>2022-05-24T21:13:55Z</time>
      </trkpt>
      <trkpt lat="48.88037" lon="13.13795">
        <ele>767</ele>
        <time>2022-05-24T21:13:57Z</time>
      </trkpt>
      <trkpt lat="48.88045" lon="13.13834">
        <ele>766</ele>
        <time>2022-05-24T21:14:01Z</time>
      </trkpt>
      <trkpt lat="48.88043" lon="13.13948">
        <ele>757</ele>
        <time>2022-05-24T21:14:15Z</time>
      </trkpt>
      <trkpt lat="48.88036" lon="13.13981">
        <ele>755</ele>
        <time>2022-05-24T21:14:19Z</time>
      </trkpt>
      <trkpt lat="48.88003" lon="13.14022">
        <ele>755</ele>
        <time>2022-05-24T21:14:26Z</time>
      </trkpt>
      <trkpt lat="48.87985" lon="13.14065">
        <ele>753</ele>
        <time>2022-05-24T21:14:32Z</time>
      </trkpt>
      <trkpt lat="48.87924" lon="13.14293">
        <ele>741</ele>
        <time>2022-05-24T21:15:01Z</time>
      </trkpt>
      <trkpt lat="48.87902" lon="13.1485">
        <ele>729</ele>
        <time>2022-05-24T21:16:07Z</time>
      </trkpt>
      <trkpt lat="48.87855" lon="13.1497">
        <ele>726</ele>
        <time>2022-05-24T21:16:23Z</time>
      </trkpt>
      <trkpt lat="48.87685" lon="13.15158">
        <ele>714</ele>
        <time>2022-05-24T21:17:00Z</time>
      </trkpt>
      <trkpt lat="48.87657" lon="13.15202">
        <ele>712</ele>
        <time>2022-05-24T21:17:07Z</time>
      </trkpt>
      <trkpt lat="48.87646" lon="13.15238">
        <ele>712</ele>
        <time>2022-05-24T21:17:12Z</time>
      </trkpt>
      <trkpt lat="48.87633" lon="13.15345">
        <ele>712</ele>
        <time>2022-05-24T21:17:25Z</time>
      </trkpt>
      <trkpt lat="48.87628" lon="13.15568">
        <ele>715</ele>
        <time>2022-05-24T21:17:51Z</time>
      </trkpt>
      <trkpt lat="48.87614" lon="13.15607">
        <ele>716</ele>
        <time>2022-05-24T21:17:56Z</time>
      </trkpt>
      <trkpt lat="48.87516" lon="13.15804">
        <ele>723</ele>
        <time>2022-05-24T21:18:25Z</time>
      </trkpt>
      <trkpt lat="48.87472" lon="13.15868">
        <ele>722</ele>
        <time>2022-05-24T21:18:36Z</time>
      </trkpt>
      <trkpt lat="48.87447" lon="13.15925">
        <ele>721</ele>
        <time>2022-05-24T21:18:44Z</time>
      </trkpt>
      <trkpt lat="48.87437" lon="13.15951">
        <ele>720</ele>
        <time>2022-05-24T21:18:47Z</time>
      </trkpt>
      <trkpt lat="48.87444" lon="13.16016">
        <ele>717</ele>
        <time>2022-05-24T21:18:55Z</time>
      </trkpt>
      <trkpt lat="48.87488" lon="13.1607">
        <ele>712</ele>
        <time>2022-05-24T21:19:05Z</time>
      </trkpt>
      <trkpt lat="48.87493" lon="13.16083">
        <ele>712</ele>
        <time>2022-05-24T21:19:07Z</time>
      </trkpt>
      <trkpt lat="48.87496" lon="13.16135">
        <ele>712</ele>
        <time>2022-05-24T21:19:13Z</time>
      </trkpt>
      <trkpt lat="48.87525" lon="13.16173">
        <ele>713</ele>
        <time>2022-05-24T21:19:20Z</time>
      </trkpt>
      <trkpt lat="48.87538" lon="13.16225">
        <ele>715</ele>
        <time>2022-05-24T21:19:26Z</time>
      </trkpt>
      <trkpt lat="48.87671" lon="13.16297">
        <ele>710</ele>
        <time>2022-05-24T21:19:51Z</time>
      </trkpt>
      <trkpt lat="48.87819" lon="13.16372">
        <ele>706</ele>
        <time>2022-05-24T21:20:19Z</time>
      </trkpt>
      <trkpt lat="48.87905" lon="13.16431">
        <ele>701</ele>
        <time>2022-05-24T21:20:36Z</time>
      </trkpt>
      <trkpt lat="48.87973" lon="13.1651">
        <ele>703</ele>
        <time>2022-05-24T21:20:51Z</time>
      </trkpt>
      <trkpt lat="48.88053" lon="13.16626">
        <ele>709</ele>
        <time>2022-05-24T21:21:11Z</time>
      </trkpt>
      <trkpt lat="48.88069" lon="13.16663">
        <ele>710</ele>
        <time>2022-05-24T21:21:16Z</time>
      </trkpt>
      <trkpt lat="48.88099" lon="13.16751">
        <ele>711</ele>
        <time>2022-05-24T21:21:28Z</time>
      </trkpt>
      <trkpt lat="48.88131" lon="13.16812">
        <ele>709</ele>
        <time>2022-05-24T21:21:37Z</time>
      </trkpt>
      <trkpt lat="48.88161" lon="13.16837">
        <ele>708</ele>
        <time>2022-05-24T21:21:43Z</time>
      </trkpt>
      <trkpt lat="48.88263" lon="13.16869">
        <ele>705</ele>
        <time>2022-05-24T21:22:01Z</time>
      </trkpt>
      <trkpt lat="48.88306" lon="13.16886">
        <ele>705</ele>
        <time>2022-05-24T21:22:09Z</time>
      </trkpt>
      <trkpt lat="48.88331" lon="13.16902">
        <ele>705</ele>
        <time>2022-05-24T21:22:14Z</time>
      </trkpt>
      <trkpt lat="48.88345" lon="13.16922">
        <ele>705</ele>
        <time>2022-05-24T21:22:18Z</time>
      </trkpt>
      <trkpt lat="48.88322" lon="13.17027">
        <ele>706</ele>
        <time>2022-05-24T21:22:31Z</time>
      </trkpt>
      <trkpt lat="48.8832" lon="13.17058">
        <ele>705</ele>
        <time>2022-05-24T21:22:34Z</time>
      </trkpt>
      <trkpt lat="48.88334" lon="13.1712">
        <ele>704</ele>
        <time>2022-05-24T21:22:42Z</time>
      </trkpt>
      <trkpt lat="48.88362" lon="13.17216">
        <ele>702</ele>
        <time>2022-05-24T21:22:54Z</time>
      </trkpt>
      <trkpt lat="48.88372" lon="13.17327">
        <ele>693</ele>
        <time>2022-05-24T21:23:07Z</time>
      </trkpt>
      <trkpt lat="48.88382" lon="13.17349">
        <ele>692</ele>
        <time>2022-05-24T21:23:10Z</time>
      </trkpt>
      <trkpt lat="48.88438" lon="13.17408">
        <ele>690</ele>
        <time>2022-05-24T21:23:23Z</time>
      </trkpt>
      <trkpt lat="48.88455" lon="13.17433">
        <ele>688</ele>
        <time>2022-05-24T21:23:27Z</time>
      </trkpt>
      <trkpt lat="48.88511" lon="13.17643">
        <ele>680</ele>
        <time>2022-05-24T21:23:53Z</time>
      </trkpt>
      <trkpt lat="48.88522" lon="13.17718">
        <ele>678</ele>
        <time>2022-05-24T21:24:02Z</time>
      </trkpt>
      <trkpt lat="48.88525" lon="13.17907">
        <ele>670</ele>
        <time>2022-05-24T21:24:24Z</time>
      </trkpt>
      <trkpt lat="48.88539" lon="13.17951">
        <ele>669</ele>
        <time>2022-05-24T21:24:30Z</time>
      </trkpt>
      <trkpt lat="48.88554" lon="13.17977">
        <ele>668</ele>
        <time>2022-05-24T21:24:34Z</time>
      </trkpt>
      <trkpt lat="48.88689" lon="13.18117">
        <ele>677</ele>
        <time>2022-05-24T21:25:03Z</time>
      </trkpt>
      <trkpt lat="48.88741" lon="13.18192">
        <ele>680</ele>
        <time>2022-05-24T21:25:16Z</time>
      </trkpt>
      <trkpt lat="48.88746" lon="13.18208">
        <ele>680</ele>
        <time>2022-05-24T21:25:18Z</time>
      </trkpt>
      <trkpt lat="48.88796" lon="13.1817">
        <ele>684</ele>
        <time>2022-05-24T21:25:28Z</time>
      </trkpt>
      <trkpt lat="48.88894" lon="13.18071">
        <ele>695</ele>
        <time>2022-05-24T21:25:49Z</time>
      </trkpt>
      <trkpt lat="48.88924" lon="13.18059">
        <ele>698</ele>
        <time>2022-05-24T21:25:54Z</time>
      </trkpt>
      <trkpt lat="48.8899" lon="13.18063">
        <ele>706</ele>
        <time>2022-05-24T21:26:06Z</time>
      </trkpt>
      <trkpt lat="48.89031" lon="13.1805">
        <ele>704</ele>
        <time>2022-05-24T21:26:14Z</time>
      </trkpt>
      <trkpt lat="48.8907" lon="13.18026">
        <ele>701</ele>
        <time>2022-05-24T21:26:21Z</time>
      </trkpt>
      <trkpt lat="48.89094" lon="13.18007">
        <ele>700</ele>
        <time>2022-05-24T21:26:26Z</time>
      </trkpt>
      <trkpt lat="48.89153" lon="13.17991">
        <ele>697</ele>
        <time>2022-05-24T21:26:37Z</time>
      </trkpt>
      <trkpt lat="48.89234" lon="13.17995">
        <ele>699</ele>
        <time>2022-05-24T21:26:51Z</time>
      </trkpt>
      <trkpt lat="48.89258" lon="13.1799">
        <ele>700</ele>
        <time>2022-05-24T21:26:55Z</time>
      </trkpt>
      <trkpt lat="48.89269" lon="13.18024">
        <ele>699</ele>
        <time>2022-05-24T21:27:00Z</time>
      </trkpt>
      <trkpt lat="48.89273" lon="13.18057">
        <ele>698</ele>
        <time>2022-05-24T21:27:04Z</time>
      </trkpt>
      <trkpt lat="48.89273" lon="13.18091">
        <ele>696</ele>
        <time>2022-05-24T21:27:08Z</time>
      </trkpt>
      <trkpt lat="48.89255" lon="13.18197">
        <ele>684</ele>
        <time>2022-05-24T21:27:20Z</time>
      </trkpt>
      <trkpt lat="48.89255" lon="13.18238">
        <ele>682</ele>
        <time>2022-05-24T21:27:25Z</time>
      </trkpt>
      <trkpt lat="48.89263" lon="13.18256">
        <ele>681</ele>
        <time>2022-05-24T21:27:28Z</time>
      </trkpt>
      <trkpt lat="48.89306" lon="13.18303">
        <ele>680</ele>
        <time>2022-05-24T21:27:37Z</time>
      </trkpt>
      <trkpt lat="48.89335" lon="13.18353">
        <ele>678</ele>
        <time>2022-05-24T21:27:45Z</time>
      </trkpt>
      <trkpt lat="48.89352" lon="13.18366">
        <ele>677</ele>
        <time>2022-05-24T21:27:48Z</time>
      </trkpt>
      <trkpt lat="48.89362" lon="13.18343">
        <ele>678</ele>
        <time>2022-05-24T21:27:52Z</time>
      </trkpt>
      <trkpt lat="48.8938" lon="13.18329">
        <ele>679</ele>
        <time>2022-05-24T21:27:55Z</time>
      </trkpt>
      <trkpt lat="48.89433" lon="13.1834">
        <ele>677</ele>
        <time>2022-05-24T21:28:05Z</time>
      </trkpt>
      <trkpt lat="48.89456" lon="13.18335">
        <ele>676</ele>
        <time>2022-05-24T21:28:09Z</time>
      </trkpt>
      <trkpt lat="48.89527" lon="13.18379">
        <ele>669</ele>
        <time>2022-05-24T21:28:22Z</time>
      </trkpt>
      <trkpt lat="48.89576" lon="13.18404">
        <ele>663</ele>
        <time>2022-05-24T21:28:32Z</time>
      </trkpt>
      <trkpt lat="48.89609" lon="13.18416">
        <ele>660</ele>
        <time>2022-05-24T21:28:38Z</time>
      </trkpt>
      <trkpt lat="48.89641" lon="13.18416">
        <ele>658</ele>
        <time>2022-05-24T21:28:43Z</time>
      </trkpt>
      <trkpt lat="48.89665" lon="13.18407">
        <ele>657</ele>
        <time>2022-05-24T21:28:48Z</time>
      </trkpt>
      <trkpt lat="48.89683" lon="13.1839">
        <ele>657</ele>
        <time>2022-05-24T21:28:52Z</time>
      </trkpt>
      <trkpt lat="48.89695" lon="13.18368">
        <ele>658</ele>
        <time>2022-05-24T21:28:55Z</time>
      </trkpt>
      <trkpt lat="48.8971" lon="13.18318">
        <ele>660</ele>
        <time>2022-05-24T21:29:01Z</time>
      </trkpt>
      <trkpt lat="48.89854" lon="13.18367">
        <ele>656</ele>
        <time>2022-05-24T21:29:28Z</time>
      </trkpt>
      <trkpt lat="48.89874" lon="13.18506">
        <ele>650</ele>
        <time>2022-05-24T21:29:44Z</time>
      </trkpt>
      <trkpt lat="48.89883" lon="13.18506">
        <ele>650</ele>
        <time>2022-05-24T21:29:46Z</time>
      </trkpt>
      <trkpt lat="48.89902" lon="13.18764">
        <ele>635</ele>
        <time>2022-05-24T21:30:16Z</time>
      </trkpt>
      <trkpt lat="48.89915" lon="13.18822">
        <ele>633</ele>
        <time>2022-05-24T21:30:23Z</time>
      </trkpt>
      <trkpt lat="48.89953" lon="13.18907">
        <ele>630</ele>
        <time>2022-05-24T21:30:35Z</time>
      </trkpt>
      <trkpt lat="48.89964" lon="13.18941">
        <ele>628</ele>
        <time>2022-05-24T21:30:40Z</time>
      </trkpt>
      <trkpt lat="48.89967" lon="13.18978">
        <ele>625</ele>
        <time>2022-05-24T21:30:44Z</time>
      </trkpt>
      <trkpt lat="48.89963" lon="13.19021">
        <ele>623</ele>
        <time>2022-05-24T21:30:49Z</time>
      </trkpt>
      <trkpt lat="48.89941" lon="13.1909">
        <ele>620</ele>
        <time>2022-05-24T21:30:58Z</time>
      </trkpt>
      <trkpt lat="48.89929" lon="13.19147">
        <ele>619</ele>
        <time>2022-05-24T21:31:05Z</time>
      </trkpt>
      <trkpt lat="48.89932" lon="13.19276">
        <ele>617</ele>
        <time>2022-05-24T21:31:20Z</time>
      </trkpt>
      <trkpt lat="48.89929" lon="13.19329">
        <ele>616</ele>
        <time>2022-05-24T21:31:27Z</time>
      </trkpt>
      <trkpt lat="48.89914" lon="13.19413">
        <ele>616</ele>
        <time>2022-05-24T21:31:37Z</time>
      </trkpt>
      <trkpt lat="48.89906" lon="13.19485">
        <ele>615</ele>
        <time>2022-05-24T21:31:45Z</time>
      </trkpt>
      <trkpt lat="48.89901" lon="13.19496">
        <ele>615</ele>
        <time>2022-05-24T21:31:47Z</time>
      </trkpt>
      <trkpt lat="48.89901" lon="13.19519">
        <ele>615</ele>
        <time>2022-05-24T21:31:50Z</time>
      </trkpt>
      <trkpt lat="48.89911" lon="13.19532">
        <ele>614</ele>
        <time>2022-05-24T21:31:52Z</time>
      </trkpt>
      <trkpt lat="48.89936" lon="13.19581">
        <ele>611</ele>
        <time>2022-05-24T21:31:59Z</time>
      </trkpt>
      <trkpt lat="48.89976" lon="13.19694">
        <ele>606</ele>
        <time>2022-05-24T21:32:14Z</time>
      </trkpt>
      <trkpt lat="48.89988" lon="13.19756">
        <ele>603</ele>
        <time>2022-05-24T21:32:22Z</time>
      </trkpt>
      <trkpt lat="48.89995" lon="13.19825">
        <ele>600</ele>
        <time>2022-05-24T21:32:30Z</time>
      </trkpt>
      <trkpt lat="48.9001" lon="13.19872">
        <ele>599</ele>
        <time>2022-05-24T21:32:36Z</time>
      </trkpt>
      <trkpt lat="48.90079" lon="13.20013">
        <ele>605</ele>
        <time>2022-05-24T21:32:57Z</time>
      </trkpt>
      <trkpt lat="48.90133" lon="13.20161">
        <ele>619</ele>
        <time>2022-05-24T21:33:16Z</time>
      </trkpt>
      <trkpt lat="48.90135" lon="13.20346">
        <ele>624</ele>
        <time>2022-05-24T21:33:38Z</time>
      </trkpt>
      <trkpt lat="48.90133" lon="13.20388">
        <ele>625</ele>
        <time>2022-05-24T21:33:43Z</time>
      </trkpt>
      <trkpt lat="48.90112" lon="13.20473">
        <ele>625</ele>
        <time>2022-05-24T21:33:54Z</time>
      </trkpt>
      <trkpt lat="48.90078" lon="13.20574">
        <ele>626</ele>
        <time>2022-05-24T21:34:07Z</time>
      </trkpt>
      <trkpt lat="48.9006" lon="13.2061">
        <ele>625</ele>
        <time>2022-05-24T21:34:12Z</time>
      </trkpt>
      <trkpt lat="48.90051" lon="13.20638">
        <ele>625</ele>
        <time>2022-05-24T21:34:16Z</time>
      </trkpt>
      <trkpt lat="48.90046" lon="13.20675">
        <ele>626</ele>
        <time>2022-05-24T21:34:20Z</time>
      </trkpt>
      <trkpt lat="48.90044" lon="13.20826">
        <ele>626</ele>
        <time>2022-05-24T21:34:38Z</time>
      </trkpt>
      <trkpt lat="48.90033" lon="13.20926">
        <ele>623</ele>
        <time>2022-05-24T21:34:50Z</time>
      </trkpt>
      <trkpt lat="48.90012" lon="13.21025">
        <ele>622</ele>
        <time>2022-05-24T21:35:02Z</time>
      </trkpt>
      <trkpt lat="48.89983" lon="13.21124">
        <ele>621</ele>
        <time>2022-05-24T21:35:15Z</time>
      </trkpt>
      <trkpt lat="48.89961" lon="13.21274">
        <ele>620</ele>
        <time>2022-05-24T21:35:33Z</time>
      </trkpt>
      <trkpt lat="48.89963" lon="13.21348">
        <ele>617</ele>
        <time>2022-05-24T21:35:41Z</time>
      </trkpt>
      <trkpt lat="48.89985" lon="13.21403">
        <ele>617</ele>
        <time>2022-05-24T21:35:49Z</time>
      </trkpt>
      <trkpt lat="48.90011" lon="13.21433">
        <ele>618</ele>
        <time>2022-05-24T21:35:55Z</time>
      </trkpt>
      <trkpt lat="48.90096" lon="13.21479">
        <ele>620</ele>
        <time>2022-05-24T21:36:11Z</time>
      </trkpt>
      <trkpt lat="48.90204" lon="13.21517">
        <ele>616</ele>
        <time>2022-05-24T21:36:30Z</time>
      </trkpt>
      <trkpt lat="48.90273" lon="13.21561">
        <ele>615</ele>
        <time>2022-05-24T21:36:44Z</time>
      </trkpt>
      <trkpt lat="48.90295" lon="13.21582">
        <ele>615</ele>
        <time>2022-05-24T21:36:48Z</time>
      </trkpt>
      <trkpt lat="48.90336" lon="13.21661">
        <ele>616</ele>
        <time>2022-05-24T21:37:00Z</time>
      </trkpt>
      <trkpt lat="48.90427" lon="13.21849">
        <ele>628</ele>
        <time>2022-05-24T21:37:27Z</time>
      </trkpt>
      <trkpt lat="48.9044" lon="13.2189">
        <ele>631</ele>
        <time>2022-05-24T21:37:33Z</time>
      </trkpt>
      <trkpt lat="48.90473" lon="13.22065">
        <ele>639</ele>
        <time>2022-05-24T21:37:54Z</time>
      </trkpt>
      <trkpt lat="48.90483" lon="13.2209">
        <ele>642</ele>
        <time>2022-05-24T21:37:57Z</time>
      </trkpt>
      <trkpt lat="48.90501" lon="13.22113">
        <ele>646</ele>
        <time>2022-05-24T21:38:02Z</time>
      </trkpt>
      <trkpt lat="48.90524" lon="13.22131">
        <ele>650</ele>
        <time>2022-05-24T21:38:06Z</time>
      </trkpt>
      <trkpt lat="48.90564" lon="13.2214">
        <ele>654</ele>
        <time>2022-05-24T21:38:13Z</time>
      </trkpt>
      <trkpt lat="48.90591" lon="13.22167">
        <ele>659</ele>
        <time>2022-05-24T21:38:19Z</time>
      </trkpt>
      <trkpt lat="48.90606" lon="13.22198">
        <ele>664</ele>
        <time>2022-05-24T21:38:24Z</time>
      </trkpt>
      <trkpt lat="48.90656" lon="13.22394">
        <ele>669</ele>
        <time>2022-05-24T21:38:48Z</time>
      </trkpt>
      <trkpt lat="48.90753" lon="13.2268">
        <ele>678</ele>
        <time>2022-05-24T21:39:26Z</time>
      </trkpt>
      <trkpt lat="48.90813" lon="13.22822">
        <ele>685</ele>
        <time>2022-05-24T21:39:46Z</time>
      </trkpt>
      <trkpt lat="48.90818" lon="13.22853">
        <ele>685</ele>
        <time>2022-05-24T21:39:49Z</time>
      </trkpt>
      <trkpt lat="48.90809" lon="13.22911">
        <ele>682</ele>
        <time>2022-05-24T21:39:56Z</time>
      </trkpt>
      <trkpt lat="48.90792" lon="13.22996">
        <ele>682</ele>
        <time>2022-05-24T21:40:07Z</time>
      </trkpt>
      <trkpt lat="48.90831" lon="13.23015">
        <ele>686</ele>
        <time>2022-05-24T21:40:14Z</time>
      </trkpt>
      <trkpt lat="48.90832" lon="13.23032">
        <ele>687</ele>
        <time>2022-05-24T21:40:16Z</time>
      </trkpt>
      <trkpt lat="48.90865" lon="13.23041">
        <ele>689</ele>
        <time>2022-05-24T21:40:22Z</time>
      </trkpt>
      <trkpt lat="48.90839" lon="13.23224">
        <ele>693</ele>
        <time>2022-05-24T21:40:44Z</time>
      </trkpt>
      <trkpt lat="48.90813" lon="13.23309">
        <ele>693</ele>
        <time>2022-05-24T21:40:55Z</time>
      </trkpt>
      <trkpt lat="48.90942" lon="13.23361">
        <ele>695</ele>
        <time>2022-05-24T21:41:18Z</time>
      </trkpt>
      <trkpt lat="48.90993" lon="13.23406">
        <ele>692</ele>
        <time>2022-05-24T21:41:29Z</time>
      </trkpt>
      <trkpt lat="48.91027" lon="13.23448">
        <ele>689</ele>
        <time>2022-05-24T21:41:37Z</time>
      </trkpt>
      <trkpt lat="48.91082" lon="13.23543">
        <ele>687</ele>
        <time>2022-05-24T21:41:52Z</time>
      </trkpt>
      <trkpt lat="48.91102" lon="13.23596">
        <ele>687</ele>
        <time>2022-05-24T21:41:59Z</time>
      </trkpt>
      <trkpt lat="48.91131" lon="13.23708">
        <ele>689</ele>
        <time>2022-05-24T21:42:13Z</time>
      </trkpt>
      <trkpt lat="48.91141" lon="13.23769">
        <ele>690</ele>
        <time>2022-05-24T21:42:20Z</time>
      </trkpt>
      <trkpt lat="48.91148" lon="13.23873">
        <ele>691</ele>
        <time>2022-05-24T21:42:32Z</time>
      </trkpt>
      <trkpt lat="48.91145" lon="13.23963">
        <ele>691</ele>
        <time>2022-05-24T21:42:43Z</time>
      </trkpt>
      <trkpt lat="48.91138" lon="13.24005">
        <ele>690</ele>
        <time>2022-05-24T21:42:48Z</time>
      </trkpt>
      <trkpt lat="48.91105" lon="13.24101">
        <ele>685</ele>
        <time>2022-05-24T21:43:01Z</time>
      </trkpt>
      <trkpt lat="48.91062" lon="13.24188">
        <ele>681</ele>
        <time>2022-05-24T21:43:13Z</time>
      </trkpt>
      <trkpt lat="48.91012" lon="13.24281">
        <ele>678</ele>
        <time>2022-05-24T21:43:27Z</time>
      </trkpt>
      <trkpt lat="48.90986" lon="13.24348">
        <ele>676</ele>
        <time>2022-05-24T21:43:37Z</time>
      </trkpt>
      <trkpt lat="48.90968" lon="13.24435">
        <ele>674</ele>
        <time>2022-05-24T21:43:47Z</time>
      </trkpt>
      <trkpt lat="48.90965" lon="13.24499">
        <ele>673</ele>
        <time>2022-05-24T21:43:55Z</time>
      </trkpt>
      <trkpt lat="48.90989" lon="13.24696">
        <ele>664</ele>
        <time>2022-05-24T21:44:18Z</time>
      </trkpt>
      <trkpt lat="48.90989" lon="13.2475">
        <ele>660</ele>
        <time>2022-05-24T21:44:24Z</time>
      </trkpt>
      <trkpt lat="48.90979" lon="13.24809">
        <ele>654</ele>
        <time>2022-05-24T21:44:32Z</time>
      </trkpt>
      <trkpt lat="48.90927" lon="13.24972">
        <ele>641</ele>
        <time>2022-05-24T21:44:53Z</time>
      </trkpt>
      <trkpt lat="48.90908" lon="13.25068">
        <ele>634</ele>
        <time>2022-05-24T21:45:04Z</time>
      </trkpt>
      <trkpt lat="48.90899" lon="13.25169">
        <ele>629</ele>
        <time>2022-05-24T21:45:16Z</time>
      </trkpt>
      <trkpt lat="48.90891" lon="13.25475">
        <ele>623</ele>
        <time>2022-05-24T21:45:52Z</time>
      </trkpt>
      <trkpt lat="48.90898" lon="13.25526">
        <ele>623</ele>
        <time>2022-05-24T21:45:58Z</time>
      </trkpt>
      <trkpt lat="48.90932" lon="13.25631">
        <ele>628</ele>
        <time>2022-05-24T21:46:12Z</time>
      </trkpt>
      <trkpt lat="48.90938" lon="13.25673">
        <ele>631</ele>
        <time>2022-05-24T21:46:17Z</time>
      </trkpt>
      <trkpt lat="48.90939" lon="13.25851">
        <ele>644</ele>
        <time>2022-05-24T21:46:38Z</time>
      </trkpt>
      <trkpt lat="48.90932" lon="13.25971">
        <ele>653</ele>
        <time>2022-05-24T21:46:52Z</time>
      </trkpt>
      <trkpt lat="48.90911" lon="13.26037">
        <ele>654</ele>
        <time>2022-05-24T21:47:01Z</time>
      </trkpt>
      <trkpt lat="48.90912" lon="13.2605">
        <ele>655</ele>
        <time>2022-05-24T21:47:02Z</time>
      </trkpt>
      <trkpt lat="48.90919" lon="13.26069">
        <ele>658</ele>
        <time>2022-05-24T21:47:05Z</time>
      </trkpt>
      <trkpt lat="48.90921" lon="13.26097">
        <ele>660</ele>
        <time>2022-05-24T21:47:08Z</time>
      </trkpt>
      <trkpt lat="48.90915" lon="13.2613">
        <ele>663</ele>
        <time>2022-05-24T21:47:12Z</time>
      </trkpt>
      <trkpt lat="48.90911" lon="13.26202">
        <ele>669</ele>
        <time>2022-05-24T21:47:20Z</time>
      </trkpt>
      <trkpt lat="48.90911" lon="13.26327">
        <ele>673</ele>
        <time>2022-05-24T21:47:35Z</time>
      </trkpt>
      <trkpt lat="48.90955" lon="13.26449">
        <ele>678</ele>
        <time>2022-05-24T21:47:51Z</time>
      </trkpt>
      <trkpt lat="48.90971" lon="13.26513">
        <ele>680</ele>
        <time>2022-05-24T21:47:59Z</time>
      </trkpt>
      <trkpt lat="48.90975" lon="13.26561">
        <ele>681</ele>
        <time>2022-05-24T21:48:05Z</time>
      </trkpt>
      <trkpt lat="48.91003" lon="13.26586">
        <ele>685</ele>
        <time>2022-05-24T21:48:11Z</time>
      </trkpt>
      <trkpt lat="48.91005" lon="13.26582">
        <ele>686</ele>
        <time>2022-05-24T21:48:11Z</time>
      </trkpt>
      <trkpt lat="48.91019" lon="13.26591">
        <ele>687</ele>
        <time>2022-05-24T21:48:14Z</time>
      </trkpt>
      <trkpt lat="48.91018" lon="13.26662">
        <ele>687</ele>
        <time>2022-05-24T21:48:22Z</time>
      </trkpt>
      <trkpt lat="48.91014" lon="13.26721">
        <ele>688</ele>
        <time>2022-05-24T21:48:29Z</time>
      </trkpt>
      <trkpt lat="48.91031" lon="13.26765">
        <ele>691</ele>
        <time>2022-05-24T21:48:35Z</time>
      </trkpt>
      <trkpt lat="48.91034" lon="13.2684">
        <ele>692</ele>
        <time>2022-05-24T21:48:44Z</time>
      </trkpt>
      <trkpt lat="48.91041" lon="13.26847">
        <ele>693</ele>
        <time>2022-05-24T21:48:45Z</time>
      </trkpt>
      <trkpt lat="48.91106" lon="13.26889">
        <ele>704</ele>
        <time>2022-05-24T21:48:58Z</time>
      </trkpt>
      <trkpt lat="48.91122" lon="13.26883">
        <ele>706</ele>
        <time>2022-05-24T21:49:01Z</time>
      </trkpt>
      <trkpt lat="48.91135" lon="13.26867">
        <ele>708</ele>
        <time>2022-05-24T21:49:04Z</time>
      </trkpt>
      <trkpt lat="48.91172" lon="13.26886">
        <ele>712</ele>
        <time>2022-05-24T21:49:11Z</time>
      </trkpt>
      <trkpt lat="48.91255" lon="13.26914">
        <ele>713</ele>
        <time>2022-05-24T21:49:26Z</time>
      </trkpt>
      <trkpt lat="48.91327" lon="13.26962">
        <ele>712</ele>
        <time>2022-05-24T21:49:40Z</time>
      </trkpt>
      <trkpt lat="48.9146" lon="13.26984">
        <ele>707</ele>
        <time>2022-05-24T21:50:04Z</time>
      </trkpt>
      <trkpt lat="48.91491" lon="13.26982">
        <ele>706</ele>
        <time>2022-05-24T21:50:09Z</time>
      </trkpt>
      <trkpt lat="48.91502" lon="13.26977">
        <ele>706</ele>
        <time>2022-05-24T21:50:11Z</time>
      </trkpt>
      <trkpt lat="48.91578" lon="13.26961">
        <ele>708</ele>
        <time>2022-05-24T21:50:25Z</time>
      </trkpt>
      <trkpt lat="48.91649" lon="13.26953">
        <ele>706</ele>
        <time>2022-05-24T21:50:38Z</time>
      </trkpt>
      <trkpt lat="48.91668" lon="13.26937">
        <ele>706</ele>
        <time>2022-05-24T21:50:42Z</time>
      </trkpt>
      <trkpt lat="48.91695" lon="13.26968">
        <ele>703</ele>
        <time>2022-05-24T21:50:48Z</time>
      </trkpt>
      <trkpt lat="48.91803" lon="13.27035">
        <ele>699</ele>
        <time>2022-05-24T21:51:08Z</time>
      </trkpt>
      <trkpt lat="48.91846" lon="13.27069">
        <ele>698</ele>
        <time>2022-05-24T21:51:17Z</time>
      </trkpt>
      <trkpt lat="48.91886" lon="13.27114">
        <ele>697</ele>
        <time>2022-05-24T21:51:26Z</time>
      </trkpt>
      <trkpt lat="48.91926" lon="13.27181">
        <ele>695</ele>
        <time>2022-05-24T21:51:36Z</time>
      </trkpt>
      <trkpt lat="48.91944" lon="13.27219">
        <ele>694</ele>
        <time>2022-05-24T21:51:42Z</time>
      </trkpt>
      <trkpt lat="48.91975" lon="13.27295">
        <ele>692</ele>
        <time>2022-05-24T21:51:52Z</time>
      </trkpt>
      <trkpt lat="48.92" lon="13.27384">
        <ele>690</ele>
        <time>2022-05-24T21:52:04Z</time>
      </trkpt>
      <trkpt lat="48.92021" lon="13.27519">
        <ele>690</ele>
        <time>2022-05-24T21:52:20Z</time>
      </trkpt>
      <trkpt lat="48.92016" lon="13.27716">
        <ele>692</ele>
        <time>2022-05-24T21:52:43Z</time>
      </trkpt>
      <trkpt lat="48.92019" lon="13.27841">
        <ele>697</ele>
        <time>2022-05-24T21:52:58Z</time>
      </trkpt>
      <trkpt lat="48.92032" lon="13.27919">
        <ele>700</ele>
        <time>2022-05-24T21:53:07Z</time>
      </trkpt>
      <trkpt lat="48.92098" lon="13.28172">
        <ele>712</ele>
        <time>2022-05-24T21:53:39Z</time>
      </trkpt>
      <trkpt lat="48.92111" lon="13.28244">
        <ele>715</ele>
        <time>2022-05-24T21:53:47Z</time>
      </trkpt>
      <trkpt lat="48.92113" lon="13.28284">
        <ele>716</ele>
        <time>2022-05-24T21:53:52Z</time>
      </trkpt>
      <trkpt lat="48.92106" lon="13.28346">
        <ele>716</ele>
        <time>2022-05-24T21:54:00Z</time>
      </trkpt>
      <trkpt lat="48.92097" lon="13.28373">
        <ele>714</ele>
        <time>2022-05-24T21:54:03Z</time>
      </trkpt>
      <trkpt lat="48.92034" lon="13.28496">
        <ele>708</ele>
        <time>2022-05-24T21:54:21Z</time>
      </trkpt>
      <trkpt lat="48.92008" lon="13.28564">
        <ele>707</ele>
        <time>2022-05-24T21:54:30Z</time>
      </trkpt>
      <trkpt lat="48.91994" lon="13.28638">
        <ele>707</ele>
        <time>2022-05-24T21:54:39Z</time>
      </trkpt>
      <trkpt lat="48.91973" lon="13.28823">
        <ele>710</ele>
        <time>2022-05-24T21:55:01Z</time>
      </trkpt>
      <trkpt lat="48.91967" lon="13.28921">
        <ele>709</ele>
        <time>2022-05-24T21:55:13Z</time>
      </trkpt>
      <trkpt lat="48.91977" lon="13.28974">
        <ele>710</ele>
        <time>2022-05-24T21:55:19Z</time>
      </trkpt>
      <trkpt lat="48.91992" lon="13.29021">
        <ele>712</ele>
        <time>2022-05-24T21:55:26Z</time>
      </trkpt>
      <trkpt lat="48.92056" lon="13.29095">
        <ele>721</ele>
        <time>2022-05-24T21:55:40Z</time>
      </trkpt>
      <trkpt lat="48.92128" lon="13.29161">
        <ele>724</ele>
        <time>2022-05-24T21:55:55Z</time>
      </trkpt>
      <trkpt lat="48.92167" lon="13.29202">
        <ele>724</ele>
        <time>2022-05-24T21:56:03Z</time>
      </trkpt>
      <trkpt lat="48.92188" lon="13.29232">
        <ele>723</ele>
        <time>2022-05-24T21:56:08Z</time>
      </trkpt>
      <trkpt lat="48.92203" lon="13.29264">
        <ele>723</ele>
        <time>2022-05-24T21:56:13Z</time>
      </trkpt>
      <trkpt lat="48.92217" lon="13.2931">
        <ele>725</ele>
        <time>2022-05-24T21:56:19Z</time>
      </trkpt>
      <trkpt lat="48.92226" lon="13.29369">
        <ele>729</ele>
        <time>2022-05-24T21:56:26Z</time>
      </trkpt>
      <trkpt lat="48.92226" lon="13.29466">
        <ele>737</ele>
        <time>2022-05-24T21:56:37Z</time>
      </trkpt>
      <trkpt lat="48.92212" lon="13.29676">
        <ele>760</ele>
        <time>2022-05-24T21:57:02Z</time>
      </trkpt>
      <trkpt lat="48.92194" lon="13.29775">
        <ele>771</ele>
        <time>2022-05-24T21:57:14Z</time>
      </trkpt>
      <trkpt lat="48.9213" lon="13.30071">
        <ele>797</ele>
        <time>2022-05-24T21:57:50Z</time>
      </trkpt>
      <trkpt lat="48.92121" lon="13.30125">
        <ele>799</ele>
        <time>2022-05-24T21:57:57Z</time>
      </trkpt>
      <trkpt lat="48.92119" lon="13.30232">
        <ele>807</ele>
        <time>2022-05-24T21:58:09Z</time>
      </trkpt>
      <trkpt lat="48.92153" lon="13.30435">
        <ele>820</ele>
        <time>2022-05-24T21:58:34Z</time>
      </trkpt>
      <trkpt lat="48.92157" lon="13.30498">
        <ele>822</ele>
        <time>2022-05-24T21:58:41Z</time>
      </trkpt>
      <trkpt lat="48.92151" lon="13.31041">
        <ele>836</ele>
        <time>2022-05-24T21:59:45Z</time>
      </trkpt>
      <trkpt lat="48.92154" lon="13.31145">
        <ele>833</ele>
        <time>2022-05-24T21:59:57Z</time>
      </trkpt>
      <trkpt lat="48.92159" lon="13.31192">
        <ele>832</ele>
        <time>2022-05-24T22:00:03Z</time>
      </trkpt>
      <trkpt lat="48.92173" lon="13.31262">
        <ele>831</ele>
        <time>2022-05-24T22:00:11Z</time>
      </trkpt>
      <trkpt lat="48.92223" lon="13.31426">
        <ele>832</ele>
        <time>2022-05-24T22:00:32Z</time>
      </trkpt>
      <trkpt lat="48.92241" lon="13.3153">
        <ele>832</ele>
        <time>2022-05-24T22:00:45Z</time>
      </trkpt>
      <trkpt lat="48.92226" lon="13.31903">
        <ele>826</ele>
        <time>2022-05-24T22:01:28Z</time>
      </trkpt>
      <trkpt lat="48.9217" lon="13.31944">
        <ele>823</ele>
        <time>2022-05-24T22:01:40Z</time>
      </trkpt>
      <trkpt lat="48.9215" lon="13.31964">
        <ele>822</ele>
        <time>2022-05-24T22:01:44Z</time>
      </trkpt>
      <trkpt lat="48.92129" lon="13.31996">
        <ele>822</ele>
        <time>2022-05-24T22:01:49Z</time>
      </trkpt>
      <trkpt lat="48.92094" lon="13.32073">
        <ele>819</ele>
        <time>2022-05-24T22:02:00Z</time>
      </trkpt>
      <trkpt lat="48.92091" lon="13.32094">
        <ele>819</ele>
        <time>2022-05-24T22:02:03Z</time>
      </trkpt>
      <trkpt lat="48.92094" lon="13.32165">
        <ele>815</ele>
        <time>2022-05-24T22:02:11Z</time>
      </trkpt>
      <trkpt lat="48.9209" lon="13.32187">
        <ele>815</ele>
        <time>2022-05-24T22:02:14Z</time>
      </trkpt>
      <trkpt lat="48.92082" lon="13.32206">
        <ele>814</ele>
        <time>2022-05-24T22:02:16Z</time>
      </trkpt>
      <trkpt lat="48.92063" lon="13.32228">
        <ele>812</ele>
        <time>2022-05-24T22:02:20Z</time>
      </trkpt>
      <trkpt lat="48.92018" lon="13.32392">
        <ele>818</ele>
        <time>2022-05-24T22:02:41Z</time>
      </trkpt>
      <trkpt lat="48.91988" lon="13.32525">
        <ele>824</ele>
        <time>2022-05-24T22:02:58Z</time>
      </trkpt>
      <trkpt lat="48.91911" lon="13.32664">
        <ele>830</ele>
        <time>2022-05-24T22:03:19Z</time>
      </trkpt>
      <trkpt lat="48.91897" lon="13.327">
        <ele>831</ele>
        <time>2022-05-24T22:03:24Z</time>
      </trkpt>
      <trkpt lat="48.91826" lon="13.32942">
        <ele>836</ele>
        <time>2022-05-24T22:03:55Z</time>
      </trkpt>
      <trkpt lat="48.91808" lon="13.33016">
        <ele>840</ele>
        <time>2022-05-24T22:04:04Z</time>
      </trkpt>
      <trkpt lat="48.91745" lon="13.33172">
        <ele>838</ele>
        <time>2022-05-24T22:04:25Z</time>
      </trkpt>
      <trkpt lat="48.91723" lon="13.33151">
        <ele>835</ele>
        <time>2022-05-24T22:04:30Z</time>
      </trkpt>
      <trkpt lat="48.91711" lon="13.33179">
        <ele>835</ele>
        <time>2022-05-24T22:04:34Z</time>
      </trkpt>
      <trkpt lat="48.91728" lon="13.33141">
        <ele>836</ele>
        <time>2022-05-24T22:04:39Z</time>
      </trkpt>
      <trkpt lat="48.91723" lon="13.33151">
        <ele>835</ele>
        <time>2022-05-24T22:04:41Z</time>
      </trkpt>
      <trkpt lat="48.91745" lon="13.33172">
        <ele>838</ele>
        <time>2022-05-24T22:04:45Z</time>
      </trkpt>
      <trkpt lat="48.9169" lon="13.33312">
        <ele>838</ele>
        <time>2022-05-24T22:05:04Z</time>
      </trkpt>
      <trkpt lat="48.91668" lon="13.33388">
        <ele>838</ele>
        <time>2022-05-24T22:05:14Z</time>
      </trkpt>
      <trkpt lat="48.91553" lon="13.33583">
        <ele>836</ele>
        <time>2022-05-24T22:05:45Z</time>
      </trkpt>
      <trkpt lat="48.91523" lon="13.33675">
        <ele>838</ele>
        <time>2022-05-24T22:05:57Z</time>
      </trkpt>
      <trkpt lat="48.91512" lon="13.33756">
        <ele>841</ele>
        <time>2022-05-24T22:06:07Z</time>
      </trkpt>
      <trkpt lat="48.91495" lon="13.33816">
        <ele>841</ele>
        <time>2022-05-24T22:06:14Z</time>
      </trkpt>
      <trkpt lat="48.91487" lon="13.33899">
        <ele>841</ele>
        <time>2022-05-24T22:06:24Z</time>
      </trkpt>
      <trkpt lat="48.91429" lon="13.34079">
        <ele>833</ele>
        <time>2022-05-24T22:06:47Z</time>
      </trkpt>
      <trkpt lat="48.91397" lon="13.34213">
        <ele>823</ele>
        <time>2022-05-24T22:07:04Z</time>
      </trkpt>
      <trkpt lat="48.91372" lon="13.34346">
        <ele>810</ele>
        <time>2022-05-24T22:07:20Z</time>
      </trkpt>
      <trkpt lat="48.9136" lon="13.3449">
        <ele>808</ele>
        <time>2022-05-24T22:07:37Z</time>
      </trkpt>
      <trkpt lat="48.91359" lon="13.34528">
        <ele>809</ele>
        <time>2022-05-24T22:07:42Z</time>
      </trkpt>
      <trkpt lat="48.91372" lon="13.34627">
        <ele>811</ele>
        <time>2022-05-24T22:07:53Z</time>
      </trkpt>
      <trkpt lat="48.91367" lon="13.34665">
        <ele>812</ele>
        <time>2022-05-24T22:07:58Z</time>
      </trkpt>
      <trkpt lat="48.91352" lon="13.34724">
        <ele>808</ele>
        <time>2022-05-24T22:08:05Z</time>
      </trkpt>
      <trkpt lat="48.91353" lon="13.34792">
        <ele>800</ele>
        <time>2022-05-24T22:08:13Z</time>
      </trkpt>
      <trkpt lat="48.91346" lon="13.34831">
        <ele>793</ele>
        <time>2022-05-24T22:08:18Z</time>
      </trkpt>
      <trkpt lat="48.91358" lon="13.3487">
        <ele>789</ele>
        <time>2022-05-24T22:08:23Z</time>
      </trkpt>
      <trkpt lat="48.91373" lon="13.34896">
        <ele>786</ele>
        <time>2022-05-24T22:08:27Z</time>
      </trkpt>
      <trkpt lat="48.91384" lon="13.34909">
        <ele>784</ele>
        <time>2022-05-24T22:08:30Z</time>
      </trkpt>
      <trkpt lat="48.91392" lon="13.34928">
        <ele>782</ele>
        <time>2022-05-24T22:08:32Z</time>
      </trkpt>
      <trkpt lat="48.91406" lon="13.34997">
        <ele>777</ele>
        <time>2022-05-24T22:08:41Z</time>
      </trkpt>
      <trkpt lat="48.91452" lon="13.3526">
        <ele>769</ele>
        <time>2022-05-24T22:09:13Z</time>
      </trkpt>
      <trkpt lat="48.91451" lon="13.35348">
        <ele>768</ele>
        <time>2022-05-24T22:09:23Z</time>
      </trkpt>
      <trkpt lat="48.91444" lon="13.35442">
        <ele>767</ele>
        <time>2022-05-24T22:09:34Z</time>
      </trkpt>
      <trkpt lat="48.91437" lon="13.35492">
        <ele>767</ele>
        <time>2022-05-24T22:09:40Z</time>
      </trkpt>
      <trkpt lat="48.91438" lon="13.35564">
        <ele>768</ele>
        <time>2022-05-24T22:09:48Z</time>
      </trkpt>
      <trkpt lat="48.91413" lon="13.35688">
        <ele>769</ele>
        <time>2022-05-24T22:10:03Z</time>
      </trkpt>
      <trkpt lat="48.91413" lon="13.35797">
        <ele>765</ele>
        <time>2022-05-24T22:10:16Z</time>
      </trkpt>
      <trkpt lat="48.91398" lon="13.35886">
        <ele>760</ele>
        <time>2022-05-24T22:10:27Z</time>
      </trkpt>
      <trkpt lat="48.91386" lon="13.35927">
        <ele>759</ele>
        <time>2022-05-24T22:10:32Z</time>
      </trkpt>
      <trkpt lat="48.91365" lon="13.36018">
        <ele>755</ele>
        <time>2022-05-24T22:10:43Z</time>
      </trkpt>
      <trkpt lat="48.91346" lon="13.3612">
        <ele>744</ele>
        <time>2022-05-24T22:10:56Z</time>
      </trkpt>
      <trkpt lat="48.91337" lon="13.36204">
        <ele>736</ele>
        <time>2022-05-24T22:11:06Z</time>
      </trkpt>
      <trkpt lat="48.91321" lon="13.3625">
        <ele>731</ele>
        <time>2022-05-24T22:11:12Z</time>
      </trkpt>
      <trkpt lat="48.91368" lon="13.36301">
        <ele>728</ele>
        <time>2022-05-24T22:11:22Z</time>
      </trkpt>
      <trkpt lat="48.91346" lon="13.36343">
        <ele>727</ele>
        <time>2022-05-24T22:11:28Z</time>
      </trkpt>
      <trkpt lat="48.91324" lon="13.36432">
        <ele>726</ele>
        <time>2022-05-24T22:11:40Z</time>
      </trkpt>
      <trkpt lat="48.91299" lon="13.3647">
        <ele>724</ele>
        <time>2022-05-24T22:11:46Z</time>
      </trkpt>
      <trkpt lat="48.91255" lon="13.36509">
        <ele>722</ele>
        <time>2022-05-24T22:11:55Z</time>
      </trkpt>
      <trkpt lat="48.91245" lon="13.36497">
        <ele>722</ele>
        <time>2022-05-24T22:11:57Z</time>
      </trkpt>
      <trkpt lat="48.91235" lon="13.3651">
        <ele>722</ele>
        <time>2022-05-24T22:12:00Z</time>
      </trkpt>
      <trkpt lat="48.91223" lon="13.36506">
        <ele>722</ele>
        <time>2022-05-24T22:12:02Z</time>
      </trkpt>
      <trkpt lat="48.91174" lon="13.36506">
        <ele>723</ele>
        <time>2022-05-24T22:12:10Z</time>
      </trkpt>
      <trkpt lat="48.91166" lon="13.36508">
        <ele>724</ele>
        <time>2022-05-24T22:12:12Z</time>
      </trkpt>
      <trkpt lat="48.91153" lon="13.36517">
        <ele>728</ele>
        <time>2022-05-24T22:12:14Z</time>
      </trkpt>
      <trkpt lat="48.91147" lon="13.3653">
        <ele>730</ele>
        <time>2022-05-24T22:12:16Z</time>
      </trkpt>
      <trkpt lat="48.91149" lon="13.36571">
        <ele>730</ele>
        <time>2022-05-24T22:12:21Z</time>
      </trkpt>
      <trkpt lat="48.91093" lon="13.36626">
        <ele>740</ele>
        <time>2022-05-24T22:12:33Z</time>
      </trkpt>
      <trkpt lat="48.9105" lon="13.3674">
        <ele>743</ele>
        <time>2022-05-24T22:12:48Z</time>
      </trkpt>
      <trkpt lat="48.9101" lon="13.36813">
        <ele>752</ele>
        <time>2022-05-24T22:12:59Z</time>
      </trkpt>
      <trkpt lat="48.90989" lon="13.36879">
        <ele>759</ele>
        <time>2022-05-24T22:13:08Z</time>
      </trkpt>
      <trkpt lat="48.90974" lon="13.36898">
        <ele>762</ele>
        <time>2022-05-24T22:13:11Z</time>
      </trkpt>
      <trkpt lat="48.90927" lon="13.36927">
        <ele>767</ele>
        <time>2022-05-24T22:13:21Z</time>
      </trkpt>
      <trkpt lat="48.90897" lon="13.36953">
        <ele>763</ele>
        <time>2022-05-24T22:13:27Z</time>
      </trkpt>
      <trkpt lat="48.90836" lon="13.37034">
        <ele>760</ele>
        <time>2022-05-24T22:13:41Z</time>
      </trkpt>
      <trkpt lat="48.90713" lon="13.37173">
        <ele>758</ele>
        <time>2022-05-24T22:14:08Z</time>
      </trkpt>
      <trkpt lat="48.90704" lon="13.37167">
        <ele>756</ele>
        <time>2022-05-24T22:14:10Z</time>
      </trkpt>
      <trkpt lat="48.90591" lon="13.37309">
        <ele>751</ele>
        <time>2022-05-24T22:14:36Z</time>
      </trkpt>
      <trkpt lat="48.90549" lon="13.37385">
        <ele>752</ele>
        <time>2022-05-24T22:14:48Z</time>
      </trkpt>
      <trkpt lat="48.90458" lon="13.3767">
        <ele>750</ele>
        <time>2022-05-24T22:15:25Z</time>
      </trkpt>
      <trkpt lat="48.90439" lon="13.37705">
        <ele>750</ele>
        <time>2022-05-24T22:15:30Z</time>
      </trkpt>
      <trkpt lat="48.90417" lon="13.37732">
        <ele>750</ele>
        <time>2022-05-24T22:15:35Z</time>
      </trkpt>
      <trkpt lat="48.90347" lon="13.37796">
        <ele>751</ele>
        <time>2022-05-24T22:15:50Z</time>
      </trkpt>
      <trkpt lat="48.90279" lon="13.37863">
        <ele>757</ele>
        <time>2022-05-24T22:16:04Z</time>
      </trkpt>
      <trkpt lat="48.90252" lon="13.37903">
        <ele>761</ele>
        <time>2022-05-24T22:16:11Z</time>
      </trkpt>
      <trkpt lat="48.90226" lon="13.37953">
        <ele>762</ele>
        <time>2022-05-24T22:16:18Z</time>
      </trkpt>
      <trkpt lat="48.90198" lon="13.38035">
        <ele>763</ele>
        <time>2022-05-24T22:16:29Z</time>
      </trkpt>
      <trkpt lat="48.90159" lon="13.38204">
        <ele>770</ele>
        <time>2022-05-24T22:16:50Z</time>
      </trkpt>
      <trkpt lat="48.90132" lon="13.38277">
        <ele>770</ele>
        <time>2022-05-24T22:17:00Z</time>
      </trkpt>
      <trkpt lat="48.90118" lon="13.38325">
        <ele>771</ele>
        <time>2022-05-24T22:17:06Z</time>
      </trkpt>
      <trkpt lat="48.90094" lon="13.38515">
        <ele>785</ele>
        <time>2022-05-24T22:17:29Z</time>
      </trkpt>
      <trkpt lat="48.90071" lon="13.38621">
        <ele>793</ele>
        <time>2022-05-24T22:17:42Z</time>
      </trkpt>
      <trkpt lat="48.90052" lon="13.38686">
        <ele>796</ele>
        <time>2022-05-24T22:17:50Z</time>
      </trkpt>
      <trkpt lat="48.90036" lon="13.38726">
        <ele>798</ele>
        <time>2022-05-24T22:17:55Z</time>
      </trkpt>
      <trkpt lat="48.90022" lon="13.38751">
        <ele>800</ele>
        <time>2022-05-24T22:17:59Z</time>
      </trkpt>
      <trkpt lat="48.89956" lon="13.38815">
        <ele>807</ele>
        <time>2022-05-24T22:18:13Z</time>
      </trkpt>
      <trkpt lat="48.89858" lon="13.38957">
        <ele>825</ele>
        <time>2022-05-24T22:18:37Z</time>
      </trkpt>
      <trkpt lat="48.89853" lon="13.38991">
        <ele>827</ele>
        <time>2022-05-24T22:18:41Z</time>
      </trkpt>
      <trkpt lat="48.89821" lon="13.39045">
        <ele>833</ele>
        <time>2022-05-24T22:18:50Z</time>
      </trkpt>
      <trkpt lat="48.89747" lon="13.39208">
        <ele>844</ele>
        <time>2022-05-24T22:19:13Z</time>
      </trkpt>
      <trkpt lat="48.89665" lon="13.39471">
        <ele>851</ele>
        <time>2022-05-24T22:19:47Z</time>
      </trkpt>
      <trkpt lat="48.89632" lon="13.39556">
        <ele>852</ele>
        <time>2022-05-24T22:19:59Z</time>
      </trkpt>
      <trkpt lat="48.89549" lon="13.39755">
        <ele>848</ele>
        <time>2022-05-24T22:20:26Z</time>
      </trkpt>
      <trkpt lat="48.89465" lon="13.39911">
        <ele>839</ele>
        <time>2022-05-24T22:20:50Z</time>
      </trkpt>
      <trkpt lat="48.8944" lon="13.39981">
        <ele>833</ele>
        <time>2022-05-24T22:20:59Z</time>
      </trkpt>
      <trkpt lat="48.89433" lon="13.40022">
        <ele>830</ele>
        <time>2022-05-24T22:21:04Z</time>
      </trkpt>
      <trkpt lat="48.89432" lon="13.40049">
        <ele>828</ele>
        <time>2022-05-24T22:21:07Z</time>
      </trkpt>
      <trkpt lat="48.89439" lon="13.40092">
        <ele>826</ele>
        <time>2022-05-24T22:21:12Z</time>
      </trkpt>
      <trkpt lat="48.89452" lon="13.40134">
        <ele>826</ele>
        <time>2022-05-24T22:21:18Z</time>
      </trkpt>
      <trkpt lat="48.895" lon="13.40233">
        <ele>830</ele>
        <time>2022-05-24T22:21:32Z</time>
      </trkpt>
      <trkpt lat="48.89501" lon="13.40293">
        <ele>830</ele>
        <time>2022-05-24T22:21:39Z</time>
      </trkpt>
      <trkpt lat="48.89487" lon="13.40386">
        <ele>828</ele>
        <time>2022-05-24T22:21:50Z</time>
      </trkpt>
      <trkpt lat="48.89475" lon="13.40417">
        <ele>825</ele>
        <time>2022-05-24T22:21:55Z</time>
      </trkpt>
      <trkpt lat="48.89445" lon="13.40448">
        <ele>818</ele>
        <time>2022-05-24T22:22:01Z</time>
      </trkpt>
      <trkpt lat="48.89425" lon="13.40475">
        <ele>814</ele>
        <time>2022-05-24T22:22:06Z</time>
      </trkpt>
      <trkpt lat="48.8942" lon="13.40501">
        <ele>814</ele>
        <time>2022-05-24T22:22:09Z</time>
      </trkpt>
      <trkpt lat="48.89415" lon="13.40585">
        <ele>813</ele>
        <time>2022-05-24T22:22:19Z</time>
      </trkpt>
      <trkpt lat="48.89414" lon="13.40697">
        <ele>806</ele>
        <time>2022-05-24T22:22:32Z</time>
      </trkpt>
      <trkpt lat="48.89441" lon="13.40812">
        <ele>801</ele>
        <time>2022-05-24T22:22:46Z</time>
      </trkpt>
      <trkpt lat="48.89486" lon="13.40915">
        <ele>804</ele>
        <time>2022-05-24T22:23:01Z</time>
      </trkpt>
      <trkpt lat="48.8947" lon="13.40967">
        <ele>803</ele>
        <time>2022-05-24T22:23:07Z</time>
      </trkpt>
      <trkpt lat="48.89447" lon="13.41096">
        <ele>806</ele>
        <time>2022-05-24T22:23:23Z</time>
      </trkpt>
      <trkpt lat="48.89446" lon="13.41133">
        <ele>808</ele>
        <time>2022-05-24T22:23:27Z</time>
      </trkpt>
      <trkpt lat="48.89453" lon="13.4115">
        <ele>810</ele>
        <time>2022-05-24T22:23:30Z</time>
      </trkpt>
      <trkpt lat="48.89449" lon="13.41184">
        <ele>811</ele>
        <time>2022-05-24T22:23:34Z</time>
      </trkpt>
      <trkpt lat="48.89469" lon="13.41354">
        <ele>813</ele>
        <time>2022-05-24T22:23:54Z</time>
      </trkpt>
      <trkpt lat="48.89462" lon="13.41361">
        <ele>813</ele>
        <time>2022-05-24T22:23:55Z</time>
      </trkpt>
      <trkpt lat="48.89466" lon="13.41427">
        <ele>814</ele>
        <time>2022-05-24T22:24:03Z</time>
      </trkpt>
      <trkpt lat="48.89469" lon="13.41675">
        <ele>818</ele>
        <time>2022-05-24T22:24:32Z</time>
      </trkpt>
      <trkpt lat="48.89463" lon="13.41764">
        <ele>818</ele>
        <time>2022-05-24T22:24:43Z</time>
      </trkpt>
      <trkpt lat="48.89414" lon="13.42102">
        <ele>809</ele>
        <time>2022-05-24T22:25:23Z</time>
      </trkpt>
      <trkpt lat="48.89386" lon="13.42176">
        <ele>803</ele>
        <time>2022-05-24T22:25:33Z</time>
      </trkpt>
      <trkpt lat="48.89358" lon="13.42224">
        <ele>800</ele>
        <time>2022-05-24T22:25:41Z</time>
      </trkpt>
      <trkpt lat="48.89261" lon="13.42357">
        <ele>797</ele>
        <time>2022-05-24T22:26:04Z</time>
      </trkpt>
      <trkpt lat="48.89243" lon="13.42437">
        <ele>797</ele>
        <time>2022-05-24T22:26:14Z</time>
      </trkpt>
      <trkpt lat="48.8925" lon="13.4244">
        <ele>798</ele>
        <time>2022-05-24T22:26:15Z</time>
      </trkpt>
      <trkpt lat="48.89254" lon="13.4252">
        <ele>800</ele>
        <time>2022-05-24T22:26:25Z</time>
      </trkpt>
      <trkpt lat="48.89253" lon="13.42575">
        <ele>802</ele>
        <time>2022-05-24T22:26:31Z</time>
      </trkpt>
      <trkpt lat="48.89237" lon="13.42731">
        <ele>803</ele>
        <time>2022-05-24T22:26:49Z</time>
      </trkpt>
      <trkpt lat="48.89225" lon="13.42775">
        <ele>802</ele>
        <time>2022-05-24T22:26:55Z</time>
      </trkpt>
      <trkpt lat="48.89203" lon="13.42811">
        <ele>800</ele>
        <time>2022-05-24T22:27:01Z</time>
      </trkpt>
      <trkpt lat="48.89168" lon="13.42856">
        <ele>798</ele>
        <time>2022-05-24T22:27:09Z</time>
      </trkpt>
      <trkpt lat="48.89168" lon="13.42868">
        <ele>799</ele>
        <time>2022-05-24T22:27:10Z</time>
      </trkpt>
      <trkpt lat="48.89155" lon="13.42895">
        <ele>801</ele>
        <time>2022-05-24T22:27:14Z</time>
      </trkpt>
      <trkpt lat="48.89121" lon="13.42925">
        <ele>800</ele>
        <time>2022-05-24T22:27:21Z</time>
      </trkpt>
      <trkpt lat="48.89109" lon="13.42941">
        <ele>800</ele>
        <time>2022-05-24T22:27:24Z</time>
      </trkpt>
      <trkpt lat="48.89106" lon="13.42963">
        <ele>802</ele>
        <time>2022-05-24T22:27:27Z</time>
      </trkpt>
      <trkpt lat="48.89093" lon="13.42999">
        <ele>804</ele>
        <time>2022-05-24T22:27:31Z</time>
      </trkpt>
      <trkpt lat="48.89043" lon="13.43065">
        <ele>808</ele>
        <time>2022-05-24T22:27:43Z</time>
      </trkpt>
      <trkpt lat="48.88965" lon="13.43151">
        <ele>809</ele>
        <time>2022-05-24T22:28:00Z</time>
      </trkpt>
      <trkpt lat="48.88946" lon="13.43186">
        <ele>810</ele>
        <time>2022-05-24T22:28:06Z</time>
      </trkpt>
      <trkpt lat="48.8891" lon="13.43282">
        <ele>807</ele>
        <time>2022-05-24T22:28:19Z</time>
      </trkpt>
      <trkpt lat="48.88861" lon="13.43369">
        <ele>803</ele>
        <time>2022-05-24T22:28:32Z</time>
      </trkpt>
      <trkpt lat="48.88818" lon="13.43472">
        <ele>803</ele>
        <time>2022-05-24T22:28:46Z</time>
      </trkpt>
      <trkpt lat="48.88685" lon="13.43831">
        <ele>799</ele>
        <time>2022-05-24T22:29:35Z</time>
      </trkpt>
      <trkpt lat="48.88619" lon="13.43964">
        <ele>791</ele>
        <time>2022-05-24T22:29:54Z</time>
      </trkpt>
      <trkpt lat="48.88591" lon="13.44038">
        <ele>786</ele>
        <time>2022-05-24T22:30:04Z</time>
      </trkpt>
      <trkpt lat="48.88557" lon="13.44162">
        <ele>785</ele>
        <time>2022-05-24T22:30:20Z</time>
      </trkpt>
      <trkpt lat="48.88495" lon="13.44339">
        <ele>778</ele>
        <time>2022-05-24T22:30:43Z</time>
      </trkpt>
      <trkpt lat="48.88465" lon="13.44482">
        <ele>772</ele>
        <time>2022-05-24T22:31:01Z</time>
      </trkpt>
      <trkpt lat="48.88437" lon="13.44522">
        <ele>766</ele>
        <time>2022-05-24T22:31:08Z</time>
      </trkpt>
      <trkpt lat="48.88331" lon="13.4459">
        <ele>743</ele>
        <time>2022-05-24T22:31:28Z</time>
      </trkpt>
      <trkpt lat="48.88204" lon="13.44633">
        <ele>730</ele>
        <time>2022-05-24T22:31:51Z</time>
      </trkpt>
      <trkpt lat="48.88183" lon="13.44653">
        <ele>729</ele>
        <time>2022-05-24T22:31:56Z</time>
      </trkpt>
      <trkpt lat="48.88167" lon="13.44676">
        <ele>728</ele>
        <time>2022-05-24T22:32:00Z</time>
      </trkpt>
      <trkpt lat="48.8813" lon="13.44802">
        <ele>721</ele>
        <time>2022-05-24T22:32:16Z</time>
      </trkpt>
      <trkpt lat="48.88151" lon="13.44823">
        <ele>721</ele>
        <time>2022-05-24T22:32:20Z</time>
      </trkpt>
      <trkpt lat="48.88167" lon="13.44883">
        <ele>719</ele>
        <time>2022-05-24T22:32:28Z</time>
      </trkpt>
      <trkpt lat="48.88174" lon="13.44942">
        <ele>716</ele>
        <time>2022-05-24T22:32:35Z</time>
      </trkpt>
      <trkpt lat="48.88187" lon="13.45006">
        <ele>712</ele>
        <time>2022-05-24T22:32:43Z</time>
      </trkpt>
      <trkpt lat="48.88207" lon="13.45024">
        <ele>710</ele>
        <time>2022-05-24T22:32:47Z</time>
      </trkpt>
      <trkpt lat="48.88261" lon="13.45003">
        <ele>713</ele>
        <time>2022-05-24T22:32:57Z</time>
      </trkpt>
      <trkpt lat="48.88288" lon="13.45">
        <ele>713</ele>
        <time>2022-05-24T22:33:01Z</time>
      </trkpt>
      <trkpt lat="48.88309" lon="13.45011">
        <ele>711</ele>
        <time>2022-05-24T22:33:05Z</time>
      </trkpt>
      <trkpt lat="48.88355" lon="13.45022">
        <ele>708</ele>
        <time>2022-05-24T22:33:14Z</time>
      </trkpt>
      <trkpt lat="48.88446" lon="13.45003">
        <ele>711</ele>
        <time>2022-05-24T22:33:30Z</time>
      </trkpt>
      <trkpt lat="48.885" lon="13.45028">
        <ele>714</ele>
        <time>2022-05-24T22:33:40Z</time>
      </trkpt>
      <trkpt lat="48.88513" lon="13.45049">
        <ele>717</ele>
        <time>2022-05-24T22:33:43Z</time>
      </trkpt>
      <trkpt lat="48.88516" lon="13.45217">
        <ele>718</ele>
        <time>2022-05-24T22:34:03Z</time>
      </trkpt>
      <trkpt lat="48.88536" lon="13.4526">
        <ele>719</ele>
        <time>2022-05-24T22:34:09Z</time>
      </trkpt>
      <trkpt lat="48.88583" lon="13.45321">
        <ele>714</ele>
        <time>2022-05-24T22:34:20Z</time>
      </trkpt>
      <trkpt lat="48.88619" lon="13.45406">
        <ele>713</ele>
        <time>2022-05-24T22:34:32Z</time>
      </trkpt>
      <trkpt lat="48.88637" lon="13.45461">
        <ele>714</ele>
        <time>2022-05-24T22:34:39Z</time>
      </trkpt>
      <trkpt lat="48.88713" lon="13.45756">
        <ele>687</ele>
        <time>2022-05-24T22:35:16Z</time>
      </trkpt>
      <trkpt lat="48.88743" lon="13.45825">
        <ele>677</ele>
        <time>2022-05-24T22:35:26Z</time>
      </trkpt>
      <trkpt lat="48.88812" lon="13.45907">
        <ele>672</ele>
        <time>2022-05-24T22:35:42Z</time>
      </trkpt>
      <trkpt lat="48.88829" lon="13.45953">
        <ele>674</ele>
        <time>2022-05-24T22:35:48Z</time>
      </trkpt>
      <trkpt lat="48.88833" lon="13.45991">
        <ele>676</ele>
        <time>2022-05-24T22:35:52Z</time>
      </trkpt>
      <trkpt lat="48.88814" lon="13.46069">
        <ele>684</ele>
        <time>2022-05-24T22:36:02Z</time>
      </trkpt>
      <trkpt lat="48.88718" lon="13.46244">
        <ele>689</ele>
        <time>2022-05-24T22:36:29Z</time>
      </trkpt>
      <trkpt lat="48.88705" lon="13.46274">
        <ele>689</ele>
        <time>2022-05-24T22:36:33Z</time>
      </trkpt>
      <trkpt lat="48.887" lon="13.46318">
        <ele>691</ele>
        <time>2022-05-24T22:36:38Z</time>
      </trkpt>
      <trkpt lat="48.88728" lon="13.46381">
        <ele>699</ele>
        <time>2022-05-24T22:36:47Z</time>
      </trkpt>
      <trkpt lat="48.88791" lon="13.46503">
        <ele>708</ele>
        <time>2022-05-24T22:37:05Z</time>
      </trkpt>
      <trkpt lat="48.88761" lon="13.46544">
        <ele>703</ele>
        <time>2022-05-24T22:37:12Z</time>
      </trkpt>
      <trkpt lat="48.88738" lon="13.4654">
        <ele>701</ele>
        <time>2022-05-24T22:37:16Z</time>
      </trkpt>
      <trkpt lat="48.88706" lon="13.46525">
        <ele>699</ele>
        <time>2022-05-24T22:37:22Z</time>
      </trkpt>
      <trkpt lat="48.88703" lon="13.46619">
        <ele>705</ele>
        <time>2022-05-24T22:37:33Z</time>
      </trkpt>
      <trkpt lat="48.88697" lon="13.46644">
        <ele>707</ele>
        <time>2022-05-24T22:37:37Z</time>
      </trkpt>
      <trkpt lat="48.88623" lon="13.46755">
        <ele>723</ele>
        <time>2022-05-24T22:37:55Z</time>
      </trkpt>
      <trkpt lat="48.88618" lon="13.46773">
        <ele>725</ele>
        <time>2022-05-24T22:37:57Z</time>
      </trkpt>
      <trkpt lat="48.88628" lon="13.46844">
        <ele>730</ele>
        <time>2022-05-24T22:38:06Z</time>
      </trkpt>
      <trkpt lat="48.88626" lon="13.46896">
        <ele>734</ele>
        <time>2022-05-24T22:38:12Z</time>
      </trkpt>
      <trkpt lat="48.88563" lon="13.46875">
        <ele>740</ele>
        <time>2022-05-24T22:38:23Z</time>
      </trkpt>
      <trkpt lat="48.88525" lon="13.46883">
        <ele>746</ele>
        <time>2022-05-24T22:38:30Z</time>
      </trkpt>
      <trkpt lat="48.88507" lon="13.46897">
        <ele>748</ele>
        <time>2022-05-24T22:38:34Z</time>
      </trkpt>
      <trkpt lat="48.88474" lon="13.46942">
        <ele>752</ele>
        <time>2022-05-24T22:38:42Z</time>
      </trkpt>
      <trkpt lat="48.88412" lon="13.47096">
        <ele>757</ele>
        <time>2022-05-24T22:39:03Z</time>
      </trkpt>
      <trkpt lat="48.8838" lon="13.47193">
        <ele>752</ele>
        <time>2022-05-24T22:39:16Z</time>
      </trkpt>
      <trkpt lat="48.88379" lon="13.47215">
        <ele>752</ele>
        <time>2022-05-24T22:39:18Z</time>
      </trkpt>
      <trkpt lat="48.88407" lon="13.47351">
        <ele>749</ele>
        <time>2022-05-24T22:39:35Z</time>
      </trkpt>
      <trkpt lat="48.88412" lon="13.47435">
        <ele>746</ele>
        <time>2022-05-24T22:39:45Z</time>
      </trkpt>
      <trkpt lat="48.88418" lon="13.47809">
        <ele>753</ele>
        <time>2022-05-24T22:40:28Z</time>
      </trkpt>
      <trkpt lat="48.88425" lon="13.47829">
        <ele>754</ele>
        <time>2022-05-24T22:40:31Z</time>
      </trkpt>
      <trkpt lat="48.8848" lon="13.4788">
        <ele>756</ele>
        <time>2022-05-24T22:40:43Z</time>
      </trkpt>
      <trkpt lat="48.88505" lon="13.47914">
        <ele>758</ele>
        <time>2022-05-24T22:40:48Z</time>
      </trkpt>
      <trkpt lat="48.88535" lon="13.47999">
        <ele>764</ele>
        <time>2022-05-24T22:41:00Z</time>
      </trkpt>
      <trkpt lat="48.88561" lon="13.48085">
        <ele>771</ele>
        <time>2022-05-24T22:41:11Z</time>
      </trkpt>
      <trkpt lat="48.8861" lon="13.48184">
        <ele>777</ele>
        <time>2022-05-24T22:41:25Z</time>
      </trkpt>
      <trkpt lat="48.88658" lon="13.48262">
        <ele>779</ele>
        <time>2022-05-24T22:41:38Z</time>
      </trkpt>
      <trkpt lat="48.88691" lon="13.48331">
        <ele>782</ele>
        <time>2022-05-24T22:41:48Z</time>
      </trkpt>
      <trkpt lat="48.88712" lon="13.48399">
        <ele>784</ele>
        <time>2022-05-24T22:41:57Z</time>
      </trkpt>
      <trkpt lat="48.88755" lon="13.48567">
        <ele>789</ele>
        <time>2022-05-24T22:42:18Z</time>
      </trkpt>
      <trkpt lat="48.88782" lon="13.48625">
        <ele>792</ele>
        <time>2022-05-24T22:42:26Z</time>
      </trkpt>
      <trkpt lat="48.88816" lon="13.48684">
        <ele>794</ele>
        <time>2022-05-24T22:42:35Z</time>
      </trkpt>
      <trkpt lat="48.88873" lon="13.48795">
        <ele>802</ele>
        <time>2022-05-24T22:42:52Z</time>
      </trkpt>
      <trkpt lat="48.88921" lon="13.48901">
        <ele>805</ele>
        <time>2022-05-24T22:43:07Z</time>
      </trkpt>
      <trkpt lat="48.88939" lon="13.48932">
        <ele>807</ele>
        <time>2022-05-24T22:43:12Z</time>
      </trkpt>
      <trkpt lat="48.89022" lon="13.48975">
        <ele>813</ele>
        <time>2022-05-24T22:43:27Z</time>
      </trkpt>
      <trkpt lat="48.89034" lon="13.48907">
        <ele>814</ele>
        <time>2022-05-24T22:43:35Z</time>
      </trkpt>
      <trkpt lat="48.89043" lon="13.48872">
        <ele>816</ele>
        <time>2022-05-24T22:43:40Z</time>
      </trkpt>
      <trkpt lat="48.89088" lon="13.4883">
        <ele>817</ele>
        <time>2022-05-24T22:43:49Z</time>
      </trkpt>
      <trkpt lat="48.89079" lon="13.48783">
        <ele>820</ele>
        <time>2022-05-24T22:43:55Z</time>
      </trkpt>
      <trkpt lat="48.8908" lon="13.48761">
        <ele>821</ele>
        <time>2022-05-24T22:43:58Z</time>
      </trkpt>
      <trkpt lat="48.89088" lon="13.48743">
        <ele>822</ele>
        <time>2022-05-24T22:44:00Z</time>
      </trkpt>
      <trkpt lat="48.89074" lon="13.48733">
        <ele>823</ele>
        <time>2022-05-24T22:44:03Z</time>
      </trkpt>
      <trkpt lat="48.8905" lon="13.48731">
        <ele>823</ele>
        <time>2022-05-24T22:44:07Z</time>
      </trkpt>
      <trkpt lat="48.89043" lon="13.48687">
        <ele>824</ele>
        <time>2022-05-24T22:44:12Z</time>
      </trkpt>
      <trkpt lat="48.89032" lon="13.48659">
        <ele>823</ele>
        <time>2022-05-24T22:44:16Z</time>
      </trkpt>
      <trkpt lat="48.89043" lon="13.48687">
        <ele>824</ele>
        <time>2022-05-24T22:44:20Z</time>
      </trkpt>
      <trkpt lat="48.8905" lon="13.48731">
        <ele>823</ele>
        <time>2022-05-24T22:44:25Z</time>
      </trkpt>
      <trkpt lat="48.89074" lon="13.48733">
        <ele>823</ele>
        <time>2022-05-24T22:44:30Z</time>
      </trkpt>
      <trkpt lat="48.89088" lon="13.48743">
        <ele>822</ele>
        <time>2022-05-24T22:44:32Z</time>
      </trkpt>
      <trkpt lat="48.8908" lon="13.48761">
        <ele>821</ele>
        <time>2022-05-24T22:44:35Z</time>
      </trkpt>
      <trkpt lat="48.89079" lon="13.48783">
        <ele>820</ele>
        <time>2022-05-24T22:44:37Z</time>
      </trkpt>
      <trkpt lat="48.89088" lon="13.4883">
        <ele>817</ele>
        <time>2022-05-24T22:44:43Z</time>
      </trkpt>
      <trkpt lat="48.89172" lon="13.48846">
        <ele>812</ele>
        <time>2022-05-24T22:44:58Z</time>
      </trkpt>
      <trkpt lat="48.89124" lon="13.48954">
        <ele>811</ele>
        <time>2022-05-24T22:45:14Z</time>
      </trkpt>
      <trkpt lat="48.89104" lon="13.49015">
        <ele>811</ele>
        <time>2022-05-24T22:45:21Z</time>
      </trkpt>
      <trkpt lat="48.88939" lon="13.48932">
        <ele>807</ele>
        <time>2022-05-24T22:45:52Z</time>
      </trkpt>
      <trkpt lat="48.88921" lon="13.48901">
        <ele>805</ele>
        <time>2022-05-24T22:45:57Z</time>
      </trkpt>
      <trkpt lat="48.88873" lon="13.48795">
        <ele>802</ele>
        <time>2022-05-24T22:46:12Z</time>
      </trkpt>
      <trkpt lat="48.88816" lon="13.48684">
        <ele>794</ele>
        <time>2022-05-24T22:46:29Z</time>
      </trkpt>
      <trkpt lat="48.88782" lon="13.48625">
        <ele>792</ele>
        <time>2022-05-24T22:46:38Z</time>
      </trkpt>
      <trkpt lat="48.88755" lon="13.48567">
        <ele>789</ele>
        <time>2022-05-24T22:46:46Z</time>
      </trkpt>
      <trkpt lat="48.88712" lon="13.48399">
        <ele>784</ele>
        <time>2022-05-24T22:47:07Z</time>
      </trkpt>
      <trkpt lat="48.88691" lon="13.48331">
        <ele>782</ele>
        <time>2022-05-24T22:47:16Z</time>
      </trkpt>
      <trkpt lat="48.88658" lon="13.48262">
        <ele>779</ele>
        <time>2022-05-24T22:47:26Z</time>
      </trkpt>
      <trkpt lat="48.8861" lon="13.48184">
        <ele>777</ele>
        <time>2022-05-24T22:47:39Z</time>
      </trkpt>
      <trkpt lat="48.88561" lon="13.48085">
        <ele>771</ele>
        <time>2022-05-24T22:47:53Z</time>
      </trkpt>
      <trkpt lat="48.88535" lon="13.47999">
        <ele>764</ele>
        <time>2022-05-24T22:48:04Z</time>
      </trkpt>
      <trkpt lat="48.88505" lon="13.47914">
        <ele>758</ele>
        <time>2022-05-24T22:48:15Z</time>
      </trkpt>
      <trkpt lat="48.8848" lon="13.4788">
        <ele>756</ele>
        <time>2022-05-24T22:48:21Z</time>
      </trkpt>
      <trkpt lat="48.88425" lon="13.47829">
        <ele>754</ele>
        <time>2022-05-24T22:48:33Z</time>
      </trkpt>
      <trkpt lat="48.88406" lon="13.47835">
        <ele>752</ele>
        <time>2022-05-24T22:48:36Z</time>
      </trkpt>
      <trkpt lat="48.88373" lon="13.47831">
        <ele>750</ele>
        <time>2022-05-24T22:48:42Z</time>
      </trkpt>
      <trkpt lat="48.88366" lon="13.47823">
        <ele>749</ele>
        <time>2022-05-24T22:48:44Z</time>
      </trkpt>
      <trkpt lat="48.88353" lon="13.47799">
        <ele>748</ele>
        <time>2022-05-24T22:48:47Z</time>
      </trkpt>
      <trkpt lat="48.88345" lon="13.47746">
        <ele>746</ele>
        <time>2022-05-24T22:48:54Z</time>
      </trkpt>
      <trkpt lat="48.88266" lon="13.47816">
        <ele>740</ele>
        <time>2022-05-24T22:49:10Z</time>
      </trkpt>
      <trkpt lat="48.88197" lon="13.47891">
        <ele>739</ele>
        <time>2022-05-24T22:49:25Z</time>
      </trkpt>
      <trkpt lat="48.88177" lon="13.47904">
        <ele>740</ele>
        <time>2022-05-24T22:49:29Z</time>
      </trkpt>
      <trkpt lat="48.88154" lon="13.4791">
        <ele>740</ele>
        <time>2022-05-24T22:49:33Z</time>
      </trkpt>
      <trkpt lat="48.8808" lon="13.47901">
        <ele>741</ele>
        <time>2022-05-24T22:49:46Z</time>
      </trkpt>
      <trkpt lat="48.88027" lon="13.4789">
        <ele>743</ele>
        <time>2022-05-24T22:49:56Z</time>
      </trkpt>
      <trkpt lat="48.87815" lon="13.4784">
        <ele>753</ele>
        <time>2022-05-24T22:50:34Z</time>
      </trkpt>
      <trkpt lat="48.8772" lon="13.47812">
        <ele>764</ele>
        <time>2022-05-24T22:50:51Z</time>
      </trkpt>
      <trkpt lat="48.87679" lon="13.47807">
        <ele>763</ele>
        <time>2022-05-24T22:50:59Z</time>
      </trkpt>
      <trkpt lat="48.8764" lon="13.47816">
        <ele>762</ele>
        <time>2022-05-24T22:51:06Z</time>
      </trkpt>
      <trkpt lat="48.87574" lon="13.47864">
        <ele>763</ele>
        <time>2022-05-24T22:51:19Z</time>
      </trkpt>
      <trkpt lat="48.87503" lon="13.47905">
        <ele>765</ele>
        <time>2022-05-24T22:51:32Z</time>
      </trkpt>
      <trkpt lat="48.87432" lon="13.47958">
        <ele>763</ele>
        <time>2022-05-24T22:51:46Z</time>
      </trkpt>
      <trkpt lat="48.87359" lon="13.48007">
        <ele>758</ele>
        <time>2022-05-24T22:52:00Z</time>
      </trkpt>
      <trkpt lat="48.87319" lon="13.48015">
        <ele>755</ele>
        <time>2022-05-24T22:52:08Z</time>
      </trkpt>
      <trkpt lat="48.87296" lon="13.48007">
        <ele>754</ele>
        <time>2022-05-24T22:52:12Z</time>
      </trkpt>
      <trkpt lat="48.87285" lon="13.47997">
        <ele>753</ele>
        <time>2022-05-24T22:52:14Z</time>
      </trkpt>
      <trkpt lat="48.87215" lon="13.47882">
        <ele>741</ele>
        <time>2022-05-24T22:52:32Z</time>
      </trkpt>
      <trkpt lat="48.87188" lon="13.47878">
        <ele>739</ele>
        <time>2022-05-24T22:52:37Z</time>
      </trkpt>
      <trkpt lat="48.87134" lon="13.4789">
        <ele>734</ele>
        <time>2022-05-24T22:52:47Z</time>
      </trkpt>
      <trkpt lat="48.8709" lon="13.48026">
        <ele>733</ele>
        <time>2022-05-24T22:53:05Z</time>
      </trkpt>
      <trkpt lat="48.87074" lon="13.48102">
        <ele>733</ele>
        <time>2022-05-24T22:53:14Z</time>
      </trkpt>
      <trkpt lat="48.87074" lon="13.48211">
        <ele>735</ele>
        <time>2022-05-24T22:53:27Z</time>
      </trkpt>
      <trkpt lat="48.87099" lon="13.48414">
        <ele>733</ele>
        <time>2022-05-24T22:53:51Z</time>
      </trkpt>
      <trkpt lat="48.87075" lon="13.484">
        <ele>729</ele>
        <time>2022-05-24T22:53:56Z</time>
      </trkpt>
      <trkpt lat="48.8706" lon="13.484">
        <ele>726</ele>
        <time>2022-05-24T22:53:58Z</time>
      </trkpt>
      <trkpt lat="48.87036" lon="13.48411">
        <ele>721</ele>
        <time>2022-05-24T22:54:03Z</time>
      </trkpt>
      <trkpt lat="48.8695" lon="13.48537">
        <ele>707</ele>
        <time>2022-05-24T22:54:24Z</time>
      </trkpt>
      <trkpt lat="48.86925" lon="13.48553">
        <ele>704</ele>
        <time>2022-05-24T22:54:29Z</time>
      </trkpt>
      <trkpt lat="48.86886" lon="13.4854">
        <ele>701</ele>
        <time>2022-05-24T22:54:36Z</time>
      </trkpt>
      <trkpt lat="48.86859" lon="13.48365">
        <ele>697</ele>
        <time>2022-05-24T22:54:57Z</time>
      </trkpt>
      <trkpt lat="48.86834" lon="13.4833">
        <ele>695</ele>
        <time>2022-05-24T22:55:03Z</time>
      </trkpt>
      <trkpt lat="48.8677" lon="13.48319">
        <ele>695</ele>
        <time>2022-05-24T22:55:14Z</time>
      </trkpt>
      <trkpt lat="48.8673" lon="13.48302">
        <ele>694</ele>
        <time>2022-05-24T22:55:22Z</time>
      </trkpt>
      <trkpt lat="48.86669" lon="13.48236">
        <ele>691</ele>
        <time>2022-05-24T22:55:35Z</time>
      </trkpt>
      <trkpt lat="48.86595" lon="13.48138">
        <ele>682</ele>
        <time>2022-05-24T22:55:53Z</time>
      </trkpt>
      <trkpt lat="48.86544" lon="13.48094">
        <ele>679</ele>
        <time>2022-05-24T22:56:03Z</time>
      </trkpt>
      <trkpt lat="48.86514" lon="13.48081">
        <ele>676</ele>
        <time>2022-05-24T22:56:09Z</time>
      </trkpt>
      <trkpt lat="48.86354" lon="13.48062">
        <ele>673</ele>
        <time>2022-05-24T22:56:37Z</time>
      </trkpt>
      <trkpt lat="48.86321" lon="13.48165">
        <ele>666</ele>
        <time>2022-05-24T22:56:51Z</time>
      </trkpt>
      <trkpt lat="48.86284" lon="13.48328">
        <ele>674</ele>
        <time>2022-05-24T22:57:11Z</time>
      </trkpt>
      <trkpt lat="48.86268" lon="13.48304">
        <ele>674</ele>
        <time>2022-05-24T22:57:15Z</time>
      </trkpt>
      <trkpt lat="48.86251" lon="13.48255">
        <ele>673</ele>
        <time>2022-05-24T22:57:21Z</time>
      </trkpt>
      <trkpt lat="48.86235" lon="13.48222">
        <ele>672</ele>
        <time>2022-05-24T22:57:26Z</time>
      </trkpt>
      <trkpt lat="48.86207" lon="13.48233">
        <ele>674</ele>
        <time>2022-05-24T22:57:31Z</time>
      </trkpt>
      <trkpt lat="48.86104" lon="13.48226">
        <ele>688</ele>
        <time>2022-05-24T22:57:49Z</time>
      </trkpt>
      <trkpt lat="48.85999" lon="13.48281">
        <ele>706</ele>
        <time>2022-05-24T22:58:09Z</time>
      </trkpt>
      <trkpt lat="48.85883" lon="13.48306">
        <ele>729</ele>
        <time>2022-05-24T22:58:30Z</time>
      </trkpt>
      <trkpt lat="48.85803" lon="13.48337">
        <ele>737</ele>
        <time>2022-05-24T22:58:45Z</time>
      </trkpt>
      <trkpt lat="48.8563" lon="13.48442">
        <ele>742</ele>
        <time>2022-05-24T22:59:18Z</time>
      </trkpt>
      <trkpt lat="48.8554" lon="13.48518">
        <ele>743</ele>
        <time>2022-05-24T22:59:36Z</time>
      </trkpt>
      <trkpt lat="48.85317" lon="13.4869">
        <ele>762</ele>
        <time>2022-05-24T23:00:21Z</time>
      </trkpt>
      <trkpt lat="48.85233" lon="13.48741">
        <ele>776</ele>
        <time>2022-05-24T23:00:37Z</time>
      </trkpt>
      <trkpt lat="48.85221" lon="13.48742">
        <ele>778</ele>
        <time>2022-05-24T23:00:39Z</time>
      </trkpt>
      <trkpt lat="48.85184" lon="13.4878">
        <ele>787</ele>
        <time>2022-05-24T23:00:47Z</time>
      </trkpt>
      <trkpt lat="48.85139" lon="13.48801">
        <ele>794</ele>
        <time>2022-05-24T23:00:55Z</time>
      </trkpt>
      <trkpt lat="48.85092" lon="13.48801">
        <ele>801</ele>
        <time>2022-05-24T23:01:04Z</time>
      </trkpt>
      <trkpt lat="48.85082" lon="13.48789">
        <ele>803</ele>
        <time>2022-05-24T23:01:06Z</time>
      </trkpt>
      <trkpt lat="48.85074" lon="13.4877">
        <ele>803</ele>
        <time>2022-05-24T23:01:09Z</time>
      </trkpt>
      <trkpt lat="48.85082" lon="13.48759">
        <ele>803</ele>
        <time>2022-05-24T23:01:11Z</time>
      </trkpt>
      <trkpt lat="48.85087" lon="13.48742">
        <ele>802</ele>
        <time>2022-05-24T23:01:13Z</time>
      </trkpt>
      <trkpt lat="48.85082" lon="13.48706">
        <ele>800</ele>
        <time>2022-05-24T23:01:17Z</time>
      </trkpt>
      <trkpt lat="48.85072" lon="13.48691">
        <ele>799</ele>
        <time>2022-05-24T23:01:19Z</time>
      </trkpt>
      <trkpt lat="48.84818" lon="13.48558">
        <ele>777</ele>
        <time>2022-05-24T23:02:07Z</time>
      </trkpt>
      <trkpt lat="48.84791" lon="13.48527">
        <ele>774</ele>
        <time>2022-05-24T23:02:13Z</time>
      </trkpt>
      <trkpt lat="48.84774" lon="13.48499">
        <ele>773</ele>
        <time>2022-05-24T23:02:18Z</time>
      </trkpt>
      <trkpt lat="48.84762" lon="13.48459">
        <ele>771</ele>
        <time>2022-05-24T23:02:23Z</time>
      </trkpt>
      <trkpt lat="48.84738" lon="13.48458">
        <ele>770</ele>
        <time>2022-05-24T23:02:27Z</time>
      </trkpt>
      <trkpt lat="48.8473" lon="13.48469">
        <ele>769</ele>
        <time>2022-05-24T23:02:29Z</time>
      </trkpt>
      <trkpt lat="48.84656" lon="13.4884">
        <ele>765</ele>
        <time>2022-05-24T23:03:15Z</time>
      </trkpt>
      <trkpt lat="48.8464" lon="13.48961">
        <ele>765</ele>
        <time>2022-05-24T23:03:29Z</time>
      </trkpt>
      <trkpt lat="48.84587" lon="13.49229">
        <ele>758</ele>
        <time>2022-05-24T23:04:02Z</time>
      </trkpt>
      <trkpt lat="48.84523" lon="13.49449">
        <ele>760</ele>
        <time>2022-05-24T23:04:30Z</time>
      </trkpt>
      <trkpt lat="48.84487" lon="13.49547">
        <ele>763</ele>
        <time>2022-05-24T23:04:43Z</time>
      </trkpt>
      <trkpt lat="48.84473" lon="13.49534">
        <ele>763</ele>
        <time>2022-05-24T23:04:46Z</time>
      </trkpt>
      <trkpt lat="48.84467" lon="13.49549">
        <ele>764</ele>
        <time>2022-05-24T23:04:48Z</time>
      </trkpt>
      <trkpt lat="48.84446" lon="13.49543">
        <ele>764</ele>
        <time>2022-05-24T23:04:52Z</time>
      </trkpt>
      <trkpt lat="48.8441" lon="13.49557">
        <ele>766</ele>
        <time>2022-05-24T23:04:58Z</time>
      </trkpt>
      <trkpt lat="48.84372" lon="13.49594">
        <ele>767</ele>
        <time>2022-05-24T23:05:06Z</time>
      </trkpt>
      <trkpt lat="48.84131" lon="13.49925">
        <ele>778</ele>
        <time>2022-05-24T23:06:04Z</time>
      </trkpt>
      <trkpt lat="48.84036" lon="13.49998">
        <ele>781</ele>
        <time>2022-05-24T23:06:23Z</time>
      </trkpt>
      <trkpt lat="48.83937" lon="13.50035">
        <ele>776</ele>
        <time>2022-05-24T23:06:41Z</time>
      </trkpt>
      <trkpt lat="48.83833" lon="13.50053">
        <ele>766</ele>
        <time>2022-05-24T23:07:00Z</time>
      </trkpt>
      <trkpt lat="48.83718" lon="13.5004">
        <ele>749</ele>
        <time>2022-05-24T23:07:20Z</time>
      </trkpt>
      <trkpt lat="48.83382" lon="13.49966">
        <ele>727</ele>
        <time>2022-05-24T23:08:21Z</time>
      </trkpt>
      <trkpt lat="48.83338" lon="13.49969">
        <ele>726</ele>
        <time>2022-05-24T23:08:29Z</time>
      </trkpt>
      <trkpt lat="48.83289" lon="13.49977">
        <ele>723</ele>
        <time>2022-05-24T23:08:37Z</time>
      </trkpt>
      <trkpt lat="48.83222" lon="13.5001">
        <ele>718</ele>
        <time>2022-05-24T23:08:50Z</time>
      </trkpt>
      <trkpt lat="48.83171" lon="13.50059">
        <ele>715</ele>
        <time>2022-05-24T23:09:01Z</time>
      </trkpt>
      <trkpt lat="48.8315" lon="13.50084">
        <ele>714</ele>
        <time>2022-05-24T23:09:06Z</time>
      </trkpt>
      <trkpt lat="48.83044" lon="13.50256">
        <ele>704</ele>
        <time>2022-05-24T23:09:33Z</time>
      </trkpt>
      <trkpt lat="48.82971" lon="13.50172">
        <ele>695</ele>
        <time>2022-05-24T23:09:49Z</time>
      </trkpt>
      <trkpt lat="48.82936" lon="13.50165">
        <ele>692</ele>
        <time>2022-05-24T23:09:56Z</time>
      </trkpt>
      <trkpt lat="48.82903" lon="13.50195">
        <ele>690</ele>
        <time>2022-05-24T23:10:03Z</time>
      </trkpt>
      <trkpt lat="48.82837" lon="13.50287">
        <ele>685</ele>
        <time>2022-05-24T23:10:18Z</time>
      </trkpt>
      <trkpt lat="48.82813" lon="13.50304">
        <ele>682</ele>
        <time>2022-05-24T23:10:23Z</time>
      </trkpt>
      <trkpt lat="48.82763" lon="13.50326">
        <ele>676</ele>
        <time>2022-05-24T23:10:32Z</time>
      </trkpt>
      <trkpt lat="48.82696" lon="13.50335">
        <ele>669</ele>
        <time>2022-05-24T23:10:44Z</time>
      </trkpt>
      <trkpt lat="48.82614" lon="13.50373">
        <ele>669</ele>
        <time>2022-05-24T23:11:00Z</time>
      </trkpt>
      <trkpt lat="48.82599" lon="13.50382">
        <ele>669</ele>
        <time>2022-05-24T23:11:03Z</time>
      </trkpt>
      <trkpt lat="48.82484" lon="13.50604">
        <ele>669</ele>
        <time>2022-05-24T23:11:36Z</time>
      </trkpt>
      <trkpt lat="48.82442" lon="13.50857">
        <ele>646</ele>
        <time>2022-05-24T23:12:06Z</time>
      </trkpt>
      <trkpt lat="48.82433" lon="13.50881">
        <ele>642</ele>
        <time>2022-05-24T23:12:09Z</time>
      </trkpt>
      <trkpt lat="48.82408" lon="13.5091">
        <ele>636</ele>
        <time>2022-05-24T23:12:15Z</time>
      </trkpt>
      <trkpt lat="48.82316" lon="13.50935">
        <ele>629</ele>
        <time>2022-05-24T23:12:32Z</time>
      </trkpt>
      <trkpt lat="48.82286" lon="13.50922">
        <ele>630</ele>
        <time>2022-05-24T23:12:37Z</time>
      </trkpt>
      <trkpt lat="48.82273" lon="13.50903">
        <ele>630</ele>
        <time>2022-05-24T23:12:40Z</time>
      </trkpt>
      <trkpt lat="48.82267" lon="13.50879">
        <ele>628</ele>
        <time>2022-05-24T23:12:43Z</time>
      </trkpt>
      <trkpt lat="48.82244" lon="13.5062">
        <ele>614</ele>
        <time>2022-05-24T23:13:14Z</time>
      </trkpt>
      <trkpt lat="48.82229" lon="13.50555">
        <ele>610</ele>
        <time>2022-05-24T23:13:22Z</time>
      </trkpt>
      <trkpt lat="48.82188" lon="13.50469">
        <ele>603</ele>
        <time>2022-05-24T23:13:35Z</time>
      </trkpt>
      <trkpt lat="48.82131" lon="13.50396">
        <ele>595</ele>
        <time>2022-05-24T23:13:48Z</time>
      </trkpt>
      <trkpt lat="48.821" lon="13.50377">
        <ele>591</ele>
        <time>2022-05-24T23:13:54Z</time>
      </trkpt>
      <trkpt lat="48.81956" lon="13.50327">
        <ele>584</ele>
        <time>2022-05-24T23:14:20Z</time>
      </trkpt>
      <trkpt lat="48.81927" lon="13.50313">
        <ele>585</ele>
        <time>2022-05-24T23:14:25Z</time>
      </trkpt>
      <trkpt lat="48.81902" lon="13.50292">
        <ele>585</ele>
        <time>2022-05-24T23:14:31Z</time>
      </trkpt>
      <trkpt lat="48.81875" lon="13.50261">
        <ele>586</ele>
        <time>2022-05-24T23:14:37Z</time>
      </trkpt>
      <trkpt lat="48.81822" lon="13.50193">
        <ele>585</ele>
        <time>2022-05-24T23:14:49Z</time>
      </trkpt>
      <trkpt lat="48.8179" lon="13.50165">
        <ele>583</ele>
        <time>2022-05-24T23:14:55Z</time>
      </trkpt>
      <trkpt lat="48.81728" lon="13.50141">
        <ele>580</ele>
        <time>2022-05-24T23:15:07Z</time>
      </trkpt>
      <trkpt lat="48.81606" lon="13.50057">
        <ele>568</ele>
        <time>2022-05-24T23:15:31Z</time>
      </trkpt>
      <trkpt lat="48.81583" lon="13.50032">
        <ele>563</ele>
        <time>2022-05-24T23:15:36Z</time>
      </trkpt>
      <trkpt lat="48.81557" lon="13.49988">
        <ele>557</ele>
        <time>2022-05-24T23:15:43Z</time>
      </trkpt>
      <trkpt lat="48.81517" lon="13.49955">
        <ele>552</ele>
        <time>2022-05-24T23:15:51Z</time>
      </trkpt>
      <trkpt lat="48.81455" lon="13.49928">
        <ele>541</ele>
        <time>2022-05-24T23:16:02Z</time>
      </trkpt>
      <trkpt lat="48.81442" lon="13.49927">
        <ele>539</ele>
        <time>2022-05-24T23:16:05Z</time>
      </trkpt>
      <trkpt lat="48.81414" lon="13.49944">
        <ele>538</ele>
        <time>2022-05-24T23:16:10Z</time>
      </trkpt>
      <trkpt lat="48.81393" lon="13.49975">
        <ele>536</ele>
        <time>2022-05-24T23:16:15Z</time>
      </trkpt>
      <trkpt lat="48.81366" lon="13.49999">
        <ele>534</ele>
        <time>2022-05-24T23:16:21Z</time>
      </trkpt>
      <trkpt lat="48.81343" lon="13.50008">
        <ele>531</ele>
        <time>2022-05-24T23:16:25Z</time>
      </trkpt>
      <trkpt lat="48.81223" lon="13.50011">
        <ele>506</ele>
        <time>2022-05-24T23:16:46Z</time>
      </trkpt>
      <trkpt lat="48.81175" lon="13.50056">
        <ele>505</ele>
        <time>2022-05-24T23:16:56Z</time>
      </trkpt>
      <trkpt lat="48.81153" lon="13.50051">
        <ele>501</ele>
        <time>2022-05-24T23:17:00Z</time>
      </trkpt>
      <trkpt lat="48.81121" lon="13.49971">
        <ele>500</ele>
        <time>2022-05-24T23:17:11Z</time>
      </trkpt>
      <trkpt lat="48.81109" lon="13.49953">
        <ele>504</ele>
        <time>2022-05-24T23:17:14Z</time>
      </trkpt>
      <trkpt lat="48.81091" lon="13.49934">
        <ele>510</ele>
        <time>2022-05-24T23:17:18Z</time>
      </trkpt>
      <trkpt lat="48.81083" lon="13.49933">
        <ele>512</ele>
        <time>2022-05-24T23:17:20Z</time>
      </trkpt>
      <trkpt lat="48.81013" lon="13.50006">
        <ele>519</ele>
        <time>2022-05-24T23:17:35Z</time>
      </trkpt>
      <trkpt lat="48.81001" lon="13.50011">
        <ele>522</ele>
        <time>2022-05-24T23:17:37Z</time>
      </trkpt>
      <trkpt lat="48.80938" lon="13.50006">
        <ele>537</ele>
        <time>2022-05-24T23:17:48Z</time>
      </trkpt>
      <trkpt lat="48.80919" lon="13.50011">
        <ele>540</ele>
        <time>2022-05-24T23:17:52Z</time>
      </trkpt>
      <trkpt lat="48.80912" lon="13.5001">
        <ele>541</ele>
        <time>2022-05-24T23:17:53Z</time>
      </trkpt>
      <trkpt lat="48.80876" lon="13.50021">
        <ele>543</ele>
        <time>2022-05-24T23:17:59Z</time>
      </trkpt>
      <trkpt lat="48.80836" lon="13.50045">
        <ele>542</ele>
        <time>2022-05-24T23:18:07Z</time>
      </trkpt>
      <trkpt lat="48.80797" lon="13.50069">
        <ele>542</ele>
        <time>2022-05-24T23:18:14Z</time>
      </trkpt>
      <trkpt lat="48.80763" lon="13.50129">
        <ele>547</ele>
        <time>2022-05-24T23:18:24Z</time>
      </trkpt>
      <trkpt lat="48.80748" lon="13.50136">
        <ele>549</ele>
        <time>2022-05-24T23:18:27Z</time>
      </trkpt>
      <trkpt lat="48.80647" lon="13.50116">
        <ele>556</ele>
        <time>2022-05-24T23:18:45Z</time>
      </trkpt>
      <trkpt lat="48.80561" lon="13.50109">
        <ele>565</ele>
        <time>2022-05-24T23:19:00Z</time>
      </trkpt>
      <trkpt lat="48.80549" lon="13.50185">
        <ele>568</ele>
        <time>2022-05-24T23:19:09Z</time>
      </trkpt>
      <trkpt lat="48.80598" lon="13.50289">
        <ele>578</ele>
        <time>2022-05-24T23:19:24Z</time>
      </trkpt>
      <trkpt lat="48.80609" lon="13.50353">
        <ele>582</ele>
        <time>2022-05-24T23:19:32Z</time>
      </trkpt>
      <trkpt lat="48.80618" lon="13.5048">
        <ele>589</ele>
        <time>2022-05-24T23:19:47Z</time>
      </trkpt>
      <trkpt lat="48.80592" lon="13.50478">
        <ele>591</ele>
        <time>2022-05-24T23:19:51Z</time>
      </trkpt>
      <trkpt lat="48.80574" lon="13.50468">
        <ele>591</ele>
        <time>2022-05-24T23:19:55Z</time>
      </trkpt>
      <trkpt lat="48.80538" lon="13.5046">
        <ele>589</ele>
        <time>2022-05-24T23:20:01Z</time>
      </trkpt>
      <trkpt lat="48.80305" lon="13.5051">
        <ele>578</ele>
        <time>2022-05-24T23:20:43Z</time>
      </trkpt>
      <trkpt lat="48.80246" lon="13.50496">
        <ele>577</ele>
        <time>2022-05-24T23:20:54Z</time>
      </trkpt>
      <trkpt lat="48.80181" lon="13.5047">
        <ele>576</ele>
        <time>2022-05-24T23:21:06Z</time>
      </trkpt>
      <trkpt lat="48.80162" lon="13.50454">
        <ele>574</ele>
        <time>2022-05-24T23:21:10Z</time>
      </trkpt>
      <trkpt lat="48.80088" lon="13.50354">
        <ele>555</ele>
        <time>2022-05-24T23:21:27Z</time>
      </trkpt>
      <trkpt lat="48.80076" lon="13.50346">
        <ele>553</ele>
        <time>2022-05-24T23:21:30Z</time>
      </trkpt>
      <trkpt lat="48.79996" lon="13.50339">
        <ele>546</ele>
        <time>2022-05-24T23:21:44Z</time>
      </trkpt>
      <trkpt lat="48.79895" lon="13.50357">
        <ele>545</ele>
        <time>2022-05-24T23:22:02Z</time>
      </trkpt>
      <trkpt lat="48.79781" lon="13.50367">
        <ele>544</ele>
        <time>2022-05-24T23:22:22Z</time>
      </trkpt>
      <trkpt lat="48.79675" lon="13.50356">
        <ele>541</ele>
        <time>2022-05-24T23:22:41Z</time>
      </trkpt>
      <trkpt lat="48.79607" lon="13.50362">
        <ele>538</ele>
        <time>2022-05-24T23:22:53Z</time>
      </trkpt>
      <trkpt lat="48.79573" lon="13.50375">
        <ele>537</ele>
        <time>2022-05-24T23:23:00Z</time>
      </trkpt>
      <trkpt lat="48.7949" lon="13.50379">
        <ele>534</ele>
        <time>2022-05-24T23:23:14Z</time>
      </trkpt>
      <trkpt lat="48.79416" lon="13.50397">
        <ele>535</ele>
        <time>2022-05-24T23:23:28Z</time>
      </trkpt>
      <trkpt lat="48.79356" lon="13.50423">
        <ele>539</ele>
        <time>2022-05-24T23:23:39Z</time>
      </trkpt>
      <trkpt lat="48.79329" lon="13.50427">
        <ele>539</ele>
        <time>2022-05-24T23:23:44Z</time>
      </trkpt>
      <trkpt lat="48.79211" lon="13.5042">
        <ele>541</ele>
        <time>2022-05-24T23:24:05Z</time>
      </trkpt>
      <trkpt lat="48.79158" lon="13.50447">
        <ele>540</ele>
        <time>2022-05-24T23:24:15Z</time>
      </trkpt>
      <trkpt lat="48.79112" lon="13.50492">
        <ele>536</ele>
        <time>2022-05-24T23:24:24Z</time>
      </trkpt>
      <trkpt lat="48.79089" lon="13.50528">
        <ele>536</ele>
        <time>2022-05-24T23:24:30Z</time>
      </trkpt>
      <trkpt lat="48.79073" lon="13.50536">
        <ele>535</ele>
        <time>2022-05-24T23:24:33Z</time>
      </trkpt>
      <trkpt lat="48.79011" lon="13.50547">
        <ele>531</ele>
        <time>2022-05-24T23:24:44Z</time>
      </trkpt>
      <trkpt lat="48.78904" lon="13.5054">
        <ele>529</ele>
        <time>2022-05-24T23:25:03Z</time>
      </trkpt>
      <trkpt lat="48.7883" lon="13.50514">
        <ele>535</ele>
        <time>2022-05-24T23:25:17Z</time>
      </trkpt>
      <trkpt lat="48.78787" lon="13.5048">
        <ele>537</ele>
        <time>2022-05-24T23:25:25Z</time>
      </trkpt>
      <trkpt lat="48.78737" lon="13.50495">
        <ele>542</ele>
        <time>2022-05-24T23:25:35Z</time>
      </trkpt>
      <trkpt lat="48.78746" lon="13.50545">
        <ele>549</ele>
        <time>2022-05-24T23:25:41Z</time>
      </trkpt>
      <trkpt lat="48.78738" lon="13.50547">
        <ele>548</ele>
        <time>2022-05-24T23:25:42Z</time>
      </trkpt>
      <trkpt lat="48.787" lon="13.50585">
        <ele>549</ele>
        <time>2022-05-24T23:25:50Z</time>
      </trkpt>
      <trkpt lat="48.7866" lon="13.50616">
        <ele>552</ele>
        <time>2022-05-24T23:25:58Z</time>
      </trkpt>
      <trkpt lat="48.78451" lon="13.50893">
        <ele>542</ele>
        <time>2022-05-24T23:26:48Z</time>
      </trkpt>
      <trkpt lat="48.78429" lon="13.50914">
        <ele>540</ele>
        <time>2022-05-24T23:26:52Z</time>
      </trkpt>
      <trkpt lat="48.78347" lon="13.50964">
        <ele>535</ele>
        <time>2022-05-24T23:27:08Z</time>
      </trkpt>
      <trkpt lat="48.78261" lon="13.51046">
        <ele>533</ele>
        <time>2022-05-24T23:27:26Z</time>
      </trkpt>
      <trkpt lat="48.78234" lon="13.51058">
        <ele>532</ele>
        <time>2022-05-24T23:27:31Z</time>
      </trkpt>
      <trkpt lat="48.78222" lon="13.51059">
        <ele>531</ele>
        <time>2022-05-24T23:27:33Z</time>
      </trkpt>
      <trkpt lat="48.78187" lon="13.51054">
        <ele>529</ele>
        <time>2022-05-24T23:27:39Z</time>
      </trkpt>
      <trkpt lat="48.78076" lon="13.50984">
        <ele>528</ele>
        <time>2022-05-24T23:28:01Z</time>
      </trkpt>
      <trkpt lat="48.78024" lon="13.50984">
        <ele>532</ele>
        <time>2022-05-24T23:28:10Z</time>
      </trkpt>
      <trkpt lat="48.77823" lon="13.51061">
        <ele>530</ele>
        <time>2022-05-24T23:28:47Z</time>
      </trkpt>
      <trkpt lat="48.77758" lon="13.51095">
        <ele>524</ele>
        <time>2022-05-24T23:28:59Z</time>
      </trkpt>
      <trkpt lat="48.77738" lon="13.51099">
        <ele>523</ele>
        <time>2022-05-24T23:29:03Z</time>
      </trkpt>
      <trkpt lat="48.77692" lon="13.51158">
        <ele>520</ele>
        <time>2022-05-24T23:29:13Z</time>
      </trkpt>
      <trkpt lat="48.77651" lon="13.51198">
        <ele>521</ele>
        <time>2022-05-24T23:29:22Z</time>
      </trkpt>
      <trkpt lat="48.77616" lon="13.51215">
        <ele>522</ele>
        <time>2022-05-24T23:29:29Z</time>
      </trkpt>
      <trkpt lat="48.77573" lon="13.51215">
        <ele>523</ele>
        <time>2022-05-24T23:29:36Z</time>
      </trkpt>
      <trkpt lat="48.77514" lon="13.512">
        <ele>523</ele>
        <time>2022-05-24T23:29:47Z</time>
      </trkpt>
      <trkpt lat="48.7748" lon="13.51177">
        <ele>522</ele>
        <time>2022-05-24T23:29:54Z</time>
      </trkpt>
      <trkpt lat="48.77441" lon="13.51138">
        <ele>521</ele>
        <time>2022-05-24T23:30:02Z</time>
      </trkpt>
      <trkpt lat="48.77413" lon="13.5112">
        <ele>520</ele>
        <time>2022-05-24T23:30:07Z</time>
      </trkpt>
      <trkpt lat="48.77383" lon="13.51113">
        <ele>518</ele>
        <time>2022-05-24T23:30:13Z</time>
      </trkpt>
      <trkpt lat="48.77356" lon="13.51119">
        <ele>518</ele>
        <time>2022-05-24T23:30:18Z</time>
      </trkpt>
      <trkpt lat="48.77313" lon="13.51152">
        <ele>518</ele>
        <time>2022-05-24T23:30:26Z</time>
      </trkpt>
      <trkpt lat="48.77249" lon="13.5125">
        <ele>520</ele>
        <time>2022-05-24T23:30:42Z</time>
      </trkpt>
      <trkpt lat="48.77202" lon="13.51294">
        <ele>519</ele>
        <time>2022-05-24T23:30:52Z</time>
      </trkpt>
      <trkpt lat="48.77165" lon="13.51309">
        <ele>517</ele>
        <time>2022-05-24T23:30:59Z</time>
      </trkpt>
      <trkpt lat="48.77116" lon="13.51313">
        <ele>518</ele>
        <time>2022-05-24T23:31:08Z</time>
      </trkpt>
      <trkpt lat="48.7708" lon="13.51309">
        <ele>518</ele>
        <time>2022-05-24T23:31:14Z</time>
      </trkpt>
      <trkpt lat="48.77072" lon="13.51298">
        <ele>518</ele>
        <time>2022-05-24T23:31:16Z</time>
      </trkpt>
      <trkpt lat="48.77058" lon="13.51301">
        <ele>520</ele>
        <time>2022-05-24T23:31:18Z</time>
      </trkpt>
      <trkpt lat="48.77045" lon="13.51292">
        <ele>521</ele>
        <time>2022-05-24T23:31:21Z</time>
      </trkpt>
      <trkpt lat="48.77027" lon="13.51263">
        <ele>523</ele>
        <time>2022-05-24T23:31:26Z</time>
      </trkpt>
      <trkpt lat="48.77016" lon="13.51222">
        <ele>525</ele>
        <time>2022-05-24T23:31:31Z</time>
      </trkpt>
      <trkpt lat="48.76987" lon="13.51008">
        <ele>520</ele>
        <time>2022-05-24T23:31:57Z</time>
      </trkpt>
      <trkpt lat="48.76966" lon="13.50938">
        <ele>511</ele>
        <time>2022-05-24T23:32:06Z</time>
      </trkpt>
      <trkpt lat="48.76954" lon="13.50927">
        <ele>510</ele>
        <time>2022-05-24T23:32:08Z</time>
      </trkpt>
      <trkpt lat="48.76858" lon="13.50967">
        <ele>520</ele>
        <time>2022-05-24T23:32:26Z</time>
      </trkpt>
      <trkpt lat="48.76688" lon="13.51015">
        <ele>508</ele>
        <time>2022-05-24T23:32:57Z</time>
      </trkpt>
      <trkpt lat="48.76541" lon="13.51029">
        <ele>510</ele>
        <time>2022-05-24T23:33:23Z</time>
      </trkpt>
      <trkpt lat="48.76529" lon="13.50939">
        <ele>498</ele>
        <time>2022-05-24T23:33:33Z</time>
      </trkpt>
      <trkpt lat="48.76344" lon="13.50939">
        <ele>506</ele>
        <time>2022-05-24T23:34:06Z</time>
      </trkpt>
      <trkpt lat="48.76135" lon="13.50956">
        <ele>491</ele>
        <time>2022-05-24T23:34:44Z</time>
      </trkpt>
      <trkpt lat="48.76106" lon="13.50965">
        <ele>491</ele>
        <time>2022-05-24T23:34:49Z</time>
      </trkpt>
      <trkpt lat="48.76077" lon="13.5097">
        <ele>490</ele>
        <time>2022-05-24T23:34:54Z</time>
      </trkpt>
      <trkpt lat="48.75951" lon="13.51038">
        <ele>490</ele>
        <time>2022-05-24T23:35:18Z</time>
      </trkpt>
      <trkpt lat="48.75912" lon="13.51035">
        <ele>486</ele>
        <time>2022-05-24T23:35:25Z</time>
      </trkpt>
      <trkpt lat="48.75891" lon="13.51063">
        <ele>487</ele>
        <time>2022-05-24T23:35:30Z</time>
      </trkpt>
      <trkpt lat="48.75885" lon="13.51079">
        <ele>488</ele>
        <time>2022-05-24T23:35:32Z</time>
      </trkpt>
      <trkpt lat="48.7581" lon="13.51196">
        <ele>490</ele>
        <time>2022-05-24T23:35:51Z</time>
      </trkpt>
      <trkpt lat="48.75819" lon="13.5122">
        <ele>493</ele>
        <time>2022-05-24T23:35:54Z</time>
      </trkpt>
      <trkpt lat="48.75789" lon="13.51251">
        <ele>492</ele>
        <time>2022-05-24T23:36:01Z</time>
      </trkpt>
      <trkpt lat="48.75805" lon="13.51248">
        <ele>494</ele>
        <time>2022-05-24T23:36:04Z</time>
      </trkpt>
      <trkpt lat="48.75749" lon="13.51314">
        <ele>495</ele>
        <time>2022-05-24T23:36:16Z</time>
      </trkpt>
      <trkpt lat="48.75675" lon="13.51416">
        <ele>493</ele>
        <time>2022-05-24T23:36:34Z</time>
      </trkpt>
      <trkpt lat="48.75661" lon="13.51455">
        <ele>492</ele>
        <time>2022-05-24T23:36:39Z</time>
      </trkpt>
      <trkpt lat="48.75663" lon="13.51492">
        <ele>494</ele>
        <time>2022-05-24T23:36:44Z</time>
      </trkpt>
      <trkpt lat="48.75658" lon="13.51501">
        <ele>494</ele>
        <time>2022-05-24T23:36:45Z</time>
      </trkpt>
      <trkpt lat="48.75647" lon="13.515">
        <ele>492</ele>
        <time>2022-05-24T23:36:47Z</time>
      </trkpt>
      <trkpt lat="48.75639" lon="13.51492">
        <ele>490</ele>
        <time>2022-05-24T23:36:49Z</time>
      </trkpt>
      <trkpt lat="48.75619" lon="13.51557">
        <ele>490</ele>
        <time>2022-05-24T23:36:57Z</time>
      </trkpt>
      <trkpt lat="48.75595" lon="13.51607">
        <ele>490</ele>
        <time>2022-05-24T23:37:04Z</time>
      </trkpt>
      <trkpt lat="48.75562" lon="13.51657">
        <ele>490</ele>
        <time>2022-05-24T23:37:13Z</time>
      </trkpt>
      <trkpt lat="48.75526" lon="13.51696">
        <ele>489</ele>
        <time>2022-05-24T23:37:21Z</time>
      </trkpt>
      <trkpt lat="48.75488" lon="13.51727">
        <ele>488</ele>
        <time>2022-05-24T23:37:28Z</time>
      </trkpt>
      <trkpt lat="48.75421" lon="13.51754">
        <ele>487</ele>
        <time>2022-05-24T23:37:41Z</time>
      </trkpt>
      <trkpt lat="48.75398" lon="13.51755">
        <ele>487</ele>
        <time>2022-05-24T23:37:45Z</time>
      </trkpt>
      <trkpt lat="48.75353" lon="13.51735">
        <ele>486</ele>
        <time>2022-05-24T23:37:53Z</time>
      </trkpt>
      <trkpt lat="48.75303" lon="13.51688">
        <ele>484</ele>
        <time>2022-05-24T23:38:03Z</time>
      </trkpt>
      <trkpt lat="48.75244" lon="13.51648">
        <ele>482</ele>
        <time>2022-05-24T23:38:15Z</time>
      </trkpt>
      <trkpt lat="48.75217" lon="13.51647">
        <ele>481</ele>
        <time>2022-05-24T23:38:20Z</time>
      </trkpt>
      <trkpt lat="48.75181" lon="13.51671">
        <ele>481</ele>
        <time>2022-05-24T23:38:27Z</time>
      </trkpt>
      <trkpt lat="48.75131" lon="13.51751">
        <ele>482</ele>
        <time>2022-05-24T23:38:40Z</time>
      </trkpt>
      <trkpt lat="48.75036" lon="13.51882">
        <ele>483</ele>
        <time>2022-05-24T23:39:03Z</time>
      </trkpt>
      <trkpt lat="48.74976" lon="13.51959">
        <ele>482</ele>
        <time>2022-05-24T23:39:17Z</time>
      </trkpt>
      <trkpt lat="48.74904" lon="13.5201">
        <ele>479</ele>
        <time>2022-05-24T23:39:31Z</time>
      </trkpt>
      <trkpt lat="48.74871" lon="13.52012">
        <ele>478</ele>
        <time>2022-05-24T23:39:37Z</time>
      </trkpt>
      <trkpt lat="48.74837" lon="13.51994">
        <ele>475</ele>
        <time>2022-05-24T23:39:43Z</time>
      </trkpt>
      <trkpt lat="48.74786" lon="13.51946">
        <ele>470</ele>
        <time>2022-05-24T23:39:54Z</time>
      </trkpt>
      <trkpt lat="48.74762" lon="13.51936">
        <ele>469</ele>
        <time>2022-05-24T23:39:58Z</time>
      </trkpt>
      <trkpt lat="48.74736" lon="13.51936">
        <ele>468</ele>
        <time>2022-05-24T23:40:03Z</time>
      </trkpt>
      <trkpt lat="48.74673" lon="13.51956">
        <ele>466</ele>
        <time>2022-05-24T23:40:14Z</time>
      </trkpt>
      <trkpt lat="48.74649" lon="13.51958">
        <ele>464</ele>
        <time>2022-05-24T23:40:18Z</time>
      </trkpt>
      <trkpt lat="48.74626" lon="13.51954">
        <ele>463</ele>
        <time>2022-05-24T23:40:23Z</time>
      </trkpt>
      <trkpt lat="48.74553" lon="13.51914">
        <ele>456</ele>
        <time>2022-05-24T23:40:36Z</time>
      </trkpt>
      <trkpt lat="48.74523" lon="13.5191">
        <ele>455</ele>
        <time>2022-05-24T23:40:42Z</time>
      </trkpt>
      <trkpt lat="48.74352" lon="13.51993">
        <ele>446</ele>
        <time>2022-05-24T23:41:14Z</time>
      </trkpt>
      <trkpt lat="48.74303" lon="13.52024">
        <ele>446</ele>
        <time>2022-05-24T23:41:23Z</time>
      </trkpt>
      <trkpt lat="48.74262" lon="13.52039">
        <ele>443</ele>
        <time>2022-05-24T23:41:31Z</time>
      </trkpt>
      <trkpt lat="48.74188" lon="13.52078">
        <ele>437</ele>
        <time>2022-05-24T23:41:45Z</time>
      </trkpt>
      <trkpt lat="48.74164" lon="13.52076">
        <ele>435</ele>
        <time>2022-05-24T23:41:49Z</time>
      </trkpt>
      <trkpt lat="48.74145" lon="13.521">
        <ele>435</ele>
        <time>2022-05-24T23:41:53Z</time>
      </trkpt>
      <trkpt lat="48.74082" lon="13.52136">
        <ele>433</ele>
        <time>2022-05-24T23:42:05Z</time>
      </trkpt>
      <trkpt lat="48.74057" lon="13.52168">
        <ele>433</ele>
        <time>2022-05-24T23:42:11Z</time>
      </trkpt>
      <trkpt lat="48.74035" lon="13.52229">
        <ele>435</ele>
        <time>2022-05-24T23:42:19Z</time>
      </trkpt>
      <trkpt lat="48.74023" lon="13.5227">
        <ele>435</ele>
        <time>2022-05-24T23:42:24Z</time>
      </trkpt>
      <trkpt lat="48.74015" lon="13.52329">
        <ele>435</ele>
        <time>2022-05-24T23:42:32Z</time>
      </trkpt>
      <trkpt lat="48.73946" lon="13.52311">
        <ele>435</ele>
        <time>2022-05-24T23:42:44Z</time>
      </trkpt>
      <trkpt lat="48.73807" lon="13.5231">
        <ele>429</ele>
        <time>2022-05-24T23:43:09Z</time>
      </trkpt>
      <trkpt lat="48.73295" lon="13.52324">
        <ele>409</ele>
        <time>2022-05-24T23:44:40Z</time>
      </trkpt>
      <trkpt lat="48.73275" lon="13.52318">
        <ele>407</ele>
        <time>2022-05-24T23:44:43Z</time>
      </trkpt>
      <trkpt lat="48.73254" lon="13.52308">
        <ele>405</ele>
        <time>2022-05-24T23:44:47Z</time>
      </trkpt>
      <trkpt lat="48.73237" lon="13.52334">
        <ele>405</ele>
        <time>2022-05-24T23:44:52Z</time>
      </trkpt>
      <trkpt lat="48.73225" lon="13.5234">
        <ele>405</ele>
        <time>2022-05-24T23:44:54Z</time>
      </trkpt>
      <trkpt lat="48.73076" lon="13.5237">
        <ele>394</ele>
        <time>2022-05-24T23:45:21Z</time>
      </trkpt>
      <trkpt lat="48.73015" lon="13.52363">
        <ele>394</ele>
        <time>2022-05-24T23:45:32Z</time>
      </trkpt>
      <trkpt lat="48.72972" lon="13.5235">
        <ele>395</ele>
        <time>2022-05-24T23:45:39Z</time>
      </trkpt>
      <trkpt lat="48.72913" lon="13.52316">
        <ele>395</ele>
        <time>2022-05-24T23:45:51Z</time>
      </trkpt>
      <trkpt lat="48.72893" lon="13.52312">
        <ele>394</ele>
        <time>2022-05-24T23:45:54Z</time>
      </trkpt>
      <trkpt lat="48.72858" lon="13.52319">
        <ele>393</ele>
        <time>2022-05-24T23:46:00Z</time>
      </trkpt>
      <trkpt lat="48.72826" lon="13.52337">
        <ele>392</ele>
        <time>2022-05-24T23:46:07Z</time>
      </trkpt>
      <trkpt lat="48.72759" lon="13.52454">
        <ele>393</ele>
        <time>2022-05-24T23:46:25Z</time>
      </trkpt>
      <trkpt lat="48.72741" lon="13.52469">
        <ele>394</ele>
        <time>2022-05-24T23:46:28Z</time>
      </trkpt>
      <trkpt lat="48.72716" lon="13.52477">
        <ele>394</ele>
        <time>2022-05-24T23:46:33Z</time>
      </trkpt>
      <trkpt lat="48.72679" lon="13.52478">
        <ele>395</ele>
        <time>2022-05-24T23:46:39Z</time>
      </trkpt>
      <trkpt lat="48.72641" lon="13.52461">
        <ele>396</ele>
        <time>2022-05-24T23:46:47Z</time>
      </trkpt>
      <trkpt lat="48.72563" lon="13.52412">
        <ele>398</ele>
        <time>2022-05-24T23:47:02Z</time>
      </trkpt>
      <trkpt lat="48.72523" lon="13.52413">
        <ele>398</ele>
        <time>2022-05-24T23:47:09Z</time>
      </trkpt>
      <trkpt lat="48.72507" lon="13.52401">
        <ele>399</ele>
        <time>2022-05-24T23:47:12Z</time>
      </trkpt>
      <trkpt lat="48.72494" lon="13.52336">
        <ele>403</ele>
        <time>2022-05-24T23:47:20Z</time>
      </trkpt>
      <trkpt lat="48.72496" lon="13.52165">
        <ele>405</ele>
        <time>2022-05-24T23:47:40Z</time>
      </trkpt>
      <trkpt lat="48.72519" lon="13.51989">
        <ele>405</ele>
        <time>2022-05-24T23:48:01Z</time>
      </trkpt>
      <trkpt lat="48.72518" lon="13.51931">
        <ele>406</ele>
        <time>2022-05-24T23:48:08Z</time>
      </trkpt>
      <trkpt lat="48.72502" lon="13.51892">
        <ele>408</ele>
        <time>2022-05-24T23:48:13Z</time>
      </trkpt>
      <trkpt lat="48.7247" lon="13.51854">
        <ele>408</ele>
        <time>2022-05-24T23:48:20Z</time>
      </trkpt>
      <trkpt lat="48.72382" lon="13.51793">
        <ele>416</ele>
        <time>2022-05-24T23:48:38Z</time>
      </trkpt>
      <trkpt lat="48.72322" lon="13.51779">
        <ele>419</ele>
        <time>2022-05-24T23:48:48Z</time>
      </trkpt>
      <trkpt lat="48.72197" lon="13.51769">
        <ele>427</ele>
        <time>2022-05-24T23:49:11Z</time>
      </trkpt>
      <trkpt lat="48.71984" lon="13.51787">
        <ele>451</ele>
        <time>2022-05-24T23:49:49Z</time>
      </trkpt>
      <trkpt lat="48.71955" lon="13.51747">
        <ele>454</ele>
        <time>2022-05-24T23:49:56Z</time>
      </trkpt>
      <trkpt lat="48.71937" lon="13.51694">
        <ele>455</ele>
        <time>2022-05-24T23:50:03Z</time>
      </trkpt>
      <trkpt lat="48.71905" lon="13.51578">
        <ele>454</ele>
        <time>2022-05-24T23:50:17Z</time>
      </trkpt>
      <trkpt lat="48.71851" lon="13.51419">
        <ele>458</ele>
        <time>2022-05-24T23:50:38Z</time>
      </trkpt>
      <trkpt lat="48.71824" lon="13.51374">
        <ele>459</ele>
        <time>2022-05-24T23:50:45Z</time>
      </trkpt>
      <trkpt lat="48.71629" lon="13.51264">
        <ele>447</ele>
        <time>2022-05-24T23:51:23Z</time>
      </trkpt>
      <trkpt lat="48.71592" lon="13.51238">
        <ele>441</ele>
        <time>2022-05-24T23:51:30Z</time>
      </trkpt>
      <trkpt lat="48.71568" lon="13.51207">
        <ele>440</ele>
        <time>2022-05-24T23:51:35Z</time>
      </trkpt>
      <trkpt lat="48.71475" lon="13.50887">
        <ele>425</ele>
        <time>2022-05-24T23:52:16Z</time>
      </trkpt>
      <trkpt lat="48.71362" lon="13.50571">
        <ele>429</ele>
        <time>2022-05-24T23:52:59Z</time>
      </trkpt>
      <trkpt lat="48.71315" lon="13.50584">
        <ele>433</ele>
        <time>2022-05-24T23:53:07Z</time>
      </trkpt>
      <trkpt lat="48.71288" lon="13.50581">
        <ele>436</ele>
        <time>2022-05-24T23:53:12Z</time>
      </trkpt>
      <trkpt lat="48.71234" lon="13.50543">
        <ele>445</ele>
        <time>2022-05-24T23:53:23Z</time>
      </trkpt>
      <trkpt lat="48.71139" lon="13.5045">
        <ele>477</ele>
        <time>2022-05-24T23:53:43Z</time>
      </trkpt>
      <trkpt lat="48.71066" lon="13.50407">
        <ele>488</ele>
        <time>2022-05-24T23:53:57Z</time>
      </trkpt>
      <trkpt lat="48.7103" lon="13.50409">
        <ele>490</ele>
        <time>2022-05-24T23:54:03Z</time>
      </trkpt>
      <trkpt lat="48.70978" lon="13.50439">
        <ele>491</ele>
        <time>2022-05-24T23:54:13Z</time>
      </trkpt>
      <trkpt lat="48.70953" lon="13.50446">
        <ele>491</ele>
        <time>2022-05-24T23:54:17Z</time>
      </trkpt>
      <trkpt lat="48.70881" lon="13.50431">
        <ele>494</ele>
        <time>2022-05-24T23:54:30Z</time>
      </trkpt>
      <trkpt lat="48.7075" lon="13.50386">
        <ele>478</ele>
        <time>2022-05-24T23:54:54Z</time>
      </trkpt>
      <trkpt lat="48.70602" lon="13.50389">
        <ele>469</ele>
        <time>2022-05-24T23:55:21Z</time>
      </trkpt>
      <trkpt lat="48.70453" lon="13.50375">
        <ele>472</ele>
        <time>2022-05-24T23:55:47Z</time>
      </trkpt>
      <trkpt lat="48.70404" lon="13.50373">
        <ele>475</ele>
        <time>2022-05-24T23:55:56Z</time>
      </trkpt>
      <trkpt lat="48.70381" lon="13.50383">
        <ele>476</ele>
        <time>2022-05-24T23:56:00Z</time>
      </trkpt>
      <trkpt lat="48.70337" lon="13.50387">
        <ele>479</ele>
        <time>2022-05-24T23:56:08Z</time>
      </trkpt>
      <trkpt lat="48.70311" lon="13.50401">
        <ele>481</ele>
        <time>2022-05-24T23:56:13Z</time>
      </trkpt>
      <trkpt lat="48.70285" lon="13.50398">
        <ele>481</ele>
        <time>2022-05-24T23:56:18Z</time>
      </trkpt>
      <trkpt lat="48.70016" lon="13.50946">
        <ele>487</ele>
        <time>2022-05-24T23:57:38Z</time>
      </trkpt>
      <trkpt lat="48.69999" lon="13.50991">
        <ele>486</ele>
        <time>2022-05-24T23:57:44Z</time>
      </trkpt>
      <trkpt lat="48.69984" lon="13.50983">
        <ele>487</ele>
        <time>2022-05-24T23:57:47Z</time>
      </trkpt>
      <trkpt lat="48.69966" lon="13.50999">
        <ele>487</ele>
        <time>2022-05-24T23:57:50Z</time>
      </trkpt>
      <trkpt lat="48.69955" lon="13.50999">
        <ele>488</ele>
        <time>2022-05-24T23:57:52Z</time>
      </trkpt>
      <trkpt lat="48.6981" lon="13.50924">
        <ele>492</ele>
        <time>2022-05-24T23:58:20Z</time>
      </trkpt>
      <trkpt lat="48.69771" lon="13.50912">
        <ele>494</ele>
        <time>2022-05-24T23:58:27Z</time>
      </trkpt>
      <trkpt lat="48.69682" lon="13.50903">
        <ele>495</ele>
        <time>2022-05-24T23:58:43Z</time>
      </trkpt>
      <trkpt lat="48.69555" lon="13.50915">
        <ele>490</ele>
        <time>2022-05-24T23:59:05Z</time>
      </trkpt>
      <trkpt lat="48.69495" lon="13.5093">
        <ele>486</ele>
        <time>2022-05-24T23:59:16Z</time>
      </trkpt>
      <trkpt lat="48.69477" lon="13.50926">
        <ele>486</ele>
        <time>2022-05-24T23:59:19Z</time>
      </trkpt>
      <trkpt lat="48.69346" lon="13.50824">
        <ele>487</ele>
        <time>2022-05-24T23:59:45Z</time>
      </trkpt>
      <trkpt lat="48.69282" lon="13.50792">
        <ele>484</ele>
        <time>2022-05-24T23:59:57Z</time>
      </trkpt>
      <trkpt lat="48.69248" lon="13.50811">
        <ele>482</ele>
        <time>2022-05-25T00:00:04Z</time>
      </trkpt>
      <trkpt lat="48.69193" lon="13.50889">
        <ele>480</ele>
        <time>2022-05-25T00:00:17Z</time>
      </trkpt>
      <trkpt lat="48.69175" lon="13.50901">
        <ele>480</ele>
        <time>2022-05-25T00:00:21Z</time>
      </trkpt>
      <trkpt lat="48.69132" lon="13.5091">
        <ele>480</ele>
        <time>2022-05-25T00:00:29Z</time>
      </trkpt>
      <trkpt lat="48.69124" lon="13.50901">
        <ele>479</ele>
        <time>2022-05-25T00:00:30Z</time>
      </trkpt>
      <trkpt lat="48.69117" lon="13.50913">
        <ele>480</ele>
        <time>2022-05-25T00:00:32Z</time>
      </trkpt>
      <trkpt lat="48.69097" lon="13.5098">
        <ele>483</ele>
        <time>2022-05-25T00:00:41Z</time>
      </trkpt>
      <trkpt lat="48.69066" lon="13.51066">
        <ele>484</ele>
        <time>2022-05-25T00:00:52Z</time>
      </trkpt>
      <trkpt lat="48.69036" lon="13.51135">
        <ele>483</ele>
        <time>2022-05-25T00:01:02Z</time>
      </trkpt>
      <trkpt lat="48.69015" lon="13.51171">
        <ele>481</ele>
        <time>2022-05-25T00:01:08Z</time>
      </trkpt>
      <trkpt lat="48.6896" lon="13.51237">
        <ele>477</ele>
        <time>2022-05-25T00:01:20Z</time>
      </trkpt>
      <trkpt lat="48.6873" lon="13.51475">
        <ele>473</ele>
        <time>2022-05-25T00:02:10Z</time>
      </trkpt>
      <trkpt lat="48.68544" lon="13.51586">
        <ele>472</ele>
        <time>2022-05-25T00:02:45Z</time>
      </trkpt>
      <trkpt lat="48.68466" lon="13.51657">
        <ele>471</ele>
        <time>2022-05-25T00:03:01Z</time>
      </trkpt>
      <trkpt lat="48.68418" lon="13.51717">
        <ele>470</ele>
        <time>2022-05-25T00:03:13Z</time>
      </trkpt>
      <trkpt lat="48.68347" lon="13.5166">
        <ele>470</ele>
        <time>2022-05-25T00:03:27Z</time>
      </trkpt>
      <trkpt lat="48.68303" lon="13.51632">
        <ele>471</ele>
        <time>2022-05-25T00:03:35Z</time>
      </trkpt>
      <trkpt lat="48.68261" lon="13.51619">
        <ele>472</ele>
        <time>2022-05-25T00:03:43Z</time>
      </trkpt>
      <trkpt lat="48.6823" lon="13.51616">
        <ele>472</ele>
        <time>2022-05-25T00:03:48Z</time>
      </trkpt>
      <trkpt lat="48.6817" lon="13.51625">
        <ele>473</ele>
        <time>2022-05-25T00:03:59Z</time>
      </trkpt>
      <trkpt lat="48.68144" lon="13.51636">
        <ele>473</ele>
        <time>2022-05-25T00:04:04Z</time>
      </trkpt>
      <trkpt lat="48.67971" lon="13.51745">
        <ele>469</ele>
        <time>2022-05-25T00:04:37Z</time>
      </trkpt>
      <trkpt lat="48.67916" lon="13.51775">
        <ele>469</ele>
        <time>2022-05-25T00:04:48Z</time>
      </trkpt>
      <trkpt lat="48.67892" lon="13.51777">
        <ele>469</ele>
        <time>2022-05-25T00:04:52Z</time>
      </trkpt>
      <trkpt lat="48.67865" lon="13.51769">
        <ele>469</ele>
        <time>2022-05-25T00:04:57Z</time>
      </trkpt>
      <trkpt lat="48.67801" lon="13.51718">
        <ele>467</ele>
        <time>2022-05-25T00:05:10Z</time>
      </trkpt>
      <trkpt lat="48.67785" lon="13.51709">
        <ele>466</ele>
        <time>2022-05-25T00:05:13Z</time>
      </trkpt>
      <trkpt lat="48.67758" lon="13.51707">
        <ele>466</ele>
        <time>2022-05-25T00:05:18Z</time>
      </trkpt>
      <trkpt lat="48.67678" lon="13.51648">
        <ele>464</ele>
        <time>2022-05-25T00:05:33Z</time>
      </trkpt>
      <trkpt lat="48.67499" lon="13.51548">
        <ele>470</ele>
        <time>2022-05-25T00:06:07Z</time>
      </trkpt>
      <trkpt lat="48.67465" lon="13.51534">
        <ele>477</ele>
        <time>2022-05-25T00:06:14Z</time>
      </trkpt>
      <trkpt lat="48.67444" lon="13.51537">
        <ele>480</ele>
        <time>2022-05-25T00:06:17Z</time>
      </trkpt>
      <trkpt lat="48.67425" lon="13.51551">
        <ele>481</ele>
        <time>2022-05-25T00:06:21Z</time>
      </trkpt>
      <trkpt lat="48.67372" lon="13.51631">
        <ele>477</ele>
        <time>2022-05-25T00:06:35Z</time>
      </trkpt>
      <trkpt lat="48.67297" lon="13.51703">
        <ele>476</ele>
        <time>2022-05-25T00:06:50Z</time>
      </trkpt>
      <trkpt lat="48.67252" lon="13.51729">
        <ele>475</ele>
        <time>2022-05-25T00:06:59Z</time>
      </trkpt>
      <trkpt lat="48.6716" lon="13.51768">
        <ele>475</ele>
        <time>2022-05-25T00:07:16Z</time>
      </trkpt>
      <trkpt lat="48.66822" lon="13.51771">
        <ele>480</ele>
        <time>2022-05-25T00:08:16Z</time>
      </trkpt>
      <trkpt lat="48.66816" lon="13.51887">
        <ele>477</ele>
        <time>2022-05-25T00:08:30Z</time>
      </trkpt>
      <trkpt lat="48.66665" lon="13.51823">
        <ele>476</ele>
        <time>2022-05-25T00:08:58Z</time>
      </trkpt>
      <trkpt lat="48.66655" lon="13.51824">
        <ele>476</ele>
        <time>2022-05-25T00:08:59Z</time>
      </trkpt>
      <trkpt lat="48.66522" lon="13.51762">
        <ele>473</ele>
        <time>2022-05-25T00:09:24Z</time>
      </trkpt>
      <trkpt lat="48.66499" lon="13.51736">
        <ele>473</ele>
        <time>2022-05-25T00:09:29Z</time>
      </trkpt>
      <trkpt lat="48.66449" lon="13.5164">
        <ele>472</ele>
        <time>2022-05-25T00:09:44Z</time>
      </trkpt>
      <trkpt lat="48.66429" lon="13.51612">
        <ele>471</ele>
        <time>2022-05-25T00:09:48Z</time>
      </trkpt>
      <trkpt lat="48.66307" lon="13.51506">
        <ele>468</ele>
        <time>2022-05-25T00:10:13Z</time>
      </trkpt>
      <trkpt lat="48.66264" lon="13.51461">
        <ele>467</ele>
        <time>2022-05-25T00:10:23Z</time>
      </trkpt>
      <trkpt lat="48.66195" lon="13.51362">
        <ele>467</ele>
        <time>2022-05-25T00:10:40Z</time>
      </trkpt>
      <trkpt lat="48.66183" lon="13.51371">
        <ele>467</ele>
        <time>2022-05-25T00:10:42Z</time>
      </trkpt>
      <trkpt lat="48.66125" lon="13.51389">
        <ele>469</ele>
        <time>2022-05-25T00:10:53Z</time>
      </trkpt>
      <trkpt lat="48.66105" lon="13.51407">
        <ele>470</ele>
        <time>2022-05-25T00:10:57Z</time>
      </trkpt>
      <trkpt lat="48.66081" lon="13.51446">
        <ele>470</ele>
        <time>2022-05-25T00:11:03Z</time>
      </trkpt>
      <trkpt lat="48.66059" lon="13.5151">
        <ele>469</ele>
        <time>2022-05-25T00:11:12Z</time>
      </trkpt>
      <trkpt lat="48.66034" lon="13.51596">
        <ele>467</ele>
        <time>2022-05-25T00:11:23Z</time>
      </trkpt>
      <trkpt lat="48.66005" lon="13.51631">
        <ele>467</ele>
        <time>2022-05-25T00:11:29Z</time>
      </trkpt>
      <trkpt lat="48.65962" lon="13.51632">
        <ele>463</ele>
        <time>2022-05-25T00:11:37Z</time>
      </trkpt>
      <trkpt lat="48.65664" lon="13.51892">
        <ele>454</ele>
        <time>2022-05-25T00:12:38Z</time>
      </trkpt>
      <trkpt lat="48.6563" lon="13.51905">
        <ele>455</ele>
        <time>2022-05-25T00:12:44Z</time>
      </trkpt>
      <trkpt lat="48.65425" lon="13.51936">
        <ele>447</ele>
        <time>2022-05-25T00:13:21Z</time>
      </trkpt>
      <trkpt lat="48.65364" lon="13.51966">
        <ele>443</ele>
        <time>2022-05-25T00:13:32Z</time>
      </trkpt>
      <trkpt lat="48.65301" lon="13.5198">
        <ele>441</ele>
        <time>2022-05-25T00:13:44Z</time>
      </trkpt>
      <trkpt lat="48.65254" lon="13.51999">
        <ele>440</ele>
        <time>2022-05-25T00:13:52Z</time>
      </trkpt>
      <trkpt lat="48.65159" lon="13.52026">
        <ele>445</ele>
        <time>2022-05-25T00:14:09Z</time>
      </trkpt>
      <trkpt lat="48.65097" lon="13.52021">
        <ele>444</ele>
        <time>2022-05-25T00:14:21Z</time>
      </trkpt>
      <trkpt lat="48.65058" lon="13.52009">
        <ele>443</ele>
        <time>2022-05-25T00:14:28Z</time>
      </trkpt>
      <trkpt lat="48.65039" lon="13.52014">
        <ele>443</ele>
        <time>2022-05-25T00:14:31Z</time>
      </trkpt>
      <trkpt lat="48.64929" lon="13.52185">
        <ele>443</ele>
        <time>2022-05-25T00:14:59Z</time>
      </trkpt>
      <trkpt lat="48.64947" lon="13.52241">
        <ele>444</ele>
        <time>2022-05-25T00:15:06Z</time>
      </trkpt>
      <trkpt lat="48.6495" lon="13.52269">
        <ele>444</ele>
        <time>2022-05-25T00:15:10Z</time>
      </trkpt>
      <trkpt lat="48.64947" lon="13.5229">
        <ele>443</ele>
        <time>2022-05-25T00:15:12Z</time>
      </trkpt>
      <trkpt lat="48.64853" lon="13.52507">
        <ele>430</ele>
        <time>2022-05-25T00:15:43Z</time>
      </trkpt>
      <trkpt lat="48.64817" lon="13.52642">
        <ele>421</ele>
        <time>2022-05-25T00:16:00Z</time>
      </trkpt>
      <trkpt lat="48.648" lon="13.52666">
        <ele>418</ele>
        <time>2022-05-25T00:16:04Z</time>
      </trkpt>
      <trkpt lat="48.64771" lon="13.52672">
        <ele>417</ele>
        <time>2022-05-25T00:16:09Z</time>
      </trkpt>
      <trkpt lat="48.64681" lon="13.52666">
        <ele>415</ele>
        <time>2022-05-25T00:16:25Z</time>
      </trkpt>
      <trkpt lat="48.64661" lon="13.52672">
        <ele>416</ele>
        <time>2022-05-25T00:16:29Z</time>
      </trkpt>
      <trkpt lat="48.6462" lon="13.52755">
        <ele>421</ele>
        <time>2022-05-25T00:16:41Z</time>
      </trkpt>
      <trkpt lat="48.64658" lon="13.52803">
        <ele>419</ele>
        <time>2022-05-25T00:16:50Z</time>
      </trkpt>
      <trkpt lat="48.64667" lon="13.52829">
        <ele>419</ele>
        <time>2022-05-25T00:16:53Z</time>
      </trkpt>
      <trkpt lat="48.64643" lon="13.53143">
        <ele>436</ele>
        <time>2022-05-25T00:17:31Z</time>
      </trkpt>
      <trkpt lat="48.64641" lon="13.53305">
        <ele>436</ele>
        <time>2022-05-25T00:17:50Z</time>
      </trkpt>
      <trkpt lat="48.64649" lon="13.53404">
        <ele>441</ele>
        <time>2022-05-25T00:18:01Z</time>
      </trkpt>
      <trkpt lat="48.64673" lon="13.53518">
        <ele>444</ele>
        <time>2022-05-25T00:18:15Z</time>
      </trkpt>
      <trkpt lat="48.6461" lon="13.53533">
        <ele>443</ele>
        <time>2022-05-25T00:18:27Z</time>
      </trkpt>
      <trkpt lat="48.6458" lon="13.53533">
        <ele>443</ele>
        <time>2022-05-25T00:18:32Z</time>
      </trkpt>
      <trkpt lat="48.64546" lon="13.53509">
        <ele>450</ele>
        <time>2022-05-25T00:18:39Z</time>
      </trkpt>
      <trkpt lat="48.64512" lon="13.53476">
        <ele>454</ele>
        <time>2022-05-25T00:18:46Z</time>
      </trkpt>
      <trkpt lat="48.64473" lon="13.53464">
        <ele>456</ele>
        <time>2022-05-25T00:18:53Z</time>
      </trkpt>
      <trkpt lat="48.64427" lon="13.53495">
        <ele>458</ele>
        <time>2022-05-25T00:19:02Z</time>
      </trkpt>
      <trkpt lat="48.64404" lon="13.53534">
        <ele>458</ele>
        <time>2022-05-25T00:19:08Z</time>
      </trkpt>
      <trkpt lat="48.644" lon="13.5362">
        <ele>460</ele>
        <time>2022-05-25T00:19:18Z</time>
      </trkpt>
      <trkpt lat="48.64403" lon="13.53702">
        <ele>463</ele>
        <time>2022-05-25T00:19:28Z</time>
      </trkpt>
      <trkpt lat="48.64395" lon="13.53779">
        <ele>465</ele>
        <time>2022-05-25T00:19:37Z</time>
      </trkpt>
      <trkpt lat="48.64369" lon="13.53881">
        <ele>467</ele>
        <time>2022-05-25T00:19:50Z</time>
      </trkpt>
      <trkpt lat="48.64302" lon="13.54018">
        <ele>464</ele>
        <time>2022-05-25T00:20:10Z</time>
      </trkpt>
      <trkpt lat="48.64233" lon="13.54279">
        <ele>464</ele>
        <time>2022-05-25T00:20:43Z</time>
      </trkpt>
      <trkpt lat="48.64149" lon="13.54314">
        <ele>458</ele>
        <time>2022-05-25T00:20:58Z</time>
      </trkpt>
      <trkpt lat="48.64001" lon="13.54461">
        <ele>462</ele>
        <time>2022-05-25T00:21:30Z</time>
      </trkpt>
      <trkpt lat="48.6397" lon="13.545">
        <ele>464</ele>
        <time>2022-05-25T00:21:37Z</time>
      </trkpt>
      <trkpt lat="48.63915" lon="13.54597">
        <ele>466</ele>
        <time>2022-05-25T00:21:52Z</time>
      </trkpt>
      <trkpt lat="48.6388" lon="13.54651">
        <ele>465</ele>
        <time>2022-05-25T00:22:01Z</time>
      </trkpt>
      <trkpt lat="48.63827" lon="13.54713">
        <ele>467</ele>
        <time>2022-05-25T00:22:13Z</time>
      </trkpt>
      <trkpt lat="48.63773" lon="13.54771">
        <ele>468</ele>
        <time>2022-05-25T00:22:25Z</time>
      </trkpt>
      <trkpt lat="48.63757" lon="13.5481">
        <ele>469</ele>
        <time>2022-05-25T00:22:30Z</time>
      </trkpt>
      <trkpt lat="48.63727" lon="13.5486">
        <ele>468</ele>
        <time>2022-05-25T00:22:38Z</time>
      </trkpt>
      <trkpt lat="48.63604" lon="13.54958">
        <ele>461</ele>
        <time>2022-05-25T00:23:03Z</time>
      </trkpt>
      <trkpt lat="48.6358" lon="13.54968">
        <ele>460</ele>
        <time>2022-05-25T00:23:07Z</time>
      </trkpt>
      <trkpt lat="48.63534" lon="13.54979">
        <ele>460</ele>
        <time>2022-05-25T00:23:16Z</time>
      </trkpt>
      <trkpt lat="48.63443" lon="13.54981">
        <ele>462</ele>
        <time>2022-05-25T00:23:32Z</time>
      </trkpt>
      <trkpt lat="48.63438" lon="13.55022">
        <ele>462</ele>
        <time>2022-05-25T00:23:37Z</time>
      </trkpt>
      <trkpt lat="48.63425" lon="13.55054">
        <ele>462</ele>
        <time>2022-05-25T00:23:41Z</time>
      </trkpt>
      <trkpt lat="48.63403" lon="13.55066">
        <ele>462</ele>
        <time>2022-05-25T00:23:45Z</time>
      </trkpt>
      <trkpt lat="48.63364" lon="13.5506">
        <ele>461</ele>
        <time>2022-05-25T00:23:52Z</time>
      </trkpt>
      <trkpt lat="48.6335" lon="13.55061">
        <ele>461</ele>
        <time>2022-05-25T00:23:55Z</time>
      </trkpt>
      <trkpt lat="48.63324" lon="13.5507">
        <ele>460</ele>
        <time>2022-05-25T00:23:59Z</time>
      </trkpt>
      <trkpt lat="48.63306" lon="13.55085">
        <ele>460</ele>
        <time>2022-05-25T00:24:03Z</time>
      </trkpt>
      <trkpt lat="48.63252" lon="13.55151">
        <ele>459</ele>
        <time>2022-05-25T00:24:15Z</time>
      </trkpt>
      <trkpt lat="48.63187" lon="13.55261">
        <ele>458</ele>
        <time>2022-05-25T00:24:33Z</time>
      </trkpt>
      <trkpt lat="48.63118" lon="13.55406">
        <ele>456</ele>
        <time>2022-05-25T00:24:54Z</time>
      </trkpt>
      <trkpt lat="48.63098" lon="13.5543">
        <ele>456</ele>
        <time>2022-05-25T00:24:58Z</time>
      </trkpt>
      <trkpt lat="48.63039" lon="13.55467">
        <ele>455</ele>
        <time>2022-05-25T00:25:10Z</time>
      </trkpt>
      <trkpt lat="48.63023" lon="13.55484">
        <ele>455</ele>
        <time>2022-05-25T00:25:13Z</time>
      </trkpt>
      <trkpt lat="48.63012" lon="13.55516">
        <ele>455</ele>
        <time>2022-05-25T00:25:17Z</time>
      </trkpt>
      <trkpt lat="48.62955" lon="13.55803">
        <ele>453</ele>
        <time>2022-05-25T00:25:53Z</time>
      </trkpt>
      <trkpt lat="48.62926" lon="13.55926">
        <ele>452</ele>
        <time>2022-05-25T00:26:08Z</time>
      </trkpt>
      <trkpt lat="48.62925" lon="13.56101">
        <ele>451</ele>
        <time>2022-05-25T00:26:29Z</time>
      </trkpt>
      <trkpt lat="48.62918" lon="13.56124">
        <ele>451</ele>
        <time>2022-05-25T00:26:32Z</time>
      </trkpt>
      <trkpt lat="48.629" lon="13.5613">
        <ele>451</ele>
        <time>2022-05-25T00:26:35Z</time>
      </trkpt>
      <trkpt lat="48.62812" lon="13.56117">
        <ele>451</ele>
        <time>2022-05-25T00:26:51Z</time>
      </trkpt>
      <trkpt lat="48.62786" lon="13.5607">
        <ele>449</ele>
        <time>2022-05-25T00:26:58Z</time>
      </trkpt>
      <trkpt lat="48.6272" lon="13.55927">
        <ele>441</ele>
        <time>2022-05-25T00:27:18Z</time>
      </trkpt>
      <trkpt lat="48.62709" lon="13.55912">
        <ele>440</ele>
        <time>2022-05-25T00:27:21Z</time>
      </trkpt>
      <trkpt lat="48.62669" lon="13.55864">
        <ele>441</ele>
        <time>2022-05-25T00:27:30Z</time>
      </trkpt>
      <trkpt lat="48.62584" lon="13.55799">
        <ele>440</ele>
        <time>2022-05-25T00:27:47Z</time>
      </trkpt>
      <trkpt lat="48.62541" lon="13.55752">
        <ele>439</ele>
        <time>2022-05-25T00:27:56Z</time>
      </trkpt>
      <trkpt lat="48.6254" lon="13.5573">
        <ele>440</ele>
        <time>2022-05-25T00:27:59Z</time>
      </trkpt>
      <trkpt lat="48.62513" lon="13.55688">
        <ele>440</ele>
        <time>2022-05-25T00:28:06Z</time>
      </trkpt>
      <trkpt lat="48.625" lon="13.55679">
        <ele>439</ele>
        <time>2022-05-25T00:28:08Z</time>
      </trkpt>
      <trkpt lat="48.62477" lon="13.55669">
        <ele>441</ele>
        <time>2022-05-25T00:28:13Z</time>
      </trkpt>
      <trkpt lat="48.6246" lon="13.55632">
        <ele>442</ele>
        <time>2022-05-25T00:28:18Z</time>
      </trkpt>
      <trkpt lat="48.62456" lon="13.55614">
        <ele>443</ele>
        <time>2022-05-25T00:28:20Z</time>
      </trkpt>
      <trkpt lat="48.62431" lon="13.55609">
        <ele>443</ele>
        <time>2022-05-25T00:28:25Z</time>
      </trkpt>
      <trkpt lat="48.62386" lon="13.55587">
        <ele>446</ele>
        <time>2022-05-25T00:28:33Z</time>
      </trkpt>
      <trkpt lat="48.62345" lon="13.55588">
        <ele>449</ele>
        <time>2022-05-25T00:28:40Z</time>
      </trkpt>
      <trkpt lat="48.62311" lon="13.55604">
        <ele>450</ele>
        <time>2022-05-25T00:28:47Z</time>
      </trkpt>
      <trkpt lat="48.6222" lon="13.55662">
        <ele>453</ele>
        <time>2022-05-25T00:29:04Z</time>
      </trkpt>
      <trkpt lat="48.62194" lon="13.55672">
        <ele>454</ele>
        <time>2022-05-25T00:29:09Z</time>
      </trkpt>
      <trkpt lat="48.62157" lon="13.55679">
        <ele>456</ele>
        <time>2022-05-25T00:29:16Z</time>
      </trkpt>
      <trkpt lat="48.62103" lon="13.55678">
        <ele>455</ele>
        <time>2022-05-25T00:29:25Z</time>
      </trkpt>
      <trkpt lat="48.62061" lon="13.55692">
        <ele>454</ele>
        <time>2022-05-25T00:29:33Z</time>
      </trkpt>
      <trkpt lat="48.62033" lon="13.5569">
        <ele>452</ele>
        <time>2022-05-25T00:29:38Z</time>
      </trkpt>
      <trkpt lat="48.61999" lon="13.5567">
        <ele>451</ele>
        <time>2022-05-25T00:29:44Z</time>
      </trkpt>
      <trkpt lat="48.61973" lon="13.55642">
        <ele>451</ele>
        <time>2022-05-25T00:29:50Z</time>
      </trkpt>
      <trkpt lat="48.61967" lon="13.5565">
        <ele>451</ele>
        <time>2022-05-25T00:29:52Z</time>
      </trkpt>
      <trkpt lat="48.6192" lon="13.55673">
        <ele>452</ele>
        <time>2022-05-25T00:30:00Z</time>
      </trkpt>
      <trkpt lat="48.61791" lon="13.55711">
        <ele>457</ele>
        <time>2022-05-25T00:30:24Z</time>
      </trkpt>
      <trkpt lat="48.61735" lon="13.55718">
        <ele>457</ele>
        <time>2022-05-25T00:30:34Z</time>
      </trkpt>
      <trkpt lat="48.61623" lon="13.55757">
        <ele>452</ele>
        <time>2022-05-25T00:30:54Z</time>
      </trkpt>
      <trkpt lat="48.61579" lon="13.55754">
        <ele>450</ele>
        <time>2022-05-25T00:31:02Z</time>
      </trkpt>
      <trkpt lat="48.61451" lon="13.5571">
        <ele>450</ele>
        <time>2022-05-25T00:31:25Z</time>
      </trkpt>
      <trkpt lat="48.61423" lon="13.5569">
        <ele>448</ele>
        <time>2022-05-25T00:31:31Z</time>
      </trkpt>
      <trkpt lat="48.6133" lon="13.55594">
        <ele>441</ele>
        <time>2022-05-25T00:31:51Z</time>
      </trkpt>
      <trkpt lat="48.61237" lon="13.55535">
        <ele>435</ele>
        <time>2022-05-25T00:32:09Z</time>
      </trkpt>
      <trkpt lat="48.61164" lon="13.55459">
        <ele>430</ele>
        <time>2022-05-25T00:32:25Z</time>
      </trkpt>
      <trkpt lat="48.61128" lon="13.55433">
        <ele>432</ele>
        <time>2022-05-25T00:32:32Z</time>
      </trkpt>
      <trkpt lat="48.61026" lon="13.55404">
        <ele>434</ele>
        <time>2022-05-25T00:32:50Z</time>
      </trkpt>
      <trkpt lat="48.60967" lon="13.55365">
        <ele>435</ele>
        <time>2022-05-25T00:33:02Z</time>
      </trkpt>
      <trkpt lat="48.60892" lon="13.55362">
        <ele>431</ele>
        <time>2022-05-25T00:33:15Z</time>
      </trkpt>
      <trkpt lat="48.60841" lon="13.55339">
        <ele>428</ele>
        <time>2022-05-25T00:33:25Z</time>
      </trkpt>
      <trkpt lat="48.60835" lon="13.5533">
        <ele>428</ele>
        <time>2022-05-25T00:33:26Z</time>
      </trkpt>
      <trkpt lat="48.60847" lon="13.55274">
        <ele>431</ele>
        <time>2022-05-25T00:33:33Z</time>
      </trkpt>
      <trkpt lat="48.60847" lon="13.55255">
        <ele>431</ele>
        <time>2022-05-25T00:33:35Z</time>
      </trkpt>
      <trkpt lat="48.60813" lon="13.55193">
        <ele>428</ele>
        <time>2022-05-25T00:33:45Z</time>
      </trkpt>
      <trkpt lat="48.60781" lon="13.55114">
        <ele>425</ele>
        <time>2022-05-25T00:33:56Z</time>
      </trkpt>
      <trkpt lat="48.60758" lon="13.55083">
        <ele>422</ele>
        <time>2022-05-25T00:34:01Z</time>
      </trkpt>
      <trkpt lat="48.60395" lon="13.5485">
        <ele>395</ele>
        <time>2022-05-25T00:35:11Z</time>
      </trkpt>
      <trkpt lat="48.60403" lon="13.54793">
        <ele>394</ele>
        <time>2022-05-25T00:35:18Z</time>
      </trkpt>
      <trkpt lat="48.60401" lon="13.54768">
        <ele>394</ele>
        <time>2022-05-25T00:35:21Z</time>
      </trkpt>
      <trkpt lat="48.60405" lon="13.54738">
        <ele>394</ele>
        <time>2022-05-25T00:35:25Z</time>
      </trkpt>
      <trkpt lat="48.60457" lon="13.54667">
        <ele>393</ele>
        <time>2022-05-25T00:35:37Z</time>
      </trkpt>
      <trkpt lat="48.60489" lon="13.54588">
        <ele>391</ele>
        <time>2022-05-25T00:35:48Z</time>
      </trkpt>
      <trkpt lat="48.60419" lon="13.54439">
        <ele>400</ele>
        <time>2022-05-25T00:36:09Z</time>
      </trkpt>
      <trkpt lat="48.60409" lon="13.54436">
        <ele>400</ele>
        <time>2022-05-25T00:36:11Z</time>
      </trkpt>
      <trkpt lat="48.60405" lon="13.54428">
        <ele>401</ele>
        <time>2022-05-25T00:36:12Z</time>
      </trkpt>
      <trkpt lat="48.60343" lon="13.54251">
        <ele>400</ele>
        <time>2022-05-25T00:36:36Z</time>
      </trkpt>
      <trkpt lat="48.60324" lon="13.54228">
        <ele>399</ele>
        <time>2022-05-25T00:36:40Z</time>
      </trkpt>
      <trkpt lat="48.60299" lon="13.54224">
        <ele>399</ele>
        <time>2022-05-25T00:36:45Z</time>
      </trkpt>
      <trkpt lat="48.60299" lon="13.54143">
        <ele>400</ele>
        <time>2022-05-25T00:36:54Z</time>
      </trkpt>
      <trkpt lat="48.60287" lon="13.5405">
        <ele>400</ele>
        <time>2022-05-25T00:37:06Z</time>
      </trkpt>
      <trkpt lat="48.60287" lon="13.53997">
        <ele>401</ele>
        <time>2022-05-25T00:37:12Z</time>
      </trkpt>
      <trkpt lat="48.60265" lon="13.53989">
        <ele>401</ele>
        <time>2022-05-25T00:37:16Z</time>
      </trkpt>
      <trkpt lat="48.60264" lon="13.54032">
        <ele>400</ele>
        <time>2022-05-25T00:37:21Z</time>
      </trkpt>
      <trkpt lat="48.60257" lon="13.54035">
        <ele>400</ele>
        <time>2022-05-25T00:37:22Z</time>
      </trkpt>
      <trkpt lat="48.60218" lon="13.54014">
        <ele>399</ele>
        <time>2022-05-25T00:37:30Z</time>
      </trkpt>
      <trkpt lat="48.60163" lon="13.54013">
        <ele>399</ele>
        <time>2022-05-25T00:37:39Z</time>
      </trkpt>
      <trkpt lat="48.60134" lon="13.54024">
        <ele>399</ele>
        <time>2022-05-25T00:37:45Z</time>
      </trkpt>
      <trkpt lat="48.60113" lon="13.54015">
        <ele>399</ele>
        <time>2022-05-25T00:37:48Z</time>
      </trkpt>
      <trkpt lat="48.60075" lon="13.53943">
        <ele>406</ele>
        <time>2022-05-25T00:37:59Z</time>
      </trkpt>
      <trkpt lat="48.6002" lon="13.5389">
        <ele>405</ele>
        <time>2022-05-25T00:38:11Z</time>
      </trkpt>
      <trkpt lat="48.59976" lon="13.5383">
        <ele>401</ele>
        <time>2022-05-25T00:38:21Z</time>
      </trkpt>
      <trkpt lat="48.59949" lon="13.53814">
        <ele>401</ele>
        <time>2022-05-25T00:38:27Z</time>
      </trkpt>
      <trkpt lat="48.59838" lon="13.53812">
        <ele>389</ele>
        <time>2022-05-25T00:38:46Z</time>
      </trkpt>
      <trkpt lat="48.59804" lon="13.53806">
        <ele>384</ele>
        <time>2022-05-25T00:38:52Z</time>
      </trkpt>
      <trkpt lat="48.59786" lon="13.53808">
        <ele>381</ele>
        <time>2022-05-25T00:38:56Z</time>
      </trkpt>
      <trkpt lat="48.5975" lon="13.53827">
        <ele>376</ele>
        <time>2022-05-25T00:39:02Z</time>
      </trkpt>
      <trkpt lat="48.59742" lon="13.53829">
        <ele>377</ele>
        <time>2022-05-25T00:39:04Z</time>
      </trkpt>
      <trkpt lat="48.59735" lon="13.53821">
        <ele>377</ele>
        <time>2022-05-25T00:39:05Z</time>
      </trkpt>
      <trkpt lat="48.59733" lon="13.53805">
        <ele>376</ele>
        <time>2022-05-25T00:39:07Z</time>
      </trkpt>
      <trkpt lat="48.59718" lon="13.53796">
        <ele>377</ele>
        <time>2022-05-25T00:39:10Z</time>
      </trkpt>
      <trkpt lat="48.59702" lon="13.53766">
        <ele>375</ele>
        <time>2022-05-25T00:39:15Z</time>
      </trkpt>
      <trkpt lat="48.59687" lon="13.53698">
        <ele>371</ele>
        <time>2022-05-25T00:39:23Z</time>
      </trkpt>
      <trkpt lat="48.59687" lon="13.53656">
        <ele>371</ele>
        <time>2022-05-25T00:39:28Z</time>
      </trkpt>
      <trkpt lat="48.59676" lon="13.53633">
        <ele>371</ele>
        <time>2022-05-25T00:39:32Z</time>
      </trkpt>
      <trkpt lat="48.59594" lon="13.53533">
        <ele>374</ele>
        <time>2022-05-25T00:39:50Z</time>
      </trkpt>
      <trkpt lat="48.59534" lon="13.5348">
        <ele>375</ele>
        <time>2022-05-25T00:40:03Z</time>
      </trkpt>
      <trkpt lat="48.59501" lon="13.53427">
        <ele>369</ele>
        <time>2022-05-25T00:40:11Z</time>
      </trkpt>
      <trkpt lat="48.59465" lon="13.53403">
        <ele>371</ele>
        <time>2022-05-25T00:40:18Z</time>
      </trkpt>
      <trkpt lat="48.59444" lon="13.53368">
        <ele>372</ele>
        <time>2022-05-25T00:40:24Z</time>
      </trkpt>
      <trkpt lat="48.59353" lon="13.53251">
        <ele>371</ele>
        <time>2022-05-25T00:40:45Z</time>
      </trkpt>
      <trkpt lat="48.59332" lon="13.53186">
        <ele>367</ele>
        <time>2022-05-25T00:40:54Z</time>
      </trkpt>
      <trkpt lat="48.59297" lon="13.53147">
        <ele>367</ele>
        <time>2022-05-25T00:41:01Z</time>
      </trkpt>
      <trkpt lat="48.59214" lon="13.53122">
        <ele>363</ele>
        <time>2022-05-25T00:41:16Z</time>
      </trkpt>
      <trkpt lat="48.59168" lon="13.53097">
        <ele>355</ele>
        <time>2022-05-25T00:41:25Z</time>
      </trkpt>
      <trkpt lat="48.59124" lon="13.53085">
        <ele>353</ele>
        <time>2022-05-25T00:41:33Z</time>
      </trkpt>
      <trkpt lat="48.59111" lon="13.53074">
        <ele>352</ele>
        <time>2022-05-25T00:41:36Z</time>
      </trkpt>
      <trkpt lat="48.59075" lon="13.52979">
        <ele>346</ele>
        <time>2022-05-25T00:41:49Z</time>
      </trkpt>
      <trkpt lat="48.59048" lon="13.52931">
        <ele>342</ele>
        <time>2022-05-25T00:41:56Z</time>
      </trkpt>
      <trkpt lat="48.59016" lon="13.52887">
        <ele>338</ele>
        <time>2022-05-25T00:42:04Z</time>
      </trkpt>
      <trkpt lat="48.58974" lon="13.52839">
        <ele>332</ele>
        <time>2022-05-25T00:42:13Z</time>
      </trkpt>
      <trkpt lat="48.58918" lon="13.52804">
        <ele>323</ele>
        <time>2022-05-25T00:42:24Z</time>
      </trkpt>
      <trkpt lat="48.58865" lon="13.52754">
        <ele>312</ele>
        <time>2022-05-25T00:42:35Z</time>
      </trkpt>
      <trkpt lat="48.58842" lon="13.52738">
        <ele>303</ele>
        <time>2022-05-25T00:42:39Z</time>
      </trkpt>
      <trkpt lat="48.58816" lon="13.5273">
        <ele>298</ele>
        <time>2022-05-25T00:42:44Z</time>
      </trkpt>
      <trkpt lat="48.58801" lon="13.52712">
        <ele>296</ele>
        <time>2022-05-25T00:42:48Z</time>
      </trkpt>
      <trkpt lat="48.58673" lon="13.52965">
        <ele>297</ele>
        <time>2022-05-25T00:43:25Z</time>
      </trkpt>
      <trkpt lat="48.58556" lon="13.53168">
        <ele>295</ele>
        <time>2022-05-25T00:43:57Z</time>
      </trkpt>
      <trkpt lat="48.581" lon="13.53897">
        <ele>306</ele>
        <time>2022-05-25T00:45:55Z</time>
      </trkpt>
      <trkpt lat="48.57992" lon="13.54053">
        <ele>301</ele>
        <time>2022-05-25T00:46:21Z</time>
      </trkpt>
      <trkpt lat="48.57859" lon="13.54232">
        <ele>295</ele>
        <time>2022-05-25T00:46:53Z</time>
      </trkpt>
      <trkpt lat="48.57682" lon="13.54437">
        <ele>301</ele>
        <time>2022-05-25T00:47:33Z</time>
      </trkpt>
      <trkpt lat="48.57492" lon="13.5464">
        <ele>301</ele>
        <time>2022-05-25T00:48:14Z</time>
      </trkpt>
      <trkpt lat="48.57375" lon="13.54778">
        <ele>305</ele>
        <time>2022-05-25T00:48:41Z</time>
      </trkpt>
      <trkpt lat="48.57249" lon="13.54971">
        <ele>306</ele>
        <time>2022-05-25T00:49:12Z</time>
      </trkpt>
      <trkpt lat="48.5715" lon="13.55147">
        <ele>304</ele>
        <time>2022-05-25T00:49:40Z</time>
      </trkpt>
      <trkpt lat="48.5705" lon="13.55311">
        <ele>297</ele>
        <time>2022-05-25T00:50:06Z</time>
      </trkpt>
      <trkpt lat="48.56947" lon="13.55496">
        <ele>294</ele>
        <time>2022-05-25T00:50:34Z</time>
      </trkpt>
      <trkpt lat="48.56682" lon="13.56145">
        <ele>292</ele>
        <time>2022-05-25T00:52:04Z</time>
      </trkpt>
      <trkpt lat="48.56367" lon="13.56771">
        <ele>292</ele>
        <time>2022-05-25T00:53:37Z</time>
      </trkpt>
      <trkpt lat="48.56318" lon="13.5688">
        <ele>290</ele>
        <time>2022-05-25T00:53:52Z</time>
      </trkpt>
      <trkpt lat="48.56287" lon="13.56964">
        <ele>291</ele>
        <time>2022-05-25T00:54:04Z</time>
      </trkpt>
      <trkpt lat="48.56258" lon="13.57081">
        <ele>291</ele>
        <time>2022-05-25T00:54:18Z</time>
      </trkpt>
      <trkpt lat="48.5624" lon="13.5721">
        <ele>292</ele>
        <time>2022-05-25T00:54:34Z</time>
      </trkpt>
      <trkpt lat="48.56235" lon="13.57346">
        <ele>292</ele>
        <time>2022-05-25T00:54:50Z</time>
      </trkpt>
      <trkpt lat="48.56243" lon="13.57466">
        <ele>293</ele>
        <time>2022-05-25T00:55:04Z</time>
      </trkpt>
      <trkpt lat="48.56282" lon="13.57802">
        <ele>295</ele>
        <time>2022-05-25T00:55:44Z</time>
      </trkpt>
      <trkpt lat="48.56312" lon="13.57937">
        <ele>292</ele>
        <time>2022-05-25T00:56:01Z</time>
      </trkpt>
      <trkpt lat="48.56429" lon="13.58329">
        <ele>293</ele>
        <time>2022-05-25T00:56:52Z</time>
      </trkpt>
      <trkpt lat="48.56484" lon="13.58438">
        <ele>294</ele>
        <time>2022-05-25T00:57:08Z</time>
      </trkpt>
      <trkpt lat="48.56526" lon="13.58495">
        <ele>292</ele>
        <time>2022-05-25T00:57:18Z</time>
      </trkpt>
      <trkpt lat="48.56582" lon="13.58551">
        <ele>292</ele>
        <time>2022-05-25T00:57:30Z</time>
      </trkpt>
      <trkpt lat="48.56883" lon="13.58791">
        <ele>295</ele>
        <time>2022-05-25T00:58:30Z</time>
      </trkpt>
      <trkpt lat="48.56951" lon="13.58871">
        <ele>295</ele>
        <time>2022-05-25T00:58:46Z</time>
      </trkpt>
      <trkpt lat="48.56988" lon="13.58943">
        <ele>295</ele>
        <time>2022-05-25T00:58:56Z</time>
      </trkpt>
      <trkpt lat="48.57021" lon="13.5903">
        <ele>304</ele>
        <time>2022-05-25T00:59:08Z</time>
      </trkpt>
      <trkpt lat="48.57044" lon="13.5912">
        <ele>310</ele>
        <time>2022-05-25T00:59:20Z</time>
      </trkpt>
      <trkpt lat="48.57061" lon="13.59242">
        <ele>310</ele>
        <time>2022-05-25T00:59:34Z</time>
      </trkpt>
      <trkpt lat="48.57068" lon="13.59374">
        <ele>309</ele>
        <time>2022-05-25T00:59:50Z</time>
      </trkpt>
      <trkpt lat="48.57069" lon="13.59491">
        <ele>309</ele>
        <time>2022-05-25T01:00:04Z</time>
      </trkpt>
      <trkpt lat="48.57065" lon="13.59577">
        <ele>312</ele>
        <time>2022-05-25T01:00:14Z</time>
      </trkpt>
      <trkpt lat="48.57052" lon="13.59693">
        <ele>311</ele>
        <time>2022-05-25T01:00:28Z</time>
      </trkpt>
      <trkpt lat="48.5703" lon="13.59812">
        <ele>307</ele>
        <time>2022-05-25T01:00:42Z</time>
      </trkpt>
      <trkpt lat="48.56958" lon="13.60113">
        <ele>317</ele>
        <time>2022-05-25T01:01:20Z</time>
      </trkpt>
      <trkpt lat="48.56915" lon="13.60222">
        <ele>307</ele>
        <time>2022-05-25T01:01:35Z</time>
      </trkpt>
      <trkpt lat="48.56774" lon="13.60519">
        <ele>306</ele>
        <time>2022-05-25T01:02:18Z</time>
      </trkpt>
      <trkpt lat="48.56679" lon="13.60692">
        <ele>304</ele>
        <time>2022-05-25T01:02:44Z</time>
      </trkpt>
      <trkpt lat="48.56466" lon="13.61115">
        <ele>309</ele>
        <time>2022-05-25T01:03:47Z</time>
      </trkpt>
      <trkpt lat="48.56294" lon="13.61443">
        <ele>309</ele>
        <time>2022-05-25T01:04:36Z</time>
      </trkpt>
      <trkpt lat="48.56238" lon="13.61569">
        <ele>303</ele>
        <time>2022-05-25T01:04:54Z</time>
      </trkpt>
      <trkpt lat="48.56092" lon="13.61964">
        <ele>298</ele>
        <time>2022-05-25T01:05:47Z</time>
      </trkpt>
      <trkpt lat="48.56029" lon="13.62088">
        <ele>298</ele>
        <time>2022-05-25T01:06:06Z</time>
      </trkpt>
      <trkpt lat="48.55959" lon="13.62204">
        <ele>294</ele>
        <time>2022-05-25T01:06:24Z</time>
      </trkpt>
      <trkpt lat="48.55906" lon="13.62263">
        <ele>291</ele>
        <time>2022-05-25T01:06:36Z</time>
      </trkpt>
      <trkpt lat="48.55888" lon="13.62275">
        <ele>291</ele>
        <time>2022-05-25T01:06:39Z</time>
      </trkpt>
      <trkpt lat="48.5578" lon="13.62409">
        <ele>292</ele>
        <time>2022-05-25T01:07:04Z</time>
      </trkpt>
      <trkpt lat="48.55744" lon="13.62485">
        <ele>293</ele>
        <time>2022-05-25T01:07:15Z</time>
      </trkpt>
      <trkpt lat="48.55711" lon="13.62572">
        <ele>292</ele>
        <time>2022-05-25T01:07:27Z</time>
      </trkpt>
      <trkpt lat="48.5566" lon="13.62862">
        <ele>293</ele>
        <time>2022-05-25T01:08:02Z</time>
      </trkpt>
      <trkpt lat="48.55659" lon="13.62891">
        <ele>294</ele>
        <time>2022-05-25T01:08:06Z</time>
      </trkpt>
      <trkpt lat="48.55649" lon="13.62951">
        <ele>293</ele>
        <time>2022-05-25T01:08:13Z</time>
      </trkpt>
      <trkpt lat="48.55617" lon="13.63102">
        <ele>293</ele>
        <time>2022-05-25T01:08:32Z</time>
      </trkpt>
      <trkpt lat="48.55566" lon="13.63276">
        <ele>294</ele>
        <time>2022-05-25T01:08:54Z</time>
      </trkpt>
      <trkpt lat="48.55541" lon="13.63329">
        <ele>293</ele>
        <time>2022-05-25T01:09:02Z</time>
      </trkpt>
      <trkpt lat="48.55509" lon="13.63376">
        <ele>292</ele>
        <time>2022-05-25T01:09:10Z</time>
      </trkpt>
      <trkpt lat="48.55493" lon="13.63413">
        <ele>292</ele>
        <time>2022-05-25T01:09:15Z</time>
      </trkpt>
      <trkpt lat="48.55481" lon="13.63462">
        <ele>293</ele>
        <time>2022-05-25T01:09:21Z</time>
      </trkpt>
      <trkpt lat="48.55427" lon="13.63892">
        <ele>294</ele>
        <time>2022-05-25T01:10:13Z</time>
      </trkpt>
      <trkpt lat="48.55395" lon="13.64079">
        <ele>293</ele>
        <time>2022-05-25T01:10:35Z</time>
      </trkpt>
      <trkpt lat="48.55356" lon="13.64119">
        <ele>292</ele>
        <time>2022-05-25T01:10:44Z</time>
      </trkpt>
      <trkpt lat="48.55338" lon="13.64214">
        <ele>290</ele>
        <time>2022-05-25T01:10:56Z</time>
      </trkpt>
      <trkpt lat="48.55323" lon="13.64321">
        <ele>290</ele>
        <time>2022-05-25T01:11:08Z</time>
      </trkpt>
      <trkpt lat="48.55315" lon="13.64409">
        <ele>289</ele>
        <time>2022-05-25T01:11:19Z</time>
      </trkpt>
      <trkpt lat="48.55273" lon="13.64599">
        <ele>289</ele>
        <time>2022-05-25T01:11:42Z</time>
      </trkpt>
      <trkpt lat="48.55241" lon="13.64961">
        <ele>293</ele>
        <time>2022-05-25T01:12:25Z</time>
      </trkpt>
      <trkpt lat="48.5523" lon="13.65034">
        <ele>294</ele>
        <time>2022-05-25T01:12:34Z</time>
      </trkpt>
      <trkpt lat="48.55162" lon="13.65257">
        <ele>298</ele>
        <time>2022-05-25T01:13:03Z</time>
      </trkpt>
      <trkpt lat="48.55143" lon="13.653">
        <ele>300</ele>
        <time>2022-05-25T01:13:09Z</time>
      </trkpt>
      <trkpt lat="48.55034" lon="13.65493">
        <ele>307</ele>
        <time>2022-05-25T01:13:39Z</time>
      </trkpt>
      <trkpt lat="48.55021" lon="13.65513">
        <ele>309</ele>
        <time>2022-05-25T01:13:42Z</time>
      </trkpt>
      <trkpt lat="48.54984" lon="13.65546">
        <ele>312</ele>
        <time>2022-05-25T01:13:50Z</time>
      </trkpt>
      <trkpt lat="48.54956" lon="13.65557">
        <ele>313</ele>
        <time>2022-05-25T01:13:55Z</time>
      </trkpt>
      <trkpt lat="48.54861" lon="13.65569">
        <ele>304</ele>
        <time>2022-05-25T01:14:12Z</time>
      </trkpt>
      <trkpt lat="48.54842" lon="13.65578">
        <ele>302</ele>
        <time>2022-05-25T01:14:16Z</time>
      </trkpt>
      <trkpt lat="48.54641" lon="13.6573">
        <ele>306</ele>
        <time>2022-05-25T01:14:56Z</time>
      </trkpt>
      <trkpt lat="48.54501" lon="13.65828">
        <ele>310</ele>
        <time>2022-05-25T01:15:23Z</time>
      </trkpt>
      <trkpt lat="48.54284" lon="13.65916">
        <ele>311</ele>
        <time>2022-05-25T01:16:03Z</time>
      </trkpt>
      <trkpt lat="48.54164" lon="13.65957">
        <ele>312</ele>
        <time>2022-05-25T01:16:25Z</time>
      </trkpt>
      <trkpt lat="48.54123" lon="13.6598">
        <ele>312</ele>
        <time>2022-05-25T01:16:33Z</time>
      </trkpt>
      <trkpt lat="48.54045" lon="13.66042">
        <ele>313</ele>
        <time>2022-05-25T01:16:49Z</time>
      </trkpt>
      <trkpt lat="48.53965" lon="13.66117">
        <ele>305</ele>
        <time>2022-05-25T01:17:05Z</time>
      </trkpt>
      <trkpt lat="48.53895" lon="13.66215">
        <ele>300</ele>
        <time>2022-05-25T01:17:22Z</time>
      </trkpt>
      <trkpt lat="48.53818" lon="13.66351">
        <ele>294</ele>
        <time>2022-05-25T01:17:43Z</time>
      </trkpt>
      <trkpt lat="48.53712" lon="13.66506">
        <ele>301</ele>
        <time>2022-05-25T01:18:10Z</time>
      </trkpt>
      <trkpt lat="48.5368" lon="13.66562">
        <ele>300</ele>
        <time>2022-05-25T01:18:18Z</time>
      </trkpt>
      <trkpt lat="48.5352" lon="13.6694">
        <ele>299</ele>
        <time>2022-05-25T01:19:11Z</time>
      </trkpt>
      <trkpt lat="48.53328" lon="13.67383">
        <ele>289</ele>
        <time>2022-05-25T01:20:14Z</time>
      </trkpt>
      <trkpt lat="48.53251" lon="13.67612">
        <ele>291</ele>
        <time>2022-05-25T01:20:44Z</time>
      </trkpt>
      <trkpt lat="48.53196" lon="13.67909">
        <ele>300</ele>
        <time>2022-05-25T01:21:20Z</time>
      </trkpt>
      <trkpt lat="48.53172" lon="13.67992">
        <ele>298</ele>
        <time>2022-05-25T01:21:31Z</time>
      </trkpt>
      <trkpt lat="48.53017" lon="13.68414">
        <ele>305</ele>
        <time>2022-05-25T01:22:28Z</time>
      </trkpt>
      <trkpt lat="48.52916" lon="13.6866">
        <ele>299</ele>
        <time>2022-05-25T01:23:02Z</time>
      </trkpt>
      <trkpt lat="48.52784" lon="13.69035">
        <ele>301</ele>
        <time>2022-05-25T01:23:52Z</time>
      </trkpt>
      <trkpt lat="48.52634" lon="13.69391">
        <ele>306</ele>
        <time>2022-05-25T01:24:42Z</time>
      </trkpt>
      <trkpt lat="48.52454" lon="13.69804">
        <ele>308</ele>
        <time>2022-05-25T01:25:40Z</time>
      </trkpt>
      <trkpt lat="48.52265" lon="13.70203">
        <ele>306</ele>
        <time>2022-05-25T01:26:38Z</time>
      </trkpt>
      <trkpt lat="48.52156" lon="13.70449">
        <ele>300</ele>
        <time>2022-05-25T01:27:13Z</time>
      </trkpt>
      <trkpt lat="48.52122" lon="13.70547">
        <ele>299</ele>
        <time>2022-05-25T01:27:26Z</time>
      </trkpt>
      <trkpt lat="48.521" lon="13.70627">
        <ele>298</ele>
        <time>2022-05-25T01:27:36Z</time>
      </trkpt>
      <trkpt lat="48.52093" lon="13.7063">
        <ele>295</ele>
        <time>2022-05-25T01:27:37Z</time>
      </trkpt>
      <trkpt lat="48.52054" lon="13.70783">
        <ele>299</ele>
        <time>2022-05-25T01:27:56Z</time>
      </trkpt>
      <trkpt lat="48.52002" lon="13.70906">
        <ele>289</ele>
        <time>2022-05-25T01:28:14Z</time>
      </trkpt>
      <trkpt lat="48.52021" lon="13.70922">
        <ele>299</ele>
        <time>2022-05-25T01:28:17Z</time>
      </trkpt>
      <trkpt lat="48.51986" lon="13.71053">
        <ele>294</ele>
        <time>2022-05-25T01:28:34Z</time>
      </trkpt>
      <trkpt lat="48.51979" lon="13.71058">
        <ele>293</ele>
        <time>2022-05-25T01:28:35Z</time>
      </trkpt>
      <trkpt lat="48.51943" lon="13.7115">
        <ele>291</ele>
        <time>2022-05-25T01:28:48Z</time>
      </trkpt>
      <trkpt lat="48.51943" lon="13.71164">
        <ele>292</ele>
        <time>2022-05-25T01:28:50Z</time>
      </trkpt>
      <trkpt lat="48.51953" lon="13.71183">
        <ele>294</ele>
        <time>2022-05-25T01:28:53Z</time>
      </trkpt>
      <trkpt lat="48.51946" lon="13.71208">
        <ele>293</ele>
        <time>2022-05-25T01:28:56Z</time>
      </trkpt>
      <trkpt lat="48.5194" lon="13.71212">
        <ele>292</ele>
        <time>2022-05-25T01:28:57Z</time>
      </trkpt>
      <trkpt lat="48.51916" lon="13.71197">
        <ele>288</ele>
        <time>2022-05-25T01:29:02Z</time>
      </trkpt>
      <trkpt lat="48.51866" lon="13.71151">
        <ele>283</ele>
        <time>2022-05-25T01:29:12Z</time>
      </trkpt>
      <trkpt lat="48.51858" lon="13.71154">
        <ele>282</ele>
        <time>2022-05-25T01:29:13Z</time>
      </trkpt>
      <trkpt lat="48.51847" lon="13.71174">
        <ele>282</ele>
        <time>2022-05-25T01:29:17Z</time>
      </trkpt>
      <trkpt lat="48.5184" lon="13.71177">
        <ele>281</ele>
        <time>2022-05-25T01:29:18Z</time>
      </trkpt>
      <trkpt lat="48.51819" lon="13.71226">
        <ele>284</ele>
        <time>2022-05-25T01:29:25Z</time>
      </trkpt>
      <trkpt lat="48.51776" lon="13.71357">
        <ele>286</ele>
        <time>2022-05-25T01:29:42Z</time>
      </trkpt>
      <trkpt lat="48.51763" lon="13.71386">
        <ele>286</ele>
        <time>2022-05-25T01:29:46Z</time>
      </trkpt>
      <trkpt lat="48.51752" lon="13.71429">
        <ele>285</ele>
        <time>2022-05-25T01:29:51Z</time>
      </trkpt>
      <trkpt lat="48.51693" lon="13.71621">
        <ele>288</ele>
        <time>2022-05-25T01:30:16Z</time>
      </trkpt>
      <trkpt lat="48.51689" lon="13.71647">
        <ele>289</ele>
        <time>2022-05-25T01:30:20Z</time>
      </trkpt>
      <trkpt lat="48.51691" lon="13.71663">
        <ele>289</ele>
        <time>2022-05-25T01:30:21Z</time>
      </trkpt>
      <trkpt lat="48.51666" lon="13.71727">
        <ele>289</ele>
        <time>2022-05-25T01:30:30Z</time>
      </trkpt>
      <trkpt lat="48.5164" lon="13.71875">
        <ele>285</ele>
        <time>2022-05-25T01:30:48Z</time>
      </trkpt>
      <trkpt lat="48.51623" lon="13.72088">
        <ele>284</ele>
        <time>2022-05-25T01:31:14Z</time>
      </trkpt>
      <trkpt lat="48.51575" lon="13.72329">
        <ele>284</ele>
        <time>2022-05-25T01:31:43Z</time>
      </trkpt>
      <trkpt lat="48.51549" lon="13.72363">
        <ele>283</ele>
        <time>2022-05-25T01:31:49Z</time>
      </trkpt>
      <trkpt lat="48.51536" lon="13.72391">
        <ele>282</ele>
        <time>2022-05-25T01:31:53Z</time>
      </trkpt>
      <trkpt lat="48.51495" lon="13.726">
        <ele>284</ele>
        <time>2022-05-25T01:32:19Z</time>
      </trkpt>
      <trkpt lat="48.51456" lon="13.72744">
        <ele>286</ele>
        <time>2022-05-25T01:32:37Z</time>
      </trkpt>
      <trkpt lat="48.5144" lon="13.72779">
        <ele>287</ele>
        <time>2022-05-25T01:32:42Z</time>
      </trkpt>
      <trkpt lat="48.51415" lon="13.72809">
        <ele>284</ele>
        <time>2022-05-25T01:32:48Z</time>
      </trkpt>
      <trkpt lat="48.51241" lon="13.73059">
        <ele>299</ele>
        <time>2022-05-25T01:33:31Z</time>
      </trkpt>
      <trkpt lat="48.51119" lon="13.7321">
        <ele>304</ele>
        <time>2022-05-25T01:33:59Z</time>
      </trkpt>
      <trkpt lat="48.51015" lon="13.73302">
        <ele>300</ele>
        <time>2022-05-25T01:34:20Z</time>
      </trkpt>
      <trkpt lat="48.50929" lon="13.73384">
        <ele>296</ele>
        <time>2022-05-25T01:34:38Z</time>
      </trkpt>
      <trkpt lat="48.5075" lon="13.73541">
        <ele>288</ele>
        <time>2022-05-25T01:35:15Z</time>
      </trkpt>
      <trkpt lat="48.50583" lon="13.73721">
        <ele>298</ele>
        <time>2022-05-25T01:35:52Z</time>
      </trkpt>
      <trkpt lat="48.50466" lon="13.73786">
        <ele>300</ele>
        <time>2022-05-25T01:36:14Z</time>
      </trkpt>
      <trkpt lat="48.50368" lon="13.73859">
        <ele>301</ele>
        <time>2022-05-25T01:36:33Z</time>
      </trkpt>
      <trkpt lat="48.50268" lon="13.73929">
        <ele>302</ele>
        <time>2022-05-25T01:36:53Z</time>
      </trkpt>
      <trkpt lat="48.5015" lon="13.73985">
        <ele>296</ele>
        <time>2022-05-25T01:37:15Z</time>
      </trkpt>
      <trkpt lat="48.49962" lon="13.74105">
        <ele>296</ele>
        <time>2022-05-25T01:37:51Z</time>
      </trkpt>
      <trkpt lat="48.49886" lon="13.74161">
        <ele>292</ele>
        <time>2022-05-25T01:38:06Z</time>
      </trkpt>
      <trkpt lat="48.49816" lon="13.74199">
        <ele>288</ele>
        <time>2022-05-25T01:38:20Z</time>
      </trkpt>
      <trkpt lat="48.49765" lon="13.74239">
        <ele>287</ele>
        <time>2022-05-25T01:38:30Z</time>
      </trkpt>
      <trkpt lat="48.49648" lon="13.74353">
        <ele>291</ele>
        <time>2022-05-25T01:38:55Z</time>
      </trkpt>
      <trkpt lat="48.49484" lon="13.74492">
        <ele>283</ele>
        <time>2022-05-25T01:39:28Z</time>
      </trkpt>
      <trkpt lat="48.49382" lon="13.74596">
        <ele>283</ele>
        <time>2022-05-25T01:39:50Z</time>
      </trkpt>
      <trkpt lat="48.49257" lon="13.74712">
        <ele>282</ele>
        <time>2022-05-25T01:40:16Z</time>
      </trkpt>
      <trkpt lat="48.49176" lon="13.74823">
        <ele>282</ele>
        <time>2022-05-25T01:40:36Z</time>
      </trkpt>
      <trkpt lat="48.49072" lon="13.74939">
        <ele>282</ele>
        <time>2022-05-25T01:40:59Z</time>
      </trkpt>
      <trkpt lat="48.48989" lon="13.75052">
        <ele>283</ele>
        <time>2022-05-25T01:41:19Z</time>
      </trkpt>
      <trkpt lat="48.48948" lon="13.7509">
        <ele>286</ele>
        <time>2022-05-25T01:41:27Z</time>
      </trkpt>
      <trkpt lat="48.48693" lon="13.75499">
        <ele>283</ele>
        <time>2022-05-25T01:42:33Z</time>
      </trkpt>
      <trkpt lat="48.48507" lon="13.75835">
        <ele>283</ele>
        <time>2022-05-25T01:43:25Z</time>
      </trkpt>
      <trkpt lat="48.48332" lon="13.76162">
        <ele>283</ele>
        <time>2022-05-25T01:44:14Z</time>
      </trkpt>
      <trkpt lat="48.48256" lon="13.76332">
        <ele>283</ele>
        <time>2022-05-25T01:44:39Z</time>
      </trkpt>
      <trkpt lat="48.48143" lon="13.76609">
        <ele>293</ele>
        <time>2022-05-25T01:45:17Z</time>
      </trkpt>
      <trkpt lat="48.48106" lon="13.76688">
        <ele>299</ele>
        <time>2022-05-25T01:45:28Z</time>
      </trkpt>
      <trkpt lat="48.47927" lon="13.76977">
        <ele>302</ele>
        <time>2022-05-25T01:46:15Z</time>
      </trkpt>
      <trkpt lat="48.47801" lon="13.77196">
        <ele>305</ele>
        <time>2022-05-25T01:46:49Z</time>
      </trkpt>
      <trkpt lat="48.47651" lon="13.77402">
        <ele>297</ele>
        <time>2022-05-25T01:47:25Z</time>
      </trkpt>
      <trkpt lat="48.47534" lon="13.77525">
        <ele>289</ele>
        <time>2022-05-25T01:47:51Z</time>
      </trkpt>
      <trkpt lat="48.4753" lon="13.77536">
        <ele>290</ele>
        <time>2022-05-25T01:47:52Z</time>
      </trkpt>
      <trkpt lat="48.47531" lon="13.77548">
        <ele>291</ele>
        <time>2022-05-25T01:47:54Z</time>
      </trkpt>
      <trkpt lat="48.47419" lon="13.77659">
        <ele>291</ele>
        <time>2022-05-25T01:48:18Z</time>
      </trkpt>
      <trkpt lat="48.47386" lon="13.77685">
        <ele>293</ele>
        <time>2022-05-25T01:48:24Z</time>
      </trkpt>
      <trkpt lat="48.47275" lon="13.77737">
        <ele>290</ele>
        <time>2022-05-25T01:48:45Z</time>
      </trkpt>
      <trkpt lat="48.47218" lon="13.77783">
        <ele>291</ele>
        <time>2022-05-25T01:48:56Z</time>
      </trkpt>
      <trkpt lat="48.47185" lon="13.77817">
        <ele>293</ele>
        <time>2022-05-25T01:49:03Z</time>
      </trkpt>
      <trkpt lat="48.47132" lon="13.77904">
        <ele>294</ele>
        <time>2022-05-25T01:49:17Z</time>
      </trkpt>
      <trkpt lat="48.47059" lon="13.77997">
        <ele>292</ele>
        <time>2022-05-25T01:49:34Z</time>
      </trkpt>
      <trkpt lat="48.46958" lon="13.78134">
        <ele>287</ele>
        <time>2022-05-25T01:49:59Z</time>
      </trkpt>
      <trkpt lat="48.46939" lon="13.78165">
        <ele>286</ele>
        <time>2022-05-25T01:50:04Z</time>
      </trkpt>
      <trkpt lat="48.46923" lon="13.78214">
        <ele>285</ele>
        <time>2022-05-25T01:50:10Z</time>
      </trkpt>
      <trkpt lat="48.4692" lon="13.7825">
        <ele>286</ele>
        <time>2022-05-25T01:50:14Z</time>
      </trkpt>
      <trkpt lat="48.46924" lon="13.78341">
        <ele>287</ele>
        <time>2022-05-25T01:50:25Z</time>
      </trkpt>
      <trkpt lat="48.46874" lon="13.78628">
        <ele>286</ele>
        <time>2022-05-25T01:51:00Z</time>
      </trkpt>
      <trkpt lat="48.46863" lon="13.78698">
        <ele>286</ele>
        <time>2022-05-25T01:51:09Z</time>
      </trkpt>
      <trkpt lat="48.46855" lon="13.78769">
        <ele>287</ele>
        <time>2022-05-25T01:51:17Z</time>
      </trkpt>
      <trkpt lat="48.46857" lon="13.78817">
        <ele>286</ele>
        <time>2022-05-25T01:51:23Z</time>
      </trkpt>
      <trkpt lat="48.46865" lon="13.78843">
        <ele>286</ele>
        <time>2022-05-25T01:51:26Z</time>
      </trkpt>
      <trkpt lat="48.46875" lon="13.7886">
        <ele>287</ele>
        <time>2022-05-25T01:51:29Z</time>
      </trkpt>
      <trkpt lat="48.46894" lon="13.78876">
        <ele>287</ele>
        <time>2022-05-25T01:51:33Z</time>
      </trkpt>
      <trkpt lat="48.46888" lon="13.78897">
        <ele>287</ele>
        <time>2022-05-25T01:51:35Z</time>
      </trkpt>
      <trkpt lat="48.46832" lon="13.7895">
        <ele>285</ele>
        <time>2022-05-25T01:51:47Z</time>
      </trkpt>
      <trkpt lat="48.46826" lon="13.78972">
        <ele>286</ele>
        <time>2022-05-25T01:51:50Z</time>
      </trkpt>
      <trkpt lat="48.46822" lon="13.79109">
        <ele>288</ele>
        <time>2022-05-25T01:52:06Z</time>
      </trkpt>
      <trkpt lat="48.46796" lon="13.79218">
        <ele>285</ele>
        <time>2022-05-25T01:52:20Z</time>
      </trkpt>
      <trkpt lat="48.46801" lon="13.79233">
        <ele>284</ele>
        <time>2022-05-25T01:52:22Z</time>
      </trkpt>
      <trkpt lat="48.46801" lon="13.79294">
        <ele>284</ele>
        <time>2022-05-25T01:52:29Z</time>
      </trkpt>
      <trkpt lat="48.46795" lon="13.7932">
        <ele>284</ele>
        <time>2022-05-25T01:52:32Z</time>
      </trkpt>
      <trkpt lat="48.46806" lon="13.79353">
        <ele>284</ele>
        <time>2022-05-25T01:52:37Z</time>
      </trkpt>
      <trkpt lat="48.46828" lon="13.79393">
        <ele>287</ele>
        <time>2022-05-25T01:52:43Z</time>
      </trkpt>
      <trkpt lat="48.46841" lon="13.79404">
        <ele>289</ele>
        <time>2022-05-25T01:52:45Z</time>
      </trkpt>
      <trkpt lat="48.4682" lon="13.79457">
        <ele>289</ele>
        <time>2022-05-25T01:52:53Z</time>
      </trkpt>
      <trkpt lat="48.46797" lon="13.79488">
        <ele>288</ele>
        <time>2022-05-25T01:52:58Z</time>
      </trkpt>
      <trkpt lat="48.46786" lon="13.79499">
        <ele>287</ele>
        <time>2022-05-25T01:53:00Z</time>
      </trkpt>
      <trkpt lat="48.46755" lon="13.79516">
        <ele>285</ele>
        <time>2022-05-25T01:53:06Z</time>
      </trkpt>
      <trkpt lat="48.46452" lon="13.7957">
        <ele>288</ele>
        <time>2022-05-25T01:54:01Z</time>
      </trkpt>
      <trkpt lat="48.46432" lon="13.79579">
        <ele>291</ele>
        <time>2022-05-25T01:54:04Z</time>
      </trkpt>
      <trkpt lat="48.46397" lon="13.79622">
        <ele>296</ele>
        <time>2022-05-25T01:54:12Z</time>
      </trkpt>
      <trkpt lat="48.46384" lon="13.79659">
        <ele>296</ele>
        <time>2022-05-25T01:54:17Z</time>
      </trkpt>
      <trkpt lat="48.46361" lon="13.79765">
        <ele>294</ele>
        <time>2022-05-25T01:54:30Z</time>
      </trkpt>
      <trkpt lat="48.46336" lon="13.79831">
        <ele>291</ele>
        <time>2022-05-25T01:54:39Z</time>
      </trkpt>
      <trkpt lat="48.46334" lon="13.79867">
        <ele>289</ele>
        <time>2022-05-25T01:54:44Z</time>
      </trkpt>
      <trkpt lat="48.46331" lon="13.79871">
        <ele>289</ele>
        <time>2022-05-25T01:54:44Z</time>
      </trkpt>
      <trkpt lat="48.46338" lon="13.79906">
        <ele>285</ele>
        <time>2022-05-25T01:54:49Z</time>
      </trkpt>
      <trkpt lat="48.46322" lon="13.79954">
        <ele>284</ele>
        <time>2022-05-25T01:54:55Z</time>
      </trkpt>
      <trkpt lat="48.46333" lon="13.79965">
        <ele>282</ele>
        <time>2022-05-25T01:54:57Z</time>
      </trkpt>
      <trkpt lat="48.46305" lon="13.80029">
        <ele>283</ele>
        <time>2022-05-25T01:55:06Z</time>
      </trkpt>
      <trkpt lat="48.46295" lon="13.80074">
        <ele>283</ele>
        <time>2022-05-25T01:55:12Z</time>
      </trkpt>
      <trkpt lat="48.46262" lon="13.80178">
        <ele>283</ele>
        <time>2022-05-25T01:55:26Z</time>
      </trkpt>
      <trkpt lat="48.46262" lon="13.80193">
        <ele>283</ele>
        <time>2022-05-25T01:55:27Z</time>
      </trkpt>
      <trkpt lat="48.46253" lon="13.80219">
        <ele>282</ele>
        <time>2022-05-25T01:55:31Z</time>
      </trkpt>
      <trkpt lat="48.46188" lon="13.80334">
        <ele>284</ele>
        <time>2022-05-25T01:55:49Z</time>
      </trkpt>
      <trkpt lat="48.46144" lon="13.80456">
        <ele>282</ele>
        <time>2022-05-25T01:56:05Z</time>
      </trkpt>
      <trkpt lat="48.46115" lon="13.80515">
        <ele>283</ele>
        <time>2022-05-25T01:56:14Z</time>
      </trkpt>
      <trkpt lat="48.46113" lon="13.80582">
        <ele>281</ele>
        <time>2022-05-25T01:56:22Z</time>
      </trkpt>
      <trkpt lat="48.46105" lon="13.80638">
        <ele>280</ele>
        <time>2022-05-25T01:56:28Z</time>
      </trkpt>
      <trkpt lat="48.46082" lon="13.80695">
        <ele>279</ele>
        <time>2022-05-25T01:56:36Z</time>
      </trkpt>
      <trkpt lat="48.46064" lon="13.80725">
        <ele>280</ele>
        <time>2022-05-25T01:56:41Z</time>
      </trkpt>
      <trkpt lat="48.45984" lon="13.80908">
        <ele>280</ele>
        <time>2022-05-25T01:57:07Z</time>
      </trkpt>
      <trkpt lat="48.45957" lon="13.80946">
        <ele>281</ele>
        <time>2022-05-25T01:57:13Z</time>
      </trkpt>
      <trkpt lat="48.45921" lon="13.80949">
        <ele>283</ele>
        <time>2022-05-25T01:57:20Z</time>
      </trkpt>
      <trkpt lat="48.45899" lon="13.80936">
        <ele>285</ele>
        <time>2022-05-25T01:57:24Z</time>
      </trkpt>
      <trkpt lat="48.45867" lon="13.80907">
        <ele>287</ele>
        <time>2022-05-25T01:57:31Z</time>
      </trkpt>
      <trkpt lat="48.4583" lon="13.80892">
        <ele>289</ele>
        <time>2022-05-25T01:57:38Z</time>
      </trkpt>
      <trkpt lat="48.45806" lon="13.8089">
        <ele>292</ele>
        <time>2022-05-25T01:57:42Z</time>
      </trkpt>
      <trkpt lat="48.45772" lon="13.80914">
        <ele>294</ele>
        <time>2022-05-25T01:57:49Z</time>
      </trkpt>
      <trkpt lat="48.45772" lon="13.8093">
        <ele>293</ele>
        <time>2022-05-25T01:57:50Z</time>
      </trkpt>
      <trkpt lat="48.45638" lon="13.81205">
        <ele>291</ele>
        <time>2022-05-25T01:58:31Z</time>
      </trkpt>
      <trkpt lat="48.45601" lon="13.81257">
        <ele>294</ele>
        <time>2022-05-25T01:58:40Z</time>
      </trkpt>
      <trkpt lat="48.45548" lon="13.81318">
        <ele>296</ele>
        <time>2022-05-25T01:58:52Z</time>
      </trkpt>
      <trkpt lat="48.45508" lon="13.81391">
        <ele>295</ele>
        <time>2022-05-25T01:59:03Z</time>
      </trkpt>
      <trkpt lat="48.45474" lon="13.81428">
        <ele>297</ele>
        <time>2022-05-25T01:59:10Z</time>
      </trkpt>
      <trkpt lat="48.45416" lon="13.81515">
        <ele>299</ele>
        <time>2022-05-25T01:59:25Z</time>
      </trkpt>
      <trkpt lat="48.4535" lon="13.81575">
        <ele>308</ele>
        <time>2022-05-25T01:59:38Z</time>
      </trkpt>
      <trkpt lat="48.45327" lon="13.81606">
        <ele>310</ele>
        <time>2022-05-25T01:59:44Z</time>
      </trkpt>
      <trkpt lat="48.45292" lon="13.81645">
        <ele>313</ele>
        <time>2022-05-25T01:59:52Z</time>
      </trkpt>
      <trkpt lat="48.45145" lon="13.8191">
        <ele>316</ele>
        <time>2022-05-25T02:00:32Z</time>
      </trkpt>
      <trkpt lat="48.45086" lon="13.81999">
        <ele>316</ele>
        <time>2022-05-25T02:00:47Z</time>
      </trkpt>
      <trkpt lat="48.44942" lon="13.82166">
        <ele>316</ele>
        <time>2022-05-25T02:01:20Z</time>
      </trkpt>
      <trkpt lat="48.44811" lon="13.82385">
        <ele>307</ele>
        <time>2022-05-25T02:01:54Z</time>
      </trkpt>
      <trkpt lat="48.44784" lon="13.82422">
        <ele>307</ele>
        <time>2022-05-25T02:02:01Z</time>
      </trkpt>
      <trkpt lat="48.44718" lon="13.82486">
        <ele>310</ele>
        <time>2022-05-25T02:02:15Z</time>
      </trkpt>
      <trkpt lat="48.44617" lon="13.82562">
        <ele>316</ele>
        <time>2022-05-25T02:02:35Z</time>
      </trkpt>
      <trkpt lat="48.44592" lon="13.82589">
        <ele>314</ele>
        <time>2022-05-25T02:02:40Z</time>
      </trkpt>
      <trkpt lat="48.4455" lon="13.8265">
        <ele>319</ele>
        <time>2022-05-25T02:02:51Z</time>
      </trkpt>
      <trkpt lat="48.4454" lon="13.82669">
        <ele>319</ele>
        <time>2022-05-25T02:02:54Z</time>
      </trkpt>
      <trkpt lat="48.44336" lon="13.82987">
        <ele>326</ele>
        <time>2022-05-25T02:03:46Z</time>
      </trkpt>
      <trkpt lat="48.44222" lon="13.83154">
        <ele>317</ele>
        <time>2022-05-25T02:04:14Z</time>
      </trkpt>
      <trkpt lat="48.44155" lon="13.8324">
        <ele>319</ele>
        <time>2022-05-25T02:04:30Z</time>
      </trkpt>
      <trkpt lat="48.44004" lon="13.83406">
        <ele>301</ele>
        <time>2022-05-25T02:05:03Z</time>
      </trkpt>
      <trkpt lat="48.43971" lon="13.83451">
        <ele>302</ele>
        <time>2022-05-25T02:05:11Z</time>
      </trkpt>
      <trkpt lat="48.43897" lon="13.83577">
        <ele>302</ele>
        <time>2022-05-25T02:05:31Z</time>
      </trkpt>
      <trkpt lat="48.43831" lon="13.83653">
        <ele>306</ele>
        <time>2022-05-25T02:05:46Z</time>
      </trkpt>
      <trkpt lat="48.43771" lon="13.83698">
        <ele>312</ele>
        <time>2022-05-25T02:05:58Z</time>
      </trkpt>
      <trkpt lat="48.43704" lon="13.83804">
        <ele>310</ele>
        <time>2022-05-25T02:06:15Z</time>
      </trkpt>
      <trkpt lat="48.43639" lon="13.83879">
        <ele>313</ele>
        <time>2022-05-25T02:06:29Z</time>
      </trkpt>
      <trkpt lat="48.43619" lon="13.83918">
        <ele>311</ele>
        <time>2022-05-25T02:06:35Z</time>
      </trkpt>
      <trkpt lat="48.43585" lon="13.8401">
        <ele>308</ele>
        <time>2022-05-25T02:06:48Z</time>
      </trkpt>
      <trkpt lat="48.43357" lon="13.84401">
        <ele>322</ele>
        <time>2022-05-25T02:07:49Z</time>
      </trkpt>
      <trkpt lat="48.43335" lon="13.84428">
        <ele>322</ele>
        <time>2022-05-25T02:07:54Z</time>
      </trkpt>
      <trkpt lat="48.43288" lon="13.84473">
        <ele>322</ele>
        <time>2022-05-25T02:08:04Z</time>
      </trkpt>
      <trkpt lat="48.43262" lon="13.84505">
        <ele>320</ele>
        <time>2022-05-25T02:08:10Z</time>
      </trkpt>
      <trkpt lat="48.43234" lon="13.84567">
        <ele>320</ele>
        <time>2022-05-25T02:08:19Z</time>
      </trkpt>
      <trkpt lat="48.4312" lon="13.84789">
        <ele>319</ele>
        <time>2022-05-25T02:08:52Z</time>
      </trkpt>
      <trkpt lat="48.43052" lon="13.84891">
        <ele>317</ele>
        <time>2022-05-25T02:09:09Z</time>
      </trkpt>
      <trkpt lat="48.42999" lon="13.84987">
        <ele>310</ele>
        <time>2022-05-25T02:09:24Z</time>
      </trkpt>
      <trkpt lat="48.42963" lon="13.85062">
        <ele>305</ele>
        <time>2022-05-25T02:09:35Z</time>
      </trkpt>
      <trkpt lat="48.42929" lon="13.85098">
        <ele>309</ele>
        <time>2022-05-25T02:09:42Z</time>
      </trkpt>
      <trkpt lat="48.42914" lon="13.85122">
        <ele>309</ele>
        <time>2022-05-25T02:09:46Z</time>
      </trkpt>
      <trkpt lat="48.42829" lon="13.85286">
        <ele>311</ele>
        <time>2022-05-25T02:10:11Z</time>
      </trkpt>
      <trkpt lat="48.42659" lon="13.85733">
        <ele>293</ele>
        <time>2022-05-25T02:11:11Z</time>
      </trkpt>
      <trkpt lat="48.42632" lon="13.85793">
        <ele>294</ele>
        <time>2022-05-25T02:11:20Z</time>
      </trkpt>
      <trkpt lat="48.42403" lon="13.86245">
        <ele>289</ele>
        <time>2022-05-25T02:12:27Z</time>
      </trkpt>
      <trkpt lat="48.42356" lon="13.86321">
        <ele>295</ele>
        <time>2022-05-25T02:12:39Z</time>
      </trkpt>
      <trkpt lat="48.42342" lon="13.86369">
        <ele>296</ele>
        <time>2022-05-25T02:12:46Z</time>
      </trkpt>
      <trkpt lat="48.42296" lon="13.86626">
        <ele>295</ele>
        <time>2022-05-25T02:13:17Z</time>
      </trkpt>
      <trkpt lat="48.42298" lon="13.8674">
        <ele>295</ele>
        <time>2022-05-25T02:13:31Z</time>
      </trkpt>
      <trkpt lat="48.42313" lon="13.86856">
        <ele>293</ele>
        <time>2022-05-25T02:13:44Z</time>
      </trkpt>
      <trkpt lat="48.42363" lon="13.86994">
        <ele>284</ele>
        <time>2022-05-25T02:14:03Z</time>
      </trkpt>
      <trkpt lat="48.4237" lon="13.87017">
        <ele>285</ele>
        <time>2022-05-25T02:14:06Z</time>
      </trkpt>
      <trkpt lat="48.42375" lon="13.8706">
        <ele>286</ele>
        <time>2022-05-25T02:14:11Z</time>
      </trkpt>
      <trkpt lat="48.42386" lon="13.87095">
        <ele>288</ele>
        <time>2022-05-25T02:14:16Z</time>
      </trkpt>
      <trkpt lat="48.42303" lon="13.87111">
        <ele>301</ele>
        <time>2022-05-25T02:14:31Z</time>
      </trkpt>
      <trkpt lat="48.42267" lon="13.87128">
        <ele>308</ele>
        <time>2022-05-25T02:14:37Z</time>
      </trkpt>
      <trkpt lat="48.42253" lon="13.87125">
        <ele>308</ele>
        <time>2022-05-25T02:14:40Z</time>
      </trkpt>
      <trkpt lat="48.4224" lon="13.87147">
        <ele>311</ele>
        <time>2022-05-25T02:14:43Z</time>
      </trkpt>
      <trkpt lat="48.42179" lon="13.87228">
        <ele>320</ele>
        <time>2022-05-25T02:14:58Z</time>
      </trkpt>
      <trkpt lat="48.42047" lon="13.87369">
        <ele>327</ele>
        <time>2022-05-25T02:15:27Z</time>
      </trkpt>
      <trkpt lat="48.41977" lon="13.8741">
        <ele>322</ele>
        <time>2022-05-25T02:15:40Z</time>
      </trkpt>
      <trkpt lat="48.4167" lon="13.87535">
        <ele>328</ele>
        <time>2022-05-25T02:16:37Z</time>
      </trkpt>
      <trkpt lat="48.41644" lon="13.87549">
        <ele>331</ele>
        <time>2022-05-25T02:16:41Z</time>
      </trkpt>
      <trkpt lat="48.41614" lon="13.87576">
        <ele>330</ele>
        <time>2022-05-25T02:16:48Z</time>
      </trkpt>
      <trkpt lat="48.41588" lon="13.87614">
        <ele>329</ele>
        <time>2022-05-25T02:16:54Z</time>
      </trkpt>
      <trkpt lat="48.41564" lon="13.87669">
        <ele>333</ele>
        <time>2022-05-25T02:17:02Z</time>
      </trkpt>
      <trkpt lat="48.41415" lon="13.88069">
        <ele>340</ele>
        <time>2022-05-25T02:17:56Z</time>
      </trkpt>
      <trkpt lat="48.41398" lon="13.88099">
        <ele>342</ele>
        <time>2022-05-25T02:18:01Z</time>
      </trkpt>
      <trkpt lat="48.41374" lon="13.88118">
        <ele>343</ele>
        <time>2022-05-25T02:18:06Z</time>
      </trkpt>
      <trkpt lat="48.41296" lon="13.88134">
        <ele>342</ele>
        <time>2022-05-25T02:18:20Z</time>
      </trkpt>
      <trkpt lat="48.41258" lon="13.8815">
        <ele>340</ele>
        <time>2022-05-25T02:18:27Z</time>
      </trkpt>
      <trkpt lat="48.4122" lon="13.88184">
        <ele>346</ele>
        <time>2022-05-25T02:18:34Z</time>
      </trkpt>
      <trkpt lat="48.41186" lon="13.88232">
        <ele>350</ele>
        <time>2022-05-25T02:18:43Z</time>
      </trkpt>
      <trkpt lat="48.41121" lon="13.88379">
        <ele>362</ele>
        <time>2022-05-25T02:19:04Z</time>
      </trkpt>
      <trkpt lat="48.41085" lon="13.88448">
        <ele>361</ele>
        <time>2022-05-25T02:19:14Z</time>
      </trkpt>
      <trkpt lat="48.40977" lon="13.88612">
        <ele>364</ele>
        <time>2022-05-25T02:19:41Z</time>
      </trkpt>
      <trkpt lat="48.40702" lon="13.89054">
        <ele>384</ele>
        <time>2022-05-25T02:20:53Z</time>
      </trkpt>
      <trkpt lat="48.4063" lon="13.89182">
        <ele>387</ele>
        <time>2022-05-25T02:21:13Z</time>
      </trkpt>
      <trkpt lat="48.40535" lon="13.89285">
        <ele>394</ele>
        <time>2022-05-25T02:21:33Z</time>
      </trkpt>
      <trkpt lat="48.40506" lon="13.89324">
        <ele>391</ele>
        <time>2022-05-25T02:21:40Z</time>
      </trkpt>
      <trkpt lat="48.40482" lon="13.89375">
        <ele>395</ele>
        <time>2022-05-25T02:21:48Z</time>
      </trkpt>
      <trkpt lat="48.40375" lon="13.89685">
        <ele>394</ele>
        <time>2022-05-25T02:22:29Z</time>
      </trkpt>
      <trkpt lat="48.40348" lon="13.89766">
        <ele>394</ele>
        <time>2022-05-25T02:22:40Z</time>
      </trkpt>
      <trkpt lat="48.40341" lon="13.89804">
        <ele>397</ele>
        <time>2022-05-25T02:22:44Z</time>
      </trkpt>
      <trkpt lat="48.40342" lon="13.89879">
        <ele>404</ele>
        <time>2022-05-25T02:22:53Z</time>
      </trkpt>
      <trkpt lat="48.40365" lon="13.89974">
        <ele>409</ele>
        <time>2022-05-25T02:23:05Z</time>
      </trkpt>
      <trkpt lat="48.40374" lon="13.90034">
        <ele>410</ele>
        <time>2022-05-25T02:23:12Z</time>
      </trkpt>
      <trkpt lat="48.40375" lon="13.90092">
        <ele>411</ele>
        <time>2022-05-25T02:23:19Z</time>
      </trkpt>
      <trkpt lat="48.40367" lon="13.90162">
        <ele>413</ele>
        <time>2022-05-25T02:23:28Z</time>
      </trkpt>
      <trkpt lat="48.40342" lon="13.90243">
        <ele>413</ele>
        <time>2022-05-25T02:23:38Z</time>
      </trkpt>
      <trkpt lat="48.40298" lon="13.90322">
        <ele>416</ele>
        <time>2022-05-25T02:23:50Z</time>
      </trkpt>
      <trkpt lat="48.40104" lon="13.9062">
        <ele>426</ele>
        <time>2022-05-25T02:24:40Z</time>
      </trkpt>
      <trkpt lat="48.4006" lon="13.9071">
        <ele>428</ele>
        <time>2022-05-25T02:24:53Z</time>
      </trkpt>
      <trkpt lat="48.4001" lon="13.90901">
        <ele>433</ele>
        <time>2022-05-25T02:25:17Z</time>
      </trkpt>
      <trkpt lat="48.39964" lon="13.91047">
        <ele>445</ele>
        <time>2022-05-25T02:25:36Z</time>
      </trkpt>
      <trkpt lat="48.39933" lon="13.9123">
        <ele>454</ele>
        <time>2022-05-25T02:25:59Z</time>
      </trkpt>
      <trkpt lat="48.39904" lon="13.91345">
        <ele>460</ele>
        <time>2022-05-25T02:26:13Z</time>
      </trkpt>
      <trkpt lat="48.39859" lon="13.91486">
        <ele>465</ele>
        <time>2022-05-25T02:26:32Z</time>
      </trkpt>
      <trkpt lat="48.39783" lon="13.91769">
        <ele>460</ele>
        <time>2022-05-25T02:27:08Z</time>
      </trkpt>
      <trkpt lat="48.39757" lon="13.91839">
        <ele>455</ele>
        <time>2022-05-25T02:27:17Z</time>
      </trkpt>
      <trkpt lat="48.39675" lon="13.92002">
        <ele>444</ele>
        <time>2022-05-25T02:27:41Z</time>
      </trkpt>
      <trkpt lat="48.39618" lon="13.92142">
        <ele>440</ele>
        <time>2022-05-25T02:28:01Z</time>
      </trkpt>
      <trkpt lat="48.39547" lon="13.92252">
        <ele>438</ele>
        <time>2022-05-25T02:28:19Z</time>
      </trkpt>
      <trkpt lat="48.39415" lon="13.92498">
        <ele>426</ele>
        <time>2022-05-25T02:28:56Z</time>
      </trkpt>
      <trkpt lat="48.3929" lon="13.92752">
        <ele>413</ele>
        <time>2022-05-25T02:29:34Z</time>
      </trkpt>
      <trkpt lat="48.39053" lon="13.93268">
        <ele>401</ele>
        <time>2022-05-25T02:30:48Z</time>
      </trkpt>
      <trkpt lat="48.38921" lon="13.93492">
        <ele>390</ele>
        <time>2022-05-25T02:31:23Z</time>
      </trkpt>
      <trkpt lat="48.38803" lon="13.93713">
        <ele>380</ele>
        <time>2022-05-25T02:31:57Z</time>
      </trkpt>
      <trkpt lat="48.38724" lon="13.93898">
        <ele>367</ele>
        <time>2022-05-25T02:32:23Z</time>
      </trkpt>
      <trkpt lat="48.38695" lon="13.93974">
        <ele>357</ele>
        <time>2022-05-25T02:32:33Z</time>
      </trkpt>
      <trkpt lat="48.38676" lon="13.94017">
        <ele>354</ele>
        <time>2022-05-25T02:32:39Z</time>
      </trkpt>
      <trkpt lat="48.38666" lon="13.94035">
        <ele>354</ele>
        <time>2022-05-25T02:32:42Z</time>
      </trkpt>
      <trkpt lat="48.38633" lon="13.9408">
        <ele>353</ele>
        <time>2022-05-25T02:32:50Z</time>
      </trkpt>
      <trkpt lat="48.38597" lon="13.94112">
        <ele>350</ele>
        <time>2022-05-25T02:32:57Z</time>
      </trkpt>
      <trkpt lat="48.3854" lon="13.94146">
        <ele>349</ele>
        <time>2022-05-25T02:33:08Z</time>
      </trkpt>
      <trkpt lat="48.38475" lon="13.94177">
        <ele>349</ele>
        <time>2022-05-25T02:33:20Z</time>
      </trkpt>
      <trkpt lat="48.38437" lon="13.94201">
        <ele>350</ele>
        <time>2022-05-25T02:33:27Z</time>
      </trkpt>
      <trkpt lat="48.38324" lon="13.94312">
        <ele>351</ele>
        <time>2022-05-25T02:33:52Z</time>
      </trkpt>
      <trkpt lat="48.38198" lon="13.94406">
        <ele>337</ele>
        <time>2022-05-25T02:34:17Z</time>
      </trkpt>
      <trkpt lat="48.38078" lon="13.94533">
        <ele>331</ele>
        <time>2022-05-25T02:34:43Z</time>
      </trkpt>
      <trkpt lat="48.37901" lon="13.94685">
        <ele>321</ele>
        <time>2022-05-25T02:35:19Z</time>
      </trkpt>
      <trkpt lat="48.37729" lon="13.94879">
        <ele>312</ele>
        <time>2022-05-25T02:35:57Z</time>
      </trkpt>
      <trkpt lat="48.37694" lon="13.94928">
        <ele>305</ele>
        <time>2022-05-25T02:36:06Z</time>
      </trkpt>
      <trkpt lat="48.3767" lon="13.94937">
        <ele>299</ele>
        <time>2022-05-25T02:36:10Z</time>
      </trkpt>
      <trkpt lat="48.37655" lon="13.9493">
        <ele>298</ele>
        <time>2022-05-25T02:36:13Z</time>
      </trkpt>
      <trkpt lat="48.3764" lon="13.94919">
        <ele>298</ele>
        <time>2022-05-25T02:36:16Z</time>
      </trkpt>
      <trkpt lat="48.37663" lon="13.94951">
        <ele>297</ele>
        <time>2022-05-25T02:36:21Z</time>
      </trkpt>
      <trkpt lat="48.37665" lon="13.94967">
        <ele>296</ele>
        <time>2022-05-25T02:36:23Z</time>
      </trkpt>
      <trkpt lat="48.37644" lon="13.95059">
        <ele>288</ele>
        <time>2022-05-25T02:36:35Z</time>
      </trkpt>
      <trkpt lat="48.37642" lon="13.95115">
        <ele>286</ele>
        <time>2022-05-25T02:36:41Z</time>
      </trkpt>
      <trkpt lat="48.37646" lon="13.95164">
        <ele>284</ele>
        <time>2022-05-25T02:36:47Z</time>
      </trkpt>
      <trkpt lat="48.37655" lon="13.95214">
        <ele>282</ele>
        <time>2022-05-25T02:36:53Z</time>
      </trkpt>
      <trkpt lat="48.37669" lon="13.95252">
        <ele>279</ele>
        <time>2022-05-25T02:36:59Z</time>
      </trkpt>
      <trkpt lat="48.37715" lon="13.95352">
        <ele>286</ele>
        <time>2022-05-25T02:37:13Z</time>
      </trkpt>
      <trkpt lat="48.37729" lon="13.95394">
        <ele>288</ele>
        <time>2022-05-25T02:37:18Z</time>
      </trkpt>
      <trkpt lat="48.37737" lon="13.95433">
        <ele>288</ele>
        <time>2022-05-25T02:37:23Z</time>
      </trkpt>
      <trkpt lat="48.3774" lon="13.95504">
        <ele>287</ele>
        <time>2022-05-25T02:37:32Z</time>
      </trkpt>
      <trkpt lat="48.3773" lon="13.95542">
        <ele>288</ele>
        <time>2022-05-25T02:37:36Z</time>
      </trkpt>
      <trkpt lat="48.37728" lon="13.95589">
        <ele>288</ele>
        <time>2022-05-25T02:37:42Z</time>
      </trkpt>
      <trkpt lat="48.37719" lon="13.95621">
        <ele>290</ele>
        <time>2022-05-25T02:37:46Z</time>
      </trkpt>
      <trkpt lat="48.37698" lon="13.95663">
        <ele>287</ele>
        <time>2022-05-25T02:37:52Z</time>
      </trkpt>
      <trkpt lat="48.37674" lon="13.95696">
        <ele>286</ele>
        <time>2022-05-25T02:37:58Z</time>
      </trkpt>
      <trkpt lat="48.37619" lon="13.9574">
        <ele>284</ele>
        <time>2022-05-25T02:38:09Z</time>
      </trkpt>
      <trkpt lat="48.37409" lon="13.95867">
        <ele>288</ele>
        <time>2022-05-25T02:38:50Z</time>
      </trkpt>
      <trkpt lat="48.37391" lon="13.95883">
        <ele>288</ele>
        <time>2022-05-25T02:38:53Z</time>
      </trkpt>
      <trkpt lat="48.37343" lon="13.95947">
        <ele>286</ele>
        <time>2022-05-25T02:39:05Z</time>
      </trkpt>
      <trkpt lat="48.37326" lon="13.95975">
        <ele>285</ele>
        <time>2022-05-25T02:39:09Z</time>
      </trkpt>
      <trkpt lat="48.37295" lon="13.96046">
        <ele>286</ele>
        <time>2022-05-25T02:39:19Z</time>
      </trkpt>
      <trkpt lat="48.37278" lon="13.96116">
        <ele>283</ele>
        <time>2022-05-25T02:39:28Z</time>
      </trkpt>
      <trkpt lat="48.37269" lon="13.96172">
        <ele>280</ele>
        <time>2022-05-25T02:39:35Z</time>
      </trkpt>
      <trkpt lat="48.37266" lon="13.9625">
        <ele>280</ele>
        <time>2022-05-25T02:39:44Z</time>
      </trkpt>
      <trkpt lat="48.37277" lon="13.96387">
        <ele>281</ele>
        <time>2022-05-25T02:40:00Z</time>
      </trkpt>
      <trkpt lat="48.3728" lon="13.96407">
        <ele>281</ele>
        <time>2022-05-25T02:40:03Z</time>
      </trkpt>
      <trkpt lat="48.37288" lon="13.96421">
        <ele>283</ele>
        <time>2022-05-25T02:40:05Z</time>
      </trkpt>
      <trkpt lat="48.37318" lon="13.96525">
        <ele>285</ele>
        <time>2022-05-25T02:40:18Z</time>
      </trkpt>
      <trkpt lat="48.37349" lon="13.96677">
        <ele>286</ele>
        <time>2022-05-25T02:40:37Z</time>
      </trkpt>
      <trkpt lat="48.37381" lon="13.96919">
        <ele>277</ele>
        <time>2022-05-25T02:41:06Z</time>
      </trkpt>
      <trkpt lat="48.37388" lon="13.9703">
        <ele>277</ele>
        <time>2022-05-25T02:41:19Z</time>
      </trkpt>
      <trkpt lat="48.37383" lon="13.97107">
        <ele>276</ele>
        <time>2022-05-25T02:41:29Z</time>
      </trkpt>
      <trkpt lat="48.37359" lon="13.97222">
        <ele>275</ele>
        <time>2022-05-25T02:41:43Z</time>
      </trkpt>
      <trkpt lat="48.37314" lon="13.9733">
        <ele>274</ele>
        <time>2022-05-25T02:41:58Z</time>
      </trkpt>
      <trkpt lat="48.37281" lon="13.97385">
        <ele>273</ele>
        <time>2022-05-25T02:42:07Z</time>
      </trkpt>
      <trkpt lat="48.37217" lon="13.97466">
        <ele>271</ele>
        <time>2022-05-25T02:42:22Z</time>
      </trkpt>
      <trkpt lat="48.3722" lon="13.97477">
        <ele>271</ele>
        <time>2022-05-25T02:42:23Z</time>
      </trkpt>
      <trkpt lat="48.37243" lon="13.9752">
        <ele>272</ele>
        <time>2022-05-25T02:42:30Z</time>
      </trkpt>
      <trkpt lat="48.37299" lon="13.97567">
        <ele>273</ele>
        <time>2022-05-25T02:42:41Z</time>
      </trkpt>
      <trkpt lat="48.37359" lon="13.97632">
        <ele>274</ele>
        <time>2022-05-25T02:42:54Z</time>
      </trkpt>
      <trkpt lat="48.37396" lon="13.97647">
        <ele>275</ele>
        <time>2022-05-25T02:43:01Z</time>
      </trkpt>
      <trkpt lat="48.37406" lon="13.9766">
        <ele>276</ele>
        <time>2022-05-25T02:43:03Z</time>
      </trkpt>
      <trkpt lat="48.37408" lon="13.97693">
        <ele>275</ele>
        <time>2022-05-25T02:43:07Z</time>
      </trkpt>
      <trkpt lat="48.374" lon="13.97811">
        <ele>275</ele>
        <time>2022-05-25T02:43:21Z</time>
      </trkpt>
      <trkpt lat="48.37405" lon="13.97844">
        <ele>275</ele>
        <time>2022-05-25T02:43:25Z</time>
      </trkpt>
      <trkpt lat="48.37421" lon="13.97856">
        <ele>275</ele>
        <time>2022-05-25T02:43:28Z</time>
      </trkpt>
      <trkpt lat="48.37437" lon="13.97856">
        <ele>276</ele>
        <time>2022-05-25T02:43:31Z</time>
      </trkpt>
      <trkpt lat="48.37613" lon="13.97842">
        <ele>289</ele>
        <time>2022-05-25T02:44:03Z</time>
      </trkpt>
      <trkpt lat="48.37677" lon="13.97857">
        <ele>296</ele>
        <time>2022-05-25T02:44:14Z</time>
      </trkpt>
      <trkpt lat="48.3771" lon="13.97855">
        <ele>297</ele>
        <time>2022-05-25T02:44:20Z</time>
      </trkpt>
      <trkpt lat="48.37724" lon="13.9786">
        <ele>298</ele>
        <time>2022-05-25T02:44:23Z</time>
      </trkpt>
      <trkpt lat="48.37729" lon="13.9787">
        <ele>298</ele>
        <time>2022-05-25T02:44:24Z</time>
      </trkpt>
      <trkpt lat="48.37739" lon="13.97928">
        <ele>299</ele>
        <time>2022-05-25T02:44:31Z</time>
      </trkpt>
      <trkpt lat="48.37755" lon="13.9798">
        <ele>299</ele>
        <time>2022-05-25T02:44:38Z</time>
      </trkpt>
      <trkpt lat="48.37778" lon="13.98016">
        <ele>299</ele>
        <time>2022-05-25T02:44:44Z</time>
      </trkpt>
      <trkpt lat="48.37816" lon="13.98024">
        <ele>300</ele>
        <time>2022-05-25T02:44:51Z</time>
      </trkpt>
      <trkpt lat="48.37824" lon="13.98047">
        <ele>300</ele>
        <time>2022-05-25T02:44:54Z</time>
      </trkpt>
      <trkpt lat="48.37847" lon="13.98224">
        <ele>300</ele>
        <time>2022-05-25T02:45:15Z</time>
      </trkpt>
      <trkpt lat="48.37877" lon="13.9832">
        <ele>300</ele>
        <time>2022-05-25T02:45:27Z</time>
      </trkpt>
      <trkpt lat="48.37879" lon="13.98349">
        <ele>299</ele>
        <time>2022-05-25T02:45:31Z</time>
      </trkpt>
      <trkpt lat="48.37875" lon="13.98371">
        <ele>298</ele>
        <time>2022-05-25T02:45:34Z</time>
      </trkpt>
      <trkpt lat="48.37835" lon="13.98466">
        <ele>296</ele>
        <time>2022-05-25T02:45:47Z</time>
      </trkpt>
      <trkpt lat="48.37829" lon="13.98487">
        <ele>296</ele>
        <time>2022-05-25T02:45:50Z</time>
      </trkpt>
      <trkpt lat="48.37773" lon="13.9861">
        <ele>290</ele>
        <time>2022-05-25T02:46:07Z</time>
      </trkpt>
      <trkpt lat="48.37725" lon="13.98759">
        <ele>284</ele>
        <time>2022-05-25T02:46:27Z</time>
      </trkpt>
      <trkpt lat="48.37714" lon="13.98828">
        <ele>283</ele>
        <time>2022-05-25T02:46:35Z</time>
      </trkpt>
      <trkpt lat="48.37719" lon="13.98963">
        <ele>284</ele>
        <time>2022-05-25T02:46:51Z</time>
      </trkpt>
      <trkpt lat="48.3773" lon="13.99003">
        <ele>285</ele>
        <time>2022-05-25T02:46:56Z</time>
      </trkpt>
      <trkpt lat="48.37758" lon="13.99052">
        <ele>287</ele>
        <time>2022-05-25T02:47:04Z</time>
      </trkpt>
      <trkpt lat="48.37766" lon="13.99076">
        <ele>287</ele>
        <time>2022-05-25T02:47:07Z</time>
      </trkpt>
      <trkpt lat="48.37768" lon="13.99104">
        <ele>288</ele>
        <time>2022-05-25T02:47:10Z</time>
      </trkpt>
      <trkpt lat="48.3776" lon="13.99149">
        <ele>290</ele>
        <time>2022-05-25T02:47:16Z</time>
      </trkpt>
      <trkpt lat="48.37719" lon="13.99333">
        <ele>287</ele>
        <time>2022-05-25T02:47:39Z</time>
      </trkpt>
      <trkpt lat="48.37693" lon="13.99578">
        <ele>288</ele>
        <time>2022-05-25T02:48:08Z</time>
      </trkpt>
      <trkpt lat="48.37642" lon="13.99809">
        <ele>290</ele>
        <time>2022-05-25T02:48:37Z</time>
      </trkpt>
      <trkpt lat="48.37649" lon="13.99834">
        <ele>290</ele>
        <time>2022-05-25T02:48:40Z</time>
      </trkpt>
      <trkpt lat="48.37615" lon="13.9994">
        <ele>288</ele>
        <time>2022-05-25T02:48:54Z</time>
      </trkpt>
      <trkpt lat="48.37601" lon="13.99976">
        <ele>287</ele>
        <time>2022-05-25T02:48:59Z</time>
      </trkpt>
      <trkpt lat="48.37523" lon="14.00026">
        <ele>286</ele>
        <time>2022-05-25T02:49:14Z</time>
      </trkpt>
      <trkpt lat="48.37492" lon="14.00055">
        <ele>286</ele>
        <time>2022-05-25T02:49:21Z</time>
      </trkpt>
      <trkpt lat="48.37443" lon="14.00074">
        <ele>284</ele>
        <time>2022-05-25T02:49:30Z</time>
      </trkpt>
      <trkpt lat="48.37441" lon="14.00101">
        <ele>284</ele>
        <time>2022-05-25T02:49:33Z</time>
      </trkpt>
      <trkpt lat="48.37407" lon="14.00172">
        <ele>283</ele>
        <time>2022-05-25T02:49:43Z</time>
      </trkpt>
      <trkpt lat="48.37359" lon="14.00285">
        <ele>283</ele>
        <time>2022-05-25T02:49:59Z</time>
      </trkpt>
      <trkpt lat="48.37283" lon="14.0043">
        <ele>283</ele>
        <time>2022-05-25T02:50:21Z</time>
      </trkpt>
      <trkpt lat="48.37251" lon="14.00534">
        <ele>283</ele>
        <time>2022-05-25T02:50:34Z</time>
      </trkpt>
      <trkpt lat="48.37226" lon="14.00652">
        <ele>285</ele>
        <time>2022-05-25T02:50:49Z</time>
      </trkpt>
      <trkpt lat="48.37201" lon="14.00791">
        <ele>285</ele>
        <time>2022-05-25T02:51:06Z</time>
      </trkpt>
      <trkpt lat="48.37184" lon="14.00855">
        <ele>284</ele>
        <time>2022-05-25T02:51:14Z</time>
      </trkpt>
      <trkpt lat="48.37149" lon="14.00951">
        <ele>286</ele>
        <time>2022-05-25T02:51:27Z</time>
      </trkpt>
      <trkpt lat="48.37144" lon="14.0099">
        <ele>287</ele>
        <time>2022-05-25T02:51:32Z</time>
      </trkpt>
      <trkpt lat="48.37164" lon="14.01153">
        <ele>288</ele>
        <time>2022-05-25T02:51:51Z</time>
      </trkpt>
      <trkpt lat="48.37166" lon="14.01206">
        <ele>289</ele>
        <time>2022-05-25T02:51:58Z</time>
      </trkpt>
      <trkpt lat="48.37149" lon="14.01359">
        <ele>292</ele>
        <time>2022-05-25T02:52:16Z</time>
      </trkpt>
      <trkpt lat="48.37113" lon="14.01552">
        <ele>292</ele>
        <time>2022-05-25T02:52:40Z</time>
      </trkpt>
      <trkpt lat="48.37099" lon="14.01603">
        <ele>291</ele>
        <time>2022-05-25T02:52:46Z</time>
      </trkpt>
      <trkpt lat="48.37056" lon="14.01692">
        <ele>290</ele>
        <time>2022-05-25T02:52:59Z</time>
      </trkpt>
      <trkpt lat="48.37017" lon="14.01822">
        <ele>292</ele>
        <time>2022-05-25T02:53:16Z</time>
      </trkpt>
      <trkpt lat="48.37012" lon="14.01853">
        <ele>291</ele>
        <time>2022-05-25T02:53:20Z</time>
      </trkpt>
      <trkpt lat="48.37024" lon="14.01953">
        <ele>287</ele>
        <time>2022-05-25T02:53:32Z</time>
      </trkpt>
      <trkpt lat="48.37016" lon="14.0199">
        <ele>286</ele>
        <time>2022-05-25T02:53:37Z</time>
      </trkpt>
      <trkpt lat="48.36981" lon="14.02065">
        <ele>284</ele>
        <time>2022-05-25T02:53:47Z</time>
      </trkpt>
      <trkpt lat="48.36952" lon="14.02162">
        <ele>281</ele>
        <time>2022-05-25T02:54:00Z</time>
      </trkpt>
      <trkpt lat="48.36938" lon="14.02202">
        <ele>280</ele>
        <time>2022-05-25T02:54:05Z</time>
      </trkpt>
      <trkpt lat="48.36917" lon="14.02249">
        <ele>278</ele>
        <time>2022-05-25T02:54:12Z</time>
      </trkpt>
      <trkpt lat="48.36891" lon="14.02245">
        <ele>278</ele>
        <time>2022-05-25T02:54:17Z</time>
      </trkpt>
      <trkpt lat="48.36862" lon="14.02248">
        <ele>277</ele>
        <time>2022-05-25T02:54:22Z</time>
      </trkpt>
      <trkpt lat="48.36804" lon="14.02402">
        <ele>273</ele>
        <time>2022-05-25T02:54:43Z</time>
      </trkpt>
      <trkpt lat="48.36791" lon="14.02393">
        <ele>273</ele>
        <time>2022-05-25T02:54:45Z</time>
      </trkpt>
      <trkpt lat="48.36724" lon="14.02563">
        <ele>269</ele>
        <time>2022-05-25T02:55:09Z</time>
      </trkpt>
      <trkpt lat="48.36672" lon="14.02546">
        <ele>269</ele>
        <time>2022-05-25T02:55:18Z</time>
      </trkpt>
      <trkpt lat="48.36666" lon="14.02575">
        <ele>269</ele>
        <time>2022-05-25T02:55:22Z</time>
      </trkpt>
      <trkpt lat="48.3634" lon="14.02418">
        <ele>268</ele>
        <time>2022-05-25T02:56:23Z</time>
      </trkpt>
      <trkpt lat="48.36323" lon="14.02406">
        <ele>268</ele>
        <time>2022-05-25T02:56:26Z</time>
      </trkpt>
      <trkpt lat="48.36216" lon="14.02365">
        <ele>269</ele>
        <time>2022-05-25T02:56:46Z</time>
      </trkpt>
      <trkpt lat="48.36154" lon="14.02333">
        <ele>269</ele>
        <time>2022-05-25T02:56:57Z</time>
      </trkpt>
      <trkpt lat="48.36016" lon="14.02269">
        <ele>268</ele>
        <time>2022-05-25T02:57:23Z</time>
      </trkpt>
      <trkpt lat="48.35931" lon="14.0224">
        <ele>268</ele>
        <time>2022-05-25T02:57:38Z</time>
      </trkpt>
      <trkpt lat="48.35503" lon="14.02075">
        <ele>272</ele>
        <time>2022-05-25T02:58:57Z</time>
      </trkpt>
      <trkpt lat="48.35415" lon="14.0205">
        <ele>272</ele>
        <time>2022-05-25T02:59:13Z</time>
      </trkpt>
      <trkpt lat="48.35294" lon="14.0202">
        <ele>270</ele>
        <time>2022-05-25T02:59:35Z</time>
      </trkpt>
      <trkpt lat="48.35189" lon="14.02007">
        <ele>268</ele>
        <time>2022-05-25T02:59:54Z</time>
      </trkpt>
      <trkpt lat="48.34919" lon="14.0196">
        <ele>267</ele>
        <time>2022-05-25T03:00:42Z</time>
      </trkpt>
      <trkpt lat="48.34891" lon="14.01952">
        <ele>267</ele>
        <time>2022-05-25T03:00:47Z</time>
      </trkpt>
      <trkpt lat="48.34767" lon="14.01945">
        <ele>267</ele>
        <time>2022-05-25T03:01:09Z</time>
      </trkpt>
      <trkpt lat="48.34681" lon="14.01949">
        <ele>266</ele>
        <time>2022-05-25T03:01:24Z</time>
      </trkpt>
      <trkpt lat="48.34612" lon="14.01964">
        <ele>267</ele>
        <time>2022-05-25T03:01:37Z</time>
      </trkpt>
      <trkpt lat="48.34359" lon="14.02025">
        <ele>265</ele>
        <time>2022-05-25T03:02:22Z</time>
      </trkpt>
      <trkpt lat="48.34237" lon="14.02069">
        <ele>264</ele>
        <time>2022-05-25T03:02:45Z</time>
      </trkpt>
      <trkpt lat="48.34119" lon="14.02121">
        <ele>264</ele>
        <time>2022-05-25T03:03:07Z</time>
      </trkpt>
      <trkpt lat="48.33969" lon="14.02207">
        <ele>265</ele>
        <time>2022-05-25T03:03:35Z</time>
      </trkpt>
      <trkpt lat="48.33818" lon="14.02319">
        <ele>265</ele>
        <time>2022-05-25T03:04:05Z</time>
      </trkpt>
      <trkpt lat="48.33736" lon="14.02365">
        <ele>264</ele>
        <time>2022-05-25T03:04:21Z</time>
      </trkpt>
      <trkpt lat="48.33695" lon="14.02378">
        <ele>263</ele>
        <time>2022-05-25T03:04:28Z</time>
      </trkpt>
      <trkpt lat="48.33659" lon="14.02375">
        <ele>263</ele>
        <time>2022-05-25T03:04:35Z</time>
      </trkpt>
      <trkpt lat="48.33642" lon="14.02367">
        <ele>263</ele>
        <time>2022-05-25T03:04:38Z</time>
      </trkpt>
      <trkpt lat="48.33627" lon="14.0237">
        <ele>264</ele>
        <time>2022-05-25T03:04:40Z</time>
      </trkpt>
      <trkpt lat="48.33652" lon="14.02475">
        <ele>266</ele>
        <time>2022-05-25T03:04:54Z</time>
      </trkpt>
      <trkpt lat="48.33655" lon="14.02537">
        <ele>265</ele>
        <time>2022-05-25T03:05:01Z</time>
      </trkpt>
      <trkpt lat="48.33616" lon="14.02595">
        <ele>265</ele>
        <time>2022-05-25T03:05:11Z</time>
      </trkpt>
      <trkpt lat="48.33526" lon="14.02659">
        <ele>265</ele>
        <time>2022-05-25T03:05:28Z</time>
      </trkpt>
      <trkpt lat="48.33466" lon="14.0272">
        <ele>264</ele>
        <time>2022-05-25T03:05:41Z</time>
      </trkpt>
      <trkpt lat="48.33456" lon="14.0274">
        <ele>264</ele>
        <time>2022-05-25T03:05:44Z</time>
      </trkpt>
      <trkpt lat="48.33225" lon="14.02974">
        <ele>263</ele>
        <time>2022-05-25T03:06:34Z</time>
      </trkpt>
      <trkpt lat="48.33128" lon="14.03083">
        <ele>263</ele>
        <time>2022-05-25T03:06:55Z</time>
      </trkpt>
      <trkpt lat="48.3301" lon="14.03267">
        <ele>263</ele>
        <time>2022-05-25T03:07:26Z</time>
      </trkpt>
      <trkpt lat="48.32918" lon="14.03436">
        <ele>263</ele>
        <time>2022-05-25T03:07:51Z</time>
      </trkpt>
      <trkpt lat="48.32897" lon="14.03456">
        <ele>264</ele>
        <time>2022-05-25T03:07:56Z</time>
      </trkpt>
      <trkpt lat="48.32878" lon="14.03492">
        <ele>265</ele>
        <time>2022-05-25T03:08:01Z</time>
      </trkpt>
      <trkpt lat="48.32814" lon="14.0362">
        <ele>265</ele>
        <time>2022-05-25T03:08:20Z</time>
      </trkpt>
      <trkpt lat="48.32763" lon="14.03744">
        <ele>264</ele>
        <time>2022-05-25T03:08:37Z</time>
      </trkpt>
      <trkpt lat="48.32703" lon="14.03905">
        <ele>266</ele>
        <time>2022-05-25T03:08:59Z</time>
      </trkpt>
      <trkpt lat="48.32652" lon="14.04069">
        <ele>263</ele>
        <time>2022-05-25T03:09:21Z</time>
      </trkpt>
      <trkpt lat="48.32544" lon="14.04454">
        <ele>263</ele>
        <time>2022-05-25T03:10:10Z</time>
      </trkpt>
      <trkpt lat="48.325" lon="14.04638">
        <ele>262</ele>
        <time>2022-05-25T03:10:33Z</time>
      </trkpt>
      <trkpt lat="48.32385" lon="14.05187">
        <ele>262</ele>
        <time>2022-05-25T03:11:41Z</time>
      </trkpt>
      <trkpt lat="48.32357" lon="14.05294">
        <ele>262</ele>
        <time>2022-05-25T03:11:55Z</time>
      </trkpt>
      <trkpt lat="48.32323" lon="14.05398">
        <ele>262</ele>
        <time>2022-05-25T03:12:09Z</time>
      </trkpt>
      <trkpt lat="48.32245" lon="14.0558">
        <ele>264</ele>
        <time>2022-05-25T03:12:34Z</time>
      </trkpt>
      <trkpt lat="48.31935" lon="14.0617">
        <ele>262</ele>
        <time>2022-05-25T03:14:03Z</time>
      </trkpt>
      <trkpt lat="48.31862" lon="14.06318">
        <ele>262</ele>
        <time>2022-05-25T03:14:25Z</time>
      </trkpt>
      <trkpt lat="48.31805" lon="14.06463">
        <ele>262</ele>
        <time>2022-05-25T03:14:45Z</time>
      </trkpt>
      <trkpt lat="48.31735" lon="14.06725">
        <ele>264</ele>
        <time>2022-05-25T03:15:18Z</time>
      </trkpt>
      <trkpt lat="48.31698" lon="14.06898">
        <ele>264</ele>
        <time>2022-05-25T03:15:40Z</time>
      </trkpt>
      <trkpt lat="48.31654" lon="14.07162">
        <ele>262</ele>
        <time>2022-05-25T03:16:12Z</time>
      </trkpt>
      <trkpt lat="48.31618" lon="14.07512">
        <ele>263</ele>
        <time>2022-05-25T03:16:54Z</time>
      </trkpt>
      <trkpt lat="48.31595" lon="14.07791">
        <ele>262</ele>
        <time>2022-05-25T03:17:27Z</time>
      </trkpt>
      <trkpt lat="48.31553" lon="14.08155">
        <ele>261</ele>
        <time>2022-05-25T03:18:11Z</time>
      </trkpt>
      <trkpt lat="48.31526" lon="14.08331">
        <ele>261</ele>
        <time>2022-05-25T03:18:32Z</time>
      </trkpt>
      <trkpt lat="48.31458" lon="14.08713">
        <ele>263</ele>
        <time>2022-05-25T03:19:19Z</time>
      </trkpt>
      <trkpt lat="48.31439" lon="14.09008">
        <ele>262</ele>
        <time>2022-05-25T03:19:54Z</time>
      </trkpt>
      <trkpt lat="48.31414" lon="14.09192">
        <ele>261</ele>
        <time>2022-05-25T03:20:16Z</time>
      </trkpt>
      <trkpt lat="48.31371" lon="14.09473">
        <ele>263</ele>
        <time>2022-05-25T03:20:51Z</time>
      </trkpt>
      <trkpt lat="48.31308" lon="14.0972">
        <ele>263</ele>
        <time>2022-05-25T03:21:22Z</time>
      </trkpt>
      <trkpt lat="48.31197" lon="14.10043">
        <ele>263</ele>
        <time>2022-05-25T03:22:05Z</time>
      </trkpt>
      <trkpt lat="48.30978" lon="14.1055">
        <ele>262</ele>
        <time>2022-05-25T03:23:16Z</time>
      </trkpt>
      <trkpt lat="48.30921" lon="14.10696">
        <ele>263</ele>
        <time>2022-05-25T03:23:37Z</time>
      </trkpt>
      <trkpt lat="48.30857" lon="14.10918">
        <ele>261</ele>
        <time>2022-05-25T03:24:05Z</time>
      </trkpt>
      <trkpt lat="48.30824" lon="14.111">
        <ele>261</ele>
        <time>2022-05-25T03:24:27Z</time>
      </trkpt>
      <trkpt lat="48.30805" lon="14.11277">
        <ele>262</ele>
        <time>2022-05-25T03:24:49Z</time>
      </trkpt>
      <trkpt lat="48.30787" lon="14.1167">
        <ele>261</ele>
        <time>2022-05-25T03:25:35Z</time>
      </trkpt>
      <trkpt lat="48.30793" lon="14.11879">
        <ele>260</ele>
        <time>2022-05-25T03:26:00Z</time>
      </trkpt>
      <trkpt lat="48.30819" lon="14.12166">
        <ele>259</ele>
        <time>2022-05-25T03:26:34Z</time>
      </trkpt>
      <trkpt lat="48.30831" lon="14.12254">
        <ele>259</ele>
        <time>2022-05-25T03:26:45Z</time>
      </trkpt>
      <trkpt lat="48.309" lon="14.12585">
        <ele>259</ele>
        <time>2022-05-25T03:27:26Z</time>
      </trkpt>
      <trkpt lat="48.31037" lon="14.13084">
        <ele>260</ele>
        <time>2022-05-25T03:28:30Z</time>
      </trkpt>
      <trkpt lat="48.31275" lon="14.1382">
        <ele>263</ele>
        <time>2022-05-25T03:30:07Z</time>
      </trkpt>
      <trkpt lat="48.31336" lon="14.14064">
        <ele>261</ele>
        <time>2022-05-25T03:30:38Z</time>
      </trkpt>
      <trkpt lat="48.31371" lon="14.14234">
        <ele>261</ele>
        <time>2022-05-25T03:30:59Z</time>
      </trkpt>
      <trkpt lat="48.31486" lon="14.14922">
        <ele>263</ele>
        <time>2022-05-25T03:32:23Z</time>
      </trkpt>
      <trkpt lat="48.31479" lon="14.1495">
        <ele>264</ele>
        <time>2022-05-25T03:32:26Z</time>
      </trkpt>
      <trkpt lat="48.31447" lon="14.15005">
        <ele>267</ele>
        <time>2022-05-25T03:32:35Z</time>
      </trkpt>
      <trkpt lat="48.31434" lon="14.15061">
        <ele>267</ele>
        <time>2022-05-25T03:32:42Z</time>
      </trkpt>
      <trkpt lat="48.31441" lon="14.15128">
        <ele>265</ele>
        <time>2022-05-25T03:32:50Z</time>
      </trkpt>
      <trkpt lat="48.31467" lon="14.15205">
        <ele>265</ele>
        <time>2022-05-25T03:33:00Z</time>
      </trkpt>
      <trkpt lat="48.31471" lon="14.15231">
        <ele>265</ele>
        <time>2022-05-25T03:33:03Z</time>
      </trkpt>
      <trkpt lat="48.31494" lon="14.15297">
        <ele>265</ele>
        <time>2022-05-25T03:33:12Z</time>
      </trkpt>
      <trkpt lat="48.31504" lon="14.15321">
        <ele>266</ele>
        <time>2022-05-25T03:33:15Z</time>
      </trkpt>
      <trkpt lat="48.31511" lon="14.15317">
        <ele>265</ele>
        <time>2022-05-25T03:33:17Z</time>
      </trkpt>
      <trkpt lat="48.31538" lon="14.15392">
        <ele>265</ele>
        <time>2022-05-25T03:33:27Z</time>
      </trkpt>
      <trkpt lat="48.31556" lon="14.15452">
        <ele>264</ele>
        <time>2022-05-25T03:33:35Z</time>
      </trkpt>
      <trkpt lat="48.31581" lon="14.15572">
        <ele>263</ele>
        <time>2022-05-25T03:33:49Z</time>
      </trkpt>
      <trkpt lat="48.31588" lon="14.15679">
        <ele>263</ele>
        <time>2022-05-25T03:34:02Z</time>
      </trkpt>
      <trkpt lat="48.31588" lon="14.15741">
        <ele>264</ele>
        <time>2022-05-25T03:34:10Z</time>
      </trkpt>
      <trkpt lat="48.31566" lon="14.15919">
        <ele>261</ele>
        <time>2022-05-25T03:34:31Z</time>
      </trkpt>
      <trkpt lat="48.31514" lon="14.16251">
        <ele>264</ele>
        <time>2022-05-25T03:35:11Z</time>
      </trkpt>
      <trkpt lat="48.31527" lon="14.16244">
        <ele>265</ele>
        <time>2022-05-25T03:35:14Z</time>
      </trkpt>
      <trkpt lat="48.31583" lon="14.16183">
        <ele>264</ele>
        <time>2022-05-25T03:35:26Z</time>
      </trkpt>
      <trkpt lat="48.3158" lon="14.1613">
        <ele>262</ele>
        <time>2022-05-25T03:35:32Z</time>
      </trkpt>
      <trkpt lat="48.31592" lon="14.16113">
        <ele>260</ele>
        <time>2022-05-25T03:35:35Z</time>
      </trkpt>
      <trkpt lat="48.31637" lon="14.16109">
        <ele>257</ele>
        <time>2022-05-25T03:35:43Z</time>
      </trkpt>
      <trkpt lat="48.31702" lon="14.16119">
        <ele>257</ele>
        <time>2022-05-25T03:35:55Z</time>
      </trkpt>
      <trkpt lat="48.31842" lon="14.16164">
        <ele>261</ele>
        <time>2022-05-25T03:36:20Z</time>
      </trkpt>
      <trkpt lat="48.31938" lon="14.16168">
        <ele>261</ele>
        <time>2022-05-25T03:36:38Z</time>
      </trkpt>
      <trkpt lat="48.32055" lon="14.16315">
        <ele>269</ele>
        <time>2022-05-25T03:37:05Z</time>
      </trkpt>
      <trkpt lat="48.32074" lon="14.16448">
        <ele>268</ele>
        <time>2022-05-25T03:37:21Z</time>
      </trkpt>
      <trkpt lat="48.32113" lon="14.16622">
        <ele>267</ele>
        <time>2022-05-25T03:37:42Z</time>
      </trkpt>
      <trkpt lat="48.32263" lon="14.16905">
        <ele>262</ele>
        <time>2022-05-25T03:38:25Z</time>
      </trkpt>
      <trkpt lat="48.32287" lon="14.16936">
        <ele>263</ele>
        <time>2022-05-25T03:38:31Z</time>
      </trkpt>
      <trkpt lat="48.32308" lon="14.16977">
        <ele>264</ele>
        <time>2022-05-25T03:38:37Z</time>
      </trkpt>
      <trkpt lat="48.32334" lon="14.17175">
        <ele>266</ele>
        <time>2022-05-25T03:39:01Z</time>
      </trkpt>
      <trkpt lat="48.32344" lon="14.17222">
        <ele>264</ele>
        <time>2022-05-25T03:39:07Z</time>
      </trkpt>
      <trkpt lat="48.32385" lon="14.17251">
        <ele>264</ele>
        <time>2022-05-25T03:39:15Z</time>
      </trkpt>
      <trkpt lat="48.32446" lon="14.17268">
        <ele>266</ele>
        <time>2022-05-25T03:39:26Z</time>
      </trkpt>
      <trkpt lat="48.32494" lon="14.17298">
        <ele>267</ele>
        <time>2022-05-25T03:39:35Z</time>
      </trkpt>
      <trkpt lat="48.32565" lon="14.17319">
        <ele>266</ele>
        <time>2022-05-25T03:39:48Z</time>
      </trkpt>
      <trkpt lat="48.32627" lon="14.17362">
        <ele>263</ele>
        <time>2022-05-25T03:40:00Z</time>
      </trkpt>
      <trkpt lat="48.32673" lon="14.17421">
        <ele>262</ele>
        <time>2022-05-25T03:40:11Z</time>
      </trkpt>
      <trkpt lat="48.32726" lon="14.17467">
        <ele>263</ele>
        <time>2022-05-25T03:40:22Z</time>
      </trkpt>
      <trkpt lat="48.32748" lon="14.17494">
        <ele>263</ele>
        <time>2022-05-25T03:40:27Z</time>
      </trkpt>
      <trkpt lat="48.32779" lon="14.17546">
        <ele>263</ele>
        <time>2022-05-25T03:40:35Z</time>
      </trkpt>
      <trkpt lat="48.32813" lon="14.17624">
        <ele>261</ele>
        <time>2022-05-25T03:40:46Z</time>
      </trkpt>
      <trkpt lat="48.32881" lon="14.17796">
        <ele>261</ele>
        <time>2022-05-25T03:41:10Z</time>
      </trkpt>
      <trkpt lat="48.32884" lon="14.17844">
        <ele>260</ele>
        <time>2022-05-25T03:41:15Z</time>
      </trkpt>
      <trkpt lat="48.33064" lon="14.17689">
        <ele>259</ele>
        <time>2022-05-25T03:41:52Z</time>
      </trkpt>
      <trkpt lat="48.33109" lon="14.1779">
        <ele>259</ele>
        <time>2022-05-25T03:42:07Z</time>
      </trkpt>
      <trkpt lat="48.33144" lon="14.17861">
        <ele>258</ele>
        <time>2022-05-25T03:42:17Z</time>
      </trkpt>
      <trkpt lat="48.33233" lon="14.17993">
        <ele>258</ele>
        <time>2022-05-25T03:42:39Z</time>
      </trkpt>
      <trkpt lat="48.33286" lon="14.18102">
        <ele>259</ele>
        <time>2022-05-25T03:42:55Z</time>
      </trkpt>
      <trkpt lat="48.33356" lon="14.18283">
        <ele>260</ele>
        <time>2022-05-25T03:43:20Z</time>
      </trkpt>
      <trkpt lat="48.33393" lon="14.1829">
        <ele>259</ele>
        <time>2022-05-25T03:43:27Z</time>
      </trkpt>
      <trkpt lat="48.33433" lon="14.18288">
        <ele>259</ele>
        <time>2022-05-25T03:43:34Z</time>
      </trkpt>
      <trkpt lat="48.33439" lon="14.18293">
        <ele>259</ele>
        <time>2022-05-25T03:43:35Z</time>
      </trkpt>
      <trkpt lat="48.33467" lon="14.18451">
        <ele>260</ele>
        <time>2022-05-25T03:43:55Z</time>
      </trkpt>
      <trkpt lat="48.33481" lon="14.18449">
        <ele>260</ele>
        <time>2022-05-25T03:43:57Z</time>
      </trkpt>
      <trkpt lat="48.33483" lon="14.18507">
        <ele>262</ele>
        <time>2022-05-25T03:44:04Z</time>
      </trkpt>
      <trkpt lat="48.33468" lon="14.18553">
        <ele>264</ele>
        <time>2022-05-25T03:44:10Z</time>
      </trkpt>
      <trkpt lat="48.33329" lon="14.18867">
        <ele>262</ele>
        <time>2022-05-25T03:44:55Z</time>
      </trkpt>
      <trkpt lat="48.33361" lon="14.18908">
        <ele>266</ele>
        <time>2022-05-25T03:45:02Z</time>
      </trkpt>
      <trkpt lat="48.33334" lon="14.18958">
        <ele>265</ele>
        <time>2022-05-25T03:45:10Z</time>
      </trkpt>
      <trkpt lat="48.33303" lon="14.19051">
        <ele>270</ele>
        <time>2022-05-25T03:45:22Z</time>
      </trkpt>
      <trkpt lat="48.33292" lon="14.19075">
        <ele>270</ele>
        <time>2022-05-25T03:45:25Z</time>
      </trkpt>
      <trkpt lat="48.33259" lon="14.1911">
        <ele>270</ele>
        <time>2022-05-25T03:45:33Z</time>
      </trkpt>
      <trkpt lat="48.33201" lon="14.19145">
        <ele>265</ele>
        <time>2022-05-25T03:45:44Z</time>
      </trkpt>
      <trkpt lat="48.33183" lon="14.1917">
        <ele>263</ele>
        <time>2022-05-25T03:45:48Z</time>
      </trkpt>
      <trkpt lat="48.33152" lon="14.19255">
        <ele>267</ele>
        <time>2022-05-25T03:46:00Z</time>
      </trkpt>
      <trkpt lat="48.33183" lon="14.19272">
        <ele>275</ele>
        <time>2022-05-25T03:46:05Z</time>
      </trkpt>
      <trkpt lat="48.33187" lon="14.19285">
        <ele>277</ele>
        <time>2022-05-25T03:46:07Z</time>
      </trkpt>
      <trkpt lat="48.33181" lon="14.19294">
        <ele>277</ele>
        <time>2022-05-25T03:46:09Z</time>
      </trkpt>
      <trkpt lat="48.33172" lon="14.19289">
        <ele>275</ele>
        <time>2022-05-25T03:46:10Z</time>
      </trkpt>
      <trkpt lat="48.32975" lon="14.19481">
        <ele>268</ele>
        <time>2022-05-25T03:46:52Z</time>
      </trkpt>
      <trkpt lat="48.32963" lon="14.19502">
        <ele>269</ele>
        <time>2022-05-25T03:46:55Z</time>
      </trkpt>
      <trkpt lat="48.32946" lon="14.19506">
        <ele>266</ele>
        <time>2022-05-25T03:46:58Z</time>
      </trkpt>
      <trkpt lat="48.32848" lon="14.19598">
        <ele>268</ele>
        <time>2022-05-25T03:47:19Z</time>
      </trkpt>
      <trkpt lat="48.32688" lon="14.19754">
        <ele>269</ele>
        <time>2022-05-25T03:47:53Z</time>
      </trkpt>
      <trkpt lat="48.32603" lon="14.19849">
        <ele>265</ele>
        <time>2022-05-25T03:48:12Z</time>
      </trkpt>
      <trkpt lat="48.32552" lon="14.19924">
        <ele>264</ele>
        <time>2022-05-25T03:48:24Z</time>
      </trkpt>
      <trkpt lat="48.32392" lon="14.2022">
        <ele>259</ele>
        <time>2022-05-25T03:49:10Z</time>
      </trkpt>
      <trkpt lat="48.32334" lon="14.20322">
        <ele>260</ele>
        <time>2022-05-25T03:49:25Z</time>
      </trkpt>
      <trkpt lat="48.32264" lon="14.20431">
        <ele>258</ele>
        <time>2022-05-25T03:49:43Z</time>
      </trkpt>
      <trkpt lat="48.32194" lon="14.20534">
        <ele>258</ele>
        <time>2022-05-25T03:50:01Z</time>
      </trkpt>
      <trkpt lat="48.32088" lon="14.20722">
        <ele>264</ele>
        <time>2022-05-25T03:50:30Z</time>
      </trkpt>
      <trkpt lat="48.32015" lon="14.20829">
        <ele>271</ele>
        <time>2022-05-25T03:50:48Z</time>
      </trkpt>
      <trkpt lat="48.31934" lon="14.20912">
        <ele>271</ele>
        <time>2022-05-25T03:51:06Z</time>
      </trkpt>
      <trkpt lat="48.31726" lon="14.21082">
        <ele>266</ele>
        <time>2022-05-25T03:51:48Z</time>
      </trkpt>
      <trkpt lat="48.31676" lon="14.21139">
        <ele>267</ele>
        <time>2022-05-25T03:51:59Z</time>
      </trkpt>
      <trkpt lat="48.31626" lon="14.21218">
        <ele>271</ele>
        <time>2022-05-25T03:52:12Z</time>
      </trkpt>
      <trkpt lat="48.31499" lon="14.21448">
        <ele>270</ele>
        <time>2022-05-25T03:52:47Z</time>
      </trkpt>
      <trkpt lat="48.31481" lon="14.21465">
        <ele>270</ele>
        <time>2022-05-25T03:52:51Z</time>
      </trkpt>
      <trkpt lat="48.31339" lon="14.21705">
        <ele>265</ele>
        <time>2022-05-25T03:53:29Z</time>
      </trkpt>
      <trkpt lat="48.31306" lon="14.21781">
        <ele>266</ele>
        <time>2022-05-25T03:53:40Z</time>
      </trkpt>
      <trkpt lat="48.31286" lon="14.21852">
        <ele>264</ele>
        <time>2022-05-25T03:53:49Z</time>
      </trkpt>
      <trkpt lat="48.31279" lon="14.21894">
        <ele>263</ele>
        <time>2022-05-25T03:53:54Z</time>
      </trkpt>
      <trkpt lat="48.31267" lon="14.22041">
        <ele>267</ele>
        <time>2022-05-25T03:54:11Z</time>
      </trkpt>
      <trkpt lat="48.31266" lon="14.22314">
        <ele>272</ele>
        <time>2022-05-25T03:54:44Z</time>
      </trkpt>
      <trkpt lat="48.3126" lon="14.2237">
        <ele>271</ele>
        <time>2022-05-25T03:54:50Z</time>
      </trkpt>
      <trkpt lat="48.31235" lon="14.22519">
        <ele>270</ele>
        <time>2022-05-25T03:55:09Z</time>
      </trkpt>
      <trkpt lat="48.31151" lon="14.22938">
        <ele>265</ele>
        <time>2022-05-25T03:56:00Z</time>
      </trkpt>
      <trkpt lat="48.31132" lon="14.2305">
        <ele>269</ele>
        <time>2022-05-25T03:56:14Z</time>
      </trkpt>
      <trkpt lat="48.31124" lon="14.23137">
        <ele>271</ele>
        <time>2022-05-25T03:56:24Z</time>
      </trkpt>
      <trkpt lat="48.31128" lon="14.233">
        <ele>269</ele>
        <time>2022-05-25T03:56:44Z</time>
      </trkpt>
      <trkpt lat="48.31129" lon="14.23321">
        <ele>268</ele>
        <time>2022-05-25T03:56:46Z</time>
      </trkpt>
      <trkpt lat="48.31142" lon="14.23323">
        <ele>270</ele>
        <time>2022-05-25T03:56:49Z</time>
      </trkpt>
      <trkpt lat="48.31143" lon="14.23333">
        <ele>269</ele>
        <time>2022-05-25T03:56:50Z</time>
      </trkpt>
      <trkpt lat="48.31137" lon="14.23338">
        <ele>269</ele>
        <time>2022-05-25T03:56:51Z</time>
      </trkpt>
      <trkpt lat="48.31081" lon="14.23359">
        <ele>264</ele>
        <time>2022-05-25T03:57:01Z</time>
      </trkpt>
      <trkpt lat="48.3107" lon="14.23375">
        <ele>264</ele>
        <time>2022-05-25T03:57:04Z</time>
      </trkpt>
      <trkpt lat="48.31076" lon="14.23405">
        <ele>264</ele>
        <time>2022-05-25T03:57:08Z</time>
      </trkpt>
      <trkpt lat="48.31084" lon="14.23416">
        <ele>264</ele>
        <time>2022-05-25T03:57:10Z</time>
      </trkpt>
      <trkpt lat="48.31094" lon="14.23418">
        <ele>265</ele>
        <time>2022-05-25T03:57:11Z</time>
      </trkpt>
      <trkpt lat="48.31111" lon="14.23443">
        <ele>268</ele>
        <time>2022-05-25T03:57:16Z</time>
      </trkpt>
      <trkpt lat="48.31116" lon="14.23465">
        <ele>270</ele>
        <time>2022-05-25T03:57:18Z</time>
      </trkpt>
      <trkpt lat="48.31138" lon="14.23625">
        <ele>270</ele>
        <time>2022-05-25T03:57:38Z</time>
      </trkpt>
      <trkpt lat="48.31149" lon="14.23731">
        <ele>269</ele>
        <time>2022-05-25T03:57:50Z</time>
      </trkpt>
      <trkpt lat="48.31153" lon="14.23797">
        <ele>268</ele>
        <time>2022-05-25T03:57:58Z</time>
      </trkpt>
      <trkpt lat="48.3115" lon="14.23848">
        <ele>268</ele>
        <time>2022-05-25T03:58:04Z</time>
      </trkpt>
      <trkpt lat="48.31174" lon="14.24041">
        <ele>263</ele>
        <time>2022-05-25T03:58:28Z</time>
      </trkpt>
      <trkpt lat="48.31179" lon="14.24117">
        <ele>261</ele>
        <time>2022-05-25T03:58:37Z</time>
      </trkpt>
      <trkpt lat="48.31178" lon="14.24142">
        <ele>261</ele>
        <time>2022-05-25T03:58:40Z</time>
      </trkpt>
      <trkpt lat="48.31155" lon="14.24149">
        <ele>261</ele>
        <time>2022-05-25T03:58:44Z</time>
      </trkpt>
      <trkpt lat="48.31164" lon="14.24241">
        <ele>261</ele>
        <time>2022-05-25T03:58:55Z</time>
      </trkpt>
      <trkpt lat="48.31145" lon="14.24298">
        <ele>259</ele>
        <time>2022-05-25T03:59:02Z</time>
      </trkpt>
      <trkpt lat="48.31167" lon="14.24397">
        <ele>259</ele>
        <time>2022-05-25T03:59:15Z</time>
      </trkpt>
      <trkpt lat="48.31174" lon="14.24419">
        <ele>261</ele>
        <time>2022-05-25T03:59:18Z</time>
      </trkpt>
      <trkpt lat="48.312" lon="14.24435">
        <ele>267</ele>
        <time>2022-05-25T03:59:23Z</time>
      </trkpt>
      <trkpt lat="48.31203" lon="14.24456">
        <ele>268</ele>
        <time>2022-05-25T03:59:25Z</time>
      </trkpt>
      <trkpt lat="48.31196" lon="14.2453">
        <ele>268</ele>
        <time>2022-05-25T03:59:34Z</time>
      </trkpt>
      <trkpt lat="48.31166" lon="14.24675">
        <ele>262</ele>
        <time>2022-05-25T03:59:52Z</time>
      </trkpt>
      <trkpt lat="48.31168" lon="14.24687">
        <ele>263</ele>
        <time>2022-05-25T03:59:53Z</time>
      </trkpt>
      <trkpt lat="48.31157" lon="14.24752">
        <ele>263</ele>
        <time>2022-05-25T04:00:01Z</time>
      </trkpt>
      <trkpt lat="48.31151" lon="14.24766">
        <ele>263</ele>
        <time>2022-05-25T04:00:03Z</time>
      </trkpt>
      <trkpt lat="48.31133" lon="14.24881">
        <ele>262</ele>
        <time>2022-05-25T04:00:17Z</time>
      </trkpt>
      <trkpt lat="48.31103" lon="14.25175">
        <ele>260</ele>
        <time>2022-05-25T04:00:52Z</time>
      </trkpt>
      <trkpt lat="48.31097" lon="14.25269">
        <ele>259</ele>
        <time>2022-05-25T04:01:04Z</time>
      </trkpt>
      <trkpt lat="48.31096" lon="14.25389">
        <ele>262</ele>
        <time>2022-05-25T04:01:18Z</time>
      </trkpt>
      <trkpt lat="48.3108" lon="14.25523">
        <ele>263</ele>
        <time>2022-05-25T04:01:34Z</time>
      </trkpt>
      <trkpt lat="48.30874" lon="14.26131">
        <ele>263</ele>
        <time>2022-05-25T04:02:55Z</time>
      </trkpt>
      <trkpt lat="48.30857" lon="14.26205">
        <ele>265</ele>
        <time>2022-05-25T04:03:04Z</time>
      </trkpt>
      <trkpt lat="48.30816" lon="14.26449">
        <ele>266</ele>
        <time>2022-05-25T04:03:34Z</time>
      </trkpt>
      <trkpt lat="48.30799" lon="14.26529">
        <ele>269</ele>
        <time>2022-05-25T04:03:44Z</time>
      </trkpt>
      <trkpt lat="48.30765" lon="14.26629">
        <ele>266</ele>
        <time>2022-05-25T04:03:57Z</time>
      </trkpt>
      <trkpt lat="48.30675" lon="14.26868">
        <ele>262</ele>
        <time>2022-05-25T04:04:29Z</time>
      </trkpt>
      <trkpt lat="48.30635" lon="14.27012">
        <ele>263</ele>
        <time>2022-05-25T04:04:48Z</time>
      </trkpt>
      <trkpt lat="48.30615" lon="14.27152">
        <ele>264</ele>
        <time>2022-05-25T04:05:05Z</time>
      </trkpt>
      <trkpt lat="48.30611" lon="14.27198">
        <ele>262</ele>
        <time>2022-05-25T04:05:10Z</time>
      </trkpt>
      <trkpt lat="48.30614" lon="14.27222">
        <ele>261</ele>
        <time>2022-05-25T04:05:13Z</time>
      </trkpt>
      <trkpt lat="48.30617" lon="14.27222">
        <ele>261</ele>
        <time>2022-05-25T04:05:14Z</time>
      </trkpt>
      <trkpt lat="48.30612" lon="14.27273">
        <ele>259</ele>
        <time>2022-05-25T04:05:20Z</time>
      </trkpt>
      <trkpt lat="48.30613" lon="14.27319">
        <ele>258</ele>
        <time>2022-05-25T04:05:25Z</time>
      </trkpt>
      <trkpt lat="48.30619" lon="14.27374">
        <ele>259</ele>
        <time>2022-05-25T04:05:32Z</time>
      </trkpt>
      <trkpt lat="48.30643" lon="14.27495">
        <ele>259</ele>
        <time>2022-05-25T04:05:47Z</time>
      </trkpt>
      <trkpt lat="48.30703" lon="14.27688">
        <ele>256</ele>
        <time>2022-05-25T04:06:12Z</time>
      </trkpt>
      <trkpt lat="48.30743" lon="14.27789">
        <ele>256</ele>
        <time>2022-05-25T04:06:26Z</time>
      </trkpt>
      <trkpt lat="48.30777" lon="14.27887">
        <ele>258</ele>
        <time>2022-05-25T04:06:39Z</time>
      </trkpt>
      <trkpt lat="48.3079" lon="14.27939">
        <ele>257</ele>
        <time>2022-05-25T04:06:46Z</time>
      </trkpt>
      <trkpt lat="48.30818" lon="14.28091">
        <ele>256</ele>
        <time>2022-05-25T04:07:04Z</time>
      </trkpt>
      <trkpt lat="48.30833" lon="14.28144">
        <ele>256</ele>
        <time>2022-05-25T04:07:11Z</time>
      </trkpt>
      <trkpt lat="48.3087" lon="14.28257">
        <ele>259</ele>
        <time>2022-05-25T04:07:26Z</time>
      </trkpt>
      <trkpt lat="48.30871" lon="14.28268">
        <ele>259</ele>
        <time>2022-05-25T04:07:27Z</time>
      </trkpt>
      <trkpt lat="48.30865" lon="14.28272">
        <ele>258</ele>
        <time>2022-05-25T04:07:29Z</time>
      </trkpt>
    </trkseg>
  </trk>
</gpx>